<?xml version="1.0" encoding="UTF-8"?>
<gpx creator="Garmin Connect" version="1.1"
  xsi:schemaLocation="http://www.topografix.com/GPX/1/1 http://www.topografix.com/GPX/11.xsd"
  xmlns:ns3="http://www.garmin.com/xmlschemas/TrackPointExtension/v1"
  xmlns="http://www.topografix.com/GPX/1/1"
  xmlns:xsi="http://www.w3.org/2001/XMLSchema-instance" xmlns:ns2="http://www.garmin.com/xmlschemas/GpxExtensions/v3">
  <metadata>
    <link href="connect.garmin.com">
      <text>Garmin Connect</text>
    </link>
    <time>2026-06-18T06:36:56.000Z</time>
  </metadata>
  <trk>
    <name>Plav Mountainbiken</name>
    <type>mountain_biking</type>
    <trkseg>
      <trkpt lat="42.52251218073070049285888671875" lon="19.84528966248035430908203125">
        <ele>1007.79998779296875</ele>
        <time>2026-06-18T06:36:56.000Z</time>
        <extensions>
          <ns3:TrackPointExtension>
            <ns3:atemp>17.0</ns3:atemp>
          </ns3:TrackPointExtension>
        </extensions>
      </trkpt>
      <trkpt lat="42.52251234836876392364501953125" lon="19.84528957866132259368896484375">
        <ele>1007.5999755859375</ele>
        <time>2026-06-18T06:36:57.000Z</time>
        <extensions>
          <ns3:TrackPointExtension>
            <ns3:atemp>17.0</ns3:atemp>
          </ns3:TrackPointExtension>
        </extensions>
      </trkpt>
      <trkpt lat="42.52251234836876392364501953125" lon="19.84528957866132259368896484375">
        <ele>1007.5999755859375</ele>
        <time>2026-06-18T06:36:58.000Z</time>
        <extensions>
          <ns3:TrackPointExtension>
            <ns3:atemp>17.0</ns3:atemp>
          </ns3:TrackPointExtension>
        </extensions>
      </trkpt>
      <trkpt lat="42.52251234836876392364501953125" lon="19.84528957866132259368896484375">
        <ele>1007.5999755859375</ele>
        <time>2026-06-18T06:36:59.000Z</time>
        <extensions>
          <ns3:TrackPointExtension>
            <ns3:atemp>17.0</ns3:atemp>
          </ns3:TrackPointExtension>
        </extensions>
      </trkpt>
      <trkpt lat="42.52251234836876392364501953125" lon="19.84528957866132259368896484375">
        <ele>1007.5999755859375</ele>
        <time>2026-06-18T06:37:00.000Z</time>
        <extensions>
          <ns3:TrackPointExtension>
            <ns3:atemp>17.0</ns3:atemp>
          </ns3:TrackPointExtension>
        </extensions>
      </trkpt>
      <trkpt lat="42.52251234836876392364501953125" lon="19.84528957866132259368896484375">
        <ele>1007.5999755859375</ele>
        <time>2026-06-18T06:37:01.000Z</time>
        <extensions>
          <ns3:TrackPointExtension>
            <ns3:atemp>17.0</ns3:atemp>
          </ns3:TrackPointExtension>
        </extensions>
      </trkpt>
      <trkpt lat="42.52251201309263706207275390625" lon="19.84528739936649799346923828125">
        <ele>1007.5999755859375</ele>
        <time>2026-06-18T06:37:02.000Z</time>
        <extensions>
          <ns3:TrackPointExtension>
            <ns3:atemp>17.0</ns3:atemp>
          </ns3:TrackPointExtension>
        </extensions>
      </trkpt>
      <trkpt lat="42.52251888625323772430419921875" lon="19.84526552259922027587890625">
        <ele>1007.5999755859375</ele>
        <time>2026-06-18T06:37:03.000Z</time>
        <extensions>
          <ns3:TrackPointExtension>
            <ns3:atemp>17.0</ns3:atemp>
          </ns3:TrackPointExtension>
        </extensions>
      </trkpt>
      <trkpt lat="42.522530369460582733154296875" lon="19.84526460058987140655517578125">
        <ele>1007.5999755859375</ele>
        <time>2026-06-18T06:37:04.000Z</time>
        <extensions>
          <ns3:TrackPointExtension>
            <ns3:atemp>17.0</ns3:atemp>
          </ns3:TrackPointExtension>
        </extensions>
      </trkpt>
      <trkpt lat="42.52253615297377109527587890625" lon="19.8452760837972164154052734375">
        <ele>1007.79998779296875</ele>
        <time>2026-06-18T06:37:05.000Z</time>
        <extensions>
          <ns3:TrackPointExtension>
            <ns3:atemp>17.0</ns3:atemp>
          </ns3:TrackPointExtension>
        </extensions>
      </trkpt>
      <trkpt lat="42.522544451057910919189453125" lon="19.84528589062392711639404296875">
        <ele>1007.79998779296875</ele>
        <time>2026-06-18T06:37:06.000Z</time>
        <extensions>
          <ns3:TrackPointExtension>
            <ns3:atemp>17.0</ns3:atemp>
          </ns3:TrackPointExtension>
        </extensions>
      </trkpt>
      <trkpt lat="42.52254545688629150390625" lon="19.8452978767454624176025390625">
        <ele>1007.79998779296875</ele>
        <time>2026-06-18T06:37:07.000Z</time>
        <extensions>
          <ns3:TrackPointExtension>
            <ns3:atemp>17.0</ns3:atemp>
          </ns3:TrackPointExtension>
        </extensions>
      </trkpt>
      <trkpt lat="42.52254688180983066558837890625" lon="19.84531204216182231903076171875">
        <ele>1007.79998779296875</ele>
        <time>2026-06-18T06:37:08.000Z</time>
        <extensions>
          <ns3:TrackPointExtension>
            <ns3:atemp>17.0</ns3:atemp>
          </ns3:TrackPointExtension>
        </extensions>
      </trkpt>
      <trkpt lat="42.52254746854305267333984375" lon="19.8453233577311038970947265625">
        <ele>1007.79998779296875</ele>
        <time>2026-06-18T06:37:09.000Z</time>
        <extensions>
          <ns3:TrackPointExtension>
            <ns3:atemp>17.0</ns3:atemp>
          </ns3:TrackPointExtension>
        </extensions>
      </trkpt>
      <trkpt lat="42.5225476361811161041259765625" lon="19.84533886425197124481201171875">
        <ele>1008</ele>
        <time>2026-06-18T06:37:10.000Z</time>
        <extensions>
          <ns3:TrackPointExtension>
            <ns3:atemp>17.0</ns3:atemp>
          </ns3:TrackPointExtension>
        </extensions>
      </trkpt>
      <trkpt lat="42.5225493125617504119873046875" lon="19.84536342322826385498046875">
        <ele>1008</ele>
        <time>2026-06-18T06:37:11.000Z</time>
        <extensions>
          <ns3:TrackPointExtension>
            <ns3:atemp>17.0</ns3:atemp>
          </ns3:TrackPointExtension>
        </extensions>
      </trkpt>
      <trkpt lat="42.5225530005991458892822265625" lon="19.84538177959620952606201171875">
        <ele>1008.20001220703125</ele>
        <time>2026-06-18T06:37:12.000Z</time>
        <extensions>
          <ns3:TrackPointExtension>
            <ns3:atemp>17.0</ns3:atemp>
          </ns3:TrackPointExtension>
        </extensions>
      </trkpt>
      <trkpt lat="42.52255710773169994354248046875" lon="19.84540407545864582061767578125">
        <ele>1008.4000244140625</ele>
        <time>2026-06-18T06:37:13.000Z</time>
        <extensions>
          <ns3:TrackPointExtension>
            <ns3:atemp>17.0</ns3:atemp>
          </ns3:TrackPointExtension>
        </extensions>
      </trkpt>
      <trkpt lat="42.5225613825023174285888671875" lon="19.84541916288435459136962890625">
        <ele>1008.5999755859375</ele>
        <time>2026-06-18T06:37:14.000Z</time>
        <extensions>
          <ns3:TrackPointExtension>
            <ns3:atemp>17.0</ns3:atemp>
          </ns3:TrackPointExtension>
        </extensions>
      </trkpt>
      <trkpt lat="42.5225627236068248748779296875" lon="19.84543190337717533111572265625">
        <ele>1008.79998779296875</ele>
        <time>2026-06-18T06:37:15.000Z</time>
        <extensions>
          <ns3:TrackPointExtension>
            <ns3:atemp>17.0</ns3:atemp>
          </ns3:TrackPointExtension>
        </extensions>
      </trkpt>
      <trkpt lat="42.52255928702652454376220703125" lon="19.845443554222583770751953125">
        <ele>1009.20001220703125</ele>
        <time>2026-06-18T06:37:16.000Z</time>
        <extensions>
          <ns3:TrackPointExtension>
            <ns3:atemp>17.0</ns3:atemp>
          </ns3:TrackPointExtension>
        </extensions>
      </trkpt>
      <trkpt lat="42.5225521624088287353515625" lon="19.8454594798386096954345703125">
        <ele>1009.4000244140625</ele>
        <time>2026-06-18T06:37:17.000Z</time>
        <extensions>
          <ns3:TrackPointExtension>
            <ns3:atemp>17.0</ns3:atemp>
          </ns3:TrackPointExtension>
        </extensions>
      </trkpt>
      <trkpt lat="42.52254302613437175750732421875" lon="19.8454727232456207275390625">
        <ele>1009.5999755859375</ele>
        <time>2026-06-18T06:37:18.000Z</time>
        <extensions>
          <ns3:TrackPointExtension>
            <ns3:atemp>17.0</ns3:atemp>
          </ns3:TrackPointExtension>
        </extensions>
      </trkpt>
      <trkpt lat="42.5225318782031536102294921875" lon="19.84549443237483501434326171875">
        <ele>1010</ele>
        <time>2026-06-18T06:37:19.000Z</time>
        <extensions>
          <ns3:TrackPointExtension>
            <ns3:atemp>17.0</ns3:atemp>
          </ns3:TrackPointExtension>
        </extensions>
      </trkpt>
      <trkpt lat="42.5225204788148403167724609375" lon="19.84551505185663700103759765625">
        <ele>1010</ele>
        <time>2026-06-18T06:37:20.000Z</time>
        <extensions>
          <ns3:TrackPointExtension>
            <ns3:atemp>17.0</ns3:atemp>
          </ns3:TrackPointExtension>
        </extensions>
      </trkpt>
      <trkpt lat="42.5225065648555755615234375" lon="19.84553935937583446502685546875">
        <ele>1010</ele>
        <time>2026-06-18T06:37:21.000Z</time>
        <extensions>
          <ns3:TrackPointExtension>
            <ns3:atemp>17.0</ns3:atemp>
          </ns3:TrackPointExtension>
        </extensions>
      </trkpt>
      <trkpt lat="42.522486783564090728759765625" lon="19.8455721326172351837158203125">
        <ele>1010</ele>
        <time>2026-06-18T06:37:22.000Z</time>
        <extensions>
          <ns3:TrackPointExtension>
            <ns3:atemp>17.0</ns3:atemp>
          </ns3:TrackPointExtension>
        </extensions>
      </trkpt>
      <trkpt lat="42.5224651582539081573486328125" lon="19.845609180629253387451171875">
        <ele>1009.79998779296875</ele>
        <time>2026-06-18T06:37:23.000Z</time>
        <extensions>
          <ns3:TrackPointExtension>
            <ns3:atemp>17.0</ns3:atemp>
          </ns3:TrackPointExtension>
        </extensions>
      </trkpt>
      <trkpt lat="42.522450573742389678955078125" lon="19.84564966522157192230224609375">
        <ele>1009.5999755859375</ele>
        <time>2026-06-18T06:37:24.000Z</time>
        <extensions>
          <ns3:TrackPointExtension>
            <ns3:atemp>17.0</ns3:atemp>
          </ns3:TrackPointExtension>
        </extensions>
      </trkpt>
      <trkpt lat="42.52244596369564533233642578125" lon="19.84569509513676166534423828125">
        <ele>1009.4000244140625</ele>
        <time>2026-06-18T06:37:25.000Z</time>
        <extensions>
          <ns3:TrackPointExtension>
            <ns3:atemp>17.0</ns3:atemp>
          </ns3:TrackPointExtension>
        </extensions>
      </trkpt>
      <trkpt lat="42.5224292837083339691162109375" lon="19.845737256109714508056640625">
        <ele>1008.79998779296875</ele>
        <time>2026-06-18T06:37:26.000Z</time>
        <extensions>
          <ns3:TrackPointExtension>
            <ns3:atemp>17.0</ns3:atemp>
          </ns3:TrackPointExtension>
        </extensions>
      </trkpt>
      <trkpt lat="42.522400282323360443115234375" lon="19.84576248563826084136962890625">
        <ele>1008.4000244140625</ele>
        <time>2026-06-18T06:37:27.000Z</time>
        <extensions>
          <ns3:TrackPointExtension>
            <ns3:atemp>17.0</ns3:atemp>
          </ns3:TrackPointExtension>
        </extensions>
      </trkpt>
      <trkpt lat="42.52236633561551570892333984375" lon="19.84576801769435405731201171875">
        <ele>1008</ele>
        <time>2026-06-18T06:37:28.000Z</time>
        <extensions>
          <ns3:TrackPointExtension>
            <ns3:atemp>17.0</ns3:atemp>
          </ns3:TrackPointExtension>
        </extensions>
      </trkpt>
      <trkpt lat="42.522338591516017913818359375" lon="19.84574773348867893218994140625">
        <ele>1007.4000244140625</ele>
        <time>2026-06-18T06:37:29.000Z</time>
        <extensions>
          <ns3:TrackPointExtension>
            <ns3:atemp>17.0</ns3:atemp>
          </ns3:TrackPointExtension>
        </extensions>
      </trkpt>
      <trkpt lat="42.5223152898252010345458984375" lon="19.84571211040019989013671875">
        <ele>1007</ele>
        <time>2026-06-18T06:37:30.000Z</time>
        <extensions>
          <ns3:TrackPointExtension>
            <ns3:atemp>17.0</ns3:atemp>
          </ns3:TrackPointExtension>
        </extensions>
      </trkpt>
      <trkpt lat="42.52229358069598674774169921875" lon="19.8456683568656444549560546875">
        <ele>1006.4000244140625</ele>
        <time>2026-06-18T06:37:31.000Z</time>
        <extensions>
          <ns3:TrackPointExtension>
            <ns3:atemp>17.0</ns3:atemp>
          </ns3:TrackPointExtension>
        </extensions>
      </trkpt>
      <trkpt lat="42.52227748744189739227294921875" lon="19.84560624696314334869384765625">
        <ele>1005.79998779296875</ele>
        <time>2026-06-18T06:37:32.000Z</time>
        <extensions>
          <ns3:TrackPointExtension>
            <ns3:atemp>17.0</ns3:atemp>
          </ns3:TrackPointExtension>
        </extensions>
      </trkpt>
      <trkpt lat="42.5222733803093433380126953125" lon="19.845528714358806610107421875">
        <ele>1005</ele>
        <time>2026-06-18T06:37:33.000Z</time>
        <extensions>
          <ns3:TrackPointExtension>
            <ns3:atemp>17.0</ns3:atemp>
          </ns3:TrackPointExtension>
        </extensions>
      </trkpt>
      <trkpt lat="42.522274218499660491943359375" lon="19.8454474098980426788330078125">
        <ele>1004.20001220703125</ele>
        <time>2026-06-18T06:37:34.000Z</time>
        <extensions>
          <ns3:TrackPointExtension>
            <ns3:atemp>17.0</ns3:atemp>
          </ns3:TrackPointExtension>
        </extensions>
      </trkpt>
      <trkpt lat="42.52228285185992717742919921875" lon="19.84535864554345607757568359375">
        <ele>1003.4000244140625</ele>
        <time>2026-06-18T06:37:35.000Z</time>
        <extensions>
          <ns3:TrackPointExtension>
            <ns3:atemp>17.0</ns3:atemp>
          </ns3:TrackPointExtension>
        </extensions>
      </trkpt>
      <trkpt lat="42.5223015435039997100830078125" lon="19.8452688753604888916015625">
        <ele>1002.5999755859375</ele>
        <time>2026-06-18T06:37:36.000Z</time>
        <extensions>
          <ns3:TrackPointExtension>
            <ns3:atemp>17.0</ns3:atemp>
          </ns3:TrackPointExtension>
        </extensions>
      </trkpt>
      <trkpt lat="42.52232157625257968902587890625" lon="19.8451825417578220367431640625">
        <ele>1001.79998779296875</ele>
        <time>2026-06-18T06:37:37.000Z</time>
        <extensions>
          <ns3:TrackPointExtension>
            <ns3:atemp>17.0</ns3:atemp>
          </ns3:TrackPointExtension>
        </extensions>
      </trkpt>
      <trkpt lat="42.52234437502920627593994140625" lon="19.84509562142193317413330078125">
        <ele>1001.20001220703125</ele>
        <time>2026-06-18T06:37:38.000Z</time>
        <extensions>
          <ns3:TrackPointExtension>
            <ns3:atemp>17.0</ns3:atemp>
          </ns3:TrackPointExtension>
        </extensions>
      </trkpt>
      <trkpt lat="42.52236952073872089385986328125" lon="19.84501062892377376556396484375">
        <ele>1000.4000244140625</ele>
        <time>2026-06-18T06:37:39.000Z</time>
        <extensions>
          <ns3:TrackPointExtension>
            <ns3:atemp>17.0</ns3:atemp>
          </ns3:TrackPointExtension>
        </extensions>
      </trkpt>
      <trkpt lat="42.52239164896309375762939453125" lon="19.84492597170174121856689453125">
        <ele>1000</ele>
        <time>2026-06-18T06:37:40.000Z</time>
        <extensions>
          <ns3:TrackPointExtension>
            <ns3:atemp>17.0</ns3:atemp>
          </ns3:TrackPointExtension>
        </extensions>
      </trkpt>
      <trkpt lat="42.5224095024168491363525390625" lon="19.84483930282294750213623046875">
        <ele>999.4000244140625</ele>
        <time>2026-06-18T06:37:41.000Z</time>
        <extensions>
          <ns3:TrackPointExtension>
            <ns3:atemp>17.0</ns3:atemp>
          </ns3:TrackPointExtension>
        </extensions>
      </trkpt>
      <trkpt lat="42.52241729758679866790771484375" lon="19.844758920371532440185546875">
        <ele>999.20001220703125</ele>
        <time>2026-06-18T06:37:42.000Z</time>
        <extensions>
          <ns3:TrackPointExtension>
            <ns3:atemp>17.0</ns3:atemp>
          </ns3:TrackPointExtension>
        </extensions>
      </trkpt>
      <trkpt lat="42.52242718823254108428955078125" lon="19.84467116184532642364501953125">
        <ele>999</ele>
        <time>2026-06-18T06:37:43.000Z</time>
        <extensions>
          <ns3:TrackPointExtension>
            <ns3:atemp>17.0</ns3:atemp>
          </ns3:TrackPointExtension>
        </extensions>
      </trkpt>
      <trkpt lat="42.52243841998279094696044921875" lon="19.84458583407104015350341796875">
        <ele>998.79998779296875</ele>
        <time>2026-06-18T06:37:44.000Z</time>
        <extensions>
          <ns3:TrackPointExtension>
            <ns3:atemp>17.0</ns3:atemp>
          </ns3:TrackPointExtension>
        </extensions>
      </trkpt>
      <trkpt lat="42.5224507413804531097412109375" lon="19.84450000338256359100341796875">
        <ele>998.5999755859375</ele>
        <time>2026-06-18T06:37:45.000Z</time>
        <extensions>
          <ns3:TrackPointExtension>
            <ns3:atemp>17.0</ns3:atemp>
          </ns3:TrackPointExtension>
        </extensions>
      </trkpt>
      <trkpt lat="42.5224604643881320953369140625" lon="19.844416938722133636474609375">
        <ele>998.20001220703125</ele>
        <time>2026-06-18T06:37:46.000Z</time>
        <extensions>
          <ns3:TrackPointExtension>
            <ns3:atemp>17.0</ns3:atemp>
          </ns3:TrackPointExtension>
        </extensions>
      </trkpt>
      <trkpt lat="42.5224698521196842193603515625" lon="19.8443326167762279510498046875">
        <ele>997.79998779296875</ele>
        <time>2026-06-18T06:37:47.000Z</time>
        <extensions>
          <ns3:TrackPointExtension>
            <ns3:atemp>17.0</ns3:atemp>
          </ns3:TrackPointExtension>
        </extensions>
      </trkpt>
      <trkpt lat="42.52247773110866546630859375" lon="19.84424418769776821136474609375">
        <ele>997.5999755859375</ele>
        <time>2026-06-18T06:37:48.000Z</time>
        <extensions>
          <ns3:TrackPointExtension>
            <ns3:atemp>17.0</ns3:atemp>
          </ns3:TrackPointExtension>
        </extensions>
      </trkpt>
      <trkpt lat="42.522490806877613067626953125" lon="19.8441539146006107330322265625">
        <ele>997.20001220703125</ele>
        <time>2026-06-18T06:37:49.000Z</time>
        <extensions>
          <ns3:TrackPointExtension>
            <ns3:atemp>17.0</ns3:atemp>
          </ns3:TrackPointExtension>
        </extensions>
      </trkpt>
      <trkpt lat="42.522510252892971038818359375" lon="19.8440670780837535858154296875">
        <ele>996.79998779296875</ele>
        <time>2026-06-18T06:37:50.000Z</time>
        <extensions>
          <ns3:TrackPointExtension>
            <ns3:atemp>17.0</ns3:atemp>
          </ns3:TrackPointExtension>
        </extensions>
      </trkpt>
      <trkpt lat="42.52254009246826171875" lon="19.84398367814719676971435546875">
        <ele>996.5999755859375</ele>
        <time>2026-06-18T06:37:51.000Z</time>
        <extensions>
          <ns3:TrackPointExtension>
            <ns3:atemp>17.0</ns3:atemp>
          </ns3:TrackPointExtension>
        </extensions>
      </trkpt>
      <trkpt lat="42.52258074469864368438720703125" lon="19.84390388242900371551513671875">
        <ele>996</ele>
        <time>2026-06-18T06:37:52.000Z</time>
        <extensions>
          <ns3:TrackPointExtension>
            <ns3:atemp>17.0</ns3:atemp>
          </ns3:TrackPointExtension>
        </extensions>
      </trkpt>
      <trkpt lat="42.5226247496902942657470703125" lon="19.84383028931915760040283203125">
        <ele>995.5999755859375</ele>
        <time>2026-06-18T06:37:53.000Z</time>
        <extensions>
          <ns3:TrackPointExtension>
            <ns3:atemp>17.0</ns3:atemp>
          </ns3:TrackPointExtension>
        </extensions>
      </trkpt>
      <trkpt lat="42.522667832672595977783203125" lon="19.843761809170246124267578125">
        <ele>995.20001220703125</ele>
        <time>2026-06-18T06:37:54.000Z</time>
        <extensions>
          <ns3:TrackPointExtension>
            <ns3:atemp>17.0</ns3:atemp>
          </ns3:TrackPointExtension>
        </extensions>
      </trkpt>
      <trkpt lat="42.5227058865129947662353515625" lon="19.8436989448964595794677734375">
        <ele>994.79998779296875</ele>
        <time>2026-06-18T06:37:55.000Z</time>
        <extensions>
          <ns3:TrackPointExtension>
            <ns3:atemp>17.0</ns3:atemp>
          </ns3:TrackPointExtension>
        </extensions>
      </trkpt>
      <trkpt lat="42.52274419181048870086669921875" lon="19.8436463065445423126220703125">
        <ele>994.5999755859375</ele>
        <time>2026-06-18T06:37:56.000Z</time>
        <extensions>
          <ns3:TrackPointExtension>
            <ns3:atemp>17.0</ns3:atemp>
          </ns3:TrackPointExtension>
        </extensions>
      </trkpt>
      <trkpt lat="42.52277520485222339630126953125" lon="19.84359140507876873016357421875">
        <ele>994.4000244140625</ele>
        <time>2026-06-18T06:37:57.000Z</time>
        <extensions>
          <ns3:TrackPointExtension>
            <ns3:atemp>17.0</ns3:atemp>
          </ns3:TrackPointExtension>
        </extensions>
      </trkpt>
      <trkpt lat="42.52280487678945064544677734375" lon="19.8435400240123271942138671875">
        <ele>994.4000244140625</ele>
        <time>2026-06-18T06:37:58.000Z</time>
        <extensions>
          <ns3:TrackPointExtension>
            <ns3:atemp>17.0</ns3:atemp>
          </ns3:TrackPointExtension>
        </extensions>
      </trkpt>
      <trkpt lat="42.5228349678218364715576171875" lon="19.84349283389747142791748046875">
        <ele>994.4000244140625</ele>
        <time>2026-06-18T06:37:59.000Z</time>
        <extensions>
          <ns3:TrackPointExtension>
            <ns3:atemp>17.0</ns3:atemp>
          </ns3:TrackPointExtension>
        </extensions>
      </trkpt>
      <trkpt lat="42.52286757342517375946044921875" lon="19.84344639815390110015869140625">
        <ele>994.20001220703125</ele>
        <time>2026-06-18T06:38:00.000Z</time>
        <extensions>
          <ns3:TrackPointExtension>
            <ns3:atemp>17.0</ns3:atemp>
          </ns3:TrackPointExtension>
        </extensions>
      </trkpt>
      <trkpt lat="42.5228993408381938934326171875" lon="19.8434002138674259185791015625">
        <ele>994.20001220703125</ele>
        <time>2026-06-18T06:38:01.000Z</time>
        <extensions>
          <ns3:TrackPointExtension>
            <ns3:atemp>17.0</ns3:atemp>
          </ns3:TrackPointExtension>
        </extensions>
      </trkpt>
      <trkpt lat="42.52293211407959461212158203125" lon="19.8433526046574115753173828125">
        <ele>994.20001220703125</ele>
        <time>2026-06-18T06:38:02.000Z</time>
        <extensions>
          <ns3:TrackPointExtension>
            <ns3:atemp>17.0</ns3:atemp>
          </ns3:TrackPointExtension>
        </extensions>
      </trkpt>
      <trkpt lat="42.52296748571097850799560546875" lon="19.8433153890073299407958984375">
        <ele>994</ele>
        <time>2026-06-18T06:38:03.000Z</time>
        <extensions>
          <ns3:TrackPointExtension>
            <ns3:atemp>17.0</ns3:atemp>
          </ns3:TrackPointExtension>
        </extensions>
      </trkpt>
      <trkpt lat="42.523008473217487335205078125" lon="19.843285717070102691650390625">
        <ele>994</ele>
        <time>2026-06-18T06:38:04.000Z</time>
        <extensions>
          <ns3:TrackPointExtension>
            <ns3:atemp>17.0</ns3:atemp>
          </ns3:TrackPointExtension>
        </extensions>
      </trkpt>
      <trkpt lat="42.52304795198142528533935546875" lon="19.84325663186609745025634765625">
        <ele>993.79998779296875</ele>
        <time>2026-06-18T06:38:05.000Z</time>
        <extensions>
          <ns3:TrackPointExtension>
            <ns3:atemp>17.0</ns3:atemp>
          </ns3:TrackPointExtension>
        </extensions>
      </trkpt>
      <trkpt lat="42.52308399416506290435791015625" lon="19.84322427771985530853271484375">
        <ele>993.79998779296875</ele>
        <time>2026-06-18T06:38:06.000Z</time>
        <extensions>
          <ns3:TrackPointExtension>
            <ns3:atemp>17.0</ns3:atemp>
          </ns3:TrackPointExtension>
        </extensions>
      </trkpt>
      <trkpt lat="42.5231162644922733306884765625" lon="19.8431936837732791900634765625">
        <ele>993.79998779296875</ele>
        <time>2026-06-18T06:38:07.000Z</time>
        <extensions>
          <ns3:TrackPointExtension>
            <ns3:atemp>17.0</ns3:atemp>
          </ns3:TrackPointExtension>
        </extensions>
      </trkpt>
      <trkpt lat="42.5231476128101348876953125" lon="19.8431668616831302642822265625">
        <ele>993.79998779296875</ele>
        <time>2026-06-18T06:38:08.000Z</time>
        <extensions>
          <ns3:TrackPointExtension>
            <ns3:atemp>17.0</ns3:atemp>
          </ns3:TrackPointExtension>
        </extensions>
      </trkpt>
      <trkpt lat="42.5231776200234889984130859375" lon="19.8431417159736156463623046875">
        <ele>994</ele>
        <time>2026-06-18T06:38:09.000Z</time>
        <extensions>
          <ns3:TrackPointExtension>
            <ns3:atemp>17.0</ns3:atemp>
          </ns3:TrackPointExtension>
        </extensions>
      </trkpt>
      <trkpt lat="42.52320117317140102386474609375" lon="19.8431177437305450439453125">
        <ele>994.20001220703125</ele>
        <time>2026-06-18T06:38:10.000Z</time>
        <extensions>
          <ns3:TrackPointExtension>
            <ns3:atemp>17.0</ns3:atemp>
          </ns3:TrackPointExtension>
        </extensions>
      </trkpt>
      <trkpt lat="42.5232215411961078643798828125" lon="19.8430988006293773651123046875">
        <ele>994.5999755859375</ele>
        <time>2026-06-18T06:38:11.000Z</time>
        <extensions>
          <ns3:TrackPointExtension>
            <ns3:atemp>17.0</ns3:atemp>
          </ns3:TrackPointExtension>
        </extensions>
      </trkpt>
      <trkpt lat="42.52324484288692474365234375" lon="19.84308564104139804840087890625">
        <ele>995</ele>
        <time>2026-06-18T06:38:12.000Z</time>
        <extensions>
          <ns3:TrackPointExtension>
            <ns3:atemp>17.0</ns3:atemp>
          </ns3:TrackPointExtension>
        </extensions>
      </trkpt>
      <trkpt lat="42.52326856367290019989013671875" lon="19.84307139180600643157958984375">
        <ele>995.20001220703125</ele>
        <time>2026-06-18T06:38:13.000Z</time>
        <extensions>
          <ns3:TrackPointExtension>
            <ns3:atemp>17.0</ns3:atemp>
          </ns3:TrackPointExtension>
        </extensions>
      </trkpt>
      <trkpt lat="42.523289434611797332763671875" lon="19.84305613674223423004150390625">
        <ele>995.5999755859375</ele>
        <time>2026-06-18T06:38:14.000Z</time>
        <extensions>
          <ns3:TrackPointExtension>
            <ns3:atemp>17.0</ns3:atemp>
          </ns3:TrackPointExtension>
        </extensions>
      </trkpt>
      <trkpt lat="42.52330946736037731170654296875" lon="19.843039624392986297607421875">
        <ele>996</ele>
        <time>2026-06-18T06:38:15.000Z</time>
        <extensions>
          <ns3:TrackPointExtension>
            <ns3:atemp>17.0</ns3:atemp>
          </ns3:TrackPointExtension>
        </extensions>
      </trkpt>
      <trkpt lat="42.52332824282348155975341796875" lon="19.8430263809859752655029296875">
        <ele>996.4000244140625</ele>
        <time>2026-06-18T06:38:16.000Z</time>
        <extensions>
          <ns3:TrackPointExtension>
            <ns3:atemp>17.0</ns3:atemp>
          </ns3:TrackPointExtension>
        </extensions>
      </trkpt>
      <trkpt lat="42.5233469344675540924072265625" lon="19.8430146463215351104736328125">
        <ele>996.5999755859375</ele>
        <time>2026-06-18T06:38:17.000Z</time>
        <extensions>
          <ns3:TrackPointExtension>
            <ns3:atemp>17.0</ns3:atemp>
          </ns3:TrackPointExtension>
        </extensions>
      </trkpt>
      <trkpt lat="42.52336814068257808685302734375" lon="19.84300500713288784027099609375">
        <ele>997</ele>
        <time>2026-06-18T06:38:18.000Z</time>
        <extensions>
          <ns3:TrackPointExtension>
            <ns3:atemp>17.0</ns3:atemp>
          </ns3:TrackPointExtension>
        </extensions>
      </trkpt>
      <trkpt lat="42.5233895145356655120849609375" lon="19.84300064854323863983154296875">
        <ele>997.4000244140625</ele>
        <time>2026-06-18T06:38:19.000Z</time>
        <extensions>
          <ns3:TrackPointExtension>
            <ns3:atemp>17.0</ns3:atemp>
          </ns3:TrackPointExtension>
        </extensions>
      </trkpt>
      <trkpt lat="42.5234103016555309295654296875" lon="19.8430005647242069244384765625">
        <ele>997.79998779296875</ele>
        <time>2026-06-18T06:38:20.000Z</time>
        <extensions>
          <ns3:TrackPointExtension>
            <ns3:atemp>17.0</ns3:atemp>
          </ns3:TrackPointExtension>
        </extensions>
      </trkpt>
      <trkpt lat="42.52343125641345977783203125" lon="19.843000732362270355224609375">
        <ele>998.20001220703125</ele>
        <time>2026-06-18T06:38:21.000Z</time>
        <extensions>
          <ns3:TrackPointExtension>
            <ns3:atemp>17.0</ns3:atemp>
          </ns3:TrackPointExtension>
        </extensions>
      </trkpt>
      <trkpt lat="42.5234532169997692108154296875" lon="19.8430065996944904327392578125">
        <ele>998.4000244140625</ele>
        <time>2026-06-18T06:38:22.000Z</time>
        <extensions>
          <ns3:TrackPointExtension>
            <ns3:atemp>17.0</ns3:atemp>
          </ns3:TrackPointExtension>
        </extensions>
      </trkpt>
      <trkpt lat="42.52347291447222232818603515625" lon="19.84301573596894741058349609375">
        <ele>998.79998779296875</ele>
        <time>2026-06-18T06:38:23.000Z</time>
        <extensions>
          <ns3:TrackPointExtension>
            <ns3:atemp>17.0</ns3:atemp>
          </ns3:TrackPointExtension>
        </extensions>
      </trkpt>
      <trkpt lat="42.5234944559633731842041015625" lon="19.8430287279188632965087890625">
        <ele>999.20001220703125</ele>
        <time>2026-06-18T06:38:24.000Z</time>
        <extensions>
          <ns3:TrackPointExtension>
            <ns3:atemp>17.0</ns3:atemp>
          </ns3:TrackPointExtension>
        </extensions>
      </trkpt>
      <trkpt lat="42.52351650036871433258056640625" lon="19.84304138459265232086181640625">
        <ele>999.4000244140625</ele>
        <time>2026-06-18T06:38:25.000Z</time>
        <extensions>
          <ns3:TrackPointExtension>
            <ns3:atemp>17.0</ns3:atemp>
          </ns3:TrackPointExtension>
        </extensions>
      </trkpt>
      <trkpt lat="42.52353711985051631927490234375" lon="19.843055717647075653076171875">
        <ele>999.79998779296875</ele>
        <time>2026-06-18T06:38:26.000Z</time>
        <extensions>
          <ns3:TrackPointExtension>
            <ns3:atemp>17.0</ns3:atemp>
          </ns3:TrackPointExtension>
        </extensions>
      </trkpt>
      <trkpt lat="42.52355706878006458282470703125" lon="19.8430686257779598236083984375">
        <ele>1000</ele>
        <time>2026-06-18T06:38:27.000Z</time>
        <extensions>
          <ns3:TrackPointExtension>
            <ns3:atemp>17.0</ns3:atemp>
          </ns3:TrackPointExtension>
        </extensions>
      </trkpt>
      <trkpt lat="42.523578442633152008056640625" lon="19.84308379702270030975341796875">
        <ele>1000.4000244140625</ele>
        <time>2026-06-18T06:38:28.000Z</time>
        <extensions>
          <ns3:TrackPointExtension>
            <ns3:atemp>17.0</ns3:atemp>
          </ns3:TrackPointExtension>
        </extensions>
      </trkpt>
      <trkpt lat="42.52359814010560512542724609375" lon="19.84310106374323368072509765625">
        <ele>1000.5999755859375</ele>
        <time>2026-06-18T06:38:29.000Z</time>
        <extensions>
          <ns3:TrackPointExtension>
            <ns3:atemp>17.0</ns3:atemp>
          </ns3:TrackPointExtension>
        </extensions>
      </trkpt>
      <trkpt lat="42.5236154906451702117919921875" lon="19.84311573207378387451171875">
        <ele>1001</ele>
        <time>2026-06-18T06:38:30.000Z</time>
        <extensions>
          <ns3:TrackPointExtension>
            <ns3:atemp>17.0</ns3:atemp>
          </ns3:TrackPointExtension>
        </extensions>
      </trkpt>
      <trkpt lat="42.5236335955560207366943359375" lon="19.84313157387077808380126953125">
        <ele>1001.4000244140625</ele>
        <time>2026-06-18T06:38:31.000Z</time>
        <extensions>
          <ns3:TrackPointExtension>
            <ns3:atemp>17.0</ns3:atemp>
          </ns3:TrackPointExtension>
        </extensions>
      </trkpt>
      <trkpt lat="42.52365077845752239227294921875" lon="19.84314984641969203948974609375">
        <ele>1001.79998779296875</ele>
        <time>2026-06-18T06:38:32.000Z</time>
        <extensions>
          <ns3:TrackPointExtension>
            <ns3:atemp>17.0</ns3:atemp>
          </ns3:TrackPointExtension>
        </extensions>
      </trkpt>
      <trkpt lat="42.5236674584448337554931640625" lon="19.843167364597320556640625">
        <ele>1002.20001220703125</ele>
        <time>2026-06-18T06:38:33.000Z</time>
        <extensions>
          <ns3:TrackPointExtension>
            <ns3:atemp>17.0</ns3:atemp>
          </ns3:TrackPointExtension>
        </extensions>
      </trkpt>
      <trkpt lat="42.52368413843214511871337890625" lon="19.8431819491088390350341796875">
        <ele>1002.4000244140625</ele>
        <time>2026-06-18T06:38:34.000Z</time>
        <extensions>
          <ns3:TrackPointExtension>
            <ns3:atemp>17.0</ns3:atemp>
          </ns3:TrackPointExtension>
        </extensions>
      </trkpt>
      <trkpt lat="42.52370039932429790496826171875" lon="19.8431960307061672210693359375">
        <ele>1002.79998779296875</ele>
        <time>2026-06-18T06:38:35.000Z</time>
        <extensions>
          <ns3:TrackPointExtension>
            <ns3:atemp>17.0</ns3:atemp>
          </ns3:TrackPointExtension>
        </extensions>
      </trkpt>
      <trkpt lat="42.523715905845165252685546875" lon="19.84321120195090770721435546875">
        <ele>1003.20001220703125</ele>
        <time>2026-06-18T06:38:36.000Z</time>
        <extensions>
          <ns3:TrackPointExtension>
            <ns3:atemp>17.0</ns3:atemp>
          </ns3:TrackPointExtension>
        </extensions>
      </trkpt>
      <trkpt lat="42.5237345136702060699462890625" lon="19.84323031269013881683349609375">
        <ele>1003.4000244140625</ele>
        <time>2026-06-18T06:38:37.000Z</time>
        <extensions>
          <ns3:TrackPointExtension>
            <ns3:atemp>17.0</ns3:atemp>
          </ns3:TrackPointExtension>
        </extensions>
      </trkpt>
      <trkpt lat="42.52375052310526371002197265625" lon="19.84324975870549678802490234375">
        <ele>1003.79998779296875</ele>
        <time>2026-06-18T06:38:38.000Z</time>
        <extensions>
          <ns3:TrackPointExtension>
            <ns3:atemp>17.0</ns3:atemp>
          </ns3:TrackPointExtension>
        </extensions>
      </trkpt>
      <trkpt lat="42.5237713940441608428955078125" lon="19.84326669014990329742431640625">
        <ele>1004.20001220703125</ele>
        <time>2026-06-18T06:38:39.000Z</time>
        <extensions>
          <ns3:TrackPointExtension>
            <ns3:atemp>17.0</ns3:atemp>
          </ns3:TrackPointExtension>
        </extensions>
      </trkpt>
      <trkpt lat="42.52379159443080425262451171875" lon="19.843281693756580352783203125">
        <ele>1004.4000244140625</ele>
        <time>2026-06-18T06:38:40.000Z</time>
        <extensions>
          <ns3:TrackPointExtension>
            <ns3:atemp>17.0</ns3:atemp>
          </ns3:TrackPointExtension>
        </extensions>
      </trkpt>
      <trkpt lat="42.523809783160686492919921875" lon="19.84329954721033573150634765625">
        <ele>1004.5999755859375</ele>
        <time>2026-06-18T06:38:41.000Z</time>
        <extensions>
          <ns3:TrackPointExtension>
            <ns3:atemp>17.0</ns3:atemp>
          </ns3:TrackPointExtension>
        </extensions>
      </trkpt>
      <trkpt lat="42.523829229176044464111328125" lon="19.84331413172185420989990234375">
        <ele>1005</ele>
        <time>2026-06-18T06:38:42.000Z</time>
        <extensions>
          <ns3:TrackPointExtension>
            <ns3:atemp>17.0</ns3:atemp>
          </ns3:TrackPointExtension>
        </extensions>
      </trkpt>
      <trkpt lat="42.52384892664849758148193359375" lon="19.8433281295001506805419921875">
        <ele>1005</ele>
        <time>2026-06-18T06:38:43.000Z</time>
        <extensions>
          <ns3:TrackPointExtension>
            <ns3:atemp>17.0</ns3:atemp>
          </ns3:TrackPointExtension>
        </extensions>
      </trkpt>
      <trkpt lat="42.52386904321610927581787109375" lon="19.84334615059196949005126953125">
        <ele>1005.20001220703125</ele>
        <time>2026-06-18T06:38:44.000Z</time>
        <extensions>
          <ns3:TrackPointExtension>
            <ns3:atemp>17.0</ns3:atemp>
          </ns3:TrackPointExtension>
        </extensions>
      </trkpt>
      <trkpt lat="42.52388949505984783172607421875" lon="19.8433646745979785919189453125">
        <ele>1005.4000244140625</ele>
        <time>2026-06-18T06:38:45.000Z</time>
        <extensions>
          <ns3:TrackPointExtension>
            <ns3:atemp>17.0</ns3:atemp>
          </ns3:TrackPointExtension>
        </extensions>
      </trkpt>
      <trkpt lat="42.52391028217971324920654296875" lon="19.843378923833370208740234375">
        <ele>1005.5999755859375</ele>
        <time>2026-06-18T06:38:46.000Z</time>
        <extensions>
          <ns3:TrackPointExtension>
            <ns3:atemp>17.0</ns3:atemp>
          </ns3:TrackPointExtension>
        </extensions>
      </trkpt>
      <trkpt lat="42.5239289738237857818603515625" lon="19.84339409507811069488525390625">
        <ele>1005.79998779296875</ele>
        <time>2026-06-18T06:38:47.000Z</time>
        <extensions>
          <ns3:TrackPointExtension>
            <ns3:atemp>17.0</ns3:atemp>
          </ns3:TrackPointExtension>
        </extensions>
      </trkpt>
      <trkpt lat="42.5239454023540019989013671875" lon="19.8434082604944705963134765625">
        <ele>1006</ele>
        <time>2026-06-18T06:38:48.000Z</time>
        <extensions>
          <ns3:TrackPointExtension>
            <ns3:atemp>17.0</ns3:atemp>
          </ns3:TrackPointExtension>
        </extensions>
      </trkpt>
      <trkpt lat="42.52396174706518650054931640625" lon="19.84341974370181560516357421875">
        <ele>1006.4000244140625</ele>
        <time>2026-06-18T06:38:49.000Z</time>
        <extensions>
          <ns3:TrackPointExtension>
            <ns3:atemp>17.0</ns3:atemp>
          </ns3:TrackPointExtension>
        </extensions>
      </trkpt>
      <trkpt lat="42.523982115089893341064453125" lon="19.84343399293720722198486328125">
        <ele>1006.5999755859375</ele>
        <time>2026-06-18T06:38:50.000Z</time>
        <extensions>
          <ns3:TrackPointExtension>
            <ns3:atemp>17.0</ns3:atemp>
          </ns3:TrackPointExtension>
        </extensions>
      </trkpt>
      <trkpt lat="42.52399812452495098114013671875" lon="19.84344623051583766937255859375">
        <ele>1006.79998779296875</ele>
        <time>2026-06-18T06:38:51.000Z</time>
        <extensions>
          <ns3:TrackPointExtension>
            <ns3:atemp>17.0</ns3:atemp>
          </ns3:TrackPointExtension>
        </extensions>
      </trkpt>
      <trkpt lat="42.5240164808928966522216796875" lon="19.84346014447510242462158203125">
        <ele>1006.79998779296875</ele>
        <time>2026-06-18T06:38:52.000Z</time>
        <extensions>
          <ns3:TrackPointExtension>
            <ns3:atemp>17.0</ns3:atemp>
          </ns3:TrackPointExtension>
        </extensions>
      </trkpt>
      <trkpt lat="42.52403517253696918487548828125" lon="19.8434706218540668487548828125">
        <ele>1007</ele>
        <time>2026-06-18T06:38:53.000Z</time>
        <extensions>
          <ns3:TrackPointExtension>
            <ns3:atemp>17.0</ns3:atemp>
          </ns3:TrackPointExtension>
        </extensions>
      </trkpt>
      <trkpt lat="42.52405495382845401763916015625" lon="19.84348185360431671142578125">
        <ele>1007.20001220703125</ele>
        <time>2026-06-18T06:38:54.000Z</time>
        <extensions>
          <ns3:TrackPointExtension>
            <ns3:atemp>17.0</ns3:atemp>
          </ns3:TrackPointExtension>
        </extensions>
      </trkpt>
      <trkpt lat="42.52407456748187541961669921875" lon="19.84349719248712062835693359375">
        <ele>1007.20001220703125</ele>
        <time>2026-06-18T06:38:55.000Z</time>
        <extensions>
          <ns3:TrackPointExtension>
            <ns3:atemp>17.0</ns3:atemp>
          </ns3:TrackPointExtension>
        </extensions>
      </trkpt>
      <trkpt lat="42.52409384585916996002197265625" lon="19.8435115255415439605712890625">
        <ele>1007.4000244140625</ele>
        <time>2026-06-18T06:38:56.000Z</time>
        <extensions>
          <ns3:TrackPointExtension>
            <ns3:atemp>17.0</ns3:atemp>
          </ns3:TrackPointExtension>
        </extensions>
      </trkpt>
      <trkpt lat="42.52411253750324249267578125" lon="19.84352200292050838470458984375">
        <ele>1007.5999755859375</ele>
        <time>2026-06-18T06:38:57.000Z</time>
        <extensions>
          <ns3:TrackPointExtension>
            <ns3:atemp>17.0</ns3:atemp>
          </ns3:TrackPointExtension>
        </extensions>
      </trkpt>
      <trkpt lat="42.52413223497569561004638671875" lon="19.84353155829012393951416015625">
        <ele>1007.5999755859375</ele>
        <time>2026-06-18T06:38:58.000Z</time>
        <extensions>
          <ns3:TrackPointExtension>
            <ns3:atemp>17.0</ns3:atemp>
          </ns3:TrackPointExtension>
        </extensions>
      </trkpt>
      <trkpt lat="42.524151764810085296630859375" lon="19.8435447178781032562255859375">
        <ele>1007.79998779296875</ele>
        <time>2026-06-18T06:38:59.000Z</time>
        <extensions>
          <ns3:TrackPointExtension>
            <ns3:atemp>17.0</ns3:atemp>
          </ns3:TrackPointExtension>
        </extensions>
      </trkpt>
      <trkpt lat="42.52417012117803096771240234375" lon="19.8435557819902896881103515625">
        <ele>1008</ele>
        <time>2026-06-18T06:39:00.000Z</time>
        <extensions>
          <ns3:TrackPointExtension>
            <ns3:atemp>17.0</ns3:atemp>
          </ns3:TrackPointExtension>
        </extensions>
      </trkpt>
      <trkpt lat="42.52418772317469120025634765625" lon="19.84356625936925411224365234375">
        <ele>1008.20001220703125</ele>
        <time>2026-06-18T06:39:01.000Z</time>
        <extensions>
          <ns3:TrackPointExtension>
            <ns3:atemp>17.0</ns3:atemp>
          </ns3:TrackPointExtension>
        </extensions>
      </trkpt>
      <trkpt lat="42.524207420647144317626953125" lon="19.8435758985579013824462890625">
        <ele>1008.4000244140625</ele>
        <time>2026-06-18T06:39:02.000Z</time>
        <extensions>
          <ns3:TrackPointExtension>
            <ns3:atemp>17.0</ns3:atemp>
          </ns3:TrackPointExtension>
        </extensions>
      </trkpt>
      <trkpt lat="42.524224855005741119384765625" lon="19.8435866273939609527587890625">
        <ele>1008.4000244140625</ele>
        <time>2026-06-18T06:39:03.000Z</time>
        <extensions>
          <ns3:TrackPointExtension>
            <ns3:atemp>17.0</ns3:atemp>
          </ns3:TrackPointExtension>
        </extensions>
      </trkpt>
      <trkpt lat="42.52423902042210102081298828125" lon="19.84359760768711566925048828125">
        <ele>1008.5999755859375</ele>
        <time>2026-06-18T06:39:04.000Z</time>
        <extensions>
          <ns3:TrackPointExtension>
            <ns3:atemp>17.0</ns3:atemp>
          </ns3:TrackPointExtension>
        </extensions>
      </trkpt>
      <trkpt lat="42.52425494603812694549560546875" lon="19.84360783360898494720458984375">
        <ele>1008.79998779296875</ele>
        <time>2026-06-18T06:39:05.000Z</time>
        <extensions>
          <ns3:TrackPointExtension>
            <ns3:atemp>17.0</ns3:atemp>
          </ns3:TrackPointExtension>
        </extensions>
      </trkpt>
      <trkpt lat="42.5242699496448040008544921875" lon="19.84361856244504451751708984375">
        <ele>1009</ele>
        <time>2026-06-18T06:39:06.000Z</time>
        <extensions>
          <ns3:TrackPointExtension>
            <ns3:atemp>17.0</ns3:atemp>
          </ns3:TrackPointExtension>
        </extensions>
      </trkpt>
      <trkpt lat="42.52428579144179821014404296875" lon="19.84362937510013580322265625">
        <ele>1009.20001220703125</ele>
        <time>2026-06-18T06:39:07.000Z</time>
        <extensions>
          <ns3:TrackPointExtension>
            <ns3:atemp>17.0</ns3:atemp>
          </ns3:TrackPointExtension>
        </extensions>
      </trkpt>
      <trkpt lat="42.52429685555398464202880859375" lon="19.84364069066941738128662109375">
        <ele>1009.4000244140625</ele>
        <time>2026-06-18T06:39:08.000Z</time>
        <extensions>
          <ns3:TrackPointExtension>
            <ns3:atemp>17.0</ns3:atemp>
          </ns3:TrackPointExtension>
        </extensions>
      </trkpt>
      <trkpt lat="42.52431093715131282806396484375" lon="19.843650162220001220703125">
        <ele>1009.4000244140625</ele>
        <time>2026-06-18T06:39:09.000Z</time>
        <extensions>
          <ns3:TrackPointExtension>
            <ns3:atemp>17.0</ns3:atemp>
          </ns3:TrackPointExtension>
        </extensions>
      </trkpt>
      <trkpt lat="42.5243242643773555755615234375" lon="19.84366231597959995269775390625">
        <ele>1009.5999755859375</ele>
        <time>2026-06-18T06:39:10.000Z</time>
        <extensions>
          <ns3:TrackPointExtension>
            <ns3:atemp>17.0</ns3:atemp>
          </ns3:TrackPointExtension>
        </extensions>
      </trkpt>
      <trkpt lat="42.52433759160339832305908203125" lon="19.84367589466273784637451171875">
        <ele>1009.79998779296875</ele>
        <time>2026-06-18T06:39:11.000Z</time>
        <extensions>
          <ns3:TrackPointExtension>
            <ns3:atemp>17.0</ns3:atemp>
          </ns3:TrackPointExtension>
        </extensions>
      </trkpt>
      <trkpt lat="42.5243524275720119476318359375" lon="19.84368829987943172454833984375">
        <ele>1010</ele>
        <time>2026-06-18T06:39:12.000Z</time>
        <extensions>
          <ns3:TrackPointExtension>
            <ns3:atemp>17.0</ns3:atemp>
          </ns3:TrackPointExtension>
        </extensions>
      </trkpt>
      <trkpt lat="42.5243671797215938568115234375" lon="19.84369701705873012542724609375">
        <ele>1010.20001220703125</ele>
        <time>2026-06-18T06:39:13.000Z</time>
        <extensions>
          <ns3:TrackPointExtension>
            <ns3:atemp>17.0</ns3:atemp>
          </ns3:TrackPointExtension>
        </extensions>
      </trkpt>
      <trkpt lat="42.52438637427985668182373046875" lon="19.843709170818328857421875">
        <ele>1010.4000244140625</ele>
        <time>2026-06-18T06:39:14.000Z</time>
        <extensions>
          <ns3:TrackPointExtension>
            <ns3:atemp>17.0</ns3:atemp>
          </ns3:TrackPointExtension>
        </extensions>
      </trkpt>
      <trkpt lat="42.52440984360873699188232421875" lon="19.8437214083969593048095703125">
        <ele>1010.4000244140625</ele>
        <time>2026-06-18T06:39:15.000Z</time>
        <extensions>
          <ns3:TrackPointExtension>
            <ns3:atemp>17.0</ns3:atemp>
          </ns3:TrackPointExtension>
        </extensions>
      </trkpt>
      <trkpt lat="42.52443306148052215576171875" lon="19.84373607672750949859619140625">
        <ele>1010.5999755859375</ele>
        <time>2026-06-18T06:39:16.000Z</time>
        <extensions>
          <ns3:TrackPointExtension>
            <ns3:atemp>17.0</ns3:atemp>
          </ns3:TrackPointExtension>
        </extensions>
      </trkpt>
      <trkpt lat="42.52445577643811702728271484375" lon="19.84375032596290111541748046875">
        <ele>1010.79998779296875</ele>
        <time>2026-06-18T06:39:17.000Z</time>
        <extensions>
          <ns3:TrackPointExtension>
            <ns3:atemp>17.0</ns3:atemp>
          </ns3:TrackPointExtension>
        </extensions>
      </trkpt>
      <trkpt lat="42.52448134124279022216796875" lon="19.84377010725438594818115234375">
        <ele>1011</ele>
        <time>2026-06-18T06:39:18.000Z</time>
        <extensions>
          <ns3:TrackPointExtension>
            <ns3:atemp>17.0</ns3:atemp>
          </ns3:TrackPointExtension>
        </extensions>
      </trkpt>
      <trkpt lat="42.52450204454362392425537109375" lon="19.84378226101398468017578125">
        <ele>1011.20001220703125</ele>
        <time>2026-06-18T06:39:19.000Z</time>
        <extensions>
          <ns3:TrackPointExtension>
            <ns3:atemp>17.0</ns3:atemp>
          </ns3:TrackPointExtension>
        </extensions>
      </trkpt>
      <trkpt lat="42.5245235860347747802734375" lon="19.84379475004971027374267578125">
        <ele>1011.20001220703125</ele>
        <time>2026-06-18T06:39:20.000Z</time>
        <extensions>
          <ns3:TrackPointExtension>
            <ns3:atemp>17.0</ns3:atemp>
          </ns3:TrackPointExtension>
        </extensions>
      </trkpt>
      <trkpt lat="42.5245435349643230438232421875" lon="19.843809418380260467529296875">
        <ele>1011.4000244140625</ele>
        <time>2026-06-18T06:39:21.000Z</time>
        <extensions>
          <ns3:TrackPointExtension>
            <ns3:atemp>17.0</ns3:atemp>
          </ns3:TrackPointExtension>
        </extensions>
      </trkpt>
      <trkpt lat="42.524563483893871307373046875" lon="19.84382408671081066131591796875">
        <ele>1011.5999755859375</ele>
        <time>2026-06-18T06:39:22.000Z</time>
        <extensions>
          <ns3:TrackPointExtension>
            <ns3:atemp>17.0</ns3:atemp>
          </ns3:TrackPointExtension>
        </extensions>
      </trkpt>
      <trkpt lat="42.52458200789988040924072265625" lon="19.84383783303201198577880859375">
        <ele>1011.79998779296875</ele>
        <time>2026-06-18T06:39:23.000Z</time>
        <extensions>
          <ns3:TrackPointExtension>
            <ns3:atemp>17.0</ns3:atemp>
          </ns3:TrackPointExtension>
        </extensions>
      </trkpt>
      <trkpt lat="42.52460111863911151885986328125" lon="19.84385224990546703338623046875">
        <ele>1012</ele>
        <time>2026-06-18T06:39:24.000Z</time>
        <extensions>
          <ns3:TrackPointExtension>
            <ns3:atemp>17.0</ns3:atemp>
          </ns3:TrackPointExtension>
        </extensions>
      </trkpt>
      <trkpt lat="42.52462081611156463623046875" lon="19.8438660800457000732421875">
        <ele>1012.20001220703125</ele>
        <time>2026-06-18T06:39:25.000Z</time>
        <extensions>
          <ns3:TrackPointExtension>
            <ns3:atemp>17.0</ns3:atemp>
          </ns3:TrackPointExtension>
        </extensions>
      </trkpt>
      <trkpt lat="42.52463967539370059967041015625" lon="19.8438799940049648284912109375">
        <ele>1012.4000244140625</ele>
        <time>2026-06-18T06:39:26.000Z</time>
        <extensions>
          <ns3:TrackPointExtension>
            <ns3:atemp>17.0</ns3:atemp>
          </ns3:TrackPointExtension>
        </extensions>
      </trkpt>
      <trkpt lat="42.52465627156198024749755859375" lon="19.84389080666005611419677734375">
        <ele>1012.5999755859375</ele>
        <time>2026-06-18T06:39:27.000Z</time>
        <extensions>
          <ns3:TrackPointExtension>
            <ns3:atemp>17.0</ns3:atemp>
          </ns3:TrackPointExtension>
        </extensions>
      </trkpt>
      <trkpt lat="42.5246712751686573028564453125" lon="19.843905307352542877197265625">
        <ele>1012.5999755859375</ele>
        <time>2026-06-18T06:39:28.000Z</time>
        <extensions>
          <ns3:TrackPointExtension>
            <ns3:atemp>17.0</ns3:atemp>
          </ns3:TrackPointExtension>
        </extensions>
      </trkpt>
      <trkpt lat="42.5246866978704929351806640625" lon="19.84391477890312671661376953125">
        <ele>1012.79998779296875</ele>
        <time>2026-06-18T06:39:29.000Z</time>
        <extensions>
          <ns3:TrackPointExtension>
            <ns3:atemp>17.0</ns3:atemp>
          </ns3:TrackPointExtension>
        </extensions>
      </trkpt>
      <trkpt lat="42.5247061438858509063720703125" lon="19.843924753367900848388671875">
        <ele>1013</ele>
        <time>2026-06-18T06:39:30.000Z</time>
        <extensions>
          <ns3:TrackPointExtension>
            <ns3:atemp>17.0</ns3:atemp>
          </ns3:TrackPointExtension>
        </extensions>
      </trkpt>
      <trkpt lat="42.524726092815399169921875" lon="19.8439384996891021728515625">
        <ele>1013.20001220703125</ele>
        <time>2026-06-18T06:39:31.000Z</time>
        <extensions>
          <ns3:TrackPointExtension>
            <ns3:atemp>17.0</ns3:atemp>
          </ns3:TrackPointExtension>
        </extensions>
      </trkpt>
      <trkpt lat="42.524743862450122833251953125" lon="19.84395601786673069000244140625">
        <ele>1013.4000244140625</ele>
        <time>2026-06-18T06:39:32.000Z</time>
        <extensions>
          <ns3:TrackPointExtension>
            <ns3:atemp>17.0</ns3:atemp>
          </ns3:TrackPointExtension>
        </extensions>
      </trkpt>
      <trkpt lat="42.52476087771356105804443359375" lon="19.84397077001631259918212890625">
        <ele>1013.5999755859375</ele>
        <time>2026-06-18T06:39:33.000Z</time>
        <extensions>
          <ns3:TrackPointExtension>
            <ns3:atemp>17.0</ns3:atemp>
          </ns3:TrackPointExtension>
        </extensions>
      </trkpt>
      <trkpt lat="42.524778731167316436767578125" lon="19.84398485161364078521728515625">
        <ele>1013.5999755859375</ele>
        <time>2026-06-18T06:39:34.000Z</time>
        <extensions>
          <ns3:TrackPointExtension>
            <ns3:atemp>17.0</ns3:atemp>
          </ns3:TrackPointExtension>
        </extensions>
      </trkpt>
      <trkpt lat="42.52479457296431064605712890625" lon="19.84399742446839809417724609375">
        <ele>1013.79998779296875</ele>
        <time>2026-06-18T06:39:35.000Z</time>
        <extensions>
          <ns3:TrackPointExtension>
            <ns3:atemp>17.0</ns3:atemp>
          </ns3:TrackPointExtension>
        </extensions>
      </trkpt>
      <trkpt lat="42.52481033094227313995361328125" lon="19.84400932677090167999267578125">
        <ele>1014</ele>
        <time>2026-06-18T06:39:36.000Z</time>
        <extensions>
          <ns3:TrackPointExtension>
            <ns3:atemp>17.0</ns3:atemp>
          </ns3:TrackPointExtension>
        </extensions>
      </trkpt>
      <trkpt lat="42.52482541836798191070556640625" lon="19.8440231569111347198486328125">
        <ele>1014</ele>
        <time>2026-06-18T06:39:37.000Z</time>
        <extensions>
          <ns3:TrackPointExtension>
            <ns3:atemp>17.0</ns3:atemp>
          </ns3:TrackPointExtension>
        </extensions>
      </trkpt>
      <trkpt lat="42.5248405896127223968505859375" lon="19.84403933398425579071044921875">
        <ele>1014.20001220703125</ele>
        <time>2026-06-18T06:39:38.000Z</time>
        <extensions>
          <ns3:TrackPointExtension>
            <ns3:atemp>17.0</ns3:atemp>
          </ns3:TrackPointExtension>
        </extensions>
      </trkpt>
      <trkpt lat="42.52485550940036773681640625" lon="19.84404905699193477630615234375">
        <ele>1014.4000244140625</ele>
        <time>2026-06-18T06:39:39.000Z</time>
        <extensions>
          <ns3:TrackPointExtension>
            <ns3:atemp>17.0</ns3:atemp>
          </ns3:TrackPointExtension>
        </extensions>
      </trkpt>
      <trkpt lat="42.524871267378330230712890625" lon="19.8440593667328357696533203125">
        <ele>1014.5999755859375</ele>
        <time>2026-06-18T06:39:40.000Z</time>
        <extensions>
          <ns3:TrackPointExtension>
            <ns3:atemp>17.0</ns3:atemp>
          </ns3:TrackPointExtension>
        </extensions>
      </trkpt>
      <trkpt lat="42.5248871929943561553955078125" lon="19.84407235868275165557861328125">
        <ele>1014.5999755859375</ele>
        <time>2026-06-18T06:39:41.000Z</time>
        <extensions>
          <ns3:TrackPointExtension>
            <ns3:atemp>17.0</ns3:atemp>
          </ns3:TrackPointExtension>
        </extensions>
      </trkpt>
      <trkpt lat="42.524901442229747772216796875" lon="19.8440808244049549102783203125">
        <ele>1014.79998779296875</ele>
        <time>2026-06-18T06:39:42.000Z</time>
        <extensions>
          <ns3:TrackPointExtension>
            <ns3:atemp>17.0</ns3:atemp>
          </ns3:TrackPointExtension>
        </extensions>
      </trkpt>
      <trkpt lat="42.52491594292223453521728515625" lon="19.84409264288842678070068359375">
        <ele>1015</ele>
        <time>2026-06-18T06:39:43.000Z</time>
        <extensions>
          <ns3:TrackPointExtension>
            <ns3:atemp>17.0</ns3:atemp>
          </ns3:TrackPointExtension>
        </extensions>
      </trkpt>
      <trkpt lat="42.524932287633419036865234375" lon="19.84410705976188182830810546875">
        <ele>1015.20001220703125</ele>
        <time>2026-06-18T06:39:44.000Z</time>
        <extensions>
          <ns3:TrackPointExtension>
            <ns3:atemp>17.0</ns3:atemp>
          </ns3:TrackPointExtension>
        </extensions>
      </trkpt>
      <trkpt lat="42.52494947053492069244384765625" lon="19.84412156045436859130859375">
        <ele>1015.4000244140625</ele>
        <time>2026-06-18T06:39:45.000Z</time>
        <extensions>
          <ns3:TrackPointExtension>
            <ns3:atemp>17.0</ns3:atemp>
          </ns3:TrackPointExtension>
        </extensions>
      </trkpt>
      <trkpt lat="42.524967826902866363525390625" lon="19.84412902034819126129150390625">
        <ele>1015.5999755859375</ele>
        <time>2026-06-18T06:39:46.000Z</time>
        <extensions>
          <ns3:TrackPointExtension>
            <ns3:atemp>17.0</ns3:atemp>
          </ns3:TrackPointExtension>
        </extensions>
      </trkpt>
      <trkpt lat="42.5249850936233997344970703125" lon="19.84414360485970973968505859375">
        <ele>1015.79998779296875</ele>
        <time>2026-06-18T06:39:47.000Z</time>
        <extensions>
          <ns3:TrackPointExtension>
            <ns3:atemp>17.0</ns3:atemp>
          </ns3:TrackPointExtension>
        </extensions>
      </trkpt>
      <trkpt lat="42.52500110305845737457275390625" lon="19.844159446656703948974609375">
        <ele>1016</ele>
        <time>2026-06-18T06:39:48.000Z</time>
        <extensions>
          <ns3:TrackPointExtension>
            <ns3:atemp>17.0</ns3:atemp>
          </ns3:TrackPointExtension>
        </extensions>
      </trkpt>
      <trkpt lat="42.52501518465578556060791015625" lon="19.84417797066271305084228515625">
        <ele>1016</ele>
        <time>2026-06-18T06:39:49.000Z</time>
        <extensions>
          <ns3:TrackPointExtension>
            <ns3:atemp>17.0</ns3:atemp>
          </ns3:TrackPointExtension>
        </extensions>
      </trkpt>
      <trkpt lat="42.52502893097698688507080078125" lon="19.84418970532715320587158203125">
        <ele>1016.20001220703125</ele>
        <time>2026-06-18T06:39:50.000Z</time>
        <extensions>
          <ns3:TrackPointExtension>
            <ns3:atemp>17.0</ns3:atemp>
          </ns3:TrackPointExtension>
        </extensions>
      </trkpt>
      <trkpt lat="42.52504234202206134796142578125" lon="19.844205044209957122802734375">
        <ele>1016.4000244140625</ele>
        <time>2026-06-18T06:39:51.000Z</time>
        <extensions>
          <ns3:TrackPointExtension>
            <ns3:atemp>17.0</ns3:atemp>
          </ns3:TrackPointExtension>
        </extensions>
      </trkpt>
      <trkpt lat="42.52505541779100894927978515625" lon="19.84422205947339534759521484375">
        <ele>1016.5999755859375</ele>
        <time>2026-06-18T06:39:52.000Z</time>
        <extensions>
          <ns3:TrackPointExtension>
            <ns3:atemp>17.0</ns3:atemp>
          </ns3:TrackPointExtension>
        </extensions>
      </trkpt>
      <trkpt lat="42.525069415569305419921875" lon="19.8442347161471843719482421875">
        <ele>1016.79998779296875</ele>
        <time>2026-06-18T06:39:53.000Z</time>
        <extensions>
          <ns3:TrackPointExtension>
            <ns3:atemp>17.0</ns3:atemp>
          </ns3:TrackPointExtension>
        </extensions>
      </trkpt>
      <trkpt lat="42.52508458681404590606689453125" lon="19.8442444391548633575439453125">
        <ele>1017</ele>
        <time>2026-06-18T06:39:54.000Z</time>
        <extensions>
          <ns3:TrackPointExtension>
            <ns3:atemp>17.0</ns3:atemp>
          </ns3:TrackPointExtension>
        </extensions>
      </trkpt>
      <trkpt lat="42.52509959042072296142578125" lon="19.84426103532314300537109375">
        <ele>1017.20001220703125</ele>
        <time>2026-06-18T06:39:55.000Z</time>
        <extensions>
          <ns3:TrackPointExtension>
            <ns3:atemp>17.0</ns3:atemp>
          </ns3:TrackPointExtension>
        </extensions>
      </trkpt>
      <trkpt lat="42.5251163542270660400390625" lon="19.84427444636821746826171875">
        <ele>1017.4000244140625</ele>
        <time>2026-06-18T06:39:56.000Z</time>
        <extensions>
          <ns3:TrackPointExtension>
            <ns3:atemp>17.0</ns3:atemp>
          </ns3:TrackPointExtension>
        </extensions>
      </trkpt>
      <trkpt lat="42.52513236366212368011474609375" lon="19.84428785741329193115234375">
        <ele>1017.4000244140625</ele>
        <time>2026-06-18T06:39:57.000Z</time>
        <extensions>
          <ns3:TrackPointExtension>
            <ns3:atemp>17.0</ns3:atemp>
          </ns3:TrackPointExtension>
        </extensions>
      </trkpt>
      <trkpt lat="42.525150887668132781982421875" lon="19.8442977480590343475341796875">
        <ele>1017.5999755859375</ele>
        <time>2026-06-18T06:39:58.000Z</time>
        <extensions>
          <ns3:TrackPointExtension>
            <ns3:atemp>17.0</ns3:atemp>
          </ns3:TrackPointExtension>
        </extensions>
      </trkpt>
      <trkpt lat="42.52516672946512699127197265625" lon="19.84430889599025249481201171875">
        <ele>1017.79998779296875</ele>
        <time>2026-06-18T06:39:59.000Z</time>
        <extensions>
          <ns3:TrackPointExtension>
            <ns3:atemp>17.0</ns3:atemp>
          </ns3:TrackPointExtension>
        </extensions>
      </trkpt>
      <trkpt lat="42.5251808948814868927001953125" lon="19.8443220555782318115234375">
        <ele>1018</ele>
        <time>2026-06-18T06:40:00.000Z</time>
        <extensions>
          <ns3:TrackPointExtension>
            <ns3:atemp>17.0</ns3:atemp>
          </ns3:TrackPointExtension>
        </extensions>
      </trkpt>
      <trkpt lat="42.5251963175833225250244140625" lon="19.8443342931568622589111328125">
        <ele>1018.20001220703125</ele>
        <time>2026-06-18T06:40:01.000Z</time>
        <extensions>
          <ns3:TrackPointExtension>
            <ns3:atemp>17.0</ns3:atemp>
          </ns3:TrackPointExtension>
        </extensions>
      </trkpt>
      <trkpt lat="42.52521249465644359588623046875" lon="19.844344519078731536865234375">
        <ele>1018.20001220703125</ele>
        <time>2026-06-18T06:40:02.000Z</time>
        <extensions>
          <ns3:TrackPointExtension>
            <ns3:atemp>17.0</ns3:atemp>
          </ns3:TrackPointExtension>
        </extensions>
      </trkpt>
      <trkpt lat="42.52522808499634265899658203125" lon="19.8443564213812351226806640625">
        <ele>1018.4000244140625</ele>
        <time>2026-06-18T06:40:03.000Z</time>
        <extensions>
          <ns3:TrackPointExtension>
            <ns3:atemp>17.0</ns3:atemp>
          </ns3:TrackPointExtension>
        </extensions>
      </trkpt>
      <trkpt lat="42.5252449326217174530029296875" lon="19.84436505474150180816650390625">
        <ele>1018.5999755859375</ele>
        <time>2026-06-18T06:40:04.000Z</time>
        <extensions>
          <ns3:TrackPointExtension>
            <ns3:atemp>17.0</ns3:atemp>
          </ns3:TrackPointExtension>
        </extensions>
      </trkpt>
      <trkpt lat="42.5252603553235530853271484375" lon="19.844378717243671417236328125">
        <ele>1018.5999755859375</ele>
        <time>2026-06-18T06:40:05.000Z</time>
        <extensions>
          <ns3:TrackPointExtension>
            <ns3:atemp>17.0</ns3:atemp>
          </ns3:TrackPointExtension>
        </extensions>
      </trkpt>
      <trkpt lat="42.52527921460568904876708984375" lon="19.844384752213954925537109375">
        <ele>1018.79998779296875</ele>
        <time>2026-06-18T06:40:06.000Z</time>
        <extensions>
          <ns3:TrackPointExtension>
            <ns3:atemp>17.0</ns3:atemp>
          </ns3:TrackPointExtension>
        </extensions>
      </trkpt>
      <trkpt lat="42.52529480494558811187744140625" lon="19.84439321793615818023681640625">
        <ele>1019</ele>
        <time>2026-06-18T06:40:07.000Z</time>
        <extensions>
          <ns3:TrackPointExtension>
            <ns3:atemp>17.0</ns3:atemp>
          </ns3:TrackPointExtension>
        </extensions>
      </trkpt>
      <trkpt lat="42.52531014382839202880859375" lon="19.8444057069718837738037109375">
        <ele>1019.20001220703125</ele>
        <time>2026-06-18T06:40:08.000Z</time>
        <extensions>
          <ns3:TrackPointExtension>
            <ns3:atemp>17.0</ns3:atemp>
          </ns3:TrackPointExtension>
        </extensions>
      </trkpt>
      <trkpt lat="42.52532565034925937652587890625" lon="19.8444177769124507904052734375">
        <ele>1019.4000244140625</ele>
        <time>2026-06-18T06:40:09.000Z</time>
        <extensions>
          <ns3:TrackPointExtension>
            <ns3:atemp>17.0</ns3:atemp>
          </ns3:TrackPointExtension>
        </extensions>
      </trkpt>
      <trkpt lat="42.52533788792788982391357421875" lon="19.84443261288106441497802734375">
        <ele>1019.5999755859375</ele>
        <time>2026-06-18T06:40:10.000Z</time>
        <extensions>
          <ns3:TrackPointExtension>
            <ns3:atemp>17.0</ns3:atemp>
          </ns3:TrackPointExtension>
        </extensions>
      </trkpt>
      <trkpt lat="42.525352053344249725341796875" lon="19.84444568865001201629638671875">
        <ele>1019.5999755859375</ele>
        <time>2026-06-18T06:40:11.000Z</time>
        <extensions>
          <ns3:TrackPointExtension>
            <ns3:atemp>17.0</ns3:atemp>
          </ns3:TrackPointExtension>
        </extensions>
      </trkpt>
      <trkpt lat="42.52536973915994167327880859375" lon="19.84445708803832530975341796875">
        <ele>1019.79998779296875</ele>
        <time>2026-06-18T06:40:12.000Z</time>
        <extensions>
          <ns3:TrackPointExtension>
            <ns3:atemp>17.0</ns3:atemp>
          </ns3:TrackPointExtension>
        </extensions>
      </trkpt>
      <trkpt lat="42.5253899395465850830078125" lon="19.8444684036076068878173828125">
        <ele>1020</ele>
        <time>2026-06-18T06:40:13.000Z</time>
        <extensions>
          <ns3:TrackPointExtension>
            <ns3:atemp>17.0</ns3:atemp>
          </ns3:TrackPointExtension>
        </extensions>
      </trkpt>
      <trkpt lat="42.52540930174291133880615234375" lon="19.84448072500526905059814453125">
        <ele>1020</ele>
        <time>2026-06-18T06:40:14.000Z</time>
        <extensions>
          <ns3:TrackPointExtension>
            <ns3:atemp>17.0</ns3:atemp>
          </ns3:TrackPointExtension>
        </extensions>
      </trkpt>
      <trkpt lat="42.52542472444474697113037109375" lon="19.84449170529842376708984375">
        <ele>1020.20001220703125</ele>
        <time>2026-06-18T06:40:15.000Z</time>
        <extensions>
          <ns3:TrackPointExtension>
            <ns3:atemp>17.0</ns3:atemp>
          </ns3:TrackPointExtension>
        </extensions>
      </trkpt>
      <trkpt lat="42.5254420749843120574951171875" lon="19.8445072956383228302001953125">
        <ele>1020.4000244140625</ele>
        <time>2026-06-18T06:40:16.000Z</time>
        <extensions>
          <ns3:TrackPointExtension>
            <ns3:atemp>17.0</ns3:atemp>
          </ns3:TrackPointExtension>
        </extensions>
      </trkpt>
      <trkpt lat="42.52545900642871856689453125" lon="19.84452523291110992431640625">
        <ele>1020.5999755859375</ele>
        <time>2026-06-18T06:40:17.000Z</time>
        <extensions>
          <ns3:TrackPointExtension>
            <ns3:atemp>17.0</ns3:atemp>
          </ns3:TrackPointExtension>
        </extensions>
      </trkpt>
      <trkpt lat="42.5254725851118564605712890625" lon="19.84454660676419734954833984375">
        <ele>1020.79998779296875</ele>
        <time>2026-06-18T06:40:18.000Z</time>
        <extensions>
          <ns3:TrackPointExtension>
            <ns3:atemp>17.0</ns3:atemp>
          </ns3:TrackPointExtension>
        </extensions>
      </trkpt>
      <trkpt lat="42.52548809163272380828857421875" lon="19.84456814825534820556640625">
        <ele>1021</ele>
        <time>2026-06-18T06:40:19.000Z</time>
        <extensions>
          <ns3:TrackPointExtension>
            <ns3:atemp>17.0</ns3:atemp>
          </ns3:TrackPointExtension>
        </extensions>
      </trkpt>
      <trkpt lat="42.52550368197262287139892578125" lon="19.84458365477621555328369140625">
        <ele>1021</ele>
        <time>2026-06-18T06:40:20.000Z</time>
        <extensions>
          <ns3:TrackPointExtension>
            <ns3:atemp>17.0</ns3:atemp>
          </ns3:TrackPointExtension>
        </extensions>
      </trkpt>
      <trkpt lat="42.5255205295979976654052734375" lon="19.84459538944065570831298828125">
        <ele>1021.20001220703125</ele>
        <time>2026-06-18T06:40:21.000Z</time>
        <extensions>
          <ns3:TrackPointExtension>
            <ns3:atemp>17.0</ns3:atemp>
          </ns3:TrackPointExtension>
        </extensions>
      </trkpt>
      <trkpt lat="42.5255352817475795745849609375" lon="19.84461349435150623321533203125">
        <ele>1021.4000244140625</ele>
        <time>2026-06-18T06:40:22.000Z</time>
        <extensions>
          <ns3:TrackPointExtension>
            <ns3:atemp>16.0</ns3:atemp>
          </ns3:TrackPointExtension>
        </extensions>
      </trkpt>
      <trkpt lat="42.52554953098297119140625" lon="19.8446249775588512420654296875">
        <ele>1021.4000244140625</ele>
        <time>2026-06-18T06:40:23.000Z</time>
        <extensions>
          <ns3:TrackPointExtension>
            <ns3:atemp>16.0</ns3:atemp>
          </ns3:TrackPointExtension>
        </extensions>
      </trkpt>
      <trkpt lat="42.52556688152253627777099609375" lon="19.84463495202362537384033203125">
        <ele>1021.5999755859375</ele>
        <time>2026-06-18T06:40:24.000Z</time>
        <extensions>
          <ns3:TrackPointExtension>
            <ns3:atemp>17.0</ns3:atemp>
          </ns3:TrackPointExtension>
        </extensions>
      </trkpt>
      <trkpt lat="42.5255842320621013641357421875" lon="19.8446464352309703826904296875">
        <ele>1021.79998779296875</ele>
        <time>2026-06-18T06:40:25.000Z</time>
        <extensions>
          <ns3:TrackPointExtension>
            <ns3:atemp>17.0</ns3:atemp>
          </ns3:TrackPointExtension>
        </extensions>
      </trkpt>
      <trkpt lat="42.525600157678127288818359375" lon="19.844663031399250030517578125">
        <ele>1022</ele>
        <time>2026-06-18T06:40:26.000Z</time>
        <extensions>
          <ns3:TrackPointExtension>
            <ns3:atemp>17.0</ns3:atemp>
          </ns3:TrackPointExtension>
        </extensions>
      </trkpt>
      <trkpt lat="42.525614909827709197998046875" lon="19.84467945992946624755859375">
        <ele>1022</ele>
        <time>2026-06-18T06:40:27.000Z</time>
        <extensions>
          <ns3:TrackPointExtension>
            <ns3:atemp>17.0</ns3:atemp>
          </ns3:TrackPointExtension>
        </extensions>
      </trkpt>
      <trkpt lat="42.52563209272921085357666015625" lon="19.8446948826313018798828125">
        <ele>1022.20001220703125</ele>
        <time>2026-06-18T06:40:28.000Z</time>
        <extensions>
          <ns3:TrackPointExtension>
            <ns3:atemp>17.0</ns3:atemp>
          </ns3:TrackPointExtension>
        </extensions>
      </trkpt>
      <trkpt lat="42.525648437440395355224609375" lon="19.84470871277153491973876953125">
        <ele>1022.4000244140625</ele>
        <time>2026-06-18T06:40:29.000Z</time>
        <extensions>
          <ns3:TrackPointExtension>
            <ns3:atemp>17.0</ns3:atemp>
          </ns3:TrackPointExtension>
        </extensions>
      </trkpt>
      <trkpt lat="42.52566595561802387237548828125" lon="19.844726063311100006103515625">
        <ele>1022.5999755859375</ele>
        <time>2026-06-18T06:40:30.000Z</time>
        <extensions>
          <ns3:TrackPointExtension>
            <ns3:atemp>17.0</ns3:atemp>
          </ns3:TrackPointExtension>
        </extensions>
      </trkpt>
      <trkpt lat="42.52568439580500125885009765625" lon="19.84474383294582366943359375">
        <ele>1022.79998779296875</ele>
        <time>2026-06-18T06:40:31.000Z</time>
        <extensions>
          <ns3:TrackPointExtension>
            <ns3:atemp>17.0</ns3:atemp>
          </ns3:TrackPointExtension>
        </extensions>
      </trkpt>
      <trkpt lat="42.52569814212620258331298828125" lon="19.8447711579501628875732421875">
        <ele>1022.79998779296875</ele>
        <time>2026-06-18T06:40:32.000Z</time>
        <extensions>
          <ns3:TrackPointExtension>
            <ns3:atemp>17.0</ns3:atemp>
          </ns3:TrackPointExtension>
        </extensions>
      </trkpt>
      <trkpt lat="42.52571557648479938507080078125" lon="19.844797141849994659423828125">
        <ele>1023</ele>
        <time>2026-06-18T06:40:33.000Z</time>
        <extensions>
          <ns3:TrackPointExtension>
            <ns3:atemp>17.0</ns3:atemp>
          </ns3:TrackPointExtension>
        </extensions>
      </trkpt>
      <trkpt lat="42.52573401667177677154541015625" lon="19.8448147438466548919677734375">
        <ele>1023.20001220703125</ele>
        <time>2026-06-18T06:40:34.000Z</time>
        <extensions>
          <ns3:TrackPointExtension>
            <ns3:atemp>17.0</ns3:atemp>
          </ns3:TrackPointExtension>
        </extensions>
      </trkpt>
      <trkpt lat="42.5257480144500732421875" lon="19.84483879990875720977783203125">
        <ele>1023.4000244140625</ele>
        <time>2026-06-18T06:40:35.000Z</time>
        <extensions>
          <ns3:TrackPointExtension>
            <ns3:atemp>17.0</ns3:atemp>
          </ns3:TrackPointExtension>
        </extensions>
      </trkpt>
      <trkpt lat="42.52576268278062343597412109375" lon="19.84486478380858898162841796875">
        <ele>1023.4000244140625</ele>
        <time>2026-06-18T06:40:36.000Z</time>
        <extensions>
          <ns3:TrackPointExtension>
            <ns3:atemp>17.0</ns3:atemp>
          </ns3:TrackPointExtension>
        </extensions>
      </trkpt>
      <trkpt lat="42.52577525563538074493408203125" lon="19.8448804579675197601318359375">
        <ele>1023.5999755859375</ele>
        <time>2026-06-18T06:40:37.000Z</time>
        <extensions>
          <ns3:TrackPointExtension>
            <ns3:atemp>17.0</ns3:atemp>
          </ns3:TrackPointExtension>
        </extensions>
      </trkpt>
      <trkpt lat="42.52578883431851863861083984375" lon="19.84489412046968936920166015625">
        <ele>1023.79998779296875</ele>
        <time>2026-06-18T06:40:38.000Z</time>
        <extensions>
          <ns3:TrackPointExtension>
            <ns3:atemp>17.0</ns3:atemp>
          </ns3:TrackPointExtension>
        </extensions>
      </trkpt>
      <trkpt lat="42.525804340839385986328125" lon="19.84490920789539813995361328125">
        <ele>1023.79998779296875</ele>
        <time>2026-06-18T06:40:39.000Z</time>
        <extensions>
          <ns3:TrackPointExtension>
            <ns3:atemp>17.0</ns3:atemp>
          </ns3:TrackPointExtension>
        </extensions>
      </trkpt>
      <trkpt lat="42.52581917680799961090087890625" lon="19.8449186794459819793701171875">
        <ele>1024</ele>
        <time>2026-06-18T06:40:40.000Z</time>
        <extensions>
          <ns3:TrackPointExtension>
            <ns3:atemp>17.0</ns3:atemp>
          </ns3:TrackPointExtension>
        </extensions>
      </trkpt>
      <trkpt lat="42.5258353538811206817626953125" lon="19.84493150375783443450927734375">
        <ele>1024.199951171875</ele>
        <time>2026-06-18T06:40:41.000Z</time>
        <extensions>
          <ns3:TrackPointExtension>
            <ns3:atemp>17.0</ns3:atemp>
          </ns3:TrackPointExtension>
        </extensions>
      </trkpt>
      <trkpt lat="42.52585354261100292205810546875" lon="19.84494424425065517425537109375">
        <ele>1024.199951171875</ele>
        <time>2026-06-18T06:40:42.000Z</time>
        <extensions>
          <ns3:TrackPointExtension>
            <ns3:atemp>17.0</ns3:atemp>
          </ns3:TrackPointExtension>
        </extensions>
      </trkpt>
      <trkpt lat="42.52587265335023403167724609375" lon="19.84495782293379306793212890625">
        <ele>1024.4000244140625</ele>
        <time>2026-06-18T06:40:43.000Z</time>
        <extensions>
          <ns3:TrackPointExtension>
            <ns3:atemp>17.0</ns3:atemp>
          </ns3:TrackPointExtension>
        </extensions>
      </trkpt>
      <trkpt lat="42.52589260227978229522705078125" lon="19.8449696414172649383544921875">
        <ele>1024.4000244140625</ele>
        <time>2026-06-18T06:40:44.000Z</time>
        <extensions>
          <ns3:TrackPointExtension>
            <ns3:atemp>17.0</ns3:atemp>
          </ns3:TrackPointExtension>
        </extensions>
      </trkpt>
      <trkpt lat="42.52591137774288654327392578125" lon="19.84498296864330768585205078125">
        <ele>1024.4000244140625</ele>
        <time>2026-06-18T06:40:45.000Z</time>
        <extensions>
          <ns3:TrackPointExtension>
            <ns3:atemp>17.0</ns3:atemp>
          </ns3:TrackPointExtension>
        </extensions>
      </trkpt>
      <trkpt lat="42.52593032084405422210693359375" lon="19.84499453566968441009521484375">
        <ele>1024.4000244140625</ele>
        <time>2026-06-18T06:40:46.000Z</time>
        <extensions>
          <ns3:TrackPointExtension>
            <ns3:atemp>17.0</ns3:atemp>
          </ns3:TrackPointExtension>
        </extensions>
      </trkpt>
      <trkpt lat="42.52594943158328533172607421875" lon="19.84500794671475887298583984375">
        <ele>1024.5999755859375</ele>
        <time>2026-06-18T06:40:47.000Z</time>
        <extensions>
          <ns3:TrackPointExtension>
            <ns3:atemp>16.0</ns3:atemp>
          </ns3:TrackPointExtension>
        </extensions>
      </trkpt>
      <trkpt lat="42.52596803940832614898681640625" lon="19.84502102248370647430419921875">
        <ele>1024.5999755859375</ele>
        <time>2026-06-18T06:40:48.000Z</time>
        <extensions>
          <ns3:TrackPointExtension>
            <ns3:atemp>16.0</ns3:atemp>
          </ns3:TrackPointExtension>
        </extensions>
      </trkpt>
      <trkpt lat="42.52598597668111324310302734375" lon="19.8450346849858760833740234375">
        <ele>1024.800048828125</ele>
        <time>2026-06-18T06:40:49.000Z</time>
        <extensions>
          <ns3:TrackPointExtension>
            <ns3:atemp>16.0</ns3:atemp>
          </ns3:TrackPointExtension>
        </extensions>
      </trkpt>
      <trkpt lat="42.5260056741535663604736328125" lon="19.84504826366901397705078125">
        <ele>1024.800048828125</ele>
        <time>2026-06-18T06:40:50.000Z</time>
        <extensions>
          <ns3:TrackPointExtension>
            <ns3:atemp>16.0</ns3:atemp>
          </ns3:TrackPointExtension>
        </extensions>
      </trkpt>
      <trkpt lat="42.5260274671018123626708984375" lon="19.8450662009418010711669921875">
        <ele>1024.800048828125</ele>
        <time>2026-06-18T06:40:51.000Z</time>
        <extensions>
          <ns3:TrackPointExtension>
            <ns3:atemp>16.0</ns3:atemp>
          </ns3:TrackPointExtension>
        </extensions>
      </trkpt>
      <trkpt lat="42.52604967914521694183349609375" lon="19.845082461833953857421875">
        <ele>1025</ele>
        <time>2026-06-18T06:40:52.000Z</time>
        <extensions>
          <ns3:TrackPointExtension>
            <ns3:atemp>16.0</ns3:atemp>
          </ns3:TrackPointExtension>
        </extensions>
      </trkpt>
      <trkpt lat="42.52607147209346294403076171875" lon="19.845097549259662628173828125">
        <ele>1025</ele>
        <time>2026-06-18T06:40:53.000Z</time>
        <extensions>
          <ns3:TrackPointExtension>
            <ns3:atemp>16.0</ns3:atemp>
          </ns3:TrackPointExtension>
        </extensions>
      </trkpt>
      <trkpt lat="42.526093013584613800048828125" lon="19.8451097868382930755615234375">
        <ele>1025</ele>
        <time>2026-06-18T06:40:54.000Z</time>
        <extensions>
          <ns3:TrackPointExtension>
            <ns3:atemp>17.0</ns3:atemp>
          </ns3:TrackPointExtension>
        </extensions>
      </trkpt>
      <trkpt lat="42.5261146388947963714599609375" lon="19.8451213538646697998046875">
        <ele>1025.199951171875</ele>
        <time>2026-06-18T06:40:55.000Z</time>
        <extensions>
          <ns3:TrackPointExtension>
            <ns3:atemp>17.0</ns3:atemp>
          </ns3:TrackPointExtension>
        </extensions>
      </trkpt>
      <trkpt lat="42.52613626420497894287109375" lon="19.8451319150626659393310546875">
        <ele>1025.199951171875</ele>
        <time>2026-06-18T06:40:56.000Z</time>
        <extensions>
          <ns3:TrackPointExtension>
            <ns3:atemp>17.0</ns3:atemp>
          </ns3:TrackPointExtension>
        </extensions>
      </trkpt>
      <trkpt lat="42.52615948207676410675048828125" lon="19.845145158469676971435546875">
        <ele>1025.199951171875</ele>
        <time>2026-06-18T06:40:57.000Z</time>
        <extensions>
          <ns3:TrackPointExtension>
            <ns3:atemp>17.0</ns3:atemp>
          </ns3:TrackPointExtension>
        </extensions>
      </trkpt>
      <trkpt lat="42.52618177793920040130615234375" lon="19.84515630640089511871337890625">
        <ele>1025.4000244140625</ele>
        <time>2026-06-18T06:40:58.000Z</time>
        <extensions>
          <ns3:TrackPointExtension>
            <ns3:atemp>16.0</ns3:atemp>
          </ns3:TrackPointExtension>
        </extensions>
      </trkpt>
      <trkpt lat="42.526204995810985565185546875" lon="19.84517164528369903564453125">
        <ele>1025.4000244140625</ele>
        <time>2026-06-18T06:40:59.000Z</time>
        <extensions>
          <ns3:TrackPointExtension>
            <ns3:atemp>16.0</ns3:atemp>
          </ns3:TrackPointExtension>
        </extensions>
      </trkpt>
      <trkpt lat="42.526229135692119598388671875" lon="19.8451872356235980987548828125">
        <ele>1025.5999755859375</ele>
        <time>2026-06-18T06:41:00.000Z</time>
        <extensions>
          <ns3:TrackPointExtension>
            <ns3:atemp>16.0</ns3:atemp>
          </ns3:TrackPointExtension>
        </extensions>
      </trkpt>
      <trkpt lat="42.5262514315545558929443359375" lon="19.84520106576383113861083984375">
        <ele>1025.5999755859375</ele>
        <time>2026-06-18T06:41:01.000Z</time>
        <extensions>
          <ns3:TrackPointExtension>
            <ns3:atemp>16.0</ns3:atemp>
          </ns3:TrackPointExtension>
        </extensions>
      </trkpt>
      <trkpt lat="42.52627464942634105682373046875" lon="19.8452152311801910400390625">
        <ele>1025.5999755859375</ele>
        <time>2026-06-18T06:41:02.000Z</time>
        <extensions>
          <ns3:TrackPointExtension>
            <ns3:atemp>17.0</ns3:atemp>
          </ns3:TrackPointExtension>
        </extensions>
      </trkpt>
      <trkpt lat="42.52629828639328479766845703125" lon="19.84522671438753604888916015625">
        <ele>1025.5999755859375</ele>
        <time>2026-06-18T06:41:03.000Z</time>
        <extensions>
          <ns3:TrackPointExtension>
            <ns3:atemp>16.0</ns3:atemp>
          </ns3:TrackPointExtension>
        </extensions>
      </trkpt>
      <trkpt lat="42.52632058225572109222412109375" lon="19.845241717994213104248046875">
        <ele>1025.800048828125</ele>
        <time>2026-06-18T06:41:04.000Z</time>
        <extensions>
          <ns3:TrackPointExtension>
            <ns3:atemp>16.0</ns3:atemp>
          </ns3:TrackPointExtension>
        </extensions>
      </trkpt>
      <trkpt lat="42.5263419561088085174560546875" lon="19.84525454230606555938720703125">
        <ele>1025.800048828125</ele>
        <time>2026-06-18T06:41:05.000Z</time>
        <extensions>
          <ns3:TrackPointExtension>
            <ns3:atemp>16.0</ns3:atemp>
          </ns3:TrackPointExtension>
        </extensions>
      </trkpt>
      <trkpt lat="42.52636299468576908111572265625" lon="19.84526761807501316070556640625">
        <ele>1025.800048828125</ele>
        <time>2026-06-18T06:41:06.000Z</time>
        <extensions>
          <ns3:TrackPointExtension>
            <ns3:atemp>16.0</ns3:atemp>
          </ns3:TrackPointExtension>
        </extensions>
      </trkpt>
      <trkpt lat="42.52638646401464939117431640625" lon="19.84528019092977046966552734375">
        <ele>1025.800048828125</ele>
        <time>2026-06-18T06:41:07.000Z</time>
        <extensions>
          <ns3:TrackPointExtension>
            <ns3:atemp>16.0</ns3:atemp>
          </ns3:TrackPointExtension>
        </extensions>
      </trkpt>
      <trkpt lat="42.52641119062900543212890625" lon="19.84529410488903522491455078125">
        <ele>1025.800048828125</ele>
        <time>2026-06-18T06:41:08.000Z</time>
        <extensions>
          <ns3:TrackPointExtension>
            <ns3:atemp>16.0</ns3:atemp>
          </ns3:TrackPointExtension>
        </extensions>
      </trkpt>
      <trkpt lat="42.52643306739628314971923828125" lon="19.84530684538185596466064453125">
        <ele>1026</ele>
        <time>2026-06-18T06:41:09.000Z</time>
        <extensions>
          <ns3:TrackPointExtension>
            <ns3:atemp>16.0</ns3:atemp>
          </ns3:TrackPointExtension>
        </extensions>
      </trkpt>
      <trkpt lat="42.52645536325871944427490234375" lon="19.845319502055644989013671875">
        <ele>1026</ele>
        <time>2026-06-18T06:41:10.000Z</time>
        <extensions>
          <ns3:TrackPointExtension>
            <ns3:atemp>16.0</ns3:atemp>
          </ns3:TrackPointExtension>
        </extensions>
      </trkpt>
      <trkpt lat="42.52647866494953632354736328125" lon="19.8453319072723388671875">
        <ele>1026</ele>
        <time>2026-06-18T06:41:11.000Z</time>
        <extensions>
          <ns3:TrackPointExtension>
            <ns3:atemp>16.0</ns3:atemp>
          </ns3:TrackPointExtension>
        </extensions>
      </trkpt>
      <trkpt lat="42.526502050459384918212890625" lon="19.8453394509851932525634765625">
        <ele>1026</ele>
        <time>2026-06-18T06:41:12.000Z</time>
        <extensions>
          <ns3:TrackPointExtension>
            <ns3:atemp>17.0</ns3:atemp>
          </ns3:TrackPointExtension>
        </extensions>
      </trkpt>
      <trkpt lat="42.5265271961688995361328125" lon="19.8453454859554767608642578125">
        <ele>1026.199951171875</ele>
        <time>2026-06-18T06:41:13.000Z</time>
        <extensions>
          <ns3:TrackPointExtension>
            <ns3:atemp>16.0</ns3:atemp>
          </ns3:TrackPointExtension>
        </extensions>
      </trkpt>
      <trkpt lat="42.526552341878414154052734375" lon="19.845349006354808807373046875">
        <ele>1026.4000244140625</ele>
        <time>2026-06-18T06:41:14.000Z</time>
        <extensions>
          <ns3:TrackPointExtension>
            <ns3:atemp>16.0</ns3:atemp>
          </ns3:TrackPointExtension>
        </extensions>
      </trkpt>
      <trkpt lat="42.52657790668308734893798828125" lon="19.84535194002091884613037109375">
        <ele>1026.5999755859375</ele>
        <time>2026-06-18T06:41:15.000Z</time>
        <extensions>
          <ns3:TrackPointExtension>
            <ns3:atemp>16.0</ns3:atemp>
          </ns3:TrackPointExtension>
        </extensions>
      </trkpt>
      <trkpt lat="42.52660372294485569000244140625" lon="19.8453548736870288848876953125">
        <ele>1026.800048828125</ele>
        <time>2026-06-18T06:41:16.000Z</time>
        <extensions>
          <ns3:TrackPointExtension>
            <ns3:atemp>16.0</ns3:atemp>
          </ns3:TrackPointExtension>
        </extensions>
      </trkpt>
      <trkpt lat="42.52663155086338520050048828125" lon="19.84536048956215381622314453125">
        <ele>1027</ele>
        <time>2026-06-18T06:41:17.000Z</time>
        <extensions>
          <ns3:TrackPointExtension>
            <ns3:atemp>16.0</ns3:atemp>
          </ns3:TrackPointExtension>
        </extensions>
      </trkpt>
      <trkpt lat="42.52665619365870952606201171875" lon="19.8453632555902004241943359375">
        <ele>1027.199951171875</ele>
        <time>2026-06-18T06:41:18.000Z</time>
        <extensions>
          <ns3:TrackPointExtension>
            <ns3:atemp>16.0</ns3:atemp>
          </ns3:TrackPointExtension>
        </extensions>
      </trkpt>
      <trkpt lat="42.5266800820827484130859375" lon="19.8453635908663272857666015625">
        <ele>1027.4000244140625</ele>
        <time>2026-06-18T06:41:19.000Z</time>
        <extensions>
          <ns3:TrackPointExtension>
            <ns3:atemp>16.0</ns3:atemp>
          </ns3:TrackPointExtension>
        </extensions>
      </trkpt>
      <trkpt lat="42.52670313231647014617919921875" lon="19.84536065720021724700927734375">
        <ele>1027.5999755859375</ele>
        <time>2026-06-18T06:41:20.000Z</time>
        <extensions>
          <ns3:TrackPointExtension>
            <ns3:atemp>16.0</ns3:atemp>
          </ns3:TrackPointExtension>
        </extensions>
      </trkpt>
      <trkpt lat="42.5267241708934307098388671875" lon="19.84535931609570980072021484375">
        <ele>1027.5999755859375</ele>
        <time>2026-06-18T06:41:21.000Z</time>
        <extensions>
          <ns3:TrackPointExtension>
            <ns3:atemp>16.0</ns3:atemp>
          </ns3:TrackPointExtension>
        </extensions>
      </trkpt>
      <trkpt lat="42.52674604766070842742919921875" lon="19.84535814262926578521728515625">
        <ele>1028</ele>
        <time>2026-06-18T06:41:22.000Z</time>
        <extensions>
          <ns3:TrackPointExtension>
            <ns3:atemp>16.0</ns3:atemp>
          </ns3:TrackPointExtension>
        </extensions>
      </trkpt>
      <trkpt lat="42.52676968462765216827392578125" lon="19.84535914845764636993408203125">
        <ele>1028.199951171875</ele>
        <time>2026-06-18T06:41:23.000Z</time>
        <extensions>
          <ns3:TrackPointExtension>
            <ns3:atemp>16.0</ns3:atemp>
          </ns3:TrackPointExtension>
        </extensions>
      </trkpt>
      <trkpt lat="42.52679734490811824798583984375" lon="19.84535730443894863128662109375">
        <ele>1028.4000244140625</ele>
        <time>2026-06-18T06:41:24.000Z</time>
        <extensions>
          <ns3:TrackPointExtension>
            <ns3:atemp>16.0</ns3:atemp>
          </ns3:TrackPointExtension>
        </extensions>
      </trkpt>
      <trkpt lat="42.52682684920728206634521484375" lon="19.84535126946866512298583984375">
        <ele>1028.5999755859375</ele>
        <time>2026-06-18T06:41:25.000Z</time>
        <extensions>
          <ns3:TrackPointExtension>
            <ns3:atemp>16.0</ns3:atemp>
          </ns3:TrackPointExtension>
        </extensions>
      </trkpt>
      <trkpt lat="42.52685383893549442291259765625" lon="19.845346994698047637939453125">
        <ele>1028.800048828125</ele>
        <time>2026-06-18T06:41:26.000Z</time>
        <extensions>
          <ns3:TrackPointExtension>
            <ns3:atemp>16.0</ns3:atemp>
          </ns3:TrackPointExtension>
        </extensions>
      </trkpt>
      <trkpt lat="42.52688250504434108734130859375" lon="19.84534062445163726806640625">
        <ele>1028.800048828125</ele>
        <time>2026-06-18T06:41:27.000Z</time>
        <extensions>
          <ns3:TrackPointExtension>
            <ns3:atemp>16.0</ns3:atemp>
          </ns3:TrackPointExtension>
        </extensions>
      </trkpt>
      <trkpt lat="42.5269109196960926055908203125" lon="19.84533199109137058258056640625">
        <ele>1029</ele>
        <time>2026-06-18T06:41:28.000Z</time>
        <extensions>
          <ns3:TrackPointExtension>
            <ns3:atemp>16.0</ns3:atemp>
          </ns3:TrackPointExtension>
        </extensions>
      </trkpt>
      <trkpt lat="42.526941262185573577880859375" lon="19.8453278839588165283203125">
        <ele>1029</ele>
        <time>2026-06-18T06:41:29.000Z</time>
        <extensions>
          <ns3:TrackPointExtension>
            <ns3:atemp>16.0</ns3:atemp>
          </ns3:TrackPointExtension>
        </extensions>
      </trkpt>
      <trkpt lat="42.52697001211345195770263671875" lon="19.845324195921421051025390625">
        <ele>1029.199951171875</ele>
        <time>2026-06-18T06:41:30.000Z</time>
        <extensions>
          <ns3:TrackPointExtension>
            <ns3:atemp>16.0</ns3:atemp>
          </ns3:TrackPointExtension>
        </extensions>
      </trkpt>
      <trkpt lat="42.52699499018490314483642578125" lon="19.8453193344175815582275390625">
        <ele>1029.4000244140625</ele>
        <time>2026-06-18T06:41:31.000Z</time>
        <extensions>
          <ns3:TrackPointExtension>
            <ns3:atemp>16.0</ns3:atemp>
          </ns3:TrackPointExtension>
        </extensions>
      </trkpt>
      <trkpt lat="42.527017705142498016357421875" lon="19.84531573019921779632568359375">
        <ele>1029.5999755859375</ele>
        <time>2026-06-18T06:41:32.000Z</time>
        <extensions>
          <ns3:TrackPointExtension>
            <ns3:atemp>16.0</ns3:atemp>
          </ns3:TrackPointExtension>
        </extensions>
      </trkpt>
      <trkpt lat="42.5270406715571880340576171875" lon="19.84531455673277378082275390625">
        <ele>1029.800048828125</ele>
        <time>2026-06-18T06:41:33.000Z</time>
        <extensions>
          <ns3:TrackPointExtension>
            <ns3:atemp>16.0</ns3:atemp>
          </ns3:TrackPointExtension>
        </extensions>
      </trkpt>
      <trkpt lat="42.527065314352512359619140625" lon="19.8453153111040592193603515625">
        <ele>1030</ele>
        <time>2026-06-18T06:41:34.000Z</time>
        <extensions>
          <ns3:TrackPointExtension>
            <ns3:atemp>16.0</ns3:atemp>
          </ns3:TrackPointExtension>
        </extensions>
      </trkpt>
      <trkpt lat="42.52708987332880496978759765625" lon="19.84531623311340808868408203125">
        <ele>1030.199951171875</ele>
        <time>2026-06-18T06:41:35.000Z</time>
        <extensions>
          <ns3:TrackPointExtension>
            <ns3:atemp>16.0</ns3:atemp>
          </ns3:TrackPointExtension>
        </extensions>
      </trkpt>
      <trkpt lat="42.5271140970289707183837890625" lon="19.84531874768435955047607421875">
        <ele>1030.199951171875</ele>
        <time>2026-06-18T06:41:36.000Z</time>
        <extensions>
          <ns3:TrackPointExtension>
            <ns3:atemp>16.0</ns3:atemp>
          </ns3:TrackPointExtension>
        </extensions>
      </trkpt>
      <trkpt lat="42.527139745652675628662109375" lon="19.8453243635594844818115234375">
        <ele>1030.199951171875</ele>
        <time>2026-06-18T06:41:37.000Z</time>
        <extensions>
          <ns3:TrackPointExtension>
            <ns3:atemp>16.0</ns3:atemp>
          </ns3:TrackPointExtension>
        </extensions>
      </trkpt>
      <trkpt lat="42.52716631628572940826416015625" lon="19.84532813541591167449951171875">
        <ele>1030.199951171875</ele>
        <time>2026-06-18T06:41:38.000Z</time>
        <extensions>
          <ns3:TrackPointExtension>
            <ns3:atemp>16.0</ns3:atemp>
          </ns3:TrackPointExtension>
        </extensions>
      </trkpt>
      <trkpt lat="42.527192719280719757080078125" lon="19.84532855451107025146484375">
        <ele>1030.199951171875</ele>
        <time>2026-06-18T06:41:39.000Z</time>
        <extensions>
          <ns3:TrackPointExtension>
            <ns3:atemp>16.0</ns3:atemp>
          </ns3:TrackPointExtension>
        </extensions>
      </trkpt>
      <trkpt lat="42.527215182781219482421875" lon="19.84533064998686313629150390625">
        <ele>1030.199951171875</ele>
        <time>2026-06-18T06:41:40.000Z</time>
        <extensions>
          <ns3:TrackPointExtension>
            <ns3:atemp>16.0</ns3:atemp>
          </ns3:TrackPointExtension>
        </extensions>
      </trkpt>
      <trkpt lat="42.527242340147495269775390625" lon="19.845330230891704559326171875">
        <ele>1030.199951171875</ele>
        <time>2026-06-18T06:41:41.000Z</time>
        <extensions>
          <ns3:TrackPointExtension>
            <ns3:atemp>16.0</ns3:atemp>
          </ns3:TrackPointExtension>
        </extensions>
      </trkpt>
      <trkpt lat="42.5272733531892299652099609375" lon="19.84532847069203853607177734375">
        <ele>1030.199951171875</ele>
        <time>2026-06-18T06:41:42.000Z</time>
        <extensions>
          <ns3:TrackPointExtension>
            <ns3:atemp>16.0</ns3:atemp>
          </ns3:TrackPointExtension>
        </extensions>
      </trkpt>
      <trkpt lat="42.527306377887725830078125" lon="19.84532863833010196685791015625">
        <ele>1030.199951171875</ele>
        <time>2026-06-18T06:41:43.000Z</time>
        <extensions>
          <ns3:TrackPointExtension>
            <ns3:atemp>16.0</ns3:atemp>
          </ns3:TrackPointExtension>
        </extensions>
      </trkpt>
      <trkpt lat="42.52734325826168060302734375" lon="19.84532989561557769775390625">
        <ele>1030.199951171875</ele>
        <time>2026-06-18T06:41:44.000Z</time>
        <extensions>
          <ns3:TrackPointExtension>
            <ns3:atemp>16.0</ns3:atemp>
          </ns3:TrackPointExtension>
        </extensions>
      </trkpt>
      <trkpt lat="42.52738340757787227630615234375" lon="19.8453250341117382049560546875">
        <ele>1030</ele>
        <time>2026-06-18T06:41:45.000Z</time>
        <extensions>
          <ns3:TrackPointExtension>
            <ns3:atemp>16.0</ns3:atemp>
          </ns3:TrackPointExtension>
        </extensions>
      </trkpt>
      <trkpt lat="42.527426071465015411376953125" lon="19.84532210044562816619873046875">
        <ele>1029.5999755859375</ele>
        <time>2026-06-18T06:41:46.000Z</time>
        <extensions>
          <ns3:TrackPointExtension>
            <ns3:atemp>16.0</ns3:atemp>
          </ns3:TrackPointExtension>
        </extensions>
      </trkpt>
      <trkpt lat="42.5274713337421417236328125" lon="19.84531740657985210418701171875">
        <ele>1029.199951171875</ele>
        <time>2026-06-18T06:41:47.000Z</time>
        <extensions>
          <ns3:TrackPointExtension>
            <ns3:atemp>16.0</ns3:atemp>
          </ns3:TrackPointExtension>
        </extensions>
      </trkpt>
      <trkpt lat="42.5275184400379657745361328125" lon="19.845310114324092864990234375">
        <ele>1028.800048828125</ele>
        <time>2026-06-18T06:41:48.000Z</time>
        <extensions>
          <ns3:TrackPointExtension>
            <ns3:atemp>16.0</ns3:atemp>
          </ns3:TrackPointExtension>
        </extensions>
      </trkpt>
      <trkpt lat="42.527566887438297271728515625" lon="19.8453015647828578948974609375">
        <ele>1028.4000244140625</ele>
        <time>2026-06-18T06:41:49.000Z</time>
        <extensions>
          <ns3:TrackPointExtension>
            <ns3:atemp>16.0</ns3:atemp>
          </ns3:TrackPointExtension>
        </extensions>
      </trkpt>
      <trkpt lat="42.52761525101959705352783203125" lon="19.84528832137584686279296875">
        <ele>1027.800048828125</ele>
        <time>2026-06-18T06:41:50.000Z</time>
        <extensions>
          <ns3:TrackPointExtension>
            <ns3:atemp>16.0</ns3:atemp>
          </ns3:TrackPointExtension>
        </extensions>
      </trkpt>
      <trkpt lat="42.527663446962833404541015625" lon="19.84526610933244228363037109375">
        <ele>1027.199951171875</ele>
        <time>2026-06-18T06:41:51.000Z</time>
        <extensions>
          <ns3:TrackPointExtension>
            <ns3:atemp>16.0</ns3:atemp>
          </ns3:TrackPointExtension>
        </extensions>
      </trkpt>
      <trkpt lat="42.52771013416349887847900390625" lon="19.84524096362292766571044921875">
        <ele>1026.5999755859375</ele>
        <time>2026-06-18T06:41:52.000Z</time>
        <extensions>
          <ns3:TrackPointExtension>
            <ns3:atemp>16.0</ns3:atemp>
          </ns3:TrackPointExtension>
        </extensions>
      </trkpt>
      <trkpt lat="42.527756989002227783203125" lon="19.84520961530506610870361328125">
        <ele>1026</ele>
        <time>2026-06-18T06:41:53.000Z</time>
        <extensions>
          <ns3:TrackPointExtension>
            <ns3:atemp>16.0</ns3:atemp>
          </ns3:TrackPointExtension>
        </extensions>
      </trkpt>
      <trkpt lat="42.52780484966933727264404296875" lon="19.8451758362352848052978515625">
        <ele>1025.4000244140625</ele>
        <time>2026-06-18T06:41:54.000Z</time>
        <extensions>
          <ns3:TrackPointExtension>
            <ns3:atemp>16.0</ns3:atemp>
          </ns3:TrackPointExtension>
        </extensions>
      </trkpt>
      <trkpt lat="42.52785312943160533905029296875" lon="19.84513853676617145538330078125">
        <ele>1024.800048828125</ele>
        <time>2026-06-18T06:41:55.000Z</time>
        <extensions>
          <ns3:TrackPointExtension>
            <ns3:atemp>16.0</ns3:atemp>
          </ns3:TrackPointExtension>
        </extensions>
      </trkpt>
      <trkpt lat="42.527902163565158843994140625" lon="19.84510635025799274444580078125">
        <ele>1024.199951171875</ele>
        <time>2026-06-18T06:41:56.000Z</time>
        <extensions>
          <ns3:TrackPointExtension>
            <ns3:atemp>16.0</ns3:atemp>
          </ns3:TrackPointExtension>
        </extensions>
      </trkpt>
      <trkpt lat="42.52795857377350330352783203125" lon="19.84507868997752666473388671875">
        <ele>1023.5999755859375</ele>
        <time>2026-06-18T06:41:57.000Z</time>
        <extensions>
          <ns3:TrackPointExtension>
            <ns3:atemp>16.0</ns3:atemp>
          </ns3:TrackPointExtension>
        </extensions>
      </trkpt>
      <trkpt lat="42.5280156545341014862060546875" lon="19.84505790285766124725341796875">
        <ele>1022.79998779296875</ele>
        <time>2026-06-18T06:41:58.000Z</time>
        <extensions>
          <ns3:TrackPointExtension>
            <ns3:atemp>16.0</ns3:atemp>
          </ns3:TrackPointExtension>
        </extensions>
      </trkpt>
      <trkpt lat="42.5280709750950336456298828125" lon="19.84504734165966510772705078125">
        <ele>1022.20001220703125</ele>
        <time>2026-06-18T06:41:59.000Z</time>
        <extensions>
          <ns3:TrackPointExtension>
            <ns3:atemp>16.0</ns3:atemp>
          </ns3:TrackPointExtension>
        </extensions>
      </trkpt>
      <trkpt lat="42.52812822349369525909423828125" lon="19.84503778629004955291748046875">
        <ele>1021</ele>
        <time>2026-06-18T06:42:00.000Z</time>
        <extensions>
          <ns3:TrackPointExtension>
            <ns3:atemp>16.0</ns3:atemp>
          </ns3:TrackPointExtension>
        </extensions>
      </trkpt>
      <trkpt lat="42.52818304114043712615966796875" lon="19.84502412378787994384765625">
        <ele>1020.20001220703125</ele>
        <time>2026-06-18T06:42:01.000Z</time>
        <extensions>
          <ns3:TrackPointExtension>
            <ns3:atemp>16.0</ns3:atemp>
          </ns3:TrackPointExtension>
        </extensions>
      </trkpt>
      <trkpt lat="42.528236098587512969970703125" lon="19.8450087010860443115234375">
        <ele>1019.4000244140625</ele>
        <time>2026-06-18T06:42:02.000Z</time>
        <extensions>
          <ns3:TrackPointExtension>
            <ns3:atemp>16.0</ns3:atemp>
          </ns3:TrackPointExtension>
        </extensions>
      </trkpt>
      <trkpt lat="42.52829167060554027557373046875" lon="19.8449974693357944488525390625">
        <ele>1018.4000244140625</ele>
        <time>2026-06-18T06:42:03.000Z</time>
        <extensions>
          <ns3:TrackPointExtension>
            <ns3:atemp>16.0</ns3:atemp>
          </ns3:TrackPointExtension>
        </extensions>
      </trkpt>
      <trkpt lat="42.5283457338809967041015625" lon="19.844994954764842987060546875">
        <ele>1017.79998779296875</ele>
        <time>2026-06-18T06:42:04.000Z</time>
        <extensions>
          <ns3:TrackPointExtension>
            <ns3:atemp>16.0</ns3:atemp>
          </ns3:TrackPointExtension>
        </extensions>
      </trkpt>
      <trkpt lat="42.5284005515277385711669921875" lon="19.84500174410641193389892578125">
        <ele>1017</ele>
        <time>2026-06-18T06:42:05.000Z</time>
        <extensions>
          <ns3:TrackPointExtension>
            <ns3:atemp>16.0</ns3:atemp>
          </ns3:TrackPointExtension>
        </extensions>
      </trkpt>
      <trkpt lat="42.52845997922122478485107421875" lon="19.84500476159155368804931640625">
        <ele>1016.20001220703125</ele>
        <time>2026-06-18T06:42:06.000Z</time>
        <extensions>
          <ns3:TrackPointExtension>
            <ns3:atemp>16.0</ns3:atemp>
          </ns3:TrackPointExtension>
        </extensions>
      </trkpt>
      <trkpt lat="42.52851731143891811370849609375" lon="19.8450021632015705108642578125">
        <ele>1015.5999755859375</ele>
        <time>2026-06-18T06:42:07.000Z</time>
        <extensions>
          <ns3:TrackPointExtension>
            <ns3:atemp>16.0</ns3:atemp>
          </ns3:TrackPointExtension>
        </extensions>
      </trkpt>
      <trkpt lat="42.52858000807464122772216796875" lon="19.84499487094581127166748046875">
        <ele>1014.79998779296875</ele>
        <time>2026-06-18T06:42:08.000Z</time>
        <extensions>
          <ns3:TrackPointExtension>
            <ns3:atemp>16.0</ns3:atemp>
          </ns3:TrackPointExtension>
        </extensions>
      </trkpt>
      <trkpt lat="42.52863742411136627197265625" lon="19.8449870757758617401123046875">
        <ele>1014.20001220703125</ele>
        <time>2026-06-18T06:42:09.000Z</time>
        <extensions>
          <ns3:TrackPointExtension>
            <ns3:atemp>16.0</ns3:atemp>
          </ns3:TrackPointExtension>
        </extensions>
      </trkpt>
      <trkpt lat="42.52868972718715667724609375" lon="19.84497978352010250091552734375">
        <ele>1013.5999755859375</ele>
        <time>2026-06-18T06:42:10.000Z</time>
        <extensions>
          <ns3:TrackPointExtension>
            <ns3:atemp>16.0</ns3:atemp>
          </ns3:TrackPointExtension>
        </extensions>
      </trkpt>
      <trkpt lat="42.5287411920726299285888671875" lon="19.84496821649372577667236328125">
        <ele>1013</ele>
        <time>2026-06-18T06:42:11.000Z</time>
        <extensions>
          <ns3:TrackPointExtension>
            <ns3:atemp>16.0</ns3:atemp>
          </ns3:TrackPointExtension>
        </extensions>
      </trkpt>
      <trkpt lat="42.52879173494875431060791015625" lon="19.844952709972858428955078125">
        <ele>1012.4000244140625</ele>
        <time>2026-06-18T06:42:12.000Z</time>
        <extensions>
          <ns3:TrackPointExtension>
            <ns3:atemp>16.0</ns3:atemp>
          </ns3:TrackPointExtension>
        </extensions>
      </trkpt>
      <trkpt lat="42.5288419425487518310546875" lon="19.844935275614261627197265625">
        <ele>1011.79998779296875</ele>
        <time>2026-06-18T06:42:13.000Z</time>
        <extensions>
          <ns3:TrackPointExtension>
            <ns3:atemp>16.0</ns3:atemp>
          </ns3:TrackPointExtension>
        </extensions>
      </trkpt>
      <trkpt lat="42.52889499999582767486572265625" lon="19.84491608105599880218505859375">
        <ele>1011.20001220703125</ele>
        <time>2026-06-18T06:42:14.000Z</time>
        <extensions>
          <ns3:TrackPointExtension>
            <ns3:atemp>16.0</ns3:atemp>
          </ns3:TrackPointExtension>
        </extensions>
      </trkpt>
      <trkpt lat="42.528950907289981842041015625" lon="19.84490082599222660064697265625">
        <ele>1010.5999755859375</ele>
        <time>2026-06-18T06:42:15.000Z</time>
        <extensions>
          <ns3:TrackPointExtension>
            <ns3:atemp>16.0</ns3:atemp>
          </ns3:TrackPointExtension>
        </extensions>
      </trkpt>
      <trkpt lat="42.52900614403188228607177734375" lon="19.84489328227937221527099609375">
        <ele>1010</ele>
        <time>2026-06-18T06:42:16.000Z</time>
        <extensions>
          <ns3:TrackPointExtension>
            <ns3:atemp>16.0</ns3:atemp>
          </ns3:TrackPointExtension>
        </extensions>
      </trkpt>
      <trkpt lat="42.52906314097344875335693359375" lon="19.84489110298454761505126953125">
        <ele>1009.20001220703125</ele>
        <time>2026-06-18T06:42:17.000Z</time>
        <extensions>
          <ns3:TrackPointExtension>
            <ns3:atemp>16.0</ns3:atemp>
          </ns3:TrackPointExtension>
        </extensions>
      </trkpt>
      <trkpt lat="42.5291224010288715362548828125" lon="19.844893030822277069091796875">
        <ele>1008.4000244140625</ele>
        <time>2026-06-18T06:42:18.000Z</time>
        <extensions>
          <ns3:TrackPointExtension>
            <ns3:atemp>16.0</ns3:atemp>
          </ns3:TrackPointExtension>
        </extensions>
      </trkpt>
      <trkpt lat="42.52918325364589691162109375" lon="19.84489294700324535369873046875">
        <ele>1007.5999755859375</ele>
        <time>2026-06-18T06:42:19.000Z</time>
        <extensions>
          <ns3:TrackPointExtension>
            <ns3:atemp>16.0</ns3:atemp>
          </ns3:TrackPointExtension>
        </extensions>
      </trkpt>
      <trkpt lat="42.52924368716776371002197265625" lon="19.84489210881292819976806640625">
        <ele>1006.5999755859375</ele>
        <time>2026-06-18T06:42:20.000Z</time>
        <extensions>
          <ns3:TrackPointExtension>
            <ns3:atemp>16.0</ns3:atemp>
          </ns3:TrackPointExtension>
        </extensions>
      </trkpt>
      <trkpt lat="42.5292980857193470001220703125" lon="19.84486855566501617431640625">
        <ele>1005.79998779296875</ele>
        <time>2026-06-18T06:42:21.000Z</time>
        <extensions>
          <ns3:TrackPointExtension>
            <ns3:atemp>16.0</ns3:atemp>
          </ns3:TrackPointExtension>
        </extensions>
      </trkpt>
      <trkpt lat="42.52933882176876068115234375" lon="19.84482161700725555419921875">
        <ele>1005</ele>
        <time>2026-06-18T06:42:22.000Z</time>
        <extensions>
          <ns3:TrackPointExtension>
            <ns3:atemp>16.0</ns3:atemp>
          </ns3:TrackPointExtension>
        </extensions>
      </trkpt>
      <trkpt lat="42.52936623059213161468505859375" lon="19.8447619378566741943359375">
        <ele>1004.4000244140625</ele>
        <time>2026-06-18T06:42:23.000Z</time>
        <extensions>
          <ns3:TrackPointExtension>
            <ns3:atemp>16.0</ns3:atemp>
          </ns3:TrackPointExtension>
        </extensions>
      </trkpt>
      <trkpt lat="42.5293906219303607940673828125" lon="19.84469362534582614898681640625">
        <ele>1003.79998779296875</ele>
        <time>2026-06-18T06:42:24.000Z</time>
        <extensions>
          <ns3:TrackPointExtension>
            <ns3:atemp>16.0</ns3:atemp>
          </ns3:TrackPointExtension>
        </extensions>
      </trkpt>
      <trkpt lat="42.52940814010798931121826171875" lon="19.84462271444499492645263671875">
        <ele>1003.20001220703125</ele>
        <time>2026-06-18T06:42:25.000Z</time>
        <extensions>
          <ns3:TrackPointExtension>
            <ns3:atemp>16.0</ns3:atemp>
          </ns3:TrackPointExtension>
        </extensions>
      </trkpt>
      <trkpt lat="42.529424987733364105224609375" lon="19.84455934725701808929443359375">
        <ele>1002.4000244140625</ele>
        <time>2026-06-18T06:42:26.000Z</time>
        <extensions>
          <ns3:TrackPointExtension>
            <ns3:atemp>16.0</ns3:atemp>
          </ns3:TrackPointExtension>
        </extensions>
      </trkpt>
      <trkpt lat="42.52943898551166057586669921875" lon="19.84449036419391632080078125">
        <ele>1001.79998779296875</ele>
        <time>2026-06-18T06:42:27.000Z</time>
        <extensions>
          <ns3:TrackPointExtension>
            <ns3:atemp>16.0</ns3:atemp>
          </ns3:TrackPointExtension>
        </extensions>
      </trkpt>
      <trkpt lat="42.5294516421854496002197265625" lon="19.84441417269408702850341796875">
        <ele>1001.20001220703125</ele>
        <time>2026-06-18T06:42:28.000Z</time>
        <extensions>
          <ns3:TrackPointExtension>
            <ns3:atemp>16.0</ns3:atemp>
          </ns3:TrackPointExtension>
        </extensions>
      </trkpt>
      <trkpt lat="42.52946547232568264007568359375" lon="19.84433747828006744384765625">
        <ele>1000.4000244140625</ele>
        <time>2026-06-18T06:42:29.000Z</time>
        <extensions>
          <ns3:TrackPointExtension>
            <ns3:atemp>16.0</ns3:atemp>
          </ns3:TrackPointExtension>
        </extensions>
      </trkpt>
      <trkpt lat="42.5294838286936283111572265625" lon="19.8442544974386692047119140625">
        <ele>999.5999755859375</ele>
        <time>2026-06-18T06:42:30.000Z</time>
        <extensions>
          <ns3:TrackPointExtension>
            <ns3:atemp>16.0</ns3:atemp>
          </ns3:TrackPointExtension>
        </extensions>
      </trkpt>
      <trkpt lat="42.52951048314571380615234375" lon="19.84417788684368133544921875">
        <ele>998.79998779296875</ele>
        <time>2026-06-18T06:42:31.000Z</time>
        <extensions>
          <ns3:TrackPointExtension>
            <ns3:atemp>16.0</ns3:atemp>
          </ns3:TrackPointExtension>
        </extensions>
      </trkpt>
      <trkpt lat="42.52954208292067050933837890625" lon="19.8441073112189769744873046875">
        <ele>997.79998779296875</ele>
        <time>2026-06-18T06:42:32.000Z</time>
        <extensions>
          <ns3:TrackPointExtension>
            <ns3:atemp>16.0</ns3:atemp>
          </ns3:TrackPointExtension>
        </extensions>
      </trkpt>
      <trkpt lat="42.52957485616207122802734375" lon="19.84403732232749462127685546875">
        <ele>996.4000244140625</ele>
        <time>2026-06-18T06:42:33.000Z</time>
        <extensions>
          <ns3:TrackPointExtension>
            <ns3:atemp>16.0</ns3:atemp>
          </ns3:TrackPointExtension>
        </extensions>
      </trkpt>
      <trkpt lat="42.5296108983457088470458984375" lon="19.8439693450927734375">
        <ele>995.4000244140625</ele>
        <time>2026-06-18T06:42:34.000Z</time>
        <extensions>
          <ns3:TrackPointExtension>
            <ns3:atemp>16.0</ns3:atemp>
          </ns3:TrackPointExtension>
        </extensions>
      </trkpt>
      <trkpt lat="42.52964769490063190460205078125" lon="19.84390086494386196136474609375">
        <ele>994.20001220703125</ele>
        <time>2026-06-18T06:42:35.000Z</time>
        <extensions>
          <ns3:TrackPointExtension>
            <ns3:atemp>16.0</ns3:atemp>
          </ns3:TrackPointExtension>
        </extensions>
      </trkpt>
      <trkpt lat="42.5296870060265064239501953125" lon="19.84383448027074337005615234375">
        <ele>992.79998779296875</ele>
        <time>2026-06-18T06:42:36.000Z</time>
        <extensions>
          <ns3:TrackPointExtension>
            <ns3:atemp>16.0</ns3:atemp>
          </ns3:TrackPointExtension>
        </extensions>
      </trkpt>
      <trkpt lat="42.529725730419158935546875" lon="19.843764491379261016845703125">
        <ele>991.5999755859375</ele>
        <time>2026-06-18T06:42:37.000Z</time>
        <extensions>
          <ns3:TrackPointExtension>
            <ns3:atemp>16.0</ns3:atemp>
          </ns3:TrackPointExtension>
        </extensions>
      </trkpt>
      <trkpt lat="42.5297611020505428314208984375" lon="19.84369483776390552520751953125">
        <ele>990.4000244140625</ele>
        <time>2026-06-18T06:42:38.000Z</time>
        <extensions>
          <ns3:TrackPointExtension>
            <ns3:atemp>16.0</ns3:atemp>
          </ns3:TrackPointExtension>
        </extensions>
      </trkpt>
      <trkpt lat="42.52977845259010791778564453125" lon="19.8436198197305202484130859375">
        <ele>989.20001220703125</ele>
        <time>2026-06-18T06:42:39.000Z</time>
        <extensions>
          <ns3:TrackPointExtension>
            <ns3:atemp>16.0</ns3:atemp>
          </ns3:TrackPointExtension>
        </extensions>
      </trkpt>
      <trkpt lat="42.5297753512859344482421875" lon="19.8435410298407077789306640625">
        <ele>987.79998779296875</ele>
        <time>2026-06-18T06:42:40.000Z</time>
        <extensions>
          <ns3:TrackPointExtension>
            <ns3:atemp>16.0</ns3:atemp>
          </ns3:TrackPointExtension>
        </extensions>
      </trkpt>
      <trkpt lat="42.52975699491798877716064453125" lon="19.8434679396450519561767578125">
        <ele>986.5999755859375</ele>
        <time>2026-06-18T06:42:41.000Z</time>
        <extensions>
          <ns3:TrackPointExtension>
            <ns3:atemp>16.0</ns3:atemp>
          </ns3:TrackPointExtension>
        </extensions>
      </trkpt>
      <trkpt lat="42.52973335795104503631591796875" lon="19.84340147115290164947509765625">
        <ele>985.79998779296875</ele>
        <time>2026-06-18T06:42:42.000Z</time>
        <extensions>
          <ns3:TrackPointExtension>
            <ns3:atemp>16.0</ns3:atemp>
          </ns3:TrackPointExtension>
        </extensions>
      </trkpt>
      <trkpt lat="42.52971391193568706512451171875" lon="19.84332896769046783447265625">
        <ele>984.79998779296875</ele>
        <time>2026-06-18T06:42:43.000Z</time>
        <extensions>
          <ns3:TrackPointExtension>
            <ns3:atemp>16.0</ns3:atemp>
          </ns3:TrackPointExtension>
        </extensions>
      </trkpt>
      <trkpt lat="42.52971592359244823455810546875" lon="19.84325227327644824981689453125">
        <ele>984</ele>
        <time>2026-06-18T06:42:44.000Z</time>
        <extensions>
          <ns3:TrackPointExtension>
            <ns3:atemp>16.0</ns3:atemp>
          </ns3:TrackPointExtension>
        </extensions>
      </trkpt>
      <trkpt lat="42.529733441770076751708984375" lon="19.84317482449114322662353515625">
        <ele>983.4000244140625</ele>
        <time>2026-06-18T06:42:45.000Z</time>
        <extensions>
          <ns3:TrackPointExtension>
            <ns3:atemp>16.0</ns3:atemp>
          </ns3:TrackPointExtension>
        </extensions>
      </trkpt>
      <trkpt lat="42.529763281345367431640625" lon="19.84310223720967769622802734375">
        <ele>982.4000244140625</ele>
        <time>2026-06-18T06:42:46.000Z</time>
        <extensions>
          <ns3:TrackPointExtension>
            <ns3:atemp>16.0</ns3:atemp>
          </ns3:TrackPointExtension>
        </extensions>
      </trkpt>
      <trkpt lat="42.52980292774736881256103515625" lon="19.84303518198430538177490234375">
        <ele>981.5999755859375</ele>
        <time>2026-06-18T06:42:47.000Z</time>
        <extensions>
          <ns3:TrackPointExtension>
            <ns3:atemp>16.0</ns3:atemp>
          </ns3:TrackPointExtension>
        </extensions>
      </trkpt>
      <trkpt lat="42.5298502855002880096435546875" lon="19.8429667018353939056396484375">
        <ele>980.79998779296875</ele>
        <time>2026-06-18T06:42:48.000Z</time>
        <extensions>
          <ns3:TrackPointExtension>
            <ns3:atemp>16.0</ns3:atemp>
          </ns3:TrackPointExtension>
        </extensions>
      </trkpt>
      <trkpt lat="42.52990032546222209930419921875" lon="19.84289905987679958343505859375">
        <ele>980</ele>
        <time>2026-06-18T06:42:49.000Z</time>
        <extensions>
          <ns3:TrackPointExtension>
            <ns3:atemp>16.0</ns3:atemp>
          </ns3:TrackPointExtension>
        </extensions>
      </trkpt>
      <trkpt lat="42.529951035976409912109375" lon="19.84283250756561756134033203125">
        <ele>979.20001220703125</ele>
        <time>2026-06-18T06:42:50.000Z</time>
        <extensions>
          <ns3:TrackPointExtension>
            <ns3:atemp>16.0</ns3:atemp>
          </ns3:TrackPointExtension>
        </extensions>
      </trkpt>
      <trkpt lat="42.53000459633767604827880859375" lon="19.84277048148214817047119140625">
        <ele>978.20001220703125</ele>
        <time>2026-06-18T06:42:51.000Z</time>
        <extensions>
          <ns3:TrackPointExtension>
            <ns3:atemp>16.0</ns3:atemp>
          </ns3:TrackPointExtension>
        </extensions>
      </trkpt>
      <trkpt lat="42.5300537981092929840087890625" lon="19.84271147288382053375244140625">
        <ele>977.20001220703125</ele>
        <time>2026-06-18T06:42:52.000Z</time>
        <extensions>
          <ns3:TrackPointExtension>
            <ns3:atemp>16.0</ns3:atemp>
          </ns3:TrackPointExtension>
        </extensions>
      </trkpt>
      <trkpt lat="42.530103586614131927490234375" lon="19.8426605947315692901611328125">
        <ele>976.20001220703125</ele>
        <time>2026-06-18T06:42:53.000Z</time>
        <extensions>
          <ns3:TrackPointExtension>
            <ns3:atemp>16.0</ns3:atemp>
          </ns3:TrackPointExtension>
        </extensions>
      </trkpt>
      <trkpt lat="42.53015513531863689422607421875" lon="19.84261575154960155487060546875">
        <ele>975.20001220703125</ele>
        <time>2026-06-18T06:42:54.000Z</time>
        <extensions>
          <ns3:TrackPointExtension>
            <ns3:atemp>16.0</ns3:atemp>
          </ns3:TrackPointExtension>
        </extensions>
      </trkpt>
      <trkpt lat="42.53020676784217357635498046875" lon="19.84257132746279239654541015625">
        <ele>974.4000244140625</ele>
        <time>2026-06-18T06:42:55.000Z</time>
        <extensions>
          <ns3:TrackPointExtension>
            <ns3:atemp>16.0</ns3:atemp>
          </ns3:TrackPointExtension>
        </extensions>
      </trkpt>
      <trkpt lat="42.53025270067155361175537109375" lon="19.84252857975661754608154296875">
        <ele>973.5999755859375</ele>
        <time>2026-06-18T06:42:56.000Z</time>
        <extensions>
          <ns3:TrackPointExtension>
            <ns3:atemp>16.0</ns3:atemp>
          </ns3:TrackPointExtension>
        </extensions>
      </trkpt>
      <trkpt lat="42.53029628656804561614990234375" lon="19.84248449094593524932861328125">
        <ele>972.79998779296875</ele>
        <time>2026-06-18T06:42:57.000Z</time>
        <extensions>
          <ns3:TrackPointExtension>
            <ns3:atemp>16.0</ns3:atemp>
          </ns3:TrackPointExtension>
        </extensions>
      </trkpt>
      <trkpt lat="42.5303337536752223968505859375" lon="19.842438809573650360107421875">
        <ele>972</ele>
        <time>2026-06-18T06:42:58.000Z</time>
        <extensions>
          <ns3:TrackPointExtension>
            <ns3:atemp>16.0</ns3:atemp>
          </ns3:TrackPointExtension>
        </extensions>
      </trkpt>
      <trkpt lat="42.53035982139408588409423828125" lon="19.84238944016396999359130859375">
        <ele>971.20001220703125</ele>
        <time>2026-06-18T06:42:59.000Z</time>
        <extensions>
          <ns3:TrackPointExtension>
            <ns3:atemp>16.0</ns3:atemp>
          </ns3:TrackPointExtension>
        </extensions>
      </trkpt>
      <trkpt lat="42.53037826158106327056884765625" lon="19.84232272021472454071044921875">
        <ele>970.5999755859375</ele>
        <time>2026-06-18T06:43:00.000Z</time>
        <extensions>
          <ns3:TrackPointExtension>
            <ns3:atemp>16.0</ns3:atemp>
          </ns3:TrackPointExtension>
        </extensions>
      </trkpt>
      <trkpt lat="42.5303890742361545562744140625" lon="19.84224979765713214874267578125">
        <ele>969.79998779296875</ele>
        <time>2026-06-18T06:43:01.000Z</time>
        <extensions>
          <ns3:TrackPointExtension>
            <ns3:atemp>16.0</ns3:atemp>
          </ns3:TrackPointExtension>
        </extensions>
      </trkpt>
      <trkpt lat="42.53039821051061153411865234375" lon="19.84216731972992420196533203125">
        <ele>969</ele>
        <time>2026-06-18T06:43:02.000Z</time>
        <extensions>
          <ns3:TrackPointExtension>
            <ns3:atemp>16.0</ns3:atemp>
          </ns3:TrackPointExtension>
        </extensions>
      </trkpt>
      <trkpt lat="42.53039720468223094940185546875" lon="19.84208039939403533935546875">
        <ele>968.4000244140625</ele>
        <time>2026-06-18T06:43:03.000Z</time>
        <extensions>
          <ns3:TrackPointExtension>
            <ns3:atemp>16.0</ns3:atemp>
          </ns3:TrackPointExtension>
        </extensions>
      </trkpt>
      <trkpt lat="42.53039024770259857177734375" lon="19.84199146740138530731201171875">
        <ele>967.79998779296875</ele>
        <time>2026-06-18T06:43:04.000Z</time>
        <extensions>
          <ns3:TrackPointExtension>
            <ns3:atemp>16.0</ns3:atemp>
          </ns3:TrackPointExtension>
        </extensions>
      </trkpt>
      <trkpt lat="42.53037574701011180877685546875" lon="19.8418998531997203826904296875">
        <ele>967.4000244140625</ele>
        <time>2026-06-18T06:43:05.000Z</time>
        <extensions>
          <ns3:TrackPointExtension>
            <ns3:atemp>16.0</ns3:atemp>
          </ns3:TrackPointExtension>
        </extensions>
      </trkpt>
      <trkpt lat="42.53035680390894412994384765625" lon="19.8418106697499752044677734375">
        <ele>966.5999755859375</ele>
        <time>2026-06-18T06:43:06.000Z</time>
        <extensions>
          <ns3:TrackPointExtension>
            <ns3:atemp>16.0</ns3:atemp>
          </ns3:TrackPointExtension>
        </extensions>
      </trkpt>
      <trkpt lat="42.5303374417126178741455078125" lon="19.84172157011926174163818359375">
        <ele>966</ele>
        <time>2026-06-18T06:43:07.000Z</time>
        <extensions>
          <ns3:TrackPointExtension>
            <ns3:atemp>16.0</ns3:atemp>
          </ns3:TrackPointExtension>
        </extensions>
      </trkpt>
      <trkpt lat="42.53031573258340358734130859375" lon="19.84163104556500911712646484375">
        <ele>965.4000244140625</ele>
        <time>2026-06-18T06:43:08.000Z</time>
        <extensions>
          <ns3:TrackPointExtension>
            <ns3:atemp>16.0</ns3:atemp>
          </ns3:TrackPointExtension>
        </extensions>
      </trkpt>
      <trkpt lat="42.5302975438535213470458984375" lon="19.84153532423079013824462890625">
        <ele>964.5999755859375</ele>
        <time>2026-06-18T06:43:09.000Z</time>
        <extensions>
          <ns3:TrackPointExtension>
            <ns3:atemp>16.0</ns3:atemp>
          </ns3:TrackPointExtension>
        </extensions>
      </trkpt>
      <trkpt lat="42.53028455190360546112060546875" lon="19.8414381779730319976806640625">
        <ele>964</ele>
        <time>2026-06-18T06:43:10.000Z</time>
        <extensions>
          <ns3:TrackPointExtension>
            <ns3:atemp>16.0</ns3:atemp>
          </ns3:TrackPointExtension>
        </extensions>
      </trkpt>
      <trkpt lat="42.53027491271495819091796875" lon="19.8413419537246227264404296875">
        <ele>963.4000244140625</ele>
        <time>2026-06-18T06:43:11.000Z</time>
        <extensions>
          <ns3:TrackPointExtension>
            <ns3:atemp>16.0</ns3:atemp>
          </ns3:TrackPointExtension>
        </extensions>
      </trkpt>
      <trkpt lat="42.53026946447789669036865234375" lon="19.84124028123915195465087890625">
        <ele>963</ele>
        <time>2026-06-18T06:43:12.000Z</time>
        <extensions>
          <ns3:TrackPointExtension>
            <ns3:atemp>16.0</ns3:atemp>
          </ns3:TrackPointExtension>
        </extensions>
      </trkpt>
      <trkpt lat="42.53025974147021770477294921875" lon="19.84114372171461582183837890625">
        <ele>962.20001220703125</ele>
        <time>2026-06-18T06:43:13.000Z</time>
        <extensions>
          <ns3:TrackPointExtension>
            <ns3:atemp>16.0</ns3:atemp>
          </ns3:TrackPointExtension>
        </extensions>
      </trkpt>
      <trkpt lat="42.5302495993673801422119140625" lon="19.84104431234300136566162109375">
        <ele>961.5999755859375</ele>
        <time>2026-06-18T06:43:14.000Z</time>
        <extensions>
          <ns3:TrackPointExtension>
            <ns3:atemp>16.0</ns3:atemp>
          </ns3:TrackPointExtension>
        </extensions>
      </trkpt>
      <trkpt lat="42.5302393734455108642578125" lon="19.84094607643783092498779296875">
        <ele>961.20001220703125</ele>
        <time>2026-06-18T06:43:15.000Z</time>
        <extensions>
          <ns3:TrackPointExtension>
            <ns3:atemp>16.0</ns3:atemp>
          </ns3:TrackPointExtension>
        </extensions>
      </trkpt>
      <trkpt lat="42.53023124299943447113037109375" lon="19.84084448777139186859130859375">
        <ele>960.5999755859375</ele>
        <time>2026-06-18T06:43:16.000Z</time>
        <extensions>
          <ns3:TrackPointExtension>
            <ns3:atemp>16.0</ns3:atemp>
          </ns3:TrackPointExtension>
        </extensions>
      </trkpt>
      <trkpt lat="42.53022436983883380889892578125" lon="19.84074692241847515106201171875">
        <ele>960</ele>
        <time>2026-06-18T06:43:17.000Z</time>
        <extensions>
          <ns3:TrackPointExtension>
            <ns3:atemp>16.0</ns3:atemp>
          </ns3:TrackPointExtension>
        </extensions>
      </trkpt>
      <trkpt lat="42.53022302873432636260986328125" lon="19.84064935706555843353271484375">
        <ele>959.5999755859375</ele>
        <time>2026-06-18T06:43:18.000Z</time>
        <extensions>
          <ns3:TrackPointExtension>
            <ns3:atemp>16.0</ns3:atemp>
          </ns3:TrackPointExtension>
        </extensions>
      </trkpt>
      <trkpt lat="42.5302294827997684478759765625" lon="19.84055095352232456207275390625">
        <ele>959</ele>
        <time>2026-06-18T06:43:19.000Z</time>
        <extensions>
          <ns3:TrackPointExtension>
            <ns3:atemp>16.0</ns3:atemp>
          </ns3:TrackPointExtension>
        </extensions>
      </trkpt>
      <trkpt lat="42.5302351824939250946044921875" lon="19.84045154415071010589599609375">
        <ele>958.4000244140625</ele>
        <time>2026-06-18T06:43:20.000Z</time>
        <extensions>
          <ns3:TrackPointExtension>
            <ns3:atemp>16.0</ns3:atemp>
          </ns3:TrackPointExtension>
        </extensions>
      </trkpt>
      <trkpt lat="42.53024406731128692626953125" lon="19.84034945257008075714111328125">
        <ele>957.79998779296875</ele>
        <time>2026-06-18T06:43:21.000Z</time>
        <extensions>
          <ns3:TrackPointExtension>
            <ns3:atemp>16.0</ns3:atemp>
          </ns3:TrackPointExtension>
        </extensions>
      </trkpt>
      <trkpt lat="42.53025739453732967376708984375" lon="19.8402516357600688934326171875">
        <ele>957.4000244140625</ele>
        <time>2026-06-18T06:43:22.000Z</time>
        <extensions>
          <ns3:TrackPointExtension>
            <ns3:atemp>16.0</ns3:atemp>
          </ns3:TrackPointExtension>
        </extensions>
      </trkpt>
      <trkpt lat="42.53027315251529216766357421875" lon="19.84015583060681819915771484375">
        <ele>956.79998779296875</ele>
        <time>2026-06-18T06:43:23.000Z</time>
        <extensions>
          <ns3:TrackPointExtension>
            <ns3:atemp>16.0</ns3:atemp>
          </ns3:TrackPointExtension>
        </extensions>
      </trkpt>
      <trkpt lat="42.5302878208458423614501953125" lon="19.8400608636438846588134765625">
        <ele>956.20001220703125</ele>
        <time>2026-06-18T06:43:24.000Z</time>
        <extensions>
          <ns3:TrackPointExtension>
            <ns3:atemp>16.0</ns3:atemp>
          </ns3:TrackPointExtension>
        </extensions>
      </trkpt>
      <trkpt lat="42.5303025729954242706298828125" lon="19.83996354974806308746337890625">
        <ele>955.79998779296875</ele>
        <time>2026-06-18T06:43:25.000Z</time>
        <extensions>
          <ns3:TrackPointExtension>
            <ns3:atemp>16.0</ns3:atemp>
          </ns3:TrackPointExtension>
        </extensions>
      </trkpt>
      <trkpt lat="42.5303166545927524566650390625" lon="19.839870929718017578125">
        <ele>955.20001220703125</ele>
        <time>2026-06-18T06:43:26.000Z</time>
        <extensions>
          <ns3:TrackPointExtension>
            <ns3:atemp>16.0</ns3:atemp>
          </ns3:TrackPointExtension>
        </extensions>
      </trkpt>
      <trkpt lat="42.5303344242274761199951171875" lon="19.83977998606860637664794921875">
        <ele>954.5999755859375</ele>
        <time>2026-06-18T06:43:27.000Z</time>
        <extensions>
          <ns3:TrackPointExtension>
            <ns3:atemp>16.0</ns3:atemp>
          </ns3:TrackPointExtension>
        </extensions>
      </trkpt>
      <trkpt lat="42.53035831265151500701904296875" lon="19.83969189226627349853515625">
        <ele>954.20001220703125</ele>
        <time>2026-06-18T06:43:28.000Z</time>
        <extensions>
          <ns3:TrackPointExtension>
            <ns3:atemp>16.0</ns3:atemp>
          </ns3:TrackPointExtension>
        </extensions>
      </trkpt>
      <trkpt lat="42.53038764931261539459228515625" lon="19.83961318619549274444580078125">
        <ele>953.5999755859375</ele>
        <time>2026-06-18T06:43:29.000Z</time>
        <extensions>
          <ns3:TrackPointExtension>
            <ns3:atemp>16.0</ns3:atemp>
          </ns3:TrackPointExtension>
        </extensions>
      </trkpt>
      <trkpt lat="42.5304236076772212982177734375" lon="19.83954126946628093719482421875">
        <ele>953.20001220703125</ele>
        <time>2026-06-18T06:43:30.000Z</time>
        <extensions>
          <ns3:TrackPointExtension>
            <ns3:atemp>16.0</ns3:atemp>
          </ns3:TrackPointExtension>
        </extensions>
      </trkpt>
      <trkpt lat="42.53046425990760326385498046875" lon="19.83947522006928920745849609375">
        <ele>952.79998779296875</ele>
        <time>2026-06-18T06:43:31.000Z</time>
        <extensions>
          <ns3:TrackPointExtension>
            <ns3:atemp>16.0</ns3:atemp>
          </ns3:TrackPointExtension>
        </extensions>
      </trkpt>
      <trkpt lat="42.53051488660275936126708984375" lon="19.8394198156893253326416015625">
        <ele>952.20001220703125</ele>
        <time>2026-06-18T06:43:32.000Z</time>
        <extensions>
          <ns3:TrackPointExtension>
            <ns3:atemp>16.0</ns3:atemp>
          </ns3:TrackPointExtension>
        </extensions>
      </trkpt>
      <trkpt lat="42.5305697880685329437255859375" lon="19.839374385774135589599609375">
        <ele>951.5999755859375</ele>
        <time>2026-06-18T06:43:33.000Z</time>
        <extensions>
          <ns3:TrackPointExtension>
            <ns3:atemp>16.0</ns3:atemp>
          </ns3:TrackPointExtension>
        </extensions>
      </trkpt>
      <trkpt lat="42.53062703646719455718994140625" lon="19.839317388832569122314453125">
        <ele>951</ele>
        <time>2026-06-18T06:43:34.000Z</time>
        <extensions>
          <ns3:TrackPointExtension>
            <ns3:atemp>16.0</ns3:atemp>
          </ns3:TrackPointExtension>
        </extensions>
      </trkpt>
      <trkpt lat="42.53067900426685810089111328125" lon="19.83925293199717998504638671875">
        <ele>950.5999755859375</ele>
        <time>2026-06-18T06:43:35.000Z</time>
        <extensions>
          <ns3:TrackPointExtension>
            <ns3:atemp>16.0</ns3:atemp>
          </ns3:TrackPointExtension>
        </extensions>
      </trkpt>
      <trkpt lat="42.53072544001042842864990234375" lon="19.83918000943958759307861328125">
        <ele>950</ele>
        <time>2026-06-18T06:43:36.000Z</time>
        <extensions>
          <ns3:TrackPointExtension>
            <ns3:atemp>16.0</ns3:atemp>
          </ns3:TrackPointExtension>
        </extensions>
      </trkpt>
      <trkpt lat="42.53076818771660327911376953125" lon="19.83910406939685344696044921875">
        <ele>949.4000244140625</ele>
        <time>2026-06-18T06:43:37.000Z</time>
        <extensions>
          <ns3:TrackPointExtension>
            <ns3:atemp>16.0</ns3:atemp>
          </ns3:TrackPointExtension>
        </extensions>
      </trkpt>
      <trkpt lat="42.530810348689556121826171875" lon="19.8390241898596286773681640625">
        <ele>949</ele>
        <time>2026-06-18T06:43:38.000Z</time>
        <extensions>
          <ns3:TrackPointExtension>
            <ns3:atemp>16.0</ns3:atemp>
          </ns3:TrackPointExtension>
        </extensions>
      </trkpt>
      <trkpt lat="42.53085116855800151824951171875" lon="19.838935174047946929931640625">
        <ele>948.4000244140625</ele>
        <time>2026-06-18T06:43:39.000Z</time>
        <extensions>
          <ns3:TrackPointExtension>
            <ns3:atemp>16.0</ns3:atemp>
          </ns3:TrackPointExtension>
        </extensions>
      </trkpt>
      <trkpt lat="42.53088855184614658355712890625" lon="19.83884741552174091339111328125">
        <ele>947.79998779296875</ele>
        <time>2026-06-18T06:43:40.000Z</time>
        <extensions>
          <ns3:TrackPointExtension>
            <ns3:atemp>16.0</ns3:atemp>
          </ns3:TrackPointExtension>
        </extensions>
      </trkpt>
      <trkpt lat="42.53092677332460880279541015625" lon="19.8387599922716617584228515625">
        <ele>947.20001220703125</ele>
        <time>2026-06-18T06:43:41.000Z</time>
        <extensions>
          <ns3:TrackPointExtension>
            <ns3:atemp>16.0</ns3:atemp>
          </ns3:TrackPointExtension>
        </extensions>
      </trkpt>
      <trkpt lat="42.53096449188888072967529296875" lon="19.838677681982517242431640625">
        <ele>946.79998779296875</ele>
        <time>2026-06-18T06:43:42.000Z</time>
        <extensions>
          <ns3:TrackPointExtension>
            <ns3:atemp>16.0</ns3:atemp>
          </ns3:TrackPointExtension>
        </extensions>
      </trkpt>
      <trkpt lat="42.53100237809121608734130859375" lon="19.8386047594249248504638671875">
        <ele>946.4000244140625</ele>
        <time>2026-06-18T06:43:43.000Z</time>
        <extensions>
          <ns3:TrackPointExtension>
            <ns3:atemp>16.0</ns3:atemp>
          </ns3:TrackPointExtension>
        </extensions>
      </trkpt>
      <trkpt lat="42.53104202449321746826171875" lon="19.83853510580956935882568359375">
        <ele>946</ele>
        <time>2026-06-18T06:43:44.000Z</time>
        <extensions>
          <ns3:TrackPointExtension>
            <ns3:atemp>16.0</ns3:atemp>
          </ns3:TrackPointExtension>
        </extensions>
      </trkpt>
      <trkpt lat="42.5310864485800266265869140625" lon="19.8384694755077362060546875">
        <ele>945.5999755859375</ele>
        <time>2026-06-18T06:43:45.000Z</time>
        <extensions>
          <ns3:TrackPointExtension>
            <ns3:atemp>16.0</ns3:atemp>
          </ns3:TrackPointExtension>
        </extensions>
      </trkpt>
      <trkpt lat="42.53113280050456523895263671875" lon="19.8384079523384571075439453125">
        <ele>945.20001220703125</ele>
        <time>2026-06-18T06:43:46.000Z</time>
        <extensions>
          <ns3:TrackPointExtension>
            <ns3:atemp>16.0</ns3:atemp>
          </ns3:TrackPointExtension>
        </extensions>
      </trkpt>
      <trkpt lat="42.53118460066616535186767578125" lon="19.838349781930446624755859375">
        <ele>944.79998779296875</ele>
        <time>2026-06-18T06:43:47.000Z</time>
        <extensions>
          <ns3:TrackPointExtension>
            <ns3:atemp>16.0</ns3:atemp>
          </ns3:TrackPointExtension>
        </extensions>
      </trkpt>
      <trkpt lat="42.53123673610389232635498046875" lon="19.83829848468303680419921875">
        <ele>944.4000244140625</ele>
        <time>2026-06-18T06:43:48.000Z</time>
        <extensions>
          <ns3:TrackPointExtension>
            <ns3:atemp>16.0</ns3:atemp>
          </ns3:TrackPointExtension>
        </extensions>
      </trkpt>
      <trkpt lat="42.53129138611257076263427734375" lon="19.8382468521595001220703125">
        <ele>944</ele>
        <time>2026-06-18T06:43:49.000Z</time>
        <extensions>
          <ns3:TrackPointExtension>
            <ns3:atemp>16.0</ns3:atemp>
          </ns3:TrackPointExtension>
        </extensions>
      </trkpt>
      <trkpt lat="42.53134452737867832183837890625" lon="19.8381980694830417633056640625">
        <ele>943.5999755859375</ele>
        <time>2026-06-18T06:43:50.000Z</time>
        <extensions>
          <ns3:TrackPointExtension>
            <ns3:atemp>16.0</ns3:atemp>
          </ns3:TrackPointExtension>
        </extensions>
      </trkpt>
      <trkpt lat="42.53139548934996128082275390625" lon="19.83815540559589862823486328125">
        <ele>943.4000244140625</ele>
        <time>2026-06-18T06:43:51.000Z</time>
        <extensions>
          <ns3:TrackPointExtension>
            <ns3:atemp>16.0</ns3:atemp>
          </ns3:TrackPointExtension>
        </extensions>
      </trkpt>
      <trkpt lat="42.53144569694995880126953125" lon="19.83812405727803707122802734375">
        <ele>943</ele>
        <time>2026-06-18T06:43:52.000Z</time>
        <extensions>
          <ns3:TrackPointExtension>
            <ns3:atemp>16.0</ns3:atemp>
          </ns3:TrackPointExtension>
        </extensions>
      </trkpt>
      <trkpt lat="42.53149691037833690643310546875" lon="19.8381006717681884765625">
        <ele>942.5999755859375</ele>
        <time>2026-06-18T06:43:53.000Z</time>
        <extensions>
          <ns3:TrackPointExtension>
            <ns3:atemp>16.0</ns3:atemp>
          </ns3:TrackPointExtension>
        </extensions>
      </trkpt>
      <trkpt lat="42.5315498001873493194580078125" lon="19.83808063901960849761962890625">
        <ele>942.20001220703125</ele>
        <time>2026-06-18T06:43:54.000Z</time>
        <extensions>
          <ns3:TrackPointExtension>
            <ns3:atemp>16.0</ns3:atemp>
          </ns3:TrackPointExtension>
        </extensions>
      </trkpt>
      <trkpt lat="42.5316078029572963714599609375" lon="19.8380632884800434112548828125">
        <ele>941.79998779296875</ele>
        <time>2026-06-18T06:43:55.000Z</time>
        <extensions>
          <ns3:TrackPointExtension>
            <ns3:atemp>16.0</ns3:atemp>
          </ns3:TrackPointExtension>
        </extensions>
      </trkpt>
      <trkpt lat="42.531666643917560577392578125" lon="19.838050045073032379150390625">
        <ele>941.20001220703125</ele>
        <time>2026-06-18T06:43:56.000Z</time>
        <extensions>
          <ns3:TrackPointExtension>
            <ns3:atemp>16.0</ns3:atemp>
          </ns3:TrackPointExtension>
        </extensions>
      </trkpt>
      <trkpt lat="42.53172934055328369140625" lon="19.8380354605615139007568359375">
        <ele>940.5999755859375</ele>
        <time>2026-06-18T06:43:57.000Z</time>
        <extensions>
          <ns3:TrackPointExtension>
            <ns3:atemp>16.0</ns3:atemp>
          </ns3:TrackPointExtension>
        </extensions>
      </trkpt>
      <trkpt lat="42.53179145045578479766845703125" lon="19.83801106922328472137451171875">
        <ele>939.79998779296875</ele>
        <time>2026-06-18T06:43:58.000Z</time>
        <extensions>
          <ns3:TrackPointExtension>
            <ns3:atemp>16.0</ns3:atemp>
          </ns3:TrackPointExtension>
        </extensions>
      </trkpt>
      <trkpt lat="42.53185330890119075775146484375" lon="19.83797854743897914886474609375">
        <ele>939</ele>
        <time>2026-06-18T06:43:59.000Z</time>
        <extensions>
          <ns3:TrackPointExtension>
            <ns3:atemp>16.0</ns3:atemp>
          </ns3:TrackPointExtension>
        </extensions>
      </trkpt>
      <trkpt lat="42.5319132395088672637939453125" lon="19.8379385657608509063720703125">
        <ele>938.20001220703125</ele>
        <time>2026-06-18T06:44:00.000Z</time>
        <extensions>
          <ns3:TrackPointExtension>
            <ns3:atemp>16.0</ns3:atemp>
          </ns3:TrackPointExtension>
        </extensions>
      </trkpt>
      <trkpt lat="42.53197551704943180084228515625" lon="19.8378976620733737945556640625">
        <ele>937.5999755859375</ele>
        <time>2026-06-18T06:44:01.000Z</time>
        <extensions>
          <ns3:TrackPointExtension>
            <ns3:atemp>16.0</ns3:atemp>
          </ns3:TrackPointExtension>
        </extensions>
      </trkpt>
      <trkpt lat="42.53203670494258403778076171875" lon="19.83785667456686496734619140625">
        <ele>937</ele>
        <time>2026-06-18T06:44:02.000Z</time>
        <extensions>
          <ns3:TrackPointExtension>
            <ns3:atemp>16.0</ns3:atemp>
          </ns3:TrackPointExtension>
        </extensions>
      </trkpt>
      <trkpt lat="42.532101832330226898193359375" lon="19.83781593851745128631591796875">
        <ele>936.5999755859375</ele>
        <time>2026-06-18T06:44:03.000Z</time>
        <extensions>
          <ns3:TrackPointExtension>
            <ns3:atemp>16.0</ns3:atemp>
          </ns3:TrackPointExtension>
        </extensions>
      </trkpt>
      <trkpt lat="42.53215849399566650390625" lon="19.83777671121060848236083984375">
        <ele>936.20001220703125</ele>
        <time>2026-06-18T06:44:04.000Z</time>
        <extensions>
          <ns3:TrackPointExtension>
            <ns3:atemp>16.0</ns3:atemp>
          </ns3:TrackPointExtension>
        </extensions>
      </trkpt>
      <trkpt lat="42.53221289254724979400634765625" lon="19.8377437703311443328857421875">
        <ele>936</ele>
        <time>2026-06-18T06:44:05.000Z</time>
        <extensions>
          <ns3:TrackPointExtension>
            <ns3:atemp>16.0</ns3:atemp>
          </ns3:TrackPointExtension>
        </extensions>
      </trkpt>
      <trkpt lat="42.53226268105208873748779296875" lon="19.83771317638456821441650390625">
        <ele>935.79998779296875</ele>
        <time>2026-06-18T06:44:06.000Z</time>
        <extensions>
          <ns3:TrackPointExtension>
            <ns3:atemp>16.0</ns3:atemp>
          </ns3:TrackPointExtension>
        </extensions>
      </trkpt>
      <trkpt lat="42.532316744327545166015625" lon="19.83768685720860958099365234375">
        <ele>935.5999755859375</ele>
        <time>2026-06-18T06:44:07.000Z</time>
        <extensions>
          <ns3:TrackPointExtension>
            <ns3:atemp>16.0</ns3:atemp>
          </ns3:TrackPointExtension>
        </extensions>
      </trkpt>
      <trkpt lat="42.53237248398363590240478515625" lon="19.83765584416687488555908203125">
        <ele>935.4000244140625</ele>
        <time>2026-06-18T06:44:08.000Z</time>
        <extensions>
          <ns3:TrackPointExtension>
            <ns3:atemp>16.0</ns3:atemp>
          </ns3:TrackPointExtension>
        </extensions>
      </trkpt>
      <trkpt lat="42.53243006765842437744140625" lon="19.83762801624834537506103515625">
        <ele>935.20001220703125</ele>
        <time>2026-06-18T06:44:09.000Z</time>
        <extensions>
          <ns3:TrackPointExtension>
            <ns3:atemp>16.0</ns3:atemp>
          </ns3:TrackPointExtension>
        </extensions>
      </trkpt>
      <trkpt lat="42.532487399876117706298828125" lon="19.83760572038590908050537109375">
        <ele>935</ele>
        <time>2026-06-18T06:44:10.000Z</time>
        <extensions>
          <ns3:TrackPointExtension>
            <ns3:atemp>16.0</ns3:atemp>
          </ns3:TrackPointExtension>
        </extensions>
      </trkpt>
      <trkpt lat="42.5325455702841281890869140625" lon="19.83758141286671161651611328125">
        <ele>934.5999755859375</ele>
        <time>2026-06-18T06:44:11.000Z</time>
        <extensions>
          <ns3:TrackPointExtension>
            <ns3:atemp>16.0</ns3:atemp>
          </ns3:TrackPointExtension>
        </extensions>
      </trkpt>
      <trkpt lat="42.53260198049247264862060546875" lon="19.83755760826170444488525390625">
        <ele>934.4000244140625</ele>
        <time>2026-06-18T06:44:12.000Z</time>
        <extensions>
          <ns3:TrackPointExtension>
            <ns3:atemp>16.0</ns3:atemp>
          </ns3:TrackPointExtension>
        </extensions>
      </trkpt>
      <trkpt lat="42.53265830688178539276123046875" lon="19.837533049285411834716796875">
        <ele>934.20001220703125</ele>
        <time>2026-06-18T06:44:13.000Z</time>
        <extensions>
          <ns3:TrackPointExtension>
            <ns3:atemp>16.0</ns3:atemp>
          </ns3:TrackPointExtension>
        </extensions>
      </trkpt>
      <trkpt lat="42.53270910121500492095947265625" lon="19.8375097475945949554443359375">
        <ele>934.20001220703125</ele>
        <time>2026-06-18T06:44:14.000Z</time>
        <extensions>
          <ns3:TrackPointExtension>
            <ns3:atemp>16.0</ns3:atemp>
          </ns3:TrackPointExtension>
        </extensions>
      </trkpt>
      <trkpt lat="42.5327554531395435333251953125" lon="19.8374856077134609222412109375">
        <ele>934</ele>
        <time>2026-06-18T06:44:15.000Z</time>
        <extensions>
          <ns3:TrackPointExtension>
            <ns3:atemp>16.0</ns3:atemp>
          </ns3:TrackPointExtension>
        </extensions>
      </trkpt>
      <trkpt lat="42.53279811702668666839599609375" lon="19.8374574445188045501708984375">
        <ele>934</ele>
        <time>2026-06-18T06:44:16.000Z</time>
        <extensions>
          <ns3:TrackPointExtension>
            <ns3:atemp>16.0</ns3:atemp>
          </ns3:TrackPointExtension>
        </extensions>
      </trkpt>
      <trkpt lat="42.53283642232418060302734375" lon="19.83742349781095981597900390625">
        <ele>934</ele>
        <time>2026-06-18T06:44:17.000Z</time>
        <extensions>
          <ns3:TrackPointExtension>
            <ns3:atemp>16.0</ns3:atemp>
          </ns3:TrackPointExtension>
        </extensions>
      </trkpt>
      <trkpt lat="42.532874979078769683837890625" lon="19.83739265240728855133056640625">
        <ele>934</ele>
        <time>2026-06-18T06:44:18.000Z</time>
        <extensions>
          <ns3:TrackPointExtension>
            <ns3:atemp>16.0</ns3:atemp>
          </ns3:TrackPointExtension>
        </extensions>
      </trkpt>
      <trkpt lat="42.53290741704404354095458984375" lon="19.8373558558523654937744140625">
        <ele>934.20001220703125</ele>
        <time>2026-06-18T06:44:19.000Z</time>
        <extensions>
          <ns3:TrackPointExtension>
            <ns3:atemp>16.0</ns3:atemp>
          </ns3:TrackPointExtension>
        </extensions>
      </trkpt>
      <trkpt lat="42.5329408608376979827880859375" lon="19.8373213224112987518310546875">
        <ele>934.4000244140625</ele>
        <time>2026-06-18T06:44:20.000Z</time>
        <extensions>
          <ns3:TrackPointExtension>
            <ns3:atemp>16.0</ns3:atemp>
          </ns3:TrackPointExtension>
        </extensions>
      </trkpt>
      <trkpt lat="42.5329717062413692474365234375" lon="19.8372794128954410552978515625">
        <ele>934.5999755859375</ele>
        <time>2026-06-18T06:44:21.000Z</time>
        <extensions>
          <ns3:TrackPointExtension>
            <ns3:atemp>16.0</ns3:atemp>
          </ns3:TrackPointExtension>
        </extensions>
      </trkpt>
      <trkpt lat="42.53300146199762821197509765625" lon="19.83724010176956653594970703125">
        <ele>934.79998779296875</ele>
        <time>2026-06-18T06:44:22.000Z</time>
        <extensions>
          <ns3:TrackPointExtension>
            <ns3:atemp>16.0</ns3:atemp>
          </ns3:TrackPointExtension>
        </extensions>
      </trkpt>
      <trkpt lat="42.53302878700196743011474609375" lon="19.83720322139561176300048828125">
        <ele>935</ele>
        <time>2026-06-18T06:44:23.000Z</time>
        <extensions>
          <ns3:TrackPointExtension>
            <ns3:atemp>16.0</ns3:atemp>
          </ns3:TrackPointExtension>
        </extensions>
      </trkpt>
      <trkpt lat="42.53305829130113124847412109375" lon="19.8371667601168155670166015625">
        <ele>935.20001220703125</ele>
        <time>2026-06-18T06:44:24.000Z</time>
        <extensions>
          <ns3:TrackPointExtension>
            <ns3:atemp>16.0</ns3:atemp>
          </ns3:TrackPointExtension>
        </extensions>
      </trkpt>
      <trkpt lat="42.53309064544737339019775390625" lon="19.83713046647608280181884765625">
        <ele>935.20001220703125</ele>
        <time>2026-06-18T06:44:25.000Z</time>
        <extensions>
          <ns3:TrackPointExtension>
            <ns3:atemp>16.0</ns3:atemp>
          </ns3:TrackPointExtension>
        </extensions>
      </trkpt>
      <trkpt lat="42.53312082029879093170166015625" lon="19.83709417283535003662109375">
        <ele>935.4000244140625</ele>
        <time>2026-06-18T06:44:26.000Z</time>
        <extensions>
          <ns3:TrackPointExtension>
            <ns3:atemp>16.0</ns3:atemp>
          </ns3:TrackPointExtension>
        </extensions>
      </trkpt>
      <trkpt lat="42.53314898349344730377197265625" lon="19.83705402351915836334228515625">
        <ele>935.5999755859375</ele>
        <time>2026-06-18T06:44:27.000Z</time>
        <extensions>
          <ns3:TrackPointExtension>
            <ns3:atemp>16.0</ns3:atemp>
          </ns3:TrackPointExtension>
        </extensions>
      </trkpt>
      <trkpt lat="42.53317664377391338348388671875" lon="19.83701194636523723602294921875">
        <ele>935.5999755859375</ele>
        <time>2026-06-18T06:44:28.000Z</time>
        <extensions>
          <ns3:TrackPointExtension>
            <ns3:atemp>16.0</ns3:atemp>
          </ns3:TrackPointExtension>
        </extensions>
      </trkpt>
      <trkpt lat="42.53320262767374515533447265625" lon="19.83696676790714263916015625">
        <ele>935.79998779296875</ele>
        <time>2026-06-18T06:44:29.000Z</time>
        <extensions>
          <ns3:TrackPointExtension>
            <ns3:atemp>16.0</ns3:atemp>
          </ns3:TrackPointExtension>
        </extensions>
      </trkpt>
      <trkpt lat="42.533223666250705718994140625" lon="19.83692075125873088836669921875">
        <ele>935.79998779296875</ele>
        <time>2026-06-18T06:44:30.000Z</time>
        <extensions>
          <ns3:TrackPointExtension>
            <ns3:atemp>16.0</ns3:atemp>
          </ns3:TrackPointExtension>
        </extensions>
      </trkpt>
      <trkpt lat="42.533245123922824859619140625" lon="19.83686677180230617523193359375">
        <ele>936</ele>
        <time>2026-06-18T06:44:31.000Z</time>
        <extensions>
          <ns3:TrackPointExtension>
            <ns3:atemp>16.0</ns3:atemp>
          </ns3:TrackPointExtension>
        </extensions>
      </trkpt>
      <trkpt lat="42.53326565958559513092041015625" lon="19.836810529232025146484375">
        <ele>936</ele>
        <time>2026-06-18T06:44:32.000Z</time>
        <extensions>
          <ns3:TrackPointExtension>
            <ns3:atemp>16.0</ns3:atemp>
          </ns3:TrackPointExtension>
        </extensions>
      </trkpt>
      <trkpt lat="42.53328745253384113311767578125" lon="19.83675420284271240234375">
        <ele>936</ele>
        <time>2026-06-18T06:44:33.000Z</time>
        <extensions>
          <ns3:TrackPointExtension>
            <ns3:atemp>16.0</ns3:atemp>
          </ns3:TrackPointExtension>
        </extensions>
      </trkpt>
      <trkpt lat="42.53331209532916545867919921875" lon="19.83669796027243137359619140625">
        <ele>935.79998779296875</ele>
        <time>2026-06-18T06:44:34.000Z</time>
        <extensions>
          <ns3:TrackPointExtension>
            <ns3:atemp>16.0</ns3:atemp>
          </ns3:TrackPointExtension>
        </extensions>
      </trkpt>
      <trkpt lat="42.53333858214318752288818359375" lon="19.8366415500640869140625">
        <ele>935.79998779296875</ele>
        <time>2026-06-18T06:44:35.000Z</time>
        <extensions>
          <ns3:TrackPointExtension>
            <ns3:atemp>16.0</ns3:atemp>
          </ns3:TrackPointExtension>
        </extensions>
      </trkpt>
      <trkpt lat="42.53336875699460506439208984375" lon="19.83659083954989910125732421875">
        <ele>935.5999755859375</ele>
        <time>2026-06-18T06:44:36.000Z</time>
        <extensions>
          <ns3:TrackPointExtension>
            <ns3:atemp>16.0</ns3:atemp>
          </ns3:TrackPointExtension>
        </extensions>
      </trkpt>
      <trkpt lat="42.53340228460729122161865234375" lon="19.83653702773153781890869140625">
        <ele>935.5999755859375</ele>
        <time>2026-06-18T06:44:37.000Z</time>
        <extensions>
          <ns3:TrackPointExtension>
            <ns3:atemp>16.0</ns3:atemp>
          </ns3:TrackPointExtension>
        </extensions>
      </trkpt>
      <trkpt lat="42.53343916498124599456787109375" lon="19.836485646665096282958984375">
        <ele>935.5999755859375</ele>
        <time>2026-06-18T06:44:38.000Z</time>
        <extensions>
          <ns3:TrackPointExtension>
            <ns3:atemp>16.0</ns3:atemp>
          </ns3:TrackPointExtension>
        </extensions>
      </trkpt>
      <trkpt lat="42.53347587771713733673095703125" lon="19.83643828891217708587646484375">
        <ele>935.5999755859375</ele>
        <time>2026-06-18T06:44:39.000Z</time>
        <extensions>
          <ns3:TrackPointExtension>
            <ns3:atemp>16.0</ns3:atemp>
          </ns3:TrackPointExtension>
        </extensions>
      </trkpt>
      <trkpt lat="42.53351233899593353271484375" lon="19.83639302663505077362060546875">
        <ele>935.4000244140625</ele>
        <time>2026-06-18T06:44:40.000Z</time>
        <extensions>
          <ns3:TrackPointExtension>
            <ns3:atemp>16.0</ns3:atemp>
          </ns3:TrackPointExtension>
        </extensions>
      </trkpt>
      <trkpt lat="42.533550560474395751953125" lon="19.8363486863672733306884765625">
        <ele>935.20001220703125</ele>
        <time>2026-06-18T06:44:41.000Z</time>
        <extensions>
          <ns3:TrackPointExtension>
            <ns3:atemp>16.0</ns3:atemp>
          </ns3:TrackPointExtension>
        </extensions>
      </trkpt>
      <trkpt lat="42.533590793609619140625" lon="19.8363040946424007415771484375">
        <ele>935.20001220703125</ele>
        <time>2026-06-18T06:44:42.000Z</time>
        <extensions>
          <ns3:TrackPointExtension>
            <ns3:atemp>16.0</ns3:atemp>
          </ns3:TrackPointExtension>
        </extensions>
      </trkpt>
      <trkpt lat="42.5336288474500179290771484375" lon="19.836257658898830413818359375">
        <ele>935</ele>
        <time>2026-06-18T06:44:43.000Z</time>
        <extensions>
          <ns3:TrackPointExtension>
            <ns3:atemp>16.0</ns3:atemp>
          </ns3:TrackPointExtension>
        </extensions>
      </trkpt>
      <trkpt lat="42.5336672365665435791015625" lon="19.83621214516460895538330078125">
        <ele>935</ele>
        <time>2026-06-18T06:44:44.000Z</time>
        <extensions>
          <ns3:TrackPointExtension>
            <ns3:atemp>16.0</ns3:atemp>
          </ns3:TrackPointExtension>
        </extensions>
      </trkpt>
      <trkpt lat="42.533704452216625213623046875" lon="19.83617283403873443603515625">
        <ele>934.79998779296875</ele>
        <time>2026-06-18T06:44:45.000Z</time>
        <extensions>
          <ns3:TrackPointExtension>
            <ns3:atemp>16.0</ns3:atemp>
          </ns3:TrackPointExtension>
        </extensions>
      </trkpt>
      <trkpt lat="42.53374326042830944061279296875" lon="19.83614224009215831756591796875">
        <ele>934.79998779296875</ele>
        <time>2026-06-18T06:44:46.000Z</time>
        <extensions>
          <ns3:TrackPointExtension>
            <ns3:atemp>16.0</ns3:atemp>
          </ns3:TrackPointExtension>
        </extensions>
      </trkpt>
      <trkpt lat="42.53378466702997684478759765625" lon="19.83612145297229290008544921875">
        <ele>934.5999755859375</ele>
        <time>2026-06-18T06:44:47.000Z</time>
        <extensions>
          <ns3:TrackPointExtension>
            <ns3:atemp>16.0</ns3:atemp>
          </ns3:TrackPointExtension>
        </extensions>
      </trkpt>
      <trkpt lat="42.533828504383563995361328125" lon="19.836108796298503875732421875">
        <ele>934.4000244140625</ele>
        <time>2026-06-18T06:44:48.000Z</time>
        <extensions>
          <ns3:TrackPointExtension>
            <ns3:atemp>16.0</ns3:atemp>
          </ns3:TrackPointExtension>
        </extensions>
      </trkpt>
      <trkpt lat="42.53387167118489742279052734375" lon="19.83609907329082489013671875">
        <ele>934.20001220703125</ele>
        <time>2026-06-18T06:44:49.000Z</time>
        <extensions>
          <ns3:TrackPointExtension>
            <ns3:atemp>16.0</ns3:atemp>
          </ns3:TrackPointExtension>
        </extensions>
      </trkpt>
      <trkpt lat="42.53391274251043796539306640625" lon="19.83608356676995754241943359375">
        <ele>934.20001220703125</ele>
        <time>2026-06-18T06:44:50.000Z</time>
        <extensions>
          <ns3:TrackPointExtension>
            <ns3:atemp>16.0</ns3:atemp>
          </ns3:TrackPointExtension>
        </extensions>
      </trkpt>
      <trkpt lat="42.53395582549273967742919921875" lon="19.83606596477329730987548828125">
        <ele>934</ele>
        <time>2026-06-18T06:44:51.000Z</time>
        <extensions>
          <ns3:TrackPointExtension>
            <ns3:atemp>16.0</ns3:atemp>
          </ns3:TrackPointExtension>
        </extensions>
      </trkpt>
      <trkpt lat="42.53399706445634365081787109375" lon="19.836053140461444854736328125">
        <ele>934</ele>
        <time>2026-06-18T06:44:52.000Z</time>
        <extensions>
          <ns3:TrackPointExtension>
            <ns3:atemp>16.0</ns3:atemp>
          </ns3:TrackPointExtension>
        </extensions>
      </trkpt>
      <trkpt lat="42.53403805196285247802734375" lon="19.8360435850918292999267578125">
        <ele>934</ele>
        <time>2026-06-18T06:44:53.000Z</time>
        <extensions>
          <ns3:TrackPointExtension>
            <ns3:atemp>16.0</ns3:atemp>
          </ns3:TrackPointExtension>
        </extensions>
      </trkpt>
      <trkpt lat="42.53407920710742473602294921875" lon="19.836040399968624114990234375">
        <ele>933.79998779296875</ele>
        <time>2026-06-18T06:44:54.000Z</time>
        <extensions>
          <ns3:TrackPointExtension>
            <ns3:atemp>16.0</ns3:atemp>
          </ns3:TrackPointExtension>
        </extensions>
      </trkpt>
      <trkpt lat="42.53411944024264812469482421875" lon="19.836036376655101776123046875">
        <ele>933.79998779296875</ele>
        <time>2026-06-18T06:44:55.000Z</time>
        <extensions>
          <ns3:TrackPointExtension>
            <ns3:atemp>16.0</ns3:atemp>
          </ns3:TrackPointExtension>
        </extensions>
      </trkpt>
      <trkpt lat="42.53415866754949092864990234375" lon="19.83603394590318202972412109375">
        <ele>933.5999755859375</ele>
        <time>2026-06-18T06:44:56.000Z</time>
        <extensions>
          <ns3:TrackPointExtension>
            <ns3:atemp>16.0</ns3:atemp>
          </ns3:TrackPointExtension>
        </extensions>
      </trkpt>
      <trkpt lat="42.53419764339923858642578125" lon="19.836032688617706298828125">
        <ele>933.5999755859375</ele>
        <time>2026-06-18T06:44:57.000Z</time>
        <extensions>
          <ns3:TrackPointExtension>
            <ns3:atemp>16.0</ns3:atemp>
          </ns3:TrackPointExtension>
        </extensions>
      </trkpt>
      <trkpt lat="42.53423846326768398284912109375" lon="19.83603595755994319915771484375">
        <ele>933.5999755859375</ele>
        <time>2026-06-18T06:44:58.000Z</time>
        <extensions>
          <ns3:TrackPointExtension>
            <ns3:atemp>16.0</ns3:atemp>
          </ns3:TrackPointExtension>
        </extensions>
      </trkpt>
      <trkpt lat="42.53427919931709766387939453125" lon="19.83603780157864093780517578125">
        <ele>933.5999755859375</ele>
        <time>2026-06-18T06:44:59.000Z</time>
        <extensions>
          <ns3:TrackPointExtension>
            <ns3:atemp>16.0</ns3:atemp>
          </ns3:TrackPointExtension>
        </extensions>
      </trkpt>
      <trkpt lat="42.53431892953813076019287109375" lon="19.8360362090170383453369140625">
        <ele>933.79998779296875</ele>
        <time>2026-06-18T06:45:00.000Z</time>
        <extensions>
          <ns3:TrackPointExtension>
            <ns3:atemp>16.0</ns3:atemp>
          </ns3:TrackPointExtension>
        </extensions>
      </trkpt>
      <trkpt lat="42.53435865975916385650634765625" lon="19.83603604137897491455078125">
        <ele>933.79998779296875</ele>
        <time>2026-06-18T06:45:01.000Z</time>
        <extensions>
          <ns3:TrackPointExtension>
            <ns3:atemp>16.0</ns3:atemp>
          </ns3:TrackPointExtension>
        </extensions>
      </trkpt>
      <trkpt lat="42.53440006636083126068115234375" lon="19.8360305093228816986083984375">
        <ele>933.79998779296875</ele>
        <time>2026-06-18T06:45:02.000Z</time>
        <extensions>
          <ns3:TrackPointExtension>
            <ns3:atemp>16.0</ns3:atemp>
          </ns3:TrackPointExtension>
        </extensions>
      </trkpt>
      <trkpt lat="42.53444147296249866485595703125" lon="19.83602472580969333648681640625">
        <ele>933.79998779296875</ele>
        <time>2026-06-18T06:45:03.000Z</time>
        <extensions>
          <ns3:TrackPointExtension>
            <ns3:atemp>16.0</ns3:atemp>
          </ns3:TrackPointExtension>
        </extensions>
      </trkpt>
      <trkpt lat="42.5344826281070709228515625" lon="19.83601634390652179718017578125">
        <ele>933.79998779296875</ele>
        <time>2026-06-18T06:45:04.000Z</time>
        <extensions>
          <ns3:TrackPointExtension>
            <ns3:atemp>16.0</ns3:atemp>
          </ns3:TrackPointExtension>
        </extensions>
      </trkpt>
      <trkpt lat="42.53452294506132602691650390625" lon="19.83600662089884281158447265625">
        <ele>933.5999755859375</ele>
        <time>2026-06-18T06:45:05.000Z</time>
        <extensions>
          <ns3:TrackPointExtension>
            <ns3:atemp>16.0</ns3:atemp>
          </ns3:TrackPointExtension>
        </extensions>
      </trkpt>
      <trkpt lat="42.5345649383962154388427734375" lon="19.83599673025310039520263671875">
        <ele>933.4000244140625</ele>
        <time>2026-06-18T06:45:06.000Z</time>
        <extensions>
          <ns3:TrackPointExtension>
            <ns3:atemp>16.0</ns3:atemp>
          </ns3:TrackPointExtension>
        </extensions>
      </trkpt>
      <trkpt lat="42.53460592590272426605224609375" lon="19.8359832353889942169189453125">
        <ele>933.20001220703125</ele>
        <time>2026-06-18T06:45:07.000Z</time>
        <extensions>
          <ns3:TrackPointExtension>
            <ns3:atemp>16.0</ns3:atemp>
          </ns3:TrackPointExtension>
        </extensions>
      </trkpt>
      <trkpt lat="42.5346477515995502471923828125" lon="19.83597175218164920806884765625">
        <ele>933</ele>
        <time>2026-06-18T06:45:08.000Z</time>
        <extensions>
          <ns3:TrackPointExtension>
            <ns3:atemp>16.0</ns3:atemp>
          </ns3:TrackPointExtension>
        </extensions>
      </trkpt>
      <trkpt lat="42.5346893258392810821533203125" lon="19.8359594307839870452880859375">
        <ele>932.79998779296875</ele>
        <time>2026-06-18T06:45:09.000Z</time>
        <extensions>
          <ns3:TrackPointExtension>
            <ns3:atemp>16.0</ns3:atemp>
          </ns3:TrackPointExtension>
        </extensions>
      </trkpt>
      <trkpt lat="42.534729726612567901611328125" lon="19.8359456844627857208251953125">
        <ele>932.79998779296875</ele>
        <time>2026-06-18T06:45:10.000Z</time>
        <extensions>
          <ns3:TrackPointExtension>
            <ns3:atemp>16.0</ns3:atemp>
          </ns3:TrackPointExtension>
        </extensions>
      </trkpt>
      <trkpt lat="42.5347707979381084442138671875" lon="19.83592615462839603424072265625">
        <ele>932.79998779296875</ele>
        <time>2026-06-18T06:45:11.000Z</time>
        <extensions>
          <ns3:TrackPointExtension>
            <ns3:atemp>16.0</ns3:atemp>
          </ns3:TrackPointExtension>
        </extensions>
      </trkpt>
      <trkpt lat="42.53481262363493442535400390625" lon="19.8359031043946743011474609375">
        <ele>932.79998779296875</ele>
        <time>2026-06-18T06:45:12.000Z</time>
        <extensions>
          <ns3:TrackPointExtension>
            <ns3:atemp>16.0</ns3:atemp>
          </ns3:TrackPointExtension>
        </extensions>
      </trkpt>
      <trkpt lat="42.53485151566565036773681640625" lon="19.83587686903774738311767578125">
        <ele>932.79998779296875</ele>
        <time>2026-06-18T06:45:13.000Z</time>
        <extensions>
          <ns3:TrackPointExtension>
            <ns3:atemp>16.0</ns3:atemp>
          </ns3:TrackPointExtension>
        </extensions>
      </trkpt>
      <trkpt lat="42.5348903238773345947265625" lon="19.8358504660427570343017578125">
        <ele>933</ele>
        <time>2026-06-18T06:45:14.000Z</time>
        <extensions>
          <ns3:TrackPointExtension>
            <ns3:atemp>16.0</ns3:atemp>
          </ns3:TrackPointExtension>
        </extensions>
      </trkpt>
      <trkpt lat="42.53493064083158969879150390625" lon="19.83582423068583011627197265625">
        <ele>933</ele>
        <time>2026-06-18T06:45:15.000Z</time>
        <extensions>
          <ns3:TrackPointExtension>
            <ns3:atemp>16.0</ns3:atemp>
          </ns3:TrackPointExtension>
        </extensions>
      </trkpt>
      <trkpt lat="42.53497037105262279510498046875" lon="19.83579657040536403656005859375">
        <ele>933</ele>
        <time>2026-06-18T06:45:16.000Z</time>
        <extensions>
          <ns3:TrackPointExtension>
            <ns3:atemp>16.0</ns3:atemp>
          </ns3:TrackPointExtension>
        </extensions>
      </trkpt>
      <trkpt lat="42.5350105203688144683837890625" lon="19.83576714992523193359375">
        <ele>933</ele>
        <time>2026-06-18T06:45:17.000Z</time>
        <extensions>
          <ns3:TrackPointExtension>
            <ns3:atemp>16.0</ns3:atemp>
          </ns3:TrackPointExtension>
        </extensions>
      </trkpt>
      <trkpt lat="42.5350490771234035491943359375" lon="19.8357334546744823455810546875">
        <ele>933</ele>
        <time>2026-06-18T06:45:18.000Z</time>
        <extensions>
          <ns3:TrackPointExtension>
            <ns3:atemp>16.0</ns3:atemp>
          </ns3:TrackPointExtension>
        </extensions>
      </trkpt>
      <trkpt lat="42.53508805297315120697021484375" lon="19.83570202253758907318115234375">
        <ele>933</ele>
        <time>2026-06-18T06:45:19.000Z</time>
        <extensions>
          <ns3:TrackPointExtension>
            <ns3:atemp>16.0</ns3:atemp>
          </ns3:TrackPointExtension>
        </extensions>
      </trkpt>
      <trkpt lat="42.53512862138450145721435546875" lon="19.8356731049716472625732421875">
        <ele>933</ele>
        <time>2026-06-18T06:45:20.000Z</time>
        <extensions>
          <ns3:TrackPointExtension>
            <ns3:atemp>16.0</ns3:atemp>
          </ns3:TrackPointExtension>
        </extensions>
      </trkpt>
      <trkpt lat="42.53516868688166141510009765625" lon="19.83564301393926143646240234375">
        <ele>932.79998779296875</ele>
        <time>2026-06-18T06:45:21.000Z</time>
        <extensions>
          <ns3:TrackPointExtension>
            <ns3:atemp>16.0</ns3:atemp>
          </ns3:TrackPointExtension>
        </extensions>
      </trkpt>
      <trkpt lat="42.53520674072206020355224609375" lon="19.83561367727816104888916015625">
        <ele>932.79998779296875</ele>
        <time>2026-06-18T06:45:22.000Z</time>
        <extensions>
          <ns3:TrackPointExtension>
            <ns3:atemp>16.0</ns3:atemp>
          </ns3:TrackPointExtension>
        </extensions>
      </trkpt>
      <trkpt lat="42.5352448783814907073974609375" lon="19.835586436092853546142578125">
        <ele>932.79998779296875</ele>
        <time>2026-06-18T06:45:23.000Z</time>
        <extensions>
          <ns3:TrackPointExtension>
            <ns3:atemp>16.0</ns3:atemp>
          </ns3:TrackPointExtension>
        </extensions>
      </trkpt>
      <trkpt lat="42.53528217785060405731201171875" lon="19.83556455932557582855224609375">
        <ele>932.79998779296875</ele>
        <time>2026-06-18T06:45:24.000Z</time>
        <extensions>
          <ns3:TrackPointExtension>
            <ns3:atemp>16.0</ns3:atemp>
          </ns3:TrackPointExtension>
        </extensions>
      </trkpt>
      <trkpt lat="42.53532257862389087677001953125" lon="19.8355420120060443878173828125">
        <ele>933</ele>
        <time>2026-06-18T06:45:25.000Z</time>
        <extensions>
          <ns3:TrackPointExtension>
            <ns3:atemp>16.0</ns3:atemp>
          </ns3:TrackPointExtension>
        </extensions>
      </trkpt>
      <trkpt lat="42.53536172211170196533203125" lon="19.8355225659906864166259765625">
        <ele>932.79998779296875</ele>
        <time>2026-06-18T06:45:26.000Z</time>
        <extensions>
          <ns3:TrackPointExtension>
            <ns3:atemp>16.0</ns3:atemp>
          </ns3:TrackPointExtension>
        </extensions>
      </trkpt>
      <trkpt lat="42.535403631627559661865234375" lon="19.83550337143242359161376953125">
        <ele>932.79998779296875</ele>
        <time>2026-06-18T06:45:27.000Z</time>
        <extensions>
          <ns3:TrackPointExtension>
            <ns3:atemp>16.0</ns3:atemp>
          </ns3:TrackPointExtension>
        </extensions>
      </trkpt>
      <trkpt lat="42.535444535315036773681640625" lon="19.83548643998801708221435546875">
        <ele>932.79998779296875</ele>
        <time>2026-06-18T06:45:28.000Z</time>
        <extensions>
          <ns3:TrackPointExtension>
            <ns3:atemp>16.0</ns3:atemp>
          </ns3:TrackPointExtension>
        </extensions>
      </trkpt>
      <trkpt lat="42.53548786975443363189697265625" lon="19.83547252602875232696533203125">
        <ele>932.79998779296875</ele>
        <time>2026-06-18T06:45:29.000Z</time>
        <extensions>
          <ns3:TrackPointExtension>
            <ns3:atemp>16.0</ns3:atemp>
          </ns3:TrackPointExtension>
        </extensions>
      </trkpt>
      <trkpt lat="42.5355305336415767669677734375" lon="19.8354598693549633026123046875">
        <ele>932.5999755859375</ele>
        <time>2026-06-18T06:45:30.000Z</time>
        <extensions>
          <ns3:TrackPointExtension>
            <ns3:atemp>16.0</ns3:atemp>
          </ns3:TrackPointExtension>
        </extensions>
      </trkpt>
      <trkpt lat="42.5355737842619419097900390625" lon="19.83544997870922088623046875">
        <ele>932.5999755859375</ele>
        <time>2026-06-18T06:45:31.000Z</time>
        <extensions>
          <ns3:TrackPointExtension>
            <ns3:atemp>16.0</ns3:atemp>
          </ns3:TrackPointExtension>
        </extensions>
      </trkpt>
      <trkpt lat="42.5356183759868144989013671875" lon="19.835440926253795623779296875">
        <ele>932.4000244140625</ele>
        <time>2026-06-18T06:45:32.000Z</time>
        <extensions>
          <ns3:TrackPointExtension>
            <ns3:atemp>16.0</ns3:atemp>
          </ns3:TrackPointExtension>
        </extensions>
      </trkpt>
      <trkpt lat="42.53566204570233821868896484375" lon="19.83543212525546550750732421875">
        <ele>932.4000244140625</ele>
        <time>2026-06-18T06:45:33.000Z</time>
        <extensions>
          <ns3:TrackPointExtension>
            <ns3:atemp>16.0</ns3:atemp>
          </ns3:TrackPointExtension>
        </extensions>
      </trkpt>
      <trkpt lat="42.53570697270333766937255859375" lon="19.83542558737099170684814453125">
        <ele>932.4000244140625</ele>
        <time>2026-06-18T06:45:34.000Z</time>
        <extensions>
          <ns3:TrackPointExtension>
            <ns3:atemp>16.0</ns3:atemp>
          </ns3:TrackPointExtension>
        </extensions>
      </trkpt>
      <trkpt lat="42.53575022332370281219482421875" lon="19.835415780544281005859375">
        <ele>932.4000244140625</ele>
        <time>2026-06-18T06:45:35.000Z</time>
        <extensions>
          <ns3:TrackPointExtension>
            <ns3:atemp>16.0</ns3:atemp>
          </ns3:TrackPointExtension>
        </extensions>
      </trkpt>
      <trkpt lat="42.535795234143733978271484375" lon="19.835404045879840850830078125">
        <ele>932.5999755859375</ele>
        <time>2026-06-18T06:45:36.000Z</time>
        <extensions>
          <ns3:TrackPointExtension>
            <ns3:atemp>16.0</ns3:atemp>
          </ns3:TrackPointExtension>
        </extensions>
      </trkpt>
      <trkpt lat="42.53583923913538455963134765625" lon="19.835390634834766387939453125">
        <ele>932.5999755859375</ele>
        <time>2026-06-18T06:45:37.000Z</time>
        <extensions>
          <ns3:TrackPointExtension>
            <ns3:atemp>16.0</ns3:atemp>
          </ns3:TrackPointExtension>
        </extensions>
      </trkpt>
      <trkpt lat="42.53588316030800342559814453125" lon="19.83537345193326473236083984375">
        <ele>932.5999755859375</ele>
        <time>2026-06-18T06:45:38.000Z</time>
        <extensions>
          <ns3:TrackPointExtension>
            <ns3:atemp>16.0</ns3:atemp>
          </ns3:TrackPointExtension>
        </extensions>
      </trkpt>
      <trkpt lat="42.53592859022319316864013671875" lon="19.83535434119403362274169921875">
        <ele>932.5999755859375</ele>
        <time>2026-06-18T06:45:39.000Z</time>
        <extensions>
          <ns3:TrackPointExtension>
            <ns3:atemp>16.0</ns3:atemp>
          </ns3:TrackPointExtension>
        </extensions>
      </trkpt>
      <trkpt lat="42.53597267903387546539306640625" lon="19.8353324644267559051513671875">
        <ele>932.79998779296875</ele>
        <time>2026-06-18T06:45:40.000Z</time>
        <extensions>
          <ns3:TrackPointExtension>
            <ns3:atemp>16.0</ns3:atemp>
          </ns3:TrackPointExtension>
        </extensions>
      </trkpt>
      <trkpt lat="42.53601676784455776214599609375" lon="19.83531075529754161834716796875">
        <ele>932.79998779296875</ele>
        <time>2026-06-18T06:45:41.000Z</time>
        <extensions>
          <ns3:TrackPointExtension>
            <ns3:atemp>16.0</ns3:atemp>
          </ns3:TrackPointExtension>
        </extensions>
      </trkpt>
      <trkpt lat="42.5360595993697643280029296875" lon="19.83528628014028072357177734375">
        <ele>932.79998779296875</ele>
        <time>2026-06-18T06:45:42.000Z</time>
        <extensions>
          <ns3:TrackPointExtension>
            <ns3:atemp>16.0</ns3:atemp>
          </ns3:TrackPointExtension>
        </extensions>
      </trkpt>
      <trkpt lat="42.5361001677811145782470703125" lon="19.83525954186916351318359375">
        <ele>932.79998779296875</ele>
        <time>2026-06-18T06:45:43.000Z</time>
        <extensions>
          <ns3:TrackPointExtension>
            <ns3:atemp>16.0</ns3:atemp>
          </ns3:TrackPointExtension>
        </extensions>
      </trkpt>
      <trkpt lat="42.53614232875406742095947265625" lon="19.83522576279938220977783203125">
        <ele>932.79998779296875</ele>
        <time>2026-06-18T06:45:44.000Z</time>
        <extensions>
          <ns3:TrackPointExtension>
            <ns3:atemp>16.0</ns3:atemp>
          </ns3:TrackPointExtension>
        </extensions>
      </trkpt>
      <trkpt lat="42.53618306480348110198974609375" lon="19.8351869545876979827880859375">
        <ele>932.79998779296875</ele>
        <time>2026-06-18T06:45:45.000Z</time>
        <extensions>
          <ns3:TrackPointExtension>
            <ns3:atemp>16.0</ns3:atemp>
          </ns3:TrackPointExtension>
        </extensions>
      </trkpt>
      <trkpt lat="42.53622413612902164459228515625" lon="19.83514663763344287872314453125">
        <ele>932.5999755859375</ele>
        <time>2026-06-18T06:45:46.000Z</time>
        <extensions>
          <ns3:TrackPointExtension>
            <ns3:atemp>16.0</ns3:atemp>
          </ns3:TrackPointExtension>
        </extensions>
      </trkpt>
      <trkpt lat="42.536264620721340179443359375" lon="19.8351051472127437591552734375">
        <ele>932.4000244140625</ele>
        <time>2026-06-18T06:45:47.000Z</time>
        <extensions>
          <ns3:TrackPointExtension>
            <ns3:atemp>16.0</ns3:atemp>
          </ns3:TrackPointExtension>
        </extensions>
      </trkpt>
      <trkpt lat="42.53630460239946842193603515625" lon="19.83505980111658573150634765625">
        <ele>932.4000244140625</ele>
        <time>2026-06-18T06:45:48.000Z</time>
        <extensions>
          <ns3:TrackPointExtension>
            <ns3:atemp>16.0</ns3:atemp>
          </ns3:TrackPointExtension>
        </extensions>
      </trkpt>
      <trkpt lat="42.5363408960402011871337890625" lon="19.83501370064914226531982421875">
        <ele>932.20001220703125</ele>
        <time>2026-06-18T06:45:49.000Z</time>
        <extensions>
          <ns3:TrackPointExtension>
            <ns3:atemp>16.0</ns3:atemp>
          </ns3:TrackPointExtension>
        </extensions>
      </trkpt>
      <trkpt lat="42.5363750942051410675048828125" lon="19.8349690251052379608154296875">
        <ele>932</ele>
        <time>2026-06-18T06:45:50.000Z</time>
        <extensions>
          <ns3:TrackPointExtension>
            <ns3:atemp>16.0</ns3:atemp>
          </ns3:TrackPointExtension>
        </extensions>
      </trkpt>
      <trkpt lat="42.53640786744654178619384765625" lon="19.834918566048145294189453125">
        <ele>932</ele>
        <time>2026-06-18T06:45:51.000Z</time>
        <extensions>
          <ns3:TrackPointExtension>
            <ns3:atemp>16.0</ns3:atemp>
          </ns3:TrackPointExtension>
        </extensions>
      </trkpt>
      <trkpt lat="42.536440975964069366455078125" lon="19.8348677717149257659912109375">
        <ele>932</ele>
        <time>2026-06-18T06:45:52.000Z</time>
        <extensions>
          <ns3:TrackPointExtension>
            <ns3:atemp>16.0</ns3:atemp>
          </ns3:TrackPointExtension>
        </extensions>
      </trkpt>
      <trkpt lat="42.5364728271961212158203125" lon="19.8348168097436428070068359375">
        <ele>932.20001220703125</ele>
        <time>2026-06-18T06:45:53.000Z</time>
        <extensions>
          <ns3:TrackPointExtension>
            <ns3:atemp>16.0</ns3:atemp>
          </ns3:TrackPointExtension>
        </extensions>
      </trkpt>
      <trkpt lat="42.536504678428173065185546875" lon="19.83476626686751842498779296875">
        <ele>932.20001220703125</ele>
        <time>2026-06-18T06:45:54.000Z</time>
        <extensions>
          <ns3:TrackPointExtension>
            <ns3:atemp>16.0</ns3:atemp>
          </ns3:TrackPointExtension>
        </extensions>
      </trkpt>
      <trkpt lat="42.536538876593112945556640625" lon="19.83471496962010860443115234375">
        <ele>932.20001220703125</ele>
        <time>2026-06-18T06:45:55.000Z</time>
        <extensions>
          <ns3:TrackPointExtension>
            <ns3:atemp>16.0</ns3:atemp>
          </ns3:TrackPointExtension>
        </extensions>
      </trkpt>
      <trkpt lat="42.53657097928225994110107421875" lon="19.83466182835400104522705078125">
        <ele>932.20001220703125</ele>
        <time>2026-06-18T06:45:56.000Z</time>
        <extensions>
          <ns3:TrackPointExtension>
            <ns3:atemp>16.0</ns3:atemp>
          </ns3:TrackPointExtension>
        </extensions>
      </trkpt>
      <trkpt lat="42.53660492599010467529296875" lon="19.8346089385449886322021484375">
        <ele>932</ele>
        <time>2026-06-18T06:45:57.000Z</time>
        <extensions>
          <ns3:TrackPointExtension>
            <ns3:atemp>16.0</ns3:atemp>
          </ns3:TrackPointExtension>
        </extensions>
      </trkpt>
      <trkpt lat="42.53664038144052028656005859375" lon="19.8345569707453250885009765625">
        <ele>932</ele>
        <time>2026-06-18T06:45:58.000Z</time>
        <extensions>
          <ns3:TrackPointExtension>
            <ns3:atemp>16.0</ns3:atemp>
          </ns3:TrackPointExtension>
        </extensions>
      </trkpt>
      <trkpt lat="42.5366781838238239288330078125" lon="19.8345060087740421295166015625">
        <ele>931.79998779296875</ele>
        <time>2026-06-18T06:45:59.000Z</time>
        <extensions>
          <ns3:TrackPointExtension>
            <ns3:atemp>16.0</ns3:atemp>
          </ns3:TrackPointExtension>
        </extensions>
      </trkpt>
      <trkpt lat="42.53671757876873016357421875" lon="19.8344580642879009246826171875">
        <ele>931.5999755859375</ele>
        <time>2026-06-18T06:46:00.000Z</time>
        <extensions>
          <ns3:TrackPointExtension>
            <ns3:atemp>16.0</ns3:atemp>
          </ns3:TrackPointExtension>
        </extensions>
      </trkpt>
      <trkpt lat="42.53675756044685840606689453125" lon="19.8344158194959163665771484375">
        <ele>931.5999755859375</ele>
        <time>2026-06-18T06:46:01.000Z</time>
        <extensions>
          <ns3:TrackPointExtension>
            <ns3:atemp>16.0</ns3:atemp>
          </ns3:TrackPointExtension>
        </extensions>
      </trkpt>
      <trkpt lat="42.53679879941046237945556640625" lon="19.8343791067600250244140625">
        <ele>931.4000244140625</ele>
        <time>2026-06-18T06:46:02.000Z</time>
        <extensions>
          <ns3:TrackPointExtension>
            <ns3:atemp>16.0</ns3:atemp>
          </ns3:TrackPointExtension>
        </extensions>
      </trkpt>
      <trkpt lat="42.53684456460177898406982421875" lon="19.83434549532830715179443359375">
        <ele>931.20001220703125</ele>
        <time>2026-06-18T06:46:03.000Z</time>
        <extensions>
          <ns3:TrackPointExtension>
            <ns3:atemp>16.0</ns3:atemp>
          </ns3:TrackPointExtension>
        </extensions>
      </trkpt>
      <trkpt lat="42.53689250908792018890380859375" lon="19.83431532047688961029052734375">
        <ele>931.20001220703125</ele>
        <time>2026-06-18T06:46:04.000Z</time>
        <extensions>
          <ns3:TrackPointExtension>
            <ns3:atemp>16.0</ns3:atemp>
          </ns3:TrackPointExtension>
        </extensions>
      </trkpt>
      <trkpt lat="42.5369427166879177093505859375" lon="19.8342910967767238616943359375">
        <ele>931</ele>
        <time>2026-06-18T06:46:05.000Z</time>
        <extensions>
          <ns3:TrackPointExtension>
            <ns3:atemp>16.0</ns3:atemp>
          </ns3:TrackPointExtension>
        </extensions>
      </trkpt>
      <trkpt lat="42.536993511021137237548828125" lon="19.834270477294921875">
        <ele>931</ele>
        <time>2026-06-18T06:46:06.000Z</time>
        <extensions>
          <ns3:TrackPointExtension>
            <ns3:atemp>16.0</ns3:atemp>
          </ns3:TrackPointExtension>
        </extensions>
      </trkpt>
      <trkpt lat="42.53704556263983249664306640625" lon="19.83425664715468883514404296875">
        <ele>931</ele>
        <time>2026-06-18T06:46:07.000Z</time>
        <extensions>
          <ns3:TrackPointExtension>
            <ns3:atemp>16.0</ns3:atemp>
          </ns3:TrackPointExtension>
        </extensions>
      </trkpt>
      <trkpt lat="42.53709970973432064056396484375" lon="19.8342481814324855804443359375">
        <ele>931</ele>
        <time>2026-06-18T06:46:08.000Z</time>
        <extensions>
          <ns3:TrackPointExtension>
            <ns3:atemp>16.0</ns3:atemp>
          </ns3:TrackPointExtension>
        </extensions>
      </trkpt>
      <trkpt lat="42.53715368919074535369873046875" lon="19.83424323610961437225341796875">
        <ele>930.79998779296875</ele>
        <time>2026-06-18T06:46:09.000Z</time>
        <extensions>
          <ns3:TrackPointExtension>
            <ns3:atemp>16.0</ns3:atemp>
          </ns3:TrackPointExtension>
        </extensions>
      </trkpt>
      <trkpt lat="42.53720498643815517425537109375" lon="19.83424206264317035675048828125">
        <ele>930.79998779296875</ele>
        <time>2026-06-18T06:46:10.000Z</time>
        <extensions>
          <ns3:TrackPointExtension>
            <ns3:atemp>16.0</ns3:atemp>
          </ns3:TrackPointExtension>
        </extensions>
      </trkpt>
      <trkpt lat="42.537255026400089263916015625" lon="19.8342434875667095184326171875">
        <ele>930.79998779296875</ele>
        <time>2026-06-18T06:46:11.000Z</time>
        <extensions>
          <ns3:TrackPointExtension>
            <ns3:atemp>16.0</ns3:atemp>
          </ns3:TrackPointExtension>
        </extensions>
      </trkpt>
      <trkpt lat="42.5373043119907379150390625" lon="19.8342505283653736114501953125">
        <ele>930.79998779296875</ele>
        <time>2026-06-18T06:46:12.000Z</time>
        <extensions>
          <ns3:TrackPointExtension>
            <ns3:atemp>16.0</ns3:atemp>
          </ns3:TrackPointExtension>
        </extensions>
      </trkpt>
      <trkpt lat="42.5373504124581813812255859375" lon="19.8342575691640377044677734375">
        <ele>930.79998779296875</ele>
        <time>2026-06-18T06:46:13.000Z</time>
        <extensions>
          <ns3:TrackPointExtension>
            <ns3:atemp>16.0</ns3:atemp>
          </ns3:TrackPointExtension>
        </extensions>
      </trkpt>
      <trkpt lat="42.537396848201751708984375" lon="19.83426268212497234344482421875">
        <ele>930.79998779296875</ele>
        <time>2026-06-18T06:46:14.000Z</time>
        <extensions>
          <ns3:TrackPointExtension>
            <ns3:atemp>16.0</ns3:atemp>
          </ns3:TrackPointExtension>
        </extensions>
      </trkpt>
      <trkpt lat="42.537444792687892913818359375" lon="19.8342716507613658905029296875">
        <ele>930.79998779296875</ele>
        <time>2026-06-18T06:46:15.000Z</time>
        <extensions>
          <ns3:TrackPointExtension>
            <ns3:atemp>16.0</ns3:atemp>
          </ns3:TrackPointExtension>
        </extensions>
      </trkpt>
      <trkpt lat="42.537493407726287841796875" lon="19.83427961356937885284423828125">
        <ele>930.79998779296875</ele>
        <time>2026-06-18T06:46:16.000Z</time>
        <extensions>
          <ns3:TrackPointExtension>
            <ns3:atemp>16.0</ns3:atemp>
          </ns3:TrackPointExtension>
        </extensions>
      </trkpt>
      <trkpt lat="42.5375421904027462005615234375" lon="19.8342874087393283843994140625">
        <ele>930.79998779296875</ele>
        <time>2026-06-18T06:46:17.000Z</time>
        <extensions>
          <ns3:TrackPointExtension>
            <ns3:atemp>16.0</ns3:atemp>
          </ns3:TrackPointExtension>
        </extensions>
      </trkpt>
      <trkpt lat="42.53759256564080715179443359375" lon="19.83429704792797565460205078125">
        <ele>930.79998779296875</ele>
        <time>2026-06-18T06:46:18.000Z</time>
        <extensions>
          <ns3:TrackPointExtension>
            <ns3:atemp>16.0</ns3:atemp>
          </ns3:TrackPointExtension>
        </extensions>
      </trkpt>
      <trkpt lat="42.537641935050487518310546875" lon="19.834307022392749786376953125">
        <ele>930.79998779296875</ele>
        <time>2026-06-18T06:46:19.000Z</time>
        <extensions>
          <ns3:TrackPointExtension>
            <ns3:atemp>16.0</ns3:atemp>
          </ns3:TrackPointExtension>
        </extensions>
      </trkpt>
      <trkpt lat="42.5376883707940578460693359375" lon="19.83431448228657245635986328125">
        <ele>930.5999755859375</ele>
        <time>2026-06-18T06:46:20.000Z</time>
        <extensions>
          <ns3:TrackPointExtension>
            <ns3:atemp>16.0</ns3:atemp>
          </ns3:TrackPointExtension>
        </extensions>
      </trkpt>
      <trkpt lat="42.5377361476421356201171875" lon="19.83432269655168056488037109375">
        <ele>930.5999755859375</ele>
        <time>2026-06-18T06:46:21.000Z</time>
        <extensions>
          <ns3:TrackPointExtension>
            <ns3:atemp>16.0</ns3:atemp>
          </ns3:TrackPointExtension>
        </extensions>
      </trkpt>
      <trkpt lat="42.53778249956667423248291015625" lon="19.8343309946358203887939453125">
        <ele>930.5999755859375</ele>
        <time>2026-06-18T06:46:22.000Z</time>
        <extensions>
          <ns3:TrackPointExtension>
            <ns3:atemp>16.0</ns3:atemp>
          </ns3:TrackPointExtension>
        </extensions>
      </trkpt>
      <trkpt lat="42.5378295220434665679931640625" lon="19.83433828689157962799072265625">
        <ele>930.5999755859375</ele>
        <time>2026-06-18T06:46:23.000Z</time>
        <extensions>
          <ns3:TrackPointExtension>
            <ns3:atemp>16.0</ns3:atemp>
          </ns3:TrackPointExtension>
        </extensions>
      </trkpt>
      <trkpt lat="42.5378751195967197418212890625" lon="19.83434851281344890594482421875">
        <ele>930.5999755859375</ele>
        <time>2026-06-18T06:46:24.000Z</time>
        <extensions>
          <ns3:TrackPointExtension>
            <ns3:atemp>16.0</ns3:atemp>
          </ns3:TrackPointExtension>
        </extensions>
      </trkpt>
      <trkpt lat="42.53792013041675090789794921875" lon="19.83435706235468387603759765625">
        <ele>930.5999755859375</ele>
        <time>2026-06-18T06:46:25.000Z</time>
        <extensions>
          <ns3:TrackPointExtension>
            <ns3:atemp>16.0</ns3:atemp>
          </ns3:TrackPointExtension>
        </extensions>
      </trkpt>
      <trkpt lat="42.537965476512908935546875" lon="19.8343658633530139923095703125">
        <ele>930.5999755859375</ele>
        <time>2026-06-18T06:46:26.000Z</time>
        <extensions>
          <ns3:TrackPointExtension>
            <ns3:atemp>16.0</ns3:atemp>
          </ns3:TrackPointExtension>
        </extensions>
      </trkpt>
      <trkpt lat="42.53801199607551097869873046875" lon="19.83437533490359783172607421875">
        <ele>930.5999755859375</ele>
        <time>2026-06-18T06:46:27.000Z</time>
        <extensions>
          <ns3:TrackPointExtension>
            <ns3:atemp>16.0</ns3:atemp>
          </ns3:TrackPointExtension>
        </extensions>
      </trkpt>
      <trkpt lat="42.538056336343288421630859375" lon="19.83438187278807163238525390625">
        <ele>930.4000244140625</ele>
        <time>2026-06-18T06:46:28.000Z</time>
        <extensions>
          <ns3:TrackPointExtension>
            <ns3:atemp>16.0</ns3:atemp>
          </ns3:TrackPointExtension>
        </extensions>
      </trkpt>
      <trkpt lat="42.5381004251539707183837890625" lon="19.8343873210251331329345703125">
        <ele>930.4000244140625</ele>
        <time>2026-06-18T06:46:29.000Z</time>
        <extensions>
          <ns3:TrackPointExtension>
            <ns3:atemp>16.0</ns3:atemp>
          </ns3:TrackPointExtension>
        </extensions>
      </trkpt>
      <trkpt lat="42.5381456874310970306396484375" lon="19.8343950323760509490966796875">
        <ele>930.4000244140625</ele>
        <time>2026-06-18T06:46:30.000Z</time>
        <extensions>
          <ns3:TrackPointExtension>
            <ns3:atemp>16.0</ns3:atemp>
          </ns3:TrackPointExtension>
        </extensions>
      </trkpt>
      <trkpt lat="42.538190782070159912109375" lon="19.8344032466411590576171875">
        <ele>930.4000244140625</ele>
        <time>2026-06-18T06:46:31.000Z</time>
        <extensions>
          <ns3:TrackPointExtension>
            <ns3:atemp>16.0</ns3:atemp>
          </ns3:TrackPointExtension>
        </extensions>
      </trkpt>
      <trkpt lat="42.538235373795032501220703125" lon="19.8344114609062671661376953125">
        <ele>930.4000244140625</ele>
        <time>2026-06-18T06:46:32.000Z</time>
        <extensions>
          <ns3:TrackPointExtension>
            <ns3:atemp>16.0</ns3:atemp>
          </ns3:TrackPointExtension>
        </extensions>
      </trkpt>
      <trkpt lat="42.5382814742624759674072265625" lon="19.8344181664288043975830078125">
        <ele>930.4000244140625</ele>
        <time>2026-06-18T06:46:33.000Z</time>
        <extensions>
          <ns3:TrackPointExtension>
            <ns3:atemp>16.0</ns3:atemp>
          </ns3:TrackPointExtension>
        </extensions>
      </trkpt>
      <trkpt lat="42.5383260659873485565185546875" lon="19.83442537486553192138671875">
        <ele>930.4000244140625</ele>
        <time>2026-06-18T06:46:34.000Z</time>
        <extensions>
          <ns3:TrackPointExtension>
            <ns3:atemp>16.0</ns3:atemp>
          </ns3:TrackPointExtension>
        </extensions>
      </trkpt>
      <trkpt lat="42.53837007097899913787841796875" lon="19.83443132601678371429443359375">
        <ele>930.4000244140625</ele>
        <time>2026-06-18T06:46:35.000Z</time>
        <extensions>
          <ns3:TrackPointExtension>
            <ns3:atemp>16.0</ns3:atemp>
          </ns3:TrackPointExtension>
        </extensions>
      </trkpt>
      <trkpt lat="42.53841449506580829620361328125" lon="19.83443652279675006866455078125">
        <ele>930.5999755859375</ele>
        <time>2026-06-18T06:46:36.000Z</time>
        <extensions>
          <ns3:TrackPointExtension>
            <ns3:atemp>16.0</ns3:atemp>
          </ns3:TrackPointExtension>
        </extensions>
      </trkpt>
      <trkpt lat="42.538459338247776031494140625" lon="19.83443954028189182281494140625">
        <ele>930.5999755859375</ele>
        <time>2026-06-18T06:46:37.000Z</time>
        <extensions>
          <ns3:TrackPointExtension>
            <ns3:atemp>16.0</ns3:atemp>
          </ns3:TrackPointExtension>
        </extensions>
      </trkpt>
      <trkpt lat="42.5385057739913463592529296875" lon="19.8344436474144458770751953125">
        <ele>930.5999755859375</ele>
        <time>2026-06-18T06:46:38.000Z</time>
        <extensions>
          <ns3:TrackPointExtension>
            <ns3:atemp>16.0</ns3:atemp>
          </ns3:TrackPointExtension>
        </extensions>
      </trkpt>
      <trkpt lat="42.5385517068207263946533203125" lon="19.834445156157016754150390625">
        <ele>930.5999755859375</ele>
        <time>2026-06-18T06:46:39.000Z</time>
        <extensions>
          <ns3:TrackPointExtension>
            <ns3:atemp>16.0</ns3:atemp>
          </ns3:TrackPointExtension>
        </extensions>
      </trkpt>
      <trkpt lat="42.53859856165945529937744140625" lon="19.8344419710338115692138671875">
        <ele>930.5999755859375</ele>
        <time>2026-06-18T06:46:40.000Z</time>
        <extensions>
          <ns3:TrackPointExtension>
            <ns3:atemp>16.0</ns3:atemp>
          </ns3:TrackPointExtension>
        </extensions>
      </trkpt>
      <trkpt lat="42.538643740117549896240234375" lon="19.83443769626319408416748046875">
        <ele>930.5999755859375</ele>
        <time>2026-06-18T06:46:41.000Z</time>
        <extensions>
          <ns3:TrackPointExtension>
            <ns3:atemp>16.0</ns3:atemp>
          </ns3:TrackPointExtension>
        </extensions>
      </trkpt>
      <trkpt lat="42.53868925385177135467529296875" lon="19.8344314098358154296875">
        <ele>930.4000244140625</ele>
        <time>2026-06-18T06:46:42.000Z</time>
        <extensions>
          <ns3:TrackPointExtension>
            <ns3:atemp>16.0</ns3:atemp>
          </ns3:TrackPointExtension>
        </extensions>
      </trkpt>
      <trkpt lat="42.53873552195727825164794921875" lon="19.83442260883748531341552734375">
        <ele>930.4000244140625</ele>
        <time>2026-06-18T06:46:43.000Z</time>
        <extensions>
          <ns3:TrackPointExtension>
            <ns3:atemp>16.0</ns3:atemp>
          </ns3:TrackPointExtension>
        </extensions>
      </trkpt>
      <trkpt lat="42.53877927549183368682861328125" lon="19.8344086110591888427734375">
        <ele>930.4000244140625</ele>
        <time>2026-06-18T06:46:44.000Z</time>
        <extensions>
          <ns3:TrackPointExtension>
            <ns3:atemp>16.0</ns3:atemp>
          </ns3:TrackPointExtension>
        </extensions>
      </trkpt>
      <trkpt lat="42.5388222746551036834716796875" lon="19.8343913443386554718017578125">
        <ele>930.4000244140625</ele>
        <time>2026-06-18T06:46:45.000Z</time>
        <extensions>
          <ns3:TrackPointExtension>
            <ns3:atemp>16.0</ns3:atemp>
          </ns3:TrackPointExtension>
        </extensions>
      </trkpt>
      <trkpt lat="42.53886510618031024932861328125" lon="19.8343712277710437774658203125">
        <ele>930.4000244140625</ele>
        <time>2026-06-18T06:46:46.000Z</time>
        <extensions>
          <ns3:TrackPointExtension>
            <ns3:atemp>16.0</ns3:atemp>
          </ns3:TrackPointExtension>
        </extensions>
      </trkpt>
      <trkpt lat="42.53890760242938995361328125" lon="19.8343430645763874053955078125">
        <ele>930.4000244140625</ele>
        <time>2026-06-18T06:46:47.000Z</time>
        <extensions>
          <ns3:TrackPointExtension>
            <ns3:atemp>16.0</ns3:atemp>
          </ns3:TrackPointExtension>
        </extensions>
      </trkpt>
      <trkpt lat="42.53894875757396221160888671875" lon="19.83431397937238216400146484375">
        <ele>930.4000244140625</ele>
        <time>2026-06-18T06:46:48.000Z</time>
        <extensions>
          <ns3:TrackPointExtension>
            <ns3:atemp>16.0</ns3:atemp>
          </ns3:TrackPointExtension>
        </extensions>
      </trkpt>
      <trkpt lat="42.5389865599572658538818359375" lon="19.83427961356937885284423828125">
        <ele>930.20001220703125</ele>
        <time>2026-06-18T06:46:49.000Z</time>
        <extensions>
          <ns3:TrackPointExtension>
            <ns3:atemp>16.0</ns3:atemp>
          </ns3:TrackPointExtension>
        </extensions>
      </trkpt>
      <trkpt lat="42.53902436234056949615478515625" lon="19.8342423141002655029296875">
        <ele>930.20001220703125</ele>
        <time>2026-06-18T06:46:50.000Z</time>
        <extensions>
          <ns3:TrackPointExtension>
            <ns3:atemp>16.0</ns3:atemp>
          </ns3:TrackPointExtension>
        </extensions>
      </trkpt>
      <trkpt lat="42.5390616618096828460693359375" lon="19.8341968841850757598876953125">
        <ele>930.20001220703125</ele>
        <time>2026-06-18T06:46:51.000Z</time>
        <extensions>
          <ns3:TrackPointExtension>
            <ns3:atemp>16.0</ns3:atemp>
          </ns3:TrackPointExtension>
        </extensions>
      </trkpt>
      <trkpt lat="42.53909694962203502655029296875" lon="19.8341563157737255096435546875">
        <ele>930.20001220703125</ele>
        <time>2026-06-18T06:46:52.000Z</time>
        <extensions>
          <ns3:TrackPointExtension>
            <ns3:atemp>16.0</ns3:atemp>
          </ns3:TrackPointExtension>
        </extensions>
      </trkpt>
      <trkpt lat="42.53912980668246746063232421875" lon="19.8341154120862483978271484375">
        <ele>930.20001220703125</ele>
        <time>2026-06-18T06:46:53.000Z</time>
        <extensions>
          <ns3:TrackPointExtension>
            <ns3:atemp>16.0</ns3:atemp>
          </ns3:TrackPointExtension>
        </extensions>
      </trkpt>
      <trkpt lat="42.539163418114185333251953125" lon="19.83407425694167613983154296875">
        <ele>930.20001220703125</ele>
        <time>2026-06-18T06:46:54.000Z</time>
        <extensions>
          <ns3:TrackPointExtension>
            <ns3:atemp>16.0</ns3:atemp>
          </ns3:TrackPointExtension>
        </extensions>
      </trkpt>
      <trkpt lat="42.5391979515552520751953125" lon="19.83403385616838932037353515625">
        <ele>930.20001220703125</ele>
        <time>2026-06-18T06:46:55.000Z</time>
        <extensions>
          <ns3:TrackPointExtension>
            <ns3:atemp>16.0</ns3:atemp>
          </ns3:TrackPointExtension>
        </extensions>
      </trkpt>
      <trkpt lat="42.5392336584627628326416015625" lon="19.83398909680545330047607421875">
        <ele>930.20001220703125</ele>
        <time>2026-06-18T06:46:56.000Z</time>
        <extensions>
          <ns3:TrackPointExtension>
            <ns3:atemp>16.0</ns3:atemp>
          </ns3:TrackPointExtension>
        </extensions>
      </trkpt>
      <trkpt lat="42.53926894627511501312255859375" lon="19.83394718728959560394287109375">
        <ele>930</ele>
        <time>2026-06-18T06:46:57.000Z</time>
        <extensions>
          <ns3:TrackPointExtension>
            <ns3:atemp>16.0</ns3:atemp>
          </ns3:TrackPointExtension>
        </extensions>
      </trkpt>
      <trkpt lat="42.53930767066776752471923828125" lon="19.83391097746789455413818359375">
        <ele>930</ele>
        <time>2026-06-18T06:46:58.000Z</time>
        <extensions>
          <ns3:TrackPointExtension>
            <ns3:atemp>16.0</ns3:atemp>
          </ns3:TrackPointExtension>
        </extensions>
      </trkpt>
      <trkpt lat="42.53934614360332489013671875" lon="19.83387686312198638916015625">
        <ele>929.79998779296875</ele>
        <time>2026-06-18T06:46:59.000Z</time>
        <extensions>
          <ns3:TrackPointExtension>
            <ns3:atemp>16.0</ns3:atemp>
          </ns3:TrackPointExtension>
        </extensions>
      </trkpt>
      <trkpt lat="42.5393872149288654327392578125" lon="19.83384241349995136260986328125">
        <ele>929.79998779296875</ele>
        <time>2026-06-18T06:47:00.000Z</time>
        <extensions>
          <ns3:TrackPointExtension>
            <ns3:atemp>16.0</ns3:atemp>
          </ns3:TrackPointExtension>
        </extensions>
      </trkpt>
      <trkpt lat="42.539427615702152252197265625" lon="19.83381173573434352874755859375">
        <ele>929.79998779296875</ele>
        <time>2026-06-18T06:47:01.000Z</time>
        <extensions>
          <ns3:TrackPointExtension>
            <ns3:atemp>16.0</ns3:atemp>
          </ns3:TrackPointExtension>
        </extensions>
      </trkpt>
      <trkpt lat="42.53946960903704166412353515625" lon="19.8337836563587188720703125">
        <ele>929.79998779296875</ele>
        <time>2026-06-18T06:47:02.000Z</time>
        <extensions>
          <ns3:TrackPointExtension>
            <ns3:atemp>16.0</ns3:atemp>
          </ns3:TrackPointExtension>
        </extensions>
      </trkpt>
      <trkpt lat="42.53951369784772396087646484375" lon="19.83375742100179195404052734375">
        <ele>930</ele>
        <time>2026-06-18T06:47:03.000Z</time>
        <extensions>
          <ns3:TrackPointExtension>
            <ns3:atemp>16.0</ns3:atemp>
          </ns3:TrackPointExtension>
        </extensions>
      </trkpt>
      <trkpt lat="42.5395605526864528656005859375" lon="19.83373663388192653656005859375">
        <ele>930</ele>
        <time>2026-06-18T06:47:04.000Z</time>
        <extensions>
          <ns3:TrackPointExtension>
            <ns3:atemp>16.0</ns3:atemp>
          </ns3:TrackPointExtension>
        </extensions>
      </trkpt>
      <trkpt lat="42.539605312049388885498046875" lon="19.83371987007558345794677734375">
        <ele>930</ele>
        <time>2026-06-18T06:47:05.000Z</time>
        <extensions>
          <ns3:TrackPointExtension>
            <ns3:atemp>16.0</ns3:atemp>
          </ns3:TrackPointExtension>
        </extensions>
      </trkpt>
      <trkpt lat="42.53965015523135662078857421875" lon="19.83370679430663585662841796875">
        <ele>930.20001220703125</ele>
        <time>2026-06-18T06:47:06.000Z</time>
        <extensions>
          <ns3:TrackPointExtension>
            <ns3:atemp>16.0</ns3:atemp>
          </ns3:TrackPointExtension>
        </extensions>
      </trkpt>
      <trkpt lat="42.53969491459429264068603515625" lon="19.8336939699947834014892578125">
        <ele>930.20001220703125</ele>
        <time>2026-06-18T06:47:07.000Z</time>
        <extensions>
          <ns3:TrackPointExtension>
            <ns3:atemp>16.0</ns3:atemp>
          </ns3:TrackPointExtension>
        </extensions>
      </trkpt>
      <trkpt lat="42.53973866812884807586669921875" lon="19.83368215151131153106689453125">
        <ele>930.20001220703125</ele>
        <time>2026-06-18T06:47:08.000Z</time>
        <extensions>
          <ns3:TrackPointExtension>
            <ns3:atemp>16.0</ns3:atemp>
          </ns3:TrackPointExtension>
        </extensions>
      </trkpt>
      <trkpt lat="42.53978191874921321868896484375" lon="19.83367142267525196075439453125">
        <ele>930.4000244140625</ele>
        <time>2026-06-18T06:47:09.000Z</time>
        <extensions>
          <ns3:TrackPointExtension>
            <ns3:atemp>16.0</ns3:atemp>
          </ns3:TrackPointExtension>
        </extensions>
      </trkpt>
      <trkpt lat="42.5398264266550540924072265625" lon="19.8336648009717464447021484375">
        <ele>930.5999755859375</ele>
        <time>2026-06-18T06:47:10.000Z</time>
        <extensions>
          <ns3:TrackPointExtension>
            <ns3:atemp>16.0</ns3:atemp>
          </ns3:TrackPointExtension>
        </extensions>
      </trkpt>
      <trkpt lat="42.53987009637057781219482421875" lon="19.833659268915653228759765625">
        <ele>930.5999755859375</ele>
        <time>2026-06-18T06:47:11.000Z</time>
        <extensions>
          <ns3:TrackPointExtension>
            <ns3:atemp>16.0</ns3:atemp>
          </ns3:TrackPointExtension>
        </extensions>
      </trkpt>
      <trkpt lat="42.5399125926196575164794921875" lon="19.8336527310311794281005859375">
        <ele>930.79998779296875</ele>
        <time>2026-06-18T06:47:12.000Z</time>
        <extensions>
          <ns3:TrackPointExtension>
            <ns3:atemp>16.0</ns3:atemp>
          </ns3:TrackPointExtension>
        </extensions>
      </trkpt>
      <trkpt lat="42.53995358012616634368896484375" lon="19.833649210631847381591796875">
        <ele>930.79998779296875</ele>
        <time>2026-06-18T06:47:13.000Z</time>
        <extensions>
          <ns3:TrackPointExtension>
            <ns3:atemp>16.0</ns3:atemp>
          </ns3:TrackPointExtension>
        </extensions>
      </trkpt>
      <trkpt lat="42.539992891252040863037109375" lon="19.833647198975086212158203125">
        <ele>931</ele>
        <time>2026-06-18T06:47:14.000Z</time>
        <extensions>
          <ns3:TrackPointExtension>
            <ns3:atemp>16.0</ns3:atemp>
          </ns3:TrackPointExtension>
        </extensions>
      </trkpt>
      <trkpt lat="42.5400336273014545440673828125" lon="19.83364594168961048126220703125">
        <ele>931</ele>
        <time>2026-06-18T06:47:15.000Z</time>
        <extensions>
          <ns3:TrackPointExtension>
            <ns3:atemp>16.0</ns3:atemp>
          </ns3:TrackPointExtension>
        </extensions>
      </trkpt>
      <trkpt lat="42.54007277078926563262939453125" lon="19.83364694751799106597900390625">
        <ele>931.20001220703125</ele>
        <time>2026-06-18T06:47:16.000Z</time>
        <extensions>
          <ns3:TrackPointExtension>
            <ns3:atemp>16.0</ns3:atemp>
          </ns3:TrackPointExtension>
        </extensions>
      </trkpt>
      <trkpt lat="42.540110908448696136474609375" lon="19.8336456902325153350830078125">
        <ele>931.20001220703125</ele>
        <time>2026-06-18T06:47:17.000Z</time>
        <extensions>
          <ns3:TrackPointExtension>
            <ns3:atemp>16.0</ns3:atemp>
          </ns3:TrackPointExtension>
        </extensions>
      </trkpt>
      <trkpt lat="42.54014720208942890167236328125" lon="19.83364284038543701171875">
        <ele>931.20001220703125</ele>
        <time>2026-06-18T06:47:18.000Z</time>
        <extensions>
          <ns3:TrackPointExtension>
            <ns3:atemp>16.0</ns3:atemp>
          </ns3:TrackPointExtension>
        </extensions>
      </trkpt>
      <trkpt lat="42.54018207080662250518798828125" lon="19.833640158176422119140625">
        <ele>931.4000244140625</ele>
        <time>2026-06-18T06:47:19.000Z</time>
        <extensions>
          <ns3:TrackPointExtension>
            <ns3:atemp>16.0</ns3:atemp>
          </ns3:TrackPointExtension>
        </extensions>
      </trkpt>
      <trkpt lat="42.54021727479994297027587890625" lon="19.833639152348041534423828125">
        <ele>931.4000244140625</ele>
        <time>2026-06-18T06:47:20.000Z</time>
        <extensions>
          <ns3:TrackPointExtension>
            <ns3:atemp>16.0</ns3:atemp>
          </ns3:TrackPointExtension>
        </extensions>
      </trkpt>
      <trkpt lat="42.54025281406939029693603515625" lon="19.83363454230129718780517578125">
        <ele>931.4000244140625</ele>
        <time>2026-06-18T06:47:21.000Z</time>
        <extensions>
          <ns3:TrackPointExtension>
            <ns3:atemp>16.0</ns3:atemp>
          </ns3:TrackPointExtension>
        </extensions>
      </trkpt>
      <trkpt lat="42.5402897782623767852783203125" lon="19.8336259089410305023193359375">
        <ele>931.5999755859375</ele>
        <time>2026-06-18T06:47:22.000Z</time>
        <extensions>
          <ns3:TrackPointExtension>
            <ns3:atemp>16.0</ns3:atemp>
          </ns3:TrackPointExtension>
        </extensions>
      </trkpt>
      <trkpt lat="42.540327496826648712158203125" lon="19.8336173593997955322265625">
        <ele>931.5999755859375</ele>
        <time>2026-06-18T06:47:23.000Z</time>
        <extensions>
          <ns3:TrackPointExtension>
            <ns3:atemp>16.0</ns3:atemp>
          </ns3:TrackPointExtension>
        </extensions>
      </trkpt>
      <trkpt lat="42.5403675623238086700439453125" lon="19.83361476100981235504150390625">
        <ele>931.5999755859375</ele>
        <time>2026-06-18T06:47:24.000Z</time>
        <extensions>
          <ns3:TrackPointExtension>
            <ns3:atemp>16.0</ns3:atemp>
          </ns3:TrackPointExtension>
        </extensions>
      </trkpt>
      <trkpt lat="42.540407963097095489501953125" lon="19.833608977496623992919921875">
        <ele>931.79998779296875</ele>
        <time>2026-06-18T06:47:25.000Z</time>
        <extensions>
          <ns3:TrackPointExtension>
            <ns3:atemp>16.0</ns3:atemp>
          </ns3:TrackPointExtension>
        </extensions>
      </trkpt>
      <trkpt lat="42.5404497049748897552490234375" lon="19.833603613078594207763671875">
        <ele>931.79998779296875</ele>
        <time>2026-06-18T06:47:26.000Z</time>
        <extensions>
          <ns3:TrackPointExtension>
            <ns3:atemp>16.0</ns3:atemp>
          </ns3:TrackPointExtension>
        </extensions>
      </trkpt>
      <trkpt lat="42.54049278795719146728515625" lon="19.83360059559345245361328125">
        <ele>931.79998779296875</ele>
        <time>2026-06-18T06:47:27.000Z</time>
        <extensions>
          <ns3:TrackPointExtension>
            <ns3:atemp>16.0</ns3:atemp>
          </ns3:TrackPointExtension>
        </extensions>
      </trkpt>
      <trkpt lat="42.5405363738536834716796875" lon="19.83359095640480518341064453125">
        <ele>931.79998779296875</ele>
        <time>2026-06-18T06:47:28.000Z</time>
        <extensions>
          <ns3:TrackPointExtension>
            <ns3:atemp>16.0</ns3:atemp>
          </ns3:TrackPointExtension>
        </extensions>
      </trkpt>
      <trkpt lat="42.54058272577822208404541015625" lon="19.833577461540699005126953125">
        <ele>931.79998779296875</ele>
        <time>2026-06-18T06:47:29.000Z</time>
        <extensions>
          <ns3:TrackPointExtension>
            <ns3:atemp>16.0</ns3:atemp>
          </ns3:TrackPointExtension>
        </extensions>
      </trkpt>
      <trkpt lat="42.5406320951879024505615234375" lon="19.83356346376240253448486328125">
        <ele>931.79998779296875</ele>
        <time>2026-06-18T06:47:30.000Z</time>
        <extensions>
          <ns3:TrackPointExtension>
            <ns3:atemp>16.0</ns3:atemp>
          </ns3:TrackPointExtension>
        </extensions>
      </trkpt>
      <trkpt lat="42.540679536759853363037109375" lon="19.83354971744120121002197265625">
        <ele>932</ele>
        <time>2026-06-18T06:47:31.000Z</time>
        <extensions>
          <ns3:TrackPointExtension>
            <ns3:atemp>16.0</ns3:atemp>
          </ns3:TrackPointExtension>
        </extensions>
      </trkpt>
      <trkpt lat="42.5407256372272968292236328125" lon="19.83353496529161930084228515625">
        <ele>932</ele>
        <time>2026-06-18T06:47:32.000Z</time>
        <extensions>
          <ns3:TrackPointExtension>
            <ns3:atemp>16.0</ns3:atemp>
          </ns3:TrackPointExtension>
        </extensions>
      </trkpt>
      <trkpt lat="42.54077173769474029541015625" lon="19.83351769857108592987060546875">
        <ele>932</ele>
        <time>2026-06-18T06:47:33.000Z</time>
        <extensions>
          <ns3:TrackPointExtension>
            <ns3:atemp>16.0</ns3:atemp>
          </ns3:TrackPointExtension>
        </extensions>
      </trkpt>
      <trkpt lat="42.54081867635250091552734375" lon="19.8334964923560619354248046875">
        <ele>932</ele>
        <time>2026-06-18T06:47:34.000Z</time>
        <extensions>
          <ns3:TrackPointExtension>
            <ns3:atemp>16.0</ns3:atemp>
          </ns3:TrackPointExtension>
        </extensions>
      </trkpt>
      <trkpt lat="42.54086888395249843597412109375" lon="19.83347930945456027984619140625">
        <ele>932</ele>
        <time>2026-06-18T06:47:35.000Z</time>
        <extensions>
          <ns3:TrackPointExtension>
            <ns3:atemp>16.0</ns3:atemp>
          </ns3:TrackPointExtension>
        </extensions>
      </trkpt>
      <trkpt lat="42.54092303104698657989501953125" lon="19.8334552533924579620361328125">
        <ele>931.79998779296875</ele>
        <time>2026-06-18T06:47:36.000Z</time>
        <extensions>
          <ns3:TrackPointExtension>
            <ns3:atemp>16.0</ns3:atemp>
          </ns3:TrackPointExtension>
        </extensions>
      </trkpt>
      <trkpt lat="42.54097826778888702392578125" lon="19.83343186788260936737060546875">
        <ele>931.79998779296875</ele>
        <time>2026-06-18T06:47:37.000Z</time>
        <extensions>
          <ns3:TrackPointExtension>
            <ns3:atemp>16.0</ns3:atemp>
          </ns3:TrackPointExtension>
        </extensions>
      </trkpt>
      <trkpt lat="42.541035600006580352783203125" lon="19.83340420760214328765869140625">
        <ele>931.5999755859375</ele>
        <time>2026-06-18T06:47:38.000Z</time>
        <extensions>
          <ns3:TrackPointExtension>
            <ns3:atemp>16.0</ns3:atemp>
          </ns3:TrackPointExtension>
        </extensions>
      </trkpt>
      <trkpt lat="42.541092596948146820068359375" lon="19.8333791457116603851318359375">
        <ele>931.4000244140625</ele>
        <time>2026-06-18T06:47:39.000Z</time>
        <extensions>
          <ns3:TrackPointExtension>
            <ns3:atemp>16.0</ns3:atemp>
          </ns3:TrackPointExtension>
        </extensions>
      </trkpt>
      <trkpt lat="42.54114749841392040252685546875" lon="19.83335508964955806732177734375">
        <ele>931.20001220703125</ele>
        <time>2026-06-18T06:47:40.000Z</time>
        <extensions>
          <ns3:TrackPointExtension>
            <ns3:atemp>16.0</ns3:atemp>
          </ns3:TrackPointExtension>
        </extensions>
      </trkpt>
      <trkpt lat="42.54120231606066226959228515625" lon="19.83332826755940914154052734375">
        <ele>931</ele>
        <time>2026-06-18T06:47:41.000Z</time>
        <extensions>
          <ns3:TrackPointExtension>
            <ns3:atemp>16.0</ns3:atemp>
          </ns3:TrackPointExtension>
        </extensions>
      </trkpt>
      <trkpt lat="42.5412580557167530059814453125" lon="19.833306558430194854736328125">
        <ele>931</ele>
        <time>2026-06-18T06:47:42.000Z</time>
        <extensions>
          <ns3:TrackPointExtension>
            <ns3:atemp>16.0</ns3:atemp>
          </ns3:TrackPointExtension>
        </extensions>
      </trkpt>
      <trkpt lat="42.5413120351731777191162109375" lon="19.83328501693904399871826171875">
        <ele>930.79998779296875</ele>
        <time>2026-06-18T06:47:43.000Z</time>
        <extensions>
          <ns3:TrackPointExtension>
            <ns3:atemp>16.0</ns3:atemp>
          </ns3:TrackPointExtension>
        </extensions>
      </trkpt>
      <trkpt lat="42.5413651764392852783203125" lon="19.83326003886759281158447265625">
        <ele>930.79998779296875</ele>
        <time>2026-06-18T06:47:44.000Z</time>
        <extensions>
          <ns3:TrackPointExtension>
            <ns3:atemp>16.0</ns3:atemp>
          </ns3:TrackPointExtension>
        </extensions>
      </trkpt>
      <trkpt lat="42.54141706041991710662841796875" lon="19.83323120512068271636962890625">
        <ele>930.5999755859375</ele>
        <time>2026-06-18T06:47:45.000Z</time>
        <extensions>
          <ns3:TrackPointExtension>
            <ns3:atemp>16.0</ns3:atemp>
          </ns3:TrackPointExtension>
        </extensions>
      </trkpt>
      <trkpt lat="42.5414655916392803192138671875" lon="19.83319968916475772857666015625">
        <ele>930.5999755859375</ele>
        <time>2026-06-18T06:47:46.000Z</time>
        <extensions>
          <ns3:TrackPointExtension>
            <ns3:atemp>16.0</ns3:atemp>
          </ns3:TrackPointExtension>
        </extensions>
      </trkpt>
      <trkpt lat="42.5415142066776752471923828125" lon="19.83316741883754730224609375">
        <ele>930.5999755859375</ele>
        <time>2026-06-18T06:47:47.000Z</time>
        <extensions>
          <ns3:TrackPointExtension>
            <ns3:atemp>16.0</ns3:atemp>
          </ns3:TrackPointExtension>
        </extensions>
      </trkpt>
      <trkpt lat="42.5415631569921970367431640625" lon="19.83313389122486114501953125">
        <ele>930.4000244140625</ele>
        <time>2026-06-18T06:47:48.000Z</time>
        <extensions>
          <ns3:TrackPointExtension>
            <ns3:atemp>16.0</ns3:atemp>
          </ns3:TrackPointExtension>
        </extensions>
      </trkpt>
      <trkpt lat="42.54161185584962368011474609375" lon="19.833098687231540679931640625">
        <ele>930.4000244140625</ele>
        <time>2026-06-18T06:47:49.000Z</time>
        <extensions>
          <ns3:TrackPointExtension>
            <ns3:atemp>16.0</ns3:atemp>
          </ns3:TrackPointExtension>
        </extensions>
      </trkpt>
      <trkpt lat="42.5416600517928600311279296875" lon="19.83306281268596649169921875">
        <ele>930.20001220703125</ele>
        <time>2026-06-18T06:47:50.000Z</time>
        <extensions>
          <ns3:TrackPointExtension>
            <ns3:atemp>16.0</ns3:atemp>
          </ns3:TrackPointExtension>
        </extensions>
      </trkpt>
      <trkpt lat="42.54170808009803295135498046875" lon="19.8330277763307094573974609375">
        <ele>930.20001220703125</ele>
        <time>2026-06-18T06:47:51.000Z</time>
        <extensions>
          <ns3:TrackPointExtension>
            <ns3:atemp>16.0</ns3:atemp>
          </ns3:TrackPointExtension>
        </extensions>
      </trkpt>
      <trkpt lat="42.5417559407651424407958984375" lon="19.832991063594818115234375">
        <ele>930</ele>
        <time>2026-06-18T06:47:52.000Z</time>
        <extensions>
          <ns3:TrackPointExtension>
            <ns3:atemp>16.0</ns3:atemp>
          </ns3:TrackPointExtension>
        </extensions>
      </trkpt>
      <trkpt lat="42.54180447198450565338134765625" lon="19.832951836287975311279296875">
        <ele>930</ele>
        <time>2026-06-18T06:47:53.000Z</time>
        <extensions>
          <ns3:TrackPointExtension>
            <ns3:atemp>16.0</ns3:atemp>
          </ns3:TrackPointExtension>
        </extensions>
      </trkpt>
      <trkpt lat="42.54185342229902744293212890625" lon="19.83291386626660823822021484375">
        <ele>929.79998779296875</ele>
        <time>2026-06-18T06:47:54.000Z</time>
        <extensions>
          <ns3:TrackPointExtension>
            <ns3:atemp>16.0</ns3:atemp>
          </ns3:TrackPointExtension>
        </extensions>
      </trkpt>
      <trkpt lat="42.54190304316580295562744140625" lon="19.8328779079020023345947265625">
        <ele>929.79998779296875</ele>
        <time>2026-06-18T06:47:55.000Z</time>
        <extensions>
          <ns3:TrackPointExtension>
            <ns3:atemp>16.0</ns3:atemp>
          </ns3:TrackPointExtension>
        </extensions>
      </trkpt>
      <trkpt lat="42.5419530831277370452880859375" lon="19.8328422009944915771484375">
        <ele>929.5999755859375</ele>
        <time>2026-06-18T06:47:56.000Z</time>
        <extensions>
          <ns3:TrackPointExtension>
            <ns3:atemp>16.0</ns3:atemp>
          </ns3:TrackPointExtension>
        </extensions>
      </trkpt>
      <trkpt lat="42.542003877460956573486328125" lon="19.8328034766018390655517578125">
        <ele>929.5999755859375</ele>
        <time>2026-06-18T06:47:57.000Z</time>
        <extensions>
          <ns3:TrackPointExtension>
            <ns3:atemp>16.0</ns3:atemp>
          </ns3:TrackPointExtension>
        </extensions>
      </trkpt>
      <trkpt lat="42.54205525852739810943603515625" lon="19.83276844024658203125">
        <ele>929.4000244140625</ele>
        <time>2026-06-18T06:47:58.000Z</time>
        <extensions>
          <ns3:TrackPointExtension>
            <ns3:atemp>16.0</ns3:atemp>
          </ns3:TrackPointExtension>
        </extensions>
      </trkpt>
      <trkpt lat="42.54210705868899822235107421875" lon="19.8327360861003398895263671875">
        <ele>929.4000244140625</ele>
        <time>2026-06-18T06:47:59.000Z</time>
        <extensions>
          <ns3:TrackPointExtension>
            <ns3:atemp>16.0</ns3:atemp>
          </ns3:TrackPointExtension>
        </extensions>
      </trkpt>
      <trkpt lat="42.54215709865093231201171875" lon="19.8327062465250492095947265625">
        <ele>929.4000244140625</ele>
        <time>2026-06-18T06:48:00.000Z</time>
        <extensions>
          <ns3:TrackPointExtension>
            <ns3:atemp>16.0</ns3:atemp>
          </ns3:TrackPointExtension>
        </extensions>
      </trkpt>
      <trkpt lat="42.5422095693647861480712890625" lon="19.8326737247407436370849609375">
        <ele>929.20001220703125</ele>
        <time>2026-06-18T06:48:01.000Z</time>
        <extensions>
          <ns3:TrackPointExtension>
            <ns3:atemp>16.0</ns3:atemp>
          </ns3:TrackPointExtension>
        </extensions>
      </trkpt>
      <trkpt lat="42.5422605313360691070556640625" lon="19.83264380134642124176025390625">
        <ele>929.20001220703125</ele>
        <time>2026-06-18T06:48:02.000Z</time>
        <extensions>
          <ns3:TrackPointExtension>
            <ns3:atemp>16.0</ns3:atemp>
          </ns3:TrackPointExtension>
        </extensions>
      </trkpt>
      <trkpt lat="42.54230973310768604278564453125" lon="19.83261731453239917755126953125">
        <ele>929.20001220703125</ele>
        <time>2026-06-18T06:48:03.000Z</time>
        <extensions>
          <ns3:TrackPointExtension>
            <ns3:atemp>16.0</ns3:atemp>
          </ns3:TrackPointExtension>
        </extensions>
      </trkpt>
      <trkpt lat="42.54235935397446155548095703125" lon="19.832589738070964813232421875">
        <ele>929.20001220703125</ele>
        <time>2026-06-18T06:48:04.000Z</time>
        <extensions>
          <ns3:TrackPointExtension>
            <ns3:atemp>16.0</ns3:atemp>
          </ns3:TrackPointExtension>
        </extensions>
      </trkpt>
      <trkpt lat="42.5424098968505859375" lon="19.83256123960018157958984375">
        <ele>929.20001220703125</ele>
        <time>2026-06-18T06:48:05.000Z</time>
        <extensions>
          <ns3:TrackPointExtension>
            <ns3:atemp>16.0</ns3:atemp>
          </ns3:TrackPointExtension>
        </extensions>
      </trkpt>
      <trkpt lat="42.54245976917445659637451171875" lon="19.83253098092973232269287109375">
        <ele>929.20001220703125</ele>
        <time>2026-06-18T06:48:06.000Z</time>
        <extensions>
          <ns3:TrackPointExtension>
            <ns3:atemp>16.0</ns3:atemp>
          </ns3:TrackPointExtension>
        </extensions>
      </trkpt>
      <trkpt lat="42.5425131618976593017578125" lon="19.8325047455728054046630859375">
        <ele>929</ele>
        <time>2026-06-18T06:48:07.000Z</time>
        <extensions>
          <ns3:TrackPointExtension>
            <ns3:atemp>16.0</ns3:atemp>
          </ns3:TrackPointExtension>
        </extensions>
      </trkpt>
      <trkpt lat="42.5425683148205280303955078125" lon="19.83248353935778141021728515625">
        <ele>929</ele>
        <time>2026-06-18T06:48:08.000Z</time>
        <extensions>
          <ns3:TrackPointExtension>
            <ns3:atemp>16.0</ns3:atemp>
          </ns3:TrackPointExtension>
        </extensions>
      </trkpt>
      <trkpt lat="42.54262304864823818206787109375" lon="19.83246426098048686981201171875">
        <ele>929</ele>
        <time>2026-06-18T06:48:09.000Z</time>
        <extensions>
          <ns3:TrackPointExtension>
            <ns3:atemp>16.0</ns3:atemp>
          </ns3:TrackPointExtension>
        </extensions>
      </trkpt>
      <trkpt lat="42.5426786206662654876708984375" lon="19.83244699425995349884033203125">
        <ele>928.79998779296875</ele>
        <time>2026-06-18T06:48:10.000Z</time>
        <extensions>
          <ns3:TrackPointExtension>
            <ns3:atemp>16.0</ns3:atemp>
          </ns3:TrackPointExtension>
        </extensions>
      </trkpt>
      <trkpt lat="42.542734779417514801025390625" lon="19.8324323259294033050537109375">
        <ele>928.79998779296875</ele>
        <time>2026-06-18T06:48:11.000Z</time>
        <extensions>
          <ns3:TrackPointExtension>
            <ns3:atemp>16.0</ns3:atemp>
          </ns3:TrackPointExtension>
        </extensions>
      </trkpt>
      <trkpt lat="42.5427909381687641143798828125" lon="19.832423441112041473388671875">
        <ele>928.79998779296875</ele>
        <time>2026-06-18T06:48:12.000Z</time>
        <extensions>
          <ns3:TrackPointExtension>
            <ns3:atemp>16.0</ns3:atemp>
          </ns3:TrackPointExtension>
        </extensions>
      </trkpt>
      <trkpt lat="42.54284600727260112762451171875" lon="19.8324237763881683349609375">
        <ele>928.79998779296875</ele>
        <time>2026-06-18T06:48:13.000Z</time>
        <extensions>
          <ns3:TrackPointExtension>
            <ns3:atemp>16.0</ns3:atemp>
          </ns3:TrackPointExtension>
        </extensions>
      </trkpt>
      <trkpt lat="42.54290283657610416412353515625" lon="19.83242955990135669708251953125">
        <ele>928.79998779296875</ele>
        <time>2026-06-18T06:48:14.000Z</time>
        <extensions>
          <ns3:TrackPointExtension>
            <ns3:atemp>16.0</ns3:atemp>
          </ns3:TrackPointExtension>
        </extensions>
      </trkpt>
      <trkpt lat="42.542958073318004608154296875" lon="19.832436852157115936279296875">
        <ele>928.79998779296875</ele>
        <time>2026-06-18T06:48:15.000Z</time>
        <extensions>
          <ns3:TrackPointExtension>
            <ns3:atemp>16.0</ns3:atemp>
          </ns3:TrackPointExtension>
        </extensions>
      </trkpt>
      <trkpt lat="42.543011717498302459716796875" lon="19.83245219103991985321044921875">
        <ele>928.79998779296875</ele>
        <time>2026-06-18T06:48:16.000Z</time>
        <extensions>
          <ns3:TrackPointExtension>
            <ns3:atemp>16.0</ns3:atemp>
          </ns3:TrackPointExtension>
        </extensions>
      </trkpt>
      <trkpt lat="42.543065361678600311279296875" lon="19.83246711082756519317626953125">
        <ele>928.5999755859375</ele>
        <time>2026-06-18T06:48:17.000Z</time>
        <extensions>
          <ns3:TrackPointExtension>
            <ns3:atemp>16.0</ns3:atemp>
          </ns3:TrackPointExtension>
        </extensions>
      </trkpt>
      <trkpt lat="42.5431208498775959014892578125" lon="19.83248521573841571807861328125">
        <ele>928.5999755859375</ele>
        <time>2026-06-18T06:48:18.000Z</time>
        <extensions>
          <ns3:TrackPointExtension>
            <ns3:atemp>16.0</ns3:atemp>
          </ns3:TrackPointExtension>
        </extensions>
      </trkpt>
      <trkpt lat="42.5431751646101474761962890625" lon="19.8325000517070293426513671875">
        <ele>928.5999755859375</ele>
        <time>2026-06-18T06:48:19.000Z</time>
        <extensions>
          <ns3:TrackPointExtension>
            <ns3:atemp>16.0</ns3:atemp>
          </ns3:TrackPointExtension>
        </extensions>
      </trkpt>
      <trkpt lat="42.543227635324001312255859375" lon="19.83251270838081836700439453125">
        <ele>928.4000244140625</ele>
        <time>2026-06-18T06:48:20.000Z</time>
        <extensions>
          <ns3:TrackPointExtension>
            <ns3:atemp>16.0</ns3:atemp>
          </ns3:TrackPointExtension>
        </extensions>
      </trkpt>
      <trkpt lat="42.54327935166656970977783203125" lon="19.8325216770172119140625">
        <ele>928.4000244140625</ele>
        <time>2026-06-18T06:48:21.000Z</time>
        <extensions>
          <ns3:TrackPointExtension>
            <ns3:atemp>16.0</ns3:atemp>
          </ns3:TrackPointExtension>
        </extensions>
      </trkpt>
      <trkpt lat="42.5433314032852649688720703125" lon="19.83252125792205333709716796875">
        <ele>928.4000244140625</ele>
        <time>2026-06-18T06:48:22.000Z</time>
        <extensions>
          <ns3:TrackPointExtension>
            <ns3:atemp>16.0</ns3:atemp>
          </ns3:TrackPointExtension>
        </extensions>
      </trkpt>
      <trkpt lat="42.5433837063610553741455078125" lon="19.8325154744088649749755859375">
        <ele>928.4000244140625</ele>
        <time>2026-06-18T06:48:23.000Z</time>
        <extensions>
          <ns3:TrackPointExtension>
            <ns3:atemp>16.0</ns3:atemp>
          </ns3:TrackPointExtension>
        </extensions>
      </trkpt>
      <trkpt lat="42.54343324340879917144775390625" lon="19.83250985853374004364013671875">
        <ele>928.4000244140625</ele>
        <time>2026-06-18T06:48:24.000Z</time>
        <extensions>
          <ns3:TrackPointExtension>
            <ns3:atemp>16.0</ns3:atemp>
          </ns3:TrackPointExtension>
        </extensions>
      </trkpt>
      <trkpt lat="42.5434809364378452301025390625" lon="19.8325010575354099273681640625">
        <ele>928.4000244140625</ele>
        <time>2026-06-18T06:48:25.000Z</time>
        <extensions>
          <ns3:TrackPointExtension>
            <ns3:atemp>16.0</ns3:atemp>
          </ns3:TrackPointExtension>
        </extensions>
      </trkpt>
      <trkpt lat="42.54353038966655731201171875" lon="19.83249141834676265716552734375">
        <ele>928.20001220703125</ele>
        <time>2026-06-18T06:48:26.000Z</time>
        <extensions>
          <ns3:TrackPointExtension>
            <ns3:atemp>16.0</ns3:atemp>
          </ns3:TrackPointExtension>
        </extensions>
      </trkpt>
      <trkpt lat="42.54357757978141307830810546875" lon="19.8324715532362461090087890625">
        <ele>928.20001220703125</ele>
        <time>2026-06-18T06:48:27.000Z</time>
        <extensions>
          <ns3:TrackPointExtension>
            <ns3:atemp>16.0</ns3:atemp>
          </ns3:TrackPointExtension>
        </extensions>
      </trkpt>
      <trkpt lat="42.5436240993440151214599609375" lon="19.832446910440921783447265625">
        <ele>928.20001220703125</ele>
        <time>2026-06-18T06:48:28.000Z</time>
        <extensions>
          <ns3:TrackPointExtension>
            <ns3:atemp>16.0</ns3:atemp>
          </ns3:TrackPointExtension>
        </extensions>
      </trkpt>
      <trkpt lat="42.5436707027256488800048828125" lon="19.832421429455280303955078125">
        <ele>928.20001220703125</ele>
        <time>2026-06-18T06:48:29.000Z</time>
        <extensions>
          <ns3:TrackPointExtension>
            <ns3:atemp>16.0</ns3:atemp>
          </ns3:TrackPointExtension>
        </extensions>
      </trkpt>
      <trkpt lat="42.54371370188891887664794921875" lon="19.8323957808315753936767578125">
        <ele>928.4000244140625</ele>
        <time>2026-06-18T06:48:30.000Z</time>
        <extensions>
          <ns3:TrackPointExtension>
            <ns3:atemp>16.0</ns3:atemp>
          </ns3:TrackPointExtension>
        </extensions>
      </trkpt>
      <trkpt lat="42.54375393502414226531982421875" lon="19.83236719854176044464111328125">
        <ele>928.4000244140625</ele>
        <time>2026-06-18T06:48:31.000Z</time>
        <extensions>
          <ns3:TrackPointExtension>
            <ns3:atemp>16.0</ns3:atemp>
          </ns3:TrackPointExtension>
        </extensions>
      </trkpt>
      <trkpt lat="42.543792910873889923095703125" lon="19.8323404602706432342529296875">
        <ele>928.4000244140625</ele>
        <time>2026-06-18T06:48:32.000Z</time>
        <extensions>
          <ns3:TrackPointExtension>
            <ns3:atemp>16.0</ns3:atemp>
          </ns3:TrackPointExtension>
        </extensions>
      </trkpt>
      <trkpt lat="42.54383021034300327301025390625" lon="19.8323102854192256927490234375">
        <ele>928.4000244140625</ele>
        <time>2026-06-18T06:48:33.000Z</time>
        <extensions>
          <ns3:TrackPointExtension>
            <ns3:atemp>16.0</ns3:atemp>
          </ns3:TrackPointExtension>
        </extensions>
      </trkpt>
      <trkpt lat="42.5438690185546875" lon="19.83228069730103015899658203125">
        <ele>928.4000244140625</ele>
        <time>2026-06-18T06:48:34.000Z</time>
        <extensions>
          <ns3:TrackPointExtension>
            <ns3:atemp>16.0</ns3:atemp>
          </ns3:TrackPointExtension>
        </extensions>
      </trkpt>
      <trkpt lat="42.543910928070545196533203125" lon="19.8322492651641368865966796875">
        <ele>928.4000244140625</ele>
        <time>2026-06-18T06:48:35.000Z</time>
        <extensions>
          <ns3:TrackPointExtension>
            <ns3:atemp>16.0</ns3:atemp>
          </ns3:TrackPointExtension>
        </extensions>
      </trkpt>
      <trkpt lat="42.54395283758640289306640625" lon="19.8322197608649730682373046875">
        <ele>928.4000244140625</ele>
        <time>2026-06-18T06:48:36.000Z</time>
        <extensions>
          <ns3:TrackPointExtension>
            <ns3:atemp>16.0</ns3:atemp>
          </ns3:TrackPointExtension>
        </extensions>
      </trkpt>
      <trkpt lat="42.54399667493999004364013671875" lon="19.8321942798793315887451171875">
        <ele>928.4000244140625</ele>
        <time>2026-06-18T06:48:37.000Z</time>
        <extensions>
          <ns3:TrackPointExtension>
            <ns3:atemp>16.0</ns3:atemp>
          </ns3:TrackPointExtension>
        </extensions>
      </trkpt>
      <trkpt lat="42.54404294304549694061279296875" lon="19.83217240311205387115478515625">
        <ele>928.4000244140625</ele>
        <time>2026-06-18T06:48:38.000Z</time>
        <extensions>
          <ns3:TrackPointExtension>
            <ns3:atemp>16.0</ns3:atemp>
          </ns3:TrackPointExtension>
        </extensions>
      </trkpt>
      <trkpt lat="42.54408988170325756072998046875" lon="19.83215010724961757659912109375">
        <ele>928.4000244140625</ele>
        <time>2026-06-18T06:48:39.000Z</time>
        <extensions>
          <ns3:TrackPointExtension>
            <ns3:atemp>16.0</ns3:atemp>
          </ns3:TrackPointExtension>
        </extensions>
      </trkpt>
      <trkpt lat="42.54413715563714504241943359375" lon="19.83213208615779876708984375">
        <ele>928.4000244140625</ele>
        <time>2026-06-18T06:48:40.000Z</time>
        <extensions>
          <ns3:TrackPointExtension>
            <ns3:atemp>16.0</ns3:atemp>
          </ns3:TrackPointExtension>
        </extensions>
      </trkpt>
      <trkpt lat="42.54418510012328624725341796875" lon="19.8321111313998699188232421875">
        <ele>928.4000244140625</ele>
        <time>2026-06-18T06:48:41.000Z</time>
        <extensions>
          <ns3:TrackPointExtension>
            <ns3:atemp>16.0</ns3:atemp>
          </ns3:TrackPointExtension>
        </extensions>
      </trkpt>
      <trkpt lat="42.544234134256839752197265625" lon="19.83209277503192424774169921875">
        <ele>928.20001220703125</ele>
        <time>2026-06-18T06:48:42.000Z</time>
        <extensions>
          <ns3:TrackPointExtension>
            <ns3:atemp>16.0</ns3:atemp>
          </ns3:TrackPointExtension>
        </extensions>
      </trkpt>
      <trkpt lat="42.544279396533966064453125" lon="19.832080788910388946533203125">
        <ele>928.20001220703125</ele>
        <time>2026-06-18T06:48:43.000Z</time>
        <extensions>
          <ns3:TrackPointExtension>
            <ns3:atemp>16.0</ns3:atemp>
          </ns3:TrackPointExtension>
        </extensions>
      </trkpt>
      <trkpt lat="42.5443236529827117919921875" lon="19.83206913806498050689697265625">
        <ele>928.20001220703125</ele>
        <time>2026-06-18T06:48:44.000Z</time>
        <extensions>
          <ns3:TrackPointExtension>
            <ns3:atemp>16.0</ns3:atemp>
          </ns3:TrackPointExtension>
        </extensions>
      </trkpt>
      <trkpt lat="42.54436866380274295806884765625" lon="19.83205455355346202850341796875">
        <ele>928.20001220703125</ele>
        <time>2026-06-18T06:48:45.000Z</time>
        <extensions>
          <ns3:TrackPointExtension>
            <ns3:atemp>16.0</ns3:atemp>
          </ns3:TrackPointExtension>
        </extensions>
      </trkpt>
      <trkpt lat="42.54441224969923496246337890625" lon="19.83203644864261150360107421875">
        <ele>928</ele>
        <time>2026-06-18T06:48:46.000Z</time>
        <extensions>
          <ns3:TrackPointExtension>
            <ns3:atemp>16.0</ns3:atemp>
          </ns3:TrackPointExtension>
        </extensions>
      </trkpt>
      <trkpt lat="42.54445306956768035888671875" lon="19.83201281167566776275634765625">
        <ele>928</ele>
        <time>2026-06-18T06:48:47.000Z</time>
        <extensions>
          <ns3:TrackPointExtension>
            <ns3:atemp>16.0</ns3:atemp>
          </ns3:TrackPointExtension>
        </extensions>
      </trkpt>
      <trkpt lat="42.54449103958904743194580078125" lon="19.83198263682425022125244140625">
        <ele>928</ele>
        <time>2026-06-18T06:48:48.000Z</time>
        <extensions>
          <ns3:TrackPointExtension>
            <ns3:atemp>16.0</ns3:atemp>
          </ns3:TrackPointExtension>
        </extensions>
      </trkpt>
      <trkpt lat="42.54452683031558990478515625" lon="19.83194760046899318695068359375">
        <ele>928</ele>
        <time>2026-06-18T06:48:49.000Z</time>
        <extensions>
          <ns3:TrackPointExtension>
            <ns3:atemp>16.0</ns3:atemp>
          </ns3:TrackPointExtension>
        </extensions>
      </trkpt>
      <trkpt lat="42.544557340443134307861328125" lon="19.83191105537116527557373046875">
        <ele>928</ele>
        <time>2026-06-18T06:48:50.000Z</time>
        <extensions>
          <ns3:TrackPointExtension>
            <ns3:atemp>16.0</ns3:atemp>
          </ns3:TrackPointExtension>
        </extensions>
      </trkpt>
      <trkpt lat="42.54458558745682239532470703125" lon="19.831880293786525726318359375">
        <ele>927.79998779296875</ele>
        <time>2026-06-18T06:48:51.000Z</time>
        <extensions>
          <ns3:TrackPointExtension>
            <ns3:atemp>16.0</ns3:atemp>
          </ns3:TrackPointExtension>
        </extensions>
      </trkpt>
      <trkpt lat="42.544615007936954498291015625" lon="19.8318476043641567230224609375">
        <ele>927.79998779296875</ele>
        <time>2026-06-18T06:48:52.000Z</time>
        <extensions>
          <ns3:TrackPointExtension>
            <ns3:atemp>16.0</ns3:atemp>
          </ns3:TrackPointExtension>
        </extensions>
      </trkpt>
      <trkpt lat="42.54464677534997463226318359375" lon="19.83181097544729709625244140625">
        <ele>927.79998779296875</ele>
        <time>2026-06-18T06:48:53.000Z</time>
        <extensions>
          <ns3:TrackPointExtension>
            <ns3:atemp>16.0</ns3:atemp>
          </ns3:TrackPointExtension>
        </extensions>
      </trkpt>
      <trkpt lat="42.5446792133152484893798828125" lon="19.83177426271140575408935546875">
        <ele>927.5999755859375</ele>
        <time>2026-06-18T06:48:54.000Z</time>
        <extensions>
          <ns3:TrackPointExtension>
            <ns3:atemp>16.0</ns3:atemp>
          </ns3:TrackPointExtension>
        </extensions>
      </trkpt>
      <trkpt lat="42.544714249670505523681640625" lon="19.83173570595681667327880859375">
        <ele>927.5999755859375</ele>
        <time>2026-06-18T06:48:55.000Z</time>
        <extensions>
          <ns3:TrackPointExtension>
            <ns3:atemp>16.0</ns3:atemp>
          </ns3:TrackPointExtension>
        </extensions>
      </trkpt>
      <trkpt lat="42.5447529740631580352783203125" lon="19.8316977359354496002197265625">
        <ele>927.5999755859375</ele>
        <time>2026-06-18T06:48:56.000Z</time>
        <extensions>
          <ns3:TrackPointExtension>
            <ns3:atemp>16.0</ns3:atemp>
          </ns3:TrackPointExtension>
        </extensions>
      </trkpt>
      <trkpt lat="42.5447938777506351470947265625" lon="19.83166211284697055816650390625">
        <ele>927.5999755859375</ele>
        <time>2026-06-18T06:48:57.000Z</time>
        <extensions>
          <ns3:TrackPointExtension>
            <ns3:atemp>16.0</ns3:atemp>
          </ns3:TrackPointExtension>
        </extensions>
      </trkpt>
      <trkpt lat="42.5448324345052242279052734375" lon="19.8316273279488086700439453125">
        <ele>927.5999755859375</ele>
        <time>2026-06-18T06:48:58.000Z</time>
        <extensions>
          <ns3:TrackPointExtension>
            <ns3:atemp>16.0</ns3:atemp>
          </ns3:TrackPointExtension>
        </extensions>
      </trkpt>
      <trkpt lat="42.5448716618120670318603515625" lon="19.83159027993679046630859375">
        <ele>927.5999755859375</ele>
        <time>2026-06-18T06:48:59.000Z</time>
        <extensions>
          <ns3:TrackPointExtension>
            <ns3:atemp>16.0</ns3:atemp>
          </ns3:TrackPointExtension>
        </extensions>
      </trkpt>
      <trkpt lat="42.544912397861480712890625" lon="19.83154929243028163909912109375">
        <ele>927.4000244140625</ele>
        <time>2026-06-18T06:49:00.000Z</time>
        <extensions>
          <ns3:TrackPointExtension>
            <ns3:atemp>16.0</ns3:atemp>
          </ns3:TrackPointExtension>
        </extensions>
      </trkpt>
      <trkpt lat="42.54495464265346527099609375" lon="19.831514172255992889404296875">
        <ele>927.4000244140625</ele>
        <time>2026-06-18T06:49:01.000Z</time>
        <extensions>
          <ns3:TrackPointExtension>
            <ns3:atemp>16.0</ns3:atemp>
          </ns3:TrackPointExtension>
        </extensions>
      </trkpt>
      <trkpt lat="42.5449957139790058135986328125" lon="19.83147938735783100128173828125">
        <ele>927.4000244140625</ele>
        <time>2026-06-18T06:49:02.000Z</time>
        <extensions>
          <ns3:TrackPointExtension>
            <ns3:atemp>16.0</ns3:atemp>
          </ns3:TrackPointExtension>
        </extensions>
      </trkpt>
      <trkpt lat="42.5450349412858486175537109375" lon="19.83145139180123805999755859375">
        <ele>927.20001220703125</ele>
        <time>2026-06-18T06:49:03.000Z</time>
        <extensions>
          <ns3:TrackPointExtension>
            <ns3:atemp>16.0</ns3:atemp>
          </ns3:TrackPointExtension>
        </extensions>
      </trkpt>
      <trkpt lat="42.54507534205913543701171875" lon="19.83143311925232410430908203125">
        <ele>927.20001220703125</ele>
        <time>2026-06-18T06:49:04.000Z</time>
        <extensions>
          <ns3:TrackPointExtension>
            <ns3:atemp>16.0</ns3:atemp>
          </ns3:TrackPointExtension>
        </extensions>
      </trkpt>
      <trkpt lat="42.545112557709217071533203125" lon="19.831424318253993988037109375">
        <ele>927</ele>
        <time>2026-06-18T06:49:05.000Z</time>
        <extensions>
          <ns3:TrackPointExtension>
            <ns3:atemp>16.0</ns3:atemp>
          </ns3:TrackPointExtension>
        </extensions>
      </trkpt>
      <trkpt lat="42.54514801315963268280029296875" lon="19.8314134217798709869384765625">
        <ele>927</ele>
        <time>2026-06-18T06:49:06.000Z</time>
        <extensions>
          <ns3:TrackPointExtension>
            <ns3:atemp>16.0</ns3:atemp>
          </ns3:TrackPointExtension>
        </extensions>
      </trkpt>
      <trkpt lat="42.545180618762969970703125" lon="19.83140730299055576324462890625">
        <ele>927.20001220703125</ele>
        <time>2026-06-18T06:49:07.000Z</time>
        <extensions>
          <ns3:TrackPointExtension>
            <ns3:atemp>16.0</ns3:atemp>
          </ns3:TrackPointExtension>
        </extensions>
      </trkpt>
      <trkpt lat="42.54521523602306842803955078125" lon="19.83140646480023860931396484375">
        <ele>927.20001220703125</ele>
        <time>2026-06-18T06:49:08.000Z</time>
        <extensions>
          <ns3:TrackPointExtension>
            <ns3:atemp>16.0</ns3:atemp>
          </ns3:TrackPointExtension>
        </extensions>
      </trkpt>
      <trkpt lat="42.54524759016931056976318359375" lon="19.831408224999904632568359375">
        <ele>927.20001220703125</ele>
        <time>2026-06-18T06:49:09.000Z</time>
        <extensions>
          <ns3:TrackPointExtension>
            <ns3:atemp>16.0</ns3:atemp>
          </ns3:TrackPointExtension>
        </extensions>
      </trkpt>
      <trkpt lat="42.54527642391622066497802734375" lon="19.8314077220857143402099609375">
        <ele>927.20001220703125</ele>
        <time>2026-06-18T06:49:10.000Z</time>
        <extensions>
          <ns3:TrackPointExtension>
            <ns3:atemp>16.0</ns3:atemp>
          </ns3:TrackPointExtension>
        </extensions>
      </trkpt>
      <trkpt lat="42.54530911333858966827392578125" lon="19.8314097337424755096435546875">
        <ele>927.20001220703125</ele>
        <time>2026-06-18T06:49:11.000Z</time>
        <extensions>
          <ns3:TrackPointExtension>
            <ns3:atemp>16.0</ns3:atemp>
          </ns3:TrackPointExtension>
        </extensions>
      </trkpt>
      <trkpt lat="42.545344568789005279541015625" lon="19.8314127512276172637939453125">
        <ele>927.20001220703125</ele>
        <time>2026-06-18T06:49:12.000Z</time>
        <extensions>
          <ns3:TrackPointExtension>
            <ns3:atemp>16.0</ns3:atemp>
          </ns3:TrackPointExtension>
        </extensions>
      </trkpt>
      <trkpt lat="42.5453777611255645751953125" lon="19.8314137570559978485107421875">
        <ele>927.20001220703125</ele>
        <time>2026-06-18T06:49:13.000Z</time>
        <extensions>
          <ns3:TrackPointExtension>
            <ns3:atemp>16.0</ns3:atemp>
          </ns3:TrackPointExtension>
        </extensions>
      </trkpt>
      <trkpt lat="42.54541086964309215545654296875" lon="19.8314097337424755096435546875">
        <ele>927.20001220703125</ele>
        <time>2026-06-18T06:49:14.000Z</time>
        <extensions>
          <ns3:TrackPointExtension>
            <ns3:atemp>16.0</ns3:atemp>
          </ns3:TrackPointExtension>
        </extensions>
      </trkpt>
      <trkpt lat="42.5454456545412540435791015625" lon="19.8314020223915576934814453125">
        <ele>927.20001220703125</ele>
        <time>2026-06-18T06:49:15.000Z</time>
        <extensions>
          <ns3:TrackPointExtension>
            <ns3:atemp>16.0</ns3:atemp>
          </ns3:TrackPointExtension>
        </extensions>
      </trkpt>
      <trkpt lat="42.545478679239749908447265625" lon="19.8313929699361324310302734375">
        <ele>927.20001220703125</ele>
        <time>2026-06-18T06:49:16.000Z</time>
        <extensions>
          <ns3:TrackPointExtension>
            <ns3:atemp>16.0</ns3:atemp>
          </ns3:TrackPointExtension>
        </extensions>
      </trkpt>
      <trkpt lat="42.54551379941403865814208984375" lon="19.8313844203948974609375">
        <ele>927</ele>
        <time>2026-06-18T06:49:17.000Z</time>
        <extensions>
          <ns3:TrackPointExtension>
            <ns3:atemp>16.0</ns3:atemp>
          </ns3:TrackPointExtension>
        </extensions>
      </trkpt>
      <trkpt lat="42.54554715938866138458251953125" lon="19.83137377537786960601806640625">
        <ele>927</ele>
        <time>2026-06-18T06:49:18.000Z</time>
        <extensions>
          <ns3:TrackPointExtension>
            <ns3:atemp>16.0</ns3:atemp>
          </ns3:TrackPointExtension>
        </extensions>
      </trkpt>
      <trkpt lat="42.5455807708203792572021484375" lon="19.83136036433279514312744140625">
        <ele>927</ele>
        <time>2026-06-18T06:49:19.000Z</time>
        <extensions>
          <ns3:TrackPointExtension>
            <ns3:atemp>16.0</ns3:atemp>
          </ns3:TrackPointExtension>
        </extensions>
      </trkpt>
      <trkpt lat="42.54561245441436767578125" lon="19.831346534192562103271484375">
        <ele>927</ele>
        <time>2026-06-18T06:49:20.000Z</time>
        <extensions>
          <ns3:TrackPointExtension>
            <ns3:atemp>16.0</ns3:atemp>
          </ns3:TrackPointExtension>
        </extensions>
      </trkpt>
      <trkpt lat="42.54564422182738780975341796875" lon="19.83133253641426563262939453125">
        <ele>927</ele>
        <time>2026-06-18T06:49:21.000Z</time>
        <extensions>
          <ns3:TrackPointExtension>
            <ns3:atemp>16.0</ns3:atemp>
          </ns3:TrackPointExtension>
        </extensions>
      </trkpt>
      <trkpt lat="42.54567473195493221282958984375" lon="19.8313168622553348541259765625">
        <ele>927</ele>
        <time>2026-06-18T06:49:22.000Z</time>
        <extensions>
          <ns3:TrackPointExtension>
            <ns3:atemp>16.0</ns3:atemp>
          </ns3:TrackPointExtension>
        </extensions>
      </trkpt>
      <trkpt lat="42.5457075051963329315185546875" lon="19.83130252920091152191162109375">
        <ele>927</ele>
        <time>2026-06-18T06:49:23.000Z</time>
        <extensions>
          <ns3:TrackPointExtension>
            <ns3:atemp>16.0</ns3:atemp>
          </ns3:TrackPointExtension>
        </extensions>
      </trkpt>
      <trkpt lat="42.54573860205709934234619140625" lon="19.8312846757471561431884765625">
        <ele>927.20001220703125</ele>
        <time>2026-06-18T06:49:24.000Z</time>
        <extensions>
          <ns3:TrackPointExtension>
            <ns3:atemp>16.0</ns3:atemp>
          </ns3:TrackPointExtension>
        </extensions>
      </trkpt>
      <trkpt lat="42.5457698665559291839599609375" lon="19.83126179315149784088134765625">
        <ele>927.20001220703125</ele>
        <time>2026-06-18T06:49:25.000Z</time>
        <extensions>
          <ns3:TrackPointExtension>
            <ns3:atemp>16.0</ns3:atemp>
          </ns3:TrackPointExtension>
        </extensions>
      </trkpt>
      <trkpt lat="42.54580398090183734893798828125" lon="19.83123832382261753082275390625">
        <ele>927.20001220703125</ele>
        <time>2026-06-18T06:49:26.000Z</time>
        <extensions>
          <ns3:TrackPointExtension>
            <ns3:atemp>16.0</ns3:atemp>
          </ns3:TrackPointExtension>
        </extensions>
      </trkpt>
      <trkpt lat="42.5458349101245403289794921875" lon="19.83121552504599094390869140625">
        <ele>927</ele>
        <time>2026-06-18T06:49:27.000Z</time>
        <extensions>
          <ns3:TrackPointExtension>
            <ns3:atemp>16.0</ns3:atemp>
          </ns3:TrackPointExtension>
        </extensions>
      </trkpt>
      <trkpt lat="42.54586449824273586273193359375" lon="19.8311921395361423492431640625">
        <ele>927</ele>
        <time>2026-06-18T06:49:28.000Z</time>
        <extensions>
          <ns3:TrackPointExtension>
            <ns3:atemp>16.0</ns3:atemp>
          </ns3:TrackPointExtension>
        </extensions>
      </trkpt>
      <trkpt lat="42.54589140415191650390625" lon="19.83116791583597660064697265625">
        <ele>926.79998779296875</ele>
        <time>2026-06-18T06:49:29.000Z</time>
        <extensions>
          <ns3:TrackPointExtension>
            <ns3:atemp>16.0</ns3:atemp>
          </ns3:TrackPointExtension>
        </extensions>
      </trkpt>
      <trkpt lat="42.5459177233278751373291015625" lon="19.83114394359290599822998046875">
        <ele>926.5999755859375</ele>
        <time>2026-06-18T06:49:30.000Z</time>
        <extensions>
          <ns3:TrackPointExtension>
            <ns3:atemp>16.0</ns3:atemp>
          </ns3:TrackPointExtension>
        </extensions>
      </trkpt>
      <trkpt lat="42.5459465570747852325439453125" lon="19.83112231828272342681884765625">
        <ele>926.5999755859375</ele>
        <time>2026-06-18T06:49:31.000Z</time>
        <extensions>
          <ns3:TrackPointExtension>
            <ns3:atemp>16.0</ns3:atemp>
          </ns3:TrackPointExtension>
        </extensions>
      </trkpt>
      <trkpt lat="42.5459760613739490509033203125" lon="19.8311009444296360015869140625">
        <ele>926.5999755859375</ele>
        <time>2026-06-18T06:49:32.000Z</time>
        <extensions>
          <ns3:TrackPointExtension>
            <ns3:atemp>16.0</ns3:atemp>
          </ns3:TrackPointExtension>
        </extensions>
      </trkpt>
      <trkpt lat="42.5460069067776203155517578125" lon="19.83107822947204113006591796875">
        <ele>926.5999755859375</ele>
        <time>2026-06-18T06:49:33.000Z</time>
        <extensions>
          <ns3:TrackPointExtension>
            <ns3:atemp>16.0</ns3:atemp>
          </ns3:TrackPointExtension>
        </extensions>
      </trkpt>
      <trkpt lat="42.5460424460470676422119140625" lon="19.8310585319995880126953125">
        <ele>926.5999755859375</ele>
        <time>2026-06-18T06:49:34.000Z</time>
        <extensions>
          <ns3:TrackPointExtension>
            <ns3:atemp>16.0</ns3:atemp>
          </ns3:TrackPointExtension>
        </extensions>
      </trkpt>
      <trkpt lat="42.546076811850070953369140625" lon="19.83103967271745204925537109375">
        <ele>926.5999755859375</ele>
        <time>2026-06-18T06:49:35.000Z</time>
        <extensions>
          <ns3:TrackPointExtension>
            <ns3:atemp>16.0</ns3:atemp>
          </ns3:TrackPointExtension>
        </extensions>
      </trkpt>
      <trkpt lat="42.54611025564372539520263671875" lon="19.8310238309204578399658203125">
        <ele>926.79998779296875</ele>
        <time>2026-06-18T06:49:36.000Z</time>
        <extensions>
          <ns3:TrackPointExtension>
            <ns3:atemp>16.0</ns3:atemp>
          </ns3:TrackPointExtension>
        </extensions>
      </trkpt>
      <trkpt lat="42.5461436994373798370361328125" lon="19.8310067318379878997802734375">
        <ele>926.79998779296875</ele>
        <time>2026-06-18T06:49:37.000Z</time>
        <extensions>
          <ns3:TrackPointExtension>
            <ns3:atemp>16.0</ns3:atemp>
          </ns3:TrackPointExtension>
        </extensions>
      </trkpt>
      <trkpt lat="42.54618485458195209503173828125" lon="19.8309896327555179595947265625">
        <ele>926.79998779296875</ele>
        <time>2026-06-18T06:49:38.000Z</time>
        <extensions>
          <ns3:TrackPointExtension>
            <ns3:atemp>16.0</ns3:atemp>
          </ns3:TrackPointExtension>
        </extensions>
      </trkpt>
      <trkpt lat="42.54622559063136577606201171875" lon="19.830975048243999481201171875">
        <ele>926.79998779296875</ele>
        <time>2026-06-18T06:49:39.000Z</time>
        <extensions>
          <ns3:TrackPointExtension>
            <ns3:atemp>16.0</ns3:atemp>
          </ns3:TrackPointExtension>
        </extensions>
      </trkpt>
      <trkpt lat="42.546265237033367156982421875" lon="19.83096457086503505706787109375">
        <ele>926.79998779296875</ele>
        <time>2026-06-18T06:49:40.000Z</time>
        <extensions>
          <ns3:TrackPointExtension>
            <ns3:atemp>16.0</ns3:atemp>
          </ns3:TrackPointExtension>
        </extensions>
      </trkpt>
      <trkpt lat="42.546305470168590545654296875" lon="19.83095191419124603271484375">
        <ele>926.5999755859375</ele>
        <time>2026-06-18T06:49:41.000Z</time>
        <extensions>
          <ns3:TrackPointExtension>
            <ns3:atemp>16.0</ns3:atemp>
          </ns3:TrackPointExtension>
        </extensions>
      </trkpt>
      <trkpt lat="42.546345032751560211181640625" lon="19.83093716204166412353515625">
        <ele>926.5999755859375</ele>
        <time>2026-06-18T06:49:42.000Z</time>
        <extensions>
          <ns3:TrackPointExtension>
            <ns3:atemp>16.0</ns3:atemp>
          </ns3:TrackPointExtension>
        </extensions>
      </trkpt>
      <trkpt lat="42.5463824160397052764892578125" lon="19.8309252597391605377197265625">
        <ele>926.4000244140625</ele>
        <time>2026-06-18T06:49:43.000Z</time>
        <extensions>
          <ns3:TrackPointExtension>
            <ns3:atemp>16.0</ns3:atemp>
          </ns3:TrackPointExtension>
        </extensions>
      </trkpt>
      <trkpt lat="42.5464211404323577880859375" lon="19.8309155367314815521240234375">
        <ele>926.4000244140625</ele>
        <time>2026-06-18T06:49:44.000Z</time>
        <extensions>
          <ns3:TrackPointExtension>
            <ns3:atemp>16.0</ns3:atemp>
          </ns3:TrackPointExtension>
        </extensions>
      </trkpt>
      <trkpt lat="42.54646204411983489990234375" lon="19.8309056460857391357421875">
        <ele>926.4000244140625</ele>
        <time>2026-06-18T06:49:45.000Z</time>
        <extensions>
          <ns3:TrackPointExtension>
            <ns3:atemp>16.0</ns3:atemp>
          </ns3:TrackPointExtension>
        </extensions>
      </trkpt>
      <trkpt lat="42.5465037859976291656494140625" lon="19.83089449815452098846435546875">
        <ele>926.20001220703125</ele>
        <time>2026-06-18T06:49:46.000Z</time>
        <extensions>
          <ns3:TrackPointExtension>
            <ns3:atemp>16.0</ns3:atemp>
          </ns3:TrackPointExtension>
        </extensions>
      </trkpt>
      <trkpt lat="42.54654510878026485443115234375" lon="19.83088108710944652557373046875">
        <ele>926.20001220703125</ele>
        <time>2026-06-18T06:49:47.000Z</time>
        <extensions>
          <ns3:TrackPointExtension>
            <ns3:atemp>16.0</ns3:atemp>
          </ns3:TrackPointExtension>
        </extensions>
      </trkpt>
      <trkpt lat="42.5465869344770908355712890625" lon="19.8308654129505157470703125">
        <ele>926.20001220703125</ele>
        <time>2026-06-18T06:49:48.000Z</time>
        <extensions>
          <ns3:TrackPointExtension>
            <ns3:atemp>16.0</ns3:atemp>
          </ns3:TrackPointExtension>
        </extensions>
      </trkpt>
      <trkpt lat="42.546629011631011962890625" lon="19.83085007406771183013916015625">
        <ele>926.20001220703125</ele>
        <time>2026-06-18T06:49:49.000Z</time>
        <extensions>
          <ns3:TrackPointExtension>
            <ns3:atemp>16.0</ns3:atemp>
          </ns3:TrackPointExtension>
        </extensions>
      </trkpt>
      <trkpt lat="42.54667150788009166717529296875" lon="19.83083733357489109039306640625">
        <ele>926.20001220703125</ele>
        <time>2026-06-18T06:49:50.000Z</time>
        <extensions>
          <ns3:TrackPointExtension>
            <ns3:atemp>16.0</ns3:atemp>
          </ns3:TrackPointExtension>
        </extensions>
      </trkpt>
      <trkpt lat="42.54671551287174224853515625" lon="19.8308236710727214813232421875">
        <ele>926.20001220703125</ele>
        <time>2026-06-18T06:49:51.000Z</time>
        <extensions>
          <ns3:TrackPointExtension>
            <ns3:atemp>16.0</ns3:atemp>
          </ns3:TrackPointExtension>
        </extensions>
      </trkpt>
      <trkpt lat="42.5467606075108051300048828125" lon="19.83080766163766384124755859375">
        <ele>926.4000244140625</ele>
        <time>2026-06-18T06:49:52.000Z</time>
        <extensions>
          <ns3:TrackPointExtension>
            <ns3:atemp>16.0</ns3:atemp>
          </ns3:TrackPointExtension>
        </extensions>
      </trkpt>
      <trkpt lat="42.5468065403401851654052734375" lon="19.8307931609451770782470703125">
        <ele>926.4000244140625</ele>
        <time>2026-06-18T06:49:53.000Z</time>
        <extensions>
          <ns3:TrackPointExtension>
            <ns3:atemp>16.0</ns3:atemp>
          </ns3:TrackPointExtension>
        </extensions>
      </trkpt>
      <trkpt lat="42.54685255698859691619873046875" lon="19.830775894224643707275390625">
        <ele>926.4000244140625</ele>
        <time>2026-06-18T06:49:54.000Z</time>
        <extensions>
          <ns3:TrackPointExtension>
            <ns3:atemp>16.0</ns3:atemp>
          </ns3:TrackPointExtension>
        </extensions>
      </trkpt>
      <trkpt lat="42.54689631052315235137939453125" lon="19.8307606391608715057373046875">
        <ele>926.4000244140625</ele>
        <time>2026-06-18T06:49:55.000Z</time>
        <extensions>
          <ns3:TrackPointExtension>
            <ns3:atemp>16.0</ns3:atemp>
          </ns3:TrackPointExtension>
        </extensions>
      </trkpt>
      <trkpt lat="42.546940483152866363525390625" lon="19.8307499103248119354248046875">
        <ele>926.20001220703125</ele>
        <time>2026-06-18T06:49:56.000Z</time>
        <extensions>
          <ns3:TrackPointExtension>
            <ns3:atemp>16.0</ns3:atemp>
          </ns3:TrackPointExtension>
        </extensions>
      </trkpt>
      <trkpt lat="42.54698415286839008331298828125" lon="19.83073893003165721893310546875">
        <ele>926.20001220703125</ele>
        <time>2026-06-18T06:49:57.000Z</time>
        <extensions>
          <ns3:TrackPointExtension>
            <ns3:atemp>16.0</ns3:atemp>
          </ns3:TrackPointExtension>
        </extensions>
      </trkpt>
      <trkpt lat="42.54702773876488208770751953125" lon="19.83072551898658275604248046875">
        <ele>926.20001220703125</ele>
        <time>2026-06-18T06:49:58.000Z</time>
        <extensions>
          <ns3:TrackPointExtension>
            <ns3:atemp>16.0</ns3:atemp>
          </ns3:TrackPointExtension>
        </extensions>
      </trkpt>
      <trkpt lat="42.54707132466137409210205078125" lon="19.83071026392281055450439453125">
        <ele>926.20001220703125</ele>
        <time>2026-06-18T06:49:59.000Z</time>
        <extensions>
          <ns3:TrackPointExtension>
            <ns3:atemp>16.0</ns3:atemp>
          </ns3:TrackPointExtension>
        </extensions>
      </trkpt>
      <trkpt lat="42.54711784422397613525390625" lon="19.83069601468741893768310546875">
        <ele>926.20001220703125</ele>
        <time>2026-06-18T06:50:00.000Z</time>
        <extensions>
          <ns3:TrackPointExtension>
            <ns3:atemp>16.0</ns3:atemp>
          </ns3:TrackPointExtension>
        </extensions>
      </trkpt>
      <trkpt lat="42.5471656210720539093017578125" lon="19.8306803405284881591796875">
        <ele>926.20001220703125</ele>
        <time>2026-06-18T06:50:01.000Z</time>
        <extensions>
          <ns3:TrackPointExtension>
            <ns3:atemp>16.0</ns3:atemp>
          </ns3:TrackPointExtension>
        </extensions>
      </trkpt>
      <trkpt lat="42.5472135655581951141357421875" lon="19.83066818676888942718505859375">
        <ele>926.20001220703125</ele>
        <time>2026-06-18T06:50:02.000Z</time>
        <extensions>
          <ns3:TrackPointExtension>
            <ns3:atemp>16.0</ns3:atemp>
          </ns3:TrackPointExtension>
        </extensions>
      </trkpt>
      <trkpt lat="42.54726092331111431121826171875" lon="19.8306553624570369720458984375">
        <ele>926.4000244140625</ele>
        <time>2026-06-18T06:50:03.000Z</time>
        <extensions>
          <ns3:TrackPointExtension>
            <ns3:atemp>16.0</ns3:atemp>
          </ns3:TrackPointExtension>
        </extensions>
      </trkpt>
      <trkpt lat="42.54730450920760631561279296875" lon="19.83064404688775539398193359375">
        <ele>926.4000244140625</ele>
        <time>2026-06-18T06:50:04.000Z</time>
        <extensions>
          <ns3:TrackPointExtension>
            <ns3:atemp>16.0</ns3:atemp>
          </ns3:TrackPointExtension>
        </extensions>
      </trkpt>
      <trkpt lat="42.5473493523895740509033203125" lon="19.8306292109191417694091796875">
        <ele>926.5999755859375</ele>
        <time>2026-06-18T06:50:05.000Z</time>
        <extensions>
          <ns3:TrackPointExtension>
            <ns3:atemp>16.0</ns3:atemp>
          </ns3:TrackPointExtension>
        </extensions>
      </trkpt>
      <trkpt lat="42.54739687778055667877197265625" lon="19.83061571605503559112548828125">
        <ele>926.5999755859375</ele>
        <time>2026-06-18T06:50:06.000Z</time>
        <extensions>
          <ns3:TrackPointExtension>
            <ns3:atemp>16.0</ns3:atemp>
          </ns3:TrackPointExtension>
        </extensions>
      </trkpt>
      <trkpt lat="42.54744264297187328338623046875" lon="19.83059610240161418914794921875">
        <ele>926.5999755859375</ele>
        <time>2026-06-18T06:50:07.000Z</time>
        <extensions>
          <ns3:TrackPointExtension>
            <ns3:atemp>16.0</ns3:atemp>
          </ns3:TrackPointExtension>
        </extensions>
      </trkpt>
      <trkpt lat="42.54748991690576076507568359375" lon="19.83058042824268341064453125">
        <ele>926.5999755859375</ele>
        <time>2026-06-18T06:50:08.000Z</time>
        <extensions>
          <ns3:TrackPointExtension>
            <ns3:atemp>16.0</ns3:atemp>
          </ns3:TrackPointExtension>
        </extensions>
      </trkpt>
      <trkpt lat="42.5475394539535045623779296875" lon="19.8305655084550380706787109375">
        <ele>926.5999755859375</ele>
        <time>2026-06-18T06:50:09.000Z</time>
        <extensions>
          <ns3:TrackPointExtension>
            <ns3:atemp>16.0</ns3:atemp>
          </ns3:TrackPointExtension>
        </extensions>
      </trkpt>
      <trkpt lat="42.547588236629962921142578125" lon="19.83055201359093189239501953125">
        <ele>926.4000244140625</ele>
        <time>2026-06-18T06:50:10.000Z</time>
        <extensions>
          <ns3:TrackPointExtension>
            <ns3:atemp>16.0</ns3:atemp>
          </ns3:TrackPointExtension>
        </extensions>
      </trkpt>
      <trkpt lat="42.54764020442962646484375" lon="19.8305366747081279754638671875">
        <ele>926.4000244140625</ele>
        <time>2026-06-18T06:50:11.000Z</time>
        <extensions>
          <ns3:TrackPointExtension>
            <ns3:atemp>16.0</ns3:atemp>
          </ns3:TrackPointExtension>
        </extensions>
      </trkpt>
      <trkpt lat="42.5476898252964019775390625" lon="19.83052141964435577392578125">
        <ele>926.4000244140625</ele>
        <time>2026-06-18T06:50:12.000Z</time>
        <extensions>
          <ns3:TrackPointExtension>
            <ns3:atemp>16.0</ns3:atemp>
          </ns3:TrackPointExtension>
        </extensions>
      </trkpt>
      <trkpt lat="42.547738440334796905517578125" lon="19.830507673323154449462890625">
        <ele>926.4000244140625</ele>
        <time>2026-06-18T06:50:13.000Z</time>
        <extensions>
          <ns3:TrackPointExtension>
            <ns3:atemp>16.0</ns3:atemp>
          </ns3:TrackPointExtension>
        </extensions>
      </trkpt>
      <trkpt lat="42.54778747446835041046142578125" lon="19.8304917477071285247802734375">
        <ele>926.4000244140625</ele>
        <time>2026-06-18T06:50:14.000Z</time>
        <extensions>
          <ns3:TrackPointExtension>
            <ns3:atemp>16.0</ns3:atemp>
          </ns3:TrackPointExtension>
        </extensions>
      </trkpt>
      <trkpt lat="42.54783743061125278472900390625" lon="19.83047674410045146942138671875">
        <ele>926.4000244140625</ele>
        <time>2026-06-18T06:50:15.000Z</time>
        <extensions>
          <ns3:TrackPointExtension>
            <ns3:atemp>16.0</ns3:atemp>
          </ns3:TrackPointExtension>
        </extensions>
      </trkpt>
      <trkpt lat="42.547885961830615997314453125" lon="19.8304625786840915679931640625">
        <ele>926.4000244140625</ele>
        <time>2026-06-18T06:50:16.000Z</time>
        <extensions>
          <ns3:TrackPointExtension>
            <ns3:atemp>16.0</ns3:atemp>
          </ns3:TrackPointExtension>
        </extensions>
      </trkpt>
      <trkpt lat="42.54793650470674037933349609375" lon="19.83045034110546112060546875">
        <ele>926.4000244140625</ele>
        <time>2026-06-18T06:50:17.000Z</time>
        <extensions>
          <ns3:TrackPointExtension>
            <ns3:atemp>16.0</ns3:atemp>
          </ns3:TrackPointExtension>
        </extensions>
      </trkpt>
      <trkpt lat="42.54798461683094501495361328125" lon="19.8304364271461963653564453125">
        <ele>926.5999755859375</ele>
        <time>2026-06-18T06:50:18.000Z</time>
        <extensions>
          <ns3:TrackPointExtension>
            <ns3:atemp>16.0</ns3:atemp>
          </ns3:TrackPointExtension>
        </extensions>
      </trkpt>
      <trkpt lat="42.54803356714546680450439453125" lon="19.830424524843692779541015625">
        <ele>926.5999755859375</ele>
        <time>2026-06-18T06:50:19.000Z</time>
        <extensions>
          <ns3:TrackPointExtension>
            <ns3:atemp>16.0</ns3:atemp>
          </ns3:TrackPointExtension>
        </extensions>
      </trkpt>
      <trkpt lat="42.548083774745464324951171875" lon="19.8304094374179840087890625">
        <ele>926.5999755859375</ele>
        <time>2026-06-18T06:50:20.000Z</time>
        <extensions>
          <ns3:TrackPointExtension>
            <ns3:atemp>16.0</ns3:atemp>
          </ns3:TrackPointExtension>
        </extensions>
      </trkpt>
      <trkpt lat="42.5481338985264301300048828125" lon="19.83039158396422863006591796875">
        <ele>926.5999755859375</ele>
        <time>2026-06-18T06:50:21.000Z</time>
        <extensions>
          <ns3:TrackPointExtension>
            <ns3:atemp>16.0</ns3:atemp>
          </ns3:TrackPointExtension>
        </extensions>
      </trkpt>
      <trkpt lat="42.5481848604977130889892578125" lon="19.83037666417658329010009765625">
        <ele>926.5999755859375</ele>
        <time>2026-06-18T06:50:22.000Z</time>
        <extensions>
          <ns3:TrackPointExtension>
            <ns3:atemp>16.0</ns3:atemp>
          </ns3:TrackPointExtension>
        </extensions>
      </trkpt>
      <trkpt lat="42.5482364930212497711181640625" lon="19.830359481275081634521484375">
        <ele>926.5999755859375</ele>
        <time>2026-06-18T06:50:23.000Z</time>
        <extensions>
          <ns3:TrackPointExtension>
            <ns3:atemp>16.0</ns3:atemp>
          </ns3:TrackPointExtension>
        </extensions>
      </trkpt>
      <trkpt lat="42.54829022102057933807373046875" lon="19.830341041088104248046875">
        <ele>926.5999755859375</ele>
        <time>2026-06-18T06:50:24.000Z</time>
        <extensions>
          <ns3:TrackPointExtension>
            <ns3:atemp>16.0</ns3:atemp>
          </ns3:TrackPointExtension>
        </extensions>
      </trkpt>
      <trkpt lat="42.54834302701056003570556640625" lon="19.83032285235822200775146484375">
        <ele>926.5999755859375</ele>
        <time>2026-06-18T06:50:25.000Z</time>
        <extensions>
          <ns3:TrackPointExtension>
            <ns3:atemp>16.0</ns3:atemp>
          </ns3:TrackPointExtension>
        </extensions>
      </trkpt>
      <trkpt lat="42.548392899334430694580078125" lon="19.83030525036156177520751953125">
        <ele>926.5999755859375</ele>
        <time>2026-06-18T06:50:26.000Z</time>
        <extensions>
          <ns3:TrackPointExtension>
            <ns3:atemp>16.0</ns3:atemp>
          </ns3:TrackPointExtension>
        </extensions>
      </trkpt>
      <trkpt lat="42.54844226874411106109619140625" lon="19.83028806746006011962890625">
        <ele>926.5999755859375</ele>
        <time>2026-06-18T06:50:27.000Z</time>
        <extensions>
          <ns3:TrackPointExtension>
            <ns3:atemp>16.0</ns3:atemp>
          </ns3:TrackPointExtension>
        </extensions>
      </trkpt>
      <trkpt lat="42.5484929792582988739013671875" lon="19.83027189038693904876708984375">
        <ele>926.5999755859375</ele>
        <time>2026-06-18T06:50:28.000Z</time>
        <extensions>
          <ns3:TrackPointExtension>
            <ns3:atemp>16.0</ns3:atemp>
          </ns3:TrackPointExtension>
        </extensions>
      </trkpt>
      <trkpt lat="42.54854553379118442535400390625" lon="19.83025646768510341644287109375">
        <ele>926.5999755859375</ele>
        <time>2026-06-18T06:50:29.000Z</time>
        <extensions>
          <ns3:TrackPointExtension>
            <ns3:atemp>16.0</ns3:atemp>
          </ns3:TrackPointExtension>
        </extensions>
      </trkpt>
      <trkpt lat="42.54859683103859424591064453125" lon="19.83024381101131439208984375">
        <ele>926.5999755859375</ele>
        <time>2026-06-18T06:50:30.000Z</time>
        <extensions>
          <ns3:TrackPointExtension>
            <ns3:atemp>17.0</ns3:atemp>
          </ns3:TrackPointExtension>
        </extensions>
      </trkpt>
      <trkpt lat="42.548647709190845489501953125" lon="19.83023299835622310638427734375">
        <ele>926.5999755859375</ele>
        <time>2026-06-18T06:50:31.000Z</time>
        <extensions>
          <ns3:TrackPointExtension>
            <ns3:atemp>16.0</ns3:atemp>
          </ns3:TrackPointExtension>
        </extensions>
      </trkpt>
      <trkpt lat="42.548696659505367279052734375" lon="19.83022009022533893585205078125">
        <ele>926.4000244140625</ele>
        <time>2026-06-18T06:50:32.000Z</time>
        <extensions>
          <ns3:TrackPointExtension>
            <ns3:atemp>16.0</ns3:atemp>
          </ns3:TrackPointExtension>
        </extensions>
      </trkpt>
      <trkpt lat="42.54874619655311107635498046875" lon="19.83020517043769359588623046875">
        <ele>926.5999755859375</ele>
        <time>2026-06-18T06:50:33.000Z</time>
        <extensions>
          <ns3:TrackPointExtension>
            <ns3:atemp>16.0</ns3:atemp>
          </ns3:TrackPointExtension>
        </extensions>
      </trkpt>
      <trkpt lat="42.54879581741988658905029296875" lon="19.83018807135522365570068359375">
        <ele>926.4000244140625</ele>
        <time>2026-06-18T06:50:34.000Z</time>
        <extensions>
          <ns3:TrackPointExtension>
            <ns3:atemp>16.0</ns3:atemp>
          </ns3:TrackPointExtension>
        </extensions>
      </trkpt>
      <trkpt lat="42.5488406606018543243408203125" lon="19.830171056091785430908203125">
        <ele>926.4000244140625</ele>
        <time>2026-06-18T06:50:35.000Z</time>
        <extensions>
          <ns3:TrackPointExtension>
            <ns3:atemp>16.0</ns3:atemp>
          </ns3:TrackPointExtension>
        </extensions>
      </trkpt>
      <trkpt lat="42.54888466559350490570068359375" lon="19.83015269972383975982666015625">
        <ele>926.5999755859375</ele>
        <time>2026-06-18T06:50:36.000Z</time>
        <extensions>
          <ns3:TrackPointExtension>
            <ns3:atemp>16.0</ns3:atemp>
          </ns3:TrackPointExtension>
        </extensions>
      </trkpt>
      <trkpt lat="42.54892707802355289459228515625" lon="19.8301390372216701507568359375">
        <ele>926.5999755859375</ele>
        <time>2026-06-18T06:50:37.000Z</time>
        <extensions>
          <ns3:TrackPointExtension>
            <ns3:atemp>16.0</ns3:atemp>
          </ns3:TrackPointExtension>
        </extensions>
      </trkpt>
      <trkpt lat="42.54896865226328372955322265625" lon="19.83012621290981769561767578125">
        <ele>926.79998779296875</ele>
        <time>2026-06-18T06:50:38.000Z</time>
        <extensions>
          <ns3:TrackPointExtension>
            <ns3:atemp>16.0</ns3:atemp>
          </ns3:TrackPointExtension>
        </extensions>
      </trkpt>
      <trkpt lat="42.54901173524558544158935546875" lon="19.8301105387508869171142578125">
        <ele>927</ele>
        <time>2026-06-18T06:50:39.000Z</time>
        <extensions>
          <ns3:TrackPointExtension>
            <ns3:atemp>16.0</ns3:atemp>
          </ns3:TrackPointExtension>
        </extensions>
      </trkpt>
      <trkpt lat="42.54905163310468196868896484375" lon="19.83009620569646358489990234375">
        <ele>927.20001220703125</ele>
        <time>2026-06-18T06:50:40.000Z</time>
        <extensions>
          <ns3:TrackPointExtension>
            <ns3:atemp>17.0</ns3:atemp>
          </ns3:TrackPointExtension>
        </extensions>
      </trkpt>
      <trkpt lat="42.5490941293537616729736328125" lon="19.830083884298801422119140625">
        <ele>927.4000244140625</ele>
        <time>2026-06-18T06:50:41.000Z</time>
        <extensions>
          <ns3:TrackPointExtension>
            <ns3:atemp>17.0</ns3:atemp>
          </ns3:TrackPointExtension>
        </extensions>
      </trkpt>
      <trkpt lat="42.5491397269070148468017578125" lon="19.83006812632083892822265625">
        <ele>927.5999755859375</ele>
        <time>2026-06-18T06:50:42.000Z</time>
        <extensions>
          <ns3:TrackPointExtension>
            <ns3:atemp>17.0</ns3:atemp>
          </ns3:TrackPointExtension>
        </extensions>
      </trkpt>
      <trkpt lat="42.54918540827929973602294921875" lon="19.830051697790622711181640625">
        <ele>927.4000244140625</ele>
        <time>2026-06-18T06:50:43.000Z</time>
        <extensions>
          <ns3:TrackPointExtension>
            <ns3:atemp>17.0</ns3:atemp>
          </ns3:TrackPointExtension>
        </extensions>
      </trkpt>
      <trkpt lat="42.5492289103567600250244140625" lon="19.83003635890781879425048828125">
        <ele>927.4000244140625</ele>
        <time>2026-06-18T06:50:44.000Z</time>
        <extensions>
          <ns3:TrackPointExtension>
            <ns3:atemp>17.0</ns3:atemp>
          </ns3:TrackPointExtension>
        </extensions>
      </trkpt>
      <trkpt lat="42.54927031695842742919921875" lon="19.8300200141966342926025390625">
        <ele>927.4000244140625</ele>
        <time>2026-06-18T06:50:45.000Z</time>
        <extensions>
          <ns3:TrackPointExtension>
            <ns3:atemp>17.0</ns3:atemp>
          </ns3:TrackPointExtension>
        </extensions>
      </trkpt>
      <trkpt lat="42.5493120588362216949462890625" lon="19.83000601641833782196044921875">
        <ele>927.4000244140625</ele>
        <time>2026-06-18T06:50:46.000Z</time>
        <extensions>
          <ns3:TrackPointExtension>
            <ns3:atemp>17.0</ns3:atemp>
          </ns3:TrackPointExtension>
        </extensions>
      </trkpt>
      <trkpt lat="42.54935472272336483001708984375" lon="19.82999025844037532806396484375">
        <ele>927.4000244140625</ele>
        <time>2026-06-18T06:50:47.000Z</time>
        <extensions>
          <ns3:TrackPointExtension>
            <ns3:atemp>17.0</ns3:atemp>
          </ns3:TrackPointExtension>
        </extensions>
      </trkpt>
      <trkpt lat="42.54939763806760311126708984375" lon="19.82997533865272998809814453125">
        <ele>927.4000244140625</ele>
        <time>2026-06-18T06:50:48.000Z</time>
        <extensions>
          <ns3:TrackPointExtension>
            <ns3:atemp>17.0</ns3:atemp>
          </ns3:TrackPointExtension>
        </extensions>
      </trkpt>
      <trkpt lat="42.5494394637644290924072265625" lon="19.8299579881131649017333984375">
        <ele>927.4000244140625</ele>
        <time>2026-06-18T06:50:49.000Z</time>
        <extensions>
          <ns3:TrackPointExtension>
            <ns3:atemp>17.0</ns3:atemp>
          </ns3:TrackPointExtension>
        </extensions>
      </trkpt>
      <trkpt lat="42.54948497749865055084228515625" lon="19.82994147576391696929931640625">
        <ele>927.4000244140625</ele>
        <time>2026-06-18T06:50:50.000Z</time>
        <extensions>
          <ns3:TrackPointExtension>
            <ns3:atemp>17.0</ns3:atemp>
          </ns3:TrackPointExtension>
        </extensions>
      </trkpt>
      <trkpt lat="42.54953158088028430938720703125" lon="19.82992328703403472900390625">
        <ele>927.20001220703125</ele>
        <time>2026-06-18T06:50:51.000Z</time>
        <extensions>
          <ns3:TrackPointExtension>
            <ns3:atemp>17.0</ns3:atemp>
          </ns3:TrackPointExtension>
        </extensions>
      </trkpt>
      <trkpt lat="42.54958136938512325286865234375" lon="19.82991599477827548980712890625">
        <ele>927.20001220703125</ele>
        <time>2026-06-18T06:50:52.000Z</time>
        <extensions>
          <ns3:TrackPointExtension>
            <ns3:atemp>17.0</ns3:atemp>
          </ns3:TrackPointExtension>
        </extensions>
      </trkpt>
      <trkpt lat="42.54963400773704051971435546875" lon="19.8299190960824489593505859375">
        <ele>927</ele>
        <time>2026-06-18T06:50:53.000Z</time>
        <extensions>
          <ns3:TrackPointExtension>
            <ns3:atemp>17.0</ns3:atemp>
          </ns3:TrackPointExtension>
        </extensions>
      </trkpt>
      <trkpt lat="42.54969410598278045654296875" lon="19.82992873527109622955322265625">
        <ele>926.79998779296875</ele>
        <time>2026-06-18T06:50:54.000Z</time>
        <extensions>
          <ns3:TrackPointExtension>
            <ns3:atemp>17.0</ns3:atemp>
          </ns3:TrackPointExtension>
        </extensions>
      </trkpt>
      <trkpt lat="42.5497551262378692626953125" lon="19.82994600199162960052490234375">
        <ele>926.5999755859375</ele>
        <time>2026-06-18T06:50:55.000Z</time>
        <extensions>
          <ns3:TrackPointExtension>
            <ns3:atemp>17.0</ns3:atemp>
          </ns3:TrackPointExtension>
        </extensions>
      </trkpt>
      <trkpt lat="42.5498159788548946380615234375" lon="19.829965867102146148681640625">
        <ele>926.4000244140625</ele>
        <time>2026-06-18T06:50:56.000Z</time>
        <extensions>
          <ns3:TrackPointExtension>
            <ns3:atemp>17.0</ns3:atemp>
          </ns3:TrackPointExtension>
        </extensions>
      </trkpt>
      <trkpt lat="42.549874819815158843994140625" lon="19.829994700849056243896484375">
        <ele>926.4000244140625</ele>
        <time>2026-06-18T06:50:57.000Z</time>
        <extensions>
          <ns3:TrackPointExtension>
            <ns3:atemp>17.0</ns3:atemp>
          </ns3:TrackPointExtension>
        </extensions>
      </trkpt>
      <trkpt lat="42.5499299727380275726318359375" lon="19.83002512715756893157958984375">
        <ele>926.20001220703125</ele>
        <time>2026-06-18T06:50:58.000Z</time>
        <extensions>
          <ns3:TrackPointExtension>
            <ns3:atemp>17.0</ns3:atemp>
          </ns3:TrackPointExtension>
        </extensions>
      </trkpt>
      <trkpt lat="42.54998604767024517059326171875" lon="19.83004792593419551849365234375">
        <ele>926</ele>
        <time>2026-06-18T06:50:59.000Z</time>
        <extensions>
          <ns3:TrackPointExtension>
            <ns3:atemp>17.0</ns3:atemp>
          </ns3:TrackPointExtension>
        </extensions>
      </trkpt>
      <trkpt lat="42.5500412844121456146240234375" lon="19.8300687968730926513671875">
        <ele>926</ele>
        <time>2026-06-18T06:51:00.000Z</time>
        <extensions>
          <ns3:TrackPointExtension>
            <ns3:atemp>17.0</ns3:atemp>
          </ns3:TrackPointExtension>
        </extensions>
      </trkpt>
      <trkpt lat="42.55009551532566547393798828125" lon="19.83009100891649723052978515625">
        <ele>926</ele>
        <time>2026-06-18T06:51:01.000Z</time>
        <extensions>
          <ns3:TrackPointExtension>
            <ns3:atemp>17.0</ns3:atemp>
          </ns3:TrackPointExtension>
        </extensions>
      </trkpt>
      <trkpt lat="42.55014815367758274078369140625" lon="19.83011397533118724822998046875">
        <ele>926</ele>
        <time>2026-06-18T06:51:02.000Z</time>
        <extensions>
          <ns3:TrackPointExtension>
            <ns3:atemp>17.0</ns3:atemp>
          </ns3:TrackPointExtension>
        </extensions>
      </trkpt>
      <trkpt lat="42.550193332135677337646484375" lon="19.83013660646975040435791015625">
        <ele>926</ele>
        <time>2026-06-18T06:51:03.000Z</time>
        <extensions>
          <ns3:TrackPointExtension>
            <ns3:atemp>17.0</ns3:atemp>
          </ns3:TrackPointExtension>
        </extensions>
      </trkpt>
      <trkpt lat="42.5502384267747402191162109375" lon="19.83016326092183589935302734375">
        <ele>926</ele>
        <time>2026-06-18T06:51:04.000Z</time>
        <extensions>
          <ns3:TrackPointExtension>
            <ns3:atemp>17.0</ns3:atemp>
          </ns3:TrackPointExtension>
        </extensions>
      </trkpt>
      <trkpt lat="42.55028243176639080047607421875" lon="19.8301923461258411407470703125">
        <ele>926</ele>
        <time>2026-06-18T06:51:05.000Z</time>
        <extensions>
          <ns3:TrackPointExtension>
            <ns3:atemp>17.0</ns3:atemp>
          </ns3:TrackPointExtension>
        </extensions>
      </trkpt>
      <trkpt lat="42.55032710731029510498046875" lon="19.83021606691181659698486328125">
        <ele>926</ele>
        <time>2026-06-18T06:51:06.000Z</time>
        <extensions>
          <ns3:TrackPointExtension>
            <ns3:atemp>17.0</ns3:atemp>
          </ns3:TrackPointExtension>
        </extensions>
      </trkpt>
      <trkpt lat="42.55037245340645313262939453125" lon="19.83023785986006259918212890625">
        <ele>926</ele>
        <time>2026-06-18T06:51:07.000Z</time>
        <extensions>
          <ns3:TrackPointExtension>
            <ns3:atemp>17.0</ns3:atemp>
          </ns3:TrackPointExtension>
        </extensions>
      </trkpt>
      <trkpt lat="42.55041654221713542938232421875" lon="19.83025814406573772430419921875">
        <ele>926.20001220703125</ele>
        <time>2026-06-18T06:51:08.000Z</time>
        <extensions>
          <ns3:TrackPointExtension>
            <ns3:atemp>17.0</ns3:atemp>
          </ns3:TrackPointExtension>
        </extensions>
      </trkpt>
      <trkpt lat="42.550459541380405426025390625" lon="19.83028404414653778076171875">
        <ele>926.20001220703125</ele>
        <time>2026-06-18T06:51:09.000Z</time>
        <extensions>
          <ns3:TrackPointExtension>
            <ns3:atemp>17.0</ns3:atemp>
          </ns3:TrackPointExtension>
        </extensions>
      </trkpt>
      <trkpt lat="42.5505053065717220306396484375" lon="19.83030457980930805206298828125">
        <ele>926.20001220703125</ele>
        <time>2026-06-18T06:51:10.000Z</time>
        <extensions>
          <ns3:TrackPointExtension>
            <ns3:atemp>17.0</ns3:atemp>
          </ns3:TrackPointExtension>
        </extensions>
      </trkpt>
      <trkpt lat="42.5505509041249752044677734375" lon="19.8303241096436977386474609375">
        <ele>926.20001220703125</ele>
        <time>2026-06-18T06:51:11.000Z</time>
        <extensions>
          <ns3:TrackPointExtension>
            <ns3:atemp>17.0</ns3:atemp>
          </ns3:TrackPointExtension>
        </extensions>
      </trkpt>
      <trkpt lat="42.55060127936303615570068359375" lon="19.830341376364231109619140625">
        <ele>926.20001220703125</ele>
        <time>2026-06-18T06:51:12.000Z</time>
        <extensions>
          <ns3:TrackPointExtension>
            <ns3:atemp>17.0</ns3:atemp>
          </ns3:TrackPointExtension>
        </extensions>
      </trkpt>
      <trkpt lat="42.55064955912530422210693359375" lon="19.83035420067608356475830078125">
        <ele>926.20001220703125</ele>
        <time>2026-06-18T06:51:13.000Z</time>
        <extensions>
          <ns3:TrackPointExtension>
            <ns3:atemp>17.0</ns3:atemp>
          </ns3:TrackPointExtension>
        </extensions>
      </trkpt>
      <trkpt lat="42.55069867707788944244384765625" lon="19.83036627061665058135986328125">
        <ele>926.20001220703125</ele>
        <time>2026-06-18T06:51:14.000Z</time>
        <extensions>
          <ns3:TrackPointExtension>
            <ns3:atemp>17.0</ns3:atemp>
          </ns3:TrackPointExtension>
        </extensions>
      </trkpt>
      <trkpt lat="42.55074821412563323974609375" lon="19.83037297613918781280517578125">
        <ele>926.20001220703125</ele>
        <time>2026-06-18T06:51:15.000Z</time>
        <extensions>
          <ns3:TrackPointExtension>
            <ns3:atemp>17.0</ns3:atemp>
          </ns3:TrackPointExtension>
        </extensions>
      </trkpt>
      <trkpt lat="42.55079221911728382110595703125" lon="19.83038823120296001434326171875">
        <ele>926.20001220703125</ele>
        <time>2026-06-18T06:51:16.000Z</time>
        <extensions>
          <ns3:TrackPointExtension>
            <ns3:atemp>17.0</ns3:atemp>
          </ns3:TrackPointExtension>
        </extensions>
      </trkpt>
      <trkpt lat="42.55083647556602954864501953125" lon="19.83040348626673221588134765625">
        <ele>926.20001220703125</ele>
        <time>2026-06-18T06:51:17.000Z</time>
        <extensions>
          <ns3:TrackPointExtension>
            <ns3:atemp>17.0</ns3:atemp>
          </ns3:TrackPointExtension>
        </extensions>
      </trkpt>
      <trkpt lat="42.55088073201477527618408203125" lon="19.8304146341979503631591796875">
        <ele>926.20001220703125</ele>
        <time>2026-06-18T06:51:18.000Z</time>
        <extensions>
          <ns3:TrackPointExtension>
            <ns3:atemp>17.0</ns3:atemp>
          </ns3:TrackPointExtension>
        </extensions>
      </trkpt>
      <trkpt lat="42.5509233959019184112548828125" lon="19.83042695559561252593994140625">
        <ele>926.20001220703125</ele>
        <time>2026-06-18T06:51:19.000Z</time>
        <extensions>
          <ns3:TrackPointExtension>
            <ns3:atemp>17.0</ns3:atemp>
          </ns3:TrackPointExtension>
        </extensions>
      </trkpt>
      <trkpt lat="42.5509666465222835540771484375" lon="19.83043567277491092681884765625">
        <ele>926.4000244140625</ele>
        <time>2026-06-18T06:51:20.000Z</time>
        <extensions>
          <ns3:TrackPointExtension>
            <ns3:atemp>17.0</ns3:atemp>
          </ns3:TrackPointExtension>
        </extensions>
      </trkpt>
      <trkpt lat="42.5510095618665218353271484375" lon="19.83044522814452648162841796875">
        <ele>926.4000244140625</ele>
        <time>2026-06-18T06:51:21.000Z</time>
        <extensions>
          <ns3:TrackPointExtension>
            <ns3:atemp>17.0</ns3:atemp>
          </ns3:TrackPointExtension>
        </extensions>
      </trkpt>
      <trkpt lat="42.5510494597256183624267578125" lon="19.83045637607574462890625">
        <ele>926.4000244140625</ele>
        <time>2026-06-18T06:51:22.000Z</time>
        <extensions>
          <ns3:TrackPointExtension>
            <ns3:atemp>17.0</ns3:atemp>
          </ns3:TrackPointExtension>
        </extensions>
      </trkpt>
      <trkpt lat="42.5510908663272857666015625" lon="19.8304716311395168304443359375">
        <ele>926.5999755859375</ele>
        <time>2026-06-18T06:51:23.000Z</time>
        <extensions>
          <ns3:TrackPointExtension>
            <ns3:atemp>17.0</ns3:atemp>
          </ns3:TrackPointExtension>
        </extensions>
      </trkpt>
      <trkpt lat="42.55113319493830204010009765625" lon="19.83048998750746250152587890625">
        <ele>926.5999755859375</ele>
        <time>2026-06-18T06:51:24.000Z</time>
        <extensions>
          <ns3:TrackPointExtension>
            <ns3:atemp>17.0</ns3:atemp>
          </ns3:TrackPointExtension>
        </extensions>
      </trkpt>
      <trkpt lat="42.55117543973028659820556640625" lon="19.83050758950412273406982421875">
        <ele>926.4000244140625</ele>
        <time>2026-06-18T06:51:25.000Z</time>
        <extensions>
          <ns3:TrackPointExtension>
            <ns3:atemp>17.0</ns3:atemp>
          </ns3:TrackPointExtension>
        </extensions>
      </trkpt>
      <trkpt lat="42.551219277083873748779296875" lon="19.8305209167301654815673828125">
        <ele>926.5999755859375</ele>
        <time>2026-06-18T06:51:26.000Z</time>
        <extensions>
          <ns3:TrackPointExtension>
            <ns3:atemp>17.0</ns3:atemp>
          </ns3:TrackPointExtension>
        </extensions>
      </trkpt>
      <trkpt lat="42.55126378498971462249755859375" lon="19.83053340576589107513427734375">
        <ele>926.4000244140625</ele>
        <time>2026-06-18T06:51:27.000Z</time>
        <extensions>
          <ns3:TrackPointExtension>
            <ns3:atemp>17.0</ns3:atemp>
          </ns3:TrackPointExtension>
        </extensions>
      </trkpt>
      <trkpt lat="42.55130887962877750396728515625" lon="19.8305460624396800994873046875">
        <ele>926.4000244140625</ele>
        <time>2026-06-18T06:51:28.000Z</time>
        <extensions>
          <ns3:TrackPointExtension>
            <ns3:atemp>17.0</ns3:atemp>
          </ns3:TrackPointExtension>
        </extensions>
      </trkpt>
      <trkpt lat="42.5513535551726818084716796875" lon="19.83056165277957916259765625">
        <ele>926.4000244140625</ele>
        <time>2026-06-18T06:51:29.000Z</time>
        <extensions>
          <ns3:TrackPointExtension>
            <ns3:atemp>17.0</ns3:atemp>
          </ns3:TrackPointExtension>
        </extensions>
      </trkpt>
      <trkpt lat="42.5513994880020618438720703125" lon="19.83058042824268341064453125">
        <ele>926.4000244140625</ele>
        <time>2026-06-18T06:51:30.000Z</time>
        <extensions>
          <ns3:TrackPointExtension>
            <ns3:atemp>17.0</ns3:atemp>
          </ns3:TrackPointExtension>
        </extensions>
      </trkpt>
      <trkpt lat="42.55144500173628330230712890625" lon="19.830601215362548828125">
        <ele>926.4000244140625</ele>
        <time>2026-06-18T06:51:31.000Z</time>
        <extensions>
          <ns3:TrackPointExtension>
            <ns3:atemp>17.0</ns3:atemp>
          </ns3:TrackPointExtension>
        </extensions>
      </trkpt>
      <trkpt lat="42.551490180194377899169921875" lon="19.83062057755887508392333984375">
        <ele>926.4000244140625</ele>
        <time>2026-06-18T06:51:32.000Z</time>
        <extensions>
          <ns3:TrackPointExtension>
            <ns3:atemp>17.0</ns3:atemp>
          </ns3:TrackPointExtension>
        </extensions>
      </trkpt>
      <trkpt lat="42.55153519101440906524658203125" lon="19.8306439630687236785888671875">
        <ele>926.4000244140625</ele>
        <time>2026-06-18T06:51:33.000Z</time>
        <extensions>
          <ns3:TrackPointExtension>
            <ns3:atemp>17.0</ns3:atemp>
          </ns3:TrackPointExtension>
        </extensions>
      </trkpt>
      <trkpt lat="42.5515795312821865081787109375" lon="19.830670617520809173583984375">
        <ele>926.4000244140625</ele>
        <time>2026-06-18T06:51:34.000Z</time>
        <extensions>
          <ns3:TrackPointExtension>
            <ns3:atemp>17.0</ns3:atemp>
          </ns3:TrackPointExtension>
        </extensions>
      </trkpt>
      <trkpt lat="42.55162470974028110504150390625" lon="19.8306986130774021148681640625">
        <ele>926.5999755859375</ele>
        <time>2026-06-18T06:51:35.000Z</time>
        <extensions>
          <ns3:TrackPointExtension>
            <ns3:atemp>17.0</ns3:atemp>
          </ns3:TrackPointExtension>
        </extensions>
      </trkpt>
      <trkpt lat="42.5516653619706630706787109375" lon="19.83073406852781772613525390625">
        <ele>926.5999755859375</ele>
        <time>2026-06-18T06:51:36.000Z</time>
        <extensions>
          <ns3:TrackPointExtension>
            <ns3:atemp>17.0</ns3:atemp>
          </ns3:TrackPointExtension>
        </extensions>
      </trkpt>
      <trkpt lat="42.55170249380171298980712890625" lon="19.830767847597599029541015625">
        <ele>926.5999755859375</ele>
        <time>2026-06-18T06:51:37.000Z</time>
        <extensions>
          <ns3:TrackPointExtension>
            <ns3:atemp>17.0</ns3:atemp>
          </ns3:TrackPointExtension>
        </extensions>
      </trkpt>
      <trkpt lat="42.55174105055630207061767578125" lon="19.83080011792480945587158203125">
        <ele>926.5999755859375</ele>
        <time>2026-06-18T06:51:38.000Z</time>
        <extensions>
          <ns3:TrackPointExtension>
            <ns3:atemp>17.0</ns3:atemp>
          </ns3:TrackPointExtension>
        </extensions>
      </trkpt>
      <trkpt lat="42.55178161896765232086181640625" lon="19.8308287002146244049072265625">
        <ele>926.5999755859375</ele>
        <time>2026-06-18T06:51:39.000Z</time>
        <extensions>
          <ns3:TrackPointExtension>
            <ns3:atemp>17.0</ns3:atemp>
          </ns3:TrackPointExtension>
        </extensions>
      </trkpt>
      <trkpt lat="42.551819421350955963134765625" lon="19.83085862360894680023193359375">
        <ele>926.5999755859375</ele>
        <time>2026-06-18T06:51:40.000Z</time>
        <extensions>
          <ns3:TrackPointExtension>
            <ns3:atemp>17.0</ns3:atemp>
          </ns3:TrackPointExtension>
        </extensions>
      </trkpt>
      <trkpt lat="42.55185890011489391326904296875" lon="19.83088058419525623321533203125">
        <ele>926.5999755859375</ele>
        <time>2026-06-18T06:51:41.000Z</time>
        <extensions>
          <ns3:TrackPointExtension>
            <ns3:atemp>17.0</ns3:atemp>
          </ns3:TrackPointExtension>
        </extensions>
      </trkpt>
      <trkpt lat="42.5519000552594661712646484375" lon="19.83090003021061420440673828125">
        <ele>926.5999755859375</ele>
        <time>2026-06-18T06:51:42.000Z</time>
        <extensions>
          <ns3:TrackPointExtension>
            <ns3:atemp>17.0</ns3:atemp>
          </ns3:TrackPointExtension>
        </extensions>
      </trkpt>
      <trkpt lat="42.55194003693759441375732421875" lon="19.8309155367314815521240234375">
        <ele>926.5999755859375</ele>
        <time>2026-06-18T06:51:43.000Z</time>
        <extensions>
          <ns3:TrackPointExtension>
            <ns3:atemp>17.0</ns3:atemp>
          </ns3:TrackPointExtension>
        </extensions>
      </trkpt>
      <trkpt lat="42.551980353891849517822265625" lon="19.83093439601361751556396484375">
        <ele>926.5999755859375</ele>
        <time>2026-06-18T06:51:44.000Z</time>
        <extensions>
          <ns3:TrackPointExtension>
            <ns3:atemp>17.0</ns3:atemp>
          </ns3:TrackPointExtension>
        </extensions>
      </trkpt>
      <trkpt lat="42.55201798863708972930908203125" lon="19.83095635659992694854736328125">
        <ele>926.4000244140625</ele>
        <time>2026-06-18T06:51:45.000Z</time>
        <extensions>
          <ns3:TrackPointExtension>
            <ns3:atemp>17.0</ns3:atemp>
          </ns3:TrackPointExtension>
        </extensions>
      </trkpt>
      <trkpt lat="42.55205520428717136383056640625" lon="19.8309785686433315277099609375">
        <ele>926.5999755859375</ele>
        <time>2026-06-18T06:51:46.000Z</time>
        <extensions>
          <ns3:TrackPointExtension>
            <ns3:atemp>17.0</ns3:atemp>
          </ns3:TrackPointExtension>
        </extensions>
      </trkpt>
      <trkpt lat="42.55209610797464847564697265625" lon="19.8309996910393238067626953125">
        <ele>926.5999755859375</ele>
        <time>2026-06-18T06:51:47.000Z</time>
        <extensions>
          <ns3:TrackPointExtension>
            <ns3:atemp>17.0</ns3:atemp>
          </ns3:TrackPointExtension>
        </extensions>
      </trkpt>
      <trkpt lat="42.5521357543766498565673828125" lon="19.83102173544466495513916015625">
        <ele>926.5999755859375</ele>
        <time>2026-06-18T06:51:48.000Z</time>
        <extensions>
          <ns3:TrackPointExtension>
            <ns3:atemp>17.0</ns3:atemp>
          </ns3:TrackPointExtension>
        </extensions>
      </trkpt>
      <trkpt lat="42.55217707715928554534912109375" lon="19.83104319311678409576416015625">
        <ele>926.5999755859375</ele>
        <time>2026-06-18T06:51:49.000Z</time>
        <extensions>
          <ns3:TrackPointExtension>
            <ns3:atemp>17.0</ns3:atemp>
          </ns3:TrackPointExtension>
        </extensions>
      </trkpt>
      <trkpt lat="42.5522185675799846649169921875" lon="19.831060878932476043701171875">
        <ele>926.5999755859375</ele>
        <time>2026-06-18T06:51:50.000Z</time>
        <extensions>
          <ns3:TrackPointExtension>
            <ns3:atemp>17.0</ns3:atemp>
          </ns3:TrackPointExtension>
        </extensions>
      </trkpt>
      <trkpt lat="42.55225905217230319976806640625" lon="19.83107403852045536041259765625">
        <ele>926.5999755859375</ele>
        <time>2026-06-18T06:51:51.000Z</time>
        <extensions>
          <ns3:TrackPointExtension>
            <ns3:atemp>17.0</ns3:atemp>
          </ns3:TrackPointExtension>
        </extensions>
      </trkpt>
      <trkpt lat="42.55230582319200038909912109375" lon="19.83108778484165668487548828125">
        <ele>926.5999755859375</ele>
        <time>2026-06-18T06:51:52.000Z</time>
        <extensions>
          <ns3:TrackPointExtension>
            <ns3:atemp>17.0</ns3:atemp>
          </ns3:TrackPointExtension>
        </extensions>
      </trkpt>
      <trkpt lat="42.55234806798398494720458984375" lon="19.83109943568706512451171875">
        <ele>926.5999755859375</ele>
        <time>2026-06-18T06:51:53.000Z</time>
        <extensions>
          <ns3:TrackPointExtension>
            <ns3:atemp>17.0</ns3:atemp>
          </ns3:TrackPointExtension>
        </extensions>
      </trkpt>
      <trkpt lat="42.55239307880401611328125" lon="19.8311032913625240325927734375">
        <ele>926.5999755859375</ele>
        <time>2026-06-18T06:51:54.000Z</time>
        <extensions>
          <ns3:TrackPointExtension>
            <ns3:atemp>17.0</ns3:atemp>
          </ns3:TrackPointExtension>
        </extensions>
      </trkpt>
      <trkpt lat="42.55243859253823757171630859375" lon="19.83110169880092144012451171875">
        <ele>926.5999755859375</ele>
        <time>2026-06-18T06:51:55.000Z</time>
        <extensions>
          <ns3:TrackPointExtension>
            <ns3:atemp>17.0</ns3:atemp>
          </ns3:TrackPointExtension>
        </extensions>
      </trkpt>
      <trkpt lat="42.55248234607279300689697265625" lon="19.83109700493514537811279296875">
        <ele>926.79998779296875</ele>
        <time>2026-06-18T06:51:56.000Z</time>
        <extensions>
          <ns3:TrackPointExtension>
            <ns3:atemp>17.0</ns3:atemp>
          </ns3:TrackPointExtension>
        </extensions>
      </trkpt>
      <trkpt lat="42.55252324976027011871337890625" lon="19.8310907185077667236328125">
        <ele>926.79998779296875</ele>
        <time>2026-06-18T06:51:57.000Z</time>
        <extensions>
          <ns3:TrackPointExtension>
            <ns3:atemp>17.0</ns3:atemp>
          </ns3:TrackPointExtension>
        </extensions>
      </trkpt>
      <trkpt lat="42.5525649078190326690673828125" lon="19.83108376152813434600830078125">
        <ele>927</ele>
        <time>2026-06-18T06:51:58.000Z</time>
        <extensions>
          <ns3:TrackPointExtension>
            <ns3:atemp>17.0</ns3:atemp>
          </ns3:TrackPointExtension>
        </extensions>
      </trkpt>
      <trkpt lat="42.55260564386844635009765625" lon="19.83107605017721652984619140625">
        <ele>927</ele>
        <time>2026-06-18T06:51:59.000Z</time>
        <extensions>
          <ns3:TrackPointExtension>
            <ns3:atemp>17.0</ns3:atemp>
          </ns3:TrackPointExtension>
        </extensions>
      </trkpt>
      <trkpt lat="42.5526463799178600311279296875" lon="19.831072278320789337158203125">
        <ele>927.20001220703125</ele>
        <time>2026-06-18T06:52:00.000Z</time>
        <extensions>
          <ns3:TrackPointExtension>
            <ns3:atemp>17.0</ns3:atemp>
          </ns3:TrackPointExtension>
        </extensions>
      </trkpt>
      <trkpt lat="42.55268921144306659698486328125" lon="19.83107655309140682220458984375">
        <ele>927.20001220703125</ele>
        <time>2026-06-18T06:52:01.000Z</time>
        <extensions>
          <ns3:TrackPointExtension>
            <ns3:atemp>17.0</ns3:atemp>
          </ns3:TrackPointExtension>
        </extensions>
      </trkpt>
      <trkpt lat="42.55273170769214630126953125" lon="19.8310826718807220458984375">
        <ele>927.4000244140625</ele>
        <time>2026-06-18T06:52:02.000Z</time>
        <extensions>
          <ns3:TrackPointExtension>
            <ns3:atemp>17.0</ns3:atemp>
          </ns3:TrackPointExtension>
        </extensions>
      </trkpt>
      <trkpt lat="42.55277554504573345184326171875" lon="19.83109080232679843902587890625">
        <ele>927.5999755859375</ele>
        <time>2026-06-18T06:52:03.000Z</time>
        <extensions>
          <ns3:TrackPointExtension>
            <ns3:atemp>17.0</ns3:atemp>
          </ns3:TrackPointExtension>
        </extensions>
      </trkpt>
      <trkpt lat="42.55282097496092319488525390625" lon="19.83109482564032077789306640625">
        <ele>927.79998779296875</ele>
        <time>2026-06-18T06:52:04.000Z</time>
        <extensions>
          <ns3:TrackPointExtension>
            <ns3:atemp>17.0</ns3:atemp>
          </ns3:TrackPointExtension>
        </extensions>
      </trkpt>
      <trkpt lat="42.5528656505048274993896484375" lon="19.83110882341861724853515625">
        <ele>927.79998779296875</ele>
        <time>2026-06-18T06:52:05.000Z</time>
        <extensions>
          <ns3:TrackPointExtension>
            <ns3:atemp>17.0</ns3:atemp>
          </ns3:TrackPointExtension>
        </extensions>
      </trkpt>
      <trkpt lat="42.55290999077260494232177734375" lon="19.83113036490976810455322265625">
        <ele>927.79998779296875</ele>
        <time>2026-06-18T06:52:06.000Z</time>
        <extensions>
          <ns3:TrackPointExtension>
            <ns3:atemp>17.0</ns3:atemp>
          </ns3:TrackPointExtension>
        </extensions>
      </trkpt>
      <trkpt lat="42.552951313555240631103515625" lon="19.83115919865667819976806640625">
        <ele>927.79998779296875</ele>
        <time>2026-06-18T06:52:07.000Z</time>
        <extensions>
          <ns3:TrackPointExtension>
            <ns3:atemp>17.0</ns3:atemp>
          </ns3:TrackPointExtension>
        </extensions>
      </trkpt>
      <trkpt lat="42.5529927201569080352783203125" lon="19.8311953246593475341796875">
        <ele>927.79998779296875</ele>
        <time>2026-06-18T06:52:08.000Z</time>
        <extensions>
          <ns3:TrackPointExtension>
            <ns3:atemp>17.0</ns3:atemp>
          </ns3:TrackPointExtension>
        </extensions>
      </trkpt>
      <trkpt lat="42.55303488112986087799072265625" lon="19.83123094774782657623291015625">
        <ele>928</ele>
        <time>2026-06-18T06:52:09.000Z</time>
        <extensions>
          <ns3:TrackPointExtension>
            <ns3:atemp>17.0</ns3:atemp>
          </ns3:TrackPointExtension>
        </extensions>
      </trkpt>
      <trkpt lat="42.5530778802931308746337890625" lon="19.83126296661794185638427734375">
        <ele>928</ele>
        <time>2026-06-18T06:52:10.000Z</time>
        <extensions>
          <ns3:TrackPointExtension>
            <ns3:atemp>17.0</ns3:atemp>
          </ns3:TrackPointExtension>
        </extensions>
      </trkpt>
      <trkpt lat="42.55311928689479827880859375" lon="19.83129984699189662933349609375">
        <ele>928.20001220703125</ele>
        <time>2026-06-18T06:52:11.000Z</time>
        <extensions>
          <ns3:TrackPointExtension>
            <ns3:atemp>17.0</ns3:atemp>
          </ns3:TrackPointExtension>
        </extensions>
      </trkpt>
      <trkpt lat="42.55315943621098995208740234375" lon="19.83133521862328052520751953125">
        <ele>928.4000244140625</ele>
        <time>2026-06-18T06:52:12.000Z</time>
        <extensions>
          <ns3:TrackPointExtension>
            <ns3:atemp>17.0</ns3:atemp>
          </ns3:TrackPointExtension>
        </extensions>
      </trkpt>
      <trkpt lat="42.5531990826129913330078125" lon="19.83136991970241069793701171875">
        <ele>928.4000244140625</ele>
        <time>2026-06-18T06:52:13.000Z</time>
        <extensions>
          <ns3:TrackPointExtension>
            <ns3:atemp>17.0</ns3:atemp>
          </ns3:TrackPointExtension>
        </extensions>
      </trkpt>
      <trkpt lat="42.55323939956724643707275390625" lon="19.83140545897185802459716796875">
        <ele>928.5999755859375</ele>
        <time>2026-06-18T06:52:14.000Z</time>
        <extensions>
          <ns3:TrackPointExtension>
            <ns3:atemp>17.0</ns3:atemp>
          </ns3:TrackPointExtension>
        </extensions>
      </trkpt>
      <trkpt lat="42.5532813929021358489990234375" lon="19.83144183643162250518798828125">
        <ele>928.79998779296875</ele>
        <time>2026-06-18T06:52:15.000Z</time>
        <extensions>
          <ns3:TrackPointExtension>
            <ns3:atemp>17.0</ns3:atemp>
          </ns3:TrackPointExtension>
        </extensions>
      </trkpt>
      <trkpt lat="42.55332338623702526092529296875" lon="19.83147854916751384735107421875">
        <ele>928.79998779296875</ele>
        <time>2026-06-18T06:52:16.000Z</time>
        <extensions>
          <ns3:TrackPointExtension>
            <ns3:atemp>17.0</ns3:atemp>
          </ns3:TrackPointExtension>
        </extensions>
      </trkpt>
      <trkpt lat="42.5533640384674072265625" lon="19.83151325024664402008056640625">
        <ele>929</ele>
        <time>2026-06-18T06:52:17.000Z</time>
        <extensions>
          <ns3:TrackPointExtension>
            <ns3:atemp>17.0</ns3:atemp>
          </ns3:TrackPointExtension>
        </extensions>
      </trkpt>
      <trkpt lat="42.55340552888810634613037109375" lon="19.83154610730707645416259765625">
        <ele>929</ele>
        <time>2026-06-18T06:52:18.000Z</time>
        <extensions>
          <ns3:TrackPointExtension>
            <ns3:atemp>17.0</ns3:atemp>
          </ns3:TrackPointExtension>
        </extensions>
      </trkpt>
      <trkpt lat="42.553445510566234588623046875" lon="19.8315788805484771728515625">
        <ele>929</ele>
        <time>2026-06-18T06:52:19.000Z</time>
        <extensions>
          <ns3:TrackPointExtension>
            <ns3:atemp>17.0</ns3:atemp>
          </ns3:TrackPointExtension>
        </extensions>
      </trkpt>
      <trkpt lat="42.55348666571080684661865234375" lon="19.8316095583140850067138671875">
        <ele>929.20001220703125</ele>
        <time>2026-06-18T06:52:20.000Z</time>
        <extensions>
          <ns3:TrackPointExtension>
            <ns3:atemp>17.0</ns3:atemp>
          </ns3:TrackPointExtension>
        </extensions>
      </trkpt>
      <trkpt lat="42.55353033542633056640625" lon="19.83164132572710514068603515625">
        <ele>929.20001220703125</ele>
        <time>2026-06-18T06:52:21.000Z</time>
        <extensions>
          <ns3:TrackPointExtension>
            <ns3:atemp>17.0</ns3:atemp>
          </ns3:TrackPointExtension>
        </extensions>
      </trkpt>
      <trkpt lat="42.5535724125802516937255859375" lon="19.83167250640690326690673828125">
        <ele>929.20001220703125</ele>
        <time>2026-06-18T06:52:22.000Z</time>
        <extensions>
          <ns3:TrackPointExtension>
            <ns3:atemp>17.0</ns3:atemp>
          </ns3:TrackPointExtension>
        </extensions>
      </trkpt>
      <trkpt lat="42.55361842922866344451904296875" lon="19.8317061178386211395263671875">
        <ele>929.20001220703125</ele>
        <time>2026-06-18T06:52:23.000Z</time>
        <extensions>
          <ns3:TrackPointExtension>
            <ns3:atemp>17.0</ns3:atemp>
          </ns3:TrackPointExtension>
        </extensions>
      </trkpt>
      <trkpt lat="42.55366377532482147216796875" lon="19.831740818917751312255859375">
        <ele>929.20001220703125</ele>
        <time>2026-06-18T06:52:24.000Z</time>
        <extensions>
          <ns3:TrackPointExtension>
            <ns3:atemp>17.0</ns3:atemp>
          </ns3:TrackPointExtension>
        </extensions>
      </trkpt>
      <trkpt lat="42.55371079780161380767822265625" lon="19.83177241869270801544189453125">
        <ele>929.20001220703125</ele>
        <time>2026-06-18T06:52:25.000Z</time>
        <extensions>
          <ns3:TrackPointExtension>
            <ns3:atemp>17.0</ns3:atemp>
          </ns3:TrackPointExtension>
        </extensions>
      </trkpt>
      <trkpt lat="42.55376092158257961273193359375" lon="19.83180711977183818817138671875">
        <ele>929</ele>
        <time>2026-06-18T06:52:26.000Z</time>
        <extensions>
          <ns3:TrackPointExtension>
            <ns3:atemp>17.0</ns3:atemp>
          </ns3:TrackPointExtension>
        </extensions>
      </trkpt>
      <trkpt lat="42.55381138063967227935791015625" lon="19.8318432457745075225830078125">
        <ele>928.79998779296875</ele>
        <time>2026-06-18T06:52:27.000Z</time>
        <extensions>
          <ns3:TrackPointExtension>
            <ns3:atemp>17.0</ns3:atemp>
          </ns3:TrackPointExtension>
        </extensions>
      </trkpt>
      <trkpt lat="42.55386234261095523834228515625" lon="19.83188020996749401092529296875">
        <ele>928.79998779296875</ele>
        <time>2026-06-18T06:52:28.000Z</time>
        <extensions>
          <ns3:TrackPointExtension>
            <ns3:atemp>17.0</ns3:atemp>
          </ns3:TrackPointExtension>
        </extensions>
      </trkpt>
      <trkpt lat="42.55391011945903301239013671875" lon="19.83191692270338535308837890625">
        <ele>928.5999755859375</ele>
        <time>2026-06-18T06:52:29.000Z</time>
        <extensions>
          <ns3:TrackPointExtension>
            <ns3:atemp>17.0</ns3:atemp>
          </ns3:TrackPointExtension>
        </extensions>
      </trkpt>
      <trkpt lat="42.5539573095738887786865234375" lon="19.831952713429927825927734375">
        <ele>928.5999755859375</ele>
        <time>2026-06-18T06:52:30.000Z</time>
        <extensions>
          <ns3:TrackPointExtension>
            <ns3:atemp>17.0</ns3:atemp>
          </ns3:TrackPointExtension>
        </extensions>
      </trkpt>
      <trkpt lat="42.55400349386036396026611328125" lon="19.83198464848101139068603515625">
        <ele>928.5999755859375</ele>
        <time>2026-06-18T06:52:31.000Z</time>
        <extensions>
          <ns3:TrackPointExtension>
            <ns3:atemp>17.0</ns3:atemp>
          </ns3:TrackPointExtension>
        </extensions>
      </trkpt>
      <trkpt lat="42.5540525279939174652099609375" lon="19.832017086446285247802734375">
        <ele>928.5999755859375</ele>
        <time>2026-06-18T06:52:32.000Z</time>
        <extensions>
          <ns3:TrackPointExtension>
            <ns3:atemp>17.0</ns3:atemp>
          </ns3:TrackPointExtension>
        </extensions>
      </trkpt>
      <trkpt lat="42.5541029870510101318359375" lon="19.8320494405925273895263671875">
        <ele>928.4000244140625</ele>
        <time>2026-06-18T06:52:33.000Z</time>
        <extensions>
          <ns3:TrackPointExtension>
            <ns3:atemp>17.0</ns3:atemp>
          </ns3:TrackPointExtension>
        </extensions>
      </trkpt>
      <trkpt lat="42.554154954850673675537109375" lon="19.832083471119403839111328125">
        <ele>928.4000244140625</ele>
        <time>2026-06-18T06:52:34.000Z</time>
        <extensions>
          <ns3:TrackPointExtension>
            <ns3:atemp>17.0</ns3:atemp>
          </ns3:TrackPointExtension>
        </extensions>
      </trkpt>
      <trkpt lat="42.5542067550122737884521484375" lon="19.83211926184594631195068359375">
        <ele>928.20001220703125</ele>
        <time>2026-06-18T06:52:35.000Z</time>
        <extensions>
          <ns3:TrackPointExtension>
            <ns3:atemp>17.0</ns3:atemp>
          </ns3:TrackPointExtension>
        </extensions>
      </trkpt>
      <trkpt lat="42.5542587228119373321533203125" lon="19.83215220272541046142578125">
        <ele>928.20001220703125</ele>
        <time>2026-06-18T06:52:36.000Z</time>
        <extensions>
          <ns3:TrackPointExtension>
            <ns3:atemp>17.0</ns3:atemp>
          </ns3:TrackPointExtension>
        </extensions>
      </trkpt>
      <trkpt lat="42.5543100200593471527099609375" lon="19.83218581415712833404541015625">
        <ele>928</ele>
        <time>2026-06-18T06:52:37.000Z</time>
        <extensions>
          <ns3:TrackPointExtension>
            <ns3:atemp>17.0</ns3:atemp>
          </ns3:TrackPointExtension>
        </extensions>
      </trkpt>
      <trkpt lat="42.5543619878590106964111328125" lon="19.83222152106463909149169921875">
        <ele>927.79998779296875</ele>
        <time>2026-06-18T06:52:38.000Z</time>
        <extensions>
          <ns3:TrackPointExtension>
            <ns3:atemp>17.0</ns3:atemp>
          </ns3:TrackPointExtension>
        </extensions>
      </trkpt>
      <trkpt lat="42.55441353656351566314697265625" lon="19.83225605450570583343505859375">
        <ele>927.79998779296875</ele>
        <time>2026-06-18T06:52:39.000Z</time>
        <extensions>
          <ns3:TrackPointExtension>
            <ns3:atemp>17.0</ns3:atemp>
          </ns3:TrackPointExtension>
        </extensions>
      </trkpt>
      <trkpt lat="42.55446466617286205291748046875" lon="19.832293353974819183349609375">
        <ele>927.5999755859375</ele>
        <time>2026-06-18T06:52:40.000Z</time>
        <extensions>
          <ns3:TrackPointExtension>
            <ns3:atemp>17.0</ns3:atemp>
          </ns3:TrackPointExtension>
        </extensions>
      </trkpt>
      <trkpt lat="42.55451680161058902740478515625" lon="19.83232947997748851776123046875">
        <ele>927.5999755859375</ele>
        <time>2026-06-18T06:52:41.000Z</time>
        <extensions>
          <ns3:TrackPointExtension>
            <ns3:atemp>17.0</ns3:atemp>
          </ns3:TrackPointExtension>
        </extensions>
      </trkpt>
      <trkpt lat="42.5545695237815380096435546875" lon="19.8323672823607921600341796875">
        <ele>927.4000244140625</ele>
        <time>2026-06-18T06:52:42.000Z</time>
        <extensions>
          <ns3:TrackPointExtension>
            <ns3:atemp>17.0</ns3:atemp>
          </ns3:TrackPointExtension>
        </extensions>
      </trkpt>
      <trkpt lat="42.554623000323772430419921875" lon="19.8324050009250640869140625">
        <ele>927.4000244140625</ele>
        <time>2026-06-18T06:52:43.000Z</time>
        <extensions>
          <ns3:TrackPointExtension>
            <ns3:atemp>17.0</ns3:atemp>
          </ns3:TrackPointExtension>
        </extensions>
      </trkpt>
      <trkpt lat="42.5546761415898799896240234375" lon="19.832441546022891998291015625">
        <ele>927.20001220703125</ele>
        <time>2026-06-18T06:52:44.000Z</time>
        <extensions>
          <ns3:TrackPointExtension>
            <ns3:atemp>17.0</ns3:atemp>
          </ns3:TrackPointExtension>
        </extensions>
      </trkpt>
      <trkpt lat="42.55472886376082897186279296875" lon="19.83247918076813220977783203125">
        <ele>927</ele>
        <time>2026-06-18T06:52:45.000Z</time>
        <extensions>
          <ns3:TrackPointExtension>
            <ns3:atemp>17.0</ns3:atemp>
          </ns3:TrackPointExtension>
        </extensions>
      </trkpt>
      <trkpt lat="42.55477764643728733062744140625" lon="19.83251974917948246002197265625">
        <ele>927</ele>
        <time>2026-06-18T06:52:46.000Z</time>
        <extensions>
          <ns3:TrackPointExtension>
            <ns3:atemp>17.0</ns3:atemp>
          </ns3:TrackPointExtension>
        </extensions>
      </trkpt>
      <trkpt lat="42.55482659675180912017822265625" lon="19.83255830593407154083251953125">
        <ele>926.79998779296875</ele>
        <time>2026-06-18T06:52:47.000Z</time>
        <extensions>
          <ns3:TrackPointExtension>
            <ns3:atemp>17.0</ns3:atemp>
          </ns3:TrackPointExtension>
        </extensions>
      </trkpt>
      <trkpt lat="42.5548752956092357635498046875" lon="19.8326008021831512451171875">
        <ele>926.79998779296875</ele>
        <time>2026-06-18T06:52:48.000Z</time>
        <extensions>
          <ns3:TrackPointExtension>
            <ns3:atemp>17.0</ns3:atemp>
          </ns3:TrackPointExtension>
        </extensions>
      </trkpt>
      <trkpt lat="42.5549215637147426605224609375" lon="19.832638688385486602783203125">
        <ele>926.5999755859375</ele>
        <time>2026-06-18T06:52:49.000Z</time>
        <extensions>
          <ns3:TrackPointExtension>
            <ns3:atemp>17.0</ns3:atemp>
          </ns3:TrackPointExtension>
        </extensions>
      </trkpt>
      <trkpt lat="42.554962635040283203125" lon="19.832680933177471160888671875">
        <ele>926.4000244140625</ele>
        <time>2026-06-18T06:52:50.000Z</time>
        <extensions>
          <ns3:TrackPointExtension>
            <ns3:atemp>17.0</ns3:atemp>
          </ns3:TrackPointExtension>
        </extensions>
      </trkpt>
      <trkpt lat="42.55499658174812793731689453125" lon="19.832731895148754119873046875">
        <ele>926</ele>
        <time>2026-06-18T06:52:51.000Z</time>
        <extensions>
          <ns3:TrackPointExtension>
            <ns3:atemp>17.0</ns3:atemp>
          </ns3:TrackPointExtension>
        </extensions>
      </trkpt>
      <trkpt lat="42.55502776242792606353759765625" lon="19.832784868776798248291015625">
        <ele>926</ele>
        <time>2026-06-18T06:52:52.000Z</time>
        <extensions>
          <ns3:TrackPointExtension>
            <ns3:atemp>17.0</ns3:atemp>
          </ns3:TrackPointExtension>
        </extensions>
      </trkpt>
      <trkpt lat="42.5550536625087261199951171875" lon="19.83283909969031810760498046875">
        <ele>925.79998779296875</ele>
        <time>2026-06-18T06:52:53.000Z</time>
        <extensions>
          <ns3:TrackPointExtension>
            <ns3:atemp>17.0</ns3:atemp>
          </ns3:TrackPointExtension>
        </extensions>
      </trkpt>
      <trkpt lat="42.5550704263150691986083984375" lon="19.83290079049766063690185546875">
        <ele>925.79998779296875</ele>
        <time>2026-06-18T06:52:54.000Z</time>
        <extensions>
          <ns3:TrackPointExtension>
            <ns3:atemp>17.0</ns3:atemp>
          </ns3:TrackPointExtension>
        </extensions>
      </trkpt>
      <trkpt lat="42.55508358590304851531982421875" lon="19.83296063728630542755126953125">
        <ele>925.79998779296875</ele>
        <time>2026-06-18T06:52:55.000Z</time>
        <extensions>
          <ns3:TrackPointExtension>
            <ns3:atemp>17.0</ns3:atemp>
          </ns3:TrackPointExtension>
        </extensions>
      </trkpt>
      <trkpt lat="42.55509951151907444000244140625" lon="19.8330193944275379180908203125">
        <ele>925.79998779296875</ele>
        <time>2026-06-18T06:52:56.000Z</time>
        <extensions>
          <ns3:TrackPointExtension>
            <ns3:atemp>17.0</ns3:atemp>
          </ns3:TrackPointExtension>
        </extensions>
      </trkpt>
      <trkpt lat="42.555112503468990325927734375" lon="19.83308158814907073974609375">
        <ele>925.79998779296875</ele>
        <time>2026-06-18T06:52:57.000Z</time>
        <extensions>
          <ns3:TrackPointExtension>
            <ns3:atemp>17.0</ns3:atemp>
          </ns3:TrackPointExtension>
        </extensions>
      </trkpt>
      <trkpt lat="42.55512381903827190399169921875" lon="19.8331467993557453155517578125">
        <ele>925.79998779296875</ele>
        <time>2026-06-18T06:52:58.000Z</time>
        <extensions>
          <ns3:TrackPointExtension>
            <ns3:atemp>17.0</ns3:atemp>
          </ns3:TrackPointExtension>
        </extensions>
      </trkpt>
      <trkpt lat="42.5551383197307586669921875" lon="19.8332148604094982147216796875">
        <ele>925.79998779296875</ele>
        <time>2026-06-18T06:52:59.000Z</time>
        <extensions>
          <ns3:TrackPointExtension>
            <ns3:atemp>17.0</ns3:atemp>
          </ns3:TrackPointExtension>
        </extensions>
      </trkpt>
      <trkpt lat="42.55515114404261112213134765625" lon="19.83328233473002910614013671875">
        <ele>925.79998779296875</ele>
        <time>2026-06-18T06:53:00.000Z</time>
        <extensions>
          <ns3:TrackPointExtension>
            <ns3:atemp>17.0</ns3:atemp>
          </ns3:TrackPointExtension>
        </extensions>
      </trkpt>
      <trkpt lat="42.55516824312508106231689453125" lon="19.8333472944796085357666015625">
        <ele>925.5999755859375</ele>
        <time>2026-06-18T06:53:01.000Z</time>
        <extensions>
          <ns3:TrackPointExtension>
            <ns3:atemp>17.0</ns3:atemp>
          </ns3:TrackPointExtension>
        </extensions>
      </trkpt>
      <trkpt lat="42.5551887787878513336181640625" lon="19.8334076441824436187744140625">
        <ele>925.5999755859375</ele>
        <time>2026-06-18T06:53:02.000Z</time>
        <extensions>
          <ns3:TrackPointExtension>
            <ns3:atemp>17.0</ns3:atemp>
          </ns3:TrackPointExtension>
        </extensions>
      </trkpt>
      <trkpt lat="42.5552187860012054443359375" lon="19.83346103690564632415771484375">
        <ele>925.5999755859375</ele>
        <time>2026-06-18T06:53:03.000Z</time>
        <extensions>
          <ns3:TrackPointExtension>
            <ns3:atemp>17.0</ns3:atemp>
          </ns3:TrackPointExtension>
        </extensions>
      </trkpt>
      <trkpt lat="42.55525273270905017852783203125" lon="19.83351116068661212921142578125">
        <ele>925.5999755859375</ele>
        <time>2026-06-18T06:53:04.000Z</time>
        <extensions>
          <ns3:TrackPointExtension>
            <ns3:atemp>17.0</ns3:atemp>
          </ns3:TrackPointExtension>
        </extensions>
      </trkpt>
      <trkpt lat="42.55529112182557582855224609375" lon="19.83356145210564136505126953125">
        <ele>925.5999755859375</ele>
        <time>2026-06-18T06:53:05.000Z</time>
        <extensions>
          <ns3:TrackPointExtension>
            <ns3:atemp>17.0</ns3:atemp>
          </ns3:TrackPointExtension>
        </extensions>
      </trkpt>
      <trkpt lat="42.55533277988433837890625" lon="19.8336017690598964691162109375">
        <ele>925.5999755859375</ele>
        <time>2026-06-18T06:53:06.000Z</time>
        <extensions>
          <ns3:TrackPointExtension>
            <ns3:atemp>17.0</ns3:atemp>
          </ns3:TrackPointExtension>
        </extensions>
      </trkpt>
      <trkpt lat="42.55537913180887699127197265625" lon="19.8336312733590602874755859375">
        <ele>925.5999755859375</ele>
        <time>2026-06-18T06:53:07.000Z</time>
        <extensions>
          <ns3:TrackPointExtension>
            <ns3:atemp>17.0</ns3:atemp>
          </ns3:TrackPointExtension>
        </extensions>
      </trkpt>
      <trkpt lat="42.55542372353374958038330078125" lon="19.83366035856306552886962890625">
        <ele>925.5999755859375</ele>
        <time>2026-06-18T06:53:08.000Z</time>
        <extensions>
          <ns3:TrackPointExtension>
            <ns3:atemp>17.0</ns3:atemp>
          </ns3:TrackPointExtension>
        </extensions>
      </trkpt>
      <trkpt lat="42.5554727576673030853271484375" lon="19.833686091005802154541015625">
        <ele>925.4000244140625</ele>
        <time>2026-06-18T06:53:09.000Z</time>
        <extensions>
          <ns3:TrackPointExtension>
            <ns3:atemp>17.0</ns3:atemp>
          </ns3:TrackPointExtension>
        </extensions>
      </trkpt>
      <trkpt lat="42.5555180199444293975830078125" lon="19.833712913095951080322265625">
        <ele>925.4000244140625</ele>
        <time>2026-06-18T06:53:10.000Z</time>
        <extensions>
          <ns3:TrackPointExtension>
            <ns3:atemp>17.0</ns3:atemp>
          </ns3:TrackPointExtension>
        </extensions>
      </trkpt>
      <trkpt lat="42.55556420423090457916259765625" lon="19.83373328112065792083740234375">
        <ele>925.5999755859375</ele>
        <time>2026-06-18T06:53:11.000Z</time>
        <extensions>
          <ns3:TrackPointExtension>
            <ns3:atemp>17.0</ns3:atemp>
          </ns3:TrackPointExtension>
        </extensions>
      </trkpt>
      <trkpt lat="42.5556095503270626068115234375" lon="19.83374937437474727630615234375">
        <ele>925.5999755859375</ele>
        <time>2026-06-18T06:53:12.000Z</time>
        <extensions>
          <ns3:TrackPointExtension>
            <ns3:atemp>17.0</ns3:atemp>
          </ns3:TrackPointExtension>
        </extensions>
      </trkpt>
      <trkpt lat="42.555657662451267242431640625" lon="19.8337603546679019927978515625">
        <ele>925.5999755859375</ele>
        <time>2026-06-18T06:53:13.000Z</time>
        <extensions>
          <ns3:TrackPointExtension>
            <ns3:atemp>17.0</ns3:atemp>
          </ns3:TrackPointExtension>
        </extensions>
      </trkpt>
      <trkpt lat="42.55570753477513790130615234375" lon="19.83376965858042240142822265625">
        <ele>925.79998779296875</ele>
        <time>2026-06-18T06:53:14.000Z</time>
        <extensions>
          <ns3:TrackPointExtension>
            <ns3:atemp>17.0</ns3:atemp>
          </ns3:TrackPointExtension>
        </extensions>
      </trkpt>
      <trkpt lat="42.55576352588832378387451171875" lon="19.83377619646489620208740234375">
        <ele>925.79998779296875</ele>
        <time>2026-06-18T06:53:15.000Z</time>
        <extensions>
          <ns3:TrackPointExtension>
            <ns3:atemp>17.0</ns3:atemp>
          </ns3:TrackPointExtension>
        </extensions>
      </trkpt>
      <trkpt lat="42.5558174215257167816162109375" lon="19.83378139324486255645751953125">
        <ele>925.79998779296875</ele>
        <time>2026-06-18T06:53:16.000Z</time>
        <extensions>
          <ns3:TrackPointExtension>
            <ns3:atemp>17.0</ns3:atemp>
          </ns3:TrackPointExtension>
        </extensions>
      </trkpt>
      <trkpt lat="42.5558714009821414947509765625" lon="19.833779968321323394775390625">
        <ele>925.5999755859375</ele>
        <time>2026-06-18T06:53:17.000Z</time>
        <extensions>
          <ns3:TrackPointExtension>
            <ns3:atemp>17.0</ns3:atemp>
          </ns3:TrackPointExtension>
        </extensions>
      </trkpt>
      <trkpt lat="42.555924542248249053955078125" lon="19.83377384953200817108154296875">
        <ele>925.4000244140625</ele>
        <time>2026-06-18T06:53:18.000Z</time>
        <extensions>
          <ns3:TrackPointExtension>
            <ns3:atemp>17.0</ns3:atemp>
          </ns3:TrackPointExtension>
        </extensions>
      </trkpt>
      <trkpt lat="42.55597583949565887451171875" lon="19.83376764692366123199462890625">
        <ele>925.4000244140625</ele>
        <time>2026-06-18T06:53:19.000Z</time>
        <extensions>
          <ns3:TrackPointExtension>
            <ns3:atemp>17.0</ns3:atemp>
          </ns3:TrackPointExtension>
        </extensions>
      </trkpt>
      <trkpt lat="42.55602814257144927978515625" lon="19.8337566666305065155029296875">
        <ele>925.20001220703125</ele>
        <time>2026-06-18T06:53:20.000Z</time>
        <extensions>
          <ns3:TrackPointExtension>
            <ns3:atemp>17.0</ns3:atemp>
          </ns3:TrackPointExtension>
        </extensions>
      </trkpt>
      <trkpt lat="42.556080110371112823486328125" lon="19.83374451287090778350830078125">
        <ele>925.20001220703125</ele>
        <time>2026-06-18T06:53:21.000Z</time>
        <extensions>
          <ns3:TrackPointExtension>
            <ns3:atemp>17.0</ns3:atemp>
          </ns3:TrackPointExtension>
        </extensions>
      </trkpt>
      <trkpt lat="42.5561305694282054901123046875" lon="19.833731018006801605224609375">
        <ele>925.20001220703125</ele>
        <time>2026-06-18T06:53:22.000Z</time>
        <extensions>
          <ns3:TrackPointExtension>
            <ns3:atemp>17.0</ns3:atemp>
          </ns3:TrackPointExtension>
        </extensions>
      </trkpt>
      <trkpt lat="42.55618195049464702606201171875" lon="19.8337177745997905731201171875">
        <ele>925.20001220703125</ele>
        <time>2026-06-18T06:53:23.000Z</time>
        <extensions>
          <ns3:TrackPointExtension>
            <ns3:atemp>17.0</ns3:atemp>
          </ns3:TrackPointExtension>
        </extensions>
      </trkpt>
      <trkpt lat="42.55623400211334228515625" lon="19.83370545320212841033935546875">
        <ele>925.20001220703125</ele>
        <time>2026-06-18T06:53:24.000Z</time>
        <extensions>
          <ns3:TrackPointExtension>
            <ns3:atemp>17.0</ns3:atemp>
          </ns3:TrackPointExtension>
        </extensions>
      </trkpt>
      <trkpt lat="42.5562837906181812286376953125" lon="19.8336795531213283538818359375">
        <ele>925</ele>
        <time>2026-06-18T06:53:25.000Z</time>
        <extensions>
          <ns3:TrackPointExtension>
            <ns3:atemp>17.0</ns3:atemp>
          </ns3:TrackPointExtension>
        </extensions>
      </trkpt>
      <trkpt lat="42.55632997490465641021728515625" lon="19.83364208601415157318115234375">
        <ele>925</ele>
        <time>2026-06-18T06:53:26.000Z</time>
        <extensions>
          <ns3:TrackPointExtension>
            <ns3:atemp>17.0</ns3:atemp>
          </ns3:TrackPointExtension>
        </extensions>
      </trkpt>
      <trkpt lat="42.556376494467258453369140625" lon="19.8336121626198291778564453125">
        <ele>925</ele>
        <time>2026-06-18T06:53:27.000Z</time>
        <extensions>
          <ns3:TrackPointExtension>
            <ns3:atemp>17.0</ns3:atemp>
          </ns3:TrackPointExtension>
        </extensions>
      </trkpt>
      <trkpt lat="42.55642603151500225067138671875" lon="19.83358911238610744476318359375">
        <ele>925</ele>
        <time>2026-06-18T06:53:28.000Z</time>
        <extensions>
          <ns3:TrackPointExtension>
            <ns3:atemp>17.0</ns3:atemp>
          </ns3:TrackPointExtension>
        </extensions>
      </trkpt>
      <trkpt lat="42.5564759038388729095458984375" lon="19.83356681652367115020751953125">
        <ele>925</ele>
        <time>2026-06-18T06:53:29.000Z</time>
        <extensions>
          <ns3:TrackPointExtension>
            <ns3:atemp>17.0</ns3:atemp>
          </ns3:TrackPointExtension>
        </extensions>
      </trkpt>
      <trkpt lat="42.55652460269629955291748046875" lon="19.83354385010898113250732421875">
        <ele>925.20001220703125</ele>
        <time>2026-06-18T06:53:30.000Z</time>
        <extensions>
          <ns3:TrackPointExtension>
            <ns3:atemp>17.0</ns3:atemp>
          </ns3:TrackPointExtension>
        </extensions>
      </trkpt>
      <trkpt lat="42.55657539702951908111572265625" lon="19.83352415263652801513671875">
        <ele>925</ele>
        <time>2026-06-18T06:53:31.000Z</time>
        <extensions>
          <ns3:TrackPointExtension>
            <ns3:atemp>17.0</ns3:atemp>
          </ns3:TrackPointExtension>
        </extensions>
      </trkpt>
      <trkpt lat="42.55662803538143634796142578125" lon="19.8335065506398677825927734375">
        <ele>925</ele>
        <time>2026-06-18T06:53:32.000Z</time>
        <extensions>
          <ns3:TrackPointExtension>
            <ns3:atemp>17.0</ns3:atemp>
          </ns3:TrackPointExtension>
        </extensions>
      </trkpt>
      <trkpt lat="42.5566817633807659149169921875" lon="19.83349137939512729644775390625">
        <ele>924.79998779296875</ele>
        <time>2026-06-18T06:53:33.000Z</time>
        <extensions>
          <ns3:TrackPointExtension>
            <ns3:atemp>17.0</ns3:atemp>
          </ns3:TrackPointExtension>
        </extensions>
      </trkpt>
      <trkpt lat="42.55673356354236602783203125" lon="19.83349188230931758880615234375">
        <ele>924.79998779296875</ele>
        <time>2026-06-18T06:53:34.000Z</time>
        <extensions>
          <ns3:TrackPointExtension>
            <ns3:atemp>17.0</ns3:atemp>
          </ns3:TrackPointExtension>
        </extensions>
      </trkpt>
      <trkpt lat="42.55678343586623668670654296875" lon="19.83350143767893314361572265625">
        <ele>924.79998779296875</ele>
        <time>2026-06-18T06:53:35.000Z</time>
        <extensions>
          <ns3:TrackPointExtension>
            <ns3:atemp>17.0</ns3:atemp>
          </ns3:TrackPointExtension>
        </extensions>
      </trkpt>
      <trkpt lat="42.556830458343029022216796875" lon="19.8335176147520542144775390625">
        <ele>924.79998779296875</ele>
        <time>2026-06-18T06:53:36.000Z</time>
        <extensions>
          <ns3:TrackPointExtension>
            <ns3:atemp>17.0</ns3:atemp>
          </ns3:TrackPointExtension>
        </extensions>
      </trkpt>
      <trkpt lat="42.5568775646388530731201171875" lon="19.8335380665957927703857421875">
        <ele>925</ele>
        <time>2026-06-18T06:53:37.000Z</time>
        <extensions>
          <ns3:TrackPointExtension>
            <ns3:atemp>17.0</ns3:atemp>
          </ns3:TrackPointExtension>
        </extensions>
      </trkpt>
      <trkpt lat="42.556925676763057708740234375" lon="19.833565391600131988525390625">
        <ele>925</ele>
        <time>2026-06-18T06:53:38.000Z</time>
        <extensions>
          <ns3:TrackPointExtension>
            <ns3:atemp>17.0</ns3:atemp>
          </ns3:TrackPointExtension>
        </extensions>
      </trkpt>
      <trkpt lat="42.55697554908692836761474609375" lon="19.83359497971832752227783203125">
        <ele>925</ele>
        <time>2026-06-18T06:53:39.000Z</time>
        <extensions>
          <ns3:TrackPointExtension>
            <ns3:atemp>17.0</ns3:atemp>
          </ns3:TrackPointExtension>
        </extensions>
      </trkpt>
      <trkpt lat="42.557024918496608734130859375" lon="19.8336289264261722564697265625">
        <ele>925</ele>
        <time>2026-06-18T06:53:40.000Z</time>
        <extensions>
          <ns3:TrackPointExtension>
            <ns3:atemp>17.0</ns3:atemp>
          </ns3:TrackPointExtension>
        </extensions>
      </trkpt>
      <trkpt lat="42.55706992931663990020751953125" lon="19.83366555534303188323974609375">
        <ele>925</ele>
        <time>2026-06-18T06:53:41.000Z</time>
        <extensions>
          <ns3:TrackPointExtension>
            <ns3:atemp>17.0</ns3:atemp>
          </ns3:TrackPointExtension>
        </extensions>
      </trkpt>
      <trkpt lat="42.5571124255657196044921875" lon="19.8337073810398578643798828125">
        <ele>924.79998779296875</ele>
        <time>2026-06-18T06:53:42.000Z</time>
        <extensions>
          <ns3:TrackPointExtension>
            <ns3:atemp>17.0</ns3:atemp>
          </ns3:TrackPointExtension>
        </extensions>
      </trkpt>
      <trkpt lat="42.55715592764317989349365234375" lon="19.83375239185988903045654296875">
        <ele>924.79998779296875</ele>
        <time>2026-06-18T06:53:43.000Z</time>
        <extensions>
          <ns3:TrackPointExtension>
            <ns3:atemp>17.0</ns3:atemp>
          </ns3:TrackPointExtension>
        </extensions>
      </trkpt>
      <trkpt lat="42.557193897664546966552734375" lon="19.83379949815571308135986328125">
        <ele>924.79998779296875</ele>
        <time>2026-06-18T06:53:44.000Z</time>
        <extensions>
          <ns3:TrackPointExtension>
            <ns3:atemp>17.0</ns3:atemp>
          </ns3:TrackPointExtension>
        </extensions>
      </trkpt>
      <trkpt lat="42.557226754724979400634765625" lon="19.83385364525020122528076171875">
        <ele>924.79998779296875</ele>
        <time>2026-06-18T06:53:45.000Z</time>
        <extensions>
          <ns3:TrackPointExtension>
            <ns3:atemp>17.0</ns3:atemp>
          </ns3:TrackPointExtension>
        </extensions>
      </trkpt>
      <trkpt lat="42.55725818686187267303466796875" lon="19.83391332440078258514404296875">
        <ele>924.79998779296875</ele>
        <time>2026-06-18T06:53:46.000Z</time>
        <extensions>
          <ns3:TrackPointExtension>
            <ns3:atemp>17.0</ns3:atemp>
          </ns3:TrackPointExtension>
        </extensions>
      </trkpt>
      <trkpt lat="42.5572876073420047760009765625" lon="19.83397551812231540679931640625">
        <ele>924.79998779296875</ele>
        <time>2026-06-18T06:53:47.000Z</time>
        <extensions>
          <ns3:TrackPointExtension>
            <ns3:atemp>17.0</ns3:atemp>
          </ns3:TrackPointExtension>
        </extensions>
      </trkpt>
      <trkpt lat="42.5573164410889148712158203125" lon="19.8340399749577045440673828125">
        <ele>924.79998779296875</ele>
        <time>2026-06-18T06:53:48.000Z</time>
        <extensions>
          <ns3:TrackPointExtension>
            <ns3:atemp>17.0</ns3:atemp>
          </ns3:TrackPointExtension>
        </extensions>
      </trkpt>
      <trkpt lat="42.557344101369380950927734375" lon="19.8341020010411739349365234375">
        <ele>924.79998779296875</ele>
        <time>2026-06-18T06:53:49.000Z</time>
        <extensions>
          <ns3:TrackPointExtension>
            <ns3:atemp>17.0</ns3:atemp>
          </ns3:TrackPointExtension>
        </extensions>
      </trkpt>
      <trkpt lat="42.55737184546887874603271484375" lon="19.8341630212962627410888671875">
        <ele>924.79998779296875</ele>
        <time>2026-06-18T06:53:50.000Z</time>
        <extensions>
          <ns3:TrackPointExtension>
            <ns3:atemp>17.0</ns3:atemp>
          </ns3:TrackPointExtension>
        </extensions>
      </trkpt>
      <trkpt lat="42.557397745549678802490234375" lon="19.83422379009425640106201171875">
        <ele>924.79998779296875</ele>
        <time>2026-06-18T06:53:51.000Z</time>
        <extensions>
          <ns3:TrackPointExtension>
            <ns3:atemp>17.0</ns3:atemp>
          </ns3:TrackPointExtension>
        </extensions>
      </trkpt>
      <trkpt lat="42.557422220706939697265625" lon="19.8342884145677089691162109375">
        <ele>924.79998779296875</ele>
        <time>2026-06-18T06:53:52.000Z</time>
        <extensions>
          <ns3:TrackPointExtension>
            <ns3:atemp>17.0</ns3:atemp>
          </ns3:TrackPointExtension>
        </extensions>
      </trkpt>
      <trkpt lat="42.5574482046067714691162109375" lon="19.834350608289241790771484375">
        <ele>924.79998779296875</ele>
        <time>2026-06-18T06:53:53.000Z</time>
        <extensions>
          <ns3:TrackPointExtension>
            <ns3:atemp>17.0</ns3:atemp>
          </ns3:TrackPointExtension>
        </extensions>
      </trkpt>
      <trkpt lat="42.55747762508690357208251953125" lon="19.8344081081449985504150390625">
        <ele>924.5999755859375</ele>
        <time>2026-06-18T06:53:54.000Z</time>
        <extensions>
          <ns3:TrackPointExtension>
            <ns3:atemp>17.0</ns3:atemp>
          </ns3:TrackPointExtension>
        </extensions>
      </trkpt>
      <trkpt lat="42.55750897340476512908935546875" lon="19.83446426689624786376953125">
        <ele>924.5999755859375</ele>
        <time>2026-06-18T06:53:55.000Z</time>
        <extensions>
          <ns3:TrackPointExtension>
            <ns3:atemp>17.0</ns3:atemp>
          </ns3:TrackPointExtension>
        </extensions>
      </trkpt>
      <trkpt lat="42.557543255388736724853515625" lon="19.8345187492668628692626953125">
        <ele>924.5999755859375</ele>
        <time>2026-06-18T06:53:56.000Z</time>
        <extensions>
          <ns3:TrackPointExtension>
            <ns3:atemp>17.0</ns3:atemp>
          </ns3:TrackPointExtension>
        </extensions>
      </trkpt>
      <trkpt lat="42.55758156068623065948486328125" lon="19.83457021415233612060546875">
        <ele>924.5999755859375</ele>
        <time>2026-06-18T06:53:57.000Z</time>
        <extensions>
          <ns3:TrackPointExtension>
            <ns3:atemp>17.0</ns3:atemp>
          </ns3:TrackPointExtension>
        </extensions>
      </trkpt>
      <trkpt lat="42.5576218776404857635498046875" lon="19.83461857773363590240478515625">
        <ele>924.4000244140625</ele>
        <time>2026-06-18T06:53:58.000Z</time>
        <extensions>
          <ns3:TrackPointExtension>
            <ns3:atemp>17.0</ns3:atemp>
          </ns3:TrackPointExtension>
        </extensions>
      </trkpt>
      <trkpt lat="42.5576624460518360137939453125" lon="19.8346672765910625457763671875">
        <ele>924.4000244140625</ele>
        <time>2026-06-18T06:53:59.000Z</time>
        <extensions>
          <ns3:TrackPointExtension>
            <ns3:atemp>17.0</ns3:atemp>
          </ns3:TrackPointExtension>
        </extensions>
      </trkpt>
      <trkpt lat="42.55770427174866199493408203125" lon="19.83471580781042575836181640625">
        <ele>924.4000244140625</ele>
        <time>2026-06-18T06:54:00.000Z</time>
        <extensions>
          <ns3:TrackPointExtension>
            <ns3:atemp>17.0</ns3:atemp>
          </ns3:TrackPointExtension>
        </extensions>
      </trkpt>
      <trkpt lat="42.5577481091022491455078125" lon="19.8347572982311248779296875">
        <ele>924.4000244140625</ele>
        <time>2026-06-18T06:54:01.000Z</time>
        <extensions>
          <ns3:TrackPointExtension>
            <ns3:atemp>17.0</ns3:atemp>
          </ns3:TrackPointExtension>
        </extensions>
      </trkpt>
      <trkpt lat="42.557795383036136627197265625" lon="19.83479191549122333526611328125">
        <ele>924.4000244140625</ele>
        <time>2026-06-18T06:54:02.000Z</time>
        <extensions>
          <ns3:TrackPointExtension>
            <ns3:atemp>17.0</ns3:atemp>
          </ns3:TrackPointExtension>
        </extensions>
      </trkpt>
      <trkpt lat="42.55784290842711925506591796875" lon="19.83482192270457744598388671875">
        <ele>924.20001220703125</ele>
        <time>2026-06-18T06:54:03.000Z</time>
        <extensions>
          <ns3:TrackPointExtension>
            <ns3:atemp>17.0</ns3:atemp>
          </ns3:TrackPointExtension>
        </extensions>
      </trkpt>
      <trkpt lat="42.557891942560672760009765625" lon="19.83485008589923381805419921875">
        <ele>924.20001220703125</ele>
        <time>2026-06-18T06:54:04.000Z</time>
        <extensions>
          <ns3:TrackPointExtension>
            <ns3:atemp>17.0</ns3:atemp>
          </ns3:TrackPointExtension>
        </extensions>
      </trkpt>
      <trkpt lat="42.5579417310655117034912109375" lon="19.8348744772374629974365234375">
        <ele>924.20001220703125</ele>
        <time>2026-06-18T06:54:05.000Z</time>
        <extensions>
          <ns3:TrackPointExtension>
            <ns3:atemp>17.0</ns3:atemp>
          </ns3:TrackPointExtension>
        </extensions>
      </trkpt>
      <trkpt lat="42.5579921901226043701171875" lon="19.834896437823772430419921875">
        <ele>924.20001220703125</ele>
        <time>2026-06-18T06:54:06.000Z</time>
        <extensions>
          <ns3:TrackPointExtension>
            <ns3:atemp>17.0</ns3:atemp>
          </ns3:TrackPointExtension>
        </extensions>
      </trkpt>
      <trkpt lat="42.55804088898003101348876953125" lon="19.83491756021976470947265625">
        <ele>924.20001220703125</ele>
        <time>2026-06-18T06:54:07.000Z</time>
        <extensions>
          <ns3:TrackPointExtension>
            <ns3:atemp>17.0</ns3:atemp>
          </ns3:TrackPointExtension>
        </extensions>
      </trkpt>
      <trkpt lat="42.55808849819004535675048828125" lon="19.8349418677389621734619140625">
        <ele>924.20001220703125</ele>
        <time>2026-06-18T06:54:08.000Z</time>
        <extensions>
          <ns3:TrackPointExtension>
            <ns3:atemp>17.0</ns3:atemp>
          </ns3:TrackPointExtension>
        </extensions>
      </trkpt>
      <trkpt lat="42.558135688304901123046875" lon="19.83496475033462047576904296875">
        <ele>924.20001220703125</ele>
        <time>2026-06-18T06:54:09.000Z</time>
        <extensions>
          <ns3:TrackPointExtension>
            <ns3:atemp>17.0</ns3:atemp>
          </ns3:TrackPointExtension>
        </extensions>
      </trkpt>
      <trkpt lat="42.55817969329655170440673828125" lon="19.8349998705089092254638671875">
        <ele>924.20001220703125</ele>
        <time>2026-06-18T06:54:10.000Z</time>
        <extensions>
          <ns3:TrackPointExtension>
            <ns3:atemp>17.0</ns3:atemp>
          </ns3:TrackPointExtension>
        </extensions>
      </trkpt>
      <trkpt lat="42.558221854269504547119140625" lon="19.83503029681742191314697265625">
        <ele>924</ele>
        <time>2026-06-18T06:54:11.000Z</time>
        <extensions>
          <ns3:TrackPointExtension>
            <ns3:atemp>17.0</ns3:atemp>
          </ns3:TrackPointExtension>
        </extensions>
      </trkpt>
      <trkpt lat="42.55826787091791629791259765625" lon="19.83505862765014171600341796875">
        <ele>924</ele>
        <time>2026-06-18T06:54:12.000Z</time>
        <extensions>
          <ns3:TrackPointExtension>
            <ns3:atemp>17.0</ns3:atemp>
          </ns3:TrackPointExtension>
        </extensions>
      </trkpt>
      <trkpt lat="42.55831539630889892578125" lon="19.83508519828319549560546875">
        <ele>924</ele>
        <time>2026-06-18T06:54:13.000Z</time>
        <extensions>
          <ns3:TrackPointExtension>
            <ns3:atemp>17.0</ns3:atemp>
          </ns3:TrackPointExtension>
        </extensions>
      </trkpt>
      <trkpt lat="42.55836392752826213836669921875" lon="19.835110008716583251953125">
        <ele>924.20001220703125</ele>
        <time>2026-06-18T06:54:14.000Z</time>
        <extensions>
          <ns3:TrackPointExtension>
            <ns3:atemp>17.0</ns3:atemp>
          </ns3:TrackPointExtension>
        </extensions>
      </trkpt>
      <trkpt lat="42.55841807462275028228759765625" lon="19.83513792045414447784423828125">
        <ele>924.20001220703125</ele>
        <time>2026-06-18T06:54:15.000Z</time>
        <extensions>
          <ns3:TrackPointExtension>
            <ns3:atemp>17.0</ns3:atemp>
          </ns3:TrackPointExtension>
        </extensions>
      </trkpt>
      <trkpt lat="42.55847138352692127227783203125" lon="19.83516164124011993408203125">
        <ele>924.20001220703125</ele>
        <time>2026-06-18T06:54:16.000Z</time>
        <extensions>
          <ns3:TrackPointExtension>
            <ns3:atemp>17.0</ns3:atemp>
          </ns3:TrackPointExtension>
        </extensions>
      </trkpt>
      <trkpt lat="42.558522261679172515869140625" lon="19.8351832665503025054931640625">
        <ele>924.20001220703125</ele>
        <time>2026-06-18T06:54:17.000Z</time>
        <extensions>
          <ns3:TrackPointExtension>
            <ns3:atemp>17.0</ns3:atemp>
          </ns3:TrackPointExtension>
        </extensions>
      </trkpt>
      <trkpt lat="42.55857414565980434417724609375" lon="19.8352060653269290924072265625">
        <ele>924</ele>
        <time>2026-06-18T06:54:18.000Z</time>
        <extensions>
          <ns3:TrackPointExtension>
            <ns3:atemp>17.0</ns3:atemp>
          </ns3:TrackPointExtension>
        </extensions>
      </trkpt>
      <trkpt lat="42.55862879566848278045654296875" lon="19.83522056601941585540771484375">
        <ele>924</ele>
        <time>2026-06-18T06:54:19.000Z</time>
        <extensions>
          <ns3:TrackPointExtension>
            <ns3:atemp>17.0</ns3:atemp>
          </ns3:TrackPointExtension>
        </extensions>
      </trkpt>
      <trkpt lat="42.55868109874427318572998046875" lon="19.83523598872125148773193359375">
        <ele>923.79998779296875</ele>
        <time>2026-06-18T06:54:20.000Z</time>
        <extensions>
          <ns3:TrackPointExtension>
            <ns3:atemp>17.0</ns3:atemp>
          </ns3:TrackPointExtension>
        </extensions>
      </trkpt>
      <trkpt lat="42.55873306654393672943115234375" lon="19.8352526687085628509521484375">
        <ele>923.79998779296875</ele>
        <time>2026-06-18T06:54:21.000Z</time>
        <extensions>
          <ns3:TrackPointExtension>
            <ns3:atemp>17.0</ns3:atemp>
          </ns3:TrackPointExtension>
        </extensions>
      </trkpt>
      <trkpt lat="42.5587839446961879730224609375" lon="19.83526515774428844451904296875">
        <ele>923.79998779296875</ele>
        <time>2026-06-18T06:54:22.000Z</time>
        <extensions>
          <ns3:TrackPointExtension>
            <ns3:atemp>17.0</ns3:atemp>
          </ns3:TrackPointExtension>
        </extensions>
      </trkpt>
      <trkpt lat="42.55883582867681980133056640625" lon="19.83527119271457195281982421875">
        <ele>923.79998779296875</ele>
        <time>2026-06-18T06:54:23.000Z</time>
        <extensions>
          <ns3:TrackPointExtension>
            <ns3:atemp>17.0</ns3:atemp>
          </ns3:TrackPointExtension>
        </extensions>
      </trkpt>
      <trkpt lat="42.55889131687581539154052734375" lon="19.83528426848351955413818359375">
        <ele>923.79998779296875</ele>
        <time>2026-06-18T06:54:24.000Z</time>
        <extensions>
          <ns3:TrackPointExtension>
            <ns3:atemp>17.0</ns3:atemp>
          </ns3:TrackPointExtension>
        </extensions>
      </trkpt>
      <trkpt lat="42.5589438714087009429931640625" lon="19.83529709279537200927734375">
        <ele>923.79998779296875</ele>
        <time>2026-06-18T06:54:25.000Z</time>
        <extensions>
          <ns3:TrackPointExtension>
            <ns3:atemp>17.0</ns3:atemp>
          </ns3:TrackPointExtension>
        </extensions>
      </trkpt>
      <trkpt lat="42.55899759940803050994873046875" lon="19.83531243167817592620849609375">
        <ele>923.79998779296875</ele>
        <time>2026-06-18T06:54:26.000Z</time>
        <extensions>
          <ns3:TrackPointExtension>
            <ns3:atemp>17.0</ns3:atemp>
          </ns3:TrackPointExtension>
        </extensions>
      </trkpt>
      <trkpt lat="42.55905023775994777679443359375" lon="19.83532525599002838134765625">
        <ele>923.79998779296875</ele>
        <time>2026-06-18T06:54:27.000Z</time>
        <extensions>
          <ns3:TrackPointExtension>
            <ns3:atemp>17.0</ns3:atemp>
          </ns3:TrackPointExtension>
        </extensions>
      </trkpt>
      <trkpt lat="42.55910488776862621307373046875" lon="19.835328944027423858642578125">
        <ele>923.5999755859375</ele>
        <time>2026-06-18T06:54:28.000Z</time>
        <extensions>
          <ns3:TrackPointExtension>
            <ns3:atemp>17.0</ns3:atemp>
          </ns3:TrackPointExtension>
        </extensions>
      </trkpt>
      <trkpt lat="42.5591618008911609649658203125" lon="19.83533171005547046661376953125">
        <ele>923.5999755859375</ele>
        <time>2026-06-18T06:54:29.000Z</time>
        <extensions>
          <ns3:TrackPointExtension>
            <ns3:atemp>17.0</ns3:atemp>
          </ns3:TrackPointExtension>
        </extensions>
      </trkpt>
      <trkpt lat="42.559214271605014801025390625" lon="19.83532383106648921966552734375">
        <ele>923.5999755859375</ele>
        <time>2026-06-18T06:54:30.000Z</time>
        <extensions>
          <ns3:TrackPointExtension>
            <ns3:atemp>17.0</ns3:atemp>
          </ns3:TrackPointExtension>
        </extensions>
      </trkpt>
      <trkpt lat="42.55926632322371006011962890625" lon="19.8353106714785099029541015625">
        <ele>923.5999755859375</ele>
        <time>2026-06-18T06:54:31.000Z</time>
        <extensions>
          <ns3:TrackPointExtension>
            <ns3:atemp>17.0</ns3:atemp>
          </ns3:TrackPointExtension>
        </extensions>
      </trkpt>
      <trkpt lat="42.55931694991886615753173828125" lon="19.8353012837469577789306640625">
        <ele>923.5999755859375</ele>
        <time>2026-06-18T06:54:32.000Z</time>
        <extensions>
          <ns3:TrackPointExtension>
            <ns3:atemp>17.0</ns3:atemp>
          </ns3:TrackPointExtension>
        </extensions>
      </trkpt>
      <trkpt lat="42.559365145862102508544921875" lon="19.835287034511566162109375">
        <ele>923.5999755859375</ele>
        <time>2026-06-18T06:54:33.000Z</time>
        <extensions>
          <ns3:TrackPointExtension>
            <ns3:atemp>17.0</ns3:atemp>
          </ns3:TrackPointExtension>
        </extensions>
      </trkpt>
      <trkpt lat="42.55941133014857769012451171875" lon="19.83527219854295253753662109375">
        <ele>923.5999755859375</ele>
        <time>2026-06-18T06:54:34.000Z</time>
        <extensions>
          <ns3:TrackPointExtension>
            <ns3:atemp>17.0</ns3:atemp>
          </ns3:TrackPointExtension>
        </extensions>
      </trkpt>
      <trkpt lat="42.5594541616737842559814453125" lon="19.83525778166949748992919921875">
        <ele>923.5999755859375</ele>
        <time>2026-06-18T06:54:35.000Z</time>
        <extensions>
          <ns3:TrackPointExtension>
            <ns3:atemp>17.0</ns3:atemp>
          </ns3:TrackPointExtension>
        </extensions>
      </trkpt>
      <trkpt lat="42.55948827601969242095947265625" lon="19.83523934148252010345458984375">
        <ele>923.5999755859375</ele>
        <time>2026-06-18T06:54:36.000Z</time>
        <extensions>
          <ns3:TrackPointExtension>
            <ns3:atemp>17.0</ns3:atemp>
          </ns3:TrackPointExtension>
        </extensions>
      </trkpt>
      <trkpt lat="42.55952096544206142425537109375" lon="19.83522660098969936370849609375">
        <ele>923.79998779296875</ele>
        <time>2026-06-18T06:54:37.000Z</time>
        <extensions>
          <ns3:TrackPointExtension>
            <ns3:atemp>17.0</ns3:atemp>
          </ns3:TrackPointExtension>
        </extensions>
      </trkpt>
      <trkpt lat="42.55955784581601619720458984375" lon="19.83520933426916599273681640625">
        <ele>923.79998779296875</ele>
        <time>2026-06-18T06:54:38.000Z</time>
        <extensions>
          <ns3:TrackPointExtension>
            <ns3:atemp>17.0</ns3:atemp>
          </ns3:TrackPointExtension>
        </extensions>
      </trkpt>
      <trkpt lat="42.559585087001323699951171875" lon="19.8351846076548099517822265625">
        <ele>924</ele>
        <time>2026-06-18T06:54:39.000Z</time>
        <extensions>
          <ns3:TrackPointExtension>
            <ns3:atemp>18.0</ns3:atemp>
          </ns3:TrackPointExtension>
        </extensions>
      </trkpt>
      <trkpt lat="42.55961484275758266448974609375" lon="19.8351544328033924102783203125">
        <ele>924</ele>
        <time>2026-06-18T06:54:40.000Z</time>
        <extensions>
          <ns3:TrackPointExtension>
            <ns3:atemp>17.0</ns3:atemp>
          </ns3:TrackPointExtension>
        </extensions>
      </trkpt>
      <trkpt lat="42.5596435926854610443115234375" lon="19.83512367121875286102294921875">
        <ele>923.79998779296875</ele>
        <time>2026-06-18T06:54:41.000Z</time>
        <extensions>
          <ns3:TrackPointExtension>
            <ns3:atemp>18.0</ns3:atemp>
          </ns3:TrackPointExtension>
        </extensions>
      </trkpt>
      <trkpt lat="42.5596754439175128936767578125" lon="19.83509450219571590423583984375">
        <ele>923.79998779296875</ele>
        <time>2026-06-18T06:54:42.000Z</time>
        <extensions>
          <ns3:TrackPointExtension>
            <ns3:atemp>17.0</ns3:atemp>
          </ns3:TrackPointExtension>
        </extensions>
      </trkpt>
      <trkpt lat="42.55970452912151813507080078125" lon="19.83505879528820514678955078125">
        <ele>923.5999755859375</ele>
        <time>2026-06-18T06:54:43.000Z</time>
        <extensions>
          <ns3:TrackPointExtension>
            <ns3:atemp>18.0</ns3:atemp>
          </ns3:TrackPointExtension>
        </extensions>
      </trkpt>
      <trkpt lat="42.5597334466874599456787109375" lon="19.8350213281810283660888671875">
        <ele>923.5999755859375</ele>
        <time>2026-06-18T06:54:44.000Z</time>
        <extensions>
          <ns3:TrackPointExtension>
            <ns3:atemp>18.0</ns3:atemp>
          </ns3:TrackPointExtension>
        </extensions>
      </trkpt>
      <trkpt lat="42.5597626157104969024658203125" lon="19.83498251996934413909912109375">
        <ele>923.5999755859375</ele>
        <time>2026-06-18T06:54:45.000Z</time>
        <extensions>
          <ns3:TrackPointExtension>
            <ns3:atemp>18.0</ns3:atemp>
          </ns3:TrackPointExtension>
        </extensions>
      </trkpt>
      <trkpt lat="42.5597914494574069976806640625" lon="19.83494580723345279693603515625">
        <ele>923.5999755859375</ele>
        <time>2026-06-18T06:54:46.000Z</time>
        <extensions>
          <ns3:TrackPointExtension>
            <ns3:atemp>18.0</ns3:atemp>
          </ns3:TrackPointExtension>
        </extensions>
      </trkpt>
      <trkpt lat="42.5598227977752685546875" lon="19.83491177670657634735107421875">
        <ele>923.5999755859375</ele>
        <time>2026-06-18T06:54:47.000Z</time>
        <extensions>
          <ns3:TrackPointExtension>
            <ns3:atemp>18.0</ns3:atemp>
          </ns3:TrackPointExtension>
        </extensions>
      </trkpt>
      <trkpt lat="42.55984903313219547271728515625" lon="19.8348779976367950439453125">
        <ele>923.5999755859375</ele>
        <time>2026-06-18T06:54:48.000Z</time>
        <extensions>
          <ns3:TrackPointExtension>
            <ns3:atemp>18.0</ns3:atemp>
          </ns3:TrackPointExtension>
        </extensions>
      </trkpt>
      <trkpt lat="42.55987451411783695220947265625" lon="19.83484505675733089447021484375">
        <ele>923.5999755859375</ele>
        <time>2026-06-18T06:54:49.000Z</time>
        <extensions>
          <ns3:TrackPointExtension>
            <ns3:atemp>18.0</ns3:atemp>
          </ns3:TrackPointExtension>
        </extensions>
      </trkpt>
      <trkpt lat="42.5599007494747638702392578125" lon="19.83481504954397678375244140625">
        <ele>923.79998779296875</ele>
        <time>2026-06-18T06:54:50.000Z</time>
        <extensions>
          <ns3:TrackPointExtension>
            <ns3:atemp>18.0</ns3:atemp>
          </ns3:TrackPointExtension>
        </extensions>
      </trkpt>
      <trkpt lat="42.5599272362887859344482421875" lon="19.83478185720741748809814453125">
        <ele>923.79998779296875</ele>
        <time>2026-06-18T06:54:51.000Z</time>
        <extensions>
          <ns3:TrackPointExtension>
            <ns3:atemp>18.0</ns3:atemp>
          </ns3:TrackPointExtension>
        </extensions>
      </trkpt>
      <trkpt lat="42.55995397455990314483642578125" lon="19.83474497683346271514892578125">
        <ele>924</ele>
        <time>2026-06-18T06:54:52.000Z</time>
        <extensions>
          <ns3:TrackPointExtension>
            <ns3:atemp>18.0</ns3:atemp>
          </ns3:TrackPointExtension>
        </extensions>
      </trkpt>
      <trkpt lat="42.55997895263135433197021484375" lon="19.83470566570758819580078125">
        <ele>924</ele>
        <time>2026-06-18T06:54:53.000Z</time>
        <extensions>
          <ns3:TrackPointExtension>
            <ns3:atemp>18.0</ns3:atemp>
          </ns3:TrackPointExtension>
        </extensions>
      </trkpt>
      <trkpt lat="42.56000024266541004180908203125" lon="19.8346634209156036376953125">
        <ele>924</ele>
        <time>2026-06-18T06:54:54.000Z</time>
        <extensions>
          <ns3:TrackPointExtension>
            <ns3:atemp>18.0</ns3:atemp>
          </ns3:TrackPointExtension>
        </extensions>
      </trkpt>
      <trkpt lat="42.56002186797559261322021484375" lon="19.83462125994265079498291015625">
        <ele>924.20001220703125</ele>
        <time>2026-06-18T06:54:55.000Z</time>
        <extensions>
          <ns3:TrackPointExtension>
            <ns3:atemp>18.0</ns3:atemp>
          </ns3:TrackPointExtension>
        </extensions>
      </trkpt>
      <trkpt lat="42.56004349328577518463134765625" lon="19.8345764167606830596923828125">
        <ele>924.20001220703125</ele>
        <time>2026-06-18T06:54:56.000Z</time>
        <extensions>
          <ns3:TrackPointExtension>
            <ns3:atemp>18.0</ns3:atemp>
          </ns3:TrackPointExtension>
        </extensions>
      </trkpt>
      <trkpt lat="42.560067214071750640869140625" lon="19.834536015987396240234375">
        <ele>924.20001220703125</ele>
        <time>2026-06-18T06:54:57.000Z</time>
        <extensions>
          <ns3:TrackPointExtension>
            <ns3:atemp>18.0</ns3:atemp>
          </ns3:TrackPointExtension>
        </extensions>
      </trkpt>
      <trkpt lat="42.56009261123836040496826171875" lon="19.83449838124215602874755859375">
        <ele>924.4000244140625</ele>
        <time>2026-06-18T06:54:58.000Z</time>
        <extensions>
          <ns3:TrackPointExtension>
            <ns3:atemp>18.0</ns3:atemp>
          </ns3:TrackPointExtension>
        </extensions>
      </trkpt>
      <trkpt lat="42.5601159967482089996337890625" lon="19.83446183614432811737060546875">
        <ele>924.4000244140625</ele>
        <time>2026-06-18T06:54:59.000Z</time>
        <extensions>
          <ns3:TrackPointExtension>
            <ns3:atemp>18.0</ns3:atemp>
          </ns3:TrackPointExtension>
        </extensions>
      </trkpt>
      <trkpt lat="42.560138963162899017333984375" lon="19.83442344702780246734619140625">
        <ele>924.4000244140625</ele>
        <time>2026-06-18T06:55:00.000Z</time>
        <extensions>
          <ns3:TrackPointExtension>
            <ns3:atemp>18.0</ns3:atemp>
          </ns3:TrackPointExtension>
        </extensions>
      </trkpt>
      <trkpt lat="42.56016142666339874267578125" lon="19.834381453692913055419921875">
        <ele>924.4000244140625</ele>
        <time>2026-06-18T06:55:01.000Z</time>
        <extensions>
          <ns3:TrackPointExtension>
            <ns3:atemp>18.0</ns3:atemp>
          </ns3:TrackPointExtension>
        </extensions>
      </trkpt>
      <trkpt lat="42.56018422544002532958984375" lon="19.83434549532830715179443359375">
        <ele>924.4000244140625</ele>
        <time>2026-06-18T06:55:02.000Z</time>
        <extensions>
          <ns3:TrackPointExtension>
            <ns3:atemp>18.0</ns3:atemp>
          </ns3:TrackPointExtension>
        </extensions>
      </trkpt>
      <trkpt lat="42.56020409055054187774658203125" lon="19.83430869877338409423828125">
        <ele>924.4000244140625</ele>
        <time>2026-06-18T06:55:03.000Z</time>
        <extensions>
          <ns3:TrackPointExtension>
            <ns3:atemp>18.0</ns3:atemp>
          </ns3:TrackPointExtension>
        </extensions>
      </trkpt>
      <trkpt lat="42.56022739224135875701904296875" lon="19.8342719860374927520751953125">
        <ele>924.4000244140625</ele>
        <time>2026-06-18T06:55:04.000Z</time>
        <extensions>
          <ns3:TrackPointExtension>
            <ns3:atemp>18.0</ns3:atemp>
          </ns3:TrackPointExtension>
        </extensions>
      </trkpt>
      <trkpt lat="42.56025002337992191314697265625" lon="19.83423401601612567901611328125">
        <ele>924.4000244140625</ele>
        <time>2026-06-18T06:55:05.000Z</time>
        <extensions>
          <ns3:TrackPointExtension>
            <ns3:atemp>18.0</ns3:atemp>
          </ns3:TrackPointExtension>
        </extensions>
      </trkpt>
      <trkpt lat="42.56026980467140674591064453125" lon="19.83419604599475860595703125">
        <ele>924.5999755859375</ele>
        <time>2026-06-18T06:55:06.000Z</time>
        <extensions>
          <ns3:TrackPointExtension>
            <ns3:atemp>18.0</ns3:atemp>
          </ns3:TrackPointExtension>
        </extensions>
      </trkpt>
      <trkpt lat="42.56028690375387668609619140625" lon="19.8341573216021060943603515625">
        <ele>924.5999755859375</ele>
        <time>2026-06-18T06:55:07.000Z</time>
        <extensions>
          <ns3:TrackPointExtension>
            <ns3:atemp>18.0</ns3:atemp>
          </ns3:TrackPointExtension>
        </extensions>
      </trkpt>
      <trkpt lat="42.56029997952282428741455078125" lon="19.83411314897239208221435546875">
        <ele>924.5999755859375</ele>
        <time>2026-06-18T06:55:08.000Z</time>
        <extensions>
          <ns3:TrackPointExtension>
            <ns3:atemp>18.0</ns3:atemp>
          </ns3:TrackPointExtension>
        </extensions>
      </trkpt>
      <trkpt lat="42.5603094510734081268310546875" lon="19.8340667970478534698486328125">
        <ele>924.79998779296875</ele>
        <time>2026-06-18T06:55:09.000Z</time>
        <extensions>
          <ns3:TrackPointExtension>
            <ns3:atemp>18.0</ns3:atemp>
          </ns3:TrackPointExtension>
        </extensions>
      </trkpt>
      <trkpt lat="42.5603134743869304656982421875" lon="19.834014661610126495361328125">
        <ele>925</ele>
        <time>2026-06-18T06:55:10.000Z</time>
        <extensions>
          <ns3:TrackPointExtension>
            <ns3:atemp>18.0</ns3:atemp>
          </ns3:TrackPointExtension>
        </extensions>
      </trkpt>
      <trkpt lat="42.5603101216256618499755859375" lon="19.83396294526755809783935546875">
        <ele>925</ele>
        <time>2026-06-18T06:55:11.000Z</time>
        <extensions>
          <ns3:TrackPointExtension>
            <ns3:atemp>18.0</ns3:atemp>
          </ns3:TrackPointExtension>
        </extensions>
      </trkpt>
      <trkpt lat="42.56030559539794921875" lon="19.8339179344475269317626953125">
        <ele>925.4000244140625</ele>
        <time>2026-06-18T06:55:12.000Z</time>
        <extensions>
          <ns3:TrackPointExtension>
            <ns3:atemp>18.0</ns3:atemp>
          </ns3:TrackPointExtension>
        </extensions>
      </trkpt>
      <trkpt lat="42.56029360927641391754150390625" lon="19.83386906795203685760498046875">
        <ele>925.5999755859375</ele>
        <time>2026-06-18T06:55:13.000Z</time>
        <extensions>
          <ns3:TrackPointExtension>
            <ns3:atemp>18.0</ns3:atemp>
          </ns3:TrackPointExtension>
        </extensions>
      </trkpt>
      <trkpt lat="42.560283131897449493408203125" lon="19.83381911180913448333740234375">
        <ele>925.5999755859375</ele>
        <time>2026-06-18T06:55:14.000Z</time>
        <extensions>
          <ns3:TrackPointExtension>
            <ns3:atemp>18.0</ns3:atemp>
          </ns3:TrackPointExtension>
        </extensions>
      </trkpt>
      <trkpt lat="42.5602719001471996307373046875" lon="19.83376898802816867828369140625">
        <ele>925.79998779296875</ele>
        <time>2026-06-18T06:55:15.000Z</time>
        <extensions>
          <ns3:TrackPointExtension>
            <ns3:atemp>18.0</ns3:atemp>
          </ns3:TrackPointExtension>
        </extensions>
      </trkpt>
      <trkpt lat="42.560262344777584075927734375" lon="19.8337171040475368499755859375">
        <ele>925.79998779296875</ele>
        <time>2026-06-18T06:55:16.000Z</time>
        <extensions>
          <ns3:TrackPointExtension>
            <ns3:atemp>18.0</ns3:atemp>
          </ns3:TrackPointExtension>
        </extensions>
      </trkpt>
      <trkpt lat="42.56025396287441253662109375" lon="19.83366454951465129852294921875">
        <ele>926</ele>
        <time>2026-06-18T06:55:17.000Z</time>
        <extensions>
          <ns3:TrackPointExtension>
            <ns3:atemp>18.0</ns3:atemp>
          </ns3:TrackPointExtension>
        </extensions>
      </trkpt>
      <trkpt lat="42.560245580971240997314453125" lon="19.833610989153385162353515625">
        <ele>926</ele>
        <time>2026-06-18T06:55:18.000Z</time>
        <extensions>
          <ns3:TrackPointExtension>
            <ns3:atemp>18.0</ns3:atemp>
          </ns3:TrackPointExtension>
        </extensions>
      </trkpt>
      <trkpt lat="42.56023845635354518890380859375" lon="19.833557344973087310791015625">
        <ele>926.20001220703125</ele>
        <time>2026-06-18T06:55:19.000Z</time>
        <extensions>
          <ns3:TrackPointExtension>
            <ns3:atemp>18.0</ns3:atemp>
          </ns3:TrackPointExtension>
        </extensions>
      </trkpt>
      <trkpt lat="42.56023359484970569610595703125" lon="19.83350294642150402069091796875">
        <ele>926.20001220703125</ele>
        <time>2026-06-18T06:55:20.000Z</time>
        <extensions>
          <ns3:TrackPointExtension>
            <ns3:atemp>18.0</ns3:atemp>
          </ns3:TrackPointExtension>
        </extensions>
      </trkpt>
      <trkpt lat="42.56022772751748561859130859375" lon="19.83344796113669872283935546875">
        <ele>926.4000244140625</ele>
        <time>2026-06-18T06:55:21.000Z</time>
        <extensions>
          <ns3:TrackPointExtension>
            <ns3:atemp>18.0</ns3:atemp>
          </ns3:TrackPointExtension>
        </extensions>
      </trkpt>
      <trkpt lat="42.56022579967975616455078125" lon="19.83339431695640087127685546875">
        <ele>926.4000244140625</ele>
        <time>2026-06-18T06:55:22.000Z</time>
        <extensions>
          <ns3:TrackPointExtension>
            <ns3:atemp>18.0</ns3:atemp>
          </ns3:TrackPointExtension>
        </extensions>
      </trkpt>
      <trkpt lat="42.560224793851375579833984375" lon="19.833345115184783935546875">
        <ele>926.5999755859375</ele>
        <time>2026-06-18T06:55:23.000Z</time>
        <extensions>
          <ns3:TrackPointExtension>
            <ns3:atemp>18.0</ns3:atemp>
          </ns3:TrackPointExtension>
        </extensions>
      </trkpt>
      <trkpt lat="42.56022571586072444915771484375" lon="19.8332929797470569610595703125">
        <ele>926.5999755859375</ele>
        <time>2026-06-18T06:55:24.000Z</time>
        <extensions>
          <ns3:TrackPointExtension>
            <ns3:atemp>18.0</ns3:atemp>
          </ns3:TrackPointExtension>
        </extensions>
      </trkpt>
      <trkpt lat="42.56022772751748561859130859375" lon="19.833240173757076263427734375">
        <ele>926.5999755859375</ele>
        <time>2026-06-18T06:55:25.000Z</time>
        <extensions>
          <ns3:TrackPointExtension>
            <ns3:atemp>18.0</ns3:atemp>
          </ns3:TrackPointExtension>
        </extensions>
      </trkpt>
      <trkpt lat="42.5602316670119762420654296875" lon="19.83318753540515899658203125">
        <ele>926.79998779296875</ele>
        <time>2026-06-18T06:55:26.000Z</time>
        <extensions>
          <ns3:TrackPointExtension>
            <ns3:atemp>18.0</ns3:atemp>
          </ns3:TrackPointExtension>
        </extensions>
      </trkpt>
      <trkpt lat="42.56022839806973934173583984375" lon="19.83313967473804950714111328125">
        <ele>927</ele>
        <time>2026-06-18T06:55:27.000Z</time>
        <extensions>
          <ns3:TrackPointExtension>
            <ns3:atemp>18.0</ns3:atemp>
          </ns3:TrackPointExtension>
        </extensions>
      </trkpt>
      <trkpt lat="42.560228817164897918701171875" lon="19.83309072442352771759033203125">
        <ele>927</ele>
        <time>2026-06-18T06:55:28.000Z</time>
        <extensions>
          <ns3:TrackPointExtension>
            <ns3:atemp>18.0</ns3:atemp>
          </ns3:TrackPointExtension>
        </extensions>
      </trkpt>
      <trkpt lat="42.56022906862199306488037109375" lon="19.833039008080959320068359375">
        <ele>927</ele>
        <time>2026-06-18T06:55:29.000Z</time>
        <extensions>
          <ns3:TrackPointExtension>
            <ns3:atemp>18.0</ns3:atemp>
          </ns3:TrackPointExtension>
        </extensions>
      </trkpt>
      <trkpt lat="42.5602296553552150726318359375" lon="19.8329841904342174530029296875">
        <ele>927</ele>
        <time>2026-06-18T06:55:30.000Z</time>
        <extensions>
          <ns3:TrackPointExtension>
            <ns3:atemp>18.0</ns3:atemp>
          </ns3:TrackPointExtension>
        </extensions>
      </trkpt>
      <trkpt lat="42.56022940389811992645263671875" lon="19.83293130062520503997802734375">
        <ele>927.20001220703125</ele>
        <time>2026-06-18T06:55:31.000Z</time>
        <extensions>
          <ns3:TrackPointExtension>
            <ns3:atemp>18.0</ns3:atemp>
          </ns3:TrackPointExtension>
        </extensions>
      </trkpt>
      <trkpt lat="42.56022806279361248016357421875" lon="19.83288033865392208099365234375">
        <ele>927.20001220703125</ele>
        <time>2026-06-18T06:55:32.000Z</time>
        <extensions>
          <ns3:TrackPointExtension>
            <ns3:atemp>18.0</ns3:atemp>
          </ns3:TrackPointExtension>
        </extensions>
      </trkpt>
      <trkpt lat="42.56023325957357883453369140625" lon="19.83282283879816532135009765625">
        <ele>927.4000244140625</ele>
        <time>2026-06-18T06:55:33.000Z</time>
        <extensions>
          <ns3:TrackPointExtension>
            <ns3:atemp>18.0</ns3:atemp>
          </ns3:TrackPointExtension>
        </extensions>
      </trkpt>
      <trkpt lat="42.56024591624736785888671875" lon="19.832776151597499847412109375">
        <ele>927.4000244140625</ele>
        <time>2026-06-18T06:55:34.000Z</time>
        <extensions>
          <ns3:TrackPointExtension>
            <ns3:atemp>18.0</ns3:atemp>
          </ns3:TrackPointExtension>
        </extensions>
      </trkpt>
      <trkpt lat="42.56026024930179119110107421875" lon="19.832725860178470611572265625">
        <ele>927.4000244140625</ele>
        <time>2026-06-18T06:55:35.000Z</time>
        <extensions>
          <ns3:TrackPointExtension>
            <ns3:atemp>18.0</ns3:atemp>
          </ns3:TrackPointExtension>
        </extensions>
      </trkpt>
      <trkpt lat="42.56027332507073879241943359375" lon="19.83267598785459995269775390625">
        <ele>927.5999755859375</ele>
        <time>2026-06-18T06:55:36.000Z</time>
        <extensions>
          <ns3:TrackPointExtension>
            <ns3:atemp>18.0</ns3:atemp>
          </ns3:TrackPointExtension>
        </extensions>
      </trkpt>
      <trkpt lat="42.560285143554210662841796875" lon="19.83262619934976100921630859375">
        <ele>927.5999755859375</ele>
        <time>2026-06-18T06:55:37.000Z</time>
        <extensions>
          <ns3:TrackPointExtension>
            <ns3:atemp>18.0</ns3:atemp>
          </ns3:TrackPointExtension>
        </extensions>
      </trkpt>
      <trkpt lat="42.560298554599285125732421875" lon="19.8325751535594463348388671875">
        <ele>927.79998779296875</ele>
        <time>2026-06-18T06:55:38.000Z</time>
        <extensions>
          <ns3:TrackPointExtension>
            <ns3:atemp>18.0</ns3:atemp>
          </ns3:TrackPointExtension>
        </extensions>
      </trkpt>
      <trkpt lat="42.56031188182532787322998046875" lon="19.83252075500786304473876953125">
        <ele>927.79998779296875</ele>
        <time>2026-06-18T06:55:39.000Z</time>
        <extensions>
          <ns3:TrackPointExtension>
            <ns3:atemp>18.0</ns3:atemp>
          </ns3:TrackPointExtension>
        </extensions>
      </trkpt>
      <trkpt lat="42.5603228621184825897216796875" lon="19.83246794901788234710693359375">
        <ele>928</ele>
        <time>2026-06-18T06:55:40.000Z</time>
        <extensions>
          <ns3:TrackPointExtension>
            <ns3:atemp>18.0</ns3:atemp>
          </ns3:TrackPointExtension>
        </extensions>
      </trkpt>
      <trkpt lat="42.56033317185938358306884765625" lon="19.83241732232272624969482421875">
        <ele>928</ele>
        <time>2026-06-18T06:55:41.000Z</time>
        <extensions>
          <ns3:TrackPointExtension>
            <ns3:atemp>18.0</ns3:atemp>
          </ns3:TrackPointExtension>
        </extensions>
      </trkpt>
      <trkpt lat="42.56034272722899913787841796875" lon="19.832360409200191497802734375">
        <ele>928.20001220703125</ele>
        <time>2026-06-18T06:55:42.000Z</time>
        <extensions>
          <ns3:TrackPointExtension>
            <ns3:atemp>18.0</ns3:atemp>
          </ns3:TrackPointExtension>
        </extensions>
      </trkpt>
      <trkpt lat="42.5603523664176464080810546875" lon="19.83230869285762310028076171875">
        <ele>928.20001220703125</ele>
        <time>2026-06-18T06:55:43.000Z</time>
        <extensions>
          <ns3:TrackPointExtension>
            <ns3:atemp>18.0</ns3:atemp>
          </ns3:TrackPointExtension>
        </extensions>
      </trkpt>
      <trkpt lat="42.56035982631146907806396484375" lon="19.83225186355412006378173828125">
        <ele>928.4000244140625</ele>
        <time>2026-06-18T06:55:44.000Z</time>
        <extensions>
          <ns3:TrackPointExtension>
            <ns3:atemp>18.0</ns3:atemp>
          </ns3:TrackPointExtension>
        </extensions>
      </trkpt>
      <trkpt lat="42.5603691302239894866943359375" lon="19.83219184912741184234619140625">
        <ele>928.4000244140625</ele>
        <time>2026-06-18T06:55:45.000Z</time>
        <extensions>
          <ns3:TrackPointExtension>
            <ns3:atemp>18.0</ns3:atemp>
          </ns3:TrackPointExtension>
        </extensions>
      </trkpt>
      <trkpt lat="42.56038262508809566497802734375" lon="19.8321354389190673828125">
        <ele>928.4000244140625</ele>
        <time>2026-06-18T06:55:46.000Z</time>
        <extensions>
          <ns3:TrackPointExtension>
            <ns3:atemp>18.0</ns3:atemp>
          </ns3:TrackPointExtension>
        </extensions>
      </trkpt>
      <trkpt lat="42.56039821542799472808837890625" lon="19.83207785524427890777587890625">
        <ele>928.4000244140625</ele>
        <time>2026-06-18T06:55:47.000Z</time>
        <extensions>
          <ns3:TrackPointExtension>
            <ns3:atemp>18.0</ns3:atemp>
          </ns3:TrackPointExtension>
        </extensions>
      </trkpt>
      <trkpt lat="42.56041447632014751434326171875" lon="19.83202152885496616363525390625">
        <ele>928.4000244140625</ele>
        <time>2026-06-18T06:55:48.000Z</time>
        <extensions>
          <ns3:TrackPointExtension>
            <ns3:atemp>18.0</ns3:atemp>
          </ns3:TrackPointExtension>
        </extensions>
      </trkpt>
      <trkpt lat="42.56042897701263427734375" lon="19.83196134679019451141357421875">
        <ele>928.5999755859375</ele>
        <time>2026-06-18T06:55:49.000Z</time>
        <extensions>
          <ns3:TrackPointExtension>
            <ns3:atemp>18.0</ns3:atemp>
          </ns3:TrackPointExtension>
        </extensions>
      </trkpt>
      <trkpt lat="42.560442052781581878662109375" lon="19.831904433667659759521484375">
        <ele>928.5999755859375</ele>
        <time>2026-06-18T06:55:50.000Z</time>
        <extensions>
          <ns3:TrackPointExtension>
            <ns3:atemp>18.0</ns3:atemp>
          </ns3:TrackPointExtension>
        </extensions>
      </trkpt>
      <trkpt lat="42.56045320071280002593994140625" lon="19.83184508979320526123046875">
        <ele>928.5999755859375</ele>
        <time>2026-06-18T06:55:51.000Z</time>
        <extensions>
          <ns3:TrackPointExtension>
            <ns3:atemp>18.0</ns3:atemp>
          </ns3:TrackPointExtension>
        </extensions>
      </trkpt>
      <trkpt lat="42.56046719849109649658203125" lon="19.83179152943193912506103515625">
        <ele>928.5999755859375</ele>
        <time>2026-06-18T06:55:52.000Z</time>
        <extensions>
          <ns3:TrackPointExtension>
            <ns3:atemp>18.0</ns3:atemp>
          </ns3:TrackPointExtension>
        </extensions>
      </trkpt>
      <trkpt lat="42.56047549657523632049560546875" lon="19.83173453249037265777587890625">
        <ele>928.79998779296875</ele>
        <time>2026-06-18T06:55:53.000Z</time>
        <extensions>
          <ns3:TrackPointExtension>
            <ns3:atemp>18.0</ns3:atemp>
          </ns3:TrackPointExtension>
        </extensions>
      </trkpt>
      <trkpt lat="42.56048505194485187530517578125" lon="19.831674434244632720947265625">
        <ele>928.79998779296875</ele>
        <time>2026-06-18T06:55:54.000Z</time>
        <extensions>
          <ns3:TrackPointExtension>
            <ns3:atemp>18.0</ns3:atemp>
          </ns3:TrackPointExtension>
        </extensions>
      </trkpt>
      <trkpt lat="42.56049594841897487640380859375" lon="19.83161651529371738433837890625">
        <ele>928.79998779296875</ele>
        <time>2026-06-18T06:55:55.000Z</time>
        <extensions>
          <ns3:TrackPointExtension>
            <ns3:atemp>18.0</ns3:atemp>
          </ns3:TrackPointExtension>
        </extensions>
      </trkpt>
      <trkpt lat="42.56050617434084415435791015625" lon="19.83155985362827777862548828125">
        <ele>928.79998779296875</ele>
        <time>2026-06-18T06:55:56.000Z</time>
        <extensions>
          <ns3:TrackPointExtension>
            <ns3:atemp>18.0</ns3:atemp>
          </ns3:TrackPointExtension>
        </extensions>
      </trkpt>
      <trkpt lat="42.560518495738506317138671875" lon="19.83150403015315532684326171875">
        <ele>929</ele>
        <time>2026-06-18T06:55:57.000Z</time>
        <extensions>
          <ns3:TrackPointExtension>
            <ns3:atemp>18.0</ns3:atemp>
          </ns3:TrackPointExtension>
        </extensions>
      </trkpt>
      <trkpt lat="42.5605324096977710723876953125" lon="19.83144552446901798248291015625">
        <ele>929</ele>
        <time>2026-06-18T06:55:58.000Z</time>
        <extensions>
          <ns3:TrackPointExtension>
            <ns3:atemp>18.0</ns3:atemp>
          </ns3:TrackPointExtension>
        </extensions>
      </trkpt>
      <trkpt lat="42.56054657511413097381591796875" lon="19.83138802461326122283935546875">
        <ele>929</ele>
        <time>2026-06-18T06:55:59.000Z</time>
        <extensions>
          <ns3:TrackPointExtension>
            <ns3:atemp>18.0</ns3:atemp>
          </ns3:TrackPointExtension>
        </extensions>
      </trkpt>
      <trkpt lat="42.56056778132915496826171875" lon="19.83133169822394847869873046875">
        <ele>929.20001220703125</ele>
        <time>2026-06-18T06:56:00.000Z</time>
        <extensions>
          <ns3:TrackPointExtension>
            <ns3:atemp>18.0</ns3:atemp>
          </ns3:TrackPointExtension>
        </extensions>
      </trkpt>
      <trkpt lat="42.560592591762542724609375" lon="19.83127989806234836578369140625">
        <ele>929.20001220703125</ele>
        <time>2026-06-18T06:56:01.000Z</time>
        <extensions>
          <ns3:TrackPointExtension>
            <ns3:atemp>18.0</ns3:atemp>
          </ns3:TrackPointExtension>
        </extensions>
      </trkpt>
      <trkpt lat="42.56061580963432788848876953125" lon="19.83123078010976314544677734375">
        <ele>929.20001220703125</ele>
        <time>2026-06-18T06:56:02.000Z</time>
        <extensions>
          <ns3:TrackPointExtension>
            <ns3:atemp>18.0</ns3:atemp>
          </ns3:TrackPointExtension>
        </extensions>
      </trkpt>
      <trkpt lat="42.560640536248683929443359375" lon="19.83118099160492420196533203125">
        <ele>929.20001220703125</ele>
        <time>2026-06-18T06:56:03.000Z</time>
        <extensions>
          <ns3:TrackPointExtension>
            <ns3:atemp>18.0</ns3:atemp>
          </ns3:TrackPointExtension>
        </extensions>
      </trkpt>
      <trkpt lat="42.56066744215786457061767578125" lon="19.83112919144332408905029296875">
        <ele>929.20001220703125</ele>
        <time>2026-06-18T06:56:04.000Z</time>
        <extensions>
          <ns3:TrackPointExtension>
            <ns3:atemp>18.0</ns3:atemp>
          </ns3:TrackPointExtension>
        </extensions>
      </trkpt>
      <trkpt lat="42.56069275550544261932373046875" lon="19.831081330776214599609375">
        <ele>929.20001220703125</ele>
        <time>2026-06-18T06:56:05.000Z</time>
        <extensions>
          <ns3:TrackPointExtension>
            <ns3:atemp>18.0</ns3:atemp>
          </ns3:TrackPointExtension>
        </extensions>
      </trkpt>
      <trkpt lat="42.56072158925235271453857421875" lon="19.83103648759424686431884765625">
        <ele>929.20001220703125</ele>
        <time>2026-06-18T06:56:06.000Z</time>
        <extensions>
          <ns3:TrackPointExtension>
            <ns3:atemp>18.0</ns3:atemp>
          </ns3:TrackPointExtension>
        </extensions>
      </trkpt>
      <trkpt lat="42.56075209937989711761474609375" lon="19.83099357225000858306884765625">
        <ele>929.20001220703125</ele>
        <time>2026-06-18T06:56:07.000Z</time>
        <extensions>
          <ns3:TrackPointExtension>
            <ns3:atemp>18.0</ns3:atemp>
          </ns3:TrackPointExtension>
        </extensions>
      </trkpt>
      <trkpt lat="42.56078101694583892822265625" lon="19.83095250092446804046630859375">
        <ele>929.20001220703125</ele>
        <time>2026-06-18T06:56:08.000Z</time>
        <extensions>
          <ns3:TrackPointExtension>
            <ns3:atemp>18.0</ns3:atemp>
          </ns3:TrackPointExtension>
        </extensions>
      </trkpt>
      <trkpt lat="42.56080943159759044647216796875" lon="19.83090857975184917449951171875">
        <ele>929.20001220703125</ele>
        <time>2026-06-18T06:56:09.000Z</time>
        <extensions>
          <ns3:TrackPointExtension>
            <ns3:atemp>18.0</ns3:atemp>
          </ns3:TrackPointExtension>
        </extensions>
      </trkpt>
      <trkpt lat="42.5608388520777225494384765625" lon="19.83086566440761089324951171875">
        <ele>929.20001220703125</ele>
        <time>2026-06-18T06:56:10.000Z</time>
        <extensions>
          <ns3:TrackPointExtension>
            <ns3:atemp>18.0</ns3:atemp>
          </ns3:TrackPointExtension>
        </extensions>
      </trkpt>
      <trkpt lat="42.560866177082061767578125" lon="19.83082325197756290435791015625">
        <ele>929.20001220703125</ele>
        <time>2026-06-18T06:56:11.000Z</time>
        <extensions>
          <ns3:TrackPointExtension>
            <ns3:atemp>18.0</ns3:atemp>
          </ns3:TrackPointExtension>
        </extensions>
      </trkpt>
      <trkpt lat="42.56089392118155956268310546875" lon="19.830775894224643707275390625">
        <ele>929.20001220703125</ele>
        <time>2026-06-18T06:56:12.000Z</time>
        <extensions>
          <ns3:TrackPointExtension>
            <ns3:atemp>18.0</ns3:atemp>
          </ns3:TrackPointExtension>
        </extensions>
      </trkpt>
      <trkpt lat="42.5609189830720424652099609375" lon="19.83072602190077304840087890625">
        <ele>929.20001220703125</ele>
        <time>2026-06-18T06:56:13.000Z</time>
        <extensions>
          <ns3:TrackPointExtension>
            <ns3:atemp>18.0</ns3:atemp>
          </ns3:TrackPointExtension>
        </extensions>
      </trkpt>
      <trkpt lat="42.56094329059123992919921875" lon="19.8306751437485218048095703125">
        <ele>929.20001220703125</ele>
        <time>2026-06-18T06:56:14.000Z</time>
        <extensions>
          <ns3:TrackPointExtension>
            <ns3:atemp>18.0</ns3:atemp>
          </ns3:TrackPointExtension>
        </extensions>
      </trkpt>
      <trkpt lat="42.56097120232880115509033203125" lon="19.83062862418591976165771484375">
        <ele>929.20001220703125</ele>
        <time>2026-06-18T06:56:15.000Z</time>
        <extensions>
          <ns3:TrackPointExtension>
            <ns3:atemp>18.0</ns3:atemp>
          </ns3:TrackPointExtension>
        </extensions>
      </trkpt>
      <trkpt lat="42.56099903024733066558837890625" lon="19.83058042824268341064453125">
        <ele>929.20001220703125</ele>
        <time>2026-06-18T06:56:16.000Z</time>
        <extensions>
          <ns3:TrackPointExtension>
            <ns3:atemp>18.0</ns3:atemp>
          </ns3:TrackPointExtension>
        </extensions>
      </trkpt>
      <trkpt lat="42.56102786399424076080322265625" lon="19.83053323812782764434814453125">
        <ele>929.20001220703125</ele>
        <time>2026-06-18T06:56:17.000Z</time>
        <extensions>
          <ns3:TrackPointExtension>
            <ns3:atemp>18.0</ns3:atemp>
          </ns3:TrackPointExtension>
        </extensions>
      </trkpt>
      <trkpt lat="42.56105552427470684051513671875" lon="19.83048730529844760894775390625">
        <ele>929.20001220703125</ele>
        <time>2026-06-18T06:56:18.000Z</time>
        <extensions>
          <ns3:TrackPointExtension>
            <ns3:atemp>18.0</ns3:atemp>
          </ns3:TrackPointExtension>
        </extensions>
      </trkpt>
      <trkpt lat="42.561081759631633758544921875" lon="19.83044187538325786590576171875">
        <ele>929</ele>
        <time>2026-06-18T06:56:19.000Z</time>
        <extensions>
          <ns3:TrackPointExtension>
            <ns3:atemp>18.0</ns3:atemp>
          </ns3:TrackPointExtension>
        </extensions>
      </trkpt>
      <trkpt lat="42.5611074082553386688232421875" lon="19.83039401471614837646484375">
        <ele>929</ele>
        <time>2026-06-18T06:56:20.000Z</time>
        <extensions>
          <ns3:TrackPointExtension>
            <ns3:atemp>18.0</ns3:atemp>
          </ns3:TrackPointExtension>
        </extensions>
      </trkpt>
      <trkpt lat="42.56113314069807529449462890625" lon="19.83034498058259487152099609375">
        <ele>929</ele>
        <time>2026-06-18T06:56:21.000Z</time>
        <extensions>
          <ns3:TrackPointExtension>
            <ns3:atemp>18.0</ns3:atemp>
          </ns3:TrackPointExtension>
        </extensions>
      </trkpt>
      <trkpt lat="42.56115920841693878173828125" lon="19.83029787428677082061767578125">
        <ele>929</ele>
        <time>2026-06-18T06:56:22.000Z</time>
        <extensions>
          <ns3:TrackPointExtension>
            <ns3:atemp>18.0</ns3:atemp>
          </ns3:TrackPointExtension>
        </extensions>
      </trkpt>
      <trkpt lat="42.5611858628690242767333984375" lon="19.83024783432483673095703125">
        <ele>929.20001220703125</ele>
        <time>2026-06-18T06:56:23.000Z</time>
        <extensions>
          <ns3:TrackPointExtension>
            <ns3:atemp>18.0</ns3:atemp>
          </ns3:TrackPointExtension>
        </extensions>
      </trkpt>
      <trkpt lat="42.56121394224464893341064453125" lon="19.830201566219329833984375">
        <ele>929.20001220703125</ele>
        <time>2026-06-18T06:56:24.000Z</time>
        <extensions>
          <ns3:TrackPointExtension>
            <ns3:atemp>18.0</ns3:atemp>
          </ns3:TrackPointExtension>
        </extensions>
      </trkpt>
      <trkpt lat="42.5612425245344638824462890625" lon="19.83015253208577632904052734375">
        <ele>929.20001220703125</ele>
        <time>2026-06-18T06:56:25.000Z</time>
        <extensions>
          <ns3:TrackPointExtension>
            <ns3:atemp>18.0</ns3:atemp>
          </ns3:TrackPointExtension>
        </extensions>
      </trkpt>
      <trkpt lat="42.56127127446234226226806640625" lon="19.8301028273999691009521484375">
        <ele>929.4000244140625</ele>
        <time>2026-06-18T06:56:26.000Z</time>
        <extensions>
          <ns3:TrackPointExtension>
            <ns3:atemp>18.0</ns3:atemp>
          </ns3:TrackPointExtension>
        </extensions>
      </trkpt>
      <trkpt lat="42.56130027584731578826904296875" lon="19.83005513437092304229736328125">
        <ele>929.4000244140625</ele>
        <time>2026-06-18T06:56:27.000Z</time>
        <extensions>
          <ns3:TrackPointExtension>
            <ns3:atemp>18.0</ns3:atemp>
          </ns3:TrackPointExtension>
        </extensions>
      </trkpt>
      <trkpt lat="42.561329193413257598876953125" lon="19.83000735752284526824951171875">
        <ele>929.5999755859375</ele>
        <time>2026-06-18T06:56:28.000Z</time>
        <extensions>
          <ns3:TrackPointExtension>
            <ns3:atemp>18.0</ns3:atemp>
          </ns3:TrackPointExtension>
        </extensions>
      </trkpt>
      <trkpt lat="42.561354003846645355224609375" lon="19.82995874248445034027099609375">
        <ele>929.5999755859375</ele>
        <time>2026-06-18T06:56:29.000Z</time>
        <extensions>
          <ns3:TrackPointExtension>
            <ns3:atemp>18.0</ns3:atemp>
          </ns3:TrackPointExtension>
        </extensions>
      </trkpt>
      <trkpt lat="42.561380825936794281005859375" lon="19.8299100436270236968994140625">
        <ele>929.79998779296875</ele>
        <time>2026-06-18T06:56:30.000Z</time>
        <extensions>
          <ns3:TrackPointExtension>
            <ns3:atemp>18.0</ns3:atemp>
          </ns3:TrackPointExtension>
        </extensions>
      </trkpt>
      <trkpt lat="42.5614078156650066375732421875" lon="19.8298604227602481842041015625">
        <ele>929.79998779296875</ele>
        <time>2026-06-18T06:56:31.000Z</time>
        <extensions>
          <ns3:TrackPointExtension>
            <ns3:atemp>18.0</ns3:atemp>
          </ns3:TrackPointExtension>
        </extensions>
      </trkpt>
      <trkpt lat="42.5614343024790287017822265625" lon="19.8298087902367115020751953125">
        <ele>929.79998779296875</ele>
        <time>2026-06-18T06:56:32.000Z</time>
        <extensions>
          <ns3:TrackPointExtension>
            <ns3:atemp>18.0</ns3:atemp>
          </ns3:TrackPointExtension>
        </extensions>
      </trkpt>
      <trkpt lat="42.56145919673144817352294921875" lon="19.829753302037715911865234375">
        <ele>930</ele>
        <time>2026-06-18T06:56:33.000Z</time>
        <extensions>
          <ns3:TrackPointExtension>
            <ns3:atemp>18.0</ns3:atemp>
          </ns3:TrackPointExtension>
        </extensions>
      </trkpt>
      <trkpt lat="42.56148333661258220672607421875" lon="19.829700328409671783447265625">
        <ele>930</ele>
        <time>2026-06-18T06:56:34.000Z</time>
        <extensions>
          <ns3:TrackPointExtension>
            <ns3:atemp>18.0</ns3:atemp>
          </ns3:TrackPointExtension>
        </extensions>
      </trkpt>
      <trkpt lat="42.5615094043314456939697265625" lon="19.8296495340764522552490234375">
        <ele>930.20001220703125</ele>
        <time>2026-06-18T06:56:35.000Z</time>
        <extensions>
          <ns3:TrackPointExtension>
            <ns3:atemp>18.0</ns3:atemp>
          </ns3:TrackPointExtension>
        </extensions>
      </trkpt>
      <trkpt lat="42.5615399144589900970458984375" lon="19.82959915883839130401611328125">
        <ele>930.20001220703125</ele>
        <time>2026-06-18T06:56:36.000Z</time>
        <extensions>
          <ns3:TrackPointExtension>
            <ns3:atemp>18.0</ns3:atemp>
          </ns3:TrackPointExtension>
        </extensions>
      </trkpt>
      <trkpt lat="42.56157117895781993865966796875" lon="19.829552136361598968505859375">
        <ele>930.20001220703125</ele>
        <time>2026-06-18T06:56:37.000Z</time>
        <extensions>
          <ns3:TrackPointExtension>
            <ns3:atemp>18.0</ns3:atemp>
          </ns3:TrackPointExtension>
        </extensions>
      </trkpt>
      <trkpt lat="42.56159984506666660308837890625" lon="19.82950352132320404052734375">
        <ele>930.20001220703125</ele>
        <time>2026-06-18T06:56:38.000Z</time>
        <extensions>
          <ns3:TrackPointExtension>
            <ns3:atemp>18.0</ns3:atemp>
          </ns3:TrackPointExtension>
        </extensions>
      </trkpt>
      <trkpt lat="42.56162918172776699066162109375" lon="19.82945901341736316680908203125">
        <ele>930.20001220703125</ele>
        <time>2026-06-18T06:56:39.000Z</time>
        <extensions>
          <ns3:TrackPointExtension>
            <ns3:atemp>18.0</ns3:atemp>
          </ns3:TrackPointExtension>
        </extensions>
      </trkpt>
      <trkpt lat="42.5616596080362796783447265625" lon="19.829412661492824554443359375">
        <ele>930.4000244140625</ele>
        <time>2026-06-18T06:56:40.000Z</time>
        <extensions>
          <ns3:TrackPointExtension>
            <ns3:atemp>18.0</ns3:atemp>
          </ns3:TrackPointExtension>
        </extensions>
      </trkpt>
      <trkpt lat="42.56168919615447521209716796875" lon="19.82936832122504711151123046875">
        <ele>930.4000244140625</ele>
        <time>2026-06-18T06:56:41.000Z</time>
        <extensions>
          <ns3:TrackPointExtension>
            <ns3:atemp>18.0</ns3:atemp>
          </ns3:TrackPointExtension>
        </extensions>
      </trkpt>
      <trkpt lat="42.5617204606533050537109375" lon="19.8293249867856502532958984375">
        <ele>930.4000244140625</ele>
        <time>2026-06-18T06:56:42.000Z</time>
        <extensions>
          <ns3:TrackPointExtension>
            <ns3:atemp>18.0</ns3:atemp>
          </ns3:TrackPointExtension>
        </extensions>
      </trkpt>
      <trkpt lat="42.5617514736950397491455078125" lon="19.8292817361652851104736328125">
        <ele>930.20001220703125</ele>
        <time>2026-06-18T06:56:43.000Z</time>
        <extensions>
          <ns3:TrackPointExtension>
            <ns3:atemp>18.0</ns3:atemp>
          </ns3:TrackPointExtension>
        </extensions>
      </trkpt>
      <trkpt lat="42.56178575567901134490966796875" lon="19.829235635697841644287109375">
        <ele>930.20001220703125</ele>
        <time>2026-06-18T06:56:44.000Z</time>
        <extensions>
          <ns3:TrackPointExtension>
            <ns3:atemp>18.0</ns3:atemp>
          </ns3:TrackPointExtension>
        </extensions>
      </trkpt>
      <trkpt lat="42.5618212111294269561767578125" lon="19.82918760739266872406005859375">
        <ele>930.4000244140625</ele>
        <time>2026-06-18T06:56:45.000Z</time>
        <extensions>
          <ns3:TrackPointExtension>
            <ns3:atemp>18.0</ns3:atemp>
          </ns3:TrackPointExtension>
        </extensions>
      </trkpt>
      <trkpt lat="42.56185524165630340576171875" lon="19.829143099486827850341796875">
        <ele>930.4000244140625</ele>
        <time>2026-06-18T06:56:46.000Z</time>
        <extensions>
          <ns3:TrackPointExtension>
            <ns3:atemp>18.0</ns3:atemp>
          </ns3:TrackPointExtension>
        </extensions>
      </trkpt>
      <trkpt lat="42.5618886016309261322021484375" lon="19.82909607701003551483154296875">
        <ele>930.4000244140625</ele>
        <time>2026-06-18T06:56:47.000Z</time>
        <extensions>
          <ns3:TrackPointExtension>
            <ns3:atemp>18.0</ns3:atemp>
          </ns3:TrackPointExtension>
        </extensions>
      </trkpt>
      <trkpt lat="42.561921291053295135498046875" lon="19.8290510661900043487548828125">
        <ele>930.4000244140625</ele>
        <time>2026-06-18T06:56:48.000Z</time>
        <extensions>
          <ns3:TrackPointExtension>
            <ns3:atemp>18.0</ns3:atemp>
          </ns3:TrackPointExtension>
        </extensions>
      </trkpt>
      <trkpt lat="42.56195138208568096160888671875" lon="19.82900069095194339752197265625">
        <ele>930.20001220703125</ele>
        <time>2026-06-18T06:56:49.000Z</time>
        <extensions>
          <ns3:TrackPointExtension>
            <ns3:atemp>18.0</ns3:atemp>
          </ns3:TrackPointExtension>
        </extensions>
      </trkpt>
      <trkpt lat="42.5619831494987010955810546875" lon="19.828951321542263031005859375">
        <ele>930.20001220703125</ele>
        <time>2026-06-18T06:56:50.000Z</time>
        <extensions>
          <ns3:TrackPointExtension>
            <ns3:atemp>18.0</ns3:atemp>
          </ns3:TrackPointExtension>
        </extensions>
      </trkpt>
      <trkpt lat="42.5620139949023723602294921875" lon="19.82890396378934383392333984375">
        <ele>930.4000244140625</ele>
        <time>2026-06-18T06:56:51.000Z</time>
        <extensions>
          <ns3:TrackPointExtension>
            <ns3:atemp>18.0</ns3:atemp>
          </ns3:TrackPointExtension>
        </extensions>
      </trkpt>
      <trkpt lat="42.56204626522958278656005859375" lon="19.82885442674160003662109375">
        <ele>930.4000244140625</ele>
        <time>2026-06-18T06:56:52.000Z</time>
        <extensions>
          <ns3:TrackPointExtension>
            <ns3:atemp>18.0</ns3:atemp>
          </ns3:TrackPointExtension>
        </extensions>
      </trkpt>
      <trkpt lat="42.5620766915380954742431640625" lon="19.82880874536931514739990234375">
        <ele>930.4000244140625</ele>
        <time>2026-06-18T06:56:53.000Z</time>
        <extensions>
          <ns3:TrackPointExtension>
            <ns3:atemp>18.0</ns3:atemp>
          </ns3:TrackPointExtension>
        </extensions>
      </trkpt>
      <trkpt lat="42.56210711784660816192626953125" lon="19.828763566911220550537109375">
        <ele>930.4000244140625</ele>
        <time>2026-06-18T06:56:54.000Z</time>
        <extensions>
          <ns3:TrackPointExtension>
            <ns3:atemp>18.0</ns3:atemp>
          </ns3:TrackPointExtension>
        </extensions>
      </trkpt>
      <trkpt lat="42.56213477812707424163818359375" lon="19.828719310462474822998046875">
        <ele>930.5999755859375</ele>
        <time>2026-06-18T06:56:55.000Z</time>
        <extensions>
          <ns3:TrackPointExtension>
            <ns3:atemp>18.0</ns3:atemp>
          </ns3:TrackPointExtension>
        </extensions>
      </trkpt>
      <trkpt lat="42.56216394715011119842529296875" lon="19.82867614366114139556884765625">
        <ele>930.5999755859375</ele>
        <time>2026-06-18T06:56:56.000Z</time>
        <extensions>
          <ns3:TrackPointExtension>
            <ns3:atemp>18.0</ns3:atemp>
          </ns3:TrackPointExtension>
        </extensions>
      </trkpt>
      <trkpt lat="42.562193535268306732177734375" lon="19.82863289304077625274658203125">
        <ele>930.5999755859375</ele>
        <time>2026-06-18T06:56:57.000Z</time>
        <extensions>
          <ns3:TrackPointExtension>
            <ns3:atemp>18.0</ns3:atemp>
          </ns3:TrackPointExtension>
        </extensions>
      </trkpt>
      <trkpt lat="42.562220357358455657958984375" lon="19.828589223325252532958984375">
        <ele>930.5999755859375</ele>
        <time>2026-06-18T06:56:58.000Z</time>
        <extensions>
          <ns3:TrackPointExtension>
            <ns3:atemp>18.0</ns3:atemp>
          </ns3:TrackPointExtension>
        </extensions>
      </trkpt>
      <trkpt lat="42.56224743090569972991943359375" lon="19.82854186557233333587646484375">
        <ele>930.79998779296875</ele>
        <time>2026-06-18T06:56:59.000Z</time>
        <extensions>
          <ns3:TrackPointExtension>
            <ns3:atemp>18.0</ns3:atemp>
          </ns3:TrackPointExtension>
        </extensions>
      </trkpt>
      <trkpt lat="42.5622738339006900787353515625" lon="19.82849559746682643890380859375">
        <ele>930.79998779296875</ele>
        <time>2026-06-18T06:57:00.000Z</time>
        <extensions>
          <ns3:TrackPointExtension>
            <ns3:atemp>18.0</ns3:atemp>
          </ns3:TrackPointExtension>
        </extensions>
      </trkpt>
      <trkpt lat="42.5622971355915069580078125" lon="19.82844647951424121856689453125">
        <ele>930.79998779296875</ele>
        <time>2026-06-18T06:57:01.000Z</time>
        <extensions>
          <ns3:TrackPointExtension>
            <ns3:atemp>18.0</ns3:atemp>
          </ns3:TrackPointExtension>
        </extensions>
      </trkpt>
      <trkpt lat="42.56231448613107204437255859375" lon="19.82839711010456085205078125">
        <ele>931</ele>
        <time>2026-06-18T06:57:02.000Z</time>
        <extensions>
          <ns3:TrackPointExtension>
            <ns3:atemp>18.0</ns3:atemp>
          </ns3:TrackPointExtension>
        </extensions>
      </trkpt>
      <trkpt lat="42.562322951853275299072265625" lon="19.82834606431424617767333984375">
        <ele>931</ele>
        <time>2026-06-18T06:57:03.000Z</time>
        <extensions>
          <ns3:TrackPointExtension>
            <ns3:atemp>18.0</ns3:atemp>
          </ns3:TrackPointExtension>
        </extensions>
      </trkpt>
      <trkpt lat="42.5623212754726409912109375" lon="19.82828889973461627960205078125">
        <ele>931</ele>
        <time>2026-06-18T06:57:04.000Z</time>
        <extensions>
          <ns3:TrackPointExtension>
            <ns3:atemp>18.0</ns3:atemp>
          </ns3:TrackPointExtension>
        </extensions>
      </trkpt>
      <trkpt lat="42.56231255829334259033203125" lon="19.82823693193495273590087890625">
        <ele>931</ele>
        <time>2026-06-18T06:57:05.000Z</time>
        <extensions>
          <ns3:TrackPointExtension>
            <ns3:atemp>18.0</ns3:atemp>
          </ns3:TrackPointExtension>
        </extensions>
      </trkpt>
      <trkpt lat="42.5622979737818241119384765625" lon="19.82818714343011379241943359375">
        <ele>931</ele>
        <time>2026-06-18T06:57:06.000Z</time>
        <extensions>
          <ns3:TrackPointExtension>
            <ns3:atemp>18.0</ns3:atemp>
          </ns3:TrackPointExtension>
        </extensions>
      </trkpt>
      <trkpt lat="42.5622785277664661407470703125" lon="19.82814054004848003387451171875">
        <ele>931.20001220703125</ele>
        <time>2026-06-18T06:57:07.000Z</time>
        <extensions>
          <ns3:TrackPointExtension>
            <ns3:atemp>18.0</ns3:atemp>
          </ns3:TrackPointExtension>
        </extensions>
      </trkpt>
      <trkpt lat="42.56225899793207645416259765625" lon="19.8280968703329563140869140625">
        <ele>931</ele>
        <time>2026-06-18T06:57:08.000Z</time>
        <extensions>
          <ns3:TrackPointExtension>
            <ns3:atemp>18.0</ns3:atemp>
          </ns3:TrackPointExtension>
        </extensions>
      </trkpt>
      <trkpt lat="42.562237791717052459716796875" lon="19.828051440417766571044921875">
        <ele>931</ele>
        <time>2026-06-18T06:57:09.000Z</time>
        <extensions>
          <ns3:TrackPointExtension>
            <ns3:atemp>18.0</ns3:atemp>
          </ns3:TrackPointExtension>
        </extensions>
      </trkpt>
      <trkpt lat="42.5622193515300750732421875" lon="19.8280083574354648590087890625">
        <ele>931.20001220703125</ele>
        <time>2026-06-18T06:57:10.000Z</time>
        <extensions>
          <ns3:TrackPointExtension>
            <ns3:atemp>18.0</ns3:atemp>
          </ns3:TrackPointExtension>
        </extensions>
      </trkpt>
      <trkpt lat="42.56219596602022647857666015625" lon="19.8279671184718608856201171875">
        <ele>931.20001220703125</ele>
        <time>2026-06-18T06:57:11.000Z</time>
        <extensions>
          <ns3:TrackPointExtension>
            <ns3:atemp>18.0</ns3:atemp>
          </ns3:TrackPointExtension>
        </extensions>
      </trkpt>
      <trkpt lat="42.562172412872314453125" lon="19.8279252089560031890869140625">
        <ele>931.20001220703125</ele>
        <time>2026-06-18T06:57:12.000Z</time>
        <extensions>
          <ns3:TrackPointExtension>
            <ns3:atemp>18.0</ns3:atemp>
          </ns3:TrackPointExtension>
        </extensions>
      </trkpt>
      <trkpt lat="42.56214617751538753509521484375" lon="19.82788723893463611602783203125">
        <ele>931.20001220703125</ele>
        <time>2026-06-18T06:57:13.000Z</time>
        <extensions>
          <ns3:TrackPointExtension>
            <ns3:atemp>18.0</ns3:atemp>
          </ns3:TrackPointExtension>
        </extensions>
      </trkpt>
      <trkpt lat="42.56211851723492145538330078125" lon="19.82785320840775966644287109375">
        <ele>931.20001220703125</ele>
        <time>2026-06-18T06:57:14.000Z</time>
        <extensions>
          <ns3:TrackPointExtension>
            <ns3:atemp>18.0</ns3:atemp>
          </ns3:TrackPointExtension>
        </extensions>
      </trkpt>
      <trkpt lat="42.562091611325740814208984375" lon="19.82781582511961460113525390625">
        <ele>931.20001220703125</ele>
        <time>2026-06-18T06:57:15.000Z</time>
        <extensions>
          <ns3:TrackPointExtension>
            <ns3:atemp>18.0</ns3:atemp>
          </ns3:TrackPointExtension>
        </extensions>
      </trkpt>
      <trkpt lat="42.5620626099407672882080078125" lon="19.82777827419340610504150390625">
        <ele>931.20001220703125</ele>
        <time>2026-06-18T06:57:16.000Z</time>
        <extensions>
          <ns3:TrackPointExtension>
            <ns3:atemp>18.0</ns3:atemp>
          </ns3:TrackPointExtension>
        </extensions>
      </trkpt>
      <trkpt lat="42.56203721277415752410888671875" lon="19.827740304172039031982421875">
        <ele>931.4000244140625</ele>
        <time>2026-06-18T06:57:17.000Z</time>
        <extensions>
          <ns3:TrackPointExtension>
            <ns3:atemp>18.0</ns3:atemp>
          </ns3:TrackPointExtension>
        </extensions>
      </trkpt>
      <trkpt lat="42.562011815607547760009765625" lon="19.8276972211897373199462890625">
        <ele>931.4000244140625</ele>
        <time>2026-06-18T06:57:18.000Z</time>
        <extensions>
          <ns3:TrackPointExtension>
            <ns3:atemp>18.0</ns3:atemp>
          </ns3:TrackPointExtension>
        </extensions>
      </trkpt>
      <trkpt lat="42.5619861669838428497314453125" lon="19.8276546411216259002685546875">
        <ele>931.4000244140625</ele>
        <time>2026-06-18T06:57:19.000Z</time>
        <extensions>
          <ns3:TrackPointExtension>
            <ns3:atemp>18.0</ns3:atemp>
          </ns3:TrackPointExtension>
        </extensions>
      </trkpt>
      <trkpt lat="42.5619618594646453857421875" lon="19.82761524617671966552734375">
        <ele>931.5999755859375</ele>
        <time>2026-06-18T06:57:20.000Z</time>
        <extensions>
          <ns3:TrackPointExtension>
            <ns3:atemp>18.0</ns3:atemp>
          </ns3:TrackPointExtension>
        </extensions>
      </trkpt>
      <trkpt lat="42.5619382224977016448974609375" lon="19.8275765217840671539306640625">
        <ele>931.79998779296875</ele>
        <time>2026-06-18T06:57:21.000Z</time>
        <extensions>
          <ns3:TrackPointExtension>
            <ns3:atemp>18.0</ns3:atemp>
          </ns3:TrackPointExtension>
        </extensions>
      </trkpt>
      <trkpt lat="42.5619134120643138885498046875" lon="19.82753486372530460357666015625">
        <ele>931.79998779296875</ele>
        <time>2026-06-18T06:57:22.000Z</time>
        <extensions>
          <ns3:TrackPointExtension>
            <ns3:atemp>18.0</ns3:atemp>
          </ns3:TrackPointExtension>
        </extensions>
      </trkpt>
      <trkpt lat="42.56189220584928989410400390625" lon="19.8274880088865756988525390625">
        <ele>931.79998779296875</ele>
        <time>2026-06-18T06:57:23.000Z</time>
        <extensions>
          <ns3:TrackPointExtension>
            <ns3:atemp>18.0</ns3:atemp>
          </ns3:TrackPointExtension>
        </extensions>
      </trkpt>
      <trkpt lat="42.56187259219586849212646484375" lon="19.82744182460010051727294921875">
        <ele>931.79998779296875</ele>
        <time>2026-06-18T06:57:24.000Z</time>
        <extensions>
          <ns3:TrackPointExtension>
            <ns3:atemp>18.0</ns3:atemp>
          </ns3:TrackPointExtension>
        </extensions>
      </trkpt>
      <trkpt lat="42.5618507154285907745361328125" lon="19.8274008370935916900634765625">
        <ele>932</ele>
        <time>2026-06-18T06:57:25.000Z</time>
        <extensions>
          <ns3:TrackPointExtension>
            <ns3:atemp>18.0</ns3:atemp>
          </ns3:TrackPointExtension>
        </extensions>
      </trkpt>
      <trkpt lat="42.5618265755474567413330078125" lon="19.827358759939670562744140625">
        <ele>932</ele>
        <time>2026-06-18T06:57:26.000Z</time>
        <extensions>
          <ns3:TrackPointExtension>
            <ns3:atemp>18.0</ns3:atemp>
          </ns3:TrackPointExtension>
        </extensions>
      </trkpt>
      <trkpt lat="42.56180084310472011566162109375" lon="19.82731617987155914306640625">
        <ele>932</ele>
        <time>2026-06-18T06:57:27.000Z</time>
        <extensions>
          <ns3:TrackPointExtension>
            <ns3:atemp>18.0</ns3:atemp>
          </ns3:TrackPointExtension>
        </extensions>
      </trkpt>
      <trkpt lat="42.56177888251841068267822265625" lon="19.82726915739476680755615234375">
        <ele>932</ele>
        <time>2026-06-18T06:57:28.000Z</time>
        <extensions>
          <ns3:TrackPointExtension>
            <ns3:atemp>18.0</ns3:atemp>
          </ns3:TrackPointExtension>
        </extensions>
      </trkpt>
      <trkpt lat="42.56175625137984752655029296875" lon="19.8272244818508625030517578125">
        <ele>932</ele>
        <time>2026-06-18T06:57:29.000Z</time>
        <extensions>
          <ns3:TrackPointExtension>
            <ns3:atemp>18.0</ns3:atemp>
          </ns3:TrackPointExtension>
        </extensions>
      </trkpt>
      <trkpt lat="42.56173579953610897064208984375" lon="19.82717980630695819854736328125">
        <ele>932</ele>
        <time>2026-06-18T06:57:30.000Z</time>
        <extensions>
          <ns3:TrackPointExtension>
            <ns3:atemp>18.0</ns3:atemp>
          </ns3:TrackPointExtension>
        </extensions>
      </trkpt>
      <trkpt lat="42.56171786226332187652587890625" lon="19.82713202945888042449951171875">
        <ele>932</ele>
        <time>2026-06-18T06:57:31.000Z</time>
        <extensions>
          <ns3:TrackPointExtension>
            <ns3:atemp>18.0</ns3:atemp>
          </ns3:TrackPointExtension>
        </extensions>
      </trkpt>
      <trkpt lat="42.561698667705059051513671875" lon="19.82708576135337352752685546875">
        <ele>932</ele>
        <time>2026-06-18T06:57:32.000Z</time>
        <extensions>
          <ns3:TrackPointExtension>
            <ns3:atemp>18.0</ns3:atemp>
          </ns3:TrackPointExtension>
        </extensions>
      </trkpt>
      <trkpt lat="42.56167829968035221099853515625" lon="19.82703991234302520751953125">
        <ele>932.20001220703125</ele>
        <time>2026-06-18T06:57:33.000Z</time>
        <extensions>
          <ns3:TrackPointExtension>
            <ns3:atemp>18.0</ns3:atemp>
          </ns3:TrackPointExtension>
        </extensions>
      </trkpt>
      <trkpt lat="42.56165667437016963958740234375" lon="19.82699590735137462615966796875">
        <ele>932.20001220703125</ele>
        <time>2026-06-18T06:57:34.000Z</time>
        <extensions>
          <ns3:TrackPointExtension>
            <ns3:atemp>18.0</ns3:atemp>
          </ns3:TrackPointExtension>
        </extensions>
      </trkpt>
      <trkpt lat="42.56163437850773334503173828125" lon="19.82695215381681919097900390625">
        <ele>932.4000244140625</ele>
        <time>2026-06-18T06:57:35.000Z</time>
        <extensions>
          <ns3:TrackPointExtension>
            <ns3:atemp>18.0</ns3:atemp>
          </ns3:TrackPointExtension>
        </extensions>
      </trkpt>
      <trkpt lat="42.5616130046546459197998046875" lon="19.82690907083451747894287109375">
        <ele>932.4000244140625</ele>
        <time>2026-06-18T06:57:36.000Z</time>
        <extensions>
          <ns3:TrackPointExtension>
            <ns3:atemp>18.0</ns3:atemp>
          </ns3:TrackPointExtension>
        </extensions>
      </trkpt>
      <trkpt lat="42.56159062497317790985107421875" lon="19.826865233480930328369140625">
        <ele>932.4000244140625</ele>
        <time>2026-06-18T06:57:37.000Z</time>
        <extensions>
          <ns3:TrackPointExtension>
            <ns3:atemp>18.0</ns3:atemp>
          </ns3:TrackPointExtension>
        </extensions>
      </trkpt>
      <trkpt lat="42.56156824529170989990234375" lon="19.82682173140347003936767578125">
        <ele>932.5999755859375</ele>
        <time>2026-06-18T06:57:38.000Z</time>
        <extensions>
          <ns3:TrackPointExtension>
            <ns3:atemp>18.0</ns3:atemp>
          </ns3:TrackPointExtension>
        </extensions>
      </trkpt>
      <trkpt lat="42.56154402159154415130615234375" lon="19.82677948661148548126220703125">
        <ele>932.5999755859375</ele>
        <time>2026-06-18T06:57:39.000Z</time>
        <extensions>
          <ns3:TrackPointExtension>
            <ns3:atemp>18.0</ns3:atemp>
          </ns3:TrackPointExtension>
        </extensions>
      </trkpt>
      <trkpt lat="42.561522312462329864501953125" lon="19.82673816382884979248046875">
        <ele>932.5999755859375</ele>
        <time>2026-06-18T06:57:40.000Z</time>
        <extensions>
          <ns3:TrackPointExtension>
            <ns3:atemp>18.0</ns3:atemp>
          </ns3:TrackPointExtension>
        </extensions>
      </trkpt>
      <trkpt lat="42.56150127388536930084228515625" lon="19.82669700868427753448486328125">
        <ele>932.5999755859375</ele>
        <time>2026-06-18T06:57:41.000Z</time>
        <extensions>
          <ns3:TrackPointExtension>
            <ns3:atemp>18.0</ns3:atemp>
          </ns3:TrackPointExtension>
        </extensions>
      </trkpt>
      <trkpt lat="42.56148107349872589111328125" lon="19.8266488127410411834716796875">
        <ele>932.5999755859375</ele>
        <time>2026-06-18T06:57:42.000Z</time>
        <extensions>
          <ns3:TrackPointExtension>
            <ns3:atemp>18.0</ns3:atemp>
          </ns3:TrackPointExtension>
        </extensions>
      </trkpt>
      <trkpt lat="42.56145894527435302734375" lon="19.82659843750298023223876953125">
        <ele>932.79998779296875</ele>
        <time>2026-06-18T06:57:43.000Z</time>
        <extensions>
          <ns3:TrackPointExtension>
            <ns3:atemp>18.0</ns3:atemp>
          </ns3:TrackPointExtension>
        </extensions>
      </trkpt>
      <trkpt lat="42.561438493430614471435546875" lon="19.826553426682949066162109375">
        <ele>932.79998779296875</ele>
        <time>2026-06-18T06:57:44.000Z</time>
        <extensions>
          <ns3:TrackPointExtension>
            <ns3:atemp>18.0</ns3:atemp>
          </ns3:TrackPointExtension>
        </extensions>
      </trkpt>
      <trkpt lat="42.561417706310749053955078125" lon="19.82650523073971271514892578125">
        <ele>932.79998779296875</ele>
        <time>2026-06-18T06:57:45.000Z</time>
        <extensions>
          <ns3:TrackPointExtension>
            <ns3:atemp>18.0</ns3:atemp>
          </ns3:TrackPointExtension>
        </extensions>
      </trkpt>
      <trkpt lat="42.56139415316283702850341796875" lon="19.82645678333938121795654296875">
        <ele>932.79998779296875</ele>
        <time>2026-06-18T06:57:46.000Z</time>
        <extensions>
          <ns3:TrackPointExtension>
            <ns3:atemp>18.0</ns3:atemp>
          </ns3:TrackPointExtension>
        </extensions>
      </trkpt>
      <trkpt lat="42.5613690912723541259765625" lon="19.826405905187129974365234375">
        <ele>933</ele>
        <time>2026-06-18T06:57:47.000Z</time>
        <extensions>
          <ns3:TrackPointExtension>
            <ns3:atemp>18.0</ns3:atemp>
          </ns3:TrackPointExtension>
        </extensions>
      </trkpt>
      <trkpt lat="42.56134453229606151580810546875" lon="19.826352261006832122802734375">
        <ele>933</ele>
        <time>2026-06-18T06:57:48.000Z</time>
        <extensions>
          <ns3:TrackPointExtension>
            <ns3:atemp>18.0</ns3:atemp>
          </ns3:TrackPointExtension>
        </extensions>
      </trkpt>
      <trkpt lat="42.56131821312010288238525390625" lon="19.82629668898880481719970703125">
        <ele>933</ele>
        <time>2026-06-18T06:57:49.000Z</time>
        <extensions>
          <ns3:TrackPointExtension>
            <ns3:atemp>18.0</ns3:atemp>
          </ns3:TrackPointExtension>
        </extensions>
      </trkpt>
      <trkpt lat="42.5612944923341274261474609375" lon="19.8262451402842998504638671875">
        <ele>933</ele>
        <time>2026-06-18T06:57:50.000Z</time>
        <extensions>
          <ns3:TrackPointExtension>
            <ns3:atemp>18.0</ns3:atemp>
          </ns3:TrackPointExtension>
        </extensions>
      </trkpt>
      <trkpt lat="42.56127194501459598541259765625" lon="19.8261951841413974761962890625">
        <ele>933</ele>
        <time>2026-06-18T06:57:51.000Z</time>
        <extensions>
          <ns3:TrackPointExtension>
            <ns3:atemp>18.0</ns3:atemp>
          </ns3:TrackPointExtension>
        </extensions>
      </trkpt>
      <trkpt lat="42.56125048734247684478759765625" lon="19.8261472396552562713623046875">
        <ele>933</ele>
        <time>2026-06-18T06:57:52.000Z</time>
        <extensions>
          <ns3:TrackPointExtension>
            <ns3:atemp>18.0</ns3:atemp>
          </ns3:TrackPointExtension>
        </extensions>
      </trkpt>
      <trkpt lat="42.5612296164035797119140625" lon="19.82610172592103481292724609375">
        <ele>933.20001220703125</ele>
        <time>2026-06-18T06:57:53.000Z</time>
        <extensions>
          <ns3:TrackPointExtension>
            <ns3:atemp>18.0</ns3:atemp>
          </ns3:TrackPointExtension>
        </extensions>
      </trkpt>
      <trkpt lat="42.56120975129306316375732421875" lon="19.826051853597164154052734375">
        <ele>933.20001220703125</ele>
        <time>2026-06-18T06:57:54.000Z</time>
        <extensions>
          <ns3:TrackPointExtension>
            <ns3:atemp>18.0</ns3:atemp>
          </ns3:TrackPointExtension>
        </extensions>
      </trkpt>
      <trkpt lat="42.5611898861825466156005859375" lon="19.8260027356445789337158203125">
        <ele>933.20001220703125</ele>
        <time>2026-06-18T06:57:55.000Z</time>
        <extensions>
          <ns3:TrackPointExtension>
            <ns3:atemp>18.0</ns3:atemp>
          </ns3:TrackPointExtension>
        </extensions>
      </trkpt>
      <trkpt lat="42.5611707754433155059814453125" lon="19.82594984583556652069091796875">
        <ele>933.4000244140625</ele>
        <time>2026-06-18T06:57:56.000Z</time>
        <extensions>
          <ns3:TrackPointExtension>
            <ns3:atemp>18.0</ns3:atemp>
          </ns3:TrackPointExtension>
        </extensions>
      </trkpt>
      <trkpt lat="42.5611519999802112579345703125" lon="19.82589729130268096923828125">
        <ele>933.4000244140625</ele>
        <time>2026-06-18T06:57:57.000Z</time>
        <extensions>
          <ns3:TrackPointExtension>
            <ns3:atemp>18.0</ns3:atemp>
          </ns3:TrackPointExtension>
        </extensions>
      </trkpt>
      <trkpt lat="42.56112962029874324798583984375" lon="19.82584205456078052520751953125">
        <ele>933.5999755859375</ele>
        <time>2026-06-18T06:57:58.000Z</time>
        <extensions>
          <ns3:TrackPointExtension>
            <ns3:atemp>18.0</ns3:atemp>
          </ns3:TrackPointExtension>
        </extensions>
      </trkpt>
      <trkpt lat="42.561107911169528961181640625" lon="19.825790338218212127685546875">
        <ele>933.5999755859375</ele>
        <time>2026-06-18T06:57:59.000Z</time>
        <extensions>
          <ns3:TrackPointExtension>
            <ns3:atemp>18.0</ns3:atemp>
          </ns3:TrackPointExtension>
        </extensions>
      </trkpt>
      <trkpt lat="42.56108905188739299774169921875" lon="19.82573862187564373016357421875">
        <ele>933.5999755859375</ele>
        <time>2026-06-18T06:58:00.000Z</time>
        <extensions>
          <ns3:TrackPointExtension>
            <ns3:atemp>18.0</ns3:atemp>
          </ns3:TrackPointExtension>
        </extensions>
      </trkpt>
      <trkpt lat="42.5610681809484958648681640625" lon="19.82568673789501190185546875">
        <ele>933.5999755859375</ele>
        <time>2026-06-18T06:58:01.000Z</time>
        <extensions>
          <ns3:TrackPointExtension>
            <ns3:atemp>18.0</ns3:atemp>
          </ns3:TrackPointExtension>
        </extensions>
      </trkpt>
      <trkpt lat="42.5610463880002498626708984375" lon="19.82563954778015613555908203125">
        <ele>933.5999755859375</ele>
        <time>2026-06-18T06:58:02.000Z</time>
        <extensions>
          <ns3:TrackPointExtension>
            <ns3:atemp>18.0</ns3:atemp>
          </ns3:TrackPointExtension>
        </extensions>
      </trkpt>
      <trkpt lat="42.5610244274139404296875" lon="19.82559478841722011566162109375">
        <ele>933.79998779296875</ele>
        <time>2026-06-18T06:58:03.000Z</time>
        <extensions>
          <ns3:TrackPointExtension>
            <ns3:atemp>18.0</ns3:atemp>
          </ns3:TrackPointExtension>
        </extensions>
      </trkpt>
      <trkpt lat="42.56100229918956756591796875" lon="19.82554734684526920318603515625">
        <ele>933.79998779296875</ele>
        <time>2026-06-18T06:58:04.000Z</time>
        <extensions>
          <ns3:TrackPointExtension>
            <ns3:atemp>18.0</ns3:atemp>
          </ns3:TrackPointExtension>
        </extensions>
      </trkpt>
      <trkpt lat="42.56097908131778240203857421875" lon="19.8254994861781597137451171875">
        <ele>933.79998779296875</ele>
        <time>2026-06-18T06:58:05.000Z</time>
        <extensions>
          <ns3:TrackPointExtension>
            <ns3:atemp>18.0</ns3:atemp>
          </ns3:TrackPointExtension>
        </extensions>
      </trkpt>
      <trkpt lat="42.560955695807933807373046875" lon="19.8254538886249065399169921875">
        <ele>934</ele>
        <time>2026-06-18T06:58:06.000Z</time>
        <extensions>
          <ns3:TrackPointExtension>
            <ns3:atemp>18.0</ns3:atemp>
          </ns3:TrackPointExtension>
        </extensions>
      </trkpt>
      <trkpt lat="42.5609318912029266357421875" lon="19.82540837489068508148193359375">
        <ele>934</ele>
        <time>2026-06-18T06:58:07.000Z</time>
        <extensions>
          <ns3:TrackPointExtension>
            <ns3:atemp>18.0</ns3:atemp>
          </ns3:TrackPointExtension>
        </extensions>
      </trkpt>
      <trkpt lat="42.56091102026402950286865234375" lon="19.8253668844699859619140625">
        <ele>934</ele>
        <time>2026-06-18T06:58:08.000Z</time>
        <extensions>
          <ns3:TrackPointExtension>
            <ns3:atemp>18.0</ns3:atemp>
          </ns3:TrackPointExtension>
        </extensions>
      </trkpt>
      <trkpt lat="42.560891993343830108642578125" lon="19.8253221251070499420166015625">
        <ele>934</ele>
        <time>2026-06-18T06:58:09.000Z</time>
        <extensions>
          <ns3:TrackPointExtension>
            <ns3:atemp>18.0</ns3:atemp>
          </ns3:TrackPointExtension>
        </extensions>
      </trkpt>
      <trkpt lat="42.56087212823331356048583984375" lon="19.82527443207800388336181640625">
        <ele>934</ele>
        <time>2026-06-18T06:58:10.000Z</time>
        <extensions>
          <ns3:TrackPointExtension>
            <ns3:atemp>18.0</ns3:atemp>
          </ns3:TrackPointExtension>
        </extensions>
      </trkpt>
      <trkpt lat="42.56084941327571868896484375" lon="19.8252299241721630096435546875">
        <ele>934</ele>
        <time>2026-06-18T06:58:11.000Z</time>
        <extensions>
          <ns3:TrackPointExtension>
            <ns3:atemp>18.0</ns3:atemp>
          </ns3:TrackPointExtension>
        </extensions>
      </trkpt>
      <trkpt lat="42.5608244352042675018310546875" lon="19.82518189586699008941650390625">
        <ele>934</ele>
        <time>2026-06-18T06:58:12.000Z</time>
        <extensions>
          <ns3:TrackPointExtension>
            <ns3:atemp>18.0</ns3:atemp>
          </ns3:TrackPointExtension>
        </extensions>
      </trkpt>
      <trkpt lat="42.5608002953231334686279296875" lon="19.8251347057521343231201171875">
        <ele>934.20001220703125</ele>
        <time>2026-06-18T06:58:13.000Z</time>
        <extensions>
          <ns3:TrackPointExtension>
            <ns3:atemp>18.0</ns3:atemp>
          </ns3:TrackPointExtension>
        </extensions>
      </trkpt>
      <trkpt lat="42.560774981975555419921875" lon="19.82508785091340541839599609375">
        <ele>934.20001220703125</ele>
        <time>2026-06-18T06:58:14.000Z</time>
        <extensions>
          <ns3:TrackPointExtension>
            <ns3:atemp>18.0</ns3:atemp>
          </ns3:TrackPointExtension>
        </extensions>
      </trkpt>
      <trkpt lat="42.5607489980757236480712890625" lon="19.82503856532275676727294921875">
        <ele>934.20001220703125</ele>
        <time>2026-06-18T06:58:15.000Z</time>
        <extensions>
          <ns3:TrackPointExtension>
            <ns3:atemp>18.0</ns3:atemp>
          </ns3:TrackPointExtension>
        </extensions>
      </trkpt>
      <trkpt lat="42.56072510965168476104736328125" lon="19.82499129138886928558349609375">
        <ele>934.20001220703125</ele>
        <time>2026-06-18T06:58:16.000Z</time>
        <extensions>
          <ns3:TrackPointExtension>
            <ns3:atemp>18.0</ns3:atemp>
          </ns3:TrackPointExtension>
        </extensions>
      </trkpt>
      <trkpt lat="42.56070281378924846649169921875" lon="19.82494351454079151153564453125">
        <ele>934.4000244140625</ele>
        <time>2026-06-18T06:58:17.000Z</time>
        <extensions>
          <ns3:TrackPointExtension>
            <ns3:atemp>18.0</ns3:atemp>
          </ns3:TrackPointExtension>
        </extensions>
      </trkpt>
      <trkpt lat="42.560681439936161041259765625" lon="19.824896156787872314453125">
        <ele>934.4000244140625</ele>
        <time>2026-06-18T06:58:18.000Z</time>
        <extensions>
          <ns3:TrackPointExtension>
            <ns3:atemp>18.0</ns3:atemp>
          </ns3:TrackPointExtension>
        </extensions>
      </trkpt>
      <trkpt lat="42.56066040135920047760009765625" lon="19.824847541749477386474609375">
        <ele>934.4000244140625</ele>
        <time>2026-06-18T06:58:19.000Z</time>
        <extensions>
          <ns3:TrackPointExtension>
            <ns3:atemp>18.0</ns3:atemp>
          </ns3:TrackPointExtension>
        </extensions>
      </trkpt>
      <trkpt lat="42.56064078770577907562255859375" lon="19.8247957415878772735595703125">
        <ele>934.4000244140625</ele>
        <time>2026-06-18T06:58:20.000Z</time>
        <extensions>
          <ns3:TrackPointExtension>
            <ns3:atemp>18.0</ns3:atemp>
          </ns3:TrackPointExtension>
        </extensions>
      </trkpt>
      <trkpt lat="42.56062050350010395050048828125" lon="19.82474368996918201446533203125">
        <ele>934.4000244140625</ele>
        <time>2026-06-18T06:58:21.000Z</time>
        <extensions>
          <ns3:TrackPointExtension>
            <ns3:atemp>18.0</ns3:atemp>
          </ns3:TrackPointExtension>
        </extensions>
      </trkpt>
      <trkpt lat="42.56059996783733367919921875" lon="19.82469256035983562469482421875">
        <ele>934.5999755859375</ele>
        <time>2026-06-18T06:58:22.000Z</time>
        <extensions>
          <ns3:TrackPointExtension>
            <ns3:atemp>18.0</ns3:atemp>
          </ns3:TrackPointExtension>
        </extensions>
      </trkpt>
      <trkpt lat="42.56058077327907085418701171875" lon="19.82464310713112354278564453125">
        <ele>934.5999755859375</ele>
        <time>2026-06-18T06:58:23.000Z</time>
        <extensions>
          <ns3:TrackPointExtension>
            <ns3:atemp>18.0</ns3:atemp>
          </ns3:TrackPointExtension>
        </extensions>
      </trkpt>
      <trkpt lat="42.56056082434952259063720703125" lon="19.82459683902561664581298828125">
        <ele>934.5999755859375</ele>
        <time>2026-06-18T06:58:24.000Z</time>
        <extensions>
          <ns3:TrackPointExtension>
            <ns3:atemp>18.0</ns3:atemp>
          </ns3:TrackPointExtension>
        </extensions>
      </trkpt>
      <trkpt lat="42.56053986959159374237060546875" lon="19.8245509900152683258056640625">
        <ele>934.79998779296875</ele>
        <time>2026-06-18T06:58:25.000Z</time>
        <extensions>
          <ns3:TrackPointExtension>
            <ns3:atemp>18.0</ns3:atemp>
          </ns3:TrackPointExtension>
        </extensions>
      </trkpt>
      <trkpt lat="42.56052092649042606353759765625" lon="19.8245030455291271209716796875">
        <ele>934.79998779296875</ele>
        <time>2026-06-18T06:58:26.000Z</time>
        <extensions>
          <ns3:TrackPointExtension>
            <ns3:atemp>18.0</ns3:atemp>
          </ns3:TrackPointExtension>
        </extensions>
      </trkpt>
      <trkpt lat="42.5605000555515289306640625" lon="19.8244554363191127777099609375">
        <ele>934.79998779296875</ele>
        <time>2026-06-18T06:58:27.000Z</time>
        <extensions>
          <ns3:TrackPointExtension>
            <ns3:atemp>18.0</ns3:atemp>
          </ns3:TrackPointExtension>
        </extensions>
      </trkpt>
      <trkpt lat="42.560479938983917236328125" lon="19.824409000575542449951171875">
        <ele>934.79998779296875</ele>
        <time>2026-06-18T06:58:28.000Z</time>
        <extensions>
          <ns3:TrackPointExtension>
            <ns3:atemp>18.0</ns3:atemp>
          </ns3:TrackPointExtension>
        </extensions>
      </trkpt>
      <trkpt lat="42.56046091206371784210205078125" lon="19.824359714984893798828125">
        <ele>935</ele>
        <time>2026-06-18T06:58:29.000Z</time>
        <extensions>
          <ns3:TrackPointExtension>
            <ns3:atemp>18.0</ns3:atemp>
          </ns3:TrackPointExtension>
        </extensions>
      </trkpt>
      <trkpt lat="42.56044364534318447113037109375" lon="19.82431210577487945556640625">
        <ele>935</ele>
        <time>2026-06-18T06:58:30.000Z</time>
        <extensions>
          <ns3:TrackPointExtension>
            <ns3:atemp>18.0</ns3:atemp>
          </ns3:TrackPointExtension>
        </extensions>
      </trkpt>
      <trkpt lat="42.56042621098458766937255859375" lon="19.82426256872713565826416015625">
        <ele>935.20001220703125</ele>
        <time>2026-06-18T06:58:31.000Z</time>
        <extensions>
          <ns3:TrackPointExtension>
            <ns3:atemp>18.0</ns3:atemp>
          </ns3:TrackPointExtension>
        </extensions>
      </trkpt>
      <trkpt lat="42.56040710024535655975341796875" lon="19.824215881526470184326171875">
        <ele>935.20001220703125</ele>
        <time>2026-06-18T06:58:32.000Z</time>
        <extensions>
          <ns3:TrackPointExtension>
            <ns3:atemp>18.0</ns3:atemp>
          </ns3:TrackPointExtension>
        </extensions>
      </trkpt>
      <trkpt lat="42.56038698367774486541748046875" lon="19.8241654224693775177001953125">
        <ele>935.4000244140625</ele>
        <time>2026-06-18T06:58:33.000Z</time>
        <extensions>
          <ns3:TrackPointExtension>
            <ns3:atemp>18.0</ns3:atemp>
          </ns3:TrackPointExtension>
        </extensions>
      </trkpt>
      <trkpt lat="42.560367621481418609619140625" lon="19.824116639792919158935546875">
        <ele>935.4000244140625</ele>
        <time>2026-06-18T06:58:34.000Z</time>
        <extensions>
          <ns3:TrackPointExtension>
            <ns3:atemp>18.0</ns3:atemp>
          </ns3:TrackPointExtension>
        </extensions>
      </trkpt>
      <trkpt lat="42.56034649908542633056640625" lon="19.82407070696353912353515625">
        <ele>935.5999755859375</ele>
        <time>2026-06-18T06:58:35.000Z</time>
        <extensions>
          <ns3:TrackPointExtension>
            <ns3:atemp>18.0</ns3:atemp>
          </ns3:TrackPointExtension>
        </extensions>
      </trkpt>
      <trkpt lat="42.56032395176589488983154296875" lon="19.8240262828767299652099609375">
        <ele>935.5999755859375</ele>
        <time>2026-06-18T06:58:36.000Z</time>
        <extensions>
          <ns3:TrackPointExtension>
            <ns3:atemp>18.0</ns3:atemp>
          </ns3:TrackPointExtension>
        </extensions>
      </trkpt>
      <trkpt lat="42.56029997952282428741455078125" lon="19.82398085296154022216796875">
        <ele>935.5999755859375</ele>
        <time>2026-06-18T06:58:37.000Z</time>
        <extensions>
          <ns3:TrackPointExtension>
            <ns3:atemp>18.0</ns3:atemp>
          </ns3:TrackPointExtension>
        </extensions>
      </trkpt>
      <trkpt lat="42.560272403061389923095703125" lon="19.8239350877702236175537109375">
        <ele>935.5999755859375</ele>
        <time>2026-06-18T06:58:38.000Z</time>
        <extensions>
          <ns3:TrackPointExtension>
            <ns3:atemp>18.0</ns3:atemp>
          </ns3:TrackPointExtension>
        </extensions>
      </trkpt>
      <trkpt lat="42.56024457514286041259765625" lon="19.82388965785503387451171875">
        <ele>935.5999755859375</ele>
        <time>2026-06-18T06:58:39.000Z</time>
        <extensions>
          <ns3:TrackPointExtension>
            <ns3:atemp>18.0</ns3:atemp>
          </ns3:TrackPointExtension>
        </extensions>
      </trkpt>
      <trkpt lat="42.56021699868142604827880859375" lon="19.8238445632159709930419921875">
        <ele>935.79998779296875</ele>
        <time>2026-06-18T06:58:40.000Z</time>
        <extensions>
          <ns3:TrackPointExtension>
            <ns3:atemp>18.0</ns3:atemp>
          </ns3:TrackPointExtension>
        </extensions>
      </trkpt>
      <trkpt lat="42.56018866784870624542236328125" lon="19.82379854656755924224853515625">
        <ele>935.79998779296875</ele>
        <time>2026-06-18T06:58:41.000Z</time>
        <extensions>
          <ns3:TrackPointExtension>
            <ns3:atemp>18.0</ns3:atemp>
          </ns3:TrackPointExtension>
        </extensions>
      </trkpt>
      <trkpt lat="42.560159079730510711669921875" lon="19.8237563855946063995361328125">
        <ele>935.79998779296875</ele>
        <time>2026-06-18T06:58:42.000Z</time>
        <extensions>
          <ns3:TrackPointExtension>
            <ns3:atemp>18.0</ns3:atemp>
          </ns3:TrackPointExtension>
        </extensions>
      </trkpt>
      <trkpt lat="42.5601290725171566009521484375" lon="19.82371355406939983367919921875">
        <ele>935.79998779296875</ele>
        <time>2026-06-18T06:58:43.000Z</time>
        <extensions>
          <ns3:TrackPointExtension>
            <ns3:atemp>18.0</ns3:atemp>
          </ns3:TrackPointExtension>
        </extensions>
      </trkpt>
      <trkpt lat="42.56009596399962902069091796875" lon="19.82366795651614665985107421875">
        <ele>936</ele>
        <time>2026-06-18T06:58:44.000Z</time>
        <extensions>
          <ns3:TrackPointExtension>
            <ns3:atemp>18.0</ns3:atemp>
          </ns3:TrackPointExtension>
        </extensions>
      </trkpt>
      <trkpt lat="42.56006143055856227874755859375" lon="19.8236229456961154937744140625">
        <ele>936</ele>
        <time>2026-06-18T06:58:45.000Z</time>
        <extensions>
          <ns3:TrackPointExtension>
            <ns3:atemp>18.0</ns3:atemp>
          </ns3:TrackPointExtension>
        </extensions>
      </trkpt>
      <trkpt lat="42.56002773530781269073486328125" lon="19.82358254492282867431640625">
        <ele>936</ele>
        <time>2026-06-18T06:58:46.000Z</time>
        <extensions>
          <ns3:TrackPointExtension>
            <ns3:atemp>18.0</ns3:atemp>
          </ns3:TrackPointExtension>
        </extensions>
      </trkpt>
      <trkpt lat="42.55999521352350711822509765625" lon="19.82354591600596904754638671875">
        <ele>936.20001220703125</ele>
        <time>2026-06-18T06:58:47.000Z</time>
        <extensions>
          <ns3:TrackPointExtension>
            <ns3:atemp>18.0</ns3:atemp>
          </ns3:TrackPointExtension>
        </extensions>
      </trkpt>
      <trkpt lat="42.55996185354888439178466796875" lon="19.82351146638393402099609375">
        <ele>936.20001220703125</ele>
        <time>2026-06-18T06:58:48.000Z</time>
        <extensions>
          <ns3:TrackPointExtension>
            <ns3:atemp>18.0</ns3:atemp>
          </ns3:TrackPointExtension>
        </extensions>
      </trkpt>
      <trkpt lat="42.55993033759295940399169921875" lon="19.82348196208477020263671875">
        <ele>936.4000244140625</ele>
        <time>2026-06-18T06:58:49.000Z</time>
        <extensions>
          <ns3:TrackPointExtension>
            <ns3:atemp>18.0</ns3:atemp>
          </ns3:TrackPointExtension>
        </extensions>
      </trkpt>
      <trkpt lat="42.559898905456066131591796875" lon="19.823451451957225799560546875">
        <ele>936.4000244140625</ele>
        <time>2026-06-18T06:58:50.000Z</time>
        <extensions>
          <ns3:TrackPointExtension>
            <ns3:atemp>18.0</ns3:atemp>
          </ns3:TrackPointExtension>
        </extensions>
      </trkpt>
      <trkpt lat="42.55986512638628482818603515625" lon="19.82341884635388851165771484375">
        <ele>936.5999755859375</ele>
        <time>2026-06-18T06:58:51.000Z</time>
        <extensions>
          <ns3:TrackPointExtension>
            <ns3:atemp>18.0</ns3:atemp>
          </ns3:TrackPointExtension>
        </extensions>
      </trkpt>
      <trkpt lat="42.55983428098261356353759765625" lon="19.82338950969278812408447265625">
        <ele>936.5999755859375</ele>
        <time>2026-06-18T06:58:52.000Z</time>
        <extensions>
          <ns3:TrackPointExtension>
            <ns3:atemp>18.0</ns3:atemp>
          </ns3:TrackPointExtension>
        </extensions>
      </trkpt>
      <trkpt lat="42.55980226211249828338623046875" lon="19.8233600892126560211181640625">
        <ele>936.79998779296875</ele>
        <time>2026-06-18T06:58:53.000Z</time>
        <extensions>
          <ns3:TrackPointExtension>
            <ns3:atemp>18.0</ns3:atemp>
          </ns3:TrackPointExtension>
        </extensions>
      </trkpt>
      <trkpt lat="42.55976982414722442626953125" lon="19.8233312554657459259033203125">
        <ele>936.79998779296875</ele>
        <time>2026-06-18T06:58:54.000Z</time>
        <extensions>
          <ns3:TrackPointExtension>
            <ns3:atemp>18.0</ns3:atemp>
          </ns3:TrackPointExtension>
        </extensions>
      </trkpt>
      <trkpt lat="42.55973738618195056915283203125" lon="19.8233027569949626922607421875">
        <ele>937</ele>
        <time>2026-06-18T06:58:55.000Z</time>
        <extensions>
          <ns3:TrackPointExtension>
            <ns3:atemp>18.0</ns3:atemp>
          </ns3:TrackPointExtension>
        </extensions>
      </trkpt>
      <trkpt lat="42.559703774750232696533203125" lon="19.8232725821435451507568359375">
        <ele>937</ele>
        <time>2026-06-18T06:58:56.000Z</time>
        <extensions>
          <ns3:TrackPointExtension>
            <ns3:atemp>18.0</ns3:atemp>
          </ns3:TrackPointExtension>
        </extensions>
      </trkpt>
      <trkpt lat="42.55966714583337306976318359375" lon="19.823242910206317901611328125">
        <ele>937.20001220703125</ele>
        <time>2026-06-18T06:58:57.000Z</time>
        <extensions>
          <ns3:TrackPointExtension>
            <ns3:atemp>18.0</ns3:atemp>
          </ns3:TrackPointExtension>
        </extensions>
      </trkpt>
      <trkpt lat="42.55963261239230632781982421875" lon="19.82322069816291332244873046875">
        <ele>937.20001220703125</ele>
        <time>2026-06-18T06:58:58.000Z</time>
        <extensions>
          <ns3:TrackPointExtension>
            <ns3:atemp>18.0</ns3:atemp>
          </ns3:TrackPointExtension>
        </extensions>
      </trkpt>
      <trkpt lat="42.559597492218017578125" lon="19.82319387607276439666748046875">
        <ele>937.4000244140625</ele>
        <time>2026-06-18T06:58:59.000Z</time>
        <extensions>
          <ns3:TrackPointExtension>
            <ns3:atemp>18.0</ns3:atemp>
          </ns3:TrackPointExtension>
        </extensions>
      </trkpt>
      <trkpt lat="42.55956052802503108978271484375" lon="19.82316755689680576324462890625">
        <ele>937.4000244140625</ele>
        <time>2026-06-18T06:59:00.000Z</time>
        <extensions>
          <ns3:TrackPointExtension>
            <ns3:atemp>18.0</ns3:atemp>
          </ns3:TrackPointExtension>
        </extensions>
      </trkpt>
      <trkpt lat="42.55952415056526660919189453125" lon="19.823138974606990814208984375">
        <ele>937.5999755859375</ele>
        <time>2026-06-18T06:59:01.000Z</time>
        <extensions>
          <ns3:TrackPointExtension>
            <ns3:atemp>18.0</ns3:atemp>
          </ns3:TrackPointExtension>
        </extensions>
      </trkpt>
      <trkpt lat="42.5594860129058361053466796875" lon="19.82310645282268524169921875">
        <ele>937.79998779296875</ele>
        <time>2026-06-18T06:59:02.000Z</time>
        <extensions>
          <ns3:TrackPointExtension>
            <ns3:atemp>18.0</ns3:atemp>
          </ns3:TrackPointExtension>
        </extensions>
      </trkpt>
      <trkpt lat="42.5594498030841350555419921875" lon="19.8230754397809505462646484375">
        <ele>937.79998779296875</ele>
        <time>2026-06-18T06:59:03.000Z</time>
        <extensions>
          <ns3:TrackPointExtension>
            <ns3:atemp>18.0</ns3:atemp>
          </ns3:TrackPointExtension>
        </extensions>
      </trkpt>
      <trkpt lat="42.559415437281131744384765625" lon="19.82304275035858154296875">
        <ele>938</ele>
        <time>2026-06-18T06:59:04.000Z</time>
        <extensions>
          <ns3:TrackPointExtension>
            <ns3:atemp>18.0</ns3:atemp>
          </ns3:TrackPointExtension>
        </extensions>
      </trkpt>
      <trkpt lat="42.559380233287811279296875" lon="19.8230130784213542938232421875">
        <ele>938.20001220703125</ele>
        <time>2026-06-18T06:59:05.000Z</time>
        <extensions>
          <ns3:TrackPointExtension>
            <ns3:atemp>18.0</ns3:atemp>
          </ns3:TrackPointExtension>
        </extensions>
      </trkpt>
      <trkpt lat="42.5593448616564273834228515625" lon="19.82298298738896846771240234375">
        <ele>938.20001220703125</ele>
        <time>2026-06-18T06:59:06.000Z</time>
        <extensions>
          <ns3:TrackPointExtension>
            <ns3:atemp>18.0</ns3:atemp>
          </ns3:TrackPointExtension>
        </extensions>
      </trkpt>
      <trkpt lat="42.559310160577297210693359375" lon="19.82295147143304347991943359375">
        <ele>938.4000244140625</ele>
        <time>2026-06-18T06:59:07.000Z</time>
        <extensions>
          <ns3:TrackPointExtension>
            <ns3:atemp>18.0</ns3:atemp>
          </ns3:TrackPointExtension>
        </extensions>
      </trkpt>
      <trkpt lat="42.55928157828748226165771484375" lon="19.82292045839130878448486328125">
        <ele>938.4000244140625</ele>
        <time>2026-06-18T06:59:08.000Z</time>
        <extensions>
          <ns3:TrackPointExtension>
            <ns3:atemp>18.0</ns3:atemp>
          </ns3:TrackPointExtension>
        </extensions>
      </trkpt>
      <trkpt lat="42.55925425328314304351806640625" lon="19.82288626022636890411376953125">
        <ele>938.5999755859375</ele>
        <time>2026-06-18T06:59:09.000Z</time>
        <extensions>
          <ns3:TrackPointExtension>
            <ns3:atemp>18.0</ns3:atemp>
          </ns3:TrackPointExtension>
        </extensions>
      </trkpt>
      <trkpt lat="42.5592369027435779571533203125" lon="19.82284083031117916107177734375">
        <ele>938.5999755859375</ele>
        <time>2026-06-18T06:59:10.000Z</time>
        <extensions>
          <ns3:TrackPointExtension>
            <ns3:atemp>18.0</ns3:atemp>
          </ns3:TrackPointExtension>
        </extensions>
      </trkpt>
      <trkpt lat="42.55922609008848667144775390625" lon="19.8227864317595958709716796875">
        <ele>938.79998779296875</ele>
        <time>2026-06-18T06:59:11.000Z</time>
        <extensions>
          <ns3:TrackPointExtension>
            <ns3:atemp>18.0</ns3:atemp>
          </ns3:TrackPointExtension>
        </extensions>
      </trkpt>
      <trkpt lat="42.559227012097835540771484375" lon="19.82273136265575885772705078125">
        <ele>938.79998779296875</ele>
        <time>2026-06-18T06:59:12.000Z</time>
        <extensions>
          <ns3:TrackPointExtension>
            <ns3:atemp>18.0</ns3:atemp>
          </ns3:TrackPointExtension>
        </extensions>
      </trkpt>
      <trkpt lat="42.5592394173145294189453125" lon="19.82268224470317363739013671875">
        <ele>939</ele>
        <time>2026-06-18T06:59:13.000Z</time>
        <extensions>
          <ns3:TrackPointExtension>
            <ns3:atemp>18.0</ns3:atemp>
          </ns3:TrackPointExtension>
        </extensions>
      </trkpt>
      <trkpt lat="42.5592546723783016204833984375" lon="19.8226342163980007171630859375">
        <ele>939.20001220703125</ele>
        <time>2026-06-18T06:59:14.000Z</time>
        <extensions>
          <ns3:TrackPointExtension>
            <ns3:atemp>18.0</ns3:atemp>
          </ns3:TrackPointExtension>
        </extensions>
      </trkpt>
      <trkpt lat="42.55927135236561298370361328125" lon="19.822588451206684112548828125">
        <ele>939.4000244140625</ele>
        <time>2026-06-18T06:59:15.000Z</time>
        <extensions>
          <ns3:TrackPointExtension>
            <ns3:atemp>18.0</ns3:atemp>
          </ns3:TrackPointExtension>
        </extensions>
      </trkpt>
      <trkpt lat="42.559288032352924346923828125" lon="19.8225440271198749542236328125">
        <ele>939.4000244140625</ele>
        <time>2026-06-18T06:59:16.000Z</time>
        <extensions>
          <ns3:TrackPointExtension>
            <ns3:atemp>18.0</ns3:atemp>
          </ns3:TrackPointExtension>
        </extensions>
      </trkpt>
      <trkpt lat="42.55930387414991855621337890625" lon="19.822501949965953826904296875">
        <ele>939.5999755859375</ele>
        <time>2026-06-18T06:59:17.000Z</time>
        <extensions>
          <ns3:TrackPointExtension>
            <ns3:atemp>18.0</ns3:atemp>
          </ns3:TrackPointExtension>
        </extensions>
      </trkpt>
      <trkpt lat="42.55931627936661243438720703125" lon="19.82245626859366893768310546875">
        <ele>939.5999755859375</ele>
        <time>2026-06-18T06:59:18.000Z</time>
        <extensions>
          <ns3:TrackPointExtension>
            <ns3:atemp>18.0</ns3:atemp>
          </ns3:TrackPointExtension>
        </extensions>
      </trkpt>
      <trkpt lat="42.55932725965976715087890625" lon="19.82241217978298664093017578125">
        <ele>940</ele>
        <time>2026-06-18T06:59:19.000Z</time>
        <extensions>
          <ns3:TrackPointExtension>
            <ns3:atemp>18.0</ns3:atemp>
          </ns3:TrackPointExtension>
        </extensions>
      </trkpt>
      <trkpt lat="42.5593378208577632904052734375" lon="19.8223653249442577362060546875">
        <ele>940.20001220703125</ele>
        <time>2026-06-18T06:59:20.000Z</time>
        <extensions>
          <ns3:TrackPointExtension>
            <ns3:atemp>18.0</ns3:atemp>
          </ns3:TrackPointExtension>
        </extensions>
      </trkpt>
      <trkpt lat="42.55934930406510829925537109375" lon="19.82232115231454372406005859375">
        <ele>940.4000244140625</ele>
        <time>2026-06-18T06:59:21.000Z</time>
        <extensions>
          <ns3:TrackPointExtension>
            <ns3:atemp>18.0</ns3:atemp>
          </ns3:TrackPointExtension>
        </extensions>
      </trkpt>
      <trkpt lat="42.55936087109148502349853515625" lon="19.82227555476129055023193359375">
        <ele>940.79998779296875</ele>
        <time>2026-06-18T06:59:22.000Z</time>
        <extensions>
          <ns3:TrackPointExtension>
            <ns3:atemp>18.0</ns3:atemp>
          </ns3:TrackPointExtension>
        </extensions>
      </trkpt>
      <trkpt lat="42.5593730248510837554931640625" lon="19.82222945429384708404541015625">
        <ele>941</ele>
        <time>2026-06-18T06:59:23.000Z</time>
        <extensions>
          <ns3:TrackPointExtension>
            <ns3:atemp>18.0</ns3:atemp>
          </ns3:TrackPointExtension>
        </extensions>
      </trkpt>
      <trkpt lat="42.55938584916293621063232421875" lon="19.82218402437865734100341796875">
        <ele>941.20001220703125</ele>
        <time>2026-06-18T06:59:24.000Z</time>
        <extensions>
          <ns3:TrackPointExtension>
            <ns3:atemp>18.0</ns3:atemp>
          </ns3:TrackPointExtension>
        </extensions>
      </trkpt>
      <trkpt lat="42.5593988411128520965576171875" lon="19.8221410252153873443603515625">
        <ele>941.4000244140625</ele>
        <time>2026-06-18T06:59:25.000Z</time>
        <extensions>
          <ns3:TrackPointExtension>
            <ns3:atemp>19.0</ns3:atemp>
          </ns3:TrackPointExtension>
        </extensions>
      </trkpt>
      <trkpt lat="42.5594102405011653900146484375" lon="19.82210271991789340972900390625">
        <ele>941.5999755859375</ele>
        <time>2026-06-18T06:59:26.000Z</time>
        <extensions>
          <ns3:TrackPointExtension>
            <ns3:atemp>19.0</ns3:atemp>
          </ns3:TrackPointExtension>
        </extensions>
      </trkpt>
      <trkpt lat="42.5594213046133518218994140625" lon="19.82206181623041629791259765625">
        <ele>941.79998779296875</ele>
        <time>2026-06-18T06:59:27.000Z</time>
        <extensions>
          <ns3:TrackPointExtension>
            <ns3:atemp>18.0</ns3:atemp>
          </ns3:TrackPointExtension>
        </extensions>
      </trkpt>
      <trkpt lat="42.55943060852587223052978515625" lon="19.8220213316380977630615234375">
        <ele>942</ele>
        <time>2026-06-18T06:59:28.000Z</time>
        <extensions>
          <ns3:TrackPointExtension>
            <ns3:atemp>19.0</ns3:atemp>
          </ns3:TrackPointExtension>
        </extensions>
      </trkpt>
      <trkpt lat="42.5594424270093441009521484375" lon="19.82198419980704784393310546875">
        <ele>942.20001220703125</ele>
        <time>2026-06-18T06:59:29.000Z</time>
        <extensions>
          <ns3:TrackPointExtension>
            <ns3:atemp>18.0</ns3:atemp>
          </ns3:TrackPointExtension>
        </extensions>
      </trkpt>
      <trkpt lat="42.55945508368313312530517578125" lon="19.821946062147617340087890625">
        <ele>942.4000244140625</ele>
        <time>2026-06-18T06:59:30.000Z</time>
        <extensions>
          <ns3:TrackPointExtension>
            <ns3:atemp>18.0</ns3:atemp>
          </ns3:TrackPointExtension>
        </extensions>
      </trkpt>
      <trkpt lat="42.5594702549278736114501953125" lon="19.8219068348407745361328125">
        <ele>942.5999755859375</ele>
        <time>2026-06-18T06:59:31.000Z</time>
        <extensions>
          <ns3:TrackPointExtension>
            <ns3:atemp>18.0</ns3:atemp>
          </ns3:TrackPointExtension>
        </extensions>
      </trkpt>
      <trkpt lat="42.55948760546743869781494140625" lon="19.821865595877170562744140625">
        <ele>942.79998779296875</ele>
        <time>2026-06-18T06:59:32.000Z</time>
        <extensions>
          <ns3:TrackPointExtension>
            <ns3:atemp>18.0</ns3:atemp>
          </ns3:TrackPointExtension>
        </extensions>
      </trkpt>
      <trkpt lat="42.559503614902496337890625" lon="19.821824692189693450927734375">
        <ele>943</ele>
        <time>2026-06-18T06:59:33.000Z</time>
        <extensions>
          <ns3:TrackPointExtension>
            <ns3:atemp>18.0</ns3:atemp>
          </ns3:TrackPointExtension>
        </extensions>
      </trkpt>
      <trkpt lat="42.559517361223697662353515625" lon="19.8217826150357723236083984375">
        <ele>943</ele>
        <time>2026-06-18T06:59:34.000Z</time>
        <extensions>
          <ns3:TrackPointExtension>
            <ns3:atemp>18.0</ns3:atemp>
          </ns3:TrackPointExtension>
        </extensions>
      </trkpt>
      <trkpt lat="42.559533454477787017822265625" lon="19.82174229808151721954345703125">
        <ele>943.20001220703125</ele>
        <time>2026-06-18T06:59:35.000Z</time>
        <extensions>
          <ns3:TrackPointExtension>
            <ns3:atemp>18.0</ns3:atemp>
          </ns3:TrackPointExtension>
        </extensions>
      </trkpt>
      <trkpt lat="42.559548206627368927001953125" lon="19.82170273549854755401611328125">
        <ele>943.20001220703125</ele>
        <time>2026-06-18T06:59:36.000Z</time>
        <extensions>
          <ns3:TrackPointExtension>
            <ns3:atemp>18.0</ns3:atemp>
          </ns3:TrackPointExtension>
        </extensions>
      </trkpt>
      <trkpt lat="42.5595612823963165283203125" lon="19.82165797613561153411865234375">
        <ele>943.4000244140625</ele>
        <time>2026-06-18T06:59:37.000Z</time>
        <extensions>
          <ns3:TrackPointExtension>
            <ns3:atemp>18.0</ns3:atemp>
          </ns3:TrackPointExtension>
        </extensions>
      </trkpt>
      <trkpt lat="42.55957360379397869110107421875" lon="19.82161405496299266815185546875">
        <ele>943.5999755859375</ele>
        <time>2026-06-18T06:59:38.000Z</time>
        <extensions>
          <ns3:TrackPointExtension>
            <ns3:atemp>19.0</ns3:atemp>
          </ns3:TrackPointExtension>
        </extensions>
      </trkpt>
      <trkpt lat="42.559583075344562530517578125" lon="19.82156862504780292510986328125">
        <ele>944</ele>
        <time>2026-06-18T06:59:39.000Z</time>
        <extensions>
          <ns3:TrackPointExtension>
            <ns3:atemp>19.0</ns3:atemp>
          </ns3:TrackPointExtension>
        </extensions>
      </trkpt>
      <trkpt lat="42.5595916248857975006103515625" lon="19.8215264640748500823974609375">
        <ele>944.20001220703125</ele>
        <time>2026-06-18T06:59:40.000Z</time>
        <extensions>
          <ns3:TrackPointExtension>
            <ns3:atemp>18.0</ns3:atemp>
          </ns3:TrackPointExtension>
        </extensions>
      </trkpt>
      <trkpt lat="42.55959958769381046295166015625" lon="19.8214817047119140625">
        <ele>944.5999755859375</ele>
        <time>2026-06-18T06:59:41.000Z</time>
        <extensions>
          <ns3:TrackPointExtension>
            <ns3:atemp>19.0</ns3:atemp>
          </ns3:TrackPointExtension>
        </extensions>
      </trkpt>
      <trkpt lat="42.5596053712069988250732421875" lon="19.8214382864534854888916015625">
        <ele>944.79998779296875</ele>
        <time>2026-06-18T06:59:42.000Z</time>
        <extensions>
          <ns3:TrackPointExtension>
            <ns3:atemp>19.0</ns3:atemp>
          </ns3:TrackPointExtension>
        </extensions>
      </trkpt>
      <trkpt lat="42.5596127472817897796630859375" lon="19.8213967122137546539306640625">
        <ele>945.20001220703125</ele>
        <time>2026-06-18T06:59:43.000Z</time>
        <extensions>
          <ns3:TrackPointExtension>
            <ns3:atemp>19.0</ns3:atemp>
          </ns3:TrackPointExtension>
        </extensions>
      </trkpt>
      <trkpt lat="42.55962020717561244964599609375" lon="19.821352623403072357177734375">
        <ele>945.4000244140625</ele>
        <time>2026-06-18T06:59:44.000Z</time>
        <extensions>
          <ns3:TrackPointExtension>
            <ns3:atemp>19.0</ns3:atemp>
          </ns3:TrackPointExtension>
        </extensions>
      </trkpt>
      <trkpt lat="42.55963043309748172760009765625" lon="19.82130694203078746795654296875">
        <ele>945.5999755859375</ele>
        <time>2026-06-18T06:59:45.000Z</time>
        <extensions>
          <ns3:TrackPointExtension>
            <ns3:atemp>19.0</ns3:atemp>
          </ns3:TrackPointExtension>
        </extensions>
      </trkpt>
      <trkpt lat="42.55963864736258983612060546875" lon="19.82126151211559772491455078125">
        <ele>945.79998779296875</ele>
        <time>2026-06-18T06:59:46.000Z</time>
        <extensions>
          <ns3:TrackPointExtension>
            <ns3:atemp>19.0</ns3:atemp>
          </ns3:TrackPointExtension>
        </extensions>
      </trkpt>
      <trkpt lat="42.55964241921901702880859375" lon="19.8212163336575031280517578125">
        <ele>946.20001220703125</ele>
        <time>2026-06-18T06:59:47.000Z</time>
        <extensions>
          <ns3:TrackPointExtension>
            <ns3:atemp>19.0</ns3:atemp>
          </ns3:TrackPointExtension>
        </extensions>
      </trkpt>
      <trkpt lat="42.55964434705674648284912109375" lon="19.82117350213229656219482421875">
        <ele>946.4000244140625</ele>
        <time>2026-06-18T06:59:48.000Z</time>
        <extensions>
          <ns3:TrackPointExtension>
            <ns3:atemp>19.0</ns3:atemp>
          </ns3:TrackPointExtension>
        </extensions>
      </trkpt>
      <trkpt lat="42.5596462748944759368896484375" lon="19.82113100588321685791015625">
        <ele>946.5999755859375</ele>
        <time>2026-06-18T06:59:49.000Z</time>
        <extensions>
          <ns3:TrackPointExtension>
            <ns3:atemp>19.0</ns3:atemp>
          </ns3:TrackPointExtension>
        </extensions>
      </trkpt>
      <trkpt lat="42.55964870564639568328857421875" lon="19.82108716852962970733642578125">
        <ele>946.79998779296875</ele>
        <time>2026-06-18T06:59:50.000Z</time>
        <extensions>
          <ns3:TrackPointExtension>
            <ns3:atemp>19.0</ns3:atemp>
          </ns3:TrackPointExtension>
        </extensions>
      </trkpt>
      <trkpt lat="42.5596546567976474761962890625" lon="19.8210450075566768646240234375">
        <ele>947.20001220703125</ele>
        <time>2026-06-18T06:59:51.000Z</time>
        <extensions>
          <ns3:TrackPointExtension>
            <ns3:atemp>19.0</ns3:atemp>
          </ns3:TrackPointExtension>
        </extensions>
      </trkpt>
      <trkpt lat="42.55966027267277240753173828125" lon="19.8210082948207855224609375">
        <ele>947.4000244140625</ele>
        <time>2026-06-18T06:59:52.000Z</time>
        <extensions>
          <ns3:TrackPointExtension>
            <ns3:atemp>19.0</ns3:atemp>
          </ns3:TrackPointExtension>
        </extensions>
      </trkpt>
      <trkpt lat="42.55966697819530963897705078125" lon="19.82098055072128772735595703125">
        <ele>947.5999755859375</ele>
        <time>2026-06-18T06:59:53.000Z</time>
        <extensions>
          <ns3:TrackPointExtension>
            <ns3:atemp>19.0</ns3:atemp>
          </ns3:TrackPointExtension>
        </extensions>
      </trkpt>
      <trkpt lat="42.5596727617084980010986328125" lon="19.8209511302411556243896484375">
        <ele>948</ele>
        <time>2026-06-18T06:59:54.000Z</time>
        <extensions>
          <ns3:TrackPointExtension>
            <ns3:atemp>19.0</ns3:atemp>
          </ns3:TrackPointExtension>
        </extensions>
      </trkpt>
      <trkpt lat="42.5596766173839569091796875" lon="19.82091349549591541290283203125">
        <ele>948.20001220703125</ele>
        <time>2026-06-18T06:59:55.000Z</time>
        <extensions>
          <ns3:TrackPointExtension>
            <ns3:atemp>19.0</ns3:atemp>
          </ns3:TrackPointExtension>
        </extensions>
      </trkpt>
      <trkpt lat="42.55967737175524234771728515625" lon="19.82087108306586742401123046875">
        <ele>948.4000244140625</ele>
        <time>2026-06-18T06:59:56.000Z</time>
        <extensions>
          <ns3:TrackPointExtension>
            <ns3:atemp>19.0</ns3:atemp>
          </ns3:TrackPointExtension>
        </extensions>
      </trkpt>
      <trkpt lat="42.5596774555742740631103515625" lon="19.82082699425518512725830078125">
        <ele>948.4000244140625</ele>
        <time>2026-06-18T06:59:57.000Z</time>
        <extensions>
          <ns3:TrackPointExtension>
            <ns3:atemp>19.0</ns3:atemp>
          </ns3:TrackPointExtension>
        </extensions>
      </trkpt>
      <trkpt lat="42.5596818141639232635498046875" lon="19.82077921740710735321044921875">
        <ele>948.5999755859375</ele>
        <time>2026-06-18T06:59:58.000Z</time>
        <extensions>
          <ns3:TrackPointExtension>
            <ns3:atemp>19.0</ns3:atemp>
          </ns3:TrackPointExtension>
        </extensions>
      </trkpt>
      <trkpt lat="42.55968935787677764892578125" lon="19.820728339254856109619140625">
        <ele>948.79998779296875</ele>
        <time>2026-06-18T06:59:59.000Z</time>
        <extensions>
          <ns3:TrackPointExtension>
            <ns3:atemp>19.0</ns3:atemp>
          </ns3:TrackPointExtension>
        </extensions>
      </trkpt>
      <trkpt lat="42.55969095043838024139404296875" lon="19.82067771255970001220703125">
        <ele>949</ele>
        <time>2026-06-18T07:00:00.000Z</time>
        <extensions>
          <ns3:TrackPointExtension>
            <ns3:atemp>19.0</ns3:atemp>
          </ns3:TrackPointExtension>
        </extensions>
      </trkpt>
      <trkpt lat="42.5596985779702663421630859375" lon="19.8206309415400028228759765625">
        <ele>949.20001220703125</ele>
        <time>2026-06-18T07:00:01.000Z</time>
        <extensions>
          <ns3:TrackPointExtension>
            <ns3:atemp>19.0</ns3:atemp>
          </ns3:TrackPointExtension>
        </extensions>
      </trkpt>
      <trkpt lat="42.55970603786408901214599609375" lon="19.8205880261957645416259765625">
        <ele>949.4000244140625</ele>
        <time>2026-06-18T07:00:02.000Z</time>
        <extensions>
          <ns3:TrackPointExtension>
            <ns3:atemp>19.0</ns3:atemp>
          </ns3:TrackPointExtension>
        </extensions>
      </trkpt>
      <trkpt lat="42.5597166828811168670654296875" lon="19.82054988853633403778076171875">
        <ele>949.5999755859375</ele>
        <time>2026-06-18T07:00:03.000Z</time>
        <extensions>
          <ns3:TrackPointExtension>
            <ns3:atemp>19.0</ns3:atemp>
          </ns3:TrackPointExtension>
        </extensions>
      </trkpt>
      <trkpt lat="42.55972866900265216827392578125" lon="19.8205094039440155029296875">
        <ele>949.5999755859375</ele>
        <time>2026-06-18T07:00:04.000Z</time>
        <extensions>
          <ns3:TrackPointExtension>
            <ns3:atemp>19.0</ns3:atemp>
          </ns3:TrackPointExtension>
        </extensions>
      </trkpt>
      <trkpt lat="42.5597421638667583465576171875" lon="19.82047294266521930694580078125">
        <ele>949.79998779296875</ele>
        <time>2026-06-18T07:00:05.000Z</time>
        <extensions>
          <ns3:TrackPointExtension>
            <ns3:atemp>19.0</ns3:atemp>
          </ns3:TrackPointExtension>
        </extensions>
      </trkpt>
      <trkpt lat="42.55975373089313507080078125" lon="19.8204316198825836181640625">
        <ele>950</ele>
        <time>2026-06-18T07:00:06.000Z</time>
        <extensions>
          <ns3:TrackPointExtension>
            <ns3:atemp>19.0</ns3:atemp>
          </ns3:TrackPointExtension>
        </extensions>
      </trkpt>
      <trkpt lat="42.5597651302814483642578125" lon="19.82039046473801136016845703125">
        <ele>950</ele>
        <time>2026-06-18T07:00:07.000Z</time>
        <extensions>
          <ns3:TrackPointExtension>
            <ns3:atemp>19.0</ns3:atemp>
          </ns3:TrackPointExtension>
        </extensions>
      </trkpt>
      <trkpt lat="42.5597743503749370574951171875" lon="19.82034905813634395599365234375">
        <ele>950.20001220703125</ele>
        <time>2026-06-18T07:00:08.000Z</time>
        <extensions>
          <ns3:TrackPointExtension>
            <ns3:atemp>19.0</ns3:atemp>
          </ns3:TrackPointExtension>
        </extensions>
      </trkpt>
      <trkpt lat="42.5597803853452205657958984375" lon="19.82030714862048625946044921875">
        <ele>950.20001220703125</ele>
        <time>2026-06-18T07:00:09.000Z</time>
        <extensions>
          <ns3:TrackPointExtension>
            <ns3:atemp>19.0</ns3:atemp>
          </ns3:TrackPointExtension>
        </extensions>
      </trkpt>
      <trkpt lat="42.559786923229694366455078125" lon="19.820271693170070648193359375">
        <ele>950.4000244140625</ele>
        <time>2026-06-18T07:00:10.000Z</time>
        <extensions>
          <ns3:TrackPointExtension>
            <ns3:atemp>19.0</ns3:atemp>
          </ns3:TrackPointExtension>
        </extensions>
      </trkpt>
      <trkpt lat="42.559795640408992767333984375" lon="19.820234142243862152099609375">
        <ele>950.5999755859375</ele>
        <time>2026-06-18T07:00:11.000Z</time>
        <extensions>
          <ns3:TrackPointExtension>
            <ns3:atemp>19.0</ns3:atemp>
          </ns3:TrackPointExtension>
        </extensions>
      </trkpt>
      <trkpt lat="42.55980670452117919921875" lon="19.820194244384765625">
        <ele>950.5999755859375</ele>
        <time>2026-06-18T07:00:12.000Z</time>
        <extensions>
          <ns3:TrackPointExtension>
            <ns3:atemp>19.0</ns3:atemp>
          </ns3:TrackPointExtension>
        </extensions>
      </trkpt>
      <trkpt lat="42.559816427528858184814453125" lon="19.82015275396406650543212890625">
        <ele>950.79998779296875</ele>
        <time>2026-06-18T07:00:13.000Z</time>
        <extensions>
          <ns3:TrackPointExtension>
            <ns3:atemp>19.0</ns3:atemp>
          </ns3:TrackPointExtension>
        </extensions>
      </trkpt>
      <trkpt lat="42.55982455797493457794189453125" lon="19.82010631822049617767333984375">
        <ele>950.79998779296875</ele>
        <time>2026-06-18T07:00:14.000Z</time>
        <extensions>
          <ns3:TrackPointExtension>
            <ns3:atemp>19.0</ns3:atemp>
          </ns3:TrackPointExtension>
        </extensions>
      </trkpt>
      <trkpt lat="42.5598333589732646942138671875" lon="19.82006038539111614227294921875">
        <ele>951</ele>
        <time>2026-06-18T07:00:15.000Z</time>
        <extensions>
          <ns3:TrackPointExtension>
            <ns3:atemp>19.0</ns3:atemp>
          </ns3:TrackPointExtension>
        </extensions>
      </trkpt>
      <trkpt lat="42.5598455965518951416015625" lon="19.82001386582851409912109375">
        <ele>951.20001220703125</ele>
        <time>2026-06-18T07:00:16.000Z</time>
        <extensions>
          <ns3:TrackPointExtension>
            <ns3:atemp>19.0</ns3:atemp>
          </ns3:TrackPointExtension>
        </extensions>
      </trkpt>
      <trkpt lat="42.559857331216335296630859375" lon="19.81996986083686351776123046875">
        <ele>951.4000244140625</ele>
        <time>2026-06-18T07:00:17.000Z</time>
        <extensions>
          <ns3:TrackPointExtension>
            <ns3:atemp>19.0</ns3:atemp>
          </ns3:TrackPointExtension>
        </extensions>
      </trkpt>
      <trkpt lat="42.55986864678561687469482421875" lon="19.81992426328361034393310546875">
        <ele>951.5999755859375</ele>
        <time>2026-06-18T07:00:18.000Z</time>
        <extensions>
          <ns3:TrackPointExtension>
            <ns3:atemp>19.0</ns3:atemp>
          </ns3:TrackPointExtension>
        </extensions>
      </trkpt>
      <trkpt lat="42.5598809681832790374755859375" lon="19.819879420101642608642578125">
        <ele>951.79998779296875</ele>
        <time>2026-06-18T07:00:19.000Z</time>
        <extensions>
          <ns3:TrackPointExtension>
            <ns3:atemp>19.0</ns3:atemp>
          </ns3:TrackPointExtension>
        </extensions>
      </trkpt>
      <trkpt lat="42.55989379249513149261474609375" lon="19.81983390636742115020751953125">
        <ele>952</ele>
        <time>2026-06-18T07:00:20.000Z</time>
        <extensions>
          <ns3:TrackPointExtension>
            <ns3:atemp>19.0</ns3:atemp>
          </ns3:TrackPointExtension>
        </extensions>
      </trkpt>
      <trkpt lat="42.55990737117826938629150390625" lon="19.81978797353804111480712890625">
        <ele>952.20001220703125</ele>
        <time>2026-06-18T07:00:21.000Z</time>
        <extensions>
          <ns3:TrackPointExtension>
            <ns3:atemp>19.0</ns3:atemp>
          </ns3:TrackPointExtension>
        </extensions>
      </trkpt>
      <trkpt lat="42.55991994403302669525146484375" lon="19.81974120251834392547607421875">
        <ele>952.4000244140625</ele>
        <time>2026-06-18T07:00:22.000Z</time>
        <extensions>
          <ns3:TrackPointExtension>
            <ns3:atemp>19.0</ns3:atemp>
          </ns3:TrackPointExtension>
        </extensions>
      </trkpt>
      <trkpt lat="42.5599299184978008270263671875" lon="19.81969879008829593658447265625">
        <ele>952.5999755859375</ele>
        <time>2026-06-18T07:00:23.000Z</time>
        <extensions>
          <ns3:TrackPointExtension>
            <ns3:atemp>19.0</ns3:atemp>
          </ns3:TrackPointExtension>
        </extensions>
      </trkpt>
      <trkpt lat="42.55993955768644809722900390625" lon="19.8196546174585819244384765625">
        <ele>952.79998779296875</ele>
        <time>2026-06-18T07:00:24.000Z</time>
        <extensions>
          <ns3:TrackPointExtension>
            <ns3:atemp>19.0</ns3:atemp>
          </ns3:TrackPointExtension>
        </extensions>
      </trkpt>
      <trkpt lat="42.55995062179863452911376953125" lon="19.81961312703788280487060546875">
        <ele>953</ele>
        <time>2026-06-18T07:00:25.000Z</time>
        <extensions>
          <ns3:TrackPointExtension>
            <ns3:atemp>19.0</ns3:atemp>
          </ns3:TrackPointExtension>
        </extensions>
      </trkpt>
      <trkpt lat="42.55996302701532840728759765625" lon="19.81957264244556427001953125">
        <ele>953.20001220703125</ele>
        <time>2026-06-18T07:00:26.000Z</time>
        <extensions>
          <ns3:TrackPointExtension>
            <ns3:atemp>19.0</ns3:atemp>
          </ns3:TrackPointExtension>
        </extensions>
      </trkpt>
      <trkpt lat="42.55997643806040287017822265625" lon="19.81953249312937259674072265625">
        <ele>953.20001220703125</ele>
        <time>2026-06-18T07:00:27.000Z</time>
        <extensions>
          <ns3:TrackPointExtension>
            <ns3:atemp>19.0</ns3:atemp>
          </ns3:TrackPointExtension>
        </extensions>
      </trkpt>
      <trkpt lat="42.55998884327709674835205078125" lon="19.81949343346059322357177734375">
        <ele>953.4000244140625</ele>
        <time>2026-06-18T07:00:28.000Z</time>
        <extensions>
          <ns3:TrackPointExtension>
            <ns3:atemp>19.0</ns3:atemp>
          </ns3:TrackPointExtension>
        </extensions>
      </trkpt>
      <trkpt lat="42.56000342778861522674560546875" lon="19.819454289972782135009765625">
        <ele>953.4000244140625</ele>
        <time>2026-06-18T07:00:29.000Z</time>
        <extensions>
          <ns3:TrackPointExtension>
            <ns3:atemp>19.0</ns3:atemp>
          </ns3:TrackPointExtension>
        </extensions>
      </trkpt>
      <trkpt lat="42.56001801230013370513916015625" lon="19.8194125480949878692626953125">
        <ele>953.5999755859375</ele>
        <time>2026-06-18T07:00:30.000Z</time>
        <extensions>
          <ns3:TrackPointExtension>
            <ns3:atemp>19.0</ns3:atemp>
          </ns3:TrackPointExtension>
        </extensions>
      </trkpt>
      <trkpt lat="42.5600385479629039764404296875" lon="19.81937474571168422698974609375">
        <ele>953.79998779296875</ele>
        <time>2026-06-18T07:00:31.000Z</time>
        <extensions>
          <ns3:TrackPointExtension>
            <ns3:atemp>19.0</ns3:atemp>
          </ns3:TrackPointExtension>
        </extensions>
      </trkpt>
      <trkpt lat="42.5600569881498813629150390625" lon="19.81933820061385631561279296875">
        <ele>953.79998779296875</ele>
        <time>2026-06-18T07:00:32.000Z</time>
        <extensions>
          <ns3:TrackPointExtension>
            <ns3:atemp>19.0</ns3:atemp>
          </ns3:TrackPointExtension>
        </extensions>
      </trkpt>
      <trkpt lat="42.56007333286106586456298828125" lon="19.81930299662053585052490234375">
        <ele>954</ele>
        <time>2026-06-18T07:00:33.000Z</time>
        <extensions>
          <ns3:TrackPointExtension>
            <ns3:atemp>19.0</ns3:atemp>
          </ns3:TrackPointExtension>
        </extensions>
      </trkpt>
      <trkpt lat="42.560083977878093719482421875" lon="19.81927081011235713958740234375">
        <ele>954.20001220703125</ele>
        <time>2026-06-18T07:00:34.000Z</time>
        <extensions>
          <ns3:TrackPointExtension>
            <ns3:atemp>19.0</ns3:atemp>
          </ns3:TrackPointExtension>
        </extensions>
      </trkpt>
      <trkpt lat="42.56008389405906200408935546875" lon="19.8192459158599376678466796875">
        <ele>954.4000244140625</ele>
        <time>2026-06-18T07:00:35.000Z</time>
        <extensions>
          <ns3:TrackPointExtension>
            <ns3:atemp>19.0</ns3:atemp>
          </ns3:TrackPointExtension>
        </extensions>
      </trkpt>
      <trkpt lat="42.5600925274193286895751953125" lon="19.81921783648431301116943359375">
        <ele>954.5999755859375</ele>
        <time>2026-06-18T07:00:36.000Z</time>
        <extensions>
          <ns3:TrackPointExtension>
            <ns3:atemp>19.0</ns3:atemp>
          </ns3:TrackPointExtension>
        </extensions>
      </trkpt>
      <trkpt lat="42.56010241806507110595703125" lon="19.81918967328965663909912109375">
        <ele>954.79998779296875</ele>
        <time>2026-06-18T07:00:37.000Z</time>
        <extensions>
          <ns3:TrackPointExtension>
            <ns3:atemp>19.0</ns3:atemp>
          </ns3:TrackPointExtension>
        </extensions>
      </trkpt>
      <trkpt lat="42.560114152729511260986328125" lon="19.819160588085651397705078125">
        <ele>955</ele>
        <time>2026-06-18T07:00:38.000Z</time>
        <extensions>
          <ns3:TrackPointExtension>
            <ns3:atemp>19.0</ns3:atemp>
          </ns3:TrackPointExtension>
        </extensions>
      </trkpt>
      <trkpt lat="42.56012597121298313140869140625" lon="19.819134436547756195068359375">
        <ele>955</ele>
        <time>2026-06-18T07:00:39.000Z</time>
        <extensions>
          <ns3:TrackPointExtension>
            <ns3:atemp>19.0</ns3:atemp>
          </ns3:TrackPointExtension>
        </extensions>
      </trkpt>
      <trkpt lat="42.5601352751255035400390625" lon="19.81910719536244869232177734375">
        <ele>955.20001220703125</ele>
        <time>2026-06-18T07:00:40.000Z</time>
        <extensions>
          <ns3:TrackPointExtension>
            <ns3:atemp>19.0</ns3:atemp>
          </ns3:TrackPointExtension>
        </extensions>
      </trkpt>
      <trkpt lat="42.560141980648040771484375" lon="19.81908087618649005889892578125">
        <ele>955.20001220703125</ele>
        <time>2026-06-18T07:00:41.000Z</time>
        <extensions>
          <ns3:TrackPointExtension>
            <ns3:atemp>19.0</ns3:atemp>
          </ns3:TrackPointExtension>
        </extensions>
      </trkpt>
      <trkpt lat="42.56015061400830745697021484375" lon="19.819048941135406494140625">
        <ele>955.4000244140625</ele>
        <time>2026-06-18T07:00:42.000Z</time>
        <extensions>
          <ns3:TrackPointExtension>
            <ns3:atemp>19.0</ns3:atemp>
          </ns3:TrackPointExtension>
        </extensions>
      </trkpt>
      <trkpt lat="42.56016352213919162750244140625" lon="19.81901549734175205230712890625">
        <ele>955.4000244140625</ele>
        <time>2026-06-18T07:00:43.000Z</time>
        <extensions>
          <ns3:TrackPointExtension>
            <ns3:atemp>19.0</ns3:atemp>
          </ns3:TrackPointExtension>
        </extensions>
      </trkpt>
      <trkpt lat="42.5601756758987903594970703125" lon="19.81897962279617786407470703125">
        <ele>955.5999755859375</ele>
        <time>2026-06-18T07:00:44.000Z</time>
        <extensions>
          <ns3:TrackPointExtension>
            <ns3:atemp>19.0</ns3:atemp>
          </ns3:TrackPointExtension>
        </extensions>
      </trkpt>
      <trkpt lat="42.56018296815454959869384765625" lon="19.8189418204128742218017578125">
        <ele>955.5999755859375</ele>
        <time>2026-06-18T07:00:45.000Z</time>
        <extensions>
          <ns3:TrackPointExtension>
            <ns3:atemp>19.0</ns3:atemp>
          </ns3:TrackPointExtension>
        </extensions>
      </trkpt>
      <trkpt lat="42.560187913477420806884765625" lon="19.8189025931060314178466796875">
        <ele>955.79998779296875</ele>
        <time>2026-06-18T07:00:46.000Z</time>
        <extensions>
          <ns3:TrackPointExtension>
            <ns3:atemp>19.0</ns3:atemp>
          </ns3:TrackPointExtension>
        </extensions>
      </trkpt>
      <trkpt lat="42.56019587628543376922607421875" lon="19.8188667185604572296142578125">
        <ele>956</ele>
        <time>2026-06-18T07:00:47.000Z</time>
        <extensions>
          <ns3:TrackPointExtension>
            <ns3:atemp>19.0</ns3:atemp>
          </ns3:TrackPointExtension>
        </extensions>
      </trkpt>
      <trkpt lat="42.560202665627002716064453125" lon="19.8188308440148830413818359375">
        <ele>956</ele>
        <time>2026-06-18T07:00:48.000Z</time>
        <extensions>
          <ns3:TrackPointExtension>
            <ns3:atemp>19.0</ns3:atemp>
          </ns3:TrackPointExtension>
        </extensions>
      </trkpt>
      <trkpt lat="42.56020476110279560089111328125" lon="19.81879639439284801483154296875">
        <ele>956.20001220703125</ele>
        <time>2026-06-18T07:00:49.000Z</time>
        <extensions>
          <ns3:TrackPointExtension>
            <ns3:atemp>19.0</ns3:atemp>
          </ns3:TrackPointExtension>
        </extensions>
      </trkpt>
      <trkpt lat="42.5602095387876033782958984375" lon="19.818760938942432403564453125">
        <ele>956.20001220703125</ele>
        <time>2026-06-18T07:00:50.000Z</time>
        <extensions>
          <ns3:TrackPointExtension>
            <ns3:atemp>19.0</ns3:atemp>
          </ns3:TrackPointExtension>
        </extensions>
      </trkpt>
      <trkpt lat="42.5602149032056331634521484375" lon="19.81872464530169963836669921875">
        <ele>956.4000244140625</ele>
        <time>2026-06-18T07:00:51.000Z</time>
        <extensions>
          <ns3:TrackPointExtension>
            <ns3:atemp>19.0</ns3:atemp>
          </ns3:TrackPointExtension>
        </extensions>
      </trkpt>
      <trkpt lat="42.560220099985599517822265625" lon="19.81868684291839599609375">
        <ele>956.4000244140625</ele>
        <time>2026-06-18T07:00:52.000Z</time>
        <extensions>
          <ns3:TrackPointExtension>
            <ns3:atemp>19.0</ns3:atemp>
          </ns3:TrackPointExtension>
        </extensions>
      </trkpt>
      <trkpt lat="42.56022621877491474151611328125" lon="19.81864769943058490753173828125">
        <ele>956.5999755859375</ele>
        <time>2026-06-18T07:00:53.000Z</time>
        <extensions>
          <ns3:TrackPointExtension>
            <ns3:atemp>19.0</ns3:atemp>
          </ns3:TrackPointExtension>
        </extensions>
      </trkpt>
      <trkpt lat="42.5602320022881031036376953125" lon="19.81861232779920101165771484375">
        <ele>956.79998779296875</ele>
        <time>2026-06-18T07:00:54.000Z</time>
        <extensions>
          <ns3:TrackPointExtension>
            <ns3:atemp>19.0</ns3:atemp>
          </ns3:TrackPointExtension>
        </extensions>
      </trkpt>
      <trkpt lat="42.5602398812770843505859375" lon="19.81858366169035434722900390625">
        <ele>957</ele>
        <time>2026-06-18T07:00:55.000Z</time>
        <extensions>
          <ns3:TrackPointExtension>
            <ns3:atemp>19.0</ns3:atemp>
          </ns3:TrackPointExtension>
        </extensions>
      </trkpt>
      <trkpt lat="42.56024549715220928192138671875" lon="19.81855214573442935943603515625">
        <ele>957.20001220703125</ele>
        <time>2026-06-18T07:00:56.000Z</time>
        <extensions>
          <ns3:TrackPointExtension>
            <ns3:atemp>19.0</ns3:atemp>
          </ns3:TrackPointExtension>
        </extensions>
      </trkpt>
      <trkpt lat="42.56024717353284358978271484375" lon="19.81851375661790370941162109375">
        <ele>957.4000244140625</ele>
        <time>2026-06-18T07:00:57.000Z</time>
        <extensions>
          <ns3:TrackPointExtension>
            <ns3:atemp>19.0</ns3:atemp>
          </ns3:TrackPointExtension>
        </extensions>
      </trkpt>
      <trkpt lat="42.5602457486093044281005859375" lon="19.81847226619720458984375">
        <ele>957.5999755859375</ele>
        <time>2026-06-18T07:00:58.000Z</time>
        <extensions>
          <ns3:TrackPointExtension>
            <ns3:atemp>19.0</ns3:atemp>
          </ns3:TrackPointExtension>
        </extensions>
      </trkpt>
      <trkpt lat="42.56024667061865329742431640625" lon="19.8184315301477909088134765625">
        <ele>957.79998779296875</ele>
        <time>2026-06-18T07:00:59.000Z</time>
        <extensions>
          <ns3:TrackPointExtension>
            <ns3:atemp>19.0</ns3:atemp>
          </ns3:TrackPointExtension>
        </extensions>
      </trkpt>
      <trkpt lat="42.56024801172316074371337890625" lon="19.8183886148035526275634765625">
        <ele>958</ele>
        <time>2026-06-18T07:01:00.000Z</time>
        <extensions>
          <ns3:TrackPointExtension>
            <ns3:atemp>19.0</ns3:atemp>
          </ns3:TrackPointExtension>
        </extensions>
      </trkpt>
      <trkpt lat="42.56025086157023906707763671875" lon="19.81834419071674346923828125">
        <ele>958</ele>
        <time>2026-06-18T07:01:01.000Z</time>
        <extensions>
          <ns3:TrackPointExtension>
            <ns3:atemp>19.0</ns3:atemp>
          </ns3:TrackPointExtension>
        </extensions>
      </trkpt>
      <trkpt lat="42.56025203503668308258056640625" lon="19.81830052100121974945068359375">
        <ele>958.20001220703125</ele>
        <time>2026-06-18T07:01:02.000Z</time>
        <extensions>
          <ns3:TrackPointExtension>
            <ns3:atemp>19.0</ns3:atemp>
          </ns3:TrackPointExtension>
        </extensions>
      </trkpt>
      <trkpt lat="42.56025220267474651336669921875" lon="19.81825542636215686798095703125">
        <ele>958.4000244140625</ele>
        <time>2026-06-18T07:01:03.000Z</time>
        <extensions>
          <ns3:TrackPointExtension>
            <ns3:atemp>19.0</ns3:atemp>
          </ns3:TrackPointExtension>
        </extensions>
      </trkpt>
      <trkpt lat="42.5602531246840953826904296875" lon="19.8182152770459651947021484375">
        <ele>958.4000244140625</ele>
        <time>2026-06-18T07:01:04.000Z</time>
        <extensions>
          <ns3:TrackPointExtension>
            <ns3:atemp>19.0</ns3:atemp>
          </ns3:TrackPointExtension>
        </extensions>
      </trkpt>
      <trkpt lat="42.56025857292115688323974609375" lon="19.81817211024463176727294921875">
        <ele>958.5999755859375</ele>
        <time>2026-06-18T07:01:05.000Z</time>
        <extensions>
          <ns3:TrackPointExtension>
            <ns3:atemp>19.0</ns3:atemp>
          </ns3:TrackPointExtension>
        </extensions>
      </trkpt>
      <trkpt lat="42.5602615065872669219970703125" lon="19.81812894344329833984375">
        <ele>959</ele>
        <time>2026-06-18T07:01:06.000Z</time>
        <extensions>
          <ns3:TrackPointExtension>
            <ns3:atemp>19.0</ns3:atemp>
          </ns3:TrackPointExtension>
        </extensions>
      </trkpt>
      <trkpt lat="42.560263685882091522216796875" lon="19.81808728538453578948974609375">
        <ele>959.20001220703125</ele>
        <time>2026-06-18T07:01:07.000Z</time>
        <extensions>
          <ns3:TrackPointExtension>
            <ns3:atemp>19.0</ns3:atemp>
          </ns3:TrackPointExtension>
        </extensions>
      </trkpt>
      <trkpt lat="42.56026511080563068389892578125" lon="19.81804403476417064666748046875">
        <ele>959.4000244140625</ele>
        <time>2026-06-18T07:01:08.000Z</time>
        <extensions>
          <ns3:TrackPointExtension>
            <ns3:atemp>19.0</ns3:atemp>
          </ns3:TrackPointExtension>
        </extensions>
      </trkpt>
      <trkpt lat="42.56026469171047210693359375" lon="19.8180037178099155426025390625">
        <ele>959.5999755859375</ele>
        <time>2026-06-18T07:01:09.000Z</time>
        <extensions>
          <ns3:TrackPointExtension>
            <ns3:atemp>19.0</ns3:atemp>
          </ns3:TrackPointExtension>
        </extensions>
      </trkpt>
      <trkpt lat="42.56026578135788440704345703125" lon="19.81796306557953357696533203125">
        <ele>959.79998779296875</ele>
        <time>2026-06-18T07:01:10.000Z</time>
        <extensions>
          <ns3:TrackPointExtension>
            <ns3:atemp>19.0</ns3:atemp>
          </ns3:TrackPointExtension>
        </extensions>
      </trkpt>
      <trkpt lat="42.5602638535201549530029296875" lon="19.8179249279201030731201171875">
        <ele>960</ele>
        <time>2026-06-18T07:01:11.000Z</time>
        <extensions>
          <ns3:TrackPointExtension>
            <ns3:atemp>19.0</ns3:atemp>
          </ns3:TrackPointExtension>
        </extensions>
      </trkpt>
      <trkpt lat="42.5602638535201549530029296875" lon="19.81788662262260913848876953125">
        <ele>960.4000244140625</ele>
        <time>2026-06-18T07:01:12.000Z</time>
        <extensions>
          <ns3:TrackPointExtension>
            <ns3:atemp>19.0</ns3:atemp>
          </ns3:TrackPointExtension>
        </extensions>
      </trkpt>
      <trkpt lat="42.560265697538852691650390625" lon="19.81784638948738574981689453125">
        <ele>960.5999755859375</ele>
        <time>2026-06-18T07:01:13.000Z</time>
        <extensions>
          <ns3:TrackPointExtension>
            <ns3:atemp>19.0</ns3:atemp>
          </ns3:TrackPointExtension>
        </extensions>
      </trkpt>
      <trkpt lat="42.56026578135788440704345703125" lon="19.81780347414314746856689453125">
        <ele>960.79998779296875</ele>
        <time>2026-06-18T07:01:14.000Z</time>
        <extensions>
          <ns3:TrackPointExtension>
            <ns3:atemp>19.0</ns3:atemp>
          </ns3:TrackPointExtension>
        </extensions>
      </trkpt>
      <trkpt lat="42.56026645191013813018798828125" lon="19.817761816084384918212890625">
        <ele>961</ele>
        <time>2026-06-18T07:01:15.000Z</time>
        <extensions>
          <ns3:TrackPointExtension>
            <ns3:atemp>19.0</ns3:atemp>
          </ns3:TrackPointExtension>
        </extensions>
      </trkpt>
      <trkpt lat="42.560263685882091522216796875" lon="19.81771831400692462921142578125">
        <ele>961.20001220703125</ele>
        <time>2026-06-18T07:01:16.000Z</time>
        <extensions>
          <ns3:TrackPointExtension>
            <ns3:atemp>19.0</ns3:atemp>
          </ns3:TrackPointExtension>
        </extensions>
      </trkpt>
      <trkpt lat="42.560260333120822906494140625" lon="19.81767472811043262481689453125">
        <ele>961.4000244140625</ele>
        <time>2026-06-18T07:01:17.000Z</time>
        <extensions>
          <ns3:TrackPointExtension>
            <ns3:atemp>19.0</ns3:atemp>
          </ns3:TrackPointExtension>
        </extensions>
      </trkpt>
      <trkpt lat="42.5602578185498714447021484375" lon="19.81763114221394062042236328125">
        <ele>961.79998779296875</ele>
        <time>2026-06-18T07:01:18.000Z</time>
        <extensions>
          <ns3:TrackPointExtension>
            <ns3:atemp>19.0</ns3:atemp>
          </ns3:TrackPointExtension>
        </extensions>
      </trkpt>
      <trkpt lat="42.56025253795087337493896484375" lon="19.81758621521294116973876953125">
        <ele>962</ele>
        <time>2026-06-18T07:01:19.000Z</time>
        <extensions>
          <ns3:TrackPointExtension>
            <ns3:atemp>19.0</ns3:atemp>
          </ns3:TrackPointExtension>
        </extensions>
      </trkpt>
      <trkpt lat="42.56025119684636592864990234375" lon="19.81754179112613201141357421875">
        <ele>962.20001220703125</ele>
        <time>2026-06-18T07:01:20.000Z</time>
        <extensions>
          <ns3:TrackPointExtension>
            <ns3:atemp>19.0</ns3:atemp>
          </ns3:TrackPointExtension>
        </extensions>
      </trkpt>
      <trkpt lat="42.56024884991347789764404296875" lon="19.8174987919628620147705078125">
        <ele>962.4000244140625</ele>
        <time>2026-06-18T07:01:21.000Z</time>
        <extensions>
          <ns3:TrackPointExtension>
            <ns3:atemp>19.0</ns3:atemp>
          </ns3:TrackPointExtension>
        </extensions>
      </trkpt>
      <trkpt lat="42.5602454133331775665283203125" lon="19.81745964847505092620849609375">
        <ele>962.5999755859375</ele>
        <time>2026-06-18T07:01:22.000Z</time>
        <extensions>
          <ns3:TrackPointExtension>
            <ns3:atemp>19.0</ns3:atemp>
          </ns3:TrackPointExtension>
        </extensions>
      </trkpt>
      <trkpt lat="42.56024063564836978912353515625" lon="19.8174226842820644378662109375">
        <ele>962.79998779296875</ele>
        <time>2026-06-18T07:01:23.000Z</time>
        <extensions>
          <ns3:TrackPointExtension>
            <ns3:atemp>19.0</ns3:atemp>
          </ns3:TrackPointExtension>
        </extensions>
      </trkpt>
      <trkpt lat="42.560233511030673980712890625" lon="19.81738471426069736480712890625">
        <ele>963</ele>
        <time>2026-06-18T07:01:24.000Z</time>
        <extensions>
          <ns3:TrackPointExtension>
            <ns3:atemp>19.0</ns3:atemp>
          </ns3:TrackPointExtension>
        </extensions>
      </trkpt>
      <trkpt lat="42.56022772751748561859130859375" lon="19.8173470795154571533203125">
        <ele>963.20001220703125</ele>
        <time>2026-06-18T07:01:25.000Z</time>
        <extensions>
          <ns3:TrackPointExtension>
            <ns3:atemp>19.0</ns3:atemp>
          </ns3:TrackPointExtension>
        </extensions>
      </trkpt>
      <trkpt lat="42.56022152490913867950439453125" lon="19.8173107020556926727294921875">
        <ele>963.4000244140625</ele>
        <time>2026-06-18T07:01:26.000Z</time>
        <extensions>
          <ns3:TrackPointExtension>
            <ns3:atemp>19.0</ns3:atemp>
          </ns3:TrackPointExtension>
        </extensions>
      </trkpt>
      <trkpt lat="42.56021398119628429412841796875" lon="19.817278683185577392578125">
        <ele>963.5999755859375</ele>
        <time>2026-06-18T07:01:27.000Z</time>
        <extensions>
          <ns3:TrackPointExtension>
            <ns3:atemp>19.0</ns3:atemp>
          </ns3:TrackPointExtension>
        </extensions>
      </trkpt>
      <trkpt lat="42.56020559929311275482177734375" lon="19.81724423356354236602783203125">
        <ele>963.79998779296875</ele>
        <time>2026-06-18T07:01:28.000Z</time>
        <extensions>
          <ns3:TrackPointExtension>
            <ns3:atemp>19.0</ns3:atemp>
          </ns3:TrackPointExtension>
        </extensions>
      </trkpt>
      <trkpt lat="42.56019872613251209259033203125" lon="19.8172057606279850006103515625">
        <ele>964</ele>
        <time>2026-06-18T07:01:29.000Z</time>
        <extensions>
          <ns3:TrackPointExtension>
            <ns3:atemp>19.0</ns3:atemp>
          </ns3:TrackPointExtension>
        </extensions>
      </trkpt>
      <trkpt lat="42.56019168533384799957275390625" lon="19.8171692155301570892333984375">
        <ele>964.20001220703125</ele>
        <time>2026-06-18T07:01:30.000Z</time>
        <extensions>
          <ns3:TrackPointExtension>
            <ns3:atemp>19.0</ns3:atemp>
          </ns3:TrackPointExtension>
        </extensions>
      </trkpt>
      <trkpt lat="42.5601843930780887603759765625" lon="19.8171333409845829010009765625">
        <ele>964.4000244140625</ele>
        <time>2026-06-18T07:01:31.000Z</time>
        <extensions>
          <ns3:TrackPointExtension>
            <ns3:atemp>19.0</ns3:atemp>
          </ns3:TrackPointExtension>
        </extensions>
      </trkpt>
      <trkpt lat="42.56017617881298065185546875" lon="19.817098639905452728271484375">
        <ele>964.5999755859375</ele>
        <time>2026-06-18T07:01:32.000Z</time>
        <extensions>
          <ns3:TrackPointExtension>
            <ns3:atemp>19.0</ns3:atemp>
          </ns3:TrackPointExtension>
        </extensions>
      </trkpt>
      <trkpt lat="42.56016637198626995086669921875" lon="19.8170669563114643096923828125">
        <ele>964.79998779296875</ele>
        <time>2026-06-18T07:01:33.000Z</time>
        <extensions>
          <ns3:TrackPointExtension>
            <ns3:atemp>19.0</ns3:atemp>
          </ns3:TrackPointExtension>
        </extensions>
      </trkpt>
      <trkpt lat="42.56015446968376636505126953125" lon="19.81703585945069789886474609375">
        <ele>965</ele>
        <time>2026-06-18T07:01:34.000Z</time>
        <extensions>
          <ns3:TrackPointExtension>
            <ns3:atemp>19.0</ns3:atemp>
          </ns3:TrackPointExtension>
        </extensions>
      </trkpt>
      <trkpt lat="42.5601433217525482177734375" lon="19.81700233183801174163818359375">
        <ele>965.20001220703125</ele>
        <time>2026-06-18T07:01:35.000Z</time>
        <extensions>
          <ns3:TrackPointExtension>
            <ns3:atemp>19.0</ns3:atemp>
          </ns3:TrackPointExtension>
        </extensions>
      </trkpt>
      <trkpt lat="42.56013368256390094757080078125" lon="19.816967211663722991943359375">
        <ele>965.4000244140625</ele>
        <time>2026-06-18T07:01:36.000Z</time>
        <extensions>
          <ns3:TrackPointExtension>
            <ns3:atemp>19.0</ns3:atemp>
          </ns3:TrackPointExtension>
        </extensions>
      </trkpt>
      <trkpt lat="42.5601232051849365234375" lon="19.81692890636622905731201171875">
        <ele>965.79998779296875</ele>
        <time>2026-06-18T07:01:37.000Z</time>
        <extensions>
          <ns3:TrackPointExtension>
            <ns3:atemp>19.0</ns3:atemp>
          </ns3:TrackPointExtension>
        </extensions>
      </trkpt>
      <trkpt lat="42.5601111352443695068359375" lon="19.81689034961163997650146484375">
        <ele>966</ele>
        <time>2026-06-18T07:01:38.000Z</time>
        <extensions>
          <ns3:TrackPointExtension>
            <ns3:atemp>19.0</ns3:atemp>
          </ns3:TrackPointExtension>
        </extensions>
      </trkpt>
      <trkpt lat="42.56009512580931186676025390625" lon="19.81685799546539783477783203125">
        <ele>966.20001220703125</ele>
        <time>2026-06-18T07:01:39.000Z</time>
        <extensions>
          <ns3:TrackPointExtension>
            <ns3:atemp>19.0</ns3:atemp>
          </ns3:TrackPointExtension>
        </extensions>
      </trkpt>
      <trkpt lat="42.56007702089846134185791015625" lon="19.81682178564369678497314453125">
        <ele>966.4000244140625</ele>
        <time>2026-06-18T07:01:40.000Z</time>
        <extensions>
          <ns3:TrackPointExtension>
            <ns3:atemp>19.0</ns3:atemp>
          </ns3:TrackPointExtension>
        </extensions>
      </trkpt>
      <trkpt lat="42.560059167444705963134765625" lon="19.81678222306072711944580078125">
        <ele>966.4000244140625</ele>
        <time>2026-06-18T07:01:41.000Z</time>
        <extensions>
          <ns3:TrackPointExtension>
            <ns3:atemp>19.0</ns3:atemp>
          </ns3:TrackPointExtension>
        </extensions>
      </trkpt>
      <trkpt lat="42.56004340946674346923828125" lon="19.8167393915355205535888671875">
        <ele>966.5999755859375</ele>
        <time>2026-06-18T07:01:42.000Z</time>
        <extensions>
          <ns3:TrackPointExtension>
            <ns3:atemp>19.0</ns3:atemp>
          </ns3:TrackPointExtension>
        </extensions>
      </trkpt>
      <trkpt lat="42.5600301660597324371337890625" lon="19.8167006671428680419921875">
        <ele>966.79998779296875</ele>
        <time>2026-06-18T07:01:43.000Z</time>
        <extensions>
          <ns3:TrackPointExtension>
            <ns3:atemp>19.0</ns3:atemp>
          </ns3:TrackPointExtension>
        </extensions>
      </trkpt>
      <trkpt lat="42.56001792848110198974609375" lon="19.8166577517986297607421875">
        <ele>967</ele>
        <time>2026-06-18T07:01:44.000Z</time>
        <extensions>
          <ns3:TrackPointExtension>
            <ns3:atemp>19.0</ns3:atemp>
          </ns3:TrackPointExtension>
        </extensions>
      </trkpt>
      <trkpt lat="42.56000518798828125" lon="19.81661525554955005645751953125">
        <ele>967.20001220703125</ele>
        <time>2026-06-18T07:01:45.000Z</time>
        <extensions>
          <ns3:TrackPointExtension>
            <ns3:atemp>19.0</ns3:atemp>
          </ns3:TrackPointExtension>
        </extensions>
      </trkpt>
      <trkpt lat="42.559993453323841094970703125" lon="19.81657871045172214508056640625">
        <ele>967.4000244140625</ele>
        <time>2026-06-18T07:01:46.000Z</time>
        <extensions>
          <ns3:TrackPointExtension>
            <ns3:atemp>19.0</ns3:atemp>
          </ns3:TrackPointExtension>
        </extensions>
      </trkpt>
      <trkpt lat="42.55998213775455951690673828125" lon="19.81654166243970394134521484375">
        <ele>967.5999755859375</ele>
        <time>2026-06-18T07:01:47.000Z</time>
        <extensions>
          <ns3:TrackPointExtension>
            <ns3:atemp>19.0</ns3:atemp>
          </ns3:TrackPointExtension>
        </extensions>
      </trkpt>
      <trkpt lat="42.55997224710881710052490234375" lon="19.81649941764771938323974609375">
        <ele>967.79998779296875</ele>
        <time>2026-06-18T07:01:48.000Z</time>
        <extensions>
          <ns3:TrackPointExtension>
            <ns3:atemp>19.0</ns3:atemp>
          </ns3:TrackPointExtension>
        </extensions>
      </trkpt>
      <trkpt lat="42.55995833314955234527587890625" lon="19.81645817868411540985107421875">
        <ele>968</ele>
        <time>2026-06-18T07:01:49.000Z</time>
        <extensions>
          <ns3:TrackPointExtension>
            <ns3:atemp>19.0</ns3:atemp>
          </ns3:TrackPointExtension>
        </extensions>
      </trkpt>
      <trkpt lat="42.55994374863803386688232421875" lon="19.816419370472431182861328125">
        <ele>968</ele>
        <time>2026-06-18T07:01:50.000Z</time>
        <extensions>
          <ns3:TrackPointExtension>
            <ns3:atemp>19.0</ns3:atemp>
          </ns3:TrackPointExtension>
        </extensions>
      </trkpt>
      <trkpt lat="42.559927739202976226806640625" lon="19.816382490098476409912109375">
        <ele>968.20001220703125</ele>
        <time>2026-06-18T07:01:51.000Z</time>
        <extensions>
          <ns3:TrackPointExtension>
            <ns3:atemp>19.0</ns3:atemp>
          </ns3:TrackPointExtension>
        </extensions>
      </trkpt>
      <trkpt lat="42.5599148310720920562744140625" lon="19.81634552590548992156982421875">
        <ele>968.4000244140625</ele>
        <time>2026-06-18T07:01:52.000Z</time>
        <extensions>
          <ns3:TrackPointExtension>
            <ns3:atemp>19.0</ns3:atemp>
          </ns3:TrackPointExtension>
        </extensions>
      </trkpt>
      <trkpt lat="42.55990217439830303192138671875" lon="19.8163065500557422637939453125">
        <ele>968.5999755859375</ele>
        <time>2026-06-18T07:01:53.000Z</time>
        <extensions>
          <ns3:TrackPointExtension>
            <ns3:atemp>19.0</ns3:atemp>
          </ns3:TrackPointExtension>
        </extensions>
      </trkpt>
      <trkpt lat="42.55988926626741886138916015625" lon="19.81626740656793117523193359375">
        <ele>968.79998779296875</ele>
        <time>2026-06-18T07:01:54.000Z</time>
        <extensions>
          <ns3:TrackPointExtension>
            <ns3:atemp>19.0</ns3:atemp>
          </ns3:TrackPointExtension>
        </extensions>
      </trkpt>
      <trkpt lat="42.55987736396491527557373046875" lon="19.81622884981334209442138671875">
        <ele>969</ele>
        <time>2026-06-18T07:01:55.000Z</time>
        <extensions>
          <ns3:TrackPointExtension>
            <ns3:atemp>19.0</ns3:atemp>
          </ns3:TrackPointExtension>
        </extensions>
      </trkpt>
      <trkpt lat="42.5598648749291896820068359375" lon="19.81618811376392841339111328125">
        <ele>969.20001220703125</ele>
        <time>2026-06-18T07:01:56.000Z</time>
        <extensions>
          <ns3:TrackPointExtension>
            <ns3:atemp>19.0</ns3:atemp>
          </ns3:TrackPointExtension>
        </extensions>
      </trkpt>
      <trkpt lat="42.5598511286079883575439453125" lon="19.816147796809673309326171875">
        <ele>969.4000244140625</ele>
        <time>2026-06-18T07:01:57.000Z</time>
        <extensions>
          <ns3:TrackPointExtension>
            <ns3:atemp>19.0</ns3:atemp>
          </ns3:TrackPointExtension>
        </extensions>
      </trkpt>
      <trkpt lat="42.55983679555356502532958984375" lon="19.81610613875091075897216796875">
        <ele>969.5999755859375</ele>
        <time>2026-06-18T07:01:58.000Z</time>
        <extensions>
          <ns3:TrackPointExtension>
            <ns3:atemp>19.0</ns3:atemp>
          </ns3:TrackPointExtension>
        </extensions>
      </trkpt>
      <trkpt lat="42.5598263181746006011962890625" lon="19.816063307225704193115234375">
        <ele>969.79998779296875</ele>
        <time>2026-06-18T07:01:59.000Z</time>
        <extensions>
          <ns3:TrackPointExtension>
            <ns3:atemp>19.0</ns3:atemp>
          </ns3:TrackPointExtension>
        </extensions>
      </trkpt>
      <trkpt lat="42.55981743335723876953125" lon="19.81601762585341930389404296875">
        <ele>970.20001220703125</ele>
        <time>2026-06-18T07:02:00.000Z</time>
        <extensions>
          <ns3:TrackPointExtension>
            <ns3:atemp>19.0</ns3:atemp>
          </ns3:TrackPointExtension>
        </extensions>
      </trkpt>
      <trkpt lat="42.55980913527309894561767578125" lon="19.81597269885241985321044921875">
        <ele>970.4000244140625</ele>
        <time>2026-06-18T07:02:01.000Z</time>
        <extensions>
          <ns3:TrackPointExtension>
            <ns3:atemp>19.0</ns3:atemp>
          </ns3:TrackPointExtension>
        </extensions>
      </trkpt>
      <trkpt lat="42.559800334274768829345703125" lon="19.81592760421335697174072265625">
        <ele>970.5999755859375</ele>
        <time>2026-06-18T07:02:02.000Z</time>
        <extensions>
          <ns3:TrackPointExtension>
            <ns3:atemp>19.0</ns3:atemp>
          </ns3:TrackPointExtension>
        </extensions>
      </trkpt>
      <trkpt lat="42.5597914494574069976806640625" lon="19.81588385067880153656005859375">
        <ele>971</ele>
        <time>2026-06-18T07:02:03.000Z</time>
        <extensions>
          <ns3:TrackPointExtension>
            <ns3:atemp>19.0</ns3:atemp>
          </ns3:TrackPointExtension>
        </extensions>
      </trkpt>
      <trkpt lat="42.5597834028303623199462890625" lon="19.81583976186811923980712890625">
        <ele>971.20001220703125</ele>
        <time>2026-06-18T07:02:04.000Z</time>
        <extensions>
          <ns3:TrackPointExtension>
            <ns3:atemp>19.0</ns3:atemp>
          </ns3:TrackPointExtension>
        </extensions>
      </trkpt>
      <trkpt lat="42.559778206050395965576171875" lon="19.81579567305743694305419921875">
        <ele>971.4000244140625</ele>
        <time>2026-06-18T07:02:05.000Z</time>
        <extensions>
          <ns3:TrackPointExtension>
            <ns3:atemp>19.0</ns3:atemp>
          </ns3:TrackPointExtension>
        </extensions>
      </trkpt>
      <trkpt lat="42.5597730092704296112060546875" lon="19.81575057841837406158447265625">
        <ele>971.79998779296875</ele>
        <time>2026-06-18T07:02:06.000Z</time>
        <extensions>
          <ns3:TrackPointExtension>
            <ns3:atemp>19.0</ns3:atemp>
          </ns3:TrackPointExtension>
        </extensions>
      </trkpt>
      <trkpt lat="42.5597699917852878570556640625" lon="19.81570598669350147247314453125">
        <ele>972</ele>
        <time>2026-06-18T07:02:07.000Z</time>
        <extensions>
          <ns3:TrackPointExtension>
            <ns3:atemp>19.0</ns3:atemp>
          </ns3:TrackPointExtension>
        </extensions>
      </trkpt>
      <trkpt lat="42.55976689048111438751220703125" lon="19.81566256843507289886474609375">
        <ele>972.4000244140625</ele>
        <time>2026-06-18T07:02:08.000Z</time>
        <extensions>
          <ns3:TrackPointExtension>
            <ns3:atemp>19.0</ns3:atemp>
          </ns3:TrackPointExtension>
        </extensions>
      </trkpt>
      <trkpt lat="42.5597649626433849334716796875" lon="19.81561998836696147918701171875">
        <ele>972.5999755859375</ele>
        <time>2026-06-18T07:02:09.000Z</time>
        <extensions>
          <ns3:TrackPointExtension>
            <ns3:atemp>19.0</ns3:atemp>
          </ns3:TrackPointExtension>
        </extensions>
      </trkpt>
      <trkpt lat="42.55976286716759204864501953125" lon="19.8155763186514377593994140625">
        <ele>973</ele>
        <time>2026-06-18T07:02:10.000Z</time>
        <extensions>
          <ns3:TrackPointExtension>
            <ns3:atemp>19.0</ns3:atemp>
          </ns3:TrackPointExtension>
        </extensions>
      </trkpt>
      <trkpt lat="42.55976169370114803314208984375" lon="19.81553466059267520904541015625">
        <ele>973.20001220703125</ele>
        <time>2026-06-18T07:02:11.000Z</time>
        <extensions>
          <ns3:TrackPointExtension>
            <ns3:atemp>19.0</ns3:atemp>
          </ns3:TrackPointExtension>
        </extensions>
      </trkpt>
      <trkpt lat="42.5597616098821163177490234375" lon="19.8154921643435955047607421875">
        <ele>973.5999755859375</ele>
        <time>2026-06-18T07:02:12.000Z</time>
        <extensions>
          <ns3:TrackPointExtension>
            <ns3:atemp>19.0</ns3:atemp>
          </ns3:TrackPointExtension>
        </extensions>
      </trkpt>
      <trkpt lat="42.55976202897727489471435546875" lon="19.815449416637420654296875">
        <ele>973.79998779296875</ele>
        <time>2026-06-18T07:02:13.000Z</time>
        <extensions>
          <ns3:TrackPointExtension>
            <ns3:atemp>19.0</ns3:atemp>
          </ns3:TrackPointExtension>
        </extensions>
      </trkpt>
      <trkpt lat="42.55976177752017974853515625" lon="19.815407507121562957763671875">
        <ele>974.20001220703125</ele>
        <time>2026-06-18T07:02:14.000Z</time>
        <extensions>
          <ns3:TrackPointExtension>
            <ns3:atemp>19.0</ns3:atemp>
          </ns3:TrackPointExtension>
        </extensions>
      </trkpt>
      <trkpt lat="42.5597609393298625946044921875" lon="19.81536350212991237640380859375">
        <ele>974.4000244140625</ele>
        <time>2026-06-18T07:02:15.000Z</time>
        <extensions>
          <ns3:TrackPointExtension>
            <ns3:atemp>19.0</ns3:atemp>
          </ns3:TrackPointExtension>
        </extensions>
      </trkpt>
      <trkpt lat="42.5597555749118328094482421875" lon="19.81532134115695953369140625">
        <ele>974.5999755859375</ele>
        <time>2026-06-18T07:02:16.000Z</time>
        <extensions>
          <ns3:TrackPointExtension>
            <ns3:atemp>19.0</ns3:atemp>
          </ns3:TrackPointExtension>
        </extensions>
      </trkpt>
      <trkpt lat="42.55974979139864444732666015625" lon="19.8152749054133892059326171875">
        <ele>974.79998779296875</ele>
        <time>2026-06-18T07:02:17.000Z</time>
        <extensions>
          <ns3:TrackPointExtension>
            <ns3:atemp>19.0</ns3:atemp>
          </ns3:TrackPointExtension>
        </extensions>
      </trkpt>
      <trkpt lat="42.55974325351417064666748046875" lon="19.81523190625011920928955078125">
        <ele>975.20001220703125</ele>
        <time>2026-06-18T07:02:18.000Z</time>
        <extensions>
          <ns3:TrackPointExtension>
            <ns3:atemp>19.0</ns3:atemp>
          </ns3:TrackPointExtension>
        </extensions>
      </trkpt>
      <trkpt lat="42.55973738618195056915283203125" lon="19.8151894100010395050048828125">
        <ele>975.4000244140625</ele>
        <time>2026-06-18T07:02:19.000Z</time>
        <extensions>
          <ns3:TrackPointExtension>
            <ns3:atemp>19.0</ns3:atemp>
          </ns3:TrackPointExtension>
        </extensions>
      </trkpt>
      <trkpt lat="42.55973084829747676849365234375" lon="19.81514699757099151611328125">
        <ele>975.5999755859375</ele>
        <time>2026-06-18T07:02:20.000Z</time>
        <extensions>
          <ns3:TrackPointExtension>
            <ns3:atemp>19.0</ns3:atemp>
          </ns3:TrackPointExtension>
        </extensions>
      </trkpt>
      <trkpt lat="42.55972447805106639862060546875" lon="19.815103746950626373291015625">
        <ele>975.79998779296875</ele>
        <time>2026-06-18T07:02:21.000Z</time>
        <extensions>
          <ns3:TrackPointExtension>
            <ns3:atemp>19.0</ns3:atemp>
          </ns3:TrackPointExtension>
        </extensions>
      </trkpt>
      <trkpt lat="42.55971576087176799774169921875" lon="19.81506116688251495361328125">
        <ele>976</ele>
        <time>2026-06-18T07:02:22.000Z</time>
        <extensions>
          <ns3:TrackPointExtension>
            <ns3:atemp>19.0</ns3:atemp>
          </ns3:TrackPointExtension>
        </extensions>
      </trkpt>
      <trkpt lat="42.55970737896859645843505859375" lon="19.81501833535730838775634765625">
        <ele>976.4000244140625</ele>
        <time>2026-06-18T07:02:23.000Z</time>
        <extensions>
          <ns3:TrackPointExtension>
            <ns3:atemp>19.0</ns3:atemp>
          </ns3:TrackPointExtension>
        </extensions>
      </trkpt>
      <trkpt lat="42.5596982426941394805908203125" lon="19.81497709639370441436767578125">
        <ele>976.5999755859375</ele>
        <time>2026-06-18T07:02:24.000Z</time>
        <extensions>
          <ns3:TrackPointExtension>
            <ns3:atemp>19.0</ns3:atemp>
          </ns3:TrackPointExtension>
        </extensions>
      </trkpt>
      <trkpt lat="42.55968558602035045623779296875" lon="19.81493644416332244873046875">
        <ele>976.79998779296875</ele>
        <time>2026-06-18T07:02:25.000Z</time>
        <extensions>
          <ns3:TrackPointExtension>
            <ns3:atemp>19.0</ns3:atemp>
          </ns3:TrackPointExtension>
        </extensions>
      </trkpt>
      <trkpt lat="42.55967251025140285491943359375" lon="19.8148928582668304443359375">
        <ele>977</ele>
        <time>2026-06-18T07:02:26.000Z</time>
        <extensions>
          <ns3:TrackPointExtension>
            <ns3:atemp>19.0</ns3:atemp>
          </ns3:TrackPointExtension>
        </extensions>
      </trkpt>
      <trkpt lat="42.55966044031083583831787109375" lon="19.8148526251316070556640625">
        <ele>977.20001220703125</ele>
        <time>2026-06-18T07:02:27.000Z</time>
        <extensions>
          <ns3:TrackPointExtension>
            <ns3:atemp>19.0</ns3:atemp>
          </ns3:TrackPointExtension>
        </extensions>
      </trkpt>
      <trkpt lat="42.5596471130847930908203125" lon="19.814812727272510528564453125">
        <ele>977.4000244140625</ele>
        <time>2026-06-18T07:02:28.000Z</time>
        <extensions>
          <ns3:TrackPointExtension>
            <ns3:atemp>19.0</ns3:atemp>
          </ns3:TrackPointExtension>
        </extensions>
      </trkpt>
      <trkpt lat="42.55963261239230632781982421875" lon="19.81477324850857257843017578125">
        <ele>977.5999755859375</ele>
        <time>2026-06-18T07:02:29.000Z</time>
        <extensions>
          <ns3:TrackPointExtension>
            <ns3:atemp>19.0</ns3:atemp>
          </ns3:TrackPointExtension>
        </extensions>
      </trkpt>
      <trkpt lat="42.55961853079497814178466796875" lon="19.8147341050207614898681640625">
        <ele>977.79998779296875</ele>
        <time>2026-06-18T07:02:30.000Z</time>
        <extensions>
          <ns3:TrackPointExtension>
            <ns3:atemp>19.0</ns3:atemp>
          </ns3:TrackPointExtension>
        </extensions>
      </trkpt>
      <trkpt lat="42.5596026889979839324951171875" lon="19.81469445861876010894775390625">
        <ele>978</ele>
        <time>2026-06-18T07:02:31.000Z</time>
        <extensions>
          <ns3:TrackPointExtension>
            <ns3:atemp>19.0</ns3:atemp>
          </ns3:TrackPointExtension>
        </extensions>
      </trkpt>
      <trkpt lat="42.559585757553577423095703125" lon="19.814657159149646759033203125">
        <ele>978.20001220703125</ele>
        <time>2026-06-18T07:02:32.000Z</time>
        <extensions>
          <ns3:TrackPointExtension>
            <ns3:atemp>19.0</ns3:atemp>
          </ns3:TrackPointExtension>
        </extensions>
      </trkpt>
      <trkpt lat="42.55956941284239292144775390625" lon="19.8146187700331211090087890625">
        <ele>978.4000244140625</ele>
        <time>2026-06-18T07:02:33.000Z</time>
        <extensions>
          <ns3:TrackPointExtension>
            <ns3:atemp>19.0</ns3:atemp>
          </ns3:TrackPointExtension>
        </extensions>
      </trkpt>
      <trkpt lat="42.55955197848379611968994140625" lon="19.8145817220211029052734375">
        <ele>978.5999755859375</ele>
        <time>2026-06-18T07:02:34.000Z</time>
        <extensions>
          <ns3:TrackPointExtension>
            <ns3:atemp>19.0</ns3:atemp>
          </ns3:TrackPointExtension>
        </extensions>
      </trkpt>
      <trkpt lat="42.55953647196292877197265625" lon="19.81454643420875072479248046875">
        <ele>979</ele>
        <time>2026-06-18T07:02:35.000Z</time>
        <extensions>
          <ns3:TrackPointExtension>
            <ns3:atemp>19.0</ns3:atemp>
          </ns3:TrackPointExtension>
        </extensions>
      </trkpt>
      <trkpt lat="42.559520043432712554931640625" lon="19.8145101405680179595947265625">
        <ele>979.20001220703125</ele>
        <time>2026-06-18T07:02:36.000Z</time>
        <extensions>
          <ns3:TrackPointExtension>
            <ns3:atemp>19.0</ns3:atemp>
          </ns3:TrackPointExtension>
        </extensions>
      </trkpt>
      <trkpt lat="42.55950562655925750732421875" lon="19.81447887606918811798095703125">
        <ele>979.5999755859375</ele>
        <time>2026-06-18T07:02:37.000Z</time>
        <extensions>
          <ns3:TrackPointExtension>
            <ns3:atemp>19.0</ns3:atemp>
          </ns3:TrackPointExtension>
        </extensions>
      </trkpt>
      <trkpt lat="42.55948961712419986724853515625" lon="19.8144447617232799530029296875">
        <ele>979.79998779296875</ele>
        <time>2026-06-18T07:02:38.000Z</time>
        <extensions>
          <ns3:TrackPointExtension>
            <ns3:atemp>19.0</ns3:atemp>
          </ns3:TrackPointExtension>
        </extensions>
      </trkpt>
      <trkpt lat="42.5594715960323810577392578125" lon="19.8144065402448177337646484375">
        <ele>980</ele>
        <time>2026-06-18T07:02:39.000Z</time>
        <extensions>
          <ns3:TrackPointExtension>
            <ns3:atemp>19.0</ns3:atemp>
          </ns3:TrackPointExtension>
        </extensions>
      </trkpt>
      <trkpt lat="42.559455335140228271484375" lon="19.81436857022345066070556640625">
        <ele>980.4000244140625</ele>
        <time>2026-06-18T07:02:40.000Z</time>
        <extensions>
          <ns3:TrackPointExtension>
            <ns3:atemp>19.0</ns3:atemp>
          </ns3:TrackPointExtension>
        </extensions>
      </trkpt>
      <trkpt lat="42.5594377331435680389404296875" lon="19.81432179920375347137451171875">
        <ele>980.5999755859375</ele>
        <time>2026-06-18T07:02:41.000Z</time>
        <extensions>
          <ns3:TrackPointExtension>
            <ns3:atemp>19.0</ns3:atemp>
          </ns3:TrackPointExtension>
        </extensions>
      </trkpt>
      <trkpt lat="42.55941803567111492156982421875" lon="19.81426882557570934295654296875">
        <ele>980.79998779296875</ele>
        <time>2026-06-18T07:02:42.000Z</time>
        <extensions>
          <ns3:TrackPointExtension>
            <ns3:atemp>19.0</ns3:atemp>
          </ns3:TrackPointExtension>
        </extensions>
      </trkpt>
      <trkpt lat="42.5593975000083446502685546875" lon="19.81421400792896747589111328125">
        <ele>981</ele>
        <time>2026-06-18T07:02:43.000Z</time>
        <extensions>
          <ns3:TrackPointExtension>
            <ns3:atemp>19.0</ns3:atemp>
          </ns3:TrackPointExtension>
        </extensions>
      </trkpt>
      <trkpt lat="42.55937528796494007110595703125" lon="19.8141520656645298004150390625">
        <ele>981</ele>
        <time>2026-06-18T07:02:44.000Z</time>
        <extensions>
          <ns3:TrackPointExtension>
            <ns3:atemp>19.0</ns3:atemp>
          </ns3:TrackPointExtension>
        </extensions>
      </trkpt>
      <trkpt lat="42.5593520700931549072265625" lon="19.8140880279242992401123046875">
        <ele>981</ele>
        <time>2026-06-18T07:02:45.000Z</time>
        <extensions>
          <ns3:TrackPointExtension>
            <ns3:atemp>19.0</ns3:atemp>
          </ns3:TrackPointExtension>
        </extensions>
      </trkpt>
      <trkpt lat="42.55932901985943317413330078125" lon="19.81402206234633922576904296875">
        <ele>980.79998779296875</ele>
        <time>2026-06-18T07:02:46.000Z</time>
        <extensions>
          <ns3:TrackPointExtension>
            <ns3:atemp>19.0</ns3:atemp>
          </ns3:TrackPointExtension>
        </extensions>
      </trkpt>
      <trkpt lat="42.559305466711521148681640625" lon="19.81395970098674297332763671875">
        <ele>980.79998779296875</ele>
        <time>2026-06-18T07:02:47.000Z</time>
        <extensions>
          <ns3:TrackPointExtension>
            <ns3:atemp>19.0</ns3:atemp>
          </ns3:TrackPointExtension>
        </extensions>
      </trkpt>
      <trkpt lat="42.5592811591923236846923828125" lon="19.81389616616070270538330078125">
        <ele>980.5999755859375</ele>
        <time>2026-06-18T07:02:48.000Z</time>
        <extensions>
          <ns3:TrackPointExtension>
            <ns3:atemp>19.0</ns3:atemp>
          </ns3:TrackPointExtension>
        </extensions>
      </trkpt>
      <trkpt lat="42.5592580251395702362060546875" lon="19.81383229605853557586669921875">
        <ele>980.4000244140625</ele>
        <time>2026-06-18T07:02:49.000Z</time>
        <extensions>
          <ns3:TrackPointExtension>
            <ns3:atemp>19.0</ns3:atemp>
          </ns3:TrackPointExtension>
        </extensions>
      </trkpt>
      <trkpt lat="42.55923329852521419525146484375" lon="19.8137675039470195770263671875">
        <ele>980.4000244140625</ele>
        <time>2026-06-18T07:02:50.000Z</time>
        <extensions>
          <ns3:TrackPointExtension>
            <ns3:atemp>19.0</ns3:atemp>
          </ns3:TrackPointExtension>
        </extensions>
      </trkpt>
      <trkpt lat="42.5592114217579364776611328125" lon="19.81370338238775730133056640625">
        <ele>980.20001220703125</ele>
        <time>2026-06-18T07:02:51.000Z</time>
        <extensions>
          <ns3:TrackPointExtension>
            <ns3:atemp>19.0</ns3:atemp>
          </ns3:TrackPointExtension>
        </extensions>
      </trkpt>
      <trkpt lat="42.55918568931519985198974609375" lon="19.8136387579143047332763671875">
        <ele>980.20001220703125</ele>
        <time>2026-06-18T07:02:52.000Z</time>
        <extensions>
          <ns3:TrackPointExtension>
            <ns3:atemp>19.0</ns3:atemp>
          </ns3:TrackPointExtension>
        </extensions>
      </trkpt>
      <trkpt lat="42.55916096270084381103515625" lon="19.8135733790695667266845703125">
        <ele>980</ele>
        <time>2026-06-18T07:02:53.000Z</time>
        <extensions>
          <ns3:TrackPointExtension>
            <ns3:atemp>19.0</ns3:atemp>
          </ns3:TrackPointExtension>
        </extensions>
      </trkpt>
      <trkpt lat="42.5591366551816463470458984375" lon="19.8135073296725749969482421875">
        <ele>980</ele>
        <time>2026-06-18T07:02:54.000Z</time>
        <extensions>
          <ns3:TrackPointExtension>
            <ns3:atemp>19.0</ns3:atemp>
          </ns3:TrackPointExtension>
        </extensions>
      </trkpt>
      <trkpt lat="42.5591162033379077911376953125" lon="19.81343952007591724395751953125">
        <ele>979.79998779296875</ele>
        <time>2026-06-18T07:02:55.000Z</time>
        <extensions>
          <ns3:TrackPointExtension>
            <ns3:atemp>19.0</ns3:atemp>
          </ns3:TrackPointExtension>
        </extensions>
      </trkpt>
      <trkpt lat="42.5590918958187103271484375" lon="19.81337497942149639129638671875">
        <ele>979.79998779296875</ele>
        <time>2026-06-18T07:02:56.000Z</time>
        <extensions>
          <ns3:TrackPointExtension>
            <ns3:atemp>19.0</ns3:atemp>
          </ns3:TrackPointExtension>
        </extensions>
      </trkpt>
      <trkpt lat="42.5590645708143711090087890625" lon="19.81330524198710918426513671875">
        <ele>979.5999755859375</ele>
        <time>2026-06-18T07:02:57.000Z</time>
        <extensions>
          <ns3:TrackPointExtension>
            <ns3:atemp>19.0</ns3:atemp>
          </ns3:TrackPointExtension>
        </extensions>
      </trkpt>
      <trkpt lat="42.5590377487242221832275390625" lon="19.813231565058231353759765625">
        <ele>979.4000244140625</ele>
        <time>2026-06-18T07:02:58.000Z</time>
        <extensions>
          <ns3:TrackPointExtension>
            <ns3:atemp>19.0</ns3:atemp>
          </ns3:TrackPointExtension>
        </extensions>
      </trkpt>
      <trkpt lat="42.5590112619102001190185546875" lon="19.81315285898745059967041015625">
        <ele>979.20001220703125</ele>
        <time>2026-06-18T07:02:59.000Z</time>
        <extensions>
          <ns3:TrackPointExtension>
            <ns3:atemp>19.0</ns3:atemp>
          </ns3:TrackPointExtension>
        </extensions>
      </trkpt>
      <trkpt lat="42.5589794106781482696533203125" lon="19.81307121925055980682373046875">
        <ele>978.79998779296875</ele>
        <time>2026-06-18T07:03:00.000Z</time>
        <extensions>
          <ns3:TrackPointExtension>
            <ns3:atemp>19.0</ns3:atemp>
          </ns3:TrackPointExtension>
        </extensions>
      </trkpt>
      <trkpt lat="42.55894915200769901275634765625" lon="19.8129836283624172210693359375">
        <ele>978.4000244140625</ele>
        <time>2026-06-18T07:03:01.000Z</time>
        <extensions>
          <ns3:TrackPointExtension>
            <ns3:atemp>19.0</ns3:atemp>
          </ns3:TrackPointExtension>
        </extensions>
      </trkpt>
      <trkpt lat="42.55891931243240833282470703125" lon="19.8128931038081645965576171875">
        <ele>978</ele>
        <time>2026-06-18T07:03:02.000Z</time>
        <extensions>
          <ns3:TrackPointExtension>
            <ns3:atemp>19.0</ns3:atemp>
          </ns3:TrackPointExtension>
        </extensions>
      </trkpt>
      <trkpt lat="42.55888880230486392974853515625" lon="19.81280048377811908721923828125">
        <ele>977.5999755859375</ele>
        <time>2026-06-18T07:03:03.000Z</time>
        <extensions>
          <ns3:TrackPointExtension>
            <ns3:atemp>19.0</ns3:atemp>
          </ns3:TrackPointExtension>
        </extensions>
      </trkpt>
      <trkpt lat="42.558854855597019195556640625" lon="19.81270459480583667755126953125">
        <ele>977.20001220703125</ele>
        <time>2026-06-18T07:03:04.000Z</time>
        <extensions>
          <ns3:TrackPointExtension>
            <ns3:atemp>19.0</ns3:atemp>
          </ns3:TrackPointExtension>
        </extensions>
      </trkpt>
      <trkpt lat="42.5588214956223964691162109375" lon="19.812606610357761383056640625">
        <ele>976.79998779296875</ele>
        <time>2026-06-18T07:03:05.000Z</time>
        <extensions>
          <ns3:TrackPointExtension>
            <ns3:atemp>19.0</ns3:atemp>
          </ns3:TrackPointExtension>
        </extensions>
      </trkpt>
      <trkpt lat="42.55878411233425140380859375" lon="19.8125030100345611572265625">
        <ele>976.20001220703125</ele>
        <time>2026-06-18T07:03:06.000Z</time>
        <extensions>
          <ns3:TrackPointExtension>
            <ns3:atemp>19.0</ns3:atemp>
          </ns3:TrackPointExtension>
        </extensions>
      </trkpt>
      <trkpt lat="42.558747567236423492431640625" lon="19.81239731423556804656982421875">
        <ele>975.79998779296875</ele>
        <time>2026-06-18T07:03:07.000Z</time>
        <extensions>
          <ns3:TrackPointExtension>
            <ns3:atemp>19.0</ns3:atemp>
          </ns3:TrackPointExtension>
        </extensions>
      </trkpt>
      <trkpt lat="42.55871437489986419677734375" lon="19.81228717602789402008056640625">
        <ele>975.20001220703125</ele>
        <time>2026-06-18T07:03:08.000Z</time>
        <extensions>
          <ns3:TrackPointExtension>
            <ns3:atemp>19.0</ns3:atemp>
          </ns3:TrackPointExtension>
        </extensions>
      </trkpt>
      <trkpt lat="42.5586830265820026397705078125" lon="19.81217452324926853179931640625">
        <ele>974.79998779296875</ele>
        <time>2026-06-18T07:03:09.000Z</time>
        <extensions>
          <ns3:TrackPointExtension>
            <ns3:atemp>19.0</ns3:atemp>
          </ns3:TrackPointExtension>
        </extensions>
      </trkpt>
      <trkpt lat="42.55865075625479221343994140625" lon="19.812059439718723297119140625">
        <ele>974.20001220703125</ele>
        <time>2026-06-18T07:03:10.000Z</time>
        <extensions>
          <ns3:TrackPointExtension>
            <ns3:atemp>19.0</ns3:atemp>
          </ns3:TrackPointExtension>
        </extensions>
      </trkpt>
      <trkpt lat="42.55861940793693065643310546875" lon="19.81194301508367061614990234375">
        <ele>973.79998779296875</ele>
        <time>2026-06-18T07:03:11.000Z</time>
        <extensions>
          <ns3:TrackPointExtension>
            <ns3:atemp>19.0</ns3:atemp>
          </ns3:TrackPointExtension>
        </extensions>
      </trkpt>
      <trkpt lat="42.55859107710421085357666015625" lon="19.81182667426764965057373046875">
        <ele>973.20001220703125</ele>
        <time>2026-06-18T07:03:12.000Z</time>
        <extensions>
          <ns3:TrackPointExtension>
            <ns3:atemp>19.0</ns3:atemp>
          </ns3:TrackPointExtension>
        </extensions>
      </trkpt>
      <trkpt lat="42.5585640035569667816162109375" lon="19.81170748360455036163330078125">
        <ele>972.5999755859375</ele>
        <time>2026-06-18T07:03:13.000Z</time>
        <extensions>
          <ns3:TrackPointExtension>
            <ns3:atemp>19.0</ns3:atemp>
          </ns3:TrackPointExtension>
        </extensions>
      </trkpt>
      <trkpt lat="42.55853340961039066314697265625" lon="19.81158510781824588775634765625">
        <ele>972.20001220703125</ele>
        <time>2026-06-18T07:03:14.000Z</time>
        <extensions>
          <ns3:TrackPointExtension>
            <ns3:atemp>19.0</ns3:atemp>
          </ns3:TrackPointExtension>
        </extensions>
      </trkpt>
      <trkpt lat="42.5585039891302585601806640625" lon="19.81146155856549739837646484375">
        <ele>971.79998779296875</ele>
        <time>2026-06-18T07:03:15.000Z</time>
        <extensions>
          <ns3:TrackPointExtension>
            <ns3:atemp>19.0</ns3:atemp>
          </ns3:TrackPointExtension>
        </extensions>
      </trkpt>
      <trkpt lat="42.55848362110555171966552734375" lon="19.8113377578556537628173828125">
        <ele>971.4000244140625</ele>
        <time>2026-06-18T07:03:16.000Z</time>
        <extensions>
          <ns3:TrackPointExtension>
            <ns3:atemp>19.0</ns3:atemp>
          </ns3:TrackPointExtension>
        </extensions>
      </trkpt>
      <trkpt lat="42.55847004242241382598876953125" lon="19.811215884983539581298828125">
        <ele>970.79998779296875</ele>
        <time>2026-06-18T07:03:17.000Z</time>
        <extensions>
          <ns3:TrackPointExtension>
            <ns3:atemp>19.0</ns3:atemp>
          </ns3:TrackPointExtension>
        </extensions>
      </trkpt>
      <trkpt lat="42.5584617443382740020751953125" lon="19.811100549995899200439453125">
        <ele>970.4000244140625</ele>
        <time>2026-06-18T07:03:18.000Z</time>
        <extensions>
          <ns3:TrackPointExtension>
            <ns3:atemp>19.0</ns3:atemp>
          </ns3:TrackPointExtension>
        </extensions>
      </trkpt>
      <trkpt lat="42.55845730192959308624267578125" lon="19.81098798103630542755126953125">
        <ele>970</ele>
        <time>2026-06-18T07:03:19.000Z</time>
        <extensions>
          <ns3:TrackPointExtension>
            <ns3:atemp>19.0</ns3:atemp>
          </ns3:TrackPointExtension>
        </extensions>
      </trkpt>
      <trkpt lat="42.558456547558307647705078125" lon="19.8108703829348087310791015625">
        <ele>969.79998779296875</ele>
        <time>2026-06-18T07:03:20.000Z</time>
        <extensions>
          <ns3:TrackPointExtension>
            <ns3:atemp>19.0</ns3:atemp>
          </ns3:TrackPointExtension>
        </extensions>
      </trkpt>
      <trkpt lat="42.55845193751156330108642578125" lon="19.81075161136686801910400390625">
        <ele>969.4000244140625</ele>
        <time>2026-06-18T07:03:21.000Z</time>
        <extensions>
          <ns3:TrackPointExtension>
            <ns3:atemp>19.0</ns3:atemp>
          </ns3:TrackPointExtension>
        </extensions>
      </trkpt>
      <trkpt lat="42.558438442647457122802734375" lon="19.81063225306570529937744140625">
        <ele>968.79998779296875</ele>
        <time>2026-06-18T07:03:22.000Z</time>
        <extensions>
          <ns3:TrackPointExtension>
            <ns3:atemp>19.0</ns3:atemp>
          </ns3:TrackPointExtension>
        </extensions>
      </trkpt>
      <trkpt lat="42.5584114529192447662353515625" lon="19.8105082847177982330322265625">
        <ele>968.20001220703125</ele>
        <time>2026-06-18T07:03:23.000Z</time>
        <extensions>
          <ns3:TrackPointExtension>
            <ns3:atemp>19.0</ns3:atemp>
          </ns3:TrackPointExtension>
        </extensions>
      </trkpt>
      <trkpt lat="42.55837918259203433990478515625" lon="19.8103787004947662353515625">
        <ele>967.5999755859375</ele>
        <time>2026-06-18T07:03:24.000Z</time>
        <extensions>
          <ns3:TrackPointExtension>
            <ns3:atemp>19.0</ns3:atemp>
          </ns3:TrackPointExtension>
        </extensions>
      </trkpt>
      <trkpt lat="42.5583433918654918670654296875" lon="19.81024618260562419891357421875">
        <ele>967.20001220703125</ele>
        <time>2026-06-18T07:03:25.000Z</time>
        <extensions>
          <ns3:TrackPointExtension>
            <ns3:atemp>19.0</ns3:atemp>
          </ns3:TrackPointExtension>
        </extensions>
      </trkpt>
      <trkpt lat="42.5583033263683319091796875" lon="19.8101163469254970550537109375">
        <ele>966</ele>
        <time>2026-06-18T07:03:26.000Z</time>
        <extensions>
          <ns3:TrackPointExtension>
            <ns3:atemp>19.0</ns3:atemp>
          </ns3:TrackPointExtension>
        </extensions>
      </trkpt>
      <trkpt lat="42.55826049484312534332275390625" lon="19.8099879361689090728759765625">
        <ele>965.4000244140625</ele>
        <time>2026-06-18T07:03:27.000Z</time>
        <extensions>
          <ns3:TrackPointExtension>
            <ns3:atemp>19.0</ns3:atemp>
          </ns3:TrackPointExtension>
        </extensions>
      </trkpt>
      <trkpt lat="42.558229230344295501708984375" lon="19.8098601959645748138427734375">
        <ele>964.79998779296875</ele>
        <time>2026-06-18T07:03:28.000Z</time>
        <extensions>
          <ns3:TrackPointExtension>
            <ns3:atemp>19.0</ns3:atemp>
          </ns3:TrackPointExtension>
        </extensions>
      </trkpt>
      <trkpt lat="42.55820953287184238433837890625" lon="19.8097321204841136932373046875">
        <ele>964</ele>
        <time>2026-06-18T07:03:29.000Z</time>
        <extensions>
          <ns3:TrackPointExtension>
            <ns3:atemp>19.0</ns3:atemp>
          </ns3:TrackPointExtension>
        </extensions>
      </trkpt>
      <trkpt lat="42.5582027435302734375" lon="19.809606559574604034423828125">
        <ele>963.79998779296875</ele>
        <time>2026-06-18T07:03:30.000Z</time>
        <extensions>
          <ns3:TrackPointExtension>
            <ns3:atemp>19.0</ns3:atemp>
          </ns3:TrackPointExtension>
        </extensions>
      </trkpt>
      <trkpt lat="42.55820207297801971435546875" lon="19.80948477052152156829833984375">
        <ele>963.5999755859375</ele>
        <time>2026-06-18T07:03:31.000Z</time>
        <extensions>
          <ns3:TrackPointExtension>
            <ns3:atemp>20.0</ns3:atemp>
          </ns3:TrackPointExtension>
        </extensions>
      </trkpt>
      <trkpt lat="42.55820383317768573760986328125" lon="19.80936943553388118743896484375">
        <ele>963.5999755859375</ele>
        <time>2026-06-18T07:03:32.000Z</time>
        <extensions>
          <ns3:TrackPointExtension>
            <ns3:atemp>20.0</ns3:atemp>
          </ns3:TrackPointExtension>
        </extensions>
      </trkpt>
      <trkpt lat="42.55820735357701778411865234375" lon="19.80926415883004665374755859375">
        <ele>963.4000244140625</ele>
        <time>2026-06-18T07:03:33.000Z</time>
        <extensions>
          <ns3:TrackPointExtension>
            <ns3:atemp>20.0</ns3:atemp>
          </ns3:TrackPointExtension>
        </extensions>
      </trkpt>
      <trkpt lat="42.55821187980473041534423828125" lon="19.80916189961135387420654296875">
        <ele>963.5999755859375</ele>
        <time>2026-06-18T07:03:34.000Z</time>
        <extensions>
          <ns3:TrackPointExtension>
            <ns3:atemp>20.0</ns3:atemp>
          </ns3:TrackPointExtension>
        </extensions>
      </trkpt>
      <trkpt lat="42.55821858532726764678955078125" lon="19.80906374752521514892578125">
        <ele>963.79998779296875</ele>
        <time>2026-06-18T07:03:35.000Z</time>
        <extensions>
          <ns3:TrackPointExtension>
            <ns3:atemp>20.0</ns3:atemp>
          </ns3:TrackPointExtension>
        </extensions>
      </trkpt>
      <trkpt lat="42.55822562612593173980712890625" lon="19.8089703731238842010498046875">
        <ele>963.79998779296875</ele>
        <time>2026-06-18T07:03:36.000Z</time>
        <extensions>
          <ns3:TrackPointExtension>
            <ns3:atemp>19.0</ns3:atemp>
          </ns3:TrackPointExtension>
        </extensions>
      </trkpt>
      <trkpt lat="42.55823484621942043304443359375" lon="19.8088788427412509918212890625">
        <ele>964</ele>
        <time>2026-06-18T07:03:37.000Z</time>
        <extensions>
          <ns3:TrackPointExtension>
            <ns3:atemp>20.0</ns3:atemp>
          </ns3:TrackPointExtension>
        </extensions>
      </trkpt>
      <trkpt lat="42.5582461617887020111083984375" lon="19.80878882110118865966796875">
        <ele>964.20001220703125</ele>
        <time>2026-06-18T07:03:38.000Z</time>
        <extensions>
          <ns3:TrackPointExtension>
            <ns3:atemp>20.0</ns3:atemp>
          </ns3:TrackPointExtension>
        </extensions>
      </trkpt>
      <trkpt lat="42.55825546570122241973876953125" lon="19.80870592407882213592529296875">
        <ele>964.20001220703125</ele>
        <time>2026-06-18T07:03:39.000Z</time>
        <extensions>
          <ns3:TrackPointExtension>
            <ns3:atemp>20.0</ns3:atemp>
          </ns3:TrackPointExtension>
        </extensions>
      </trkpt>
      <trkpt lat="42.55826083011925220489501953125" lon="19.80863031931221485137939453125">
        <ele>964.4000244140625</ele>
        <time>2026-06-18T07:03:40.000Z</time>
        <extensions>
          <ns3:TrackPointExtension>
            <ns3:atemp>20.0</ns3:atemp>
          </ns3:TrackPointExtension>
        </extensions>
      </trkpt>
      <trkpt lat="42.55826300941407680511474609375" lon="19.80855169706046581268310546875">
        <ele>964.5999755859375</ele>
        <time>2026-06-18T07:03:41.000Z</time>
        <extensions>
          <ns3:TrackPointExtension>
            <ns3:atemp>20.0</ns3:atemp>
          </ns3:TrackPointExtension>
        </extensions>
      </trkpt>
      <trkpt lat="42.5582642666995525360107421875" lon="19.8084711469709873199462890625">
        <ele>964.5999755859375</ele>
        <time>2026-06-18T07:03:42.000Z</time>
        <extensions>
          <ns3:TrackPointExtension>
            <ns3:atemp>20.0</ns3:atemp>
          </ns3:TrackPointExtension>
        </extensions>
      </trkpt>
      <trkpt lat="42.55827340297400951385498046875" lon="19.80839126743376255035400390625">
        <ele>964.5999755859375</ele>
        <time>2026-06-18T07:03:43.000Z</time>
        <extensions>
          <ns3:TrackPointExtension>
            <ns3:atemp>20.0</ns3:atemp>
          </ns3:TrackPointExtension>
        </extensions>
      </trkpt>
      <trkpt lat="42.558288238942623138427734375" lon="19.80831398628652095794677734375">
        <ele>964.79998779296875</ele>
        <time>2026-06-18T07:03:44.000Z</time>
        <extensions>
          <ns3:TrackPointExtension>
            <ns3:atemp>20.0</ns3:atemp>
          </ns3:TrackPointExtension>
        </extensions>
      </trkpt>
      <trkpt lat="42.5583034940063953399658203125" lon="19.80824123136699199676513671875">
        <ele>964.79998779296875</ele>
        <time>2026-06-18T07:03:45.000Z</time>
        <extensions>
          <ns3:TrackPointExtension>
            <ns3:atemp>20.0</ns3:atemp>
          </ns3:TrackPointExtension>
        </extensions>
      </trkpt>
      <trkpt lat="42.55831765942275524139404296875" lon="19.8081680573523044586181640625">
        <ele>964.79998779296875</ele>
        <time>2026-06-18T07:03:46.000Z</time>
        <extensions>
          <ns3:TrackPointExtension>
            <ns3:atemp>20.0</ns3:atemp>
          </ns3:TrackPointExtension>
        </extensions>
      </trkpt>
      <trkpt lat="42.558326460421085357666015625" lon="19.808101840317249298095703125">
        <ele>965</ele>
        <time>2026-06-18T07:03:47.000Z</time>
        <extensions>
          <ns3:TrackPointExtension>
            <ns3:atemp>19.0</ns3:atemp>
          </ns3:TrackPointExtension>
        </extensions>
      </trkpt>
      <trkpt lat="42.558331154286861419677734375" lon="19.808040820062160491943359375">
        <ele>965.20001220703125</ele>
        <time>2026-06-18T07:03:48.000Z</time>
        <extensions>
          <ns3:TrackPointExtension>
            <ns3:atemp>19.0</ns3:atemp>
          </ns3:TrackPointExtension>
        </extensions>
      </trkpt>
      <trkpt lat="42.5583390332758426666259765625" lon="19.8079890199005603790283203125">
        <ele>965.20001220703125</ele>
        <time>2026-06-18T07:03:49.000Z</time>
        <extensions>
          <ns3:TrackPointExtension>
            <ns3:atemp>19.0</ns3:atemp>
          </ns3:TrackPointExtension>
        </extensions>
      </trkpt>
      <trkpt lat="42.55833593197166919708251953125" lon="19.80794484727084636688232421875">
        <ele>965.4000244140625</ele>
        <time>2026-06-18T07:03:50.000Z</time>
        <extensions>
          <ns3:TrackPointExtension>
            <ns3:atemp>20.0</ns3:atemp>
          </ns3:TrackPointExtension>
        </extensions>
      </trkpt>
      <trkpt lat="42.55833056755363941192626953125" lon="19.8079028539359569549560546875">
        <ele>965.5999755859375</ele>
        <time>2026-06-18T07:03:51.000Z</time>
        <extensions>
          <ns3:TrackPointExtension>
            <ns3:atemp>20.0</ns3:atemp>
          </ns3:TrackPointExtension>
        </extensions>
      </trkpt>
      <trkpt lat="42.55832185037434101104736328125" lon="19.80786941014230251312255859375">
        <ele>965.79998779296875</ele>
        <time>2026-06-18T07:03:52.000Z</time>
        <extensions>
          <ns3:TrackPointExtension>
            <ns3:atemp>20.0</ns3:atemp>
          </ns3:TrackPointExtension>
        </extensions>
      </trkpt>
      <trkpt lat="42.55831606686115264892578125" lon="19.8078280873596668243408203125">
        <ele>965.79998779296875</ele>
        <time>2026-06-18T07:03:53.000Z</time>
        <extensions>
          <ns3:TrackPointExtension>
            <ns3:atemp>20.0</ns3:atemp>
          </ns3:TrackPointExtension>
        </extensions>
      </trkpt>
      <trkpt lat="42.55831296555697917938232421875" lon="19.80778592638671398162841796875">
        <ele>966</ele>
        <time>2026-06-18T07:03:54.000Z</time>
        <extensions>
          <ns3:TrackPointExtension>
            <ns3:atemp>20.0</ns3:atemp>
          </ns3:TrackPointExtension>
        </extensions>
      </trkpt>
      <trkpt lat="42.5583135522902011871337890625" lon="19.80774468742311000823974609375">
        <ele>966</ele>
        <time>2026-06-18T07:03:55.000Z</time>
        <extensions>
          <ns3:TrackPointExtension>
            <ns3:atemp>20.0</ns3:atemp>
          </ns3:TrackPointExtension>
        </extensions>
      </trkpt>
      <trkpt lat="42.55831128917634487152099609375" lon="19.80770546011626720428466796875">
        <ele>966.20001220703125</ele>
        <time>2026-06-18T07:03:56.000Z</time>
        <extensions>
          <ns3:TrackPointExtension>
            <ns3:atemp>20.0</ns3:atemp>
          </ns3:TrackPointExtension>
        </extensions>
      </trkpt>
      <trkpt lat="42.55830894224345684051513671875" lon="19.80766640044748783111572265625">
        <ele>966.4000244140625</ele>
        <time>2026-06-18T07:03:57.000Z</time>
        <extensions>
          <ns3:TrackPointExtension>
            <ns3:atemp>20.0</ns3:atemp>
          </ns3:TrackPointExtension>
        </extensions>
      </trkpt>
      <trkpt lat="42.5583051703870296478271484375" lon="19.80762683786451816558837890625">
        <ele>966.4000244140625</ele>
        <time>2026-06-18T07:03:58.000Z</time>
        <extensions>
          <ns3:TrackPointExtension>
            <ns3:atemp>20.0</ns3:atemp>
          </ns3:TrackPointExtension>
        </extensions>
      </trkpt>
      <trkpt lat="42.5583014823496341705322265625" lon="19.80758090503513813018798828125">
        <ele>966.5999755859375</ele>
        <time>2026-06-18T07:03:59.000Z</time>
        <extensions>
          <ns3:TrackPointExtension>
            <ns3:atemp>20.0</ns3:atemp>
          </ns3:TrackPointExtension>
        </extensions>
      </trkpt>
      <trkpt lat="42.558294273912906646728515625" lon="19.8075353913009166717529296875">
        <ele>966.79998779296875</ele>
        <time>2026-06-18T07:04:00.000Z</time>
        <extensions>
          <ns3:TrackPointExtension>
            <ns3:atemp>19.0</ns3:atemp>
          </ns3:TrackPointExtension>
        </extensions>
      </trkpt>
      <trkpt lat="42.5582843832671642303466796875" lon="19.80748920701444149017333984375">
        <ele>966.79998779296875</ele>
        <time>2026-06-18T07:04:01.000Z</time>
        <extensions>
          <ns3:TrackPointExtension>
            <ns3:atemp>19.0</ns3:atemp>
          </ns3:TrackPointExtension>
        </extensions>
      </trkpt>
      <trkpt lat="42.558271475136280059814453125" lon="19.80743698775768280029296875">
        <ele>966.79998779296875</ele>
        <time>2026-06-18T07:04:02.000Z</time>
        <extensions>
          <ns3:TrackPointExtension>
            <ns3:atemp>19.0</ns3:atemp>
          </ns3:TrackPointExtension>
        </extensions>
      </trkpt>
      <trkpt lat="42.55825999192893505096435546875" lon="19.80737923644483089447021484375">
        <ele>966.79998779296875</ele>
        <time>2026-06-18T07:04:03.000Z</time>
        <extensions>
          <ns3:TrackPointExtension>
            <ns3:atemp>19.0</ns3:atemp>
          </ns3:TrackPointExtension>
        </extensions>
      </trkpt>
      <trkpt lat="42.5582488439977169036865234375" lon="19.80731620453298091888427734375">
        <ele>966.79998779296875</ele>
        <time>2026-06-18T07:04:04.000Z</time>
        <extensions>
          <ns3:TrackPointExtension>
            <ns3:atemp>19.0</ns3:atemp>
          </ns3:TrackPointExtension>
        </extensions>
      </trkpt>
      <trkpt lat="42.55823819898068904876708984375" lon="19.80725266970694065093994140625">
        <ele>966.79998779296875</ele>
        <time>2026-06-18T07:04:05.000Z</time>
        <extensions>
          <ns3:TrackPointExtension>
            <ns3:atemp>19.0</ns3:atemp>
          </ns3:TrackPointExtension>
        </extensions>
      </trkpt>
      <trkpt lat="42.558225877583026885986328125" lon="19.8071880452334880828857421875">
        <ele>966.79998779296875</ele>
        <time>2026-06-18T07:04:06.000Z</time>
        <extensions>
          <ns3:TrackPointExtension>
            <ns3:atemp>19.0</ns3:atemp>
          </ns3:TrackPointExtension>
        </extensions>
      </trkpt>
      <trkpt lat="42.55820986814796924591064453125" lon="19.80711788870394229888916015625">
        <ele>966.5999755859375</ele>
        <time>2026-06-18T07:04:07.000Z</time>
        <extensions>
          <ns3:TrackPointExtension>
            <ns3:atemp>19.0</ns3:atemp>
          </ns3:TrackPointExtension>
        </extensions>
      </trkpt>
      <trkpt lat="42.55820986814796924591064453125" lon="19.80711788870394229888916015625">
        <ele>966.5999755859375</ele>
        <time>2026-06-18T07:04:08.000Z</time>
        <extensions>
          <ns3:TrackPointExtension>
            <ns3:atemp>19.0</ns3:atemp>
          </ns3:TrackPointExtension>
        </extensions>
      </trkpt>
      <trkpt lat="42.5581673718988895416259765625" lon="19.80698595754802227020263671875">
        <ele>966.5999755859375</ele>
        <time>2026-06-18T07:04:09.000Z</time>
        <extensions>
          <ns3:TrackPointExtension>
            <ns3:atemp>19.0</ns3:atemp>
          </ns3:TrackPointExtension>
        </extensions>
      </trkpt>
      <trkpt lat="42.55814700387418270111083984375" lon="19.80692334473133087158203125">
        <ele>966.4000244140625</ele>
        <time>2026-06-18T07:04:10.000Z</time>
        <extensions>
          <ns3:TrackPointExtension>
            <ns3:atemp>19.0</ns3:atemp>
          </ns3:TrackPointExtension>
        </extensions>
      </trkpt>
      <trkpt lat="42.55812487564980983734130859375" lon="19.80686559341847896575927734375">
        <ele>966.20001220703125</ele>
        <time>2026-06-18T07:04:11.000Z</time>
        <extensions>
          <ns3:TrackPointExtension>
            <ns3:atemp>19.0</ns3:atemp>
          </ns3:TrackPointExtension>
        </extensions>
      </trkpt>
      <trkpt lat="42.558103837072849273681640625" lon="19.8068059980869293212890625">
        <ele>966.20001220703125</ele>
        <time>2026-06-18T07:04:12.000Z</time>
        <extensions>
          <ns3:TrackPointExtension>
            <ns3:atemp>20.0</ns3:atemp>
          </ns3:TrackPointExtension>
        </extensions>
      </trkpt>
      <trkpt lat="42.55808229558169841766357421875" lon="19.80674372054636478424072265625">
        <ele>966</ele>
        <time>2026-06-18T07:04:13.000Z</time>
        <extensions>
          <ns3:TrackPointExtension>
            <ns3:atemp>19.0</ns3:atemp>
          </ns3:TrackPointExtension>
        </extensions>
      </trkpt>
      <trkpt lat="42.5580607540905475616455078125" lon="19.80668270029127597808837890625">
        <ele>966</ele>
        <time>2026-06-18T07:04:14.000Z</time>
        <extensions>
          <ns3:TrackPointExtension>
            <ns3:atemp>19.0</ns3:atemp>
          </ns3:TrackPointExtension>
        </extensions>
      </trkpt>
      <trkpt lat="42.55803820677101612091064453125" lon="19.80662503279745578765869140625">
        <ele>966</ele>
        <time>2026-06-18T07:04:15.000Z</time>
        <extensions>
          <ns3:TrackPointExtension>
            <ns3:atemp>19.0</ns3:atemp>
          </ns3:TrackPointExtension>
        </extensions>
      </trkpt>
      <trkpt lat="42.55801842547953128814697265625" lon="19.80656837113201618194580078125">
        <ele>966</ele>
        <time>2026-06-18T07:04:16.000Z</time>
        <extensions>
          <ns3:TrackPointExtension>
            <ns3:atemp>19.0</ns3:atemp>
          </ns3:TrackPointExtension>
        </extensions>
      </trkpt>
      <trkpt lat="42.55800090730190277099609375" lon="19.8065124638378620147705078125">
        <ele>966</ele>
        <time>2026-06-18T07:04:17.000Z</time>
        <extensions>
          <ns3:TrackPointExtension>
            <ns3:atemp>19.0</ns3:atemp>
          </ns3:TrackPointExtension>
        </extensions>
      </trkpt>
      <trkpt lat="42.557983808219432830810546875" lon="19.8064547963440418243408203125">
        <ele>966</ele>
        <time>2026-06-18T07:04:18.000Z</time>
        <extensions>
          <ns3:TrackPointExtension>
            <ns3:atemp>19.0</ns3:atemp>
          </ns3:TrackPointExtension>
        </extensions>
      </trkpt>
      <trkpt lat="42.55796561948955059051513671875" lon="19.806401319801807403564453125">
        <ele>966</ele>
        <time>2026-06-18T07:04:19.000Z</time>
        <extensions>
          <ns3:TrackPointExtension>
            <ns3:atemp>19.0</ns3:atemp>
          </ns3:TrackPointExtension>
        </extensions>
      </trkpt>
      <trkpt lat="42.55794684402644634246826171875" lon="19.80634641833603382110595703125">
        <ele>966</ele>
        <time>2026-06-18T07:04:20.000Z</time>
        <extensions>
          <ns3:TrackPointExtension>
            <ns3:atemp>19.0</ns3:atemp>
          </ns3:TrackPointExtension>
        </extensions>
      </trkpt>
      <trkpt lat="42.5579276494681835174560546875" lon="19.80628900229930877685546875">
        <ele>966</ele>
        <time>2026-06-18T07:04:21.000Z</time>
        <extensions>
          <ns3:TrackPointExtension>
            <ns3:atemp>19.0</ns3:atemp>
          </ns3:TrackPointExtension>
        </extensions>
      </trkpt>
      <trkpt lat="42.5579071976244449615478515625" lon="19.80623493902385234832763671875">
        <ele>966</ele>
        <time>2026-06-18T07:04:22.000Z</time>
        <extensions>
          <ns3:TrackPointExtension>
            <ns3:atemp>19.0</ns3:atemp>
          </ns3:TrackPointExtension>
        </extensions>
      </trkpt>
      <trkpt lat="42.5578854046761989593505859375" lon="19.8061835579574108123779296875">
        <ele>966</ele>
        <time>2026-06-18T07:04:23.000Z</time>
        <extensions>
          <ns3:TrackPointExtension>
            <ns3:atemp>19.0</ns3:atemp>
          </ns3:TrackPointExtension>
        </extensions>
      </trkpt>
      <trkpt lat="42.55786553956568241119384765625" lon="19.80613410472869873046875">
        <ele>966</ele>
        <time>2026-06-18T07:04:24.000Z</time>
        <extensions>
          <ns3:TrackPointExtension>
            <ns3:atemp>19.0</ns3:atemp>
          </ns3:TrackPointExtension>
        </extensions>
      </trkpt>
      <trkpt lat="42.55784760229289531707763671875" lon="19.8060883395373821258544921875">
        <ele>966.20001220703125</ele>
        <time>2026-06-18T07:04:25.000Z</time>
        <extensions>
          <ns3:TrackPointExtension>
            <ns3:atemp>19.0</ns3:atemp>
          </ns3:TrackPointExtension>
        </extensions>
      </trkpt>
      <trkpt lat="42.55783553235232830047607421875" lon="19.8060501180589199066162109375">
        <ele>966.20001220703125</ele>
        <time>2026-06-18T07:04:26.000Z</time>
        <extensions>
          <ns3:TrackPointExtension>
            <ns3:atemp>19.0</ns3:atemp>
          </ns3:TrackPointExtension>
        </extensions>
      </trkpt>
      <trkpt lat="42.5578304193913936614990234375" lon="19.8060118965804576873779296875">
        <ele>966.4000244140625</ele>
        <time>2026-06-18T07:04:27.000Z</time>
        <extensions>
          <ns3:TrackPointExtension>
            <ns3:atemp>19.0</ns3:atemp>
          </ns3:TrackPointExtension>
        </extensions>
      </trkpt>
      <trkpt lat="42.55783083848655223846435546875" lon="19.805970154702663421630859375">
        <ele>966.5999755859375</ele>
        <time>2026-06-18T07:04:28.000Z</time>
        <extensions>
          <ns3:TrackPointExtension>
            <ns3:atemp>19.0</ns3:atemp>
          </ns3:TrackPointExtension>
        </extensions>
      </trkpt>
      <trkpt lat="42.55783167667686939239501953125" lon="19.80593897402286529541015625">
        <ele>966.79998779296875</ele>
        <time>2026-06-18T07:04:29.000Z</time>
        <extensions>
          <ns3:TrackPointExtension>
            <ns3:atemp>19.0</ns3:atemp>
          </ns3:TrackPointExtension>
        </extensions>
      </trkpt>
      <trkpt lat="42.5578233785927295684814453125" lon="19.8059307597577571868896484375">
        <ele>967.20001220703125</ele>
        <time>2026-06-18T07:04:30.000Z</time>
        <extensions>
          <ns3:TrackPointExtension>
            <ns3:atemp>19.0</ns3:atemp>
          </ns3:TrackPointExtension>
        </extensions>
      </trkpt>
      <trkpt lat="42.55781608633697032928466796875" lon="19.805929921567440032958984375">
        <ele>967.4000244140625</ele>
        <time>2026-06-18T07:04:31.000Z</time>
        <extensions>
          <ns3:TrackPointExtension>
            <ns3:atemp>19.0</ns3:atemp>
          </ns3:TrackPointExtension>
        </extensions>
      </trkpt>
      <trkpt lat="42.55781206302344799041748046875" lon="19.8059277422726154327392578125">
        <ele>967.4000244140625</ele>
        <time>2026-06-18T07:04:32.000Z</time>
        <extensions>
          <ns3:TrackPointExtension>
            <ns3:atemp>19.0</ns3:atemp>
          </ns3:TrackPointExtension>
        </extensions>
      </trkpt>
      <trkpt lat="42.55781206302344799041748046875" lon="19.80592765845358371734619140625">
        <ele>967.4000244140625</ele>
        <time>2026-06-18T07:04:33.000Z</time>
        <extensions>
          <ns3:TrackPointExtension>
            <ns3:atemp>19.0</ns3:atemp>
          </ns3:TrackPointExtension>
        </extensions>
      </trkpt>
      <trkpt lat="42.55781206302344799041748046875" lon="19.80592765845358371734619140625">
        <ele>967.4000244140625</ele>
        <time>2026-06-18T07:04:34.000Z</time>
        <extensions>
          <ns3:TrackPointExtension>
            <ns3:atemp>19.0</ns3:atemp>
          </ns3:TrackPointExtension>
        </extensions>
      </trkpt>
      <trkpt lat="42.55781206302344799041748046875" lon="19.80592765845358371734619140625">
        <ele>967</ele>
        <time>2026-06-18T07:04:35.000Z</time>
        <extensions>
          <ns3:TrackPointExtension>
            <ns3:atemp>19.0</ns3:atemp>
          </ns3:TrackPointExtension>
        </extensions>
      </trkpt>
      <trkpt lat="42.55781206302344799041748046875" lon="19.80592765845358371734619140625">
        <ele>966.79998779296875</ele>
        <time>2026-06-18T07:04:36.000Z</time>
        <extensions>
          <ns3:TrackPointExtension>
            <ns3:atemp>19.0</ns3:atemp>
          </ns3:TrackPointExtension>
        </extensions>
      </trkpt>
      <trkpt lat="42.55781206302344799041748046875" lon="19.80592765845358371734619140625">
        <ele>966.79998779296875</ele>
        <time>2026-06-18T07:04:37.000Z</time>
        <extensions>
          <ns3:TrackPointExtension>
            <ns3:atemp>19.0</ns3:atemp>
          </ns3:TrackPointExtension>
        </extensions>
      </trkpt>
      <trkpt lat="42.55781206302344799041748046875" lon="19.80592765845358371734619140625">
        <ele>966.5999755859375</ele>
        <time>2026-06-18T07:04:38.000Z</time>
        <extensions>
          <ns3:TrackPointExtension>
            <ns3:atemp>19.0</ns3:atemp>
          </ns3:TrackPointExtension>
        </extensions>
      </trkpt>
      <trkpt lat="42.55781206302344799041748046875" lon="19.80592765845358371734619140625">
        <ele>966.5999755859375</ele>
        <time>2026-06-18T07:04:39.000Z</time>
        <extensions>
          <ns3:TrackPointExtension>
            <ns3:atemp>19.0</ns3:atemp>
          </ns3:TrackPointExtension>
        </extensions>
      </trkpt>
      <trkpt lat="42.55781206302344799041748046875" lon="19.80592765845358371734619140625">
        <ele>966.5999755859375</ele>
        <time>2026-06-18T07:04:40.000Z</time>
        <extensions>
          <ns3:TrackPointExtension>
            <ns3:atemp>19.0</ns3:atemp>
          </ns3:TrackPointExtension>
        </extensions>
      </trkpt>
      <trkpt lat="42.55781206302344799041748046875" lon="19.80592765845358371734619140625">
        <ele>966.5999755859375</ele>
        <time>2026-06-18T07:04:41.000Z</time>
        <extensions>
          <ns3:TrackPointExtension>
            <ns3:atemp>19.0</ns3:atemp>
          </ns3:TrackPointExtension>
        </extensions>
      </trkpt>
      <trkpt lat="42.55781206302344799041748046875" lon="19.80592765845358371734619140625">
        <ele>966.5999755859375</ele>
        <time>2026-06-18T07:04:42.000Z</time>
        <extensions>
          <ns3:TrackPointExtension>
            <ns3:atemp>19.0</ns3:atemp>
          </ns3:TrackPointExtension>
        </extensions>
      </trkpt>
      <trkpt lat="42.55781206302344799041748046875" lon="19.80592765845358371734619140625">
        <ele>966.4000244140625</ele>
        <time>2026-06-18T07:04:43.000Z</time>
        <extensions>
          <ns3:TrackPointExtension>
            <ns3:atemp>19.0</ns3:atemp>
          </ns3:TrackPointExtension>
        </extensions>
      </trkpt>
      <trkpt lat="42.55781206302344799041748046875" lon="19.80592765845358371734619140625">
        <ele>966.4000244140625</ele>
        <time>2026-06-18T07:04:44.000Z</time>
        <extensions>
          <ns3:TrackPointExtension>
            <ns3:atemp>19.0</ns3:atemp>
          </ns3:TrackPointExtension>
        </extensions>
      </trkpt>
      <trkpt lat="42.55781206302344799041748046875" lon="19.80592765845358371734619140625">
        <ele>966.4000244140625</ele>
        <time>2026-06-18T07:04:45.000Z</time>
        <extensions>
          <ns3:TrackPointExtension>
            <ns3:atemp>19.0</ns3:atemp>
          </ns3:TrackPointExtension>
        </extensions>
      </trkpt>
      <trkpt lat="42.55781206302344799041748046875" lon="19.80592765845358371734619140625">
        <ele>966.4000244140625</ele>
        <time>2026-06-18T07:04:46.000Z</time>
        <extensions>
          <ns3:TrackPointExtension>
            <ns3:atemp>19.0</ns3:atemp>
          </ns3:TrackPointExtension>
        </extensions>
      </trkpt>
      <trkpt lat="42.55781206302344799041748046875" lon="19.80592765845358371734619140625">
        <ele>966.4000244140625</ele>
        <time>2026-06-18T07:04:47.000Z</time>
        <extensions>
          <ns3:TrackPointExtension>
            <ns3:atemp>19.0</ns3:atemp>
          </ns3:TrackPointExtension>
        </extensions>
      </trkpt>
      <trkpt lat="42.55781206302344799041748046875" lon="19.80592765845358371734619140625">
        <ele>966.4000244140625</ele>
        <time>2026-06-18T07:04:48.000Z</time>
        <extensions>
          <ns3:TrackPointExtension>
            <ns3:atemp>19.0</ns3:atemp>
          </ns3:TrackPointExtension>
        </extensions>
      </trkpt>
      <trkpt lat="42.55781206302344799041748046875" lon="19.80592765845358371734619140625">
        <ele>966.4000244140625</ele>
        <time>2026-06-18T07:04:49.000Z</time>
        <extensions>
          <ns3:TrackPointExtension>
            <ns3:atemp>19.0</ns3:atemp>
          </ns3:TrackPointExtension>
        </extensions>
      </trkpt>
      <trkpt lat="42.55781206302344799041748046875" lon="19.80592765845358371734619140625">
        <ele>966.4000244140625</ele>
        <time>2026-06-18T07:04:50.000Z</time>
        <extensions>
          <ns3:TrackPointExtension>
            <ns3:atemp>19.0</ns3:atemp>
          </ns3:TrackPointExtension>
        </extensions>
      </trkpt>
      <trkpt lat="42.55781206302344799041748046875" lon="19.80592765845358371734619140625">
        <ele>966.4000244140625</ele>
        <time>2026-06-18T07:04:51.000Z</time>
        <extensions>
          <ns3:TrackPointExtension>
            <ns3:atemp>19.0</ns3:atemp>
          </ns3:TrackPointExtension>
        </extensions>
      </trkpt>
      <trkpt lat="42.55781206302344799041748046875" lon="19.80592765845358371734619140625">
        <ele>966.4000244140625</ele>
        <time>2026-06-18T07:04:52.000Z</time>
        <extensions>
          <ns3:TrackPointExtension>
            <ns3:atemp>19.0</ns3:atemp>
          </ns3:TrackPointExtension>
        </extensions>
      </trkpt>
      <trkpt lat="42.55781206302344799041748046875" lon="19.80592765845358371734619140625">
        <ele>966.4000244140625</ele>
        <time>2026-06-18T07:04:53.000Z</time>
        <extensions>
          <ns3:TrackPointExtension>
            <ns3:atemp>19.0</ns3:atemp>
          </ns3:TrackPointExtension>
        </extensions>
      </trkpt>
      <trkpt lat="42.55781206302344799041748046875" lon="19.80592765845358371734619140625">
        <ele>966.4000244140625</ele>
        <time>2026-06-18T07:04:54.000Z</time>
        <extensions>
          <ns3:TrackPointExtension>
            <ns3:atemp>19.0</ns3:atemp>
          </ns3:TrackPointExtension>
        </extensions>
      </trkpt>
      <trkpt lat="42.55781206302344799041748046875" lon="19.80592765845358371734619140625">
        <ele>966.4000244140625</ele>
        <time>2026-06-18T07:04:55.000Z</time>
        <extensions>
          <ns3:TrackPointExtension>
            <ns3:atemp>19.0</ns3:atemp>
          </ns3:TrackPointExtension>
        </extensions>
      </trkpt>
      <trkpt lat="42.55781206302344799041748046875" lon="19.80592765845358371734619140625">
        <ele>966.4000244140625</ele>
        <time>2026-06-18T07:04:56.000Z</time>
        <extensions>
          <ns3:TrackPointExtension>
            <ns3:atemp>19.0</ns3:atemp>
          </ns3:TrackPointExtension>
        </extensions>
      </trkpt>
      <trkpt lat="42.55781206302344799041748046875" lon="19.80592765845358371734619140625">
        <ele>966.4000244140625</ele>
        <time>2026-06-18T07:04:57.000Z</time>
        <extensions>
          <ns3:TrackPointExtension>
            <ns3:atemp>19.0</ns3:atemp>
          </ns3:TrackPointExtension>
        </extensions>
      </trkpt>
      <trkpt lat="42.55781206302344799041748046875" lon="19.80592765845358371734619140625">
        <ele>966.4000244140625</ele>
        <time>2026-06-18T07:04:58.000Z</time>
        <extensions>
          <ns3:TrackPointExtension>
            <ns3:atemp>19.0</ns3:atemp>
          </ns3:TrackPointExtension>
        </extensions>
      </trkpt>
      <trkpt lat="42.55781206302344799041748046875" lon="19.80592765845358371734619140625">
        <ele>966.20001220703125</ele>
        <time>2026-06-18T07:04:59.000Z</time>
        <extensions>
          <ns3:TrackPointExtension>
            <ns3:atemp>19.0</ns3:atemp>
          </ns3:TrackPointExtension>
        </extensions>
      </trkpt>
      <trkpt lat="42.55781206302344799041748046875" lon="19.80592765845358371734619140625">
        <ele>966.20001220703125</ele>
        <time>2026-06-18T07:05:00.000Z</time>
        <extensions>
          <ns3:TrackPointExtension>
            <ns3:atemp>20.0</ns3:atemp>
          </ns3:TrackPointExtension>
        </extensions>
      </trkpt>
      <trkpt lat="42.55781206302344799041748046875" lon="19.80592765845358371734619140625">
        <ele>966.20001220703125</ele>
        <time>2026-06-18T07:05:01.000Z</time>
        <extensions>
          <ns3:TrackPointExtension>
            <ns3:atemp>20.0</ns3:atemp>
          </ns3:TrackPointExtension>
        </extensions>
      </trkpt>
      <trkpt lat="42.55781206302344799041748046875" lon="19.80592765845358371734619140625">
        <ele>966.20001220703125</ele>
        <time>2026-06-18T07:05:02.000Z</time>
        <extensions>
          <ns3:TrackPointExtension>
            <ns3:atemp>19.0</ns3:atemp>
          </ns3:TrackPointExtension>
        </extensions>
      </trkpt>
      <trkpt lat="42.55781206302344799041748046875" lon="19.80592765845358371734619140625">
        <ele>966.20001220703125</ele>
        <time>2026-06-18T07:05:03.000Z</time>
        <extensions>
          <ns3:TrackPointExtension>
            <ns3:atemp>19.0</ns3:atemp>
          </ns3:TrackPointExtension>
        </extensions>
      </trkpt>
      <trkpt lat="42.55781206302344799041748046875" lon="19.80592765845358371734619140625">
        <ele>966.20001220703125</ele>
        <time>2026-06-18T07:05:04.000Z</time>
        <extensions>
          <ns3:TrackPointExtension>
            <ns3:atemp>19.0</ns3:atemp>
          </ns3:TrackPointExtension>
        </extensions>
      </trkpt>
      <trkpt lat="42.55781206302344799041748046875" lon="19.80592765845358371734619140625">
        <ele>966.20001220703125</ele>
        <time>2026-06-18T07:05:05.000Z</time>
        <extensions>
          <ns3:TrackPointExtension>
            <ns3:atemp>19.0</ns3:atemp>
          </ns3:TrackPointExtension>
        </extensions>
      </trkpt>
      <trkpt lat="42.55781206302344799041748046875" lon="19.80592765845358371734619140625">
        <ele>966.20001220703125</ele>
        <time>2026-06-18T07:05:06.000Z</time>
        <extensions>
          <ns3:TrackPointExtension>
            <ns3:atemp>19.0</ns3:atemp>
          </ns3:TrackPointExtension>
        </extensions>
      </trkpt>
      <trkpt lat="42.55781206302344799041748046875" lon="19.80592765845358371734619140625">
        <ele>966.20001220703125</ele>
        <time>2026-06-18T07:05:07.000Z</time>
        <extensions>
          <ns3:TrackPointExtension>
            <ns3:atemp>19.0</ns3:atemp>
          </ns3:TrackPointExtension>
        </extensions>
      </trkpt>
      <trkpt lat="42.55781206302344799041748046875" lon="19.80592765845358371734619140625">
        <ele>966.20001220703125</ele>
        <time>2026-06-18T07:05:08.000Z</time>
        <extensions>
          <ns3:TrackPointExtension>
            <ns3:atemp>19.0</ns3:atemp>
          </ns3:TrackPointExtension>
        </extensions>
      </trkpt>
      <trkpt lat="42.55781206302344799041748046875" lon="19.80592765845358371734619140625">
        <ele>966.20001220703125</ele>
        <time>2026-06-18T07:05:09.000Z</time>
        <extensions>
          <ns3:TrackPointExtension>
            <ns3:atemp>19.0</ns3:atemp>
          </ns3:TrackPointExtension>
        </extensions>
      </trkpt>
      <trkpt lat="42.55781206302344799041748046875" lon="19.80592765845358371734619140625">
        <ele>966.20001220703125</ele>
        <time>2026-06-18T07:05:10.000Z</time>
        <extensions>
          <ns3:TrackPointExtension>
            <ns3:atemp>20.0</ns3:atemp>
          </ns3:TrackPointExtension>
        </extensions>
      </trkpt>
      <trkpt lat="42.55781206302344799041748046875" lon="19.80592765845358371734619140625">
        <ele>966.20001220703125</ele>
        <time>2026-06-18T07:05:11.000Z</time>
        <extensions>
          <ns3:TrackPointExtension>
            <ns3:atemp>20.0</ns3:atemp>
          </ns3:TrackPointExtension>
        </extensions>
      </trkpt>
      <trkpt lat="42.55781206302344799041748046875" lon="19.80592765845358371734619140625">
        <ele>966.20001220703125</ele>
        <time>2026-06-18T07:05:12.000Z</time>
        <extensions>
          <ns3:TrackPointExtension>
            <ns3:atemp>19.0</ns3:atemp>
          </ns3:TrackPointExtension>
        </extensions>
      </trkpt>
      <trkpt lat="42.55781206302344799041748046875" lon="19.80592765845358371734619140625">
        <ele>966.20001220703125</ele>
        <time>2026-06-18T07:05:13.000Z</time>
        <extensions>
          <ns3:TrackPointExtension>
            <ns3:atemp>19.0</ns3:atemp>
          </ns3:TrackPointExtension>
        </extensions>
      </trkpt>
      <trkpt lat="42.55781206302344799041748046875" lon="19.80592765845358371734619140625">
        <ele>966.20001220703125</ele>
        <time>2026-06-18T07:05:14.000Z</time>
        <extensions>
          <ns3:TrackPointExtension>
            <ns3:atemp>19.0</ns3:atemp>
          </ns3:TrackPointExtension>
        </extensions>
      </trkpt>
      <trkpt lat="42.55781206302344799041748046875" lon="19.80592765845358371734619140625">
        <ele>966.20001220703125</ele>
        <time>2026-06-18T07:05:15.000Z</time>
        <extensions>
          <ns3:TrackPointExtension>
            <ns3:atemp>20.0</ns3:atemp>
          </ns3:TrackPointExtension>
        </extensions>
      </trkpt>
      <trkpt lat="42.55781206302344799041748046875" lon="19.80592765845358371734619140625">
        <ele>966.20001220703125</ele>
        <time>2026-06-18T07:05:16.000Z</time>
        <extensions>
          <ns3:TrackPointExtension>
            <ns3:atemp>19.0</ns3:atemp>
          </ns3:TrackPointExtension>
        </extensions>
      </trkpt>
      <trkpt lat="42.55781206302344799041748046875" lon="19.80592765845358371734619140625">
        <ele>966.20001220703125</ele>
        <time>2026-06-18T07:05:17.000Z</time>
        <extensions>
          <ns3:TrackPointExtension>
            <ns3:atemp>19.0</ns3:atemp>
          </ns3:TrackPointExtension>
        </extensions>
      </trkpt>
      <trkpt lat="42.55781206302344799041748046875" lon="19.80592765845358371734619140625">
        <ele>966</ele>
        <time>2026-06-18T07:05:18.000Z</time>
        <extensions>
          <ns3:TrackPointExtension>
            <ns3:atemp>19.0</ns3:atemp>
          </ns3:TrackPointExtension>
        </extensions>
      </trkpt>
      <trkpt lat="42.55781206302344799041748046875" lon="19.80592765845358371734619140625">
        <ele>966</ele>
        <time>2026-06-18T07:05:19.000Z</time>
        <extensions>
          <ns3:TrackPointExtension>
            <ns3:atemp>20.0</ns3:atemp>
          </ns3:TrackPointExtension>
        </extensions>
      </trkpt>
      <trkpt lat="42.55781206302344799041748046875" lon="19.80592765845358371734619140625">
        <ele>966</ele>
        <time>2026-06-18T07:05:20.000Z</time>
        <extensions>
          <ns3:TrackPointExtension>
            <ns3:atemp>20.0</ns3:atemp>
          </ns3:TrackPointExtension>
        </extensions>
      </trkpt>
      <trkpt lat="42.55781206302344799041748046875" lon="19.80592765845358371734619140625">
        <ele>966</ele>
        <time>2026-06-18T07:05:21.000Z</time>
        <extensions>
          <ns3:TrackPointExtension>
            <ns3:atemp>20.0</ns3:atemp>
          </ns3:TrackPointExtension>
        </extensions>
      </trkpt>
      <trkpt lat="42.55781206302344799041748046875" lon="19.80592765845358371734619140625">
        <ele>966</ele>
        <time>2026-06-18T07:05:22.000Z</time>
        <extensions>
          <ns3:TrackPointExtension>
            <ns3:atemp>19.0</ns3:atemp>
          </ns3:TrackPointExtension>
        </extensions>
      </trkpt>
      <trkpt lat="42.55781206302344799041748046875" lon="19.80592765845358371734619140625">
        <ele>966</ele>
        <time>2026-06-18T07:05:23.000Z</time>
        <extensions>
          <ns3:TrackPointExtension>
            <ns3:atemp>19.0</ns3:atemp>
          </ns3:TrackPointExtension>
        </extensions>
      </trkpt>
      <trkpt lat="42.55781206302344799041748046875" lon="19.80592765845358371734619140625">
        <ele>966</ele>
        <time>2026-06-18T07:05:24.000Z</time>
        <extensions>
          <ns3:TrackPointExtension>
            <ns3:atemp>20.0</ns3:atemp>
          </ns3:TrackPointExtension>
        </extensions>
      </trkpt>
      <trkpt lat="42.55781206302344799041748046875" lon="19.80592765845358371734619140625">
        <ele>966</ele>
        <time>2026-06-18T07:05:25.000Z</time>
        <extensions>
          <ns3:TrackPointExtension>
            <ns3:atemp>20.0</ns3:atemp>
          </ns3:TrackPointExtension>
        </extensions>
      </trkpt>
      <trkpt lat="42.55781206302344799041748046875" lon="19.80592765845358371734619140625">
        <ele>966</ele>
        <time>2026-06-18T07:05:26.000Z</time>
        <extensions>
          <ns3:TrackPointExtension>
            <ns3:atemp>20.0</ns3:atemp>
          </ns3:TrackPointExtension>
        </extensions>
      </trkpt>
      <trkpt lat="42.55781206302344799041748046875" lon="19.80592765845358371734619140625">
        <ele>966</ele>
        <time>2026-06-18T07:05:27.000Z</time>
        <extensions>
          <ns3:TrackPointExtension>
            <ns3:atemp>20.0</ns3:atemp>
          </ns3:TrackPointExtension>
        </extensions>
      </trkpt>
      <trkpt lat="42.55781206302344799041748046875" lon="19.80592765845358371734619140625">
        <ele>966</ele>
        <time>2026-06-18T07:05:28.000Z</time>
        <extensions>
          <ns3:TrackPointExtension>
            <ns3:atemp>20.0</ns3:atemp>
          </ns3:TrackPointExtension>
        </extensions>
      </trkpt>
      <trkpt lat="42.55781206302344799041748046875" lon="19.80592765845358371734619140625">
        <ele>966</ele>
        <time>2026-06-18T07:05:29.000Z</time>
        <extensions>
          <ns3:TrackPointExtension>
            <ns3:atemp>20.0</ns3:atemp>
          </ns3:TrackPointExtension>
        </extensions>
      </trkpt>
      <trkpt lat="42.55781206302344799041748046875" lon="19.80592765845358371734619140625">
        <ele>966</ele>
        <time>2026-06-18T07:05:30.000Z</time>
        <extensions>
          <ns3:TrackPointExtension>
            <ns3:atemp>20.0</ns3:atemp>
          </ns3:TrackPointExtension>
        </extensions>
      </trkpt>
      <trkpt lat="42.55781206302344799041748046875" lon="19.80592765845358371734619140625">
        <ele>966</ele>
        <time>2026-06-18T07:05:31.000Z</time>
        <extensions>
          <ns3:TrackPointExtension>
            <ns3:atemp>20.0</ns3:atemp>
          </ns3:TrackPointExtension>
        </extensions>
      </trkpt>
      <trkpt lat="42.55781206302344799041748046875" lon="19.80592765845358371734619140625">
        <ele>966.20001220703125</ele>
        <time>2026-06-18T07:05:32.000Z</time>
        <extensions>
          <ns3:TrackPointExtension>
            <ns3:atemp>20.0</ns3:atemp>
          </ns3:TrackPointExtension>
        </extensions>
      </trkpt>
      <trkpt lat="42.55781206302344799041748046875" lon="19.80592765845358371734619140625">
        <ele>966.20001220703125</ele>
        <time>2026-06-18T07:05:33.000Z</time>
        <extensions>
          <ns3:TrackPointExtension>
            <ns3:atemp>20.0</ns3:atemp>
          </ns3:TrackPointExtension>
        </extensions>
      </trkpt>
      <trkpt lat="42.55781206302344799041748046875" lon="19.80592765845358371734619140625">
        <ele>966.20001220703125</ele>
        <time>2026-06-18T07:05:34.000Z</time>
        <extensions>
          <ns3:TrackPointExtension>
            <ns3:atemp>20.0</ns3:atemp>
          </ns3:TrackPointExtension>
        </extensions>
      </trkpt>
      <trkpt lat="42.55781206302344799041748046875" lon="19.80592765845358371734619140625">
        <ele>966.20001220703125</ele>
        <time>2026-06-18T07:05:35.000Z</time>
        <extensions>
          <ns3:TrackPointExtension>
            <ns3:atemp>20.0</ns3:atemp>
          </ns3:TrackPointExtension>
        </extensions>
      </trkpt>
      <trkpt lat="42.55781206302344799041748046875" lon="19.80592765845358371734619140625">
        <ele>966.20001220703125</ele>
        <time>2026-06-18T07:05:36.000Z</time>
        <extensions>
          <ns3:TrackPointExtension>
            <ns3:atemp>20.0</ns3:atemp>
          </ns3:TrackPointExtension>
        </extensions>
      </trkpt>
      <trkpt lat="42.55781206302344799041748046875" lon="19.80592765845358371734619140625">
        <ele>966.20001220703125</ele>
        <time>2026-06-18T07:05:37.000Z</time>
        <extensions>
          <ns3:TrackPointExtension>
            <ns3:atemp>20.0</ns3:atemp>
          </ns3:TrackPointExtension>
        </extensions>
      </trkpt>
      <trkpt lat="42.55781206302344799041748046875" lon="19.80592765845358371734619140625">
        <ele>966.20001220703125</ele>
        <time>2026-06-18T07:05:38.000Z</time>
        <extensions>
          <ns3:TrackPointExtension>
            <ns3:atemp>20.0</ns3:atemp>
          </ns3:TrackPointExtension>
        </extensions>
      </trkpt>
      <trkpt lat="42.55781206302344799041748046875" lon="19.80592765845358371734619140625">
        <ele>966.20001220703125</ele>
        <time>2026-06-18T07:05:39.000Z</time>
        <extensions>
          <ns3:TrackPointExtension>
            <ns3:atemp>20.0</ns3:atemp>
          </ns3:TrackPointExtension>
        </extensions>
      </trkpt>
      <trkpt lat="42.55781206302344799041748046875" lon="19.80592765845358371734619140625">
        <ele>966.20001220703125</ele>
        <time>2026-06-18T07:05:40.000Z</time>
        <extensions>
          <ns3:TrackPointExtension>
            <ns3:atemp>20.0</ns3:atemp>
          </ns3:TrackPointExtension>
        </extensions>
      </trkpt>
      <trkpt lat="42.55781206302344799041748046875" lon="19.80592765845358371734619140625">
        <ele>966.20001220703125</ele>
        <time>2026-06-18T07:05:41.000Z</time>
        <extensions>
          <ns3:TrackPointExtension>
            <ns3:atemp>20.0</ns3:atemp>
          </ns3:TrackPointExtension>
        </extensions>
      </trkpt>
      <trkpt lat="42.55781206302344799041748046875" lon="19.80592765845358371734619140625">
        <ele>966.20001220703125</ele>
        <time>2026-06-18T07:05:42.000Z</time>
        <extensions>
          <ns3:TrackPointExtension>
            <ns3:atemp>20.0</ns3:atemp>
          </ns3:TrackPointExtension>
        </extensions>
      </trkpt>
      <trkpt lat="42.55781206302344799041748046875" lon="19.80592765845358371734619140625">
        <ele>966.20001220703125</ele>
        <time>2026-06-18T07:05:43.000Z</time>
        <extensions>
          <ns3:TrackPointExtension>
            <ns3:atemp>20.0</ns3:atemp>
          </ns3:TrackPointExtension>
        </extensions>
      </trkpt>
      <trkpt lat="42.55781206302344799041748046875" lon="19.80592765845358371734619140625">
        <ele>966.20001220703125</ele>
        <time>2026-06-18T07:05:44.000Z</time>
        <extensions>
          <ns3:TrackPointExtension>
            <ns3:atemp>20.0</ns3:atemp>
          </ns3:TrackPointExtension>
        </extensions>
      </trkpt>
      <trkpt lat="42.55781206302344799041748046875" lon="19.80592765845358371734619140625">
        <ele>966.20001220703125</ele>
        <time>2026-06-18T07:05:45.000Z</time>
        <extensions>
          <ns3:TrackPointExtension>
            <ns3:atemp>20.0</ns3:atemp>
          </ns3:TrackPointExtension>
        </extensions>
      </trkpt>
      <trkpt lat="42.55781206302344799041748046875" lon="19.80592765845358371734619140625">
        <ele>966.20001220703125</ele>
        <time>2026-06-18T07:05:46.000Z</time>
        <extensions>
          <ns3:TrackPointExtension>
            <ns3:atemp>20.0</ns3:atemp>
          </ns3:TrackPointExtension>
        </extensions>
      </trkpt>
      <trkpt lat="42.55781206302344799041748046875" lon="19.80592765845358371734619140625">
        <ele>966.20001220703125</ele>
        <time>2026-06-18T07:05:47.000Z</time>
        <extensions>
          <ns3:TrackPointExtension>
            <ns3:atemp>20.0</ns3:atemp>
          </ns3:TrackPointExtension>
        </extensions>
      </trkpt>
      <trkpt lat="42.55781206302344799041748046875" lon="19.80592765845358371734619140625">
        <ele>966.20001220703125</ele>
        <time>2026-06-18T07:05:48.000Z</time>
        <extensions>
          <ns3:TrackPointExtension>
            <ns3:atemp>20.0</ns3:atemp>
          </ns3:TrackPointExtension>
        </extensions>
      </trkpt>
      <trkpt lat="42.55781206302344799041748046875" lon="19.80592765845358371734619140625">
        <ele>966.20001220703125</ele>
        <time>2026-06-18T07:05:49.000Z</time>
        <extensions>
          <ns3:TrackPointExtension>
            <ns3:atemp>20.0</ns3:atemp>
          </ns3:TrackPointExtension>
        </extensions>
      </trkpt>
      <trkpt lat="42.55781206302344799041748046875" lon="19.80592765845358371734619140625">
        <ele>966</ele>
        <time>2026-06-18T07:05:50.000Z</time>
        <extensions>
          <ns3:TrackPointExtension>
            <ns3:atemp>20.0</ns3:atemp>
          </ns3:TrackPointExtension>
        </extensions>
      </trkpt>
      <trkpt lat="42.55781206302344799041748046875" lon="19.80592765845358371734619140625">
        <ele>966</ele>
        <time>2026-06-18T07:05:51.000Z</time>
        <extensions>
          <ns3:TrackPointExtension>
            <ns3:atemp>20.0</ns3:atemp>
          </ns3:TrackPointExtension>
        </extensions>
      </trkpt>
      <trkpt lat="42.55781206302344799041748046875" lon="19.80592765845358371734619140625">
        <ele>966</ele>
        <time>2026-06-18T07:05:52.000Z</time>
        <extensions>
          <ns3:TrackPointExtension>
            <ns3:atemp>20.0</ns3:atemp>
          </ns3:TrackPointExtension>
        </extensions>
      </trkpt>
      <trkpt lat="42.55781206302344799041748046875" lon="19.80592765845358371734619140625">
        <ele>966</ele>
        <time>2026-06-18T07:05:53.000Z</time>
        <extensions>
          <ns3:TrackPointExtension>
            <ns3:atemp>20.0</ns3:atemp>
          </ns3:TrackPointExtension>
        </extensions>
      </trkpt>
      <trkpt lat="42.55781206302344799041748046875" lon="19.80592765845358371734619140625">
        <ele>966</ele>
        <time>2026-06-18T07:05:54.000Z</time>
        <extensions>
          <ns3:TrackPointExtension>
            <ns3:atemp>20.0</ns3:atemp>
          </ns3:TrackPointExtension>
        </extensions>
      </trkpt>
      <trkpt lat="42.55781206302344799041748046875" lon="19.80592765845358371734619140625">
        <ele>966</ele>
        <time>2026-06-18T07:05:55.000Z</time>
        <extensions>
          <ns3:TrackPointExtension>
            <ns3:atemp>20.0</ns3:atemp>
          </ns3:TrackPointExtension>
        </extensions>
      </trkpt>
      <trkpt lat="42.55781206302344799041748046875" lon="19.80592765845358371734619140625">
        <ele>966</ele>
        <time>2026-06-18T07:05:56.000Z</time>
        <extensions>
          <ns3:TrackPointExtension>
            <ns3:atemp>20.0</ns3:atemp>
          </ns3:TrackPointExtension>
        </extensions>
      </trkpt>
      <trkpt lat="42.55781206302344799041748046875" lon="19.80592765845358371734619140625">
        <ele>966</ele>
        <time>2026-06-18T07:05:57.000Z</time>
        <extensions>
          <ns3:TrackPointExtension>
            <ns3:atemp>20.0</ns3:atemp>
          </ns3:TrackPointExtension>
        </extensions>
      </trkpt>
      <trkpt lat="42.55781206302344799041748046875" lon="19.80592765845358371734619140625">
        <ele>966</ele>
        <time>2026-06-18T07:05:58.000Z</time>
        <extensions>
          <ns3:TrackPointExtension>
            <ns3:atemp>20.0</ns3:atemp>
          </ns3:TrackPointExtension>
        </extensions>
      </trkpt>
      <trkpt lat="42.55781206302344799041748046875" lon="19.80592765845358371734619140625">
        <ele>966</ele>
        <time>2026-06-18T07:05:59.000Z</time>
        <extensions>
          <ns3:TrackPointExtension>
            <ns3:atemp>20.0</ns3:atemp>
          </ns3:TrackPointExtension>
        </extensions>
      </trkpt>
      <trkpt lat="42.55781206302344799041748046875" lon="19.80592765845358371734619140625">
        <ele>966</ele>
        <time>2026-06-18T07:06:00.000Z</time>
        <extensions>
          <ns3:TrackPointExtension>
            <ns3:atemp>20.0</ns3:atemp>
          </ns3:TrackPointExtension>
        </extensions>
      </trkpt>
      <trkpt lat="42.55781206302344799041748046875" lon="19.80592765845358371734619140625">
        <ele>966</ele>
        <time>2026-06-18T07:06:01.000Z</time>
        <extensions>
          <ns3:TrackPointExtension>
            <ns3:atemp>20.0</ns3:atemp>
          </ns3:TrackPointExtension>
        </extensions>
      </trkpt>
      <trkpt lat="42.55781206302344799041748046875" lon="19.80592765845358371734619140625">
        <ele>966</ele>
        <time>2026-06-18T07:06:02.000Z</time>
        <extensions>
          <ns3:TrackPointExtension>
            <ns3:atemp>20.0</ns3:atemp>
          </ns3:TrackPointExtension>
        </extensions>
      </trkpt>
      <trkpt lat="42.55781206302344799041748046875" lon="19.80592765845358371734619140625">
        <ele>966</ele>
        <time>2026-06-18T07:06:03.000Z</time>
        <extensions>
          <ns3:TrackPointExtension>
            <ns3:atemp>20.0</ns3:atemp>
          </ns3:TrackPointExtension>
        </extensions>
      </trkpt>
      <trkpt lat="42.55781206302344799041748046875" lon="19.80592765845358371734619140625">
        <ele>966</ele>
        <time>2026-06-18T07:06:04.000Z</time>
        <extensions>
          <ns3:TrackPointExtension>
            <ns3:atemp>20.0</ns3:atemp>
          </ns3:TrackPointExtension>
        </extensions>
      </trkpt>
      <trkpt lat="42.55781206302344799041748046875" lon="19.80592765845358371734619140625">
        <ele>966</ele>
        <time>2026-06-18T07:06:05.000Z</time>
        <extensions>
          <ns3:TrackPointExtension>
            <ns3:atemp>20.0</ns3:atemp>
          </ns3:TrackPointExtension>
        </extensions>
      </trkpt>
      <trkpt lat="42.55781206302344799041748046875" lon="19.80592765845358371734619140625">
        <ele>966</ele>
        <time>2026-06-18T07:06:06.000Z</time>
        <extensions>
          <ns3:TrackPointExtension>
            <ns3:atemp>20.0</ns3:atemp>
          </ns3:TrackPointExtension>
        </extensions>
      </trkpt>
      <trkpt lat="42.55781206302344799041748046875" lon="19.80592765845358371734619140625">
        <ele>966</ele>
        <time>2026-06-18T07:06:07.000Z</time>
        <extensions>
          <ns3:TrackPointExtension>
            <ns3:atemp>20.0</ns3:atemp>
          </ns3:TrackPointExtension>
        </extensions>
      </trkpt>
      <trkpt lat="42.55781206302344799041748046875" lon="19.80592765845358371734619140625">
        <ele>966</ele>
        <time>2026-06-18T07:06:08.000Z</time>
        <extensions>
          <ns3:TrackPointExtension>
            <ns3:atemp>20.0</ns3:atemp>
          </ns3:TrackPointExtension>
        </extensions>
      </trkpt>
      <trkpt lat="42.55781206302344799041748046875" lon="19.80592765845358371734619140625">
        <ele>966.20001220703125</ele>
        <time>2026-06-18T07:06:09.000Z</time>
        <extensions>
          <ns3:TrackPointExtension>
            <ns3:atemp>20.0</ns3:atemp>
          </ns3:TrackPointExtension>
        </extensions>
      </trkpt>
      <trkpt lat="42.55781206302344799041748046875" lon="19.80592765845358371734619140625">
        <ele>966.20001220703125</ele>
        <time>2026-06-18T07:06:10.000Z</time>
        <extensions>
          <ns3:TrackPointExtension>
            <ns3:atemp>20.0</ns3:atemp>
          </ns3:TrackPointExtension>
        </extensions>
      </trkpt>
      <trkpt lat="42.55781206302344799041748046875" lon="19.80592765845358371734619140625">
        <ele>966.20001220703125</ele>
        <time>2026-06-18T07:06:11.000Z</time>
        <extensions>
          <ns3:TrackPointExtension>
            <ns3:atemp>20.0</ns3:atemp>
          </ns3:TrackPointExtension>
        </extensions>
      </trkpt>
      <trkpt lat="42.55781206302344799041748046875" lon="19.80592765845358371734619140625">
        <ele>966.20001220703125</ele>
        <time>2026-06-18T07:06:12.000Z</time>
        <extensions>
          <ns3:TrackPointExtension>
            <ns3:atemp>20.0</ns3:atemp>
          </ns3:TrackPointExtension>
        </extensions>
      </trkpt>
      <trkpt lat="42.55781206302344799041748046875" lon="19.80592765845358371734619140625">
        <ele>966.20001220703125</ele>
        <time>2026-06-18T07:06:13.000Z</time>
        <extensions>
          <ns3:TrackPointExtension>
            <ns3:atemp>20.0</ns3:atemp>
          </ns3:TrackPointExtension>
        </extensions>
      </trkpt>
      <trkpt lat="42.55781206302344799041748046875" lon="19.80592765845358371734619140625">
        <ele>966.20001220703125</ele>
        <time>2026-06-18T07:06:14.000Z</time>
        <extensions>
          <ns3:TrackPointExtension>
            <ns3:atemp>20.0</ns3:atemp>
          </ns3:TrackPointExtension>
        </extensions>
      </trkpt>
      <trkpt lat="42.55781206302344799041748046875" lon="19.80592765845358371734619140625">
        <ele>966.4000244140625</ele>
        <time>2026-06-18T07:06:15.000Z</time>
        <extensions>
          <ns3:TrackPointExtension>
            <ns3:atemp>20.0</ns3:atemp>
          </ns3:TrackPointExtension>
        </extensions>
      </trkpt>
      <trkpt lat="42.55781206302344799041748046875" lon="19.80592765845358371734619140625">
        <ele>966.4000244140625</ele>
        <time>2026-06-18T07:06:16.000Z</time>
        <extensions>
          <ns3:TrackPointExtension>
            <ns3:atemp>20.0</ns3:atemp>
          </ns3:TrackPointExtension>
        </extensions>
      </trkpt>
      <trkpt lat="42.55781206302344799041748046875" lon="19.80592765845358371734619140625">
        <ele>966.4000244140625</ele>
        <time>2026-06-18T07:06:17.000Z</time>
        <extensions>
          <ns3:TrackPointExtension>
            <ns3:atemp>20.0</ns3:atemp>
          </ns3:TrackPointExtension>
        </extensions>
      </trkpt>
      <trkpt lat="42.55781206302344799041748046875" lon="19.80592765845358371734619140625">
        <ele>966.4000244140625</ele>
        <time>2026-06-18T07:06:18.000Z</time>
        <extensions>
          <ns3:TrackPointExtension>
            <ns3:atemp>20.0</ns3:atemp>
          </ns3:TrackPointExtension>
        </extensions>
      </trkpt>
      <trkpt lat="42.55781206302344799041748046875" lon="19.80592765845358371734619140625">
        <ele>966.4000244140625</ele>
        <time>2026-06-18T07:06:19.000Z</time>
        <extensions>
          <ns3:TrackPointExtension>
            <ns3:atemp>20.0</ns3:atemp>
          </ns3:TrackPointExtension>
        </extensions>
      </trkpt>
      <trkpt lat="42.55781206302344799041748046875" lon="19.80592765845358371734619140625">
        <ele>966.4000244140625</ele>
        <time>2026-06-18T07:06:20.000Z</time>
        <extensions>
          <ns3:TrackPointExtension>
            <ns3:atemp>20.0</ns3:atemp>
          </ns3:TrackPointExtension>
        </extensions>
      </trkpt>
      <trkpt lat="42.55781206302344799041748046875" lon="19.80592765845358371734619140625">
        <ele>966.4000244140625</ele>
        <time>2026-06-18T07:06:21.000Z</time>
        <extensions>
          <ns3:TrackPointExtension>
            <ns3:atemp>20.0</ns3:atemp>
          </ns3:TrackPointExtension>
        </extensions>
      </trkpt>
      <trkpt lat="42.55781206302344799041748046875" lon="19.80592765845358371734619140625">
        <ele>966.4000244140625</ele>
        <time>2026-06-18T07:06:22.000Z</time>
        <extensions>
          <ns3:TrackPointExtension>
            <ns3:atemp>20.0</ns3:atemp>
          </ns3:TrackPointExtension>
        </extensions>
      </trkpt>
      <trkpt lat="42.55781206302344799041748046875" lon="19.80592765845358371734619140625">
        <ele>966.4000244140625</ele>
        <time>2026-06-18T07:06:23.000Z</time>
        <extensions>
          <ns3:TrackPointExtension>
            <ns3:atemp>20.0</ns3:atemp>
          </ns3:TrackPointExtension>
        </extensions>
      </trkpt>
      <trkpt lat="42.55781206302344799041748046875" lon="19.80592765845358371734619140625">
        <ele>966.4000244140625</ele>
        <time>2026-06-18T07:06:24.000Z</time>
        <extensions>
          <ns3:TrackPointExtension>
            <ns3:atemp>20.0</ns3:atemp>
          </ns3:TrackPointExtension>
        </extensions>
      </trkpt>
      <trkpt lat="42.55781206302344799041748046875" lon="19.80592765845358371734619140625">
        <ele>966.4000244140625</ele>
        <time>2026-06-18T07:06:25.000Z</time>
        <extensions>
          <ns3:TrackPointExtension>
            <ns3:atemp>20.0</ns3:atemp>
          </ns3:TrackPointExtension>
        </extensions>
      </trkpt>
      <trkpt lat="42.55781206302344799041748046875" lon="19.80592765845358371734619140625">
        <ele>966.4000244140625</ele>
        <time>2026-06-18T07:06:26.000Z</time>
        <extensions>
          <ns3:TrackPointExtension>
            <ns3:atemp>20.0</ns3:atemp>
          </ns3:TrackPointExtension>
        </extensions>
      </trkpt>
      <trkpt lat="42.55781206302344799041748046875" lon="19.80592765845358371734619140625">
        <ele>966.4000244140625</ele>
        <time>2026-06-18T07:06:27.000Z</time>
        <extensions>
          <ns3:TrackPointExtension>
            <ns3:atemp>20.0</ns3:atemp>
          </ns3:TrackPointExtension>
        </extensions>
      </trkpt>
      <trkpt lat="42.55781206302344799041748046875" lon="19.80592765845358371734619140625">
        <ele>966.4000244140625</ele>
        <time>2026-06-18T07:06:28.000Z</time>
        <extensions>
          <ns3:TrackPointExtension>
            <ns3:atemp>20.0</ns3:atemp>
          </ns3:TrackPointExtension>
        </extensions>
      </trkpt>
      <trkpt lat="42.55781206302344799041748046875" lon="19.80592765845358371734619140625">
        <ele>966.4000244140625</ele>
        <time>2026-06-18T07:06:29.000Z</time>
        <extensions>
          <ns3:TrackPointExtension>
            <ns3:atemp>20.0</ns3:atemp>
          </ns3:TrackPointExtension>
        </extensions>
      </trkpt>
      <trkpt lat="42.55781206302344799041748046875" lon="19.80592765845358371734619140625">
        <ele>966.4000244140625</ele>
        <time>2026-06-18T07:06:30.000Z</time>
        <extensions>
          <ns3:TrackPointExtension>
            <ns3:atemp>20.0</ns3:atemp>
          </ns3:TrackPointExtension>
        </extensions>
      </trkpt>
      <trkpt lat="42.55781206302344799041748046875" lon="19.80592765845358371734619140625">
        <ele>966.20001220703125</ele>
        <time>2026-06-18T07:06:31.000Z</time>
        <extensions>
          <ns3:TrackPointExtension>
            <ns3:atemp>20.0</ns3:atemp>
          </ns3:TrackPointExtension>
        </extensions>
      </trkpt>
      <trkpt lat="42.55781206302344799041748046875" lon="19.80592765845358371734619140625">
        <ele>966.20001220703125</ele>
        <time>2026-06-18T07:06:32.000Z</time>
        <extensions>
          <ns3:TrackPointExtension>
            <ns3:atemp>20.0</ns3:atemp>
          </ns3:TrackPointExtension>
        </extensions>
      </trkpt>
      <trkpt lat="42.55781206302344799041748046875" lon="19.80592765845358371734619140625">
        <ele>966.20001220703125</ele>
        <time>2026-06-18T07:06:33.000Z</time>
        <extensions>
          <ns3:TrackPointExtension>
            <ns3:atemp>20.0</ns3:atemp>
          </ns3:TrackPointExtension>
        </extensions>
      </trkpt>
      <trkpt lat="42.55781206302344799041748046875" lon="19.80592765845358371734619140625">
        <ele>966.20001220703125</ele>
        <time>2026-06-18T07:06:34.000Z</time>
        <extensions>
          <ns3:TrackPointExtension>
            <ns3:atemp>20.0</ns3:atemp>
          </ns3:TrackPointExtension>
        </extensions>
      </trkpt>
      <trkpt lat="42.55781206302344799041748046875" lon="19.80592765845358371734619140625">
        <ele>966.20001220703125</ele>
        <time>2026-06-18T07:06:35.000Z</time>
        <extensions>
          <ns3:TrackPointExtension>
            <ns3:atemp>20.0</ns3:atemp>
          </ns3:TrackPointExtension>
        </extensions>
      </trkpt>
      <trkpt lat="42.55781206302344799041748046875" lon="19.80592765845358371734619140625">
        <ele>966.20001220703125</ele>
        <time>2026-06-18T07:06:36.000Z</time>
        <extensions>
          <ns3:TrackPointExtension>
            <ns3:atemp>20.0</ns3:atemp>
          </ns3:TrackPointExtension>
        </extensions>
      </trkpt>
      <trkpt lat="42.55781206302344799041748046875" lon="19.80592765845358371734619140625">
        <ele>966.20001220703125</ele>
        <time>2026-06-18T07:06:37.000Z</time>
        <extensions>
          <ns3:TrackPointExtension>
            <ns3:atemp>20.0</ns3:atemp>
          </ns3:TrackPointExtension>
        </extensions>
      </trkpt>
      <trkpt lat="42.55781206302344799041748046875" lon="19.80592765845358371734619140625">
        <ele>966.20001220703125</ele>
        <time>2026-06-18T07:06:38.000Z</time>
        <extensions>
          <ns3:TrackPointExtension>
            <ns3:atemp>20.0</ns3:atemp>
          </ns3:TrackPointExtension>
        </extensions>
      </trkpt>
      <trkpt lat="42.55781206302344799041748046875" lon="19.80592765845358371734619140625">
        <ele>966.20001220703125</ele>
        <time>2026-06-18T07:06:39.000Z</time>
        <extensions>
          <ns3:TrackPointExtension>
            <ns3:atemp>20.0</ns3:atemp>
          </ns3:TrackPointExtension>
        </extensions>
      </trkpt>
      <trkpt lat="42.55781206302344799041748046875" lon="19.80592765845358371734619140625">
        <ele>966.20001220703125</ele>
        <time>2026-06-18T07:06:40.000Z</time>
        <extensions>
          <ns3:TrackPointExtension>
            <ns3:atemp>20.0</ns3:atemp>
          </ns3:TrackPointExtension>
        </extensions>
      </trkpt>
      <trkpt lat="42.55781206302344799041748046875" lon="19.80592765845358371734619140625">
        <ele>966.20001220703125</ele>
        <time>2026-06-18T07:06:41.000Z</time>
        <extensions>
          <ns3:TrackPointExtension>
            <ns3:atemp>20.0</ns3:atemp>
          </ns3:TrackPointExtension>
        </extensions>
      </trkpt>
      <trkpt lat="42.55781206302344799041748046875" lon="19.80592765845358371734619140625">
        <ele>966.20001220703125</ele>
        <time>2026-06-18T07:06:42.000Z</time>
        <extensions>
          <ns3:TrackPointExtension>
            <ns3:atemp>20.0</ns3:atemp>
          </ns3:TrackPointExtension>
        </extensions>
      </trkpt>
      <trkpt lat="42.55781206302344799041748046875" lon="19.80592765845358371734619140625">
        <ele>966.20001220703125</ele>
        <time>2026-06-18T07:06:43.000Z</time>
        <extensions>
          <ns3:TrackPointExtension>
            <ns3:atemp>20.0</ns3:atemp>
          </ns3:TrackPointExtension>
        </extensions>
      </trkpt>
      <trkpt lat="42.55781206302344799041748046875" lon="19.80592765845358371734619140625">
        <ele>966.20001220703125</ele>
        <time>2026-06-18T07:06:44.000Z</time>
        <extensions>
          <ns3:TrackPointExtension>
            <ns3:atemp>20.0</ns3:atemp>
          </ns3:TrackPointExtension>
        </extensions>
      </trkpt>
      <trkpt lat="42.55781206302344799041748046875" lon="19.80592765845358371734619140625">
        <ele>966.20001220703125</ele>
        <time>2026-06-18T07:06:45.000Z</time>
        <extensions>
          <ns3:TrackPointExtension>
            <ns3:atemp>20.0</ns3:atemp>
          </ns3:TrackPointExtension>
        </extensions>
      </trkpt>
      <trkpt lat="42.55781206302344799041748046875" lon="19.80592765845358371734619140625">
        <ele>966.20001220703125</ele>
        <time>2026-06-18T07:06:46.000Z</time>
        <extensions>
          <ns3:TrackPointExtension>
            <ns3:atemp>20.0</ns3:atemp>
          </ns3:TrackPointExtension>
        </extensions>
      </trkpt>
      <trkpt lat="42.55781206302344799041748046875" lon="19.80592765845358371734619140625">
        <ele>966.20001220703125</ele>
        <time>2026-06-18T07:06:47.000Z</time>
        <extensions>
          <ns3:TrackPointExtension>
            <ns3:atemp>20.0</ns3:atemp>
          </ns3:TrackPointExtension>
        </extensions>
      </trkpt>
      <trkpt lat="42.55781206302344799041748046875" lon="19.80592765845358371734619140625">
        <ele>966.20001220703125</ele>
        <time>2026-06-18T07:06:48.000Z</time>
        <extensions>
          <ns3:TrackPointExtension>
            <ns3:atemp>20.0</ns3:atemp>
          </ns3:TrackPointExtension>
        </extensions>
      </trkpt>
      <trkpt lat="42.55781206302344799041748046875" lon="19.80592765845358371734619140625">
        <ele>966.20001220703125</ele>
        <time>2026-06-18T07:06:49.000Z</time>
        <extensions>
          <ns3:TrackPointExtension>
            <ns3:atemp>20.0</ns3:atemp>
          </ns3:TrackPointExtension>
        </extensions>
      </trkpt>
      <trkpt lat="42.55781206302344799041748046875" lon="19.80592765845358371734619140625">
        <ele>966.20001220703125</ele>
        <time>2026-06-18T07:06:50.000Z</time>
        <extensions>
          <ns3:TrackPointExtension>
            <ns3:atemp>20.0</ns3:atemp>
          </ns3:TrackPointExtension>
        </extensions>
      </trkpt>
      <trkpt lat="42.55781206302344799041748046875" lon="19.80592765845358371734619140625">
        <ele>966.20001220703125</ele>
        <time>2026-06-18T07:06:51.000Z</time>
        <extensions>
          <ns3:TrackPointExtension>
            <ns3:atemp>20.0</ns3:atemp>
          </ns3:TrackPointExtension>
        </extensions>
      </trkpt>
      <trkpt lat="42.55781206302344799041748046875" lon="19.80592765845358371734619140625">
        <ele>966.20001220703125</ele>
        <time>2026-06-18T07:06:52.000Z</time>
        <extensions>
          <ns3:TrackPointExtension>
            <ns3:atemp>20.0</ns3:atemp>
          </ns3:TrackPointExtension>
        </extensions>
      </trkpt>
      <trkpt lat="42.55781508050858974456787109375" lon="19.80592598207294940948486328125">
        <ele>966.20001220703125</ele>
        <time>2026-06-18T07:06:53.000Z</time>
        <extensions>
          <ns3:TrackPointExtension>
            <ns3:atemp>20.0</ns3:atemp>
          </ns3:TrackPointExtension>
        </extensions>
      </trkpt>
      <trkpt lat="42.5578277371823787689208984375" lon="19.80592422187328338623046875">
        <ele>966.20001220703125</ele>
        <time>2026-06-18T07:06:54.000Z</time>
        <extensions>
          <ns3:TrackPointExtension>
            <ns3:atemp>20.0</ns3:atemp>
          </ns3:TrackPointExtension>
        </extensions>
      </trkpt>
      <trkpt lat="42.557827569544315338134765625" lon="19.80592430569231510162353515625">
        <ele>966.20001220703125</ele>
        <time>2026-06-18T07:06:55.000Z</time>
        <extensions>
          <ns3:TrackPointExtension>
            <ns3:atemp>20.0</ns3:atemp>
          </ns3:TrackPointExtension>
        </extensions>
      </trkpt>
      <trkpt lat="42.55782748572528362274169921875" lon="19.8059243895113468170166015625">
        <ele>966.20001220703125</ele>
        <time>2026-06-18T07:06:56.000Z</time>
        <extensions>
          <ns3:TrackPointExtension>
            <ns3:atemp>20.0</ns3:atemp>
          </ns3:TrackPointExtension>
        </extensions>
      </trkpt>
      <trkpt lat="42.55782748572528362274169921875" lon="19.8059243895113468170166015625">
        <ele>966.20001220703125</ele>
        <time>2026-06-18T07:06:57.000Z</time>
        <extensions>
          <ns3:TrackPointExtension>
            <ns3:atemp>20.0</ns3:atemp>
          </ns3:TrackPointExtension>
        </extensions>
      </trkpt>
      <trkpt lat="42.55782748572528362274169921875" lon="19.8059243895113468170166015625">
        <ele>966.20001220703125</ele>
        <time>2026-06-18T07:06:58.000Z</time>
        <extensions>
          <ns3:TrackPointExtension>
            <ns3:atemp>20.0</ns3:atemp>
          </ns3:TrackPointExtension>
        </extensions>
      </trkpt>
      <trkpt lat="42.55782748572528362274169921875" lon="19.8059243895113468170166015625">
        <ele>966.20001220703125</ele>
        <time>2026-06-18T07:06:59.000Z</time>
        <extensions>
          <ns3:TrackPointExtension>
            <ns3:atemp>20.0</ns3:atemp>
          </ns3:TrackPointExtension>
        </extensions>
      </trkpt>
      <trkpt lat="42.55782748572528362274169921875" lon="19.8059243895113468170166015625">
        <ele>966.20001220703125</ele>
        <time>2026-06-18T07:07:00.000Z</time>
        <extensions>
          <ns3:TrackPointExtension>
            <ns3:atemp>20.0</ns3:atemp>
          </ns3:TrackPointExtension>
        </extensions>
      </trkpt>
      <trkpt lat="42.55782748572528362274169921875" lon="19.8059243895113468170166015625">
        <ele>966.20001220703125</ele>
        <time>2026-06-18T07:07:01.000Z</time>
        <extensions>
          <ns3:TrackPointExtension>
            <ns3:atemp>20.0</ns3:atemp>
          </ns3:TrackPointExtension>
        </extensions>
      </trkpt>
      <trkpt lat="42.55782748572528362274169921875" lon="19.8059243895113468170166015625">
        <ele>966.20001220703125</ele>
        <time>2026-06-18T07:07:02.000Z</time>
        <extensions>
          <ns3:TrackPointExtension>
            <ns3:atemp>20.0</ns3:atemp>
          </ns3:TrackPointExtension>
        </extensions>
      </trkpt>
      <trkpt lat="42.55782748572528362274169921875" lon="19.8059243895113468170166015625">
        <ele>966.20001220703125</ele>
        <time>2026-06-18T07:07:03.000Z</time>
        <extensions>
          <ns3:TrackPointExtension>
            <ns3:atemp>20.0</ns3:atemp>
          </ns3:TrackPointExtension>
        </extensions>
      </trkpt>
      <trkpt lat="42.55782748572528362274169921875" lon="19.8059243895113468170166015625">
        <ele>966.20001220703125</ele>
        <time>2026-06-18T07:07:04.000Z</time>
        <extensions>
          <ns3:TrackPointExtension>
            <ns3:atemp>20.0</ns3:atemp>
          </ns3:TrackPointExtension>
        </extensions>
      </trkpt>
      <trkpt lat="42.55782748572528362274169921875" lon="19.8059243895113468170166015625">
        <ele>966.20001220703125</ele>
        <time>2026-06-18T07:07:05.000Z</time>
        <extensions>
          <ns3:TrackPointExtension>
            <ns3:atemp>20.0</ns3:atemp>
          </ns3:TrackPointExtension>
        </extensions>
      </trkpt>
      <trkpt lat="42.55782748572528362274169921875" lon="19.8059243895113468170166015625">
        <ele>966.20001220703125</ele>
        <time>2026-06-18T07:07:06.000Z</time>
        <extensions>
          <ns3:TrackPointExtension>
            <ns3:atemp>20.0</ns3:atemp>
          </ns3:TrackPointExtension>
        </extensions>
      </trkpt>
      <trkpt lat="42.55782748572528362274169921875" lon="19.8059243895113468170166015625">
        <ele>966.20001220703125</ele>
        <time>2026-06-18T07:07:07.000Z</time>
        <extensions>
          <ns3:TrackPointExtension>
            <ns3:atemp>20.0</ns3:atemp>
          </ns3:TrackPointExtension>
        </extensions>
      </trkpt>
      <trkpt lat="42.55782748572528362274169921875" lon="19.8059243895113468170166015625">
        <ele>966.20001220703125</ele>
        <time>2026-06-18T07:07:08.000Z</time>
        <extensions>
          <ns3:TrackPointExtension>
            <ns3:atemp>20.0</ns3:atemp>
          </ns3:TrackPointExtension>
        </extensions>
      </trkpt>
      <trkpt lat="42.55782748572528362274169921875" lon="19.8059243895113468170166015625">
        <ele>966.20001220703125</ele>
        <time>2026-06-18T07:07:09.000Z</time>
        <extensions>
          <ns3:TrackPointExtension>
            <ns3:atemp>20.0</ns3:atemp>
          </ns3:TrackPointExtension>
        </extensions>
      </trkpt>
      <trkpt lat="42.55782748572528362274169921875" lon="19.8059243895113468170166015625">
        <ele>966.20001220703125</ele>
        <time>2026-06-18T07:07:10.000Z</time>
        <extensions>
          <ns3:TrackPointExtension>
            <ns3:atemp>20.0</ns3:atemp>
          </ns3:TrackPointExtension>
        </extensions>
      </trkpt>
      <trkpt lat="42.55782748572528362274169921875" lon="19.8059243895113468170166015625">
        <ele>966.20001220703125</ele>
        <time>2026-06-18T07:07:11.000Z</time>
        <extensions>
          <ns3:TrackPointExtension>
            <ns3:atemp>20.0</ns3:atemp>
          </ns3:TrackPointExtension>
        </extensions>
      </trkpt>
      <trkpt lat="42.55782748572528362274169921875" lon="19.8059243895113468170166015625">
        <ele>966.20001220703125</ele>
        <time>2026-06-18T07:07:12.000Z</time>
        <extensions>
          <ns3:TrackPointExtension>
            <ns3:atemp>20.0</ns3:atemp>
          </ns3:TrackPointExtension>
        </extensions>
      </trkpt>
      <trkpt lat="42.55782748572528362274169921875" lon="19.8059243895113468170166015625">
        <ele>966.20001220703125</ele>
        <time>2026-06-18T07:07:13.000Z</time>
        <extensions>
          <ns3:TrackPointExtension>
            <ns3:atemp>20.0</ns3:atemp>
          </ns3:TrackPointExtension>
        </extensions>
      </trkpt>
      <trkpt lat="42.55782748572528362274169921875" lon="19.8059243895113468170166015625">
        <ele>966.20001220703125</ele>
        <time>2026-06-18T07:07:14.000Z</time>
        <extensions>
          <ns3:TrackPointExtension>
            <ns3:atemp>20.0</ns3:atemp>
          </ns3:TrackPointExtension>
        </extensions>
      </trkpt>
      <trkpt lat="42.55782748572528362274169921875" lon="19.8059243895113468170166015625">
        <ele>966.20001220703125</ele>
        <time>2026-06-18T07:07:15.000Z</time>
        <extensions>
          <ns3:TrackPointExtension>
            <ns3:atemp>20.0</ns3:atemp>
          </ns3:TrackPointExtension>
        </extensions>
      </trkpt>
      <trkpt lat="42.55782748572528362274169921875" lon="19.8059243895113468170166015625">
        <ele>966.20001220703125</ele>
        <time>2026-06-18T07:07:16.000Z</time>
        <extensions>
          <ns3:TrackPointExtension>
            <ns3:atemp>20.0</ns3:atemp>
          </ns3:TrackPointExtension>
        </extensions>
      </trkpt>
      <trkpt lat="42.55782748572528362274169921875" lon="19.8059243895113468170166015625">
        <ele>966.20001220703125</ele>
        <time>2026-06-18T07:07:17.000Z</time>
        <extensions>
          <ns3:TrackPointExtension>
            <ns3:atemp>20.0</ns3:atemp>
          </ns3:TrackPointExtension>
        </extensions>
      </trkpt>
      <trkpt lat="42.55782748572528362274169921875" lon="19.8059243895113468170166015625">
        <ele>966.20001220703125</ele>
        <time>2026-06-18T07:07:18.000Z</time>
        <extensions>
          <ns3:TrackPointExtension>
            <ns3:atemp>20.0</ns3:atemp>
          </ns3:TrackPointExtension>
        </extensions>
      </trkpt>
      <trkpt lat="42.55782748572528362274169921875" lon="19.8059243895113468170166015625">
        <ele>966.20001220703125</ele>
        <time>2026-06-18T07:07:19.000Z</time>
        <extensions>
          <ns3:TrackPointExtension>
            <ns3:atemp>20.0</ns3:atemp>
          </ns3:TrackPointExtension>
        </extensions>
      </trkpt>
      <trkpt lat="42.55782748572528362274169921875" lon="19.8059243895113468170166015625">
        <ele>966.20001220703125</ele>
        <time>2026-06-18T07:07:20.000Z</time>
        <extensions>
          <ns3:TrackPointExtension>
            <ns3:atemp>20.0</ns3:atemp>
          </ns3:TrackPointExtension>
        </extensions>
      </trkpt>
      <trkpt lat="42.55782681517302989959716796875" lon="19.80592397041618824005126953125">
        <ele>966.20001220703125</ele>
        <time>2026-06-18T07:07:21.000Z</time>
        <extensions>
          <ns3:TrackPointExtension>
            <ns3:atemp>20.0</ns3:atemp>
          </ns3:TrackPointExtension>
        </extensions>
      </trkpt>
      <trkpt lat="42.5578227080404758453369140625" lon="19.805919863283634185791015625">
        <ele>966.20001220703125</ele>
        <time>2026-06-18T07:07:22.000Z</time>
        <extensions>
          <ns3:TrackPointExtension>
            <ns3:atemp>20.0</ns3:atemp>
          </ns3:TrackPointExtension>
        </extensions>
      </trkpt>
      <trkpt lat="42.5578178465366363525390625" lon="19.805914498865604400634765625">
        <ele>966.20001220703125</ele>
        <time>2026-06-18T07:07:23.000Z</time>
        <extensions>
          <ns3:TrackPointExtension>
            <ns3:atemp>20.0</ns3:atemp>
          </ns3:TrackPointExtension>
        </extensions>
      </trkpt>
      <trkpt lat="42.5578143261373043060302734375" lon="19.80591081082820892333984375">
        <ele>966.20001220703125</ele>
        <time>2026-06-18T07:07:24.000Z</time>
        <extensions>
          <ns3:TrackPointExtension>
            <ns3:atemp>20.0</ns3:atemp>
          </ns3:TrackPointExtension>
        </extensions>
      </trkpt>
      <trkpt lat="42.5578136555850505828857421875" lon="19.80591122992336750030517578125">
        <ele>966.20001220703125</ele>
        <time>2026-06-18T07:07:25.000Z</time>
        <extensions>
          <ns3:TrackPointExtension>
            <ns3:atemp>20.0</ns3:atemp>
          </ns3:TrackPointExtension>
        </extensions>
      </trkpt>
      <trkpt lat="42.55781373940408229827880859375" lon="19.80591122992336750030517578125">
        <ele>966.20001220703125</ele>
        <time>2026-06-18T07:07:26.000Z</time>
        <extensions>
          <ns3:TrackPointExtension>
            <ns3:atemp>20.0</ns3:atemp>
          </ns3:TrackPointExtension>
        </extensions>
      </trkpt>
      <trkpt lat="42.55781373940408229827880859375" lon="19.80591122992336750030517578125">
        <ele>966.20001220703125</ele>
        <time>2026-06-18T07:07:27.000Z</time>
        <extensions>
          <ns3:TrackPointExtension>
            <ns3:atemp>20.0</ns3:atemp>
          </ns3:TrackPointExtension>
        </extensions>
      </trkpt>
      <trkpt lat="42.55781373940408229827880859375" lon="19.80591122992336750030517578125">
        <ele>966.20001220703125</ele>
        <time>2026-06-18T07:07:28.000Z</time>
        <extensions>
          <ns3:TrackPointExtension>
            <ns3:atemp>20.0</ns3:atemp>
          </ns3:TrackPointExtension>
        </extensions>
      </trkpt>
      <trkpt lat="42.55781373940408229827880859375" lon="19.80591122992336750030517578125">
        <ele>966.20001220703125</ele>
        <time>2026-06-18T07:07:29.000Z</time>
        <extensions>
          <ns3:TrackPointExtension>
            <ns3:atemp>20.0</ns3:atemp>
          </ns3:TrackPointExtension>
        </extensions>
      </trkpt>
      <trkpt lat="42.55781373940408229827880859375" lon="19.80591122992336750030517578125">
        <ele>966.20001220703125</ele>
        <time>2026-06-18T07:07:30.000Z</time>
        <extensions>
          <ns3:TrackPointExtension>
            <ns3:atemp>20.0</ns3:atemp>
          </ns3:TrackPointExtension>
        </extensions>
      </trkpt>
      <trkpt lat="42.55781373940408229827880859375" lon="19.80591122992336750030517578125">
        <ele>966.20001220703125</ele>
        <time>2026-06-18T07:07:31.000Z</time>
        <extensions>
          <ns3:TrackPointExtension>
            <ns3:atemp>20.0</ns3:atemp>
          </ns3:TrackPointExtension>
        </extensions>
      </trkpt>
      <trkpt lat="42.55781373940408229827880859375" lon="19.80591122992336750030517578125">
        <ele>966.20001220703125</ele>
        <time>2026-06-18T07:07:32.000Z</time>
        <extensions>
          <ns3:TrackPointExtension>
            <ns3:atemp>20.0</ns3:atemp>
          </ns3:TrackPointExtension>
        </extensions>
      </trkpt>
      <trkpt lat="42.5578143261373043060302734375" lon="19.80591122992336750030517578125">
        <ele>966.20001220703125</ele>
        <time>2026-06-18T07:07:33.000Z</time>
        <extensions>
          <ns3:TrackPointExtension>
            <ns3:atemp>20.0</ns3:atemp>
          </ns3:TrackPointExtension>
        </extensions>
      </trkpt>
      <trkpt lat="42.5578153319656848907470703125" lon="19.80590553022921085357666015625">
        <ele>966.20001220703125</ele>
        <time>2026-06-18T07:07:34.000Z</time>
        <extensions>
          <ns3:TrackPointExtension>
            <ns3:atemp>20.0</ns3:atemp>
          </ns3:TrackPointExtension>
        </extensions>
      </trkpt>
      <trkpt lat="42.557813487946987152099609375" lon="19.80589664541184902191162109375">
        <ele>966.20001220703125</ele>
        <time>2026-06-18T07:07:35.000Z</time>
        <extensions>
          <ns3:TrackPointExtension>
            <ns3:atemp>20.0</ns3:atemp>
          </ns3:TrackPointExtension>
        </extensions>
      </trkpt>
      <trkpt lat="42.557810135185718536376953125" lon="19.805883653461933135986328125">
        <ele>966.20001220703125</ele>
        <time>2026-06-18T07:07:36.000Z</time>
        <extensions>
          <ns3:TrackPointExtension>
            <ns3:atemp>20.0</ns3:atemp>
          </ns3:TrackPointExtension>
        </extensions>
      </trkpt>
      <trkpt lat="42.55780535750091075897216796875" lon="19.80587267316877841949462890625">
        <ele>966.20001220703125</ele>
        <time>2026-06-18T07:07:37.000Z</time>
        <extensions>
          <ns3:TrackPointExtension>
            <ns3:atemp>20.0</ns3:atemp>
          </ns3:TrackPointExtension>
        </extensions>
      </trkpt>
      <trkpt lat="42.557803094387054443359375" lon="19.80586378835141658782958984375">
        <ele>966.20001220703125</ele>
        <time>2026-06-18T07:07:38.000Z</time>
        <extensions>
          <ns3:TrackPointExtension>
            <ns3:atemp>20.0</ns3:atemp>
          </ns3:TrackPointExtension>
        </extensions>
      </trkpt>
      <trkpt lat="42.55779932253062725067138671875" lon="19.80585582554340362548828125">
        <ele>966.4000244140625</ele>
        <time>2026-06-18T07:07:39.000Z</time>
        <extensions>
          <ns3:TrackPointExtension>
            <ns3:atemp>20.0</ns3:atemp>
          </ns3:TrackPointExtension>
        </extensions>
      </trkpt>
      <trkpt lat="42.55779840052127838134765625" lon="19.8058492876589298248291015625">
        <ele>966.4000244140625</ele>
        <time>2026-06-18T07:07:40.000Z</time>
        <extensions>
          <ns3:TrackPointExtension>
            <ns3:atemp>20.0</ns3:atemp>
          </ns3:TrackPointExtension>
        </extensions>
      </trkpt>
      <trkpt lat="42.557798735797405242919921875" lon="19.8058452643454074859619140625">
        <ele>966.4000244140625</ele>
        <time>2026-06-18T07:07:41.000Z</time>
        <extensions>
          <ns3:TrackPointExtension>
            <ns3:atemp>20.0</ns3:atemp>
          </ns3:TrackPointExtension>
        </extensions>
      </trkpt>
      <trkpt lat="42.557798735797405242919921875" lon="19.80584534816443920135498046875">
        <ele>966.4000244140625</ele>
        <time>2026-06-18T07:07:42.000Z</time>
        <extensions>
          <ns3:TrackPointExtension>
            <ns3:atemp>20.0</ns3:atemp>
          </ns3:TrackPointExtension>
        </extensions>
      </trkpt>
      <trkpt lat="42.557798735797405242919921875" lon="19.80584534816443920135498046875">
        <ele>966.4000244140625</ele>
        <time>2026-06-18T07:07:43.000Z</time>
        <extensions>
          <ns3:TrackPointExtension>
            <ns3:atemp>20.0</ns3:atemp>
          </ns3:TrackPointExtension>
        </extensions>
      </trkpt>
      <trkpt lat="42.557798735797405242919921875" lon="19.80584534816443920135498046875">
        <ele>966.5999755859375</ele>
        <time>2026-06-18T07:07:44.000Z</time>
        <extensions>
          <ns3:TrackPointExtension>
            <ns3:atemp>20.0</ns3:atemp>
          </ns3:TrackPointExtension>
        </extensions>
      </trkpt>
      <trkpt lat="42.557798735797405242919921875" lon="19.80584534816443920135498046875">
        <ele>966.5999755859375</ele>
        <time>2026-06-18T07:07:45.000Z</time>
        <extensions>
          <ns3:TrackPointExtension>
            <ns3:atemp>20.0</ns3:atemp>
          </ns3:TrackPointExtension>
        </extensions>
      </trkpt>
      <trkpt lat="42.557798735797405242919921875" lon="19.80584534816443920135498046875">
        <ele>966.5999755859375</ele>
        <time>2026-06-18T07:07:46.000Z</time>
        <extensions>
          <ns3:TrackPointExtension>
            <ns3:atemp>20.0</ns3:atemp>
          </ns3:TrackPointExtension>
        </extensions>
      </trkpt>
      <trkpt lat="42.557798735797405242919921875" lon="19.80584534816443920135498046875">
        <ele>966.79998779296875</ele>
        <time>2026-06-18T07:07:47.000Z</time>
        <extensions>
          <ns3:TrackPointExtension>
            <ns3:atemp>20.0</ns3:atemp>
          </ns3:TrackPointExtension>
        </extensions>
      </trkpt>
      <trkpt lat="42.557798735797405242919921875" lon="19.80584534816443920135498046875">
        <ele>966.79998779296875</ele>
        <time>2026-06-18T07:07:48.000Z</time>
        <extensions>
          <ns3:TrackPointExtension>
            <ns3:atemp>20.0</ns3:atemp>
          </ns3:TrackPointExtension>
        </extensions>
      </trkpt>
      <trkpt lat="42.557798735797405242919921875" lon="19.80584534816443920135498046875">
        <ele>966.5999755859375</ele>
        <time>2026-06-18T07:07:49.000Z</time>
        <extensions>
          <ns3:TrackPointExtension>
            <ns3:atemp>20.0</ns3:atemp>
          </ns3:TrackPointExtension>
        </extensions>
      </trkpt>
      <trkpt lat="42.557798735797405242919921875" lon="19.80584534816443920135498046875">
        <ele>966.5999755859375</ele>
        <time>2026-06-18T07:07:50.000Z</time>
        <extensions>
          <ns3:TrackPointExtension>
            <ns3:atemp>20.0</ns3:atemp>
          </ns3:TrackPointExtension>
        </extensions>
      </trkpt>
      <trkpt lat="42.557798735797405242919921875" lon="19.80584534816443920135498046875">
        <ele>966.5999755859375</ele>
        <time>2026-06-18T07:07:51.000Z</time>
        <extensions>
          <ns3:TrackPointExtension>
            <ns3:atemp>20.0</ns3:atemp>
          </ns3:TrackPointExtension>
        </extensions>
      </trkpt>
      <trkpt lat="42.557798735797405242919921875" lon="19.80584534816443920135498046875">
        <ele>966.5999755859375</ele>
        <time>2026-06-18T07:07:52.000Z</time>
        <extensions>
          <ns3:TrackPointExtension>
            <ns3:atemp>20.0</ns3:atemp>
          </ns3:TrackPointExtension>
        </extensions>
      </trkpt>
      <trkpt lat="42.557798735797405242919921875" lon="19.80584534816443920135498046875">
        <ele>966.4000244140625</ele>
        <time>2026-06-18T07:07:53.000Z</time>
        <extensions>
          <ns3:TrackPointExtension>
            <ns3:atemp>20.0</ns3:atemp>
          </ns3:TrackPointExtension>
        </extensions>
      </trkpt>
      <trkpt lat="42.557798735797405242919921875" lon="19.80584534816443920135498046875">
        <ele>966.4000244140625</ele>
        <time>2026-06-18T07:07:54.000Z</time>
        <extensions>
          <ns3:TrackPointExtension>
            <ns3:atemp>20.0</ns3:atemp>
          </ns3:TrackPointExtension>
        </extensions>
      </trkpt>
      <trkpt lat="42.557798735797405242919921875" lon="19.80584534816443920135498046875">
        <ele>966.4000244140625</ele>
        <time>2026-06-18T07:07:55.000Z</time>
        <extensions>
          <ns3:TrackPointExtension>
            <ns3:atemp>20.0</ns3:atemp>
          </ns3:TrackPointExtension>
        </extensions>
      </trkpt>
      <trkpt lat="42.557798735797405242919921875" lon="19.80584534816443920135498046875">
        <ele>966.20001220703125</ele>
        <time>2026-06-18T07:07:56.000Z</time>
        <extensions>
          <ns3:TrackPointExtension>
            <ns3:atemp>20.0</ns3:atemp>
          </ns3:TrackPointExtension>
        </extensions>
      </trkpt>
      <trkpt lat="42.557798735797405242919921875" lon="19.80584534816443920135498046875">
        <ele>966.20001220703125</ele>
        <time>2026-06-18T07:07:57.000Z</time>
        <extensions>
          <ns3:TrackPointExtension>
            <ns3:atemp>20.0</ns3:atemp>
          </ns3:TrackPointExtension>
        </extensions>
      </trkpt>
      <trkpt lat="42.557798735797405242919921875" lon="19.80584534816443920135498046875">
        <ele>966.20001220703125</ele>
        <time>2026-06-18T07:07:58.000Z</time>
        <extensions>
          <ns3:TrackPointExtension>
            <ns3:atemp>20.0</ns3:atemp>
          </ns3:TrackPointExtension>
        </extensions>
      </trkpt>
      <trkpt lat="42.557798735797405242919921875" lon="19.80584534816443920135498046875">
        <ele>966.20001220703125</ele>
        <time>2026-06-18T07:07:59.000Z</time>
        <extensions>
          <ns3:TrackPointExtension>
            <ns3:atemp>20.0</ns3:atemp>
          </ns3:TrackPointExtension>
        </extensions>
      </trkpt>
      <trkpt lat="42.557798735797405242919921875" lon="19.80584534816443920135498046875">
        <ele>966.20001220703125</ele>
        <time>2026-06-18T07:08:00.000Z</time>
        <extensions>
          <ns3:TrackPointExtension>
            <ns3:atemp>20.0</ns3:atemp>
          </ns3:TrackPointExtension>
        </extensions>
      </trkpt>
      <trkpt lat="42.557798735797405242919921875" lon="19.80584534816443920135498046875">
        <ele>966.4000244140625</ele>
        <time>2026-06-18T07:08:01.000Z</time>
        <extensions>
          <ns3:TrackPointExtension>
            <ns3:atemp>20.0</ns3:atemp>
          </ns3:TrackPointExtension>
        </extensions>
      </trkpt>
      <trkpt lat="42.557798735797405242919921875" lon="19.80584534816443920135498046875">
        <ele>966.5999755859375</ele>
        <time>2026-06-18T07:08:02.000Z</time>
        <extensions>
          <ns3:TrackPointExtension>
            <ns3:atemp>20.0</ns3:atemp>
          </ns3:TrackPointExtension>
        </extensions>
      </trkpt>
      <trkpt lat="42.557798735797405242919921875" lon="19.80584534816443920135498046875">
        <ele>966.5999755859375</ele>
        <time>2026-06-18T07:08:03.000Z</time>
        <extensions>
          <ns3:TrackPointExtension>
            <ns3:atemp>20.0</ns3:atemp>
          </ns3:TrackPointExtension>
        </extensions>
      </trkpt>
      <trkpt lat="42.557798735797405242919921875" lon="19.80584534816443920135498046875">
        <ele>966.5999755859375</ele>
        <time>2026-06-18T07:08:04.000Z</time>
        <extensions>
          <ns3:TrackPointExtension>
            <ns3:atemp>20.0</ns3:atemp>
          </ns3:TrackPointExtension>
        </extensions>
      </trkpt>
      <trkpt lat="42.557798735797405242919921875" lon="19.80584534816443920135498046875">
        <ele>966.5999755859375</ele>
        <time>2026-06-18T07:08:05.000Z</time>
        <extensions>
          <ns3:TrackPointExtension>
            <ns3:atemp>20.0</ns3:atemp>
          </ns3:TrackPointExtension>
        </extensions>
      </trkpt>
      <trkpt lat="42.557798735797405242919921875" lon="19.80584534816443920135498046875">
        <ele>966.5999755859375</ele>
        <time>2026-06-18T07:08:06.000Z</time>
        <extensions>
          <ns3:TrackPointExtension>
            <ns3:atemp>20.0</ns3:atemp>
          </ns3:TrackPointExtension>
        </extensions>
      </trkpt>
      <trkpt lat="42.557798735797405242919921875" lon="19.80584534816443920135498046875">
        <ele>966.5999755859375</ele>
        <time>2026-06-18T07:08:07.000Z</time>
        <extensions>
          <ns3:TrackPointExtension>
            <ns3:atemp>20.0</ns3:atemp>
          </ns3:TrackPointExtension>
        </extensions>
      </trkpt>
      <trkpt lat="42.557798735797405242919921875" lon="19.80584534816443920135498046875">
        <ele>966.79998779296875</ele>
        <time>2026-06-18T07:08:08.000Z</time>
        <extensions>
          <ns3:TrackPointExtension>
            <ns3:atemp>20.0</ns3:atemp>
          </ns3:TrackPointExtension>
        </extensions>
      </trkpt>
      <trkpt lat="42.557798735797405242919921875" lon="19.80584534816443920135498046875">
        <ele>966.79998779296875</ele>
        <time>2026-06-18T07:08:09.000Z</time>
        <extensions>
          <ns3:TrackPointExtension>
            <ns3:atemp>20.0</ns3:atemp>
          </ns3:TrackPointExtension>
        </extensions>
      </trkpt>
      <trkpt lat="42.557798735797405242919921875" lon="19.80584534816443920135498046875">
        <ele>966.79998779296875</ele>
        <time>2026-06-18T07:08:10.000Z</time>
        <extensions>
          <ns3:TrackPointExtension>
            <ns3:atemp>20.0</ns3:atemp>
          </ns3:TrackPointExtension>
        </extensions>
      </trkpt>
      <trkpt lat="42.557798735797405242919921875" lon="19.80584534816443920135498046875">
        <ele>966.79998779296875</ele>
        <time>2026-06-18T07:08:11.000Z</time>
        <extensions>
          <ns3:TrackPointExtension>
            <ns3:atemp>20.0</ns3:atemp>
          </ns3:TrackPointExtension>
        </extensions>
      </trkpt>
      <trkpt lat="42.557798735797405242919921875" lon="19.80584534816443920135498046875">
        <ele>966.79998779296875</ele>
        <time>2026-06-18T07:08:12.000Z</time>
        <extensions>
          <ns3:TrackPointExtension>
            <ns3:atemp>20.0</ns3:atemp>
          </ns3:TrackPointExtension>
        </extensions>
      </trkpt>
      <trkpt lat="42.557798735797405242919921875" lon="19.80584534816443920135498046875">
        <ele>966.79998779296875</ele>
        <time>2026-06-18T07:08:13.000Z</time>
        <extensions>
          <ns3:TrackPointExtension>
            <ns3:atemp>20.0</ns3:atemp>
          </ns3:TrackPointExtension>
        </extensions>
      </trkpt>
      <trkpt lat="42.557798735797405242919921875" lon="19.80584534816443920135498046875">
        <ele>966.79998779296875</ele>
        <time>2026-06-18T07:08:14.000Z</time>
        <extensions>
          <ns3:TrackPointExtension>
            <ns3:atemp>20.0</ns3:atemp>
          </ns3:TrackPointExtension>
        </extensions>
      </trkpt>
      <trkpt lat="42.557798735797405242919921875" lon="19.80584534816443920135498046875">
        <ele>966.79998779296875</ele>
        <time>2026-06-18T07:08:15.000Z</time>
        <extensions>
          <ns3:TrackPointExtension>
            <ns3:atemp>20.0</ns3:atemp>
          </ns3:TrackPointExtension>
        </extensions>
      </trkpt>
      <trkpt lat="42.557798735797405242919921875" lon="19.80584534816443920135498046875">
        <ele>966.79998779296875</ele>
        <time>2026-06-18T07:08:16.000Z</time>
        <extensions>
          <ns3:TrackPointExtension>
            <ns3:atemp>20.0</ns3:atemp>
          </ns3:TrackPointExtension>
        </extensions>
      </trkpt>
      <trkpt lat="42.557798735797405242919921875" lon="19.80584534816443920135498046875">
        <ele>966.79998779296875</ele>
        <time>2026-06-18T07:08:17.000Z</time>
        <extensions>
          <ns3:TrackPointExtension>
            <ns3:atemp>20.0</ns3:atemp>
          </ns3:TrackPointExtension>
        </extensions>
      </trkpt>
      <trkpt lat="42.557798735797405242919921875" lon="19.80584534816443920135498046875">
        <ele>966.79998779296875</ele>
        <time>2026-06-18T07:08:18.000Z</time>
        <extensions>
          <ns3:TrackPointExtension>
            <ns3:atemp>20.0</ns3:atemp>
          </ns3:TrackPointExtension>
        </extensions>
      </trkpt>
      <trkpt lat="42.557798735797405242919921875" lon="19.80584534816443920135498046875">
        <ele>966.79998779296875</ele>
        <time>2026-06-18T07:08:19.000Z</time>
        <extensions>
          <ns3:TrackPointExtension>
            <ns3:atemp>20.0</ns3:atemp>
          </ns3:TrackPointExtension>
        </extensions>
      </trkpt>
      <trkpt lat="42.557798735797405242919921875" lon="19.80584534816443920135498046875">
        <ele>966.79998779296875</ele>
        <time>2026-06-18T07:08:20.000Z</time>
        <extensions>
          <ns3:TrackPointExtension>
            <ns3:atemp>20.0</ns3:atemp>
          </ns3:TrackPointExtension>
        </extensions>
      </trkpt>
      <trkpt lat="42.557798735797405242919921875" lon="19.80584534816443920135498046875">
        <ele>966.79998779296875</ele>
        <time>2026-06-18T07:08:21.000Z</time>
        <extensions>
          <ns3:TrackPointExtension>
            <ns3:atemp>20.0</ns3:atemp>
          </ns3:TrackPointExtension>
        </extensions>
      </trkpt>
      <trkpt lat="42.557798735797405242919921875" lon="19.80584534816443920135498046875">
        <ele>966.79998779296875</ele>
        <time>2026-06-18T07:08:22.000Z</time>
        <extensions>
          <ns3:TrackPointExtension>
            <ns3:atemp>20.0</ns3:atemp>
          </ns3:TrackPointExtension>
        </extensions>
      </trkpt>
      <trkpt lat="42.557798735797405242919921875" lon="19.80584534816443920135498046875">
        <ele>966.79998779296875</ele>
        <time>2026-06-18T07:08:23.000Z</time>
        <extensions>
          <ns3:TrackPointExtension>
            <ns3:atemp>20.0</ns3:atemp>
          </ns3:TrackPointExtension>
        </extensions>
      </trkpt>
      <trkpt lat="42.557798735797405242919921875" lon="19.80584534816443920135498046875">
        <ele>966.79998779296875</ele>
        <time>2026-06-18T07:08:24.000Z</time>
        <extensions>
          <ns3:TrackPointExtension>
            <ns3:atemp>20.0</ns3:atemp>
          </ns3:TrackPointExtension>
        </extensions>
      </trkpt>
      <trkpt lat="42.557798735797405242919921875" lon="19.80584534816443920135498046875">
        <ele>966.79998779296875</ele>
        <time>2026-06-18T07:08:25.000Z</time>
        <extensions>
          <ns3:TrackPointExtension>
            <ns3:atemp>20.0</ns3:atemp>
          </ns3:TrackPointExtension>
        </extensions>
      </trkpt>
      <trkpt lat="42.557798735797405242919921875" lon="19.80584534816443920135498046875">
        <ele>966.79998779296875</ele>
        <time>2026-06-18T07:08:26.000Z</time>
        <extensions>
          <ns3:TrackPointExtension>
            <ns3:atemp>20.0</ns3:atemp>
          </ns3:TrackPointExtension>
        </extensions>
      </trkpt>
      <trkpt lat="42.557798735797405242919921875" lon="19.80584534816443920135498046875">
        <ele>966.79998779296875</ele>
        <time>2026-06-18T07:08:27.000Z</time>
        <extensions>
          <ns3:TrackPointExtension>
            <ns3:atemp>20.0</ns3:atemp>
          </ns3:TrackPointExtension>
        </extensions>
      </trkpt>
      <trkpt lat="42.557798735797405242919921875" lon="19.80584534816443920135498046875">
        <ele>966.79998779296875</ele>
        <time>2026-06-18T07:08:28.000Z</time>
        <extensions>
          <ns3:TrackPointExtension>
            <ns3:atemp>20.0</ns3:atemp>
          </ns3:TrackPointExtension>
        </extensions>
      </trkpt>
      <trkpt lat="42.557798735797405242919921875" lon="19.80584534816443920135498046875">
        <ele>966.79998779296875</ele>
        <time>2026-06-18T07:08:29.000Z</time>
        <extensions>
          <ns3:TrackPointExtension>
            <ns3:atemp>20.0</ns3:atemp>
          </ns3:TrackPointExtension>
        </extensions>
      </trkpt>
      <trkpt lat="42.557798735797405242919921875" lon="19.80584534816443920135498046875">
        <ele>966.79998779296875</ele>
        <time>2026-06-18T07:08:30.000Z</time>
        <extensions>
          <ns3:TrackPointExtension>
            <ns3:atemp>20.0</ns3:atemp>
          </ns3:TrackPointExtension>
        </extensions>
      </trkpt>
      <trkpt lat="42.557798735797405242919921875" lon="19.80584534816443920135498046875">
        <ele>966.79998779296875</ele>
        <time>2026-06-18T07:08:31.000Z</time>
        <extensions>
          <ns3:TrackPointExtension>
            <ns3:atemp>20.0</ns3:atemp>
          </ns3:TrackPointExtension>
        </extensions>
      </trkpt>
      <trkpt lat="42.557798735797405242919921875" lon="19.80584534816443920135498046875">
        <ele>966.79998779296875</ele>
        <time>2026-06-18T07:08:32.000Z</time>
        <extensions>
          <ns3:TrackPointExtension>
            <ns3:atemp>20.0</ns3:atemp>
          </ns3:TrackPointExtension>
        </extensions>
      </trkpt>
      <trkpt lat="42.557798735797405242919921875" lon="19.80584534816443920135498046875">
        <ele>966.79998779296875</ele>
        <time>2026-06-18T07:08:33.000Z</time>
        <extensions>
          <ns3:TrackPointExtension>
            <ns3:atemp>20.0</ns3:atemp>
          </ns3:TrackPointExtension>
        </extensions>
      </trkpt>
      <trkpt lat="42.557798735797405242919921875" lon="19.80584534816443920135498046875">
        <ele>966.79998779296875</ele>
        <time>2026-06-18T07:08:34.000Z</time>
        <extensions>
          <ns3:TrackPointExtension>
            <ns3:atemp>20.0</ns3:atemp>
          </ns3:TrackPointExtension>
        </extensions>
      </trkpt>
      <trkpt lat="42.557798735797405242919921875" lon="19.80584534816443920135498046875">
        <ele>966.79998779296875</ele>
        <time>2026-06-18T07:08:35.000Z</time>
        <extensions>
          <ns3:TrackPointExtension>
            <ns3:atemp>20.0</ns3:atemp>
          </ns3:TrackPointExtension>
        </extensions>
      </trkpt>
      <trkpt lat="42.557798735797405242919921875" lon="19.80584534816443920135498046875">
        <ele>966.79998779296875</ele>
        <time>2026-06-18T07:08:36.000Z</time>
        <extensions>
          <ns3:TrackPointExtension>
            <ns3:atemp>20.0</ns3:atemp>
          </ns3:TrackPointExtension>
        </extensions>
      </trkpt>
      <trkpt lat="42.557798735797405242919921875" lon="19.80584534816443920135498046875">
        <ele>966.79998779296875</ele>
        <time>2026-06-18T07:08:37.000Z</time>
        <extensions>
          <ns3:TrackPointExtension>
            <ns3:atemp>20.0</ns3:atemp>
          </ns3:TrackPointExtension>
        </extensions>
      </trkpt>
      <trkpt lat="42.557798735797405242919921875" lon="19.80584534816443920135498046875">
        <ele>966.79998779296875</ele>
        <time>2026-06-18T07:08:38.000Z</time>
        <extensions>
          <ns3:TrackPointExtension>
            <ns3:atemp>20.0</ns3:atemp>
          </ns3:TrackPointExtension>
        </extensions>
      </trkpt>
      <trkpt lat="42.557798735797405242919921875" lon="19.80584534816443920135498046875">
        <ele>966.79998779296875</ele>
        <time>2026-06-18T07:08:39.000Z</time>
        <extensions>
          <ns3:TrackPointExtension>
            <ns3:atemp>20.0</ns3:atemp>
          </ns3:TrackPointExtension>
        </extensions>
      </trkpt>
      <trkpt lat="42.557798735797405242919921875" lon="19.80584534816443920135498046875">
        <ele>966.79998779296875</ele>
        <time>2026-06-18T07:08:40.000Z</time>
        <extensions>
          <ns3:TrackPointExtension>
            <ns3:atemp>20.0</ns3:atemp>
          </ns3:TrackPointExtension>
        </extensions>
      </trkpt>
      <trkpt lat="42.557798735797405242919921875" lon="19.80584534816443920135498046875">
        <ele>966.79998779296875</ele>
        <time>2026-06-18T07:08:41.000Z</time>
        <extensions>
          <ns3:TrackPointExtension>
            <ns3:atemp>20.0</ns3:atemp>
          </ns3:TrackPointExtension>
        </extensions>
      </trkpt>
      <trkpt lat="42.557798735797405242919921875" lon="19.80584534816443920135498046875">
        <ele>967</ele>
        <time>2026-06-18T07:08:42.000Z</time>
        <extensions>
          <ns3:TrackPointExtension>
            <ns3:atemp>20.0</ns3:atemp>
          </ns3:TrackPointExtension>
        </extensions>
      </trkpt>
      <trkpt lat="42.557798735797405242919921875" lon="19.80584534816443920135498046875">
        <ele>967</ele>
        <time>2026-06-18T07:08:43.000Z</time>
        <extensions>
          <ns3:TrackPointExtension>
            <ns3:atemp>20.0</ns3:atemp>
          </ns3:TrackPointExtension>
        </extensions>
      </trkpt>
      <trkpt lat="42.557798735797405242919921875" lon="19.80584534816443920135498046875">
        <ele>967</ele>
        <time>2026-06-18T07:08:44.000Z</time>
        <extensions>
          <ns3:TrackPointExtension>
            <ns3:atemp>20.0</ns3:atemp>
          </ns3:TrackPointExtension>
        </extensions>
      </trkpt>
      <trkpt lat="42.557798735797405242919921875" lon="19.80584534816443920135498046875">
        <ele>967</ele>
        <time>2026-06-18T07:08:45.000Z</time>
        <extensions>
          <ns3:TrackPointExtension>
            <ns3:atemp>20.0</ns3:atemp>
          </ns3:TrackPointExtension>
        </extensions>
      </trkpt>
      <trkpt lat="42.557798735797405242919921875" lon="19.80584534816443920135498046875">
        <ele>967</ele>
        <time>2026-06-18T07:08:46.000Z</time>
        <extensions>
          <ns3:TrackPointExtension>
            <ns3:atemp>20.0</ns3:atemp>
          </ns3:TrackPointExtension>
        </extensions>
      </trkpt>
      <trkpt lat="42.557798735797405242919921875" lon="19.80584534816443920135498046875">
        <ele>966.79998779296875</ele>
        <time>2026-06-18T07:08:47.000Z</time>
        <extensions>
          <ns3:TrackPointExtension>
            <ns3:atemp>20.0</ns3:atemp>
          </ns3:TrackPointExtension>
        </extensions>
      </trkpt>
      <trkpt lat="42.557798735797405242919921875" lon="19.80584534816443920135498046875">
        <ele>966.79998779296875</ele>
        <time>2026-06-18T07:08:48.000Z</time>
        <extensions>
          <ns3:TrackPointExtension>
            <ns3:atemp>20.0</ns3:atemp>
          </ns3:TrackPointExtension>
        </extensions>
      </trkpt>
      <trkpt lat="42.557798735797405242919921875" lon="19.80584534816443920135498046875">
        <ele>967</ele>
        <time>2026-06-18T07:08:49.000Z</time>
        <extensions>
          <ns3:TrackPointExtension>
            <ns3:atemp>20.0</ns3:atemp>
          </ns3:TrackPointExtension>
        </extensions>
      </trkpt>
      <trkpt lat="42.557798735797405242919921875" lon="19.80584534816443920135498046875">
        <ele>967</ele>
        <time>2026-06-18T07:08:50.000Z</time>
        <extensions>
          <ns3:TrackPointExtension>
            <ns3:atemp>20.0</ns3:atemp>
          </ns3:TrackPointExtension>
        </extensions>
      </trkpt>
      <trkpt lat="42.557798735797405242919921875" lon="19.80584534816443920135498046875">
        <ele>967</ele>
        <time>2026-06-18T07:08:51.000Z</time>
        <extensions>
          <ns3:TrackPointExtension>
            <ns3:atemp>20.0</ns3:atemp>
          </ns3:TrackPointExtension>
        </extensions>
      </trkpt>
      <trkpt lat="42.557798735797405242919921875" lon="19.80584534816443920135498046875">
        <ele>967</ele>
        <time>2026-06-18T07:08:52.000Z</time>
        <extensions>
          <ns3:TrackPointExtension>
            <ns3:atemp>20.0</ns3:atemp>
          </ns3:TrackPointExtension>
        </extensions>
      </trkpt>
      <trkpt lat="42.557798735797405242919921875" lon="19.80584534816443920135498046875">
        <ele>967</ele>
        <time>2026-06-18T07:08:53.000Z</time>
        <extensions>
          <ns3:TrackPointExtension>
            <ns3:atemp>20.0</ns3:atemp>
          </ns3:TrackPointExtension>
        </extensions>
      </trkpt>
      <trkpt lat="42.557798735797405242919921875" lon="19.80584534816443920135498046875">
        <ele>967</ele>
        <time>2026-06-18T07:08:54.000Z</time>
        <extensions>
          <ns3:TrackPointExtension>
            <ns3:atemp>20.0</ns3:atemp>
          </ns3:TrackPointExtension>
        </extensions>
      </trkpt>
      <trkpt lat="42.557798735797405242919921875" lon="19.80584534816443920135498046875">
        <ele>967</ele>
        <time>2026-06-18T07:08:55.000Z</time>
        <extensions>
          <ns3:TrackPointExtension>
            <ns3:atemp>20.0</ns3:atemp>
          </ns3:TrackPointExtension>
        </extensions>
      </trkpt>
      <trkpt lat="42.557798735797405242919921875" lon="19.80584534816443920135498046875">
        <ele>967</ele>
        <time>2026-06-18T07:08:56.000Z</time>
        <extensions>
          <ns3:TrackPointExtension>
            <ns3:atemp>20.0</ns3:atemp>
          </ns3:TrackPointExtension>
        </extensions>
      </trkpt>
      <trkpt lat="42.557798735797405242919921875" lon="19.80584534816443920135498046875">
        <ele>967</ele>
        <time>2026-06-18T07:08:57.000Z</time>
        <extensions>
          <ns3:TrackPointExtension>
            <ns3:atemp>20.0</ns3:atemp>
          </ns3:TrackPointExtension>
        </extensions>
      </trkpt>
      <trkpt lat="42.557798735797405242919921875" lon="19.80584534816443920135498046875">
        <ele>967</ele>
        <time>2026-06-18T07:08:58.000Z</time>
        <extensions>
          <ns3:TrackPointExtension>
            <ns3:atemp>20.0</ns3:atemp>
          </ns3:TrackPointExtension>
        </extensions>
      </trkpt>
      <trkpt lat="42.557798735797405242919921875" lon="19.80584534816443920135498046875">
        <ele>967</ele>
        <time>2026-06-18T07:08:59.000Z</time>
        <extensions>
          <ns3:TrackPointExtension>
            <ns3:atemp>20.0</ns3:atemp>
          </ns3:TrackPointExtension>
        </extensions>
      </trkpt>
      <trkpt lat="42.557798735797405242919921875" lon="19.80584534816443920135498046875">
        <ele>967</ele>
        <time>2026-06-18T07:09:00.000Z</time>
        <extensions>
          <ns3:TrackPointExtension>
            <ns3:atemp>20.0</ns3:atemp>
          </ns3:TrackPointExtension>
        </extensions>
      </trkpt>
      <trkpt lat="42.557798735797405242919921875" lon="19.80584534816443920135498046875">
        <ele>967</ele>
        <time>2026-06-18T07:09:01.000Z</time>
        <extensions>
          <ns3:TrackPointExtension>
            <ns3:atemp>21.0</ns3:atemp>
          </ns3:TrackPointExtension>
        </extensions>
      </trkpt>
      <trkpt lat="42.557798735797405242919921875" lon="19.80584534816443920135498046875">
        <ele>966.79998779296875</ele>
        <time>2026-06-18T07:09:02.000Z</time>
        <extensions>
          <ns3:TrackPointExtension>
            <ns3:atemp>21.0</ns3:atemp>
          </ns3:TrackPointExtension>
        </extensions>
      </trkpt>
      <trkpt lat="42.557798735797405242919921875" lon="19.80584534816443920135498046875">
        <ele>966.79998779296875</ele>
        <time>2026-06-18T07:09:03.000Z</time>
        <extensions>
          <ns3:TrackPointExtension>
            <ns3:atemp>21.0</ns3:atemp>
          </ns3:TrackPointExtension>
        </extensions>
      </trkpt>
      <trkpt lat="42.557798735797405242919921875" lon="19.80584534816443920135498046875">
        <ele>966.79998779296875</ele>
        <time>2026-06-18T07:09:04.000Z</time>
        <extensions>
          <ns3:TrackPointExtension>
            <ns3:atemp>21.0</ns3:atemp>
          </ns3:TrackPointExtension>
        </extensions>
      </trkpt>
      <trkpt lat="42.557798735797405242919921875" lon="19.80584534816443920135498046875">
        <ele>966.79998779296875</ele>
        <time>2026-06-18T07:09:05.000Z</time>
        <extensions>
          <ns3:TrackPointExtension>
            <ns3:atemp>21.0</ns3:atemp>
          </ns3:TrackPointExtension>
        </extensions>
      </trkpt>
      <trkpt lat="42.557798735797405242919921875" lon="19.80584534816443920135498046875">
        <ele>966.79998779296875</ele>
        <time>2026-06-18T07:09:06.000Z</time>
        <extensions>
          <ns3:TrackPointExtension>
            <ns3:atemp>21.0</ns3:atemp>
          </ns3:TrackPointExtension>
        </extensions>
      </trkpt>
      <trkpt lat="42.557798735797405242919921875" lon="19.80584534816443920135498046875">
        <ele>966.79998779296875</ele>
        <time>2026-06-18T07:09:07.000Z</time>
        <extensions>
          <ns3:TrackPointExtension>
            <ns3:atemp>21.0</ns3:atemp>
          </ns3:TrackPointExtension>
        </extensions>
      </trkpt>
      <trkpt lat="42.557798735797405242919921875" lon="19.80584534816443920135498046875">
        <ele>966.79998779296875</ele>
        <time>2026-06-18T07:09:08.000Z</time>
        <extensions>
          <ns3:TrackPointExtension>
            <ns3:atemp>21.0</ns3:atemp>
          </ns3:TrackPointExtension>
        </extensions>
      </trkpt>
      <trkpt lat="42.557798735797405242919921875" lon="19.80584534816443920135498046875">
        <ele>966.79998779296875</ele>
        <time>2026-06-18T07:09:09.000Z</time>
        <extensions>
          <ns3:TrackPointExtension>
            <ns3:atemp>21.0</ns3:atemp>
          </ns3:TrackPointExtension>
        </extensions>
      </trkpt>
      <trkpt lat="42.557798735797405242919921875" lon="19.80584534816443920135498046875">
        <ele>966.79998779296875</ele>
        <time>2026-06-18T07:09:10.000Z</time>
        <extensions>
          <ns3:TrackPointExtension>
            <ns3:atemp>21.0</ns3:atemp>
          </ns3:TrackPointExtension>
        </extensions>
      </trkpt>
      <trkpt lat="42.557798735797405242919921875" lon="19.80584534816443920135498046875">
        <ele>966.79998779296875</ele>
        <time>2026-06-18T07:09:11.000Z</time>
        <extensions>
          <ns3:TrackPointExtension>
            <ns3:atemp>21.0</ns3:atemp>
          </ns3:TrackPointExtension>
        </extensions>
      </trkpt>
      <trkpt lat="42.557798065245151519775390625" lon="19.8058449290692806243896484375">
        <ele>966.79998779296875</ele>
        <time>2026-06-18T07:09:12.000Z</time>
        <extensions>
          <ns3:TrackPointExtension>
            <ns3:atemp>21.0</ns3:atemp>
          </ns3:TrackPointExtension>
        </extensions>
      </trkpt>
      <trkpt lat="42.557798735797405242919921875" lon="19.80584534816443920135498046875">
        <ele>966.79998779296875</ele>
        <time>2026-06-18T07:09:13.000Z</time>
        <extensions>
          <ns3:TrackPointExtension>
            <ns3:atemp>21.0</ns3:atemp>
          </ns3:TrackPointExtension>
        </extensions>
      </trkpt>
      <trkpt lat="42.55779764614999294281005859375" lon="19.8058472760021686553955078125">
        <ele>966.79998779296875</ele>
        <time>2026-06-18T07:09:14.000Z</time>
        <extensions>
          <ns3:TrackPointExtension>
            <ns3:atemp>21.0</ns3:atemp>
          </ns3:TrackPointExtension>
        </extensions>
      </trkpt>
      <trkpt lat="42.557798735797405242919921875" lon="19.80584534816443920135498046875">
        <ele>967</ele>
        <time>2026-06-18T07:09:15.000Z</time>
        <extensions>
          <ns3:TrackPointExtension>
            <ns3:atemp>21.0</ns3:atemp>
          </ns3:TrackPointExtension>
        </extensions>
      </trkpt>
      <trkpt lat="42.557798735797405242919921875" lon="19.80584534816443920135498046875">
        <ele>967.20001220703125</ele>
        <time>2026-06-18T07:09:16.000Z</time>
        <extensions>
          <ns3:TrackPointExtension>
            <ns3:atemp>21.0</ns3:atemp>
          </ns3:TrackPointExtension>
        </extensions>
      </trkpt>
      <trkpt lat="42.557798735797405242919921875" lon="19.80584534816443920135498046875">
        <ele>967.20001220703125</ele>
        <time>2026-06-18T07:09:17.000Z</time>
        <extensions>
          <ns3:TrackPointExtension>
            <ns3:atemp>21.0</ns3:atemp>
          </ns3:TrackPointExtension>
        </extensions>
      </trkpt>
      <trkpt lat="42.557798065245151519775390625" lon="19.80584509670734405517578125">
        <ele>967.20001220703125</ele>
        <time>2026-06-18T07:09:18.000Z</time>
        <extensions>
          <ns3:TrackPointExtension>
            <ns3:atemp>21.0</ns3:atemp>
          </ns3:TrackPointExtension>
        </extensions>
      </trkpt>
      <trkpt lat="42.55779244937002658843994140625" lon="19.80583981610834598541259765625">
        <ele>967.20001220703125</ele>
        <time>2026-06-18T07:09:19.000Z</time>
        <extensions>
          <ns3:TrackPointExtension>
            <ns3:atemp>21.0</ns3:atemp>
          </ns3:TrackPointExtension>
        </extensions>
      </trkpt>
      <trkpt lat="42.5577818043529987335205078125" lon="19.80583562515676021575927734375">
        <ele>967</ele>
        <time>2026-06-18T07:09:20.000Z</time>
        <extensions>
          <ns3:TrackPointExtension>
            <ns3:atemp>21.0</ns3:atemp>
          </ns3:TrackPointExtension>
        </extensions>
      </trkpt>
      <trkpt lat="42.5577710755169391632080078125" lon="19.805832020938396453857421875">
        <ele>967</ele>
        <time>2026-06-18T07:09:21.000Z</time>
        <extensions>
          <ns3:TrackPointExtension>
            <ns3:atemp>21.0</ns3:atemp>
          </ns3:TrackPointExtension>
        </extensions>
      </trkpt>
      <trkpt lat="42.5577650405466556549072265625" lon="19.805826656520366668701171875">
        <ele>967</ele>
        <time>2026-06-18T07:09:22.000Z</time>
        <extensions>
          <ns3:TrackPointExtension>
            <ns3:atemp>21.0</ns3:atemp>
          </ns3:TrackPointExtension>
        </extensions>
      </trkpt>
      <trkpt lat="42.55776830948889255523681640625" lon="19.8058216273784637451171875">
        <ele>967</ele>
        <time>2026-06-18T07:09:23.000Z</time>
        <extensions>
          <ns3:TrackPointExtension>
            <ns3:atemp>21.0</ns3:atemp>
          </ns3:TrackPointExtension>
        </extensions>
      </trkpt>
      <trkpt lat="42.557765543460845947265625" lon="19.80581500567495822906494140625">
        <ele>967</ele>
        <time>2026-06-18T07:09:24.000Z</time>
        <extensions>
          <ns3:TrackPointExtension>
            <ns3:atemp>21.0</ns3:atemp>
          </ns3:TrackPointExtension>
        </extensions>
      </trkpt>
      <trkpt lat="42.55776395089924335479736328125" lon="19.80580712668597698211669921875">
        <ele>967.20001220703125</ele>
        <time>2026-06-18T07:09:25.000Z</time>
        <extensions>
          <ns3:TrackPointExtension>
            <ns3:atemp>21.0</ns3:atemp>
          </ns3:TrackPointExtension>
        </extensions>
      </trkpt>
      <trkpt lat="42.55776059813797473907470703125" lon="19.80579572729766368865966796875">
        <ele>967.4000244140625</ele>
        <time>2026-06-18T07:09:26.000Z</time>
        <extensions>
          <ns3:TrackPointExtension>
            <ns3:atemp>21.0</ns3:atemp>
          </ns3:TrackPointExtension>
        </extensions>
      </trkpt>
      <trkpt lat="42.55775171332061290740966796875" lon="19.8057808913290500640869140625">
        <ele>967.4000244140625</ele>
        <time>2026-06-18T07:09:27.000Z</time>
        <extensions>
          <ns3:TrackPointExtension>
            <ns3:atemp>21.0</ns3:atemp>
          </ns3:TrackPointExtension>
        </extensions>
      </trkpt>
      <trkpt lat="42.5577414035797119140625" lon="19.80577393434941768646240234375">
        <ele>967.4000244140625</ele>
        <time>2026-06-18T07:09:28.000Z</time>
        <extensions>
          <ns3:TrackPointExtension>
            <ns3:atemp>21.0</ns3:atemp>
          </ns3:TrackPointExtension>
        </extensions>
      </trkpt>
      <trkpt lat="42.55773511715233325958251953125" lon="19.80578030459582805633544921875">
        <ele>967.4000244140625</ele>
        <time>2026-06-18T07:09:29.000Z</time>
        <extensions>
          <ns3:TrackPointExtension>
            <ns3:atemp>21.0</ns3:atemp>
          </ns3:TrackPointExtension>
        </extensions>
      </trkpt>
      <trkpt lat="42.5577318482100963592529296875" lon="19.80578734539449214935302734375">
        <ele>967.20001220703125</ele>
        <time>2026-06-18T07:09:30.000Z</time>
        <extensions>
          <ns3:TrackPointExtension>
            <ns3:atemp>21.0</ns3:atemp>
          </ns3:TrackPointExtension>
        </extensions>
      </trkpt>
      <trkpt lat="42.55773126147687435150146484375" lon="19.805793464183807373046875">
        <ele>967</ele>
        <time>2026-06-18T07:09:31.000Z</time>
        <extensions>
          <ns3:TrackPointExtension>
            <ns3:atemp>21.0</ns3:atemp>
          </ns3:TrackPointExtension>
        </extensions>
      </trkpt>
      <trkpt lat="42.55773176439106464385986328125" lon="19.80579975061118602752685546875">
        <ele>966.79998779296875</ele>
        <time>2026-06-18T07:09:32.000Z</time>
        <extensions>
          <ns3:TrackPointExtension>
            <ns3:atemp>21.0</ns3:atemp>
          </ns3:TrackPointExtension>
        </extensions>
      </trkpt>
      <trkpt lat="42.55773293785750865936279296875" lon="19.80580125935375690460205078125">
        <ele>966.79998779296875</ele>
        <time>2026-06-18T07:09:33.000Z</time>
        <extensions>
          <ns3:TrackPointExtension>
            <ns3:atemp>21.0</ns3:atemp>
          </ns3:TrackPointExtension>
        </extensions>
      </trkpt>
      <trkpt lat="42.557733021676540374755859375" lon="19.80580125935375690460205078125">
        <ele>966.79998779296875</ele>
        <time>2026-06-18T07:09:34.000Z</time>
        <extensions>
          <ns3:TrackPointExtension>
            <ns3:atemp>21.0</ns3:atemp>
          </ns3:TrackPointExtension>
        </extensions>
      </trkpt>
      <trkpt lat="42.557733021676540374755859375" lon="19.80580125935375690460205078125">
        <ele>966.79998779296875</ele>
        <time>2026-06-18T07:09:35.000Z</time>
        <extensions>
          <ns3:TrackPointExtension>
            <ns3:atemp>21.0</ns3:atemp>
          </ns3:TrackPointExtension>
        </extensions>
      </trkpt>
      <trkpt lat="42.557733021676540374755859375" lon="19.80580125935375690460205078125">
        <ele>967</ele>
        <time>2026-06-18T07:09:36.000Z</time>
        <extensions>
          <ns3:TrackPointExtension>
            <ns3:atemp>21.0</ns3:atemp>
          </ns3:TrackPointExtension>
        </extensions>
      </trkpt>
      <trkpt lat="42.557733021676540374755859375" lon="19.80580125935375690460205078125">
        <ele>967</ele>
        <time>2026-06-18T07:09:37.000Z</time>
        <extensions>
          <ns3:TrackPointExtension>
            <ns3:atemp>21.0</ns3:atemp>
          </ns3:TrackPointExtension>
        </extensions>
      </trkpt>
      <trkpt lat="42.557733692228794097900390625" lon="19.80580176226794719696044921875">
        <ele>967</ele>
        <time>2026-06-18T07:09:38.000Z</time>
        <extensions>
          <ns3:TrackPointExtension>
            <ns3:atemp>21.0</ns3:atemp>
          </ns3:TrackPointExtension>
        </extensions>
      </trkpt>
      <trkpt lat="42.55774618126451969146728515625" lon="19.80580645613372325897216796875">
        <ele>967</ele>
        <time>2026-06-18T07:09:39.000Z</time>
        <extensions>
          <ns3:TrackPointExtension>
            <ns3:atemp>21.0</ns3:atemp>
          </ns3:TrackPointExtension>
        </extensions>
      </trkpt>
      <trkpt lat="42.55774970166385173797607421875" lon="19.80581081472337245941162109375">
        <ele>967.20001220703125</ele>
        <time>2026-06-18T07:09:40.000Z</time>
        <extensions>
          <ns3:TrackPointExtension>
            <ns3:atemp>21.0</ns3:atemp>
          </ns3:TrackPointExtension>
        </extensions>
      </trkpt>
      <trkpt lat="42.557749785482883453369140625" lon="19.8058107309043407440185546875">
        <ele>967.20001220703125</ele>
        <time>2026-06-18T07:09:41.000Z</time>
        <extensions>
          <ns3:TrackPointExtension>
            <ns3:atemp>21.0</ns3:atemp>
          </ns3:TrackPointExtension>
        </extensions>
      </trkpt>
      <trkpt lat="42.55775992758572101593017578125" lon="19.8058191128075122833251953125">
        <ele>967</ele>
        <time>2026-06-18T07:09:42.000Z</time>
        <extensions>
          <ns3:TrackPointExtension>
            <ns3:atemp>21.0</ns3:atemp>
          </ns3:TrackPointExtension>
        </extensions>
      </trkpt>
      <trkpt lat="42.5577643699944019317626953125" lon="19.80582975782454013824462890625">
        <ele>967</ele>
        <time>2026-06-18T07:09:43.000Z</time>
        <extensions>
          <ns3:TrackPointExtension>
            <ns3:atemp>21.0</ns3:atemp>
          </ns3:TrackPointExtension>
        </extensions>
      </trkpt>
      <trkpt lat="42.55776529200375080108642578125" lon="19.80583528988063335418701171875">
        <ele>967</ele>
        <time>2026-06-18T07:09:44.000Z</time>
        <extensions>
          <ns3:TrackPointExtension>
            <ns3:atemp>21.0</ns3:atemp>
          </ns3:TrackPointExtension>
        </extensions>
      </trkpt>
      <trkpt lat="42.55776328034698963165283203125" lon="19.8058382235467433929443359375">
        <ele>967</ele>
        <time>2026-06-18T07:09:45.000Z</time>
        <extensions>
          <ns3:TrackPointExtension>
            <ns3:atemp>21.0</ns3:atemp>
          </ns3:TrackPointExtension>
        </extensions>
      </trkpt>
      <trkpt lat="42.5577596761286258697509765625" lon="19.80583931319415569305419921875">
        <ele>967</ele>
        <time>2026-06-18T07:09:46.000Z</time>
        <extensions>
          <ns3:TrackPointExtension>
            <ns3:atemp>21.0</ns3:atemp>
          </ns3:TrackPointExtension>
        </extensions>
      </trkpt>
      <trkpt lat="42.557759843766689300537109375" lon="19.80583914555609226226806640625">
        <ele>967</ele>
        <time>2026-06-18T07:09:47.000Z</time>
        <extensions>
          <ns3:TrackPointExtension>
            <ns3:atemp>21.0</ns3:atemp>
          </ns3:TrackPointExtension>
        </extensions>
      </trkpt>
      <trkpt lat="42.557759843766689300537109375" lon="19.80583914555609226226806640625">
        <ele>967</ele>
        <time>2026-06-18T07:09:48.000Z</time>
        <extensions>
          <ns3:TrackPointExtension>
            <ns3:atemp>21.0</ns3:atemp>
          </ns3:TrackPointExtension>
        </extensions>
      </trkpt>
      <trkpt lat="42.55775992758572101593017578125" lon="19.80583948083221912384033203125">
        <ele>967</ele>
        <time>2026-06-18T07:09:49.000Z</time>
        <extensions>
          <ns3:TrackPointExtension>
            <ns3:atemp>21.0</ns3:atemp>
          </ns3:TrackPointExtension>
        </extensions>
      </trkpt>
      <trkpt lat="42.5577657110989093780517578125" lon="19.80584509670734405517578125">
        <ele>967</ele>
        <time>2026-06-18T07:09:50.000Z</time>
        <extensions>
          <ns3:TrackPointExtension>
            <ns3:atemp>21.0</ns3:atemp>
          </ns3:TrackPointExtension>
        </extensions>
      </trkpt>
      <trkpt lat="42.5577697344124317169189453125" lon="19.8058409057557582855224609375">
        <ele>967</ele>
        <time>2026-06-18T07:09:51.000Z</time>
        <extensions>
          <ns3:TrackPointExtension>
            <ns3:atemp>21.0</ns3:atemp>
          </ns3:TrackPointExtension>
        </extensions>
      </trkpt>
      <trkpt lat="42.55777099169790744781494140625" lon="19.80583746917545795440673828125">
        <ele>967</ele>
        <time>2026-06-18T07:09:52.000Z</time>
        <extensions>
          <ns3:TrackPointExtension>
            <ns3:atemp>21.0</ns3:atemp>
          </ns3:TrackPointExtension>
        </extensions>
      </trkpt>
      <trkpt lat="42.557759843766689300537109375" lon="19.80583914555609226226806640625">
        <ele>967</ele>
        <time>2026-06-18T07:09:53.000Z</time>
        <extensions>
          <ns3:TrackPointExtension>
            <ns3:atemp>21.0</ns3:atemp>
          </ns3:TrackPointExtension>
        </extensions>
      </trkpt>
      <trkpt lat="42.557759843766689300537109375" lon="19.80583914555609226226806640625">
        <ele>967</ele>
        <time>2026-06-18T07:09:54.000Z</time>
        <extensions>
          <ns3:TrackPointExtension>
            <ns3:atemp>21.0</ns3:atemp>
          </ns3:TrackPointExtension>
        </extensions>
      </trkpt>
      <trkpt lat="42.557759843766689300537109375" lon="19.80583914555609226226806640625">
        <ele>967</ele>
        <time>2026-06-18T07:09:55.000Z</time>
        <extensions>
          <ns3:TrackPointExtension>
            <ns3:atemp>21.0</ns3:atemp>
          </ns3:TrackPointExtension>
        </extensions>
      </trkpt>
      <trkpt lat="42.557759843766689300537109375" lon="19.80583914555609226226806640625">
        <ele>967</ele>
        <time>2026-06-18T07:09:56.000Z</time>
        <extensions>
          <ns3:TrackPointExtension>
            <ns3:atemp>21.0</ns3:atemp>
          </ns3:TrackPointExtension>
        </extensions>
      </trkpt>
      <trkpt lat="42.557759843766689300537109375" lon="19.80583914555609226226806640625">
        <ele>967</ele>
        <time>2026-06-18T07:09:57.000Z</time>
        <extensions>
          <ns3:TrackPointExtension>
            <ns3:atemp>21.0</ns3:atemp>
          </ns3:TrackPointExtension>
        </extensions>
      </trkpt>
      <trkpt lat="42.557759843766689300537109375" lon="19.80583914555609226226806640625">
        <ele>967</ele>
        <time>2026-06-18T07:09:58.000Z</time>
        <extensions>
          <ns3:TrackPointExtension>
            <ns3:atemp>21.0</ns3:atemp>
          </ns3:TrackPointExtension>
        </extensions>
      </trkpt>
      <trkpt lat="42.557759843766689300537109375" lon="19.80583914555609226226806640625">
        <ele>967</ele>
        <time>2026-06-18T07:09:59.000Z</time>
        <extensions>
          <ns3:TrackPointExtension>
            <ns3:atemp>21.0</ns3:atemp>
          </ns3:TrackPointExtension>
        </extensions>
      </trkpt>
      <trkpt lat="42.557759843766689300537109375" lon="19.80583914555609226226806640625">
        <ele>967</ele>
        <time>2026-06-18T07:10:00.000Z</time>
        <extensions>
          <ns3:TrackPointExtension>
            <ns3:atemp>21.0</ns3:atemp>
          </ns3:TrackPointExtension>
        </extensions>
      </trkpt>
      <trkpt lat="42.557759843766689300537109375" lon="19.80583914555609226226806640625">
        <ele>967</ele>
        <time>2026-06-18T07:10:01.000Z</time>
        <extensions>
          <ns3:TrackPointExtension>
            <ns3:atemp>21.0</ns3:atemp>
          </ns3:TrackPointExtension>
        </extensions>
      </trkpt>
      <trkpt lat="42.557759843766689300537109375" lon="19.80583914555609226226806640625">
        <ele>967</ele>
        <time>2026-06-18T07:10:02.000Z</time>
        <extensions>
          <ns3:TrackPointExtension>
            <ns3:atemp>21.0</ns3:atemp>
          </ns3:TrackPointExtension>
        </extensions>
      </trkpt>
      <trkpt lat="42.557759843766689300537109375" lon="19.80583914555609226226806640625">
        <ele>967</ele>
        <time>2026-06-18T07:10:03.000Z</time>
        <extensions>
          <ns3:TrackPointExtension>
            <ns3:atemp>21.0</ns3:atemp>
          </ns3:TrackPointExtension>
        </extensions>
      </trkpt>
      <trkpt lat="42.557759843766689300537109375" lon="19.80583914555609226226806640625">
        <ele>967</ele>
        <time>2026-06-18T07:10:04.000Z</time>
        <extensions>
          <ns3:TrackPointExtension>
            <ns3:atemp>21.0</ns3:atemp>
          </ns3:TrackPointExtension>
        </extensions>
      </trkpt>
      <trkpt lat="42.557759843766689300537109375" lon="19.80583914555609226226806640625">
        <ele>967</ele>
        <time>2026-06-18T07:10:05.000Z</time>
        <extensions>
          <ns3:TrackPointExtension>
            <ns3:atemp>21.0</ns3:atemp>
          </ns3:TrackPointExtension>
        </extensions>
      </trkpt>
      <trkpt lat="42.55777166225016117095947265625" lon="19.80583612807095050811767578125">
        <ele>967</ele>
        <time>2026-06-18T07:10:06.000Z</time>
        <extensions>
          <ns3:TrackPointExtension>
            <ns3:atemp>21.0</ns3:atemp>
          </ns3:TrackPointExtension>
        </extensions>
      </trkpt>
      <trkpt lat="42.55777291953563690185546875" lon="19.80581022799015045166015625">
        <ele>967</ele>
        <time>2026-06-18T07:10:07.000Z</time>
        <extensions>
          <ns3:TrackPointExtension>
            <ns3:atemp>21.0</ns3:atemp>
          </ns3:TrackPointExtension>
        </extensions>
      </trkpt>
      <trkpt lat="42.55776713602244853973388671875" lon="19.8057932965457439422607421875">
        <ele>967</ele>
        <time>2026-06-18T07:10:08.000Z</time>
        <extensions>
          <ns3:TrackPointExtension>
            <ns3:atemp>21.0</ns3:atemp>
          </ns3:TrackPointExtension>
        </extensions>
      </trkpt>
      <trkpt lat="42.557759173214435577392578125" lon="19.80578483082354068756103515625">
        <ele>967</ele>
        <time>2026-06-18T07:10:09.000Z</time>
        <extensions>
          <ns3:TrackPointExtension>
            <ns3:atemp>21.0</ns3:atemp>
          </ns3:TrackPointExtension>
        </extensions>
      </trkpt>
      <trkpt lat="42.55775037221610546112060546875" lon="19.80576538480818271636962890625">
        <ele>966.79998779296875</ele>
        <time>2026-06-18T07:10:10.000Z</time>
        <extensions>
          <ns3:TrackPointExtension>
            <ns3:atemp>21.0</ns3:atemp>
          </ns3:TrackPointExtension>
        </extensions>
      </trkpt>
      <trkpt lat="42.557739727199077606201171875" lon="19.80574585497379302978515625">
        <ele>966.79998779296875</ele>
        <time>2026-06-18T07:10:11.000Z</time>
        <extensions>
          <ns3:TrackPointExtension>
            <ns3:atemp>21.0</ns3:atemp>
          </ns3:TrackPointExtension>
        </extensions>
      </trkpt>
      <trkpt lat="42.557730339467525482177734375" lon="19.8057250678539276123046875">
        <ele>966.5999755859375</ele>
        <time>2026-06-18T07:10:12.000Z</time>
        <extensions>
          <ns3:TrackPointExtension>
            <ns3:atemp>21.0</ns3:atemp>
          </ns3:TrackPointExtension>
        </extensions>
      </trkpt>
      <trkpt lat="42.557722292840480804443359375" lon="19.805702604353427886962890625">
        <ele>966.5999755859375</ele>
        <time>2026-06-18T07:10:13.000Z</time>
        <extensions>
          <ns3:TrackPointExtension>
            <ns3:atemp>21.0</ns3:atemp>
          </ns3:TrackPointExtension>
        </extensions>
      </trkpt>
      <trkpt lat="42.557711899280548095703125" lon="19.80568014085292816162109375">
        <ele>966.5999755859375</ele>
        <time>2026-06-18T07:10:14.000Z</time>
        <extensions>
          <ns3:TrackPointExtension>
            <ns3:atemp>21.0</ns3:atemp>
          </ns3:TrackPointExtension>
        </extensions>
      </trkpt>
      <trkpt lat="42.55770125426352024078369140625" lon="19.80565776117146015167236328125">
        <ele>966.5999755859375</ele>
        <time>2026-06-18T07:10:15.000Z</time>
        <extensions>
          <ns3:TrackPointExtension>
            <ns3:atemp>21.0</ns3:atemp>
          </ns3:TrackPointExtension>
        </extensions>
      </trkpt>
      <trkpt lat="42.55769111216068267822265625" lon="19.8056363873183727264404296875">
        <ele>966.5999755859375</ele>
        <time>2026-06-18T07:10:16.000Z</time>
        <extensions>
          <ns3:TrackPointExtension>
            <ns3:atemp>21.0</ns3:atemp>
          </ns3:TrackPointExtension>
        </extensions>
      </trkpt>
      <trkpt lat="42.5576802156865596771240234375" lon="19.80561601929366588592529296875">
        <ele>966.79998779296875</ele>
        <time>2026-06-18T07:10:17.000Z</time>
        <extensions>
          <ns3:TrackPointExtension>
            <ns3:atemp>21.0</ns3:atemp>
          </ns3:TrackPointExtension>
        </extensions>
      </trkpt>
      <trkpt lat="42.55766806192696094512939453125" lon="19.80559389106929302215576171875">
        <ele>966.79998779296875</ele>
        <time>2026-06-18T07:10:18.000Z</time>
        <extensions>
          <ns3:TrackPointExtension>
            <ns3:atemp>21.0</ns3:atemp>
          </ns3:TrackPointExtension>
        </extensions>
      </trkpt>
      <trkpt lat="42.557655908167362213134765625" lon="19.80557159520685672760009765625">
        <ele>967</ele>
        <time>2026-06-18T07:10:19.000Z</time>
        <extensions>
          <ns3:TrackPointExtension>
            <ns3:atemp>21.0</ns3:atemp>
          </ns3:TrackPointExtension>
        </extensions>
      </trkpt>
      <trkpt lat="42.55764283239841461181640625" lon="19.80554929934442043304443359375">
        <ele>967</ele>
        <time>2026-06-18T07:10:20.000Z</time>
        <extensions>
          <ns3:TrackPointExtension>
            <ns3:atemp>21.0</ns3:atemp>
          </ns3:TrackPointExtension>
        </extensions>
      </trkpt>
      <trkpt lat="42.55762648768723011016845703125" lon="19.80552281253039836883544921875">
        <ele>967</ele>
        <time>2026-06-18T07:10:21.000Z</time>
        <extensions>
          <ns3:TrackPointExtension>
            <ns3:atemp>21.0</ns3:atemp>
          </ns3:TrackPointExtension>
        </extensions>
      </trkpt>
      <trkpt lat="42.55761106498539447784423828125" lon="19.80549481697380542755126953125">
        <ele>967.20001220703125</ele>
        <time>2026-06-18T07:10:22.000Z</time>
        <extensions>
          <ns3:TrackPointExtension>
            <ns3:atemp>21.0</ns3:atemp>
          </ns3:TrackPointExtension>
        </extensions>
      </trkpt>
      <trkpt lat="42.55759513936936855316162109375" lon="19.8054702579975128173828125">
        <ele>967.20001220703125</ele>
        <time>2026-06-18T07:10:23.000Z</time>
        <extensions>
          <ns3:TrackPointExtension>
            <ns3:atemp>21.0</ns3:atemp>
          </ns3:TrackPointExtension>
        </extensions>
      </trkpt>
      <trkpt lat="42.55757988430559635162353515625" lon="19.80544603429734706878662109375">
        <ele>967.20001220703125</ele>
        <time>2026-06-18T07:10:24.000Z</time>
        <extensions>
          <ns3:TrackPointExtension>
            <ns3:atemp>21.0</ns3:atemp>
          </ns3:TrackPointExtension>
        </extensions>
      </trkpt>
      <trkpt lat="42.5575615279376506805419921875" lon="19.80541988275945186614990234375">
        <ele>967.20001220703125</ele>
        <time>2026-06-18T07:10:25.000Z</time>
        <extensions>
          <ns3:TrackPointExtension>
            <ns3:atemp>21.0</ns3:atemp>
          </ns3:TrackPointExtension>
        </extensions>
      </trkpt>
      <trkpt lat="42.55754493176937103271484375" lon="19.8053936474025249481201171875">
        <ele>967.4000244140625</ele>
        <time>2026-06-18T07:10:26.000Z</time>
        <extensions>
          <ns3:TrackPointExtension>
            <ns3:atemp>21.0</ns3:atemp>
          </ns3:TrackPointExtension>
        </extensions>
      </trkpt>
      <trkpt lat="42.557529509067535400390625" lon="19.80536757968366146087646484375">
        <ele>967.4000244140625</ele>
        <time>2026-06-18T07:10:27.000Z</time>
        <extensions>
          <ns3:TrackPointExtension>
            <ns3:atemp>21.0</ns3:atemp>
          </ns3:TrackPointExtension>
        </extensions>
      </trkpt>
      <trkpt lat="42.5575132481753826141357421875" lon="19.8053400032222270965576171875">
        <ele>967.4000244140625</ele>
        <time>2026-06-18T07:10:28.000Z</time>
        <extensions>
          <ns3:TrackPointExtension>
            <ns3:atemp>21.0</ns3:atemp>
          </ns3:TrackPointExtension>
        </extensions>
      </trkpt>
      <trkpt lat="42.5574948079884052276611328125" lon="19.80531292967498302459716796875">
        <ele>967.5999755859375</ele>
        <time>2026-06-18T07:10:29.000Z</time>
        <extensions>
          <ns3:TrackPointExtension>
            <ns3:atemp>21.0</ns3:atemp>
          </ns3:TrackPointExtension>
        </extensions>
      </trkpt>
      <trkpt lat="42.557477541267871856689453125" lon="19.80528677813708782196044921875">
        <ele>967.5999755859375</ele>
        <time>2026-06-18T07:10:30.000Z</time>
        <extensions>
          <ns3:TrackPointExtension>
            <ns3:atemp>21.0</ns3:atemp>
          </ns3:TrackPointExtension>
        </extensions>
      </trkpt>
      <trkpt lat="42.5574585981667041778564453125" lon="19.80525928549468517303466796875">
        <ele>967.79998779296875</ele>
        <time>2026-06-18T07:10:31.000Z</time>
        <extensions>
          <ns3:TrackPointExtension>
            <ns3:atemp>21.0</ns3:atemp>
          </ns3:TrackPointExtension>
        </extensions>
      </trkpt>
      <trkpt lat="42.55743806250393390655517578125" lon="19.8052327148616313934326171875">
        <ele>967.79998779296875</ele>
        <time>2026-06-18T07:10:32.000Z</time>
        <extensions>
          <ns3:TrackPointExtension>
            <ns3:atemp>21.0</ns3:atemp>
          </ns3:TrackPointExtension>
        </extensions>
      </trkpt>
      <trkpt lat="42.557416856288909912109375" lon="19.80520681478083133697509765625">
        <ele>967.79998779296875</ele>
        <time>2026-06-18T07:10:33.000Z</time>
        <extensions>
          <ns3:TrackPointExtension>
            <ns3:atemp>21.0</ns3:atemp>
          </ns3:TrackPointExtension>
        </extensions>
      </trkpt>
      <trkpt lat="42.55739665590226650238037109375" lon="19.80517982505261898040771484375">
        <ele>967.79998779296875</ele>
        <time>2026-06-18T07:10:34.000Z</time>
        <extensions>
          <ns3:TrackPointExtension>
            <ns3:atemp>21.0</ns3:atemp>
          </ns3:TrackPointExtension>
        </extensions>
      </trkpt>
      <trkpt lat="42.5573747791349887847900390625" lon="19.80515467934310436248779296875">
        <ele>967.79998779296875</ele>
        <time>2026-06-18T07:10:35.000Z</time>
        <extensions>
          <ns3:TrackPointExtension>
            <ns3:atemp>21.0</ns3:atemp>
          </ns3:TrackPointExtension>
        </extensions>
      </trkpt>
      <trkpt lat="42.5573533214628696441650390625" lon="19.80512685142457485198974609375">
        <ele>968</ele>
        <time>2026-06-18T07:10:36.000Z</time>
        <extensions>
          <ns3:TrackPointExtension>
            <ns3:atemp>21.0</ns3:atemp>
          </ns3:TrackPointExtension>
        </extensions>
      </trkpt>
      <trkpt lat="42.55733144469559192657470703125" lon="19.80510019697248935699462890625">
        <ele>968</ele>
        <time>2026-06-18T07:10:37.000Z</time>
        <extensions>
          <ns3:TrackPointExtension>
            <ns3:atemp>21.0</ns3:atemp>
          </ns3:TrackPointExtension>
        </extensions>
      </trkpt>
      <trkpt lat="42.5573100708425045013427734375" lon="19.80507186613976955413818359375">
        <ele>968.20001220703125</ele>
        <time>2026-06-18T07:10:38.000Z</time>
        <extensions>
          <ns3:TrackPointExtension>
            <ns3:atemp>21.0</ns3:atemp>
          </ns3:TrackPointExtension>
        </extensions>
      </trkpt>
      <trkpt lat="42.55728752352297306060791015625" lon="19.80504454113543033599853515625">
        <ele>968.20001220703125</ele>
        <time>2026-06-18T07:10:39.000Z</time>
        <extensions>
          <ns3:TrackPointExtension>
            <ns3:atemp>21.0</ns3:atemp>
          </ns3:TrackPointExtension>
        </extensions>
      </trkpt>
      <trkpt lat="42.55726405419409275054931640625" lon="19.805017299950122833251953125">
        <ele>968.4000244140625</ele>
        <time>2026-06-18T07:10:40.000Z</time>
        <extensions>
          <ns3:TrackPointExtension>
            <ns3:atemp>21.0</ns3:atemp>
          </ns3:TrackPointExtension>
        </extensions>
      </trkpt>
      <trkpt lat="42.5572423450648784637451171875" lon="19.80499424971640110015869140625">
        <ele>968.4000244140625</ele>
        <time>2026-06-18T07:10:41.000Z</time>
        <extensions>
          <ns3:TrackPointExtension>
            <ns3:atemp>21.0</ns3:atemp>
          </ns3:TrackPointExtension>
        </extensions>
      </trkpt>
      <trkpt lat="42.55722172558307647705078125" lon="19.80496608652174472808837890625">
        <ele>968.4000244140625</ele>
        <time>2026-06-18T07:10:42.000Z</time>
        <extensions>
          <ns3:TrackPointExtension>
            <ns3:atemp>21.0</ns3:atemp>
          </ns3:TrackPointExtension>
        </extensions>
      </trkpt>
      <trkpt lat="42.55720169283449649810791015625" lon="19.80494194664061069488525390625">
        <ele>968.5999755859375</ele>
        <time>2026-06-18T07:10:43.000Z</time>
        <extensions>
          <ns3:TrackPointExtension>
            <ns3:atemp>21.0</ns3:atemp>
          </ns3:TrackPointExtension>
        </extensions>
      </trkpt>
      <trkpt lat="42.5571821630001068115234375" lon="19.80491747148334980010986328125">
        <ele>968.79998779296875</ele>
        <time>2026-06-18T07:10:44.000Z</time>
        <extensions>
          <ns3:TrackPointExtension>
            <ns3:atemp>21.0</ns3:atemp>
          </ns3:TrackPointExtension>
        </extensions>
      </trkpt>
      <trkpt lat="42.5571620464324951171875" lon="19.80489023029804229736328125">
        <ele>968.79998779296875</ele>
        <time>2026-06-18T07:10:45.000Z</time>
        <extensions>
          <ns3:TrackPointExtension>
            <ns3:atemp>21.0</ns3:atemp>
          </ns3:TrackPointExtension>
        </extensions>
      </trkpt>
      <trkpt lat="42.55714167840778827667236328125" lon="19.80486231856048107147216796875">
        <ele>969</ele>
        <time>2026-06-18T07:10:46.000Z</time>
        <extensions>
          <ns3:TrackPointExtension>
            <ns3:atemp>21.0</ns3:atemp>
          </ns3:TrackPointExtension>
        </extensions>
      </trkpt>
      <trkpt lat="42.5571206398308277130126953125" lon="19.80483247898519039154052734375">
        <ele>969</ele>
        <time>2026-06-18T07:10:47.000Z</time>
        <extensions>
          <ns3:TrackPointExtension>
            <ns3:atemp>21.0</ns3:atemp>
          </ns3:TrackPointExtension>
        </extensions>
      </trkpt>
      <trkpt lat="42.557098679244518280029296875" lon="19.804804064333438873291015625">
        <ele>969.20001220703125</ele>
        <time>2026-06-18T07:10:48.000Z</time>
        <extensions>
          <ns3:TrackPointExtension>
            <ns3:atemp>21.0</ns3:atemp>
          </ns3:TrackPointExtension>
        </extensions>
      </trkpt>
      <trkpt lat="42.557076551020145416259765625" lon="19.80477715842425823211669921875">
        <ele>969.4000244140625</ele>
        <time>2026-06-18T07:10:49.000Z</time>
        <extensions>
          <ns3:TrackPointExtension>
            <ns3:atemp>21.0</ns3:atemp>
          </ns3:TrackPointExtension>
        </extensions>
      </trkpt>
      <trkpt lat="42.557054422795772552490234375" lon="19.8047479055821895599365234375">
        <ele>969.4000244140625</ele>
        <time>2026-06-18T07:10:50.000Z</time>
        <extensions>
          <ns3:TrackPointExtension>
            <ns3:atemp>21.0</ns3:atemp>
          </ns3:TrackPointExtension>
        </extensions>
      </trkpt>
      <trkpt lat="42.55703321658074855804443359375" lon="19.80471814982593059539794921875">
        <ele>969.5999755859375</ele>
        <time>2026-06-18T07:10:51.000Z</time>
        <extensions>
          <ns3:TrackPointExtension>
            <ns3:atemp>21.0</ns3:atemp>
          </ns3:TrackPointExtension>
        </extensions>
      </trkpt>
      <trkpt lat="42.55701142363250255584716796875" lon="19.804686717689037322998046875">
        <ele>969.5999755859375</ele>
        <time>2026-06-18T07:10:52.000Z</time>
        <extensions>
          <ns3:TrackPointExtension>
            <ns3:atemp>21.0</ns3:atemp>
          </ns3:TrackPointExtension>
        </extensions>
      </trkpt>
      <trkpt lat="42.5569863617420196533203125" lon="19.80465360917150974273681640625">
        <ele>969.5999755859375</ele>
        <time>2026-06-18T07:10:53.000Z</time>
        <extensions>
          <ns3:TrackPointExtension>
            <ns3:atemp>21.0</ns3:atemp>
          </ns3:TrackPointExtension>
        </extensions>
      </trkpt>
      <trkpt lat="42.55696046166121959686279296875" lon="19.8046191595494747161865234375">
        <ele>969.79998779296875</ele>
        <time>2026-06-18T07:10:54.000Z</time>
        <extensions>
          <ns3:TrackPointExtension>
            <ns3:atemp>21.0</ns3:atemp>
          </ns3:TrackPointExtension>
        </extensions>
      </trkpt>
      <trkpt lat="42.55693607032299041748046875" lon="19.80458957143127918243408203125">
        <ele>969.79998779296875</ele>
        <time>2026-06-18T07:10:55.000Z</time>
        <extensions>
          <ns3:TrackPointExtension>
            <ns3:atemp>21.0</ns3:atemp>
          </ns3:TrackPointExtension>
        </extensions>
      </trkpt>
      <trkpt lat="42.5569114275276660919189453125" lon="19.80456040240824222564697265625">
        <ele>969.79998779296875</ele>
        <time>2026-06-18T07:10:56.000Z</time>
        <extensions>
          <ns3:TrackPointExtension>
            <ns3:atemp>21.0</ns3:atemp>
          </ns3:TrackPointExtension>
        </extensions>
      </trkpt>
      <trkpt lat="42.55688737146556377410888671875" lon="19.804528467357158660888671875">
        <ele>969.79998779296875</ele>
        <time>2026-06-18T07:10:57.000Z</time>
        <extensions>
          <ns3:TrackPointExtension>
            <ns3:atemp>21.0</ns3:atemp>
          </ns3:TrackPointExtension>
        </extensions>
      </trkpt>
      <trkpt lat="42.55686440505087375640869140625" lon="19.804493598639965057373046875">
        <ele>969.79998779296875</ele>
        <time>2026-06-18T07:10:58.000Z</time>
        <extensions>
          <ns3:TrackPointExtension>
            <ns3:atemp>21.0</ns3:atemp>
          </ns3:TrackPointExtension>
        </extensions>
      </trkpt>
      <trkpt lat="42.55684160627424716949462890625" lon="19.8044575564563274383544921875">
        <ele>969.79998779296875</ele>
        <time>2026-06-18T07:10:59.000Z</time>
        <extensions>
          <ns3:TrackPointExtension>
            <ns3:atemp>21.0</ns3:atemp>
          </ns3:TrackPointExtension>
        </extensions>
      </trkpt>
      <trkpt lat="42.556814365088939666748046875" lon="19.80442218482494354248046875">
        <ele>969.79998779296875</ele>
        <time>2026-06-18T07:11:00.000Z</time>
        <extensions>
          <ns3:TrackPointExtension>
            <ns3:atemp>21.0</ns3:atemp>
          </ns3:TrackPointExtension>
        </extensions>
      </trkpt>
      <trkpt lat="42.5567893870174884796142578125" lon="19.80438530445098876953125">
        <ele>969.79998779296875</ele>
        <time>2026-06-18T07:11:01.000Z</time>
        <extensions>
          <ns3:TrackPointExtension>
            <ns3:atemp>21.0</ns3:atemp>
          </ns3:TrackPointExtension>
        </extensions>
      </trkpt>
      <trkpt lat="42.55676700733602046966552734375" lon="19.80434834025800228118896484375">
        <ele>969.79998779296875</ele>
        <time>2026-06-18T07:11:02.000Z</time>
        <extensions>
          <ns3:TrackPointExtension>
            <ns3:atemp>21.0</ns3:atemp>
          </ns3:TrackPointExtension>
        </extensions>
      </trkpt>
      <trkpt lat="42.55674420855939388275146484375" lon="19.80431162752211093902587890625">
        <ele>969.79998779296875</ele>
        <time>2026-06-18T07:11:03.000Z</time>
        <extensions>
          <ns3:TrackPointExtension>
            <ns3:atemp>21.0</ns3:atemp>
          </ns3:TrackPointExtension>
        </extensions>
      </trkpt>
      <trkpt lat="42.55672140978276729583740234375" lon="19.804274328052997589111328125">
        <ele>969.79998779296875</ele>
        <time>2026-06-18T07:11:04.000Z</time>
        <extensions>
          <ns3:TrackPointExtension>
            <ns3:atemp>21.0</ns3:atemp>
          </ns3:TrackPointExtension>
        </extensions>
      </trkpt>
      <trkpt lat="42.5566995330154895782470703125" lon="19.8042362742125988006591796875">
        <ele>969.79998779296875</ele>
        <time>2026-06-18T07:11:05.000Z</time>
        <extensions>
          <ns3:TrackPointExtension>
            <ns3:atemp>21.0</ns3:atemp>
          </ns3:TrackPointExtension>
        </extensions>
      </trkpt>
      <trkpt lat="42.55667983554303646087646484375" lon="19.8041936941444873809814453125">
        <ele>969.79998779296875</ele>
        <time>2026-06-18T07:11:06.000Z</time>
        <extensions>
          <ns3:TrackPointExtension>
            <ns3:atemp>21.0</ns3:atemp>
          </ns3:TrackPointExtension>
        </extensions>
      </trkpt>
      <trkpt lat="42.55666340701282024383544921875" lon="19.8041531257331371307373046875">
        <ele>969.79998779296875</ele>
        <time>2026-06-18T07:11:07.000Z</time>
        <extensions>
          <ns3:TrackPointExtension>
            <ns3:atemp>21.0</ns3:atemp>
          </ns3:TrackPointExtension>
        </extensions>
      </trkpt>
      <trkpt lat="42.5566537678241729736328125" lon="19.804110713303089141845703125">
        <ele>969.79998779296875</ele>
        <time>2026-06-18T07:11:08.000Z</time>
        <extensions>
          <ns3:TrackPointExtension>
            <ns3:atemp>21.0</ns3:atemp>
          </ns3:TrackPointExtension>
        </extensions>
      </trkpt>
      <trkpt lat="42.5566465593874454498291015625" lon="19.80406402610242366790771484375">
        <ele>970</ele>
        <time>2026-06-18T07:11:09.000Z</time>
        <extensions>
          <ns3:TrackPointExtension>
            <ns3:atemp>21.0</ns3:atemp>
          </ns3:TrackPointExtension>
        </extensions>
      </trkpt>
      <trkpt lat="42.55663566291332244873046875" lon="19.8040200211107730865478515625">
        <ele>970</ele>
        <time>2026-06-18T07:11:10.000Z</time>
        <extensions>
          <ns3:TrackPointExtension>
            <ns3:atemp>21.0</ns3:atemp>
          </ns3:TrackPointExtension>
        </extensions>
      </trkpt>
      <trkpt lat="42.55662024021148681640625" lon="19.80397786013782024383544921875">
        <ele>970.20001220703125</ele>
        <time>2026-06-18T07:11:11.000Z</time>
        <extensions>
          <ns3:TrackPointExtension>
            <ns3:atemp>21.0</ns3:atemp>
          </ns3:TrackPointExtension>
        </extensions>
      </trkpt>
      <trkpt lat="42.55660003982484340667724609375" lon="19.80393712408840656280517578125">
        <ele>970.20001220703125</ele>
        <time>2026-06-18T07:11:12.000Z</time>
        <extensions>
          <ns3:TrackPointExtension>
            <ns3:atemp>21.0</ns3:atemp>
          </ns3:TrackPointExtension>
        </extensions>
      </trkpt>
      <trkpt lat="42.55657757632434368133544921875" lon="19.80389722622931003570556640625">
        <ele>970.20001220703125</ele>
        <time>2026-06-18T07:11:13.000Z</time>
        <extensions>
          <ns3:TrackPointExtension>
            <ns3:atemp>21.0</ns3:atemp>
          </ns3:TrackPointExtension>
        </extensions>
      </trkpt>
      <trkpt lat="42.55654958076775074005126953125" lon="19.80386286042630672454833984375">
        <ele>970.4000244140625</ele>
        <time>2026-06-18T07:11:14.000Z</time>
        <extensions>
          <ns3:TrackPointExtension>
            <ns3:atemp>21.0</ns3:atemp>
          </ns3:TrackPointExtension>
        </extensions>
      </trkpt>
      <trkpt lat="42.556522674858570098876953125" lon="19.803831763565540313720703125">
        <ele>970.4000244140625</ele>
        <time>2026-06-18T07:11:15.000Z</time>
        <extensions>
          <ns3:TrackPointExtension>
            <ns3:atemp>21.0</ns3:atemp>
          </ns3:TrackPointExtension>
        </extensions>
      </trkpt>
      <trkpt lat="42.55648948252201080322265625" lon="19.803800918161869049072265625">
        <ele>970.4000244140625</ele>
        <time>2026-06-18T07:11:16.000Z</time>
        <extensions>
          <ns3:TrackPointExtension>
            <ns3:atemp>21.0</ns3:atemp>
          </ns3:TrackPointExtension>
        </extensions>
      </trkpt>
      <trkpt lat="42.55645620636641979217529296875" lon="19.80377468280494213104248046875">
        <ele>970.5999755859375</ele>
        <time>2026-06-18T07:11:17.000Z</time>
        <extensions>
          <ns3:TrackPointExtension>
            <ns3:atemp>21.0</ns3:atemp>
          </ns3:TrackPointExtension>
        </extensions>
      </trkpt>
      <trkpt lat="42.5564225949347019195556640625" lon="19.8037536442279815673828125">
        <ele>970.5999755859375</ele>
        <time>2026-06-18T07:11:18.000Z</time>
        <extensions>
          <ns3:TrackPointExtension>
            <ns3:atemp>21.0</ns3:atemp>
          </ns3:TrackPointExtension>
        </extensions>
      </trkpt>
      <trkpt lat="42.55638889968395233154296875" lon="19.80373143218457698822021484375">
        <ele>970.5999755859375</ele>
        <time>2026-06-18T07:11:19.000Z</time>
        <extensions>
          <ns3:TrackPointExtension>
            <ns3:atemp>21.0</ns3:atemp>
          </ns3:TrackPointExtension>
        </extensions>
      </trkpt>
      <trkpt lat="42.556356377899646759033203125" lon="19.803709723055362701416015625">
        <ele>970.79998779296875</ele>
        <time>2026-06-18T07:11:20.000Z</time>
        <extensions>
          <ns3:TrackPointExtension>
            <ns3:atemp>21.0</ns3:atemp>
          </ns3:TrackPointExtension>
        </extensions>
      </trkpt>
      <trkpt lat="42.556322515010833740234375" lon="19.803685583174228668212890625">
        <ele>970.79998779296875</ele>
        <time>2026-06-18T07:11:21.000Z</time>
        <extensions>
          <ns3:TrackPointExtension>
            <ns3:atemp>21.0</ns3:atemp>
          </ns3:TrackPointExtension>
        </extensions>
      </trkpt>
      <trkpt lat="42.5562847964465618133544921875" lon="19.803658425807952880859375">
        <ele>971</ele>
        <time>2026-06-18T07:11:22.000Z</time>
        <extensions>
          <ns3:TrackPointExtension>
            <ns3:atemp>21.0</ns3:atemp>
          </ns3:TrackPointExtension>
        </extensions>
      </trkpt>
      <trkpt lat="42.55624816752970218658447265625" lon="19.80363135226070880889892578125">
        <ele>971.20001220703125</ele>
        <time>2026-06-18T07:11:23.000Z</time>
        <extensions>
          <ns3:TrackPointExtension>
            <ns3:atemp>21.0</ns3:atemp>
          </ns3:TrackPointExtension>
        </extensions>
      </trkpt>
      <trkpt lat="42.55621187388896942138671875" lon="19.8036056198179721832275390625">
        <ele>971.20001220703125</ele>
        <time>2026-06-18T07:11:24.000Z</time>
        <extensions>
          <ns3:TrackPointExtension>
            <ns3:atemp>21.0</ns3:atemp>
          </ns3:TrackPointExtension>
        </extensions>
      </trkpt>
      <trkpt lat="42.55617625080049037933349609375" lon="19.8035801388323307037353515625">
        <ele>971.20001220703125</ele>
        <time>2026-06-18T07:11:25.000Z</time>
        <extensions>
          <ns3:TrackPointExtension>
            <ns3:atemp>21.0</ns3:atemp>
          </ns3:TrackPointExtension>
        </extensions>
      </trkpt>
      <trkpt lat="42.55614322610199451446533203125" lon="19.80355390347540378570556640625">
        <ele>971.4000244140625</ele>
        <time>2026-06-18T07:11:26.000Z</time>
        <extensions>
          <ns3:TrackPointExtension>
            <ns3:atemp>21.0</ns3:atemp>
          </ns3:TrackPointExtension>
        </extensions>
      </trkpt>
      <trkpt lat="42.5561091117560863494873046875" lon="19.80352498590946197509765625">
        <ele>971.4000244140625</ele>
        <time>2026-06-18T07:11:27.000Z</time>
        <extensions>
          <ns3:TrackPointExtension>
            <ns3:atemp>21.0</ns3:atemp>
          </ns3:TrackPointExtension>
        </extensions>
      </trkpt>
      <trkpt lat="42.55607642233371734619140625" lon="19.80349623598158359527587890625">
        <ele>971.5999755859375</ele>
        <time>2026-06-18T07:11:28.000Z</time>
        <extensions>
          <ns3:TrackPointExtension>
            <ns3:atemp>21.0</ns3:atemp>
          </ns3:TrackPointExtension>
        </extensions>
      </trkpt>
      <trkpt lat="42.5560407154262065887451171875" lon="19.80346606113016605377197265625">
        <ele>971.79998779296875</ele>
        <time>2026-06-18T07:11:29.000Z</time>
        <extensions>
          <ns3:TrackPointExtension>
            <ns3:atemp>21.0</ns3:atemp>
          </ns3:TrackPointExtension>
        </extensions>
      </trkpt>
      <trkpt lat="42.55600794218480587005615234375" lon="19.80343638919293880462646484375">
        <ele>971.79998779296875</ele>
        <time>2026-06-18T07:11:30.000Z</time>
        <extensions>
          <ns3:TrackPointExtension>
            <ns3:atemp>21.0</ns3:atemp>
          </ns3:TrackPointExtension>
        </extensions>
      </trkpt>
      <trkpt lat="42.55597491748631000518798828125" lon="19.80340520851314067840576171875">
        <ele>972</ele>
        <time>2026-06-18T07:11:31.000Z</time>
        <extensions>
          <ns3:TrackPointExtension>
            <ns3:atemp>21.0</ns3:atemp>
          </ns3:TrackPointExtension>
        </extensions>
      </trkpt>
      <trkpt lat="42.5559441559016704559326171875" lon="19.80337017215788364410400390625">
        <ele>972</ele>
        <time>2026-06-18T07:11:32.000Z</time>
        <extensions>
          <ns3:TrackPointExtension>
            <ns3:atemp>21.0</ns3:atemp>
          </ns3:TrackPointExtension>
        </extensions>
      </trkpt>
      <trkpt lat="42.55591389723122119903564453125" lon="19.8033330403268337249755859375">
        <ele>972.20001220703125</ele>
        <time>2026-06-18T07:11:33.000Z</time>
        <extensions>
          <ns3:TrackPointExtension>
            <ns3:atemp>21.0</ns3:atemp>
          </ns3:TrackPointExtension>
        </extensions>
      </trkpt>
      <trkpt lat="42.5558844767510890960693359375" lon="19.8032938130199909210205078125">
        <ele>972.20001220703125</ele>
        <time>2026-06-18T07:11:34.000Z</time>
        <extensions>
          <ns3:TrackPointExtension>
            <ns3:atemp>21.0</ns3:atemp>
          </ns3:TrackPointExtension>
        </extensions>
      </trkpt>
      <trkpt lat="42.555856145918369293212890625" lon="19.80325249023735523223876953125">
        <ele>972.4000244140625</ele>
        <time>2026-06-18T07:11:35.000Z</time>
        <extensions>
          <ns3:TrackPointExtension>
            <ns3:atemp>21.0</ns3:atemp>
          </ns3:TrackPointExtension>
        </extensions>
      </trkpt>
      <trkpt lat="42.555829323828220367431640625" lon="19.80321326293051242828369140625">
        <ele>972.4000244140625</ele>
        <time>2026-06-18T07:11:36.000Z</time>
        <extensions>
          <ns3:TrackPointExtension>
            <ns3:atemp>21.0</ns3:atemp>
          </ns3:TrackPointExtension>
        </extensions>
      </trkpt>
      <trkpt lat="42.555805183947086334228515625" lon="19.80316967703402042388916015625">
        <ele>972.5999755859375</ele>
        <time>2026-06-18T07:11:37.000Z</time>
        <extensions>
          <ns3:TrackPointExtension>
            <ns3:atemp>21.0</ns3:atemp>
          </ns3:TrackPointExtension>
        </extensions>
      </trkpt>
      <trkpt lat="42.55577894859015941619873046875" lon="19.8031246662139892578125">
        <ele>972.79998779296875</ele>
        <time>2026-06-18T07:11:38.000Z</time>
        <extensions>
          <ns3:TrackPointExtension>
            <ns3:atemp>21.0</ns3:atemp>
          </ns3:TrackPointExtension>
        </extensions>
      </trkpt>
      <trkpt lat="42.5557557307183742523193359375" lon="19.80308116413652896881103515625">
        <ele>973</ele>
        <time>2026-06-18T07:11:39.000Z</time>
        <extensions>
          <ns3:TrackPointExtension>
            <ns3:atemp>21.0</ns3:atemp>
          </ns3:TrackPointExtension>
        </extensions>
      </trkpt>
      <trkpt lat="42.5557315908372402191162109375" lon="19.80303405784070491790771484375">
        <ele>973</ele>
        <time>2026-06-18T07:11:40.000Z</time>
        <extensions>
          <ns3:TrackPointExtension>
            <ns3:atemp>21.0</ns3:atemp>
          </ns3:TrackPointExtension>
        </extensions>
      </trkpt>
      <trkpt lat="42.5557061098515987396240234375" lon="19.802987538278102874755859375">
        <ele>973.20001220703125</ele>
        <time>2026-06-18T07:11:41.000Z</time>
        <extensions>
          <ns3:TrackPointExtension>
            <ns3:atemp>21.0</ns3:atemp>
          </ns3:TrackPointExtension>
        </extensions>
      </trkpt>
      <trkpt lat="42.55567811429500579833984375" lon="19.802941270172595977783203125">
        <ele>973.4000244140625</ele>
        <time>2026-06-18T07:11:42.000Z</time>
        <extensions>
          <ns3:TrackPointExtension>
            <ns3:atemp>21.0</ns3:atemp>
          </ns3:TrackPointExtension>
        </extensions>
      </trkpt>
      <trkpt lat="42.55564869381487369537353515625" lon="19.802901707589626312255859375">
        <ele>973.4000244140625</ele>
        <time>2026-06-18T07:11:43.000Z</time>
        <extensions>
          <ns3:TrackPointExtension>
            <ns3:atemp>21.0</ns3:atemp>
          </ns3:TrackPointExtension>
        </extensions>
      </trkpt>
      <trkpt lat="42.55561583675444126129150390625" lon="19.802865497767925262451171875">
        <ele>973.4000244140625</ele>
        <time>2026-06-18T07:11:44.000Z</time>
        <extensions>
          <ns3:TrackPointExtension>
            <ns3:atemp>21.0</ns3:atemp>
          </ns3:TrackPointExtension>
        </extensions>
      </trkpt>
      <trkpt lat="42.5555844046175479888916015625" lon="19.8028307966887950897216796875">
        <ele>973.5999755859375</ele>
        <time>2026-06-18T07:11:45.000Z</time>
        <extensions>
          <ns3:TrackPointExtension>
            <ns3:atemp>21.0</ns3:atemp>
          </ns3:TrackPointExtension>
        </extensions>
      </trkpt>
      <trkpt lat="42.5555502064526081085205078125" lon="19.80279601179063320159912109375">
        <ele>973.5999755859375</ele>
        <time>2026-06-18T07:11:46.000Z</time>
        <extensions>
          <ns3:TrackPointExtension>
            <ns3:atemp>21.0</ns3:atemp>
          </ns3:TrackPointExtension>
        </extensions>
      </trkpt>
      <trkpt lat="42.5555166788399219512939453125" lon="19.80276399292051792144775390625">
        <ele>973.5999755859375</ele>
        <time>2026-06-18T07:11:47.000Z</time>
        <extensions>
          <ns3:TrackPointExtension>
            <ns3:atemp>21.0</ns3:atemp>
          </ns3:TrackPointExtension>
        </extensions>
      </trkpt>
      <trkpt lat="42.5554824806749820709228515625" lon="19.8027308844029903411865234375">
        <ele>973.79998779296875</ele>
        <time>2026-06-18T07:11:48.000Z</time>
        <extensions>
          <ns3:TrackPointExtension>
            <ns3:atemp>21.0</ns3:atemp>
          </ns3:TrackPointExtension>
        </extensions>
      </trkpt>
      <trkpt lat="42.55544953979551792144775390625" lon="19.8026970215141773223876953125">
        <ele>973.79998779296875</ele>
        <time>2026-06-18T07:11:49.000Z</time>
        <extensions>
          <ns3:TrackPointExtension>
            <ns3:atemp>21.0</ns3:atemp>
          </ns3:TrackPointExtension>
        </extensions>
      </trkpt>
      <trkpt lat="42.55541383288800716400146484375" lon="19.80266609229147434234619140625">
        <ele>974</ele>
        <time>2026-06-18T07:11:50.000Z</time>
        <extensions>
          <ns3:TrackPointExtension>
            <ns3:atemp>21.0</ns3:atemp>
          </ns3:TrackPointExtension>
        </extensions>
      </trkpt>
      <trkpt lat="42.55537594668567180633544921875" lon="19.80263650417327880859375">
        <ele>974</ele>
        <time>2026-06-18T07:11:51.000Z</time>
        <extensions>
          <ns3:TrackPointExtension>
            <ns3:atemp>21.0</ns3:atemp>
          </ns3:TrackPointExtension>
        </extensions>
      </trkpt>
      <trkpt lat="42.5553393177688121795654296875" lon="19.802609346807003021240234375">
        <ele>974.20001220703125</ele>
        <time>2026-06-18T07:11:52.000Z</time>
        <extensions>
          <ns3:TrackPointExtension>
            <ns3:atemp>21.0</ns3:atemp>
          </ns3:TrackPointExtension>
        </extensions>
      </trkpt>
      <trkpt lat="42.55530252121388912200927734375" lon="19.802581183612346649169921875">
        <ele>974.20001220703125</ele>
        <time>2026-06-18T07:11:53.000Z</time>
        <extensions>
          <ns3:TrackPointExtension>
            <ns3:atemp>21.0</ns3:atemp>
          </ns3:TrackPointExtension>
        </extensions>
      </trkpt>
      <trkpt lat="42.5552652217447757720947265625" lon="19.80255461297929286956787109375">
        <ele>974.20001220703125</ele>
        <time>2026-06-18T07:11:54.000Z</time>
        <extensions>
          <ns3:TrackPointExtension>
            <ns3:atemp>21.0</ns3:atemp>
          </ns3:TrackPointExtension>
        </extensions>
      </trkpt>
      <trkpt lat="42.55522591061890125274658203125" lon="19.80253047309815883636474609375">
        <ele>974.4000244140625</ele>
        <time>2026-06-18T07:11:55.000Z</time>
        <extensions>
          <ns3:TrackPointExtension>
            <ns3:atemp>21.0</ns3:atemp>
          </ns3:TrackPointExtension>
        </extensions>
      </trkpt>
      <trkpt lat="42.555186264216899871826171875" lon="19.802506081759929656982421875">
        <ele>974.4000244140625</ele>
        <time>2026-06-18T07:11:56.000Z</time>
        <extensions>
          <ns3:TrackPointExtension>
            <ns3:atemp>21.0</ns3:atemp>
          </ns3:TrackPointExtension>
        </extensions>
      </trkpt>
      <trkpt lat="42.55514795891940593719482421875" lon="19.8024800978600978851318359375">
        <ele>974.5999755859375</ele>
        <time>2026-06-18T07:11:57.000Z</time>
        <extensions>
          <ns3:TrackPointExtension>
            <ns3:atemp>21.0</ns3:atemp>
          </ns3:TrackPointExtension>
        </extensions>
      </trkpt>
      <trkpt lat="42.5551073066890239715576171875" lon="19.80245436541736125946044921875">
        <ele>974.5999755859375</ele>
        <time>2026-06-18T07:11:58.000Z</time>
        <extensions>
          <ns3:TrackPointExtension>
            <ns3:atemp>21.0</ns3:atemp>
          </ns3:TrackPointExtension>
        </extensions>
      </trkpt>
      <trkpt lat="42.55506866611540317535400390625" lon="19.80242469348013401031494140625">
        <ele>974.79998779296875</ele>
        <time>2026-06-18T07:11:59.000Z</time>
        <extensions>
          <ns3:TrackPointExtension>
            <ns3:atemp>21.0</ns3:atemp>
          </ns3:TrackPointExtension>
        </extensions>
      </trkpt>
      <trkpt lat="42.55503295920789241790771484375" lon="19.80239351280033588409423828125">
        <ele>974.79998779296875</ele>
        <time>2026-06-18T07:12:00.000Z</time>
        <extensions>
          <ns3:TrackPointExtension>
            <ns3:atemp>21.0</ns3:atemp>
          </ns3:TrackPointExtension>
        </extensions>
      </trkpt>
      <trkpt lat="42.554999850690364837646484375" lon="19.80236149393022060394287109375">
        <ele>975</ele>
        <time>2026-06-18T07:12:01.000Z</time>
        <extensions>
          <ns3:TrackPointExtension>
            <ns3:atemp>21.0</ns3:atemp>
          </ns3:TrackPointExtension>
        </extensions>
      </trkpt>
      <trkpt lat="42.55497135221958160400390625" lon="19.802327044308185577392578125">
        <ele>975</ele>
        <time>2026-06-18T07:12:02.000Z</time>
        <extensions>
          <ns3:TrackPointExtension>
            <ns3:atemp>21.0</ns3:atemp>
          </ns3:TrackPointExtension>
        </extensions>
      </trkpt>
      <trkpt lat="42.55494662560522556304931640625" lon="19.80229410342872142791748046875">
        <ele>975.20001220703125</ele>
        <time>2026-06-18T07:12:03.000Z</time>
        <extensions>
          <ns3:TrackPointExtension>
            <ns3:atemp>21.0</ns3:atemp>
          </ns3:TrackPointExtension>
        </extensions>
      </trkpt>
      <trkpt lat="42.5549249164760112762451171875" lon="19.80226275511085987091064453125">
        <ele>975.20001220703125</ele>
        <time>2026-06-18T07:12:04.000Z</time>
        <extensions>
          <ns3:TrackPointExtension>
            <ns3:atemp>21.0</ns3:atemp>
          </ns3:TrackPointExtension>
        </extensions>
      </trkpt>
      <trkpt lat="42.554901279509067535400390625" lon="19.8022301495075225830078125">
        <ele>975.5999755859375</ele>
        <time>2026-06-18T07:12:05.000Z</time>
        <extensions>
          <ns3:TrackPointExtension>
            <ns3:atemp>21.0</ns3:atemp>
          </ns3:TrackPointExtension>
        </extensions>
      </trkpt>
      <trkpt lat="42.55487923510372638702392578125" lon="19.80220056138932704925537109375">
        <ele>975.5999755859375</ele>
        <time>2026-06-18T07:12:06.000Z</time>
        <extensions>
          <ns3:TrackPointExtension>
            <ns3:atemp>21.0</ns3:atemp>
          </ns3:TrackPointExtension>
        </extensions>
      </trkpt>
      <trkpt lat="42.5548571906983852386474609375" lon="19.80217206291854381561279296875">
        <ele>975.79998779296875</ele>
        <time>2026-06-18T07:12:07.000Z</time>
        <extensions>
          <ns3:TrackPointExtension>
            <ns3:atemp>21.0</ns3:atemp>
          </ns3:TrackPointExtension>
        </extensions>
      </trkpt>
      <trkpt lat="42.5548353977501392364501953125" lon="19.8021434806287288665771484375">
        <ele>976</ele>
        <time>2026-06-18T07:12:08.000Z</time>
        <extensions>
          <ns3:TrackPointExtension>
            <ns3:atemp>21.0</ns3:atemp>
          </ns3:TrackPointExtension>
        </extensions>
      </trkpt>
      <trkpt lat="42.55481234751641750335693359375" lon="19.8021139763295650482177734375">
        <ele>976.20001220703125</ele>
        <time>2026-06-18T07:12:09.000Z</time>
        <extensions>
          <ns3:TrackPointExtension>
            <ns3:atemp>21.0</ns3:atemp>
          </ns3:TrackPointExtension>
        </extensions>
      </trkpt>
      <trkpt lat="42.5547871179878711700439453125" lon="19.80208422057330608367919921875">
        <ele>976.20001220703125</ele>
        <time>2026-06-18T07:12:10.000Z</time>
        <extensions>
          <ns3:TrackPointExtension>
            <ns3:atemp>21.0</ns3:atemp>
          </ns3:TrackPointExtension>
        </extensions>
      </trkpt>
      <trkpt lat="42.55476054735481739044189453125" lon="19.8020553030073642730712890625">
        <ele>976.4000244140625</ele>
        <time>2026-06-18T07:12:11.000Z</time>
        <extensions>
          <ns3:TrackPointExtension>
            <ns3:atemp>21.0</ns3:atemp>
          </ns3:TrackPointExtension>
        </extensions>
      </trkpt>
      <trkpt lat="42.5547348149120807647705078125" lon="19.80202403850853443145751953125">
        <ele>976.5999755859375</ele>
        <time>2026-06-18T07:12:12.000Z</time>
        <extensions>
          <ns3:TrackPointExtension>
            <ns3:atemp>21.0</ns3:atemp>
          </ns3:TrackPointExtension>
        </extensions>
      </trkpt>
      <trkpt lat="42.55471109412610530853271484375" lon="19.80198866687715053558349609375">
        <ele>976.5999755859375</ele>
        <time>2026-06-18T07:12:13.000Z</time>
        <extensions>
          <ns3:TrackPointExtension>
            <ns3:atemp>21.0</ns3:atemp>
          </ns3:TrackPointExtension>
        </extensions>
      </trkpt>
      <trkpt lat="42.554689384996891021728515625" lon="19.80194960720837116241455078125">
        <ele>976.5999755859375</ele>
        <time>2026-06-18T07:12:14.000Z</time>
        <extensions>
          <ns3:TrackPointExtension>
            <ns3:atemp>21.0</ns3:atemp>
          </ns3:TrackPointExtension>
        </extensions>
      </trkpt>
      <trkpt lat="42.5546694360673427581787109375" lon="19.80191255919635295867919921875">
        <ele>976.79998779296875</ele>
        <time>2026-06-18T07:12:15.000Z</time>
        <extensions>
          <ns3:TrackPointExtension>
            <ns3:atemp>21.0</ns3:atemp>
          </ns3:TrackPointExtension>
        </extensions>
      </trkpt>
      <trkpt lat="42.55464890040457248687744140625" lon="19.80187810957431793212890625">
        <ele>976.79998779296875</ele>
        <time>2026-06-18T07:12:16.000Z</time>
        <extensions>
          <ns3:TrackPointExtension>
            <ns3:atemp>21.0</ns3:atemp>
          </ns3:TrackPointExtension>
        </extensions>
      </trkpt>
      <trkpt lat="42.5546288676559925079345703125" lon="19.80184332467615604400634765625">
        <ele>977</ele>
        <time>2026-06-18T07:12:17.000Z</time>
        <extensions>
          <ns3:TrackPointExtension>
            <ns3:atemp>21.0</ns3:atemp>
          </ns3:TrackPointExtension>
        </extensions>
      </trkpt>
      <trkpt lat="42.5546085834503173828125" lon="19.801805019378662109375">
        <ele>977.20001220703125</ele>
        <time>2026-06-18T07:12:18.000Z</time>
        <extensions>
          <ns3:TrackPointExtension>
            <ns3:atemp>21.0</ns3:atemp>
          </ns3:TrackPointExtension>
        </extensions>
      </trkpt>
      <trkpt lat="42.5545872934162616729736328125" lon="19.80177341960370540618896484375">
        <ele>977.20001220703125</ele>
        <time>2026-06-18T07:12:19.000Z</time>
        <extensions>
          <ns3:TrackPointExtension>
            <ns3:atemp>21.0</ns3:atemp>
          </ns3:TrackPointExtension>
        </extensions>
      </trkpt>
      <trkpt lat="42.5545648299157619476318359375" lon="19.80173905380070209503173828125">
        <ele>977.4000244140625</ele>
        <time>2026-06-18T07:12:20.000Z</time>
        <extensions>
          <ns3:TrackPointExtension>
            <ns3:atemp>21.0</ns3:atemp>
          </ns3:TrackPointExtension>
        </extensions>
      </trkpt>
      <trkpt lat="42.55453557707369327545166015625" lon="19.8017052747309207916259765625">
        <ele>977.5999755859375</ele>
        <time>2026-06-18T07:12:21.000Z</time>
        <extensions>
          <ns3:TrackPointExtension>
            <ns3:atemp>21.0</ns3:atemp>
          </ns3:TrackPointExtension>
        </extensions>
      </trkpt>
      <trkpt lat="42.55450733006000518798828125" lon="19.80167292058467864990234375">
        <ele>977.79998779296875</ele>
        <time>2026-06-18T07:12:22.000Z</time>
        <extensions>
          <ns3:TrackPointExtension>
            <ns3:atemp>21.0</ns3:atemp>
          </ns3:TrackPointExtension>
        </extensions>
      </trkpt>
      <trkpt lat="42.5544789992272853851318359375" lon="19.80163880623877048492431640625">
        <ele>977.79998779296875</ele>
        <time>2026-06-18T07:12:23.000Z</time>
        <extensions>
          <ns3:TrackPointExtension>
            <ns3:atemp>21.0</ns3:atemp>
          </ns3:TrackPointExtension>
        </extensions>
      </trkpt>
      <trkpt lat="42.55445100367069244384765625" lon="19.80160309933125972747802734375">
        <ele>978</ele>
        <time>2026-06-18T07:12:24.000Z</time>
        <extensions>
          <ns3:TrackPointExtension>
            <ns3:atemp>21.0</ns3:atemp>
          </ns3:TrackPointExtension>
        </extensions>
      </trkpt>
      <trkpt lat="42.55442091263830661773681640625" lon="19.80156655423343181610107421875">
        <ele>978</ele>
        <time>2026-06-18T07:12:25.000Z</time>
        <extensions>
          <ns3:TrackPointExtension>
            <ns3:atemp>21.0</ns3:atemp>
          </ns3:TrackPointExtension>
        </extensions>
      </trkpt>
      <trkpt lat="42.554394342005252838134765625" lon="19.80153369717299938201904296875">
        <ele>978.20001220703125</ele>
        <time>2026-06-18T07:12:26.000Z</time>
        <extensions>
          <ns3:TrackPointExtension>
            <ns3:atemp>21.0</ns3:atemp>
          </ns3:TrackPointExtension>
        </extensions>
      </trkpt>
      <trkpt lat="42.55436609499156475067138671875" lon="19.801500253379344940185546875">
        <ele>978.4000244140625</ele>
        <time>2026-06-18T07:12:27.000Z</time>
        <extensions>
          <ns3:TrackPointExtension>
            <ns3:atemp>21.0</ns3:atemp>
          </ns3:TrackPointExtension>
        </extensions>
      </trkpt>
      <trkpt lat="42.554338015615940093994140625" lon="19.8014724254608154296875">
        <ele>978.5999755859375</ele>
        <time>2026-06-18T07:12:28.000Z</time>
        <extensions>
          <ns3:TrackPointExtension>
            <ns3:atemp>21.0</ns3:atemp>
          </ns3:TrackPointExtension>
        </extensions>
      </trkpt>
      <trkpt lat="42.55430859513580799102783203125" lon="19.8014467768371105194091796875">
        <ele>978.79998779296875</ele>
        <time>2026-06-18T07:12:29.000Z</time>
        <extensions>
          <ns3:TrackPointExtension>
            <ns3:atemp>21.0</ns3:atemp>
          </ns3:TrackPointExtension>
        </extensions>
      </trkpt>
      <trkpt lat="42.55427531898021697998046875" lon="19.80142238549888134002685546875">
        <ele>979</ele>
        <time>2026-06-18T07:12:30.000Z</time>
        <extensions>
          <ns3:TrackPointExtension>
            <ns3:atemp>21.0</ns3:atemp>
          </ns3:TrackPointExtension>
        </extensions>
      </trkpt>
      <trkpt lat="42.5542422942817211151123046875" lon="19.80139154009521007537841796875">
        <ele>979.20001220703125</ele>
        <time>2026-06-18T07:12:31.000Z</time>
        <extensions>
          <ns3:TrackPointExtension>
            <ns3:atemp>21.0</ns3:atemp>
          </ns3:TrackPointExtension>
        </extensions>
      </trkpt>
      <trkpt lat="42.554205246269702911376953125" lon="19.80135818012058734893798828125">
        <ele>979.4000244140625</ele>
        <time>2026-06-18T07:12:32.000Z</time>
        <extensions>
          <ns3:TrackPointExtension>
            <ns3:atemp>21.0</ns3:atemp>
          </ns3:TrackPointExtension>
        </extensions>
      </trkpt>
      <trkpt lat="42.55416794680058956146240234375" lon="19.80131928808987140655517578125">
        <ele>979.5999755859375</ele>
        <time>2026-06-18T07:12:33.000Z</time>
        <extensions>
          <ns3:TrackPointExtension>
            <ns3:atemp>21.0</ns3:atemp>
          </ns3:TrackPointExtension>
        </extensions>
      </trkpt>
      <trkpt lat="42.55413182079792022705078125" lon="19.8012774623930454254150390625">
        <ele>979.4000244140625</ele>
        <time>2026-06-18T07:12:34.000Z</time>
        <extensions>
          <ns3:TrackPointExtension>
            <ns3:atemp>21.0</ns3:atemp>
          </ns3:TrackPointExtension>
        </extensions>
      </trkpt>
      <trkpt lat="42.5540922582149505615234375" lon="19.8012350499629974365234375">
        <ele>979.4000244140625</ele>
        <time>2026-06-18T07:12:35.000Z</time>
        <extensions>
          <ns3:TrackPointExtension>
            <ns3:atemp>21.0</ns3:atemp>
          </ns3:TrackPointExtension>
        </extensions>
      </trkpt>
      <trkpt lat="42.55405311472713947296142578125" lon="19.80119439773261547088623046875">
        <ele>979.4000244140625</ele>
        <time>2026-06-18T07:12:36.000Z</time>
        <extensions>
          <ns3:TrackPointExtension>
            <ns3:atemp>21.0</ns3:atemp>
          </ns3:TrackPointExtension>
        </extensions>
      </trkpt>
      <trkpt lat="42.55401439033448696136474609375" lon="19.8011577688157558441162109375">
        <ele>979.4000244140625</ele>
        <time>2026-06-18T07:12:37.000Z</time>
        <extensions>
          <ns3:TrackPointExtension>
            <ns3:atemp>21.0</ns3:atemp>
          </ns3:TrackPointExtension>
        </extensions>
      </trkpt>
      <trkpt lat="42.5539784319698810577392578125" lon="19.80112080462276935577392578125">
        <ele>979.4000244140625</ele>
        <time>2026-06-18T07:12:38.000Z</time>
        <extensions>
          <ns3:TrackPointExtension>
            <ns3:atemp>21.0</ns3:atemp>
          </ns3:TrackPointExtension>
        </extensions>
      </trkpt>
      <trkpt lat="42.553943060338497161865234375" lon="19.80108308605849742889404296875">
        <ele>979.5999755859375</ele>
        <time>2026-06-18T07:12:39.000Z</time>
        <extensions>
          <ns3:TrackPointExtension>
            <ns3:atemp>21.0</ns3:atemp>
          </ns3:TrackPointExtension>
        </extensions>
      </trkpt>
      <trkpt lat="42.55390777252614498138427734375" lon="19.80104872025549411773681640625">
        <ele>979.5999755859375</ele>
        <time>2026-06-18T07:12:40.000Z</time>
        <extensions>
          <ns3:TrackPointExtension>
            <ns3:atemp>21.0</ns3:atemp>
          </ns3:TrackPointExtension>
        </extensions>
      </trkpt>
      <trkpt lat="42.553872652351856231689453125" lon="19.801018126308917999267578125">
        <ele>979.79998779296875</ele>
        <time>2026-06-18T07:12:41.000Z</time>
        <extensions>
          <ns3:TrackPointExtension>
            <ns3:atemp>21.0</ns3:atemp>
          </ns3:TrackPointExtension>
        </extensions>
      </trkpt>
      <trkpt lat="42.55383870564401149749755859375" lon="19.80098091065883636474609375">
        <ele>980</ele>
        <time>2026-06-18T07:12:42.000Z</time>
        <extensions>
          <ns3:TrackPointExtension>
            <ns3:atemp>21.0</ns3:atemp>
          </ns3:TrackPointExtension>
        </extensions>
      </trkpt>
      <trkpt lat="42.55380568094551563262939453125" lon="19.8009421862661838531494140625">
        <ele>980</ele>
        <time>2026-06-18T07:12:43.000Z</time>
        <extensions>
          <ns3:TrackPointExtension>
            <ns3:atemp>21.0</ns3:atemp>
          </ns3:TrackPointExtension>
        </extensions>
      </trkpt>
      <trkpt lat="42.55377416498959064483642578125" lon="19.8009049706161022186279296875">
        <ele>980.4000244140625</ele>
        <time>2026-06-18T07:12:44.000Z</time>
        <extensions>
          <ns3:TrackPointExtension>
            <ns3:atemp>21.0</ns3:atemp>
          </ns3:TrackPointExtension>
        </extensions>
      </trkpt>
      <trkpt lat="42.55374491214752197265625" lon="19.80086649768054485321044921875">
        <ele>980.4000244140625</ele>
        <time>2026-06-18T07:12:45.000Z</time>
        <extensions>
          <ns3:TrackPointExtension>
            <ns3:atemp>21.0</ns3:atemp>
          </ns3:TrackPointExtension>
        </extensions>
      </trkpt>
      <trkpt lat="42.5537138991057872772216796875" lon="19.800827689468860626220703125">
        <ele>980.5999755859375</ele>
        <time>2026-06-18T07:12:46.000Z</time>
        <extensions>
          <ns3:TrackPointExtension>
            <ns3:atemp>21.0</ns3:atemp>
          </ns3:TrackPointExtension>
        </extensions>
      </trkpt>
      <trkpt lat="42.55368229933083057403564453125" lon="19.8007939942181110382080078125">
        <ele>980.79998779296875</ele>
        <time>2026-06-18T07:12:47.000Z</time>
        <extensions>
          <ns3:TrackPointExtension>
            <ns3:atemp>21.0</ns3:atemp>
          </ns3:TrackPointExtension>
        </extensions>
      </trkpt>
      <trkpt lat="42.5536481849849224090576171875" lon="19.80075971223413944244384765625">
        <ele>981</ele>
        <time>2026-06-18T07:12:48.000Z</time>
        <extensions>
          <ns3:TrackPointExtension>
            <ns3:atemp>21.0</ns3:atemp>
          </ns3:TrackPointExtension>
        </extensions>
      </trkpt>
      <trkpt lat="42.55361306481063365936279296875" lon="19.80072207748889923095703125">
        <ele>981</ele>
        <time>2026-06-18T07:12:49.000Z</time>
        <extensions>
          <ns3:TrackPointExtension>
            <ns3:atemp>21.0</ns3:atemp>
          </ns3:TrackPointExtension>
        </extensions>
      </trkpt>
      <trkpt lat="42.55357685498893260955810546875" lon="19.800683520734310150146484375">
        <ele>981.20001220703125</ele>
        <time>2026-06-18T07:12:50.000Z</time>
        <extensions>
          <ns3:TrackPointExtension>
            <ns3:atemp>21.0</ns3:atemp>
          </ns3:TrackPointExtension>
        </extensions>
      </trkpt>
      <trkpt lat="42.553541399538516998291015625" lon="19.8006478138267993927001953125">
        <ele>981.20001220703125</ele>
        <time>2026-06-18T07:12:51.000Z</time>
        <extensions>
          <ns3:TrackPointExtension>
            <ns3:atemp>21.0</ns3:atemp>
          </ns3:TrackPointExtension>
        </extensions>
      </trkpt>
      <trkpt lat="42.5535026751458644866943359375" lon="19.800619147717952728271484375">
        <ele>981.20001220703125</ele>
        <time>2026-06-18T07:12:52.000Z</time>
        <extensions>
          <ns3:TrackPointExtension>
            <ns3:atemp>21.0</ns3:atemp>
          </ns3:TrackPointExtension>
        </extensions>
      </trkpt>
      <trkpt lat="42.55346436984837055206298828125" lon="19.80059056542813777923583984375">
        <ele>981.20001220703125</ele>
        <time>2026-06-18T07:12:53.000Z</time>
        <extensions>
          <ns3:TrackPointExtension>
            <ns3:atemp>21.0</ns3:atemp>
          </ns3:TrackPointExtension>
        </extensions>
      </trkpt>
      <trkpt lat="42.55342514254152774810791015625" lon="19.80056575499475002288818359375">
        <ele>981.20001220703125</ele>
        <time>2026-06-18T07:12:54.000Z</time>
        <extensions>
          <ns3:TrackPointExtension>
            <ns3:atemp>21.0</ns3:atemp>
          </ns3:TrackPointExtension>
        </extensions>
      </trkpt>
      <trkpt lat="42.55338557995855808258056640625" lon="19.8005430400371551513671875">
        <ele>981.4000244140625</ele>
        <time>2026-06-18T07:12:55.000Z</time>
        <extensions>
          <ns3:TrackPointExtension>
            <ns3:atemp>21.0</ns3:atemp>
          </ns3:TrackPointExtension>
        </extensions>
      </trkpt>
      <trkpt lat="42.553344927728176116943359375" lon="19.8005261085927486419677734375">
        <ele>981.4000244140625</ele>
        <time>2026-06-18T07:12:56.000Z</time>
        <extensions>
          <ns3:TrackPointExtension>
            <ns3:atemp>21.0</ns3:atemp>
          </ns3:TrackPointExtension>
        </extensions>
      </trkpt>
      <trkpt lat="42.553302347660064697265625" lon="19.80050959624350070953369140625">
        <ele>981.4000244140625</ele>
        <time>2026-06-18T07:12:57.000Z</time>
        <extensions>
          <ns3:TrackPointExtension>
            <ns3:atemp>21.0</ns3:atemp>
          </ns3:TrackPointExtension>
        </extensions>
      </trkpt>
      <trkpt lat="42.55326236598193645477294921875" lon="19.800490401685237884521484375">
        <ele>981.4000244140625</ele>
        <time>2026-06-18T07:12:58.000Z</time>
        <extensions>
          <ns3:TrackPointExtension>
            <ns3:atemp>21.0</ns3:atemp>
          </ns3:TrackPointExtension>
        </extensions>
      </trkpt>
      <trkpt lat="42.55321995355188846588134765625" lon="19.80047263205051422119140625">
        <ele>981.4000244140625</ele>
        <time>2026-06-18T07:12:59.000Z</time>
        <extensions>
          <ns3:TrackPointExtension>
            <ns3:atemp>21.0</ns3:atemp>
          </ns3:TrackPointExtension>
        </extensions>
      </trkpt>
      <trkpt lat="42.55317888222634792327880859375" lon="19.80045343749225139617919921875">
        <ele>981.4000244140625</ele>
        <time>2026-06-18T07:13:00.000Z</time>
        <extensions>
          <ns3:TrackPointExtension>
            <ns3:atemp>21.0</ns3:atemp>
          </ns3:TrackPointExtension>
        </extensions>
      </trkpt>
      <trkpt lat="42.55313764326274394989013671875" lon="19.8004345782101154327392578125">
        <ele>981.4000244140625</ele>
        <time>2026-06-18T07:13:01.000Z</time>
        <extensions>
          <ns3:TrackPointExtension>
            <ns3:atemp>21.0</ns3:atemp>
          </ns3:TrackPointExtension>
        </extensions>
      </trkpt>
      <trkpt lat="42.55309992469847202301025390625" lon="19.80041555128991603851318359375">
        <ele>981.5999755859375</ele>
        <time>2026-06-18T07:13:02.000Z</time>
        <extensions>
          <ns3:TrackPointExtension>
            <ns3:atemp>21.0</ns3:atemp>
          </ns3:TrackPointExtension>
        </extensions>
      </trkpt>
      <trkpt lat="42.55306002683937549591064453125" lon="19.80039945803582668304443359375">
        <ele>981.5999755859375</ele>
        <time>2026-06-18T07:13:03.000Z</time>
        <extensions>
          <ns3:TrackPointExtension>
            <ns3:atemp>21.0</ns3:atemp>
          </ns3:TrackPointExtension>
        </extensions>
      </trkpt>
      <trkpt lat="42.55302004516124725341796875" lon="19.80038872919976711273193359375">
        <ele>981.79998779296875</ele>
        <time>2026-06-18T07:13:04.000Z</time>
        <extensions>
          <ns3:TrackPointExtension>
            <ns3:atemp>21.0</ns3:atemp>
          </ns3:TrackPointExtension>
        </extensions>
      </trkpt>
      <trkpt lat="42.55298023112118244171142578125" lon="19.800380431115627288818359375">
        <ele>982</ele>
        <time>2026-06-18T07:13:05.000Z</time>
        <extensions>
          <ns3:TrackPointExtension>
            <ns3:atemp>21.0</ns3:atemp>
          </ns3:TrackPointExtension>
        </extensions>
      </trkpt>
      <trkpt lat="42.55293865688145160675048828125" lon="19.80037347413599491119384765625">
        <ele>982.4000244140625</ele>
        <time>2026-06-18T07:13:06.000Z</time>
        <extensions>
          <ns3:TrackPointExtension>
            <ns3:atemp>21.0</ns3:atemp>
          </ns3:TrackPointExtension>
        </extensions>
      </trkpt>
      <trkpt lat="42.55289490334689617156982421875" lon="19.80036542750895023345947265625">
        <ele>982.4000244140625</ele>
        <time>2026-06-18T07:13:07.000Z</time>
        <extensions>
          <ns3:TrackPointExtension>
            <ns3:atemp>21.0</ns3:atemp>
          </ns3:TrackPointExtension>
        </extensions>
      </trkpt>
      <trkpt lat="42.55285106599330902099609375" lon="19.80036090128123760223388671875">
        <ele>982.5999755859375</ele>
        <time>2026-06-18T07:13:08.000Z</time>
        <extensions>
          <ns3:TrackPointExtension>
            <ns3:atemp>21.0</ns3:atemp>
          </ns3:TrackPointExtension>
        </extensions>
      </trkpt>
      <trkpt lat="42.5528056360781192779541015625" lon="19.80035520158708095550537109375">
        <ele>982.5999755859375</ele>
        <time>2026-06-18T07:13:09.000Z</time>
        <extensions>
          <ns3:TrackPointExtension>
            <ns3:atemp>21.0</ns3:atemp>
          </ns3:TrackPointExtension>
        </extensions>
      </trkpt>
      <trkpt lat="42.55275852978229522705078125" lon="19.80035067535936832427978515625">
        <ele>982.5999755859375</ele>
        <time>2026-06-18T07:13:10.000Z</time>
        <extensions>
          <ns3:TrackPointExtension>
            <ns3:atemp>21.0</ns3:atemp>
          </ns3:TrackPointExtension>
        </extensions>
      </trkpt>
      <trkpt lat="42.552712261676788330078125" lon="19.80034262873232364654541015625">
        <ele>982.5999755859375</ele>
        <time>2026-06-18T07:13:11.000Z</time>
        <extensions>
          <ns3:TrackPointExtension>
            <ns3:atemp>21.0</ns3:atemp>
          </ns3:TrackPointExtension>
        </extensions>
      </trkpt>
      <trkpt lat="42.55266641266644001007080078125" lon="19.80033977888524532318115234375">
        <ele>982.5999755859375</ele>
        <time>2026-06-18T07:13:12.000Z</time>
        <extensions>
          <ns3:TrackPointExtension>
            <ns3:atemp>21.0</ns3:atemp>
          </ns3:TrackPointExtension>
        </extensions>
      </trkpt>
      <trkpt lat="42.55261830054223537445068359375" lon="19.800334833562374114990234375">
        <ele>982.5999755859375</ele>
        <time>2026-06-18T07:13:13.000Z</time>
        <extensions>
          <ns3:TrackPointExtension>
            <ns3:atemp>21.0</ns3:atemp>
          </ns3:TrackPointExtension>
        </extensions>
      </trkpt>
      <trkpt lat="42.55256951786577701568603515625" lon="19.800330139696598052978515625">
        <ele>982.5999755859375</ele>
        <time>2026-06-18T07:13:14.000Z</time>
        <extensions>
          <ns3:TrackPointExtension>
            <ns3:atemp>21.0</ns3:atemp>
          </ns3:TrackPointExtension>
        </extensions>
      </trkpt>
      <trkpt lat="42.55252291448414325714111328125" lon="19.80032737366855144500732421875">
        <ele>982.4000244140625</ele>
        <time>2026-06-18T07:13:15.000Z</time>
        <extensions>
          <ns3:TrackPointExtension>
            <ns3:atemp>21.0</ns3:atemp>
          </ns3:TrackPointExtension>
        </extensions>
      </trkpt>
      <trkpt lat="42.5524750538170337677001953125" lon="19.80032402090728282928466796875">
        <ele>982.4000244140625</ele>
        <time>2026-06-18T07:13:16.000Z</time>
        <extensions>
          <ns3:TrackPointExtension>
            <ns3:atemp>21.0</ns3:atemp>
          </ns3:TrackPointExtension>
        </extensions>
      </trkpt>
      <trkpt lat="42.5524261035025119781494140625" lon="19.8003229312598705291748046875">
        <ele>982.4000244140625</ele>
        <time>2026-06-18T07:13:17.000Z</time>
        <extensions>
          <ns3:TrackPointExtension>
            <ns3:atemp>21.0</ns3:atemp>
          </ns3:TrackPointExtension>
        </extensions>
      </trkpt>
      <trkpt lat="42.552375979721546173095703125" lon="19.8003230988979339599609375">
        <ele>982.20001220703125</ele>
        <time>2026-06-18T07:13:18.000Z</time>
        <extensions>
          <ns3:TrackPointExtension>
            <ns3:atemp>21.0</ns3:atemp>
          </ns3:TrackPointExtension>
        </extensions>
      </trkpt>
      <trkpt lat="42.55232677794992923736572265625" lon="19.80031706392765045166015625">
        <ele>982</ele>
        <time>2026-06-18T07:13:19.000Z</time>
        <extensions>
          <ns3:TrackPointExtension>
            <ns3:atemp>21.0</ns3:atemp>
          </ns3:TrackPointExtension>
        </extensions>
      </trkpt>
      <trkpt lat="42.552279420197010040283203125" lon="19.80031027458608150482177734375">
        <ele>982</ele>
        <time>2026-06-18T07:13:20.000Z</time>
        <extensions>
          <ns3:TrackPointExtension>
            <ns3:atemp>21.0</ns3:atemp>
          </ns3:TrackPointExtension>
        </extensions>
      </trkpt>
      <trkpt lat="42.552233822643756866455078125" lon="19.8003014735877513885498046875">
        <ele>981.79998779296875</ele>
        <time>2026-06-18T07:13:21.000Z</time>
        <extensions>
          <ns3:TrackPointExtension>
            <ns3:atemp>21.0</ns3:atemp>
          </ns3:TrackPointExtension>
        </extensions>
      </trkpt>
      <trkpt lat="42.55218948237597942352294921875" lon="19.8002890683710575103759765625">
        <ele>981.79998779296875</ele>
        <time>2026-06-18T07:13:22.000Z</time>
        <extensions>
          <ns3:TrackPointExtension>
            <ns3:atemp>21.0</ns3:atemp>
          </ns3:TrackPointExtension>
        </extensions>
      </trkpt>
      <trkpt lat="42.552143968641757965087890625" lon="19.800273478031158447265625">
        <ele>981.79998779296875</ele>
        <time>2026-06-18T07:13:23.000Z</time>
        <extensions>
          <ns3:TrackPointExtension>
            <ns3:atemp>21.0</ns3:atemp>
          </ns3:TrackPointExtension>
        </extensions>
      </trkpt>
      <trkpt lat="42.5521008856594562530517578125" lon="19.800255037844181060791015625">
        <ele>981.79998779296875</ele>
        <time>2026-06-18T07:13:24.000Z</time>
        <extensions>
          <ns3:TrackPointExtension>
            <ns3:atemp>21.0</ns3:atemp>
          </ns3:TrackPointExtension>
        </extensions>
      </trkpt>
      <trkpt lat="42.55205905996263027191162109375" lon="19.8002391122281551361083984375">
        <ele>982</ele>
        <time>2026-06-18T07:13:25.000Z</time>
        <extensions>
          <ns3:TrackPointExtension>
            <ns3:atemp>21.0</ns3:atemp>
          </ns3:TrackPointExtension>
        </extensions>
      </trkpt>
      <trkpt lat="42.552014887332916259765625" lon="19.80022209696471691131591796875">
        <ele>982</ele>
        <time>2026-06-18T07:13:26.000Z</time>
        <extensions>
          <ns3:TrackPointExtension>
            <ns3:atemp>21.0</ns3:atemp>
          </ns3:TrackPointExtension>
        </extensions>
      </trkpt>
      <trkpt lat="42.55196954123675823211669921875" lon="19.80020784772932529449462890625">
        <ele>982</ele>
        <time>2026-06-18T07:13:27.000Z</time>
        <extensions>
          <ns3:TrackPointExtension>
            <ns3:atemp>21.0</ns3:atemp>
          </ns3:TrackPointExtension>
        </extensions>
      </trkpt>
      <trkpt lat="42.5519250333309173583984375" lon="19.8001958616077899932861328125">
        <ele>982</ele>
        <time>2026-06-18T07:13:28.000Z</time>
        <extensions>
          <ns3:TrackPointExtension>
            <ns3:atemp>21.0</ns3:atemp>
          </ns3:TrackPointExtension>
        </extensions>
      </trkpt>
      <trkpt lat="42.55188052542507648468017578125" lon="19.800184629857540130615234375">
        <ele>982.20001220703125</ele>
        <time>2026-06-18T07:13:29.000Z</time>
        <extensions>
          <ns3:TrackPointExtension>
            <ns3:atemp>21.0</ns3:atemp>
          </ns3:TrackPointExtension>
        </extensions>
      </trkpt>
      <trkpt lat="42.55183408968150615692138671875" lon="19.80017180554568767547607421875">
        <ele>982.20001220703125</ele>
        <time>2026-06-18T07:13:30.000Z</time>
        <extensions>
          <ns3:TrackPointExtension>
            <ns3:atemp>21.0</ns3:atemp>
          </ns3:TrackPointExtension>
        </extensions>
      </trkpt>
      <trkpt lat="42.5517853908240795135498046875" lon="19.80016551911830902099609375">
        <ele>982.4000244140625</ele>
        <time>2026-06-18T07:13:31.000Z</time>
        <extensions>
          <ns3:TrackPointExtension>
            <ns3:atemp>21.0</ns3:atemp>
          </ns3:TrackPointExtension>
        </extensions>
      </trkpt>
      <trkpt lat="42.5517401285469532012939453125" lon="19.8001593165099620819091796875">
        <ele>982.4000244140625</ele>
        <time>2026-06-18T07:13:32.000Z</time>
        <extensions>
          <ns3:TrackPointExtension>
            <ns3:atemp>21.0</ns3:atemp>
          </ns3:TrackPointExtension>
        </extensions>
      </trkpt>
      <trkpt lat="42.55169562064111232757568359375" lon="19.8001516051590442657470703125">
        <ele>982.5999755859375</ele>
        <time>2026-06-18T07:13:33.000Z</time>
        <extensions>
          <ns3:TrackPointExtension>
            <ns3:atemp>21.0</ns3:atemp>
          </ns3:TrackPointExtension>
        </extensions>
      </trkpt>
      <trkpt lat="42.55165086127817630767822265625" lon="19.80014515109360218048095703125">
        <ele>982.5999755859375</ele>
        <time>2026-06-18T07:13:34.000Z</time>
        <extensions>
          <ns3:TrackPointExtension>
            <ns3:atemp>21.0</ns3:atemp>
          </ns3:TrackPointExtension>
        </extensions>
      </trkpt>
      <trkpt lat="42.55160677246749401092529296875" lon="19.80013743974268436431884765625">
        <ele>982.79998779296875</ele>
        <time>2026-06-18T07:13:35.000Z</time>
        <extensions>
          <ns3:TrackPointExtension>
            <ns3:atemp>21.0</ns3:atemp>
          </ns3:TrackPointExtension>
        </extensions>
      </trkpt>
      <trkpt lat="42.55156360566616058349609375" lon="19.800131320953369140625">
        <ele>983</ele>
        <time>2026-06-18T07:13:36.000Z</time>
        <extensions>
          <ns3:TrackPointExtension>
            <ns3:atemp>21.0</ns3:atemp>
          </ns3:TrackPointExtension>
        </extensions>
      </trkpt>
      <trkpt lat="42.55151708610355854034423828125" lon="19.8001257888972759246826171875">
        <ele>983.20001220703125</ele>
        <time>2026-06-18T07:13:37.000Z</time>
        <extensions>
          <ns3:TrackPointExtension>
            <ns3:atemp>21.0</ns3:atemp>
          </ns3:TrackPointExtension>
        </extensions>
      </trkpt>
      <trkpt lat="42.55147165618836879730224609375" lon="19.80011967010796070098876953125">
        <ele>983.20001220703125</ele>
        <time>2026-06-18T07:13:38.000Z</time>
        <extensions>
          <ns3:TrackPointExtension>
            <ns3:atemp>21.0</ns3:atemp>
          </ns3:TrackPointExtension>
        </extensions>
      </trkpt>
      <trkpt lat="42.5514283217489719390869140625" lon="19.80011053383350372314453125">
        <ele>983.20001220703125</ele>
        <time>2026-06-18T07:13:39.000Z</time>
        <extensions>
          <ns3:TrackPointExtension>
            <ns3:atemp>21.0</ns3:atemp>
          </ns3:TrackPointExtension>
        </extensions>
      </trkpt>
      <trkpt lat="42.55138523876667022705078125" lon="19.800101481378078460693359375">
        <ele>983.4000244140625</ele>
        <time>2026-06-18T07:13:40.000Z</time>
        <extensions>
          <ns3:TrackPointExtension>
            <ns3:atemp>21.0</ns3:atemp>
          </ns3:TrackPointExtension>
        </extensions>
      </trkpt>
      <trkpt lat="42.55134106613695621490478515625" lon="19.80009016580879688262939453125">
        <ele>983.4000244140625</ele>
        <time>2026-06-18T07:13:41.000Z</time>
        <extensions>
          <ns3:TrackPointExtension>
            <ns3:atemp>21.0</ns3:atemp>
          </ns3:TrackPointExtension>
        </extensions>
      </trkpt>
      <trkpt lat="42.55129337310791015625" lon="19.80008278973400592803955078125">
        <ele>983.5999755859375</ele>
        <time>2026-06-18T07:13:42.000Z</time>
        <extensions>
          <ns3:TrackPointExtension>
            <ns3:atemp>21.0</ns3:atemp>
          </ns3:TrackPointExtension>
        </extensions>
      </trkpt>
      <trkpt lat="42.55124635063111782073974609375" lon="19.80007323436439037322998046875">
        <ele>983.79998779296875</ele>
        <time>2026-06-18T07:13:43.000Z</time>
        <extensions>
          <ns3:TrackPointExtension>
            <ns3:atemp>21.0</ns3:atemp>
          </ns3:TrackPointExtension>
        </extensions>
      </trkpt>
      <trkpt lat="42.551199831068515777587890625" lon="19.8000630922615528106689453125">
        <ele>984</ele>
        <time>2026-06-18T07:13:44.000Z</time>
        <extensions>
          <ns3:TrackPointExtension>
            <ns3:atemp>21.0</ns3:atemp>
          </ns3:TrackPointExtension>
        </extensions>
      </trkpt>
      <trkpt lat="42.55115683190524578094482421875" lon="19.80005295015871524810791015625">
        <ele>984</ele>
        <time>2026-06-18T07:13:45.000Z</time>
        <extensions>
          <ns3:TrackPointExtension>
            <ns3:atemp>21.0</ns3:atemp>
          </ns3:TrackPointExtension>
        </extensions>
      </trkpt>
      <trkpt lat="42.5511128269135951995849609375" lon="19.80003886856138706207275390625">
        <ele>984.20001220703125</ele>
        <time>2026-06-18T07:13:46.000Z</time>
        <extensions>
          <ns3:TrackPointExtension>
            <ns3:atemp>21.0</ns3:atemp>
          </ns3:TrackPointExtension>
        </extensions>
      </trkpt>
      <trkpt lat="42.55106966011226177215576171875" lon="19.8000240325927734375">
        <ele>984.20001220703125</ele>
        <time>2026-06-18T07:13:47.000Z</time>
        <extensions>
          <ns3:TrackPointExtension>
            <ns3:atemp>21.0</ns3:atemp>
          </ns3:TrackPointExtension>
        </extensions>
      </trkpt>
      <trkpt lat="42.551026828587055206298828125" lon="19.80000735260546207427978515625">
        <ele>984.4000244140625</ele>
        <time>2026-06-18T07:13:48.000Z</time>
        <extensions>
          <ns3:TrackPointExtension>
            <ns3:atemp>21.0</ns3:atemp>
          </ns3:TrackPointExtension>
        </extensions>
      </trkpt>
      <trkpt lat="42.5509837456047534942626953125" lon="19.79998849332332611083984375">
        <ele>984.4000244140625</ele>
        <time>2026-06-18T07:13:49.000Z</time>
        <extensions>
          <ns3:TrackPointExtension>
            <ns3:atemp>21.0</ns3:atemp>
          </ns3:TrackPointExtension>
        </extensions>
      </trkpt>
      <trkpt lat="42.55094024352729320526123046875" lon="19.7999663650989532470703125">
        <ele>984.5999755859375</ele>
        <time>2026-06-18T07:13:50.000Z</time>
        <extensions>
          <ns3:TrackPointExtension>
            <ns3:atemp>21.0</ns3:atemp>
          </ns3:TrackPointExtension>
        </extensions>
      </trkpt>
      <trkpt lat="42.5508969090878963470458984375" lon="19.79994163848459720611572265625">
        <ele>984.5999755859375</ele>
        <time>2026-06-18T07:13:51.000Z</time>
        <extensions>
          <ns3:TrackPointExtension>
            <ns3:atemp>21.0</ns3:atemp>
          </ns3:TrackPointExtension>
        </extensions>
      </trkpt>
      <trkpt lat="42.5508563406765460968017578125" lon="19.79991263709962368011474609375">
        <ele>984.79998779296875</ele>
        <time>2026-06-18T07:13:52.000Z</time>
        <extensions>
          <ns3:TrackPointExtension>
            <ns3:atemp>21.0</ns3:atemp>
          </ns3:TrackPointExtension>
        </extensions>
      </trkpt>
      <trkpt lat="42.55081795156002044677734375" lon="19.79987760074436664581298828125">
        <ele>984.79998779296875</ele>
        <time>2026-06-18T07:13:53.000Z</time>
        <extensions>
          <ns3:TrackPointExtension>
            <ns3:atemp>21.0</ns3:atemp>
          </ns3:TrackPointExtension>
        </extensions>
      </trkpt>
      <trkpt lat="42.55077629350125789642333984375" lon="19.79984474368393421173095703125">
        <ele>985</ele>
        <time>2026-06-18T07:13:54.000Z</time>
        <extensions>
          <ns3:TrackPointExtension>
            <ns3:atemp>21.0</ns3:atemp>
          </ns3:TrackPointExtension>
        </extensions>
      </trkpt>
      <trkpt lat="42.5507346354424953460693359375" lon="19.799816496670246124267578125">
        <ele>985</ele>
        <time>2026-06-18T07:13:55.000Z</time>
        <extensions>
          <ns3:TrackPointExtension>
            <ns3:atemp>21.0</ns3:atemp>
          </ns3:TrackPointExtension>
        </extensions>
      </trkpt>
      <trkpt lat="42.55069415085017681121826171875" lon="19.79978338815271854400634765625">
        <ele>985</ele>
        <time>2026-06-18T07:13:56.000Z</time>
        <extensions>
          <ns3:TrackPointExtension>
            <ns3:atemp>21.0</ns3:atemp>
          </ns3:TrackPointExtension>
        </extensions>
      </trkpt>
      <trkpt lat="42.55065157078206539154052734375" lon="19.79975841008126735687255859375">
        <ele>985</ele>
        <time>2026-06-18T07:13:57.000Z</time>
        <extensions>
          <ns3:TrackPointExtension>
            <ns3:atemp>21.0</ns3:atemp>
          </ns3:TrackPointExtension>
        </extensions>
      </trkpt>
      <trkpt lat="42.55060815252363681793212890625" lon="19.799737371504306793212890625">
        <ele>985</ele>
        <time>2026-06-18T07:13:58.000Z</time>
        <extensions>
          <ns3:TrackPointExtension>
            <ns3:atemp>21.0</ns3:atemp>
          </ns3:TrackPointExtension>
        </extensions>
      </trkpt>
      <trkpt lat="42.550563476979732513427734375" lon="19.7997167520225048065185546875">
        <ele>985</ele>
        <time>2026-06-18T07:13:59.000Z</time>
        <extensions>
          <ns3:TrackPointExtension>
            <ns3:atemp>21.0</ns3:atemp>
          </ns3:TrackPointExtension>
        </extensions>
      </trkpt>
      <trkpt lat="42.5505207292735576629638671875" lon="19.79969906620681285858154296875">
        <ele>985</ele>
        <time>2026-06-18T07:14:00.000Z</time>
        <extensions>
          <ns3:TrackPointExtension>
            <ns3:atemp>21.0</ns3:atemp>
          </ns3:TrackPointExtension>
        </extensions>
      </trkpt>
      <trkpt lat="42.55047672428190708160400390625" lon="19.7996859066188335418701171875">
        <ele>985.20001220703125</ele>
        <time>2026-06-18T07:14:01.000Z</time>
        <extensions>
          <ns3:TrackPointExtension>
            <ns3:atemp>21.0</ns3:atemp>
          </ns3:TrackPointExtension>
        </extensions>
      </trkpt>
      <trkpt lat="42.550432048738002777099609375" lon="19.7996741719543933868408203125">
        <ele>985.4000244140625</ele>
        <time>2026-06-18T07:14:02.000Z</time>
        <extensions>
          <ns3:TrackPointExtension>
            <ns3:atemp>21.0</ns3:atemp>
          </ns3:TrackPointExtension>
        </extensions>
      </trkpt>
      <trkpt lat="42.55038821138441562652587890625" lon="19.799657575786113739013671875">
        <ele>985.5999755859375</ele>
        <time>2026-06-18T07:14:03.000Z</time>
        <extensions>
          <ns3:TrackPointExtension>
            <ns3:atemp>21.0</ns3:atemp>
          </ns3:TrackPointExtension>
        </extensions>
      </trkpt>
      <trkpt lat="42.55034160800278186798095703125" lon="19.7996393032371997833251953125">
        <ele>985.5999755859375</ele>
        <time>2026-06-18T07:14:04.000Z</time>
        <extensions>
          <ns3:TrackPointExtension>
            <ns3:atemp>21.0</ns3:atemp>
          </ns3:TrackPointExtension>
        </extensions>
      </trkpt>
      <trkpt lat="42.5502974353730678558349609375" lon="19.7996198572218418121337890625">
        <ele>986</ele>
        <time>2026-06-18T07:14:05.000Z</time>
        <extensions>
          <ns3:TrackPointExtension>
            <ns3:atemp>21.0</ns3:atemp>
          </ns3:TrackPointExtension>
        </extensions>
      </trkpt>
      <trkpt lat="42.55025334656238555908203125" lon="19.79960099793970584869384765625">
        <ele>986.20001220703125</ele>
        <time>2026-06-18T07:14:06.000Z</time>
        <extensions>
          <ns3:TrackPointExtension>
            <ns3:atemp>21.0</ns3:atemp>
          </ns3:TrackPointExtension>
        </extensions>
      </trkpt>
      <trkpt lat="42.550209425389766693115234375" lon="19.79957987554371356964111328125">
        <ele>986.20001220703125</ele>
        <time>2026-06-18T07:14:07.000Z</time>
        <extensions>
          <ns3:TrackPointExtension>
            <ns3:atemp>21.0</ns3:atemp>
          </ns3:TrackPointExtension>
        </extensions>
      </trkpt>
      <trkpt lat="42.5501663424074649810791015625" lon="19.7995626926422119140625">
        <ele>986.4000244140625</ele>
        <time>2026-06-18T07:14:08.000Z</time>
        <extensions>
          <ns3:TrackPointExtension>
            <ns3:atemp>21.0</ns3:atemp>
          </ns3:TrackPointExtension>
        </extensions>
      </trkpt>
      <trkpt lat="42.55012351088225841522216796875" lon="19.7995427437126636505126953125">
        <ele>986.4000244140625</ele>
        <time>2026-06-18T07:14:09.000Z</time>
        <extensions>
          <ns3:TrackPointExtension>
            <ns3:atemp>21.0</ns3:atemp>
          </ns3:TrackPointExtension>
        </extensions>
      </trkpt>
      <trkpt lat="42.55008034408092498779296875" lon="19.79952178895473480224609375">
        <ele>986.4000244140625</ele>
        <time>2026-06-18T07:14:10.000Z</time>
        <extensions>
          <ns3:TrackPointExtension>
            <ns3:atemp>21.0</ns3:atemp>
          </ns3:TrackPointExtension>
        </extensions>
      </trkpt>
      <trkpt lat="42.550035752356052398681640625" lon="19.79949756525456905364990234375">
        <ele>986.5999755859375</ele>
        <time>2026-06-18T07:14:11.000Z</time>
        <extensions>
          <ns3:TrackPointExtension>
            <ns3:atemp>21.0</ns3:atemp>
          </ns3:TrackPointExtension>
        </extensions>
      </trkpt>
      <trkpt lat="42.54999174736440181732177734375" lon="19.79947376064956188201904296875">
        <ele>986.5999755859375</ele>
        <time>2026-06-18T07:14:12.000Z</time>
        <extensions>
          <ns3:TrackPointExtension>
            <ns3:atemp>21.0</ns3:atemp>
          </ns3:TrackPointExtension>
        </extensions>
      </trkpt>
      <trkpt lat="42.54995084367692470550537109375" lon="19.79944878257811069488525390625">
        <ele>986.79998779296875</ele>
        <time>2026-06-18T07:14:13.000Z</time>
        <extensions>
          <ns3:TrackPointExtension>
            <ns3:atemp>21.0</ns3:atemp>
          </ns3:TrackPointExtension>
        </extensions>
      </trkpt>
      <trkpt lat="42.54990893416106700897216796875" lon="19.79942648671567440032958984375">
        <ele>987</ele>
        <time>2026-06-18T07:14:14.000Z</time>
        <extensions>
          <ns3:TrackPointExtension>
            <ns3:atemp>21.0</ns3:atemp>
          </ns3:TrackPointExtension>
        </extensions>
      </trkpt>
      <trkpt lat="42.54986844956874847412109375" lon="19.7994022630155086517333984375">
        <ele>987</ele>
        <time>2026-06-18T07:14:15.000Z</time>
        <extensions>
          <ns3:TrackPointExtension>
            <ns3:atemp>21.0</ns3:atemp>
          </ns3:TrackPointExtension>
        </extensions>
      </trkpt>
      <trkpt lat="42.54982662387192249298095703125" lon="19.79937502183020114898681640625">
        <ele>987</ele>
        <time>2026-06-18T07:14:16.000Z</time>
        <extensions>
          <ns3:TrackPointExtension>
            <ns3:atemp>21.0</ns3:atemp>
          </ns3:TrackPointExtension>
        </extensions>
      </trkpt>
      <trkpt lat="42.54978588782250881195068359375" lon="19.79934836737811565399169921875">
        <ele>987.20001220703125</ele>
        <time>2026-06-18T07:14:17.000Z</time>
        <extensions>
          <ns3:TrackPointExtension>
            <ns3:atemp>21.0</ns3:atemp>
          </ns3:TrackPointExtension>
        </extensions>
      </trkpt>
      <trkpt lat="42.5497425533831119537353515625" lon="19.7993197850883007049560546875">
        <ele>987.4000244140625</ele>
        <time>2026-06-18T07:14:18.000Z</time>
        <extensions>
          <ns3:TrackPointExtension>
            <ns3:atemp>21.0</ns3:atemp>
          </ns3:TrackPointExtension>
        </extensions>
      </trkpt>
      <trkpt lat="42.5497003085911273956298828125" lon="19.7992906160652637481689453125">
        <ele>987.4000244140625</ele>
        <time>2026-06-18T07:14:19.000Z</time>
        <extensions>
          <ns3:TrackPointExtension>
            <ns3:atemp>21.0</ns3:atemp>
          </ns3:TrackPointExtension>
        </extensions>
      </trkpt>
      <trkpt lat="42.5496583990752696990966796875" lon="19.7992611117660999298095703125">
        <ele>987.5999755859375</ele>
        <time>2026-06-18T07:14:20.000Z</time>
        <extensions>
          <ns3:TrackPointExtension>
            <ns3:atemp>21.0</ns3:atemp>
          </ns3:TrackPointExtension>
        </extensions>
      </trkpt>
      <trkpt lat="42.5496158190071582794189453125" lon="19.7992329485714435577392578125">
        <ele>987.5999755859375</ele>
        <time>2026-06-18T07:14:21.000Z</time>
        <extensions>
          <ns3:TrackPointExtension>
            <ns3:atemp>21.0</ns3:atemp>
          </ns3:TrackPointExtension>
        </extensions>
      </trkpt>
      <trkpt lat="42.54957298748195171356201171875" lon="19.79920587502419948577880859375">
        <ele>987.79998779296875</ele>
        <time>2026-06-18T07:14:22.000Z</time>
        <extensions>
          <ns3:TrackPointExtension>
            <ns3:atemp>21.0</ns3:atemp>
          </ns3:TrackPointExtension>
        </extensions>
      </trkpt>
      <trkpt lat="42.54952822811901569366455078125" lon="19.7991833277046680450439453125">
        <ele>987.79998779296875</ele>
        <time>2026-06-18T07:14:23.000Z</time>
        <extensions>
          <ns3:TrackPointExtension>
            <ns3:atemp>21.0</ns3:atemp>
          </ns3:TrackPointExtension>
        </extensions>
      </trkpt>
      <trkpt lat="42.549483217298984527587890625" lon="19.79916295967996120452880859375">
        <ele>988</ele>
        <time>2026-06-18T07:14:24.000Z</time>
        <extensions>
          <ns3:TrackPointExtension>
            <ns3:atemp>21.0</ns3:atemp>
          </ns3:TrackPointExtension>
        </extensions>
      </trkpt>
      <trkpt lat="42.54943803884088993072509765625" lon="19.799144268035888671875">
        <ele>988.20001220703125</ele>
        <time>2026-06-18T07:14:25.000Z</time>
        <extensions>
          <ns3:TrackPointExtension>
            <ns3:atemp>21.0</ns3:atemp>
          </ns3:TrackPointExtension>
        </extensions>
      </trkpt>
      <trkpt lat="42.54939277656376361846923828125" lon="19.799127168953418731689453125">
        <ele>988.20001220703125</ele>
        <time>2026-06-18T07:14:26.000Z</time>
        <extensions>
          <ns3:TrackPointExtension>
            <ns3:atemp>21.0</ns3:atemp>
          </ns3:TrackPointExtension>
        </extensions>
      </trkpt>
      <trkpt lat="42.5493482686579227447509765625" lon="19.7991122491657733917236328125">
        <ele>988.4000244140625</ele>
        <time>2026-06-18T07:14:27.000Z</time>
        <extensions>
          <ns3:TrackPointExtension>
            <ns3:atemp>21.0</ns3:atemp>
          </ns3:TrackPointExtension>
        </extensions>
      </trkpt>
      <trkpt lat="42.54930493421852588653564453125" lon="19.79909791611135005950927734375">
        <ele>988.4000244140625</ele>
        <time>2026-06-18T07:14:28.000Z</time>
        <extensions>
          <ns3:TrackPointExtension>
            <ns3:atemp>21.0</ns3:atemp>
          </ns3:TrackPointExtension>
        </extensions>
      </trkpt>
      <trkpt lat="42.549260593950748443603515625" lon="19.79908416979014873504638671875">
        <ele>988.5999755859375</ele>
        <time>2026-06-18T07:14:29.000Z</time>
        <extensions>
          <ns3:TrackPointExtension>
            <ns3:atemp>21.0</ns3:atemp>
          </ns3:TrackPointExtension>
        </extensions>
      </trkpt>
      <trkpt lat="42.5492154993116855621337890625" lon="19.79907042346894741058349609375">
        <ele>988.5999755859375</ele>
        <time>2026-06-18T07:14:30.000Z</time>
        <extensions>
          <ns3:TrackPointExtension>
            <ns3:atemp>21.0</ns3:atemp>
          </ns3:TrackPointExtension>
        </extensions>
      </trkpt>
      <trkpt lat="42.54917082376778125762939453125" lon="19.7990575991570949554443359375">
        <ele>988.79998779296875</ele>
        <time>2026-06-18T07:14:31.000Z</time>
        <extensions>
          <ns3:TrackPointExtension>
            <ns3:atemp>21.0</ns3:atemp>
          </ns3:TrackPointExtension>
        </extensions>
      </trkpt>
      <trkpt lat="42.5491239689290523529052734375" lon="19.79904544539749622344970703125">
        <ele>988.79998779296875</ele>
        <time>2026-06-18T07:14:32.000Z</time>
        <extensions>
          <ns3:TrackPointExtension>
            <ns3:atemp>21.0</ns3:atemp>
          </ns3:TrackPointExtension>
        </extensions>
      </trkpt>
      <trkpt lat="42.54907594062387943267822265625" lon="19.79903304018080234527587890625">
        <ele>988.79998779296875</ele>
        <time>2026-06-18T07:14:33.000Z</time>
        <extensions>
          <ns3:TrackPointExtension>
            <ns3:atemp>21.0</ns3:atemp>
          </ns3:TrackPointExtension>
        </extensions>
      </trkpt>
      <trkpt lat="42.54902816377580165863037109375" lon="19.79902197606861591339111328125">
        <ele>988.79998779296875</ele>
        <time>2026-06-18T07:14:34.000Z</time>
        <extensions>
          <ns3:TrackPointExtension>
            <ns3:atemp>21.0</ns3:atemp>
          </ns3:TrackPointExtension>
        </extensions>
      </trkpt>
      <trkpt lat="42.54898172803223133087158203125" lon="19.799009151756763458251953125">
        <ele>989</ele>
        <time>2026-06-18T07:14:35.000Z</time>
        <extensions>
          <ns3:TrackPointExtension>
            <ns3:atemp>21.0</ns3:atemp>
          </ns3:TrackPointExtension>
        </extensions>
      </trkpt>
      <trkpt lat="42.5489375554025173187255859375" lon="19.798997081816196441650390625">
        <ele>989</ele>
        <time>2026-06-18T07:14:36.000Z</time>
        <extensions>
          <ns3:TrackPointExtension>
            <ns3:atemp>21.0</ns3:atemp>
          </ns3:TrackPointExtension>
        </extensions>
      </trkpt>
      <trkpt lat="42.54889748990535736083984375" lon="19.7989767976105213165283203125">
        <ele>989.20001220703125</ele>
        <time>2026-06-18T07:14:37.000Z</time>
        <extensions>
          <ns3:TrackPointExtension>
            <ns3:atemp>21.0</ns3:atemp>
          </ns3:TrackPointExtension>
        </extensions>
      </trkpt>
      <trkpt lat="42.548860274255275726318359375" lon="19.79895257391035556793212890625">
        <ele>989.20001220703125</ele>
        <time>2026-06-18T07:14:38.000Z</time>
        <extensions>
          <ns3:TrackPointExtension>
            <ns3:atemp>21.0</ns3:atemp>
          </ns3:TrackPointExtension>
        </extensions>
      </trkpt>
      <trkpt lat="42.54882029257714748382568359375" lon="19.79892809875309467315673828125">
        <ele>989.5999755859375</ele>
        <time>2026-06-18T07:14:39.000Z</time>
        <extensions>
          <ns3:TrackPointExtension>
            <ns3:atemp>21.0</ns3:atemp>
          </ns3:TrackPointExtension>
        </extensions>
      </trkpt>
      <trkpt lat="42.54877603612840175628662109375" lon="19.79890529997646808624267578125">
        <ele>989.79998779296875</ele>
        <time>2026-06-18T07:14:40.000Z</time>
        <extensions>
          <ns3:TrackPointExtension>
            <ns3:atemp>21.0</ns3:atemp>
          </ns3:TrackPointExtension>
        </extensions>
      </trkpt>
      <trkpt lat="42.54872624762356281280517578125" lon="19.79888753034174442291259765625">
        <ele>990</ele>
        <time>2026-06-18T07:14:41.000Z</time>
        <extensions>
          <ns3:TrackPointExtension>
            <ns3:atemp>21.0</ns3:atemp>
          </ns3:TrackPointExtension>
        </extensions>
      </trkpt>
      <trkpt lat="42.54867914132773876190185546875" lon="19.79887646622955799102783203125">
        <ele>990.20001220703125</ele>
        <time>2026-06-18T07:14:42.000Z</time>
        <extensions>
          <ns3:TrackPointExtension>
            <ns3:atemp>21.0</ns3:atemp>
          </ns3:TrackPointExtension>
        </extensions>
      </trkpt>
      <trkpt lat="42.54863153211772441864013671875" lon="19.7988721914589405059814453125">
        <ele>990.4000244140625</ele>
        <time>2026-06-18T07:14:43.000Z</time>
        <extensions>
          <ns3:TrackPointExtension>
            <ns3:atemp>21.0</ns3:atemp>
          </ns3:TrackPointExtension>
        </extensions>
      </trkpt>
      <trkpt lat="42.548587359488010406494140625" lon="19.79886992834508419036865234375">
        <ele>990.79998779296875</ele>
        <time>2026-06-18T07:14:44.000Z</time>
        <extensions>
          <ns3:TrackPointExtension>
            <ns3:atemp>21.0</ns3:atemp>
          </ns3:TrackPointExtension>
        </extensions>
      </trkpt>
      <trkpt lat="42.5485462881624698638916015625" lon="19.79887043125927448272705078125">
        <ele>991</ele>
        <time>2026-06-18T07:14:45.000Z</time>
        <extensions>
          <ns3:TrackPointExtension>
            <ns3:atemp>21.0</ns3:atemp>
          </ns3:TrackPointExtension>
        </extensions>
      </trkpt>
      <trkpt lat="42.54850865341722965240478515625" lon="19.79886892251670360565185546875">
        <ele>991.4000244140625</ele>
        <time>2026-06-18T07:14:46.000Z</time>
        <extensions>
          <ns3:TrackPointExtension>
            <ns3:atemp>21.0</ns3:atemp>
          </ns3:TrackPointExtension>
        </extensions>
      </trkpt>
      <trkpt lat="42.54846942611038684844970703125" lon="19.79886464774608612060546875">
        <ele>991.5999755859375</ele>
        <time>2026-06-18T07:14:47.000Z</time>
        <extensions>
          <ns3:TrackPointExtension>
            <ns3:atemp>21.0</ns3:atemp>
          </ns3:TrackPointExtension>
        </extensions>
      </trkpt>
      <trkpt lat="42.54842734895646572113037109375" lon="19.79885651730000972747802734375">
        <ele>992</ele>
        <time>2026-06-18T07:14:48.000Z</time>
        <extensions>
          <ns3:TrackPointExtension>
            <ns3:atemp>21.0</ns3:atemp>
          </ns3:TrackPointExtension>
        </extensions>
      </trkpt>
      <trkpt lat="42.5483853556215763092041015625" lon="19.79884444735944271087646484375">
        <ele>992.20001220703125</ele>
        <time>2026-06-18T07:14:49.000Z</time>
        <extensions>
          <ns3:TrackPointExtension>
            <ns3:atemp>21.0</ns3:atemp>
          </ns3:TrackPointExtension>
        </extensions>
      </trkpt>
      <trkpt lat="42.54834135062992572784423828125" lon="19.7988316230475902557373046875">
        <ele>992.5999755859375</ele>
        <time>2026-06-18T07:14:50.000Z</time>
        <extensions>
          <ns3:TrackPointExtension>
            <ns3:atemp>21.0</ns3:atemp>
          </ns3:TrackPointExtension>
        </extensions>
      </trkpt>
      <trkpt lat="42.54829910583794116973876953125" lon="19.79881770908832550048828125">
        <ele>992.79998779296875</ele>
        <time>2026-06-18T07:14:51.000Z</time>
        <extensions>
          <ns3:TrackPointExtension>
            <ns3:atemp>21.0</ns3:atemp>
          </ns3:TrackPointExtension>
        </extensions>
      </trkpt>
      <trkpt lat="42.54825619049370288848876953125" lon="19.79880438186228275299072265625">
        <ele>993</ele>
        <time>2026-06-18T07:14:52.000Z</time>
        <extensions>
          <ns3:TrackPointExtension>
            <ns3:atemp>21.0</ns3:atemp>
          </ns3:TrackPointExtension>
        </extensions>
      </trkpt>
      <trkpt lat="42.5482140295207500457763671875" lon="19.79879164136946201324462890625">
        <ele>993.4000244140625</ele>
        <time>2026-06-18T07:14:53.000Z</time>
        <extensions>
          <ns3:TrackPointExtension>
            <ns3:atemp>21.0</ns3:atemp>
          </ns3:TrackPointExtension>
        </extensions>
      </trkpt>
      <trkpt lat="42.54817119799554347991943359375" lon="19.79877605102956295013427734375">
        <ele>993.5999755859375</ele>
        <time>2026-06-18T07:14:54.000Z</time>
        <extensions>
          <ns3:TrackPointExtension>
            <ns3:atemp>21.0</ns3:atemp>
          </ns3:TrackPointExtension>
        </extensions>
      </trkpt>
      <trkpt lat="42.5481268577277660369873046875" lon="19.79876339435577392578125">
        <ele>994</ele>
        <time>2026-06-18T07:14:55.000Z</time>
        <extensions>
          <ns3:TrackPointExtension>
            <ns3:atemp>21.0</ns3:atemp>
          </ns3:TrackPointExtension>
        </extensions>
      </trkpt>
      <trkpt lat="42.54808033816516399383544921875" lon="19.7987508215010166168212890625">
        <ele>994.20001220703125</ele>
        <time>2026-06-18T07:14:56.000Z</time>
        <extensions>
          <ns3:TrackPointExtension>
            <ns3:atemp>21.0</ns3:atemp>
          </ns3:TrackPointExtension>
        </extensions>
      </trkpt>
      <trkpt lat="42.54803323186933994293212890625" lon="19.7987432777881622314453125">
        <ele>994.4000244140625</ele>
        <time>2026-06-18T07:14:57.000Z</time>
        <extensions>
          <ns3:TrackPointExtension>
            <ns3:atemp>21.0</ns3:atemp>
          </ns3:TrackPointExtension>
        </extensions>
      </trkpt>
      <trkpt lat="42.5479880534112453460693359375" lon="19.79874017648398876190185546875">
        <ele>994.5999755859375</ele>
        <time>2026-06-18T07:14:58.000Z</time>
        <extensions>
          <ns3:TrackPointExtension>
            <ns3:atemp>21.0</ns3:atemp>
          </ns3:TrackPointExtension>
        </extensions>
      </trkpt>
      <trkpt lat="42.5479461438953876495361328125" lon="19.7987337224185466766357421875">
        <ele>994.79998779296875</ele>
        <time>2026-06-18T07:14:59.000Z</time>
        <extensions>
          <ns3:TrackPointExtension>
            <ns3:atemp>21.0</ns3:atemp>
          </ns3:TrackPointExtension>
        </extensions>
      </trkpt>
      <trkpt lat="42.54790775477886199951171875" lon="19.7987239994108676910400390625">
        <ele>995.20001220703125</ele>
        <time>2026-06-18T07:15:00.000Z</time>
        <extensions>
          <ns3:TrackPointExtension>
            <ns3:atemp>21.0</ns3:atemp>
          </ns3:TrackPointExtension>
        </extensions>
      </trkpt>
      <trkpt lat="42.547870539128780364990234375" lon="19.7987129352986812591552734375">
        <ele>995.5999755859375</ele>
        <time>2026-06-18T07:15:01.000Z</time>
        <extensions>
          <ns3:TrackPointExtension>
            <ns3:atemp>21.0</ns3:atemp>
          </ns3:TrackPointExtension>
        </extensions>
      </trkpt>
      <trkpt lat="42.54783374257385730743408203125" lon="19.7986981831490993499755859375">
        <ele>995.79998779296875</ele>
        <time>2026-06-18T07:15:02.000Z</time>
        <extensions>
          <ns3:TrackPointExtension>
            <ns3:atemp>21.0</ns3:atemp>
          </ns3:TrackPointExtension>
        </extensions>
      </trkpt>
      <trkpt lat="42.54779434762895107269287109375" lon="19.798681251704692840576171875">
        <ele>996.20001220703125</ele>
        <time>2026-06-18T07:15:03.000Z</time>
        <extensions>
          <ns3:TrackPointExtension>
            <ns3:atemp>21.0</ns3:atemp>
          </ns3:TrackPointExtension>
        </extensions>
      </trkpt>
      <trkpt lat="42.5477510131895542144775390625" lon="19.7986670024693012237548828125">
        <ele>996.4000244140625</ele>
        <time>2026-06-18T07:15:04.000Z</time>
        <extensions>
          <ns3:TrackPointExtension>
            <ns3:atemp>21.0</ns3:atemp>
          </ns3:TrackPointExtension>
        </extensions>
      </trkpt>
      <trkpt lat="42.54770650528371334075927734375" lon="19.7986519150435924530029296875">
        <ele>996.5999755859375</ele>
        <time>2026-06-18T07:15:05.000Z</time>
        <extensions>
          <ns3:TrackPointExtension>
            <ns3:atemp>21.0</ns3:atemp>
          </ns3:TrackPointExtension>
        </extensions>
      </trkpt>
      <trkpt lat="42.54766325466334819793701171875" lon="19.79863800108432769775390625">
        <ele>996.79998779296875</ele>
        <time>2026-06-18T07:15:06.000Z</time>
        <extensions>
          <ns3:TrackPointExtension>
            <ns3:atemp>21.0</ns3:atemp>
          </ns3:TrackPointExtension>
        </extensions>
      </trkpt>
      <trkpt lat="42.54761874675750732421875" lon="19.7986250929534435272216796875">
        <ele>997</ele>
        <time>2026-06-18T07:15:07.000Z</time>
        <extensions>
          <ns3:TrackPointExtension>
            <ns3:atemp>21.0</ns3:atemp>
          </ns3:TrackPointExtension>
        </extensions>
      </trkpt>
      <trkpt lat="42.54757809452712535858154296875" lon="19.79861277155578136444091796875">
        <ele>997.4000244140625</ele>
        <time>2026-06-18T07:15:08.000Z</time>
        <extensions>
          <ns3:TrackPointExtension>
            <ns3:atemp>21.0</ns3:atemp>
          </ns3:TrackPointExtension>
        </extensions>
      </trkpt>
      <trkpt lat="42.547536604106426239013671875" lon="19.79859969578683376312255859375">
        <ele>997.4000244140625</ele>
        <time>2026-06-18T07:15:09.000Z</time>
        <extensions>
          <ns3:TrackPointExtension>
            <ns3:atemp>21.0</ns3:atemp>
          </ns3:TrackPointExtension>
        </extensions>
      </trkpt>
      <trkpt lat="42.54749477840960025787353515625" lon="19.79858410544693470001220703125">
        <ele>997.5999755859375</ele>
        <time>2026-06-18T07:15:10.000Z</time>
        <extensions>
          <ns3:TrackPointExtension>
            <ns3:atemp>21.0</ns3:atemp>
          </ns3:TrackPointExtension>
        </extensions>
      </trkpt>
      <trkpt lat="42.54745320416986942291259765625" lon="19.7985637374222278594970703125">
        <ele>997.79998779296875</ele>
        <time>2026-06-18T07:15:11.000Z</time>
        <extensions>
          <ns3:TrackPointExtension>
            <ns3:atemp>21.0</ns3:atemp>
          </ns3:TrackPointExtension>
        </extensions>
      </trkpt>
      <trkpt lat="42.54740911535918712615966796875" lon="19.7985429503023624420166015625">
        <ele>998</ele>
        <time>2026-06-18T07:15:12.000Z</time>
        <extensions>
          <ns3:TrackPointExtension>
            <ns3:atemp>21.0</ns3:atemp>
          </ns3:TrackPointExtension>
        </extensions>
      </trkpt>
      <trkpt lat="42.547366954386234283447265625" lon="19.7985201515257358551025390625">
        <ele>998</ele>
        <time>2026-06-18T07:15:13.000Z</time>
        <extensions>
          <ns3:TrackPointExtension>
            <ns3:atemp>21.0</ns3:atemp>
          </ns3:TrackPointExtension>
        </extensions>
      </trkpt>
      <trkpt lat="42.54732546396553516387939453125" lon="19.7984963469207286834716796875">
        <ele>998</ele>
        <time>2026-06-18T07:15:14.000Z</time>
        <extensions>
          <ns3:TrackPointExtension>
            <ns3:atemp>21.0</ns3:atemp>
          </ns3:TrackPointExtension>
        </extensions>
      </trkpt>
      <trkpt lat="42.5472874939441680908203125" lon="19.7984735481441020965576171875">
        <ele>998.20001220703125</ele>
        <time>2026-06-18T07:15:15.000Z</time>
        <extensions>
          <ns3:TrackPointExtension>
            <ns3:atemp>21.0</ns3:atemp>
          </ns3:TrackPointExtension>
        </extensions>
      </trkpt>
      <trkpt lat="42.5472450815141201019287109375" lon="19.79845569469034671783447265625">
        <ele>998.20001220703125</ele>
        <time>2026-06-18T07:15:16.000Z</time>
        <extensions>
          <ns3:TrackPointExtension>
            <ns3:atemp>21.0</ns3:atemp>
          </ns3:TrackPointExtension>
        </extensions>
      </trkpt>
      <trkpt lat="42.54720057360827922821044921875" lon="19.79844354093074798583984375">
        <ele>998.20001220703125</ele>
        <time>2026-06-18T07:15:17.000Z</time>
        <extensions>
          <ns3:TrackPointExtension>
            <ns3:atemp>21.0</ns3:atemp>
          </ns3:TrackPointExtension>
        </extensions>
      </trkpt>
      <trkpt lat="42.5471572391688823699951171875" lon="19.79842803440988063812255859375">
        <ele>998.20001220703125</ele>
        <time>2026-06-18T07:15:18.000Z</time>
        <extensions>
          <ns3:TrackPointExtension>
            <ns3:atemp>21.0</ns3:atemp>
          </ns3:TrackPointExtension>
        </extensions>
      </trkpt>
      <trkpt lat="42.5471123121678829193115234375" lon="19.79841328226029872894287109375">
        <ele>998.20001220703125</ele>
        <time>2026-06-18T07:15:19.000Z</time>
        <extensions>
          <ns3:TrackPointExtension>
            <ns3:atemp>21.0</ns3:atemp>
          </ns3:TrackPointExtension>
        </extensions>
      </trkpt>
      <trkpt lat="42.54706830717623233795166015625" lon="19.7983991168439388275146484375">
        <ele>998.20001220703125</ele>
        <time>2026-06-18T07:15:20.000Z</time>
        <extensions>
          <ns3:TrackPointExtension>
            <ns3:atemp>21.0</ns3:atemp>
          </ns3:TrackPointExtension>
        </extensions>
      </trkpt>
      <trkpt lat="42.547024972736835479736328125" lon="19.79838453233242034912109375">
        <ele>998.20001220703125</ele>
        <time>2026-06-18T07:15:21.000Z</time>
        <extensions>
          <ns3:TrackPointExtension>
            <ns3:atemp>21.0</ns3:atemp>
          </ns3:TrackPointExtension>
        </extensions>
      </trkpt>
      <trkpt lat="42.54698163829743862152099609375" lon="19.7983662597835063934326171875">
        <ele>998.20001220703125</ele>
        <time>2026-06-18T07:15:22.000Z</time>
        <extensions>
          <ns3:TrackPointExtension>
            <ns3:atemp>21.0</ns3:atemp>
          </ns3:TrackPointExtension>
        </extensions>
      </trkpt>
      <trkpt lat="42.5469403155148029327392578125" lon="19.79834740050137042999267578125">
        <ele>998.4000244140625</ele>
        <time>2026-06-18T07:15:23.000Z</time>
        <extensions>
          <ns3:TrackPointExtension>
            <ns3:atemp>21.0</ns3:atemp>
          </ns3:TrackPointExtension>
        </extensions>
      </trkpt>
      <trkpt lat="42.54690385423600673675537109375" lon="19.7983223386108875274658203125">
        <ele>998.5999755859375</ele>
        <time>2026-06-18T07:15:24.000Z</time>
        <extensions>
          <ns3:TrackPointExtension>
            <ns3:atemp>21.0</ns3:atemp>
          </ns3:TrackPointExtension>
        </extensions>
      </trkpt>
      <trkpt lat="42.54686496220529079437255859375" lon="19.798293001949787139892578125">
        <ele>998.79998779296875</ele>
        <time>2026-06-18T07:15:25.000Z</time>
        <extensions>
          <ns3:TrackPointExtension>
            <ns3:atemp>21.0</ns3:atemp>
          </ns3:TrackPointExtension>
        </extensions>
      </trkpt>
      <trkpt lat="42.5468253158032894134521484375" lon="19.7982549481093883514404296875">
        <ele>999</ele>
        <time>2026-06-18T07:15:26.000Z</time>
        <extensions>
          <ns3:TrackPointExtension>
            <ns3:atemp>21.0</ns3:atemp>
          </ns3:TrackPointExtension>
        </extensions>
      </trkpt>
      <trkpt lat="42.54678986035287380218505859375" lon="19.79821697808802127838134765625">
        <ele>999</ele>
        <time>2026-06-18T07:15:27.000Z</time>
        <extensions>
          <ns3:TrackPointExtension>
            <ns3:atemp>21.0</ns3:atemp>
          </ns3:TrackPointExtension>
        </extensions>
      </trkpt>
      <trkpt lat="42.54675281234085559844970703125" lon="19.79818261228501796722412109375">
        <ele>999.20001220703125</ele>
        <time>2026-06-18T07:15:28.000Z</time>
        <extensions>
          <ns3:TrackPointExtension>
            <ns3:atemp>21.0</ns3:atemp>
          </ns3:TrackPointExtension>
        </extensions>
      </trkpt>
      <trkpt lat="42.54671894945204257965087890625" lon="19.79814472608268260955810546875">
        <ele>999.20001220703125</ele>
        <time>2026-06-18T07:15:29.000Z</time>
        <extensions>
          <ns3:TrackPointExtension>
            <ns3:atemp>21.0</ns3:atemp>
          </ns3:TrackPointExtension>
        </extensions>
      </trkpt>
      <trkpt lat="42.54667955450713634490966796875" lon="19.79810918681323528289794921875">
        <ele>999.20001220703125</ele>
        <time>2026-06-18T07:15:30.000Z</time>
        <extensions>
          <ns3:TrackPointExtension>
            <ns3:atemp>21.0</ns3:atemp>
          </ns3:TrackPointExtension>
        </extensions>
      </trkpt>
      <trkpt lat="42.5466372258961200714111328125" lon="19.7980802692472934722900390625">
        <ele>999.4000244140625</ele>
        <time>2026-06-18T07:15:31.000Z</time>
        <extensions>
          <ns3:TrackPointExtension>
            <ns3:atemp>21.0</ns3:atemp>
          </ns3:TrackPointExtension>
        </extensions>
      </trkpt>
      <trkpt lat="42.54659439437091350555419921875" lon="19.79804917238652706146240234375">
        <ele>999.4000244140625</ele>
        <time>2026-06-18T07:15:32.000Z</time>
        <extensions>
          <ns3:TrackPointExtension>
            <ns3:atemp>21.0</ns3:atemp>
          </ns3:TrackPointExtension>
        </extensions>
      </trkpt>
      <trkpt lat="42.54655449651181697845458984375" lon="19.7980145551264286041259765625">
        <ele>999.5999755859375</ele>
        <time>2026-06-18T07:15:33.000Z</time>
        <extensions>
          <ns3:TrackPointExtension>
            <ns3:atemp>21.0</ns3:atemp>
          </ns3:TrackPointExtension>
        </extensions>
      </trkpt>
      <trkpt lat="42.54651593975722789764404296875" lon="19.797980524599552154541015625">
        <ele>999.5999755859375</ele>
        <time>2026-06-18T07:15:34.000Z</time>
        <extensions>
          <ns3:TrackPointExtension>
            <ns3:atemp>21.0</ns3:atemp>
          </ns3:TrackPointExtension>
        </extensions>
      </trkpt>
      <trkpt lat="42.54647620953619480133056640625" lon="19.7979471646249294281005859375">
        <ele>999.79998779296875</ele>
        <time>2026-06-18T07:15:35.000Z</time>
        <extensions>
          <ns3:TrackPointExtension>
            <ns3:atemp>21.0</ns3:atemp>
          </ns3:TrackPointExtension>
        </extensions>
      </trkpt>
      <trkpt lat="42.54643932916224002838134765625" lon="19.7979156486690044403076171875">
        <ele>999.79998779296875</ele>
        <time>2026-06-18T07:15:36.000Z</time>
        <extensions>
          <ns3:TrackPointExtension>
            <ns3:atemp>21.0</ns3:atemp>
          </ns3:TrackPointExtension>
        </extensions>
      </trkpt>
      <trkpt lat="42.546406053006649017333984375" lon="19.7978871501982212066650390625">
        <ele>1000</ele>
        <time>2026-06-18T07:15:37.000Z</time>
        <extensions>
          <ns3:TrackPointExtension>
            <ns3:atemp>21.0</ns3:atemp>
          </ns3:TrackPointExtension>
        </extensions>
      </trkpt>
      <trkpt lat="42.54637344740331172943115234375" lon="19.79785655625164508819580078125">
        <ele>1000.20001220703125</ele>
        <time>2026-06-18T07:15:38.000Z</time>
        <extensions>
          <ns3:TrackPointExtension>
            <ns3:atemp>21.0</ns3:atemp>
          </ns3:TrackPointExtension>
        </extensions>
      </trkpt>
      <trkpt lat="42.5463408417999744415283203125" lon="19.79782654903829097747802734375">
        <ele>1000.4000244140625</ele>
        <time>2026-06-18T07:15:39.000Z</time>
        <extensions>
          <ns3:TrackPointExtension>
            <ns3:atemp>21.0</ns3:atemp>
          </ns3:TrackPointExtension>
        </extensions>
      </trkpt>
      <trkpt lat="42.54630689509212970733642578125" lon="19.79779369197785854339599609375">
        <ele>1000.5999755859375</ele>
        <time>2026-06-18T07:15:40.000Z</time>
        <extensions>
          <ns3:TrackPointExtension>
            <ns3:atemp>21.0</ns3:atemp>
          </ns3:TrackPointExtension>
        </extensions>
      </trkpt>
      <trkpt lat="42.54627638496458530426025390625" lon="19.7977533750236034393310546875">
        <ele>1000.79998779296875</ele>
        <time>2026-06-18T07:15:41.000Z</time>
        <extensions>
          <ns3:TrackPointExtension>
            <ns3:atemp>21.0</ns3:atemp>
          </ns3:TrackPointExtension>
        </extensions>
      </trkpt>
      <trkpt lat="42.546241767704486846923828125" lon="19.797718338668346405029296875">
        <ele>1001</ele>
        <time>2026-06-18T07:15:42.000Z</time>
        <extensions>
          <ns3:TrackPointExtension>
            <ns3:atemp>21.0</ns3:atemp>
          </ns3:TrackPointExtension>
        </extensions>
      </trkpt>
      <trkpt lat="42.5462077371776103973388671875" lon="19.79767919518053531646728515625">
        <ele>1001</ele>
        <time>2026-06-18T07:15:43.000Z</time>
        <extensions>
          <ns3:TrackPointExtension>
            <ns3:atemp>21.0</ns3:atemp>
          </ns3:TrackPointExtension>
        </extensions>
      </trkpt>
      <trkpt lat="42.54617328755557537078857421875" lon="19.79764114134013652801513671875">
        <ele>1001.20001220703125</ele>
        <time>2026-06-18T07:15:44.000Z</time>
        <extensions>
          <ns3:TrackPointExtension>
            <ns3:atemp>21.0</ns3:atemp>
          </ns3:TrackPointExtension>
        </extensions>
      </trkpt>
      <trkpt lat="42.54613959230482578277587890625" lon="19.7976021654903888702392578125">
        <ele>1001.20001220703125</ele>
        <time>2026-06-18T07:15:45.000Z</time>
        <extensions>
          <ns3:TrackPointExtension>
            <ns3:atemp>21.0</ns3:atemp>
          </ns3:TrackPointExtension>
        </extensions>
      </trkpt>
      <trkpt lat="42.54610505886375904083251953125" lon="19.7975657880306243896484375">
        <ele>1001.4000244140625</ele>
        <time>2026-06-18T07:15:46.000Z</time>
        <extensions>
          <ns3:TrackPointExtension>
            <ns3:atemp>21.0</ns3:atemp>
          </ns3:TrackPointExtension>
        </extensions>
      </trkpt>
      <trkpt lat="42.5460697710514068603515625" lon="19.7975297458469867706298828125">
        <ele>1001.4000244140625</ele>
        <time>2026-06-18T07:15:47.000Z</time>
        <extensions>
          <ns3:TrackPointExtension>
            <ns3:atemp>21.0</ns3:atemp>
          </ns3:TrackPointExtension>
        </extensions>
      </trkpt>
      <trkpt lat="42.54603314213454723358154296875" lon="19.797495044767856597900390625">
        <ele>1001.5999755859375</ele>
        <time>2026-06-18T07:15:48.000Z</time>
        <extensions>
          <ns3:TrackPointExtension>
            <ns3:atemp>21.0</ns3:atemp>
          </ns3:TrackPointExtension>
        </extensions>
      </trkpt>
      <trkpt lat="42.5459961779415607452392578125" lon="19.79746051132678985595703125">
        <ele>1001.5999755859375</ele>
        <time>2026-06-18T07:15:49.000Z</time>
        <extensions>
          <ns3:TrackPointExtension>
            <ns3:atemp>21.0</ns3:atemp>
          </ns3:TrackPointExtension>
        </extensions>
      </trkpt>
      <trkpt lat="42.54595686681568622589111328125" lon="19.797427654266357421875">
        <ele>1001.79998779296875</ele>
        <time>2026-06-18T07:15:50.000Z</time>
        <extensions>
          <ns3:TrackPointExtension>
            <ns3:atemp>21.0</ns3:atemp>
          </ns3:TrackPointExtension>
        </extensions>
      </trkpt>
      <trkpt lat="42.545920573174953460693359375" lon="19.797390438616275787353515625">
        <ele>1002</ele>
        <time>2026-06-18T07:15:51.000Z</time>
        <extensions>
          <ns3:TrackPointExtension>
            <ns3:atemp>21.0</ns3:atemp>
          </ns3:TrackPointExtension>
        </extensions>
      </trkpt>
      <trkpt lat="42.54588075913488864898681640625" lon="19.797352887690067291259765625">
        <ele>1002</ele>
        <time>2026-06-18T07:15:52.000Z</time>
        <extensions>
          <ns3:TrackPointExtension>
            <ns3:atemp>21.0</ns3:atemp>
          </ns3:TrackPointExtension>
        </extensions>
      </trkpt>
      <trkpt lat="42.5458446331322193145751953125" lon="19.797308631241321563720703125">
        <ele>1002</ele>
        <time>2026-06-18T07:15:53.000Z</time>
        <extensions>
          <ns3:TrackPointExtension>
            <ns3:atemp>21.0</ns3:atemp>
          </ns3:TrackPointExtension>
        </extensions>
      </trkpt>
      <trkpt lat="42.54580599255859851837158203125" lon="19.79726479388773441314697265625">
        <ele>1002</ele>
        <time>2026-06-18T07:15:54.000Z</time>
        <extensions>
          <ns3:TrackPointExtension>
            <ns3:atemp>21.0</ns3:atemp>
          </ns3:TrackPointExtension>
        </extensions>
      </trkpt>
      <trkpt lat="42.54576408304274082183837890625" lon="19.797226488590240478515625">
        <ele>1002</ele>
        <time>2026-06-18T07:15:55.000Z</time>
        <extensions>
          <ns3:TrackPointExtension>
            <ns3:atemp>21.0</ns3:atemp>
          </ns3:TrackPointExtension>
        </extensions>
      </trkpt>
      <trkpt lat="42.54571773111820220947265625" lon="19.7971978224813938140869140625">
        <ele>1001.79998779296875</ele>
        <time>2026-06-18T07:15:56.000Z</time>
        <extensions>
          <ns3:TrackPointExtension>
            <ns3:atemp>21.0</ns3:atemp>
          </ns3:TrackPointExtension>
        </extensions>
      </trkpt>
      <trkpt lat="42.54566936753690242767333984375" lon="19.7971763648092746734619140625">
        <ele>1001.79998779296875</ele>
        <time>2026-06-18T07:15:57.000Z</time>
        <extensions>
          <ns3:TrackPointExtension>
            <ns3:atemp>21.0</ns3:atemp>
          </ns3:TrackPointExtension>
        </extensions>
      </trkpt>
      <trkpt lat="42.5456193275749683380126953125" lon="19.79716823436319828033447265625">
        <ele>1001.79998779296875</ele>
        <time>2026-06-18T07:15:58.000Z</time>
        <extensions>
          <ns3:TrackPointExtension>
            <ns3:atemp>21.0</ns3:atemp>
          </ns3:TrackPointExtension>
        </extensions>
      </trkpt>
      <trkpt lat="42.5455730594694614410400390625" lon="19.79716538451611995697021484375">
        <ele>1001.79998779296875</ele>
        <time>2026-06-18T07:15:59.000Z</time>
        <extensions>
          <ns3:TrackPointExtension>
            <ns3:atemp>21.0</ns3:atemp>
          </ns3:TrackPointExtension>
        </extensions>
      </trkpt>
      <trkpt lat="42.5455264560878276824951171875" lon="19.7971622832119464874267578125">
        <ele>1001.79998779296875</ele>
        <time>2026-06-18T07:16:00.000Z</time>
        <extensions>
          <ns3:TrackPointExtension>
            <ns3:atemp>21.0</ns3:atemp>
          </ns3:TrackPointExtension>
        </extensions>
      </trkpt>
      <trkpt lat="42.54548379220068454742431640625" lon="19.79716571979224681854248046875">
        <ele>1001.79998779296875</ele>
        <time>2026-06-18T07:16:01.000Z</time>
        <extensions>
          <ns3:TrackPointExtension>
            <ns3:atemp>21.0</ns3:atemp>
          </ns3:TrackPointExtension>
        </extensions>
      </trkpt>
      <trkpt lat="42.54544205032289028167724609375" lon="19.79716722853481769561767578125">
        <ele>1002</ele>
        <time>2026-06-18T07:16:02.000Z</time>
        <extensions>
          <ns3:TrackPointExtension>
            <ns3:atemp>21.0</ns3:atemp>
          </ns3:TrackPointExtension>
        </extensions>
      </trkpt>
      <trkpt lat="42.54539863206446170806884765625" lon="19.79716924019157886505126953125">
        <ele>1002</ele>
        <time>2026-06-18T07:16:03.000Z</time>
        <extensions>
          <ns3:TrackPointExtension>
            <ns3:atemp>21.0</ns3:atemp>
          </ns3:TrackPointExtension>
        </extensions>
      </trkpt>
      <trkpt lat="42.54535336978733539581298828125" lon="19.79717242531478404998779296875">
        <ele>1002.20001220703125</ele>
        <time>2026-06-18T07:16:04.000Z</time>
        <extensions>
          <ns3:TrackPointExtension>
            <ns3:atemp>21.0</ns3:atemp>
          </ns3:TrackPointExtension>
        </extensions>
      </trkpt>
      <trkpt lat="42.5453081913292407989501953125" lon="19.797172509133815765380859375">
        <ele>1002.20001220703125</ele>
        <time>2026-06-18T07:16:05.000Z</time>
        <extensions>
          <ns3:TrackPointExtension>
            <ns3:atemp>21.0</ns3:atemp>
          </ns3:TrackPointExtension>
        </extensions>
      </trkpt>
      <trkpt lat="42.54526284523308277130126953125" lon="19.797175191342830657958984375">
        <ele>1002.4000244140625</ele>
        <time>2026-06-18T07:16:06.000Z</time>
        <extensions>
          <ns3:TrackPointExtension>
            <ns3:atemp>21.0</ns3:atemp>
          </ns3:TrackPointExtension>
        </extensions>
      </trkpt>
      <trkpt lat="42.545215152204036712646484375" lon="19.79718248359858989715576171875">
        <ele>1002.5999755859375</ele>
        <time>2026-06-18T07:16:07.000Z</time>
        <extensions>
          <ns3:TrackPointExtension>
            <ns3:atemp>21.0</ns3:atemp>
          </ns3:TrackPointExtension>
        </extensions>
      </trkpt>
      <trkpt lat="42.5451667048037052154541015625" lon="19.79719203896820545196533203125">
        <ele>1002.79998779296875</ele>
        <time>2026-06-18T07:16:08.000Z</time>
        <extensions>
          <ns3:TrackPointExtension>
            <ns3:atemp>21.0</ns3:atemp>
          </ns3:TrackPointExtension>
        </extensions>
      </trkpt>
      <trkpt lat="42.54512102343142032623291015625" lon="19.79720142669975757598876953125">
        <ele>1003</ele>
        <time>2026-06-18T07:16:09.000Z</time>
        <extensions>
          <ns3:TrackPointExtension>
            <ns3:atemp>21.0</ns3:atemp>
          </ns3:TrackPointExtension>
        </extensions>
      </trkpt>
      <trkpt lat="42.54507726989686489105224609375" lon="19.79720997624099254608154296875">
        <ele>1003.20001220703125</ele>
        <time>2026-06-18T07:16:10.000Z</time>
        <extensions>
          <ns3:TrackPointExtension>
            <ns3:atemp>21.0</ns3:atemp>
          </ns3:TrackPointExtension>
        </extensions>
      </trkpt>
      <trkpt lat="42.5450322590768337249755859375" lon="19.79721986688673496246337890625">
        <ele>1003.4000244140625</ele>
        <time>2026-06-18T07:16:11.000Z</time>
        <extensions>
          <ns3:TrackPointExtension>
            <ns3:atemp>21.0</ns3:atemp>
          </ns3:TrackPointExtension>
        </extensions>
      </trkpt>
      <trkpt lat="42.5449873320758342742919921875" lon="19.797230847179889678955078125">
        <ele>1003.4000244140625</ele>
        <time>2026-06-18T07:16:12.000Z</time>
        <extensions>
          <ns3:TrackPointExtension>
            <ns3:atemp>21.0</ns3:atemp>
          </ns3:TrackPointExtension>
        </extensions>
      </trkpt>
      <trkpt lat="42.54494466818869113922119140625" lon="19.7972417436540126800537109375">
        <ele>1003.5999755859375</ele>
        <time>2026-06-18T07:16:13.000Z</time>
        <extensions>
          <ns3:TrackPointExtension>
            <ns3:atemp>21.0</ns3:atemp>
          </ns3:TrackPointExtension>
        </extensions>
      </trkpt>
      <trkpt lat="42.54490074701607227325439453125" lon="19.797253310680389404296875">
        <ele>1003.5999755859375</ele>
        <time>2026-06-18T07:16:14.000Z</time>
        <extensions>
          <ns3:TrackPointExtension>
            <ns3:atemp>21.0</ns3:atemp>
          </ns3:TrackPointExtension>
        </extensions>
      </trkpt>
      <trkpt lat="42.5448559038341045379638671875" lon="19.79726613499224185943603515625">
        <ele>1003.79998779296875</ele>
        <time>2026-06-18T07:16:15.000Z</time>
        <extensions>
          <ns3:TrackPointExtension>
            <ns3:atemp>21.0</ns3:atemp>
          </ns3:TrackPointExtension>
        </extensions>
      </trkpt>
      <trkpt lat="42.5448118150234222412109375" lon="19.797273762524127960205078125">
        <ele>1004</ele>
        <time>2026-06-18T07:16:16.000Z</time>
        <extensions>
          <ns3:TrackPointExtension>
            <ns3:atemp>21.0</ns3:atemp>
          </ns3:TrackPointExtension>
        </extensions>
      </trkpt>
      <trkpt lat="42.54476848058402538299560546875" lon="19.7972829826176166534423828125">
        <ele>1004</ele>
        <time>2026-06-18T07:16:17.000Z</time>
        <extensions>
          <ns3:TrackPointExtension>
            <ns3:atemp>21.0</ns3:atemp>
          </ns3:TrackPointExtension>
        </extensions>
      </trkpt>
      <trkpt lat="42.54472472704946994781494140625" lon="19.7972906939685344696044921875">
        <ele>1004.20001220703125</ele>
        <time>2026-06-18T07:16:18.000Z</time>
        <extensions>
          <ns3:TrackPointExtension>
            <ns3:atemp>21.0</ns3:atemp>
          </ns3:TrackPointExtension>
        </extensions>
      </trkpt>
      <trkpt lat="42.5446782074868679046630859375" lon="19.79730016551911830902099609375">
        <ele>1004.4000244140625</ele>
        <time>2026-06-18T07:16:19.000Z</time>
        <extensions>
          <ns3:TrackPointExtension>
            <ns3:atemp>21.0</ns3:atemp>
          </ns3:TrackPointExtension>
        </extensions>
      </trkpt>
      <trkpt lat="42.54463235847651958465576171875" lon="19.79730972088873386383056640625">
        <ele>1004.4000244140625</ele>
        <time>2026-06-18T07:16:20.000Z</time>
        <extensions>
          <ns3:TrackPointExtension>
            <ns3:atemp>21.0</ns3:atemp>
          </ns3:TrackPointExtension>
        </extensions>
      </trkpt>
      <trkpt lat="42.54458910785615444183349609375" lon="19.79732095263898372650146484375">
        <ele>1004.5999755859375</ele>
        <time>2026-06-18T07:16:21.000Z</time>
        <extensions>
          <ns3:TrackPointExtension>
            <ns3:atemp>21.0</ns3:atemp>
          </ns3:TrackPointExtension>
        </extensions>
      </trkpt>
      <trkpt lat="42.54454518668353557586669921875" lon="19.79733134619891643524169921875">
        <ele>1004.79998779296875</ele>
        <time>2026-06-18T07:16:22.000Z</time>
        <extensions>
          <ns3:TrackPointExtension>
            <ns3:atemp>21.0</ns3:atemp>
          </ns3:TrackPointExtension>
        </extensions>
      </trkpt>
      <trkpt lat="42.5445008464157581329345703125" lon="19.79733989574015140533447265625">
        <ele>1004.79998779296875</ele>
        <time>2026-06-18T07:16:23.000Z</time>
        <extensions>
          <ns3:TrackPointExtension>
            <ns3:atemp>21.0</ns3:atemp>
          </ns3:TrackPointExtension>
        </extensions>
      </trkpt>
      <trkpt lat="42.544456087052822113037109375" lon="19.79734324850142002105712890625">
        <ele>1005</ele>
        <time>2026-06-18T07:16:24.000Z</time>
        <extensions>
          <ns3:TrackPointExtension>
            <ns3:atemp>21.0</ns3:atemp>
          </ns3:TrackPointExtension>
        </extensions>
      </trkpt>
      <trkpt lat="42.54441124387085437774658203125" lon="19.797344505786895751953125">
        <ele>1005.20001220703125</ele>
        <time>2026-06-18T07:16:25.000Z</time>
        <extensions>
          <ns3:TrackPointExtension>
            <ns3:atemp>21.0</ns3:atemp>
          </ns3:TrackPointExtension>
        </extensions>
      </trkpt>
      <trkpt lat="42.5443670712411403656005859375" lon="19.797345511615276336669921875">
        <ele>1005.20001220703125</ele>
        <time>2026-06-18T07:16:26.000Z</time>
        <extensions>
          <ns3:TrackPointExtension>
            <ns3:atemp>21.0</ns3:atemp>
          </ns3:TrackPointExtension>
        </extensions>
      </trkpt>
      <trkpt lat="42.5443211384117603302001953125" lon="19.7973493672907352447509765625">
        <ele>1005.4000244140625</ele>
        <time>2026-06-18T07:16:27.000Z</time>
        <extensions>
          <ns3:TrackPointExtension>
            <ns3:atemp>21.0</ns3:atemp>
          </ns3:TrackPointExtension>
        </extensions>
      </trkpt>
      <trkpt lat="42.54427696578204631805419921875" lon="19.79734911583364009857177734375">
        <ele>1005.5999755859375</ele>
        <time>2026-06-18T07:16:28.000Z</time>
        <extensions>
          <ns3:TrackPointExtension>
            <ns3:atemp>21.0</ns3:atemp>
          </ns3:TrackPointExtension>
        </extensions>
      </trkpt>
      <trkpt lat="42.5442309491336345672607421875" lon="19.79734894819557666778564453125">
        <ele>1005.5999755859375</ele>
        <time>2026-06-18T07:16:29.000Z</time>
        <extensions>
          <ns3:TrackPointExtension>
            <ns3:atemp>21.0</ns3:atemp>
          </ns3:TrackPointExtension>
        </extensions>
      </trkpt>
      <trkpt lat="42.5441870279610157012939453125" lon="19.79734391905367374420166015625">
        <ele>1005.79998779296875</ele>
        <time>2026-06-18T07:16:30.000Z</time>
        <extensions>
          <ns3:TrackPointExtension>
            <ns3:atemp>21.0</ns3:atemp>
          </ns3:TrackPointExtension>
        </extensions>
      </trkpt>
      <trkpt lat="42.5441412627696990966796875" lon="19.79733620770275592803955078125">
        <ele>1006</ele>
        <time>2026-06-18T07:16:31.000Z</time>
        <extensions>
          <ns3:TrackPointExtension>
            <ns3:atemp>21.0</ns3:atemp>
          </ns3:TrackPointExtension>
        </extensions>
      </trkpt>
      <trkpt lat="42.54409608431160449981689453125" lon="19.79732749052345752716064453125">
        <ele>1006.20001220703125</ele>
        <time>2026-06-18T07:16:32.000Z</time>
        <extensions>
          <ns3:TrackPointExtension>
            <ns3:atemp>21.0</ns3:atemp>
          </ns3:TrackPointExtension>
        </extensions>
      </trkpt>
      <trkpt lat="42.5440502353012561798095703125" lon="19.79732103645801544189453125">
        <ele>1006.20001220703125</ele>
        <time>2026-06-18T07:16:33.000Z</time>
        <extensions>
          <ns3:TrackPointExtension>
            <ns3:atemp>21.0</ns3:atemp>
          </ns3:TrackPointExtension>
        </extensions>
      </trkpt>
      <trkpt lat="42.544006146490573883056640625" lon="19.7973094694316387176513671875">
        <ele>1006.4000244140625</ele>
        <time>2026-06-18T07:16:34.000Z</time>
        <extensions>
          <ns3:TrackPointExtension>
            <ns3:atemp>21.0</ns3:atemp>
          </ns3:TrackPointExtension>
        </extensions>
      </trkpt>
      <trkpt lat="42.5439600460231304168701171875" lon="19.79729614220559597015380859375">
        <ele>1006.5999755859375</ele>
        <time>2026-06-18T07:16:35.000Z</time>
        <extensions>
          <ns3:TrackPointExtension>
            <ns3:atemp>21.0</ns3:atemp>
          </ns3:TrackPointExtension>
        </extensions>
      </trkpt>
      <trkpt lat="42.54391528666019439697265625" lon="19.797279797494411468505859375">
        <ele>1006.79998779296875</ele>
        <time>2026-06-18T07:16:36.000Z</time>
        <extensions>
          <ns3:TrackPointExtension>
            <ns3:atemp>21.0</ns3:atemp>
          </ns3:TrackPointExtension>
        </extensions>
      </trkpt>
      <trkpt lat="42.543869353830814361572265625" lon="19.7972621954977512359619140625">
        <ele>1007</ele>
        <time>2026-06-18T07:16:37.000Z</time>
        <extensions>
          <ns3:TrackPointExtension>
            <ns3:atemp>21.0</ns3:atemp>
          </ns3:TrackPointExtension>
        </extensions>
      </trkpt>
      <trkpt lat="42.54382702521979808807373046875" lon="19.79723989963531494140625">
        <ele>1007</ele>
        <time>2026-06-18T07:16:38.000Z</time>
        <extensions>
          <ns3:TrackPointExtension>
            <ns3:atemp>21.0</ns3:atemp>
          </ns3:TrackPointExtension>
        </extensions>
      </trkpt>
      <trkpt lat="42.543782182037830352783203125" lon="19.797221124172210693359375">
        <ele>1007.20001220703125</ele>
        <time>2026-06-18T07:16:39.000Z</time>
        <extensions>
          <ns3:TrackPointExtension>
            <ns3:atemp>21.0</ns3:atemp>
          </ns3:TrackPointExtension>
        </extensions>
      </trkpt>
      <trkpt lat="42.54373884759843349456787109375" lon="19.79720771312713623046875">
        <ele>1007.20001220703125</ele>
        <time>2026-06-18T07:16:40.000Z</time>
        <extensions>
          <ns3:TrackPointExtension>
            <ns3:atemp>21.0</ns3:atemp>
          </ns3:TrackPointExtension>
        </extensions>
      </trkpt>
      <trkpt lat="42.54369609989225864410400390625" lon="19.79720209725201129913330078125">
        <ele>1007.4000244140625</ele>
        <time>2026-06-18T07:16:41.000Z</time>
        <extensions>
          <ns3:TrackPointExtension>
            <ns3:atemp>21.0</ns3:atemp>
          </ns3:TrackPointExtension>
        </extensions>
      </trkpt>
      <trkpt lat="42.5436539389193058013916015625" lon="19.79719589464366436004638671875">
        <ele>1007.4000244140625</ele>
        <time>2026-06-18T07:16:42.000Z</time>
        <extensions>
          <ns3:TrackPointExtension>
            <ns3:atemp>21.0</ns3:atemp>
          </ns3:TrackPointExtension>
        </extensions>
      </trkpt>
      <trkpt lat="42.54361261613667011260986328125" lon="19.79719438590109348297119140625">
        <ele>1007.4000244140625</ele>
        <time>2026-06-18T07:16:43.000Z</time>
        <extensions>
          <ns3:TrackPointExtension>
            <ns3:atemp>21.0</ns3:atemp>
          </ns3:TrackPointExtension>
        </extensions>
      </trkpt>
      <trkpt lat="42.5435726344585418701171875" lon="19.7972001694142818450927734375">
        <ele>1007.5999755859375</ele>
        <time>2026-06-18T07:16:44.000Z</time>
        <extensions>
          <ns3:TrackPointExtension>
            <ns3:atemp>21.0</ns3:atemp>
          </ns3:TrackPointExtension>
        </extensions>
      </trkpt>
      <trkpt lat="42.54353365860879421234130859375" lon="19.79720125906169414520263671875">
        <ele>1007.5999755859375</ele>
        <time>2026-06-18T07:16:45.000Z</time>
        <extensions>
          <ns3:TrackPointExtension>
            <ns3:atemp>21.0</ns3:atemp>
          </ns3:TrackPointExtension>
        </extensions>
      </trkpt>
      <trkpt lat="42.54349283874034881591796875" lon="19.79719857685267925262451171875">
        <ele>1007.79998779296875</ele>
        <time>2026-06-18T07:16:46.000Z</time>
        <extensions>
          <ns3:TrackPointExtension>
            <ns3:atemp>21.0</ns3:atemp>
          </ns3:TrackPointExtension>
        </extensions>
      </trkpt>
      <trkpt lat="42.5434514321386814117431640625" lon="19.79719555936753749847412109375">
        <ele>1008</ele>
        <time>2026-06-18T07:16:47.000Z</time>
        <extensions>
          <ns3:TrackPointExtension>
            <ns3:atemp>21.0</ns3:atemp>
          </ns3:TrackPointExtension>
        </extensions>
      </trkpt>
      <trkpt lat="42.543404996395111083984375" lon="19.79719589464366436004638671875">
        <ele>1008</ele>
        <time>2026-06-18T07:16:48.000Z</time>
        <extensions>
          <ns3:TrackPointExtension>
            <ns3:atemp>21.0</ns3:atemp>
          </ns3:TrackPointExtension>
        </extensions>
      </trkpt>
      <trkpt lat="42.54335872828960418701171875" lon="19.79719790630042552947998046875">
        <ele>1008.20001220703125</ele>
        <time>2026-06-18T07:16:49.000Z</time>
        <extensions>
          <ns3:TrackPointExtension>
            <ns3:atemp>21.0</ns3:atemp>
          </ns3:TrackPointExtension>
        </extensions>
      </trkpt>
      <trkpt lat="42.5433122925460338592529296875" lon="19.7971994988620281219482421875">
        <ele>1008.20001220703125</ele>
        <time>2026-06-18T07:16:50.000Z</time>
        <extensions>
          <ns3:TrackPointExtension>
            <ns3:atemp>21.0</ns3:atemp>
          </ns3:TrackPointExtension>
        </extensions>
      </trkpt>
      <trkpt lat="42.54326577298343181610107421875" lon="19.7972010076045989990234375">
        <ele>1008.4000244140625</ele>
        <time>2026-06-18T07:16:51.000Z</time>
        <extensions>
          <ns3:TrackPointExtension>
            <ns3:atemp>21.0</ns3:atemp>
          </ns3:TrackPointExtension>
        </extensions>
      </trkpt>
      <trkpt lat="42.5432224385440349578857421875" lon="19.7972051985561847686767578125">
        <ele>1008.4000244140625</ele>
        <time>2026-06-18T07:16:52.000Z</time>
        <extensions>
          <ns3:TrackPointExtension>
            <ns3:atemp>21.0</ns3:atemp>
          </ns3:TrackPointExtension>
        </extensions>
      </trkpt>
      <trkpt lat="42.5431778468191623687744140625" lon="19.7972102276980876922607421875">
        <ele>1008.5999755859375</ele>
        <time>2026-06-18T07:16:53.000Z</time>
        <extensions>
          <ns3:TrackPointExtension>
            <ns3:atemp>21.0</ns3:atemp>
          </ns3:TrackPointExtension>
        </extensions>
      </trkpt>
      <trkpt lat="42.54313501529395580291748046875" lon="19.79721684940159320831298828125">
        <ele>1008.79998779296875</ele>
        <time>2026-06-18T07:16:54.000Z</time>
        <extensions>
          <ns3:TrackPointExtension>
            <ns3:atemp>21.0</ns3:atemp>
          </ns3:TrackPointExtension>
        </extensions>
      </trkpt>
      <trkpt lat="42.54309277050197124481201171875" lon="19.79722036980092525482177734375">
        <ele>1008.79998779296875</ele>
        <time>2026-06-18T07:16:55.000Z</time>
        <extensions>
          <ns3:TrackPointExtension>
            <ns3:atemp>21.0</ns3:atemp>
          </ns3:TrackPointExtension>
        </extensions>
      </trkpt>
      <trkpt lat="42.5430474244058132171630859375" lon="19.7972239740192890167236328125">
        <ele>1009</ele>
        <time>2026-06-18T07:16:56.000Z</time>
        <extensions>
          <ns3:TrackPointExtension>
            <ns3:atemp>21.0</ns3:atemp>
          </ns3:TrackPointExtension>
        </extensions>
      </trkpt>
      <trkpt lat="42.54300274886190891265869140625" lon="19.79722757823765277862548828125">
        <ele>1009.20001220703125</ele>
        <time>2026-06-18T07:16:57.000Z</time>
        <extensions>
          <ns3:TrackPointExtension>
            <ns3:atemp>21.0</ns3:atemp>
          </ns3:TrackPointExtension>
        </extensions>
      </trkpt>
      <trkpt lat="42.54295899532735347747802734375" lon="19.79722875170409679412841796875">
        <ele>1009.20001220703125</ele>
        <time>2026-06-18T07:16:58.000Z</time>
        <extensions>
          <ns3:TrackPointExtension>
            <ns3:atemp>21.0</ns3:atemp>
          </ns3:TrackPointExtension>
        </extensions>
      </trkpt>
      <trkpt lat="42.5429143197834491729736328125" lon="19.79722757823765277862548828125">
        <ele>1009.4000244140625</ele>
        <time>2026-06-18T07:16:59.000Z</time>
        <extensions>
          <ns3:TrackPointExtension>
            <ns3:atemp>21.0</ns3:atemp>
          </ns3:TrackPointExtension>
        </extensions>
      </trkpt>
      <trkpt lat="42.5428680516779422760009765625" lon="19.79722623713314533233642578125">
        <ele>1009.5999755859375</ele>
        <time>2026-06-18T07:17:00.000Z</time>
        <extensions>
          <ns3:TrackPointExtension>
            <ns3:atemp>21.0</ns3:atemp>
          </ns3:TrackPointExtension>
        </extensions>
      </trkpt>
      <trkpt lat="42.54281884990632534027099609375" lon="19.79722573421895503997802734375">
        <ele>1009.5999755859375</ele>
        <time>2026-06-18T07:17:01.000Z</time>
        <extensions>
          <ns3:TrackPointExtension>
            <ns3:atemp>21.0</ns3:atemp>
          </ns3:TrackPointExtension>
        </extensions>
      </trkpt>
      <trkpt lat="42.54277157597243785858154296875" lon="19.79722875170409679412841796875">
        <ele>1009.5999755859375</ele>
        <time>2026-06-18T07:17:02.000Z</time>
        <extensions>
          <ns3:TrackPointExtension>
            <ns3:atemp>21.0</ns3:atemp>
          </ns3:TrackPointExtension>
        </extensions>
      </trkpt>
      <trkpt lat="42.5427255593240261077880859375" lon="19.79723176918923854827880859375">
        <ele>1009.79998779296875</ele>
        <time>2026-06-18T07:17:03.000Z</time>
        <extensions>
          <ns3:TrackPointExtension>
            <ns3:atemp>21.0</ns3:atemp>
          </ns3:TrackPointExtension>
        </extensions>
      </trkpt>
      <trkpt lat="42.5426826439797878265380859375" lon="19.797235541045665740966796875">
        <ele>1009.79998779296875</ele>
        <time>2026-06-18T07:17:04.000Z</time>
        <extensions>
          <ns3:TrackPointExtension>
            <ns3:atemp>21.0</ns3:atemp>
          </ns3:TrackPointExtension>
        </extensions>
      </trkpt>
      <trkpt lat="42.54263964481651782989501953125" lon="19.79724098928272724151611328125">
        <ele>1010</ele>
        <time>2026-06-18T07:17:05.000Z</time>
        <extensions>
          <ns3:TrackPointExtension>
            <ns3:atemp>21.0</ns3:atemp>
          </ns3:TrackPointExtension>
        </extensions>
      </trkpt>
      <trkpt lat="42.54259622655808925628662109375" lon="19.79724727571010589599609375">
        <ele>1010.20001220703125</ele>
        <time>2026-06-18T07:17:06.000Z</time>
        <extensions>
          <ns3:TrackPointExtension>
            <ns3:atemp>21.0</ns3:atemp>
          </ns3:TrackPointExtension>
        </extensions>
      </trkpt>
      <trkpt lat="42.54255113191902637481689453125" lon="19.79725540615618228912353515625">
        <ele>1010.4000244140625</ele>
        <time>2026-06-18T07:17:07.000Z</time>
        <extensions>
          <ns3:TrackPointExtension>
            <ns3:atemp>21.0</ns3:atemp>
          </ns3:TrackPointExtension>
        </extensions>
      </trkpt>
      <trkpt lat="42.5425029359757900238037109375" lon="19.79726311750710010528564453125">
        <ele>1010.5999755859375</ele>
        <time>2026-06-18T07:17:08.000Z</time>
        <extensions>
          <ns3:TrackPointExtension>
            <ns3:atemp>21.0</ns3:atemp>
          </ns3:TrackPointExtension>
        </extensions>
      </trkpt>
      <trkpt lat="42.5424563325941562652587890625" lon="19.79727351106703281402587890625">
        <ele>1010.79998779296875</ele>
        <time>2026-06-18T07:17:09.000Z</time>
        <extensions>
          <ns3:TrackPointExtension>
            <ns3:atemp>21.0</ns3:atemp>
          </ns3:TrackPointExtension>
        </extensions>
      </trkpt>
      <trkpt lat="42.5424140878021717071533203125" lon="19.79728189297020435333251953125">
        <ele>1010.79998779296875</ele>
        <time>2026-06-18T07:17:10.000Z</time>
        <extensions>
          <ns3:TrackPointExtension>
            <ns3:atemp>21.0</ns3:atemp>
          </ns3:TrackPointExtension>
        </extensions>
      </trkpt>
      <trkpt lat="42.54237125627696514129638671875" lon="19.797288514673709869384765625">
        <ele>1011</ele>
        <time>2026-06-18T07:17:11.000Z</time>
        <extensions>
          <ns3:TrackPointExtension>
            <ns3:atemp>21.0</ns3:atemp>
          </ns3:TrackPointExtension>
        </extensions>
      </trkpt>
      <trkpt lat="42.5423302687704563140869140625" lon="19.79729647748172283172607421875">
        <ele>1011.20001220703125</ele>
        <time>2026-06-18T07:17:12.000Z</time>
        <extensions>
          <ns3:TrackPointExtension>
            <ns3:atemp>21.0</ns3:atemp>
          </ns3:TrackPointExtension>
        </extensions>
      </trkpt>
      <trkpt lat="42.542289197444915771484375" lon="19.797304607927799224853515625">
        <ele>1011.4000244140625</ele>
        <time>2026-06-18T07:17:13.000Z</time>
        <extensions>
          <ns3:TrackPointExtension>
            <ns3:atemp>21.0</ns3:atemp>
          </ns3:TrackPointExtension>
        </extensions>
      </trkpt>
      <trkpt lat="42.54224854521453380584716796875" lon="19.79731164872646331787109375">
        <ele>1011.5999755859375</ele>
        <time>2026-06-18T07:17:14.000Z</time>
        <extensions>
          <ns3:TrackPointExtension>
            <ns3:atemp>21.0</ns3:atemp>
          </ns3:TrackPointExtension>
        </extensions>
      </trkpt>
      <trkpt lat="42.54220562987029552459716796875" lon="19.797312319278717041015625">
        <ele>1011.79998779296875</ele>
        <time>2026-06-18T07:17:15.000Z</time>
        <extensions>
          <ns3:TrackPointExtension>
            <ns3:atemp>21.0</ns3:atemp>
          </ns3:TrackPointExtension>
        </extensions>
      </trkpt>
      <trkpt lat="42.5421633012592792510986328125" lon="19.79731139726936817169189453125">
        <ele>1012</ele>
        <time>2026-06-18T07:17:16.000Z</time>
        <extensions>
          <ns3:TrackPointExtension>
            <ns3:atemp>21.0</ns3:atemp>
          </ns3:TrackPointExtension>
        </extensions>
      </trkpt>
      <trkpt lat="42.54212097264826297760009765625" lon="19.79730569757521152496337890625">
        <ele>1012.4000244140625</ele>
        <time>2026-06-18T07:17:17.000Z</time>
        <extensions>
          <ns3:TrackPointExtension>
            <ns3:atemp>21.0</ns3:atemp>
          </ns3:TrackPointExtension>
        </extensions>
      </trkpt>
      <trkpt lat="42.5420788116753101348876953125" lon="19.79729823768138885498046875">
        <ele>1012.5999755859375</ele>
        <time>2026-06-18T07:17:18.000Z</time>
        <extensions>
          <ns3:TrackPointExtension>
            <ns3:atemp>21.0</ns3:atemp>
          </ns3:TrackPointExtension>
        </extensions>
      </trkpt>
      <trkpt lat="42.54203933291137218475341796875" lon="19.7972839884459972381591796875">
        <ele>1013</ele>
        <time>2026-06-18T07:17:19.000Z</time>
        <extensions>
          <ns3:TrackPointExtension>
            <ns3:atemp>21.0</ns3:atemp>
          </ns3:TrackPointExtension>
        </extensions>
      </trkpt>
      <trkpt lat="42.54199876450002193450927734375" lon="19.79727250523865222930908203125">
        <ele>1013.4000244140625</ele>
        <time>2026-06-18T07:17:20.000Z</time>
        <extensions>
          <ns3:TrackPointExtension>
            <ns3:atemp>21.0</ns3:atemp>
          </ns3:TrackPointExtension>
        </extensions>
      </trkpt>
      <trkpt lat="42.54195886664092540740966796875" lon="19.7972595132887363433837890625">
        <ele>1013.79998779296875</ele>
        <time>2026-06-18T07:17:21.000Z</time>
        <extensions>
          <ns3:TrackPointExtension>
            <ns3:atemp>21.0</ns3:atemp>
          </ns3:TrackPointExtension>
        </extensions>
      </trkpt>
      <trkpt lat="42.5419215671718120574951171875" lon="19.7972457669675350189208984375">
        <ele>1014</ele>
        <time>2026-06-18T07:17:22.000Z</time>
        <extensions>
          <ns3:TrackPointExtension>
            <ns3:atemp>21.0</ns3:atemp>
          </ns3:TrackPointExtension>
        </extensions>
      </trkpt>
      <trkpt lat="42.5418826751410961151123046875" lon="19.7972331941127777099609375">
        <ele>1014.4000244140625</ele>
        <time>2026-06-18T07:17:23.000Z</time>
        <extensions>
          <ns3:TrackPointExtension>
            <ns3:atemp>21.0</ns3:atemp>
          </ns3:TrackPointExtension>
        </extensions>
      </trkpt>
      <trkpt lat="42.54184504039585590362548828125" lon="19.79721911251544952392578125">
        <ele>1014.5999755859375</ele>
        <time>2026-06-18T07:17:24.000Z</time>
        <extensions>
          <ns3:TrackPointExtension>
            <ns3:atemp>21.0</ns3:atemp>
          </ns3:TrackPointExtension>
        </extensions>
      </trkpt>
      <trkpt lat="42.54181151278316974639892578125" lon="19.79719991795718669891357421875">
        <ele>1015</ele>
        <time>2026-06-18T07:17:25.000Z</time>
        <extensions>
          <ns3:TrackPointExtension>
            <ns3:atemp>21.0</ns3:atemp>
          </ns3:TrackPointExtension>
        </extensions>
      </trkpt>
      <trkpt lat="42.54178033210337162017822265625" lon="19.79718315415084362030029296875">
        <ele>1015.4000244140625</ele>
        <time>2026-06-18T07:17:26.000Z</time>
        <extensions>
          <ns3:TrackPointExtension>
            <ns3:atemp>21.0</ns3:atemp>
          </ns3:TrackPointExtension>
        </extensions>
      </trkpt>
      <trkpt lat="42.541745044291019439697265625" lon="19.7971666418015956878662109375">
        <ele>1015.5999755859375</ele>
        <time>2026-06-18T07:17:27.000Z</time>
        <extensions>
          <ns3:TrackPointExtension>
            <ns3:atemp>21.0</ns3:atemp>
          </ns3:TrackPointExtension>
        </extensions>
      </trkpt>
      <trkpt lat="42.5417093373835086822509765625" lon="19.79714493267238140106201171875">
        <ele>1015.79998779296875</ele>
        <time>2026-06-18T07:17:28.000Z</time>
        <extensions>
          <ns3:TrackPointExtension>
            <ns3:atemp>21.0</ns3:atemp>
          </ns3:TrackPointExtension>
        </extensions>
      </trkpt>
      <trkpt lat="42.54167069680988788604736328125" lon="19.797120206058025360107421875">
        <ele>1016</ele>
        <time>2026-06-18T07:17:29.000Z</time>
        <extensions>
          <ns3:TrackPointExtension>
            <ns3:atemp>21.0</ns3:atemp>
          </ns3:TrackPointExtension>
        </extensions>
      </trkpt>
      <trkpt lat="42.5416322238743305206298828125" lon="19.79709547944366931915283203125">
        <ele>1016</ele>
        <time>2026-06-18T07:17:30.000Z</time>
        <extensions>
          <ns3:TrackPointExtension>
            <ns3:atemp>21.0</ns3:atemp>
          </ns3:TrackPointExtension>
        </extensions>
      </trkpt>
      <trkpt lat="42.54159626550972461700439453125" lon="19.797072596848011016845703125">
        <ele>1016.20001220703125</ele>
        <time>2026-06-18T07:17:31.000Z</time>
        <extensions>
          <ns3:TrackPointExtension>
            <ns3:atemp>21.0</ns3:atemp>
          </ns3:TrackPointExtension>
        </extensions>
      </trkpt>
      <trkpt lat="42.54156290553510189056396484375" lon="19.797051139175891876220703125">
        <ele>1016.20001220703125</ele>
        <time>2026-06-18T07:17:32.000Z</time>
        <extensions>
          <ns3:TrackPointExtension>
            <ns3:atemp>21.0</ns3:atemp>
          </ns3:TrackPointExtension>
        </extensions>
      </trkpt>
      <trkpt lat="42.54152703098952770233154296875" lon="19.7970281727612018585205078125">
        <ele>1016.20001220703125</ele>
        <time>2026-06-18T07:17:33.000Z</time>
        <extensions>
          <ns3:TrackPointExtension>
            <ns3:atemp>21.0</ns3:atemp>
          </ns3:TrackPointExtension>
        </extensions>
      </trkpt>
      <trkpt lat="42.54149325191974639892578125" lon="19.79700780473649501800537109375">
        <ele>1016.20001220703125</ele>
        <time>2026-06-18T07:17:34.000Z</time>
        <extensions>
          <ns3:TrackPointExtension>
            <ns3:atemp>21.0</ns3:atemp>
          </ns3:TrackPointExtension>
        </extensions>
      </trkpt>
      <trkpt lat="42.5414625741541385650634765625" lon="19.79699112474918365478515625">
        <ele>1016.4000244140625</ele>
        <time>2026-06-18T07:17:35.000Z</time>
        <extensions>
          <ns3:TrackPointExtension>
            <ns3:atemp>21.0</ns3:atemp>
          </ns3:TrackPointExtension>
        </extensions>
      </trkpt>
      <trkpt lat="42.54143684171140193939208984375" lon="19.79697142727673053741455078125">
        <ele>1016.4000244140625</ele>
        <time>2026-06-18T07:17:36.000Z</time>
        <extensions>
          <ns3:TrackPointExtension>
            <ns3:atemp>21.0</ns3:atemp>
          </ns3:TrackPointExtension>
        </extensions>
      </trkpt>
      <trkpt lat="42.54141236655414104461669921875" lon="19.79695583693683147430419921875">
        <ele>1016.5999755859375</ele>
        <time>2026-06-18T07:17:37.000Z</time>
        <extensions>
          <ns3:TrackPointExtension>
            <ns3:atemp>21.0</ns3:atemp>
          </ns3:TrackPointExtension>
        </extensions>
      </trkpt>
      <trkpt lat="42.54138487391173839569091796875" lon="19.79694477282464504241943359375">
        <ele>1016.5999755859375</ele>
        <time>2026-06-18T07:17:38.000Z</time>
        <extensions>
          <ns3:TrackPointExtension>
            <ns3:atemp>21.0</ns3:atemp>
          </ns3:TrackPointExtension>
        </extensions>
      </trkpt>
      <trkpt lat="42.54135956056416034698486328125" lon="19.79693169705569744110107421875">
        <ele>1016.79998779296875</ele>
        <time>2026-06-18T07:17:39.000Z</time>
        <extensions>
          <ns3:TrackPointExtension>
            <ns3:atemp>21.0</ns3:atemp>
          </ns3:TrackPointExtension>
        </extensions>
      </trkpt>
      <trkpt lat="42.54133676178753376007080078125" lon="19.79691761545836925506591796875">
        <ele>1016.79998779296875</ele>
        <time>2026-06-18T07:17:40.000Z</time>
        <extensions>
          <ns3:TrackPointExtension>
            <ns3:atemp>21.0</ns3:atemp>
          </ns3:TrackPointExtension>
        </extensions>
      </trkpt>
      <trkpt lat="42.5413160584867000579833984375" lon="19.7969111613929271697998046875">
        <ele>1017</ele>
        <time>2026-06-18T07:17:41.000Z</time>
        <extensions>
          <ns3:TrackPointExtension>
            <ns3:atemp>21.0</ns3:atemp>
          </ns3:TrackPointExtension>
        </extensions>
      </trkpt>
      <trkpt lat="42.54129719920456409454345703125" lon="19.7969064675271511077880859375">
        <ele>1017</ele>
        <time>2026-06-18T07:17:42.000Z</time>
        <extensions>
          <ns3:TrackPointExtension>
            <ns3:atemp>21.0</ns3:atemp>
          </ns3:TrackPointExtension>
        </extensions>
      </trkpt>
      <trkpt lat="42.54127800464630126953125" lon="19.7969057969748973846435546875">
        <ele>1017.20001220703125</ele>
        <time>2026-06-18T07:17:43.000Z</time>
        <extensions>
          <ns3:TrackPointExtension>
            <ns3:atemp>21.0</ns3:atemp>
          </ns3:TrackPointExtension>
        </extensions>
      </trkpt>
      <trkpt lat="42.54125730134546756744384765625" lon="19.7969044558703899383544921875">
        <ele>1017.20001220703125</ele>
        <time>2026-06-18T07:17:44.000Z</time>
        <extensions>
          <ns3:TrackPointExtension>
            <ns3:atemp>21.0</ns3:atemp>
          </ns3:TrackPointExtension>
        </extensions>
      </trkpt>
      <trkpt lat="42.5412339158356189727783203125" lon="19.796904958784580230712890625">
        <ele>1017.20001220703125</ele>
        <time>2026-06-18T07:17:45.000Z</time>
        <extensions>
          <ns3:TrackPointExtension>
            <ns3:atemp>21.0</ns3:atemp>
          </ns3:TrackPointExtension>
        </extensions>
      </trkpt>
      <trkpt lat="42.541206590831279754638671875" lon="19.7969088144600391387939453125">
        <ele>1017.20001220703125</ele>
        <time>2026-06-18T07:17:46.000Z</time>
        <extensions>
          <ns3:TrackPointExtension>
            <ns3:atemp>21.0</ns3:atemp>
          </ns3:TrackPointExtension>
        </extensions>
      </trkpt>
      <trkpt lat="42.5411735661327838897705078125" lon="19.7969166934490203857421875">
        <ele>1017.4000244140625</ele>
        <time>2026-06-18T07:17:47.000Z</time>
        <extensions>
          <ns3:TrackPointExtension>
            <ns3:atemp>21.0</ns3:atemp>
          </ns3:TrackPointExtension>
        </extensions>
      </trkpt>
      <trkpt lat="42.54113920032978057861328125" lon="19.7969252429902553558349609375">
        <ele>1017.4000244140625</ele>
        <time>2026-06-18T07:17:48.000Z</time>
        <extensions>
          <ns3:TrackPointExtension>
            <ns3:atemp>21.0</ns3:atemp>
          </ns3:TrackPointExtension>
        </extensions>
      </trkpt>
      <trkpt lat="42.54110223613679409027099609375" lon="19.7969322837889194488525390625">
        <ele>1017.4000244140625</ele>
        <time>2026-06-18T07:17:49.000Z</time>
        <extensions>
          <ns3:TrackPointExtension>
            <ns3:atemp>21.0</ns3:atemp>
          </ns3:TrackPointExtension>
        </extensions>
      </trkpt>
      <trkpt lat="42.5410652719438076019287109375" lon="19.796940498054027557373046875">
        <ele>1017.5999755859375</ele>
        <time>2026-06-18T07:17:50.000Z</time>
        <extensions>
          <ns3:TrackPointExtension>
            <ns3:atemp>21.0</ns3:atemp>
          </ns3:TrackPointExtension>
        </extensions>
      </trkpt>
      <trkpt lat="42.541025541722774505615234375" lon="19.79694678448140621185302734375">
        <ele>1017.79998779296875</ele>
        <time>2026-06-18T07:17:51.000Z</time>
        <extensions>
          <ns3:TrackPointExtension>
            <ns3:atemp>21.0</ns3:atemp>
          </ns3:TrackPointExtension>
        </extensions>
      </trkpt>
      <trkpt lat="42.5409915111958980560302734375" lon="19.7969534061849117279052734375">
        <ele>1018</ele>
        <time>2026-06-18T07:17:52.000Z</time>
        <extensions>
          <ns3:TrackPointExtension>
            <ns3:atemp>21.0</ns3:atemp>
          </ns3:TrackPointExtension>
        </extensions>
      </trkpt>
      <trkpt lat="42.54096276126801967620849609375" lon="19.79696430265903472900390625">
        <ele>1018.4000244140625</ele>
        <time>2026-06-18T07:17:53.000Z</time>
        <extensions>
          <ns3:TrackPointExtension>
            <ns3:atemp>21.0</ns3:atemp>
          </ns3:TrackPointExtension>
        </extensions>
      </trkpt>
      <trkpt lat="42.54093275405466556549072265625" lon="19.7969728522002696990966796875">
        <ele>1018.79998779296875</ele>
        <time>2026-06-18T07:17:54.000Z</time>
        <extensions>
          <ns3:TrackPointExtension>
            <ns3:atemp>21.0</ns3:atemp>
          </ns3:TrackPointExtension>
        </extensions>
      </trkpt>
      <trkpt lat="42.54090408794581890106201171875" lon="19.79698115028440952301025390625">
        <ele>1019</ele>
        <time>2026-06-18T07:17:55.000Z</time>
        <extensions>
          <ns3:TrackPointExtension>
            <ns3:atemp>21.0</ns3:atemp>
          </ns3:TrackPointExtension>
        </extensions>
      </trkpt>
      <trkpt lat="42.54087500274181365966796875" lon="19.79698902927339076995849609375">
        <ele>1019.4000244140625</ele>
        <time>2026-06-18T07:17:56.000Z</time>
        <extensions>
          <ns3:TrackPointExtension>
            <ns3:atemp>21.0</ns3:atemp>
          </ns3:TrackPointExtension>
        </extensions>
      </trkpt>
      <trkpt lat="42.5408446602523326873779296875" lon="19.79699707590043544769287109375">
        <ele>1019.79998779296875</ele>
        <time>2026-06-18T07:17:57.000Z</time>
        <extensions>
          <ns3:TrackPointExtension>
            <ns3:atemp>21.0</ns3:atemp>
          </ns3:TrackPointExtension>
        </extensions>
      </trkpt>
      <trkpt lat="42.54081607796251773834228515625" lon="19.79700495488941669464111328125">
        <ele>1020.20001220703125</ele>
        <time>2026-06-18T07:17:58.000Z</time>
        <extensions>
          <ns3:TrackPointExtension>
            <ns3:atemp>21.0</ns3:atemp>
          </ns3:TrackPointExtension>
        </extensions>
      </trkpt>
      <trkpt lat="42.5407876633107662200927734375" lon="19.7970083914697170257568359375">
        <ele>1020.5999755859375</ele>
        <time>2026-06-18T07:17:59.000Z</time>
        <extensions>
          <ns3:TrackPointExtension>
            <ns3:atemp>21.0</ns3:atemp>
          </ns3:TrackPointExtension>
        </extensions>
      </trkpt>
      <trkpt lat="42.54075857810676097869873046875" lon="19.79700663127005100250244140625">
        <ele>1021</ele>
        <time>2026-06-18T07:18:00.000Z</time>
        <extensions>
          <ns3:TrackPointExtension>
            <ns3:atemp>21.0</ns3:atemp>
          </ns3:TrackPointExtension>
        </extensions>
      </trkpt>
      <trkpt lat="42.54072756506502628326416015625" lon="19.79700260795652866363525390625">
        <ele>1021.4000244140625</ele>
        <time>2026-06-18T07:18:01.000Z</time>
        <extensions>
          <ns3:TrackPointExtension>
            <ns3:atemp>21.0</ns3:atemp>
          </ns3:TrackPointExtension>
        </extensions>
      </trkpt>
      <trkpt lat="42.540699653327465057373046875" lon="19.79699523188173770904541015625">
        <ele>1021.79998779296875</ele>
        <time>2026-06-18T07:18:02.000Z</time>
        <extensions>
          <ns3:TrackPointExtension>
            <ns3:atemp>21.0</ns3:atemp>
          </ns3:TrackPointExtension>
        </extensions>
      </trkpt>
      <trkpt lat="42.54067190922796726226806640625" lon="19.79698282666504383087158203125">
        <ele>1022.20001220703125</ele>
        <time>2026-06-18T07:18:03.000Z</time>
        <extensions>
          <ns3:TrackPointExtension>
            <ns3:atemp>21.0</ns3:atemp>
          </ns3:TrackPointExtension>
        </extensions>
      </trkpt>
      <trkpt lat="42.5406431593000888824462890625" lon="19.79696606285870075225830078125">
        <ele>1022.5999755859375</ele>
        <time>2026-06-18T07:18:04.000Z</time>
        <extensions>
          <ns3:TrackPointExtension>
            <ns3:atemp>21.0</ns3:atemp>
          </ns3:TrackPointExtension>
        </extensions>
      </trkpt>
      <trkpt lat="42.54061281681060791015625" lon="19.79694913141429424285888671875">
        <ele>1022.79998779296875</ele>
        <time>2026-06-18T07:18:05.000Z</time>
        <extensions>
          <ns3:TrackPointExtension>
            <ns3:atemp>21.0</ns3:atemp>
          </ns3:TrackPointExtension>
        </extensions>
      </trkpt>
      <trkpt lat="42.54058264195919036865234375" lon="19.79693119414150714874267578125">
        <ele>1023.20001220703125</ele>
        <time>2026-06-18T07:18:06.000Z</time>
        <extensions>
          <ns3:TrackPointExtension>
            <ns3:atemp>21.0</ns3:atemp>
          </ns3:TrackPointExtension>
        </extensions>
      </trkpt>
      <trkpt lat="42.54055322147905826568603515625" lon="19.79691468179225921630859375">
        <ele>1023.4000244140625</ele>
        <time>2026-06-18T07:18:07.000Z</time>
        <extensions>
          <ns3:TrackPointExtension>
            <ns3:atemp>21.0</ns3:atemp>
          </ns3:TrackPointExtension>
        </extensions>
      </trkpt>
      <trkpt lat="42.540524639189243316650390625" lon="19.79689749889075756072998046875">
        <ele>1023.79998779296875</ele>
        <time>2026-06-18T07:18:08.000Z</time>
        <extensions>
          <ns3:TrackPointExtension>
            <ns3:atemp>21.0</ns3:atemp>
          </ns3:TrackPointExtension>
        </extensions>
      </trkpt>
      <trkpt lat="42.5404961407184600830078125" lon="19.7968836687505245208740234375">
        <ele>1024</ele>
        <time>2026-06-18T07:18:09.000Z</time>
        <extensions>
          <ns3:TrackPointExtension>
            <ns3:atemp>21.0</ns3:atemp>
          </ns3:TrackPointExtension>
        </extensions>
      </trkpt>
      <trkpt lat="42.5404693186283111572265625" lon="19.796869754791259765625">
        <ele>1024.5999755859375</ele>
        <time>2026-06-18T07:18:10.000Z</time>
        <extensions>
          <ns3:TrackPointExtension>
            <ns3:atemp>21.0</ns3:atemp>
          </ns3:TrackPointExtension>
        </extensions>
      </trkpt>
      <trkpt lat="42.5404426641762256622314453125" lon="19.796862713992595672607421875">
        <ele>1024.800048828125</ele>
        <time>2026-06-18T07:18:11.000Z</time>
        <extensions>
          <ns3:TrackPointExtension>
            <ns3:atemp>21.0</ns3:atemp>
          </ns3:TrackPointExtension>
        </extensions>
      </trkpt>
      <trkpt lat="42.54041508771479129791259765625" lon="19.7968528233468532562255859375">
        <ele>1025.199951171875</ele>
        <time>2026-06-18T07:18:12.000Z</time>
        <extensions>
          <ns3:TrackPointExtension>
            <ns3:atemp>21.0</ns3:atemp>
          </ns3:TrackPointExtension>
        </extensions>
      </trkpt>
      <trkpt lat="42.54038491286337375640869140625" lon="19.79684050194919109344482421875">
        <ele>1025.5999755859375</ele>
        <time>2026-06-18T07:18:13.000Z</time>
        <extensions>
          <ns3:TrackPointExtension>
            <ns3:atemp>21.0</ns3:atemp>
          </ns3:TrackPointExtension>
        </extensions>
      </trkpt>
      <trkpt lat="42.54035440273582935333251953125" lon="19.7968337126076221466064453125">
        <ele>1026</ele>
        <time>2026-06-18T07:18:14.000Z</time>
        <extensions>
          <ns3:TrackPointExtension>
            <ns3:atemp>21.0</ns3:atemp>
          </ns3:TrackPointExtension>
        </extensions>
      </trkpt>
      <trkpt lat="42.54032514989376068115234375" lon="19.7968286834657192230224609375">
        <ele>1026.5999755859375</ele>
        <time>2026-06-18T07:18:15.000Z</time>
        <extensions>
          <ns3:TrackPointExtension>
            <ns3:atemp>21.0</ns3:atemp>
          </ns3:TrackPointExtension>
        </extensions>
      </trkpt>
      <trkpt lat="42.540293298661708831787109375" lon="19.7968216426670551300048828125">
        <ele>1027</ele>
        <time>2026-06-18T07:18:16.000Z</time>
        <extensions>
          <ns3:TrackPointExtension>
            <ns3:atemp>21.0</ns3:atemp>
          </ns3:TrackPointExtension>
        </extensions>
      </trkpt>
      <trkpt lat="42.540265135467052459716796875" lon="19.79681502096354961395263671875">
        <ele>1027.4000244140625</ele>
        <time>2026-06-18T07:18:17.000Z</time>
        <extensions>
          <ns3:TrackPointExtension>
            <ns3:atemp>21.0</ns3:atemp>
          </ns3:TrackPointExtension>
        </extensions>
      </trkpt>
      <trkpt lat="42.54023772664368152618408203125" lon="19.7968058846890926361083984375">
        <ele>1027.800048828125</ele>
        <time>2026-06-18T07:18:18.000Z</time>
        <extensions>
          <ns3:TrackPointExtension>
            <ns3:atemp>21.0</ns3:atemp>
          </ns3:TrackPointExtension>
        </extensions>
      </trkpt>
      <trkpt lat="42.54021056927740573883056640625" lon="19.79679272510111331939697265625">
        <ele>1028.4000244140625</ele>
        <time>2026-06-18T07:18:19.000Z</time>
        <extensions>
          <ns3:TrackPointExtension>
            <ns3:atemp>21.0</ns3:atemp>
          </ns3:TrackPointExtension>
        </extensions>
      </trkpt>
      <trkpt lat="42.54018240608274936676025390625" lon="19.796777553856372833251953125">
        <ele>1028.800048828125</ele>
        <time>2026-06-18T07:18:20.000Z</time>
        <extensions>
          <ns3:TrackPointExtension>
            <ns3:atemp>21.0</ns3:atemp>
          </ns3:TrackPointExtension>
        </extensions>
      </trkpt>
      <trkpt lat="42.54015558399260044097900390625" lon="19.79676313698291778564453125">
        <ele>1029.4000244140625</ele>
        <time>2026-06-18T07:18:21.000Z</time>
        <extensions>
          <ns3:TrackPointExtension>
            <ns3:atemp>21.0</ns3:atemp>
          </ns3:TrackPointExtension>
        </extensions>
      </trkpt>
      <trkpt lat="42.5401308573782444000244140625" lon="19.79674561880528926849365234375">
        <ele>1029.5999755859375</ele>
        <time>2026-06-18T07:18:22.000Z</time>
        <extensions>
          <ns3:TrackPointExtension>
            <ns3:atemp>21.0</ns3:atemp>
          </ns3:TrackPointExtension>
        </extensions>
      </trkpt>
      <trkpt lat="42.5401080586016178131103515625" lon="19.7967297770082950592041015625">
        <ele>1030</ele>
        <time>2026-06-18T07:18:23.000Z</time>
        <extensions>
          <ns3:TrackPointExtension>
            <ns3:atemp>21.0</ns3:atemp>
          </ns3:TrackPointExtension>
        </extensions>
      </trkpt>
      <trkpt lat="42.54008618183434009552001953125" lon="19.796711169183254241943359375">
        <ele>1030.4000244140625</ele>
        <time>2026-06-18T07:18:24.000Z</time>
        <extensions>
          <ns3:TrackPointExtension>
            <ns3:atemp>21.0</ns3:atemp>
          </ns3:TrackPointExtension>
        </extensions>
      </trkpt>
      <trkpt lat="42.54006321541965007781982421875" lon="19.7966935671865940093994140625">
        <ele>1030.800048828125</ele>
        <time>2026-06-18T07:18:25.000Z</time>
        <extensions>
          <ns3:TrackPointExtension>
            <ns3:atemp>21.0</ns3:atemp>
          </ns3:TrackPointExtension>
        </extensions>
      </trkpt>
      <trkpt lat="42.54003974609076976776123046875" lon="19.79667537845671176910400390625">
        <ele>1031.199951171875</ele>
        <time>2026-06-18T07:18:26.000Z</time>
        <extensions>
          <ns3:TrackPointExtension>
            <ns3:atemp>21.0</ns3:atemp>
          </ns3:TrackPointExtension>
        </extensions>
      </trkpt>
      <trkpt lat="42.54001577384769916534423828125" lon="19.796656183898448944091796875">
        <ele>1031.800048828125</ele>
        <time>2026-06-18T07:18:27.000Z</time>
        <extensions>
          <ns3:TrackPointExtension>
            <ns3:atemp>21.0</ns3:atemp>
          </ns3:TrackPointExtension>
        </extensions>
      </trkpt>
      <trkpt lat="42.53999062813818454742431640625" lon="19.79663380421698093414306640625">
        <ele>1032.199951171875</ele>
        <time>2026-06-18T07:18:28.000Z</time>
        <extensions>
          <ns3:TrackPointExtension>
            <ns3:atemp>21.0</ns3:atemp>
          </ns3:TrackPointExtension>
        </extensions>
      </trkpt>
      <trkpt lat="42.539967410266399383544921875" lon="19.79661569930613040924072265625">
        <ele>1032.5999755859375</ele>
        <time>2026-06-18T07:18:29.000Z</time>
        <extensions>
          <ns3:TrackPointExtension>
            <ns3:atemp>21.0</ns3:atemp>
          </ns3:TrackPointExtension>
        </extensions>
      </trkpt>
      <trkpt lat="42.539941929280757904052734375" lon="19.7965975105762481689453125">
        <ele>1033</ele>
        <time>2026-06-18T07:18:30.000Z</time>
        <extensions>
          <ns3:TrackPointExtension>
            <ns3:atemp>21.0</ns3:atemp>
          </ns3:TrackPointExtension>
        </extensions>
      </trkpt>
      <trkpt lat="42.53991770558059215545654296875" lon="19.79658183641731739044189453125">
        <ele>1033.4000244140625</ele>
        <time>2026-06-18T07:18:31.000Z</time>
        <extensions>
          <ns3:TrackPointExtension>
            <ns3:atemp>21.0</ns3:atemp>
          </ns3:TrackPointExtension>
        </extensions>
      </trkpt>
      <trkpt lat="42.53989398479461669921875" lon="19.7965668328106403350830078125">
        <ele>1033.800048828125</ele>
        <time>2026-06-18T07:18:32.000Z</time>
        <extensions>
          <ns3:TrackPointExtension>
            <ns3:atemp>21.0</ns3:atemp>
          </ns3:TrackPointExtension>
        </extensions>
      </trkpt>
      <trkpt lat="42.5398673303425312042236328125" lon="19.79655199684202671051025390625">
        <ele>1034.199951171875</ele>
        <time>2026-06-18T07:18:33.000Z</time>
        <extensions>
          <ns3:TrackPointExtension>
            <ns3:atemp>21.0</ns3:atemp>
          </ns3:TrackPointExtension>
        </extensions>
      </trkpt>
      <trkpt lat="42.53984059207141399383544921875" lon="19.79653808288276195526123046875">
        <ele>1034.5999755859375</ele>
        <time>2026-06-18T07:18:34.000Z</time>
        <extensions>
          <ns3:TrackPointExtension>
            <ns3:atemp>21.0</ns3:atemp>
          </ns3:TrackPointExtension>
        </extensions>
      </trkpt>
      <trkpt lat="42.539813853800296783447265625" lon="19.7965331375598907470703125">
        <ele>1034.800048828125</ele>
        <time>2026-06-18T07:18:35.000Z</time>
        <extensions>
          <ns3:TrackPointExtension>
            <ns3:atemp>21.0</ns3:atemp>
          </ns3:TrackPointExtension>
        </extensions>
      </trkpt>
      <trkpt lat="42.53978359512984752655029296875" lon="19.79652802459895610809326171875">
        <ele>1035.199951171875</ele>
        <time>2026-06-18T07:18:36.000Z</time>
        <extensions>
          <ns3:TrackPointExtension>
            <ns3:atemp>21.0</ns3:atemp>
          </ns3:TrackPointExtension>
        </extensions>
      </trkpt>
      <trkpt lat="42.53975207917392253875732421875" lon="19.796523749828338623046875">
        <ele>1035.4000244140625</ele>
        <time>2026-06-18T07:18:37.000Z</time>
        <extensions>
          <ns3:TrackPointExtension>
            <ns3:atemp>21.0</ns3:atemp>
          </ns3:TrackPointExtension>
        </extensions>
      </trkpt>
      <trkpt lat="42.53972123377025127410888671875" lon="19.79652316309511661529541015625">
        <ele>1036</ele>
        <time>2026-06-18T07:18:38.000Z</time>
        <extensions>
          <ns3:TrackPointExtension>
            <ns3:atemp>21.0</ns3:atemp>
          </ns3:TrackPointExtension>
        </extensions>
      </trkpt>
      <trkpt lat="42.53969558514654636383056640625" lon="19.79652752168476581573486328125">
        <ele>1036.199951171875</ele>
        <time>2026-06-18T07:18:39.000Z</time>
        <extensions>
          <ns3:TrackPointExtension>
            <ns3:atemp>21.0</ns3:atemp>
          </ns3:TrackPointExtension>
        </extensions>
      </trkpt>
      <trkpt lat="42.539670355618000030517578125" lon="19.79653338901698589324951171875">
        <ele>1036.5999755859375</ele>
        <time>2026-06-18T07:18:40.000Z</time>
        <extensions>
          <ns3:TrackPointExtension>
            <ns3:atemp>21.0</ns3:atemp>
          </ns3:TrackPointExtension>
        </extensions>
      </trkpt>
      <trkpt lat="42.53964579664170742034912109375" lon="19.79653925634920597076416015625">
        <ele>1037</ele>
        <time>2026-06-18T07:18:41.000Z</time>
        <extensions>
          <ns3:TrackPointExtension>
            <ns3:atemp>21.0</ns3:atemp>
          </ns3:TrackPointExtension>
        </extensions>
      </trkpt>
      <trkpt lat="42.53962014801800251007080078125" lon="19.796545207500457763671875">
        <ele>1037.4000244140625</ele>
        <time>2026-06-18T07:18:42.000Z</time>
        <extensions>
          <ns3:TrackPointExtension>
            <ns3:atemp>21.0</ns3:atemp>
          </ns3:TrackPointExtension>
        </extensions>
      </trkpt>
      <trkpt lat="42.5395940802991390228271484375" lon="19.79655283503234386444091796875">
        <ele>1038</ele>
        <time>2026-06-18T07:18:43.000Z</time>
        <extensions>
          <ns3:TrackPointExtension>
            <ns3:atemp>21.0</ns3:atemp>
          </ns3:TrackPointExtension>
        </extensions>
      </trkpt>
      <trkpt lat="42.53956834785640239715576171875" lon="19.796558283269405364990234375">
        <ele>1038.4000244140625</ele>
        <time>2026-06-18T07:18:44.000Z</time>
        <extensions>
          <ns3:TrackPointExtension>
            <ns3:atemp>21.0</ns3:atemp>
          </ns3:TrackPointExtension>
        </extensions>
      </trkpt>
      <trkpt lat="42.5395434536039829254150390625" lon="19.79656398296356201171875">
        <ele>1038.800048828125</ele>
        <time>2026-06-18T07:18:45.000Z</time>
        <extensions>
          <ns3:TrackPointExtension>
            <ns3:atemp>21.0</ns3:atemp>
          </ns3:TrackPointExtension>
        </extensions>
      </trkpt>
      <trkpt lat="42.53951973281800746917724609375" lon="19.7965681739151477813720703125">
        <ele>1039.199951171875</ele>
        <time>2026-06-18T07:18:46.000Z</time>
        <extensions>
          <ns3:TrackPointExtension>
            <ns3:atemp>21.0</ns3:atemp>
          </ns3:TrackPointExtension>
        </extensions>
      </trkpt>
      <trkpt lat="42.53949073143303394317626953125" lon="19.7965705208480358123779296875">
        <ele>1039.5999755859375</ele>
        <time>2026-06-18T07:18:47.000Z</time>
        <extensions>
          <ns3:TrackPointExtension>
            <ns3:atemp>21.0</ns3:atemp>
          </ns3:TrackPointExtension>
        </extensions>
      </trkpt>
      <trkpt lat="42.53946424461901187896728515625" lon="19.796569682657718658447265625">
        <ele>1040</ele>
        <time>2026-06-18T07:18:48.000Z</time>
        <extensions>
          <ns3:TrackPointExtension>
            <ns3:atemp>21.0</ns3:atemp>
          </ns3:TrackPointExtension>
        </extensions>
      </trkpt>
      <trkpt lat="42.53943222574889659881591796875" lon="19.7965675033628940582275390625">
        <ele>1040.4000244140625</ele>
        <time>2026-06-18T07:18:49.000Z</time>
        <extensions>
          <ns3:TrackPointExtension>
            <ns3:atemp>21.0</ns3:atemp>
          </ns3:TrackPointExtension>
        </extensions>
      </trkpt>
      <trkpt lat="42.5393996201455593109130859375" lon="19.796566329896450042724609375">
        <ele>1041</ele>
        <time>2026-06-18T07:18:50.000Z</time>
        <extensions>
          <ns3:TrackPointExtension>
            <ns3:atemp>21.0</ns3:atemp>
          </ns3:TrackPointExtension>
        </extensions>
      </trkpt>
      <trkpt lat="42.53936517052352428436279296875" lon="19.796564318239688873291015625">
        <ele>1041.4000244140625</ele>
        <time>2026-06-18T07:18:51.000Z</time>
        <extensions>
          <ns3:TrackPointExtension>
            <ns3:atemp>21.0</ns3:atemp>
          </ns3:TrackPointExtension>
        </extensions>
      </trkpt>
      <trkpt lat="42.53933097235858440399169921875" lon="19.79655928909778594970703125">
        <ele>1041.5999755859375</ele>
        <time>2026-06-18T07:18:52.000Z</time>
        <extensions>
          <ns3:TrackPointExtension>
            <ns3:atemp>21.0</ns3:atemp>
          </ns3:TrackPointExtension>
        </extensions>
      </trkpt>
      <trkpt lat="42.5392946787178516387939453125" lon="19.79655702598392963409423828125">
        <ele>1042</ele>
        <time>2026-06-18T07:18:53.000Z</time>
        <extensions>
          <ns3:TrackPointExtension>
            <ns3:atemp>21.0</ns3:atemp>
          </ns3:TrackPointExtension>
        </extensions>
      </trkpt>
      <trkpt lat="42.53925855271518230438232421875" lon="19.79655233211815357208251953125">
        <ele>1042.4000244140625</ele>
        <time>2026-06-18T07:18:54.000Z</time>
        <extensions>
          <ns3:TrackPointExtension>
            <ns3:atemp>21.0</ns3:atemp>
          </ns3:TrackPointExtension>
        </extensions>
      </trkpt>
      <trkpt lat="42.53922368399798870086669921875" lon="19.7965517453849315643310546875">
        <ele>1042.800048828125</ele>
        <time>2026-06-18T07:18:55.000Z</time>
        <extensions>
          <ns3:TrackPointExtension>
            <ns3:atemp>21.0</ns3:atemp>
          </ns3:TrackPointExtension>
        </extensions>
      </trkpt>
      <trkpt lat="42.53919124603271484375" lon="19.79654990136623382568359375">
        <ele>1043.199951171875</ele>
        <time>2026-06-18T07:18:56.000Z</time>
        <extensions>
          <ns3:TrackPointExtension>
            <ns3:atemp>21.0</ns3:atemp>
          </ns3:TrackPointExtension>
        </extensions>
      </trkpt>
      <trkpt lat="42.5391595624387264251708984375" lon="19.79654847644269466400146484375">
        <ele>1043.5999755859375</ele>
        <time>2026-06-18T07:18:57.000Z</time>
        <extensions>
          <ns3:TrackPointExtension>
            <ns3:atemp>21.0</ns3:atemp>
          </ns3:TrackPointExtension>
        </extensions>
      </trkpt>
      <trkpt lat="42.53913047723472118377685546875" lon="19.7965480573475360870361328125">
        <ele>1044</ele>
        <time>2026-06-18T07:18:58.000Z</time>
        <extensions>
          <ns3:TrackPointExtension>
            <ns3:atemp>21.0</ns3:atemp>
          </ns3:TrackPointExtension>
        </extensions>
      </trkpt>
      <trkpt lat="42.5391013920307159423828125" lon="19.79654747061431407928466796875">
        <ele>1044.4000244140625</ele>
        <time>2026-06-18T07:18:59.000Z</time>
        <extensions>
          <ns3:TrackPointExtension>
            <ns3:atemp>21.0</ns3:atemp>
          </ns3:TrackPointExtension>
        </extensions>
      </trkpt>
      <trkpt lat="42.539068870246410369873046875" lon="19.79654361493885517120361328125">
        <ele>1044.800048828125</ele>
        <time>2026-06-18T07:19:00.000Z</time>
        <extensions>
          <ns3:TrackPointExtension>
            <ns3:atemp>21.0</ns3:atemp>
          </ns3:TrackPointExtension>
        </extensions>
      </trkpt>
      <trkpt lat="42.5390358455479145050048828125" lon="19.79654051363468170166015625">
        <ele>1045.199951171875</ele>
        <time>2026-06-18T07:19:01.000Z</time>
        <extensions>
          <ns3:TrackPointExtension>
            <ns3:atemp>21.0</ns3:atemp>
          </ns3:TrackPointExtension>
        </extensions>
      </trkpt>
      <trkpt lat="42.53900307230651378631591796875" lon="19.79653975926339626312255859375">
        <ele>1045.4000244140625</ele>
        <time>2026-06-18T07:19:02.000Z</time>
        <extensions>
          <ns3:TrackPointExtension>
            <ns3:atemp>21.0</ns3:atemp>
          </ns3:TrackPointExtension>
        </extensions>
      </trkpt>
      <trkpt lat="42.5389718078076839447021484375" lon="19.7965373285114765167236328125">
        <ele>1045.800048828125</ele>
        <time>2026-06-18T07:19:03.000Z</time>
        <extensions>
          <ns3:TrackPointExtension>
            <ns3:atemp>21.0</ns3:atemp>
          </ns3:TrackPointExtension>
        </extensions>
      </trkpt>
      <trkpt lat="42.5389423035085201263427734375" lon="19.7965333051979541778564453125">
        <ele>1046.199951171875</ele>
        <time>2026-06-18T07:19:04.000Z</time>
        <extensions>
          <ns3:TrackPointExtension>
            <ns3:atemp>21.0</ns3:atemp>
          </ns3:TrackPointExtension>
        </extensions>
      </trkpt>
      <trkpt lat="42.53891028463840484619140625" lon="19.796529449522495269775390625">
        <ele>1046.4000244140625</ele>
        <time>2026-06-18T07:19:05.000Z</time>
        <extensions>
          <ns3:TrackPointExtension>
            <ns3:atemp>21.0</ns3:atemp>
          </ns3:TrackPointExtension>
        </extensions>
      </trkpt>
      <trkpt lat="42.53887818194925785064697265625" lon="19.796530120074748992919921875">
        <ele>1046.800048828125</ele>
        <time>2026-06-18T07:19:06.000Z</time>
        <extensions>
          <ns3:TrackPointExtension>
            <ns3:atemp>21.0</ns3:atemp>
          </ns3:TrackPointExtension>
        </extensions>
      </trkpt>
      <trkpt lat="42.53884566016495227813720703125" lon="19.79652970097959041595458984375">
        <ele>1047.199951171875</ele>
        <time>2026-06-18T07:19:07.000Z</time>
        <extensions>
          <ns3:TrackPointExtension>
            <ns3:atemp>21.0</ns3:atemp>
          </ns3:TrackPointExtension>
        </extensions>
      </trkpt>
      <trkpt lat="42.53881431184709072113037109375" lon="19.796525426208972930908203125">
        <ele>1047.5999755859375</ele>
        <time>2026-06-18T07:19:08.000Z</time>
        <extensions>
          <ns3:TrackPointExtension>
            <ns3:atemp>21.0</ns3:atemp>
          </ns3:TrackPointExtension>
        </extensions>
      </trkpt>
      <trkpt lat="42.53878531046211719512939453125" lon="19.79652534238994121551513671875">
        <ele>1047.800048828125</ele>
        <time>2026-06-18T07:19:09.000Z</time>
        <extensions>
          <ns3:TrackPointExtension>
            <ns3:atemp>21.0</ns3:atemp>
          </ns3:TrackPointExtension>
        </extensions>
      </trkpt>
      <trkpt lat="42.53875329159200191497802734375" lon="19.79652551002800464630126953125">
        <ele>1048.199951171875</ele>
        <time>2026-06-18T07:19:10.000Z</time>
        <extensions>
          <ns3:TrackPointExtension>
            <ns3:atemp>21.0</ns3:atemp>
          </ns3:TrackPointExtension>
        </extensions>
      </trkpt>
      <trkpt lat="42.5387267209589481353759765625" lon="19.796524085104465484619140625">
        <ele>1048.5999755859375</ele>
        <time>2026-06-18T07:19:11.000Z</time>
        <extensions>
          <ns3:TrackPointExtension>
            <ns3:atemp>21.0</ns3:atemp>
          </ns3:TrackPointExtension>
        </extensions>
      </trkpt>
      <trkpt lat="42.53869780339300632476806640625" lon="19.7965202294290065765380859375">
        <ele>1049</ele>
        <time>2026-06-18T07:19:12.000Z</time>
        <extensions>
          <ns3:TrackPointExtension>
            <ns3:atemp>21.0</ns3:atemp>
          </ns3:TrackPointExtension>
        </extensions>
      </trkpt>
      <trkpt lat="42.53866863436996936798095703125" lon="19.796516038477420806884765625">
        <ele>1049.199951171875</ele>
        <time>2026-06-18T07:19:13.000Z</time>
        <extensions>
          <ns3:TrackPointExtension>
            <ns3:atemp>21.0</ns3:atemp>
          </ns3:TrackPointExtension>
        </extensions>
      </trkpt>
      <trkpt lat="42.5386395491659641265869140625" lon="19.79651109315454959869384765625">
        <ele>1049.5999755859375</ele>
        <time>2026-06-18T07:19:14.000Z</time>
        <extensions>
          <ns3:TrackPointExtension>
            <ns3:atemp>21.0</ns3:atemp>
          </ns3:TrackPointExtension>
        </extensions>
      </trkpt>
      <trkpt lat="42.53860987722873687744140625" lon="19.79650304652750492095947265625">
        <ele>1050</ele>
        <time>2026-06-18T07:19:15.000Z</time>
        <extensions>
          <ns3:TrackPointExtension>
            <ns3:atemp>21.0</ns3:atemp>
          </ns3:TrackPointExtension>
        </extensions>
      </trkpt>
      <trkpt lat="42.5385797023773193359375" lon="19.79649449698626995086669921875">
        <ele>1050.199951171875</ele>
        <time>2026-06-18T07:19:16.000Z</time>
        <extensions>
          <ns3:TrackPointExtension>
            <ns3:atemp>21.0</ns3:atemp>
          </ns3:TrackPointExtension>
        </extensions>
      </trkpt>
      <trkpt lat="42.53854944370687007904052734375" lon="19.79648594744503498077392578125">
        <ele>1050.5999755859375</ele>
        <time>2026-06-18T07:19:17.000Z</time>
        <extensions>
          <ns3:TrackPointExtension>
            <ns3:atemp>21.0</ns3:atemp>
          </ns3:TrackPointExtension>
        </extensions>
      </trkpt>
      <trkpt lat="42.53851960413157939910888671875" lon="19.79647471569478511810302734375">
        <ele>1050.800048828125</ele>
        <time>2026-06-18T07:19:18.000Z</time>
        <extensions>
          <ns3:TrackPointExtension>
            <ns3:atemp>21.0</ns3:atemp>
          </ns3:TrackPointExtension>
        </extensions>
      </trkpt>
      <trkpt lat="42.5384873338043689727783203125" lon="19.79645778425037860870361328125">
        <ele>1051.199951171875</ele>
        <time>2026-06-18T07:19:19.000Z</time>
        <extensions>
          <ns3:TrackPointExtension>
            <ns3:atemp>21.0</ns3:atemp>
          </ns3:TrackPointExtension>
        </extensions>
      </trkpt>
      <trkpt lat="42.53845338709652423858642578125" lon="19.796444959938526153564453125">
        <ele>1051.4000244140625</ele>
        <time>2026-06-18T07:19:20.000Z</time>
        <extensions>
          <ns3:TrackPointExtension>
            <ns3:atemp>21.0</ns3:atemp>
          </ns3:TrackPointExtension>
        </extensions>
      </trkpt>
      <trkpt lat="42.5384229607880115509033203125" lon="19.79643012396991252899169921875">
        <ele>1051.800048828125</ele>
        <time>2026-06-18T07:19:21.000Z</time>
        <extensions>
          <ns3:TrackPointExtension>
            <ns3:atemp>21.0</ns3:atemp>
          </ns3:TrackPointExtension>
        </extensions>
      </trkpt>
      <trkpt lat="42.53839454613626003265380859375" lon="19.79641444981098175048828125">
        <ele>1052.199951171875</ele>
        <time>2026-06-18T07:19:22.000Z</time>
        <extensions>
          <ns3:TrackPointExtension>
            <ns3:atemp>21.0</ns3:atemp>
          </ns3:TrackPointExtension>
        </extensions>
      </trkpt>
      <trkpt lat="42.53836981952190399169921875" lon="19.79639844037592411041259765625">
        <ele>1052.5999755859375</ele>
        <time>2026-06-18T07:19:23.000Z</time>
        <extensions>
          <ns3:TrackPointExtension>
            <ns3:atemp>21.0</ns3:atemp>
          </ns3:TrackPointExtension>
        </extensions>
      </trkpt>
      <trkpt lat="42.53834207542240619659423828125" lon="19.79638033546507358551025390625">
        <ele>1052.800048828125</ele>
        <time>2026-06-18T07:19:24.000Z</time>
        <extensions>
          <ns3:TrackPointExtension>
            <ns3:atemp>21.0</ns3:atemp>
          </ns3:TrackPointExtension>
        </extensions>
      </trkpt>
      <trkpt lat="42.53831508569419384002685546875" lon="19.79635410010814666748046875">
        <ele>1053.199951171875</ele>
        <time>2026-06-18T07:19:25.000Z</time>
        <extensions>
          <ns3:TrackPointExtension>
            <ns3:atemp>21.0</ns3:atemp>
          </ns3:TrackPointExtension>
        </extensions>
      </trkpt>
      <trkpt lat="42.538285665214061737060546875" lon="19.7963247634470462799072265625">
        <ele>1053.5999755859375</ele>
        <time>2026-06-18T07:19:26.000Z</time>
        <extensions>
          <ns3:TrackPointExtension>
            <ns3:atemp>21.0</ns3:atemp>
          </ns3:TrackPointExtension>
        </extensions>
      </trkpt>
      <trkpt lat="42.53825691528618335723876953125" lon="19.79629333131015300750732421875">
        <ele>1053.5999755859375</ele>
        <time>2026-06-18T07:19:27.000Z</time>
        <extensions>
          <ns3:TrackPointExtension>
            <ns3:atemp>21.0</ns3:atemp>
          </ns3:TrackPointExtension>
        </extensions>
      </trkpt>
      <trkpt lat="42.53822774626314640045166015625" lon="19.79626600630581378936767578125">
        <ele>1053.800048828125</ele>
        <time>2026-06-18T07:19:28.000Z</time>
        <extensions>
          <ns3:TrackPointExtension>
            <ns3:atemp>21.0</ns3:atemp>
          </ns3:TrackPointExtension>
        </extensions>
      </trkpt>
      <trkpt lat="42.5382001698017120361328125" lon="19.79623801074922084808349609375">
        <ele>1054</ele>
        <time>2026-06-18T07:19:29.000Z</time>
        <extensions>
          <ns3:TrackPointExtension>
            <ns3:atemp>21.0</ns3:atemp>
          </ns3:TrackPointExtension>
        </extensions>
      </trkpt>
      <trkpt lat="42.53816999495029449462890625" lon="19.7962107695639133453369140625">
        <ele>1054</ele>
        <time>2026-06-18T07:19:30.000Z</time>
        <extensions>
          <ns3:TrackPointExtension>
            <ns3:atemp>21.0</ns3:atemp>
          </ns3:TrackPointExtension>
        </extensions>
      </trkpt>
      <trkpt lat="42.53814208321273326873779296875" lon="19.79618201963603496551513671875">
        <ele>1054</ele>
        <time>2026-06-18T07:19:31.000Z</time>
        <extensions>
          <ns3:TrackPointExtension>
            <ns3:atemp>21.0</ns3:atemp>
          </ns3:TrackPointExtension>
        </extensions>
      </trkpt>
      <trkpt lat="42.53811576403677463531494140625" lon="19.79615553282201290130615234375">
        <ele>1054</ele>
        <time>2026-06-18T07:19:32.000Z</time>
        <extensions>
          <ns3:TrackPointExtension>
            <ns3:atemp>21.0</ns3:atemp>
          </ns3:TrackPointExtension>
        </extensions>
      </trkpt>
      <trkpt lat="42.5380947254598140716552734375" lon="19.7961363382637500762939453125">
        <ele>1054.199951171875</ele>
        <time>2026-06-18T07:19:33.000Z</time>
        <extensions>
          <ns3:TrackPointExtension>
            <ns3:atemp>21.0</ns3:atemp>
          </ns3:TrackPointExtension>
        </extensions>
      </trkpt>
      <trkpt lat="42.538074441254138946533203125" lon="19.7961152158677577972412109375">
        <ele>1054.199951171875</ele>
        <time>2026-06-18T07:19:34.000Z</time>
        <extensions>
          <ns3:TrackPointExtension>
            <ns3:atemp>21.0</ns3:atemp>
          </ns3:TrackPointExtension>
        </extensions>
      </trkpt>
      <trkpt lat="42.5380521453917026519775390625" lon="19.7960920818150043487548828125">
        <ele>1054.199951171875</ele>
        <time>2026-06-18T07:19:35.000Z</time>
        <extensions>
          <ns3:TrackPointExtension>
            <ns3:atemp>21.0</ns3:atemp>
          </ns3:TrackPointExtension>
        </extensions>
      </trkpt>
      <trkpt lat="42.53802943043410778045654296875" lon="19.79606517590582370758056640625">
        <ele>1054.4000244140625</ele>
        <time>2026-06-18T07:19:36.000Z</time>
        <extensions>
          <ns3:TrackPointExtension>
            <ns3:atemp>21.0</ns3:atemp>
          </ns3:TrackPointExtension>
        </extensions>
      </trkpt>
      <trkpt lat="42.53800763748586177825927734375" lon="19.79604137130081653594970703125">
        <ele>1054.4000244140625</ele>
        <time>2026-06-18T07:19:37.000Z</time>
        <extensions>
          <ns3:TrackPointExtension>
            <ns3:atemp>21.0</ns3:atemp>
          </ns3:TrackPointExtension>
        </extensions>
      </trkpt>
      <trkpt lat="42.537981569766998291015625" lon="19.79602150619029998779296875">
        <ele>1054.5999755859375</ele>
        <time>2026-06-18T07:19:38.000Z</time>
        <extensions>
          <ns3:TrackPointExtension>
            <ns3:atemp>21.0</ns3:atemp>
          </ns3:TrackPointExtension>
        </extensions>
      </trkpt>
      <trkpt lat="42.53795919008553028106689453125" lon="19.79599510319530963897705078125">
        <ele>1054.800048828125</ele>
        <time>2026-06-18T07:19:39.000Z</time>
        <extensions>
          <ns3:TrackPointExtension>
            <ns3:atemp>21.0</ns3:atemp>
          </ns3:TrackPointExtension>
        </extensions>
      </trkpt>
      <trkpt lat="42.5379319489002227783203125" lon="19.7959687002003192901611328125">
        <ele>1054.800048828125</ele>
        <time>2026-06-18T07:19:40.000Z</time>
        <extensions>
          <ns3:TrackPointExtension>
            <ns3:atemp>21.0</ns3:atemp>
          </ns3:TrackPointExtension>
        </extensions>
      </trkpt>
      <trkpt lat="42.53790336661040782928466796875" lon="19.79594095610082149505615234375">
        <ele>1054.800048828125</ele>
        <time>2026-06-18T07:19:41.000Z</time>
        <extensions>
          <ns3:TrackPointExtension>
            <ns3:atemp>21.0</ns3:atemp>
          </ns3:TrackPointExtension>
        </extensions>
      </trkpt>
      <trkpt lat="42.53787537105381488800048828125" lon="19.7959106974303722381591796875">
        <ele>1054.800048828125</ele>
        <time>2026-06-18T07:19:42.000Z</time>
        <extensions>
          <ns3:TrackPointExtension>
            <ns3:atemp>21.0</ns3:atemp>
          </ns3:TrackPointExtension>
        </extensions>
      </trkpt>
      <trkpt lat="42.5378486327826976776123046875" lon="19.79588144458830356597900390625">
        <ele>1054.800048828125</ele>
        <time>2026-06-18T07:19:43.000Z</time>
        <extensions>
          <ns3:TrackPointExtension>
            <ns3:atemp>21.0</ns3:atemp>
          </ns3:TrackPointExtension>
        </extensions>
      </trkpt>
      <trkpt lat="42.53782021813094615936279296875" lon="19.79584850370883941650390625">
        <ele>1054.800048828125</ele>
        <time>2026-06-18T07:19:44.000Z</time>
        <extensions>
          <ns3:TrackPointExtension>
            <ns3:atemp>21.0</ns3:atemp>
          </ns3:TrackPointExtension>
        </extensions>
      </trkpt>
      <trkpt lat="42.53779171966016292572021484375" lon="19.79581153951585292816162109375">
        <ele>1054.800048828125</ele>
        <time>2026-06-18T07:19:45.000Z</time>
        <extensions>
          <ns3:TrackPointExtension>
            <ns3:atemp>21.0</ns3:atemp>
          </ns3:TrackPointExtension>
        </extensions>
      </trkpt>
      <trkpt lat="42.5377648137509822845458984375" lon="19.7957792691886425018310546875">
        <ele>1054.800048828125</ele>
        <time>2026-06-18T07:19:46.000Z</time>
        <extensions>
          <ns3:TrackPointExtension>
            <ns3:atemp>21.0</ns3:atemp>
          </ns3:TrackPointExtension>
        </extensions>
      </trkpt>
      <trkpt lat="42.53773723728954792022705078125" lon="19.79574934579432010650634765625">
        <ele>1055</ele>
        <time>2026-06-18T07:19:47.000Z</time>
        <extensions>
          <ns3:TrackPointExtension>
            <ns3:atemp>21.0</ns3:atemp>
          </ns3:TrackPointExtension>
        </extensions>
      </trkpt>
      <trkpt lat="42.53771142102777957916259765625" lon="19.79572285898029804229736328125">
        <ele>1055</ele>
        <time>2026-06-18T07:19:48.000Z</time>
        <extensions>
          <ns3:TrackPointExtension>
            <ns3:atemp>21.0</ns3:atemp>
          </ns3:TrackPointExtension>
        </extensions>
      </trkpt>
      <trkpt lat="42.53768409602344036102294921875" lon="19.7956967912614345550537109375">
        <ele>1055.199951171875</ele>
        <time>2026-06-18T07:19:49.000Z</time>
        <extensions>
          <ns3:TrackPointExtension>
            <ns3:atemp>21.0</ns3:atemp>
          </ns3:TrackPointExtension>
        </extensions>
      </trkpt>
      <trkpt lat="42.5376612134277820587158203125" lon="19.79567323811352252960205078125">
        <ele>1055.4000244140625</ele>
        <time>2026-06-18T07:19:50.000Z</time>
        <extensions>
          <ns3:TrackPointExtension>
            <ns3:atemp>21.0</ns3:atemp>
          </ns3:TrackPointExtension>
        </extensions>
      </trkpt>
      <trkpt lat="42.537635229527950286865234375" lon="19.79564976878464221954345703125">
        <ele>1055.5999755859375</ele>
        <time>2026-06-18T07:19:51.000Z</time>
        <extensions>
          <ns3:TrackPointExtension>
            <ns3:atemp>21.0</ns3:atemp>
          </ns3:TrackPointExtension>
        </extensions>
      </trkpt>
      <trkpt lat="42.5376122631132602691650390625" lon="19.79562713764607906341552734375">
        <ele>1055.800048828125</ele>
        <time>2026-06-18T07:19:52.000Z</time>
        <extensions>
          <ns3:TrackPointExtension>
            <ns3:atemp>21.0</ns3:atemp>
          </ns3:TrackPointExtension>
        </extensions>
      </trkpt>
      <trkpt lat="42.53758887760341167449951171875" lon="19.79560299776494503021240234375">
        <ele>1056</ele>
        <time>2026-06-18T07:19:53.000Z</time>
        <extensions>
          <ns3:TrackPointExtension>
            <ns3:atemp>21.0</ns3:atemp>
          </ns3:TrackPointExtension>
        </extensions>
      </trkpt>
      <trkpt lat="42.5375663302838802337646484375" lon="19.7955807857215404510498046875">
        <ele>1056</ele>
        <time>2026-06-18T07:19:54.000Z</time>
        <extensions>
          <ns3:TrackPointExtension>
            <ns3:atemp>21.0</ns3:atemp>
          </ns3:TrackPointExtension>
        </extensions>
      </trkpt>
      <trkpt lat="42.537542022764682769775390625" lon="19.79556259699165821075439453125">
        <ele>1056.199951171875</ele>
        <time>2026-06-18T07:19:55.000Z</time>
        <extensions>
          <ns3:TrackPointExtension>
            <ns3:atemp>21.0</ns3:atemp>
          </ns3:TrackPointExtension>
        </extensions>
      </trkpt>
      <trkpt lat="42.53751947544515132904052734375" lon="19.79554130695760250091552734375">
        <ele>1056.199951171875</ele>
        <time>2026-06-18T07:19:56.000Z</time>
        <extensions>
          <ns3:TrackPointExtension>
            <ns3:atemp>21.0</ns3:atemp>
          </ns3:TrackPointExtension>
        </extensions>
      </trkpt>
      <trkpt lat="42.53749332390725612640380859375" lon="19.7955214418470859527587890625">
        <ele>1056.199951171875</ele>
        <time>2026-06-18T07:19:57.000Z</time>
        <extensions>
          <ns3:TrackPointExtension>
            <ns3:atemp>21.0</ns3:atemp>
          </ns3:TrackPointExtension>
        </extensions>
      </trkpt>
      <trkpt lat="42.53746683709323406219482421875" lon="19.7955016605556011199951171875">
        <ele>1056.199951171875</ele>
        <time>2026-06-18T07:19:58.000Z</time>
        <extensions>
          <ns3:TrackPointExtension>
            <ns3:atemp>21.0</ns3:atemp>
          </ns3:TrackPointExtension>
        </extensions>
      </trkpt>
      <trkpt lat="42.5374379195272922515869140625" lon="19.79547944851219654083251953125">
        <ele>1056.4000244140625</ele>
        <time>2026-06-18T07:19:59.000Z</time>
        <extensions>
          <ns3:TrackPointExtension>
            <ns3:atemp>21.0</ns3:atemp>
          </ns3:TrackPointExtension>
        </extensions>
      </trkpt>
      <trkpt lat="42.53740766085684299468994140625" lon="19.79545698501169681549072265625">
        <ele>1056.4000244140625</ele>
        <time>2026-06-18T07:20:00.000Z</time>
        <extensions>
          <ns3:TrackPointExtension>
            <ns3:atemp>21.0</ns3:atemp>
          </ns3:TrackPointExtension>
        </extensions>
      </trkpt>
      <trkpt lat="42.53737882710993289947509765625" lon="19.79543955065310001373291015625">
        <ele>1056.199951171875</ele>
        <time>2026-06-18T07:20:01.000Z</time>
        <extensions>
          <ns3:TrackPointExtension>
            <ns3:atemp>21.0</ns3:atemp>
          </ns3:TrackPointExtension>
        </extensions>
      </trkpt>
      <trkpt lat="42.5373497419059276580810546875" lon="19.79542278684675693511962890625">
        <ele>1056.199951171875</ele>
        <time>2026-06-18T07:20:02.000Z</time>
        <extensions>
          <ns3:TrackPointExtension>
            <ns3:atemp>21.0</ns3:atemp>
          </ns3:TrackPointExtension>
        </extensions>
      </trkpt>
      <trkpt lat="42.5373212434351444244384765625" lon="19.79540434665977954864501953125">
        <ele>1056.4000244140625</ele>
        <time>2026-06-18T07:20:03.000Z</time>
        <extensions>
          <ns3:TrackPointExtension>
            <ns3:atemp>21.0</ns3:atemp>
          </ns3:TrackPointExtension>
        </extensions>
      </trkpt>
      <trkpt lat="42.53728763200342655181884765625" lon="19.7953823022544384002685546875">
        <ele>1056.199951171875</ele>
        <time>2026-06-18T07:20:04.000Z</time>
        <extensions>
          <ns3:TrackPointExtension>
            <ns3:atemp>21.0</ns3:atemp>
          </ns3:TrackPointExtension>
        </extensions>
      </trkpt>
      <trkpt lat="42.53724840469658374786376953125" lon="19.795355312526226043701171875">
        <ele>1056.199951171875</ele>
        <time>2026-06-18T07:20:05.000Z</time>
        <extensions>
          <ns3:TrackPointExtension>
            <ns3:atemp>21.0</ns3:atemp>
          </ns3:TrackPointExtension>
        </extensions>
      </trkpt>
      <trkpt lat="42.53720465116202831268310546875" lon="19.79532673023641109466552734375">
        <ele>1056</ele>
        <time>2026-06-18T07:20:06.000Z</time>
        <extensions>
          <ns3:TrackPointExtension>
            <ns3:atemp>21.0</ns3:atemp>
          </ns3:TrackPointExtension>
        </extensions>
      </trkpt>
      <trkpt lat="42.5371567904949188232421875" lon="19.79529303498566150665283203125">
        <ele>1055.800048828125</ele>
        <time>2026-06-18T07:20:07.000Z</time>
        <extensions>
          <ns3:TrackPointExtension>
            <ns3:atemp>21.0</ns3:atemp>
          </ns3:TrackPointExtension>
        </extensions>
      </trkpt>
      <trkpt lat="42.53710490651428699493408203125" lon="19.79526001028716564178466796875">
        <ele>1055.4000244140625</ele>
        <time>2026-06-18T07:20:08.000Z</time>
        <extensions>
          <ns3:TrackPointExtension>
            <ns3:atemp>21.0</ns3:atemp>
          </ns3:TrackPointExtension>
        </extensions>
      </trkpt>
      <trkpt lat="42.5370546989142894744873046875" lon="19.79522396810352802276611328125">
        <ele>1055.199951171875</ele>
        <time>2026-06-18T07:20:09.000Z</time>
        <extensions>
          <ns3:TrackPointExtension>
            <ns3:atemp>21.0</ns3:atemp>
          </ns3:TrackPointExtension>
        </extensions>
      </trkpt>
      <trkpt lat="42.53700415603816509246826171875" lon="19.7951858304440975189208984375">
        <ele>1055</ele>
        <time>2026-06-18T07:20:10.000Z</time>
        <extensions>
          <ns3:TrackPointExtension>
            <ns3:atemp>21.0</ns3:atemp>
          </ns3:TrackPointExtension>
        </extensions>
      </trkpt>
      <trkpt lat="42.53695252351462841033935546875" lon="19.79515154846012592315673828125">
        <ele>1054.5999755859375</ele>
        <time>2026-06-18T07:20:11.000Z</time>
        <extensions>
          <ns3:TrackPointExtension>
            <ns3:atemp>21.0</ns3:atemp>
          </ns3:TrackPointExtension>
        </extensions>
      </trkpt>
      <trkpt lat="42.53690340556204319000244140625" lon="19.79511517100036144256591796875">
        <ele>1054.4000244140625</ele>
        <time>2026-06-18T07:20:12.000Z</time>
        <extensions>
          <ns3:TrackPointExtension>
            <ns3:atemp>21.0</ns3:atemp>
          </ns3:TrackPointExtension>
        </extensions>
      </trkpt>
      <trkpt lat="42.53685512579977512359619140625" lon="19.79507661424577236175537109375">
        <ele>1054.199951171875</ele>
        <time>2026-06-18T07:20:13.000Z</time>
        <extensions>
          <ns3:TrackPointExtension>
            <ns3:atemp>21.0</ns3:atemp>
          </ns3:TrackPointExtension>
        </extensions>
      </trkpt>
      <trkpt lat="42.53680449910461902618408203125" lon="19.7950445115566253662109375">
        <ele>1054</ele>
        <time>2026-06-18T07:20:14.000Z</time>
        <extensions>
          <ns3:TrackPointExtension>
            <ns3:atemp>21.0</ns3:atemp>
          </ns3:TrackPointExtension>
        </extensions>
      </trkpt>
      <trkpt lat="42.536757476627826690673828125" lon="19.79501022957265377044677734375">
        <ele>1053.800048828125</ele>
        <time>2026-06-18T07:20:15.000Z</time>
        <extensions>
          <ns3:TrackPointExtension>
            <ns3:atemp>21.0</ns3:atemp>
          </ns3:TrackPointExtension>
        </extensions>
      </trkpt>
      <trkpt lat="42.5367093645036220550537109375" lon="19.7949746064841747283935546875">
        <ele>1053.800048828125</ele>
        <time>2026-06-18T07:20:16.000Z</time>
        <extensions>
          <ns3:TrackPointExtension>
            <ns3:atemp>21.0</ns3:atemp>
          </ns3:TrackPointExtension>
        </extensions>
      </trkpt>
      <trkpt lat="42.5366590730845928192138671875" lon="19.79494317434728145599365234375">
        <ele>1053.800048828125</ele>
        <time>2026-06-18T07:20:17.000Z</time>
        <extensions>
          <ns3:TrackPointExtension>
            <ns3:atemp>21.0</ns3:atemp>
          </ns3:TrackPointExtension>
        </extensions>
      </trkpt>
      <trkpt lat="42.53661003895103931427001953125" lon="19.79490981437265872955322265625">
        <ele>1053.5999755859375</ele>
        <time>2026-06-18T07:20:18.000Z</time>
        <extensions>
          <ns3:TrackPointExtension>
            <ns3:atemp>21.0</ns3:atemp>
          </ns3:TrackPointExtension>
        </extensions>
      </trkpt>
      <trkpt lat="42.53656226210296154022216796875" lon="19.79487352073192596435546875">
        <ele>1053.4000244140625</ele>
        <time>2026-06-18T07:20:19.000Z</time>
        <extensions>
          <ns3:TrackPointExtension>
            <ns3:atemp>21.0</ns3:atemp>
          </ns3:TrackPointExtension>
        </extensions>
      </trkpt>
      <trkpt lat="42.53651515580713748931884765625" lon="19.79483521543443202972412109375">
        <ele>1053.4000244140625</ele>
        <time>2026-06-18T07:20:20.000Z</time>
        <extensions>
          <ns3:TrackPointExtension>
            <ns3:atemp>21.0</ns3:atemp>
          </ns3:TrackPointExtension>
        </extensions>
      </trkpt>
      <trkpt lat="42.53647291101515293121337890625" lon="19.7948002628982067108154296875">
        <ele>1053.199951171875</ele>
        <time>2026-06-18T07:20:21.000Z</time>
        <extensions>
          <ns3:TrackPointExtension>
            <ns3:atemp>21.0</ns3:atemp>
          </ns3:TrackPointExtension>
        </extensions>
      </trkpt>
      <trkpt lat="42.53642949275672435760498046875" lon="19.79476480744779109954833984375">
        <ele>1053.199951171875</ele>
        <time>2026-06-18T07:20:22.000Z</time>
        <extensions>
          <ns3:TrackPointExtension>
            <ns3:atemp>21.0</ns3:atemp>
          </ns3:TrackPointExtension>
        </extensions>
      </trkpt>
      <trkpt lat="42.53638741560280323028564453125" lon="19.794728346168994903564453125">
        <ele>1053</ele>
        <time>2026-06-18T07:20:23.000Z</time>
        <extensions>
          <ns3:TrackPointExtension>
            <ns3:atemp>21.0</ns3:atemp>
          </ns3:TrackPointExtension>
        </extensions>
      </trkpt>
      <trkpt lat="42.53634567372500896453857421875" lon="19.79469708167016506195068359375">
        <ele>1053</ele>
        <time>2026-06-18T07:20:24.000Z</time>
        <extensions>
          <ns3:TrackPointExtension>
            <ns3:atemp>21.0</ns3:atemp>
          </ns3:TrackPointExtension>
        </extensions>
      </trkpt>
      <trkpt lat="42.536306194961071014404296875" lon="19.79466858319938182830810546875">
        <ele>1053</ele>
        <time>2026-06-18T07:20:25.000Z</time>
        <extensions>
          <ns3:TrackPointExtension>
            <ns3:atemp>21.0</ns3:atemp>
          </ns3:TrackPointExtension>
        </extensions>
      </trkpt>
      <trkpt lat="42.53626537509262561798095703125" lon="19.79464142583310604095458984375">
        <ele>1052.800048828125</ele>
        <time>2026-06-18T07:20:26.000Z</time>
        <extensions>
          <ns3:TrackPointExtension>
            <ns3:atemp>21.0</ns3:atemp>
          </ns3:TrackPointExtension>
        </extensions>
      </trkpt>
      <trkpt lat="42.53622539341449737548828125" lon="19.79461560957133769989013671875">
        <ele>1052.800048828125</ele>
        <time>2026-06-18T07:20:27.000Z</time>
        <extensions>
          <ns3:TrackPointExtension>
            <ns3:atemp>21.0</ns3:atemp>
          </ns3:TrackPointExtension>
        </extensions>
      </trkpt>
      <trkpt lat="42.5361870042979717254638671875" lon="19.79458920657634735107421875">
        <ele>1052.800048828125</ele>
        <time>2026-06-18T07:20:28.000Z</time>
        <extensions>
          <ns3:TrackPointExtension>
            <ns3:atemp>21.0</ns3:atemp>
          </ns3:TrackPointExtension>
        </extensions>
      </trkpt>
      <trkpt lat="42.536147944629192352294921875" lon="19.79456414468586444854736328125">
        <ele>1052.5999755859375</ele>
        <time>2026-06-18T07:20:29.000Z</time>
        <extensions>
          <ns3:TrackPointExtension>
            <ns3:atemp>21.0</ns3:atemp>
          </ns3:TrackPointExtension>
        </extensions>
      </trkpt>
      <trkpt lat="42.536109723150730133056640625" lon="19.79454218409955501556396484375">
        <ele>1052.5999755859375</ele>
        <time>2026-06-18T07:20:30.000Z</time>
        <extensions>
          <ns3:TrackPointExtension>
            <ns3:atemp>21.0</ns3:atemp>
          </ns3:TrackPointExtension>
        </extensions>
      </trkpt>
      <trkpt lat="42.53607275895774364471435546875" lon="19.79452324099838733673095703125">
        <ele>1052.5999755859375</ele>
        <time>2026-06-18T07:20:31.000Z</time>
        <extensions>
          <ns3:TrackPointExtension>
            <ns3:atemp>21.0</ns3:atemp>
          </ns3:TrackPointExtension>
        </extensions>
      </trkpt>
      <trkpt lat="42.5360388122498989105224609375" lon="19.79450530372560024261474609375">
        <ele>1052.5999755859375</ele>
        <time>2026-06-18T07:20:32.000Z</time>
        <extensions>
          <ns3:TrackPointExtension>
            <ns3:atemp>21.0</ns3:atemp>
          </ns3:TrackPointExtension>
        </extensions>
      </trkpt>
      <trkpt lat="42.53600402735173702239990234375" lon="19.79448820464313030242919921875">
        <ele>1052.5999755859375</ele>
        <time>2026-06-18T07:20:33.000Z</time>
        <extensions>
          <ns3:TrackPointExtension>
            <ns3:atemp>21.0</ns3:atemp>
          </ns3:TrackPointExtension>
        </extensions>
      </trkpt>
      <trkpt lat="42.53596848808228969573974609375" lon="19.7944703511893749237060546875">
        <ele>1052.800048828125</ele>
        <time>2026-06-18T07:20:34.000Z</time>
        <extensions>
          <ns3:TrackPointExtension>
            <ns3:atemp>21.0</ns3:atemp>
          </ns3:TrackPointExtension>
        </extensions>
      </trkpt>
      <trkpt lat="42.53593479283154010772705078125" lon="19.79445115663111209869384765625">
        <ele>1052.800048828125</ele>
        <time>2026-06-18T07:20:35.000Z</time>
        <extensions>
          <ns3:TrackPointExtension>
            <ns3:atemp>21.0</ns3:atemp>
          </ns3:TrackPointExtension>
        </extensions>
      </trkpt>
      <trkpt lat="42.5359023548662662506103515625" lon="19.79443363845348358154296875">
        <ele>1052.800048828125</ele>
        <time>2026-06-18T07:20:36.000Z</time>
        <extensions>
          <ns3:TrackPointExtension>
            <ns3:atemp>21.0</ns3:atemp>
          </ns3:TrackPointExtension>
        </extensions>
      </trkpt>
      <trkpt lat="42.53586958162486553192138671875" lon="19.794415533542633056640625">
        <ele>1052.800048828125</ele>
        <time>2026-06-18T07:20:37.000Z</time>
        <extensions>
          <ns3:TrackPointExtension>
            <ns3:atemp>21.0</ns3:atemp>
          </ns3:TrackPointExtension>
        </extensions>
      </trkpt>
      <trkpt lat="42.5358371436595916748046875" lon="19.79439851827919483184814453125">
        <ele>1052.800048828125</ele>
        <time>2026-06-18T07:20:38.000Z</time>
        <extensions>
          <ns3:TrackPointExtension>
            <ns3:atemp>21.0</ns3:atemp>
          </ns3:TrackPointExtension>
        </extensions>
      </trkpt>
      <trkpt lat="42.5358044542372226715087890625" lon="19.79438192211091518402099609375">
        <ele>1052.800048828125</ele>
        <time>2026-06-18T07:20:39.000Z</time>
        <extensions>
          <ns3:TrackPointExtension>
            <ns3:atemp>21.0</ns3:atemp>
          </ns3:TrackPointExtension>
        </extensions>
      </trkpt>
      <trkpt lat="42.53577000461518764495849609375" lon="19.7943677566945552825927734375">
        <ele>1052.800048828125</ele>
        <time>2026-06-18T07:20:40.000Z</time>
        <extensions>
          <ns3:TrackPointExtension>
            <ns3:atemp>21.0</ns3:atemp>
          </ns3:TrackPointExtension>
        </extensions>
      </trkpt>
      <trkpt lat="42.5357357226312160491943359375" lon="19.794358201324939727783203125">
        <ele>1053</ele>
        <time>2026-06-18T07:20:41.000Z</time>
        <extensions>
          <ns3:TrackPointExtension>
            <ns3:atemp>21.0</ns3:atemp>
          </ns3:TrackPointExtension>
        </extensions>
      </trkpt>
      <trkpt lat="42.53570060245692729949951171875" lon="19.79434889741241931915283203125">
        <ele>1053</ele>
        <time>2026-06-18T07:20:42.000Z</time>
        <extensions>
          <ns3:TrackPointExtension>
            <ns3:atemp>21.0</ns3:atemp>
          </ns3:TrackPointExtension>
        </extensions>
      </trkpt>
      <trkpt lat="42.53566221334040164947509765625" lon="19.7943365760147571563720703125">
        <ele>1053</ele>
        <time>2026-06-18T07:20:43.000Z</time>
        <extensions>
          <ns3:TrackPointExtension>
            <ns3:atemp>21.0</ns3:atemp>
          </ns3:TrackPointExtension>
        </extensions>
      </trkpt>
      <trkpt lat="42.535624243319034576416015625" lon="19.7943255119025707244873046875">
        <ele>1053</ele>
        <time>2026-06-18T07:20:44.000Z</time>
        <extensions>
          <ns3:TrackPointExtension>
            <ns3:atemp>21.0</ns3:atemp>
          </ns3:TrackPointExtension>
        </extensions>
      </trkpt>
      <trkpt lat="42.535583674907684326171875" lon="19.79431503452360630035400390625">
        <ele>1053</ele>
        <time>2026-06-18T07:20:45.000Z</time>
        <extensions>
          <ns3:TrackPointExtension>
            <ns3:atemp>21.0</ns3:atemp>
          </ns3:TrackPointExtension>
        </extensions>
      </trkpt>
      <trkpt lat="42.53554319031536579132080078125" lon="19.7943067364394664764404296875">
        <ele>1053</ele>
        <time>2026-06-18T07:20:46.000Z</time>
        <extensions>
          <ns3:TrackPointExtension>
            <ns3:atemp>21.0</ns3:atemp>
          </ns3:TrackPointExtension>
        </extensions>
      </trkpt>
      <trkpt lat="42.5355063937604427337646484375" lon="19.79430195875465869903564453125">
        <ele>1053.199951171875</ele>
        <time>2026-06-18T07:20:47.000Z</time>
        <extensions>
          <ns3:TrackPointExtension>
            <ns3:atemp>21.0</ns3:atemp>
          </ns3:TrackPointExtension>
        </extensions>
      </trkpt>
      <trkpt lat="42.5354698486626148223876953125" lon="19.79430086910724639892578125">
        <ele>1053.4000244140625</ele>
        <time>2026-06-18T07:20:48.000Z</time>
        <extensions>
          <ns3:TrackPointExtension>
            <ns3:atemp>21.0</ns3:atemp>
          </ns3:TrackPointExtension>
        </extensions>
      </trkpt>
      <trkpt lat="42.5354289449751377105712890625" lon="19.79429952800273895263671875">
        <ele>1053.5999755859375</ele>
        <time>2026-06-18T07:20:49.000Z</time>
        <extensions>
          <ns3:TrackPointExtension>
            <ns3:atemp>21.0</ns3:atemp>
          </ns3:TrackPointExtension>
        </extensions>
      </trkpt>
      <trkpt lat="42.5353907234966754913330078125" lon="19.794297516345977783203125">
        <ele>1053.800048828125</ele>
        <time>2026-06-18T07:20:50.000Z</time>
        <extensions>
          <ns3:TrackPointExtension>
            <ns3:atemp>21.0</ns3:atemp>
          </ns3:TrackPointExtension>
        </extensions>
      </trkpt>
      <trkpt lat="42.53535099327564239501953125" lon="19.79429877363145351409912109375">
        <ele>1053.800048828125</ele>
        <time>2026-06-18T07:20:51.000Z</time>
        <extensions>
          <ns3:TrackPointExtension>
            <ns3:atemp>21.0</ns3:atemp>
          </ns3:TrackPointExtension>
        </extensions>
      </trkpt>
      <trkpt lat="42.53531067632138729095458984375" lon="19.79430128820240497589111328125">
        <ele>1053.800048828125</ele>
        <time>2026-06-18T07:20:52.000Z</time>
        <extensions>
          <ns3:TrackPointExtension>
            <ns3:atemp>21.0</ns3:atemp>
          </ns3:TrackPointExtension>
        </extensions>
      </trkpt>
      <trkpt lat="42.53526943735778331756591796875" lon="19.794302545487880706787109375">
        <ele>1053.800048828125</ele>
        <time>2026-06-18T07:20:53.000Z</time>
        <extensions>
          <ns3:TrackPointExtension>
            <ns3:atemp>21.0</ns3:atemp>
          </ns3:TrackPointExtension>
        </extensions>
      </trkpt>
      <trkpt lat="42.53522953949868679046630859375" lon="19.7943055629730224609375">
        <ele>1054</ele>
        <time>2026-06-18T07:20:54.000Z</time>
        <extensions>
          <ns3:TrackPointExtension>
            <ns3:atemp>21.0</ns3:atemp>
          </ns3:TrackPointExtension>
        </extensions>
      </trkpt>
      <trkpt lat="42.53518897108733654022216796875" lon="19.79431084357202053070068359375">
        <ele>1054.199951171875</ele>
        <time>2026-06-18T07:20:55.000Z</time>
        <extensions>
          <ns3:TrackPointExtension>
            <ns3:atemp>21.0</ns3:atemp>
          </ns3:TrackPointExtension>
        </extensions>
      </trkpt>
      <trkpt lat="42.53515091724693775177001953125" lon="19.794313609600067138671875">
        <ele>1054.199951171875</ele>
        <time>2026-06-18T07:20:56.000Z</time>
        <extensions>
          <ns3:TrackPointExtension>
            <ns3:atemp>21.0</ns3:atemp>
          </ns3:TrackPointExtension>
        </extensions>
      </trkpt>
      <trkpt lat="42.53511386923491954803466796875" lon="19.7943176329135894775390625">
        <ele>1054.4000244140625</ele>
        <time>2026-06-18T07:20:57.000Z</time>
        <extensions>
          <ns3:TrackPointExtension>
            <ns3:atemp>21.0</ns3:atemp>
          </ns3:TrackPointExtension>
        </extensions>
      </trkpt>
      <trkpt lat="42.53507606685161590576171875" lon="19.79432509280741214752197265625">
        <ele>1054.5999755859375</ele>
        <time>2026-06-18T07:20:58.000Z</time>
        <extensions>
          <ns3:TrackPointExtension>
            <ns3:atemp>21.0</ns3:atemp>
          </ns3:TrackPointExtension>
        </extensions>
      </trkpt>
      <trkpt lat="42.53503608517348766326904296875" lon="19.79433012194931507110595703125">
        <ele>1054.5999755859375</ele>
        <time>2026-06-18T07:20:59.000Z</time>
        <extensions>
          <ns3:TrackPointExtension>
            <ns3:atemp>21.0</ns3:atemp>
          </ns3:TrackPointExtension>
        </extensions>
      </trkpt>
      <trkpt lat="42.53499685786664485931396484375" lon="19.79433263652026653289794921875">
        <ele>1054.5999755859375</ele>
        <time>2026-06-18T07:21:00.000Z</time>
        <extensions>
          <ns3:TrackPointExtension>
            <ns3:atemp>21.0</ns3:atemp>
          </ns3:TrackPointExtension>
        </extensions>
      </trkpt>
      <trkpt lat="42.53495964221656322479248046875" lon="19.79433414526283740997314453125">
        <ele>1054.800048828125</ele>
        <time>2026-06-18T07:21:01.000Z</time>
        <extensions>
          <ns3:TrackPointExtension>
            <ns3:atemp>21.0</ns3:atemp>
          </ns3:TrackPointExtension>
        </extensions>
      </trkpt>
      <trkpt lat="42.5349199958145618438720703125" lon="19.79433699510991573333740234375">
        <ele>1055</ele>
        <time>2026-06-18T07:21:02.000Z</time>
        <extensions>
          <ns3:TrackPointExtension>
            <ns3:atemp>21.0</ns3:atemp>
          </ns3:TrackPointExtension>
        </extensions>
      </trkpt>
      <trkpt lat="42.534881271421909332275390625" lon="19.7943399287760257720947265625">
        <ele>1055</ele>
        <time>2026-06-18T07:21:03.000Z</time>
        <extensions>
          <ns3:TrackPointExtension>
            <ns3:atemp>21.0</ns3:atemp>
          </ns3:TrackPointExtension>
        </extensions>
      </trkpt>
      <trkpt lat="42.5348402000963687896728515625" lon="19.79434219188988208770751953125">
        <ele>1055</ele>
        <time>2026-06-18T07:21:04.000Z</time>
        <extensions>
          <ns3:TrackPointExtension>
            <ns3:atemp>21.0</ns3:atemp>
          </ns3:TrackPointExtension>
        </extensions>
      </trkpt>
      <trkpt lat="42.53480155952274799346923828125" lon="19.79434286244213581085205078125">
        <ele>1055.199951171875</ele>
        <time>2026-06-18T07:21:05.000Z</time>
        <extensions>
          <ns3:TrackPointExtension>
            <ns3:atemp>21.0</ns3:atemp>
          </ns3:TrackPointExtension>
        </extensions>
      </trkpt>
      <trkpt lat="42.534761913120746612548828125" lon="19.79434370063245296478271484375">
        <ele>1055.4000244140625</ele>
        <time>2026-06-18T07:21:06.000Z</time>
        <extensions>
          <ns3:TrackPointExtension>
            <ns3:atemp>21.0</ns3:atemp>
          </ns3:TrackPointExtension>
        </extensions>
      </trkpt>
      <trkpt lat="42.5347221828997135162353515625" lon="19.79434319771826267242431640625">
        <ele>1055.4000244140625</ele>
        <time>2026-06-18T07:21:07.000Z</time>
        <extensions>
          <ns3:TrackPointExtension>
            <ns3:atemp>21.0</ns3:atemp>
          </ns3:TrackPointExtension>
        </extensions>
      </trkpt>
      <trkpt lat="42.53468018956482410430908203125" lon="19.79434336535632610321044921875">
        <ele>1055.5999755859375</ele>
        <time>2026-06-18T07:21:08.000Z</time>
        <extensions>
          <ns3:TrackPointExtension>
            <ns3:atemp>21.0</ns3:atemp>
          </ns3:TrackPointExtension>
        </extensions>
      </trkpt>
      <trkpt lat="42.534640543162822723388671875" lon="19.79434110224246978759765625">
        <ele>1055.800048828125</ele>
        <time>2026-06-18T07:21:09.000Z</time>
        <extensions>
          <ns3:TrackPointExtension>
            <ns3:atemp>21.0</ns3:atemp>
          </ns3:TrackPointExtension>
        </extensions>
      </trkpt>
      <trkpt lat="42.53460223786532878875732421875" lon="19.79433850385248661041259765625">
        <ele>1056</ele>
        <time>2026-06-18T07:21:10.000Z</time>
        <extensions>
          <ns3:TrackPointExtension>
            <ns3:atemp>21.0</ns3:atemp>
          </ns3:TrackPointExtension>
        </extensions>
      </trkpt>
      <trkpt lat="42.5345630943775177001953125" lon="19.7943382523953914642333984375">
        <ele>1056.199951171875</ele>
        <time>2026-06-18T07:21:11.000Z</time>
        <extensions>
          <ns3:TrackPointExtension>
            <ns3:atemp>21.0</ns3:atemp>
          </ns3:TrackPointExtension>
        </extensions>
      </trkpt>
      <trkpt lat="42.53452579490840435028076171875" lon="19.7943365760147571563720703125">
        <ele>1056.199951171875</ele>
        <time>2026-06-18T07:21:12.000Z</time>
        <extensions>
          <ns3:TrackPointExtension>
            <ns3:atemp>21.0</ns3:atemp>
          </ns3:TrackPointExtension>
        </extensions>
      </trkpt>
      <trkpt lat="42.53448975272476673126220703125" lon="19.7943352349102497100830078125">
        <ele>1056.4000244140625</ele>
        <time>2026-06-18T07:21:13.000Z</time>
        <extensions>
          <ns3:TrackPointExtension>
            <ns3:atemp>21.0</ns3:atemp>
          </ns3:TrackPointExtension>
        </extensions>
      </trkpt>
      <trkpt lat="42.53445446491241455078125" lon="19.7943332232534885406494140625">
        <ele>1056.5999755859375</ele>
        <time>2026-06-18T07:21:14.000Z</time>
        <extensions>
          <ns3:TrackPointExtension>
            <ns3:atemp>21.0</ns3:atemp>
          </ns3:TrackPointExtension>
        </extensions>
      </trkpt>
      <trkpt lat="42.53442135639488697052001953125" lon="19.79432945139706134796142578125">
        <ele>1057</ele>
        <time>2026-06-18T07:21:15.000Z</time>
        <extensions>
          <ns3:TrackPointExtension>
            <ns3:atemp>21.0</ns3:atemp>
          </ns3:TrackPointExtension>
        </extensions>
      </trkpt>
      <trkpt lat="42.5343869067728519439697265625" lon="19.79432626627385616302490234375">
        <ele>1057.199951171875</ele>
        <time>2026-06-18T07:21:16.000Z</time>
        <extensions>
          <ns3:TrackPointExtension>
            <ns3:atemp>21.0</ns3:atemp>
          </ns3:TrackPointExtension>
        </extensions>
      </trkpt>
      <trkpt lat="42.53435187041759490966796875" lon="19.7943241707980632781982421875">
        <ele>1057.4000244140625</ele>
        <time>2026-06-18T07:21:17.000Z</time>
        <extensions>
          <ns3:TrackPointExtension>
            <ns3:atemp>21.0</ns3:atemp>
          </ns3:TrackPointExtension>
        </extensions>
      </trkpt>
      <trkpt lat="42.53431557677686214447021484375" lon="19.79431972838938236236572265625">
        <ele>1057.5999755859375</ele>
        <time>2026-06-18T07:21:18.000Z</time>
        <extensions>
          <ns3:TrackPointExtension>
            <ns3:atemp>21.0</ns3:atemp>
          </ns3:TrackPointExtension>
        </extensions>
      </trkpt>
      <trkpt lat="42.53428339026868343353271484375" lon="19.79431335814297199249267578125">
        <ele>1058</ele>
        <time>2026-06-18T07:21:19.000Z</time>
        <extensions>
          <ns3:TrackPointExtension>
            <ns3:atemp>21.0</ns3:atemp>
          </ns3:TrackPointExtension>
        </extensions>
      </trkpt>
      <trkpt lat="42.5342481024563312530517578125" lon="19.7943069040775299072265625">
        <ele>1058.199951171875</ele>
        <time>2026-06-18T07:21:20.000Z</time>
        <extensions>
          <ns3:TrackPointExtension>
            <ns3:atemp>21.0</ns3:atemp>
          </ns3:TrackPointExtension>
        </extensions>
      </trkpt>
      <trkpt lat="42.5342118926346302032470703125" lon="19.79430045001208782196044921875">
        <ele>1058.4000244140625</ele>
        <time>2026-06-18T07:21:21.000Z</time>
        <extensions>
          <ns3:TrackPointExtension>
            <ns3:atemp>21.0</ns3:atemp>
          </ns3:TrackPointExtension>
        </extensions>
      </trkpt>
      <trkpt lat="42.53417610190808773040771484375" lon="19.79429491795599460601806640625">
        <ele>1058.5999755859375</ele>
        <time>2026-06-18T07:21:22.000Z</time>
        <extensions>
          <ns3:TrackPointExtension>
            <ns3:atemp>21.0</ns3:atemp>
          </ns3:TrackPointExtension>
        </extensions>
      </trkpt>
      <trkpt lat="42.53413997590541839599609375" lon="19.79429122991859912872314453125">
        <ele>1058.800048828125</ele>
        <time>2026-06-18T07:21:23.000Z</time>
        <extensions>
          <ns3:TrackPointExtension>
            <ns3:atemp>21.0</ns3:atemp>
          </ns3:TrackPointExtension>
        </extensions>
      </trkpt>
      <trkpt lat="42.5341044366359710693359375" lon="19.79428343474864959716796875">
        <ele>1059</ele>
        <time>2026-06-18T07:21:24.000Z</time>
        <extensions>
          <ns3:TrackPointExtension>
            <ns3:atemp>21.0</ns3:atemp>
          </ns3:TrackPointExtension>
        </extensions>
      </trkpt>
      <trkpt lat="42.53407065756618976593017578125" lon="19.794279746711254119873046875">
        <ele>1059.4000244140625</ele>
        <time>2026-06-18T07:21:25.000Z</time>
        <extensions>
          <ns3:TrackPointExtension>
            <ns3:atemp>21.0</ns3:atemp>
          </ns3:TrackPointExtension>
        </extensions>
      </trkpt>
      <trkpt lat="42.534038722515106201171875" lon="19.79427396319806575775146484375">
        <ele>1059.5999755859375</ele>
        <time>2026-06-18T07:21:26.000Z</time>
        <extensions>
          <ns3:TrackPointExtension>
            <ns3:atemp>21.0</ns3:atemp>
          </ns3:TrackPointExtension>
        </extensions>
      </trkpt>
      <trkpt lat="42.53400745801627635955810546875" lon="19.79426859878003597259521484375">
        <ele>1059.800048828125</ele>
        <time>2026-06-18T07:21:27.000Z</time>
        <extensions>
          <ns3:TrackPointExtension>
            <ns3:atemp>21.0</ns3:atemp>
          </ns3:TrackPointExtension>
        </extensions>
      </trkpt>
      <trkpt lat="42.5339735113084316253662109375" lon="19.7942638210952281951904296875">
        <ele>1060</ele>
        <time>2026-06-18T07:21:28.000Z</time>
        <extensions>
          <ns3:TrackPointExtension>
            <ns3:atemp>21.0</ns3:atemp>
          </ns3:TrackPointExtension>
        </extensions>
      </trkpt>
      <trkpt lat="42.5339419953525066375732421875" lon="19.7942587919533252716064453125">
        <ele>1060.4000244140625</ele>
        <time>2026-06-18T07:21:29.000Z</time>
        <extensions>
          <ns3:TrackPointExtension>
            <ns3:atemp>21.0</ns3:atemp>
          </ns3:TrackPointExtension>
        </extensions>
      </trkpt>
      <trkpt lat="42.53390905447304248809814453125" lon="19.79425585828721523284912109375">
        <ele>1060.5999755859375</ele>
        <time>2026-06-18T07:21:30.000Z</time>
        <extensions>
          <ns3:TrackPointExtension>
            <ns3:atemp>21.0</ns3:atemp>
          </ns3:TrackPointExtension>
        </extensions>
      </trkpt>
      <trkpt lat="42.53387670032680034637451171875" lon="19.79425502009689807891845703125">
        <ele>1060.800048828125</ele>
        <time>2026-06-18T07:21:31.000Z</time>
        <extensions>
          <ns3:TrackPointExtension>
            <ns3:atemp>21.0</ns3:atemp>
          </ns3:TrackPointExtension>
        </extensions>
      </trkpt>
      <trkpt lat="42.53384518437087535858154296875" lon="19.79424999095499515533447265625">
        <ele>1061.199951171875</ele>
        <time>2026-06-18T07:21:32.000Z</time>
        <extensions>
          <ns3:TrackPointExtension>
            <ns3:atemp>21.0</ns3:atemp>
          </ns3:TrackPointExtension>
        </extensions>
      </trkpt>
      <trkpt lat="42.53381048329174518585205078125" lon="19.79424848221242427825927734375">
        <ele>1061.4000244140625</ele>
        <time>2026-06-18T07:21:33.000Z</time>
        <extensions>
          <ns3:TrackPointExtension>
            <ns3:atemp>21.0</ns3:atemp>
          </ns3:TrackPointExtension>
        </extensions>
      </trkpt>
      <trkpt lat="42.5337756983935832977294921875" lon="19.794246889650821685791015625">
        <ele>1061.5999755859375</ele>
        <time>2026-06-18T07:21:34.000Z</time>
        <extensions>
          <ns3:TrackPointExtension>
            <ns3:atemp>21.0</ns3:atemp>
          </ns3:TrackPointExtension>
        </extensions>
      </trkpt>
      <trkpt lat="42.53374460153281688690185546875" lon="19.79424630291759967803955078125">
        <ele>1062</ele>
        <time>2026-06-18T07:21:35.000Z</time>
        <extensions>
          <ns3:TrackPointExtension>
            <ns3:atemp>21.0</ns3:atemp>
          </ns3:TrackPointExtension>
        </extensions>
      </trkpt>
      <trkpt lat="42.53371660597622394561767578125" lon="19.79424580000340938568115234375">
        <ele>1062.199951171875</ele>
        <time>2026-06-18T07:21:36.000Z</time>
        <extensions>
          <ns3:TrackPointExtension>
            <ns3:atemp>21.0</ns3:atemp>
          </ns3:TrackPointExtension>
        </extensions>
      </trkpt>
      <trkpt lat="42.5336865149438381195068359375" lon="19.79424496181309223175048828125">
        <ele>1062.4000244140625</ele>
        <time>2026-06-18T07:21:37.000Z</time>
        <extensions>
          <ns3:TrackPointExtension>
            <ns3:atemp>21.0</ns3:atemp>
          </ns3:TrackPointExtension>
        </extensions>
      </trkpt>
      <trkpt lat="42.53365541808307170867919921875" lon="19.79424588382244110107421875">
        <ele>1062.800048828125</ele>
        <time>2026-06-18T07:21:38.000Z</time>
        <extensions>
          <ns3:TrackPointExtension>
            <ns3:atemp>21.0</ns3:atemp>
          </ns3:TrackPointExtension>
        </extensions>
      </trkpt>
      <trkpt lat="42.53362557850778102874755859375" lon="19.794245548546314239501953125">
        <ele>1063</ele>
        <time>2026-06-18T07:21:39.000Z</time>
        <extensions>
          <ns3:TrackPointExtension>
            <ns3:atemp>21.0</ns3:atemp>
          </ns3:TrackPointExtension>
        </extensions>
      </trkpt>
      <trkpt lat="42.5335916317999362945556640625" lon="19.794246219098567962646484375">
        <ele>1063.199951171875</ele>
        <time>2026-06-18T07:21:40.000Z</time>
        <extensions>
          <ns3:TrackPointExtension>
            <ns3:atemp>21.0</ns3:atemp>
          </ns3:TrackPointExtension>
        </extensions>
      </trkpt>
      <trkpt lat="42.53356330096721649169921875" lon="19.7942452132701873779296875">
        <ele>1063.5999755859375</ele>
        <time>2026-06-18T07:21:41.000Z</time>
        <extensions>
          <ns3:TrackPointExtension>
            <ns3:atemp>21.0</ns3:atemp>
          </ns3:TrackPointExtension>
        </extensions>
      </trkpt>
      <trkpt lat="42.5335356406867504119873046875" lon="19.7942437045276165008544921875">
        <ele>1064.199951171875</ele>
        <time>2026-06-18T07:21:42.000Z</time>
        <extensions>
          <ns3:TrackPointExtension>
            <ns3:atemp>21.0</ns3:atemp>
          </ns3:TrackPointExtension>
        </extensions>
      </trkpt>
      <trkpt lat="42.5335074774920940399169921875" lon="19.794244207441806793212890625">
        <ele>1064.5999755859375</ele>
        <time>2026-06-18T07:21:43.000Z</time>
        <extensions>
          <ns3:TrackPointExtension>
            <ns3:atemp>21.0</ns3:atemp>
          </ns3:TrackPointExtension>
        </extensions>
      </trkpt>
      <trkpt lat="42.53348283469676971435546875" lon="19.79424345307052135467529296875">
        <ele>1065</ele>
        <time>2026-06-18T07:21:44.000Z</time>
        <extensions>
          <ns3:TrackPointExtension>
            <ns3:atemp>21.0</ns3:atemp>
          </ns3:TrackPointExtension>
        </extensions>
      </trkpt>
      <trkpt lat="42.53345668315887451171875" lon="19.79424093849956989288330078125">
        <ele>1065.4000244140625</ele>
        <time>2026-06-18T07:21:45.000Z</time>
        <extensions>
          <ns3:TrackPointExtension>
            <ns3:atemp>21.0</ns3:atemp>
          </ns3:TrackPointExtension>
        </extensions>
      </trkpt>
      <trkpt lat="42.5334306992590427398681640625" lon="19.79423557408154010772705078125">
        <ele>1065.5999755859375</ele>
        <time>2026-06-18T07:21:46.000Z</time>
        <extensions>
          <ns3:TrackPointExtension>
            <ns3:atemp>21.0</ns3:atemp>
          </ns3:TrackPointExtension>
        </extensions>
      </trkpt>
      <trkpt lat="42.53340295515954494476318359375" lon="19.7942323051393032073974609375">
        <ele>1066</ele>
        <time>2026-06-18T07:21:47.000Z</time>
        <extensions>
          <ns3:TrackPointExtension>
            <ns3:atemp>21.0</ns3:atemp>
          </ns3:TrackPointExtension>
        </extensions>
      </trkpt>
      <trkpt lat="42.533376552164554595947265625" lon="19.794226773083209991455078125">
        <ele>1066.199951171875</ele>
        <time>2026-06-18T07:21:48.000Z</time>
        <extensions>
          <ns3:TrackPointExtension>
            <ns3:atemp>21.0</ns3:atemp>
          </ns3:TrackPointExtension>
        </extensions>
      </trkpt>
      <trkpt lat="42.533341683447360992431640625" lon="19.79421813972294330596923828125">
        <ele>1066.4000244140625</ele>
        <time>2026-06-18T07:21:49.000Z</time>
        <extensions>
          <ns3:TrackPointExtension>
            <ns3:atemp>21.0</ns3:atemp>
          </ns3:TrackPointExtension>
        </extensions>
      </trkpt>
      <trkpt lat="42.53330941312015056610107421875" lon="19.794214032590389251708984375">
        <ele>1066.800048828125</ele>
        <time>2026-06-18T07:21:50.000Z</time>
        <extensions>
          <ns3:TrackPointExtension>
            <ns3:atemp>21.0</ns3:atemp>
          </ns3:TrackPointExtension>
        </extensions>
      </trkpt>
      <trkpt lat="42.53327907063066959381103515625" lon="19.79421260766685009002685546875">
        <ele>1067</ele>
        <time>2026-06-18T07:21:51.000Z</time>
        <extensions>
          <ns3:TrackPointExtension>
            <ns3:atemp>21.0</ns3:atemp>
          </ns3:TrackPointExtension>
        </extensions>
      </trkpt>
      <trkpt lat="42.53324680030345916748046875" lon="19.79420833289623260498046875">
        <ele>1067.199951171875</ele>
        <time>2026-06-18T07:21:52.000Z</time>
        <extensions>
          <ns3:TrackPointExtension>
            <ns3:atemp>21.0</ns3:atemp>
          </ns3:TrackPointExtension>
        </extensions>
      </trkpt>
      <trkpt lat="42.53321318887174129486083984375" lon="19.7942074947059154510498046875">
        <ele>1067.5999755859375</ele>
        <time>2026-06-18T07:21:53.000Z</time>
        <extensions>
          <ns3:TrackPointExtension>
            <ns3:atemp>21.0</ns3:atemp>
          </ns3:TrackPointExtension>
        </extensions>
      </trkpt>
      <trkpt lat="42.533182762563228607177734375" lon="19.7942085005342960357666015625">
        <ele>1067.800048828125</ele>
        <time>2026-06-18T07:21:54.000Z</time>
        <extensions>
          <ns3:TrackPointExtension>
            <ns3:atemp>21.0</ns3:atemp>
          </ns3:TrackPointExtension>
        </extensions>
      </trkpt>
      <trkpt lat="42.533153593540191650390625" lon="19.79420556686818599700927734375">
        <ele>1068</ele>
        <time>2026-06-18T07:21:55.000Z</time>
        <extensions>
          <ns3:TrackPointExtension>
            <ns3:atemp>21.0</ns3:atemp>
          </ns3:TrackPointExtension>
        </extensions>
      </trkpt>
      <trkpt lat="42.53311998210847377777099609375" lon="19.79420472867786884307861328125">
        <ele>1068.199951171875</ele>
        <time>2026-06-18T07:21:56.000Z</time>
        <extensions>
          <ns3:TrackPointExtension>
            <ns3:atemp>21.0</ns3:atemp>
          </ns3:TrackPointExtension>
        </extensions>
      </trkpt>
      <trkpt lat="42.53308628685772418975830078125" lon="19.79420037008821964263916015625">
        <ele>1068.4000244140625</ele>
        <time>2026-06-18T07:21:57.000Z</time>
        <extensions>
          <ns3:TrackPointExtension>
            <ns3:atemp>21.0</ns3:atemp>
          </ns3:TrackPointExtension>
        </extensions>
      </trkpt>
      <trkpt lat="42.53305208869278430938720703125" lon="19.79419399984180927276611328125">
        <ele>1068.5999755859375</ele>
        <time>2026-06-18T07:21:58.000Z</time>
        <extensions>
          <ns3:TrackPointExtension>
            <ns3:atemp>21.0</ns3:atemp>
          </ns3:TrackPointExtension>
        </extensions>
      </trkpt>
      <trkpt lat="42.5330179743468761444091796875" lon="19.79418746195733547210693359375">
        <ele>1068.800048828125</ele>
        <time>2026-06-18T07:21:59.000Z</time>
        <extensions>
          <ns3:TrackPointExtension>
            <ns3:atemp>21.0</ns3:atemp>
          </ns3:TrackPointExtension>
        </extensions>
      </trkpt>
      <trkpt lat="42.53298184834420680999755859375" lon="19.79418151080608367919921875">
        <ele>1069</ele>
        <time>2026-06-18T07:22:00.000Z</time>
        <extensions>
          <ns3:TrackPointExtension>
            <ns3:atemp>21.0</ns3:atemp>
          </ns3:TrackPointExtension>
        </extensions>
      </trkpt>
      <trkpt lat="42.532944381237030029296875" lon="19.7941756434738636016845703125">
        <ele>1069.199951171875</ele>
        <time>2026-06-18T07:22:01.000Z</time>
        <extensions>
          <ns3:TrackPointExtension>
            <ns3:atemp>21.0</ns3:atemp>
          </ns3:TrackPointExtension>
        </extensions>
      </trkpt>
      <trkpt lat="42.53290875814855098724365234375" lon="19.79417069815099239349365234375">
        <ele>1069.4000244140625</ele>
        <time>2026-06-18T07:22:02.000Z</time>
        <extensions>
          <ns3:TrackPointExtension>
            <ns3:atemp>21.0</ns3:atemp>
          </ns3:TrackPointExtension>
        </extensions>
      </trkpt>
      <trkpt lat="42.53287321887910366058349609375" lon="19.79416416026651859283447265625">
        <ele>1069.5999755859375</ele>
        <time>2026-06-18T07:22:03.000Z</time>
        <extensions>
          <ns3:TrackPointExtension>
            <ns3:atemp>21.0</ns3:atemp>
          </ns3:TrackPointExtension>
        </extensions>
      </trkpt>
      <trkpt lat="42.53284136764705181121826171875" lon="19.794157035648822784423828125">
        <ele>1069.800048828125</ele>
        <time>2026-06-18T07:22:04.000Z</time>
        <extensions>
          <ns3:TrackPointExtension>
            <ns3:atemp>21.0</ns3:atemp>
          </ns3:TrackPointExtension>
        </extensions>
      </trkpt>
      <trkpt lat="42.53280532546341419219970703125" lon="19.794151000678539276123046875">
        <ele>1070</ele>
        <time>2026-06-18T07:22:05.000Z</time>
        <extensions>
          <ns3:TrackPointExtension>
            <ns3:atemp>21.0</ns3:atemp>
          </ns3:TrackPointExtension>
        </extensions>
      </trkpt>
      <trkpt lat="42.53277515061199665069580078125" lon="19.79414404369890689849853515625">
        <ele>1070.199951171875</ele>
        <time>2026-06-18T07:22:06.000Z</time>
        <extensions>
          <ns3:TrackPointExtension>
            <ns3:atemp>21.0</ns3:atemp>
          </ns3:TrackPointExtension>
        </extensions>
      </trkpt>
      <trkpt lat="42.532748915255069732666015625" lon="19.7941374219954013824462890625">
        <ele>1070.4000244140625</ele>
        <time>2026-06-18T07:22:07.000Z</time>
        <extensions>
          <ns3:TrackPointExtension>
            <ns3:atemp>21.0</ns3:atemp>
          </ns3:TrackPointExtension>
        </extensions>
      </trkpt>
      <trkpt lat="42.5327158905565738677978515625" lon="19.79413465596735477447509765625">
        <ele>1070.5999755859375</ele>
        <time>2026-06-18T07:22:08.000Z</time>
        <extensions>
          <ns3:TrackPointExtension>
            <ns3:atemp>21.0</ns3:atemp>
          </ns3:TrackPointExtension>
        </extensions>
      </trkpt>
      <trkpt lat="42.5326790101826190948486328125" lon="19.7941293753683567047119140625">
        <ele>1070.800048828125</ele>
        <time>2026-06-18T07:22:09.000Z</time>
        <extensions>
          <ns3:TrackPointExtension>
            <ns3:atemp>21.0</ns3:atemp>
          </ns3:TrackPointExtension>
        </extensions>
      </trkpt>
      <trkpt lat="42.53264129161834716796875" lon="19.79412191547453403472900390625">
        <ele>1071</ele>
        <time>2026-06-18T07:22:10.000Z</time>
        <extensions>
          <ns3:TrackPointExtension>
            <ns3:atemp>21.0</ns3:atemp>
          </ns3:TrackPointExtension>
        </extensions>
      </trkpt>
      <trkpt lat="42.53260575234889984130859375" lon="19.79411604814231395721435546875">
        <ele>1071.199951171875</ele>
        <time>2026-06-18T07:22:11.000Z</time>
        <extensions>
          <ns3:TrackPointExtension>
            <ns3:atemp>21.0</ns3:atemp>
          </ns3:TrackPointExtension>
        </extensions>
      </trkpt>
      <trkpt lat="42.53256845287978649139404296875" lon="19.794105403125286102294921875">
        <ele>1071.199951171875</ele>
        <time>2026-06-18T07:22:12.000Z</time>
        <extensions>
          <ns3:TrackPointExtension>
            <ns3:atemp>21.0</ns3:atemp>
          </ns3:TrackPointExtension>
        </extensions>
      </trkpt>
      <trkpt lat="42.53253324888646602630615234375" lon="19.7940921597182750701904296875">
        <ele>1071.4000244140625</ele>
        <time>2026-06-18T07:22:13.000Z</time>
        <extensions>
          <ns3:TrackPointExtension>
            <ns3:atemp>21.0</ns3:atemp>
          </ns3:TrackPointExtension>
        </extensions>
      </trkpt>
      <trkpt lat="42.53249720670282840728759765625" lon="19.79408335871994495391845703125">
        <ele>1071.4000244140625</ele>
        <time>2026-06-18T07:22:14.000Z</time>
        <extensions>
          <ns3:TrackPointExtension>
            <ns3:atemp>21.0</ns3:atemp>
          </ns3:TrackPointExtension>
        </extensions>
      </trkpt>
      <trkpt lat="42.532461248338222503662109375" lon="19.79407413862645626068115234375">
        <ele>1071.5999755859375</ele>
        <time>2026-06-18T07:22:15.000Z</time>
        <extensions>
          <ns3:TrackPointExtension>
            <ns3:atemp>21.0</ns3:atemp>
          </ns3:TrackPointExtension>
        </extensions>
      </trkpt>
      <trkpt lat="42.5324242003262042999267578125" lon="19.7940626554191112518310546875">
        <ele>1071.5999755859375</ele>
        <time>2026-06-18T07:22:16.000Z</time>
        <extensions>
          <ns3:TrackPointExtension>
            <ns3:atemp>21.0</ns3:atemp>
          </ns3:TrackPointExtension>
        </extensions>
      </trkpt>
      <trkpt lat="42.53239058889448642730712890625" lon="19.7940468974411487579345703125">
        <ele>1071.800048828125</ele>
        <time>2026-06-18T07:22:17.000Z</time>
        <extensions>
          <ns3:TrackPointExtension>
            <ns3:atemp>21.0</ns3:atemp>
          </ns3:TrackPointExtension>
        </extensions>
      </trkpt>
      <trkpt lat="42.53235924057662487030029296875" lon="19.7940308041870594024658203125">
        <ele>1071.800048828125</ele>
        <time>2026-06-18T07:22:18.000Z</time>
        <extensions>
          <ns3:TrackPointExtension>
            <ns3:atemp>21.0</ns3:atemp>
          </ns3:TrackPointExtension>
        </extensions>
      </trkpt>
      <trkpt lat="42.5323266349732875823974609375" lon="19.79401378892362117767333984375">
        <ele>1072</ele>
        <time>2026-06-18T07:22:19.000Z</time>
        <extensions>
          <ns3:TrackPointExtension>
            <ns3:atemp>21.0</ns3:atemp>
          </ns3:TrackPointExtension>
        </extensions>
      </trkpt>
      <trkpt lat="42.53229671157896518707275390625" lon="19.79399451054632663726806640625">
        <ele>1072</ele>
        <time>2026-06-18T07:22:20.000Z</time>
        <extensions>
          <ns3:TrackPointExtension>
            <ns3:atemp>21.0</ns3:atemp>
          </ns3:TrackPointExtension>
        </extensions>
      </trkpt>
      <trkpt lat="42.53226687200367450714111328125" lon="19.79397498071193695068359375">
        <ele>1072.199951171875</ele>
        <time>2026-06-18T07:22:21.000Z</time>
        <extensions>
          <ns3:TrackPointExtension>
            <ns3:atemp>21.0</ns3:atemp>
          </ns3:TrackPointExtension>
        </extensions>
      </trkpt>
      <trkpt lat="42.5322377867996692657470703125" lon="19.79395461268723011016845703125">
        <ele>1072.199951171875</ele>
        <time>2026-06-18T07:22:22.000Z</time>
        <extensions>
          <ns3:TrackPointExtension>
            <ns3:atemp>21.0</ns3:atemp>
          </ns3:TrackPointExtension>
        </extensions>
      </trkpt>
      <trkpt lat="42.53220953978598117828369140625" lon="19.793933741748332977294921875">
        <ele>1072.199951171875</ele>
        <time>2026-06-18T07:22:23.000Z</time>
        <extensions>
          <ns3:TrackPointExtension>
            <ns3:atemp>21.0</ns3:atemp>
          </ns3:TrackPointExtension>
        </extensions>
      </trkpt>
      <trkpt lat="42.53217970021069049835205078125" lon="19.79391186498105525970458984375">
        <ele>1072.4000244140625</ele>
        <time>2026-06-18T07:22:24.000Z</time>
        <extensions>
          <ns3:TrackPointExtension>
            <ns3:atemp>21.0</ns3:atemp>
          </ns3:TrackPointExtension>
        </extensions>
      </trkpt>
      <trkpt lat="42.53214902244508266448974609375" lon="19.79388755746185779571533203125">
        <ele>1072.4000244140625</ele>
        <time>2026-06-18T07:22:25.000Z</time>
        <extensions>
          <ns3:TrackPointExtension>
            <ns3:atemp>21.0</ns3:atemp>
          </ns3:TrackPointExtension>
        </extensions>
      </trkpt>
      <trkpt lat="42.53212069161236286163330078125" lon="19.793859981000423431396484375">
        <ele>1072.4000244140625</ele>
        <time>2026-06-18T07:22:26.000Z</time>
        <extensions>
          <ns3:TrackPointExtension>
            <ns3:atemp>21.0</ns3:atemp>
          </ns3:TrackPointExtension>
        </extensions>
      </trkpt>
      <trkpt lat="42.53208917565643787384033203125" lon="19.7938343323767185211181640625">
        <ele>1072.4000244140625</ele>
        <time>2026-06-18T07:22:27.000Z</time>
        <extensions>
          <ns3:TrackPointExtension>
            <ns3:atemp>21.0</ns3:atemp>
          </ns3:TrackPointExtension>
        </extensions>
      </trkpt>
      <trkpt lat="42.53205497749149799346923828125" lon="19.7938061691820621490478515625">
        <ele>1072.199951171875</ele>
        <time>2026-06-18T07:22:28.000Z</time>
        <extensions>
          <ns3:TrackPointExtension>
            <ns3:atemp>21.0</ns3:atemp>
          </ns3:TrackPointExtension>
        </extensions>
      </trkpt>
      <trkpt lat="42.5320171751081943511962890625" lon="19.79377381503582000732421875">
        <ele>1072.199951171875</ele>
        <time>2026-06-18T07:22:29.000Z</time>
        <extensions>
          <ns3:TrackPointExtension>
            <ns3:atemp>21.0</ns3:atemp>
          </ns3:TrackPointExtension>
        </extensions>
      </trkpt>
      <trkpt lat="42.531978450715541839599609375" lon="19.79374204762279987335205078125">
        <ele>1072.4000244140625</ele>
        <time>2026-06-18T07:22:30.000Z</time>
        <extensions>
          <ns3:TrackPointExtension>
            <ns3:atemp>21.0</ns3:atemp>
          </ns3:TrackPointExtension>
        </extensions>
      </trkpt>
      <trkpt lat="42.53193947486579418182373046875" lon="19.793708436191082000732421875">
        <ele>1072.4000244140625</ele>
        <time>2026-06-18T07:22:31.000Z</time>
        <extensions>
          <ns3:TrackPointExtension>
            <ns3:atemp>21.0</ns3:atemp>
          </ns3:TrackPointExtension>
        </extensions>
      </trkpt>
      <trkpt lat="42.53190075047314167022705078125" lon="19.7936740703880786895751953125">
        <ele>1072.199951171875</ele>
        <time>2026-06-18T07:22:32.000Z</time>
        <extensions>
          <ns3:TrackPointExtension>
            <ns3:atemp>21.0</ns3:atemp>
          </ns3:TrackPointExtension>
        </extensions>
      </trkpt>
      <trkpt lat="42.53186303190886974334716796875" lon="19.79364330880343914031982421875">
        <ele>1072.199951171875</ele>
        <time>2026-06-18T07:22:33.000Z</time>
        <extensions>
          <ns3:TrackPointExtension>
            <ns3:atemp>21.0</ns3:atemp>
          </ns3:TrackPointExtension>
        </extensions>
      </trkpt>
      <trkpt lat="42.53182631917297840118408203125" lon="19.7936096973717212677001953125">
        <ele>1072.199951171875</ele>
        <time>2026-06-18T07:22:34.000Z</time>
        <extensions>
          <ns3:TrackPointExtension>
            <ns3:atemp>21.0</ns3:atemp>
          </ns3:TrackPointExtension>
        </extensions>
      </trkpt>
      <trkpt lat="42.53178793005645275115966796875" lon="19.79357508011162281036376953125">
        <ele>1072.199951171875</ele>
        <time>2026-06-18T07:22:35.000Z</time>
        <extensions>
          <ns3:TrackPointExtension>
            <ns3:atemp>21.0</ns3:atemp>
          </ns3:TrackPointExtension>
        </extensions>
      </trkpt>
      <trkpt lat="42.53175138495862483978271484375" lon="19.79353970848023891448974609375">
        <ele>1072.199951171875</ele>
        <time>2026-06-18T07:22:36.000Z</time>
        <extensions>
          <ns3:TrackPointExtension>
            <ns3:atemp>21.0</ns3:atemp>
          </ns3:TrackPointExtension>
        </extensions>
      </trkpt>
      <trkpt lat="42.5317177735269069671630859375" lon="19.79350483976304531097412109375">
        <ele>1072.199951171875</ele>
        <time>2026-06-18T07:22:37.000Z</time>
        <extensions>
          <ns3:TrackPointExtension>
            <ns3:atemp>21.0</ns3:atemp>
          </ns3:TrackPointExtension>
        </extensions>
      </trkpt>
      <trkpt lat="42.53168181516230106353759765625" lon="19.7934718988835811614990234375">
        <ele>1072.199951171875</ele>
        <time>2026-06-18T07:22:38.000Z</time>
        <extensions>
          <ns3:TrackPointExtension>
            <ns3:atemp>21.0</ns3:atemp>
          </ns3:TrackPointExtension>
        </extensions>
      </trkpt>
      <trkpt lat="42.53164560534060001373291015625" lon="19.79343962855637073516845703125">
        <ele>1072.199951171875</ele>
        <time>2026-06-18T07:22:39.000Z</time>
        <extensions>
          <ns3:TrackPointExtension>
            <ns3:atemp>21.0</ns3:atemp>
          </ns3:TrackPointExtension>
        </extensions>
      </trkpt>
      <trkpt lat="42.53161006607115268707275390625" lon="19.79340911842882633209228515625">
        <ele>1072.199951171875</ele>
        <time>2026-06-18T07:22:40.000Z</time>
        <extensions>
          <ns3:TrackPointExtension>
            <ns3:atemp>21.0</ns3:atemp>
          </ns3:TrackPointExtension>
        </extensions>
      </trkpt>
      <trkpt lat="42.5315759517252445220947265625" lon="19.7933810390532016754150390625">
        <ele>1072.199951171875</ele>
        <time>2026-06-18T07:22:41.000Z</time>
        <extensions>
          <ns3:TrackPointExtension>
            <ns3:atemp>21.0</ns3:atemp>
          </ns3:TrackPointExtension>
        </extensions>
      </trkpt>
      <trkpt lat="42.53154032863676548004150390625" lon="19.7933515347540378570556640625">
        <ele>1072.4000244140625</ele>
        <time>2026-06-18T07:22:42.000Z</time>
        <extensions>
          <ns3:TrackPointExtension>
            <ns3:atemp>21.0</ns3:atemp>
          </ns3:TrackPointExtension>
        </extensions>
      </trkpt>
      <trkpt lat="42.53150696866214275360107421875" lon="19.793321192264556884765625">
        <ele>1072.4000244140625</ele>
        <time>2026-06-18T07:22:43.000Z</time>
        <extensions>
          <ns3:TrackPointExtension>
            <ns3:atemp>21.0</ns3:atemp>
          </ns3:TrackPointExtension>
        </extensions>
      </trkpt>
      <trkpt lat="42.53147184848785400390625" lon="19.79328833520412445068359375">
        <ele>1072.5999755859375</ele>
        <time>2026-06-18T07:22:44.000Z</time>
        <extensions>
          <ns3:TrackPointExtension>
            <ns3:atemp>21.0</ns3:atemp>
          </ns3:TrackPointExtension>
        </extensions>
      </trkpt>
      <trkpt lat="42.5314337946474552154541015625" lon="19.79325204156339168548583984375">
        <ele>1072.5999755859375</ele>
        <time>2026-06-18T07:22:45.000Z</time>
        <extensions>
          <ns3:TrackPointExtension>
            <ns3:atemp>21.0</ns3:atemp>
          </ns3:TrackPointExtension>
        </extensions>
      </trkpt>
      <trkpt lat="42.53139582462608814239501953125" lon="19.79321348480880260467529296875">
        <ele>1072.5999755859375</ele>
        <time>2026-06-18T07:22:46.000Z</time>
        <extensions>
          <ns3:TrackPointExtension>
            <ns3:atemp>21.0</ns3:atemp>
          </ns3:TrackPointExtension>
        </extensions>
      </trkpt>
      <trkpt lat="42.53135810606181621551513671875" lon="19.79317434132099151611328125">
        <ele>1072.5999755859375</ele>
        <time>2026-06-18T07:22:47.000Z</time>
        <extensions>
          <ns3:TrackPointExtension>
            <ns3:atemp>21.0</ns3:atemp>
          </ns3:TrackPointExtension>
        </extensions>
      </trkpt>
      <trkpt lat="42.53132273443043231964111328125" lon="19.7931359522044658660888671875">
        <ele>1072.4000244140625</ele>
        <time>2026-06-18T07:22:48.000Z</time>
        <extensions>
          <ns3:TrackPointExtension>
            <ns3:atemp>21.0</ns3:atemp>
          </ns3:TrackPointExtension>
        </extensions>
      </trkpt>
      <trkpt lat="42.5312899611890316009521484375" lon="19.793096892535686492919921875">
        <ele>1072.4000244140625</ele>
        <time>2026-06-18T07:22:49.000Z</time>
        <extensions>
          <ns3:TrackPointExtension>
            <ns3:atemp>21.0</ns3:atemp>
          </ns3:TrackPointExtension>
        </extensions>
      </trkpt>
      <trkpt lat="42.5312557630240917205810546875" lon="19.7930574975907802581787109375">
        <ele>1072.4000244140625</ele>
        <time>2026-06-18T07:22:50.000Z</time>
        <extensions>
          <ns3:TrackPointExtension>
            <ns3:atemp>21.0</ns3:atemp>
          </ns3:TrackPointExtension>
        </extensions>
      </trkpt>
      <trkpt lat="42.5312222354114055633544921875" lon="19.79302003048360347747802734375">
        <ele>1072.4000244140625</ele>
        <time>2026-06-18T07:22:51.000Z</time>
        <extensions>
          <ns3:TrackPointExtension>
            <ns3:atemp>21.0</ns3:atemp>
          </ns3:TrackPointExtension>
        </extensions>
      </trkpt>
      <trkpt lat="42.53118820488452911376953125" lon="19.79297845624387264251708984375">
        <ele>1072.199951171875</ele>
        <time>2026-06-18T07:22:52.000Z</time>
        <extensions>
          <ns3:TrackPointExtension>
            <ns3:atemp>21.0</ns3:atemp>
          </ns3:TrackPointExtension>
        </extensions>
      </trkpt>
      <trkpt lat="42.53115576691925525665283203125" lon="19.792937301099300384521484375">
        <ele>1072.199951171875</ele>
        <time>2026-06-18T07:22:53.000Z</time>
        <extensions>
          <ns3:TrackPointExtension>
            <ns3:atemp>21.0</ns3:atemp>
          </ns3:TrackPointExtension>
        </extensions>
      </trkpt>
      <trkpt lat="42.53112592734396457672119140625" lon="19.792895726859569549560546875">
        <ele>1072.199951171875</ele>
        <time>2026-06-18T07:22:54.000Z</time>
        <extensions>
          <ns3:TrackPointExtension>
            <ns3:atemp>21.0</ns3:atemp>
          </ns3:TrackPointExtension>
        </extensions>
      </trkpt>
      <trkpt lat="42.531096674501895904541015625" lon="19.79285390116274356842041015625">
        <ele>1072.199951171875</ele>
        <time>2026-06-18T07:22:55.000Z</time>
        <extensions>
          <ns3:TrackPointExtension>
            <ns3:atemp>21.0</ns3:atemp>
          </ns3:TrackPointExtension>
        </extensions>
      </trkpt>
      <trkpt lat="42.53106373362243175506591796875" lon="19.7928144223988056182861328125">
        <ele>1072.199951171875</ele>
        <time>2026-06-18T07:22:56.000Z</time>
        <extensions>
          <ns3:TrackPointExtension>
            <ns3:atemp>21.0</ns3:atemp>
          </ns3:TrackPointExtension>
        </extensions>
      </trkpt>
      <trkpt lat="42.53103506751358509063720703125" lon="19.7927745245397090911865234375">
        <ele>1072.199951171875</ele>
        <time>2026-06-18T07:22:57.000Z</time>
        <extensions>
          <ns3:TrackPointExtension>
            <ns3:atemp>21.0</ns3:atemp>
          </ns3:TrackPointExtension>
        </extensions>
      </trkpt>
      <trkpt lat="42.53100858069956302642822265625" lon="19.79272632859647274017333984375">
        <ele>1072</ele>
        <time>2026-06-18T07:22:58.000Z</time>
        <extensions>
          <ns3:TrackPointExtension>
            <ns3:atemp>21.0</ns3:atemp>
          </ns3:TrackPointExtension>
        </extensions>
      </trkpt>
      <trkpt lat="42.530986368656158447265625" lon="19.79267821647226810455322265625">
        <ele>1072</ele>
        <time>2026-06-18T07:22:59.000Z</time>
        <extensions>
          <ns3:TrackPointExtension>
            <ns3:atemp>21.0</ns3:atemp>
          </ns3:TrackPointExtension>
        </extensions>
      </trkpt>
      <trkpt lat="42.5309603847563266754150390625" lon="19.79263446293771266937255859375">
        <ele>1072</ele>
        <time>2026-06-18T07:23:00.000Z</time>
        <extensions>
          <ns3:TrackPointExtension>
            <ns3:atemp>21.0</ns3:atemp>
          </ns3:TrackPointExtension>
        </extensions>
      </trkpt>
      <trkpt lat="42.53093230538070201873779296875" lon="19.79258693754673004150390625">
        <ele>1071.800048828125</ele>
        <time>2026-06-18T07:23:01.000Z</time>
        <extensions>
          <ns3:TrackPointExtension>
            <ns3:atemp>21.0</ns3:atemp>
          </ns3:TrackPointExtension>
        </extensions>
      </trkpt>
      <trkpt lat="42.53091034479439258575439453125" lon="19.7925374843180179595947265625">
        <ele>1071.800048828125</ele>
        <time>2026-06-18T07:23:02.000Z</time>
        <extensions>
          <ns3:TrackPointExtension>
            <ns3:atemp>21.0</ns3:atemp>
          </ns3:TrackPointExtension>
        </extensions>
      </trkpt>
      <trkpt lat="42.530884444713592529296875" lon="19.79249431751668453216552734375">
        <ele>1071.5999755859375</ele>
        <time>2026-06-18T07:23:03.000Z</time>
        <extensions>
          <ns3:TrackPointExtension>
            <ns3:atemp>21.0</ns3:atemp>
          </ns3:TrackPointExtension>
        </extensions>
      </trkpt>
      <trkpt lat="42.53086189739406108856201171875" lon="19.79244469664990901947021484375">
        <ele>1071.5999755859375</ele>
        <time>2026-06-18T07:23:04.000Z</time>
        <extensions>
          <ns3:TrackPointExtension>
            <ns3:atemp>21.0</ns3:atemp>
          </ns3:TrackPointExtension>
        </extensions>
      </trkpt>
      <trkpt lat="42.53084060736000537872314453125" lon="19.79239541105926036834716796875">
        <ele>1071.5999755859375</ele>
        <time>2026-06-18T07:23:05.000Z</time>
        <extensions>
          <ns3:TrackPointExtension>
            <ns3:atemp>21.0</ns3:atemp>
          </ns3:TrackPointExtension>
        </extensions>
      </trkpt>
      <trkpt lat="42.5308195687830448150634765625" lon="19.7923480533063411712646484375">
        <ele>1071.5999755859375</ele>
        <time>2026-06-18T07:23:06.000Z</time>
        <extensions>
          <ns3:TrackPointExtension>
            <ns3:atemp>21.0</ns3:atemp>
          </ns3:TrackPointExtension>
        </extensions>
      </trkpt>
      <trkpt lat="42.53079702146351337432861328125" lon="19.79230262339115142822265625">
        <ele>1071.5999755859375</ele>
        <time>2026-06-18T07:23:07.000Z</time>
        <extensions>
          <ns3:TrackPointExtension>
            <ns3:atemp>21.0</ns3:atemp>
          </ns3:TrackPointExtension>
        </extensions>
      </trkpt>
      <trkpt lat="42.5307758152484893798828125" lon="19.79225610382854938507080078125">
        <ele>1071.5999755859375</ele>
        <time>2026-06-18T07:23:08.000Z</time>
        <extensions>
          <ns3:TrackPointExtension>
            <ns3:atemp>21.0</ns3:atemp>
          </ns3:TrackPointExtension>
        </extensions>
      </trkpt>
      <trkpt lat="42.5307535193860530853271484375" lon="19.79220799170434474945068359375">
        <ele>1071.5999755859375</ele>
        <time>2026-06-18T07:23:09.000Z</time>
        <extensions>
          <ns3:TrackPointExtension>
            <ns3:atemp>21.0</ns3:atemp>
          </ns3:TrackPointExtension>
        </extensions>
      </trkpt>
      <trkpt lat="42.53073181025683879852294921875" lon="19.79216088540852069854736328125">
        <ele>1071.5999755859375</ele>
        <time>2026-06-18T07:23:10.000Z</time>
        <extensions>
          <ns3:TrackPointExtension>
            <ns3:atemp>21.0</ns3:atemp>
          </ns3:TrackPointExtension>
        </extensions>
      </trkpt>
      <trkpt lat="42.530707083642482757568359375" lon="19.7921136952936649322509765625">
        <ele>1071.5999755859375</ele>
        <time>2026-06-18T07:23:11.000Z</time>
        <extensions>
          <ns3:TrackPointExtension>
            <ns3:atemp>21.0</ns3:atemp>
          </ns3:TrackPointExtension>
        </extensions>
      </trkpt>
      <trkpt lat="42.5306790880858898162841796875" lon="19.79206399060785770416259765625">
        <ele>1071.5999755859375</ele>
        <time>2026-06-18T07:23:12.000Z</time>
        <extensions>
          <ns3:TrackPointExtension>
            <ns3:atemp>21.0</ns3:atemp>
          </ns3:TrackPointExtension>
        </extensions>
      </trkpt>
      <trkpt lat="42.53064966760575771331787109375" lon="19.79201621375977993011474609375">
        <ele>1071.5999755859375</ele>
        <time>2026-06-18T07:23:13.000Z</time>
        <extensions>
          <ns3:TrackPointExtension>
            <ns3:atemp>21.0</ns3:atemp>
          </ns3:TrackPointExtension>
        </extensions>
      </trkpt>
      <trkpt lat="42.5306200794875621795654296875" lon="19.79196709580719470977783203125">
        <ele>1071.5999755859375</ele>
        <time>2026-06-18T07:23:14.000Z</time>
        <extensions>
          <ns3:TrackPointExtension>
            <ns3:atemp>21.0</ns3:atemp>
          </ns3:TrackPointExtension>
        </extensions>
      </trkpt>
      <trkpt lat="42.53059065900743007659912109375" lon="19.7919219173491001129150390625">
        <ele>1071.800048828125</ele>
        <time>2026-06-18T07:23:15.000Z</time>
        <extensions>
          <ns3:TrackPointExtension>
            <ns3:atemp>21.0</ns3:atemp>
          </ns3:TrackPointExtension>
        </extensions>
      </trkpt>
      <trkpt lat="42.5305627472698688507080078125" lon="19.7918768227100372314453125">
        <ele>1071.800048828125</ele>
        <time>2026-06-18T07:23:16.000Z</time>
        <extensions>
          <ns3:TrackPointExtension>
            <ns3:atemp>21.0</ns3:atemp>
          </ns3:TrackPointExtension>
        </extensions>
      </trkpt>
      <trkpt lat="42.530532069504261016845703125" lon="19.7918312251567840576171875">
        <ele>1071.800048828125</ele>
        <time>2026-06-18T07:23:17.000Z</time>
        <extensions>
          <ns3:TrackPointExtension>
            <ns3:atemp>21.0</ns3:atemp>
          </ns3:TrackPointExtension>
        </extensions>
      </trkpt>
      <trkpt lat="42.53050130791962146759033203125" lon="19.79178629815578460693359375">
        <ele>1071.800048828125</ele>
        <time>2026-06-18T07:23:18.000Z</time>
        <extensions>
          <ns3:TrackPointExtension>
            <ns3:atemp>21.0</ns3:atemp>
          </ns3:TrackPointExtension>
        </extensions>
      </trkpt>
      <trkpt lat="42.53046995960175991058349609375" lon="19.79174313135445117950439453125">
        <ele>1072</ele>
        <time>2026-06-18T07:23:19.000Z</time>
        <extensions>
          <ns3:TrackPointExtension>
            <ns3:atemp>21.0</ns3:atemp>
          </ns3:TrackPointExtension>
        </extensions>
      </trkpt>
      <trkpt lat="42.5304378569126129150390625" lon="19.7917024791240692138671875">
        <ele>1072</ele>
        <time>2026-06-18T07:23:20.000Z</time>
        <extensions>
          <ns3:TrackPointExtension>
            <ns3:atemp>21.0</ns3:atemp>
          </ns3:TrackPointExtension>
        </extensions>
      </trkpt>
      <trkpt lat="42.53040357492864131927490234375" lon="19.79166501201689243316650390625">
        <ele>1072</ele>
        <time>2026-06-18T07:23:21.000Z</time>
        <extensions>
          <ns3:TrackPointExtension>
            <ns3:atemp>21.0</ns3:atemp>
          </ns3:TrackPointExtension>
        </extensions>
      </trkpt>
      <trkpt lat="42.53036744892597198486328125" lon="19.79162746109068393707275390625">
        <ele>1072</ele>
        <time>2026-06-18T07:23:22.000Z</time>
        <extensions>
          <ns3:TrackPointExtension>
            <ns3:atemp>21.0</ns3:atemp>
          </ns3:TrackPointExtension>
        </extensions>
      </trkpt>
      <trkpt lat="42.53032864071428775787353515625" lon="19.7915909998118877410888671875">
        <ele>1072</ele>
        <time>2026-06-18T07:23:23.000Z</time>
        <extensions>
          <ns3:TrackPointExtension>
            <ns3:atemp>21.0</ns3:atemp>
          </ns3:TrackPointExtension>
        </extensions>
      </trkpt>
      <trkpt lat="42.53029326908290386199951171875" lon="19.79155420325696468353271484375">
        <ele>1072.199951171875</ele>
        <time>2026-06-18T07:23:24.000Z</time>
        <extensions>
          <ns3:TrackPointExtension>
            <ns3:atemp>21.0</ns3:atemp>
          </ns3:TrackPointExtension>
        </extensions>
      </trkpt>
      <trkpt lat="42.5302583165466785430908203125" lon="19.79151983745396137237548828125">
        <ele>1072.199951171875</ele>
        <time>2026-06-18T07:23:25.000Z</time>
        <extensions>
          <ns3:TrackPointExtension>
            <ns3:atemp>21.0</ns3:atemp>
          </ns3:TrackPointExtension>
        </extensions>
      </trkpt>
      <trkpt lat="42.53022403456270694732666015625" lon="19.79148245416581630706787109375">
        <ele>1072.4000244140625</ele>
        <time>2026-06-18T07:23:26.000Z</time>
        <extensions>
          <ns3:TrackPointExtension>
            <ns3:atemp>21.0</ns3:atemp>
          </ns3:TrackPointExtension>
        </extensions>
      </trkpt>
      <trkpt lat="42.53018866293132305145263671875" lon="19.79144808836281299591064453125">
        <ele>1072.5999755859375</ele>
        <time>2026-06-18T07:23:27.000Z</time>
        <extensions>
          <ns3:TrackPointExtension>
            <ns3:atemp>21.0</ns3:atemp>
          </ns3:TrackPointExtension>
        </extensions>
      </trkpt>
      <trkpt lat="42.53015697933733463287353515625" lon="19.79140768758952617645263671875">
        <ele>1072.5999755859375</ele>
        <time>2026-06-18T07:23:28.000Z</time>
        <extensions>
          <ns3:TrackPointExtension>
            <ns3:atemp>21.0</ns3:atemp>
          </ns3:TrackPointExtension>
        </extensions>
      </trkpt>
      <trkpt lat="42.53012512810528278350830078125" lon="19.79137080721557140350341796875">
        <ele>1072.800048828125</ele>
        <time>2026-06-18T07:23:29.000Z</time>
        <extensions>
          <ns3:TrackPointExtension>
            <ns3:atemp>21.0</ns3:atemp>
          </ns3:TrackPointExtension>
        </extensions>
      </trkpt>
      <trkpt lat="42.53009294159710407257080078125" lon="19.79133694432675838470458984375">
        <ele>1073</ele>
        <time>2026-06-18T07:23:30.000Z</time>
        <extensions>
          <ns3:TrackPointExtension>
            <ns3:atemp>21.0</ns3:atemp>
          </ns3:TrackPointExtension>
        </extensions>
      </trkpt>
      <trkpt lat="42.5300618447363376617431640625" lon="19.7913026623427867889404296875">
        <ele>1073</ele>
        <time>2026-06-18T07:23:31.000Z</time>
        <extensions>
          <ns3:TrackPointExtension>
            <ns3:atemp>21.0</ns3:atemp>
          </ns3:TrackPointExtension>
        </extensions>
      </trkpt>
      <trkpt lat="42.53002957440912723541259765625" lon="19.7912694700062274932861328125">
        <ele>1073.199951171875</ele>
        <time>2026-06-18T07:23:32.000Z</time>
        <extensions>
          <ns3:TrackPointExtension>
            <ns3:atemp>21.0</ns3:atemp>
          </ns3:TrackPointExtension>
        </extensions>
      </trkpt>
      <trkpt lat="42.52999730408191680908203125" lon="19.79123870842158794403076171875">
        <ele>1073.4000244140625</ele>
        <time>2026-06-18T07:23:33.000Z</time>
        <extensions>
          <ns3:TrackPointExtension>
            <ns3:atemp>21.0</ns3:atemp>
          </ns3:TrackPointExtension>
        </extensions>
      </trkpt>
      <trkpt lat="42.5299672968685626983642578125" lon="19.79120501317083835601806640625">
        <ele>1073.5999755859375</ele>
        <time>2026-06-18T07:23:34.000Z</time>
        <extensions>
          <ns3:TrackPointExtension>
            <ns3:atemp>21.0</ns3:atemp>
          </ns3:TrackPointExtension>
        </extensions>
      </trkpt>
      <trkpt lat="42.52993871457874774932861328125" lon="19.7911682166159152984619140625">
        <ele>1073.800048828125</ele>
        <time>2026-06-18T07:23:35.000Z</time>
        <extensions>
          <ns3:TrackPointExtension>
            <ns3:atemp>21.0</ns3:atemp>
          </ns3:TrackPointExtension>
        </extensions>
      </trkpt>
      <trkpt lat="42.52991206012666225433349609375" lon="19.7911293245851993560791015625">
        <ele>1074</ele>
        <time>2026-06-18T07:23:36.000Z</time>
        <extensions>
          <ns3:TrackPointExtension>
            <ns3:atemp>21.0</ns3:atemp>
          </ns3:TrackPointExtension>
        </extensions>
      </trkpt>
      <trkpt lat="42.5298841483891010284423828125" lon="19.79109026491641998291015625">
        <ele>1074.199951171875</ele>
        <time>2026-06-18T07:23:37.000Z</time>
        <extensions>
          <ns3:TrackPointExtension>
            <ns3:atemp>21.0</ns3:atemp>
          </ns3:TrackPointExtension>
        </extensions>
      </trkpt>
      <trkpt lat="42.529856823384761810302734375" lon="19.7910512052476406097412109375">
        <ele>1074.4000244140625</ele>
        <time>2026-06-18T07:23:38.000Z</time>
        <extensions>
          <ns3:TrackPointExtension>
            <ns3:atemp>21.0</ns3:atemp>
          </ns3:TrackPointExtension>
        </extensions>
      </trkpt>
      <trkpt lat="42.52983075566589832305908203125" lon="19.79101382195949554443359375">
        <ele>1074.5999755859375</ele>
        <time>2026-06-18T07:23:39.000Z</time>
        <extensions>
          <ns3:TrackPointExtension>
            <ns3:atemp>21.0</ns3:atemp>
          </ns3:TrackPointExtension>
        </extensions>
      </trkpt>
      <trkpt lat="42.52980661578476428985595703125" lon="19.79097685776650905609130859375">
        <ele>1074.800048828125</ele>
        <time>2026-06-18T07:23:40.000Z</time>
        <extensions>
          <ns3:TrackPointExtension>
            <ns3:atemp>21.0</ns3:atemp>
          </ns3:TrackPointExtension>
        </extensions>
      </trkpt>
      <trkpt lat="42.52978348173201084136962890625" lon="19.790940396487712860107421875">
        <ele>1075</ele>
        <time>2026-06-18T07:23:41.000Z</time>
        <extensions>
          <ns3:TrackPointExtension>
            <ns3:atemp>21.0</ns3:atemp>
          </ns3:TrackPointExtension>
        </extensions>
      </trkpt>
      <trkpt lat="42.529760934412479400634765625" lon="19.79090527631342411041259765625">
        <ele>1075.4000244140625</ele>
        <time>2026-06-18T07:23:42.000Z</time>
        <extensions>
          <ns3:TrackPointExtension>
            <ns3:atemp>21.0</ns3:atemp>
          </ns3:TrackPointExtension>
        </extensions>
      </trkpt>
      <trkpt lat="42.52974039874970912933349609375" lon="19.79086839593946933746337890625">
        <ele>1075.5999755859375</ele>
        <time>2026-06-18T07:23:43.000Z</time>
        <extensions>
          <ns3:TrackPointExtension>
            <ns3:atemp>21.0</ns3:atemp>
          </ns3:TrackPointExtension>
        </extensions>
      </trkpt>
      <trkpt lat="42.5297205336391925811767578125" lon="19.7908349521458148956298828125">
        <ele>1076</ele>
        <time>2026-06-18T07:23:44.000Z</time>
        <extensions>
          <ns3:TrackPointExtension>
            <ns3:atemp>21.0</ns3:atemp>
          </ns3:TrackPointExtension>
        </extensions>
      </trkpt>
      <trkpt lat="42.52970091998577117919921875" lon="19.79079966433346271514892578125">
        <ele>1076.199951171875</ele>
        <time>2026-06-18T07:23:45.000Z</time>
        <extensions>
          <ns3:TrackPointExtension>
            <ns3:atemp>21.0</ns3:atemp>
          </ns3:TrackPointExtension>
        </extensions>
      </trkpt>
      <trkpt lat="42.5296806357800960540771484375" lon="19.79076563380658626556396484375">
        <ele>1076.5999755859375</ele>
        <time>2026-06-18T07:23:46.000Z</time>
        <extensions>
          <ns3:TrackPointExtension>
            <ns3:atemp>21.0</ns3:atemp>
          </ns3:TrackPointExtension>
        </extensions>
      </trkpt>
      <trkpt lat="42.5296595133841037750244140625" lon="19.79073084890842437744140625">
        <ele>1076.800048828125</ele>
        <time>2026-06-18T07:23:47.000Z</time>
        <extensions>
          <ns3:TrackPointExtension>
            <ns3:atemp>21.0</ns3:atemp>
          </ns3:TrackPointExtension>
        </extensions>
      </trkpt>
      <trkpt lat="42.52963721752166748046875" lon="19.79069153778254985809326171875">
        <ele>1077.199951171875</ele>
        <time>2026-06-18T07:23:48.000Z</time>
        <extensions>
          <ns3:TrackPointExtension>
            <ns3:atemp>21.0</ns3:atemp>
          </ns3:TrackPointExtension>
        </extensions>
      </trkpt>
      <trkpt lat="42.529616095125675201416015625" lon="19.79064996354281902313232421875">
        <ele>1077.5999755859375</ele>
        <time>2026-06-18T07:23:49.000Z</time>
        <extensions>
          <ns3:TrackPointExtension>
            <ns3:atemp>21.0</ns3:atemp>
          </ns3:TrackPointExtension>
        </extensions>
      </trkpt>
      <trkpt lat="42.5295971520245075225830078125" lon="19.79061149060726165771484375">
        <ele>1077.800048828125</ele>
        <time>2026-06-18T07:23:50.000Z</time>
        <extensions>
          <ns3:TrackPointExtension>
            <ns3:atemp>21.0</ns3:atemp>
          </ns3:TrackPointExtension>
        </extensions>
      </trkpt>
      <trkpt lat="42.5295793823897838592529296875" lon="19.79057687334716320037841796875">
        <ele>1078.199951171875</ele>
        <time>2026-06-18T07:23:51.000Z</time>
        <extensions>
          <ns3:TrackPointExtension>
            <ns3:atemp>21.0</ns3:atemp>
          </ns3:TrackPointExtension>
        </extensions>
      </trkpt>
      <trkpt lat="42.52956052310764789581298828125" lon="19.79054351337254047393798828125">
        <ele>1078.5999755859375</ele>
        <time>2026-06-18T07:23:52.000Z</time>
        <extensions>
          <ns3:TrackPointExtension>
            <ns3:atemp>21.0</ns3:atemp>
          </ns3:TrackPointExtension>
        </extensions>
      </trkpt>
      <trkpt lat="42.52954208292067050933837890625" lon="19.7905087284743785858154296875">
        <ele>1078.800048828125</ele>
        <time>2026-06-18T07:23:53.000Z</time>
        <extensions>
          <ns3:TrackPointExtension>
            <ns3:atemp>21.0</ns3:atemp>
          </ns3:TrackPointExtension>
        </extensions>
      </trkpt>
      <trkpt lat="42.5295247323811054229736328125" lon="19.79047176428139209747314453125">
        <ele>1079</ele>
        <time>2026-06-18T07:23:54.000Z</time>
        <extensions>
          <ns3:TrackPointExtension>
            <ns3:atemp>21.0</ns3:atemp>
          </ns3:TrackPointExtension>
        </extensions>
      </trkpt>
      <trkpt lat="42.5295072980225086212158203125" lon="19.79043312370777130126953125">
        <ele>1079.4000244140625</ele>
        <time>2026-06-18T07:23:55.000Z</time>
        <extensions>
          <ns3:TrackPointExtension>
            <ns3:atemp>21.0</ns3:atemp>
          </ns3:TrackPointExtension>
        </extensions>
      </trkpt>
      <trkpt lat="42.52949212677776813507080078125" lon="19.79039683006703853607177734375">
        <ele>1079.5999755859375</ele>
        <time>2026-06-18T07:23:56.000Z</time>
        <extensions>
          <ns3:TrackPointExtension>
            <ns3:atemp>21.0</ns3:atemp>
          </ns3:TrackPointExtension>
        </extensions>
      </trkpt>
      <trkpt lat="42.52947569824755191802978515625" lon="19.79035860858857631683349609375">
        <ele>1080</ele>
        <time>2026-06-18T07:23:57.000Z</time>
        <extensions>
          <ns3:TrackPointExtension>
            <ns3:atemp>21.0</ns3:atemp>
          </ns3:TrackPointExtension>
        </extensions>
      </trkpt>
      <trkpt lat="42.529461197555065155029296875" lon="19.79031954891979694366455078125">
        <ele>1080.199951171875</ele>
        <time>2026-06-18T07:23:58.000Z</time>
        <extensions>
          <ns3:TrackPointExtension>
            <ns3:atemp>21.0</ns3:atemp>
          </ns3:TrackPointExtension>
        </extensions>
      </trkpt>
      <trkpt lat="42.529446445405483245849609375" lon="19.7902804054319858551025390625">
        <ele>1080.5999755859375</ele>
        <time>2026-06-18T07:23:59.000Z</time>
        <extensions>
          <ns3:TrackPointExtension>
            <ns3:atemp>21.0</ns3:atemp>
          </ns3:TrackPointExtension>
        </extensions>
      </trkpt>
      <trkpt lat="42.5294321961700916290283203125" lon="19.7902448661625385284423828125">
        <ele>1081</ele>
        <time>2026-06-18T07:24:00.000Z</time>
        <extensions>
          <ns3:TrackPointExtension>
            <ns3:atemp>21.0</ns3:atemp>
          </ns3:TrackPointExtension>
        </extensions>
      </trkpt>
      <trkpt lat="42.52941794693470001220703125" lon="19.7902084887027740478515625">
        <ele>1081.199951171875</ele>
        <time>2026-06-18T07:24:01.000Z</time>
        <extensions>
          <ns3:TrackPointExtension>
            <ns3:atemp>21.0</ns3:atemp>
          </ns3:TrackPointExtension>
        </extensions>
      </trkpt>
      <trkpt lat="42.5294063799083232879638671875" lon="19.7901687584817409515380859375">
        <ele>1081.5999755859375</ele>
        <time>2026-06-18T07:24:02.000Z</time>
        <extensions>
          <ns3:TrackPointExtension>
            <ns3:atemp>21.0</ns3:atemp>
          </ns3:TrackPointExtension>
        </extensions>
      </trkpt>
      <trkpt lat="42.529394142329692840576171875" lon="19.790129363536834716796875">
        <ele>1081.800048828125</ele>
        <time>2026-06-18T07:24:03.000Z</time>
        <extensions>
          <ns3:TrackPointExtension>
            <ns3:atemp>21.0</ns3:atemp>
          </ns3:TrackPointExtension>
        </extensions>
      </trkpt>
      <trkpt lat="42.529379390180110931396484375" lon="19.7900889627635478973388671875">
        <ele>1082.199951171875</ele>
        <time>2026-06-18T07:24:04.000Z</time>
        <extensions>
          <ns3:TrackPointExtension>
            <ns3:atemp>21.0</ns3:atemp>
          </ns3:TrackPointExtension>
        </extensions>
      </trkpt>
      <trkpt lat="42.5293622910976409912109375" lon="19.79004696942865848541259765625">
        <ele>1082.4000244140625</ele>
        <time>2026-06-18T07:24:05.000Z</time>
        <extensions>
          <ns3:TrackPointExtension>
            <ns3:atemp>21.0</ns3:atemp>
          </ns3:TrackPointExtension>
        </extensions>
      </trkpt>
      <trkpt lat="42.52934678457677364349365234375" lon="19.7900061495602130889892578125">
        <ele>1082.5999755859375</ele>
        <time>2026-06-18T07:24:06.000Z</time>
        <extensions>
          <ns3:TrackPointExtension>
            <ns3:atemp>21.0</ns3:atemp>
          </ns3:TrackPointExtension>
        </extensions>
      </trkpt>
      <trkpt lat="42.52933186478912830352783203125" lon="19.78996851481497287750244140625">
        <ele>1083</ele>
        <time>2026-06-18T07:24:07.000Z</time>
        <extensions>
          <ns3:TrackPointExtension>
            <ns3:atemp>21.0</ns3:atemp>
          </ns3:TrackPointExtension>
        </extensions>
      </trkpt>
      <trkpt lat="42.5293145142495632171630859375" lon="19.789930880069732666015625">
        <ele>1083.199951171875</ele>
        <time>2026-06-18T07:24:08.000Z</time>
        <extensions>
          <ns3:TrackPointExtension>
            <ns3:atemp>21.0</ns3:atemp>
          </ns3:TrackPointExtension>
        </extensions>
      </trkpt>
      <trkpt lat="42.52929867245256900787353515625" lon="19.78989324532449245452880859375">
        <ele>1083.4000244140625</ele>
        <time>2026-06-18T07:24:09.000Z</time>
        <extensions>
          <ns3:TrackPointExtension>
            <ns3:atemp>21.0</ns3:atemp>
          </ns3:TrackPointExtension>
        </extensions>
      </trkpt>
      <trkpt lat="42.5292786397039890289306640625" lon="19.7898569516837596893310546875">
        <ele>1083.5999755859375</ele>
        <time>2026-06-18T07:24:10.000Z</time>
        <extensions>
          <ns3:TrackPointExtension>
            <ns3:atemp>21.0</ns3:atemp>
          </ns3:TrackPointExtension>
        </extensions>
      </trkpt>
      <trkpt lat="42.529260031878948211669921875" lon="19.7898222506046295166015625">
        <ele>1084</ele>
        <time>2026-06-18T07:24:11.000Z</time>
        <extensions>
          <ns3:TrackPointExtension>
            <ns3:atemp>21.0</ns3:atemp>
          </ns3:TrackPointExtension>
        </extensions>
      </trkpt>
      <trkpt lat="42.5292384065687656402587890625" lon="19.78978863917291164398193359375">
        <ele>1084.4000244140625</ele>
        <time>2026-06-18T07:24:12.000Z</time>
        <extensions>
          <ns3:TrackPointExtension>
            <ns3:atemp>21.0</ns3:atemp>
          </ns3:TrackPointExtension>
        </extensions>
      </trkpt>
      <trkpt lat="42.5292189605534076690673828125" lon="19.78975829668343067169189453125">
        <ele>1084.5999755859375</ele>
        <time>2026-06-18T07:24:13.000Z</time>
        <extensions>
          <ns3:TrackPointExtension>
            <ns3:atemp>21.0</ns3:atemp>
          </ns3:TrackPointExtension>
        </extensions>
      </trkpt>
      <trkpt lat="42.529200017452239990234375" lon="19.78973063640296459197998046875">
        <ele>1085</ele>
        <time>2026-06-18T07:24:14.000Z</time>
        <extensions>
          <ns3:TrackPointExtension>
            <ns3:atemp>21.0</ns3:atemp>
          </ns3:TrackPointExtension>
        </extensions>
      </trkpt>
      <trkpt lat="42.5291812419891357421875" lon="19.789702892303466796875">
        <ele>1085.199951171875</ele>
        <time>2026-06-18T07:24:15.000Z</time>
        <extensions>
          <ns3:TrackPointExtension>
            <ns3:atemp>21.0</ns3:atemp>
          </ns3:TrackPointExtension>
        </extensions>
      </trkpt>
      <trkpt lat="42.52916791476309299468994140625" lon="19.789673388004302978515625">
        <ele>1085.4000244140625</ele>
        <time>2026-06-18T07:24:16.000Z</time>
        <extensions>
          <ns3:TrackPointExtension>
            <ns3:atemp>21.0</ns3:atemp>
          </ns3:TrackPointExtension>
        </extensions>
      </trkpt>
      <trkpt lat="42.529145367443561553955078125" lon="19.7896430455148220062255859375">
        <ele>1085.800048828125</ele>
        <time>2026-06-18T07:24:17.000Z</time>
        <extensions>
          <ns3:TrackPointExtension>
            <ns3:atemp>21.0</ns3:atemp>
          </ns3:TrackPointExtension>
        </extensions>
      </trkpt>
      <trkpt lat="42.52912231720983982086181640625" lon="19.789610020816326141357421875">
        <ele>1086</ele>
        <time>2026-06-18T07:24:18.000Z</time>
        <extensions>
          <ns3:TrackPointExtension>
            <ns3:atemp>21.0</ns3:atemp>
          </ns3:TrackPointExtension>
        </extensions>
      </trkpt>
      <trkpt lat="42.5291002728044986724853515625" lon="19.7895793430507183074951171875">
        <ele>1086.4000244140625</ele>
        <time>2026-06-18T07:24:19.000Z</time>
        <extensions>
          <ns3:TrackPointExtension>
            <ns3:atemp>21.0</ns3:atemp>
          </ns3:TrackPointExtension>
        </extensions>
      </trkpt>
      <trkpt lat="42.52907537855207920074462890625" lon="19.78954690508544445037841796875">
        <ele>1086.5999755859375</ele>
        <time>2026-06-18T07:24:20.000Z</time>
        <extensions>
          <ns3:TrackPointExtension>
            <ns3:atemp>21.0</ns3:atemp>
          </ns3:TrackPointExtension>
        </extensions>
      </trkpt>
      <trkpt lat="42.529052160680294036865234375" lon="19.7895139642059803009033203125">
        <ele>1087</ele>
        <time>2026-06-18T07:24:21.000Z</time>
        <extensions>
          <ns3:TrackPointExtension>
            <ns3:atemp>21.0</ns3:atemp>
          </ns3:TrackPointExtension>
        </extensions>
      </trkpt>
      <trkpt lat="42.5290318764746189117431640625" lon="19.7894787602126598358154296875">
        <ele>1087.199951171875</ele>
        <time>2026-06-18T07:24:22.000Z</time>
        <extensions>
          <ns3:TrackPointExtension>
            <ns3:atemp>21.0</ns3:atemp>
          </ns3:TrackPointExtension>
        </extensions>
      </trkpt>
      <trkpt lat="42.52901284955441951751708984375" lon="19.7894428856670856475830078125">
        <ele>1087.5999755859375</ele>
        <time>2026-06-18T07:24:23.000Z</time>
        <extensions>
          <ns3:TrackPointExtension>
            <ns3:atemp>21.0</ns3:atemp>
          </ns3:TrackPointExtension>
        </extensions>
      </trkpt>
      <trkpt lat="42.5289966724812984466552734375" lon="19.7894093580543994903564453125">
        <ele>1087.800048828125</ele>
        <time>2026-06-18T07:24:24.000Z</time>
        <extensions>
          <ns3:TrackPointExtension>
            <ns3:atemp>21.0</ns3:atemp>
          </ns3:TrackPointExtension>
        </extensions>
      </trkpt>
      <trkpt lat="42.52898074686527252197265625" lon="19.78937071748077869415283203125">
        <ele>1088.199951171875</ele>
        <time>2026-06-18T07:24:25.000Z</time>
        <extensions>
          <ns3:TrackPointExtension>
            <ns3:atemp>21.0</ns3:atemp>
          </ns3:TrackPointExtension>
        </extensions>
      </trkpt>
      <trkpt lat="42.528965659439563751220703125" lon="19.7893292270600795745849609375">
        <ele>1088.4000244140625</ele>
        <time>2026-06-18T07:24:26.000Z</time>
        <extensions>
          <ns3:TrackPointExtension>
            <ns3:atemp>21.0</ns3:atemp>
          </ns3:TrackPointExtension>
        </extensions>
      </trkpt>
      <trkpt lat="42.52895132638514041900634765625" lon="19.78928857482969760894775390625">
        <ele>1088.5999755859375</ele>
        <time>2026-06-18T07:24:27.000Z</time>
        <extensions>
          <ns3:TrackPointExtension>
            <ns3:atemp>21.0</ns3:atemp>
          </ns3:TrackPointExtension>
        </extensions>
      </trkpt>
      <trkpt lat="42.52894009463489055633544921875" lon="19.7892428934574127197265625">
        <ele>1089</ele>
        <time>2026-06-18T07:24:28.000Z</time>
        <extensions>
          <ns3:TrackPointExtension>
            <ns3:atemp>21.0</ns3:atemp>
          </ns3:TrackPointExtension>
        </extensions>
      </trkpt>
      <trkpt lat="42.528927437961101531982421875" lon="19.789202325046062469482421875">
        <ele>1089</ele>
        <time>2026-06-18T07:24:29.000Z</time>
        <extensions>
          <ns3:TrackPointExtension>
            <ns3:atemp>21.0</ns3:atemp>
          </ns3:TrackPointExtension>
        </extensions>
      </trkpt>
      <trkpt lat="42.5289143621921539306640625" lon="19.78916519321501255035400390625">
        <ele>1089.199951171875</ele>
        <time>2026-06-18T07:24:30.000Z</time>
        <extensions>
          <ns3:TrackPointExtension>
            <ns3:atemp>21.0</ns3:atemp>
          </ns3:TrackPointExtension>
        </extensions>
      </trkpt>
      <trkpt lat="42.5288947485387325286865234375" lon="19.789129234850406646728515625">
        <ele>1089.4000244140625</ele>
        <time>2026-06-18T07:24:31.000Z</time>
        <extensions>
          <ns3:TrackPointExtension>
            <ns3:atemp>21.0</ns3:atemp>
          </ns3:TrackPointExtension>
        </extensions>
      </trkpt>
      <trkpt lat="42.52887186594307422637939453125" lon="19.78909512050449848175048828125">
        <ele>1089.5999755859375</ele>
        <time>2026-06-18T07:24:32.000Z</time>
        <extensions>
          <ns3:TrackPointExtension>
            <ns3:atemp>21.0</ns3:atemp>
          </ns3:TrackPointExtension>
        </extensions>
      </trkpt>
      <trkpt lat="42.5288471393287181854248046875" lon="19.78906276635825634002685546875">
        <ele>1089.800048828125</ele>
        <time>2026-06-18T07:24:33.000Z</time>
        <extensions>
          <ns3:TrackPointExtension>
            <ns3:atemp>21.0</ns3:atemp>
          </ns3:TrackPointExtension>
        </extensions>
      </trkpt>
      <trkpt lat="42.5288219936192035675048828125" lon="19.7890336811542510986328125">
        <ele>1090</ele>
        <time>2026-06-18T07:24:34.000Z</time>
        <extensions>
          <ns3:TrackPointExtension>
            <ns3:atemp>21.0</ns3:atemp>
          </ns3:TrackPointExtension>
        </extensions>
      </trkpt>
      <trkpt lat="42.5287985242903232574462890625" lon="19.7890056855976581573486328125">
        <ele>1090.199951171875</ele>
        <time>2026-06-18T07:24:35.000Z</time>
        <extensions>
          <ns3:TrackPointExtension>
            <ns3:atemp>21.0</ns3:atemp>
          </ns3:TrackPointExtension>
        </extensions>
      </trkpt>
      <trkpt lat="42.52877547405660152435302734375" lon="19.78898028843104839324951171875">
        <ele>1090.4000244140625</ele>
        <time>2026-06-18T07:24:36.000Z</time>
        <extensions>
          <ns3:TrackPointExtension>
            <ns3:atemp>21.0</ns3:atemp>
          </ns3:TrackPointExtension>
        </extensions>
      </trkpt>
      <trkpt lat="42.5287534296512603759765625" lon="19.78895723819732666015625">
        <ele>1090.5999755859375</ele>
        <time>2026-06-18T07:24:37.000Z</time>
        <extensions>
          <ns3:TrackPointExtension>
            <ns3:atemp>21.0</ns3:atemp>
          </ns3:TrackPointExtension>
        </extensions>
      </trkpt>
      <trkpt lat="42.52872987650334835052490234375" lon="19.78893351741135120391845703125">
        <ele>1090.5999755859375</ele>
        <time>2026-06-18T07:24:38.000Z</time>
        <extensions>
          <ns3:TrackPointExtension>
            <ns3:atemp>21.0</ns3:atemp>
          </ns3:TrackPointExtension>
        </extensions>
      </trkpt>
      <trkpt lat="42.52870506606996059417724609375" lon="19.78890971280634403228759765625">
        <ele>1090.800048828125</ele>
        <time>2026-06-18T07:24:39.000Z</time>
        <extensions>
          <ns3:TrackPointExtension>
            <ns3:atemp>21.0</ns3:atemp>
          </ns3:TrackPointExtension>
        </extensions>
      </trkpt>
      <trkpt lat="42.52868168056011199951171875" lon="19.788883812725543975830078125">
        <ele>1091.199951171875</ele>
        <time>2026-06-18T07:24:40.000Z</time>
        <extensions>
          <ns3:TrackPointExtension>
            <ns3:atemp>21.0</ns3:atemp>
          </ns3:TrackPointExtension>
        </extensions>
      </trkpt>
      <trkpt lat="42.52865527756512165069580078125" lon="19.7888611815869808197021484375">
        <ele>1091.4000244140625</ele>
        <time>2026-06-18T07:24:41.000Z</time>
        <extensions>
          <ns3:TrackPointExtension>
            <ns3:atemp>21.0</ns3:atemp>
          </ns3:TrackPointExtension>
        </extensions>
      </trkpt>
      <trkpt lat="42.52862912602722644805908203125" lon="19.7888363711535930633544921875">
        <ele>1091.5999755859375</ele>
        <time>2026-06-18T07:24:42.000Z</time>
        <extensions>
          <ns3:TrackPointExtension>
            <ns3:atemp>21.0</ns3:atemp>
          </ns3:TrackPointExtension>
        </extensions>
      </trkpt>
      <trkpt lat="42.52860029228031635284423828125" lon="19.7888139076530933380126953125">
        <ele>1091.800048828125</ele>
        <time>2026-06-18T07:24:43.000Z</time>
        <extensions>
          <ns3:TrackPointExtension>
            <ns3:atemp>21.0</ns3:atemp>
          </ns3:TrackPointExtension>
        </extensions>
      </trkpt>
      <trkpt lat="42.5285728834569454193115234375" lon="19.788786582648754119873046875">
        <ele>1092</ele>
        <time>2026-06-18T07:24:44.000Z</time>
        <extensions>
          <ns3:TrackPointExtension>
            <ns3:atemp>21.0</ns3:atemp>
          </ns3:TrackPointExtension>
        </extensions>
      </trkpt>
      <trkpt lat="42.52854815684258937835693359375" lon="19.788761101663112640380859375">
        <ele>1092.4000244140625</ele>
        <time>2026-06-18T07:24:45.000Z</time>
        <extensions>
          <ns3:TrackPointExtension>
            <ns3:atemp>21.0</ns3:atemp>
          </ns3:TrackPointExtension>
        </extensions>
      </trkpt>
      <trkpt lat="42.52852770499885082244873046875" lon="19.78873603977262973785400390625">
        <ele>1092.5999755859375</ele>
        <time>2026-06-18T07:24:46.000Z</time>
        <extensions>
          <ns3:TrackPointExtension>
            <ns3:atemp>21.0</ns3:atemp>
          </ns3:TrackPointExtension>
        </extensions>
      </trkpt>
      <trkpt lat="42.5285091809928417205810546875" lon="19.78871173225343227386474609375">
        <ele>1092.800048828125</ele>
        <time>2026-06-18T07:24:47.000Z</time>
        <extensions>
          <ns3:TrackPointExtension>
            <ns3:atemp>21.0</ns3:atemp>
          </ns3:TrackPointExtension>
        </extensions>
      </trkpt>
      <trkpt lat="42.52849199809134006500244140625" lon="19.788688682019710540771484375">
        <ele>1093.199951171875</ele>
        <time>2026-06-18T07:24:48.000Z</time>
        <extensions>
          <ns3:TrackPointExtension>
            <ns3:atemp>21.0</ns3:atemp>
          </ns3:TrackPointExtension>
        </extensions>
      </trkpt>
      <trkpt lat="42.5284733064472675323486328125" lon="19.788665883243083953857421875">
        <ele>1093.4000244140625</ele>
        <time>2026-06-18T07:24:49.000Z</time>
        <extensions>
          <ns3:TrackPointExtension>
            <ns3:atemp>21.0</ns3:atemp>
          </ns3:TrackPointExtension>
        </extensions>
      </trkpt>
      <trkpt lat="42.528455369174480438232421875" lon="19.7886395640671253204345703125">
        <ele>1093.800048828125</ele>
        <time>2026-06-18T07:24:50.000Z</time>
        <extensions>
          <ns3:TrackPointExtension>
            <ns3:atemp>21.0</ns3:atemp>
          </ns3:TrackPointExtension>
        </extensions>
      </trkpt>
      <trkpt lat="42.52843491733074188232421875" lon="19.7886120714247226715087890625">
        <ele>1094.199951171875</ele>
        <time>2026-06-18T07:24:51.000Z</time>
        <extensions>
          <ns3:TrackPointExtension>
            <ns3:atemp>21.0</ns3:atemp>
          </ns3:TrackPointExtension>
        </extensions>
      </trkpt>
      <trkpt lat="42.5284126214683055877685546875" lon="19.7885882668197154998779296875">
        <ele>1094.5999755859375</ele>
        <time>2026-06-18T07:24:52.000Z</time>
        <extensions>
          <ns3:TrackPointExtension>
            <ns3:atemp>21.0</ns3:atemp>
          </ns3:TrackPointExtension>
        </extensions>
      </trkpt>
      <trkpt lat="42.52838755957782268524169921875" lon="19.78856764733791351318359375">
        <ele>1094.800048828125</ele>
        <time>2026-06-18T07:24:53.000Z</time>
        <extensions>
          <ns3:TrackPointExtension>
            <ns3:atemp>21.0</ns3:atemp>
          </ns3:TrackPointExtension>
        </extensions>
      </trkpt>
      <trkpt lat="42.5283650122582912445068359375" lon="19.78854954242706298828125">
        <ele>1095.199951171875</ele>
        <time>2026-06-18T07:24:54.000Z</time>
        <extensions>
          <ns3:TrackPointExtension>
            <ns3:atemp>21.0</ns3:atemp>
          </ns3:TrackPointExtension>
        </extensions>
      </trkpt>
      <trkpt lat="42.52833902835845947265625" lon="19.78853504173457622528076171875">
        <ele>1095.5999755859375</ele>
        <time>2026-06-18T07:24:55.000Z</time>
        <extensions>
          <ns3:TrackPointExtension>
            <ns3:atemp>21.0</ns3:atemp>
          </ns3:TrackPointExtension>
        </extensions>
      </trkpt>
      <trkpt lat="42.5283135473728179931640625" lon="19.7885227203369140625">
        <ele>1096</ele>
        <time>2026-06-18T07:24:56.000Z</time>
        <extensions>
          <ns3:TrackPointExtension>
            <ns3:atemp>21.0</ns3:atemp>
          </ns3:TrackPointExtension>
        </extensions>
      </trkpt>
      <trkpt lat="42.528290413320064544677734375" lon="19.7885057888925075531005859375">
        <ele>1096.4000244140625</ele>
        <time>2026-06-18T07:24:57.000Z</time>
        <extensions>
          <ns3:TrackPointExtension>
            <ns3:atemp>21.0</ns3:atemp>
          </ns3:TrackPointExtension>
        </extensions>
      </trkpt>
      <trkpt lat="42.52826266922056674957275390625" lon="19.78849313221871852874755859375">
        <ele>1096.800048828125</ele>
        <time>2026-06-18T07:24:58.000Z</time>
        <extensions>
          <ns3:TrackPointExtension>
            <ns3:atemp>21.0</ns3:atemp>
          </ns3:TrackPointExtension>
        </extensions>
      </trkpt>
      <trkpt lat="42.52823249436914920806884765625" lon="19.78849112056195735931396484375">
        <ele>1097.4000244140625</ele>
        <time>2026-06-18T07:24:59.000Z</time>
        <extensions>
          <ns3:TrackPointExtension>
            <ns3:atemp>21.0</ns3:atemp>
          </ns3:TrackPointExtension>
        </extensions>
      </trkpt>
      <trkpt lat="42.528203912079334259033203125" lon="19.78848793543875217437744140625">
        <ele>1097.800048828125</ele>
        <time>2026-06-18T07:25:00.000Z</time>
        <extensions>
          <ns3:TrackPointExtension>
            <ns3:atemp>21.0</ns3:atemp>
          </ns3:TrackPointExtension>
        </extensions>
      </trkpt>
      <trkpt lat="42.52817482687532901763916015625" lon="19.7884870134294033050537109375">
        <ele>1098.4000244140625</ele>
        <time>2026-06-18T07:25:01.000Z</time>
        <extensions>
          <ns3:TrackPointExtension>
            <ns3:atemp>21.0</ns3:atemp>
          </ns3:TrackPointExtension>
        </extensions>
      </trkpt>
      <trkpt lat="42.52814817242324352264404296875" lon="19.78848315775394439697265625">
        <ele>1099</ele>
        <time>2026-06-18T07:25:02.000Z</time>
        <extensions>
          <ns3:TrackPointExtension>
            <ns3:atemp>21.0</ns3:atemp>
          </ns3:TrackPointExtension>
        </extensions>
      </trkpt>
      <trkpt lat="42.52812302671372890472412109375" lon="19.78847821243107318878173828125">
        <ele>1099.4000244140625</ele>
        <time>2026-06-18T07:25:03.000Z</time>
        <extensions>
          <ns3:TrackPointExtension>
            <ns3:atemp>21.0</ns3:atemp>
          </ns3:TrackPointExtension>
        </extensions>
      </trkpt>
      <trkpt lat="42.5280947797000408172607421875" lon="19.788471758365631103515625">
        <ele>1100</ele>
        <time>2026-06-18T07:25:04.000Z</time>
        <extensions>
          <ns3:TrackPointExtension>
            <ns3:atemp>21.0</ns3:atemp>
          </ns3:TrackPointExtension>
        </extensions>
      </trkpt>
      <trkpt lat="42.52806820906698703765869140625" lon="19.7884642146527767181396484375">
        <ele>1100.4000244140625</ele>
        <time>2026-06-18T07:25:05.000Z</time>
        <extensions>
          <ns3:TrackPointExtension>
            <ns3:atemp>21.0</ns3:atemp>
          </ns3:TrackPointExtension>
        </extensions>
      </trkpt>
      <trkpt lat="42.5280454941093921661376953125" lon="19.78845499455928802490234375">
        <ele>1101</ele>
        <time>2026-06-18T07:25:06.000Z</time>
        <extensions>
          <ns3:TrackPointExtension>
            <ns3:atemp>21.0</ns3:atemp>
          </ns3:TrackPointExtension>
        </extensions>
      </trkpt>
      <trkpt lat="42.5280238687992095947265625" lon="19.78843697346746921539306640625">
        <ele>1101.4000244140625</ele>
        <time>2026-06-18T07:25:07.000Z</time>
        <extensions>
          <ns3:TrackPointExtension>
            <ns3:atemp>21.0</ns3:atemp>
          </ns3:TrackPointExtension>
        </extensions>
      </trkpt>
      <trkpt lat="42.5280022434890270233154296875" lon="19.788415431976318359375">
        <ele>1102</ele>
        <time>2026-06-18T07:25:08.000Z</time>
        <extensions>
          <ns3:TrackPointExtension>
            <ns3:atemp>21.0</ns3:atemp>
          </ns3:TrackPointExtension>
        </extensions>
      </trkpt>
      <trkpt lat="42.52798162400722503662109375" lon="19.7883901186287403106689453125">
        <ele>1102.199951171875</ele>
        <time>2026-06-18T07:25:09.000Z</time>
        <extensions>
          <ns3:TrackPointExtension>
            <ns3:atemp>21.0</ns3:atemp>
          </ns3:TrackPointExtension>
        </extensions>
      </trkpt>
      <trkpt lat="42.52795907668769359588623046875" lon="19.78837125934660434722900390625">
        <ele>1102.5999755859375</ele>
        <time>2026-06-18T07:25:10.000Z</time>
        <extensions>
          <ns3:TrackPointExtension>
            <ns3:atemp>21.0</ns3:atemp>
          </ns3:TrackPointExtension>
        </extensions>
      </trkpt>
      <trkpt lat="42.5279380381107330322265625" lon="19.78834846056997776031494140625">
        <ele>1103</ele>
        <time>2026-06-18T07:25:11.000Z</time>
        <extensions>
          <ns3:TrackPointExtension>
            <ns3:atemp>21.0</ns3:atemp>
          </ns3:TrackPointExtension>
        </extensions>
      </trkpt>
      <trkpt lat="42.527917921543121337890625" lon="19.78832683525979518890380859375">
        <ele>1103.4000244140625</ele>
        <time>2026-06-18T07:25:12.000Z</time>
        <extensions>
          <ns3:TrackPointExtension>
            <ns3:atemp>21.0</ns3:atemp>
          </ns3:TrackPointExtension>
        </extensions>
      </trkpt>
      <trkpt lat="42.52790073864161968231201171875" lon="19.78830688633024692535400390625">
        <ele>1103.800048828125</ele>
        <time>2026-06-18T07:25:13.000Z</time>
        <extensions>
          <ns3:TrackPointExtension>
            <ns3:atemp>21.0</ns3:atemp>
          </ns3:TrackPointExtension>
        </extensions>
      </trkpt>
      <trkpt lat="42.52788213081657886505126953125" lon="19.78829205036163330078125">
        <ele>1104.199951171875</ele>
        <time>2026-06-18T07:25:14.000Z</time>
        <extensions>
          <ns3:TrackPointExtension>
            <ns3:atemp>21.0</ns3:atemp>
          </ns3:TrackPointExtension>
        </extensions>
      </trkpt>
      <trkpt lat="42.52786167897284030914306640625" lon="19.7882784716784954071044921875">
        <ele>1104.4000244140625</ele>
        <time>2026-06-18T07:25:15.000Z</time>
        <extensions>
          <ns3:TrackPointExtension>
            <ns3:atemp>21.0</ns3:atemp>
          </ns3:TrackPointExtension>
        </extensions>
      </trkpt>
      <trkpt lat="42.52784080803394317626953125" lon="19.78826464153826236724853515625">
        <ele>1104.5999755859375</ele>
        <time>2026-06-18T07:25:16.000Z</time>
        <extensions>
          <ns3:TrackPointExtension>
            <ns3:atemp>21.0</ns3:atemp>
          </ns3:TrackPointExtension>
        </extensions>
      </trkpt>
      <trkpt lat="42.52781759016215801239013671875" lon="19.78825592435896396636962890625">
        <ele>1104.800048828125</ele>
        <time>2026-06-18T07:25:17.000Z</time>
        <extensions>
          <ns3:TrackPointExtension>
            <ns3:atemp>21.0</ns3:atemp>
          </ns3:TrackPointExtension>
        </extensions>
      </trkpt>
      <trkpt lat="42.5277943722903728485107421875" lon="19.78824687190353870391845703125">
        <ele>1105</ele>
        <time>2026-06-18T07:25:18.000Z</time>
        <extensions>
          <ns3:TrackPointExtension>
            <ns3:atemp>21.0</ns3:atemp>
          </ns3:TrackPointExtension>
        </extensions>
      </trkpt>
      <trkpt lat="42.52777165733277797698974609375" lon="19.7882328741252422332763671875">
        <ele>1105.4000244140625</ele>
        <time>2026-06-18T07:25:19.000Z</time>
        <extensions>
          <ns3:TrackPointExtension>
            <ns3:atemp>21.0</ns3:atemp>
          </ns3:TrackPointExtension>
        </extensions>
      </trkpt>
      <trkpt lat="42.52774986438453197479248046875" lon="19.78821694850921630859375">
        <ele>1105.5999755859375</ele>
        <time>2026-06-18T07:25:20.000Z</time>
        <extensions>
          <ns3:TrackPointExtension>
            <ns3:atemp>21.0</ns3:atemp>
          </ns3:TrackPointExtension>
        </extensions>
      </trkpt>
      <trkpt lat="42.5277273170650005340576171875" lon="19.78820026852190494537353515625">
        <ele>1106</ele>
        <time>2026-06-18T07:25:21.000Z</time>
        <extensions>
          <ns3:TrackPointExtension>
            <ns3:atemp>21.0</ns3:atemp>
          </ns3:TrackPointExtension>
        </extensions>
      </trkpt>
      <trkpt lat="42.5277085416018962860107421875" lon="19.7881805710494518280029296875">
        <ele>1106.199951171875</ele>
        <time>2026-06-18T07:25:22.000Z</time>
        <extensions>
          <ns3:TrackPointExtension>
            <ns3:atemp>21.0</ns3:atemp>
          </ns3:TrackPointExtension>
        </extensions>
      </trkpt>
      <trkpt lat="42.5276890955865383148193359375" lon="19.7881604544818401336669921875">
        <ele>1106.5999755859375</ele>
        <time>2026-06-18T07:25:23.000Z</time>
        <extensions>
          <ns3:TrackPointExtension>
            <ns3:atemp>21.0</ns3:atemp>
          </ns3:TrackPointExtension>
        </extensions>
      </trkpt>
      <trkpt lat="42.52767476253211498260498046875" lon="19.788142852485179901123046875">
        <ele>1106.800048828125</ele>
        <time>2026-06-18T07:25:24.000Z</time>
        <extensions>
          <ns3:TrackPointExtension>
            <ns3:atemp>21.0</ns3:atemp>
          </ns3:TrackPointExtension>
        </extensions>
      </trkpt>
      <trkpt lat="42.5276599265635013580322265625" lon="19.788120053708553314208984375">
        <ele>1107</ele>
        <time>2026-06-18T07:25:25.000Z</time>
        <extensions>
          <ns3:TrackPointExtension>
            <ns3:atemp>21.0</ns3:atemp>
          </ns3:TrackPointExtension>
        </extensions>
      </trkpt>
      <trkpt lat="42.52764458768069744110107421875" lon="19.78810186497867107391357421875">
        <ele>1107.199951171875</ele>
        <time>2026-06-18T07:25:26.000Z</time>
        <extensions>
          <ns3:TrackPointExtension>
            <ns3:atemp>21.0</ns3:atemp>
          </ns3:TrackPointExtension>
        </extensions>
      </trkpt>
      <trkpt lat="42.5276260636746883392333984375" lon="19.78808795101940631866455078125">
        <ele>1107.5999755859375</ele>
        <time>2026-06-18T07:25:27.000Z</time>
        <extensions>
          <ns3:TrackPointExtension>
            <ns3:atemp>21.0</ns3:atemp>
          </ns3:TrackPointExtension>
        </extensions>
      </trkpt>
      <trkpt lat="42.52760904841125011444091796875" lon="19.788075797259807586669921875">
        <ele>1107.800048828125</ele>
        <time>2026-06-18T07:25:28.000Z</time>
        <extensions>
          <ns3:TrackPointExtension>
            <ns3:atemp>21.0</ns3:atemp>
          </ns3:TrackPointExtension>
        </extensions>
      </trkpt>
      <trkpt lat="42.5276056118309497833251953125" lon="19.78805727325379848480224609375">
        <ele>1108</ele>
        <time>2026-06-18T07:25:29.000Z</time>
        <extensions>
          <ns3:TrackPointExtension>
            <ns3:atemp>21.0</ns3:atemp>
          </ns3:TrackPointExtension>
        </extensions>
      </trkpt>
      <trkpt lat="42.5276163406670093536376953125" lon="19.78803866542875766754150390625">
        <ele>1108.4000244140625</ele>
        <time>2026-06-18T07:25:30.000Z</time>
        <extensions>
          <ns3:TrackPointExtension>
            <ns3:atemp>21.0</ns3:atemp>
          </ns3:TrackPointExtension>
        </extensions>
      </trkpt>
      <trkpt lat="42.5276384688913822174072265625" lon="19.78803514502942562103271484375">
        <ele>1108.800048828125</ele>
        <time>2026-06-18T07:25:31.000Z</time>
        <extensions>
          <ns3:TrackPointExtension>
            <ns3:atemp>21.0</ns3:atemp>
          </ns3:TrackPointExtension>
        </extensions>
      </trkpt>
      <trkpt lat="42.52766369841992855072021484375" lon="19.78804319165647029876708984375">
        <ele>1108.800048828125</ele>
        <time>2026-06-18T07:25:32.000Z</time>
        <extensions>
          <ns3:TrackPointExtension>
            <ns3:atemp>21.0</ns3:atemp>
          </ns3:TrackPointExtension>
        </extensions>
      </trkpt>
      <trkpt lat="42.527691610157489776611328125" lon="19.78805190883576869964599609375">
        <ele>1109</ele>
        <time>2026-06-18T07:25:33.000Z</time>
        <extensions>
          <ns3:TrackPointExtension>
            <ns3:atemp>21.0</ns3:atemp>
          </ns3:TrackPointExtension>
        </extensions>
      </trkpt>
      <trkpt lat="42.52771398983895778656005859375" lon="19.78806339204311370849609375">
        <ele>1109</ele>
        <time>2026-06-18T07:25:34.000Z</time>
        <extensions>
          <ns3:TrackPointExtension>
            <ns3:atemp>21.0</ns3:atemp>
          </ns3:TrackPointExtension>
        </extensions>
      </trkpt>
      <trkpt lat="42.5277350284159183502197265625" lon="19.7880759648978710174560546875">
        <ele>1109</ele>
        <time>2026-06-18T07:25:35.000Z</time>
        <extensions>
          <ns3:TrackPointExtension>
            <ns3:atemp>21.0</ns3:atemp>
          </ns3:TrackPointExtension>
        </extensions>
      </trkpt>
      <trkpt lat="42.5277502834796905517578125" lon="19.78809046559035778045654296875">
        <ele>1109</ele>
        <time>2026-06-18T07:25:36.000Z</time>
        <extensions>
          <ns3:TrackPointExtension>
            <ns3:atemp>21.0</ns3:atemp>
          </ns3:TrackPointExtension>
        </extensions>
      </trkpt>
      <trkpt lat="42.5277675502002239227294921875" lon="19.78809867985546588897705078125">
        <ele>1109</ele>
        <time>2026-06-18T07:25:37.000Z</time>
        <extensions>
          <ns3:TrackPointExtension>
            <ns3:atemp>21.0</ns3:atemp>
          </ns3:TrackPointExtension>
        </extensions>
      </trkpt>
      <trkpt lat="42.52778741531074047088623046875" lon="19.78811427019536495208740234375">
        <ele>1109.199951171875</ele>
        <time>2026-06-18T07:25:38.000Z</time>
        <extensions>
          <ns3:TrackPointExtension>
            <ns3:atemp>21.0</ns3:atemp>
          </ns3:TrackPointExtension>
        </extensions>
      </trkpt>
      <trkpt lat="42.5278087891638278961181640625" lon="19.78813069872558116912841796875">
        <ele>1109</ele>
        <time>2026-06-18T07:25:39.000Z</time>
        <extensions>
          <ns3:TrackPointExtension>
            <ns3:atemp>21.0</ns3:atemp>
          </ns3:TrackPointExtension>
        </extensions>
      </trkpt>
      <trkpt lat="42.5278352759778499603271484375" lon="19.78814343921840190887451171875">
        <ele>1109</ele>
        <time>2026-06-18T07:25:40.000Z</time>
        <extensions>
          <ns3:TrackPointExtension>
            <ns3:atemp>21.0</ns3:atemp>
          </ns3:TrackPointExtension>
        </extensions>
      </trkpt>
      <trkpt lat="42.5278617627918720245361328125" lon="19.78815634734928607940673828125">
        <ele>1108.800048828125</ele>
        <time>2026-06-18T07:25:41.000Z</time>
        <extensions>
          <ns3:TrackPointExtension>
            <ns3:atemp>21.0</ns3:atemp>
          </ns3:TrackPointExtension>
        </extensions>
      </trkpt>
      <trkpt lat="42.52788732759654521942138671875" lon="19.78816523216664791107177734375">
        <ele>1108.800048828125</ele>
        <time>2026-06-18T07:25:42.000Z</time>
        <extensions>
          <ns3:TrackPointExtension>
            <ns3:atemp>21.0</ns3:atemp>
          </ns3:TrackPointExtension>
        </extensions>
      </trkpt>
      <trkpt lat="42.5279097072780132293701171875" lon="19.78817378170788288116455078125">
        <ele>1108.5999755859375</ele>
        <time>2026-06-18T07:25:43.000Z</time>
        <extensions>
          <ns3:TrackPointExtension>
            <ns3:atemp>21.0</ns3:atemp>
          </ns3:TrackPointExtension>
        </extensions>
      </trkpt>
      <trkpt lat="42.527928650379180908203125" lon="19.78818082250654697418212890625">
        <ele>1108.4000244140625</ele>
        <time>2026-06-18T07:25:44.000Z</time>
        <extensions>
          <ns3:TrackPointExtension>
            <ns3:atemp>21.0</ns3:atemp>
          </ns3:TrackPointExtension>
        </extensions>
      </trkpt>
      <trkpt lat="42.52794700674712657928466796875" lon="19.7881839238107204437255859375">
        <ele>1108.199951171875</ele>
        <time>2026-06-18T07:25:45.000Z</time>
        <extensions>
          <ns3:TrackPointExtension>
            <ns3:atemp>21.0</ns3:atemp>
          </ns3:TrackPointExtension>
        </extensions>
      </trkpt>
      <trkpt lat="42.5279677100479602813720703125" lon="19.78818886913359165191650390625">
        <ele>1108.199951171875</ele>
        <time>2026-06-18T07:25:46.000Z</time>
        <extensions>
          <ns3:TrackPointExtension>
            <ns3:atemp>21.0</ns3:atemp>
          </ns3:TrackPointExtension>
        </extensions>
      </trkpt>
      <trkpt lat="42.5279905088245868682861328125" lon="19.7881902940571308135986328125">
        <ele>1108</ele>
        <time>2026-06-18T07:25:47.000Z</time>
        <extensions>
          <ns3:TrackPointExtension>
            <ns3:atemp>21.0</ns3:atemp>
          </ns3:TrackPointExtension>
        </extensions>
      </trkpt>
      <trkpt lat="42.5280099548399448394775390625" lon="19.7881914675235748291015625">
        <ele>1108</ele>
        <time>2026-06-18T07:25:48.000Z</time>
        <extensions>
          <ns3:TrackPointExtension>
            <ns3:atemp>21.0</ns3:atemp>
          </ns3:TrackPointExtension>
        </extensions>
      </trkpt>
      <trkpt lat="42.52802998758852481842041015625" lon="19.78819356299936771392822265625">
        <ele>1107.800048828125</ele>
        <time>2026-06-18T07:25:49.000Z</time>
        <extensions>
          <ns3:TrackPointExtension>
            <ns3:atemp>21.0</ns3:atemp>
          </ns3:TrackPointExtension>
        </extensions>
      </trkpt>
      <trkpt lat="42.52805127762258052825927734375" lon="19.78818903677165508270263671875">
        <ele>1107.800048828125</ele>
        <time>2026-06-18T07:25:50.000Z</time>
        <extensions>
          <ns3:TrackPointExtension>
            <ns3:atemp>21.0</ns3:atemp>
          </ns3:TrackPointExtension>
        </extensions>
      </trkpt>
      <trkpt lat="42.52806854434311389923095703125" lon="19.78818803094327449798583984375">
        <ele>1107.5999755859375</ele>
        <time>2026-06-18T07:25:51.000Z</time>
        <extensions>
          <ns3:TrackPointExtension>
            <ns3:atemp>21.0</ns3:atemp>
          </ns3:TrackPointExtension>
        </extensions>
      </trkpt>
      <trkpt lat="42.52808229066431522369384765625" lon="19.78818166069686412811279296875">
        <ele>1107.5999755859375</ele>
        <time>2026-06-18T07:25:52.000Z</time>
        <extensions>
          <ns3:TrackPointExtension>
            <ns3:atemp>21.0</ns3:atemp>
          </ns3:TrackPointExtension>
        </extensions>
      </trkpt>
      <trkpt lat="42.528098635375499725341796875" lon="19.7881834208965301513671875">
        <ele>1107.5999755859375</ele>
        <time>2026-06-18T07:25:53.000Z</time>
        <extensions>
          <ns3:TrackPointExtension>
            <ns3:atemp>21.0</ns3:atemp>
          </ns3:TrackPointExtension>
        </extensions>
      </trkpt>
      <trkpt lat="42.528118081390857696533203125" lon="19.78817361406981945037841796875">
        <ele>1107.5999755859375</ele>
        <time>2026-06-18T07:25:54.000Z</time>
        <extensions>
          <ns3:TrackPointExtension>
            <ns3:atemp>21.0</ns3:atemp>
          </ns3:TrackPointExtension>
        </extensions>
      </trkpt>
      <trkpt lat="42.5281423889100551605224609375" lon="19.7881646454334259033203125">
        <ele>1107.5999755859375</ele>
        <time>2026-06-18T07:25:55.000Z</time>
        <extensions>
          <ns3:TrackPointExtension>
            <ns3:atemp>21.0</ns3:atemp>
          </ns3:TrackPointExtension>
        </extensions>
      </trkpt>
      <trkpt lat="42.528159320354461669921875" lon="19.78815064765512943267822265625">
        <ele>1107.800048828125</ele>
        <time>2026-06-18T07:25:56.000Z</time>
        <extensions>
          <ns3:TrackPointExtension>
            <ns3:atemp>21.0</ns3:atemp>
          </ns3:TrackPointExtension>
        </extensions>
      </trkpt>
      <trkpt lat="42.52818010747432708740234375" lon="19.788132794201374053955078125">
        <ele>1108</ele>
        <time>2026-06-18T07:25:57.000Z</time>
        <extensions>
          <ns3:TrackPointExtension>
            <ns3:atemp>21.0</ns3:atemp>
          </ns3:TrackPointExtension>
        </extensions>
      </trkpt>
      <trkpt lat="42.52820014022290706634521484375" lon="19.788114018738269805908203125">
        <ele>1108</ele>
        <time>2026-06-18T07:25:58.000Z</time>
        <extensions>
          <ns3:TrackPointExtension>
            <ns3:atemp>21.0</ns3:atemp>
          </ns3:TrackPointExtension>
        </extensions>
      </trkpt>
      <trkpt lat="42.5282208435237407684326171875" lon="19.78810136206448078155517578125">
        <ele>1108</ele>
        <time>2026-06-18T07:25:59.000Z</time>
        <extensions>
          <ns3:TrackPointExtension>
            <ns3:atemp>21.0</ns3:atemp>
          </ns3:TrackPointExtension>
        </extensions>
      </trkpt>
      <trkpt lat="42.52824221737682819366455078125" lon="19.788080491125583648681640625">
        <ele>1108</ele>
        <time>2026-06-18T07:26:00.000Z</time>
        <extensions>
          <ns3:TrackPointExtension>
            <ns3:atemp>21.0</ns3:atemp>
          </ns3:TrackPointExtension>
        </extensions>
      </trkpt>
      <trkpt lat="42.52826132811605930328369140625" lon="19.78806045837700366973876953125">
        <ele>1108</ele>
        <time>2026-06-18T07:26:01.000Z</time>
        <extensions>
          <ns3:TrackPointExtension>
            <ns3:atemp>21.0</ns3:atemp>
          </ns3:TrackPointExtension>
        </extensions>
      </trkpt>
      <trkpt lat="42.528282701969146728515625" lon="19.7880350612103939056396484375">
        <ele>1108</ele>
        <time>2026-06-18T07:26:02.000Z</time>
        <extensions>
          <ns3:TrackPointExtension>
            <ns3:atemp>21.0</ns3:atemp>
          </ns3:TrackPointExtension>
        </extensions>
      </trkpt>
      <trkpt lat="42.528306506574153900146484375" lon="19.7880099155008792877197265625">
        <ele>1108.199951171875</ele>
        <time>2026-06-18T07:26:03.000Z</time>
        <extensions>
          <ns3:TrackPointExtension>
            <ns3:atemp>21.0</ns3:atemp>
          </ns3:TrackPointExtension>
        </extensions>
      </trkpt>
      <trkpt lat="42.52832972444593906402587890625" lon="19.7879887931048870086669921875">
        <ele>1108.199951171875</ele>
        <time>2026-06-18T07:26:04.000Z</time>
        <extensions>
          <ns3:TrackPointExtension>
            <ns3:atemp>21.0</ns3:atemp>
          </ns3:TrackPointExtension>
        </extensions>
      </trkpt>
      <trkpt lat="42.528350763022899627685546875" lon="19.7879726998507976531982421875">
        <ele>1108.4000244140625</ele>
        <time>2026-06-18T07:26:05.000Z</time>
        <extensions>
          <ns3:TrackPointExtension>
            <ns3:atemp>21.0</ns3:atemp>
          </ns3:TrackPointExtension>
        </extensions>
      </trkpt>
      <trkpt lat="42.528372891247272491455078125" lon="19.78795652277767658233642578125">
        <ele>1108.5999755859375</ele>
        <time>2026-06-18T07:26:06.000Z</time>
        <extensions>
          <ns3:TrackPointExtension>
            <ns3:atemp>21.0</ns3:atemp>
          </ns3:TrackPointExtension>
        </extensions>
      </trkpt>
      <trkpt lat="42.52839694730937480926513671875" lon="19.78794193826615810394287109375">
        <ele>1108.5999755859375</ele>
        <time>2026-06-18T07:26:07.000Z</time>
        <extensions>
          <ns3:TrackPointExtension>
            <ns3:atemp>21.0</ns3:atemp>
          </ns3:TrackPointExtension>
        </extensions>
      </trkpt>
      <trkpt lat="42.52841605804860591888427734375" lon="19.7879287786781787872314453125">
        <ele>1108.800048828125</ele>
        <time>2026-06-18T07:26:08.000Z</time>
        <extensions>
          <ns3:TrackPointExtension>
            <ns3:atemp>21.0</ns3:atemp>
          </ns3:TrackPointExtension>
        </extensions>
      </trkpt>
      <trkpt lat="42.5284334085881710052490234375" lon="19.7879220731556415557861328125">
        <ele>1109</ele>
        <time>2026-06-18T07:26:09.000Z</time>
        <extensions>
          <ns3:TrackPointExtension>
            <ns3:atemp>21.0</ns3:atemp>
          </ns3:TrackPointExtension>
        </extensions>
      </trkpt>
      <trkpt lat="42.52845411188900470733642578125" lon="19.78791612200438976287841796875">
        <ele>1109.199951171875</ele>
        <time>2026-06-18T07:26:10.000Z</time>
        <extensions>
          <ns3:TrackPointExtension>
            <ns3:atemp>21.0</ns3:atemp>
          </ns3:TrackPointExtension>
        </extensions>
      </trkpt>
      <trkpt lat="42.52847221679985523223876953125" lon="19.7878969274461269378662109375">
        <ele>1109.4000244140625</ele>
        <time>2026-06-18T07:26:11.000Z</time>
        <extensions>
          <ns3:TrackPointExtension>
            <ns3:atemp>21.0</ns3:atemp>
          </ns3:TrackPointExtension>
        </extensions>
      </trkpt>
      <trkpt lat="42.52848529256880283355712890625" lon="19.78788192383944988250732421875">
        <ele>1109.5999755859375</ele>
        <time>2026-06-18T07:26:12.000Z</time>
        <extensions>
          <ns3:TrackPointExtension>
            <ns3:atemp>21.0</ns3:atemp>
          </ns3:TrackPointExtension>
        </extensions>
      </trkpt>
      <trkpt lat="42.528502978384494781494140625" lon="19.7878644056618213653564453125">
        <ele>1109.800048828125</ele>
        <time>2026-06-18T07:26:13.000Z</time>
        <extensions>
          <ns3:TrackPointExtension>
            <ns3:atemp>21.0</ns3:atemp>
          </ns3:TrackPointExtension>
        </extensions>
      </trkpt>
      <trkpt lat="42.52852351404726505279541015625" lon="19.7878473065793514251708984375">
        <ele>1110</ele>
        <time>2026-06-18T07:26:14.000Z</time>
        <extensions>
          <ns3:TrackPointExtension>
            <ns3:atemp>21.0</ns3:atemp>
          </ns3:TrackPointExtension>
        </extensions>
      </trkpt>
      <trkpt lat="42.528543882071971893310546875" lon="19.78782467544078826904296875">
        <ele>1110.199951171875</ele>
        <time>2026-06-18T07:26:15.000Z</time>
        <extensions>
          <ns3:TrackPointExtension>
            <ns3:atemp>21.0</ns3:atemp>
          </ns3:TrackPointExtension>
        </extensions>
      </trkpt>
      <trkpt lat="42.5285645015537738800048828125" lon="19.78780246339738368988037109375">
        <ele>1110.5999755859375</ele>
        <time>2026-06-18T07:26:16.000Z</time>
        <extensions>
          <ns3:TrackPointExtension>
            <ns3:atemp>21.0</ns3:atemp>
          </ns3:TrackPointExtension>
        </extensions>
      </trkpt>
      <trkpt lat="42.52858805470168590545654296875" lon="19.7877779044210910797119140625">
        <ele>1110.5999755859375</ele>
        <time>2026-06-18T07:26:17.000Z</time>
        <extensions>
          <ns3:TrackPointExtension>
            <ns3:atemp>21.0</ns3:atemp>
          </ns3:TrackPointExtension>
        </extensions>
      </trkpt>
      <trkpt lat="42.5286114402115345001220703125" lon="19.78775485418736934661865234375">
        <ele>1110.800048828125</ele>
        <time>2026-06-18T07:26:18.000Z</time>
        <extensions>
          <ns3:TrackPointExtension>
            <ns3:atemp>21.0</ns3:atemp>
          </ns3:TrackPointExtension>
        </extensions>
      </trkpt>
      <trkpt lat="42.52863566391170024871826171875" lon="19.78773322887718677520751953125">
        <ele>1111</ele>
        <time>2026-06-18T07:26:19.000Z</time>
        <extensions>
          <ns3:TrackPointExtension>
            <ns3:atemp>21.0</ns3:atemp>
          </ns3:TrackPointExtension>
        </extensions>
      </trkpt>
      <trkpt lat="42.52866022288799285888671875" lon="19.78771428577601909637451171875">
        <ele>1111</ele>
        <time>2026-06-18T07:26:20.000Z</time>
        <extensions>
          <ns3:TrackPointExtension>
            <ns3:atemp>21.0</ns3:atemp>
          </ns3:TrackPointExtension>
        </extensions>
      </trkpt>
      <trkpt lat="42.5286825187504291534423828125" lon="19.78770858608186244964599609375">
        <ele>1111.199951171875</ele>
        <time>2026-06-18T07:26:21.000Z</time>
        <extensions>
          <ns3:TrackPointExtension>
            <ns3:atemp>21.0</ns3:atemp>
          </ns3:TrackPointExtension>
        </extensions>
      </trkpt>
      <trkpt lat="42.52870037220418453216552734375" lon="19.78770389221608638763427734375">
        <ele>1111.4000244140625</ele>
        <time>2026-06-18T07:26:22.000Z</time>
        <extensions>
          <ns3:TrackPointExtension>
            <ns3:atemp>21.0</ns3:atemp>
          </ns3:TrackPointExtension>
        </extensions>
      </trkpt>
      <trkpt lat="42.5287247635424137115478515625" lon="19.7876981087028980255126953125">
        <ele>1111.5999755859375</ele>
        <time>2026-06-18T07:26:23.000Z</time>
        <extensions>
          <ns3:TrackPointExtension>
            <ns3:atemp>21.0</ns3:atemp>
          </ns3:TrackPointExtension>
        </extensions>
      </trkpt>
      <trkpt lat="42.5287492386996746063232421875" lon="19.7876924090087413787841796875">
        <ele>1111.5999755859375</ele>
        <time>2026-06-18T07:26:24.000Z</time>
        <extensions>
          <ns3:TrackPointExtension>
            <ns3:atemp>21.0</ns3:atemp>
          </ns3:TrackPointExtension>
        </extensions>
      </trkpt>
      <trkpt lat="42.528772540390491485595703125" lon="19.78768880479037761688232421875">
        <ele>1111.800048828125</ele>
        <time>2026-06-18T07:26:25.000Z</time>
        <extensions>
          <ns3:TrackPointExtension>
            <ns3:atemp>21.0</ns3:atemp>
          </ns3:TrackPointExtension>
        </extensions>
      </trkpt>
      <trkpt lat="42.528796009719371795654296875" lon="19.78768117725849151611328125">
        <ele>1111.800048828125</ele>
        <time>2026-06-18T07:26:26.000Z</time>
        <extensions>
          <ns3:TrackPointExtension>
            <ns3:atemp>21.0</ns3:atemp>
          </ns3:TrackPointExtension>
        </extensions>
      </trkpt>
      <trkpt lat="42.52881637774407863616943359375" lon="19.787670783698558807373046875">
        <ele>1111.5999755859375</ele>
        <time>2026-06-18T07:26:27.000Z</time>
        <extensions>
          <ns3:TrackPointExtension>
            <ns3:atemp>21.0</ns3:atemp>
          </ns3:TrackPointExtension>
        </extensions>
      </trkpt>
      <trkpt lat="42.5288364104926586151123046875" lon="19.787661731243133544921875">
        <ele>1111.5999755859375</ele>
        <time>2026-06-18T07:26:28.000Z</time>
        <extensions>
          <ns3:TrackPointExtension>
            <ns3:atemp>21.0</ns3:atemp>
          </ns3:TrackPointExtension>
        </extensions>
      </trkpt>
      <trkpt lat="42.528857029974460601806640625" lon="19.7876508347690105438232421875">
        <ele>1111.5999755859375</ele>
        <time>2026-06-18T07:26:29.000Z</time>
        <extensions>
          <ns3:TrackPointExtension>
            <ns3:atemp>21.0</ns3:atemp>
          </ns3:TrackPointExtension>
        </extensions>
      </trkpt>
      <trkpt lat="42.52887521870434284210205078125" lon="19.78763834573328495025634765625">
        <ele>1111.5999755859375</ele>
        <time>2026-06-18T07:26:30.000Z</time>
        <extensions>
          <ns3:TrackPointExtension>
            <ns3:atemp>21.0</ns3:atemp>
          </ns3:TrackPointExtension>
        </extensions>
      </trkpt>
      <trkpt lat="42.52889801748096942901611328125" lon="19.787624180316925048828125">
        <ele>1111.800048828125</ele>
        <time>2026-06-18T07:26:31.000Z</time>
        <extensions>
          <ns3:TrackPointExtension>
            <ns3:atemp>21.0</ns3:atemp>
          </ns3:TrackPointExtension>
        </extensions>
      </trkpt>
      <trkpt lat="42.52892198972404003143310546875" lon="19.787610433995723724365234375">
        <ele>1111.800048828125</ele>
        <time>2026-06-18T07:26:32.000Z</time>
        <extensions>
          <ns3:TrackPointExtension>
            <ns3:atemp>21.0</ns3:atemp>
          </ns3:TrackPointExtension>
        </extensions>
      </trkpt>
      <trkpt lat="42.52894327975809574127197265625" lon="19.78759802877902984619140625">
        <ele>1112</ele>
        <time>2026-06-18T07:26:33.000Z</time>
        <extensions>
          <ns3:TrackPointExtension>
            <ns3:atemp>21.0</ns3:atemp>
          </ns3:TrackPointExtension>
        </extensions>
      </trkpt>
      <trkpt lat="42.52896892838180065155029296875" lon="19.78758956305682659149169921875">
        <ele>1112.199951171875</ele>
        <time>2026-06-18T07:26:34.000Z</time>
        <extensions>
          <ns3:TrackPointExtension>
            <ns3:atemp>21.0</ns3:atemp>
          </ns3:TrackPointExtension>
        </extensions>
      </trkpt>
      <trkpt lat="42.52899440936744213104248046875" lon="19.7875817678868770599365234375">
        <ele>1112.4000244140625</ele>
        <time>2026-06-18T07:26:35.000Z</time>
        <extensions>
          <ns3:TrackPointExtension>
            <ns3:atemp>21.0</ns3:atemp>
          </ns3:TrackPointExtension>
        </extensions>
      </trkpt>
      <trkpt lat="42.52901737578213214874267578125" lon="19.7875757329165935516357421875">
        <ele>1112.5999755859375</ele>
        <time>2026-06-18T07:26:36.000Z</time>
        <extensions>
          <ns3:TrackPointExtension>
            <ns3:atemp>21.0</ns3:atemp>
          </ns3:TrackPointExtension>
        </extensions>
      </trkpt>
      <trkpt lat="42.52904386259615421295166015625" lon="19.78757196106016635894775390625">
        <ele>1112.5999755859375</ele>
        <time>2026-06-18T07:26:37.000Z</time>
        <extensions>
          <ns3:TrackPointExtension>
            <ns3:atemp>21.0</ns3:atemp>
          </ns3:TrackPointExtension>
        </extensions>
      </trkpt>
      <trkpt lat="42.52906900830566883087158203125" lon="19.78757078759372234344482421875">
        <ele>1112.800048828125</ele>
        <time>2026-06-18T07:26:38.000Z</time>
        <extensions>
          <ns3:TrackPointExtension>
            <ns3:atemp>21.0</ns3:atemp>
          </ns3:TrackPointExtension>
        </extensions>
      </trkpt>
      <trkpt lat="42.529092729091644287109375" lon="19.787577576935291290283203125">
        <ele>1113</ele>
        <time>2026-06-18T07:26:39.000Z</time>
        <extensions>
          <ns3:TrackPointExtension>
            <ns3:atemp>21.0</ns3:atemp>
          </ns3:TrackPointExtension>
        </extensions>
      </trkpt>
      <trkpt lat="42.52911661751568317413330078125" lon="19.78758520446717739105224609375">
        <ele>1113.4000244140625</ele>
        <time>2026-06-18T07:26:40.000Z</time>
        <extensions>
          <ns3:TrackPointExtension>
            <ns3:atemp>21.0</ns3:atemp>
          </ns3:TrackPointExtension>
        </extensions>
      </trkpt>
      <trkpt lat="42.529133297502994537353515625" lon="19.78759157471358776092529296875">
        <ele>1113.5999755859375</ele>
        <time>2026-06-18T07:26:41.000Z</time>
        <extensions>
          <ns3:TrackPointExtension>
            <ns3:atemp>21.0</ns3:atemp>
          </ns3:TrackPointExtension>
        </extensions>
      </trkpt>
      <trkpt lat="42.5291508994996547698974609375" lon="19.787599705159664154052734375">
        <ele>1113.800048828125</ele>
        <time>2026-06-18T07:26:42.000Z</time>
        <extensions>
          <ns3:TrackPointExtension>
            <ns3:atemp>21.0</ns3:atemp>
          </ns3:TrackPointExtension>
        </extensions>
      </trkpt>
      <trkpt lat="42.529168166220188140869140625" lon="19.787607081234455108642578125">
        <ele>1114</ele>
        <time>2026-06-18T07:26:43.000Z</time>
        <extensions>
          <ns3:TrackPointExtension>
            <ns3:atemp>21.0</ns3:atemp>
          </ns3:TrackPointExtension>
        </extensions>
      </trkpt>
      <trkpt lat="42.5291817449033260345458984375" lon="19.787615798413753509521484375">
        <ele>1114.199951171875</ele>
        <time>2026-06-18T07:26:44.000Z</time>
        <extensions>
          <ns3:TrackPointExtension>
            <ns3:atemp>21.0</ns3:atemp>
          </ns3:TrackPointExtension>
        </extensions>
      </trkpt>
      <trkpt lat="42.52919808961451053619384765625" lon="19.78762686252593994140625">
        <ele>1114.5999755859375</ele>
        <time>2026-06-18T07:26:45.000Z</time>
        <extensions>
          <ns3:TrackPointExtension>
            <ns3:atemp>21.0</ns3:atemp>
          </ns3:TrackPointExtension>
        </extensions>
      </trkpt>
      <trkpt lat="42.5292162783443927764892578125" lon="19.78764136321842670440673828125">
        <ele>1114.800048828125</ele>
        <time>2026-06-18T07:26:46.000Z</time>
        <extensions>
          <ns3:TrackPointExtension>
            <ns3:atemp>21.0</ns3:atemp>
          </ns3:TrackPointExtension>
        </extensions>
      </trkpt>
      <trkpt lat="42.529235891997814178466796875" lon="19.78765326552093029022216796875">
        <ele>1115</ele>
        <time>2026-06-18T07:26:47.000Z</time>
        <extensions>
          <ns3:TrackPointExtension>
            <ns3:atemp>21.0</ns3:atemp>
          </ns3:TrackPointExtension>
        </extensions>
      </trkpt>
      <trkpt lat="42.52925927750766277313232421875" lon="19.78766374289989471435546875">
        <ele>1115.199951171875</ele>
        <time>2026-06-18T07:26:48.000Z</time>
        <extensions>
          <ns3:TrackPointExtension>
            <ns3:atemp>21.0</ns3:atemp>
          </ns3:TrackPointExtension>
        </extensions>
      </trkpt>
      <trkpt lat="42.529280148446559906005859375" lon="19.787671454250812530517578125">
        <ele>1115.4000244140625</ele>
        <time>2026-06-18T07:26:49.000Z</time>
        <extensions>
          <ns3:TrackPointExtension>
            <ns3:atemp>21.0</ns3:atemp>
          </ns3:TrackPointExtension>
        </extensions>
      </trkpt>
      <trkpt lat="42.52929850481450557708740234375" lon="19.78767908178269863128662109375">
        <ele>1115.800048828125</ele>
        <time>2026-06-18T07:26:50.000Z</time>
        <extensions>
          <ns3:TrackPointExtension>
            <ns3:atemp>21.0</ns3:atemp>
          </ns3:TrackPointExtension>
        </extensions>
      </trkpt>
      <trkpt lat="42.52931593917310237884521484375" lon="19.78769316338002681732177734375">
        <ele>1116</ele>
        <time>2026-06-18T07:26:51.000Z</time>
        <extensions>
          <ns3:TrackPointExtension>
            <ns3:atemp>21.0</ns3:atemp>
          </ns3:TrackPointExtension>
        </extensions>
      </trkpt>
      <trkpt lat="42.529335133731365203857421875" lon="19.78771043010056018829345703125">
        <ele>1116.4000244140625</ele>
        <time>2026-06-18T07:26:52.000Z</time>
        <extensions>
          <ns3:TrackPointExtension>
            <ns3:atemp>21.0</ns3:atemp>
          </ns3:TrackPointExtension>
        </extensions>
      </trkpt>
      <trkpt lat="42.52935064025223255157470703125" lon="19.787730462849140167236328125">
        <ele>1116.5999755859375</ele>
        <time>2026-06-18T07:26:53.000Z</time>
        <extensions>
          <ns3:TrackPointExtension>
            <ns3:atemp>21.0</ns3:atemp>
          </ns3:TrackPointExtension>
        </extensions>
      </trkpt>
      <trkpt lat="42.52937234938144683837890625" lon="19.78774462826550006866455078125">
        <ele>1116.800048828125</ele>
        <time>2026-06-18T07:26:54.000Z</time>
        <extensions>
          <ns3:TrackPointExtension>
            <ns3:atemp>21.0</ns3:atemp>
          </ns3:TrackPointExtension>
        </extensions>
      </trkpt>
      <trkpt lat="42.529394142329692840576171875" lon="19.78775619529187679290771484375">
        <ele>1117</ele>
        <time>2026-06-18T07:26:55.000Z</time>
        <extensions>
          <ns3:TrackPointExtension>
            <ns3:atemp>21.0</ns3:atemp>
          </ns3:TrackPointExtension>
        </extensions>
      </trkpt>
      <trkpt lat="42.52940964885056018829345703125" lon="19.78776742704212665557861328125">
        <ele>1117.199951171875</ele>
        <time>2026-06-18T07:26:56.000Z</time>
        <extensions>
          <ns3:TrackPointExtension>
            <ns3:atemp>21.0</ns3:atemp>
          </ns3:TrackPointExtension>
        </extensions>
      </trkpt>
      <trkpt lat="42.5294241495430469512939453125" lon="19.7877765633165836334228515625">
        <ele>1117.5999755859375</ele>
        <time>2026-06-18T07:26:57.000Z</time>
        <extensions>
          <ns3:TrackPointExtension>
            <ns3:atemp>21.0</ns3:atemp>
          </ns3:TrackPointExtension>
        </extensions>
      </trkpt>
      <trkpt lat="42.52944208681583404541015625" lon="19.78778846561908721923828125">
        <ele>1117.800048828125</ele>
        <time>2026-06-18T07:26:58.000Z</time>
        <extensions>
          <ns3:TrackPointExtension>
            <ns3:atemp>21.0</ns3:atemp>
          </ns3:TrackPointExtension>
        </extensions>
      </trkpt>
      <trkpt lat="42.529463209211826324462890625" lon="19.78779919445514678955078125">
        <ele>1118</ele>
        <time>2026-06-18T07:26:59.000Z</time>
        <extensions>
          <ns3:TrackPointExtension>
            <ns3:atemp>21.0</ns3:atemp>
          </ns3:TrackPointExtension>
        </extensions>
      </trkpt>
      <trkpt lat="42.52948055975139141082763671875" lon="19.78780933655798435211181640625">
        <ele>1118.4000244140625</ele>
        <time>2026-06-18T07:27:00.000Z</time>
        <extensions>
          <ns3:TrackPointExtension>
            <ns3:atemp>21.0</ns3:atemp>
          </ns3:TrackPointExtension>
        </extensions>
      </trkpt>
      <trkpt lat="42.52949732355773448944091796875" lon="19.787820987403392791748046875">
        <ele>1118.4000244140625</ele>
        <time>2026-06-18T07:27:01.000Z</time>
        <extensions>
          <ns3:TrackPointExtension>
            <ns3:atemp>21.0</ns3:atemp>
          </ns3:TrackPointExtension>
        </extensions>
      </trkpt>
      <trkpt lat="42.5295146740972995758056640625" lon="19.7878302074968814849853515625">
        <ele>1118.5999755859375</ele>
        <time>2026-06-18T07:27:02.000Z</time>
        <extensions>
          <ns3:TrackPointExtension>
            <ns3:atemp>21.0</ns3:atemp>
          </ns3:TrackPointExtension>
        </extensions>
      </trkpt>
      <trkpt lat="42.5295331142842769622802734375" lon="19.7878427803516387939453125">
        <ele>1118.800048828125</ele>
        <time>2026-06-18T07:27:03.000Z</time>
        <extensions>
          <ns3:TrackPointExtension>
            <ns3:atemp>21.0</ns3:atemp>
          </ns3:TrackPointExtension>
        </extensions>
      </trkpt>
      <trkpt lat="42.5295488722622394561767578125" lon="19.78785292245447635650634765625">
        <ele>1119</ele>
        <time>2026-06-18T07:27:04.000Z</time>
        <extensions>
          <ns3:TrackPointExtension>
            <ns3:atemp>21.0</ns3:atemp>
          </ns3:TrackPointExtension>
        </extensions>
      </trkpt>
      <trkpt lat="42.5295653007924556732177734375" lon="19.78786046616733074188232421875">
        <ele>1119.199951171875</ele>
        <time>2026-06-18T07:27:05.000Z</time>
        <extensions>
          <ns3:TrackPointExtension>
            <ns3:atemp>21.0</ns3:atemp>
          </ns3:TrackPointExtension>
        </extensions>
      </trkpt>
      <trkpt lat="42.52957963384687900543212890625" lon="19.7878696024417877197265625">
        <ele>1119.4000244140625</ele>
        <time>2026-06-18T07:27:06.000Z</time>
        <extensions>
          <ns3:TrackPointExtension>
            <ns3:atemp>21.0</ns3:atemp>
          </ns3:TrackPointExtension>
        </extensions>
      </trkpt>
      <trkpt lat="42.5295956432819366455078125" lon="19.78787605650722980499267578125">
        <ele>1119.5999755859375</ele>
        <time>2026-06-18T07:27:07.000Z</time>
        <extensions>
          <ns3:TrackPointExtension>
            <ns3:atemp>21.0</ns3:atemp>
          </ns3:TrackPointExtension>
        </extensions>
      </trkpt>
      <trkpt lat="42.5296108983457088470458984375" lon="19.78787722997367382049560546875">
        <ele>1120</ele>
        <time>2026-06-18T07:27:08.000Z</time>
        <extensions>
          <ns3:TrackPointExtension>
            <ns3:atemp>21.0</ns3:atemp>
          </ns3:TrackPointExtension>
        </extensions>
      </trkpt>
      <trkpt lat="42.52962422557175159454345703125" lon="19.787882007658481597900390625">
        <ele>1120.199951171875</ele>
        <time>2026-06-18T07:27:09.000Z</time>
        <extensions>
          <ns3:TrackPointExtension>
            <ns3:atemp>21.0</ns3:atemp>
          </ns3:TrackPointExtension>
        </extensions>
      </trkpt>
      <trkpt lat="42.5296412408351898193359375" lon="19.78788728825747966766357421875">
        <ele>1120.5999755859375</ele>
        <time>2026-06-18T07:27:10.000Z</time>
        <extensions>
          <ns3:TrackPointExtension>
            <ns3:atemp>21.0</ns3:atemp>
          </ns3:TrackPointExtension>
        </extensions>
      </trkpt>
      <trkpt lat="42.52965775318443775177001953125" lon="19.7878937423229217529296875">
        <ele>1120.800048828125</ele>
        <time>2026-06-18T07:27:11.000Z</time>
        <extensions>
          <ns3:TrackPointExtension>
            <ns3:atemp>21.0</ns3:atemp>
          </ns3:TrackPointExtension>
        </extensions>
      </trkpt>
      <trkpt lat="42.52967543900012969970703125" lon="19.78790086694061756134033203125">
        <ele>1121.199951171875</ele>
        <time>2026-06-18T07:27:12.000Z</time>
        <extensions>
          <ns3:TrackPointExtension>
            <ns3:atemp>21.0</ns3:atemp>
          </ns3:TrackPointExtension>
        </extensions>
      </trkpt>
      <trkpt lat="42.529692538082599639892578125" lon="19.7879066504538059234619140625">
        <ele>1121.5999755859375</ele>
        <time>2026-06-18T07:27:13.000Z</time>
        <extensions>
          <ns3:TrackPointExtension>
            <ns3:atemp>21.0</ns3:atemp>
          </ns3:TrackPointExtension>
        </extensions>
      </trkpt>
      <trkpt lat="42.5297081284224987030029296875" lon="19.78790807537734508514404296875">
        <ele>1121.800048828125</ele>
        <time>2026-06-18T07:27:14.000Z</time>
        <extensions>
          <ns3:TrackPointExtension>
            <ns3:atemp>21.0</ns3:atemp>
          </ns3:TrackPointExtension>
        </extensions>
      </trkpt>
      <trkpt lat="42.529727406799793243408203125" lon="19.787916205823421478271484375">
        <ele>1122.199951171875</ele>
        <time>2026-06-18T07:27:15.000Z</time>
        <extensions>
          <ns3:TrackPointExtension>
            <ns3:atemp>21.0</ns3:atemp>
          </ns3:TrackPointExtension>
        </extensions>
      </trkpt>
      <trkpt lat="42.5297450087964534759521484375" lon="19.78792685084044933319091796875">
        <ele>1122.4000244140625</ele>
        <time>2026-06-18T07:27:16.000Z</time>
        <extensions>
          <ns3:TrackPointExtension>
            <ns3:atemp>21.0</ns3:atemp>
          </ns3:TrackPointExtension>
        </extensions>
      </trkpt>
      <trkpt lat="42.5297688134014606475830078125" lon="19.78793866932392120361328125">
        <ele>1122.800048828125</ele>
        <time>2026-06-18T07:27:17.000Z</time>
        <extensions>
          <ns3:TrackPointExtension>
            <ns3:atemp>21.0</ns3:atemp>
          </ns3:TrackPointExtension>
        </extensions>
      </trkpt>
      <trkpt lat="42.5297896005213260650634765625" lon="19.787951745092868804931640625">
        <ele>1123</ele>
        <time>2026-06-18T07:27:18.000Z</time>
        <extensions>
          <ns3:TrackPointExtension>
            <ns3:atemp>21.0</ns3:atemp>
          </ns3:TrackPointExtension>
        </extensions>
      </trkpt>
      <trkpt lat="42.52980611287057399749755859375" lon="19.78796490468084812164306640625">
        <ele>1123.4000244140625</ele>
        <time>2026-06-18T07:27:19.000Z</time>
        <extensions>
          <ns3:TrackPointExtension>
            <ns3:atemp>21.0</ns3:atemp>
          </ns3:TrackPointExtension>
        </extensions>
      </trkpt>
      <trkpt lat="42.52982270903885364532470703125" lon="19.787981919944286346435546875">
        <ele>1123.800048828125</ele>
        <time>2026-06-18T07:27:20.000Z</time>
        <extensions>
          <ns3:TrackPointExtension>
            <ns3:atemp>21.0</ns3:atemp>
          </ns3:TrackPointExtension>
        </extensions>
      </trkpt>
      <trkpt lat="42.5298343598842620849609375" lon="19.78800497017800807952880859375">
        <ele>1124</ele>
        <time>2026-06-18T07:27:21.000Z</time>
        <extensions>
          <ns3:TrackPointExtension>
            <ns3:atemp>21.0</ns3:atemp>
          </ns3:TrackPointExtension>
        </extensions>
      </trkpt>
      <trkpt lat="42.52984601072967052459716796875" lon="19.7880286909639835357666015625">
        <ele>1124.4000244140625</ele>
        <time>2026-06-18T07:27:22.000Z</time>
        <extensions>
          <ns3:TrackPointExtension>
            <ns3:atemp>21.0</ns3:atemp>
          </ns3:TrackPointExtension>
        </extensions>
      </trkpt>
      <trkpt lat="42.52985523082315921783447265625" lon="19.7880474664270877838134765625">
        <ele>1124.5999755859375</ele>
        <time>2026-06-18T07:27:23.000Z</time>
        <extensions>
          <ns3:TrackPointExtension>
            <ns3:atemp>21.0</ns3:atemp>
          </ns3:TrackPointExtension>
        </extensions>
      </trkpt>
      <trkpt lat="42.52986453473567962646484375" lon="19.7880635596811771392822265625">
        <ele>1125</ele>
        <time>2026-06-18T07:27:24.000Z</time>
        <extensions>
          <ns3:TrackPointExtension>
            <ns3:atemp>21.0</ns3:atemp>
          </ns3:TrackPointExtension>
        </extensions>
      </trkpt>
      <trkpt lat="42.52987316809594631195068359375" lon="19.7880826704204082489013671875">
        <ele>1125.199951171875</ele>
        <time>2026-06-18T07:27:25.000Z</time>
        <extensions>
          <ns3:TrackPointExtension>
            <ns3:atemp>21.0</ns3:atemp>
          </ns3:TrackPointExtension>
        </extensions>
      </trkpt>
      <trkpt lat="42.52988104708492755889892578125" lon="19.7881034575402736663818359375">
        <ele>1125.5999755859375</ele>
        <time>2026-06-18T07:27:26.000Z</time>
        <extensions>
          <ns3:TrackPointExtension>
            <ns3:atemp>21.0</ns3:atemp>
          </ns3:TrackPointExtension>
        </extensions>
      </trkpt>
      <trkpt lat="42.52989144064486026763916015625" lon="19.78812566958367824554443359375">
        <ele>1125.800048828125</ele>
        <time>2026-06-18T07:27:27.000Z</time>
        <extensions>
          <ns3:TrackPointExtension>
            <ns3:atemp>21.0</ns3:atemp>
          </ns3:TrackPointExtension>
        </extensions>
      </trkpt>
      <trkpt lat="42.529900409281253814697265625" lon="19.78814913891255855560302734375">
        <ele>1126</ele>
        <time>2026-06-18T07:27:28.000Z</time>
        <extensions>
          <ns3:TrackPointExtension>
            <ns3:atemp>21.0</ns3:atemp>
          </ns3:TrackPointExtension>
        </extensions>
      </trkpt>
      <trkpt lat="42.529904432594776153564453125" lon="19.788171350955963134765625">
        <ele>1126.199951171875</ele>
        <time>2026-06-18T07:27:29.000Z</time>
        <extensions>
          <ns3:TrackPointExtension>
            <ns3:atemp>21.0</ns3:atemp>
          </ns3:TrackPointExtension>
        </extensions>
      </trkpt>
      <trkpt lat="42.52991474233567714691162109375" lon="19.78819272480905055999755859375">
        <ele>1126.5999755859375</ele>
        <time>2026-06-18T07:27:30.000Z</time>
        <extensions>
          <ns3:TrackPointExtension>
            <ns3:atemp>21.0</ns3:atemp>
          </ns3:TrackPointExtension>
        </extensions>
      </trkpt>
      <trkpt lat="42.52992086112499237060546875" lon="19.7882127575576305389404296875">
        <ele>1126.5999755859375</ele>
        <time>2026-06-18T07:27:31.000Z</time>
        <extensions>
          <ns3:TrackPointExtension>
            <ns3:atemp>21.0</ns3:atemp>
          </ns3:TrackPointExtension>
        </extensions>
      </trkpt>
      <trkpt lat="42.529926560819149017333984375" lon="19.788235388696193695068359375">
        <ele>1126.800048828125</ele>
        <time>2026-06-18T07:27:32.000Z</time>
        <extensions>
          <ns3:TrackPointExtension>
            <ns3:atemp>21.0</ns3:atemp>
          </ns3:TrackPointExtension>
        </extensions>
      </trkpt>
      <trkpt lat="42.52993469126522541046142578125" lon="19.788252823054790496826171875">
        <ele>1127</ele>
        <time>2026-06-18T07:27:33.000Z</time>
        <extensions>
          <ns3:TrackPointExtension>
            <ns3:atemp>21.0</ns3:atemp>
          </ns3:TrackPointExtension>
        </extensions>
      </trkpt>
      <trkpt lat="42.5299458391964435577392578125" lon="19.78826900012791156768798828125">
        <ele>1127.199951171875</ele>
        <time>2026-06-18T07:27:34.000Z</time>
        <extensions>
          <ns3:TrackPointExtension>
            <ns3:atemp>21.0</ns3:atemp>
          </ns3:TrackPointExtension>
        </extensions>
      </trkpt>
      <trkpt lat="42.5299552269279956817626953125" lon="19.78828660212457180023193359375">
        <ele>1127.4000244140625</ele>
        <time>2026-06-18T07:27:35.000Z</time>
        <extensions>
          <ns3:TrackPointExtension>
            <ns3:atemp>21.0</ns3:atemp>
          </ns3:TrackPointExtension>
        </extensions>
      </trkpt>
      <trkpt lat="42.52996402792632579803466796875" lon="19.78829816915094852447509765625">
        <ele>1127.5999755859375</ele>
        <time>2026-06-18T07:27:36.000Z</time>
        <extensions>
          <ns3:TrackPointExtension>
            <ns3:atemp>21.0</ns3:atemp>
          </ns3:TrackPointExtension>
        </extensions>
      </trkpt>
      <trkpt lat="42.5299765169620513916015625" lon="19.78831040672957897186279296875">
        <ele>1128</ele>
        <time>2026-06-18T07:27:37.000Z</time>
        <extensions>
          <ns3:TrackPointExtension>
            <ns3:atemp>21.0</ns3:atemp>
          </ns3:TrackPointExtension>
        </extensions>
      </trkpt>
      <trkpt lat="42.5299887545406818389892578125" lon="19.78832365013659000396728515625">
        <ele>1128.199951171875</ele>
        <time>2026-06-18T07:27:38.000Z</time>
        <extensions>
          <ns3:TrackPointExtension>
            <ns3:atemp>21.0</ns3:atemp>
          </ns3:TrackPointExtension>
        </extensions>
      </trkpt>
      <trkpt lat="42.53000493161380290985107421875" lon="19.78833488188683986663818359375">
        <ele>1128.5999755859375</ele>
        <time>2026-06-18T07:27:39.000Z</time>
        <extensions>
          <ns3:TrackPointExtension>
            <ns3:atemp>21.0</ns3:atemp>
          </ns3:TrackPointExtension>
        </extensions>
      </trkpt>
      <trkpt lat="42.53001934848725795745849609375" lon="19.7883470356464385986328125">
        <ele>1128.800048828125</ele>
        <time>2026-06-18T07:27:40.000Z</time>
        <extensions>
          <ns3:TrackPointExtension>
            <ns3:atemp>21.0</ns3:atemp>
          </ns3:TrackPointExtension>
        </extensions>
      </trkpt>
      <trkpt lat="42.53003242425620555877685546875" lon="19.788358770310878753662109375">
        <ele>1129</ele>
        <time>2026-06-18T07:27:41.000Z</time>
        <extensions>
          <ns3:TrackPointExtension>
            <ns3:atemp>21.0</ns3:atemp>
          </ns3:TrackPointExtension>
        </extensions>
      </trkpt>
      <trkpt lat="42.53004801459610462188720703125" lon="19.788372181355953216552734375">
        <ele>1129.4000244140625</ele>
        <time>2026-06-18T07:27:42.000Z</time>
        <extensions>
          <ns3:TrackPointExtension>
            <ns3:atemp>21.0</ns3:atemp>
          </ns3:TrackPointExtension>
        </extensions>
      </trkpt>
      <trkpt lat="42.53006528131663799285888671875" lon="19.78838265873491764068603515625">
        <ele>1129.5999755859375</ele>
        <time>2026-06-18T07:27:43.000Z</time>
        <extensions>
          <ns3:TrackPointExtension>
            <ns3:atemp>21.0</ns3:atemp>
          </ns3:TrackPointExtension>
        </extensions>
      </trkpt>
      <trkpt lat="42.53008103929460048675537109375" lon="19.78839372284710407257080078125">
        <ele>1130</ele>
        <time>2026-06-18T07:27:44.000Z</time>
        <extensions>
          <ns3:TrackPointExtension>
            <ns3:atemp>21.0</ns3:atemp>
          </ns3:TrackPointExtension>
        </extensions>
      </trkpt>
      <trkpt lat="42.530095539987087249755859375" lon="19.78840914554893970489501953125">
        <ele>1130.199951171875</ele>
        <time>2026-06-18T07:27:45.000Z</time>
        <extensions>
          <ns3:TrackPointExtension>
            <ns3:atemp>21.0</ns3:atemp>
          </ns3:TrackPointExtension>
        </extensions>
      </trkpt>
      <trkpt lat="42.53010869957506656646728515625" lon="19.7884293459355831146240234375">
        <ele>1130.4000244140625</ele>
        <time>2026-06-18T07:27:46.000Z</time>
        <extensions>
          <ns3:TrackPointExtension>
            <ns3:atemp>21.0</ns3:atemp>
          </ns3:TrackPointExtension>
        </extensions>
      </trkpt>
      <trkpt lat="42.530121020972728729248046875" lon="19.78845021687448024749755859375">
        <ele>1130.5999755859375</ele>
        <time>2026-06-18T07:27:47.000Z</time>
        <extensions>
          <ns3:TrackPointExtension>
            <ns3:atemp>21.0</ns3:atemp>
          </ns3:TrackPointExtension>
        </extensions>
      </trkpt>
      <trkpt lat="42.53013367764651775360107421875" lon="19.788471758365631103515625">
        <ele>1131</ele>
        <time>2026-06-18T07:27:48.000Z</time>
        <extensions>
          <ns3:TrackPointExtension>
            <ns3:atemp>21.0</ns3:atemp>
          </ns3:TrackPointExtension>
        </extensions>
      </trkpt>
      <trkpt lat="42.53014138899743556976318359375" lon="19.78850050829350948333740234375">
        <ele>1131.199951171875</ele>
        <time>2026-06-18T07:27:49.000Z</time>
        <extensions>
          <ns3:TrackPointExtension>
            <ns3:atemp>21.0</ns3:atemp>
          </ns3:TrackPointExtension>
        </extensions>
      </trkpt>
      <trkpt lat="42.5301550514996051788330078125" lon="19.7885269112884998321533203125">
        <ele>1131.4000244140625</ele>
        <time>2026-06-18T07:27:50.000Z</time>
        <extensions>
          <ns3:TrackPointExtension>
            <ns3:atemp>21.0</ns3:atemp>
          </ns3:TrackPointExtension>
        </extensions>
      </trkpt>
      <trkpt lat="42.5301681272685527801513671875" lon="19.78855297900736331939697265625">
        <ele>1131.5999755859375</ele>
        <time>2026-06-18T07:27:51.000Z</time>
        <extensions>
          <ns3:TrackPointExtension>
            <ns3:atemp>21.0</ns3:atemp>
          </ns3:TrackPointExtension>
        </extensions>
      </trkpt>
      <trkpt lat="42.53018329851329326629638671875" lon="19.7885775379836559295654296875">
        <ele>1131.800048828125</ele>
        <time>2026-06-18T07:27:52.000Z</time>
        <extensions>
          <ns3:TrackPointExtension>
            <ns3:atemp>21.0</ns3:atemp>
          </ns3:TrackPointExtension>
        </extensions>
      </trkpt>
      <trkpt lat="42.5301972962915897369384765625" lon="19.78860092349350452423095703125">
        <ele>1131.800048828125</ele>
        <time>2026-06-18T07:27:53.000Z</time>
        <extensions>
          <ns3:TrackPointExtension>
            <ns3:atemp>21.0</ns3:atemp>
          </ns3:TrackPointExtension>
        </extensions>
      </trkpt>
      <trkpt lat="42.53020794130861759185791015625" lon="19.78862020187079906463623046875">
        <ele>1132</ele>
        <time>2026-06-18T07:27:54.000Z</time>
        <extensions>
          <ns3:TrackPointExtension>
            <ns3:atemp>21.0</ns3:atemp>
          </ns3:TrackPointExtension>
        </extensions>
      </trkpt>
      <trkpt lat="42.5302197597920894622802734375" lon="19.78863663040101528167724609375">
        <ele>1132.199951171875</ele>
        <time>2026-06-18T07:27:55.000Z</time>
        <extensions>
          <ns3:TrackPointExtension>
            <ns3:atemp>21.0</ns3:atemp>
          </ns3:TrackPointExtension>
        </extensions>
      </trkpt>
      <trkpt lat="42.5302345119416713714599609375" lon="19.78865356184542179107666015625">
        <ele>1132.4000244140625</ele>
        <time>2026-06-18T07:27:56.000Z</time>
        <extensions>
          <ns3:TrackPointExtension>
            <ns3:atemp>21.0</ns3:atemp>
          </ns3:TrackPointExtension>
        </extensions>
      </trkpt>
      <trkpt lat="42.5302499346435070037841796875" lon="19.788673929870128631591796875">
        <ele>1132.4000244140625</ele>
        <time>2026-06-18T07:27:57.000Z</time>
        <extensions>
          <ns3:TrackPointExtension>
            <ns3:atemp>21.0</ns3:atemp>
          </ns3:TrackPointExtension>
        </extensions>
      </trkpt>
      <trkpt lat="42.53026594407856464385986328125" lon="19.78869262151420116424560546875">
        <ele>1132.5999755859375</ele>
        <time>2026-06-18T07:27:58.000Z</time>
        <extensions>
          <ns3:TrackPointExtension>
            <ns3:atemp>21.0</ns3:atemp>
          </ns3:TrackPointExtension>
        </extensions>
      </trkpt>
      <trkpt lat="42.53028698265552520751953125" lon="19.78871977888047695159912109375">
        <ele>1132.5999755859375</ele>
        <time>2026-06-18T07:27:59.000Z</time>
        <extensions>
          <ns3:TrackPointExtension>
            <ns3:atemp>21.0</ns3:atemp>
          </ns3:TrackPointExtension>
        </extensions>
      </trkpt>
      <trkpt lat="42.53030936233699321746826171875" lon="19.78873721323907375335693359375">
        <ele>1132.5999755859375</ele>
        <time>2026-06-18T07:28:00.000Z</time>
        <extensions>
          <ns3:TrackPointExtension>
            <ns3:atemp>21.0</ns3:atemp>
          </ns3:TrackPointExtension>
        </extensions>
      </trkpt>
      <trkpt lat="42.530331909656524658203125" lon="19.7887538932263851165771484375">
        <ele>1132.4000244140625</ele>
        <time>2026-06-18T07:28:01.000Z</time>
        <extensions>
          <ns3:TrackPointExtension>
            <ns3:atemp>21.0</ns3:atemp>
          </ns3:TrackPointExtension>
        </extensions>
      </trkpt>
      <trkpt lat="42.530355714261531829833984375" lon="19.78876872919499874114990234375">
        <ele>1132.4000244140625</ele>
        <time>2026-06-18T07:28:02.000Z</time>
        <extensions>
          <ns3:TrackPointExtension>
            <ns3:atemp>21.0</ns3:atemp>
          </ns3:TrackPointExtension>
        </extensions>
      </trkpt>
      <trkpt lat="42.5303800217807292938232421875" lon="19.78878415189683437347412109375">
        <ele>1132.4000244140625</ele>
        <time>2026-06-18T07:28:03.000Z</time>
        <extensions>
          <ns3:TrackPointExtension>
            <ns3:atemp>21.0</ns3:atemp>
          </ns3:TrackPointExtension>
        </extensions>
      </trkpt>
      <trkpt lat="42.53040340729057788848876953125" lon="19.78879630565643310546875">
        <ele>1132.4000244140625</ele>
        <time>2026-06-18T07:28:04.000Z</time>
        <extensions>
          <ns3:TrackPointExtension>
            <ns3:atemp>21.0</ns3:atemp>
          </ns3:TrackPointExtension>
        </extensions>
      </trkpt>
      <trkpt lat="42.53042553551495075225830078125" lon="19.7888083755970001220703125">
        <ele>1132.4000244140625</ele>
        <time>2026-06-18T07:28:05.000Z</time>
        <extensions>
          <ns3:TrackPointExtension>
            <ns3:atemp>21.0</ns3:atemp>
          </ns3:TrackPointExtension>
        </extensions>
      </trkpt>
      <trkpt lat="42.5304470770061016082763671875" lon="19.788822121918201446533203125">
        <ele>1132.4000244140625</ele>
        <time>2026-06-18T07:28:06.000Z</time>
        <extensions>
          <ns3:TrackPointExtension>
            <ns3:atemp>21.0</ns3:atemp>
          </ns3:TrackPointExtension>
        </extensions>
      </trkpt>
      <trkpt lat="42.5304675288498401641845703125" lon="19.78883360512554645538330078125">
        <ele>1132.5999755859375</ele>
        <time>2026-06-18T07:28:07.000Z</time>
        <extensions>
          <ns3:TrackPointExtension>
            <ns3:atemp>21.0</ns3:atemp>
          </ns3:TrackPointExtension>
        </extensions>
      </trkpt>
      <trkpt lat="42.53048940561711788177490234375" lon="19.78884768672287464141845703125">
        <ele>1132.5999755859375</ele>
        <time>2026-06-18T07:28:08.000Z</time>
        <extensions>
          <ns3:TrackPointExtension>
            <ns3:atemp>21.0</ns3:atemp>
          </ns3:TrackPointExtension>
        </extensions>
      </trkpt>
      <trkpt lat="42.53050868399441242218017578125" lon="19.7888620197772979736328125">
        <ele>1132.5999755859375</ele>
        <time>2026-06-18T07:28:09.000Z</time>
        <extensions>
          <ns3:TrackPointExtension>
            <ns3:atemp>21.0</ns3:atemp>
          </ns3:TrackPointExtension>
        </extensions>
      </trkpt>
      <trkpt lat="42.53052972257137298583984375" lon="19.78887207806110382080078125">
        <ele>1132.800048828125</ele>
        <time>2026-06-18T07:28:10.000Z</time>
        <extensions>
          <ns3:TrackPointExtension>
            <ns3:atemp>21.0</ns3:atemp>
          </ns3:TrackPointExtension>
        </extensions>
      </trkpt>
      <trkpt lat="42.530550844967365264892578125" lon="19.7888823039829730987548828125">
        <ele>1133</ele>
        <time>2026-06-18T07:28:11.000Z</time>
        <extensions>
          <ns3:TrackPointExtension>
            <ns3:atemp>21.0</ns3:atemp>
          </ns3:TrackPointExtension>
        </extensions>
      </trkpt>
      <trkpt lat="42.53057355992496013641357421875" lon="19.7888910211622714996337890625">
        <ele>1133.199951171875</ele>
        <time>2026-06-18T07:28:12.000Z</time>
        <extensions>
          <ns3:TrackPointExtension>
            <ns3:atemp>21.0</ns3:atemp>
          </ns3:TrackPointExtension>
        </extensions>
      </trkpt>
      <trkpt lat="42.53059853799641132354736328125" lon="19.7888977266848087310791015625">
        <ele>1133.199951171875</ele>
        <time>2026-06-18T07:28:13.000Z</time>
        <extensions>
          <ns3:TrackPointExtension>
            <ns3:atemp>21.0</ns3:atemp>
          </ns3:TrackPointExtension>
        </extensions>
      </trkpt>
      <trkpt lat="42.53062427043914794921875" lon="19.78890233673155307769775390625">
        <ele>1133.4000244140625</ele>
        <time>2026-06-18T07:28:14.000Z</time>
        <extensions>
          <ns3:TrackPointExtension>
            <ns3:atemp>21.0</ns3:atemp>
          </ns3:TrackPointExtension>
        </extensions>
      </trkpt>
      <trkpt lat="42.53064773976802825927734375" lon="19.788909293711185455322265625">
        <ele>1133.5999755859375</ele>
        <time>2026-06-18T07:28:15.000Z</time>
        <extensions>
          <ns3:TrackPointExtension>
            <ns3:atemp>21.0</ns3:atemp>
          </ns3:TrackPointExtension>
        </extensions>
      </trkpt>
      <trkpt lat="42.53067129291594028472900390625" lon="19.7889156639575958251953125">
        <ele>1133.800048828125</ele>
        <time>2026-06-18T07:28:16.000Z</time>
        <extensions>
          <ns3:TrackPointExtension>
            <ns3:atemp>21.0</ns3:atemp>
          </ns3:TrackPointExtension>
        </extensions>
      </trkpt>
      <trkpt lat="42.53069794736802577972412109375" lon="19.78891767561435699462890625">
        <ele>1133.800048828125</ele>
        <time>2026-06-18T07:28:17.000Z</time>
        <extensions>
          <ns3:TrackPointExtension>
            <ns3:atemp>21.0</ns3:atemp>
          </ns3:TrackPointExtension>
        </extensions>
      </trkpt>
      <trkpt lat="42.530725188553333282470703125" lon="19.78891742415726184844970703125">
        <ele>1134</ele>
        <time>2026-06-18T07:28:18.000Z</time>
        <extensions>
          <ns3:TrackPointExtension>
            <ns3:atemp>21.0</ns3:atemp>
          </ns3:TrackPointExtension>
        </extensions>
      </trkpt>
      <trkpt lat="42.53075108863413333892822265625" lon="19.78891859762370586395263671875">
        <ele>1134.199951171875</ele>
        <time>2026-06-18T07:28:19.000Z</time>
        <extensions>
          <ns3:TrackPointExtension>
            <ns3:atemp>21.0</ns3:atemp>
          </ns3:TrackPointExtension>
        </extensions>
      </trkpt>
      <trkpt lat="42.53077506087720394134521484375" lon="19.7889129817485809326171875">
        <ele>1134.4000244140625</ele>
        <time>2026-06-18T07:28:20.000Z</time>
        <extensions>
          <ns3:TrackPointExtension>
            <ns3:atemp>21.0</ns3:atemp>
          </ns3:TrackPointExtension>
        </extensions>
      </trkpt>
      <trkpt lat="42.53079802729189395904541015625" lon="19.78890937753021717071533203125">
        <ele>1134.4000244140625</ele>
        <time>2026-06-18T07:28:21.000Z</time>
        <extensions>
          <ns3:TrackPointExtension>
            <ns3:atemp>21.0</ns3:atemp>
          </ns3:TrackPointExtension>
        </extensions>
      </trkpt>
      <trkpt lat="42.53082199953496456146240234375" lon="19.788907282054424285888671875">
        <ele>1134.5999755859375</ele>
        <time>2026-06-18T07:28:22.000Z</time>
        <extensions>
          <ns3:TrackPointExtension>
            <ns3:atemp>21.0</ns3:atemp>
          </ns3:TrackPointExtension>
        </extensions>
      </trkpt>
      <trkpt lat="42.53084731288254261016845703125" lon="19.78890401311218738555908203125">
        <ele>1134.800048828125</ele>
        <time>2026-06-18T07:28:23.000Z</time>
        <extensions>
          <ns3:TrackPointExtension>
            <ns3:atemp>21.0</ns3:atemp>
          </ns3:TrackPointExtension>
        </extensions>
      </trkpt>
      <trkpt lat="42.53087178803980350494384765625" lon="19.7888997383415699005126953125">
        <ele>1135</ele>
        <time>2026-06-18T07:28:24.000Z</time>
        <extensions>
          <ns3:TrackPointExtension>
            <ns3:atemp>21.0</ns3:atemp>
          </ns3:TrackPointExtension>
        </extensions>
      </trkpt>
      <trkpt lat="42.5308976881206035614013671875" lon="19.78889730758965015411376953125">
        <ele>1135.4000244140625</ele>
        <time>2026-06-18T07:28:25.000Z</time>
        <extensions>
          <ns3:TrackPointExtension>
            <ns3:atemp>21.0</ns3:atemp>
          </ns3:TrackPointExtension>
        </extensions>
      </trkpt>
      <trkpt lat="42.53092308528721332550048828125" lon="19.7888943739235401153564453125">
        <ele>1135.5999755859375</ele>
        <time>2026-06-18T07:28:26.000Z</time>
        <extensions>
          <ns3:TrackPointExtension>
            <ns3:atemp>21.0</ns3:atemp>
          </ns3:TrackPointExtension>
        </extensions>
      </trkpt>
      <trkpt lat="42.5309459678828716278076171875" lon="19.78888825513422489166259765625">
        <ele>1135.800048828125</ele>
        <time>2026-06-18T07:28:27.000Z</time>
        <extensions>
          <ns3:TrackPointExtension>
            <ns3:atemp>21.0</ns3:atemp>
          </ns3:TrackPointExtension>
        </extensions>
      </trkpt>
      <trkpt lat="42.5309694372117519378662109375" lon="19.78888012468814849853515625">
        <ele>1136</ele>
        <time>2026-06-18T07:28:28.000Z</time>
        <extensions>
          <ns3:TrackPointExtension>
            <ns3:atemp>21.0</ns3:atemp>
          </ns3:TrackPointExtension>
        </extensions>
      </trkpt>
      <trkpt lat="42.53099382854998111724853515625" lon="19.7888685576617717742919921875">
        <ele>1136.199951171875</ele>
        <time>2026-06-18T07:28:29.000Z</time>
        <extensions>
          <ns3:TrackPointExtension>
            <ns3:atemp>21.0</ns3:atemp>
          </ns3:TrackPointExtension>
        </extensions>
      </trkpt>
      <trkpt lat="42.53101796843111515045166015625" lon="19.78885791264474391937255859375">
        <ele>1136.4000244140625</ele>
        <time>2026-06-18T07:28:30.000Z</time>
        <extensions>
          <ns3:TrackPointExtension>
            <ns3:atemp>21.0</ns3:atemp>
          </ns3:TrackPointExtension>
        </extensions>
      </trkpt>
      <trkpt lat="42.5310395099222660064697265625" lon="19.78884634561836719512939453125">
        <ele>1136.5999755859375</ele>
        <time>2026-06-18T07:28:31.000Z</time>
        <extensions>
          <ns3:TrackPointExtension>
            <ns3:atemp>21.0</ns3:atemp>
          </ns3:TrackPointExtension>
        </extensions>
      </trkpt>
      <trkpt lat="42.53106256015598773956298828125" lon="19.78883343748748302459716796875">
        <ele>1136.800048828125</ele>
        <time>2026-06-18T07:28:32.000Z</time>
        <extensions>
          <ns3:TrackPointExtension>
            <ns3:atemp>21.0</ns3:atemp>
          </ns3:TrackPointExtension>
        </extensions>
      </trkpt>
      <trkpt lat="42.53108485601842403411865234375" lon="19.78882606141269207000732421875">
        <ele>1137</ele>
        <time>2026-06-18T07:28:33.000Z</time>
        <extensions>
          <ns3:TrackPointExtension>
            <ns3:atemp>21.0</ns3:atemp>
          </ns3:TrackPointExtension>
        </extensions>
      </trkpt>
      <trkpt lat="42.531106062233448028564453125" lon="19.7888192720711231231689453125">
        <ele>1137.4000244140625</ele>
        <time>2026-06-18T07:28:34.000Z</time>
        <extensions>
          <ns3:TrackPointExtension>
            <ns3:atemp>21.0</ns3:atemp>
          </ns3:TrackPointExtension>
        </extensions>
      </trkpt>
      <trkpt lat="42.5311260111629962921142578125" lon="19.788812734186649322509765625">
        <ele>1137.5999755859375</ele>
        <time>2026-06-18T07:28:35.000Z</time>
        <extensions>
          <ns3:TrackPointExtension>
            <ns3:atemp>21.0</ns3:atemp>
          </ns3:TrackPointExtension>
        </extensions>
      </trkpt>
      <trkpt lat="42.53114604391157627105712890625" lon="19.7888058610260486602783203125">
        <ele>1137.800048828125</ele>
        <time>2026-06-18T07:28:36.000Z</time>
        <extensions>
          <ns3:TrackPointExtension>
            <ns3:atemp>21.0</ns3:atemp>
          </ns3:TrackPointExtension>
        </extensions>
      </trkpt>
      <trkpt lat="42.53116674721240997314453125" lon="19.788801670074462890625">
        <ele>1138</ele>
        <time>2026-06-18T07:28:37.000Z</time>
        <extensions>
          <ns3:TrackPointExtension>
            <ns3:atemp>21.0</ns3:atemp>
          </ns3:TrackPointExtension>
        </extensions>
      </trkpt>
      <trkpt lat="42.53118745051324367523193359375" lon="19.788802675902843475341796875">
        <ele>1138.199951171875</ele>
        <time>2026-06-18T07:28:38.000Z</time>
        <extensions>
          <ns3:TrackPointExtension>
            <ns3:atemp>21.0</ns3:atemp>
          </ns3:TrackPointExtension>
        </extensions>
      </trkpt>
      <trkpt lat="42.53120899200439453125" lon="19.78880636394023895263671875">
        <ele>1138.4000244140625</ele>
        <time>2026-06-18T07:28:39.000Z</time>
        <extensions>
          <ns3:TrackPointExtension>
            <ns3:atemp>21.0</ns3:atemp>
          </ns3:TrackPointExtension>
        </extensions>
      </trkpt>
      <trkpt lat="42.53122500143945217132568359375" lon="19.78880829177796840667724609375">
        <ele>1138.800048828125</ele>
        <time>2026-06-18T07:28:40.000Z</time>
        <extensions>
          <ns3:TrackPointExtension>
            <ns3:atemp>21.0</ns3:atemp>
          </ns3:TrackPointExtension>
        </extensions>
      </trkpt>
      <trkpt lat="42.531242184340953826904296875" lon="19.7888110578060150146484375">
        <ele>1139</ele>
        <time>2026-06-18T07:28:41.000Z</time>
        <extensions>
          <ns3:TrackPointExtension>
            <ns3:atemp>21.0</ns3:atemp>
          </ns3:TrackPointExtension>
        </extensions>
      </trkpt>
      <trkpt lat="42.5312617979943752288818359375" lon="19.78881583549082279205322265625">
        <ele>1139.4000244140625</ele>
        <time>2026-06-18T07:28:42.000Z</time>
        <extensions>
          <ns3:TrackPointExtension>
            <ns3:atemp>21.0</ns3:atemp>
          </ns3:TrackPointExtension>
        </extensions>
      </trkpt>
      <trkpt lat="42.5312819145619869232177734375" lon="19.78882237337529659271240234375">
        <ele>1139.5999755859375</ele>
        <time>2026-06-18T07:28:43.000Z</time>
        <extensions>
          <ns3:TrackPointExtension>
            <ns3:atemp>21.0</ns3:atemp>
          </ns3:TrackPointExtension>
        </extensions>
      </trkpt>
      <trkpt lat="42.53130027092993259429931640625" lon="19.78882782161235809326171875">
        <ele>1140</ele>
        <time>2026-06-18T07:28:44.000Z</time>
        <extensions>
          <ns3:TrackPointExtension>
            <ns3:atemp>21.0</ns3:atemp>
          </ns3:TrackPointExtension>
        </extensions>
      </trkpt>
      <trkpt lat="42.53131963312625885009765625" lon="19.7888400591909885406494140625">
        <ele>1140.199951171875</ele>
        <time>2026-06-18T07:28:45.000Z</time>
        <extensions>
          <ns3:TrackPointExtension>
            <ns3:atemp>21.0</ns3:atemp>
          </ns3:TrackPointExtension>
        </extensions>
      </trkpt>
      <trkpt lat="42.53133497200906276702880859375" lon="19.7888494469225406646728515625">
        <ele>1140.5999755859375</ele>
        <time>2026-06-18T07:28:46.000Z</time>
        <extensions>
          <ns3:TrackPointExtension>
            <ns3:atemp>21.0</ns3:atemp>
          </ns3:TrackPointExtension>
        </extensions>
      </trkpt>
      <trkpt lat="42.53135324455797672271728515625" lon="19.7888591699302196502685546875">
        <ele>1140.800048828125</ele>
        <time>2026-06-18T07:28:47.000Z</time>
        <extensions>
          <ns3:TrackPointExtension>
            <ns3:atemp>21.0</ns3:atemp>
          </ns3:TrackPointExtension>
        </extensions>
      </trkpt>
      <trkpt lat="42.5313721038401126861572265625" lon="19.7888715751469135284423828125">
        <ele>1141.199951171875</ele>
        <time>2026-06-18T07:28:48.000Z</time>
        <extensions>
          <ns3:TrackPointExtension>
            <ns3:atemp>21.0</ns3:atemp>
          </ns3:TrackPointExtension>
        </extensions>
      </trkpt>
      <trkpt lat="42.53139196895062923431396484375" lon="19.78889127261936664581298828125">
        <ele>1141.4000244140625</ele>
        <time>2026-06-18T07:28:49.000Z</time>
        <extensions>
          <ns3:TrackPointExtension>
            <ns3:atemp>21.0</ns3:atemp>
          </ns3:TrackPointExtension>
        </extensions>
      </trkpt>
      <trkpt lat="42.53141275607049465179443359375" lon="19.78890828788280487060546875">
        <ele>1141.5999755859375</ele>
        <time>2026-06-18T07:28:50.000Z</time>
        <extensions>
          <ns3:TrackPointExtension>
            <ns3:atemp>21.0</ns3:atemp>
          </ns3:TrackPointExtension>
        </extensions>
      </trkpt>
      <trkpt lat="42.53143362700939178466796875" lon="19.78892664425075054168701171875">
        <ele>1142</ele>
        <time>2026-06-18T07:28:51.000Z</time>
        <extensions>
          <ns3:TrackPointExtension>
            <ns3:atemp>21.0</ns3:atemp>
          </ns3:TrackPointExtension>
        </extensions>
      </trkpt>
      <trkpt lat="42.53145433031022548675537109375" lon="19.7889436595141887664794921875">
        <ele>1142.199951171875</ele>
        <time>2026-06-18T07:28:52.000Z</time>
        <extensions>
          <ns3:TrackPointExtension>
            <ns3:atemp>21.0</ns3:atemp>
          </ns3:TrackPointExtension>
        </extensions>
      </trkpt>
      <trkpt lat="42.53147520124912261962890625" lon="19.7889594174921512603759765625">
        <ele>1142.4000244140625</ele>
        <time>2026-06-18T07:28:53.000Z</time>
        <extensions>
          <ns3:TrackPointExtension>
            <ns3:atemp>21.0</ns3:atemp>
          </ns3:TrackPointExtension>
        </extensions>
      </trkpt>
      <trkpt lat="42.53149330615997314453125" lon="19.7889738343656063079833984375">
        <ele>1142.5999755859375</ele>
        <time>2026-06-18T07:28:54.000Z</time>
        <extensions>
          <ns3:TrackPointExtension>
            <ns3:atemp>21.0</ns3:atemp>
          </ns3:TrackPointExtension>
        </extensions>
      </trkpt>
      <trkpt lat="42.5315088964998722076416015625" lon="19.7889899276196956634521484375">
        <ele>1143</ele>
        <time>2026-06-18T07:28:55.000Z</time>
        <extensions>
          <ns3:TrackPointExtension>
            <ns3:atemp>21.0</ns3:atemp>
          </ns3:TrackPointExtension>
        </extensions>
      </trkpt>
      <trkpt lat="42.53152641467750072479248046875" lon="19.78900610469281673431396484375">
        <ele>1143.199951171875</ele>
        <time>2026-06-18T07:28:56.000Z</time>
        <extensions>
          <ns3:TrackPointExtension>
            <ns3:atemp>21.0</ns3:atemp>
          </ns3:TrackPointExtension>
        </extensions>
      </trkpt>
      <trkpt lat="42.531541921198368072509765625" lon="19.789013899862766265869140625">
        <ele>1143.4000244140625</ele>
        <time>2026-06-18T07:28:57.000Z</time>
        <extensions>
          <ns3:TrackPointExtension>
            <ns3:atemp>21.0</ns3:atemp>
          </ns3:TrackPointExtension>
        </extensions>
      </trkpt>
      <trkpt lat="42.53156010992825031280517578125" lon="19.78902555070817470550537109375">
        <ele>1143.800048828125</ele>
        <time>2026-06-18T07:28:58.000Z</time>
        <extensions>
          <ns3:TrackPointExtension>
            <ns3:atemp>21.0</ns3:atemp>
          </ns3:TrackPointExtension>
        </extensions>
      </trkpt>
      <trkpt lat="42.53157653845846652984619140625" lon="19.7890358604490756988525390625">
        <ele>1144</ele>
        <time>2026-06-18T07:28:59.000Z</time>
        <extensions>
          <ns3:TrackPointExtension>
            <ns3:atemp>21.0</ns3:atemp>
          </ns3:TrackPointExtension>
        </extensions>
      </trkpt>
      <trkpt lat="42.53159548155963420867919921875" lon="19.78905404917895793914794921875">
        <ele>1144.4000244140625</ele>
        <time>2026-06-18T07:29:00.000Z</time>
        <extensions>
          <ns3:TrackPointExtension>
            <ns3:atemp>21.0</ns3:atemp>
          </ns3:TrackPointExtension>
        </extensions>
      </trkpt>
      <trkpt lat="42.53161258064210414886474609375" lon="19.7890712320804595947265625">
        <ele>1144.5999755859375</ele>
        <time>2026-06-18T07:29:01.000Z</time>
        <extensions>
          <ns3:TrackPointExtension>
            <ns3:atemp>21.0</ns3:atemp>
          </ns3:TrackPointExtension>
        </extensions>
      </trkpt>
      <trkpt lat="42.53163252957165241241455078125" lon="19.78908590041100978851318359375">
        <ele>1144.800048828125</ele>
        <time>2026-06-18T07:29:02.000Z</time>
        <extensions>
          <ns3:TrackPointExtension>
            <ns3:atemp>21.0</ns3:atemp>
          </ns3:TrackPointExtension>
        </extensions>
      </trkpt>
      <trkpt lat="42.53164895810186862945556640625" lon="19.78909478522837162017822265625">
        <ele>1145.199951171875</ele>
        <time>2026-06-18T07:29:03.000Z</time>
        <extensions>
          <ns3:TrackPointExtension>
            <ns3:atemp>21.0</ns3:atemp>
          </ns3:TrackPointExtension>
        </extensions>
      </trkpt>
      <trkpt lat="42.53166371025145053863525390625" lon="19.78910886682569980621337890625">
        <ele>1145.5999755859375</ele>
        <time>2026-06-18T07:29:04.000Z</time>
        <extensions>
          <ns3:TrackPointExtension>
            <ns3:atemp>21.0</ns3:atemp>
          </ns3:TrackPointExtension>
        </extensions>
      </trkpt>
      <trkpt lat="42.531672678887844085693359375" lon="19.78913049213588237762451171875">
        <ele>1145.800048828125</ele>
        <time>2026-06-18T07:29:05.000Z</time>
        <extensions>
          <ns3:TrackPointExtension>
            <ns3:atemp>21.0</ns3:atemp>
          </ns3:TrackPointExtension>
        </extensions>
      </trkpt>
      <trkpt lat="42.53168315626680850982666015625" lon="19.7891475073993206024169921875">
        <ele>1146</ele>
        <time>2026-06-18T07:29:06.000Z</time>
        <extensions>
          <ns3:TrackPointExtension>
            <ns3:atemp>21.0</ns3:atemp>
          </ns3:TrackPointExtension>
        </extensions>
      </trkpt>
      <trkpt lat="42.5316946394741535186767578125" lon="19.78916519321501255035400390625">
        <ele>1146.199951171875</ele>
        <time>2026-06-18T07:29:07.000Z</time>
        <extensions>
          <ns3:TrackPointExtension>
            <ns3:atemp>21.0</ns3:atemp>
          </ns3:TrackPointExtension>
        </extensions>
      </trkpt>
      <trkpt lat="42.5317110680043697357177734375" lon="19.78917625732719898223876953125">
        <ele>1146.5999755859375</ele>
        <time>2026-06-18T07:29:08.000Z</time>
        <extensions>
          <ns3:TrackPointExtension>
            <ns3:atemp>21.0</ns3:atemp>
          </ns3:TrackPointExtension>
        </extensions>
      </trkpt>
      <trkpt lat="42.531729005277156829833984375" lon="19.78918983601033687591552734375">
        <ele>1146.800048828125</ele>
        <time>2026-06-18T07:29:09.000Z</time>
        <extensions>
          <ns3:TrackPointExtension>
            <ns3:atemp>21.0</ns3:atemp>
          </ns3:TrackPointExtension>
        </extensions>
      </trkpt>
      <trkpt lat="42.5317412428557872772216796875" lon="19.78920626454055309295654296875">
        <ele>1147.199951171875</ele>
        <time>2026-06-18T07:29:10.000Z</time>
        <extensions>
          <ns3:TrackPointExtension>
            <ns3:atemp>21.0</ns3:atemp>
          </ns3:TrackPointExtension>
        </extensions>
      </trkpt>
      <trkpt lat="42.531756497919559478759765625" lon="19.7892268002033233642578125">
        <ele>1147.4000244140625</ele>
        <time>2026-06-18T07:29:11.000Z</time>
        <extensions>
          <ns3:TrackPointExtension>
            <ns3:atemp>21.0</ns3:atemp>
          </ns3:TrackPointExtension>
        </extensions>
      </trkpt>
      <trkpt lat="42.53177435137331485748291015625" lon="19.7892363555729389190673828125">
        <ele>1147.800048828125</ele>
        <time>2026-06-18T07:29:12.000Z</time>
        <extensions>
          <ns3:TrackPointExtension>
            <ns3:atemp>21.0</ns3:atemp>
          </ns3:TrackPointExtension>
        </extensions>
      </trkpt>
      <trkpt lat="42.53179195336997509002685546875" lon="19.789249934256076812744140625">
        <ele>1148</ele>
        <time>2026-06-18T07:29:13.000Z</time>
        <extensions>
          <ns3:TrackPointExtension>
            <ns3:atemp>21.0</ns3:atemp>
          </ns3:TrackPointExtension>
        </extensions>
      </trkpt>
      <trkpt lat="42.5318111479282379150390625" lon="19.789265356957912445068359375">
        <ele>1148.4000244140625</ele>
        <time>2026-06-18T07:29:14.000Z</time>
        <extensions>
          <ns3:TrackPointExtension>
            <ns3:atemp>21.0</ns3:atemp>
          </ns3:TrackPointExtension>
        </extensions>
      </trkpt>
      <trkpt lat="42.53183101303875446319580078125" lon="19.78927801363170146942138671875">
        <ele>1148.5999755859375</ele>
        <time>2026-06-18T07:29:15.000Z</time>
        <extensions>
          <ns3:TrackPointExtension>
            <ns3:atemp>21.0</ns3:atemp>
          </ns3:TrackPointExtension>
        </extensions>
      </trkpt>
      <trkpt lat="42.53185364417731761932373046875" lon="19.7892920114099979400634765625">
        <ele>1148.800048828125</ele>
        <time>2026-06-18T07:29:16.000Z</time>
        <extensions>
          <ns3:TrackPointExtension>
            <ns3:atemp>21.0</ns3:atemp>
          </ns3:TrackPointExtension>
        </extensions>
      </trkpt>
      <trkpt lat="42.53187174908816814422607421875" lon="19.7893081046640872955322265625">
        <ele>1149</ele>
        <time>2026-06-18T07:29:17.000Z</time>
        <extensions>
          <ns3:TrackPointExtension>
            <ns3:atemp>21.0</ns3:atemp>
          </ns3:TrackPointExtension>
        </extensions>
      </trkpt>
      <trkpt lat="42.5318907760083675384521484375" lon="19.78932201862335205078125">
        <ele>1149.199951171875</ele>
        <time>2026-06-18T07:29:18.000Z</time>
        <extensions>
          <ns3:TrackPointExtension>
            <ns3:atemp>21.0</ns3:atemp>
          </ns3:TrackPointExtension>
        </extensions>
      </trkpt>
      <trkpt lat="42.53190779127180576324462890625" lon="19.789334423840045928955078125">
        <ele>1149.4000244140625</ele>
        <time>2026-06-18T07:29:19.000Z</time>
        <extensions>
          <ns3:TrackPointExtension>
            <ns3:atemp>21.0</ns3:atemp>
          </ns3:TrackPointExtension>
        </extensions>
      </trkpt>
      <trkpt lat="42.531922794878482818603515625" lon="19.78934993036091327667236328125">
        <ele>1149.5999755859375</ele>
        <time>2026-06-18T07:29:20.000Z</time>
        <extensions>
          <ns3:TrackPointExtension>
            <ns3:atemp>21.0</ns3:atemp>
          </ns3:TrackPointExtension>
        </extensions>
      </trkpt>
      <trkpt lat="42.53194198943674564361572265625" lon="19.78936200030148029327392578125">
        <ele>1149.800048828125</ele>
        <time>2026-06-18T07:29:21.000Z</time>
        <extensions>
          <ns3:TrackPointExtension>
            <ns3:atemp>21.0</ns3:atemp>
          </ns3:TrackPointExtension>
        </extensions>
      </trkpt>
      <trkpt lat="42.53196009434759616851806640625" lon="19.78937021456658840179443359375">
        <ele>1150.199951171875</ele>
        <time>2026-06-18T07:29:22.000Z</time>
        <extensions>
          <ns3:TrackPointExtension>
            <ns3:atemp>21.0</ns3:atemp>
          </ns3:TrackPointExtension>
        </extensions>
      </trkpt>
      <trkpt lat="42.53197543323040008544921875" lon="19.78938312269747257232666015625">
        <ele>1150.4000244140625</ele>
        <time>2026-06-18T07:29:23.000Z</time>
        <extensions>
          <ns3:TrackPointExtension>
            <ns3:atemp>21.0</ns3:atemp>
          </ns3:TrackPointExtension>
        </extensions>
      </trkpt>
      <trkpt lat="42.53199152648448944091796875" lon="19.78939569555222988128662109375">
        <ele>1150.5999755859375</ele>
        <time>2026-06-18T07:29:24.000Z</time>
        <extensions>
          <ns3:TrackPointExtension>
            <ns3:atemp>21.0</ns3:atemp>
          </ns3:TrackPointExtension>
        </extensions>
      </trkpt>
      <trkpt lat="42.5320128165185451507568359375" lon="19.78940851986408233642578125">
        <ele>1150.800048828125</ele>
        <time>2026-06-18T07:29:25.000Z</time>
        <extensions>
          <ns3:TrackPointExtension>
            <ns3:atemp>21.0</ns3:atemp>
          </ns3:TrackPointExtension>
        </extensions>
      </trkpt>
      <trkpt lat="42.5320315919816493988037109375" lon="19.78942536748945713043212890625">
        <ele>1151</ele>
        <time>2026-06-18T07:29:26.000Z</time>
        <extensions>
          <ns3:TrackPointExtension>
            <ns3:atemp>21.0</ns3:atemp>
          </ns3:TrackPointExtension>
        </extensions>
      </trkpt>
      <trkpt lat="42.53204877488315105438232421875" lon="19.78943944908678531646728515625">
        <ele>1151.199951171875</ele>
        <time>2026-06-18T07:29:27.000Z</time>
        <extensions>
          <ns3:TrackPointExtension>
            <ns3:atemp>21.0</ns3:atemp>
          </ns3:TrackPointExtension>
        </extensions>
      </trkpt>
      <trkpt lat="42.5320667959749698638916015625" lon="19.78945076465606689453125">
        <ele>1151.4000244140625</ele>
        <time>2026-06-18T07:29:28.000Z</time>
        <extensions>
          <ns3:TrackPointExtension>
            <ns3:atemp>21.0</ns3:atemp>
          </ns3:TrackPointExtension>
        </extensions>
      </trkpt>
      <trkpt lat="42.53207760863006114959716796875" lon="19.789461158215999603271484375">
        <ele>1151.5999755859375</ele>
        <time>2026-06-18T07:29:29.000Z</time>
        <extensions>
          <ns3:TrackPointExtension>
            <ns3:atemp>21.0</ns3:atemp>
          </ns3:TrackPointExtension>
        </extensions>
      </trkpt>
      <trkpt lat="42.5320942886173725128173828125" lon="19.7894733957946300506591796875">
        <ele>1152</ele>
        <time>2026-06-18T07:29:30.000Z</time>
        <extensions>
          <ns3:TrackPointExtension>
            <ns3:atemp>21.0</ns3:atemp>
          </ns3:TrackPointExtension>
        </extensions>
      </trkpt>
      <trkpt lat="42.53211063332855701446533203125" lon="19.78948705829679965972900390625">
        <ele>1152.199951171875</ele>
        <time>2026-06-18T07:29:31.000Z</time>
        <extensions>
          <ns3:TrackPointExtension>
            <ns3:atemp>21.0</ns3:atemp>
          </ns3:TrackPointExtension>
        </extensions>
      </trkpt>
      <trkpt lat="42.53212831914424896240234375" lon="19.78950734250247478485107421875">
        <ele>1152.5999755859375</ele>
        <time>2026-06-18T07:29:32.000Z</time>
        <extensions>
          <ns3:TrackPointExtension>
            <ns3:atemp>21.0</ns3:atemp>
          </ns3:TrackPointExtension>
        </extensions>
      </trkpt>
      <trkpt lat="42.5321455858647823333740234375" lon="19.78952276520431041717529296875">
        <ele>1153</ele>
        <time>2026-06-18T07:29:33.000Z</time>
        <extensions>
          <ns3:TrackPointExtension>
            <ns3:atemp>21.0</ns3:atemp>
          </ns3:TrackPointExtension>
        </extensions>
      </trkpt>
      <trkpt lat="42.53216209821403026580810546875" lon="19.789534918963909149169921875">
        <ele>1153.199951171875</ele>
        <time>2026-06-18T07:29:34.000Z</time>
        <extensions>
          <ns3:TrackPointExtension>
            <ns3:atemp>21.0</ns3:atemp>
          </ns3:TrackPointExtension>
        </extensions>
      </trkpt>
      <trkpt lat="42.5321777723729610443115234375" lon="19.789553023874759674072265625">
        <ele>1153.5999755859375</ele>
        <time>2026-06-18T07:29:35.000Z</time>
        <extensions>
          <ns3:TrackPointExtension>
            <ns3:atemp>21.0</ns3:atemp>
          </ns3:TrackPointExtension>
        </extensions>
      </trkpt>
      <trkpt lat="42.5321945361793041229248046875" lon="19.789573140442371368408203125">
        <ele>1153.800048828125</ele>
        <time>2026-06-18T07:29:36.000Z</time>
        <extensions>
          <ns3:TrackPointExtension>
            <ns3:atemp>21.0</ns3:atemp>
          </ns3:TrackPointExtension>
        </extensions>
      </trkpt>
      <trkpt lat="42.53221205435693264007568359375" lon="19.789588563144207000732421875">
        <ele>1154</ele>
        <time>2026-06-18T07:29:37.000Z</time>
        <extensions>
          <ns3:TrackPointExtension>
            <ns3:atemp>21.0</ns3:atemp>
          </ns3:TrackPointExtension>
        </extensions>
      </trkpt>
      <trkpt lat="42.53222814761102199554443359375" lon="19.78960859589278697967529296875">
        <ele>1154.4000244140625</ele>
        <time>2026-06-18T07:29:38.000Z</time>
        <extensions>
          <ns3:TrackPointExtension>
            <ns3:atemp>21.0</ns3:atemp>
          </ns3:TrackPointExtension>
        </extensions>
      </trkpt>
      <trkpt lat="42.5322429835796356201171875" lon="19.789628125727176666259765625">
        <ele>1154.800048828125</ele>
        <time>2026-06-18T07:29:39.000Z</time>
        <extensions>
          <ns3:TrackPointExtension>
            <ns3:atemp>21.0</ns3:atemp>
          </ns3:TrackPointExtension>
        </extensions>
      </trkpt>
      <trkpt lat="42.53225295804440975189208984375" lon="19.789647571742534637451171875">
        <ele>1155</ele>
        <time>2026-06-18T07:29:40.000Z</time>
        <extensions>
          <ns3:TrackPointExtension>
            <ns3:atemp>21.0</ns3:atemp>
          </ns3:TrackPointExtension>
        </extensions>
      </trkpt>
      <trkpt lat="42.53226167522370815277099609375" lon="19.7896628268063068389892578125">
        <ele>1155.4000244140625</ele>
        <time>2026-06-18T07:29:41.000Z</time>
        <extensions>
          <ns3:TrackPointExtension>
            <ns3:atemp>21.0</ns3:atemp>
          </ns3:TrackPointExtension>
        </extensions>
      </trkpt>
      <trkpt lat="42.5322750024497509002685546875" lon="19.78967967443168163299560546875">
        <ele>1155.5999755859375</ele>
        <time>2026-06-18T07:29:42.000Z</time>
        <extensions>
          <ns3:TrackPointExtension>
            <ns3:atemp>21.0</ns3:atemp>
          </ns3:TrackPointExtension>
        </extensions>
      </trkpt>
      <trkpt lat="42.53229067660868167877197265625" lon="19.78969953954219818115234375">
        <ele>1155.800048828125</ele>
        <time>2026-06-18T07:29:43.000Z</time>
        <extensions>
          <ns3:TrackPointExtension>
            <ns3:atemp>21.0</ns3:atemp>
          </ns3:TrackPointExtension>
        </extensions>
      </trkpt>
      <trkpt lat="42.532299645245075225830078125" lon="19.78971169330179691314697265625">
        <ele>1156.199951171875</ele>
        <time>2026-06-18T07:29:44.000Z</time>
        <extensions>
          <ns3:TrackPointExtension>
            <ns3:atemp>21.0</ns3:atemp>
          </ns3:TrackPointExtension>
        </extensions>
      </trkpt>
      <trkpt lat="42.5323112122714519500732421875" lon="19.7897201590240001678466796875">
        <ele>1156.5999755859375</ele>
        <time>2026-06-18T07:29:45.000Z</time>
        <extensions>
          <ns3:TrackPointExtension>
            <ns3:atemp>21.0</ns3:atemp>
          </ns3:TrackPointExtension>
        </extensions>
      </trkpt>
      <trkpt lat="42.53232252784073352813720703125" lon="19.78973063640296459197998046875">
        <ele>1156.800048828125</ele>
        <time>2026-06-18T07:29:46.000Z</time>
        <extensions>
          <ns3:TrackPointExtension>
            <ns3:atemp>21.0</ns3:atemp>
          </ns3:TrackPointExtension>
        </extensions>
      </trkpt>
      <trkpt lat="42.53233619034290313720703125" lon="19.78974102996289730072021484375">
        <ele>1157.199951171875</ele>
        <time>2026-06-18T07:29:47.000Z</time>
        <extensions>
          <ns3:TrackPointExtension>
            <ns3:atemp>21.0</ns3:atemp>
          </ns3:TrackPointExtension>
        </extensions>
      </trkpt>
      <trkpt lat="42.53235094249248504638671875" lon="19.78974790312349796295166015625">
        <ele>1157.5999755859375</ele>
        <time>2026-06-18T07:29:48.000Z</time>
        <extensions>
          <ns3:TrackPointExtension>
            <ns3:atemp>21.0</ns3:atemp>
          </ns3:TrackPointExtension>
        </extensions>
      </trkpt>
      <trkpt lat="42.53236376680433750152587890625" lon="19.78975720703601837158203125">
        <ele>1157.800048828125</ele>
        <time>2026-06-18T07:29:49.000Z</time>
        <extensions>
          <ns3:TrackPointExtension>
            <ns3:atemp>21.0</ns3:atemp>
          </ns3:TrackPointExtension>
        </extensions>
      </trkpt>
      <trkpt lat="42.532378770411014556884765625" lon="19.7897664271295070648193359375">
        <ele>1158.199951171875</ele>
        <time>2026-06-18T07:29:50.000Z</time>
        <extensions>
          <ns3:TrackPointExtension>
            <ns3:atemp>21.0</ns3:atemp>
          </ns3:TrackPointExtension>
        </extensions>
      </trkpt>
      <trkpt lat="42.53239997662603855133056640625" lon="19.78977506048977375030517578125">
        <ele>1158.4000244140625</ele>
        <time>2026-06-18T07:29:51.000Z</time>
        <extensions>
          <ns3:TrackPointExtension>
            <ns3:atemp>21.0</ns3:atemp>
          </ns3:TrackPointExtension>
        </extensions>
      </trkpt>
      <trkpt lat="42.53241933882236480712890625" lon="19.789781682193279266357421875">
        <ele>1158.800048828125</ele>
        <time>2026-06-18T07:29:52.000Z</time>
        <extensions>
          <ns3:TrackPointExtension>
            <ns3:atemp>21.0</ns3:atemp>
          </ns3:TrackPointExtension>
        </extensions>
      </trkpt>
      <trkpt lat="42.5324362702667713165283203125" lon="19.78979048319160938262939453125">
        <ele>1159</ele>
        <time>2026-06-18T07:29:53.000Z</time>
        <extensions>
          <ns3:TrackPointExtension>
            <ns3:atemp>21.0</ns3:atemp>
          </ns3:TrackPointExtension>
        </extensions>
      </trkpt>
      <trkpt lat="42.53245890140533447265625" lon="19.78979534469544887542724609375">
        <ele>1159.199951171875</ele>
        <time>2026-06-18T07:29:54.000Z</time>
        <extensions>
          <ns3:TrackPointExtension>
            <ns3:atemp>21.0</ns3:atemp>
          </ns3:TrackPointExtension>
        </extensions>
      </trkpt>
      <trkpt lat="42.5324788503348827362060546875" lon="19.7897992841899394989013671875">
        <ele>1159.4000244140625</ele>
        <time>2026-06-18T07:29:55.000Z</time>
        <extensions>
          <ns3:TrackPointExtension>
            <ns3:atemp>21.0</ns3:atemp>
          </ns3:TrackPointExtension>
        </extensions>
      </trkpt>
      <trkpt lat="42.53250039182603359222412109375" lon="19.78980280458927154541015625">
        <ele>1159.5999755859375</ele>
        <time>2026-06-18T07:29:56.000Z</time>
        <extensions>
          <ns3:TrackPointExtension>
            <ns3:atemp>21.0</ns3:atemp>
          </ns3:TrackPointExtension>
        </extensions>
      </trkpt>
      <trkpt lat="42.53251329995691776275634765625" lon="19.78980288840830326080322265625">
        <ele>1160</ele>
        <time>2026-06-18T07:29:57.000Z</time>
        <extensions>
          <ns3:TrackPointExtension>
            <ns3:atemp>21.0</ns3:atemp>
          </ns3:TrackPointExtension>
        </extensions>
      </trkpt>
      <trkpt lat="42.5325267948210239410400390625" lon="19.78980523534119129180908203125">
        <ele>1160.199951171875</ele>
        <time>2026-06-18T07:29:58.000Z</time>
        <extensions>
          <ns3:TrackPointExtension>
            <ns3:atemp>21.0</ns3:atemp>
          </ns3:TrackPointExtension>
        </extensions>
      </trkpt>
      <trkpt lat="42.53253936767578125" lon="19.78980355896055698394775390625">
        <ele>1160.5999755859375</ele>
        <time>2026-06-18T07:29:59.000Z</time>
        <extensions>
          <ns3:TrackPointExtension>
            <ns3:atemp>21.0</ns3:atemp>
          </ns3:TrackPointExtension>
        </extensions>
      </trkpt>
      <trkpt lat="42.5325568020343780517578125" lon="19.7898002900183200836181640625">
        <ele>1160.800048828125</ele>
        <time>2026-06-18T07:30:00.000Z</time>
        <extensions>
          <ns3:TrackPointExtension>
            <ns3:atemp>21.0</ns3:atemp>
          </ns3:TrackPointExtension>
        </extensions>
      </trkpt>
      <trkpt lat="42.532574571669101715087890625" lon="19.78980406187474727630615234375">
        <ele>1161.199951171875</ele>
        <time>2026-06-18T07:30:01.000Z</time>
        <extensions>
          <ns3:TrackPointExtension>
            <ns3:atemp>21.0</ns3:atemp>
          </ns3:TrackPointExtension>
        </extensions>
      </trkpt>
      <trkpt lat="42.53259510733187198638916015625" lon="19.78979769162833690643310546875">
        <ele>1161.4000244140625</ele>
        <time>2026-06-18T07:30:02.000Z</time>
        <extensions>
          <ns3:TrackPointExtension>
            <ns3:atemp>21.0</ns3:atemp>
          </ns3:TrackPointExtension>
        </extensions>
      </trkpt>
      <trkpt lat="42.53262159414589405059814453125" lon="19.7897962667047977447509765625">
        <ele>1161.800048828125</ele>
        <time>2026-06-18T07:30:03.000Z</time>
        <extensions>
          <ns3:TrackPointExtension>
            <ns3:atemp>21.0</ns3:atemp>
          </ns3:TrackPointExtension>
        </extensions>
      </trkpt>
      <trkpt lat="42.53264238126575946807861328125" lon="19.789791069924831390380859375">
        <ele>1162</ele>
        <time>2026-06-18T07:30:04.000Z</time>
        <extensions>
          <ns3:TrackPointExtension>
            <ns3:atemp>21.0</ns3:atemp>
          </ns3:TrackPointExtension>
        </extensions>
      </trkpt>
      <trkpt lat="42.53265948034822940826416015625" lon="19.78979031555354595184326171875">
        <ele>1162.199951171875</ele>
        <time>2026-06-18T07:30:05.000Z</time>
        <extensions>
          <ns3:TrackPointExtension>
            <ns3:atemp>21.0</ns3:atemp>
          </ns3:TrackPointExtension>
        </extensions>
      </trkpt>
      <trkpt lat="42.532674483954906463623046875" lon="19.78979475796222686767578125">
        <ele>1162.5999755859375</ele>
        <time>2026-06-18T07:30:06.000Z</time>
        <extensions>
          <ns3:TrackPointExtension>
            <ns3:atemp>21.0</ns3:atemp>
          </ns3:TrackPointExtension>
        </extensions>
      </trkpt>
      <trkpt lat="42.53268965519964694976806640625" lon="19.78979417122900485992431640625">
        <ele>1162.800048828125</ele>
        <time>2026-06-18T07:30:07.000Z</time>
        <extensions>
          <ns3:TrackPointExtension>
            <ns3:atemp>21.0</ns3:atemp>
          </ns3:TrackPointExtension>
        </extensions>
      </trkpt>
      <trkpt lat="42.532701976597309112548828125" lon="19.78979048319160938262939453125">
        <ele>1163.199951171875</ele>
        <time>2026-06-18T07:30:08.000Z</time>
        <extensions>
          <ns3:TrackPointExtension>
            <ns3:atemp>21.0</ns3:atemp>
          </ns3:TrackPointExtension>
        </extensions>
      </trkpt>
      <trkpt lat="42.5327165611088275909423828125" lon="19.78978612460196018218994140625">
        <ele>1163.5999755859375</ele>
        <time>2026-06-18T07:30:09.000Z</time>
        <extensions>
          <ns3:TrackPointExtension>
            <ns3:atemp>21.0</ns3:atemp>
          </ns3:TrackPointExtension>
        </extensions>
      </trkpt>
      <trkpt lat="42.53273156471550464630126953125" lon="19.789786376059055328369140625">
        <ele>1163.800048828125</ele>
        <time>2026-06-18T07:30:10.000Z</time>
        <extensions>
          <ns3:TrackPointExtension>
            <ns3:atemp>21.0</ns3:atemp>
          </ns3:TrackPointExtension>
        </extensions>
      </trkpt>
      <trkpt lat="42.53274765796959400177001953125" lon="19.78978428058326244354248046875">
        <ele>1164.199951171875</ele>
        <time>2026-06-18T07:30:11.000Z</time>
        <extensions>
          <ns3:TrackPointExtension>
            <ns3:atemp>21.0</ns3:atemp>
          </ns3:TrackPointExtension>
        </extensions>
      </trkpt>
      <trkpt lat="42.53276266157627105712890625" lon="19.78977908380329608917236328125">
        <ele>1164.4000244140625</ele>
        <time>2026-06-18T07:30:12.000Z</time>
        <extensions>
          <ns3:TrackPointExtension>
            <ns3:atemp>21.0</ns3:atemp>
          </ns3:TrackPointExtension>
        </extensions>
      </trkpt>
      <trkpt lat="42.53277967683970928192138671875" lon="19.78977623395621776580810546875">
        <ele>1164.800048828125</ele>
        <time>2026-06-18T07:30:13.000Z</time>
        <extensions>
          <ns3:TrackPointExtension>
            <ns3:atemp>21.0</ns3:atemp>
          </ns3:TrackPointExtension>
        </extensions>
      </trkpt>
      <trkpt lat="42.53279996104538440704345703125" lon="19.789768941700458526611328125">
        <ele>1165</ele>
        <time>2026-06-18T07:30:14.000Z</time>
        <extensions>
          <ns3:TrackPointExtension>
            <ns3:atemp>21.0</ns3:atemp>
          </ns3:TrackPointExtension>
        </extensions>
      </trkpt>
      <trkpt lat="42.53281806595623493194580078125" lon="19.7897647507488727569580078125">
        <ele>1165.4000244140625</ele>
        <time>2026-06-18T07:30:15.000Z</time>
        <extensions>
          <ns3:TrackPointExtension>
            <ns3:atemp>21.0</ns3:atemp>
          </ns3:TrackPointExtension>
        </extensions>
      </trkpt>
      <trkpt lat="42.532837428152561187744140625" lon="19.789762906730175018310546875">
        <ele>1165.800048828125</ele>
        <time>2026-06-18T07:30:16.000Z</time>
        <extensions>
          <ns3:TrackPointExtension>
            <ns3:atemp>21.0</ns3:atemp>
          </ns3:TrackPointExtension>
        </extensions>
      </trkpt>
      <trkpt lat="42.53285326994955539703369140625" lon="19.78976282291114330291748046875">
        <ele>1166</ele>
        <time>2026-06-18T07:30:17.000Z</time>
        <extensions>
          <ns3:TrackPointExtension>
            <ns3:atemp>21.0</ns3:atemp>
          </ns3:TrackPointExtension>
        </extensions>
      </trkpt>
      <trkpt lat="42.532871626317501068115234375" lon="19.78976567275822162628173828125">
        <ele>1166.4000244140625</ele>
        <time>2026-06-18T07:30:18.000Z</time>
        <extensions>
          <ns3:TrackPointExtension>
            <ns3:atemp>21.0</ns3:atemp>
          </ns3:TrackPointExtension>
        </extensions>
      </trkpt>
      <trkpt lat="42.53289182670414447784423828125" lon="19.78976257145404815673828125">
        <ele>1166.5999755859375</ele>
        <time>2026-06-18T07:30:19.000Z</time>
        <extensions>
          <ns3:TrackPointExtension>
            <ns3:atemp>21.0</ns3:atemp>
          </ns3:TrackPointExtension>
        </extensions>
      </trkpt>
      <trkpt lat="42.53291227854788303375244140625" lon="19.78976282291114330291748046875">
        <ele>1166.800048828125</ele>
        <time>2026-06-18T07:30:20.000Z</time>
        <extensions>
          <ns3:TrackPointExtension>
            <ns3:atemp>21.0</ns3:atemp>
          </ns3:TrackPointExtension>
        </extensions>
      </trkpt>
      <trkpt lat="42.53293440677225589752197265625" lon="19.7897600568830966949462890625">
        <ele>1167.199951171875</ele>
        <time>2026-06-18T07:30:21.000Z</time>
        <extensions>
          <ns3:TrackPointExtension>
            <ns3:atemp>21.0</ns3:atemp>
          </ns3:TrackPointExtension>
        </extensions>
      </trkpt>
      <trkpt lat="42.532950751483440399169921875" lon="19.7897587157785892486572265625">
        <ele>1167.5999755859375</ele>
        <time>2026-06-18T07:30:22.000Z</time>
        <extensions>
          <ns3:TrackPointExtension>
            <ns3:atemp>21.0</ns3:atemp>
          </ns3:TrackPointExtension>
        </extensions>
      </trkpt>
      <trkpt lat="42.5329673476517200469970703125" lon="19.78975611738860607147216796875">
        <ele>1167.800048828125</ele>
        <time>2026-06-18T07:30:23.000Z</time>
        <extensions>
          <ns3:TrackPointExtension>
            <ns3:atemp>21.0</ns3:atemp>
          </ns3:TrackPointExtension>
        </extensions>
      </trkpt>
      <trkpt lat="42.53298796713352203369140625" lon="19.789752177894115447998046875">
        <ele>1168.199951171875</ele>
        <time>2026-06-18T07:30:24.000Z</time>
        <extensions>
          <ns3:TrackPointExtension>
            <ns3:atemp>21.0</ns3:atemp>
          </ns3:TrackPointExtension>
        </extensions>
      </trkpt>
      <trkpt lat="42.53300674259662628173828125" lon="19.7897551953792572021484375">
        <ele>1168.4000244140625</ele>
        <time>2026-06-18T07:30:25.000Z</time>
        <extensions>
          <ns3:TrackPointExtension>
            <ns3:atemp>21.0</ns3:atemp>
          </ns3:TrackPointExtension>
        </extensions>
      </trkpt>
      <trkpt lat="42.5330233387649059295654296875" lon="19.7897580452263355255126953125">
        <ele>1168.800048828125</ele>
        <time>2026-06-18T07:30:26.000Z</time>
        <extensions>
          <ns3:TrackPointExtension>
            <ns3:atemp>21.0</ns3:atemp>
          </ns3:TrackPointExtension>
        </extensions>
      </trkpt>
      <trkpt lat="42.5330370850861072540283203125" lon="19.7897634096443653106689453125">
        <ele>1169.199951171875</ele>
        <time>2026-06-18T07:30:27.000Z</time>
        <extensions>
          <ns3:TrackPointExtension>
            <ns3:atemp>21.0</ns3:atemp>
          </ns3:TrackPointExtension>
        </extensions>
      </trkpt>
      <trkpt lat="42.53305141814053058624267578125" lon="19.78976533748209476470947265625">
        <ele>1169.5999755859375</ele>
        <time>2026-06-18T07:30:28.000Z</time>
        <extensions>
          <ns3:TrackPointExtension>
            <ns3:atemp>21.0</ns3:atemp>
          </ns3:TrackPointExtension>
        </extensions>
      </trkpt>
      <trkpt lat="42.53306851722300052642822265625" lon="19.7897714562714099884033203125">
        <ele>1170</ele>
        <time>2026-06-18T07:30:29.000Z</time>
        <extensions>
          <ns3:TrackPointExtension>
            <ns3:atemp>21.0</ns3:atemp>
          </ns3:TrackPointExtension>
        </extensions>
      </trkpt>
      <trkpt lat="42.5330850295722484588623046875" lon="19.789771623909473419189453125">
        <ele>1170.4000244140625</ele>
        <time>2026-06-18T07:30:30.000Z</time>
        <extensions>
          <ns3:TrackPointExtension>
            <ns3:atemp>21.0</ns3:atemp>
          </ns3:TrackPointExtension>
        </extensions>
      </trkpt>
      <trkpt lat="42.533105313777923583984375" lon="19.78977506048977375030517578125">
        <ele>1170.800048828125</ele>
        <time>2026-06-18T07:30:31.000Z</time>
        <extensions>
          <ns3:TrackPointExtension>
            <ns3:atemp>21.0</ns3:atemp>
          </ns3:TrackPointExtension>
        </extensions>
      </trkpt>
      <trkpt lat="42.5331309624016284942626953125" lon="19.78977841325104236602783203125">
        <ele>1171</ele>
        <time>2026-06-18T07:30:32.000Z</time>
        <extensions>
          <ns3:TrackPointExtension>
            <ns3:atemp>21.0</ns3:atemp>
          </ns3:TrackPointExtension>
        </extensions>
      </trkpt>
      <trkpt lat="42.5331534259021282196044921875" lon="19.789772965013980865478515625">
        <ele>1171.5999755859375</ele>
        <time>2026-06-18T07:30:33.000Z</time>
        <extensions>
          <ns3:TrackPointExtension>
            <ns3:atemp>21.0</ns3:atemp>
          </ns3:TrackPointExtension>
        </extensions>
      </trkpt>
      <trkpt lat="42.5331675074994564056396484375" lon="19.78976030834019184112548828125">
        <ele>1171.800048828125</ele>
        <time>2026-06-18T07:30:34.000Z</time>
        <extensions>
          <ns3:TrackPointExtension>
            <ns3:atemp>21.0</ns3:atemp>
          </ns3:TrackPointExtension>
        </extensions>
      </trkpt>
      <trkpt lat="42.53318368457257747650146484375" lon="19.78974672965705394744873046875">
        <ele>1172.199951171875</ele>
        <time>2026-06-18T07:30:35.000Z</time>
        <extensions>
          <ns3:TrackPointExtension>
            <ns3:atemp>21.0</ns3:atemp>
          </ns3:TrackPointExtension>
        </extensions>
      </trkpt>
      <trkpt lat="42.5331960059702396392822265625" lon="19.78973306715488433837890625">
        <ele>1172.4000244140625</ele>
        <time>2026-06-18T07:30:36.000Z</time>
        <extensions>
          <ns3:TrackPointExtension>
            <ns3:atemp>21.0</ns3:atemp>
          </ns3:TrackPointExtension>
        </extensions>
      </trkpt>
      <trkpt lat="42.53320790827274322509765625" lon="19.789716303348541259765625">
        <ele>1172.800048828125</ele>
        <time>2026-06-18T07:30:37.000Z</time>
        <extensions>
          <ns3:TrackPointExtension>
            <ns3:atemp>21.0</ns3:atemp>
          </ns3:TrackPointExtension>
        </extensions>
      </trkpt>
      <trkpt lat="42.53321872092783451080322265625" lon="19.78970088064670562744140625">
        <ele>1173</ele>
        <time>2026-06-18T07:30:38.000Z</time>
        <extensions>
          <ns3:TrackPointExtension>
            <ns3:atemp>21.0</ns3:atemp>
          </ns3:TrackPointExtension>
        </extensions>
      </trkpt>
      <trkpt lat="42.53322659991681575775146484375" lon="19.78967833332717418670654296875">
        <ele>1173.199951171875</ele>
        <time>2026-06-18T07:30:39.000Z</time>
        <extensions>
          <ns3:TrackPointExtension>
            <ns3:atemp>21.0</ns3:atemp>
          </ns3:TrackPointExtension>
        </extensions>
      </trkpt>
      <trkpt lat="42.53323146142065525054931640625" lon="19.78965955786406993865966796875">
        <ele>1173.5999755859375</ele>
        <time>2026-06-18T07:30:40.000Z</time>
        <extensions>
          <ns3:TrackPointExtension>
            <ns3:atemp>21.0</ns3:atemp>
          </ns3:TrackPointExtension>
        </extensions>
      </trkpt>
      <trkpt lat="42.53323565237224102020263671875" lon="19.78964053094387054443359375">
        <ele>1173.800048828125</ele>
        <time>2026-06-18T07:30:41.000Z</time>
        <extensions>
          <ns3:TrackPointExtension>
            <ns3:atemp>21.0</ns3:atemp>
          </ns3:TrackPointExtension>
        </extensions>
      </trkpt>
      <trkpt lat="42.5332399271428585052490234375" lon="19.78962318040430545806884765625">
        <ele>1174</ele>
        <time>2026-06-18T07:30:42.000Z</time>
        <extensions>
          <ns3:TrackPointExtension>
            <ns3:atemp>20.0</ns3:atemp>
          </ns3:TrackPointExtension>
        </extensions>
      </trkpt>
      <trkpt lat="42.5332439504563808441162109375" lon="19.78960775770246982574462890625">
        <ele>1174.199951171875</ele>
        <time>2026-06-18T07:30:43.000Z</time>
        <extensions>
          <ns3:TrackPointExtension>
            <ns3:atemp>20.0</ns3:atemp>
          </ns3:TrackPointExtension>
        </extensions>
      </trkpt>
      <trkpt lat="42.533249817788600921630859375" lon="19.78958143852651119232177734375">
        <ele>1174.4000244140625</ele>
        <time>2026-06-18T07:30:44.000Z</time>
        <extensions>
          <ns3:TrackPointExtension>
            <ns3:atemp>20.0</ns3:atemp>
          </ns3:TrackPointExtension>
        </extensions>
      </trkpt>
      <trkpt lat="42.5332486443221569061279296875" lon="19.789560399949550628662109375">
        <ele>1174.5999755859375</ele>
        <time>2026-06-18T07:30:45.000Z</time>
        <extensions>
          <ns3:TrackPointExtension>
            <ns3:atemp>20.0</ns3:atemp>
          </ns3:TrackPointExtension>
        </extensions>
      </trkpt>
      <trkpt lat="42.5332489795982837677001953125" lon="19.7895384393632411956787109375">
        <ele>1174.800048828125</ele>
        <time>2026-06-18T07:30:46.000Z</time>
        <extensions>
          <ns3:TrackPointExtension>
            <ns3:atemp>20.0</ns3:atemp>
          </ns3:TrackPointExtension>
        </extensions>
      </trkpt>
      <trkpt lat="42.53324923105537891387939453125" lon="19.78952175937592983245849609375">
        <ele>1175</ele>
        <time>2026-06-18T07:30:47.000Z</time>
        <extensions>
          <ns3:TrackPointExtension>
            <ns3:atemp>20.0</ns3:atemp>
          </ns3:TrackPointExtension>
        </extensions>
      </trkpt>
      <trkpt lat="42.53325208090245723724365234375" lon="19.78950298391282558441162109375">
        <ele>1175.4000244140625</ele>
        <time>2026-06-18T07:30:48.000Z</time>
        <extensions>
          <ns3:TrackPointExtension>
            <ns3:atemp>20.0</ns3:atemp>
          </ns3:TrackPointExtension>
        </extensions>
      </trkpt>
      <trkpt lat="42.53325476311147212982177734375" lon="19.78948295116424560546875">
        <ele>1175.5999755859375</ele>
        <time>2026-06-18T07:30:49.000Z</time>
        <extensions>
          <ns3:TrackPointExtension>
            <ns3:atemp>20.0</ns3:atemp>
          </ns3:TrackPointExtension>
        </extensions>
      </trkpt>
      <trkpt lat="42.533255182206630706787109375" lon="19.78945906274020671844482421875">
        <ele>1175.800048828125</ele>
        <time>2026-06-18T07:30:50.000Z</time>
        <extensions>
          <ns3:TrackPointExtension>
            <ns3:atemp>20.0</ns3:atemp>
          </ns3:TrackPointExtension>
        </extensions>
      </trkpt>
      <trkpt lat="42.5332590378820896148681640625" lon="19.78943743743002414703369140625">
        <ele>1176.199951171875</ele>
        <time>2026-06-18T07:30:51.000Z</time>
        <extensions>
          <ns3:TrackPointExtension>
            <ns3:atemp>20.0</ns3:atemp>
          </ns3:TrackPointExtension>
        </extensions>
      </trkpt>
      <trkpt lat="42.533259205520153045654296875" lon="19.78941849432885646820068359375">
        <ele>1176.4000244140625</ele>
        <time>2026-06-18T07:30:52.000Z</time>
        <extensions>
          <ns3:TrackPointExtension>
            <ns3:atemp>20.0</ns3:atemp>
          </ns3:TrackPointExtension>
        </extensions>
      </trkpt>
      <trkpt lat="42.533260881900787353515625" lon="19.7893976233899593353271484375">
        <ele>1176.5999755859375</ele>
        <time>2026-06-18T07:30:53.000Z</time>
        <extensions>
          <ns3:TrackPointExtension>
            <ns3:atemp>20.0</ns3:atemp>
          </ns3:TrackPointExtension>
        </extensions>
      </trkpt>
      <trkpt lat="42.53326029516756534576416015625" lon="19.78937574662268161773681640625">
        <ele>1176.800048828125</ele>
        <time>2026-06-18T07:30:54.000Z</time>
        <extensions>
          <ns3:TrackPointExtension>
            <ns3:atemp>20.0</ns3:atemp>
          </ns3:TrackPointExtension>
        </extensions>
      </trkpt>
      <trkpt lat="42.533262558281421661376953125" lon="19.78935177437961101531982421875">
        <ele>1177</ele>
        <time>2026-06-18T07:30:55.000Z</time>
        <extensions>
          <ns3:TrackPointExtension>
            <ns3:atemp>20.0</ns3:atemp>
          </ns3:TrackPointExtension>
        </extensions>
      </trkpt>
      <trkpt lat="42.5332684256136417388916015625" lon="19.78932713158428668975830078125">
        <ele>1177.4000244140625</ele>
        <time>2026-06-18T07:30:56.000Z</time>
        <extensions>
          <ns3:TrackPointExtension>
            <ns3:atemp>20.0</ns3:atemp>
          </ns3:TrackPointExtension>
        </extensions>
      </trkpt>
      <trkpt lat="42.53327588550746440887451171875" lon="19.7893059253692626953125">
        <ele>1177.5999755859375</ele>
        <time>2026-06-18T07:30:57.000Z</time>
        <extensions>
          <ns3:TrackPointExtension>
            <ns3:atemp>20.0</ns3:atemp>
          </ns3:TrackPointExtension>
        </extensions>
      </trkpt>
      <trkpt lat="42.5332809984683990478515625" lon="19.78928455151617527008056640625">
        <ele>1177.800048828125</ele>
        <time>2026-06-18T07:30:58.000Z</time>
        <extensions>
          <ns3:TrackPointExtension>
            <ns3:atemp>20.0</ns3:atemp>
          </ns3:TrackPointExtension>
        </extensions>
      </trkpt>
      <trkpt lat="42.53328301012516021728515625" lon="19.7892598249018192291259765625">
        <ele>1178.199951171875</ele>
        <time>2026-06-18T07:30:59.000Z</time>
        <extensions>
          <ns3:TrackPointExtension>
            <ns3:atemp>20.0</ns3:atemp>
          </ns3:TrackPointExtension>
        </extensions>
      </trkpt>
      <trkpt lat="42.53328845836222171783447265625" lon="19.78924088180065155029296875">
        <ele>1178.4000244140625</ele>
        <time>2026-06-18T07:31:00.000Z</time>
        <extensions>
          <ns3:TrackPointExtension>
            <ns3:atemp>20.0</ns3:atemp>
          </ns3:TrackPointExtension>
        </extensions>
      </trkpt>
      <trkpt lat="42.5332939065992832183837890625" lon="19.78921816684305667877197265625">
        <ele>1178.800048828125</ele>
        <time>2026-06-18T07:31:01.000Z</time>
        <extensions>
          <ns3:TrackPointExtension>
            <ns3:atemp>20.0</ns3:atemp>
          </ns3:TrackPointExtension>
        </extensions>
      </trkpt>
      <trkpt lat="42.5333011150360107421875" lon="19.78920090012252330780029296875">
        <ele>1179.199951171875</ele>
        <time>2026-06-18T07:31:02.000Z</time>
        <extensions>
          <ns3:TrackPointExtension>
            <ns3:atemp>20.0</ns3:atemp>
          </ns3:TrackPointExtension>
        </extensions>
      </trkpt>
      <trkpt lat="42.533308826386928558349609375" lon="19.78917910717427730560302734375">
        <ele>1179.5999755859375</ele>
        <time>2026-06-18T07:31:03.000Z</time>
        <extensions>
          <ns3:TrackPointExtension>
            <ns3:atemp>20.0</ns3:atemp>
          </ns3:TrackPointExtension>
        </extensions>
      </trkpt>
      <trkpt lat="42.53331745974719524383544921875" lon="19.78915697894990444183349609375">
        <ele>1179.800048828125</ele>
        <time>2026-06-18T07:31:04.000Z</time>
        <extensions>
          <ns3:TrackPointExtension>
            <ns3:atemp>20.0</ns3:atemp>
          </ns3:TrackPointExtension>
        </extensions>
      </trkpt>
      <trkpt lat="42.53332416526973247528076171875" lon="19.78913451544940471649169921875">
        <ele>1180.199951171875</ele>
        <time>2026-06-18T07:31:05.000Z</time>
        <extensions>
          <ns3:TrackPointExtension>
            <ns3:atemp>20.0</ns3:atemp>
          </ns3:TrackPointExtension>
        </extensions>
      </trkpt>
      <trkpt lat="42.53333522938191890716552734375" lon="19.78911473415791988372802734375">
        <ele>1180.5999755859375</ele>
        <time>2026-06-18T07:31:06.000Z</time>
        <extensions>
          <ns3:TrackPointExtension>
            <ns3:atemp>20.0</ns3:atemp>
          </ns3:TrackPointExtension>
        </extensions>
      </trkpt>
      <trkpt lat="42.533345706760883331298828125" lon="19.78909897617995738983154296875">
        <ele>1180.800048828125</ele>
        <time>2026-06-18T07:31:07.000Z</time>
        <extensions>
          <ns3:TrackPointExtension>
            <ns3:atemp>20.0</ns3:atemp>
          </ns3:TrackPointExtension>
        </extensions>
      </trkpt>
      <trkpt lat="42.5333579443395137786865234375" lon="19.7890784405171871185302734375">
        <ele>1181.199951171875</ele>
        <time>2026-06-18T07:31:08.000Z</time>
        <extensions>
          <ns3:TrackPointExtension>
            <ns3:atemp>20.0</ns3:atemp>
          </ns3:TrackPointExtension>
        </extensions>
      </trkpt>
      <trkpt lat="42.53336942754685878753662109375" lon="19.78906192816793918609619140625">
        <ele>1181.5999755859375</ele>
        <time>2026-06-18T07:31:09.000Z</time>
        <extensions>
          <ns3:TrackPointExtension>
            <ns3:atemp>20.0</ns3:atemp>
          </ns3:TrackPointExtension>
        </extensions>
      </trkpt>
      <trkpt lat="42.53338283859193325042724609375" lon="19.7890462540090084075927734375">
        <ele>1182</ele>
        <time>2026-06-18T07:31:10.000Z</time>
        <extensions>
          <ns3:TrackPointExtension>
            <ns3:atemp>20.0</ns3:atemp>
          </ns3:TrackPointExtension>
        </extensions>
      </trkpt>
      <trkpt lat="42.533395998179912567138671875" lon="19.78903242386877536773681640625">
        <ele>1182.199951171875</ele>
        <time>2026-06-18T07:31:11.000Z</time>
        <extensions>
          <ns3:TrackPointExtension>
            <ns3:atemp>20.0</ns3:atemp>
          </ns3:TrackPointExtension>
        </extensions>
      </trkpt>
      <trkpt lat="42.53340815193951129913330078125" lon="19.7890154086053371429443359375">
        <ele>1182.4000244140625</ele>
        <time>2026-06-18T07:31:12.000Z</time>
        <extensions>
          <ns3:TrackPointExtension>
            <ns3:atemp>20.0</ns3:atemp>
          </ns3:TrackPointExtension>
        </extensions>
      </trkpt>
      <trkpt lat="42.53342206589877605438232421875" lon="19.7890023328363895416259765625">
        <ele>1182.5999755859375</ele>
        <time>2026-06-18T07:31:13.000Z</time>
        <extensions>
          <ns3:TrackPointExtension>
            <ns3:atemp>20.0</ns3:atemp>
          </ns3:TrackPointExtension>
        </extensions>
      </trkpt>
      <trkpt lat="42.5334370695054531097412109375" lon="19.78899051435291767120361328125">
        <ele>1183</ele>
        <time>2026-06-18T07:31:14.000Z</time>
        <extensions>
          <ns3:TrackPointExtension>
            <ns3:atemp>20.0</ns3:atemp>
          </ns3:TrackPointExtension>
        </extensions>
      </trkpt>
      <trkpt lat="42.5334541685879230499267578125" lon="19.7889755107462406158447265625">
        <ele>1183.199951171875</ele>
        <time>2026-06-18T07:31:15.000Z</time>
        <extensions>
          <ns3:TrackPointExtension>
            <ns3:atemp>20.0</ns3:atemp>
          </ns3:TrackPointExtension>
        </extensions>
      </trkpt>
      <trkpt lat="42.5334759615361690521240234375" lon="19.78896603919565677642822265625">
        <ele>1183.4000244140625</ele>
        <time>2026-06-18T07:31:16.000Z</time>
        <extensions>
          <ns3:TrackPointExtension>
            <ns3:atemp>20.0</ns3:atemp>
          </ns3:TrackPointExtension>
        </extensions>
      </trkpt>
      <trkpt lat="42.53349733538925647735595703125" lon="19.78895514272153377532958984375">
        <ele>1183.4000244140625</ele>
        <time>2026-06-18T07:31:17.000Z</time>
        <extensions>
          <ns3:TrackPointExtension>
            <ns3:atemp>20.0</ns3:atemp>
          </ns3:TrackPointExtension>
        </extensions>
      </trkpt>
      <trkpt lat="42.53351770341396331787109375" lon="19.78894340805709362030029296875">
        <ele>1183.5999755859375</ele>
        <time>2026-06-18T07:31:18.000Z</time>
        <extensions>
          <ns3:TrackPointExtension>
            <ns3:atemp>20.0</ns3:atemp>
          </ns3:TrackPointExtension>
        </extensions>
      </trkpt>
      <trkpt lat="42.533537484705448150634765625" lon="19.78893385268747806549072265625">
        <ele>1183.5999755859375</ele>
        <time>2026-06-18T07:31:19.000Z</time>
        <extensions>
          <ns3:TrackPointExtension>
            <ns3:atemp>20.0</ns3:atemp>
          </ns3:TrackPointExtension>
        </extensions>
      </trkpt>
      <trkpt lat="42.53355399705469608306884765625" lon="19.788920693099498748779296875">
        <ele>1183.800048828125</ele>
        <time>2026-06-18T07:31:20.000Z</time>
        <extensions>
          <ns3:TrackPointExtension>
            <ns3:atemp>20.0</ns3:atemp>
          </ns3:TrackPointExtension>
        </extensions>
      </trkpt>
      <trkpt lat="42.53357076086103916168212890625" lon="19.78890971280634403228759765625">
        <ele>1183.800048828125</ele>
        <time>2026-06-18T07:31:21.000Z</time>
        <extensions>
          <ns3:TrackPointExtension>
            <ns3:atemp>20.0</ns3:atemp>
          </ns3:TrackPointExtension>
        </extensions>
      </trkpt>
      <trkpt lat="42.5335867702960968017578125" lon="19.7888947091996669769287109375">
        <ele>1184</ele>
        <time>2026-06-18T07:31:22.000Z</time>
        <extensions>
          <ns3:TrackPointExtension>
            <ns3:atemp>20.0</ns3:atemp>
          </ns3:TrackPointExtension>
        </extensions>
      </trkpt>
      <trkpt lat="42.5336020253598690032958984375" lon="19.7888802923262119293212890625">
        <ele>1184.4000244140625</ele>
        <time>2026-06-18T07:31:23.000Z</time>
        <extensions>
          <ns3:TrackPointExtension>
            <ns3:atemp>20.0</ns3:atemp>
          </ns3:TrackPointExtension>
        </extensions>
      </trkpt>
      <trkpt lat="42.53361568786203861236572265625" lon="19.78886880911886692047119140625">
        <ele>1184.5999755859375</ele>
        <time>2026-06-18T07:31:24.000Z</time>
        <extensions>
          <ns3:TrackPointExtension>
            <ns3:atemp>20.0</ns3:atemp>
          </ns3:TrackPointExtension>
        </extensions>
      </trkpt>
      <trkpt lat="42.53363295458257198333740234375" lon="19.788857661187648773193359375">
        <ele>1184.800048828125</ele>
        <time>2026-06-18T07:31:25.000Z</time>
        <extensions>
          <ns3:TrackPointExtension>
            <ns3:atemp>20.0</ns3:atemp>
          </ns3:TrackPointExtension>
        </extensions>
      </trkpt>
      <trkpt lat="42.5336482934653759002685546875" lon="19.7888511233031749725341796875">
        <ele>1185</ele>
        <time>2026-06-18T07:31:26.000Z</time>
        <extensions>
          <ns3:TrackPointExtension>
            <ns3:atemp>20.0</ns3:atemp>
          </ns3:TrackPointExtension>
        </extensions>
      </trkpt>
      <trkpt lat="42.53366195596754550933837890625" lon="19.78883863426744937896728515625">
        <ele>1185.199951171875</ele>
        <time>2026-06-18T07:31:27.000Z</time>
        <extensions>
          <ns3:TrackPointExtension>
            <ns3:atemp>20.0</ns3:atemp>
          </ns3:TrackPointExtension>
        </extensions>
      </trkpt>
      <trkpt lat="42.5336777977645397186279296875" lon="19.78882706724107265472412109375">
        <ele>1185.4000244140625</ele>
        <time>2026-06-18T07:31:28.000Z</time>
        <extensions>
          <ns3:TrackPointExtension>
            <ns3:atemp>20.0</ns3:atemp>
          </ns3:TrackPointExtension>
        </extensions>
      </trkpt>
      <trkpt lat="42.533695064485073089599609375" lon="19.78880879469215869903564453125">
        <ele>1185.5999755859375</ele>
        <time>2026-06-18T07:31:29.000Z</time>
        <extensions>
          <ns3:TrackPointExtension>
            <ns3:atemp>20.0</ns3:atemp>
          </ns3:TrackPointExtension>
        </extensions>
      </trkpt>
      <trkpt lat="42.533711157739162445068359375" lon="19.78879161179065704345703125">
        <ele>1186</ele>
        <time>2026-06-18T07:31:30.000Z</time>
        <extensions>
          <ns3:TrackPointExtension>
            <ns3:atemp>20.0</ns3:atemp>
          </ns3:TrackPointExtension>
        </extensions>
      </trkpt>
      <trkpt lat="42.53372683189809322357177734375" lon="19.78877677582204341888427734375">
        <ele>1186.199951171875</ele>
        <time>2026-06-18T07:31:31.000Z</time>
        <extensions>
          <ns3:TrackPointExtension>
            <ns3:atemp>20.0</ns3:atemp>
          </ns3:TrackPointExtension>
        </extensions>
      </trkpt>
      <trkpt lat="42.53374594263732433319091796875" lon="19.7887589223682880401611328125">
        <ele>1186.4000244140625</ele>
        <time>2026-06-18T07:31:32.000Z</time>
        <extensions>
          <ns3:TrackPointExtension>
            <ns3:atemp>20.0</ns3:atemp>
          </ns3:TrackPointExtension>
        </extensions>
      </trkpt>
      <trkpt lat="42.5337636284530162811279296875" lon="19.78874626569449901580810546875">
        <ele>1186.5999755859375</ele>
        <time>2026-06-18T07:31:33.000Z</time>
        <extensions>
          <ns3:TrackPointExtension>
            <ns3:atemp>20.0</ns3:atemp>
          </ns3:TrackPointExtension>
        </extensions>
      </trkpt>
      <trkpt lat="42.533780224621295928955078125" lon="19.78873939253389835357666015625">
        <ele>1187</ele>
        <time>2026-06-18T07:31:34.000Z</time>
        <extensions>
          <ns3:TrackPointExtension>
            <ns3:atemp>20.0</ns3:atemp>
          </ns3:TrackPointExtension>
        </extensions>
      </trkpt>
      <trkpt lat="42.53380000591278076171875" lon="19.78872782550752162933349609375">
        <ele>1187.199951171875</ele>
        <time>2026-06-18T07:31:35.000Z</time>
        <extensions>
          <ns3:TrackPointExtension>
            <ns3:atemp>20.0</ns3:atemp>
          </ns3:TrackPointExtension>
        </extensions>
      </trkpt>
      <trkpt lat="42.53382288850843906402587890625" lon="19.78872564621269702911376953125">
        <ele>1187.4000244140625</ele>
        <time>2026-06-18T07:31:36.000Z</time>
        <extensions>
          <ns3:TrackPointExtension>
            <ns3:atemp>20.0</ns3:atemp>
          </ns3:TrackPointExtension>
        </extensions>
      </trkpt>
      <trkpt lat="42.5338477827608585357666015625" lon="19.78872614912688732147216796875">
        <ele>1187.800048828125</ele>
        <time>2026-06-18T07:31:37.000Z</time>
        <extensions>
          <ns3:TrackPointExtension>
            <ns3:atemp>20.0</ns3:atemp>
          </ns3:TrackPointExtension>
        </extensions>
      </trkpt>
      <trkpt lat="42.53386932425200939178466796875" lon="19.7887310944497585296630859375">
        <ele>1188</ele>
        <time>2026-06-18T07:31:38.000Z</time>
        <extensions>
          <ns3:TrackPointExtension>
            <ns3:atemp>20.0</ns3:atemp>
          </ns3:TrackPointExtension>
        </extensions>
      </trkpt>
      <trkpt lat="42.533880807459354400634765625" lon="19.78874123655259609222412109375">
        <ele>1188.199951171875</ele>
        <time>2026-06-18T07:31:39.000Z</time>
        <extensions>
          <ns3:TrackPointExtension>
            <ns3:atemp>20.0</ns3:atemp>
          </ns3:TrackPointExtension>
        </extensions>
      </trkpt>
      <trkpt lat="42.53388625569641590118408203125" lon="19.78874911554157733917236328125">
        <ele>1188.4000244140625</ele>
        <time>2026-06-18T07:31:40.000Z</time>
        <extensions>
          <ns3:TrackPointExtension>
            <ns3:atemp>20.0</ns3:atemp>
          </ns3:TrackPointExtension>
        </extensions>
      </trkpt>
      <trkpt lat="42.533894218504428863525390625" lon="19.78875850327312946319580078125">
        <ele>1188.5999755859375</ele>
        <time>2026-06-18T07:31:41.000Z</time>
        <extensions>
          <ns3:TrackPointExtension>
            <ns3:atemp>20.0</ns3:atemp>
          </ns3:TrackPointExtension>
        </extensions>
      </trkpt>
      <trkpt lat="42.5338952243328094482421875" lon="19.78877174668014049530029296875">
        <ele>1188.800048828125</ele>
        <time>2026-06-18T07:31:42.000Z</time>
        <extensions>
          <ns3:TrackPointExtension>
            <ns3:atemp>20.0</ns3:atemp>
          </ns3:TrackPointExtension>
        </extensions>
      </trkpt>
      <trkpt lat="42.53389933146536350250244140625" lon="19.78878758847713470458984375">
        <ele>1189.199951171875</ele>
        <time>2026-06-18T07:31:43.000Z</time>
        <extensions>
          <ns3:TrackPointExtension>
            <ns3:atemp>20.0</ns3:atemp>
          </ns3:TrackPointExtension>
        </extensions>
      </trkpt>
      <trkpt lat="42.53390201367437839508056640625" lon="19.7888058610260486602783203125">
        <ele>1189.4000244140625</ele>
        <time>2026-06-18T07:31:44.000Z</time>
        <extensions>
          <ns3:TrackPointExtension>
            <ns3:atemp>20.0</ns3:atemp>
          </ns3:TrackPointExtension>
        </extensions>
      </trkpt>
      <trkpt lat="42.53390394151210784912109375" lon="19.7888244688510894775390625">
        <ele>1189.800048828125</ele>
        <time>2026-06-18T07:31:45.000Z</time>
        <extensions>
          <ns3:TrackPointExtension>
            <ns3:atemp>20.0</ns3:atemp>
          </ns3:TrackPointExtension>
        </extensions>
      </trkpt>
      <trkpt lat="42.5339074619114398956298828125" lon="19.78884835727512836456298828125">
        <ele>1190</ele>
        <time>2026-06-18T07:31:46.000Z</time>
        <extensions>
          <ns3:TrackPointExtension>
            <ns3:atemp>20.0</ns3:atemp>
          </ns3:TrackPointExtension>
        </extensions>
      </trkpt>
      <trkpt lat="42.533904947340488433837890625" lon="19.78886897675693035125732421875">
        <ele>1190.4000244140625</ele>
        <time>2026-06-18T07:31:47.000Z</time>
        <extensions>
          <ns3:TrackPointExtension>
            <ns3:atemp>20.0</ns3:atemp>
          </ns3:TrackPointExtension>
        </extensions>
      </trkpt>
      <trkpt lat="42.53390452824532985687255859375" lon="19.788894541561603546142578125">
        <ele>1190.800048828125</ele>
        <time>2026-06-18T07:31:48.000Z</time>
        <extensions>
          <ns3:TrackPointExtension>
            <ns3:atemp>20.0</ns3:atemp>
          </ns3:TrackPointExtension>
        </extensions>
      </trkpt>
      <trkpt lat="42.53390301950275897979736328125" lon="19.788924045860767364501953125">
        <ele>1191.199951171875</ele>
        <time>2026-06-18T07:31:49.000Z</time>
        <extensions>
          <ns3:TrackPointExtension>
            <ns3:atemp>20.0</ns3:atemp>
          </ns3:TrackPointExtension>
        </extensions>
      </trkpt>
      <trkpt lat="42.53390201367437839508056640625" lon="19.7889537177979946136474609375">
        <ele>1191.5999755859375</ele>
        <time>2026-06-18T07:31:50.000Z</time>
        <extensions>
          <ns3:TrackPointExtension>
            <ns3:atemp>20.0</ns3:atemp>
          </ns3:TrackPointExtension>
        </extensions>
      </trkpt>
      <trkpt lat="42.53390335477888584136962890625" lon="19.788970984518527984619140625">
        <ele>1192</ele>
        <time>2026-06-18T07:31:51.000Z</time>
        <extensions>
          <ns3:TrackPointExtension>
            <ns3:atemp>20.0</ns3:atemp>
          </ns3:TrackPointExtension>
        </extensions>
      </trkpt>
      <trkpt lat="42.53390620462596416473388671875" lon="19.78899143636226654052734375">
        <ele>1192.4000244140625</ele>
        <time>2026-06-18T07:31:52.000Z</time>
        <extensions>
          <ns3:TrackPointExtension>
            <ns3:atemp>20.0</ns3:atemp>
          </ns3:TrackPointExtension>
        </extensions>
      </trkpt>
      <trkpt lat="42.533910311758518218994140625" lon="19.7890130616724491119384765625">
        <ele>1192.800048828125</ele>
        <time>2026-06-18T07:31:53.000Z</time>
        <extensions>
          <ns3:TrackPointExtension>
            <ns3:atemp>20.0</ns3:atemp>
          </ns3:TrackPointExtension>
        </extensions>
      </trkpt>
      <trkpt lat="42.5339155085384845733642578125" lon="19.7890425659716129302978515625">
        <ele>1193</ele>
        <time>2026-06-18T07:31:54.000Z</time>
        <extensions>
          <ns3:TrackPointExtension>
            <ns3:atemp>20.0</ns3:atemp>
          </ns3:TrackPointExtension>
        </extensions>
      </trkpt>
      <trkpt lat="42.53392003476619720458984375" lon="19.7890673764050006866455078125">
        <ele>1193.4000244140625</ele>
        <time>2026-06-18T07:31:55.000Z</time>
        <extensions>
          <ns3:TrackPointExtension>
            <ns3:atemp>20.0</ns3:atemp>
          </ns3:TrackPointExtension>
        </extensions>
      </trkpt>
      <trkpt lat="42.53392481245100498199462890625" lon="19.78909042663872241973876953125">
        <ele>1193.5999755859375</ele>
        <time>2026-06-18T07:31:56.000Z</time>
        <extensions>
          <ns3:TrackPointExtension>
            <ns3:atemp>20.0</ns3:atemp>
          </ns3:TrackPointExtension>
        </extensions>
      </trkpt>
      <trkpt lat="42.533932439982891082763671875" lon="19.7891128063201904296875">
        <ele>1194</ele>
        <time>2026-06-18T07:31:57.000Z</time>
        <extensions>
          <ns3:TrackPointExtension>
            <ns3:atemp>20.0</ns3:atemp>
          </ns3:TrackPointExtension>
        </extensions>
      </trkpt>
      <trkpt lat="42.5339373014867305755615234375" lon="19.78913183324038982391357421875">
        <ele>1194.4000244140625</ele>
        <time>2026-06-18T07:31:58.000Z</time>
        <extensions>
          <ns3:TrackPointExtension>
            <ns3:atemp>20.0</ns3:atemp>
          </ns3:TrackPointExtension>
        </extensions>
      </trkpt>
      <trkpt lat="42.5339406542479991912841796875" lon="19.78915228508412837982177734375">
        <ele>1194.5999755859375</ele>
        <time>2026-06-18T07:31:59.000Z</time>
        <extensions>
          <ns3:TrackPointExtension>
            <ns3:atemp>20.0</ns3:atemp>
          </ns3:TrackPointExtension>
        </extensions>
      </trkpt>
      <trkpt lat="42.53394509665668010711669921875" lon="19.7891723178327083587646484375">
        <ele>1194.800048828125</ele>
        <time>2026-06-18T07:32:00.000Z</time>
        <extensions>
          <ns3:TrackPointExtension>
            <ns3:atemp>20.0</ns3:atemp>
          </ns3:TrackPointExtension>
        </extensions>
      </trkpt>
      <trkpt lat="42.5339476950466632843017578125" lon="19.78918857872486114501953125">
        <ele>1195</ele>
        <time>2026-06-18T07:32:01.000Z</time>
        <extensions>
          <ns3:TrackPointExtension>
            <ns3:atemp>20.0</ns3:atemp>
          </ns3:TrackPointExtension>
        </extensions>
      </trkpt>
      <trkpt lat="42.5339517183601856231689453125" lon="19.78920735418796539306640625">
        <ele>1195.4000244140625</ele>
        <time>2026-06-18T07:32:02.000Z</time>
        <extensions>
          <ns3:TrackPointExtension>
            <ns3:atemp>20.0</ns3:atemp>
          </ns3:TrackPointExtension>
        </extensions>
      </trkpt>
      <trkpt lat="42.53396295011043548583984375" lon="19.789230823516845703125">
        <ele>1195.5999755859375</ele>
        <time>2026-06-18T07:32:03.000Z</time>
        <extensions>
          <ns3:TrackPointExtension>
            <ns3:atemp>20.0</ns3:atemp>
          </ns3:TrackPointExtension>
        </extensions>
      </trkpt>
      <trkpt lat="42.53397041000425815582275390625" lon="19.78925219736993312835693359375">
        <ele>1195.800048828125</ele>
        <time>2026-06-18T07:32:04.000Z</time>
        <extensions>
          <ns3:TrackPointExtension>
            <ns3:atemp>20.0</ns3:atemp>
          </ns3:TrackPointExtension>
        </extensions>
      </trkpt>
      <trkpt lat="42.5339808873832225799560546875" lon="19.7892742417752742767333984375">
        <ele>1196</ele>
        <time>2026-06-18T07:32:05.000Z</time>
        <extensions>
          <ns3:TrackPointExtension>
            <ns3:atemp>20.0</ns3:atemp>
          </ns3:TrackPointExtension>
        </extensions>
      </trkpt>
      <trkpt lat="42.5339891016483306884765625" lon="19.78929125703871250152587890625">
        <ele>1196.4000244140625</ele>
        <time>2026-06-18T07:32:06.000Z</time>
        <extensions>
          <ns3:TrackPointExtension>
            <ns3:atemp>20.0</ns3:atemp>
          </ns3:TrackPointExtension>
        </extensions>
      </trkpt>
      <trkpt lat="42.53400159068405628204345703125" lon="19.78931657038629055023193359375">
        <ele>1196.5999755859375</ele>
        <time>2026-06-18T07:32:07.000Z</time>
        <extensions>
          <ns3:TrackPointExtension>
            <ns3:atemp>20.0</ns3:atemp>
          </ns3:TrackPointExtension>
        </extensions>
      </trkpt>
      <trkpt lat="42.53401391208171844482421875" lon="19.78934146463871002197265625">
        <ele>1197</ele>
        <time>2026-06-18T07:32:08.000Z</time>
        <extensions>
          <ns3:TrackPointExtension>
            <ns3:atemp>20.0</ns3:atemp>
          </ns3:TrackPointExtension>
        </extensions>
      </trkpt>
      <trkpt lat="42.53402573056519031524658203125" lon="19.78936367668211460113525390625">
        <ele>1197.199951171875</ele>
        <time>2026-06-18T07:32:09.000Z</time>
        <extensions>
          <ns3:TrackPointExtension>
            <ns3:atemp>20.0</ns3:atemp>
          </ns3:TrackPointExtension>
        </extensions>
      </trkpt>
      <trkpt lat="42.534041069447994232177734375" lon="19.78938731364905834197998046875">
        <ele>1197.5999755859375</ele>
        <time>2026-06-18T07:32:10.000Z</time>
        <extensions>
          <ns3:TrackPointExtension>
            <ns3:atemp>20.0</ns3:atemp>
          </ns3:TrackPointExtension>
        </extensions>
      </trkpt>
      <trkpt lat="42.53405506722629070281982421875" lon="19.78940843604505062103271484375">
        <ele>1198</ele>
        <time>2026-06-18T07:32:11.000Z</time>
        <extensions>
          <ns3:TrackPointExtension>
            <ns3:atemp>20.0</ns3:atemp>
          </ns3:TrackPointExtension>
        </extensions>
      </trkpt>
      <trkpt lat="42.53406931646168231964111328125" lon="19.78943240828812122344970703125">
        <ele>1198.199951171875</ele>
        <time>2026-06-18T07:32:12.000Z</time>
        <extensions>
          <ns3:TrackPointExtension>
            <ns3:atemp>20.0</ns3:atemp>
          </ns3:TrackPointExtension>
        </extensions>
      </trkpt>
      <trkpt lat="42.53408004529774188995361328125" lon="19.78945470415055751800537109375">
        <ele>1198.5999755859375</ele>
        <time>2026-06-18T07:32:13.000Z</time>
        <extensions>
          <ns3:TrackPointExtension>
            <ns3:atemp>20.0</ns3:atemp>
          </ns3:TrackPointExtension>
        </extensions>
      </trkpt>
      <trkpt lat="42.5340921990573406219482421875" lon="19.7894754074513912200927734375">
        <ele>1198.800048828125</ele>
        <time>2026-06-18T07:32:14.000Z</time>
        <extensions>
          <ns3:TrackPointExtension>
            <ns3:atemp>20.0</ns3:atemp>
          </ns3:TrackPointExtension>
        </extensions>
      </trkpt>
      <trkpt lat="42.5341022573411464691162109375" lon="19.7894941829144954681396484375">
        <ele>1199.199951171875</ele>
        <time>2026-06-18T07:32:15.000Z</time>
        <extensions>
          <ns3:TrackPointExtension>
            <ns3:atemp>20.0</ns3:atemp>
          </ns3:TrackPointExtension>
        </extensions>
      </trkpt>
      <trkpt lat="42.5341129861772060394287109375" lon="19.78951555676758289337158203125">
        <ele>1199.5999755859375</ele>
        <time>2026-06-18T07:32:16.000Z</time>
        <extensions>
          <ns3:TrackPointExtension>
            <ns3:atemp>20.0</ns3:atemp>
          </ns3:TrackPointExtension>
        </extensions>
      </trkpt>
      <trkpt lat="42.53412798978388309478759765625" lon="19.7895379364490509033203125">
        <ele>1200</ele>
        <time>2026-06-18T07:32:17.000Z</time>
        <extensions>
          <ns3:TrackPointExtension>
            <ns3:atemp>20.0</ns3:atemp>
          </ns3:TrackPointExtension>
        </extensions>
      </trkpt>
      <trkpt lat="42.534142322838306427001953125" lon="19.7895622439682483673095703125">
        <ele>1200.199951171875</ele>
        <time>2026-06-18T07:32:18.000Z</time>
        <extensions>
          <ns3:TrackPointExtension>
            <ns3:atemp>20.0</ns3:atemp>
          </ns3:TrackPointExtension>
        </extensions>
      </trkpt>
      <trkpt lat="42.5341552309691905975341796875" lon="19.78958797641098499298095703125">
        <ele>1200.5999755859375</ele>
        <time>2026-06-18T07:32:19.000Z</time>
        <extensions>
          <ns3:TrackPointExtension>
            <ns3:atemp>20.0</ns3:atemp>
          </ns3:TrackPointExtension>
        </extensions>
      </trkpt>
      <trkpt lat="42.53416721709072589874267578125" lon="19.7896075062453746795654296875">
        <ele>1200.800048828125</ele>
        <time>2026-06-18T07:32:20.000Z</time>
        <extensions>
          <ns3:TrackPointExtension>
            <ns3:atemp>20.0</ns3:atemp>
          </ns3:TrackPointExtension>
        </extensions>
      </trkpt>
      <trkpt lat="42.53418020904064178466796875" lon="19.78962988592684268951416015625">
        <ele>1201.199951171875</ele>
        <time>2026-06-18T07:32:21.000Z</time>
        <extensions>
          <ns3:TrackPointExtension>
            <ns3:atemp>20.0</ns3:atemp>
          </ns3:TrackPointExtension>
        </extensions>
      </trkpt>
      <trkpt lat="42.53419118933379650115966796875" lon="19.78965201415121555328369140625">
        <ele>1201.4000244140625</ele>
        <time>2026-06-18T07:32:22.000Z</time>
        <extensions>
          <ns3:TrackPointExtension>
            <ns3:atemp>20.0</ns3:atemp>
          </ns3:TrackPointExtension>
        </extensions>
      </trkpt>
      <trkpt lat="42.534201331436634063720703125" lon="19.78967011906206607818603515625">
        <ele>1201.800048828125</ele>
        <time>2026-06-18T07:32:23.000Z</time>
        <extensions>
          <ns3:TrackPointExtension>
            <ns3:atemp>20.0</ns3:atemp>
          </ns3:TrackPointExtension>
        </extensions>
      </trkpt>
      <trkpt lat="42.53421063534915447235107421875" lon="19.78969149291515350341796875">
        <ele>1202</ele>
        <time>2026-06-18T07:32:24.000Z</time>
        <extensions>
          <ns3:TrackPointExtension>
            <ns3:atemp>20.0</ns3:atemp>
          </ns3:TrackPointExtension>
        </extensions>
      </trkpt>
      <trkpt lat="42.53422019071877002716064453125" lon="19.78971571661531925201416015625">
        <ele>1202.199951171875</ele>
        <time>2026-06-18T07:32:25.000Z</time>
        <extensions>
          <ns3:TrackPointExtension>
            <ns3:atemp>20.0</ns3:atemp>
          </ns3:TrackPointExtension>
        </extensions>
      </trkpt>
      <trkpt lat="42.5342310033738613128662109375" lon="19.7897391021251678466796875">
        <ele>1202.4000244140625</ele>
        <time>2026-06-18T07:32:26.000Z</time>
        <extensions>
          <ns3:TrackPointExtension>
            <ns3:atemp>20.0</ns3:atemp>
          </ns3:TrackPointExtension>
        </extensions>
      </trkpt>
      <trkpt lat="42.53424013964831829071044921875" lon="19.7897667624056339263916015625">
        <ele>1202.5999755859375</ele>
        <time>2026-06-18T07:32:27.000Z</time>
        <extensions>
          <ns3:TrackPointExtension>
            <ns3:atemp>20.0</ns3:atemp>
          </ns3:TrackPointExtension>
        </extensions>
      </trkpt>
      <trkpt lat="42.53425070084631443023681640625" lon="19.789791069924831390380859375">
        <ele>1202.800048828125</ele>
        <time>2026-06-18T07:32:28.000Z</time>
        <extensions>
          <ns3:TrackPointExtension>
            <ns3:atemp>20.0</ns3:atemp>
          </ns3:TrackPointExtension>
        </extensions>
      </trkpt>
      <trkpt lat="42.5342600047588348388671875" lon="19.78980774991214275360107421875">
        <ele>1203.199951171875</ele>
        <time>2026-06-18T07:32:29.000Z</time>
        <extensions>
          <ns3:TrackPointExtension>
            <ns3:atemp>20.0</ns3:atemp>
          </ns3:TrackPointExtension>
        </extensions>
      </trkpt>
      <trkpt lat="42.5342695601284503936767578125" lon="19.789820574223995208740234375">
        <ele>1203.4000244140625</ele>
        <time>2026-06-18T07:32:30.000Z</time>
        <extensions>
          <ns3:TrackPointExtension>
            <ns3:atemp>20.0</ns3:atemp>
          </ns3:TrackPointExtension>
        </extensions>
      </trkpt>
      <trkpt lat="42.5342809595167636871337890625" lon="19.78983700275421142578125">
        <ele>1203.800048828125</ele>
        <time>2026-06-18T07:32:31.000Z</time>
        <extensions>
          <ns3:TrackPointExtension>
            <ns3:atemp>20.0</ns3:atemp>
          </ns3:TrackPointExtension>
        </extensions>
      </trkpt>
      <trkpt lat="42.53429596312344074249267578125" lon="19.78985510766506195068359375">
        <ele>1204</ele>
        <time>2026-06-18T07:32:32.000Z</time>
        <extensions>
          <ns3:TrackPointExtension>
            <ns3:atemp>20.0</ns3:atemp>
          </ns3:TrackPointExtension>
        </extensions>
      </trkpt>
      <trkpt lat="42.534314654767513275146484375" lon="19.7898690216243267059326171875">
        <ele>1204.199951171875</ele>
        <time>2026-06-18T07:32:33.000Z</time>
        <extensions>
          <ns3:TrackPointExtension>
            <ns3:atemp>20.0</ns3:atemp>
          </ns3:TrackPointExtension>
        </extensions>
      </trkpt>
      <trkpt lat="42.53432848490774631500244140625" lon="19.78988653980195522308349609375">
        <ele>1204.4000244140625</ele>
        <time>2026-06-18T07:32:34.000Z</time>
        <extensions>
          <ns3:TrackPointExtension>
            <ns3:atemp>20.0</ns3:atemp>
          </ns3:TrackPointExtension>
        </extensions>
      </trkpt>
      <trkpt lat="42.534341476857662200927734375" lon="19.78989995084702968597412109375">
        <ele>1204.5999755859375</ele>
        <time>2026-06-18T07:32:35.000Z</time>
        <extensions>
          <ns3:TrackPointExtension>
            <ns3:atemp>20.0</ns3:atemp>
          </ns3:TrackPointExtension>
        </extensions>
      </trkpt>
      <trkpt lat="42.53435715101659297943115234375" lon="19.78991185314953327178955078125">
        <ele>1204.800048828125</ele>
        <time>2026-06-18T07:32:36.000Z</time>
        <extensions>
          <ns3:TrackPointExtension>
            <ns3:atemp>20.0</ns3:atemp>
          </ns3:TrackPointExtension>
        </extensions>
      </trkpt>
      <trkpt lat="42.53437324427068233489990234375" lon="19.78992124088108539581298828125">
        <ele>1205</ele>
        <time>2026-06-18T07:32:37.000Z</time>
        <extensions>
          <ns3:TrackPointExtension>
            <ns3:atemp>20.0</ns3:atemp>
          </ns3:TrackPointExtension>
        </extensions>
      </trkpt>
      <trkpt lat="42.53438732586801052093505859375" lon="19.78993264026939868927001953125">
        <ele>1205.199951171875</ele>
        <time>2026-06-18T07:32:38.000Z</time>
        <extensions>
          <ns3:TrackPointExtension>
            <ns3:atemp>20.0</ns3:atemp>
          </ns3:TrackPointExtension>
        </extensions>
      </trkpt>
      <trkpt lat="42.53440710715949535369873046875" lon="19.78994320146739482879638671875">
        <ele>1205.4000244140625</ele>
        <time>2026-06-18T07:32:39.000Z</time>
        <extensions>
          <ns3:TrackPointExtension>
            <ns3:atemp>20.0</ns3:atemp>
          </ns3:TrackPointExtension>
        </extensions>
      </trkpt>
      <trkpt lat="42.53442772664129734039306640625" lon="19.78995124809443950653076171875">
        <ele>1205.800048828125</ele>
        <time>2026-06-18T07:32:40.000Z</time>
        <extensions>
          <ns3:TrackPointExtension>
            <ns3:atemp>20.0</ns3:atemp>
          </ns3:TrackPointExtension>
        </extensions>
      </trkpt>
      <trkpt lat="42.53445236943662166595458984375" lon="19.7899481467902660369873046875">
        <ele>1206</ele>
        <time>2026-06-18T07:32:41.000Z</time>
        <extensions>
          <ns3:TrackPointExtension>
            <ns3:atemp>20.0</ns3:atemp>
          </ns3:TrackPointExtension>
        </extensions>
      </trkpt>
      <trkpt lat="42.534472905099391937255859375" lon="19.78995141573250293731689453125">
        <ele>1206.199951171875</ele>
        <time>2026-06-18T07:32:42.000Z</time>
        <extensions>
          <ns3:TrackPointExtension>
            <ns3:atemp>20.0</ns3:atemp>
          </ns3:TrackPointExtension>
        </extensions>
      </trkpt>
      <trkpt lat="42.534488998353481292724609375" lon="19.78995761834084987640380859375">
        <ele>1206.4000244140625</ele>
        <time>2026-06-18T07:32:43.000Z</time>
        <extensions>
          <ns3:TrackPointExtension>
            <ns3:atemp>20.0</ns3:atemp>
          </ns3:TrackPointExtension>
        </extensions>
      </trkpt>
      <trkpt lat="42.5345076061785221099853515625" lon="19.78996566496789455413818359375">
        <ele>1206.5999755859375</ele>
        <time>2026-06-18T07:32:44.000Z</time>
        <extensions>
          <ns3:TrackPointExtension>
            <ns3:atemp>20.0</ns3:atemp>
          </ns3:TrackPointExtension>
        </extensions>
      </trkpt>
      <trkpt lat="42.5345280580222606658935546875" lon="19.7899659164249897003173828125">
        <ele>1206.800048828125</ele>
        <time>2026-06-18T07:32:45.000Z</time>
        <extensions>
          <ns3:TrackPointExtension>
            <ns3:atemp>20.0</ns3:atemp>
          </ns3:TrackPointExtension>
        </extensions>
      </trkpt>
      <trkpt lat="42.53455035388469696044921875" lon="19.7899622283875942230224609375">
        <ele>1207</ele>
        <time>2026-06-18T07:32:46.000Z</time>
        <extensions>
          <ns3:TrackPointExtension>
            <ns3:atemp>20.0</ns3:atemp>
          </ns3:TrackPointExtension>
        </extensions>
      </trkpt>
      <trkpt lat="42.53456938080489635467529296875" lon="19.789965413510799407958984375">
        <ele>1207.4000244140625</ele>
        <time>2026-06-18T07:32:47.000Z</time>
        <extensions>
          <ns3:TrackPointExtension>
            <ns3:atemp>20.0</ns3:atemp>
          </ns3:TrackPointExtension>
        </extensions>
      </trkpt>
      <trkpt lat="42.5345885753631591796875" lon="19.78996901772916316986083984375">
        <ele>1207.5999755859375</ele>
        <time>2026-06-18T07:32:48.000Z</time>
        <extensions>
          <ns3:TrackPointExtension>
            <ns3:atemp>20.0</ns3:atemp>
          </ns3:TrackPointExtension>
        </extensions>
      </trkpt>
      <trkpt lat="42.53460961394011974334716796875" lon="19.7899729572236537933349609375">
        <ele>1207.800048828125</ele>
        <time>2026-06-18T07:32:49.000Z</time>
        <extensions>
          <ns3:TrackPointExtension>
            <ns3:atemp>20.0</ns3:atemp>
          </ns3:TrackPointExtension>
        </extensions>
      </trkpt>
      <trkpt lat="42.5346293114125728607177734375" lon="19.78997136466205120086669921875">
        <ele>1208</ele>
        <time>2026-06-18T07:32:50.000Z</time>
        <extensions>
          <ns3:TrackPointExtension>
            <ns3:atemp>20.0</ns3:atemp>
          </ns3:TrackPointExtension>
        </extensions>
      </trkpt>
      <trkpt lat="42.53464691340923309326171875" lon="19.78997538797557353973388671875">
        <ele>1208.199951171875</ele>
        <time>2026-06-18T07:32:51.000Z</time>
        <extensions>
          <ns3:TrackPointExtension>
            <ns3:atemp>20.0</ns3:atemp>
          </ns3:TrackPointExtension>
        </extensions>
      </trkpt>
      <trkpt lat="42.5346650183200836181640625" lon="19.78998159058392047882080078125">
        <ele>1208.4000244140625</ele>
        <time>2026-06-18T07:32:52.000Z</time>
        <extensions>
          <ns3:TrackPointExtension>
            <ns3:atemp>20.0</ns3:atemp>
          </ns3:TrackPointExtension>
        </extensions>
      </trkpt>
      <trkpt lat="42.5346842966973781585693359375" lon="19.78998846374452114105224609375">
        <ele>1208.5999755859375</ele>
        <time>2026-06-18T07:32:53.000Z</time>
        <extensions>
          <ns3:TrackPointExtension>
            <ns3:atemp>20.0</ns3:atemp>
          </ns3:TrackPointExtension>
        </extensions>
      </trkpt>
      <trkpt lat="42.5347034074366092681884765625" lon="19.7899900563061237335205078125">
        <ele>1208.800048828125</ele>
        <time>2026-06-18T07:32:54.000Z</time>
        <extensions>
          <ns3:TrackPointExtension>
            <ns3:atemp>20.0</ns3:atemp>
          </ns3:TrackPointExtension>
        </extensions>
      </trkpt>
      <trkpt lat="42.53472176380455493927001953125" lon="19.78998963721096515655517578125">
        <ele>1209</ele>
        <time>2026-06-18T07:32:55.000Z</time>
        <extensions>
          <ns3:TrackPointExtension>
            <ns3:atemp>20.0</ns3:atemp>
          </ns3:TrackPointExtension>
        </extensions>
      </trkpt>
      <trkpt lat="42.53473919816315174102783203125" lon="19.79000019840896129608154296875">
        <ele>1209.4000244140625</ele>
        <time>2026-06-18T07:32:56.000Z</time>
        <extensions>
          <ns3:TrackPointExtension>
            <ns3:atemp>20.0</ns3:atemp>
          </ns3:TrackPointExtension>
        </extensions>
      </trkpt>
      <trkpt lat="42.53475981764495372772216796875" lon="19.7900125198066234588623046875">
        <ele>1209.5999755859375</ele>
        <time>2026-06-18T07:32:57.000Z</time>
        <extensions>
          <ns3:TrackPointExtension>
            <ns3:atemp>20.0</ns3:atemp>
          </ns3:TrackPointExtension>
        </extensions>
      </trkpt>
      <trkpt lat="42.53477842546999454498291015625" lon="19.79002165608108043670654296875">
        <ele>1209.800048828125</ele>
        <time>2026-06-18T07:32:58.000Z</time>
        <extensions>
          <ns3:TrackPointExtension>
            <ns3:atemp>20.0</ns3:atemp>
          </ns3:TrackPointExtension>
        </extensions>
      </trkpt>
      <trkpt lat="42.53479183651506900787353515625" lon="19.79003104381263256072998046875">
        <ele>1210</ele>
        <time>2026-06-18T07:32:59.000Z</time>
        <extensions>
          <ns3:TrackPointExtension>
            <ns3:atemp>20.0</ns3:atemp>
          </ns3:TrackPointExtension>
        </extensions>
      </trkpt>
      <trkpt lat="42.53480709157884120941162109375" lon="19.7900373302400112152099609375">
        <ele>1210.4000244140625</ele>
        <time>2026-06-18T07:33:00.000Z</time>
        <extensions>
          <ns3:TrackPointExtension>
            <ns3:atemp>20.0</ns3:atemp>
          </ns3:TrackPointExtension>
        </extensions>
      </trkpt>
      <trkpt lat="42.53482385538518428802490234375" lon="19.7900457121431827545166015625">
        <ele>1210.5999755859375</ele>
        <time>2026-06-18T07:33:01.000Z</time>
        <extensions>
          <ns3:TrackPointExtension>
            <ns3:atemp>20.0</ns3:atemp>
          </ns3:TrackPointExtension>
        </extensions>
      </trkpt>
      <trkpt lat="42.53484003245830535888671875" lon="19.7900556027889251708984375">
        <ele>1210.800048828125</ele>
        <time>2026-06-18T07:33:02.000Z</time>
        <extensions>
          <ns3:TrackPointExtension>
            <ns3:atemp>20.0</ns3:atemp>
          </ns3:TrackPointExtension>
        </extensions>
      </trkpt>
      <trkpt lat="42.5348569639027118682861328125" lon="19.79006557725369930267333984375">
        <ele>1211</ele>
        <time>2026-06-18T07:33:03.000Z</time>
        <extensions>
          <ns3:TrackPointExtension>
            <ns3:atemp>20.0</ns3:atemp>
          </ns3:TrackPointExtension>
        </extensions>
      </trkpt>
      <trkpt lat="42.53487431444227695465087890625" lon="19.790075719356536865234375">
        <ele>1211.4000244140625</ele>
        <time>2026-06-18T07:33:04.000Z</time>
        <extensions>
          <ns3:TrackPointExtension>
            <ns3:atemp>20.0</ns3:atemp>
          </ns3:TrackPointExtension>
        </extensions>
      </trkpt>
      <trkpt lat="42.53488588146865367889404296875" lon="19.7900849394500255584716796875">
        <ele>1211.5999755859375</ele>
        <time>2026-06-18T07:33:05.000Z</time>
        <extensions>
          <ns3:TrackPointExtension>
            <ns3:atemp>20.0</ns3:atemp>
          </ns3:TrackPointExtension>
        </extensions>
      </trkpt>
      <trkpt lat="42.5348998792469501495361328125" lon="19.7900985181331634521484375">
        <ele>1212</ele>
        <time>2026-06-18T07:33:06.000Z</time>
        <extensions>
          <ns3:TrackPointExtension>
            <ns3:atemp>20.0</ns3:atemp>
          </ns3:TrackPointExtension>
        </extensions>
      </trkpt>
      <trkpt lat="42.53491655923426151275634765625" lon="19.7901124320924282073974609375">
        <ele>1212.199951171875</ele>
        <time>2026-06-18T07:33:07.000Z</time>
        <extensions>
          <ns3:TrackPointExtension>
            <ns3:atemp>20.0</ns3:atemp>
          </ns3:TrackPointExtension>
        </extensions>
      </trkpt>
      <trkpt lat="42.53492929972708225250244140625" lon="19.7901275195181369781494140625">
        <ele>1212.4000244140625</ele>
        <time>2026-06-18T07:33:08.000Z</time>
        <extensions>
          <ns3:TrackPointExtension>
            <ns3:atemp>20.0</ns3:atemp>
          </ns3:TrackPointExtension>
        </extensions>
      </trkpt>
      <trkpt lat="42.53494187258183956146240234375" lon="19.79014419950544834136962890625">
        <ele>1212.800048828125</ele>
        <time>2026-06-18T07:33:09.000Z</time>
        <extensions>
          <ns3:TrackPointExtension>
            <ns3:atemp>20.0</ns3:atemp>
          </ns3:TrackPointExtension>
        </extensions>
      </trkpt>
      <trkpt lat="42.534953020513057708740234375" lon="19.7901630587875843048095703125">
        <ele>1213</ele>
        <time>2026-06-18T07:33:10.000Z</time>
        <extensions>
          <ns3:TrackPointExtension>
            <ns3:atemp>20.0</ns3:atemp>
          </ns3:TrackPointExtension>
        </extensions>
      </trkpt>
      <trkpt lat="42.5349659286439418792724609375" lon="19.79018107987940311431884765625">
        <ele>1213.4000244140625</ele>
        <time>2026-06-18T07:33:11.000Z</time>
        <extensions>
          <ns3:TrackPointExtension>
            <ns3:atemp>20.0</ns3:atemp>
          </ns3:TrackPointExtension>
        </extensions>
      </trkpt>
      <trkpt lat="42.53497841767966747283935546875" lon="19.7902039624750614166259765625">
        <ele>1213.800048828125</ele>
        <time>2026-06-18T07:33:12.000Z</time>
        <extensions>
          <ns3:TrackPointExtension>
            <ns3:atemp>20.0</ns3:atemp>
          </ns3:TrackPointExtension>
        </extensions>
      </trkpt>
      <trkpt lat="42.534984536468982696533203125" lon="19.79022768326103687286376953125">
        <ele>1214.199951171875</ele>
        <time>2026-06-18T07:33:13.000Z</time>
        <extensions>
          <ns3:TrackPointExtension>
            <ns3:atemp>20.0</ns3:atemp>
          </ns3:TrackPointExtension>
        </extensions>
      </trkpt>
      <trkpt lat="42.5349924154579639434814453125" lon="19.790245704352855682373046875">
        <ele>1214.4000244140625</ele>
        <time>2026-06-18T07:33:14.000Z</time>
        <extensions>
          <ns3:TrackPointExtension>
            <ns3:atemp>20.0</ns3:atemp>
          </ns3:TrackPointExtension>
        </extensions>
      </trkpt>
      <trkpt lat="42.53500490449368953704833984375" lon="19.79025878012180328369140625">
        <ele>1214.800048828125</ele>
        <time>2026-06-18T07:33:15.000Z</time>
        <extensions>
          <ns3:TrackPointExtension>
            <ns3:atemp>20.0</ns3:atemp>
          </ns3:TrackPointExtension>
        </extensions>
      </trkpt>
      <trkpt lat="42.5350205786526203155517578125" lon="19.7902666591107845306396484375">
        <ele>1215.199951171875</ele>
        <time>2026-06-18T07:33:16.000Z</time>
        <extensions>
          <ns3:TrackPointExtension>
            <ns3:atemp>20.0</ns3:atemp>
          </ns3:TrackPointExtension>
        </extensions>
      </trkpt>
      <trkpt lat="42.53503583371639251708984375" lon="19.790278561413288116455078125">
        <ele>1215.5999755859375</ele>
        <time>2026-06-18T07:33:17.000Z</time>
        <extensions>
          <ns3:TrackPointExtension>
            <ns3:atemp>20.0</ns3:atemp>
          </ns3:TrackPointExtension>
        </extensions>
      </trkpt>
      <trkpt lat="42.535051591694355010986328125" lon="19.7902918048202991485595703125">
        <ele>1216.199951171875</ele>
        <time>2026-06-18T07:33:18.000Z</time>
        <extensions>
          <ns3:TrackPointExtension>
            <ns3:atemp>20.0</ns3:atemp>
          </ns3:TrackPointExtension>
        </extensions>
      </trkpt>
      <trkpt lat="42.5350661762058734893798828125" lon="19.7903018631041049957275390625">
        <ele>1216.4000244140625</ele>
        <time>2026-06-18T07:33:19.000Z</time>
        <extensions>
          <ns3:TrackPointExtension>
            <ns3:atemp>20.0</ns3:atemp>
          </ns3:TrackPointExtension>
        </extensions>
      </trkpt>
      <trkpt lat="42.53507765941321849822998046875" lon="19.79031150229275226593017578125">
        <ele>1216.800048828125</ele>
        <time>2026-06-18T07:33:20.000Z</time>
        <extensions>
          <ns3:TrackPointExtension>
            <ns3:atemp>20.0</ns3:atemp>
          </ns3:TrackPointExtension>
        </extensions>
      </trkpt>
      <trkpt lat="42.53508637659251689910888671875" lon="19.79030999355018138885498046875">
        <ele>1217</ele>
        <time>2026-06-18T07:33:21.000Z</time>
        <extensions>
          <ns3:TrackPointExtension>
            <ns3:atemp>20.0</ns3:atemp>
          </ns3:TrackPointExtension>
        </extensions>
      </trkpt>
      <trkpt lat="42.53509559668600559234619140625" lon="19.790314100682735443115234375">
        <ele>1217.4000244140625</ele>
        <time>2026-06-18T07:33:22.000Z</time>
        <extensions>
          <ns3:TrackPointExtension>
            <ns3:atemp>20.0</ns3:atemp>
          </ns3:TrackPointExtension>
        </extensions>
      </trkpt>
      <trkpt lat="42.53510330803692340850830078125" lon="19.79031485505402088165283203125">
        <ele>1217.5999755859375</ele>
        <time>2026-06-18T07:33:23.000Z</time>
        <extensions>
          <ns3:TrackPointExtension>
            <ns3:atemp>20.0</ns3:atemp>
          </ns3:TrackPointExtension>
        </extensions>
      </trkpt>
      <trkpt lat="42.53511219285428524017333984375" lon="19.7903159447014331817626953125">
        <ele>1218</ele>
        <time>2026-06-18T07:33:24.000Z</time>
        <extensions>
          <ns3:TrackPointExtension>
            <ns3:atemp>20.0</ns3:atemp>
          </ns3:TrackPointExtension>
        </extensions>
      </trkpt>
      <trkpt lat="42.53512158058583736419677734375" lon="19.79032021947205066680908203125">
        <ele>1218.199951171875</ele>
        <time>2026-06-18T07:33:25.000Z</time>
        <extensions>
          <ns3:TrackPointExtension>
            <ns3:atemp>20.0</ns3:atemp>
          </ns3:TrackPointExtension>
        </extensions>
      </trkpt>
      <trkpt lat="42.5351317226886749267578125" lon="19.790322482585906982421875">
        <ele>1218.4000244140625</ele>
        <time>2026-06-18T07:33:26.000Z</time>
        <extensions>
          <ns3:TrackPointExtension>
            <ns3:atemp>20.0</ns3:atemp>
          </ns3:TrackPointExtension>
        </extensions>
      </trkpt>
      <trkpt lat="42.535143792629241943359375" lon="19.79032139293849468231201171875">
        <ele>1218.5999755859375</ele>
        <time>2026-06-18T07:33:27.000Z</time>
        <extensions>
          <ns3:TrackPointExtension>
            <ns3:atemp>20.0</ns3:atemp>
          </ns3:TrackPointExtension>
        </extensions>
      </trkpt>
      <trkpt lat="42.53515393473207950592041015625" lon="19.7903216443955898284912109375">
        <ele>1218.800048828125</ele>
        <time>2026-06-18T07:33:28.000Z</time>
        <extensions>
          <ns3:TrackPointExtension>
            <ns3:atemp>20.0</ns3:atemp>
          </ns3:TrackPointExtension>
        </extensions>
      </trkpt>
      <trkpt lat="42.53516726195812225341796875" lon="19.790321476757526397705078125">
        <ele>1219</ele>
        <time>2026-06-18T07:33:29.000Z</time>
        <extensions>
          <ns3:TrackPointExtension>
            <ns3:atemp>20.0</ns3:atemp>
          </ns3:TrackPointExtension>
        </extensions>
      </trkpt>
      <trkpt lat="42.53518159501254558563232421875" lon="19.790316782891750335693359375">
        <ele>1219.199951171875</ele>
        <time>2026-06-18T07:33:30.000Z</time>
        <extensions>
          <ns3:TrackPointExtension>
            <ns3:atemp>20.0</ns3:atemp>
          </ns3:TrackPointExtension>
        </extensions>
      </trkpt>
      <trkpt lat="42.53519408404827117919921875" lon="19.79031586088240146636962890625">
        <ele>1219.4000244140625</ele>
        <time>2026-06-18T07:33:31.000Z</time>
        <extensions>
          <ns3:TrackPointExtension>
            <ns3:atemp>20.0</ns3:atemp>
          </ns3:TrackPointExtension>
        </extensions>
      </trkpt>
      <trkpt lat="42.53519752062857151031494140625" lon="19.79032005183398723602294921875">
        <ele>1219.5999755859375</ele>
        <time>2026-06-18T07:33:32.000Z</time>
        <extensions>
          <ns3:TrackPointExtension>
            <ns3:atemp>20.0</ns3:atemp>
          </ns3:TrackPointExtension>
        </extensions>
      </trkpt>
      <trkpt lat="42.53519768826663494110107421875" lon="19.79032005183398723602294921875">
        <ele>1219.800048828125</ele>
        <time>2026-06-18T07:33:33.000Z</time>
        <extensions>
          <ns3:TrackPointExtension>
            <ns3:atemp>20.0</ns3:atemp>
          </ns3:TrackPointExtension>
        </extensions>
      </trkpt>
      <trkpt lat="42.5352029688656330108642578125" lon="19.79032206349074840545654296875">
        <ele>1220</ele>
        <time>2026-06-18T07:33:34.000Z</time>
        <extensions>
          <ns3:TrackPointExtension>
            <ns3:atemp>20.0</ns3:atemp>
          </ns3:TrackPointExtension>
        </extensions>
      </trkpt>
      <trkpt lat="42.5352029688656330108642578125" lon="19.79032206349074840545654296875">
        <ele>1220.199951171875</ele>
        <time>2026-06-18T07:33:35.000Z</time>
        <extensions>
          <ns3:TrackPointExtension>
            <ns3:atemp>20.0</ns3:atemp>
          </ns3:TrackPointExtension>
        </extensions>
      </trkpt>
      <trkpt lat="42.5352029688656330108642578125" lon="19.79032206349074840545654296875">
        <ele>1220.199951171875</ele>
        <time>2026-06-18T07:33:36.000Z</time>
        <extensions>
          <ns3:TrackPointExtension>
            <ns3:atemp>20.0</ns3:atemp>
          </ns3:TrackPointExtension>
        </extensions>
      </trkpt>
      <trkpt lat="42.5352029688656330108642578125" lon="19.79032206349074840545654296875">
        <ele>1220.199951171875</ele>
        <time>2026-06-18T07:33:37.000Z</time>
        <extensions>
          <ns3:TrackPointExtension>
            <ns3:atemp>20.0</ns3:atemp>
          </ns3:TrackPointExtension>
        </extensions>
      </trkpt>
      <trkpt lat="42.5352029688656330108642578125" lon="19.79032206349074840545654296875">
        <ele>1220.4000244140625</ele>
        <time>2026-06-18T07:33:38.000Z</time>
        <extensions>
          <ns3:TrackPointExtension>
            <ns3:atemp>20.0</ns3:atemp>
          </ns3:TrackPointExtension>
        </extensions>
      </trkpt>
      <trkpt lat="42.5352029688656330108642578125" lon="19.79032206349074840545654296875">
        <ele>1220.199951171875</ele>
        <time>2026-06-18T07:33:39.000Z</time>
        <extensions>
          <ns3:TrackPointExtension>
            <ns3:atemp>20.0</ns3:atemp>
          </ns3:TrackPointExtension>
        </extensions>
      </trkpt>
      <trkpt lat="42.5352029688656330108642578125" lon="19.79032206349074840545654296875">
        <ele>1220.199951171875</ele>
        <time>2026-06-18T07:33:40.000Z</time>
        <extensions>
          <ns3:TrackPointExtension>
            <ns3:atemp>20.0</ns3:atemp>
          </ns3:TrackPointExtension>
        </extensions>
      </trkpt>
      <trkpt lat="42.5352041423320770263671875" lon="19.7903219796717166900634765625">
        <ele>1220.199951171875</ele>
        <time>2026-06-18T07:33:41.000Z</time>
        <extensions>
          <ns3:TrackPointExtension>
            <ns3:atemp>20.0</ns3:atemp>
          </ns3:TrackPointExtension>
        </extensions>
      </trkpt>
      <trkpt lat="42.5352160446345806121826171875" lon="19.7903203032910823822021484375">
        <ele>1220.199951171875</ele>
        <time>2026-06-18T07:33:42.000Z</time>
        <extensions>
          <ns3:TrackPointExtension>
            <ns3:atemp>20.0</ns3:atemp>
          </ns3:TrackPointExtension>
        </extensions>
      </trkpt>
      <trkpt lat="42.535225264728069305419921875" lon="19.79031778872013092041015625">
        <ele>1220.199951171875</ele>
        <time>2026-06-18T07:33:43.000Z</time>
        <extensions>
          <ns3:TrackPointExtension>
            <ns3:atemp>20.0</ns3:atemp>
          </ns3:TrackPointExtension>
        </extensions>
      </trkpt>
      <trkpt lat="42.535232640802860260009765625" lon="19.79031686671078205108642578125">
        <ele>1220.4000244140625</ele>
        <time>2026-06-18T07:33:44.000Z</time>
        <extensions>
          <ns3:TrackPointExtension>
            <ns3:atemp>20.0</ns3:atemp>
          </ns3:TrackPointExtension>
        </extensions>
      </trkpt>
      <trkpt lat="42.5352443754673004150390625" lon="19.7903169505298137664794921875">
        <ele>1220.4000244140625</ele>
        <time>2026-06-18T07:33:45.000Z</time>
        <extensions>
          <ns3:TrackPointExtension>
            <ns3:atemp>20.0</ns3:atemp>
          </ns3:TrackPointExtension>
        </extensions>
      </trkpt>
      <trkpt lat="42.53525367937982082366943359375" lon="19.79032047092914581298828125">
        <ele>1220.5999755859375</ele>
        <time>2026-06-18T07:33:46.000Z</time>
        <extensions>
          <ns3:TrackPointExtension>
            <ns3:atemp>20.0</ns3:atemp>
          </ns3:TrackPointExtension>
        </extensions>
      </trkpt>
      <trkpt lat="42.53526809625327587127685546875" lon="19.79031820781528949737548828125">
        <ele>1220.5999755859375</ele>
        <time>2026-06-18T07:33:47.000Z</time>
        <extensions>
          <ns3:TrackPointExtension>
            <ns3:atemp>20.0</ns3:atemp>
          </ns3:TrackPointExtension>
        </extensions>
      </trkpt>
      <trkpt lat="42.5352810882031917572021484375" lon="19.79031636379659175872802734375">
        <ele>1220.800048828125</ele>
        <time>2026-06-18T07:33:48.000Z</time>
        <extensions>
          <ns3:TrackPointExtension>
            <ns3:atemp>20.0</ns3:atemp>
          </ns3:TrackPointExtension>
        </extensions>
      </trkpt>
      <trkpt lat="42.535290978848934173583984375" lon="19.79031485505402088165283203125">
        <ele>1221</ele>
        <time>2026-06-18T07:33:49.000Z</time>
        <extensions>
          <ns3:TrackPointExtension>
            <ns3:atemp>20.0</ns3:atemp>
          </ns3:TrackPointExtension>
        </extensions>
      </trkpt>
      <trkpt lat="42.53530128858983516693115234375" lon="19.79031451977789402008056640625">
        <ele>1221.199951171875</ele>
        <time>2026-06-18T07:33:50.000Z</time>
        <extensions>
          <ns3:TrackPointExtension>
            <ns3:atemp>20.0</ns3:atemp>
          </ns3:TrackPointExtension>
        </extensions>
      </trkpt>
      <trkpt lat="42.5353122688829898834228515625" lon="19.7903166152536869049072265625">
        <ele>1221.4000244140625</ele>
        <time>2026-06-18T07:33:51.000Z</time>
        <extensions>
          <ns3:TrackPointExtension>
            <ns3:atemp>20.0</ns3:atemp>
          </ns3:TrackPointExtension>
        </extensions>
      </trkpt>
      <trkpt lat="42.535323165357112884521484375" lon="19.7903236560523509979248046875">
        <ele>1221.5999755859375</ele>
        <time>2026-06-18T07:33:52.000Z</time>
        <extensions>
          <ns3:TrackPointExtension>
            <ns3:atemp>20.0</ns3:atemp>
          </ns3:TrackPointExtension>
        </extensions>
      </trkpt>
      <trkpt lat="42.53533045761287212371826171875" lon="19.79032591916620731353759765625">
        <ele>1222</ele>
        <time>2026-06-18T07:33:53.000Z</time>
        <extensions>
          <ns3:TrackPointExtension>
            <ns3:atemp>20.0</ns3:atemp>
          </ns3:TrackPointExtension>
        </extensions>
      </trkpt>
      <trkpt lat="42.53534160554409027099609375" lon="19.79032793082296848297119140625">
        <ele>1222</ele>
        <time>2026-06-18T07:33:54.000Z</time>
        <extensions>
          <ns3:TrackPointExtension>
            <ns3:atemp>20.0</ns3:atemp>
          </ns3:TrackPointExtension>
        </extensions>
      </trkpt>
      <trkpt lat="42.535353004932403564453125" lon="19.7903320379555225372314453125">
        <ele>1222.4000244140625</ele>
        <time>2026-06-18T07:33:55.000Z</time>
        <extensions>
          <ns3:TrackPointExtension>
            <ns3:atemp>20.0</ns3:atemp>
          </ns3:TrackPointExtension>
        </extensions>
      </trkpt>
      <trkpt lat="42.5353639014065265655517578125" lon="19.79033564217388629913330078125">
        <ele>1222.5999755859375</ele>
        <time>2026-06-18T07:33:56.000Z</time>
        <extensions>
          <ns3:TrackPointExtension>
            <ns3:atemp>20.0</ns3:atemp>
          </ns3:TrackPointExtension>
        </extensions>
      </trkpt>
      <trkpt lat="42.53537404350936412811279296875" lon="19.79034234769642353057861328125">
        <ele>1222.800048828125</ele>
        <time>2026-06-18T07:33:57.000Z</time>
        <extensions>
          <ns3:TrackPointExtension>
            <ns3:atemp>20.0</ns3:atemp>
          </ns3:TrackPointExtension>
        </extensions>
      </trkpt>
      <trkpt lat="42.5353863649070262908935546875" lon="19.7903461195528507232666015625">
        <ele>1223</ele>
        <time>2026-06-18T07:33:58.000Z</time>
        <extensions>
          <ns3:TrackPointExtension>
            <ns3:atemp>20.0</ns3:atemp>
          </ns3:TrackPointExtension>
        </extensions>
      </trkpt>
      <trkpt lat="42.5354026257991790771484375" lon="19.79034586809575557708740234375">
        <ele>1223.4000244140625</ele>
        <time>2026-06-18T07:33:59.000Z</time>
        <extensions>
          <ns3:TrackPointExtension>
            <ns3:atemp>20.0</ns3:atemp>
          </ns3:TrackPointExtension>
        </extensions>
      </trkpt>
      <trkpt lat="42.53541964106261730194091796875" lon="19.79034720920026302337646484375">
        <ele>1223.5999755859375</ele>
        <time>2026-06-18T07:34:00.000Z</time>
        <extensions>
          <ns3:TrackPointExtension>
            <ns3:atemp>20.0</ns3:atemp>
          </ns3:TrackPointExtension>
        </extensions>
      </trkpt>
      <trkpt lat="42.535435147583484649658203125" lon="19.79035022668540477752685546875">
        <ele>1224</ele>
        <time>2026-06-18T07:34:01.000Z</time>
        <extensions>
          <ns3:TrackPointExtension>
            <ns3:atemp>20.0</ns3:atemp>
          </ns3:TrackPointExtension>
        </extensions>
      </trkpt>
      <trkpt lat="42.53545115701854228973388671875" lon="19.79035022668540477752685546875">
        <ele>1224.4000244140625</ele>
        <time>2026-06-18T07:34:02.000Z</time>
        <extensions>
          <ns3:TrackPointExtension>
            <ns3:atemp>20.0</ns3:atemp>
          </ns3:TrackPointExtension>
        </extensions>
      </trkpt>
      <trkpt lat="42.5354721955955028533935546875" lon="19.79035357944667339324951171875">
        <ele>1224.800048828125</ele>
        <time>2026-06-18T07:34:03.000Z</time>
        <extensions>
          <ns3:TrackPointExtension>
            <ns3:atemp>20.0</ns3:atemp>
          </ns3:TrackPointExtension>
        </extensions>
      </trkpt>
      <trkpt lat="42.53549038432538509368896484375" lon="19.79036296717822551727294921875">
        <ele>1225</ele>
        <time>2026-06-18T07:34:04.000Z</time>
        <extensions>
          <ns3:TrackPointExtension>
            <ns3:atemp>20.0</ns3:atemp>
          </ns3:TrackPointExtension>
        </extensions>
      </trkpt>
      <trkpt lat="42.53551301546394824981689453125" lon="19.79037084616720676422119140625">
        <ele>1225.4000244140625</ele>
        <time>2026-06-18T07:34:05.000Z</time>
        <extensions>
          <ns3:TrackPointExtension>
            <ns3:atemp>20.0</ns3:atemp>
          </ns3:TrackPointExtension>
        </extensions>
      </trkpt>
      <trkpt lat="42.53553204238414764404296875" lon="19.790376126766204833984375">
        <ele>1225.5999755859375</ele>
        <time>2026-06-18T07:34:06.000Z</time>
        <extensions>
          <ns3:TrackPointExtension>
            <ns3:atemp>20.0</ns3:atemp>
          </ns3:TrackPointExtension>
        </extensions>
      </trkpt>
      <trkpt lat="42.53554889000952243804931640625" lon="19.7903836704790592193603515625">
        <ele>1226</ele>
        <time>2026-06-18T07:34:07.000Z</time>
        <extensions>
          <ns3:TrackPointExtension>
            <ns3:atemp>20.0</ns3:atemp>
          </ns3:TrackPointExtension>
        </extensions>
      </trkpt>
      <trkpt lat="42.5355677492916584014892578125" lon="19.790387861430644989013671875">
        <ele>1226.199951171875</ele>
        <time>2026-06-18T07:34:08.000Z</time>
        <extensions>
          <ns3:TrackPointExtension>
            <ns3:atemp>20.0</ns3:atemp>
          </ns3:TrackPointExtension>
        </extensions>
      </trkpt>
      <trkpt lat="42.535587362945079803466796875" lon="19.79039230383932590484619140625">
        <ele>1226.4000244140625</ele>
        <time>2026-06-18T07:34:09.000Z</time>
        <extensions>
          <ns3:TrackPointExtension>
            <ns3:atemp>20.0</ns3:atemp>
          </ns3:TrackPointExtension>
        </extensions>
      </trkpt>
      <trkpt lat="42.5356056354939937591552734375" lon="19.79039280675351619720458984375">
        <ele>1226.800048828125</ele>
        <time>2026-06-18T07:34:10.000Z</time>
        <extensions>
          <ns3:TrackPointExtension>
            <ns3:atemp>20.0</ns3:atemp>
          </ns3:TrackPointExtension>
        </extensions>
      </trkpt>
      <trkpt lat="42.53562147729098796844482421875" lon="19.79039079509675502777099609375">
        <ele>1227</ele>
        <time>2026-06-18T07:34:11.000Z</time>
        <extensions>
          <ns3:TrackPointExtension>
            <ns3:atemp>20.0</ns3:atemp>
          </ns3:TrackPointExtension>
        </extensions>
      </trkpt>
      <trkpt lat="42.535638324916362762451171875" lon="19.79039062745869159698486328125">
        <ele>1227.199951171875</ele>
        <time>2026-06-18T07:34:12.000Z</time>
        <extensions>
          <ns3:TrackPointExtension>
            <ns3:atemp>20.0</ns3:atemp>
          </ns3:TrackPointExtension>
        </extensions>
      </trkpt>
      <trkpt lat="42.53565651364624500274658203125" lon="19.7903910465538501739501953125">
        <ele>1227.4000244140625</ele>
        <time>2026-06-18T07:34:13.000Z</time>
        <extensions>
          <ns3:TrackPointExtension>
            <ns3:atemp>20.0</ns3:atemp>
          </ns3:TrackPointExtension>
        </extensions>
      </trkpt>
      <trkpt lat="42.53567554056644439697265625" lon="19.79039213620126247406005859375">
        <ele>1227.800048828125</ele>
        <time>2026-06-18T07:34:14.000Z</time>
        <extensions>
          <ns3:TrackPointExtension>
            <ns3:atemp>20.0</ns3:atemp>
          </ns3:TrackPointExtension>
        </extensions>
      </trkpt>
      <trkpt lat="42.53569071181118488311767578125" lon="19.7903937287628650665283203125">
        <ele>1228</ele>
        <time>2026-06-18T07:34:15.000Z</time>
        <extensions>
          <ns3:TrackPointExtension>
            <ns3:atemp>20.0</ns3:atemp>
          </ns3:TrackPointExtension>
        </extensions>
      </trkpt>
      <trkpt lat="42.535708732903003692626953125" lon="19.790387861430644989013671875">
        <ele>1228.199951171875</ele>
        <time>2026-06-18T07:34:16.000Z</time>
        <extensions>
          <ns3:TrackPointExtension>
            <ns3:atemp>20.0</ns3:atemp>
          </ns3:TrackPointExtension>
        </extensions>
      </trkpt>
      <trkpt lat="42.5357256643474102020263671875" lon="19.7903803177177906036376953125">
        <ele>1228.4000244140625</ele>
        <time>2026-06-18T07:34:17.000Z</time>
        <extensions>
          <ns3:TrackPointExtension>
            <ns3:atemp>20.0</ns3:atemp>
          </ns3:TrackPointExtension>
        </extensions>
      </trkpt>
      <trkpt lat="42.53574703820049762725830078125" lon="19.79038174264132976531982421875">
        <ele>1228.800048828125</ele>
        <time>2026-06-18T07:34:18.000Z</time>
        <extensions>
          <ns3:TrackPointExtension>
            <ns3:atemp>20.0</ns3:atemp>
          </ns3:TrackPointExtension>
        </extensions>
      </trkpt>
      <trkpt lat="42.53576849587261676788330078125" lon="19.79037520475685596466064453125">
        <ele>1229</ele>
        <time>2026-06-18T07:34:19.000Z</time>
        <extensions>
          <ns3:TrackPointExtension>
            <ns3:atemp>20.0</ns3:atemp>
          </ns3:TrackPointExtension>
        </extensions>
      </trkpt>
      <trkpt lat="42.53578844480216503143310546875" lon="19.7903695888817310333251953125">
        <ele>1229.199951171875</ele>
        <time>2026-06-18T07:34:20.000Z</time>
        <extensions>
          <ns3:TrackPointExtension>
            <ns3:atemp>20.0</ns3:atemp>
          </ns3:TrackPointExtension>
        </extensions>
      </trkpt>
      <trkpt lat="42.53580654971301555633544921875" lon="19.7903665713965892791748046875">
        <ele>1229.4000244140625</ele>
        <time>2026-06-18T07:34:21.000Z</time>
        <extensions>
          <ns3:TrackPointExtension>
            <ns3:atemp>20.0</ns3:atemp>
          </ns3:TrackPointExtension>
        </extensions>
      </trkpt>
      <trkpt lat="42.53583035431802272796630859375" lon="19.7903642244637012481689453125">
        <ele>1229.800048828125</ele>
        <time>2026-06-18T07:34:22.000Z</time>
        <extensions>
          <ns3:TrackPointExtension>
            <ns3:atemp>20.0</ns3:atemp>
          </ns3:TrackPointExtension>
        </extensions>
      </trkpt>
      <trkpt lat="42.5358534045517444610595703125" lon="19.79035877622663974761962890625">
        <ele>1230</ele>
        <time>2026-06-18T07:34:23.000Z</time>
        <extensions>
          <ns3:TrackPointExtension>
            <ns3:atemp>20.0</ns3:atemp>
          </ns3:TrackPointExtension>
        </extensions>
      </trkpt>
      <trkpt lat="42.53587176091969013214111328125" lon="19.79035693220794200897216796875">
        <ele>1230.199951171875</ele>
        <time>2026-06-18T07:34:24.000Z</time>
        <extensions>
          <ns3:TrackPointExtension>
            <ns3:atemp>20.0</ns3:atemp>
          </ns3:TrackPointExtension>
        </extensions>
      </trkpt>
      <trkpt lat="42.53589338622987270355224609375" lon="19.790352992713451385498046875">
        <ele>1230.199951171875</ele>
        <time>2026-06-18T07:34:25.000Z</time>
        <extensions>
          <ns3:TrackPointExtension>
            <ns3:atemp>20.0</ns3:atemp>
          </ns3:TrackPointExtension>
        </extensions>
      </trkpt>
      <trkpt lat="42.53591165877878665924072265625" lon="19.79034452699124813079833984375">
        <ele>1230.5999755859375</ele>
        <time>2026-06-18T07:34:26.000Z</time>
        <extensions>
          <ns3:TrackPointExtension>
            <ns3:atemp>20.0</ns3:atemp>
          </ns3:TrackPointExtension>
        </extensions>
      </trkpt>
      <trkpt lat="42.53592942841351032257080078125" lon="19.79033966548740863800048828125">
        <ele>1230.800048828125</ele>
        <time>2026-06-18T07:34:27.000Z</time>
        <extensions>
          <ns3:TrackPointExtension>
            <ns3:atemp>20.0</ns3:atemp>
          </ns3:TrackPointExtension>
        </extensions>
      </trkpt>
      <trkpt lat="42.53594384528696537017822265625" lon="19.79033396579325199127197265625">
        <ele>1231</ele>
        <time>2026-06-18T07:34:28.000Z</time>
        <extensions>
          <ns3:TrackPointExtension>
            <ns3:atemp>20.0</ns3:atemp>
          </ns3:TrackPointExtension>
        </extensions>
      </trkpt>
      <trkpt lat="42.53596144728362560272216796875" lon="19.7903318703174591064453125">
        <ele>1231.199951171875</ele>
        <time>2026-06-18T07:34:29.000Z</time>
        <extensions>
          <ns3:TrackPointExtension>
            <ns3:atemp>20.0</ns3:atemp>
          </ns3:TrackPointExtension>
        </extensions>
      </trkpt>
      <trkpt lat="42.5359824858605861663818359375" lon="19.79032759554684162139892578125">
        <ele>1231.4000244140625</ele>
        <time>2026-06-18T07:34:30.000Z</time>
        <extensions>
          <ns3:TrackPointExtension>
            <ns3:atemp>20.0</ns3:atemp>
          </ns3:TrackPointExtension>
        </extensions>
      </trkpt>
      <trkpt lat="42.53600352443754673004150390625" lon="19.790318794548511505126953125">
        <ele>1231.800048828125</ele>
        <time>2026-06-18T07:34:31.000Z</time>
        <extensions>
          <ns3:TrackPointExtension>
            <ns3:atemp>20.0</ns3:atemp>
          </ns3:TrackPointExtension>
        </extensions>
      </trkpt>
      <trkpt lat="42.53602447919547557830810546875" lon="19.7903075627982616424560546875">
        <ele>1232</ele>
        <time>2026-06-18T07:34:32.000Z</time>
        <extensions>
          <ns3:TrackPointExtension>
            <ns3:atemp>20.0</ns3:atemp>
          </ns3:TrackPointExtension>
        </extensions>
      </trkpt>
      <trkpt lat="42.536039985716342926025390625" lon="19.79029834270477294921875">
        <ele>1232.199951171875</ele>
        <time>2026-06-18T07:34:33.000Z</time>
        <extensions>
          <ns3:TrackPointExtension>
            <ns3:atemp>20.0</ns3:atemp>
          </ns3:TrackPointExtension>
        </extensions>
      </trkpt>
      <trkpt lat="42.53605649806559085845947265625" lon="19.79028568603098392486572265625">
        <ele>1232.4000244140625</ele>
        <time>2026-06-18T07:34:34.000Z</time>
        <extensions>
          <ns3:TrackPointExtension>
            <ns3:atemp>20.0</ns3:atemp>
          </ns3:TrackPointExtension>
        </extensions>
      </trkpt>
      <trkpt lat="42.53607359714806079864501953125" lon="19.7902767173945903778076171875">
        <ele>1232.800048828125</ele>
        <time>2026-06-18T07:34:35.000Z</time>
        <extensions>
          <ns3:TrackPointExtension>
            <ns3:atemp>20.0</ns3:atemp>
          </ns3:TrackPointExtension>
        </extensions>
      </trkpt>
      <trkpt lat="42.53608767874538898468017578125" lon="19.79026590473949909210205078125">
        <ele>1233</ele>
        <time>2026-06-18T07:34:36.000Z</time>
        <extensions>
          <ns3:TrackPointExtension>
            <ns3:atemp>20.0</ns3:atemp>
          </ns3:TrackPointExtension>
        </extensions>
      </trkpt>
      <trkpt lat="42.53610729239881038665771484375" lon="19.79025601409375667572021484375">
        <ele>1233.199951171875</ele>
        <time>2026-06-18T07:34:37.000Z</time>
        <extensions>
          <ns3:TrackPointExtension>
            <ns3:atemp>20.0</ns3:atemp>
          </ns3:TrackPointExtension>
        </extensions>
      </trkpt>
      <trkpt lat="42.536123134195804595947265625" lon="19.79024444706737995147705078125">
        <ele>1233.4000244140625</ele>
        <time>2026-06-18T07:34:38.000Z</time>
        <extensions>
          <ns3:TrackPointExtension>
            <ns3:atemp>20.0</ns3:atemp>
          </ns3:TrackPointExtension>
        </extensions>
      </trkpt>
      <trkpt lat="42.5361380539834499359130859375" lon="19.79023304767906665802001953125">
        <ele>1233.800048828125</ele>
        <time>2026-06-18T07:34:39.000Z</time>
        <extensions>
          <ns3:TrackPointExtension>
            <ns3:atemp>19.0</ns3:atemp>
          </ns3:TrackPointExtension>
        </extensions>
      </trkpt>
      <trkpt lat="42.53615833818912506103515625" lon="19.79022466577589511871337890625">
        <ele>1234</ele>
        <time>2026-06-18T07:34:40.000Z</time>
        <extensions>
          <ns3:TrackPointExtension>
            <ns3:atemp>19.0</ns3:atemp>
          </ns3:TrackPointExtension>
        </extensions>
      </trkpt>
      <trkpt lat="42.53617501817643642425537109375" lon="19.790216200053691864013671875">
        <ele>1234.199951171875</ele>
        <time>2026-06-18T07:34:41.000Z</time>
        <extensions>
          <ns3:TrackPointExtension>
            <ns3:atemp>19.0</ns3:atemp>
          </ns3:TrackPointExtension>
        </extensions>
      </trkpt>
      <trkpt lat="42.5361923687160015106201171875" lon="19.7902086563408374786376953125">
        <ele>1234.199951171875</ele>
        <time>2026-06-18T07:34:42.000Z</time>
        <extensions>
          <ns3:TrackPointExtension>
            <ns3:atemp>20.0</ns3:atemp>
          </ns3:TrackPointExtension>
        </extensions>
      </trkpt>
      <trkpt lat="42.5362131558358669281005859375" lon="19.7902002744376659393310546875">
        <ele>1234.4000244140625</ele>
        <time>2026-06-18T07:34:43.000Z</time>
        <extensions>
          <ns3:TrackPointExtension>
            <ns3:atemp>20.0</ns3:atemp>
          </ns3:TrackPointExtension>
        </extensions>
      </trkpt>
      <trkpt lat="42.53623603843152523040771484375" lon="19.79018543846905231475830078125">
        <ele>1234.5999755859375</ele>
        <time>2026-06-18T07:34:44.000Z</time>
        <extensions>
          <ns3:TrackPointExtension>
            <ns3:atemp>20.0</ns3:atemp>
          </ns3:TrackPointExtension>
        </extensions>
      </trkpt>
      <trkpt lat="42.53625347279012203216552734375" lon="19.7901751287281513214111328125">
        <ele>1234.800048828125</ele>
        <time>2026-06-18T07:34:45.000Z</time>
        <extensions>
          <ns3:TrackPointExtension>
            <ns3:atemp>20.0</ns3:atemp>
          </ns3:TrackPointExtension>
        </extensions>
      </trkpt>
      <trkpt lat="42.53627375699579715728759765625" lon="19.7901590354740619659423828125">
        <ele>1235</ele>
        <time>2026-06-18T07:34:46.000Z</time>
        <extensions>
          <ns3:TrackPointExtension>
            <ns3:atemp>20.0</ns3:atemp>
          </ns3:TrackPointExtension>
        </extensions>
      </trkpt>
      <trkpt lat="42.53629152663052082061767578125" lon="19.79014202021062374114990234375">
        <ele>1235.199951171875</ele>
        <time>2026-06-18T07:34:47.000Z</time>
        <extensions>
          <ns3:TrackPointExtension>
            <ns3:atemp>20.0</ns3:atemp>
          </ns3:TrackPointExtension>
        </extensions>
      </trkpt>
      <trkpt lat="42.53630778752267360687255859375" lon="19.7901258431375026702880859375">
        <ele>1235.4000244140625</ele>
        <time>2026-06-18T07:34:48.000Z</time>
        <extensions>
          <ns3:TrackPointExtension>
            <ns3:atemp>20.0</ns3:atemp>
          </ns3:TrackPointExtension>
        </extensions>
      </trkpt>
      <trkpt lat="42.53632371313869953155517578125" lon="19.79010664857923984527587890625">
        <ele>1235.4000244140625</ele>
        <time>2026-06-18T07:34:49.000Z</time>
        <extensions>
          <ns3:TrackPointExtension>
            <ns3:atemp>20.0</ns3:atemp>
          </ns3:TrackPointExtension>
        </extensions>
      </trkpt>
      <trkpt lat="42.53633997403085231781005859375" lon="19.790088124573230743408203125">
        <ele>1235.5999755859375</ele>
        <time>2026-06-18T07:34:50.000Z</time>
        <extensions>
          <ns3:TrackPointExtension>
            <ns3:atemp>20.0</ns3:atemp>
          </ns3:TrackPointExtension>
        </extensions>
      </trkpt>
      <trkpt lat="42.53635539673268795013427734375" lon="19.7900711931288242340087890625">
        <ele>1235.800048828125</ele>
        <time>2026-06-18T07:34:51.000Z</time>
        <extensions>
          <ns3:TrackPointExtension>
            <ns3:atemp>20.0</ns3:atemp>
          </ns3:TrackPointExtension>
        </extensions>
      </trkpt>
      <trkpt lat="42.536371238529682159423828125" lon="19.790053255856037139892578125">
        <ele>1236</ele>
        <time>2026-06-18T07:34:52.000Z</time>
        <extensions>
          <ns3:TrackPointExtension>
            <ns3:atemp>20.0</ns3:atemp>
          </ns3:TrackPointExtension>
        </extensions>
      </trkpt>
      <trkpt lat="42.5363848172128200531005859375" lon="19.7900369949638843536376953125">
        <ele>1236.199951171875</ele>
        <time>2026-06-18T07:34:53.000Z</time>
        <extensions>
          <ns3:TrackPointExtension>
            <ns3:atemp>20.0</ns3:atemp>
          </ns3:TrackPointExtension>
        </extensions>
      </trkpt>
      <trkpt lat="42.536402083933353424072265625" lon="19.79002165608108043670654296875">
        <ele>1236.4000244140625</ele>
        <time>2026-06-18T07:34:54.000Z</time>
        <extensions>
          <ns3:TrackPointExtension>
            <ns3:atemp>19.0</ns3:atemp>
          </ns3:TrackPointExtension>
        </extensions>
      </trkpt>
      <trkpt lat="42.536418177187442779541015625" lon="19.7900061495602130889892578125">
        <ele>1236.5999755859375</ele>
        <time>2026-06-18T07:34:55.000Z</time>
        <extensions>
          <ns3:TrackPointExtension>
            <ns3:atemp>19.0</ns3:atemp>
          </ns3:TrackPointExtension>
        </extensions>
      </trkpt>
      <trkpt lat="42.536436617374420166015625" lon="19.78999324142932891845703125">
        <ele>1236.5999755859375</ele>
        <time>2026-06-18T07:34:56.000Z</time>
        <extensions>
          <ns3:TrackPointExtension>
            <ns3:atemp>19.0</ns3:atemp>
          </ns3:TrackPointExtension>
        </extensions>
      </trkpt>
      <trkpt lat="42.5364545546472072601318359375" lon="19.78997505269944667816162109375">
        <ele>1237</ele>
        <time>2026-06-18T07:34:57.000Z</time>
        <extensions>
          <ns3:TrackPointExtension>
            <ns3:atemp>19.0</ns3:atemp>
          </ns3:TrackPointExtension>
        </extensions>
      </trkpt>
      <trkpt lat="42.5364709831774234771728515625" lon="19.7899615578353404998779296875">
        <ele>1237.199951171875</ele>
        <time>2026-06-18T07:34:58.000Z</time>
        <extensions>
          <ns3:TrackPointExtension>
            <ns3:atemp>19.0</ns3:atemp>
          </ns3:TrackPointExtension>
        </extensions>
      </trkpt>
      <trkpt lat="42.5364874117076396942138671875" lon="19.78994420729577541351318359375">
        <ele>1237.4000244140625</ele>
        <time>2026-06-18T07:34:59.000Z</time>
        <extensions>
          <ns3:TrackPointExtension>
            <ns3:atemp>19.0</ns3:atemp>
          </ns3:TrackPointExtension>
        </extensions>
      </trkpt>
      <trkpt lat="42.5365035049617290496826171875" lon="19.7899280302226543426513671875">
        <ele>1237.5999755859375</ele>
        <time>2026-06-18T07:35:00.000Z</time>
        <extensions>
          <ns3:TrackPointExtension>
            <ns3:atemp>19.0</ns3:atemp>
          </ns3:TrackPointExtension>
        </extensions>
      </trkpt>
      <trkpt lat="42.53651532344520092010498046875" lon="19.78991503827273845672607421875">
        <ele>1238</ele>
        <time>2026-06-18T07:35:01.000Z</time>
        <extensions>
          <ns3:TrackPointExtension>
            <ns3:atemp>19.0</ns3:atemp>
          </ns3:TrackPointExtension>
        </extensions>
      </trkpt>
      <trkpt lat="42.53653342835605144500732421875" lon="19.78990313597023487091064453125">
        <ele>1238.4000244140625</ele>
        <time>2026-06-18T07:35:02.000Z</time>
        <extensions>
          <ns3:TrackPointExtension>
            <ns3:atemp>19.0</ns3:atemp>
          </ns3:TrackPointExtension>
        </extensions>
      </trkpt>
      <trkpt lat="42.53654859960079193115234375" lon="19.78989441879093647003173828125">
        <ele>1238.5999755859375</ele>
        <time>2026-06-18T07:35:03.000Z</time>
        <extensions>
          <ns3:TrackPointExtension>
            <ns3:atemp>19.0</ns3:atemp>
          </ns3:TrackPointExtension>
        </extensions>
      </trkpt>
      <trkpt lat="42.536567039787769317626953125" lon="19.78988184593617916107177734375">
        <ele>1239</ele>
        <time>2026-06-18T07:35:04.000Z</time>
        <extensions>
          <ns3:TrackPointExtension>
            <ns3:atemp>19.0</ns3:atemp>
          </ns3:TrackPointExtension>
        </extensions>
      </trkpt>
      <trkpt lat="42.5365819595754146575927734375" lon="19.78986960835754871368408203125">
        <ele>1239.4000244140625</ele>
        <time>2026-06-18T07:35:05.000Z</time>
        <extensions>
          <ns3:TrackPointExtension>
            <ns3:atemp>19.0</ns3:atemp>
          </ns3:TrackPointExtension>
        </extensions>
      </trkpt>
      <trkpt lat="42.5365970470011234283447265625" lon="19.789854101836681365966796875">
        <ele>1239.5999755859375</ele>
        <time>2026-06-18T07:35:06.000Z</time>
        <extensions>
          <ns3:TrackPointExtension>
            <ns3:atemp>19.0</ns3:atemp>
          </ns3:TrackPointExtension>
        </extensions>
      </trkpt>
      <trkpt lat="42.53660735674202442169189453125" lon="19.78984303772449493408203125">
        <ele>1240</ele>
        <time>2026-06-18T07:35:07.000Z</time>
        <extensions>
          <ns3:TrackPointExtension>
            <ns3:atemp>19.0</ns3:atemp>
          </ns3:TrackPointExtension>
        </extensions>
      </trkpt>
      <trkpt lat="42.53661976195871829986572265625" lon="19.78983138687908649444580078125">
        <ele>1240.199951171875</ele>
        <time>2026-06-18T07:35:08.000Z</time>
        <extensions>
          <ns3:TrackPointExtension>
            <ns3:atemp>19.0</ns3:atemp>
          </ns3:TrackPointExtension>
        </extensions>
      </trkpt>
      <trkpt lat="42.536632753908634185791015625" lon="19.7898217476904392242431640625">
        <ele>1240.4000244140625</ele>
        <time>2026-06-18T07:35:09.000Z</time>
        <extensions>
          <ns3:TrackPointExtension>
            <ns3:atemp>19.0</ns3:atemp>
          </ns3:TrackPointExtension>
        </extensions>
      </trkpt>
      <trkpt lat="42.53664826042950153350830078125" lon="19.7898142039775848388671875">
        <ele>1240.800048828125</ele>
        <time>2026-06-18T07:35:10.000Z</time>
        <extensions>
          <ns3:TrackPointExtension>
            <ns3:atemp>19.0</ns3:atemp>
          </ns3:TrackPointExtension>
        </extensions>
      </trkpt>
      <trkpt lat="42.5366627611219882965087890625" lon="19.78980674408376216888427734375">
        <ele>1241</ele>
        <time>2026-06-18T07:35:11.000Z</time>
        <extensions>
          <ns3:TrackPointExtension>
            <ns3:atemp>19.0</ns3:atemp>
          </ns3:TrackPointExtension>
        </extensions>
      </trkpt>
      <trkpt lat="42.536682374775409698486328125" lon="19.7898002900183200836181640625">
        <ele>1241.4000244140625</ele>
        <time>2026-06-18T07:35:12.000Z</time>
        <extensions>
          <ns3:TrackPointExtension>
            <ns3:atemp>19.0</ns3:atemp>
          </ns3:TrackPointExtension>
        </extensions>
      </trkpt>
      <trkpt lat="42.53669972531497478485107421875" lon="19.78979408740997314453125">
        <ele>1241.5999755859375</ele>
        <time>2026-06-18T07:35:13.000Z</time>
        <extensions>
          <ns3:TrackPointExtension>
            <ns3:atemp>19.0</ns3:atemp>
          </ns3:TrackPointExtension>
        </extensions>
      </trkpt>
      <trkpt lat="42.536719925701618194580078125" lon="19.7897892259061336517333984375">
        <ele>1242</ele>
        <time>2026-06-18T07:35:14.000Z</time>
        <extensions>
          <ns3:TrackPointExtension>
            <ns3:atemp>19.0</ns3:atemp>
          </ns3:TrackPointExtension>
        </extensions>
      </trkpt>
      <trkpt lat="42.5367358513176441192626953125" lon="19.789787717163562774658203125">
        <ele>1242.4000244140625</ele>
        <time>2026-06-18T07:35:15.000Z</time>
        <extensions>
          <ns3:TrackPointExtension>
            <ns3:atemp>19.0</ns3:atemp>
          </ns3:TrackPointExtension>
        </extensions>
      </trkpt>
      <trkpt lat="42.53675504587590694427490234375" lon="19.7897841967642307281494140625">
        <ele>1242.5999755859375</ele>
        <time>2026-06-18T07:35:16.000Z</time>
        <extensions>
          <ns3:TrackPointExtension>
            <ns3:atemp>19.0</ns3:atemp>
          </ns3:TrackPointExtension>
        </extensions>
      </trkpt>
      <trkpt lat="42.53677415661513805389404296875" lon="19.7897795028984546661376953125">
        <ele>1243</ele>
        <time>2026-06-18T07:35:17.000Z</time>
        <extensions>
          <ns3:TrackPointExtension>
            <ns3:atemp>19.0</ns3:atemp>
          </ns3:TrackPointExtension>
        </extensions>
      </trkpt>
      <trkpt lat="42.53679695539176464080810546875" lon="19.789774976670742034912109375">
        <ele>1243.199951171875</ele>
        <time>2026-06-18T07:35:18.000Z</time>
        <extensions>
          <ns3:TrackPointExtension>
            <ns3:atemp>19.0</ns3:atemp>
          </ns3:TrackPointExtension>
        </extensions>
      </trkpt>
      <trkpt lat="42.536816485226154327392578125" lon="19.789768941700458526611328125">
        <ele>1243.5999755859375</ele>
        <time>2026-06-18T07:35:19.000Z</time>
        <extensions>
          <ns3:TrackPointExtension>
            <ns3:atemp>19.0</ns3:atemp>
          </ns3:TrackPointExtension>
        </extensions>
      </trkpt>
      <trkpt lat="42.5368337519466876983642578125" lon="19.78976684622466564178466796875">
        <ele>1243.800048828125</ele>
        <time>2026-06-18T07:35:20.000Z</time>
        <extensions>
          <ns3:TrackPointExtension>
            <ns3:atemp>19.0</ns3:atemp>
          </ns3:TrackPointExtension>
        </extensions>
      </trkpt>
      <trkpt lat="42.53685168921947479248046875" lon="19.78975695557892322540283203125">
        <ele>1244.199951171875</ele>
        <time>2026-06-18T07:35:21.000Z</time>
        <extensions>
          <ns3:TrackPointExtension>
            <ns3:atemp>19.0</ns3:atemp>
          </ns3:TrackPointExtension>
        </extensions>
      </trkpt>
      <trkpt lat="42.5368766672909259796142578125" lon="19.78974287398159503936767578125">
        <ele>1244.5999755859375</ele>
        <time>2026-06-18T07:35:22.000Z</time>
        <extensions>
          <ns3:TrackPointExtension>
            <ns3:atemp>19.0</ns3:atemp>
          </ns3:TrackPointExtension>
        </extensions>
      </trkpt>
      <trkpt lat="42.5368974544107913970947265625" lon="19.789737425744533538818359375">
        <ele>1245</ele>
        <time>2026-06-18T07:35:23.000Z</time>
        <extensions>
          <ns3:TrackPointExtension>
            <ns3:atemp>19.0</ns3:atemp>
          </ns3:TrackPointExtension>
        </extensions>
      </trkpt>
      <trkpt lat="42.536915726959705352783203125" lon="19.7897355817258358001708984375">
        <ele>1245.4000244140625</ele>
        <time>2026-06-18T07:35:24.000Z</time>
        <extensions>
          <ns3:TrackPointExtension>
            <ns3:atemp>19.0</ns3:atemp>
          </ns3:TrackPointExtension>
        </extensions>
      </trkpt>
      <trkpt lat="42.5369393639266490936279296875" lon="19.7897285409271717071533203125">
        <ele>1245.800048828125</ele>
        <time>2026-06-18T07:35:25.000Z</time>
        <extensions>
          <ns3:TrackPointExtension>
            <ns3:atemp>19.0</ns3:atemp>
          </ns3:TrackPointExtension>
        </extensions>
      </trkpt>
      <trkpt lat="42.53696375526487827301025390625" lon="19.78971898555755615234375">
        <ele>1246</ele>
        <time>2026-06-18T07:35:26.000Z</time>
        <extensions>
          <ns3:TrackPointExtension>
            <ns3:atemp>19.0</ns3:atemp>
          </ns3:TrackPointExtension>
        </extensions>
      </trkpt>
      <trkpt lat="42.53698705695569515228271484375" lon="19.789719991385936737060546875">
        <ele>1246.199951171875</ele>
        <time>2026-06-18T07:35:27.000Z</time>
        <extensions>
          <ns3:TrackPointExtension>
            <ns3:atemp>19.0</ns3:atemp>
          </ns3:TrackPointExtension>
        </extensions>
      </trkpt>
      <trkpt lat="42.53700868226587772369384765625" lon="19.789726696908473968505859375">
        <ele>1246.5999755859375</ele>
        <time>2026-06-18T07:35:28.000Z</time>
        <extensions>
          <ns3:TrackPointExtension>
            <ns3:atemp>19.0</ns3:atemp>
          </ns3:TrackPointExtension>
        </extensions>
      </trkpt>
      <trkpt lat="42.53703047521412372589111328125" lon="19.78972393088042736053466796875">
        <ele>1247</ele>
        <time>2026-06-18T07:35:29.000Z</time>
        <extensions>
          <ns3:TrackPointExtension>
            <ns3:atemp>19.0</ns3:atemp>
          </ns3:TrackPointExtension>
        </extensions>
      </trkpt>
      <trkpt lat="42.537048161029815673828125" lon="19.789724014699459075927734375">
        <ele>1247.4000244140625</ele>
        <time>2026-06-18T07:35:30.000Z</time>
        <extensions>
          <ns3:TrackPointExtension>
            <ns3:atemp>19.0</ns3:atemp>
          </ns3:TrackPointExtension>
        </extensions>
      </trkpt>
      <trkpt lat="42.53706919960677623748779296875" lon="19.78972493670880794525146484375">
        <ele>1247.800048828125</ele>
        <time>2026-06-18T07:35:31.000Z</time>
        <extensions>
          <ns3:TrackPointExtension>
            <ns3:atemp>19.0</ns3:atemp>
          </ns3:TrackPointExtension>
        </extensions>
      </trkpt>
      <trkpt lat="42.5370909087359905242919921875" lon="19.7897258587181568145751953125">
        <ele>1248.199951171875</ele>
        <time>2026-06-18T07:35:32.000Z</time>
        <extensions>
          <ns3:TrackPointExtension>
            <ns3:atemp>19.0</ns3:atemp>
          </ns3:TrackPointExtension>
        </extensions>
      </trkpt>
      <trkpt lat="42.537104822695255279541015625" lon="19.78972896002233028411865234375">
        <ele>1248.4000244140625</ele>
        <time>2026-06-18T07:35:33.000Z</time>
        <extensions>
          <ns3:TrackPointExtension>
            <ns3:atemp>19.0</ns3:atemp>
          </ns3:TrackPointExtension>
        </extensions>
      </trkpt>
      <trkpt lat="42.5371224246919155120849609375" lon="19.78973264805972576141357421875">
        <ele>1248.800048828125</ele>
        <time>2026-06-18T07:35:34.000Z</time>
        <extensions>
          <ns3:TrackPointExtension>
            <ns3:atemp>19.0</ns3:atemp>
          </ns3:TrackPointExtension>
        </extensions>
      </trkpt>
      <trkpt lat="42.53713826648890972137451171875" lon="19.78973499499261379241943359375">
        <ele>1249.199951171875</ele>
        <time>2026-06-18T07:35:35.000Z</time>
        <extensions>
          <ns3:TrackPointExtension>
            <ns3:atemp>19.0</ns3:atemp>
          </ns3:TrackPointExtension>
        </extensions>
      </trkpt>
      <trkpt lat="42.537155114114284515380859375" lon="19.78973968885838985443115234375">
        <ele>1249.5999755859375</ele>
        <time>2026-06-18T07:35:36.000Z</time>
        <extensions>
          <ns3:TrackPointExtension>
            <ns3:atemp>19.0</ns3:atemp>
          </ns3:TrackPointExtension>
        </extensions>
      </trkpt>
      <trkpt lat="42.53717246465384960174560546875" lon="19.78974337689578533172607421875">
        <ele>1250</ele>
        <time>2026-06-18T07:35:37.000Z</time>
        <extensions>
          <ns3:TrackPointExtension>
            <ns3:atemp>19.0</ns3:atemp>
          </ns3:TrackPointExtension>
        </extensions>
      </trkpt>
      <trkpt lat="42.53718956373631954193115234375" lon="19.789741449058055877685546875">
        <ele>1250.4000244140625</ele>
        <time>2026-06-18T07:35:38.000Z</time>
        <extensions>
          <ns3:TrackPointExtension>
            <ns3:atemp>19.0</ns3:atemp>
          </ns3:TrackPointExtension>
        </extensions>
      </trkpt>
      <trkpt lat="42.537209428846836090087890625" lon="19.78974421508610248565673828125">
        <ele>1250.5999755859375</ele>
        <time>2026-06-18T07:35:39.000Z</time>
        <extensions>
          <ns3:TrackPointExtension>
            <ns3:atemp>19.0</ns3:atemp>
          </ns3:TrackPointExtension>
        </extensions>
      </trkpt>
      <trkpt lat="42.53722694702446460723876953125" lon="19.789745807647705078125">
        <ele>1251</ele>
        <time>2026-06-18T07:35:40.000Z</time>
        <extensions>
          <ns3:TrackPointExtension>
            <ns3:atemp>19.0</ns3:atemp>
          </ns3:TrackPointExtension>
        </extensions>
      </trkpt>
      <trkpt lat="42.53724463284015655517578125" lon="19.78974890895187854766845703125">
        <ele>1251.4000244140625</ele>
        <time>2026-06-18T07:35:41.000Z</time>
        <extensions>
          <ns3:TrackPointExtension>
            <ns3:atemp>19.0</ns3:atemp>
          </ns3:TrackPointExtension>
        </extensions>
      </trkpt>
      <trkpt lat="42.537263743579387664794921875" lon="19.78974781930446624755859375">
        <ele>1251.800048828125</ele>
        <time>2026-06-18T07:35:42.000Z</time>
        <extensions>
          <ns3:TrackPointExtension>
            <ns3:atemp>19.0</ns3:atemp>
          </ns3:TrackPointExtension>
        </extensions>
      </trkpt>
      <trkpt lat="42.5372810102999210357666015625" lon="19.78975159116089344024658203125">
        <ele>1252.199951171875</ele>
        <time>2026-06-18T07:35:43.000Z</time>
        <extensions>
          <ns3:TrackPointExtension>
            <ns3:atemp>19.0</ns3:atemp>
          </ns3:TrackPointExtension>
        </extensions>
      </trkpt>
      <trkpt lat="42.537294588983058929443359375" lon="19.789755530655384063720703125">
        <ele>1252.5999755859375</ele>
        <time>2026-06-18T07:35:44.000Z</time>
        <extensions>
          <ns3:TrackPointExtension>
            <ns3:atemp>19.0</ns3:atemp>
          </ns3:TrackPointExtension>
        </extensions>
      </trkpt>
      <trkpt lat="42.53731143660843372344970703125" lon="19.7897590510547161102294921875">
        <ele>1253</ele>
        <time>2026-06-18T07:35:45.000Z</time>
        <extensions>
          <ns3:TrackPointExtension>
            <ns3:atemp>19.0</ns3:atemp>
          </ns3:TrackPointExtension>
        </extensions>
      </trkpt>
      <trkpt lat="42.53732518292963504791259765625" lon="19.789762906730175018310546875">
        <ele>1253.199951171875</ele>
        <time>2026-06-18T07:35:46.000Z</time>
        <extensions>
          <ns3:TrackPointExtension>
            <ns3:atemp>19.0</ns3:atemp>
          </ns3:TrackPointExtension>
        </extensions>
      </trkpt>
      <trkpt lat="42.5373423658311367034912109375" lon="19.78976718150079250335693359375">
        <ele>1253.800048828125</ele>
        <time>2026-06-18T07:35:47.000Z</time>
        <extensions>
          <ns3:TrackPointExtension>
            <ns3:atemp>19.0</ns3:atemp>
          </ns3:TrackPointExtension>
        </extensions>
      </trkpt>
      <trkpt lat="42.537356950342655181884765625" lon="19.7897795028984546661376953125">
        <ele>1254.199951171875</ele>
        <time>2026-06-18T07:35:48.000Z</time>
        <extensions>
          <ns3:TrackPointExtension>
            <ns3:atemp>19.0</ns3:atemp>
          </ns3:TrackPointExtension>
        </extensions>
      </trkpt>
      <trkpt lat="42.53737497143447399139404296875" lon="19.78978344239294528961181640625">
        <ele>1254.4000244140625</ele>
        <time>2026-06-18T07:35:49.000Z</time>
        <extensions>
          <ns3:TrackPointExtension>
            <ns3:atemp>19.0</ns3:atemp>
          </ns3:TrackPointExtension>
        </extensions>
      </trkpt>
      <trkpt lat="42.53739726729691028594970703125" lon="19.7897915728390216827392578125">
        <ele>1254.800048828125</ele>
        <time>2026-06-18T07:35:50.000Z</time>
        <extensions>
          <ns3:TrackPointExtension>
            <ns3:atemp>19.0</ns3:atemp>
          </ns3:TrackPointExtension>
        </extensions>
      </trkpt>
      <trkpt lat="42.537424005568027496337890625" lon="19.78979635052382946014404296875">
        <ele>1255.199951171875</ele>
        <time>2026-06-18T07:35:51.000Z</time>
        <extensions>
          <ns3:TrackPointExtension>
            <ns3:atemp>19.0</ns3:atemp>
          </ns3:TrackPointExtension>
        </extensions>
      </trkpt>
      <trkpt lat="42.53744755871593952178955078125" lon="19.78981194086372852325439453125">
        <ele>1255.5999755859375</ele>
        <time>2026-06-18T07:35:52.000Z</time>
        <extensions>
          <ns3:TrackPointExtension>
            <ns3:atemp>19.0</ns3:atemp>
          </ns3:TrackPointExtension>
        </extensions>
      </trkpt>
      <trkpt lat="42.53746968694031238555908203125" lon="19.7898224182426929473876953125">
        <ele>1255.800048828125</ele>
        <time>2026-06-18T07:35:53.000Z</time>
        <extensions>
          <ns3:TrackPointExtension>
            <ns3:atemp>19.0</ns3:atemp>
          </ns3:TrackPointExtension>
        </extensions>
      </trkpt>
      <trkpt lat="42.5374867022037506103515625" lon="19.78982903994619846343994140625">
        <ele>1256.199951171875</ele>
        <time>2026-06-18T07:35:54.000Z</time>
        <extensions>
          <ns3:TrackPointExtension>
            <ns3:atemp>19.0</ns3:atemp>
          </ns3:TrackPointExtension>
        </extensions>
      </trkpt>
      <trkpt lat="42.53750405274331569671630859375" lon="19.7898385114967823028564453125">
        <ele>1256.5999755859375</ele>
        <time>2026-06-18T07:35:55.000Z</time>
        <extensions>
          <ns3:TrackPointExtension>
            <ns3:atemp>19.0</ns3:atemp>
          </ns3:TrackPointExtension>
        </extensions>
      </trkpt>
      <trkpt lat="42.53752400167286396026611328125" lon="19.78984706103801727294921875">
        <ele>1256.800048828125</ele>
        <time>2026-06-18T07:35:56.000Z</time>
        <extensions>
          <ns3:TrackPointExtension>
            <ns3:atemp>19.0</ns3:atemp>
          </ns3:TrackPointExtension>
        </extensions>
      </trkpt>
      <trkpt lat="42.53754294477403163909912109375" lon="19.78985401801764965057373046875">
        <ele>1257.199951171875</ele>
        <time>2026-06-18T07:35:57.000Z</time>
        <extensions>
          <ns3:TrackPointExtension>
            <ns3:atemp>19.0</ns3:atemp>
          </ns3:TrackPointExtension>
        </extensions>
      </trkpt>
      <trkpt lat="42.5375619716942310333251953125" lon="19.78985619731247425079345703125">
        <ele>1257.4000244140625</ele>
        <time>2026-06-18T07:35:58.000Z</time>
        <extensions>
          <ns3:TrackPointExtension>
            <ns3:atemp>19.0</ns3:atemp>
          </ns3:TrackPointExtension>
        </extensions>
      </trkpt>
      <trkpt lat="42.53758384846150875091552734375" lon="19.7898571193218231201171875">
        <ele>1257.800048828125</ele>
        <time>2026-06-18T07:35:59.000Z</time>
        <extensions>
          <ns3:TrackPointExtension>
            <ns3:atemp>19.0</ns3:atemp>
          </ns3:TrackPointExtension>
        </extensions>
      </trkpt>
      <trkpt lat="42.53760027699172496795654296875" lon="19.7898571193218231201171875">
        <ele>1258</ele>
        <time>2026-06-18T07:36:00.000Z</time>
        <extensions>
          <ns3:TrackPointExtension>
            <ns3:atemp>19.0</ns3:atemp>
          </ns3:TrackPointExtension>
        </extensions>
      </trkpt>
      <trkpt lat="42.53761947154998779296875" lon="19.7898535989224910736083984375">
        <ele>1258.199951171875</ele>
        <time>2026-06-18T07:36:01.000Z</time>
        <extensions>
          <ns3:TrackPointExtension>
            <ns3:atemp>19.0</ns3:atemp>
          </ns3:TrackPointExtension>
        </extensions>
      </trkpt>
      <trkpt lat="42.537635900080204010009765625" lon="19.78984748013317584991455078125">
        <ele>1258.4000244140625</ele>
        <time>2026-06-18T07:36:02.000Z</time>
        <extensions>
          <ns3:TrackPointExtension>
            <ns3:atemp>19.0</ns3:atemp>
          </ns3:TrackPointExtension>
        </extensions>
      </trkpt>
      <trkpt lat="42.537651322782039642333984375" lon="19.78984077461063861846923828125">
        <ele>1258.5999755859375</ele>
        <time>2026-06-18T07:36:03.000Z</time>
        <extensions>
          <ns3:TrackPointExtension>
            <ns3:atemp>19.0</ns3:atemp>
          </ns3:TrackPointExtension>
        </extensions>
      </trkpt>
      <trkpt lat="42.53766515292227268218994140625" lon="19.78983188979327678680419921875">
        <ele>1258.800048828125</ele>
        <time>2026-06-18T07:36:04.000Z</time>
        <extensions>
          <ns3:TrackPointExtension>
            <ns3:atemp>19.0</ns3:atemp>
          </ns3:TrackPointExtension>
        </extensions>
      </trkpt>
      <trkpt lat="42.5376803241670131683349609375" lon="19.78982568718492984771728515625">
        <ele>1259</ele>
        <time>2026-06-18T07:36:05.000Z</time>
        <extensions>
          <ns3:TrackPointExtension>
            <ns3:atemp>19.0</ns3:atemp>
          </ns3:TrackPointExtension>
        </extensions>
      </trkpt>
      <trkpt lat="42.53769457340240478515625" lon="19.7898123599588871002197265625">
        <ele>1259</ele>
        <time>2026-06-18T07:36:06.000Z</time>
        <extensions>
          <ns3:TrackPointExtension>
            <ns3:atemp>19.0</ns3:atemp>
          </ns3:TrackPointExtension>
        </extensions>
      </trkpt>
      <trkpt lat="42.5377081520855426788330078125" lon="19.78979702107608318328857421875">
        <ele>1259</ele>
        <time>2026-06-18T07:36:07.000Z</time>
        <extensions>
          <ns3:TrackPointExtension>
            <ns3:atemp>19.0</ns3:atemp>
          </ns3:TrackPointExtension>
        </extensions>
      </trkpt>
      <trkpt lat="42.53772181458771228790283203125" lon="19.78978361003100872039794921875">
        <ele>1259</ele>
        <time>2026-06-18T07:36:08.000Z</time>
        <extensions>
          <ns3:TrackPointExtension>
            <ns3:atemp>19.0</ns3:atemp>
          </ns3:TrackPointExtension>
        </extensions>
      </trkpt>
      <trkpt lat="42.53773153759539127349853515625" lon="19.78976969607174396514892578125">
        <ele>1259.199951171875</ele>
        <time>2026-06-18T07:36:09.000Z</time>
        <extensions>
          <ns3:TrackPointExtension>
            <ns3:atemp>19.0</ns3:atemp>
          </ns3:TrackPointExtension>
        </extensions>
      </trkpt>
      <trkpt lat="42.5377446971833705902099609375" lon="19.78975226171314716339111328125">
        <ele>1259.199951171875</ele>
        <time>2026-06-18T07:36:10.000Z</time>
        <extensions>
          <ns3:TrackPointExtension>
            <ns3:atemp>19.0</ns3:atemp>
          </ns3:TrackPointExtension>
        </extensions>
      </trkpt>
      <trkpt lat="42.53776204772293567657470703125" lon="19.789738096296787261962890625">
        <ele>1259.4000244140625</ele>
        <time>2026-06-18T07:36:11.000Z</time>
        <extensions>
          <ns3:TrackPointExtension>
            <ns3:atemp>19.0</ns3:atemp>
          </ns3:TrackPointExtension>
        </extensions>
      </trkpt>
      <trkpt lat="42.5377795659005641937255859375" lon="19.78972476907074451446533203125">
        <ele>1259.800048828125</ele>
        <time>2026-06-18T07:36:12.000Z</time>
        <extensions>
          <ns3:TrackPointExtension>
            <ns3:atemp>19.0</ns3:atemp>
          </ns3:TrackPointExtension>
        </extensions>
      </trkpt>
      <trkpt lat="42.53779104910790920257568359375" lon="19.7897134535014629364013671875">
        <ele>1260</ele>
        <time>2026-06-18T07:36:13.000Z</time>
        <extensions>
          <ns3:TrackPointExtension>
            <ns3:atemp>19.0</ns3:atemp>
          </ns3:TrackPointExtension>
        </extensions>
      </trkpt>
      <trkpt lat="42.5378063879907131195068359375" lon="19.789701215922832489013671875">
        <ele>1260.199951171875</ele>
        <time>2026-06-18T07:36:14.000Z</time>
        <extensions>
          <ns3:TrackPointExtension>
            <ns3:atemp>19.0</ns3:atemp>
          </ns3:TrackPointExtension>
        </extensions>
      </trkpt>
      <trkpt lat="42.53781753592193126678466796875" lon="19.789687804877758026123046875">
        <ele>1260.4000244140625</ele>
        <time>2026-06-18T07:36:15.000Z</time>
        <extensions>
          <ns3:TrackPointExtension>
            <ns3:atemp>19.0</ns3:atemp>
          </ns3:TrackPointExtension>
        </extensions>
      </trkpt>
      <trkpt lat="42.53782658837735652923583984375" lon="19.78967246599495410919189453125">
        <ele>1260.4000244140625</ele>
        <time>2026-06-18T07:36:16.000Z</time>
        <extensions>
          <ns3:TrackPointExtension>
            <ns3:atemp>19.0</ns3:atemp>
          </ns3:TrackPointExtension>
        </extensions>
      </trkpt>
      <trkpt lat="42.5378379039466381072998046875" lon="19.78965419344604015350341796875">
        <ele>1260.5999755859375</ele>
        <time>2026-06-18T07:36:17.000Z</time>
        <extensions>
          <ns3:TrackPointExtension>
            <ns3:atemp>19.0</ns3:atemp>
          </ns3:TrackPointExtension>
        </extensions>
      </trkpt>
      <trkpt lat="42.5378446094691753387451171875" lon="19.78963918983936309814453125">
        <ele>1260.800048828125</ele>
        <time>2026-06-18T07:36:18.000Z</time>
        <extensions>
          <ns3:TrackPointExtension>
            <ns3:atemp>19.0</ns3:atemp>
          </ns3:TrackPointExtension>
        </extensions>
      </trkpt>
      <trkpt lat="42.5378506444394588470458984375" lon="19.7896172292530536651611328125">
        <ele>1261</ele>
        <time>2026-06-18T07:36:19.000Z</time>
        <extensions>
          <ns3:TrackPointExtension>
            <ns3:atemp>19.0</ns3:atemp>
          </ns3:TrackPointExtension>
        </extensions>
      </trkpt>
      <trkpt lat="42.53785693086683750152587890625" lon="19.7895987890660762786865234375">
        <ele>1261.4000244140625</ele>
        <time>2026-06-18T07:36:20.000Z</time>
        <extensions>
          <ns3:TrackPointExtension>
            <ns3:atemp>19.0</ns3:atemp>
          </ns3:TrackPointExtension>
        </extensions>
      </trkpt>
      <trkpt lat="42.5378590263426303863525390625" lon="19.78958152234554290771484375">
        <ele>1261.5999755859375</ele>
        <time>2026-06-18T07:36:21.000Z</time>
        <extensions>
          <ns3:TrackPointExtension>
            <ns3:atemp>19.0</ns3:atemp>
          </ns3:TrackPointExtension>
        </extensions>
      </trkpt>
      <trkpt lat="42.53786430694162845611572265625" lon="19.78955847211182117462158203125">
        <ele>1262</ele>
        <time>2026-06-18T07:36:22.000Z</time>
        <extensions>
          <ns3:TrackPointExtension>
            <ns3:atemp>19.0</ns3:atemp>
          </ns3:TrackPointExtension>
        </extensions>
      </trkpt>
      <trkpt lat="42.5378670729696750640869140625" lon="19.789533913135528564453125">
        <ele>1262.199951171875</ele>
        <time>2026-06-18T07:36:23.000Z</time>
        <extensions>
          <ns3:TrackPointExtension>
            <ns3:atemp>19.0</ns3:atemp>
          </ns3:TrackPointExtension>
        </extensions>
      </trkpt>
      <trkpt lat="42.537872605025768280029296875" lon="19.78951572440564632415771484375">
        <ele>1262.5999755859375</ele>
        <time>2026-06-18T07:36:24.000Z</time>
        <extensions>
          <ns3:TrackPointExtension>
            <ns3:atemp>19.0</ns3:atemp>
          </ns3:TrackPointExtension>
        </extensions>
      </trkpt>
      <trkpt lat="42.5378751195967197418212890625" lon="19.789493344724178314208984375">
        <ele>1263</ele>
        <time>2026-06-18T07:36:25.000Z</time>
        <extensions>
          <ns3:TrackPointExtension>
            <ns3:atemp>19.0</ns3:atemp>
          </ns3:TrackPointExtension>
        </extensions>
      </trkpt>
      <trkpt lat="42.53787218593060970306396484375" lon="19.78947532363235950469970703125">
        <ele>1263.4000244140625</ele>
        <time>2026-06-18T07:36:26.000Z</time>
        <extensions>
          <ns3:TrackPointExtension>
            <ns3:atemp>19.0</ns3:atemp>
          </ns3:TrackPointExtension>
        </extensions>
      </trkpt>
      <trkpt lat="42.53787218593060970306396484375" lon="19.78945420123636722564697265625">
        <ele>1263.4000244140625</ele>
        <time>2026-06-18T07:36:27.000Z</time>
        <extensions>
          <ns3:TrackPointExtension>
            <ns3:atemp>19.0</ns3:atemp>
          </ns3:TrackPointExtension>
        </extensions>
      </trkpt>
      <trkpt lat="42.53787201829254627227783203125" lon="19.7894371859729290008544921875">
        <ele>1263.5999755859375</ele>
        <time>2026-06-18T07:36:28.000Z</time>
        <extensions>
          <ns3:TrackPointExtension>
            <ns3:atemp>19.0</ns3:atemp>
          </ns3:TrackPointExtension>
        </extensions>
      </trkpt>
      <trkpt lat="42.5378714315593242645263671875" lon="19.7894163988530635833740234375">
        <ele>1263.800048828125</ele>
        <time>2026-06-18T07:36:29.000Z</time>
        <extensions>
          <ns3:TrackPointExtension>
            <ns3:atemp>19.0</ns3:atemp>
          </ns3:TrackPointExtension>
        </extensions>
      </trkpt>
      <trkpt lat="42.5378710962831974029541015625" lon="19.78938706219196319580078125">
        <ele>1264</ele>
        <time>2026-06-18T07:36:30.000Z</time>
        <extensions>
          <ns3:TrackPointExtension>
            <ns3:atemp>19.0</ns3:atemp>
          </ns3:TrackPointExtension>
        </extensions>
      </trkpt>
      <trkpt lat="42.53786715678870677947998046875" lon="19.78936149738729000091552734375">
        <ele>1264.199951171875</ele>
        <time>2026-06-18T07:36:31.000Z</time>
        <extensions>
          <ns3:TrackPointExtension>
            <ns3:atemp>19.0</ns3:atemp>
          </ns3:TrackPointExtension>
        </extensions>
      </trkpt>
      <trkpt lat="42.53786279819905757904052734375" lon="19.7893309034407138824462890625">
        <ele>1264.4000244140625</ele>
        <time>2026-06-18T07:36:32.000Z</time>
        <extensions>
          <ns3:TrackPointExtension>
            <ns3:atemp>19.0</ns3:atemp>
          </ns3:TrackPointExtension>
        </extensions>
      </trkpt>
      <trkpt lat="42.5378637202084064483642578125" lon="19.78930366225540637969970703125">
        <ele>1264.5999755859375</ele>
        <time>2026-06-18T07:36:33.000Z</time>
        <extensions>
          <ns3:TrackPointExtension>
            <ns3:atemp>19.0</ns3:atemp>
          </ns3:TrackPointExtension>
        </extensions>
      </trkpt>
      <trkpt lat="42.5378630496561527252197265625" lon="19.78927751071751117706298828125">
        <ele>1264.800048828125</ele>
        <time>2026-06-18T07:36:34.000Z</time>
        <extensions>
          <ns3:TrackPointExtension>
            <ns3:atemp>19.0</ns3:atemp>
          </ns3:TrackPointExtension>
        </extensions>
      </trkpt>
      <trkpt lat="42.53786112181842327117919921875" lon="19.7892534546554088592529296875">
        <ele>1265</ele>
        <time>2026-06-18T07:36:35.000Z</time>
        <extensions>
          <ns3:TrackPointExtension>
            <ns3:atemp>19.0</ns3:atemp>
          </ns3:TrackPointExtension>
        </extensions>
      </trkpt>
      <trkpt lat="42.5378580205142498016357421875" lon="19.789223112165927886962890625">
        <ele>1265.199951171875</ele>
        <time>2026-06-18T07:36:36.000Z</time>
        <extensions>
          <ns3:TrackPointExtension>
            <ns3:atemp>19.0</ns3:atemp>
          </ns3:TrackPointExtension>
        </extensions>
      </trkpt>
      <trkpt lat="42.53785525448620319366455078125" lon="19.78919955901801586151123046875">
        <ele>1265.5999755859375</ele>
        <time>2026-06-18T07:36:37.000Z</time>
        <extensions>
          <ns3:TrackPointExtension>
            <ns3:atemp>19.0</ns3:atemp>
          </ns3:TrackPointExtension>
        </extensions>
      </trkpt>
      <trkpt lat="42.53785475157201290130615234375" lon="19.7891793586313724517822265625">
        <ele>1265.800048828125</ele>
        <time>2026-06-18T07:36:38.000Z</time>
        <extensions>
          <ns3:TrackPointExtension>
            <ns3:atemp>19.0</ns3:atemp>
          </ns3:TrackPointExtension>
        </extensions>
      </trkpt>
      <trkpt lat="42.53785491921007633209228515625" lon="19.789155386388301849365234375">
        <ele>1266.199951171875</ele>
        <time>2026-06-18T07:36:39.000Z</time>
        <extensions>
          <ns3:TrackPointExtension>
            <ns3:atemp>19.0</ns3:atemp>
          </ns3:TrackPointExtension>
        </extensions>
      </trkpt>
      <trkpt lat="42.53785776905715465545654296875" lon="19.789131917059421539306640625">
        <ele>1266.5999755859375</ele>
        <time>2026-06-18T07:36:40.000Z</time>
        <extensions>
          <ns3:TrackPointExtension>
            <ns3:atemp>19.0</ns3:atemp>
          </ns3:TrackPointExtension>
        </extensions>
      </trkpt>
      <trkpt lat="42.5378613732755184173583984375" lon="19.7891102917492389678955078125">
        <ele>1267</ele>
        <time>2026-06-18T07:36:41.000Z</time>
        <extensions>
          <ns3:TrackPointExtension>
            <ns3:atemp>19.0</ns3:atemp>
          </ns3:TrackPointExtension>
        </extensions>
      </trkpt>
      <trkpt lat="42.53786598332226276397705078125" lon="19.78908397257328033447265625">
        <ele>1267.199951171875</ele>
        <time>2026-06-18T07:36:42.000Z</time>
        <extensions>
          <ns3:TrackPointExtension>
            <ns3:atemp>19.0</ns3:atemp>
          </ns3:TrackPointExtension>
        </extensions>
      </trkpt>
      <trkpt lat="42.53786824643611907958984375" lon="19.78905958123505115509033203125">
        <ele>1267.5999755859375</ele>
        <time>2026-06-18T07:36:43.000Z</time>
        <extensions>
          <ns3:TrackPointExtension>
            <ns3:atemp>19.0</ns3:atemp>
          </ns3:TrackPointExtension>
        </extensions>
      </trkpt>
      <trkpt lat="42.53787134774029254913330078125" lon="19.7890331782400608062744140625">
        <ele>1268.199951171875</ele>
        <time>2026-06-18T07:36:44.000Z</time>
        <extensions>
          <ns3:TrackPointExtension>
            <ns3:atemp>19.0</ns3:atemp>
          </ns3:TrackPointExtension>
        </extensions>
      </trkpt>
      <trkpt lat="42.5378764607012271881103515625" lon="19.78900241665542125701904296875">
        <ele>1268.4000244140625</ele>
        <time>2026-06-18T07:36:45.000Z</time>
        <extensions>
          <ns3:TrackPointExtension>
            <ns3:atemp>19.0</ns3:atemp>
          </ns3:TrackPointExtension>
        </extensions>
      </trkpt>
      <trkpt lat="42.537882328033447265625" lon="19.7889761812984943389892578125">
        <ele>1268.800048828125</ele>
        <time>2026-06-18T07:36:46.000Z</time>
        <extensions>
          <ns3:TrackPointExtension>
            <ns3:atemp>19.0</ns3:atemp>
          </ns3:TrackPointExtension>
        </extensions>
      </trkpt>
      <trkpt lat="42.53788660280406475067138671875" lon="19.78894625790417194366455078125">
        <ele>1269</ele>
        <time>2026-06-18T07:36:47.000Z</time>
        <extensions>
          <ns3:TrackPointExtension>
            <ns3:atemp>19.0</ns3:atemp>
          </ns3:TrackPointExtension>
        </extensions>
      </trkpt>
      <trkpt lat="42.5378905422985553741455078125" lon="19.78891901671886444091796875">
        <ele>1269.4000244140625</ele>
        <time>2026-06-18T07:36:48.000Z</time>
        <extensions>
          <ns3:TrackPointExtension>
            <ns3:atemp>19.0</ns3:atemp>
          </ns3:TrackPointExtension>
        </extensions>
      </trkpt>
      <trkpt lat="42.53789481706917285919189453125" lon="19.78889512829482555389404296875">
        <ele>1269.5999755859375</ele>
        <time>2026-06-18T07:36:49.000Z</time>
        <extensions>
          <ns3:TrackPointExtension>
            <ns3:atemp>19.0</ns3:atemp>
          </ns3:TrackPointExtension>
        </extensions>
      </trkpt>
      <trkpt lat="42.5379006005823612213134765625" lon="19.7888702340424060821533203125">
        <ele>1270</ele>
        <time>2026-06-18T07:36:50.000Z</time>
        <extensions>
          <ns3:TrackPointExtension>
            <ns3:atemp>19.0</ns3:atemp>
          </ns3:TrackPointExtension>
        </extensions>
      </trkpt>
      <trkpt lat="42.53790437243878841400146484375" lon="19.78884751908481121063232421875">
        <ele>1270.4000244140625</ele>
        <time>2026-06-18T07:36:51.000Z</time>
        <extensions>
          <ns3:TrackPointExtension>
            <ns3:atemp>19.0</ns3:atemp>
          </ns3:TrackPointExtension>
        </extensions>
      </trkpt>
      <trkpt lat="42.5379089824855327606201171875" lon="19.78882354684174060821533203125">
        <ele>1270.5999755859375</ele>
        <time>2026-06-18T07:36:52.000Z</time>
        <extensions>
          <ns3:TrackPointExtension>
            <ns3:atemp>19.0</ns3:atemp>
          </ns3:TrackPointExtension>
        </extensions>
      </trkpt>
      <trkpt lat="42.5379113294184207916259765625" lon="19.7887951321899890899658203125">
        <ele>1271</ele>
        <time>2026-06-18T07:36:53.000Z</time>
        <extensions>
          <ns3:TrackPointExtension>
            <ns3:atemp>19.0</ns3:atemp>
          </ns3:TrackPointExtension>
        </extensions>
      </trkpt>
      <trkpt lat="42.53791778348386287689208984375" lon="19.78877015411853790283203125">
        <ele>1271.4000244140625</ele>
        <time>2026-06-18T07:36:54.000Z</time>
        <extensions>
          <ns3:TrackPointExtension>
            <ns3:atemp>19.0</ns3:atemp>
          </ns3:TrackPointExtension>
        </extensions>
      </trkpt>
      <trkpt lat="42.5379237346351146697998046875" lon="19.7887448407709598541259765625">
        <ele>1271.800048828125</ele>
        <time>2026-06-18T07:36:55.000Z</time>
        <extensions>
          <ns3:TrackPointExtension>
            <ns3:atemp>19.0</ns3:atemp>
          </ns3:TrackPointExtension>
        </extensions>
      </trkpt>
      <trkpt lat="42.537930272519588470458984375" lon="19.7887170128524303436279296875">
        <ele>1272</ele>
        <time>2026-06-18T07:36:56.000Z</time>
        <extensions>
          <ns3:TrackPointExtension>
            <ns3:atemp>19.0</ns3:atemp>
          </ns3:TrackPointExtension>
        </extensions>
      </trkpt>
      <trkpt lat="42.53793991170823574066162109375" lon="19.788689352571964263916015625">
        <ele>1272.4000244140625</ele>
        <time>2026-06-18T07:36:57.000Z</time>
        <extensions>
          <ns3:TrackPointExtension>
            <ns3:atemp>19.0</ns3:atemp>
          </ns3:TrackPointExtension>
        </extensions>
      </trkpt>
      <trkpt lat="42.5379545800387859344482421875" lon="19.7886630333960056304931640625">
        <ele>1272.800048828125</ele>
        <time>2026-06-18T07:36:58.000Z</time>
        <extensions>
          <ns3:TrackPointExtension>
            <ns3:atemp>19.0</ns3:atemp>
          </ns3:TrackPointExtension>
        </extensions>
      </trkpt>
      <trkpt lat="42.53796824254095554351806640625" lon="19.78863713331520557403564453125">
        <ele>1273</ele>
        <time>2026-06-18T07:36:59.000Z</time>
        <extensions>
          <ns3:TrackPointExtension>
            <ns3:atemp>19.0</ns3:atemp>
          </ns3:TrackPointExtension>
        </extensions>
      </trkpt>
      <trkpt lat="42.53798450343310832977294921875" lon="19.788606874644756317138671875">
        <ele>1273.199951171875</ele>
        <time>2026-06-18T07:37:00.000Z</time>
        <extensions>
          <ns3:TrackPointExtension>
            <ns3:atemp>19.0</ns3:atemp>
          </ns3:TrackPointExtension>
        </extensions>
      </trkpt>
      <trkpt lat="42.5380001775920391082763671875" lon="19.78857510723173618316650390625">
        <ele>1273.199951171875</ele>
        <time>2026-06-18T07:37:01.000Z</time>
        <extensions>
          <ns3:TrackPointExtension>
            <ns3:atemp>19.0</ns3:atemp>
          </ns3:TrackPointExtension>
        </extensions>
      </trkpt>
      <trkpt lat="42.53801417537033557891845703125" lon="19.78855147026479244232177734375">
        <ele>1273.199951171875</ele>
        <time>2026-06-18T07:37:02.000Z</time>
        <extensions>
          <ns3:TrackPointExtension>
            <ns3:atemp>19.0</ns3:atemp>
          </ns3:TrackPointExtension>
        </extensions>
      </trkpt>
      <trkpt lat="42.53802842460572719573974609375" lon="19.78852515108883380889892578125">
        <ele>1273.4000244140625</ele>
        <time>2026-06-18T07:37:03.000Z</time>
        <extensions>
          <ns3:TrackPointExtension>
            <ns3:atemp>19.0</ns3:atemp>
          </ns3:TrackPointExtension>
        </extensions>
      </trkpt>
      <trkpt lat="42.53804049454629421234130859375" lon="19.7884997539222240447998046875">
        <ele>1273.4000244140625</ele>
        <time>2026-06-18T07:37:04.000Z</time>
        <extensions>
          <ns3:TrackPointExtension>
            <ns3:atemp>19.0</ns3:atemp>
          </ns3:TrackPointExtension>
        </extensions>
      </trkpt>
      <trkpt lat="42.53804669715464115142822265625" lon="19.78846966288983821868896484375">
        <ele>1273.5999755859375</ele>
        <time>2026-06-18T07:37:05.000Z</time>
        <extensions>
          <ns3:TrackPointExtension>
            <ns3:atemp>19.0</ns3:atemp>
          </ns3:TrackPointExtension>
        </extensions>
      </trkpt>
      <trkpt lat="42.53804937936365604400634765625" lon="19.788443259894847869873046875">
        <ele>1273.800048828125</ele>
        <time>2026-06-18T07:37:06.000Z</time>
        <extensions>
          <ns3:TrackPointExtension>
            <ns3:atemp>19.0</ns3:atemp>
          </ns3:TrackPointExtension>
        </extensions>
      </trkpt>
      <trkpt lat="42.538050301373004913330078125" lon="19.788412749767303466796875">
        <ele>1274</ele>
        <time>2026-06-18T07:37:07.000Z</time>
        <extensions>
          <ns3:TrackPointExtension>
            <ns3:atemp>19.0</ns3:atemp>
          </ns3:TrackPointExtension>
        </extensions>
      </trkpt>
      <trkpt lat="42.53805038519203662872314453125" lon="19.78838567622005939483642578125">
        <ele>1274</ele>
        <time>2026-06-18T07:37:08.000Z</time>
        <extensions>
          <ns3:TrackPointExtension>
            <ns3:atemp>19.0</ns3:atemp>
          </ns3:TrackPointExtension>
        </extensions>
      </trkpt>
      <trkpt lat="42.538046948611736297607421875" lon="19.78835885412991046905517578125">
        <ele>1274.199951171875</ele>
        <time>2026-06-18T07:37:09.000Z</time>
        <extensions>
          <ns3:TrackPointExtension>
            <ns3:atemp>19.0</ns3:atemp>
          </ns3:TrackPointExtension>
        </extensions>
      </trkpt>
      <trkpt lat="42.538044266402721405029296875" lon="19.7883277572691440582275390625">
        <ele>1274.4000244140625</ele>
        <time>2026-06-18T07:37:10.000Z</time>
        <extensions>
          <ns3:TrackPointExtension>
            <ns3:atemp>19.0</ns3:atemp>
          </ns3:TrackPointExtension>
        </extensions>
      </trkpt>
      <trkpt lat="42.5380404107272624969482421875" lon="19.78829808533191680908203125">
        <ele>1274.4000244140625</ele>
        <time>2026-06-18T07:37:11.000Z</time>
        <extensions>
          <ns3:TrackPointExtension>
            <ns3:atemp>19.0</ns3:atemp>
          </ns3:TrackPointExtension>
        </extensions>
      </trkpt>
      <trkpt lat="42.538038231432437896728515625" lon="19.78827084414660930633544921875">
        <ele>1274.4000244140625</ele>
        <time>2026-06-18T07:37:12.000Z</time>
        <extensions>
          <ns3:TrackPointExtension>
            <ns3:atemp>19.0</ns3:atemp>
          </ns3:TrackPointExtension>
        </extensions>
      </trkpt>
      <trkpt lat="42.5380387343466281890869140625" lon="19.78824167512357234954833984375">
        <ele>1274.5999755859375</ele>
        <time>2026-06-18T07:37:13.000Z</time>
        <extensions>
          <ns3:TrackPointExtension>
            <ns3:atemp>19.0</ns3:atemp>
          </ns3:TrackPointExtension>
        </extensions>
      </trkpt>
      <trkpt lat="42.53804099746048450469970703125" lon="19.788213931024074554443359375">
        <ele>1274.800048828125</ele>
        <time>2026-06-18T07:37:14.000Z</time>
        <extensions>
          <ns3:TrackPointExtension>
            <ns3:atemp>19.0</ns3:atemp>
          </ns3:TrackPointExtension>
        </extensions>
      </trkpt>
      <trkpt lat="42.5380461104214191436767578125" lon="19.78819088079035282135009765625">
        <ele>1275.199951171875</ele>
        <time>2026-06-18T07:37:15.000Z</time>
        <extensions>
          <ns3:TrackPointExtension>
            <ns3:atemp>19.0</ns3:atemp>
          </ns3:TrackPointExtension>
        </extensions>
      </trkpt>
      <trkpt lat="42.53805658780038356781005859375" lon="19.7881686687469482421875">
        <ele>1275.4000244140625</ele>
        <time>2026-06-18T07:37:16.000Z</time>
        <extensions>
          <ns3:TrackPointExtension>
            <ns3:atemp>19.0</ns3:atemp>
          </ns3:TrackPointExtension>
        </extensions>
      </trkpt>
      <trkpt lat="42.5380695797502994537353515625" lon="19.78815098293125629425048828125">
        <ele>1275.5999755859375</ele>
        <time>2026-06-18T07:37:17.000Z</time>
        <extensions>
          <ns3:TrackPointExtension>
            <ns3:atemp>19.0</ns3:atemp>
          </ns3:TrackPointExtension>
        </extensions>
      </trkpt>
      <trkpt lat="42.5380839966237545013427734375" lon="19.78814343921840190887451171875">
        <ele>1275.800048828125</ele>
        <time>2026-06-18T07:37:18.000Z</time>
        <extensions>
          <ns3:TrackPointExtension>
            <ns3:atemp>19.0</ns3:atemp>
          </ns3:TrackPointExtension>
        </extensions>
      </trkpt>
      <trkpt lat="42.53809665329754352569580078125" lon="19.78814042173326015472412109375">
        <ele>1276</ele>
        <time>2026-06-18T07:37:19.000Z</time>
        <extensions>
          <ns3:TrackPointExtension>
            <ns3:atemp>19.0</ns3:atemp>
          </ns3:TrackPointExtension>
        </extensions>
      </trkpt>
      <trkpt lat="42.538112662732601165771484375" lon="19.788143523037433624267578125">
        <ele>1276</ele>
        <time>2026-06-18T07:37:20.000Z</time>
        <extensions>
          <ns3:TrackPointExtension>
            <ns3:atemp>19.0</ns3:atemp>
          </ns3:TrackPointExtension>
        </extensions>
      </trkpt>
      <trkpt lat="42.53813051618635654449462890625" lon="19.7881520725786685943603515625">
        <ele>1276.199951171875</ele>
        <time>2026-06-18T07:37:21.000Z</time>
        <extensions>
          <ns3:TrackPointExtension>
            <ns3:atemp>19.0</ns3:atemp>
          </ns3:TrackPointExtension>
        </extensions>
      </trkpt>
      <trkpt lat="42.53815415315330028533935546875" lon="19.7881631366908550262451171875">
        <ele>1276.199951171875</ele>
        <time>2026-06-18T07:37:22.000Z</time>
        <extensions>
          <ns3:TrackPointExtension>
            <ns3:atemp>19.0</ns3:atemp>
          </ns3:TrackPointExtension>
        </extensions>
      </trkpt>
      <trkpt lat="42.53817611373960971832275390625" lon="19.788173697888851165771484375">
        <ele>1276.5999755859375</ele>
        <time>2026-06-18T07:37:23.000Z</time>
        <extensions>
          <ns3:TrackPointExtension>
            <ns3:atemp>19.0</ns3:atemp>
          </ns3:TrackPointExtension>
        </extensions>
      </trkpt>
      <trkpt lat="42.53820058889687061309814453125" lon="19.78818953968584537506103515625">
        <ele>1276.800048828125</ele>
        <time>2026-06-18T07:37:24.000Z</time>
        <extensions>
          <ns3:TrackPointExtension>
            <ns3:atemp>19.0</ns3:atemp>
          </ns3:TrackPointExtension>
        </extensions>
      </trkpt>
      <trkpt lat="42.538225650787353515625" lon="19.788199849426746368408203125">
        <ele>1276.800048828125</ele>
        <time>2026-06-18T07:37:25.000Z</time>
        <extensions>
          <ns3:TrackPointExtension>
            <ns3:atemp>19.0</ns3:atemp>
          </ns3:TrackPointExtension>
        </extensions>
      </trkpt>
      <trkpt lat="42.53824819810688495635986328125" lon="19.78821569122374057769775390625">
        <ele>1277</ele>
        <time>2026-06-18T07:37:26.000Z</time>
        <extensions>
          <ns3:TrackPointExtension>
            <ns3:atemp>19.0</ns3:atemp>
          </ns3:TrackPointExtension>
        </extensions>
      </trkpt>
      <trkpt lat="42.53826965577900409698486328125" lon="19.7882281802594661712646484375">
        <ele>1277.199951171875</ele>
        <time>2026-06-18T07:37:27.000Z</time>
        <extensions>
          <ns3:TrackPointExtension>
            <ns3:atemp>19.0</ns3:atemp>
          </ns3:TrackPointExtension>
        </extensions>
      </trkpt>
      <trkpt lat="42.53829161636531352996826171875" lon="19.78823916055262088775634765625">
        <ele>1277.199951171875</ele>
        <time>2026-06-18T07:37:28.000Z</time>
        <extensions>
          <ns3:TrackPointExtension>
            <ns3:atemp>19.0</ns3:atemp>
          </ns3:TrackPointExtension>
        </extensions>
      </trkpt>
      <trkpt lat="42.5383160077035427093505859375" lon="19.788251481950283050537109375">
        <ele>1277.4000244140625</ele>
        <time>2026-06-18T07:37:29.000Z</time>
        <extensions>
          <ns3:TrackPointExtension>
            <ns3:atemp>19.0</ns3:atemp>
          </ns3:TrackPointExtension>
        </extensions>
      </trkpt>
      <trkpt lat="42.53834257833659648895263671875" lon="19.78826430626213550567626953125">
        <ele>1277.5999755859375</ele>
        <time>2026-06-18T07:37:30.000Z</time>
        <extensions>
          <ns3:TrackPointExtension>
            <ns3:atemp>19.0</ns3:atemp>
          </ns3:TrackPointExtension>
        </extensions>
      </trkpt>
      <trkpt lat="42.53836655057966709136962890625" lon="19.788276962935924530029296875">
        <ele>1277.5999755859375</ele>
        <time>2026-06-18T07:37:31.000Z</time>
        <extensions>
          <ns3:TrackPointExtension>
            <ns3:atemp>19.0</ns3:atemp>
          </ns3:TrackPointExtension>
        </extensions>
      </trkpt>
      <trkpt lat="42.5383877567946910858154296875" lon="19.78829146362841129302978515625">
        <ele>1277.5999755859375</ele>
        <time>2026-06-18T07:37:32.000Z</time>
        <extensions>
          <ns3:TrackPointExtension>
            <ns3:atemp>19.0</ns3:atemp>
          </ns3:TrackPointExtension>
        </extensions>
      </trkpt>
      <trkpt lat="42.53840896300971508026123046875" lon="19.7883069701492786407470703125">
        <ele>1277.5999755859375</ele>
        <time>2026-06-18T07:37:33.000Z</time>
        <extensions>
          <ns3:TrackPointExtension>
            <ns3:atemp>19.0</ns3:atemp>
          </ns3:TrackPointExtension>
        </extensions>
      </trkpt>
      <trkpt lat="42.53842673264443874359130859375" lon="19.78832130320370197296142578125">
        <ele>1277.5999755859375</ele>
        <time>2026-06-18T07:37:34.000Z</time>
        <extensions>
          <ns3:TrackPointExtension>
            <ns3:atemp>19.0</ns3:atemp>
          </ns3:TrackPointExtension>
        </extensions>
      </trkpt>
      <trkpt lat="42.53844617865979671478271484375" lon="19.7883331216871738433837890625">
        <ele>1277.5999755859375</ele>
        <time>2026-06-18T07:37:35.000Z</time>
        <extensions>
          <ns3:TrackPointExtension>
            <ns3:atemp>19.0</ns3:atemp>
          </ns3:TrackPointExtension>
        </extensions>
      </trkpt>
      <trkpt lat="42.53846210427582263946533203125" lon="19.7883445210754871368408203125">
        <ele>1277.800048828125</ele>
        <time>2026-06-18T07:37:36.000Z</time>
        <extensions>
          <ns3:TrackPointExtension>
            <ns3:atemp>19.0</ns3:atemp>
          </ns3:TrackPointExtension>
        </extensions>
      </trkpt>
      <trkpt lat="42.53847576677799224853515625" lon="19.78835441172122955322265625">
        <ele>1278</ele>
        <time>2026-06-18T07:37:37.000Z</time>
        <extensions>
          <ns3:TrackPointExtension>
            <ns3:atemp>19.0</ns3:atemp>
          </ns3:TrackPointExtension>
        </extensions>
      </trkpt>
      <trkpt lat="42.53849144093692302703857421875" lon="19.78836002759635448455810546875">
        <ele>1278.199951171875</ele>
        <time>2026-06-18T07:37:38.000Z</time>
        <extensions>
          <ns3:TrackPointExtension>
            <ns3:atemp>19.0</ns3:atemp>
          </ns3:TrackPointExtension>
        </extensions>
      </trkpt>
      <trkpt lat="42.53850049339234828948974609375" lon="19.7883643023669719696044921875">
        <ele>1278.4000244140625</ele>
        <time>2026-06-18T07:37:39.000Z</time>
        <extensions>
          <ns3:TrackPointExtension>
            <ns3:atemp>19.0</ns3:atemp>
          </ns3:TrackPointExtension>
        </extensions>
      </trkpt>
      <trkpt lat="42.5385040976107120513916015625" lon="19.7883706726133823394775390625">
        <ele>1278.800048828125</ele>
        <time>2026-06-18T07:37:40.000Z</time>
        <extensions>
          <ns3:TrackPointExtension>
            <ns3:atemp>19.0</ns3:atemp>
          </ns3:TrackPointExtension>
        </extensions>
      </trkpt>
      <trkpt lat="42.53850602544844150543212890625" lon="19.7883736900985240936279296875">
        <ele>1279</ele>
        <time>2026-06-18T07:37:41.000Z</time>
        <extensions>
          <ns3:TrackPointExtension>
            <ns3:atemp>19.0</ns3:atemp>
          </ns3:TrackPointExtension>
        </extensions>
      </trkpt>
      <trkpt lat="42.5385064445436000823974609375" lon="19.78837260045111179351806640625">
        <ele>1279.199951171875</ele>
        <time>2026-06-18T07:37:42.000Z</time>
        <extensions>
          <ns3:TrackPointExtension>
            <ns3:atemp>19.0</ns3:atemp>
          </ns3:TrackPointExtension>
        </extensions>
      </trkpt>
      <trkpt lat="42.5385064445436000823974609375" lon="19.78837260045111179351806640625">
        <ele>1279.4000244140625</ele>
        <time>2026-06-18T07:37:43.000Z</time>
        <extensions>
          <ns3:TrackPointExtension>
            <ns3:atemp>19.0</ns3:atemp>
          </ns3:TrackPointExtension>
        </extensions>
      </trkpt>
      <trkpt lat="42.5385064445436000823974609375" lon="19.78837260045111179351806640625">
        <ele>1279.4000244140625</ele>
        <time>2026-06-18T07:37:44.000Z</time>
        <extensions>
          <ns3:TrackPointExtension>
            <ns3:atemp>19.0</ns3:atemp>
          </ns3:TrackPointExtension>
        </extensions>
      </trkpt>
      <trkpt lat="42.5385064445436000823974609375" lon="19.78837260045111179351806640625">
        <ele>1279.4000244140625</ele>
        <time>2026-06-18T07:37:45.000Z</time>
        <extensions>
          <ns3:TrackPointExtension>
            <ns3:atemp>19.0</ns3:atemp>
          </ns3:TrackPointExtension>
        </extensions>
      </trkpt>
      <trkpt lat="42.5385064445436000823974609375" lon="19.78837260045111179351806640625">
        <ele>1279.4000244140625</ele>
        <time>2026-06-18T07:37:46.000Z</time>
        <extensions>
          <ns3:TrackPointExtension>
            <ns3:atemp>19.0</ns3:atemp>
          </ns3:TrackPointExtension>
        </extensions>
      </trkpt>
      <trkpt lat="42.5385064445436000823974609375" lon="19.78837260045111179351806640625">
        <ele>1279.5999755859375</ele>
        <time>2026-06-18T07:37:47.000Z</time>
        <extensions>
          <ns3:TrackPointExtension>
            <ns3:atemp>19.0</ns3:atemp>
          </ns3:TrackPointExtension>
        </extensions>
      </trkpt>
      <trkpt lat="42.5385064445436000823974609375" lon="19.78837260045111179351806640625">
        <ele>1279.5999755859375</ele>
        <time>2026-06-18T07:37:48.000Z</time>
        <extensions>
          <ns3:TrackPointExtension>
            <ns3:atemp>19.0</ns3:atemp>
          </ns3:TrackPointExtension>
        </extensions>
      </trkpt>
      <trkpt lat="42.53850703127682209014892578125" lon="19.78837142698466777801513671875">
        <ele>1279.5999755859375</ele>
        <time>2026-06-18T07:37:49.000Z</time>
        <extensions>
          <ns3:TrackPointExtension>
            <ns3:atemp>19.0</ns3:atemp>
          </ns3:TrackPointExtension>
        </extensions>
      </trkpt>
      <trkpt lat="42.5385064445436000823974609375" lon="19.78837260045111179351806640625">
        <ele>1279.5999755859375</ele>
        <time>2026-06-18T07:37:50.000Z</time>
        <extensions>
          <ns3:TrackPointExtension>
            <ns3:atemp>19.0</ns3:atemp>
          </ns3:TrackPointExtension>
        </extensions>
      </trkpt>
      <trkpt lat="42.5385064445436000823974609375" lon="19.78837260045111179351806640625">
        <ele>1279.800048828125</ele>
        <time>2026-06-18T07:37:51.000Z</time>
        <extensions>
          <ns3:TrackPointExtension>
            <ns3:atemp>19.0</ns3:atemp>
          </ns3:TrackPointExtension>
        </extensions>
      </trkpt>
      <trkpt lat="42.5385064445436000823974609375" lon="19.78837260045111179351806640625">
        <ele>1279.800048828125</ele>
        <time>2026-06-18T07:37:52.000Z</time>
        <extensions>
          <ns3:TrackPointExtension>
            <ns3:atemp>19.0</ns3:atemp>
          </ns3:TrackPointExtension>
        </extensions>
      </trkpt>
      <trkpt lat="42.5385064445436000823974609375" lon="19.78837260045111179351806640625">
        <ele>1279.800048828125</ele>
        <time>2026-06-18T07:37:53.000Z</time>
        <extensions>
          <ns3:TrackPointExtension>
            <ns3:atemp>19.0</ns3:atemp>
          </ns3:TrackPointExtension>
        </extensions>
      </trkpt>
      <trkpt lat="42.5385064445436000823974609375" lon="19.78837260045111179351806640625">
        <ele>1279.800048828125</ele>
        <time>2026-06-18T07:37:54.000Z</time>
        <extensions>
          <ns3:TrackPointExtension>
            <ns3:atemp>19.0</ns3:atemp>
          </ns3:TrackPointExtension>
        </extensions>
      </trkpt>
      <trkpt lat="42.53850703127682209014892578125" lon="19.7883765399456024169921875">
        <ele>1279.800048828125</ele>
        <time>2026-06-18T07:37:55.000Z</time>
        <extensions>
          <ns3:TrackPointExtension>
            <ns3:atemp>19.0</ns3:atemp>
          </ns3:TrackPointExtension>
        </extensions>
      </trkpt>
      <trkpt lat="42.538502253592014312744140625" lon="19.78835701011121273040771484375">
        <ele>1279.800048828125</ele>
        <time>2026-06-18T07:37:56.000Z</time>
        <extensions>
          <ns3:TrackPointExtension>
            <ns3:atemp>19.0</ns3:atemp>
          </ns3:TrackPointExtension>
        </extensions>
      </trkpt>
      <trkpt lat="42.53849127329885959625244140625" lon="19.78833873756229877471923828125">
        <ele>1279.800048828125</ele>
        <time>2026-06-18T07:37:57.000Z</time>
        <extensions>
          <ns3:TrackPointExtension>
            <ns3:atemp>19.0</ns3:atemp>
          </ns3:TrackPointExtension>
        </extensions>
      </trkpt>
      <trkpt lat="42.53847182728350162506103515625" lon="19.7883220575749874114990234375">
        <ele>1279.4000244140625</ele>
        <time>2026-06-18T07:37:58.000Z</time>
        <extensions>
          <ns3:TrackPointExtension>
            <ns3:atemp>19.0</ns3:atemp>
          </ns3:TrackPointExtension>
        </extensions>
      </trkpt>
      <trkpt lat="42.5384474359452724456787109375" lon="19.7883163578808307647705078125">
        <ele>1279.199951171875</ele>
        <time>2026-06-18T07:37:59.000Z</time>
        <extensions>
          <ns3:TrackPointExtension>
            <ns3:atemp>19.0</ns3:atemp>
          </ns3:TrackPointExtension>
        </extensions>
      </trkpt>
      <trkpt lat="42.53842203877866268157958984375" lon="19.788299091160297393798828125">
        <ele>1279</ele>
        <time>2026-06-18T07:38:00.000Z</time>
        <extensions>
          <ns3:TrackPointExtension>
            <ns3:atemp>19.0</ns3:atemp>
          </ns3:TrackPointExtension>
        </extensions>
      </trkpt>
      <trkpt lat="42.53839488141238689422607421875" lon="19.7882757894694805145263671875">
        <ele>1278.5999755859375</ele>
        <time>2026-06-18T07:38:01.000Z</time>
        <extensions>
          <ns3:TrackPointExtension>
            <ns3:atemp>19.0</ns3:atemp>
          </ns3:TrackPointExtension>
        </extensions>
      </trkpt>
      <trkpt lat="42.53836269490420818328857421875" lon="19.78825491853058338165283203125">
        <ele>1278.4000244140625</ele>
        <time>2026-06-18T07:38:02.000Z</time>
        <extensions>
          <ns3:TrackPointExtension>
            <ns3:atemp>19.0</ns3:atemp>
          </ns3:TrackPointExtension>
        </extensions>
      </trkpt>
      <trkpt lat="42.53832916729152202606201171875" lon="19.78823614306747913360595703125">
        <ele>1278.199951171875</ele>
        <time>2026-06-18T07:38:03.000Z</time>
        <extensions>
          <ns3:TrackPointExtension>
            <ns3:atemp>19.0</ns3:atemp>
          </ns3:TrackPointExtension>
        </extensions>
      </trkpt>
      <trkpt lat="42.53830200992524623870849609375" lon="19.7882234863936901092529296875">
        <ele>1278</ele>
        <time>2026-06-18T07:38:04.000Z</time>
        <extensions>
          <ns3:TrackPointExtension>
            <ns3:atemp>19.0</ns3:atemp>
          </ns3:TrackPointExtension>
        </extensions>
      </trkpt>
      <trkpt lat="42.53828491084277629852294921875" lon="19.7882114164531230926513671875">
        <ele>1278</ele>
        <time>2026-06-18T07:38:05.000Z</time>
        <extensions>
          <ns3:TrackPointExtension>
            <ns3:atemp>19.0</ns3:atemp>
          </ns3:TrackPointExtension>
        </extensions>
      </trkpt>
      <trkpt lat="42.53827669657766819000244140625" lon="19.78820144198834896087646484375">
        <ele>1278</ele>
        <time>2026-06-18T07:38:06.000Z</time>
        <extensions>
          <ns3:TrackPointExtension>
            <ns3:atemp>19.0</ns3:atemp>
          </ns3:TrackPointExtension>
        </extensions>
      </trkpt>
      <trkpt lat="42.53827082924544811248779296875" lon="19.7881969995796680450439453125">
        <ele>1278</ele>
        <time>2026-06-18T07:38:07.000Z</time>
        <extensions>
          <ns3:TrackPointExtension>
            <ns3:atemp>19.0</ns3:atemp>
          </ns3:TrackPointExtension>
        </extensions>
      </trkpt>
      <trkpt lat="42.538260519504547119140625" lon="19.7881973348557949066162109375">
        <ele>1278.199951171875</ele>
        <time>2026-06-18T07:38:08.000Z</time>
        <extensions>
          <ns3:TrackPointExtension>
            <ns3:atemp>19.0</ns3:atemp>
          </ns3:TrackPointExtension>
        </extensions>
      </trkpt>
      <trkpt lat="42.53825339488685131072998046875" lon="19.788195155560970306396484375">
        <ele>1278.199951171875</ele>
        <time>2026-06-18T07:38:09.000Z</time>
        <extensions>
          <ns3:TrackPointExtension>
            <ns3:atemp>19.0</ns3:atemp>
          </ns3:TrackPointExtension>
        </extensions>
      </trkpt>
      <trkpt lat="42.538244090974330902099609375" lon="19.78818945586681365966796875">
        <ele>1278.199951171875</ele>
        <time>2026-06-18T07:38:10.000Z</time>
        <extensions>
          <ns3:TrackPointExtension>
            <ns3:atemp>19.0</ns3:atemp>
          </ns3:TrackPointExtension>
        </extensions>
      </trkpt>
      <trkpt lat="42.53823227249085903167724609375" lon="19.7881859354674816131591796875">
        <ele>1278.199951171875</ele>
        <time>2026-06-18T07:38:11.000Z</time>
        <extensions>
          <ns3:TrackPointExtension>
            <ns3:atemp>19.0</ns3:atemp>
          </ns3:TrackPointExtension>
        </extensions>
      </trkpt>
      <trkpt lat="42.5382197834551334381103515625" lon="19.788185097277164459228515625">
        <ele>1278</ele>
        <time>2026-06-18T07:38:12.000Z</time>
        <extensions>
          <ns3:TrackPointExtension>
            <ns3:atemp>19.0</ns3:atemp>
          </ns3:TrackPointExtension>
        </extensions>
      </trkpt>
      <trkpt lat="42.53820888698101043701171875" lon="19.78818400762975215911865234375">
        <ele>1277.800048828125</ele>
        <time>2026-06-18T07:38:13.000Z</time>
        <extensions>
          <ns3:TrackPointExtension>
            <ns3:atemp>19.0</ns3:atemp>
          </ns3:TrackPointExtension>
        </extensions>
      </trkpt>
      <trkpt lat="42.53819740377366542816162109375" lon="19.7881765477359294891357421875">
        <ele>1277.800048828125</ele>
        <time>2026-06-18T07:38:14.000Z</time>
        <extensions>
          <ns3:TrackPointExtension>
            <ns3:atemp>19.0</ns3:atemp>
          </ns3:TrackPointExtension>
        </extensions>
      </trkpt>
      <trkpt lat="42.5381859205663204193115234375" lon="19.7881780564785003662109375">
        <ele>1277.800048828125</ele>
        <time>2026-06-18T07:38:15.000Z</time>
        <extensions>
          <ns3:TrackPointExtension>
            <ns3:atemp>19.0</ns3:atemp>
          </ns3:TrackPointExtension>
        </extensions>
      </trkpt>
      <trkpt lat="42.538180388510227203369140625" lon="19.78818819858133792877197265625">
        <ele>1277.800048828125</ele>
        <time>2026-06-18T07:38:16.000Z</time>
        <extensions>
          <ns3:TrackPointExtension>
            <ns3:atemp>19.0</ns3:atemp>
          </ns3:TrackPointExtension>
        </extensions>
      </trkpt>
      <trkpt lat="42.53818382509052753448486328125" lon="19.7881936468183994293212890625">
        <ele>1278</ele>
        <time>2026-06-18T07:38:17.000Z</time>
        <extensions>
          <ns3:TrackPointExtension>
            <ns3:atemp>19.0</ns3:atemp>
          </ns3:TrackPointExtension>
        </extensions>
      </trkpt>
      <trkpt lat="42.53818742930889129638671875" lon="19.78819859214127063751220703125">
        <ele>1278</ele>
        <time>2026-06-18T07:38:18.000Z</time>
        <extensions>
          <ns3:TrackPointExtension>
            <ns3:atemp>19.0</ns3:atemp>
          </ns3:TrackPointExtension>
        </extensions>
      </trkpt>
      <trkpt lat="42.53819036297500133514404296875" lon="19.78820152580738067626953125">
        <ele>1278.199951171875</ele>
        <time>2026-06-18T07:38:19.000Z</time>
        <extensions>
          <ns3:TrackPointExtension>
            <ns3:atemp>19.0</ns3:atemp>
          </ns3:TrackPointExtension>
        </extensions>
      </trkpt>
      <trkpt lat="42.53819681704044342041015625" lon="19.7882050462067127227783203125">
        <ele>1278.199951171875</ele>
        <time>2026-06-18T07:38:20.000Z</time>
        <extensions>
          <ns3:TrackPointExtension>
            <ns3:atemp>19.0</ns3:atemp>
          </ns3:TrackPointExtension>
        </extensions>
      </trkpt>
      <trkpt lat="42.53819555975496768951416015625" lon="19.7882102429866790771484375">
        <ele>1278.199951171875</ele>
        <time>2026-06-18T07:38:21.000Z</time>
        <extensions>
          <ns3:TrackPointExtension>
            <ns3:atemp>19.0</ns3:atemp>
          </ns3:TrackPointExtension>
        </extensions>
      </trkpt>
      <trkpt lat="42.53819555975496768951416015625" lon="19.78821099735796451568603515625">
        <ele>1278.4000244140625</ele>
        <time>2026-06-18T07:38:22.000Z</time>
        <extensions>
          <ns3:TrackPointExtension>
            <ns3:atemp>19.0</ns3:atemp>
          </ns3:TrackPointExtension>
        </extensions>
      </trkpt>
      <trkpt lat="42.53819555975496768951416015625" lon="19.7882114164531230926513671875">
        <ele>1278.4000244140625</ele>
        <time>2026-06-18T07:38:23.000Z</time>
        <extensions>
          <ns3:TrackPointExtension>
            <ns3:atemp>19.0</ns3:atemp>
          </ns3:TrackPointExtension>
        </extensions>
      </trkpt>
      <trkpt lat="42.53819555975496768951416015625" lon="19.78821099735796451568603515625">
        <ele>1278.5999755859375</ele>
        <time>2026-06-18T07:38:24.000Z</time>
        <extensions>
          <ns3:TrackPointExtension>
            <ns3:atemp>19.0</ns3:atemp>
          </ns3:TrackPointExtension>
        </extensions>
      </trkpt>
      <trkpt lat="42.53819555975496768951416015625" lon="19.78821099735796451568603515625">
        <ele>1278.5999755859375</ele>
        <time>2026-06-18T07:38:25.000Z</time>
        <extensions>
          <ns3:TrackPointExtension>
            <ns3:atemp>19.0</ns3:atemp>
          </ns3:TrackPointExtension>
        </extensions>
      </trkpt>
      <trkpt lat="42.53819555975496768951416015625" lon="19.78821099735796451568603515625">
        <ele>1278.800048828125</ele>
        <time>2026-06-18T07:38:26.000Z</time>
        <extensions>
          <ns3:TrackPointExtension>
            <ns3:atemp>19.0</ns3:atemp>
          </ns3:TrackPointExtension>
        </extensions>
      </trkpt>
      <trkpt lat="42.53819555975496768951416015625" lon="19.78821099735796451568603515625">
        <ele>1278.5999755859375</ele>
        <time>2026-06-18T07:38:27.000Z</time>
        <extensions>
          <ns3:TrackPointExtension>
            <ns3:atemp>19.0</ns3:atemp>
          </ns3:TrackPointExtension>
        </extensions>
      </trkpt>
      <trkpt lat="42.53819555975496768951416015625" lon="19.78821099735796451568603515625">
        <ele>1278.5999755859375</ele>
        <time>2026-06-18T07:38:28.000Z</time>
        <extensions>
          <ns3:TrackPointExtension>
            <ns3:atemp>19.0</ns3:atemp>
          </ns3:TrackPointExtension>
        </extensions>
      </trkpt>
      <trkpt lat="42.53819555975496768951416015625" lon="19.78821099735796451568603515625">
        <ele>1278.4000244140625</ele>
        <time>2026-06-18T07:38:29.000Z</time>
        <extensions>
          <ns3:TrackPointExtension>
            <ns3:atemp>19.0</ns3:atemp>
          </ns3:TrackPointExtension>
        </extensions>
      </trkpt>
      <trkpt lat="42.53819555975496768951416015625" lon="19.78821099735796451568603515625">
        <ele>1278.4000244140625</ele>
        <time>2026-06-18T07:38:30.000Z</time>
        <extensions>
          <ns3:TrackPointExtension>
            <ns3:atemp>19.0</ns3:atemp>
          </ns3:TrackPointExtension>
        </extensions>
      </trkpt>
      <trkpt lat="42.53819555975496768951416015625" lon="19.78821099735796451568603515625">
        <ele>1278.199951171875</ele>
        <time>2026-06-18T07:38:31.000Z</time>
        <extensions>
          <ns3:TrackPointExtension>
            <ns3:atemp>19.0</ns3:atemp>
          </ns3:TrackPointExtension>
        </extensions>
      </trkpt>
      <trkpt lat="42.53819555975496768951416015625" lon="19.78821099735796451568603515625">
        <ele>1278.199951171875</ele>
        <time>2026-06-18T07:38:32.000Z</time>
        <extensions>
          <ns3:TrackPointExtension>
            <ns3:atemp>19.0</ns3:atemp>
          </ns3:TrackPointExtension>
        </extensions>
      </trkpt>
      <trkpt lat="42.53819555975496768951416015625" lon="19.78821099735796451568603515625">
        <ele>1278.199951171875</ele>
        <time>2026-06-18T07:38:33.000Z</time>
        <extensions>
          <ns3:TrackPointExtension>
            <ns3:atemp>19.0</ns3:atemp>
          </ns3:TrackPointExtension>
        </extensions>
      </trkpt>
      <trkpt lat="42.53819555975496768951416015625" lon="19.78821099735796451568603515625">
        <ele>1278.199951171875</ele>
        <time>2026-06-18T07:38:34.000Z</time>
        <extensions>
          <ns3:TrackPointExtension>
            <ns3:atemp>19.0</ns3:atemp>
          </ns3:TrackPointExtension>
        </extensions>
      </trkpt>
      <trkpt lat="42.53819555975496768951416015625" lon="19.78821099735796451568603515625">
        <ele>1278.4000244140625</ele>
        <time>2026-06-18T07:38:35.000Z</time>
        <extensions>
          <ns3:TrackPointExtension>
            <ns3:atemp>19.0</ns3:atemp>
          </ns3:TrackPointExtension>
        </extensions>
      </trkpt>
      <trkpt lat="42.53819555975496768951416015625" lon="19.78821099735796451568603515625">
        <ele>1278.4000244140625</ele>
        <time>2026-06-18T07:38:36.000Z</time>
        <extensions>
          <ns3:TrackPointExtension>
            <ns3:atemp>19.0</ns3:atemp>
          </ns3:TrackPointExtension>
        </extensions>
      </trkpt>
      <trkpt lat="42.53819555975496768951416015625" lon="19.78821099735796451568603515625">
        <ele>1278.4000244140625</ele>
        <time>2026-06-18T07:38:37.000Z</time>
        <extensions>
          <ns3:TrackPointExtension>
            <ns3:atemp>19.0</ns3:atemp>
          </ns3:TrackPointExtension>
        </extensions>
      </trkpt>
      <trkpt lat="42.53819555975496768951416015625" lon="19.78821099735796451568603515625">
        <ele>1278.4000244140625</ele>
        <time>2026-06-18T07:38:38.000Z</time>
        <extensions>
          <ns3:TrackPointExtension>
            <ns3:atemp>19.0</ns3:atemp>
          </ns3:TrackPointExtension>
        </extensions>
      </trkpt>
      <trkpt lat="42.53819555975496768951416015625" lon="19.78821099735796451568603515625">
        <ele>1278.4000244140625</ele>
        <time>2026-06-18T07:38:39.000Z</time>
        <extensions>
          <ns3:TrackPointExtension>
            <ns3:atemp>19.0</ns3:atemp>
          </ns3:TrackPointExtension>
        </extensions>
      </trkpt>
      <trkpt lat="42.53819555975496768951416015625" lon="19.78821099735796451568603515625">
        <ele>1278.4000244140625</ele>
        <time>2026-06-18T07:38:40.000Z</time>
        <extensions>
          <ns3:TrackPointExtension>
            <ns3:atemp>19.0</ns3:atemp>
          </ns3:TrackPointExtension>
        </extensions>
      </trkpt>
      <trkpt lat="42.53819555975496768951416015625" lon="19.78821099735796451568603515625">
        <ele>1278.5999755859375</ele>
        <time>2026-06-18T07:38:41.000Z</time>
        <extensions>
          <ns3:TrackPointExtension>
            <ns3:atemp>19.0</ns3:atemp>
          </ns3:TrackPointExtension>
        </extensions>
      </trkpt>
      <trkpt lat="42.53819555975496768951416015625" lon="19.78821099735796451568603515625">
        <ele>1278.5999755859375</ele>
        <time>2026-06-18T07:38:42.000Z</time>
        <extensions>
          <ns3:TrackPointExtension>
            <ns3:atemp>19.0</ns3:atemp>
          </ns3:TrackPointExtension>
        </extensions>
      </trkpt>
      <trkpt lat="42.53819555975496768951416015625" lon="19.78821099735796451568603515625">
        <ele>1278.5999755859375</ele>
        <time>2026-06-18T07:38:43.000Z</time>
        <extensions>
          <ns3:TrackPointExtension>
            <ns3:atemp>19.0</ns3:atemp>
          </ns3:TrackPointExtension>
        </extensions>
      </trkpt>
      <trkpt lat="42.53819555975496768951416015625" lon="19.78821099735796451568603515625">
        <ele>1278.5999755859375</ele>
        <time>2026-06-18T07:38:44.000Z</time>
        <extensions>
          <ns3:TrackPointExtension>
            <ns3:atemp>19.0</ns3:atemp>
          </ns3:TrackPointExtension>
        </extensions>
      </trkpt>
      <trkpt lat="42.53819555975496768951416015625" lon="19.78821099735796451568603515625">
        <ele>1278.5999755859375</ele>
        <time>2026-06-18T07:38:45.000Z</time>
        <extensions>
          <ns3:TrackPointExtension>
            <ns3:atemp>19.0</ns3:atemp>
          </ns3:TrackPointExtension>
        </extensions>
      </trkpt>
      <trkpt lat="42.53819555975496768951416015625" lon="19.78821099735796451568603515625">
        <ele>1278.5999755859375</ele>
        <time>2026-06-18T07:38:46.000Z</time>
        <extensions>
          <ns3:TrackPointExtension>
            <ns3:atemp>19.0</ns3:atemp>
          </ns3:TrackPointExtension>
        </extensions>
      </trkpt>
      <trkpt lat="42.53819555975496768951416015625" lon="19.78821099735796451568603515625">
        <ele>1278.5999755859375</ele>
        <time>2026-06-18T07:38:47.000Z</time>
        <extensions>
          <ns3:TrackPointExtension>
            <ns3:atemp>19.0</ns3:atemp>
          </ns3:TrackPointExtension>
        </extensions>
      </trkpt>
      <trkpt lat="42.53819555975496768951416015625" lon="19.78821099735796451568603515625">
        <ele>1278.800048828125</ele>
        <time>2026-06-18T07:38:48.000Z</time>
        <extensions>
          <ns3:TrackPointExtension>
            <ns3:atemp>19.0</ns3:atemp>
          </ns3:TrackPointExtension>
        </extensions>
      </trkpt>
      <trkpt lat="42.53819555975496768951416015625" lon="19.78821099735796451568603515625">
        <ele>1278.800048828125</ele>
        <time>2026-06-18T07:38:49.000Z</time>
        <extensions>
          <ns3:TrackPointExtension>
            <ns3:atemp>19.0</ns3:atemp>
          </ns3:TrackPointExtension>
        </extensions>
      </trkpt>
      <trkpt lat="42.53819555975496768951416015625" lon="19.78821099735796451568603515625">
        <ele>1278.800048828125</ele>
        <time>2026-06-18T07:38:50.000Z</time>
        <extensions>
          <ns3:TrackPointExtension>
            <ns3:atemp>19.0</ns3:atemp>
          </ns3:TrackPointExtension>
        </extensions>
      </trkpt>
      <trkpt lat="42.53819555975496768951416015625" lon="19.78821099735796451568603515625">
        <ele>1278.800048828125</ele>
        <time>2026-06-18T07:38:51.000Z</time>
        <extensions>
          <ns3:TrackPointExtension>
            <ns3:atemp>19.0</ns3:atemp>
          </ns3:TrackPointExtension>
        </extensions>
      </trkpt>
      <trkpt lat="42.53819555975496768951416015625" lon="19.78821099735796451568603515625">
        <ele>1278.800048828125</ele>
        <time>2026-06-18T07:38:52.000Z</time>
        <extensions>
          <ns3:TrackPointExtension>
            <ns3:atemp>19.0</ns3:atemp>
          </ns3:TrackPointExtension>
        </extensions>
      </trkpt>
      <trkpt lat="42.53819555975496768951416015625" lon="19.78821099735796451568603515625">
        <ele>1278.800048828125</ele>
        <time>2026-06-18T07:38:53.000Z</time>
        <extensions>
          <ns3:TrackPointExtension>
            <ns3:atemp>19.0</ns3:atemp>
          </ns3:TrackPointExtension>
        </extensions>
      </trkpt>
      <trkpt lat="42.53819555975496768951416015625" lon="19.78821099735796451568603515625">
        <ele>1278.800048828125</ele>
        <time>2026-06-18T07:38:54.000Z</time>
        <extensions>
          <ns3:TrackPointExtension>
            <ns3:atemp>19.0</ns3:atemp>
          </ns3:TrackPointExtension>
        </extensions>
      </trkpt>
      <trkpt lat="42.53819555975496768951416015625" lon="19.78821099735796451568603515625">
        <ele>1278.800048828125</ele>
        <time>2026-06-18T07:38:55.000Z</time>
        <extensions>
          <ns3:TrackPointExtension>
            <ns3:atemp>19.0</ns3:atemp>
          </ns3:TrackPointExtension>
        </extensions>
      </trkpt>
      <trkpt lat="42.53819555975496768951416015625" lon="19.78821099735796451568603515625">
        <ele>1278.800048828125</ele>
        <time>2026-06-18T07:38:56.000Z</time>
        <extensions>
          <ns3:TrackPointExtension>
            <ns3:atemp>19.0</ns3:atemp>
          </ns3:TrackPointExtension>
        </extensions>
      </trkpt>
      <trkpt lat="42.53819555975496768951416015625" lon="19.78821099735796451568603515625">
        <ele>1278.800048828125</ele>
        <time>2026-06-18T07:38:57.000Z</time>
        <extensions>
          <ns3:TrackPointExtension>
            <ns3:atemp>19.0</ns3:atemp>
          </ns3:TrackPointExtension>
        </extensions>
      </trkpt>
      <trkpt lat="42.53819555975496768951416015625" lon="19.78821099735796451568603515625">
        <ele>1278.800048828125</ele>
        <time>2026-06-18T07:38:58.000Z</time>
        <extensions>
          <ns3:TrackPointExtension>
            <ns3:atemp>19.0</ns3:atemp>
          </ns3:TrackPointExtension>
        </extensions>
      </trkpt>
      <trkpt lat="42.53819555975496768951416015625" lon="19.78821099735796451568603515625">
        <ele>1278.800048828125</ele>
        <time>2026-06-18T07:38:59.000Z</time>
        <extensions>
          <ns3:TrackPointExtension>
            <ns3:atemp>19.0</ns3:atemp>
          </ns3:TrackPointExtension>
        </extensions>
      </trkpt>
      <trkpt lat="42.53819555975496768951416015625" lon="19.78821099735796451568603515625">
        <ele>1279</ele>
        <time>2026-06-18T07:39:00.000Z</time>
        <extensions>
          <ns3:TrackPointExtension>
            <ns3:atemp>19.0</ns3:atemp>
          </ns3:TrackPointExtension>
        </extensions>
      </trkpt>
      <trkpt lat="42.53819555975496768951416015625" lon="19.78821099735796451568603515625">
        <ele>1279</ele>
        <time>2026-06-18T07:39:01.000Z</time>
        <extensions>
          <ns3:TrackPointExtension>
            <ns3:atemp>19.0</ns3:atemp>
          </ns3:TrackPointExtension>
        </extensions>
      </trkpt>
      <trkpt lat="42.53819555975496768951416015625" lon="19.78821099735796451568603515625">
        <ele>1279</ele>
        <time>2026-06-18T07:39:02.000Z</time>
        <extensions>
          <ns3:TrackPointExtension>
            <ns3:atemp>19.0</ns3:atemp>
          </ns3:TrackPointExtension>
        </extensions>
      </trkpt>
      <trkpt lat="42.53819555975496768951416015625" lon="19.78821099735796451568603515625">
        <ele>1279</ele>
        <time>2026-06-18T07:39:03.000Z</time>
        <extensions>
          <ns3:TrackPointExtension>
            <ns3:atemp>19.0</ns3:atemp>
          </ns3:TrackPointExtension>
        </extensions>
      </trkpt>
      <trkpt lat="42.53819555975496768951416015625" lon="19.78821099735796451568603515625">
        <ele>1279</ele>
        <time>2026-06-18T07:39:04.000Z</time>
        <extensions>
          <ns3:TrackPointExtension>
            <ns3:atemp>19.0</ns3:atemp>
          </ns3:TrackPointExtension>
        </extensions>
      </trkpt>
      <trkpt lat="42.53819555975496768951416015625" lon="19.78821099735796451568603515625">
        <ele>1279</ele>
        <time>2026-06-18T07:39:05.000Z</time>
        <extensions>
          <ns3:TrackPointExtension>
            <ns3:atemp>19.0</ns3:atemp>
          </ns3:TrackPointExtension>
        </extensions>
      </trkpt>
      <trkpt lat="42.53819555975496768951416015625" lon="19.78821099735796451568603515625">
        <ele>1279</ele>
        <time>2026-06-18T07:39:06.000Z</time>
        <extensions>
          <ns3:TrackPointExtension>
            <ns3:atemp>19.0</ns3:atemp>
          </ns3:TrackPointExtension>
        </extensions>
      </trkpt>
      <trkpt lat="42.53819555975496768951416015625" lon="19.78821099735796451568603515625">
        <ele>1279</ele>
        <time>2026-06-18T07:39:07.000Z</time>
        <extensions>
          <ns3:TrackPointExtension>
            <ns3:atemp>19.0</ns3:atemp>
          </ns3:TrackPointExtension>
        </extensions>
      </trkpt>
      <trkpt lat="42.53819555975496768951416015625" lon="19.78821099735796451568603515625">
        <ele>1279</ele>
        <time>2026-06-18T07:39:08.000Z</time>
        <extensions>
          <ns3:TrackPointExtension>
            <ns3:atemp>19.0</ns3:atemp>
          </ns3:TrackPointExtension>
        </extensions>
      </trkpt>
      <trkpt lat="42.53819555975496768951416015625" lon="19.78821099735796451568603515625">
        <ele>1279.199951171875</ele>
        <time>2026-06-18T07:39:09.000Z</time>
        <extensions>
          <ns3:TrackPointExtension>
            <ns3:atemp>19.0</ns3:atemp>
          </ns3:TrackPointExtension>
        </extensions>
      </trkpt>
      <trkpt lat="42.53819555975496768951416015625" lon="19.78821099735796451568603515625">
        <ele>1279</ele>
        <time>2026-06-18T07:39:10.000Z</time>
        <extensions>
          <ns3:TrackPointExtension>
            <ns3:atemp>19.0</ns3:atemp>
          </ns3:TrackPointExtension>
        </extensions>
      </trkpt>
      <trkpt lat="42.53819555975496768951416015625" lon="19.78821099735796451568603515625">
        <ele>1279</ele>
        <time>2026-06-18T07:39:11.000Z</time>
        <extensions>
          <ns3:TrackPointExtension>
            <ns3:atemp>19.0</ns3:atemp>
          </ns3:TrackPointExtension>
        </extensions>
      </trkpt>
      <trkpt lat="42.53819555975496768951416015625" lon="19.78821099735796451568603515625">
        <ele>1279</ele>
        <time>2026-06-18T07:39:12.000Z</time>
        <extensions>
          <ns3:TrackPointExtension>
            <ns3:atemp>19.0</ns3:atemp>
          </ns3:TrackPointExtension>
        </extensions>
      </trkpt>
      <trkpt lat="42.53819555975496768951416015625" lon="19.78821099735796451568603515625">
        <ele>1279</ele>
        <time>2026-06-18T07:39:13.000Z</time>
        <extensions>
          <ns3:TrackPointExtension>
            <ns3:atemp>19.0</ns3:atemp>
          </ns3:TrackPointExtension>
        </extensions>
      </trkpt>
      <trkpt lat="42.53819555975496768951416015625" lon="19.78821099735796451568603515625">
        <ele>1279</ele>
        <time>2026-06-18T07:39:14.000Z</time>
        <extensions>
          <ns3:TrackPointExtension>
            <ns3:atemp>19.0</ns3:atemp>
          </ns3:TrackPointExtension>
        </extensions>
      </trkpt>
      <trkpt lat="42.53819555975496768951416015625" lon="19.78821099735796451568603515625">
        <ele>1279.199951171875</ele>
        <time>2026-06-18T07:39:15.000Z</time>
        <extensions>
          <ns3:TrackPointExtension>
            <ns3:atemp>19.0</ns3:atemp>
          </ns3:TrackPointExtension>
        </extensions>
      </trkpt>
      <trkpt lat="42.53819555975496768951416015625" lon="19.78821099735796451568603515625">
        <ele>1279.4000244140625</ele>
        <time>2026-06-18T07:39:16.000Z</time>
        <extensions>
          <ns3:TrackPointExtension>
            <ns3:atemp>19.0</ns3:atemp>
          </ns3:TrackPointExtension>
        </extensions>
      </trkpt>
      <trkpt lat="42.53819555975496768951416015625" lon="19.78821099735796451568603515625">
        <ele>1279.5999755859375</ele>
        <time>2026-06-18T07:39:17.000Z</time>
        <extensions>
          <ns3:TrackPointExtension>
            <ns3:atemp>19.0</ns3:atemp>
          </ns3:TrackPointExtension>
        </extensions>
      </trkpt>
      <trkpt lat="42.53819555975496768951416015625" lon="19.78821099735796451568603515625">
        <ele>1279.5999755859375</ele>
        <time>2026-06-18T07:39:18.000Z</time>
        <extensions>
          <ns3:TrackPointExtension>
            <ns3:atemp>19.0</ns3:atemp>
          </ns3:TrackPointExtension>
        </extensions>
      </trkpt>
      <trkpt lat="42.53819555975496768951416015625" lon="19.78821099735796451568603515625">
        <ele>1279.5999755859375</ele>
        <time>2026-06-18T07:39:19.000Z</time>
        <extensions>
          <ns3:TrackPointExtension>
            <ns3:atemp>19.0</ns3:atemp>
          </ns3:TrackPointExtension>
        </extensions>
      </trkpt>
      <trkpt lat="42.53819555975496768951416015625" lon="19.78821099735796451568603515625">
        <ele>1279.5999755859375</ele>
        <time>2026-06-18T07:39:20.000Z</time>
        <extensions>
          <ns3:TrackPointExtension>
            <ns3:atemp>19.0</ns3:atemp>
          </ns3:TrackPointExtension>
        </extensions>
      </trkpt>
      <trkpt lat="42.5381989963352680206298828125" lon="19.78819523938000202178955078125">
        <ele>1279.800048828125</ele>
        <time>2026-06-18T07:39:21.000Z</time>
        <extensions>
          <ns3:TrackPointExtension>
            <ns3:atemp>19.0</ns3:atemp>
          </ns3:TrackPointExtension>
        </extensions>
      </trkpt>
      <trkpt lat="42.53819924779236316680908203125" lon="19.7881986759603023529052734375">
        <ele>1279.800048828125</ele>
        <time>2026-06-18T07:39:22.000Z</time>
        <extensions>
          <ns3:TrackPointExtension>
            <ns3:atemp>19.0</ns3:atemp>
          </ns3:TrackPointExtension>
        </extensions>
      </trkpt>
      <trkpt lat="42.53819555975496768951416015625" lon="19.78821099735796451568603515625">
        <ele>1279.800048828125</ele>
        <time>2026-06-18T07:39:23.000Z</time>
        <extensions>
          <ns3:TrackPointExtension>
            <ns3:atemp>19.0</ns3:atemp>
          </ns3:TrackPointExtension>
        </extensions>
      </trkpt>
      <trkpt lat="42.53819555975496768951416015625" lon="19.78821099735796451568603515625">
        <ele>1279.800048828125</ele>
        <time>2026-06-18T07:39:24.000Z</time>
        <extensions>
          <ns3:TrackPointExtension>
            <ns3:atemp>19.0</ns3:atemp>
          </ns3:TrackPointExtension>
        </extensions>
      </trkpt>
      <trkpt lat="42.53819555975496768951416015625" lon="19.78821099735796451568603515625">
        <ele>1279.800048828125</ele>
        <time>2026-06-18T07:39:25.000Z</time>
        <extensions>
          <ns3:TrackPointExtension>
            <ns3:atemp>19.0</ns3:atemp>
          </ns3:TrackPointExtension>
        </extensions>
      </trkpt>
      <trkpt lat="42.53819555975496768951416015625" lon="19.78821099735796451568603515625">
        <ele>1280</ele>
        <time>2026-06-18T07:39:26.000Z</time>
        <extensions>
          <ns3:TrackPointExtension>
            <ns3:atemp>19.0</ns3:atemp>
          </ns3:TrackPointExtension>
        </extensions>
      </trkpt>
      <trkpt lat="42.53819555975496768951416015625" lon="19.78821099735796451568603515625">
        <ele>1280</ele>
        <time>2026-06-18T07:39:27.000Z</time>
        <extensions>
          <ns3:TrackPointExtension>
            <ns3:atemp>19.0</ns3:atemp>
          </ns3:TrackPointExtension>
        </extensions>
      </trkpt>
      <trkpt lat="42.53819555975496768951416015625" lon="19.78821099735796451568603515625">
        <ele>1280</ele>
        <time>2026-06-18T07:39:28.000Z</time>
        <extensions>
          <ns3:TrackPointExtension>
            <ns3:atemp>19.0</ns3:atemp>
          </ns3:TrackPointExtension>
        </extensions>
      </trkpt>
      <trkpt lat="42.53819555975496768951416015625" lon="19.78821099735796451568603515625">
        <ele>1280</ele>
        <time>2026-06-18T07:39:29.000Z</time>
        <extensions>
          <ns3:TrackPointExtension>
            <ns3:atemp>19.0</ns3:atemp>
          </ns3:TrackPointExtension>
        </extensions>
      </trkpt>
      <trkpt lat="42.53819555975496768951416015625" lon="19.78821099735796451568603515625">
        <ele>1280</ele>
        <time>2026-06-18T07:39:30.000Z</time>
        <extensions>
          <ns3:TrackPointExtension>
            <ns3:atemp>19.0</ns3:atemp>
          </ns3:TrackPointExtension>
        </extensions>
      </trkpt>
      <trkpt lat="42.53819555975496768951416015625" lon="19.78821099735796451568603515625">
        <ele>1280</ele>
        <time>2026-06-18T07:39:31.000Z</time>
        <extensions>
          <ns3:TrackPointExtension>
            <ns3:atemp>19.0</ns3:atemp>
          </ns3:TrackPointExtension>
        </extensions>
      </trkpt>
      <trkpt lat="42.53819555975496768951416015625" lon="19.78821099735796451568603515625">
        <ele>1280</ele>
        <time>2026-06-18T07:39:32.000Z</time>
        <extensions>
          <ns3:TrackPointExtension>
            <ns3:atemp>19.0</ns3:atemp>
          </ns3:TrackPointExtension>
        </extensions>
      </trkpt>
      <trkpt lat="42.53819555975496768951416015625" lon="19.78821099735796451568603515625">
        <ele>1280</ele>
        <time>2026-06-18T07:39:33.000Z</time>
        <extensions>
          <ns3:TrackPointExtension>
            <ns3:atemp>19.0</ns3:atemp>
          </ns3:TrackPointExtension>
        </extensions>
      </trkpt>
      <trkpt lat="42.53819555975496768951416015625" lon="19.78821099735796451568603515625">
        <ele>1280</ele>
        <time>2026-06-18T07:39:34.000Z</time>
        <extensions>
          <ns3:TrackPointExtension>
            <ns3:atemp>19.0</ns3:atemp>
          </ns3:TrackPointExtension>
        </extensions>
      </trkpt>
      <trkpt lat="42.53819555975496768951416015625" lon="19.78821099735796451568603515625">
        <ele>1280</ele>
        <time>2026-06-18T07:39:35.000Z</time>
        <extensions>
          <ns3:TrackPointExtension>
            <ns3:atemp>19.0</ns3:atemp>
          </ns3:TrackPointExtension>
        </extensions>
      </trkpt>
      <trkpt lat="42.53819555975496768951416015625" lon="19.78821099735796451568603515625">
        <ele>1280.199951171875</ele>
        <time>2026-06-18T07:39:36.000Z</time>
        <extensions>
          <ns3:TrackPointExtension>
            <ns3:atemp>19.0</ns3:atemp>
          </ns3:TrackPointExtension>
        </extensions>
      </trkpt>
      <trkpt lat="42.53819555975496768951416015625" lon="19.78821099735796451568603515625">
        <ele>1280.199951171875</ele>
        <time>2026-06-18T07:39:37.000Z</time>
        <extensions>
          <ns3:TrackPointExtension>
            <ns3:atemp>19.0</ns3:atemp>
          </ns3:TrackPointExtension>
        </extensions>
      </trkpt>
      <trkpt lat="42.53819555975496768951416015625" lon="19.78821099735796451568603515625">
        <ele>1280.199951171875</ele>
        <time>2026-06-18T07:39:38.000Z</time>
        <extensions>
          <ns3:TrackPointExtension>
            <ns3:atemp>19.0</ns3:atemp>
          </ns3:TrackPointExtension>
        </extensions>
      </trkpt>
      <trkpt lat="42.53819555975496768951416015625" lon="19.78821099735796451568603515625">
        <ele>1280.199951171875</ele>
        <time>2026-06-18T07:39:39.000Z</time>
        <extensions>
          <ns3:TrackPointExtension>
            <ns3:atemp>19.0</ns3:atemp>
          </ns3:TrackPointExtension>
        </extensions>
      </trkpt>
      <trkpt lat="42.53819555975496768951416015625" lon="19.78821099735796451568603515625">
        <ele>1280.199951171875</ele>
        <time>2026-06-18T07:39:40.000Z</time>
        <extensions>
          <ns3:TrackPointExtension>
            <ns3:atemp>19.0</ns3:atemp>
          </ns3:TrackPointExtension>
        </extensions>
      </trkpt>
      <trkpt lat="42.53819555975496768951416015625" lon="19.78821099735796451568603515625">
        <ele>1280.199951171875</ele>
        <time>2026-06-18T07:39:41.000Z</time>
        <extensions>
          <ns3:TrackPointExtension>
            <ns3:atemp>19.0</ns3:atemp>
          </ns3:TrackPointExtension>
        </extensions>
      </trkpt>
      <trkpt lat="42.53819555975496768951416015625" lon="19.78821099735796451568603515625">
        <ele>1280.199951171875</ele>
        <time>2026-06-18T07:39:42.000Z</time>
        <extensions>
          <ns3:TrackPointExtension>
            <ns3:atemp>19.0</ns3:atemp>
          </ns3:TrackPointExtension>
        </extensions>
      </trkpt>
      <trkpt lat="42.53819555975496768951416015625" lon="19.78821099735796451568603515625">
        <ele>1280.199951171875</ele>
        <time>2026-06-18T07:39:43.000Z</time>
        <extensions>
          <ns3:TrackPointExtension>
            <ns3:atemp>19.0</ns3:atemp>
          </ns3:TrackPointExtension>
        </extensions>
      </trkpt>
      <trkpt lat="42.53819555975496768951416015625" lon="19.78821099735796451568603515625">
        <ele>1280.199951171875</ele>
        <time>2026-06-18T07:39:44.000Z</time>
        <extensions>
          <ns3:TrackPointExtension>
            <ns3:atemp>19.0</ns3:atemp>
          </ns3:TrackPointExtension>
        </extensions>
      </trkpt>
      <trkpt lat="42.53819555975496768951416015625" lon="19.78821099735796451568603515625">
        <ele>1280.199951171875</ele>
        <time>2026-06-18T07:39:45.000Z</time>
        <extensions>
          <ns3:TrackPointExtension>
            <ns3:atemp>19.0</ns3:atemp>
          </ns3:TrackPointExtension>
        </extensions>
      </trkpt>
      <trkpt lat="42.53819555975496768951416015625" lon="19.78821099735796451568603515625">
        <ele>1280.199951171875</ele>
        <time>2026-06-18T07:39:46.000Z</time>
        <extensions>
          <ns3:TrackPointExtension>
            <ns3:atemp>19.0</ns3:atemp>
          </ns3:TrackPointExtension>
        </extensions>
      </trkpt>
      <trkpt lat="42.53819555975496768951416015625" lon="19.78821099735796451568603515625">
        <ele>1280.199951171875</ele>
        <time>2026-06-18T07:39:47.000Z</time>
        <extensions>
          <ns3:TrackPointExtension>
            <ns3:atemp>19.0</ns3:atemp>
          </ns3:TrackPointExtension>
        </extensions>
      </trkpt>
      <trkpt lat="42.53819555975496768951416015625" lon="19.78821099735796451568603515625">
        <ele>1280.199951171875</ele>
        <time>2026-06-18T07:39:48.000Z</time>
        <extensions>
          <ns3:TrackPointExtension>
            <ns3:atemp>19.0</ns3:atemp>
          </ns3:TrackPointExtension>
        </extensions>
      </trkpt>
      <trkpt lat="42.53819555975496768951416015625" lon="19.78821099735796451568603515625">
        <ele>1280.199951171875</ele>
        <time>2026-06-18T07:39:49.000Z</time>
        <extensions>
          <ns3:TrackPointExtension>
            <ns3:atemp>19.0</ns3:atemp>
          </ns3:TrackPointExtension>
        </extensions>
      </trkpt>
      <trkpt lat="42.53819555975496768951416015625" lon="19.78821099735796451568603515625">
        <ele>1280.4000244140625</ele>
        <time>2026-06-18T07:39:50.000Z</time>
        <extensions>
          <ns3:TrackPointExtension>
            <ns3:atemp>19.0</ns3:atemp>
          </ns3:TrackPointExtension>
        </extensions>
      </trkpt>
      <trkpt lat="42.53819555975496768951416015625" lon="19.78821099735796451568603515625">
        <ele>1280.4000244140625</ele>
        <time>2026-06-18T07:39:51.000Z</time>
        <extensions>
          <ns3:TrackPointExtension>
            <ns3:atemp>19.0</ns3:atemp>
          </ns3:TrackPointExtension>
        </extensions>
      </trkpt>
      <trkpt lat="42.53819555975496768951416015625" lon="19.78821099735796451568603515625">
        <ele>1280.4000244140625</ele>
        <time>2026-06-18T07:39:52.000Z</time>
        <extensions>
          <ns3:TrackPointExtension>
            <ns3:atemp>19.0</ns3:atemp>
          </ns3:TrackPointExtension>
        </extensions>
      </trkpt>
      <trkpt lat="42.5382028520107269287109375" lon="19.78819842450320720672607421875">
        <ele>1280.4000244140625</ele>
        <time>2026-06-18T07:39:53.000Z</time>
        <extensions>
          <ns3:TrackPointExtension>
            <ns3:atemp>19.0</ns3:atemp>
          </ns3:TrackPointExtension>
        </extensions>
      </trkpt>
      <trkpt lat="42.53820695914328098297119140625" lon="19.7881980054080486297607421875">
        <ele>1280.4000244140625</ele>
        <time>2026-06-18T07:39:54.000Z</time>
        <extensions>
          <ns3:TrackPointExtension>
            <ns3:atemp>19.0</ns3:atemp>
          </ns3:TrackPointExtension>
        </extensions>
      </trkpt>
      <trkpt lat="42.5382070429623126983642578125" lon="19.78819808922708034515380859375">
        <ele>1280.199951171875</ele>
        <time>2026-06-18T07:39:55.000Z</time>
        <extensions>
          <ns3:TrackPointExtension>
            <ns3:atemp>19.0</ns3:atemp>
          </ns3:TrackPointExtension>
        </extensions>
      </trkpt>
      <trkpt lat="42.5382070429623126983642578125" lon="19.78819808922708034515380859375">
        <ele>1280</ele>
        <time>2026-06-18T07:39:56.000Z</time>
        <extensions>
          <ns3:TrackPointExtension>
            <ns3:atemp>19.0</ns3:atemp>
          </ns3:TrackPointExtension>
        </extensions>
      </trkpt>
      <trkpt lat="42.5382070429623126983642578125" lon="19.78819808922708034515380859375">
        <ele>1280</ele>
        <time>2026-06-18T07:39:57.000Z</time>
        <extensions>
          <ns3:TrackPointExtension>
            <ns3:atemp>19.0</ns3:atemp>
          </ns3:TrackPointExtension>
        </extensions>
      </trkpt>
      <trkpt lat="42.5382070429623126983642578125" lon="19.78819808922708034515380859375">
        <ele>1279.800048828125</ele>
        <time>2026-06-18T07:39:58.000Z</time>
        <extensions>
          <ns3:TrackPointExtension>
            <ns3:atemp>19.0</ns3:atemp>
          </ns3:TrackPointExtension>
        </extensions>
      </trkpt>
      <trkpt lat="42.5382070429623126983642578125" lon="19.78819808922708034515380859375">
        <ele>1279.5999755859375</ele>
        <time>2026-06-18T07:39:59.000Z</time>
        <extensions>
          <ns3:TrackPointExtension>
            <ns3:atemp>19.0</ns3:atemp>
          </ns3:TrackPointExtension>
        </extensions>
      </trkpt>
      <trkpt lat="42.5382070429623126983642578125" lon="19.78819808922708034515380859375">
        <ele>1279.5999755859375</ele>
        <time>2026-06-18T07:40:00.000Z</time>
        <extensions>
          <ns3:TrackPointExtension>
            <ns3:atemp>19.0</ns3:atemp>
          </ns3:TrackPointExtension>
        </extensions>
      </trkpt>
      <trkpt lat="42.5382070429623126983642578125" lon="19.78819808922708034515380859375">
        <ele>1279.5999755859375</ele>
        <time>2026-06-18T07:40:01.000Z</time>
        <extensions>
          <ns3:TrackPointExtension>
            <ns3:atemp>19.0</ns3:atemp>
          </ns3:TrackPointExtension>
        </extensions>
      </trkpt>
      <trkpt lat="42.5382070429623126983642578125" lon="19.78819808922708034515380859375">
        <ele>1279.5999755859375</ele>
        <time>2026-06-18T07:40:02.000Z</time>
        <extensions>
          <ns3:TrackPointExtension>
            <ns3:atemp>19.0</ns3:atemp>
          </ns3:TrackPointExtension>
        </extensions>
      </trkpt>
      <trkpt lat="42.5382070429623126983642578125" lon="19.78819808922708034515380859375">
        <ele>1279.4000244140625</ele>
        <time>2026-06-18T07:40:03.000Z</time>
        <extensions>
          <ns3:TrackPointExtension>
            <ns3:atemp>19.0</ns3:atemp>
          </ns3:TrackPointExtension>
        </extensions>
      </trkpt>
      <trkpt lat="42.5382070429623126983642578125" lon="19.78819808922708034515380859375">
        <ele>1279.4000244140625</ele>
        <time>2026-06-18T07:40:04.000Z</time>
        <extensions>
          <ns3:TrackPointExtension>
            <ns3:atemp>19.0</ns3:atemp>
          </ns3:TrackPointExtension>
        </extensions>
      </trkpt>
      <trkpt lat="42.5382070429623126983642578125" lon="19.78819808922708034515380859375">
        <ele>1279.4000244140625</ele>
        <time>2026-06-18T07:40:05.000Z</time>
        <extensions>
          <ns3:TrackPointExtension>
            <ns3:atemp>19.0</ns3:atemp>
          </ns3:TrackPointExtension>
        </extensions>
      </trkpt>
      <trkpt lat="42.5382070429623126983642578125" lon="19.78819808922708034515380859375">
        <ele>1279.4000244140625</ele>
        <time>2026-06-18T07:40:06.000Z</time>
        <extensions>
          <ns3:TrackPointExtension>
            <ns3:atemp>19.0</ns3:atemp>
          </ns3:TrackPointExtension>
        </extensions>
      </trkpt>
      <trkpt lat="42.5382070429623126983642578125" lon="19.78819808922708034515380859375">
        <ele>1279.4000244140625</ele>
        <time>2026-06-18T07:40:07.000Z</time>
        <extensions>
          <ns3:TrackPointExtension>
            <ns3:atemp>19.0</ns3:atemp>
          </ns3:TrackPointExtension>
        </extensions>
      </trkpt>
      <trkpt lat="42.5382070429623126983642578125" lon="19.78819808922708034515380859375">
        <ele>1279.199951171875</ele>
        <time>2026-06-18T07:40:08.000Z</time>
        <extensions>
          <ns3:TrackPointExtension>
            <ns3:atemp>19.0</ns3:atemp>
          </ns3:TrackPointExtension>
        </extensions>
      </trkpt>
      <trkpt lat="42.5382070429623126983642578125" lon="19.78819808922708034515380859375">
        <ele>1279.199951171875</ele>
        <time>2026-06-18T07:40:09.000Z</time>
        <extensions>
          <ns3:TrackPointExtension>
            <ns3:atemp>19.0</ns3:atemp>
          </ns3:TrackPointExtension>
        </extensions>
      </trkpt>
      <trkpt lat="42.5382070429623126983642578125" lon="19.78819808922708034515380859375">
        <ele>1279.199951171875</ele>
        <time>2026-06-18T07:40:10.000Z</time>
        <extensions>
          <ns3:TrackPointExtension>
            <ns3:atemp>19.0</ns3:atemp>
          </ns3:TrackPointExtension>
        </extensions>
      </trkpt>
      <trkpt lat="42.53820846788585186004638671875" lon="19.7881909646093845367431640625">
        <ele>1279.199951171875</ele>
        <time>2026-06-18T07:40:11.000Z</time>
        <extensions>
          <ns3:TrackPointExtension>
            <ns3:atemp>19.0</ns3:atemp>
          </ns3:TrackPointExtension>
        </extensions>
      </trkpt>
      <trkpt lat="42.538215927779674530029296875" lon="19.78818266652524471282958984375">
        <ele>1279.199951171875</ele>
        <time>2026-06-18T07:40:12.000Z</time>
        <extensions>
          <ns3:TrackPointExtension>
            <ns3:atemp>19.0</ns3:atemp>
          </ns3:TrackPointExtension>
        </extensions>
      </trkpt>
      <trkpt lat="42.538223303854465484619140625" lon="19.78818149305880069732666015625">
        <ele>1279.199951171875</ele>
        <time>2026-06-18T07:40:13.000Z</time>
        <extensions>
          <ns3:TrackPointExtension>
            <ns3:atemp>19.0</ns3:atemp>
          </ns3:TrackPointExtension>
        </extensions>
      </trkpt>
      <trkpt lat="42.53822942264378070831298828125" lon="19.78818199597299098968505859375">
        <ele>1279.199951171875</ele>
        <time>2026-06-18T07:40:14.000Z</time>
        <extensions>
          <ns3:TrackPointExtension>
            <ns3:atemp>19.0</ns3:atemp>
          </ns3:TrackPointExtension>
        </extensions>
      </trkpt>
      <trkpt lat="42.53823730163276195526123046875" lon="19.78818811476230621337890625">
        <ele>1279.199951171875</ele>
        <time>2026-06-18T07:40:15.000Z</time>
        <extensions>
          <ns3:TrackPointExtension>
            <ns3:atemp>19.0</ns3:atemp>
          </ns3:TrackPointExtension>
        </extensions>
      </trkpt>
      <trkpt lat="42.53824149258434772491455078125" lon="19.788196496665477752685546875">
        <ele>1279.199951171875</ele>
        <time>2026-06-18T07:40:16.000Z</time>
        <extensions>
          <ns3:TrackPointExtension>
            <ns3:atemp>19.0</ns3:atemp>
          </ns3:TrackPointExtension>
        </extensions>
      </trkpt>
      <trkpt lat="42.5382449291646480560302734375" lon="19.788201190531253814697265625">
        <ele>1279.199951171875</ele>
        <time>2026-06-18T07:40:17.000Z</time>
        <extensions>
          <ns3:TrackPointExtension>
            <ns3:atemp>19.0</ns3:atemp>
          </ns3:TrackPointExtension>
        </extensions>
      </trkpt>
      <trkpt lat="42.5382486172020435333251953125" lon="19.788211248815059661865234375">
        <ele>1279.4000244140625</ele>
        <time>2026-06-18T07:40:18.000Z</time>
        <extensions>
          <ns3:TrackPointExtension>
            <ns3:atemp>19.0</ns3:atemp>
          </ns3:TrackPointExtension>
        </extensions>
      </trkpt>
      <trkpt lat="42.53825138323009014129638671875" lon="19.78821300901472568511962890625">
        <ele>1279.5999755859375</ele>
        <time>2026-06-18T07:40:19.000Z</time>
        <extensions>
          <ns3:TrackPointExtension>
            <ns3:atemp>19.0</ns3:atemp>
          </ns3:TrackPointExtension>
        </extensions>
      </trkpt>
      <trkpt lat="42.53825423307716846466064453125" lon="19.78821418248116970062255859375">
        <ele>1279.5999755859375</ele>
        <time>2026-06-18T07:40:20.000Z</time>
        <extensions>
          <ns3:TrackPointExtension>
            <ns3:atemp>19.0</ns3:atemp>
          </ns3:TrackPointExtension>
        </extensions>
      </trkpt>
      <trkpt lat="42.538249790668487548828125" lon="19.7882130928337574005126953125">
        <ele>1279.800048828125</ele>
        <time>2026-06-18T07:40:21.000Z</time>
        <extensions>
          <ns3:TrackPointExtension>
            <ns3:atemp>19.0</ns3:atemp>
          </ns3:TrackPointExtension>
        </extensions>
      </trkpt>
      <trkpt lat="42.53824953921139240264892578125" lon="19.7882120870053768157958984375">
        <ele>1280</ele>
        <time>2026-06-18T07:40:22.000Z</time>
        <extensions>
          <ns3:TrackPointExtension>
            <ns3:atemp>19.0</ns3:atemp>
          </ns3:TrackPointExtension>
        </extensions>
      </trkpt>
      <trkpt lat="42.5382496230304241180419921875" lon="19.78821225464344024658203125">
        <ele>1280</ele>
        <time>2026-06-18T07:40:23.000Z</time>
        <extensions>
          <ns3:TrackPointExtension>
            <ns3:atemp>19.0</ns3:atemp>
          </ns3:TrackPointExtension>
        </extensions>
      </trkpt>
      <trkpt lat="42.5382496230304241180419921875" lon="19.78821225464344024658203125">
        <ele>1280.199951171875</ele>
        <time>2026-06-18T07:40:24.000Z</time>
        <extensions>
          <ns3:TrackPointExtension>
            <ns3:atemp>19.0</ns3:atemp>
          </ns3:TrackPointExtension>
        </extensions>
      </trkpt>
      <trkpt lat="42.5382496230304241180419921875" lon="19.78821225464344024658203125">
        <ele>1280.199951171875</ele>
        <time>2026-06-18T07:40:25.000Z</time>
        <extensions>
          <ns3:TrackPointExtension>
            <ns3:atemp>19.0</ns3:atemp>
          </ns3:TrackPointExtension>
        </extensions>
      </trkpt>
      <trkpt lat="42.5382496230304241180419921875" lon="19.78821225464344024658203125">
        <ele>1280.4000244140625</ele>
        <time>2026-06-18T07:40:26.000Z</time>
        <extensions>
          <ns3:TrackPointExtension>
            <ns3:atemp>19.0</ns3:atemp>
          </ns3:TrackPointExtension>
        </extensions>
      </trkpt>
      <trkpt lat="42.5382496230304241180419921875" lon="19.78821225464344024658203125">
        <ele>1280.4000244140625</ele>
        <time>2026-06-18T07:40:27.000Z</time>
        <extensions>
          <ns3:TrackPointExtension>
            <ns3:atemp>19.0</ns3:atemp>
          </ns3:TrackPointExtension>
        </extensions>
      </trkpt>
      <trkpt lat="42.5382496230304241180419921875" lon="19.78821225464344024658203125">
        <ele>1280.4000244140625</ele>
        <time>2026-06-18T07:40:28.000Z</time>
        <extensions>
          <ns3:TrackPointExtension>
            <ns3:atemp>19.0</ns3:atemp>
          </ns3:TrackPointExtension>
        </extensions>
      </trkpt>
      <trkpt lat="42.5382496230304241180419921875" lon="19.78821225464344024658203125">
        <ele>1280.4000244140625</ele>
        <time>2026-06-18T07:40:29.000Z</time>
        <extensions>
          <ns3:TrackPointExtension>
            <ns3:atemp>19.0</ns3:atemp>
          </ns3:TrackPointExtension>
        </extensions>
      </trkpt>
      <trkpt lat="42.5382496230304241180419921875" lon="19.78821225464344024658203125">
        <ele>1280.5999755859375</ele>
        <time>2026-06-18T07:40:30.000Z</time>
        <extensions>
          <ns3:TrackPointExtension>
            <ns3:atemp>19.0</ns3:atemp>
          </ns3:TrackPointExtension>
        </extensions>
      </trkpt>
      <trkpt lat="42.5382496230304241180419921875" lon="19.78821225464344024658203125">
        <ele>1280.5999755859375</ele>
        <time>2026-06-18T07:40:31.000Z</time>
        <extensions>
          <ns3:TrackPointExtension>
            <ns3:atemp>19.0</ns3:atemp>
          </ns3:TrackPointExtension>
        </extensions>
      </trkpt>
      <trkpt lat="42.5382496230304241180419921875" lon="19.78821225464344024658203125">
        <ele>1280.5999755859375</ele>
        <time>2026-06-18T07:40:32.000Z</time>
        <extensions>
          <ns3:TrackPointExtension>
            <ns3:atemp>19.0</ns3:atemp>
          </ns3:TrackPointExtension>
        </extensions>
      </trkpt>
      <trkpt lat="42.5382496230304241180419921875" lon="19.78821225464344024658203125">
        <ele>1280.800048828125</ele>
        <time>2026-06-18T07:40:33.000Z</time>
        <extensions>
          <ns3:TrackPointExtension>
            <ns3:atemp>19.0</ns3:atemp>
          </ns3:TrackPointExtension>
        </extensions>
      </trkpt>
      <trkpt lat="42.5382496230304241180419921875" lon="19.78821225464344024658203125">
        <ele>1280.800048828125</ele>
        <time>2026-06-18T07:40:34.000Z</time>
        <extensions>
          <ns3:TrackPointExtension>
            <ns3:atemp>19.0</ns3:atemp>
          </ns3:TrackPointExtension>
        </extensions>
      </trkpt>
      <trkpt lat="42.5382496230304241180419921875" lon="19.78821225464344024658203125">
        <ele>1280.800048828125</ele>
        <time>2026-06-18T07:40:35.000Z</time>
        <extensions>
          <ns3:TrackPointExtension>
            <ns3:atemp>19.0</ns3:atemp>
          </ns3:TrackPointExtension>
        </extensions>
      </trkpt>
      <trkpt lat="42.5382496230304241180419921875" lon="19.78821225464344024658203125">
        <ele>1280.800048828125</ele>
        <time>2026-06-18T07:40:36.000Z</time>
        <extensions>
          <ns3:TrackPointExtension>
            <ns3:atemp>19.0</ns3:atemp>
          </ns3:TrackPointExtension>
        </extensions>
      </trkpt>
      <trkpt lat="42.5382496230304241180419921875" lon="19.78821225464344024658203125">
        <ele>1281</ele>
        <time>2026-06-18T07:40:37.000Z</time>
        <extensions>
          <ns3:TrackPointExtension>
            <ns3:atemp>19.0</ns3:atemp>
          </ns3:TrackPointExtension>
        </extensions>
      </trkpt>
      <trkpt lat="42.5382496230304241180419921875" lon="19.78821225464344024658203125">
        <ele>1281</ele>
        <time>2026-06-18T07:40:38.000Z</time>
        <extensions>
          <ns3:TrackPointExtension>
            <ns3:atemp>19.0</ns3:atemp>
          </ns3:TrackPointExtension>
        </extensions>
      </trkpt>
      <trkpt lat="42.5382496230304241180419921875" lon="19.78821225464344024658203125">
        <ele>1281</ele>
        <time>2026-06-18T07:40:39.000Z</time>
        <extensions>
          <ns3:TrackPointExtension>
            <ns3:atemp>19.0</ns3:atemp>
          </ns3:TrackPointExtension>
        </extensions>
      </trkpt>
      <trkpt lat="42.5382496230304241180419921875" lon="19.78821225464344024658203125">
        <ele>1281</ele>
        <time>2026-06-18T07:40:40.000Z</time>
        <extensions>
          <ns3:TrackPointExtension>
            <ns3:atemp>19.0</ns3:atemp>
          </ns3:TrackPointExtension>
        </extensions>
      </trkpt>
      <trkpt lat="42.5382496230304241180419921875" lon="19.78821225464344024658203125">
        <ele>1281.199951171875</ele>
        <time>2026-06-18T07:40:41.000Z</time>
        <extensions>
          <ns3:TrackPointExtension>
            <ns3:atemp>19.0</ns3:atemp>
          </ns3:TrackPointExtension>
        </extensions>
      </trkpt>
      <trkpt lat="42.5382496230304241180419921875" lon="19.78821225464344024658203125">
        <ele>1281.199951171875</ele>
        <time>2026-06-18T07:40:42.000Z</time>
        <extensions>
          <ns3:TrackPointExtension>
            <ns3:atemp>20.0</ns3:atemp>
          </ns3:TrackPointExtension>
        </extensions>
      </trkpt>
      <trkpt lat="42.5382496230304241180419921875" lon="19.78821225464344024658203125">
        <ele>1281.199951171875</ele>
        <time>2026-06-18T07:40:43.000Z</time>
        <extensions>
          <ns3:TrackPointExtension>
            <ns3:atemp>20.0</ns3:atemp>
          </ns3:TrackPointExtension>
        </extensions>
      </trkpt>
      <trkpt lat="42.5382496230304241180419921875" lon="19.78821225464344024658203125">
        <ele>1281.199951171875</ele>
        <time>2026-06-18T07:40:44.000Z</time>
        <extensions>
          <ns3:TrackPointExtension>
            <ns3:atemp>20.0</ns3:atemp>
          </ns3:TrackPointExtension>
        </extensions>
      </trkpt>
      <trkpt lat="42.5382496230304241180419921875" lon="19.78821225464344024658203125">
        <ele>1281.199951171875</ele>
        <time>2026-06-18T07:40:45.000Z</time>
        <extensions>
          <ns3:TrackPointExtension>
            <ns3:atemp>20.0</ns3:atemp>
          </ns3:TrackPointExtension>
        </extensions>
      </trkpt>
      <trkpt lat="42.5382496230304241180419921875" lon="19.78821225464344024658203125">
        <ele>1281.4000244140625</ele>
        <time>2026-06-18T07:40:46.000Z</time>
        <extensions>
          <ns3:TrackPointExtension>
            <ns3:atemp>20.0</ns3:atemp>
          </ns3:TrackPointExtension>
        </extensions>
      </trkpt>
      <trkpt lat="42.5382496230304241180419921875" lon="19.78821225464344024658203125">
        <ele>1281.4000244140625</ele>
        <time>2026-06-18T07:40:47.000Z</time>
        <extensions>
          <ns3:TrackPointExtension>
            <ns3:atemp>19.0</ns3:atemp>
          </ns3:TrackPointExtension>
        </extensions>
      </trkpt>
      <trkpt lat="42.5382496230304241180419921875" lon="19.78821225464344024658203125">
        <ele>1281.4000244140625</ele>
        <time>2026-06-18T07:40:48.000Z</time>
        <extensions>
          <ns3:TrackPointExtension>
            <ns3:atemp>19.0</ns3:atemp>
          </ns3:TrackPointExtension>
        </extensions>
      </trkpt>
      <trkpt lat="42.5382496230304241180419921875" lon="19.78821225464344024658203125">
        <ele>1281.4000244140625</ele>
        <time>2026-06-18T07:40:49.000Z</time>
        <extensions>
          <ns3:TrackPointExtension>
            <ns3:atemp>19.0</ns3:atemp>
          </ns3:TrackPointExtension>
        </extensions>
      </trkpt>
      <trkpt lat="42.5382496230304241180419921875" lon="19.78821225464344024658203125">
        <ele>1281.4000244140625</ele>
        <time>2026-06-18T07:40:50.000Z</time>
        <extensions>
          <ns3:TrackPointExtension>
            <ns3:atemp>19.0</ns3:atemp>
          </ns3:TrackPointExtension>
        </extensions>
      </trkpt>
      <trkpt lat="42.5382496230304241180419921875" lon="19.78821225464344024658203125">
        <ele>1281.4000244140625</ele>
        <time>2026-06-18T07:40:51.000Z</time>
        <extensions>
          <ns3:TrackPointExtension>
            <ns3:atemp>20.0</ns3:atemp>
          </ns3:TrackPointExtension>
        </extensions>
      </trkpt>
      <trkpt lat="42.5382496230304241180419921875" lon="19.78821225464344024658203125">
        <ele>1281.4000244140625</ele>
        <time>2026-06-18T07:40:52.000Z</time>
        <extensions>
          <ns3:TrackPointExtension>
            <ns3:atemp>20.0</ns3:atemp>
          </ns3:TrackPointExtension>
        </extensions>
      </trkpt>
      <trkpt lat="42.5382496230304241180419921875" lon="19.78821225464344024658203125">
        <ele>1281.5999755859375</ele>
        <time>2026-06-18T07:40:53.000Z</time>
        <extensions>
          <ns3:TrackPointExtension>
            <ns3:atemp>20.0</ns3:atemp>
          </ns3:TrackPointExtension>
        </extensions>
      </trkpt>
      <trkpt lat="42.5382496230304241180419921875" lon="19.78821225464344024658203125">
        <ele>1281.5999755859375</ele>
        <time>2026-06-18T07:40:54.000Z</time>
        <extensions>
          <ns3:TrackPointExtension>
            <ns3:atemp>20.0</ns3:atemp>
          </ns3:TrackPointExtension>
        </extensions>
      </trkpt>
      <trkpt lat="42.5382496230304241180419921875" lon="19.78821225464344024658203125">
        <ele>1281.5999755859375</ele>
        <time>2026-06-18T07:40:55.000Z</time>
        <extensions>
          <ns3:TrackPointExtension>
            <ns3:atemp>20.0</ns3:atemp>
          </ns3:TrackPointExtension>
        </extensions>
      </trkpt>
      <trkpt lat="42.5382496230304241180419921875" lon="19.78821225464344024658203125">
        <ele>1281.5999755859375</ele>
        <time>2026-06-18T07:40:56.000Z</time>
        <extensions>
          <ns3:TrackPointExtension>
            <ns3:atemp>20.0</ns3:atemp>
          </ns3:TrackPointExtension>
        </extensions>
      </trkpt>
      <trkpt lat="42.5382496230304241180419921875" lon="19.78821225464344024658203125">
        <ele>1281.5999755859375</ele>
        <time>2026-06-18T07:40:57.000Z</time>
        <extensions>
          <ns3:TrackPointExtension>
            <ns3:atemp>20.0</ns3:atemp>
          </ns3:TrackPointExtension>
        </extensions>
      </trkpt>
      <trkpt lat="42.5382496230304241180419921875" lon="19.78821225464344024658203125">
        <ele>1281.5999755859375</ele>
        <time>2026-06-18T07:40:58.000Z</time>
        <extensions>
          <ns3:TrackPointExtension>
            <ns3:atemp>20.0</ns3:atemp>
          </ns3:TrackPointExtension>
        </extensions>
      </trkpt>
      <trkpt lat="42.5382496230304241180419921875" lon="19.78821225464344024658203125">
        <ele>1281.5999755859375</ele>
        <time>2026-06-18T07:40:59.000Z</time>
        <extensions>
          <ns3:TrackPointExtension>
            <ns3:atemp>20.0</ns3:atemp>
          </ns3:TrackPointExtension>
        </extensions>
      </trkpt>
      <trkpt lat="42.5382496230304241180419921875" lon="19.78821225464344024658203125">
        <ele>1281.800048828125</ele>
        <time>2026-06-18T07:41:00.000Z</time>
        <extensions>
          <ns3:TrackPointExtension>
            <ns3:atemp>20.0</ns3:atemp>
          </ns3:TrackPointExtension>
        </extensions>
      </trkpt>
      <trkpt lat="42.5382496230304241180419921875" lon="19.78821225464344024658203125">
        <ele>1281.800048828125</ele>
        <time>2026-06-18T07:41:01.000Z</time>
        <extensions>
          <ns3:TrackPointExtension>
            <ns3:atemp>20.0</ns3:atemp>
          </ns3:TrackPointExtension>
        </extensions>
      </trkpt>
      <trkpt lat="42.5382496230304241180419921875" lon="19.78821225464344024658203125">
        <ele>1281.800048828125</ele>
        <time>2026-06-18T07:41:02.000Z</time>
        <extensions>
          <ns3:TrackPointExtension>
            <ns3:atemp>20.0</ns3:atemp>
          </ns3:TrackPointExtension>
        </extensions>
      </trkpt>
      <trkpt lat="42.5382496230304241180419921875" lon="19.78821225464344024658203125">
        <ele>1281.800048828125</ele>
        <time>2026-06-18T07:41:03.000Z</time>
        <extensions>
          <ns3:TrackPointExtension>
            <ns3:atemp>20.0</ns3:atemp>
          </ns3:TrackPointExtension>
        </extensions>
      </trkpt>
      <trkpt lat="42.5382496230304241180419921875" lon="19.78821225464344024658203125">
        <ele>1281.800048828125</ele>
        <time>2026-06-18T07:41:04.000Z</time>
        <extensions>
          <ns3:TrackPointExtension>
            <ns3:atemp>20.0</ns3:atemp>
          </ns3:TrackPointExtension>
        </extensions>
      </trkpt>
      <trkpt lat="42.5382496230304241180419921875" lon="19.78821225464344024658203125">
        <ele>1281.800048828125</ele>
        <time>2026-06-18T07:41:05.000Z</time>
        <extensions>
          <ns3:TrackPointExtension>
            <ns3:atemp>20.0</ns3:atemp>
          </ns3:TrackPointExtension>
        </extensions>
      </trkpt>
      <trkpt lat="42.5382496230304241180419921875" lon="19.78821225464344024658203125">
        <ele>1281.800048828125</ele>
        <time>2026-06-18T07:41:06.000Z</time>
        <extensions>
          <ns3:TrackPointExtension>
            <ns3:atemp>20.0</ns3:atemp>
          </ns3:TrackPointExtension>
        </extensions>
      </trkpt>
      <trkpt lat="42.5382496230304241180419921875" lon="19.78821225464344024658203125">
        <ele>1281.800048828125</ele>
        <time>2026-06-18T07:41:07.000Z</time>
        <extensions>
          <ns3:TrackPointExtension>
            <ns3:atemp>20.0</ns3:atemp>
          </ns3:TrackPointExtension>
        </extensions>
      </trkpt>
      <trkpt lat="42.5382496230304241180419921875" lon="19.78821225464344024658203125">
        <ele>1281.800048828125</ele>
        <time>2026-06-18T07:41:08.000Z</time>
        <extensions>
          <ns3:TrackPointExtension>
            <ns3:atemp>20.0</ns3:atemp>
          </ns3:TrackPointExtension>
        </extensions>
      </trkpt>
      <trkpt lat="42.5382496230304241180419921875" lon="19.78821225464344024658203125">
        <ele>1281.800048828125</ele>
        <time>2026-06-18T07:41:09.000Z</time>
        <extensions>
          <ns3:TrackPointExtension>
            <ns3:atemp>20.0</ns3:atemp>
          </ns3:TrackPointExtension>
        </extensions>
      </trkpt>
      <trkpt lat="42.5382496230304241180419921875" lon="19.78821225464344024658203125">
        <ele>1282</ele>
        <time>2026-06-18T07:41:10.000Z</time>
        <extensions>
          <ns3:TrackPointExtension>
            <ns3:atemp>20.0</ns3:atemp>
          </ns3:TrackPointExtension>
        </extensions>
      </trkpt>
      <trkpt lat="42.5382512994110584259033203125" lon="19.7882047109305858612060546875">
        <ele>1282</ele>
        <time>2026-06-18T07:41:11.000Z</time>
        <extensions>
          <ns3:TrackPointExtension>
            <ns3:atemp>20.0</ns3:atemp>
          </ns3:TrackPointExtension>
        </extensions>
      </trkpt>
      <trkpt lat="42.53826521337032318115234375" lon="19.78820496238768100738525390625">
        <ele>1282</ele>
        <time>2026-06-18T07:41:12.000Z</time>
        <extensions>
          <ns3:TrackPointExtension>
            <ns3:atemp>20.0</ns3:atemp>
          </ns3:TrackPointExtension>
        </extensions>
      </trkpt>
      <trkpt lat="42.5382774509489536285400390625" lon="19.78820596821606159210205078125">
        <ele>1282</ele>
        <time>2026-06-18T07:41:13.000Z</time>
        <extensions>
          <ns3:TrackPointExtension>
            <ns3:atemp>20.0</ns3:atemp>
          </ns3:TrackPointExtension>
        </extensions>
      </trkpt>
      <trkpt lat="42.53829128108918666839599609375" lon="19.7882102429866790771484375">
        <ele>1282</ele>
        <time>2026-06-18T07:41:14.000Z</time>
        <extensions>
          <ns3:TrackPointExtension>
            <ns3:atemp>20.0</ns3:atemp>
          </ns3:TrackPointExtension>
        </extensions>
      </trkpt>
      <trkpt lat="42.538301758468151092529296875" lon="19.7882157750427722930908203125">
        <ele>1282</ele>
        <time>2026-06-18T07:41:15.000Z</time>
        <extensions>
          <ns3:TrackPointExtension>
            <ns3:atemp>20.0</ns3:atemp>
          </ns3:TrackPointExtension>
        </extensions>
      </trkpt>
      <trkpt lat="42.53831692971289157867431640625" lon="19.78822767734527587890625">
        <ele>1282</ele>
        <time>2026-06-18T07:41:16.000Z</time>
        <extensions>
          <ns3:TrackPointExtension>
            <ns3:atemp>20.0</ns3:atemp>
          </ns3:TrackPointExtension>
        </extensions>
      </trkpt>
      <trkpt lat="42.53833302296698093414306640625" lon="19.78823714889585971832275390625">
        <ele>1282</ele>
        <time>2026-06-18T07:41:17.000Z</time>
        <extensions>
          <ns3:TrackPointExtension>
            <ns3:atemp>20.0</ns3:atemp>
          </ns3:TrackPointExtension>
        </extensions>
      </trkpt>
      <trkpt lat="42.538348697125911712646484375" lon="19.788250811398029327392578125">
        <ele>1281.800048828125</ele>
        <time>2026-06-18T07:41:18.000Z</time>
        <extensions>
          <ns3:TrackPointExtension>
            <ns3:atemp>20.0</ns3:atemp>
          </ns3:TrackPointExtension>
        </extensions>
      </trkpt>
      <trkpt lat="42.53836437128484249114990234375" lon="19.7882664017379283905029296875">
        <ele>1281.800048828125</ele>
        <time>2026-06-18T07:41:19.000Z</time>
        <extensions>
          <ns3:TrackPointExtension>
            <ns3:atemp>20.0</ns3:atemp>
          </ns3:TrackPointExtension>
        </extensions>
      </trkpt>
      <trkpt lat="42.53838214091956615447998046875" lon="19.7882841713726520538330078125">
        <ele>1281.800048828125</ele>
        <time>2026-06-18T07:41:20.000Z</time>
        <extensions>
          <ns3:TrackPointExtension>
            <ns3:atemp>20.0</ns3:atemp>
          </ns3:TrackPointExtension>
        </extensions>
      </trkpt>
      <trkpt lat="42.53840208984911441802978515625" lon="19.7882965765893459320068359375">
        <ele>1281.800048828125</ele>
        <time>2026-06-18T07:41:21.000Z</time>
        <extensions>
          <ns3:TrackPointExtension>
            <ns3:atemp>20.0</ns3:atemp>
          </ns3:TrackPointExtension>
        </extensions>
      </trkpt>
      <trkpt lat="42.53842053003609180450439453125" lon="19.7883093170821666717529296875">
        <ele>1281.800048828125</ele>
        <time>2026-06-18T07:41:22.000Z</time>
        <extensions>
          <ns3:TrackPointExtension>
            <ns3:atemp>20.0</ns3:atemp>
          </ns3:TrackPointExtension>
        </extensions>
      </trkpt>
      <trkpt lat="42.5384370423853397369384765625" lon="19.78831996209919452667236328125">
        <ele>1281.800048828125</ele>
        <time>2026-06-18T07:41:23.000Z</time>
        <extensions>
          <ns3:TrackPointExtension>
            <ns3:atemp>20.0</ns3:atemp>
          </ns3:TrackPointExtension>
        </extensions>
      </trkpt>
      <trkpt lat="42.53845288418233394622802734375" lon="19.78833161294460296630859375">
        <ele>1281.800048828125</ele>
        <time>2026-06-18T07:41:24.000Z</time>
        <extensions>
          <ns3:TrackPointExtension>
            <ns3:atemp>20.0</ns3:atemp>
          </ns3:TrackPointExtension>
        </extensions>
      </trkpt>
      <trkpt lat="42.5384672172367572784423828125" lon="19.7883421741425991058349609375">
        <ele>1282</ele>
        <time>2026-06-18T07:41:25.000Z</time>
        <extensions>
          <ns3:TrackPointExtension>
            <ns3:atemp>20.0</ns3:atemp>
          </ns3:TrackPointExtension>
        </extensions>
      </trkpt>
      <trkpt lat="42.53848305903375148773193359375" lon="19.788349382579326629638671875">
        <ele>1282</ele>
        <time>2026-06-18T07:41:26.000Z</time>
        <extensions>
          <ns3:TrackPointExtension>
            <ns3:atemp>20.0</ns3:atemp>
          </ns3:TrackPointExtension>
        </extensions>
      </trkpt>
      <trkpt lat="42.5384997390210628509521484375" lon="19.788362123072147369384765625">
        <ele>1282.199951171875</ele>
        <time>2026-06-18T07:41:27.000Z</time>
        <extensions>
          <ns3:TrackPointExtension>
            <ns3:atemp>20.0</ns3:atemp>
          </ns3:TrackPointExtension>
        </extensions>
      </trkpt>
      <trkpt lat="42.5385168381035327911376953125" lon="19.788373522460460662841796875">
        <ele>1282.4000244140625</ele>
        <time>2026-06-18T07:41:28.000Z</time>
        <extensions>
          <ns3:TrackPointExtension>
            <ns3:atemp>20.0</ns3:atemp>
          </ns3:TrackPointExtension>
        </extensions>
      </trkpt>
      <trkpt lat="42.53853117115795612335205078125" lon="19.78838668204843997955322265625">
        <ele>1282.800048828125</ele>
        <time>2026-06-18T07:41:29.000Z</time>
        <extensions>
          <ns3:TrackPointExtension>
            <ns3:atemp>20.0</ns3:atemp>
          </ns3:TrackPointExtension>
        </extensions>
      </trkpt>
      <trkpt lat="42.5385453365743160247802734375" lon="19.788402356207370758056640625">
        <ele>1283</ele>
        <time>2026-06-18T07:41:30.000Z</time>
        <extensions>
          <ns3:TrackPointExtension>
            <ns3:atemp>20.0</ns3:atemp>
          </ns3:TrackPointExtension>
        </extensions>
      </trkpt>
      <trkpt lat="42.53855950199067592620849609375" lon="19.7884159348905086517333984375">
        <ele>1283.199951171875</ele>
        <time>2026-06-18T07:41:31.000Z</time>
        <extensions>
          <ns3:TrackPointExtension>
            <ns3:atemp>20.0</ns3:atemp>
          </ns3:TrackPointExtension>
        </extensions>
      </trkpt>
      <trkpt lat="42.5385731644928455352783203125" lon="19.78843093849718570709228515625">
        <ele>1283.199951171875</ele>
        <time>2026-06-18T07:41:32.000Z</time>
        <extensions>
          <ns3:TrackPointExtension>
            <ns3:atemp>20.0</ns3:atemp>
          </ns3:TrackPointExtension>
        </extensions>
      </trkpt>
      <trkpt lat="42.5385862402617931365966796875" lon="19.788445271551609039306640625">
        <ele>1283.199951171875</ele>
        <time>2026-06-18T07:41:33.000Z</time>
        <extensions>
          <ns3:TrackPointExtension>
            <ns3:atemp>20.0</ns3:atemp>
          </ns3:TrackPointExtension>
        </extensions>
      </trkpt>
      <trkpt lat="42.538598142564296722412109375" lon="19.78845725767314434051513671875">
        <ele>1283.4000244140625</ele>
        <time>2026-06-18T07:41:34.000Z</time>
        <extensions>
          <ns3:TrackPointExtension>
            <ns3:atemp>20.0</ns3:atemp>
          </ns3:TrackPointExtension>
        </extensions>
      </trkpt>
      <trkpt lat="42.5386154092848300933837890625" lon="19.78846983052790164947509765625">
        <ele>1283.5999755859375</ele>
        <time>2026-06-18T07:41:35.000Z</time>
        <extensions>
          <ns3:TrackPointExtension>
            <ns3:atemp>20.0</ns3:atemp>
          </ns3:TrackPointExtension>
        </extensions>
      </trkpt>
      <trkpt lat="42.53862789832055568695068359375" lon="19.78846731595695018768310546875">
        <ele>1283.5999755859375</ele>
        <time>2026-06-18T07:41:36.000Z</time>
        <extensions>
          <ns3:TrackPointExtension>
            <ns3:atemp>20.0</ns3:atemp>
          </ns3:TrackPointExtension>
        </extensions>
      </trkpt>
      <trkpt lat="42.53864348866045475006103515625" lon="19.78846513666212558746337890625">
        <ele>1283.800048828125</ele>
        <time>2026-06-18T07:41:37.000Z</time>
        <extensions>
          <ns3:TrackPointExtension>
            <ns3:atemp>20.0</ns3:atemp>
          </ns3:TrackPointExtension>
        </extensions>
      </trkpt>
      <trkpt lat="42.53866042010486125946044921875" lon="19.7884578444063663482666015625">
        <ele>1284</ele>
        <time>2026-06-18T07:41:38.000Z</time>
        <extensions>
          <ns3:TrackPointExtension>
            <ns3:atemp>20.0</ns3:atemp>
          </ns3:TrackPointExtension>
        </extensions>
      </trkpt>
      <trkpt lat="42.538678608834743499755859375" lon="19.78845105506479740142822265625">
        <ele>1284.199951171875</ele>
        <time>2026-06-18T07:41:39.000Z</time>
        <extensions>
          <ns3:TrackPointExtension>
            <ns3:atemp>20.0</ns3:atemp>
          </ns3:TrackPointExtension>
        </extensions>
      </trkpt>
      <trkpt lat="42.53869394771754741668701171875" lon="19.7884340398013591766357421875">
        <ele>1284.4000244140625</ele>
        <time>2026-06-18T07:41:40.000Z</time>
        <extensions>
          <ns3:TrackPointExtension>
            <ns3:atemp>20.0</ns3:atemp>
          </ns3:TrackPointExtension>
        </extensions>
      </trkpt>
      <trkpt lat="42.538705430924892425537109375" lon="19.7884155996143817901611328125">
        <ele>1284.800048828125</ele>
        <time>2026-06-18T07:41:41.000Z</time>
        <extensions>
          <ns3:TrackPointExtension>
            <ns3:atemp>20.0</ns3:atemp>
          </ns3:TrackPointExtension>
        </extensions>
      </trkpt>
      <trkpt lat="42.53871574066579341888427734375" lon="19.7883978299796581268310546875">
        <ele>1285</ele>
        <time>2026-06-18T07:41:42.000Z</time>
        <extensions>
          <ns3:TrackPointExtension>
            <ns3:atemp>20.0</ns3:atemp>
          </ns3:TrackPointExtension>
        </extensions>
      </trkpt>
      <trkpt lat="42.5387243740260601043701171875" lon="19.78837612085044384002685546875">
        <ele>1285.4000244140625</ele>
        <time>2026-06-18T07:41:43.000Z</time>
        <extensions>
          <ns3:TrackPointExtension>
            <ns3:atemp>20.0</ns3:atemp>
          </ns3:TrackPointExtension>
        </extensions>
      </trkpt>
      <trkpt lat="42.53873216919600963592529296875" lon="19.7883602790534496307373046875">
        <ele>1285.800048828125</ele>
        <time>2026-06-18T07:41:44.000Z</time>
        <extensions>
          <ns3:TrackPointExtension>
            <ns3:atemp>20.0</ns3:atemp>
          </ns3:TrackPointExtension>
        </extensions>
      </trkpt>
      <trkpt lat="42.5387411378324031829833984375" lon="19.78834611363708972930908203125">
        <ele>1286</ele>
        <time>2026-06-18T07:41:45.000Z</time>
        <extensions>
          <ns3:TrackPointExtension>
            <ns3:atemp>20.0</ns3:atemp>
          </ns3:TrackPointExtension>
        </extensions>
      </trkpt>
      <trkpt lat="42.53874935209751129150390625" lon="19.7883277572691440582275390625">
        <ele>1286.4000244140625</ele>
        <time>2026-06-18T07:41:46.000Z</time>
        <extensions>
          <ns3:TrackPointExtension>
            <ns3:atemp>20.0</ns3:atemp>
          </ns3:TrackPointExtension>
        </extensions>
      </trkpt>
      <trkpt lat="42.53875798545777797698974609375" lon="19.788305461406707763671875">
        <ele>1287</ele>
        <time>2026-06-18T07:41:47.000Z</time>
        <extensions>
          <ns3:TrackPointExtension>
            <ns3:atemp>20.0</ns3:atemp>
          </ns3:TrackPointExtension>
        </extensions>
      </trkpt>
      <trkpt lat="42.53876544535160064697265625" lon="19.788286685943603515625">
        <ele>1287.4000244140625</ele>
        <time>2026-06-18T07:41:48.000Z</time>
        <extensions>
          <ns3:TrackPointExtension>
            <ns3:atemp>20.0</ns3:atemp>
          </ns3:TrackPointExtension>
        </extensions>
      </trkpt>
      <trkpt lat="42.538772486150264739990234375" lon="19.78826765902340412139892578125">
        <ele>1287.5999755859375</ele>
        <time>2026-06-18T07:41:49.000Z</time>
        <extensions>
          <ns3:TrackPointExtension>
            <ns3:atemp>20.0</ns3:atemp>
          </ns3:TrackPointExtension>
        </extensions>
      </trkpt>
      <trkpt lat="42.5387810356914997100830078125" lon="19.78824687190353870391845703125">
        <ele>1288</ele>
        <time>2026-06-18T07:41:50.000Z</time>
        <extensions>
          <ns3:TrackPointExtension>
            <ns3:atemp>20.0</ns3:atemp>
          </ns3:TrackPointExtension>
        </extensions>
      </trkpt>
      <trkpt lat="42.53878581337630748748779296875" lon="19.7882236540317535400390625">
        <ele>1288.4000244140625</ele>
        <time>2026-06-18T07:41:51.000Z</time>
        <extensions>
          <ns3:TrackPointExtension>
            <ns3:atemp>20.0</ns3:atemp>
          </ns3:TrackPointExtension>
        </extensions>
      </trkpt>
      <trkpt lat="42.53879352472722530364990234375" lon="19.7882010228931903839111328125">
        <ele>1288.800048828125</ele>
        <time>2026-06-18T07:41:52.000Z</time>
        <extensions>
          <ns3:TrackPointExtension>
            <ns3:atemp>20.0</ns3:atemp>
          </ns3:TrackPointExtension>
        </extensions>
      </trkpt>
      <trkpt lat="42.5388034991919994354248046875" lon="19.7881834208965301513671875">
        <ele>1289.199951171875</ele>
        <time>2026-06-18T07:41:53.000Z</time>
        <extensions>
          <ns3:TrackPointExtension>
            <ns3:atemp>20.0</ns3:atemp>
          </ns3:TrackPointExtension>
        </extensions>
      </trkpt>
      <trkpt lat="42.5388098694384098052978515625" lon="19.78816238231956958770751953125">
        <ele>1289.5999755859375</ele>
        <time>2026-06-18T07:41:54.000Z</time>
        <extensions>
          <ns3:TrackPointExtension>
            <ns3:atemp>20.0</ns3:atemp>
          </ns3:TrackPointExtension>
        </extensions>
      </trkpt>
      <trkpt lat="42.53881615586578845977783203125" lon="19.788139164447784423828125">
        <ele>1289.800048828125</ele>
        <time>2026-06-18T07:41:55.000Z</time>
        <extensions>
          <ns3:TrackPointExtension>
            <ns3:atemp>20.0</ns3:atemp>
          </ns3:TrackPointExtension>
        </extensions>
      </trkpt>
      <trkpt lat="42.5388199277222156524658203125" lon="19.78812281973659992218017578125">
        <ele>1290.199951171875</ele>
        <time>2026-06-18T07:41:56.000Z</time>
        <extensions>
          <ns3:TrackPointExtension>
            <ns3:atemp>20.0</ns3:atemp>
          </ns3:TrackPointExtension>
        </extensions>
      </trkpt>
      <trkpt lat="42.5388224422931671142578125" lon="19.7880977578461170196533203125">
        <ele>1290.5999755859375</ele>
        <time>2026-06-18T07:41:57.000Z</time>
        <extensions>
          <ns3:TrackPointExtension>
            <ns3:atemp>20.0</ns3:atemp>
          </ns3:TrackPointExtension>
        </extensions>
      </trkpt>
      <trkpt lat="42.53882537595927715301513671875" lon="19.78807671926915645599365234375">
        <ele>1290.800048828125</ele>
        <time>2026-06-18T07:41:58.000Z</time>
        <extensions>
          <ns3:TrackPointExtension>
            <ns3:atemp>20.0</ns3:atemp>
          </ns3:TrackPointExtension>
        </extensions>
      </trkpt>
      <trkpt lat="42.538824118673801422119140625" lon="19.788057021796703338623046875">
        <ele>1291.199951171875</ele>
        <time>2026-06-18T07:41:59.000Z</time>
        <extensions>
          <ns3:TrackPointExtension>
            <ns3:atemp>20.0</ns3:atemp>
          </ns3:TrackPointExtension>
        </extensions>
      </trkpt>
      <trkpt lat="42.53882487304508686065673828125" lon="19.7880330495536327362060546875">
        <ele>1291.5999755859375</ele>
        <time>2026-06-18T07:42:00.000Z</time>
        <extensions>
          <ns3:TrackPointExtension>
            <ns3:atemp>20.0</ns3:atemp>
          </ns3:TrackPointExtension>
        </extensions>
      </trkpt>
      <trkpt lat="42.53882487304508686065673828125" lon="19.78800748474895954132080078125">
        <ele>1291.800048828125</ele>
        <time>2026-06-18T07:42:01.000Z</time>
        <extensions>
          <ns3:TrackPointExtension>
            <ns3:atemp>20.0</ns3:atemp>
          </ns3:TrackPointExtension>
        </extensions>
      </trkpt>
      <trkpt lat="42.53882872872054576873779296875" lon="19.78798024356365203857421875">
        <ele>1292.199951171875</ele>
        <time>2026-06-18T07:42:02.000Z</time>
        <extensions>
          <ns3:TrackPointExtension>
            <ns3:atemp>20.0</ns3:atemp>
          </ns3:TrackPointExtension>
        </extensions>
      </trkpt>
      <trkpt lat="42.538830153644084930419921875" lon="19.787953086197376251220703125">
        <ele>1292.4000244140625</ele>
        <time>2026-06-18T07:42:03.000Z</time>
        <extensions>
          <ns3:TrackPointExtension>
            <ns3:atemp>20.0</ns3:atemp>
          </ns3:TrackPointExtension>
        </extensions>
      </trkpt>
      <trkpt lat="42.5388350151479244232177734375" lon="19.7879244200885295867919921875">
        <ele>1292.5999755859375</ele>
        <time>2026-06-18T07:42:04.000Z</time>
        <extensions>
          <ns3:TrackPointExtension>
            <ns3:atemp>20.0</ns3:atemp>
          </ns3:TrackPointExtension>
        </extensions>
      </trkpt>
      <trkpt lat="42.53883845172822475433349609375" lon="19.78789751417934894561767578125">
        <ele>1293</ele>
        <time>2026-06-18T07:42:05.000Z</time>
        <extensions>
          <ns3:TrackPointExtension>
            <ns3:atemp>20.0</ns3:atemp>
          </ns3:TrackPointExtension>
        </extensions>
      </trkpt>
      <trkpt lat="42.53884549252688884735107421875" lon="19.78787287138402462005615234375">
        <ele>1293.199951171875</ele>
        <time>2026-06-18T07:42:06.000Z</time>
        <extensions>
          <ns3:TrackPointExtension>
            <ns3:atemp>20.0</ns3:atemp>
          </ns3:TrackPointExtension>
        </extensions>
      </trkpt>
      <trkpt lat="42.53884951584041118621826171875" lon="19.78785024024546146392822265625">
        <ele>1293.4000244140625</ele>
        <time>2026-06-18T07:42:07.000Z</time>
        <extensions>
          <ns3:TrackPointExtension>
            <ns3:atemp>20.0</ns3:atemp>
          </ns3:TrackPointExtension>
        </extensions>
      </trkpt>
      <trkpt lat="42.538850270211696624755859375" lon="19.78783062659204006195068359375">
        <ele>1293.800048828125</ele>
        <time>2026-06-18T07:42:08.000Z</time>
        <extensions>
          <ns3:TrackPointExtension>
            <ns3:atemp>20.0</ns3:atemp>
          </ns3:TrackPointExtension>
        </extensions>
      </trkpt>
      <trkpt lat="42.53885538317263126373291015625" lon="19.787806570529937744140625">
        <ele>1294</ele>
        <time>2026-06-18T07:42:09.000Z</time>
        <extensions>
          <ns3:TrackPointExtension>
            <ns3:atemp>20.0</ns3:atemp>
          </ns3:TrackPointExtension>
        </extensions>
      </trkpt>
      <trkpt lat="42.53885932266712188720703125" lon="19.78778167627751827239990234375">
        <ele>1294</ele>
        <time>2026-06-18T07:42:10.000Z</time>
        <extensions>
          <ns3:TrackPointExtension>
            <ns3:atemp>20.0</ns3:atemp>
          </ns3:TrackPointExtension>
        </extensions>
      </trkpt>
      <trkpt lat="42.53885655663907527923583984375" lon="19.787761308252811431884765625">
        <ele>1294.199951171875</ele>
        <time>2026-06-18T07:42:11.000Z</time>
        <extensions>
          <ns3:TrackPointExtension>
            <ns3:atemp>20.0</ns3:atemp>
          </ns3:TrackPointExtension>
        </extensions>
      </trkpt>
      <trkpt lat="42.53885957412421703338623046875" lon="19.7877386771142482757568359375">
        <ele>1294.4000244140625</ele>
        <time>2026-06-18T07:42:12.000Z</time>
        <extensions>
          <ns3:TrackPointExtension>
            <ns3:atemp>20.0</ns3:atemp>
          </ns3:TrackPointExtension>
        </extensions>
      </trkpt>
      <trkpt lat="42.53885823301970958709716796875" lon="19.787715040147304534912109375">
        <ele>1294.4000244140625</ele>
        <time>2026-06-18T07:42:13.000Z</time>
        <extensions>
          <ns3:TrackPointExtension>
            <ns3:atemp>20.0</ns3:atemp>
          </ns3:TrackPointExtension>
        </extensions>
      </trkpt>
      <trkpt lat="42.53886175341904163360595703125" lon="19.78769048117101192474365234375">
        <ele>1294.5999755859375</ele>
        <time>2026-06-18T07:42:14.000Z</time>
        <extensions>
          <ns3:TrackPointExtension>
            <ns3:atemp>20.0</ns3:atemp>
          </ns3:TrackPointExtension>
        </extensions>
      </trkpt>
      <trkpt lat="42.53886074759066104888916015625" lon="19.78767002932727336883544921875">
        <ele>1294.5999755859375</ele>
        <time>2026-06-18T07:42:15.000Z</time>
        <extensions>
          <ns3:TrackPointExtension>
            <ns3:atemp>20.0</ns3:atemp>
          </ns3:TrackPointExtension>
        </extensions>
      </trkpt>
      <trkpt lat="42.538859657943248748779296875" lon="19.7876474820077419281005859375">
        <ele>1294.5999755859375</ele>
        <time>2026-06-18T07:42:16.000Z</time>
        <extensions>
          <ns3:TrackPointExtension>
            <ns3:atemp>20.0</ns3:atemp>
          </ns3:TrackPointExtension>
        </extensions>
      </trkpt>
      <trkpt lat="42.5388611666858196258544921875" lon="19.7876201570034027099609375">
        <ele>1294.800048828125</ele>
        <time>2026-06-18T07:42:17.000Z</time>
        <extensions>
          <ns3:TrackPointExtension>
            <ns3:atemp>20.0</ns3:atemp>
          </ns3:TrackPointExtension>
        </extensions>
      </trkpt>
      <trkpt lat="42.53886695019900798797607421875" lon="19.7875981964170932769775390625">
        <ele>1295</ele>
        <time>2026-06-18T07:42:18.000Z</time>
        <extensions>
          <ns3:TrackPointExtension>
            <ns3:atemp>20.0</ns3:atemp>
          </ns3:TrackPointExtension>
        </extensions>
      </trkpt>
      <trkpt lat="42.53886778838932514190673828125" lon="19.78758134879171848297119140625">
        <ele>1295.199951171875</ele>
        <time>2026-06-18T07:42:19.000Z</time>
        <extensions>
          <ns3:TrackPointExtension>
            <ns3:atemp>20.0</ns3:atemp>
          </ns3:TrackPointExtension>
        </extensions>
      </trkpt>
      <trkpt lat="42.53887005150318145751953125" lon="19.7875639982521533966064453125">
        <ele>1295.199951171875</ele>
        <time>2026-06-18T07:42:20.000Z</time>
        <extensions>
          <ns3:TrackPointExtension>
            <ns3:atemp>20.0</ns3:atemp>
          </ns3:TrackPointExtension>
        </extensions>
      </trkpt>
      <trkpt lat="42.53887047059834003448486328125" lon="19.78754765354096889495849609375">
        <ele>1295.4000244140625</ele>
        <time>2026-06-18T07:42:21.000Z</time>
        <extensions>
          <ns3:TrackPointExtension>
            <ns3:atemp>20.0</ns3:atemp>
          </ns3:TrackPointExtension>
        </extensions>
      </trkpt>
      <trkpt lat="42.5388742424547672271728515625" lon="19.78752401657402515411376953125">
        <ele>1295.5999755859375</ele>
        <time>2026-06-18T07:42:22.000Z</time>
        <extensions>
          <ns3:TrackPointExtension>
            <ns3:atemp>20.0</ns3:atemp>
          </ns3:TrackPointExtension>
        </extensions>
      </trkpt>
      <trkpt lat="42.5388787686824798583984375" lon="19.78750071488320827484130859375">
        <ele>1295.800048828125</ele>
        <time>2026-06-18T07:42:23.000Z</time>
        <extensions>
          <ns3:TrackPointExtension>
            <ns3:atemp>20.0</ns3:atemp>
          </ns3:TrackPointExtension>
        </extensions>
      </trkpt>
      <trkpt lat="42.53888170234858989715576171875" lon="19.78748043067753314971923828125">
        <ele>1295.800048828125</ele>
        <time>2026-06-18T07:42:24.000Z</time>
        <extensions>
          <ns3:TrackPointExtension>
            <ns3:atemp>20.0</ns3:atemp>
          </ns3:TrackPointExtension>
        </extensions>
      </trkpt>
      <trkpt lat="42.538885809481143951416015625" lon="19.7874603979289531707763671875">
        <ele>1296</ele>
        <time>2026-06-18T07:42:25.000Z</time>
        <extensions>
          <ns3:TrackPointExtension>
            <ns3:atemp>20.0</ns3:atemp>
          </ns3:TrackPointExtension>
        </extensions>
      </trkpt>
      <trkpt lat="42.53888924606144428253173828125" lon="19.78744070045650005340576171875">
        <ele>1296.199951171875</ele>
        <time>2026-06-18T07:42:26.000Z</time>
        <extensions>
          <ns3:TrackPointExtension>
            <ns3:atemp>20.0</ns3:atemp>
          </ns3:TrackPointExtension>
        </extensions>
      </trkpt>
      <trkpt lat="42.53889125771820545196533203125" lon="19.78741790167987346649169921875">
        <ele>1296.4000244140625</ele>
        <time>2026-06-18T07:42:27.000Z</time>
        <extensions>
          <ns3:TrackPointExtension>
            <ns3:atemp>20.0</ns3:atemp>
          </ns3:TrackPointExtension>
        </extensions>
      </trkpt>
      <trkpt lat="42.5388926826417446136474609375" lon="19.787395186722278594970703125">
        <ele>1296.4000244140625</ele>
        <time>2026-06-18T07:42:28.000Z</time>
        <extensions>
          <ns3:TrackPointExtension>
            <ns3:atemp>20.0</ns3:atemp>
          </ns3:TrackPointExtension>
        </extensions>
      </trkpt>
      <trkpt lat="42.53889461047947406768798828125" lon="19.78737364523112773895263671875">
        <ele>1296.5999755859375</ele>
        <time>2026-06-18T07:42:29.000Z</time>
        <extensions>
          <ns3:TrackPointExtension>
            <ns3:atemp>20.0</ns3:atemp>
          </ns3:TrackPointExtension>
        </extensions>
      </trkpt>
      <trkpt lat="42.53889746032655239105224609375" lon="19.7873578034341335296630859375">
        <ele>1296.5999755859375</ele>
        <time>2026-06-18T07:42:30.000Z</time>
        <extensions>
          <ns3:TrackPointExtension>
            <ns3:atemp>20.0</ns3:atemp>
          </ns3:TrackPointExtension>
        </extensions>
      </trkpt>
      <trkpt lat="42.53889553248882293701171875" lon="19.787343554198741912841796875">
        <ele>1296.800048828125</ele>
        <time>2026-06-18T07:42:31.000Z</time>
        <extensions>
          <ns3:TrackPointExtension>
            <ns3:atemp>20.0</ns3:atemp>
          </ns3:TrackPointExtension>
        </extensions>
      </trkpt>
      <trkpt lat="42.53889553248882293701171875" lon="19.78732486255466938018798828125">
        <ele>1296.800048828125</ele>
        <time>2026-06-18T07:42:32.000Z</time>
        <extensions>
          <ns3:TrackPointExtension>
            <ns3:atemp>20.0</ns3:atemp>
          </ns3:TrackPointExtension>
        </extensions>
      </trkpt>
      <trkpt lat="42.53889553248882293701171875" lon="19.78730424307286739349365234375">
        <ele>1296.800048828125</ele>
        <time>2026-06-18T07:42:33.000Z</time>
        <extensions>
          <ns3:TrackPointExtension>
            <ns3:atemp>20.0</ns3:atemp>
          </ns3:TrackPointExtension>
        </extensions>
      </trkpt>
      <trkpt lat="42.53889419138431549072265625" lon="19.787281192839145660400390625">
        <ele>1296.800048828125</ele>
        <time>2026-06-18T07:42:34.000Z</time>
        <extensions>
          <ns3:TrackPointExtension>
            <ns3:atemp>20.0</ns3:atemp>
          </ns3:TrackPointExtension>
        </extensions>
      </trkpt>
      <trkpt lat="42.53889410756528377532958984375" lon="19.78725872933864593505859375">
        <ele>1297</ele>
        <time>2026-06-18T07:42:35.000Z</time>
        <extensions>
          <ns3:TrackPointExtension>
            <ns3:atemp>20.0</ns3:atemp>
          </ns3:TrackPointExtension>
        </extensions>
      </trkpt>
      <trkpt lat="42.5388977117836475372314453125" lon="19.78723718784749507904052734375">
        <ele>1297.199951171875</ele>
        <time>2026-06-18T07:42:36.000Z</time>
        <extensions>
          <ns3:TrackPointExtension>
            <ns3:atemp>20.0</ns3:atemp>
          </ns3:TrackPointExtension>
        </extensions>
      </trkpt>
      <trkpt lat="42.53890248946845531463623046875" lon="19.787216484546661376953125">
        <ele>1297.4000244140625</ele>
        <time>2026-06-18T07:42:37.000Z</time>
        <extensions>
          <ns3:TrackPointExtension>
            <ns3:atemp>20.0</ns3:atemp>
          </ns3:TrackPointExtension>
        </extensions>
      </trkpt>
      <trkpt lat="42.5388987176120281219482421875" lon="19.78720567189157009124755859375">
        <ele>1297.5999755859375</ele>
        <time>2026-06-18T07:42:38.000Z</time>
        <extensions>
          <ns3:TrackPointExtension>
            <ns3:atemp>20.0</ns3:atemp>
          </ns3:TrackPointExtension>
        </extensions>
      </trkpt>
      <trkpt lat="42.53889997489750385284423828125" lon="19.78718371130526065826416015625">
        <ele>1297.800048828125</ele>
        <time>2026-06-18T07:42:39.000Z</time>
        <extensions>
          <ns3:TrackPointExtension>
            <ns3:atemp>20.0</ns3:atemp>
          </ns3:TrackPointExtension>
        </extensions>
      </trkpt>
      <trkpt lat="42.5388975441455841064453125" lon="19.78716141544282436370849609375">
        <ele>1298</ele>
        <time>2026-06-18T07:42:40.000Z</time>
        <extensions>
          <ns3:TrackPointExtension>
            <ns3:atemp>20.0</ns3:atemp>
          </ns3:TrackPointExtension>
        </extensions>
      </trkpt>
      <trkpt lat="42.5388948619365692138671875" lon="19.78713945485651493072509765625">
        <ele>1298.199951171875</ele>
        <time>2026-06-18T07:42:41.000Z</time>
        <extensions>
          <ns3:TrackPointExtension>
            <ns3:atemp>20.0</ns3:atemp>
          </ns3:TrackPointExtension>
        </extensions>
      </trkpt>
      <trkpt lat="42.53889343701303005218505859375" lon="19.787116907536983489990234375">
        <ele>1298.4000244140625</ele>
        <time>2026-06-18T07:42:42.000Z</time>
        <extensions>
          <ns3:TrackPointExtension>
            <ns3:atemp>20.0</ns3:atemp>
          </ns3:TrackPointExtension>
        </extensions>
      </trkpt>
      <trkpt lat="42.5388943590223789215087890625" lon="19.7870936058461666107177734375">
        <ele>1298.5999755859375</ele>
        <time>2026-06-18T07:42:43.000Z</time>
        <extensions>
          <ns3:TrackPointExtension>
            <ns3:atemp>20.0</ns3:atemp>
          </ns3:TrackPointExtension>
        </extensions>
      </trkpt>
      <trkpt lat="42.53889410756528377532958984375" lon="19.7870728187263011932373046875">
        <ele>1298.800048828125</ele>
        <time>2026-06-18T07:42:44.000Z</time>
        <extensions>
          <ns3:TrackPointExtension>
            <ns3:atemp>20.0</ns3:atemp>
          </ns3:TrackPointExtension>
        </extensions>
      </trkpt>
      <trkpt lat="42.53889729268848896026611328125" lon="19.7870503552258014678955078125">
        <ele>1299</ele>
        <time>2026-06-18T07:42:45.000Z</time>
        <extensions>
          <ns3:TrackPointExtension>
            <ns3:atemp>20.0</ns3:atemp>
          </ns3:TrackPointExtension>
        </extensions>
      </trkpt>
      <trkpt lat="42.5389015674591064453125" lon="19.7870315797626972198486328125">
        <ele>1299</ele>
        <time>2026-06-18T07:42:46.000Z</time>
        <extensions>
          <ns3:TrackPointExtension>
            <ns3:atemp>20.0</ns3:atemp>
          </ns3:TrackPointExtension>
        </extensions>
      </trkpt>
      <trkpt lat="42.53890651278197765350341796875" lon="19.7870174981653690338134765625">
        <ele>1299.199951171875</ele>
        <time>2026-06-18T07:42:47.000Z</time>
        <extensions>
          <ns3:TrackPointExtension>
            <ns3:atemp>20.0</ns3:atemp>
          </ns3:TrackPointExtension>
        </extensions>
      </trkpt>
      <trkpt lat="42.5389138050377368927001953125" lon="19.787000901997089385986328125">
        <ele>1299.4000244140625</ele>
        <time>2026-06-18T07:42:48.000Z</time>
        <extensions>
          <ns3:TrackPointExtension>
            <ns3:atemp>20.0</ns3:atemp>
          </ns3:TrackPointExtension>
        </extensions>
      </trkpt>
      <trkpt lat="42.53892260603606700897216796875" lon="19.7869876585900783538818359375">
        <ele>1299.4000244140625</ele>
        <time>2026-06-18T07:42:49.000Z</time>
        <extensions>
          <ns3:TrackPointExtension>
            <ns3:atemp>20.0</ns3:atemp>
          </ns3:TrackPointExtension>
        </extensions>
      </trkpt>
      <trkpt lat="42.53893266431987285614013671875" lon="19.78697466664016246795654296875">
        <ele>1299.4000244140625</ele>
        <time>2026-06-18T07:42:50.000Z</time>
        <extensions>
          <ns3:TrackPointExtension>
            <ns3:atemp>20.0</ns3:atemp>
          </ns3:TrackPointExtension>
        </extensions>
      </trkpt>
      <trkpt lat="42.5389449857175350189208984375" lon="19.78695807047188282012939453125">
        <ele>1299.4000244140625</ele>
        <time>2026-06-18T07:42:51.000Z</time>
        <extensions>
          <ns3:TrackPointExtension>
            <ns3:atemp>20.0</ns3:atemp>
          </ns3:TrackPointExtension>
        </extensions>
      </trkpt>
      <trkpt lat="42.53895093686878681182861328125" lon="19.78694851510226726531982421875">
        <ele>1299.4000244140625</ele>
        <time>2026-06-18T07:42:52.000Z</time>
        <extensions>
          <ns3:TrackPointExtension>
            <ns3:atemp>20.0</ns3:atemp>
          </ns3:TrackPointExtension>
        </extensions>
      </trkpt>
      <trkpt lat="42.538956217467784881591796875" lon="19.78694080375134944915771484375">
        <ele>1299.4000244140625</ele>
        <time>2026-06-18T07:42:53.000Z</time>
        <extensions>
          <ns3:TrackPointExtension>
            <ns3:atemp>20.0</ns3:atemp>
          </ns3:TrackPointExtension>
        </extensions>
      </trkpt>
      <trkpt lat="42.53897021524608135223388671875" lon="19.7869306616485118865966796875">
        <ele>1299.5999755859375</ele>
        <time>2026-06-18T07:42:54.000Z</time>
        <extensions>
          <ns3:TrackPointExtension>
            <ns3:atemp>20.0</ns3:atemp>
          </ns3:TrackPointExtension>
        </extensions>
      </trkpt>
      <trkpt lat="42.53898178227245807647705078125" lon="19.7869199328124523162841796875">
        <ele>1300</ele>
        <time>2026-06-18T07:42:55.000Z</time>
        <extensions>
          <ns3:TrackPointExtension>
            <ns3:atemp>20.0</ns3:atemp>
          </ns3:TrackPointExtension>
        </extensions>
      </trkpt>
      <trkpt lat="42.5389929302036762237548828125" lon="19.7869102098047733306884765625">
        <ele>1300.4000244140625</ele>
        <time>2026-06-18T07:42:56.000Z</time>
        <extensions>
          <ns3:TrackPointExtension>
            <ns3:atemp>20.0</ns3:atemp>
          </ns3:TrackPointExtension>
        </extensions>
      </trkpt>
      <trkpt lat="42.5390083529055118560791015625" lon="19.78689302690327167510986328125">
        <ele>1300.800048828125</ele>
        <time>2026-06-18T07:42:57.000Z</time>
        <extensions>
          <ns3:TrackPointExtension>
            <ns3:atemp>20.0</ns3:atemp>
          </ns3:TrackPointExtension>
        </extensions>
      </trkpt>
      <trkpt lat="42.539019249379634857177734375" lon="19.78687291033565998077392578125">
        <ele>1301.199951171875</ele>
        <time>2026-06-18T07:42:58.000Z</time>
        <extensions>
          <ns3:TrackPointExtension>
            <ns3:atemp>20.0</ns3:atemp>
          </ns3:TrackPointExtension>
        </extensions>
      </trkpt>
      <trkpt lat="42.53903492353856563568115234375" lon="19.7868532128632068634033203125">
        <ele>1301.5999755859375</ele>
        <time>2026-06-18T07:42:59.000Z</time>
        <extensions>
          <ns3:TrackPointExtension>
            <ns3:atemp>20.0</ns3:atemp>
          </ns3:TrackPointExtension>
        </extensions>
      </trkpt>
      <trkpt lat="42.53904447890818119049072265625" lon="19.78683770634233951568603515625">
        <ele>1301.800048828125</ele>
        <time>2026-06-18T07:43:00.000Z</time>
        <extensions>
          <ns3:TrackPointExtension>
            <ns3:atemp>20.0</ns3:atemp>
          </ns3:TrackPointExtension>
        </extensions>
      </trkpt>
      <trkpt lat="42.5390549562871456146240234375" lon="19.786818511784076690673828125">
        <ele>1302</ele>
        <time>2026-06-18T07:43:01.000Z</time>
        <extensions>
          <ns3:TrackPointExtension>
            <ns3:atemp>20.0</ns3:atemp>
          </ns3:TrackPointExtension>
        </extensions>
      </trkpt>
      <trkpt lat="42.53906643949449062347412109375" lon="19.7867999039590358734130859375">
        <ele>1302.4000244140625</ele>
        <time>2026-06-18T07:43:02.000Z</time>
        <extensions>
          <ns3:TrackPointExtension>
            <ns3:atemp>20.0</ns3:atemp>
          </ns3:TrackPointExtension>
        </extensions>
      </trkpt>
      <trkpt lat="42.53907046280801296234130859375" lon="19.78678389452397823333740234375">
        <ele>1302.800048828125</ele>
        <time>2026-06-18T07:43:03.000Z</time>
        <extensions>
          <ns3:TrackPointExtension>
            <ns3:atemp>20.0</ns3:atemp>
          </ns3:TrackPointExtension>
        </extensions>
      </trkpt>
      <trkpt lat="42.53907817415893077850341796875" lon="19.78676478378474712371826171875">
        <ele>1303.199951171875</ele>
        <time>2026-06-18T07:43:04.000Z</time>
        <extensions>
          <ns3:TrackPointExtension>
            <ns3:atemp>20.0</ns3:atemp>
          </ns3:TrackPointExtension>
        </extensions>
      </trkpt>
      <trkpt lat="42.53909242339432239532470703125" lon="19.7867472656071186065673828125">
        <ele>1303.5999755859375</ele>
        <time>2026-06-18T07:43:05.000Z</time>
        <extensions>
          <ns3:TrackPointExtension>
            <ns3:atemp>20.0</ns3:atemp>
          </ns3:TrackPointExtension>
        </extensions>
      </trkpt>
      <trkpt lat="42.5391059182584285736083984375" lon="19.78673829697072505950927734375">
        <ele>1304</ele>
        <time>2026-06-18T07:43:06.000Z</time>
        <extensions>
          <ns3:TrackPointExtension>
            <ns3:atemp>20.0</ns3:atemp>
          </ns3:TrackPointExtension>
        </extensions>
      </trkpt>
      <trkpt lat="42.539120502769947052001953125" lon="19.7867341898381710052490234375">
        <ele>1304.199951171875</ele>
        <time>2026-06-18T07:43:07.000Z</time>
        <extensions>
          <ns3:TrackPointExtension>
            <ns3:atemp>20.0</ns3:atemp>
          </ns3:TrackPointExtension>
        </extensions>
      </trkpt>
      <trkpt lat="42.53913952969014644622802734375" lon="19.78672924451529979705810546875">
        <ele>1304.4000244140625</ele>
        <time>2026-06-18T07:43:08.000Z</time>
        <extensions>
          <ns3:TrackPointExtension>
            <ns3:atemp>20.0</ns3:atemp>
          </ns3:TrackPointExtension>
        </extensions>
      </trkpt>
      <trkpt lat="42.53915361128747463226318359375" lon="19.786722622811794281005859375">
        <ele>1304.5999755859375</ele>
        <time>2026-06-18T07:43:09.000Z</time>
        <extensions>
          <ns3:TrackPointExtension>
            <ns3:atemp>20.0</ns3:atemp>
          </ns3:TrackPointExtension>
        </extensions>
      </trkpt>
      <trkpt lat="42.5391749851405620574951171875" lon="19.7867127321660518646240234375">
        <ele>1304.5999755859375</ele>
        <time>2026-06-18T07:43:10.000Z</time>
        <extensions>
          <ns3:TrackPointExtension>
            <ns3:atemp>20.0</ns3:atemp>
          </ns3:TrackPointExtension>
        </extensions>
      </trkpt>
      <trkpt lat="42.5391954369843006134033203125" lon="19.78670896030962467193603515625">
        <ele>1304.800048828125</ele>
        <time>2026-06-18T07:43:11.000Z</time>
        <extensions>
          <ns3:TrackPointExtension>
            <ns3:atemp>20.0</ns3:atemp>
          </ns3:TrackPointExtension>
        </extensions>
      </trkpt>
      <trkpt lat="42.5392155535519123077392578125" lon="19.78670485317707061767578125">
        <ele>1305</ele>
        <time>2026-06-18T07:43:12.000Z</time>
        <extensions>
          <ns3:TrackPointExtension>
            <ns3:atemp>20.0</ns3:atemp>
          </ns3:TrackPointExtension>
        </extensions>
      </trkpt>
      <trkpt lat="42.53923407755792140960693359375" lon="19.78670091368257999420166015625">
        <ele>1305.4000244140625</ele>
        <time>2026-06-18T07:43:13.000Z</time>
        <extensions>
          <ns3:TrackPointExtension>
            <ns3:atemp>20.0</ns3:atemp>
          </ns3:TrackPointExtension>
        </extensions>
      </trkpt>
      <trkpt lat="42.53925763070583343505859375" lon="19.78669772855937480926513671875">
        <ele>1305.5999755859375</ele>
        <time>2026-06-18T07:43:14.000Z</time>
        <extensions>
          <ns3:TrackPointExtension>
            <ns3:atemp>20.0</ns3:atemp>
          </ns3:TrackPointExtension>
        </extensions>
      </trkpt>
      <trkpt lat="42.5392755679786205291748046875" lon="19.786697812378406524658203125">
        <ele>1305.800048828125</ele>
        <time>2026-06-18T07:43:15.000Z</time>
        <extensions>
          <ns3:TrackPointExtension>
            <ns3:atemp>20.0</ns3:atemp>
          </ns3:TrackPointExtension>
        </extensions>
      </trkpt>
      <trkpt lat="42.5392950139939785003662109375" lon="19.7866956330835819244384765625">
        <ele>1306</ele>
        <time>2026-06-18T07:43:16.000Z</time>
        <extensions>
          <ns3:TrackPointExtension>
            <ns3:atemp>20.0</ns3:atemp>
          </ns3:TrackPointExtension>
        </extensions>
      </trkpt>
      <trkpt lat="42.53931395709514617919921875" lon="19.78669814765453338623046875">
        <ele>1306.199951171875</ele>
        <time>2026-06-18T07:43:17.000Z</time>
        <extensions>
          <ns3:TrackPointExtension>
            <ns3:atemp>20.0</ns3:atemp>
          </ns3:TrackPointExtension>
        </extensions>
      </trkpt>
      <trkpt lat="42.53933013416826725006103515625" lon="19.7867009975016117095947265625">
        <ele>1306.199951171875</ele>
        <time>2026-06-18T07:43:18.000Z</time>
        <extensions>
          <ns3:TrackPointExtension>
            <ns3:atemp>20.0</ns3:atemp>
          </ns3:TrackPointExtension>
        </extensions>
      </trkpt>
      <trkpt lat="42.53934614360332489013671875" lon="19.78670577518641948699951171875">
        <ele>1306.199951171875</ele>
        <time>2026-06-18T07:43:19.000Z</time>
        <extensions>
          <ns3:TrackPointExtension>
            <ns3:atemp>20.0</ns3:atemp>
          </ns3:TrackPointExtension>
        </extensions>
      </trkpt>
      <trkpt lat="42.53936382941901683807373046875" lon="19.78670946322381496429443359375">
        <ele>1306.4000244140625</ele>
        <time>2026-06-18T07:43:20.000Z</time>
        <extensions>
          <ns3:TrackPointExtension>
            <ns3:atemp>20.0</ns3:atemp>
          </ns3:TrackPointExtension>
        </extensions>
      </trkpt>
      <trkpt lat="42.539384365081787109375" lon="19.78671281598508358001708984375">
        <ele>1306.5999755859375</ele>
        <time>2026-06-18T07:43:21.000Z</time>
        <extensions>
          <ns3:TrackPointExtension>
            <ns3:atemp>20.0</ns3:atemp>
          </ns3:TrackPointExtension>
        </extensions>
      </trkpt>
      <trkpt lat="42.5394006259739398956298828125" lon="19.7867157496511936187744140625">
        <ele>1306.800048828125</ele>
        <time>2026-06-18T07:43:22.000Z</time>
        <extensions>
          <ns3:TrackPointExtension>
            <ns3:atemp>20.0</ns3:atemp>
          </ns3:TrackPointExtension>
        </extensions>
      </trkpt>
      <trkpt lat="42.5394230894744396209716796875" lon="19.786719940602779388427734375">
        <ele>1306.800048828125</ele>
        <time>2026-06-18T07:43:23.000Z</time>
        <extensions>
          <ns3:TrackPointExtension>
            <ns3:atemp>20.0</ns3:atemp>
          </ns3:TrackPointExtension>
        </extensions>
      </trkpt>
      <trkpt lat="42.53943943418562412261962890625" lon="19.78672740049660205841064453125">
        <ele>1307</ele>
        <time>2026-06-18T07:43:24.000Z</time>
        <extensions>
          <ns3:TrackPointExtension>
            <ns3:atemp>20.0</ns3:atemp>
          </ns3:TrackPointExtension>
        </extensions>
      </trkpt>
      <trkpt lat="42.53945418633520603179931640625" lon="19.78673192672431468963623046875">
        <ele>1307.199951171875</ele>
        <time>2026-06-18T07:43:25.000Z</time>
        <extensions>
          <ns3:TrackPointExtension>
            <ns3:atemp>20.0</ns3:atemp>
          </ns3:TrackPointExtension>
        </extensions>
      </trkpt>
      <trkpt lat="42.5394715368747711181640625" lon="19.7867365367710590362548828125">
        <ele>1307.4000244140625</ele>
        <time>2026-06-18T07:43:26.000Z</time>
        <extensions>
          <ns3:TrackPointExtension>
            <ns3:atemp>20.0</ns3:atemp>
          </ns3:TrackPointExtension>
        </extensions>
      </trkpt>
      <trkpt lat="42.539489306509494781494140625" lon="19.78674114681780338287353515625">
        <ele>1307.5999755859375</ele>
        <time>2026-06-18T07:43:27.000Z</time>
        <extensions>
          <ns3:TrackPointExtension>
            <ns3:atemp>20.0</ns3:atemp>
          </ns3:TrackPointExtension>
        </extensions>
      </trkpt>
      <trkpt lat="42.53950196318328380584716796875" lon="19.78674114681780338287353515625">
        <ele>1307.800048828125</ele>
        <time>2026-06-18T07:43:28.000Z</time>
        <extensions>
          <ns3:TrackPointExtension>
            <ns3:atemp>20.0</ns3:atemp>
          </ns3:TrackPointExtension>
        </extensions>
      </trkpt>
      <trkpt lat="42.53951470367610454559326171875" lon="19.78674634359776973724365234375">
        <ele>1308</ele>
        <time>2026-06-18T07:43:29.000Z</time>
        <extensions>
          <ns3:TrackPointExtension>
            <ns3:atemp>20.0</ns3:atemp>
          </ns3:TrackPointExtension>
        </extensions>
      </trkpt>
      <trkpt lat="42.53952945582568645477294921875" lon="19.78674718178808689117431640625">
        <ele>1308.199951171875</ele>
        <time>2026-06-18T07:43:30.000Z</time>
        <extensions>
          <ns3:TrackPointExtension>
            <ns3:atemp>20.0</ns3:atemp>
          </ns3:TrackPointExtension>
        </extensions>
      </trkpt>
      <trkpt lat="42.5395493209362030029296875" lon="19.78675313293933868408203125">
        <ele>1308.199951171875</ele>
        <time>2026-06-18T07:43:31.000Z</time>
        <extensions>
          <ns3:TrackPointExtension>
            <ns3:atemp>20.0</ns3:atemp>
          </ns3:TrackPointExtension>
        </extensions>
      </trkpt>
      <trkpt lat="42.53956868313252925872802734375" lon="19.78675472550094127655029296875">
        <ele>1308.199951171875</ele>
        <time>2026-06-18T07:43:32.000Z</time>
        <extensions>
          <ns3:TrackPointExtension>
            <ns3:atemp>20.0</ns3:atemp>
          </ns3:TrackPointExtension>
        </extensions>
      </trkpt>
      <trkpt lat="42.5395880453288555145263671875" lon="19.78676159866154193878173828125">
        <ele>1308.199951171875</ele>
        <time>2026-06-18T07:43:33.000Z</time>
        <extensions>
          <ns3:TrackPointExtension>
            <ns3:atemp>20.0</ns3:atemp>
          </ns3:TrackPointExtension>
        </extensions>
      </trkpt>
      <trkpt lat="42.53960338421165943145751953125" lon="19.7867703996598720550537109375">
        <ele>1308.199951171875</ele>
        <time>2026-06-18T07:43:34.000Z</time>
        <extensions>
          <ns3:TrackPointExtension>
            <ns3:atemp>20.0</ns3:atemp>
          </ns3:TrackPointExtension>
        </extensions>
      </trkpt>
      <trkpt lat="42.53961964510381221771240234375" lon="19.78677635081112384796142578125">
        <ele>1308.4000244140625</ele>
        <time>2026-06-18T07:43:35.000Z</time>
        <extensions>
          <ns3:TrackPointExtension>
            <ns3:atemp>20.0</ns3:atemp>
          </ns3:TrackPointExtension>
        </extensions>
      </trkpt>
      <trkpt lat="42.53963942639529705047607421875" lon="19.78677995502948760986328125">
        <ele>1308.4000244140625</ele>
        <time>2026-06-18T07:43:36.000Z</time>
        <extensions>
          <ns3:TrackPointExtension>
            <ns3:atemp>20.0</ns3:atemp>
          </ns3:TrackPointExtension>
        </extensions>
      </trkpt>
      <trkpt lat="42.53966130316257476806640625" lon="19.78678691200911998748779296875">
        <ele>1308.4000244140625</ele>
        <time>2026-06-18T07:43:37.000Z</time>
        <extensions>
          <ns3:TrackPointExtension>
            <ns3:atemp>20.0</ns3:atemp>
          </ns3:TrackPointExtension>
        </extensions>
      </trkpt>
      <trkpt lat="42.53968317992985248565673828125" lon="19.7867945395410060882568359375">
        <ele>1308.4000244140625</ele>
        <time>2026-06-18T07:43:38.000Z</time>
        <extensions>
          <ns3:TrackPointExtension>
            <ns3:atemp>20.0</ns3:atemp>
          </ns3:TrackPointExtension>
        </extensions>
      </trkpt>
      <trkpt lat="42.53970162011682987213134765625" lon="19.7867992334067821502685546875">
        <ele>1308.4000244140625</ele>
        <time>2026-06-18T07:43:39.000Z</time>
        <extensions>
          <ns3:TrackPointExtension>
            <ns3:atemp>20.0</ns3:atemp>
          </ns3:TrackPointExtension>
        </extensions>
      </trkpt>
      <trkpt lat="42.5397194735705852508544921875" lon="19.7868015803396701812744140625">
        <ele>1308.4000244140625</ele>
        <time>2026-06-18T07:43:40.000Z</time>
        <extensions>
          <ns3:TrackPointExtension>
            <ns3:atemp>20.0</ns3:atemp>
          </ns3:TrackPointExtension>
        </extensions>
      </trkpt>
      <trkpt lat="42.5397342257201671600341796875" lon="19.786801747977733612060546875">
        <ele>1308.199951171875</ele>
        <time>2026-06-18T07:43:41.000Z</time>
        <extensions>
          <ns3:TrackPointExtension>
            <ns3:atemp>20.0</ns3:atemp>
          </ns3:TrackPointExtension>
        </extensions>
      </trkpt>
      <trkpt lat="42.53975191153585910797119140625" lon="19.78680283762514591217041015625">
        <ele>1308.4000244140625</ele>
        <time>2026-06-18T07:43:42.000Z</time>
        <extensions>
          <ns3:TrackPointExtension>
            <ns3:atemp>20.0</ns3:atemp>
          </ns3:TrackPointExtension>
        </extensions>
      </trkpt>
      <trkpt lat="42.53976934589445590972900390625" lon="19.78680702857673168182373046875">
        <ele>1308.5999755859375</ele>
        <time>2026-06-18T07:43:43.000Z</time>
        <extensions>
          <ns3:TrackPointExtension>
            <ns3:atemp>20.0</ns3:atemp>
          </ns3:TrackPointExtension>
        </extensions>
      </trkpt>
      <trkpt lat="42.53978845663368701934814453125" lon="19.78680635802447795867919921875">
        <ele>1309</ele>
        <time>2026-06-18T07:43:44.000Z</time>
        <extensions>
          <ns3:TrackPointExtension>
            <ns3:atemp>20.0</ns3:atemp>
          </ns3:TrackPointExtension>
        </extensions>
      </trkpt>
      <trkpt lat="42.539804466068744659423828125" lon="19.78680677711963653564453125">
        <ele>1309.199951171875</ele>
        <time>2026-06-18T07:43:45.000Z</time>
        <extensions>
          <ns3:TrackPointExtension>
            <ns3:atemp>20.0</ns3:atemp>
          </ns3:TrackPointExtension>
        </extensions>
      </trkpt>
      <trkpt lat="42.53982148133218288421630859375" lon="19.78680920787155628204345703125">
        <ele>1309.4000244140625</ele>
        <time>2026-06-18T07:43:46.000Z</time>
        <extensions>
          <ns3:TrackPointExtension>
            <ns3:atemp>20.0</ns3:atemp>
          </ns3:TrackPointExtension>
        </extensions>
      </trkpt>
      <trkpt lat="42.53983564674854278564453125" lon="19.78681289590895175933837890625">
        <ele>1309.5999755859375</ele>
        <time>2026-06-18T07:43:47.000Z</time>
        <extensions>
          <ns3:TrackPointExtension>
            <ns3:atemp>20.0</ns3:atemp>
          </ns3:TrackPointExtension>
        </extensions>
      </trkpt>
      <trkpt lat="42.539849393069744110107421875" lon="19.78681775741279125213623046875">
        <ele>1309.800048828125</ele>
        <time>2026-06-18T07:43:48.000Z</time>
        <extensions>
          <ns3:TrackPointExtension>
            <ns3:atemp>20.0</ns3:atemp>
          </ns3:TrackPointExtension>
        </extensions>
      </trkpt>
      <trkpt lat="42.53986339084804058074951171875" lon="19.78682328946888446807861328125">
        <ele>1310</ele>
        <time>2026-06-18T07:43:49.000Z</time>
        <extensions>
          <ns3:TrackPointExtension>
            <ns3:atemp>20.0</ns3:atemp>
          </ns3:TrackPointExtension>
        </extensions>
      </trkpt>
      <trkpt lat="42.53987680189311504364013671875" lon="19.78683586232364177703857421875">
        <ele>1310</ele>
        <time>2026-06-18T07:43:50.000Z</time>
        <extensions>
          <ns3:TrackPointExtension>
            <ns3:atemp>20.0</ns3:atemp>
          </ns3:TrackPointExtension>
        </extensions>
      </trkpt>
      <trkpt lat="42.5398899614810943603515625" lon="19.78684223257005214691162109375">
        <ele>1310.199951171875</ele>
        <time>2026-06-18T07:43:51.000Z</time>
        <extensions>
          <ns3:TrackPointExtension>
            <ns3:atemp>20.0</ns3:atemp>
          </ns3:TrackPointExtension>
        </extensions>
      </trkpt>
      <trkpt lat="42.53990513272583484649658203125" lon="19.78685262612998485565185546875">
        <ele>1310.199951171875</ele>
        <time>2026-06-18T07:43:52.000Z</time>
        <extensions>
          <ns3:TrackPointExtension>
            <ns3:atemp>20.0</ns3:atemp>
          </ns3:TrackPointExtension>
        </extensions>
      </trkpt>
      <trkpt lat="42.5399194657802581787109375" lon="19.78686578571796417236328125">
        <ele>1310.4000244140625</ele>
        <time>2026-06-18T07:43:53.000Z</time>
        <extensions>
          <ns3:TrackPointExtension>
            <ns3:atemp>20.0</ns3:atemp>
          </ns3:TrackPointExtension>
        </extensions>
      </trkpt>
      <trkpt lat="42.5399370677769184112548828125" lon="19.786881543695926666259765625">
        <ele>1310.5999755859375</ele>
        <time>2026-06-18T07:43:54.000Z</time>
        <extensions>
          <ns3:TrackPointExtension>
            <ns3:atemp>20.0</ns3:atemp>
          </ns3:TrackPointExtension>
        </extensions>
      </trkpt>
      <trkpt lat="42.53994972445070743560791015625" lon="19.78689403273165225982666015625">
        <ele>1310.800048828125</ele>
        <time>2026-06-18T07:43:55.000Z</time>
        <extensions>
          <ns3:TrackPointExtension>
            <ns3:atemp>20.0</ns3:atemp>
          </ns3:TrackPointExtension>
        </extensions>
      </trkpt>
      <trkpt lat="42.53996171057224273681640625" lon="19.7869014926254749298095703125">
        <ele>1311.199951171875</ele>
        <time>2026-06-18T07:43:56.000Z</time>
        <extensions>
          <ns3:TrackPointExtension>
            <ns3:atemp>20.0</ns3:atemp>
          </ns3:TrackPointExtension>
        </extensions>
      </trkpt>
      <trkpt lat="42.53997269086539745330810546875" lon="19.78691481985151767730712890625">
        <ele>1311.4000244140625</ele>
        <time>2026-06-18T07:43:57.000Z</time>
        <extensions>
          <ns3:TrackPointExtension>
            <ns3:atemp>20.0</ns3:atemp>
          </ns3:TrackPointExtension>
        </extensions>
      </trkpt>
      <trkpt lat="42.5399843417108058929443359375" lon="19.78692990727722644805908203125">
        <ele>1311.800048828125</ele>
        <time>2026-06-18T07:43:58.000Z</time>
        <extensions>
          <ns3:TrackPointExtension>
            <ns3:atemp>20.0</ns3:atemp>
          </ns3:TrackPointExtension>
        </extensions>
      </trkpt>
      <trkpt lat="42.539996914565563201904296875" lon="19.78694222867488861083984375">
        <ele>1312</ele>
        <time>2026-06-18T07:43:59.000Z</time>
        <extensions>
          <ns3:TrackPointExtension>
            <ns3:atemp>20.0</ns3:atemp>
          </ns3:TrackPointExtension>
        </extensions>
      </trkpt>
      <trkpt lat="42.54001225344836711883544921875" lon="19.7869551368057727813720703125">
        <ele>1312.4000244140625</ele>
        <time>2026-06-18T07:44:00.000Z</time>
        <extensions>
          <ns3:TrackPointExtension>
            <ns3:atemp>20.0</ns3:atemp>
          </ns3:TrackPointExtension>
        </extensions>
      </trkpt>
      <trkpt lat="42.540025077760219573974609375" lon="19.78696905076503753662109375">
        <ele>1312.5999755859375</ele>
        <time>2026-06-18T07:44:01.000Z</time>
        <extensions>
          <ns3:TrackPointExtension>
            <ns3:atemp>20.0</ns3:atemp>
          </ns3:TrackPointExtension>
        </extensions>
      </trkpt>
      <trkpt lat="42.5400393269956111907958984375" lon="19.7869836352765560150146484375">
        <ele>1313</ele>
        <time>2026-06-18T07:44:02.000Z</time>
        <extensions>
          <ns3:TrackPointExtension>
            <ns3:atemp>20.0</ns3:atemp>
          </ns3:TrackPointExtension>
        </extensions>
      </trkpt>
      <trkpt lat="42.5400544144213199615478515625" lon="19.786997549235820770263671875">
        <ele>1313.199951171875</ele>
        <time>2026-06-18T07:44:03.000Z</time>
        <extensions>
          <ns3:TrackPointExtension>
            <ns3:atemp>20.0</ns3:atemp>
          </ns3:TrackPointExtension>
        </extensions>
      </trkpt>
      <trkpt lat="42.54007059149444103240966796875" lon="19.7870101220905780792236328125">
        <ele>1313.5999755859375</ele>
        <time>2026-06-18T07:44:04.000Z</time>
        <extensions>
          <ns3:TrackPointExtension>
            <ns3:atemp>20.0</ns3:atemp>
          </ns3:TrackPointExtension>
        </extensions>
      </trkpt>
      <trkpt lat="42.540086098015308380126953125" lon="19.78701942600309848785400390625">
        <ele>1313.800048828125</ele>
        <time>2026-06-18T07:44:05.000Z</time>
        <extensions>
          <ns3:TrackPointExtension>
            <ns3:atemp>20.0</ns3:atemp>
          </ns3:TrackPointExtension>
        </extensions>
      </trkpt>
      <trkpt lat="42.54009976051747798919677734375" lon="19.7870339266955852508544921875">
        <ele>1314</ele>
        <time>2026-06-18T07:44:06.000Z</time>
        <extensions>
          <ns3:TrackPointExtension>
            <ns3:atemp>20.0</ns3:atemp>
          </ns3:TrackPointExtension>
        </extensions>
      </trkpt>
      <trkpt lat="42.54011233337223529815673828125" lon="19.78704549372196197509765625">
        <ele>1314.199951171875</ele>
        <time>2026-06-18T07:44:07.000Z</time>
        <extensions>
          <ns3:TrackPointExtension>
            <ns3:atemp>20.0</ns3:atemp>
          </ns3:TrackPointExtension>
        </extensions>
      </trkpt>
      <trkpt lat="42.54012675024569034576416015625" lon="19.78706066496670246124267578125">
        <ele>1314.4000244140625</ele>
        <time>2026-06-18T07:44:08.000Z</time>
        <extensions>
          <ns3:TrackPointExtension>
            <ns3:atemp>20.0</ns3:atemp>
          </ns3:TrackPointExtension>
        </extensions>
      </trkpt>
      <trkpt lat="42.54013605415821075439453125" lon="19.78707843460142612457275390625">
        <ele>1314.4000244140625</ele>
        <time>2026-06-18T07:44:09.000Z</time>
        <extensions>
          <ns3:TrackPointExtension>
            <ns3:atemp>20.0</ns3:atemp>
          </ns3:TrackPointExtension>
        </extensions>
      </trkpt>
      <trkpt lat="42.540146447718143463134765625" lon="19.78709268383681774139404296875">
        <ele>1314.4000244140625</ele>
        <time>2026-06-18T07:44:10.000Z</time>
        <extensions>
          <ns3:TrackPointExtension>
            <ns3:atemp>20.0</ns3:atemp>
          </ns3:TrackPointExtension>
        </extensions>
      </trkpt>
      <trkpt lat="42.540154159069061279296875" lon="19.78710718452930450439453125">
        <ele>1314.5999755859375</ele>
        <time>2026-06-18T07:44:11.000Z</time>
        <extensions>
          <ns3:TrackPointExtension>
            <ns3:atemp>20.0</ns3:atemp>
          </ns3:TrackPointExtension>
        </extensions>
      </trkpt>
      <trkpt lat="42.54016161896288394927978515625" lon="19.78712520562112331390380859375">
        <ele>1314.800048828125</ele>
        <time>2026-06-18T07:44:12.000Z</time>
        <extensions>
          <ns3:TrackPointExtension>
            <ns3:atemp>20.0</ns3:atemp>
          </ns3:TrackPointExtension>
        </extensions>
      </trkpt>
      <trkpt lat="42.54016949795186519622802734375" lon="19.787142388522624969482421875">
        <ele>1315</ele>
        <time>2026-06-18T07:44:13.000Z</time>
        <extensions>
          <ns3:TrackPointExtension>
            <ns3:atemp>20.0</ns3:atemp>
          </ns3:TrackPointExtension>
        </extensions>
      </trkpt>
      <trkpt lat="42.54017821513116359710693359375" lon="19.78715906850993633270263671875">
        <ele>1315.199951171875</ele>
        <time>2026-06-18T07:44:14.000Z</time>
        <extensions>
          <ns3:TrackPointExtension>
            <ns3:atemp>20.0</ns3:atemp>
          </ns3:TrackPointExtension>
        </extensions>
      </trkpt>
      <trkpt lat="42.54018567502498626708984375" lon="19.7871814481914043426513671875">
        <ele>1315.4000244140625</ele>
        <time>2026-06-18T07:44:15.000Z</time>
        <extensions>
          <ns3:TrackPointExtension>
            <ns3:atemp>20.0</ns3:atemp>
          </ns3:TrackPointExtension>
        </extensions>
      </trkpt>
      <trkpt lat="42.54019347019493579864501953125" lon="19.78720776736736297607421875">
        <ele>1315.5999755859375</ele>
        <time>2026-06-18T07:44:16.000Z</time>
        <extensions>
          <ns3:TrackPointExtension>
            <ns3:atemp>20.0</ns3:atemp>
          </ns3:TrackPointExtension>
        </extensions>
      </trkpt>
      <trkpt lat="42.540199756622314453125" lon="19.7872303985059261322021484375">
        <ele>1315.800048828125</ele>
        <time>2026-06-18T07:44:17.000Z</time>
        <extensions>
          <ns3:TrackPointExtension>
            <ns3:atemp>20.0</ns3:atemp>
          </ns3:TrackPointExtension>
        </extensions>
      </trkpt>
      <trkpt lat="42.54020570777356624603271484375" lon="19.78725026361644268035888671875">
        <ele>1316</ele>
        <time>2026-06-18T07:44:18.000Z</time>
        <extensions>
          <ns3:TrackPointExtension>
            <ns3:atemp>20.0</ns3:atemp>
          </ns3:TrackPointExtension>
        </extensions>
      </trkpt>
      <trkpt lat="42.5402130000293254852294921875" lon="19.7872709669172763824462890625">
        <ele>1316.199951171875</ele>
        <time>2026-06-18T07:44:19.000Z</time>
        <extensions>
          <ns3:TrackPointExtension>
            <ns3:atemp>20.0</ns3:atemp>
          </ns3:TrackPointExtension>
        </extensions>
      </trkpt>
      <trkpt lat="42.540222220122814178466796875" lon="19.7872884012758731842041015625">
        <ele>1316.4000244140625</ele>
        <time>2026-06-18T07:44:20.000Z</time>
        <extensions>
          <ns3:TrackPointExtension>
            <ns3:atemp>20.0</ns3:atemp>
          </ns3:TrackPointExtension>
        </extensions>
      </trkpt>
      <trkpt lat="42.5402304343879222869873046875" lon="19.78731061331927776336669921875">
        <ele>1316.5999755859375</ele>
        <time>2026-06-18T07:44:21.000Z</time>
        <extensions>
          <ns3:TrackPointExtension>
            <ns3:atemp>20.0</ns3:atemp>
          </ns3:TrackPointExtension>
        </extensions>
      </trkpt>
      <trkpt lat="42.54023571498692035675048828125" lon="19.78733307681977748870849609375">
        <ele>1316.800048828125</ele>
        <time>2026-06-18T07:44:22.000Z</time>
        <extensions>
          <ns3:TrackPointExtension>
            <ns3:atemp>20.0</ns3:atemp>
          </ns3:TrackPointExtension>
        </extensions>
      </trkpt>
      <trkpt lat="42.540240995585918426513671875" lon="19.7873588092625141143798828125">
        <ele>1316.800048828125</ele>
        <time>2026-06-18T07:44:23.000Z</time>
        <extensions>
          <ns3:TrackPointExtension>
            <ns3:atemp>20.0</ns3:atemp>
          </ns3:TrackPointExtension>
        </extensions>
      </trkpt>
      <trkpt lat="42.54024761728942394256591796875" lon="19.78738253004848957061767578125">
        <ele>1317</ele>
        <time>2026-06-18T07:44:24.000Z</time>
        <extensions>
          <ns3:TrackPointExtension>
            <ns3:atemp>20.0</ns3:atemp>
          </ns3:TrackPointExtension>
        </extensions>
      </trkpt>
      <trkpt lat="42.54025465808808803558349609375" lon="19.7874084301292896270751953125">
        <ele>1317.199951171875</ele>
        <time>2026-06-18T07:44:25.000Z</time>
        <extensions>
          <ns3:TrackPointExtension>
            <ns3:atemp>20.0</ns3:atemp>
          </ns3:TrackPointExtension>
        </extensions>
      </trkpt>
      <trkpt lat="42.54026002250611782073974609375" lon="19.78742879815399646759033203125">
        <ele>1317.4000244140625</ele>
        <time>2026-06-18T07:44:26.000Z</time>
        <extensions>
          <ns3:TrackPointExtension>
            <ns3:atemp>20.0</ns3:atemp>
          </ns3:TrackPointExtension>
        </extensions>
      </trkpt>
      <trkpt lat="42.5402679853141307830810546875" lon="19.7874489985406398773193359375">
        <ele>1317.800048828125</ele>
        <time>2026-06-18T07:44:27.000Z</time>
        <extensions>
          <ns3:TrackPointExtension>
            <ns3:atemp>20.0</ns3:atemp>
          </ns3:TrackPointExtension>
        </extensions>
      </trkpt>
      <trkpt lat="42.54027477465569972991943359375" lon="19.78746567852795124053955078125">
        <ele>1318</ele>
        <time>2026-06-18T07:44:28.000Z</time>
        <extensions>
          <ns3:TrackPointExtension>
            <ns3:atemp>20.0</ns3:atemp>
          </ns3:TrackPointExtension>
        </extensions>
      </trkpt>
      <trkpt lat="42.5402867607772350311279296875" lon="19.7874831967055797576904296875">
        <ele>1318.199951171875</ele>
        <time>2026-06-18T07:44:29.000Z</time>
        <extensions>
          <ns3:TrackPointExtension>
            <ns3:atemp>20.0</ns3:atemp>
          </ns3:TrackPointExtension>
        </extensions>
      </trkpt>
      <trkpt lat="42.54029841162264347076416015625" lon="19.78750222362577915191650390625">
        <ele>1318.4000244140625</ele>
        <time>2026-06-18T07:44:30.000Z</time>
        <extensions>
          <ns3:TrackPointExtension>
            <ns3:atemp>20.0</ns3:atemp>
          </ns3:TrackPointExtension>
        </extensions>
      </trkpt>
      <trkpt lat="42.54031064920127391815185546875" lon="19.7875227592885494232177734375">
        <ele>1318.5999755859375</ele>
        <time>2026-06-18T07:44:31.000Z</time>
        <extensions>
          <ns3:TrackPointExtension>
            <ns3:atemp>20.0</ns3:atemp>
          </ns3:TrackPointExtension>
        </extensions>
      </trkpt>
      <trkpt lat="42.54032246768474578857421875" lon="19.78754530660808086395263671875">
        <ele>1318.800048828125</ele>
        <time>2026-06-18T07:44:32.000Z</time>
        <extensions>
          <ns3:TrackPointExtension>
            <ns3:atemp>20.0</ns3:atemp>
          </ns3:TrackPointExtension>
        </extensions>
      </trkpt>
      <trkpt lat="42.5403340347111225128173828125" lon="19.787563495337963104248046875">
        <ele>1319</ele>
        <time>2026-06-18T07:44:33.000Z</time>
        <extensions>
          <ns3:TrackPointExtension>
            <ns3:atemp>20.0</ns3:atemp>
          </ns3:TrackPointExtension>
        </extensions>
      </trkpt>
      <trkpt lat="42.54034652374684810638427734375" lon="19.78757497854530811309814453125">
        <ele>1319.4000244140625</ele>
        <time>2026-06-18T07:44:34.000Z</time>
        <extensions>
          <ns3:TrackPointExtension>
            <ns3:atemp>20.0</ns3:atemp>
          </ns3:TrackPointExtension>
        </extensions>
      </trkpt>
      <trkpt lat="42.54036094062030315399169921875" lon="19.7875898145139217376708984375">
        <ele>1319.5999755859375</ele>
        <time>2026-06-18T07:44:35.000Z</time>
        <extensions>
          <ns3:TrackPointExtension>
            <ns3:atemp>20.0</ns3:atemp>
          </ns3:TrackPointExtension>
        </extensions>
      </trkpt>
      <trkpt lat="42.54037284292280673980712890625" lon="19.78760498575866222381591796875">
        <ele>1320</ele>
        <time>2026-06-18T07:44:36.000Z</time>
        <extensions>
          <ns3:TrackPointExtension>
            <ns3:atemp>20.0</ns3:atemp>
          </ns3:TrackPointExtension>
        </extensions>
      </trkpt>
      <trkpt lat="42.54038474522531032562255859375" lon="19.78762443177402019500732421875">
        <ele>1320.199951171875</ele>
        <time>2026-06-18T07:44:37.000Z</time>
        <extensions>
          <ns3:TrackPointExtension>
            <ns3:atemp>20.0</ns3:atemp>
          </ns3:TrackPointExtension>
        </extensions>
      </trkpt>
      <trkpt lat="42.5403968989849090576171875" lon="19.7876421175897121429443359375">
        <ele>1320.199951171875</ele>
        <time>2026-06-18T07:44:38.000Z</time>
        <extensions>
          <ns3:TrackPointExtension>
            <ns3:atemp>20.0</ns3:atemp>
          </ns3:TrackPointExtension>
        </extensions>
      </trkpt>
      <trkpt lat="42.540408633649349212646484375" lon="19.78765971958637237548828125">
        <ele>1320.5999755859375</ele>
        <time>2026-06-18T07:44:39.000Z</time>
        <extensions>
          <ns3:TrackPointExtension>
            <ns3:atemp>20.0</ns3:atemp>
          </ns3:TrackPointExtension>
        </extensions>
      </trkpt>
      <trkpt lat="42.54042170941829681396484375" lon="19.7876751422882080078125">
        <ele>1320.5999755859375</ele>
        <time>2026-06-18T07:44:40.000Z</time>
        <extensions>
          <ns3:TrackPointExtension>
            <ns3:atemp>20.0</ns3:atemp>
          </ns3:TrackPointExtension>
        </extensions>
      </trkpt>
      <trkpt lat="42.54043704830110073089599609375" lon="19.78768779896199703216552734375">
        <ele>1320.800048828125</ele>
        <time>2026-06-18T07:44:41.000Z</time>
        <extensions>
          <ns3:TrackPointExtension>
            <ns3:atemp>20.0</ns3:atemp>
          </ns3:TrackPointExtension>
        </extensions>
      </trkpt>
      <trkpt lat="42.54045196808874607086181640625" lon="19.7876984439790248870849609375">
        <ele>1321.199951171875</ele>
        <time>2026-06-18T07:44:42.000Z</time>
        <extensions>
          <ns3:TrackPointExtension>
            <ns3:atemp>20.0</ns3:atemp>
          </ns3:TrackPointExtension>
        </extensions>
      </trkpt>
      <trkpt lat="42.54046596586704254150390625" lon="19.787712357938289642333984375">
        <ele>1321.4000244140625</ele>
        <time>2026-06-18T07:44:43.000Z</time>
        <extensions>
          <ns3:TrackPointExtension>
            <ns3:atemp>20.0</ns3:atemp>
          </ns3:TrackPointExtension>
        </extensions>
      </trkpt>
      <trkpt lat="42.54048281349241733551025390625" lon="19.78772534988820552825927734375">
        <ele>1321.4000244140625</ele>
        <time>2026-06-18T07:44:44.000Z</time>
        <extensions>
          <ns3:TrackPointExtension>
            <ns3:atemp>20.0</ns3:atemp>
          </ns3:TrackPointExtension>
        </extensions>
      </trkpt>
      <trkpt lat="42.54049924202263355255126953125" lon="19.78773775510489940643310546875">
        <ele>1321.5999755859375</ele>
        <time>2026-06-18T07:44:45.000Z</time>
        <extensions>
          <ns3:TrackPointExtension>
            <ns3:atemp>20.0</ns3:atemp>
          </ns3:TrackPointExtension>
        </extensions>
      </trkpt>
      <trkpt lat="42.54051500000059604644775390625" lon="19.78774965740740299224853515625">
        <ele>1321.5999755859375</ele>
        <time>2026-06-18T07:44:46.000Z</time>
        <extensions>
          <ns3:TrackPointExtension>
            <ns3:atemp>20.0</ns3:atemp>
          </ns3:TrackPointExtension>
        </extensions>
      </trkpt>
      <trkpt lat="42.54053167998790740966796875" lon="19.78776088915765285491943359375">
        <ele>1322</ele>
        <time>2026-06-18T07:44:47.000Z</time>
        <extensions>
          <ns3:TrackPointExtension>
            <ns3:atemp>20.0</ns3:atemp>
          </ns3:TrackPointExtension>
        </extensions>
      </trkpt>
      <trkpt lat="42.5405522994697093963623046875" lon="19.78776927106082439422607421875">
        <ele>1322.199951171875</ele>
        <time>2026-06-18T07:44:48.000Z</time>
        <extensions>
          <ns3:TrackPointExtension>
            <ns3:atemp>20.0</ns3:atemp>
          </ns3:TrackPointExtension>
        </extensions>
      </trkpt>
      <trkpt lat="42.54056830890476703643798828125" lon="19.78777497075498104095458984375">
        <ele>1322.4000244140625</ele>
        <time>2026-06-18T07:44:49.000Z</time>
        <extensions>
          <ns3:TrackPointExtension>
            <ns3:atemp>20.0</ns3:atemp>
          </ns3:TrackPointExtension>
        </extensions>
      </trkpt>
      <trkpt lat="42.5405851565301418304443359375" lon="19.7877824306488037109375">
        <ele>1322.800048828125</ele>
        <time>2026-06-18T07:44:50.000Z</time>
        <extensions>
          <ns3:TrackPointExtension>
            <ns3:atemp>20.0</ns3:atemp>
          </ns3:TrackPointExtension>
        </extensions>
      </trkpt>
      <trkpt lat="42.5406032614409923553466796875" lon="19.787790477275848388671875">
        <ele>1322.800048828125</ele>
        <time>2026-06-18T07:44:51.000Z</time>
        <extensions>
          <ns3:TrackPointExtension>
            <ns3:atemp>20.0</ns3:atemp>
          </ns3:TrackPointExtension>
        </extensions>
      </trkpt>
      <trkpt lat="42.54062019288539886474609375" lon="19.78778972290456295013427734375">
        <ele>1322.800048828125</ele>
        <time>2026-06-18T07:44:52.000Z</time>
        <extensions>
          <ns3:TrackPointExtension>
            <ns3:atemp>20.0</ns3:atemp>
          </ns3:TrackPointExtension>
        </extensions>
      </trkpt>
      <trkpt lat="42.54063905216753482818603515625" lon="19.78779391385614871978759765625">
        <ele>1322.800048828125</ele>
        <time>2026-06-18T07:44:53.000Z</time>
        <extensions>
          <ns3:TrackPointExtension>
            <ns3:atemp>20.0</ns3:atemp>
          </ns3:TrackPointExtension>
        </extensions>
      </trkpt>
      <trkpt lat="42.5406543910503387451171875" lon="19.78779760189354419708251953125">
        <ele>1322.800048828125</ele>
        <time>2026-06-18T07:44:54.000Z</time>
        <extensions>
          <ns3:TrackPointExtension>
            <ns3:atemp>20.0</ns3:atemp>
          </ns3:TrackPointExtension>
        </extensions>
      </trkpt>
      <trkpt lat="42.54067174158990383148193359375" lon="19.78779827244579792022705078125">
        <ele>1322.800048828125</ele>
        <time>2026-06-18T07:44:55.000Z</time>
        <extensions>
          <ns3:TrackPointExtension>
            <ns3:atemp>20.0</ns3:atemp>
          </ns3:TrackPointExtension>
        </extensions>
      </trkpt>
      <trkpt lat="42.5406911037862300872802734375" lon="19.78779919445514678955078125">
        <ele>1323</ele>
        <time>2026-06-18T07:44:56.000Z</time>
        <extensions>
          <ns3:TrackPointExtension>
            <ns3:atemp>20.0</ns3:atemp>
          </ns3:TrackPointExtension>
        </extensions>
      </trkpt>
      <trkpt lat="42.540709041059017181396484375" lon="19.7877993620932102203369140625">
        <ele>1323.199951171875</ele>
        <time>2026-06-18T07:44:57.000Z</time>
        <extensions>
          <ns3:TrackPointExtension>
            <ns3:atemp>20.0</ns3:atemp>
          </ns3:TrackPointExtension>
        </extensions>
      </trkpt>
      <trkpt lat="42.540726475417613983154296875" lon="19.78779793716967105865478515625">
        <ele>1323.4000244140625</ele>
        <time>2026-06-18T07:44:58.000Z</time>
        <extensions>
          <ns3:TrackPointExtension>
            <ns3:atemp>20.0</ns3:atemp>
          </ns3:TrackPointExtension>
        </extensions>
      </trkpt>
      <trkpt lat="42.54074349068105220794677734375" lon="19.78779290802776813507080078125">
        <ele>1323.4000244140625</ele>
        <time>2026-06-18T07:44:59.000Z</time>
        <extensions>
          <ns3:TrackPointExtension>
            <ns3:atemp>20.0</ns3:atemp>
          </ns3:TrackPointExtension>
        </extensions>
      </trkpt>
      <trkpt lat="42.540762685239315032958984375" lon="19.78778444230556488037109375">
        <ele>1323.5999755859375</ele>
        <time>2026-06-18T07:45:00.000Z</time>
        <extensions>
          <ns3:TrackPointExtension>
            <ns3:atemp>20.0</ns3:atemp>
          </ns3:TrackPointExtension>
        </extensions>
      </trkpt>
      <trkpt lat="42.54077911376953125" lon="19.78777698241174221038818359375">
        <ele>1323.800048828125</ele>
        <time>2026-06-18T07:45:01.000Z</time>
        <extensions>
          <ns3:TrackPointExtension>
            <ns3:atemp>20.0</ns3:atemp>
          </ns3:TrackPointExtension>
        </extensions>
      </trkpt>
      <trkpt lat="42.54079696722328662872314453125" lon="19.787768684327602386474609375">
        <ele>1323.800048828125</ele>
        <time>2026-06-18T07:45:02.000Z</time>
        <extensions>
          <ns3:TrackPointExtension>
            <ns3:atemp>20.0</ns3:atemp>
          </ns3:TrackPointExtension>
        </extensions>
      </trkpt>
      <trkpt lat="42.540812976658344268798828125" lon="19.78776189498603343963623046875">
        <ele>1323.800048828125</ele>
        <time>2026-06-18T07:45:03.000Z</time>
        <extensions>
          <ns3:TrackPointExtension>
            <ns3:atemp>20.0</ns3:atemp>
          </ns3:TrackPointExtension>
        </extensions>
      </trkpt>
      <trkpt lat="42.5408287346363067626953125" lon="19.78775535710155963897705078125">
        <ele>1323.800048828125</ele>
        <time>2026-06-18T07:45:04.000Z</time>
        <extensions>
          <ns3:TrackPointExtension>
            <ns3:atemp>20.0</ns3:atemp>
          </ns3:TrackPointExtension>
        </extensions>
      </trkpt>
      <trkpt lat="42.5408453308045864105224609375" lon="19.7877500765025615692138671875">
        <ele>1324</ele>
        <time>2026-06-18T07:45:05.000Z</time>
        <extensions>
          <ns3:TrackPointExtension>
            <ns3:atemp>20.0</ns3:atemp>
          </ns3:TrackPointExtension>
        </extensions>
      </trkpt>
      <trkpt lat="42.54086150787770748138427734375" lon="19.78774379007518291473388671875">
        <ele>1324.199951171875</ele>
        <time>2026-06-18T07:45:06.000Z</time>
        <extensions>
          <ns3:TrackPointExtension>
            <ns3:atemp>20.0</ns3:atemp>
          </ns3:TrackPointExtension>
        </extensions>
      </trkpt>
      <trkpt lat="42.54087776876986026763916015625" lon="19.78773859329521656036376953125">
        <ele>1324.5999755859375</ele>
        <time>2026-06-18T07:45:07.000Z</time>
        <extensions>
          <ns3:TrackPointExtension>
            <ns3:atemp>20.0</ns3:atemp>
          </ns3:TrackPointExtension>
        </extensions>
      </trkpt>
      <trkpt lat="42.5408989749848842620849609375" lon="19.78773415088653564453125">
        <ele>1324.800048828125</ele>
        <time>2026-06-18T07:45:08.000Z</time>
        <extensions>
          <ns3:TrackPointExtension>
            <ns3:atemp>20.0</ns3:atemp>
          </ns3:TrackPointExtension>
        </extensions>
      </trkpt>
      <trkpt lat="42.5409199297428131103515625" lon="19.78772870264947414398193359375">
        <ele>1325</ele>
        <time>2026-06-18T07:45:09.000Z</time>
        <extensions>
          <ns3:TrackPointExtension>
            <ns3:atemp>20.0</ns3:atemp>
          </ns3:TrackPointExtension>
        </extensions>
      </trkpt>
      <trkpt lat="42.54094113595783710479736328125" lon="19.787728451192378997802734375">
        <ele>1325.199951171875</ele>
        <time>2026-06-18T07:45:10.000Z</time>
        <extensions>
          <ns3:TrackPointExtension>
            <ns3:atemp>20.0</ns3:atemp>
          </ns3:TrackPointExtension>
        </extensions>
      </trkpt>
      <trkpt lat="42.54096510820090770721435546875" lon="19.7877346538007259368896484375">
        <ele>1325.4000244140625</ele>
        <time>2026-06-18T07:45:11.000Z</time>
        <extensions>
          <ns3:TrackPointExtension>
            <ns3:atemp>20.0</ns3:atemp>
          </ns3:TrackPointExtension>
        </extensions>
      </trkpt>
      <trkpt lat="42.54098790697753429412841796875" lon="19.78773825801908969879150390625">
        <ele>1325.4000244140625</ele>
        <time>2026-06-18T07:45:12.000Z</time>
        <extensions>
          <ns3:TrackPointExtension>
            <ns3:atemp>20.0</ns3:atemp>
          </ns3:TrackPointExtension>
        </extensions>
      </trkpt>
      <trkpt lat="42.54101171158254146575927734375" lon="19.7877484001219272613525390625">
        <ele>1325.4000244140625</ele>
        <time>2026-06-18T07:45:13.000Z</time>
        <extensions>
          <ns3:TrackPointExtension>
            <ns3:atemp>20.0</ns3:atemp>
          </ns3:TrackPointExtension>
        </extensions>
      </trkpt>
      <trkpt lat="42.5410267151892185211181640625" lon="19.78775870986282825469970703125">
        <ele>1325.5999755859375</ele>
        <time>2026-06-18T07:45:14.000Z</time>
        <extensions>
          <ns3:TrackPointExtension>
            <ns3:atemp>20.0</ns3:atemp>
          </ns3:TrackPointExtension>
        </extensions>
      </trkpt>
      <trkpt lat="42.54104121588170528411865234375" lon="19.7877725400030612945556640625">
        <ele>1325.800048828125</ele>
        <time>2026-06-18T07:45:15.000Z</time>
        <extensions>
          <ns3:TrackPointExtension>
            <ns3:atemp>20.0</ns3:atemp>
          </ns3:TrackPointExtension>
        </extensions>
      </trkpt>
      <trkpt lat="42.54105269908905029296875" lon="19.78778720833361148834228515625">
        <ele>1326</ele>
        <time>2026-06-18T07:45:16.000Z</time>
        <extensions>
          <ns3:TrackPointExtension>
            <ns3:atemp>20.0</ns3:atemp>
          </ns3:TrackPointExtension>
        </extensions>
      </trkpt>
      <trkpt lat="42.54106736741960048675537109375" lon="19.7878052294254302978515625">
        <ele>1326</ele>
        <time>2026-06-18T07:45:17.000Z</time>
        <extensions>
          <ns3:TrackPointExtension>
            <ns3:atemp>20.0</ns3:atemp>
          </ns3:TrackPointExtension>
        </extensions>
      </trkpt>
      <trkpt lat="42.5410837121307849884033203125" lon="19.78782333433628082275390625">
        <ele>1326.199951171875</ele>
        <time>2026-06-18T07:45:18.000Z</time>
        <extensions>
          <ns3:TrackPointExtension>
            <ns3:atemp>20.0</ns3:atemp>
          </ns3:TrackPointExtension>
        </extensions>
      </trkpt>
      <trkpt lat="42.541100643575191497802734375" lon="19.7878406010568141937255859375">
        <ele>1326.199951171875</ele>
        <time>2026-06-18T07:45:19.000Z</time>
        <extensions>
          <ns3:TrackPointExtension>
            <ns3:atemp>20.0</ns3:atemp>
          </ns3:TrackPointExtension>
        </extensions>
      </trkpt>
      <trkpt lat="42.541115395724773406982421875" lon="19.78785661049187183380126953125">
        <ele>1326.199951171875</ele>
        <time>2026-06-18T07:45:20.000Z</time>
        <extensions>
          <ns3:TrackPointExtension>
            <ns3:atemp>20.0</ns3:atemp>
          </ns3:TrackPointExtension>
        </extensions>
      </trkpt>
      <trkpt lat="42.54113157279789447784423828125" lon="19.78787354193627834320068359375">
        <ele>1326.199951171875</ele>
        <time>2026-06-18T07:45:21.000Z</time>
        <extensions>
          <ns3:TrackPointExtension>
            <ns3:atemp>20.0</ns3:atemp>
          </ns3:TrackPointExtension>
        </extensions>
      </trkpt>
      <trkpt lat="42.541149593889713287353515625" lon="19.7878883779048919677734375">
        <ele>1326.199951171875</ele>
        <time>2026-06-18T07:45:22.000Z</time>
        <extensions>
          <ns3:TrackPointExtension>
            <ns3:atemp>20.0</ns3:atemp>
          </ns3:TrackPointExtension>
        </extensions>
      </trkpt>
      <trkpt lat="42.5411668606102466583251953125" lon="19.787903130054473876953125">
        <ele>1326.199951171875</ele>
        <time>2026-06-18T07:45:23.000Z</time>
        <extensions>
          <ns3:TrackPointExtension>
            <ns3:atemp>20.0</ns3:atemp>
          </ns3:TrackPointExtension>
        </extensions>
      </trkpt>
      <trkpt lat="42.54118102602660655975341796875" lon="19.78791142813861370086669921875">
        <ele>1326.199951171875</ele>
        <time>2026-06-18T07:45:24.000Z</time>
        <extensions>
          <ns3:TrackPointExtension>
            <ns3:atemp>20.0</ns3:atemp>
          </ns3:TrackPointExtension>
        </extensions>
      </trkpt>
      <trkpt lat="42.541197873651981353759765625" lon="19.78792265988886356353759765625">
        <ele>1326.4000244140625</ele>
        <time>2026-06-18T07:45:25.000Z</time>
        <extensions>
          <ns3:TrackPointExtension>
            <ns3:atemp>20.0</ns3:atemp>
          </ns3:TrackPointExtension>
        </extensions>
      </trkpt>
      <trkpt lat="42.54121304489672183990478515625" lon="19.78793322108685970306396484375">
        <ele>1326.199951171875</ele>
        <time>2026-06-18T07:45:26.000Z</time>
        <extensions>
          <ns3:TrackPointExtension>
            <ns3:atemp>20.0</ns3:atemp>
          </ns3:TrackPointExtension>
        </extensions>
      </trkpt>
      <trkpt lat="42.54122980870306491851806640625" lon="19.7879468835890293121337890625">
        <ele>1326.4000244140625</ele>
        <time>2026-06-18T07:45:27.000Z</time>
        <extensions>
          <ns3:TrackPointExtension>
            <ns3:atemp>20.0</ns3:atemp>
          </ns3:TrackPointExtension>
        </extensions>
      </trkpt>
      <trkpt lat="42.54125176928937435150146484375" lon="19.787957109510898590087890625">
        <ele>1326.4000244140625</ele>
        <time>2026-06-18T07:45:28.000Z</time>
        <extensions>
          <ns3:TrackPointExtension>
            <ns3:atemp>20.0</ns3:atemp>
          </ns3:TrackPointExtension>
        </extensions>
      </trkpt>
      <trkpt lat="42.541274316608905792236328125" lon="19.7879703529179096221923828125">
        <ele>1326.4000244140625</ele>
        <time>2026-06-18T07:45:29.000Z</time>
        <extensions>
          <ns3:TrackPointExtension>
            <ns3:atemp>20.0</ns3:atemp>
          </ns3:TrackPointExtension>
        </extensions>
      </trkpt>
      <trkpt lat="42.5412966124713420867919921875" lon="19.78798091411590576171875">
        <ele>1326.4000244140625</ele>
        <time>2026-06-18T07:45:30.000Z</time>
        <extensions>
          <ns3:TrackPointExtension>
            <ns3:atemp>20.0</ns3:atemp>
          </ns3:TrackPointExtension>
        </extensions>
      </trkpt>
      <trkpt lat="42.5413187406957149505615234375" lon="19.787987954914569854736328125">
        <ele>1326.199951171875</ele>
        <time>2026-06-18T07:45:31.000Z</time>
        <extensions>
          <ns3:TrackPointExtension>
            <ns3:atemp>20.0</ns3:atemp>
          </ns3:TrackPointExtension>
        </extensions>
      </trkpt>
      <trkpt lat="42.54134346731007099151611328125" lon="19.7879970073699951171875">
        <ele>1326.199951171875</ele>
        <time>2026-06-18T07:45:32.000Z</time>
        <extensions>
          <ns3:TrackPointExtension>
            <ns3:atemp>20.0</ns3:atemp>
          </ns3:TrackPointExtension>
        </extensions>
      </trkpt>
      <trkpt lat="42.5413670204579830169677734375" lon="19.7880038805305957794189453125">
        <ele>1326.199951171875</ele>
        <time>2026-06-18T07:45:33.000Z</time>
        <extensions>
          <ns3:TrackPointExtension>
            <ns3:atemp>20.0</ns3:atemp>
          </ns3:TrackPointExtension>
        </extensions>
      </trkpt>
      <trkpt lat="42.54138864576816558837890625" lon="19.788006730377674102783203125">
        <ele>1326.199951171875</ele>
        <time>2026-06-18T07:45:34.000Z</time>
        <extensions>
          <ns3:TrackPointExtension>
            <ns3:atemp>20.0</ns3:atemp>
          </ns3:TrackPointExtension>
        </extensions>
      </trkpt>
      <trkpt lat="42.5414055772125720977783203125" lon="19.7880062274634838104248046875">
        <ele>1326.199951171875</ele>
        <time>2026-06-18T07:45:35.000Z</time>
        <extensions>
          <ns3:TrackPointExtension>
            <ns3:atemp>20.0</ns3:atemp>
          </ns3:TrackPointExtension>
        </extensions>
      </trkpt>
      <trkpt lat="42.54142929799854755401611328125" lon="19.78800714947283267974853515625">
        <ele>1326.199951171875</ele>
        <time>2026-06-18T07:45:36.000Z</time>
        <extensions>
          <ns3:TrackPointExtension>
            <ns3:atemp>20.0</ns3:atemp>
          </ns3:TrackPointExtension>
        </extensions>
      </trkpt>
      <trkpt lat="42.54145042039453983306884765625" lon="19.78800999931991100311279296875">
        <ele>1326.4000244140625</ele>
        <time>2026-06-18T07:45:37.000Z</time>
        <extensions>
          <ns3:TrackPointExtension>
            <ns3:atemp>20.0</ns3:atemp>
          </ns3:TrackPointExtension>
        </extensions>
      </trkpt>
      <trkpt lat="42.54146969877183437347412109375" lon="19.7880117595195770263671875">
        <ele>1326.5999755859375</ele>
        <time>2026-06-18T07:45:38.000Z</time>
        <extensions>
          <ns3:TrackPointExtension>
            <ns3:atemp>20.0</ns3:atemp>
          </ns3:TrackPointExtension>
        </extensions>
      </trkpt>
      <trkpt lat="42.54149325191974639892578125" lon="19.78800782002508640289306640625">
        <ele>1326.800048828125</ele>
        <time>2026-06-18T07:45:39.000Z</time>
        <extensions>
          <ns3:TrackPointExtension>
            <ns3:atemp>20.0</ns3:atemp>
          </ns3:TrackPointExtension>
        </extensions>
      </trkpt>
      <trkpt lat="42.5415175594389438629150390625" lon="19.7880089096724987030029296875">
        <ele>1327</ele>
        <time>2026-06-18T07:45:40.000Z</time>
        <extensions>
          <ns3:TrackPointExtension>
            <ns3:atemp>20.0</ns3:atemp>
          </ns3:TrackPointExtension>
        </extensions>
      </trkpt>
      <trkpt lat="42.5415480695664882659912109375" lon="19.78800564073026180267333984375">
        <ele>1327.199951171875</ele>
        <time>2026-06-18T07:45:41.000Z</time>
        <extensions>
          <ns3:TrackPointExtension>
            <ns3:atemp>20.0</ns3:atemp>
          </ns3:TrackPointExtension>
        </extensions>
      </trkpt>
      <trkpt lat="42.54157648421823978424072265625" lon="19.7880068980157375335693359375">
        <ele>1327.4000244140625</ele>
        <time>2026-06-18T07:45:42.000Z</time>
        <extensions>
          <ns3:TrackPointExtension>
            <ns3:atemp>20.0</ns3:atemp>
          </ns3:TrackPointExtension>
        </extensions>
      </trkpt>
      <trkpt lat="42.5416064076125621795654296875" lon="19.78800899349153041839599609375">
        <ele>1327.4000244140625</ele>
        <time>2026-06-18T07:45:43.000Z</time>
        <extensions>
          <ns3:TrackPointExtension>
            <ns3:atemp>20.0</ns3:atemp>
          </ns3:TrackPointExtension>
        </extensions>
      </trkpt>
      <trkpt lat="42.541635073721408843994140625" lon="19.7880156151950359344482421875">
        <ele>1327.4000244140625</ele>
        <time>2026-06-18T07:45:44.000Z</time>
        <extensions>
          <ns3:TrackPointExtension>
            <ns3:atemp>20.0</ns3:atemp>
          </ns3:TrackPointExtension>
        </extensions>
      </trkpt>
      <trkpt lat="42.541662566363811492919921875" lon="19.78802659548819065093994140625">
        <ele>1327.4000244140625</ele>
        <time>2026-06-18T07:45:45.000Z</time>
        <extensions>
          <ns3:TrackPointExtension>
            <ns3:atemp>20.0</ns3:atemp>
          </ns3:TrackPointExtension>
        </extensions>
      </trkpt>
      <trkpt lat="42.54169098101556301116943359375" lon="19.78803279809653759002685546875">
        <ele>1327.4000244140625</ele>
        <time>2026-06-18T07:45:46.000Z</time>
        <extensions>
          <ns3:TrackPointExtension>
            <ns3:atemp>20.0</ns3:atemp>
          </ns3:TrackPointExtension>
        </extensions>
      </trkpt>
      <trkpt lat="42.54171713255345821380615234375" lon="19.78804352693259716033935546875">
        <ele>1327.4000244140625</ele>
        <time>2026-06-18T07:45:47.000Z</time>
        <extensions>
          <ns3:TrackPointExtension>
            <ns3:atemp>20.0</ns3:atemp>
          </ns3:TrackPointExtension>
        </extensions>
      </trkpt>
      <trkpt lat="42.54174278117716312408447265625" lon="19.7880501486361026763916015625">
        <ele>1327.4000244140625</ele>
        <time>2026-06-18T07:45:48.000Z</time>
        <extensions>
          <ns3:TrackPointExtension>
            <ns3:atemp>20.0</ns3:atemp>
          </ns3:TrackPointExtension>
        </extensions>
      </trkpt>
      <trkpt lat="42.54177077673375606536865234375" lon="19.78806129656732082366943359375">
        <ele>1327.4000244140625</ele>
        <time>2026-06-18T07:45:49.000Z</time>
        <extensions>
          <ns3:TrackPointExtension>
            <ns3:atemp>20.0</ns3:atemp>
          </ns3:TrackPointExtension>
        </extensions>
      </trkpt>
      <trkpt lat="42.54180028103291988372802734375" lon="19.78807143867015838623046875">
        <ele>1327.5999755859375</ele>
        <time>2026-06-18T07:45:50.000Z</time>
        <extensions>
          <ns3:TrackPointExtension>
            <ns3:atemp>20.0</ns3:atemp>
          </ns3:TrackPointExtension>
        </extensions>
      </trkpt>
      <trkpt lat="42.5418300367891788482666015625" lon="19.78808225132524967193603515625">
        <ele>1327.5999755859375</ele>
        <time>2026-06-18T07:45:51.000Z</time>
        <extensions>
          <ns3:TrackPointExtension>
            <ns3:atemp>20.0</ns3:atemp>
          </ns3:TrackPointExtension>
        </extensions>
      </trkpt>
      <trkpt lat="42.5418555177748203277587890625" lon="19.78809029795229434967041015625">
        <ele>1327.5999755859375</ele>
        <time>2026-06-18T07:45:52.000Z</time>
        <extensions>
          <ns3:TrackPointExtension>
            <ns3:atemp>20.0</ns3:atemp>
          </ns3:TrackPointExtension>
        </extensions>
      </trkpt>
      <trkpt lat="42.541879825294017791748046875" lon="19.78809616528451442718505859375">
        <ele>1327.5999755859375</ele>
        <time>2026-06-18T07:45:53.000Z</time>
        <extensions>
          <ns3:TrackPointExtension>
            <ns3:atemp>20.0</ns3:atemp>
          </ns3:TrackPointExtension>
        </extensions>
      </trkpt>
      <trkpt lat="42.5419024564325809478759765625" lon="19.78808862157166004180908203125">
        <ele>1327.5999755859375</ele>
        <time>2026-06-18T07:45:54.000Z</time>
        <extensions>
          <ns3:TrackPointExtension>
            <ns3:atemp>20.0</ns3:atemp>
          </ns3:TrackPointExtension>
        </extensions>
      </trkpt>
      <trkpt lat="42.54192936234176158905029296875" lon="19.78808409534394741058349609375">
        <ele>1327.5999755859375</ele>
        <time>2026-06-18T07:45:55.000Z</time>
        <extensions>
          <ns3:TrackPointExtension>
            <ns3:atemp>20.0</ns3:atemp>
          </ns3:TrackPointExtension>
        </extensions>
      </trkpt>
      <trkpt lat="42.54195534624159336090087890625" lon="19.78807722218334674835205078125">
        <ele>1327.4000244140625</ele>
        <time>2026-06-18T07:45:56.000Z</time>
        <extensions>
          <ns3:TrackPointExtension>
            <ns3:atemp>20.0</ns3:atemp>
          </ns3:TrackPointExtension>
        </extensions>
      </trkpt>
      <trkpt lat="42.54198200069367885589599609375" lon="19.78806397877633571624755859375">
        <ele>1327.4000244140625</ele>
        <time>2026-06-18T07:45:57.000Z</time>
        <extensions>
          <ns3:TrackPointExtension>
            <ns3:atemp>20.0</ns3:atemp>
          </ns3:TrackPointExtension>
        </extensions>
      </trkpt>
      <trkpt lat="42.542005889117717742919921875" lon="19.78804855607450008392333984375">
        <ele>1327.4000244140625</ele>
        <time>2026-06-18T07:45:58.000Z</time>
        <extensions>
          <ns3:TrackPointExtension>
            <ns3:atemp>20.0</ns3:atemp>
          </ns3:TrackPointExtension>
        </extensions>
      </trkpt>
      <trkpt lat="42.5420268438756465911865234375" lon="19.7880296967923641204833984375">
        <ele>1327.4000244140625</ele>
        <time>2026-06-18T07:45:59.000Z</time>
        <extensions>
          <ns3:TrackPointExtension>
            <ns3:atemp>20.0</ns3:atemp>
          </ns3:TrackPointExtension>
        </extensions>
      </trkpt>
      <trkpt lat="42.54205089993774890899658203125" lon="19.78801804594695568084716796875">
        <ele>1327.4000244140625</ele>
        <time>2026-06-18T07:46:00.000Z</time>
        <extensions>
          <ns3:TrackPointExtension>
            <ns3:atemp>20.0</ns3:atemp>
          </ns3:TrackPointExtension>
        </extensions>
      </trkpt>
      <trkpt lat="42.542074620723724365234375" lon="19.78800865821540355682373046875">
        <ele>1327.4000244140625</ele>
        <time>2026-06-18T07:46:01.000Z</time>
        <extensions>
          <ns3:TrackPointExtension>
            <ns3:atemp>20.0</ns3:atemp>
          </ns3:TrackPointExtension>
        </extensions>
      </trkpt>
      <trkpt lat="42.5420947372913360595703125" lon="19.788005389273166656494140625">
        <ele>1327.5999755859375</ele>
        <time>2026-06-18T07:46:02.000Z</time>
        <extensions>
          <ns3:TrackPointExtension>
            <ns3:atemp>20.0</ns3:atemp>
          </ns3:TrackPointExtension>
        </extensions>
      </trkpt>
      <trkpt lat="42.5421126745641231536865234375" lon="19.78800061158835887908935546875">
        <ele>1327.5999755859375</ele>
        <time>2026-06-18T07:46:03.000Z</time>
        <extensions>
          <ns3:TrackPointExtension>
            <ns3:atemp>20.0</ns3:atemp>
          </ns3:TrackPointExtension>
        </extensions>
      </trkpt>
      <trkpt lat="42.5421349704265594482421875" lon="19.787999354302883148193359375">
        <ele>1327.800048828125</ele>
        <time>2026-06-18T07:46:04.000Z</time>
        <extensions>
          <ns3:TrackPointExtension>
            <ns3:atemp>20.0</ns3:atemp>
          </ns3:TrackPointExtension>
        </extensions>
      </trkpt>
      <trkpt lat="42.5421596132218837738037109375" lon="19.7880048863589763641357421875">
        <ele>1327.800048828125</ele>
        <time>2026-06-18T07:46:05.000Z</time>
        <extensions>
          <ns3:TrackPointExtension>
            <ns3:atemp>20.0</ns3:atemp>
          </ns3:TrackPointExtension>
        </extensions>
      </trkpt>
      <trkpt lat="42.54218350164592266082763671875" lon="19.78801486082375049591064453125">
        <ele>1327.800048828125</ele>
        <time>2026-06-18T07:46:06.000Z</time>
        <extensions>
          <ns3:TrackPointExtension>
            <ns3:atemp>20.0</ns3:atemp>
          </ns3:TrackPointExtension>
        </extensions>
      </trkpt>
      <trkpt lat="42.54220194183290004730224609375" lon="19.78802776895463466644287109375">
        <ele>1327.5999755859375</ele>
        <time>2026-06-18T07:46:07.000Z</time>
        <extensions>
          <ns3:TrackPointExtension>
            <ns3:atemp>20.0</ns3:atemp>
          </ns3:TrackPointExtension>
        </extensions>
      </trkpt>
      <trkpt lat="42.54221937619149684906005859375" lon="19.78803883306682109832763671875">
        <ele>1327.5999755859375</ele>
        <time>2026-06-18T07:46:08.000Z</time>
        <extensions>
          <ns3:TrackPointExtension>
            <ns3:atemp>20.0</ns3:atemp>
          </ns3:TrackPointExtension>
        </extensions>
      </trkpt>
      <trkpt lat="42.54223496653139591217041015625" lon="19.78804595768451690673828125">
        <ele>1327.5999755859375</ele>
        <time>2026-06-18T07:46:09.000Z</time>
        <extensions>
          <ns3:TrackPointExtension>
            <ns3:atemp>20.0</ns3:atemp>
          </ns3:TrackPointExtension>
        </extensions>
      </trkpt>
      <trkpt lat="42.54225340671837329864501953125" lon="19.7880608774721622467041015625">
        <ele>1327.5999755859375</ele>
        <time>2026-06-18T07:46:10.000Z</time>
        <extensions>
          <ns3:TrackPointExtension>
            <ns3:atemp>20.0</ns3:atemp>
          </ns3:TrackPointExtension>
        </extensions>
      </trkpt>
      <trkpt lat="42.54227536730468273162841796875" lon="19.78806674480438232421875">
        <ele>1327.800048828125</ele>
        <time>2026-06-18T07:46:11.000Z</time>
        <extensions>
          <ns3:TrackPointExtension>
            <ns3:atemp>20.0</ns3:atemp>
          </ns3:TrackPointExtension>
        </extensions>
      </trkpt>
      <trkpt lat="42.54229598678648471832275390625" lon="19.78807219304144382476806640625">
        <ele>1327.800048828125</ele>
        <time>2026-06-18T07:46:12.000Z</time>
        <extensions>
          <ns3:TrackPointExtension>
            <ns3:atemp>20.0</ns3:atemp>
          </ns3:TrackPointExtension>
        </extensions>
      </trkpt>
      <trkpt lat="42.54231937229633331298828125" lon="19.78808191604912281036376953125">
        <ele>1328</ele>
        <time>2026-06-18T07:46:13.000Z</time>
        <extensions>
          <ns3:TrackPointExtension>
            <ns3:atemp>20.0</ns3:atemp>
          </ns3:TrackPointExtension>
        </extensions>
      </trkpt>
      <trkpt lat="42.54233940504491329193115234375" lon="19.7880873642861843109130859375">
        <ele>1328</ele>
        <time>2026-06-18T07:46:14.000Z</time>
        <extensions>
          <ns3:TrackPointExtension>
            <ns3:atemp>20.0</ns3:atemp>
          </ns3:TrackPointExtension>
        </extensions>
      </trkpt>
      <trkpt lat="42.54235717467963695526123046875" lon="19.7880893759429454803466796875">
        <ele>1328.199951171875</ele>
        <time>2026-06-18T07:46:15.000Z</time>
        <extensions>
          <ns3:TrackPointExtension>
            <ns3:atemp>20.0</ns3:atemp>
          </ns3:TrackPointExtension>
        </extensions>
      </trkpt>
      <trkpt lat="42.54237662069499492645263671875" lon="19.78809096850454807281494140625">
        <ele>1328.4000244140625</ele>
        <time>2026-06-18T07:46:16.000Z</time>
        <extensions>
          <ns3:TrackPointExtension>
            <ns3:atemp>20.0</ns3:atemp>
          </ns3:TrackPointExtension>
        </extensions>
      </trkpt>
      <trkpt lat="42.54239589907228946685791015625" lon="19.78809415362775325775146484375">
        <ele>1328.5999755859375</ele>
        <time>2026-06-18T07:46:17.000Z</time>
        <extensions>
          <ns3:TrackPointExtension>
            <ns3:atemp>20.0</ns3:atemp>
          </ns3:TrackPointExtension>
        </extensions>
      </trkpt>
      <trkpt lat="42.5424194522202014923095703125" lon="19.78810002095997333526611328125">
        <ele>1328.800048828125</ele>
        <time>2026-06-18T07:46:18.000Z</time>
        <extensions>
          <ns3:TrackPointExtension>
            <ns3:atemp>20.0</ns3:atemp>
          </ns3:TrackPointExtension>
        </extensions>
      </trkpt>
      <trkpt lat="42.5424407422542572021484375" lon="19.7881034575402736663818359375">
        <ele>1329</ele>
        <time>2026-06-18T07:46:19.000Z</time>
        <extensions>
          <ns3:TrackPointExtension>
            <ns3:atemp>20.0</ns3:atemp>
          </ns3:TrackPointExtension>
        </extensions>
      </trkpt>
      <trkpt lat="42.54245960153639316558837890625" lon="19.78811091743409633636474609375">
        <ele>1329.199951171875</ele>
        <time>2026-06-18T07:46:20.000Z</time>
        <extensions>
          <ns3:TrackPointExtension>
            <ns3:atemp>20.0</ns3:atemp>
          </ns3:TrackPointExtension>
        </extensions>
      </trkpt>
      <trkpt lat="42.54247619770467281341552734375" lon="19.7881208918988704681396484375">
        <ele>1329.4000244140625</ele>
        <time>2026-06-18T07:46:21.000Z</time>
        <extensions>
          <ns3:TrackPointExtension>
            <ns3:atemp>20.0</ns3:atemp>
          </ns3:TrackPointExtension>
        </extensions>
      </trkpt>
      <trkpt lat="42.54249279387295246124267578125" lon="19.788132794201374053955078125">
        <ele>1329.5999755859375</ele>
        <time>2026-06-18T07:46:22.000Z</time>
        <extensions>
          <ns3:TrackPointExtension>
            <ns3:atemp>20.0</ns3:atemp>
          </ns3:TrackPointExtension>
        </extensions>
      </trkpt>
      <trkpt lat="42.54251156933605670928955078125" lon="19.78814394213259220123291015625">
        <ele>1329.5999755859375</ele>
        <time>2026-06-18T07:46:23.000Z</time>
        <extensions>
          <ns3:TrackPointExtension>
            <ns3:atemp>20.0</ns3:atemp>
          </ns3:TrackPointExtension>
        </extensions>
      </trkpt>
      <trkpt lat="42.54252447746694087982177734375" lon="19.78816129267215728759765625">
        <ele>1329.800048828125</ele>
        <time>2026-06-18T07:46:24.000Z</time>
        <extensions>
          <ns3:TrackPointExtension>
            <ns3:atemp>20.0</ns3:atemp>
          </ns3:TrackPointExtension>
        </extensions>
      </trkpt>
      <trkpt lat="42.54253118298947811126708984375" lon="19.788187444210052490234375">
        <ele>1329.800048828125</ele>
        <time>2026-06-18T07:46:25.000Z</time>
        <extensions>
          <ns3:TrackPointExtension>
            <ns3:atemp>20.0</ns3:atemp>
          </ns3:TrackPointExtension>
        </extensions>
      </trkpt>
      <trkpt lat="42.54253126680850982666015625" lon="19.78821133263409137725830078125">
        <ele>1329.800048828125</ele>
        <time>2026-06-18T07:46:26.000Z</time>
        <extensions>
          <ns3:TrackPointExtension>
            <ns3:atemp>20.0</ns3:atemp>
          </ns3:TrackPointExtension>
        </extensions>
      </trkpt>
      <trkpt lat="42.5425274111330509185791015625" lon="19.7882372327148914337158203125">
        <ele>1330</ele>
        <time>2026-06-18T07:46:27.000Z</time>
        <extensions>
          <ns3:TrackPointExtension>
            <ns3:atemp>20.0</ns3:atemp>
          </ns3:TrackPointExtension>
        </extensions>
      </trkpt>
      <trkpt lat="42.54252632148563861846923828125" lon="19.7882630489766597747802734375">
        <ele>1330</ele>
        <time>2026-06-18T07:46:28.000Z</time>
        <extensions>
          <ns3:TrackPointExtension>
            <ns3:atemp>20.0</ns3:atemp>
          </ns3:TrackPointExtension>
        </extensions>
      </trkpt>
      <trkpt lat="42.54252648912370204925537109375" lon="19.788286685943603515625">
        <ele>1330.199951171875</ele>
        <time>2026-06-18T07:46:29.000Z</time>
        <extensions>
          <ns3:TrackPointExtension>
            <ns3:atemp>20.0</ns3:atemp>
          </ns3:TrackPointExtension>
        </extensions>
      </trkpt>
      <trkpt lat="42.5425294227898120880126953125" lon="19.78830747306346893310546875">
        <ele>1330.4000244140625</ele>
        <time>2026-06-18T07:46:30.000Z</time>
        <extensions>
          <ns3:TrackPointExtension>
            <ns3:atemp>20.0</ns3:atemp>
          </ns3:TrackPointExtension>
        </extensions>
      </trkpt>
      <trkpt lat="42.54253487102687358856201171875" lon="19.78833152912557125091552734375">
        <ele>1330.5999755859375</ele>
        <time>2026-06-18T07:46:31.000Z</time>
        <extensions>
          <ns3:TrackPointExtension>
            <ns3:atemp>20.0</ns3:atemp>
          </ns3:TrackPointExtension>
        </extensions>
      </trkpt>
      <trkpt lat="42.542538307607173919677734375" lon="19.788356758654117584228515625">
        <ele>1330.5999755859375</ele>
        <time>2026-06-18T07:46:32.000Z</time>
        <extensions>
          <ns3:TrackPointExtension>
            <ns3:atemp>20.0</ns3:atemp>
          </ns3:TrackPointExtension>
        </extensions>
      </trkpt>
      <trkpt lat="42.542536295950412750244140625" lon="19.78838517330586910247802734375">
        <ele>1330.5999755859375</ele>
        <time>2026-06-18T07:46:33.000Z</time>
        <extensions>
          <ns3:TrackPointExtension>
            <ns3:atemp>20.0</ns3:atemp>
          </ns3:TrackPointExtension>
        </extensions>
      </trkpt>
      <trkpt lat="42.54253260791301727294921875" lon="19.78841518051922321319580078125">
        <ele>1330.5999755859375</ele>
        <time>2026-06-18T07:46:34.000Z</time>
        <extensions>
          <ns3:TrackPointExtension>
            <ns3:atemp>20.0</ns3:atemp>
          </ns3:TrackPointExtension>
        </extensions>
      </trkpt>
      <trkpt lat="42.542539648711681365966796875" lon="19.788449965417385101318359375">
        <ele>1330.5999755859375</ele>
        <time>2026-06-18T07:46:35.000Z</time>
        <extensions>
          <ns3:TrackPointExtension>
            <ns3:atemp>20.0</ns3:atemp>
          </ns3:TrackPointExtension>
        </extensions>
      </trkpt>
      <trkpt lat="42.54254660569131374359130859375" lon="19.788484163582324981689453125">
        <ele>1330.800048828125</ele>
        <time>2026-06-18T07:46:36.000Z</time>
        <extensions>
          <ns3:TrackPointExtension>
            <ns3:atemp>20.0</ns3:atemp>
          </ns3:TrackPointExtension>
        </extensions>
      </trkpt>
      <trkpt lat="42.54256336949765682220458984375" lon="19.78850386105477809906005859375">
        <ele>1330.800048828125</ele>
        <time>2026-06-18T07:46:37.000Z</time>
        <extensions>
          <ns3:TrackPointExtension>
            <ns3:atemp>20.0</ns3:atemp>
          </ns3:TrackPointExtension>
        </extensions>
      </trkpt>
      <trkpt lat="42.542578540742397308349609375" lon="19.78852448053658008575439453125">
        <ele>1331</ele>
        <time>2026-06-18T07:46:38.000Z</time>
        <extensions>
          <ns3:TrackPointExtension>
            <ns3:atemp>20.0</ns3:atemp>
          </ns3:TrackPointExtension>
        </extensions>
      </trkpt>
      <trkpt lat="42.54259706474840641021728515625" lon="19.7885436750948429107666015625">
        <ele>1331</ele>
        <time>2026-06-18T07:46:39.000Z</time>
        <extensions>
          <ns3:TrackPointExtension>
            <ns3:atemp>20.0</ns3:atemp>
          </ns3:TrackPointExtension>
        </extensions>
      </trkpt>
      <trkpt lat="42.5426176004111766815185546875" lon="19.7885562479496002197265625">
        <ele>1331.199951171875</ele>
        <time>2026-06-18T07:46:40.000Z</time>
        <extensions>
          <ns3:TrackPointExtension>
            <ns3:atemp>20.0</ns3:atemp>
          </ns3:TrackPointExtension>
        </extensions>
      </trkpt>
      <trkpt lat="42.5426373817026615142822265625" lon="19.788569994270801544189453125">
        <ele>1331.4000244140625</ele>
        <time>2026-06-18T07:46:41.000Z</time>
        <extensions>
          <ns3:TrackPointExtension>
            <ns3:atemp>20.0</ns3:atemp>
          </ns3:TrackPointExtension>
        </extensions>
      </trkpt>
      <trkpt lat="42.542661018669605255126953125" lon="19.78858181275427341461181640625">
        <ele>1331.5999755859375</ele>
        <time>2026-06-18T07:46:42.000Z</time>
        <extensions>
          <ns3:TrackPointExtension>
            <ns3:atemp>20.0</ns3:atemp>
          </ns3:TrackPointExtension>
        </extensions>
      </trkpt>
      <trkpt lat="42.54268205724656581878662109375" lon="19.78859555907547473907470703125">
        <ele>1331.800048828125</ele>
        <time>2026-06-18T07:46:43.000Z</time>
        <extensions>
          <ns3:TrackPointExtension>
            <ns3:atemp>21.0</ns3:atemp>
          </ns3:TrackPointExtension>
        </extensions>
      </trkpt>
      <trkpt lat="42.54270770587027072906494140625" lon="19.7886181063950061798095703125">
        <ele>1332</ele>
        <time>2026-06-18T07:46:44.000Z</time>
        <extensions>
          <ns3:TrackPointExtension>
            <ns3:atemp>21.0</ns3:atemp>
          </ns3:TrackPointExtension>
        </extensions>
      </trkpt>
      <trkpt lat="42.54273067228496074676513671875" lon="19.78864274919033050537109375">
        <ele>1332</ele>
        <time>2026-06-18T07:46:45.000Z</time>
        <extensions>
          <ns3:TrackPointExtension>
            <ns3:atemp>21.0</ns3:atemp>
          </ns3:TrackPointExtension>
        </extensions>
      </trkpt>
      <trkpt lat="42.5427500344812870025634765625" lon="19.7886720858514308929443359375">
        <ele>1331.800048828125</ele>
        <time>2026-06-18T07:46:46.000Z</time>
        <extensions>
          <ns3:TrackPointExtension>
            <ns3:atemp>21.0</ns3:atemp>
          </ns3:TrackPointExtension>
        </extensions>
      </trkpt>
      <trkpt lat="42.54277057014405727386474609375" lon="19.78869932703673839569091796875">
        <ele>1331.800048828125</ele>
        <time>2026-06-18T07:46:47.000Z</time>
        <extensions>
          <ns3:TrackPointExtension>
            <ns3:atemp>21.0</ns3:atemp>
          </ns3:TrackPointExtension>
        </extensions>
      </trkpt>
      <trkpt lat="42.5427832268178462982177734375" lon="19.78872950188815593719482421875">
        <ele>1331.800048828125</ele>
        <time>2026-06-18T07:46:48.000Z</time>
        <extensions>
          <ns3:TrackPointExtension>
            <ns3:atemp>21.0</ns3:atemp>
          </ns3:TrackPointExtension>
        </extensions>
      </trkpt>
      <trkpt lat="42.5427939556539058685302734375" lon="19.7887592576444149017333984375">
        <ele>1332</ele>
        <time>2026-06-18T07:46:49.000Z</time>
        <extensions>
          <ns3:TrackPointExtension>
            <ns3:atemp>21.0</ns3:atemp>
          </ns3:TrackPointExtension>
        </extensions>
      </trkpt>
      <trkpt lat="42.54280426539480686187744140625" lon="19.7887914441525936126708984375">
        <ele>1332.199951171875</ele>
        <time>2026-06-18T07:46:50.000Z</time>
        <extensions>
          <ns3:TrackPointExtension>
            <ns3:atemp>21.0</ns3:atemp>
          </ns3:TrackPointExtension>
        </extensions>
      </trkpt>
      <trkpt lat="42.54281600005924701690673828125" lon="19.78882371447980403900146484375">
        <ele>1332.199951171875</ele>
        <time>2026-06-18T07:46:51.000Z</time>
        <extensions>
          <ns3:TrackPointExtension>
            <ns3:atemp>21.0</ns3:atemp>
          </ns3:TrackPointExtension>
        </extensions>
      </trkpt>
      <trkpt lat="42.542830668389797210693359375" lon="19.7888548113405704498291015625">
        <ele>1332.4000244140625</ele>
        <time>2026-06-18T07:46:52.000Z</time>
        <extensions>
          <ns3:TrackPointExtension>
            <ns3:atemp>21.0</ns3:atemp>
          </ns3:TrackPointExtension>
        </extensions>
      </trkpt>
      <trkpt lat="42.542842067778110504150390625" lon="19.788883812725543975830078125">
        <ele>1332.4000244140625</ele>
        <time>2026-06-18T07:46:53.000Z</time>
        <extensions>
          <ns3:TrackPointExtension>
            <ns3:atemp>21.0</ns3:atemp>
          </ns3:TrackPointExtension>
        </extensions>
      </trkpt>
      <trkpt lat="42.5428543053567409515380859375" lon="19.78890954516828060150146484375">
        <ele>1332.4000244140625</ele>
        <time>2026-06-18T07:46:54.000Z</time>
        <extensions>
          <ns3:TrackPointExtension>
            <ns3:atemp>21.0</ns3:atemp>
          </ns3:TrackPointExtension>
        </extensions>
      </trkpt>
      <trkpt lat="42.54287165589630603790283203125" lon="19.7889315895736217498779296875">
        <ele>1332.4000244140625</ele>
        <time>2026-06-18T07:46:55.000Z</time>
        <extensions>
          <ns3:TrackPointExtension>
            <ns3:atemp>21.0</ns3:atemp>
          </ns3:TrackPointExtension>
        </extensions>
      </trkpt>
      <trkpt lat="42.542889006435871124267578125" lon="19.7889543883502483367919921875">
        <ele>1332.4000244140625</ele>
        <time>2026-06-18T07:46:56.000Z</time>
        <extensions>
          <ns3:TrackPointExtension>
            <ns3:atemp>21.0</ns3:atemp>
          </ns3:TrackPointExtension>
        </extensions>
      </trkpt>
      <trkpt lat="42.5429059378802776336669921875" lon="19.78897802531719207763671875">
        <ele>1332.4000244140625</ele>
        <time>2026-06-18T07:46:57.000Z</time>
        <extensions>
          <ns3:TrackPointExtension>
            <ns3:atemp>21.0</ns3:atemp>
          </ns3:TrackPointExtension>
        </extensions>
      </trkpt>
      <trkpt lat="42.54292429424822330474853515625" lon="19.78899545967578887939453125">
        <ele>1332.5999755859375</ele>
        <time>2026-06-18T07:46:58.000Z</time>
        <extensions>
          <ns3:TrackPointExtension>
            <ns3:atemp>21.0</ns3:atemp>
          </ns3:TrackPointExtension>
        </extensions>
      </trkpt>
      <trkpt lat="42.54294591955840587615966796875" lon="19.7890149056911468505859375">
        <ele>1332.5999755859375</ele>
        <time>2026-06-18T07:46:59.000Z</time>
        <extensions>
          <ns3:TrackPointExtension>
            <ns3:atemp>21.0</ns3:atemp>
          </ns3:TrackPointExtension>
        </extensions>
      </trkpt>
      <trkpt lat="42.54296955652534961700439453125" lon="19.78903569281101226806640625">
        <ele>1332.800048828125</ele>
        <time>2026-06-18T07:47:00.000Z</time>
        <extensions>
          <ns3:TrackPointExtension>
            <ns3:atemp>21.0</ns3:atemp>
          </ns3:TrackPointExtension>
        </extensions>
      </trkpt>
      <trkpt lat="42.54298883490264415740966796875" lon="19.78905312716960906982421875">
        <ele>1332.800048828125</ele>
        <time>2026-06-18T07:47:01.000Z</time>
        <extensions>
          <ns3:TrackPointExtension>
            <ns3:atemp>21.0</ns3:atemp>
          </ns3:TrackPointExtension>
        </extensions>
      </trkpt>
      <trkpt lat="42.5430092029273509979248046875" lon="19.789068885147571563720703125">
        <ele>1332.800048828125</ele>
        <time>2026-06-18T07:47:02.000Z</time>
        <extensions>
          <ns3:TrackPointExtension>
            <ns3:atemp>21.0</ns3:atemp>
          </ns3:TrackPointExtension>
        </extensions>
      </trkpt>
      <trkpt lat="42.54303024150431156158447265625" lon="19.78908573277294635772705078125">
        <ele>1333</ele>
        <time>2026-06-18T07:47:03.000Z</time>
        <extensions>
          <ns3:TrackPointExtension>
            <ns3:atemp>21.0</ns3:atemp>
          </ns3:TrackPointExtension>
        </extensions>
      </trkpt>
      <trkpt lat="42.5430514477193355560302734375" lon="19.789099730551242828369140625">
        <ele>1333</ele>
        <time>2026-06-18T07:47:04.000Z</time>
        <extensions>
          <ns3:TrackPointExtension>
            <ns3:atemp>21.0</ns3:atemp>
          </ns3:TrackPointExtension>
        </extensions>
      </trkpt>
      <trkpt lat="42.54307349212467670440673828125" lon="19.78911473415791988372802734375">
        <ele>1333.199951171875</ele>
        <time>2026-06-18T07:47:05.000Z</time>
        <extensions>
          <ns3:TrackPointExtension>
            <ns3:atemp>21.0</ns3:atemp>
          </ns3:TrackPointExtension>
        </extensions>
      </trkpt>
      <trkpt lat="42.543091513216495513916015625" lon="19.789127223193645477294921875">
        <ele>1333.4000244140625</ele>
        <time>2026-06-18T07:47:06.000Z</time>
        <extensions>
          <ns3:TrackPointExtension>
            <ns3:atemp>21.0</ns3:atemp>
          </ns3:TrackPointExtension>
        </extensions>
      </trkpt>
      <trkpt lat="42.5431114621460437774658203125" lon="19.78913200087845325469970703125">
        <ele>1333.5999755859375</ele>
        <time>2026-06-18T07:47:07.000Z</time>
        <extensions>
          <ns3:TrackPointExtension>
            <ns3:atemp>21.0</ns3:atemp>
          </ns3:TrackPointExtension>
        </extensions>
      </trkpt>
      <trkpt lat="42.5431282259523868560791015625" lon="19.78913635946810245513916015625">
        <ele>1334</ele>
        <time>2026-06-18T07:47:08.000Z</time>
        <extensions>
          <ns3:TrackPointExtension>
            <ns3:atemp>21.0</ns3:atemp>
          </ns3:TrackPointExtension>
        </extensions>
      </trkpt>
      <trkpt lat="42.54315144382417201995849609375" lon="19.78913736529648303985595703125">
        <ele>1334.199951171875</ele>
        <time>2026-06-18T07:47:09.000Z</time>
        <extensions>
          <ns3:TrackPointExtension>
            <ns3:atemp>21.0</ns3:atemp>
          </ns3:TrackPointExtension>
        </extensions>
      </trkpt>
      <trkpt lat="42.54317156039178371429443359375" lon="19.7891354374587535858154296875">
        <ele>1334.4000244140625</ele>
        <time>2026-06-18T07:47:10.000Z</time>
        <extensions>
          <ns3:TrackPointExtension>
            <ns3:atemp>21.0</ns3:atemp>
          </ns3:TrackPointExtension>
        </extensions>
      </trkpt>
      <trkpt lat="42.543190419673919677734375" lon="19.78913283906877040863037109375">
        <ele>1334.800048828125</ele>
        <time>2026-06-18T07:47:11.000Z</time>
        <extensions>
          <ns3:TrackPointExtension>
            <ns3:atemp>21.0</ns3:atemp>
          </ns3:TrackPointExtension>
        </extensions>
      </trkpt>
      <trkpt lat="42.54321162588894367218017578125" lon="19.78912663646042346954345703125">
        <ele>1335</ele>
        <time>2026-06-18T07:47:12.000Z</time>
        <extensions>
          <ns3:TrackPointExtension>
            <ns3:atemp>21.0</ns3:atemp>
          </ns3:TrackPointExtension>
        </extensions>
      </trkpt>
      <trkpt lat="42.5432301498949527740478515625" lon="19.78912026621401309967041015625">
        <ele>1335.199951171875</ele>
        <time>2026-06-18T07:47:13.000Z</time>
        <extensions>
          <ns3:TrackPointExtension>
            <ns3:atemp>21.0</ns3:atemp>
          </ns3:TrackPointExtension>
        </extensions>
      </trkpt>
      <trkpt lat="42.5432442314922809600830078125" lon="19.78911322541534900665283203125">
        <ele>1335.5999755859375</ele>
        <time>2026-06-18T07:47:14.000Z</time>
        <extensions>
          <ns3:TrackPointExtension>
            <ns3:atemp>21.0</ns3:atemp>
          </ns3:TrackPointExtension>
        </extensions>
      </trkpt>
      <trkpt lat="42.54326761700212955474853515625" lon="19.789106436073780059814453125">
        <ele>1336</ele>
        <time>2026-06-18T07:47:15.000Z</time>
        <extensions>
          <ns3:TrackPointExtension>
            <ns3:atemp>21.0</ns3:atemp>
          </ns3:TrackPointExtension>
        </extensions>
      </trkpt>
      <trkpt lat="42.54329293034970760345458984375" lon="19.78910115547478199005126953125">
        <ele>1336.199951171875</ele>
        <time>2026-06-18T07:47:16.000Z</time>
        <extensions>
          <ns3:TrackPointExtension>
            <ns3:atemp>21.0</ns3:atemp>
          </ns3:TrackPointExtension>
        </extensions>
      </trkpt>
      <trkpt lat="42.54332243464887142181396484375" lon="19.7891025803983211517333984375">
        <ele>1336.4000244140625</ele>
        <time>2026-06-18T07:47:17.000Z</time>
        <extensions>
          <ns3:TrackPointExtension>
            <ns3:atemp>21.0</ns3:atemp>
          </ns3:TrackPointExtension>
        </extensions>
      </trkpt>
      <trkpt lat="42.5433473289012908935546875" lon="19.78911205194890499114990234375">
        <ele>1336.800048828125</ele>
        <time>2026-06-18T07:47:18.000Z</time>
        <extensions>
          <ns3:TrackPointExtension>
            <ns3:atemp>21.0</ns3:atemp>
          </ns3:TrackPointExtension>
        </extensions>
      </trkpt>
      <trkpt lat="42.54337079823017120361328125" lon="19.78912831284105777740478515625">
        <ele>1337</ele>
        <time>2026-06-18T07:47:19.000Z</time>
        <extensions>
          <ns3:TrackPointExtension>
            <ns3:atemp>21.0</ns3:atemp>
          </ns3:TrackPointExtension>
        </extensions>
      </trkpt>
      <trkpt lat="42.54339636303484439849853515625" lon="19.789143316447734832763671875">
        <ele>1337.199951171875</ele>
        <time>2026-06-18T07:47:20.000Z</time>
        <extensions>
          <ns3:TrackPointExtension>
            <ns3:atemp>21.0</ns3:atemp>
          </ns3:TrackPointExtension>
        </extensions>
      </trkpt>
      <trkpt lat="42.54341949708759784698486328125" lon="19.7891659475862979888916015625">
        <ele>1337.4000244140625</ele>
        <time>2026-06-18T07:47:21.000Z</time>
        <extensions>
          <ns3:TrackPointExtension>
            <ns3:atemp>21.0</ns3:atemp>
          </ns3:TrackPointExtension>
        </extensions>
      </trkpt>
      <trkpt lat="42.54344430752098560333251953125" lon="19.78918815962970256805419921875">
        <ele>1337.5999755859375</ele>
        <time>2026-06-18T07:47:22.000Z</time>
        <extensions>
          <ns3:TrackPointExtension>
            <ns3:atemp>21.0</ns3:atemp>
          </ns3:TrackPointExtension>
        </extensions>
      </trkpt>
      <trkpt lat="42.54346827976405620574951171875" lon="19.789208360016345977783203125">
        <ele>1337.800048828125</ele>
        <time>2026-06-18T07:47:23.000Z</time>
        <extensions>
          <ns3:TrackPointExtension>
            <ns3:atemp>21.0</ns3:atemp>
          </ns3:TrackPointExtension>
        </extensions>
      </trkpt>
      <trkpt lat="42.54349040798842906951904296875" lon="19.789226464927196502685546875">
        <ele>1338</ele>
        <time>2026-06-18T07:47:24.000Z</time>
        <extensions>
          <ns3:TrackPointExtension>
            <ns3:atemp>21.0</ns3:atemp>
          </ns3:TrackPointExtension>
        </extensions>
      </trkpt>
      <trkpt lat="42.5435158051550388336181640625" lon="19.7892440669238567352294921875">
        <ele>1338.199951171875</ele>
        <time>2026-06-18T07:47:25.000Z</time>
        <extensions>
          <ns3:TrackPointExtension>
            <ns3:atemp>21.0</ns3:atemp>
          </ns3:TrackPointExtension>
        </extensions>
      </trkpt>
      <trkpt lat="42.54354086704552173614501953125" lon="19.78926309384405612945556640625">
        <ele>1338.4000244140625</ele>
        <time>2026-06-18T07:47:26.000Z</time>
        <extensions>
          <ns3:TrackPointExtension>
            <ns3:atemp>21.0</ns3:atemp>
          </ns3:TrackPointExtension>
        </extensions>
      </trkpt>
      <trkpt lat="42.54356500692665576934814453125" lon="19.7892806120216846466064453125">
        <ele>1338.5999755859375</ele>
        <time>2026-06-18T07:47:27.000Z</time>
        <extensions>
          <ns3:TrackPointExtension>
            <ns3:atemp>21.0</ns3:atemp>
          </ns3:TrackPointExtension>
        </extensions>
      </trkpt>
      <trkpt lat="42.5435865484178066253662109375" lon="19.78929947130382061004638671875">
        <ele>1338.5999755859375</ele>
        <time>2026-06-18T07:47:28.000Z</time>
        <extensions>
          <ns3:TrackPointExtension>
            <ns3:atemp>21.0</ns3:atemp>
          </ns3:TrackPointExtension>
        </extensions>
      </trkpt>
      <trkpt lat="42.54360909573733806610107421875" lon="19.78931757621467113494873046875">
        <ele>1338.5999755859375</ele>
        <time>2026-06-18T07:47:29.000Z</time>
        <extensions>
          <ns3:TrackPointExtension>
            <ns3:atemp>21.0</ns3:atemp>
          </ns3:TrackPointExtension>
        </extensions>
      </trkpt>
      <trkpt lat="42.54363290034234523773193359375" lon="19.7893312387168407440185546875">
        <ele>1338.800048828125</ele>
        <time>2026-06-18T07:47:30.000Z</time>
        <extensions>
          <ns3:TrackPointExtension>
            <ns3:atemp>21.0</ns3:atemp>
          </ns3:TrackPointExtension>
        </extensions>
      </trkpt>
      <trkpt lat="42.54365787841379642486572265625" lon="19.789345152676105499267578125">
        <ele>1338.800048828125</ele>
        <time>2026-06-18T07:47:31.000Z</time>
        <extensions>
          <ns3:TrackPointExtension>
            <ns3:atemp>21.0</ns3:atemp>
          </ns3:TrackPointExtension>
        </extensions>
      </trkpt>
      <trkpt lat="42.54368059337139129638671875" lon="19.789360575377941131591796875">
        <ele>1339</ele>
        <time>2026-06-18T07:47:32.000Z</time>
        <extensions>
          <ns3:TrackPointExtension>
            <ns3:atemp>21.0</ns3:atemp>
          </ns3:TrackPointExtension>
        </extensions>
      </trkpt>
      <trkpt lat="42.543703727424144744873046875" lon="19.7893770039081573486328125">
        <ele>1339.4000244140625</ele>
        <time>2026-06-18T07:47:33.000Z</time>
        <extensions>
          <ns3:TrackPointExtension>
            <ns3:atemp>21.0</ns3:atemp>
          </ns3:TrackPointExtension>
        </extensions>
      </trkpt>
      <trkpt lat="42.54372476600110530853271484375" lon="19.78939502499997615814208984375">
        <ele>1339.5999755859375</ele>
        <time>2026-06-18T07:47:34.000Z</time>
        <extensions>
          <ns3:TrackPointExtension>
            <ns3:atemp>21.0</ns3:atemp>
          </ns3:TrackPointExtension>
        </extensions>
      </trkpt>
      <trkpt lat="42.54374655894935131072998046875" lon="19.789413549005985260009765625">
        <ele>1339.800048828125</ele>
        <time>2026-06-18T07:47:35.000Z</time>
        <extensions>
          <ns3:TrackPointExtension>
            <ns3:atemp>21.0</ns3:atemp>
          </ns3:TrackPointExtension>
        </extensions>
      </trkpt>
      <trkpt lat="42.54377002827823162078857421875" lon="19.78943131864070892333984375">
        <ele>1340.199951171875</ele>
        <time>2026-06-18T07:47:36.000Z</time>
        <extensions>
          <ns3:TrackPointExtension>
            <ns3:atemp>21.0</ns3:atemp>
          </ns3:TrackPointExtension>
        </extensions>
      </trkpt>
      <trkpt lat="42.54379014484584331512451171875" lon="19.78944615460932254791259765625">
        <ele>1340.5999755859375</ele>
        <time>2026-06-18T07:47:37.000Z</time>
        <extensions>
          <ns3:TrackPointExtension>
            <ns3:atemp>21.0</ns3:atemp>
          </ns3:TrackPointExtension>
        </extensions>
      </trkpt>
      <trkpt lat="42.54381026141345500946044921875" lon="19.789464510977268218994140625">
        <ele>1340.800048828125</ele>
        <time>2026-06-18T07:47:38.000Z</time>
        <extensions>
          <ns3:TrackPointExtension>
            <ns3:atemp>21.0</ns3:atemp>
          </ns3:TrackPointExtension>
        </extensions>
      </trkpt>
      <trkpt lat="42.5438316352665424346923828125" lon="19.78948001749813556671142578125">
        <ele>1341</ele>
        <time>2026-06-18T07:47:39.000Z</time>
        <extensions>
          <ns3:TrackPointExtension>
            <ns3:atemp>21.0</ns3:atemp>
          </ns3:TrackPointExtension>
        </extensions>
      </trkpt>
      <trkpt lat="42.5438517518341541290283203125" lon="19.78949963115155696868896484375">
        <ele>1341.199951171875</ele>
        <time>2026-06-18T07:47:40.000Z</time>
        <extensions>
          <ns3:TrackPointExtension>
            <ns3:atemp>21.0</ns3:atemp>
          </ns3:TrackPointExtension>
        </extensions>
      </trkpt>
      <trkpt lat="42.54387061111629009246826171875" lon="19.78951849043369293212890625">
        <ele>1341.4000244140625</ele>
        <time>2026-06-18T07:47:41.000Z</time>
        <extensions>
          <ns3:TrackPointExtension>
            <ns3:atemp>21.0</ns3:atemp>
          </ns3:TrackPointExtension>
        </extensions>
      </trkpt>
      <trkpt lat="42.543890140950679779052734375" lon="19.789542295038700103759765625">
        <ele>1341.5999755859375</ele>
        <time>2026-06-18T07:47:42.000Z</time>
        <extensions>
          <ns3:TrackPointExtension>
            <ns3:atemp>21.0</ns3:atemp>
          </ns3:TrackPointExtension>
        </extensions>
      </trkpt>
      <trkpt lat="42.543910257518291473388671875" lon="19.78956283070147037506103515625">
        <ele>1341.5999755859375</ele>
        <time>2026-06-18T07:47:43.000Z</time>
        <extensions>
          <ns3:TrackPointExtension>
            <ns3:atemp>21.0</ns3:atemp>
          </ns3:TrackPointExtension>
        </extensions>
      </trkpt>
      <trkpt lat="42.5439305417239665985107421875" lon="19.7895826958119869232177734375">
        <ele>1341.800048828125</ele>
        <time>2026-06-18T07:47:44.000Z</time>
        <extensions>
          <ns3:TrackPointExtension>
            <ns3:atemp>21.0</ns3:atemp>
          </ns3:TrackPointExtension>
        </extensions>
      </trkpt>
      <trkpt lat="42.5439508259296417236328125" lon="19.7896034829318523406982421875">
        <ele>1341.800048828125</ele>
        <time>2026-06-18T07:47:45.000Z</time>
        <extensions>
          <ns3:TrackPointExtension>
            <ns3:atemp>21.0</ns3:atemp>
          </ns3:TrackPointExtension>
        </extensions>
      </trkpt>
      <trkpt lat="42.54397295415401458740234375" lon="19.7896202467381954193115234375">
        <ele>1341.800048828125</ele>
        <time>2026-06-18T07:47:46.000Z</time>
        <extensions>
          <ns3:TrackPointExtension>
            <ns3:atemp>21.0</ns3:atemp>
          </ns3:TrackPointExtension>
        </extensions>
      </trkpt>
      <trkpt lat="42.5439964234828948974609375" lon="19.78963307105004787445068359375">
        <ele>1341.800048828125</ele>
        <time>2026-06-18T07:47:47.000Z</time>
        <extensions>
          <ns3:TrackPointExtension>
            <ns3:atemp>21.0</ns3:atemp>
          </ns3:TrackPointExtension>
        </extensions>
      </trkpt>
      <trkpt lat="42.54402349703013896942138671875" lon="19.7896452248096466064453125">
        <ele>1341.800048828125</ele>
        <time>2026-06-18T07:47:48.000Z</time>
        <extensions>
          <ns3:TrackPointExtension>
            <ns3:atemp>21.0</ns3:atemp>
          </ns3:TrackPointExtension>
        </extensions>
      </trkpt>
      <trkpt lat="42.54405065439641475677490234375" lon="19.78965251706540584564208984375">
        <ele>1342</ele>
        <time>2026-06-18T07:47:49.000Z</time>
        <extensions>
          <ns3:TrackPointExtension>
            <ns3:atemp>21.0</ns3:atemp>
          </ns3:TrackPointExtension>
        </extensions>
      </trkpt>
      <trkpt lat="42.54407621920108795166015625" lon="19.78964723646640777587890625">
        <ele>1342</ele>
        <time>2026-06-18T07:47:50.000Z</time>
        <extensions>
          <ns3:TrackPointExtension>
            <ns3:atemp>21.0</ns3:atemp>
          </ns3:TrackPointExtension>
        </extensions>
      </trkpt>
      <trkpt lat="42.54409943707287311553955078125" lon="19.7896383516490459442138671875">
        <ele>1342.199951171875</ele>
        <time>2026-06-18T07:47:51.000Z</time>
        <extensions>
          <ns3:TrackPointExtension>
            <ns3:atemp>21.0</ns3:atemp>
          </ns3:TrackPointExtension>
        </extensions>
      </trkpt>
      <trkpt lat="42.544118799269199371337890625" lon="19.78962636552751064300537109375">
        <ele>1342.4000244140625</ele>
        <time>2026-06-18T07:47:52.000Z</time>
        <extensions>
          <ns3:TrackPointExtension>
            <ns3:atemp>21.0</ns3:atemp>
          </ns3:TrackPointExtension>
        </extensions>
      </trkpt>
      <trkpt lat="42.54413614980876445770263671875" lon="19.78960968554019927978515625">
        <ele>1342.5999755859375</ele>
        <time>2026-06-18T07:47:53.000Z</time>
        <extensions>
          <ns3:TrackPointExtension>
            <ns3:atemp>21.0</ns3:atemp>
          </ns3:TrackPointExtension>
        </extensions>
      </trkpt>
      <trkpt lat="42.5441524945199489593505859375" lon="19.7895883955061435699462890625">
        <ele>1342.800048828125</ele>
        <time>2026-06-18T07:47:54.000Z</time>
        <extensions>
          <ns3:TrackPointExtension>
            <ns3:atemp>21.0</ns3:atemp>
          </ns3:TrackPointExtension>
        </extensions>
      </trkpt>
      <trkpt lat="42.54416749812662601470947265625" lon="19.78956568054854869842529296875">
        <ele>1343</ele>
        <time>2026-06-18T07:47:55.000Z</time>
        <extensions>
          <ns3:TrackPointExtension>
            <ns3:atemp>21.0</ns3:atemp>
          </ns3:TrackPointExtension>
        </extensions>
      </trkpt>
      <trkpt lat="42.54418493248522281646728515625" lon="19.78953902609646320343017578125">
        <ele>1343</ele>
        <time>2026-06-18T07:47:56.000Z</time>
        <extensions>
          <ns3:TrackPointExtension>
            <ns3:atemp>21.0</ns3:atemp>
          </ns3:TrackPointExtension>
        </extensions>
      </trkpt>
      <trkpt lat="42.5442014448344707489013671875" lon="19.789510779082775115966796875">
        <ele>1343.199951171875</ele>
        <time>2026-06-18T07:47:57.000Z</time>
        <extensions>
          <ns3:TrackPointExtension>
            <ns3:atemp>21.0</ns3:atemp>
          </ns3:TrackPointExtension>
        </extensions>
      </trkpt>
      <trkpt lat="42.54421460442245006561279296875" lon="19.78948605246841907501220703125">
        <ele>1343.199951171875</ele>
        <time>2026-06-18T07:47:58.000Z</time>
        <extensions>
          <ns3:TrackPointExtension>
            <ns3:atemp>21.0</ns3:atemp>
          </ns3:TrackPointExtension>
        </extensions>
      </trkpt>
      <trkpt lat="42.54422935657203197479248046875" lon="19.7894619964063167572021484375">
        <ele>1343.4000244140625</ele>
        <time>2026-06-18T07:47:59.000Z</time>
        <extensions>
          <ns3:TrackPointExtension>
            <ns3:atemp>21.0</ns3:atemp>
          </ns3:TrackPointExtension>
        </extensions>
      </trkpt>
      <trkpt lat="42.54424075596034526824951171875" lon="19.7894381918013095855712890625">
        <ele>1343.5999755859375</ele>
        <time>2026-06-18T07:48:00.000Z</time>
        <extensions>
          <ns3:TrackPointExtension>
            <ns3:atemp>21.0</ns3:atemp>
          </ns3:TrackPointExtension>
        </extensions>
      </trkpt>
      <trkpt lat="42.54425399936735630035400390625" lon="19.7894140519201755523681640625">
        <ele>1344</ele>
        <time>2026-06-18T07:48:01.000Z</time>
        <extensions>
          <ns3:TrackPointExtension>
            <ns3:atemp>21.0</ns3:atemp>
          </ns3:TrackPointExtension>
        </extensions>
      </trkpt>
      <trkpt lat="42.5442678295075893402099609375" lon="19.78938932530581951141357421875">
        <ele>1344.199951171875</ele>
        <time>2026-06-18T07:48:02.000Z</time>
        <extensions>
          <ns3:TrackPointExtension>
            <ns3:atemp>21.0</ns3:atemp>
          </ns3:TrackPointExtension>
        </extensions>
      </trkpt>
      <trkpt lat="42.54428207874298095703125" lon="19.78936887346208095550537109375">
        <ele>1344.5999755859375</ele>
        <time>2026-06-18T07:48:03.000Z</time>
        <extensions>
          <ns3:TrackPointExtension>
            <ns3:atemp>21.0</ns3:atemp>
          </ns3:TrackPointExtension>
        </extensions>
      </trkpt>
      <trkpt lat="42.544295825064182281494140625" lon="19.78934858925640583038330078125">
        <ele>1344.5999755859375</ele>
        <time>2026-06-18T07:48:04.000Z</time>
        <extensions>
          <ns3:TrackPointExtension>
            <ns3:atemp>21.0</ns3:atemp>
          </ns3:TrackPointExtension>
        </extensions>
      </trkpt>
      <trkpt lat="42.5443104095757007598876953125" lon="19.78932847268879413604736328125">
        <ele>1344.800048828125</ele>
        <time>2026-06-18T07:48:05.000Z</time>
        <extensions>
          <ns3:TrackPointExtension>
            <ns3:atemp>21.0</ns3:atemp>
          </ns3:TrackPointExtension>
        </extensions>
      </trkpt>
      <trkpt lat="42.544322311878204345703125" lon="19.78931053541600704193115234375">
        <ele>1344.800048828125</ele>
        <time>2026-06-18T07:48:06.000Z</time>
        <extensions>
          <ns3:TrackPointExtension>
            <ns3:atemp>21.0</ns3:atemp>
          </ns3:TrackPointExtension>
        </extensions>
      </trkpt>
      <trkpt lat="42.544336058199405670166015625" lon="19.78929561562836170196533203125">
        <ele>1345</ele>
        <time>2026-06-18T07:48:07.000Z</time>
        <extensions>
          <ns3:TrackPointExtension>
            <ns3:atemp>21.0</ns3:atemp>
          </ns3:TrackPointExtension>
        </extensions>
      </trkpt>
      <trkpt lat="42.544350139796733856201171875" lon="19.78927432559430599212646484375">
        <ele>1345.4000244140625</ele>
        <time>2026-06-18T07:48:08.000Z</time>
        <extensions>
          <ns3:TrackPointExtension>
            <ns3:atemp>21.0</ns3:atemp>
          </ns3:TrackPointExtension>
        </extensions>
      </trkpt>
      <trkpt lat="42.54436765797436237335205078125" lon="19.789254963397979736328125">
        <ele>1345.800048828125</ele>
        <time>2026-06-18T07:48:09.000Z</time>
        <extensions>
          <ns3:TrackPointExtension>
            <ns3:atemp>21.0</ns3:atemp>
          </ns3:TrackPointExtension>
        </extensions>
      </trkpt>
      <trkpt lat="42.54438324831426143646240234375" lon="19.7892373614013195037841796875">
        <ele>1346.199951171875</ele>
        <time>2026-06-18T07:48:10.000Z</time>
        <extensions>
          <ns3:TrackPointExtension>
            <ns3:atemp>21.0</ns3:atemp>
          </ns3:TrackPointExtension>
        </extensions>
      </trkpt>
      <trkpt lat="42.54440085031092166900634765625" lon="19.78921816684305667877197265625">
        <ele>1346.5999755859375</ele>
        <time>2026-06-18T07:48:11.000Z</time>
        <extensions>
          <ns3:TrackPointExtension>
            <ns3:atemp>21.0</ns3:atemp>
          </ns3:TrackPointExtension>
        </extensions>
      </trkpt>
      <trkpt lat="42.54441543482244014739990234375" lon="19.78920240886509418487548828125">
        <ele>1346.800048828125</ele>
        <time>2026-06-18T07:48:12.000Z</time>
        <extensions>
          <ns3:TrackPointExtension>
            <ns3:atemp>21.0</ns3:atemp>
          </ns3:TrackPointExtension>
        </extensions>
      </trkpt>
      <trkpt lat="42.54443102516233921051025390625" lon="19.78918723762035369873046875">
        <ele>1347.199951171875</ele>
        <time>2026-06-18T07:48:13.000Z</time>
        <extensions>
          <ns3:TrackPointExtension>
            <ns3:atemp>21.0</ns3:atemp>
          </ns3:TrackPointExtension>
        </extensions>
      </trkpt>
      <trkpt lat="42.54444778896868228912353515625" lon="19.78917139582335948944091796875">
        <ele>1347.5999755859375</ele>
        <time>2026-06-18T07:48:14.000Z</time>
        <extensions>
          <ns3:TrackPointExtension>
            <ns3:atemp>21.0</ns3:atemp>
          </ns3:TrackPointExtension>
        </extensions>
      </trkpt>
      <trkpt lat="42.544461786746978759765625" lon="19.789152704179286956787109375">
        <ele>1348</ele>
        <time>2026-06-18T07:48:15.000Z</time>
        <extensions>
          <ns3:TrackPointExtension>
            <ns3:atemp>21.0</ns3:atemp>
          </ns3:TrackPointExtension>
        </extensions>
      </trkpt>
      <trkpt lat="42.54447720944881439208984375" lon="19.789134599268436431884765625">
        <ele>1348.199951171875</ele>
        <time>2026-06-18T07:48:16.000Z</time>
        <extensions>
          <ns3:TrackPointExtension>
            <ns3:atemp>21.0</ns3:atemp>
          </ns3:TrackPointExtension>
        </extensions>
      </trkpt>
      <trkpt lat="42.5444961525499820709228515625" lon="19.78911573998630046844482421875">
        <ele>1348.5999755859375</ele>
        <time>2026-06-18T07:48:17.000Z</time>
        <extensions>
          <ns3:TrackPointExtension>
            <ns3:atemp>21.0</ns3:atemp>
          </ns3:TrackPointExtension>
        </extensions>
      </trkpt>
      <trkpt lat="42.54451501183211803436279296875" lon="19.789099059998989105224609375">
        <ele>1349</ele>
        <time>2026-06-18T07:48:18.000Z</time>
        <extensions>
          <ns3:TrackPointExtension>
            <ns3:atemp>21.0</ns3:atemp>
          </ns3:TrackPointExtension>
        </extensions>
      </trkpt>
      <trkpt lat="42.54453085362911224365234375" lon="19.78907919488847255706787109375">
        <ele>1349.4000244140625</ele>
        <time>2026-06-18T07:48:19.000Z</time>
        <extensions>
          <ns3:TrackPointExtension>
            <ns3:atemp>21.0</ns3:atemp>
          </ns3:TrackPointExtension>
        </extensions>
      </trkpt>
      <trkpt lat="42.5445440970361232757568359375" lon="19.78906360454857349395751953125">
        <ele>1349.5999755859375</ele>
        <time>2026-06-18T07:48:20.000Z</time>
        <extensions>
          <ns3:TrackPointExtension>
            <ns3:atemp>21.0</ns3:atemp>
          </ns3:TrackPointExtension>
        </extensions>
      </trkpt>
      <trkpt lat="42.54455775953829288482666015625" lon="19.78905103169381618499755859375">
        <ele>1350</ele>
        <time>2026-06-18T07:48:21.000Z</time>
        <extensions>
          <ns3:TrackPointExtension>
            <ns3:atemp>21.0</ns3:atemp>
          </ns3:TrackPointExtension>
        </extensions>
      </trkpt>
      <trkpt lat="42.54457108676433563232421875" lon="19.78903108276426792144775390625">
        <ele>1350.4000244140625</ele>
        <time>2026-06-18T07:48:22.000Z</time>
        <extensions>
          <ns3:TrackPointExtension>
            <ns3:atemp>21.0</ns3:atemp>
          </ns3:TrackPointExtension>
        </extensions>
      </trkpt>
      <trkpt lat="42.54458340816199779510498046875" lon="19.789015240967273712158203125">
        <ele>1350.5999755859375</ele>
        <time>2026-06-18T07:48:23.000Z</time>
        <extensions>
          <ns3:TrackPointExtension>
            <ns3:atemp>21.0</ns3:atemp>
          </ns3:TrackPointExtension>
        </extensions>
      </trkpt>
      <trkpt lat="42.5445990823209285736083984375" lon="19.78899956680834293365478515625">
        <ele>1351</ele>
        <time>2026-06-18T07:48:24.000Z</time>
        <extensions>
          <ns3:TrackPointExtension>
            <ns3:atemp>21.0</ns3:atemp>
          </ns3:TrackPointExtension>
        </extensions>
      </trkpt>
      <trkpt lat="42.5446133315563201904296875" lon="19.78898079134523868560791015625">
        <ele>1351.4000244140625</ele>
        <time>2026-06-18T07:48:25.000Z</time>
        <extensions>
          <ns3:TrackPointExtension>
            <ns3:atemp>21.0</ns3:atemp>
          </ns3:TrackPointExtension>
        </extensions>
      </trkpt>
      <trkpt lat="42.54462431184947490692138671875" lon="19.78896352462470531463623046875">
        <ele>1351.800048828125</ele>
        <time>2026-06-18T07:48:26.000Z</time>
        <extensions>
          <ns3:TrackPointExtension>
            <ns3:atemp>21.0</ns3:atemp>
          </ns3:TrackPointExtension>
        </extensions>
      </trkpt>
      <trkpt lat="42.54463705234229564666748046875" lon="19.78894173167645931243896484375">
        <ele>1352</ele>
        <time>2026-06-18T07:48:27.000Z</time>
        <extensions>
          <ns3:TrackPointExtension>
            <ns3:atemp>21.0</ns3:atemp>
          </ns3:TrackPointExtension>
        </extensions>
      </trkpt>
      <trkpt lat="42.5446520559489727020263671875" lon="19.78892295621335506439208984375">
        <ele>1352.4000244140625</ele>
        <time>2026-06-18T07:48:28.000Z</time>
        <extensions>
          <ns3:TrackPointExtension>
            <ns3:atemp>21.0</ns3:atemp>
          </ns3:TrackPointExtension>
        </extensions>
      </trkpt>
      <trkpt lat="42.544667981564998626708984375" lon="19.78890686295926570892333984375">
        <ele>1352.5999755859375</ele>
        <time>2026-06-18T07:48:29.000Z</time>
        <extensions>
          <ns3:TrackPointExtension>
            <ns3:atemp>21.0</ns3:atemp>
          </ns3:TrackPointExtension>
        </extensions>
      </trkpt>
      <trkpt lat="42.54468013532459735870361328125" lon="19.78889395482838153839111328125">
        <ele>1353</ele>
        <time>2026-06-18T07:48:30.000Z</time>
        <extensions>
          <ns3:TrackPointExtension>
            <ns3:atemp>21.0</ns3:atemp>
          </ns3:TrackPointExtension>
        </extensions>
      </trkpt>
      <trkpt lat="42.5446964800357818603515625" lon="19.78888456709682941436767578125">
        <ele>1353.199951171875</ele>
        <time>2026-06-18T07:48:31.000Z</time>
        <extensions>
          <ns3:TrackPointExtension>
            <ns3:atemp>21.0</ns3:atemp>
          </ns3:TrackPointExtension>
        </extensions>
      </trkpt>
      <trkpt lat="42.5447150878608226776123046875" lon="19.7888754308223724365234375">
        <ele>1353.4000244140625</ele>
        <time>2026-06-18T07:48:32.000Z</time>
        <extensions>
          <ns3:TrackPointExtension>
            <ns3:atemp>21.0</ns3:atemp>
          </ns3:TrackPointExtension>
        </extensions>
      </trkpt>
      <trkpt lat="42.5447341986000537872314453125" lon="19.78886562399566173553466796875">
        <ele>1353.5999755859375</ele>
        <time>2026-06-18T07:48:33.000Z</time>
        <extensions>
          <ns3:TrackPointExtension>
            <ns3:atemp>21.0</ns3:atemp>
          </ns3:TrackPointExtension>
        </extensions>
      </trkpt>
      <trkpt lat="42.54475423134863376617431640625" lon="19.7888521291315555572509765625">
        <ele>1353.800048828125</ele>
        <time>2026-06-18T07:48:34.000Z</time>
        <extensions>
          <ns3:TrackPointExtension>
            <ns3:atemp>21.0</ns3:atemp>
          </ns3:TrackPointExtension>
        </extensions>
      </trkpt>
      <trkpt lat="42.5447720848023891448974609375" lon="19.78884148411452770233154296875">
        <ele>1354.199951171875</ele>
        <time>2026-06-18T07:48:35.000Z</time>
        <extensions>
          <ns3:TrackPointExtension>
            <ns3:atemp>21.0</ns3:atemp>
          </ns3:TrackPointExtension>
        </extensions>
      </trkpt>
      <trkpt lat="42.5447888486087322235107421875" lon="19.78882589377462863922119140625">
        <ele>1354.5999755859375</ele>
        <time>2026-06-18T07:48:36.000Z</time>
        <extensions>
          <ns3:TrackPointExtension>
            <ns3:atemp>21.0</ns3:atemp>
          </ns3:TrackPointExtension>
        </extensions>
      </trkpt>
      <trkpt lat="42.54480368457734584808349609375" lon="19.78880711831152439117431640625">
        <ele>1354.800048828125</ele>
        <time>2026-06-18T07:48:37.000Z</time>
        <extensions>
          <ns3:TrackPointExtension>
            <ns3:atemp>21.0</ns3:atemp>
          </ns3:TrackPointExtension>
        </extensions>
      </trkpt>
      <trkpt lat="42.5448166765272617340087890625" lon="19.7887842357158660888671875">
        <ele>1355</ele>
        <time>2026-06-18T07:48:38.000Z</time>
        <extensions>
          <ns3:TrackPointExtension>
            <ns3:atemp>21.0</ns3:atemp>
          </ns3:TrackPointExtension>
        </extensions>
      </trkpt>
      <trkpt lat="42.54482933320105075836181640625" lon="19.78876336477696895599365234375">
        <ele>1355.4000244140625</ele>
        <time>2026-06-18T07:48:39.000Z</time>
        <extensions>
          <ns3:TrackPointExtension>
            <ns3:atemp>21.0</ns3:atemp>
          </ns3:TrackPointExtension>
        </extensions>
      </trkpt>
      <trkpt lat="42.54484039731323719024658203125" lon="19.78874199092388153076171875">
        <ele>1355.5999755859375</ele>
        <time>2026-06-18T07:48:40.000Z</time>
        <extensions>
          <ns3:TrackPointExtension>
            <ns3:atemp>21.0</ns3:atemp>
          </ns3:TrackPointExtension>
        </extensions>
      </trkpt>
      <trkpt lat="42.54484777338802814483642578125" lon="19.7887196950614452362060546875">
        <ele>1356.199951171875</ele>
        <time>2026-06-18T07:48:41.000Z</time>
        <extensions>
          <ns3:TrackPointExtension>
            <ns3:atemp>21.0</ns3:atemp>
          </ns3:TrackPointExtension>
        </extensions>
      </trkpt>
      <trkpt lat="42.5448589213192462921142578125" lon="19.7886935435235500335693359375">
        <ele>1356.5999755859375</ele>
        <time>2026-06-18T07:48:42.000Z</time>
        <extensions>
          <ns3:TrackPointExtension>
            <ns3:atemp>21.0</ns3:atemp>
          </ns3:TrackPointExtension>
        </extensions>
      </trkpt>
      <trkpt lat="42.54486881196498870849609375" lon="19.78867066092789173126220703125">
        <ele>1356.800048828125</ele>
        <time>2026-06-18T07:48:43.000Z</time>
        <extensions>
          <ns3:TrackPointExtension>
            <ns3:atemp>21.0</ns3:atemp>
          </ns3:TrackPointExtension>
        </extensions>
      </trkpt>
      <trkpt lat="42.5448787026107311248779296875" lon="19.78864735923707485198974609375">
        <ele>1357.199951171875</ele>
        <time>2026-06-18T07:48:44.000Z</time>
        <extensions>
          <ns3:TrackPointExtension>
            <ns3:atemp>21.0</ns3:atemp>
          </ns3:TrackPointExtension>
        </extensions>
      </trkpt>
      <trkpt lat="42.54488850943744182586669921875" lon="19.78862799704074859619140625">
        <ele>1357.4000244140625</ele>
        <time>2026-06-18T07:48:45.000Z</time>
        <extensions>
          <ns3:TrackPointExtension>
            <ns3:atemp>21.0</ns3:atemp>
          </ns3:TrackPointExtension>
        </extensions>
      </trkpt>
      <trkpt lat="42.544902004301548004150390625" lon="19.78861181996762752532958984375">
        <ele>1357.5999755859375</ele>
        <time>2026-06-18T07:48:46.000Z</time>
        <extensions>
          <ns3:TrackPointExtension>
            <ns3:atemp>21.0</ns3:atemp>
          </ns3:TrackPointExtension>
        </extensions>
      </trkpt>
      <trkpt lat="42.54491600207984447479248046875" lon="19.78859505616128444671630859375">
        <ele>1357.5999755859375</ele>
        <time>2026-06-18T07:48:47.000Z</time>
        <extensions>
          <ns3:TrackPointExtension>
            <ns3:atemp>21.0</ns3:atemp>
          </ns3:TrackPointExtension>
        </extensions>
      </trkpt>
      <trkpt lat="42.5449316762387752532958984375" lon="19.7885829024016857147216796875">
        <ele>1357.5999755859375</ele>
        <time>2026-06-18T07:48:48.000Z</time>
        <extensions>
          <ns3:TrackPointExtension>
            <ns3:atemp>21.0</ns3:atemp>
          </ns3:TrackPointExtension>
        </extensions>
      </trkpt>
      <trkpt lat="42.54494793713092803955078125" lon="19.7885681502521038055419921875">
        <ele>1357.800048828125</ele>
        <time>2026-06-18T07:48:49.000Z</time>
        <extensions>
          <ns3:TrackPointExtension>
            <ns3:atemp>21.0</ns3:atemp>
          </ns3:TrackPointExtension>
        </extensions>
      </trkpt>
      <trkpt lat="42.54496545530855655670166015625" lon="19.78855566121637821197509765625">
        <ele>1357.800048828125</ele>
        <time>2026-06-18T07:48:50.000Z</time>
        <extensions>
          <ns3:TrackPointExtension>
            <ns3:atemp>21.0</ns3:atemp>
          </ns3:TrackPointExtension>
        </extensions>
      </trkpt>
      <trkpt lat="42.5449849851429462432861328125" lon="19.78854350745677947998046875">
        <ele>1357.800048828125</ele>
        <time>2026-06-18T07:48:51.000Z</time>
        <extensions>
          <ns3:TrackPointExtension>
            <ns3:atemp>21.0</ns3:atemp>
          </ns3:TrackPointExtension>
        </extensions>
      </trkpt>
      <trkpt lat="42.545001916587352752685546875" lon="19.7885305993258953094482421875">
        <ele>1358</ele>
        <time>2026-06-18T07:48:52.000Z</time>
        <extensions>
          <ns3:TrackPointExtension>
            <ns3:atemp>21.0</ns3:atemp>
          </ns3:TrackPointExtension>
        </extensions>
      </trkpt>
      <trkpt lat="42.54501792602241039276123046875" lon="19.7885181941092014312744140625">
        <ele>1358</ele>
        <time>2026-06-18T07:48:53.000Z</time>
        <extensions>
          <ns3:TrackPointExtension>
            <ns3:atemp>21.0</ns3:atemp>
          </ns3:TrackPointExtension>
        </extensions>
      </trkpt>
      <trkpt lat="42.545032761991024017333984375" lon="19.788508974015712738037109375">
        <ele>1358</ele>
        <time>2026-06-18T07:48:54.000Z</time>
        <extensions>
          <ns3:TrackPointExtension>
            <ns3:atemp>21.0</ns3:atemp>
          </ns3:TrackPointExtension>
        </extensions>
      </trkpt>
      <trkpt lat="42.54504759795963764190673828125" lon="19.78850117884576320648193359375">
        <ele>1358.199951171875</ele>
        <time>2026-06-18T07:48:55.000Z</time>
        <extensions>
          <ns3:TrackPointExtension>
            <ns3:atemp>21.0</ns3:atemp>
          </ns3:TrackPointExtension>
        </extensions>
      </trkpt>
      <trkpt lat="42.5450651161372661590576171875" lon="19.7884947247803211212158203125">
        <ele>1358.199951171875</ele>
        <time>2026-06-18T07:48:56.000Z</time>
        <extensions>
          <ns3:TrackPointExtension>
            <ns3:atemp>21.0</ns3:atemp>
          </ns3:TrackPointExtension>
        </extensions>
      </trkpt>
      <trkpt lat="42.5450795330107212066650390625" lon="19.78848156519234180450439453125">
        <ele>1358.4000244140625</ele>
        <time>2026-06-18T07:48:57.000Z</time>
        <extensions>
          <ns3:TrackPointExtension>
            <ns3:atemp>21.0</ns3:atemp>
          </ns3:TrackPointExtension>
        </extensions>
      </trkpt>
      <trkpt lat="42.54509671591222286224365234375" lon="19.7884729318320751190185546875">
        <ele>1358.5999755859375</ele>
        <time>2026-06-18T07:48:58.000Z</time>
        <extensions>
          <ns3:TrackPointExtension>
            <ns3:atemp>21.0</ns3:atemp>
          </ns3:TrackPointExtension>
        </extensions>
      </trkpt>
      <trkpt lat="42.54511423408985137939453125" lon="19.7884622029960155487060546875">
        <ele>1358.800048828125</ele>
        <time>2026-06-18T07:48:59.000Z</time>
        <extensions>
          <ns3:TrackPointExtension>
            <ns3:atemp>21.0</ns3:atemp>
          </ns3:TrackPointExtension>
        </extensions>
      </trkpt>
      <trkpt lat="42.54512856714427471160888671875" lon="19.78845340199768543243408203125">
        <ele>1358.800048828125</ele>
        <time>2026-06-18T07:49:00.000Z</time>
        <extensions>
          <ns3:TrackPointExtension>
            <ns3:atemp>21.0</ns3:atemp>
          </ns3:TrackPointExtension>
        </extensions>
      </trkpt>
      <trkpt lat="42.54514700733125209808349609375" lon="19.78844225406646728515625">
        <ele>1359</ele>
        <time>2026-06-18T07:49:01.000Z</time>
        <extensions>
          <ns3:TrackPointExtension>
            <ns3:atemp>21.0</ns3:atemp>
          </ns3:TrackPointExtension>
        </extensions>
      </trkpt>
      <trkpt lat="42.5451685488224029541015625" lon="19.78842775337398052215576171875">
        <ele>1359.199951171875</ele>
        <time>2026-06-18T07:49:02.000Z</time>
        <extensions>
          <ns3:TrackPointExtension>
            <ns3:atemp>21.0</ns3:atemp>
          </ns3:TrackPointExtension>
        </extensions>
      </trkpt>
      <trkpt lat="42.545186989009380340576171875" lon="19.788413755595684051513671875">
        <ele>1359.5999755859375</ele>
        <time>2026-06-18T07:49:03.000Z</time>
        <extensions>
          <ns3:TrackPointExtension>
            <ns3:atemp>21.0</ns3:atemp>
          </ns3:TrackPointExtension>
        </extensions>
      </trkpt>
      <trkpt lat="42.5452007353305816650390625" lon="19.788402020931243896484375">
        <ele>1360</ele>
        <time>2026-06-18T07:49:04.000Z</time>
        <extensions>
          <ns3:TrackPointExtension>
            <ns3:atemp>21.0</ns3:atemp>
          </ns3:TrackPointExtension>
        </extensions>
      </trkpt>
      <trkpt lat="42.5452149845659732818603515625" lon="19.78839254938066005706787109375">
        <ele>1360.4000244140625</ele>
        <time>2026-06-18T07:49:05.000Z</time>
        <extensions>
          <ns3:TrackPointExtension>
            <ns3:atemp>21.0</ns3:atemp>
          </ns3:TrackPointExtension>
        </extensions>
      </trkpt>
      <trkpt lat="42.54523216746747493743896484375" lon="19.7883783839643001556396484375">
        <ele>1360.5999755859375</ele>
        <time>2026-06-18T07:49:06.000Z</time>
        <extensions>
          <ns3:TrackPointExtension>
            <ns3:atemp>21.0</ns3:atemp>
          </ns3:TrackPointExtension>
        </extensions>
      </trkpt>
      <trkpt lat="42.545253373682498931884765625" lon="19.78836103342473506927490234375">
        <ele>1361</ele>
        <time>2026-06-18T07:49:07.000Z</time>
        <extensions>
          <ns3:TrackPointExtension>
            <ns3:atemp>21.0</ns3:atemp>
          </ns3:TrackPointExtension>
        </extensions>
      </trkpt>
      <trkpt lat="42.5452739931643009185791015625" lon="19.78834561072289943695068359375">
        <ele>1361.4000244140625</ele>
        <time>2026-06-18T07:49:08.000Z</time>
        <extensions>
          <ns3:TrackPointExtension>
            <ns3:atemp>21.0</ns3:atemp>
          </ns3:TrackPointExtension>
        </extensions>
      </trkpt>
      <trkpt lat="42.54529260098934173583984375" lon="19.788329601287841796875">
        <ele>1361.5999755859375</ele>
        <time>2026-06-18T07:49:09.000Z</time>
        <extensions>
          <ns3:TrackPointExtension>
            <ns3:atemp>21.0</ns3:atemp>
          </ns3:TrackPointExtension>
        </extensions>
      </trkpt>
      <trkpt lat="42.54531028680503368377685546875" lon="19.78831543587148189544677734375">
        <ele>1361.800048828125</ele>
        <time>2026-06-18T07:49:10.000Z</time>
        <extensions>
          <ns3:TrackPointExtension>
            <ns3:atemp>21.0</ns3:atemp>
          </ns3:TrackPointExtension>
        </extensions>
      </trkpt>
      <trkpt lat="42.545326463878154754638671875" lon="19.78830604813992977142333984375">
        <ele>1362.199951171875</ele>
        <time>2026-06-18T07:49:11.000Z</time>
        <extensions>
          <ns3:TrackPointExtension>
            <ns3:atemp>21.0</ns3:atemp>
          </ns3:TrackPointExtension>
        </extensions>
      </trkpt>
      <trkpt lat="42.545343227684497833251953125" lon="19.78829163126647472381591796875">
        <ele>1362.4000244140625</ele>
        <time>2026-06-18T07:49:12.000Z</time>
        <extensions>
          <ns3:TrackPointExtension>
            <ns3:atemp>21.0</ns3:atemp>
          </ns3:TrackPointExtension>
        </extensions>
      </trkpt>
      <trkpt lat="42.5453625060617923736572265625" lon="19.78827687911689281463623046875">
        <ele>1362.800048828125</ele>
        <time>2026-06-18T07:49:13.000Z</time>
        <extensions>
          <ns3:TrackPointExtension>
            <ns3:atemp>21.0</ns3:atemp>
          </ns3:TrackPointExtension>
        </extensions>
      </trkpt>
      <trkpt lat="42.54538136534392833709716796875" lon="19.78825458325445652008056640625">
        <ele>1363</ele>
        <time>2026-06-18T07:49:14.000Z</time>
        <extensions>
          <ns3:TrackPointExtension>
            <ns3:atemp>21.0</ns3:atemp>
          </ns3:TrackPointExtension>
        </extensions>
      </trkpt>
      <trkpt lat="42.5454050861299037933349609375" lon="19.788230694830417633056640625">
        <ele>1363.199951171875</ele>
        <time>2026-06-18T07:49:15.000Z</time>
        <extensions>
          <ns3:TrackPointExtension>
            <ns3:atemp>21.0</ns3:atemp>
          </ns3:TrackPointExtension>
        </extensions>
      </trkpt>
      <trkpt lat="42.54542612470686435699462890625" lon="19.788201861083507537841796875">
        <ele>1363.4000244140625</ele>
        <time>2026-06-18T07:49:16.000Z</time>
        <extensions>
          <ns3:TrackPointExtension>
            <ns3:atemp>21.0</ns3:atemp>
          </ns3:TrackPointExtension>
        </extensions>
      </trkpt>
      <trkpt lat="42.5454461574554443359375" lon="19.788172356784343719482421875">
        <ele>1363.5999755859375</ele>
        <time>2026-06-18T07:49:17.000Z</time>
        <extensions>
          <ns3:TrackPointExtension>
            <ns3:atemp>21.0</ns3:atemp>
          </ns3:TrackPointExtension>
        </extensions>
      </trkpt>
      <trkpt lat="42.54546451382339000701904296875" lon="19.78814511559903621673583984375">
        <ele>1363.5999755859375</ele>
        <time>2026-06-18T07:49:18.000Z</time>
        <extensions>
          <ns3:TrackPointExtension>
            <ns3:atemp>21.0</ns3:atemp>
          </ns3:TrackPointExtension>
        </extensions>
      </trkpt>
      <trkpt lat="42.54548379220068454742431640625" lon="19.7881178744137287139892578125">
        <ele>1363.5999755859375</ele>
        <time>2026-06-18T07:49:19.000Z</time>
        <extensions>
          <ns3:TrackPointExtension>
            <ns3:atemp>21.0</ns3:atemp>
          </ns3:TrackPointExtension>
        </extensions>
      </trkpt>
      <trkpt lat="42.545501478016376495361328125" lon="19.78809432126581668853759765625">
        <ele>1363.800048828125</ele>
        <time>2026-06-18T07:49:20.000Z</time>
        <extensions>
          <ns3:TrackPointExtension>
            <ns3:atemp>21.0</ns3:atemp>
          </ns3:TrackPointExtension>
        </extensions>
      </trkpt>
      <trkpt lat="42.54551924765110015869140625" lon="19.7880685888230800628662109375">
        <ele>1364</ele>
        <time>2026-06-18T07:49:21.000Z</time>
        <extensions>
          <ns3:TrackPointExtension>
            <ns3:atemp>21.0</ns3:atemp>
          </ns3:TrackPointExtension>
        </extensions>
      </trkpt>
      <trkpt lat="42.54553391598165035247802734375" lon="19.78804302401840686798095703125">
        <ele>1364</ele>
        <time>2026-06-18T07:49:22.000Z</time>
        <extensions>
          <ns3:TrackPointExtension>
            <ns3:atemp>21.0</ns3:atemp>
          </ns3:TrackPointExtension>
        </extensions>
      </trkpt>
      <trkpt lat="42.54554850049316883087158203125" lon="19.788018800318241119384765625">
        <ele>1364</ele>
        <time>2026-06-18T07:49:23.000Z</time>
        <extensions>
          <ns3:TrackPointExtension>
            <ns3:atemp>21.0</ns3:atemp>
          </ns3:TrackPointExtension>
        </extensions>
      </trkpt>
      <trkpt lat="42.54556274972856044769287109375" lon="19.78799876756966114044189453125">
        <ele>1364.199951171875</ele>
        <time>2026-06-18T07:49:24.000Z</time>
        <extensions>
          <ns3:TrackPointExtension>
            <ns3:atemp>21.0</ns3:atemp>
          </ns3:TrackPointExtension>
        </extensions>
      </trkpt>
      <trkpt lat="42.54558085463941097259521484375" lon="19.7879713587462902069091796875">
        <ele>1364.199951171875</ele>
        <time>2026-06-18T07:49:25.000Z</time>
        <extensions>
          <ns3:TrackPointExtension>
            <ns3:atemp>21.0</ns3:atemp>
          </ns3:TrackPointExtension>
        </extensions>
      </trkpt>
      <trkpt lat="42.5456022284924983978271484375" lon="19.78794462047517299652099609375">
        <ele>1364.4000244140625</ele>
        <time>2026-06-18T07:49:26.000Z</time>
        <extensions>
          <ns3:TrackPointExtension>
            <ns3:atemp>21.0</ns3:atemp>
          </ns3:TrackPointExtension>
        </extensions>
      </trkpt>
      <trkpt lat="42.54562024958431720733642578125" lon="19.78792391717433929443359375">
        <ele>1364.5999755859375</ele>
        <time>2026-06-18T07:49:27.000Z</time>
        <extensions>
          <ns3:TrackPointExtension>
            <ns3:atemp>21.0</ns3:atemp>
          </ns3:TrackPointExtension>
        </extensions>
      </trkpt>
      <trkpt lat="42.545636594295501708984375" lon="19.7878964245319366455078125">
        <ele>1364.5999755859375</ele>
        <time>2026-06-18T07:49:28.000Z</time>
        <extensions>
          <ns3:TrackPointExtension>
            <ns3:atemp>21.0</ns3:atemp>
          </ns3:TrackPointExtension>
        </extensions>
      </trkpt>
      <trkpt lat="42.54565310664474964141845703125" lon="19.7878694348037242889404296875">
        <ele>1364.5999755859375</ele>
        <time>2026-06-18T07:49:29.000Z</time>
        <extensions>
          <ns3:TrackPointExtension>
            <ns3:atemp>21.0</ns3:atemp>
          </ns3:TrackPointExtension>
        </extensions>
      </trkpt>
      <trkpt lat="42.5456706248223781585693359375" lon="19.78784210979938507080078125">
        <ele>1365</ele>
        <time>2026-06-18T07:49:30.000Z</time>
        <extensions>
          <ns3:TrackPointExtension>
            <ns3:atemp>21.0</ns3:atemp>
          </ns3:TrackPointExtension>
        </extensions>
      </trkpt>
      <trkpt lat="42.54568378441035747528076171875" lon="19.78781486861407756805419921875">
        <ele>1365.199951171875</ele>
        <time>2026-06-18T07:49:31.000Z</time>
        <extensions>
          <ns3:TrackPointExtension>
            <ns3:atemp>21.0</ns3:atemp>
          </ns3:TrackPointExtension>
        </extensions>
      </trkpt>
      <trkpt lat="42.5456930883228778839111328125" lon="19.78779156692326068878173828125">
        <ele>1365.199951171875</ele>
        <time>2026-06-18T07:49:32.000Z</time>
        <extensions>
          <ns3:TrackPointExtension>
            <ns3:atemp>21.0</ns3:atemp>
          </ns3:TrackPointExtension>
        </extensions>
      </trkpt>
      <trkpt lat="42.5456997938454151153564453125" lon="19.78777094744145870208740234375">
        <ele>1365.4000244140625</ele>
        <time>2026-06-18T07:49:33.000Z</time>
        <extensions>
          <ns3:TrackPointExtension>
            <ns3:atemp>21.0</ns3:atemp>
          </ns3:TrackPointExtension>
        </extensions>
      </trkpt>
      <trkpt lat="42.54570909775793552398681640625" lon="19.78774680756032466888427734375">
        <ele>1365.800048828125</ele>
        <time>2026-06-18T07:49:34.000Z</time>
        <extensions>
          <ns3:TrackPointExtension>
            <ns3:atemp>21.0</ns3:atemp>
          </ns3:TrackPointExtension>
        </extensions>
      </trkpt>
      <trkpt lat="42.54571429453790187835693359375" lon="19.78771998547017574310302734375">
        <ele>1366</ele>
        <time>2026-06-18T07:49:35.000Z</time>
        <extensions>
          <ns3:TrackPointExtension>
            <ns3:atemp>21.0</ns3:atemp>
          </ns3:TrackPointExtension>
        </extensions>
      </trkpt>
      <trkpt lat="42.545720748603343963623046875" lon="19.787696935236454010009765625">
        <ele>1366.4000244140625</ele>
        <time>2026-06-18T07:49:36.000Z</time>
        <extensions>
          <ns3:TrackPointExtension>
            <ns3:atemp>21.0</ns3:atemp>
          </ns3:TrackPointExtension>
        </extensions>
      </trkpt>
      <trkpt lat="42.545725442469120025634765625" lon="19.78767656721174716949462890625">
        <ele>1366.5999755859375</ele>
        <time>2026-06-18T07:49:37.000Z</time>
        <extensions>
          <ns3:TrackPointExtension>
            <ns3:atemp>21.0</ns3:atemp>
          </ns3:TrackPointExtension>
        </extensions>
      </trkpt>
      <trkpt lat="42.5457291305065155029296875" lon="19.78766080923378467559814453125">
        <ele>1366.800048828125</ele>
        <time>2026-06-18T07:49:38.000Z</time>
        <extensions>
          <ns3:TrackPointExtension>
            <ns3:atemp>21.0</ns3:atemp>
          </ns3:TrackPointExtension>
        </extensions>
      </trkpt>
      <trkpt lat="42.54573524929583072662353515625" lon="19.7876444645226001739501953125">
        <ele>1366.800048828125</ele>
        <time>2026-06-18T07:49:39.000Z</time>
        <extensions>
          <ns3:TrackPointExtension>
            <ns3:atemp>21.0</ns3:atemp>
          </ns3:TrackPointExtension>
        </extensions>
      </trkpt>
      <trkpt lat="42.54573876969516277313232421875" lon="19.787629880011081695556640625">
        <ele>1367</ele>
        <time>2026-06-18T07:49:40.000Z</time>
        <extensions>
          <ns3:TrackPointExtension>
            <ns3:atemp>21.0</ns3:atemp>
          </ns3:TrackPointExtension>
        </extensions>
      </trkpt>
      <trkpt lat="42.5457453913986682891845703125" lon="19.78760540485382080078125">
        <ele>1367</ele>
        <time>2026-06-18T07:49:41.000Z</time>
        <extensions>
          <ns3:TrackPointExtension>
            <ns3:atemp>21.0</ns3:atemp>
          </ns3:TrackPointExtension>
        </extensions>
      </trkpt>
      <trkpt lat="42.5457531027495861053466796875" lon="19.78758118115365505218505859375">
        <ele>1367</ele>
        <time>2026-06-18T07:49:42.000Z</time>
        <extensions>
          <ns3:TrackPointExtension>
            <ns3:atemp>21.0</ns3:atemp>
          </ns3:TrackPointExtension>
        </extensions>
      </trkpt>
      <trkpt lat="42.54576173610985279083251953125" lon="19.78755234740674495697021484375">
        <ele>1367</ele>
        <time>2026-06-18T07:49:43.000Z</time>
        <extensions>
          <ns3:TrackPointExtension>
            <ns3:atemp>21.0</ns3:atemp>
          </ns3:TrackPointExtension>
        </extensions>
      </trkpt>
      <trkpt lat="42.54576911218464374542236328125" lon="19.78752401657402515411376953125">
        <ele>1367</ele>
        <time>2026-06-18T07:49:44.000Z</time>
        <extensions>
          <ns3:TrackPointExtension>
            <ns3:atemp>21.0</ns3:atemp>
          </ns3:TrackPointExtension>
        </extensions>
      </trkpt>
      <trkpt lat="42.5457732193171977996826171875" lon="19.78749652393162250518798828125">
        <ele>1367</ele>
        <time>2026-06-18T07:49:45.000Z</time>
        <extensions>
          <ns3:TrackPointExtension>
            <ns3:atemp>21.0</ns3:atemp>
          </ns3:TrackPointExtension>
        </extensions>
      </trkpt>
      <trkpt lat="42.5457785837352275848388671875" lon="19.78746953420341014862060546875">
        <ele>1367.199951171875</ele>
        <time>2026-06-18T07:49:46.000Z</time>
        <extensions>
          <ns3:TrackPointExtension>
            <ns3:atemp>21.0</ns3:atemp>
          </ns3:TrackPointExtension>
        </extensions>
      </trkpt>
      <trkpt lat="42.5457923300564289093017578125" lon="19.7874458134174346923828125">
        <ele>1367.199951171875</ele>
        <time>2026-06-18T07:49:47.000Z</time>
        <extensions>
          <ns3:TrackPointExtension>
            <ns3:atemp>21.0</ns3:atemp>
          </ns3:TrackPointExtension>
        </extensions>
      </trkpt>
      <trkpt lat="42.5458037294447422027587890625" lon="19.787424020469188690185546875">
        <ele>1367.199951171875</ele>
        <time>2026-06-18T07:49:48.000Z</time>
        <extensions>
          <ns3:TrackPointExtension>
            <ns3:atemp>21.0</ns3:atemp>
          </ns3:TrackPointExtension>
        </extensions>
      </trkpt>
      <trkpt lat="42.5458157993853092193603515625" lon="19.78739895857870578765869140625">
        <ele>1367.199951171875</ele>
        <time>2026-06-18T07:49:49.000Z</time>
        <extensions>
          <ns3:TrackPointExtension>
            <ns3:atemp>21.0</ns3:atemp>
          </ns3:TrackPointExtension>
        </extensions>
      </trkpt>
      <trkpt lat="42.5458298809826374053955078125" lon="19.7873725555837154388427734375">
        <ele>1367.199951171875</ele>
        <time>2026-06-18T07:49:50.000Z</time>
        <extensions>
          <ns3:TrackPointExtension>
            <ns3:atemp>21.0</ns3:atemp>
          </ns3:TrackPointExtension>
        </extensions>
      </trkpt>
      <trkpt lat="42.54584002308547496795654296875" lon="19.7873497568070888519287109375">
        <ele>1367.4000244140625</ele>
        <time>2026-06-18T07:49:51.000Z</time>
        <extensions>
          <ns3:TrackPointExtension>
            <ns3:atemp>21.0</ns3:atemp>
          </ns3:TrackPointExtension>
        </extensions>
      </trkpt>
      <trkpt lat="42.54585410468280315399169921875" lon="19.787324108183383941650390625">
        <ele>1367.5999755859375</ele>
        <time>2026-06-18T07:49:52.000Z</time>
        <extensions>
          <ns3:TrackPointExtension>
            <ns3:atemp>21.0</ns3:atemp>
          </ns3:TrackPointExtension>
        </extensions>
      </trkpt>
      <trkpt lat="42.545865587890148162841796875" lon="19.78729787282645702362060546875">
        <ele>1367.800048828125</ele>
        <time>2026-06-18T07:49:53.000Z</time>
        <extensions>
          <ns3:TrackPointExtension>
            <ns3:atemp>21.0</ns3:atemp>
          </ns3:TrackPointExtension>
        </extensions>
      </trkpt>
      <trkpt lat="42.54587505944073200225830078125" lon="19.7872714698314666748046875">
        <ele>1368</ele>
        <time>2026-06-18T07:49:54.000Z</time>
        <extensions>
          <ns3:TrackPointExtension>
            <ns3:atemp>21.0</ns3:atemp>
          </ns3:TrackPointExtension>
        </extensions>
      </trkpt>
      <trkpt lat="42.5458873808383941650390625" lon="19.787240289151668548583984375">
        <ele>1368.199951171875</ele>
        <time>2026-06-18T07:49:55.000Z</time>
        <extensions>
          <ns3:TrackPointExtension>
            <ns3:atemp>21.0</ns3:atemp>
          </ns3:TrackPointExtension>
        </extensions>
      </trkpt>
      <trkpt lat="42.5458976067602634429931640625" lon="19.78721086867153644561767578125">
        <ele>1368.4000244140625</ele>
        <time>2026-06-18T07:49:56.000Z</time>
        <extensions>
          <ns3:TrackPointExtension>
            <ns3:atemp>21.0</ns3:atemp>
          </ns3:TrackPointExtension>
        </extensions>
      </trkpt>
      <trkpt lat="42.54590682685375213623046875" lon="19.78718505240976810455322265625">
        <ele>1368.5999755859375</ele>
        <time>2026-06-18T07:49:57.000Z</time>
        <extensions>
          <ns3:TrackPointExtension>
            <ns3:atemp>21.0</ns3:atemp>
          </ns3:TrackPointExtension>
        </extensions>
      </trkpt>
      <trkpt lat="42.54591646604239940643310546875" lon="19.78715923614799976348876953125">
        <ele>1368.800048828125</ele>
        <time>2026-06-18T07:49:58.000Z</time>
        <extensions>
          <ns3:TrackPointExtension>
            <ns3:atemp>21.0</ns3:atemp>
          </ns3:TrackPointExtension>
        </extensions>
      </trkpt>
      <trkpt lat="42.5459222495555877685546875" lon="19.7871321626007556915283203125">
        <ele>1369</ele>
        <time>2026-06-18T07:49:59.000Z</time>
        <extensions>
          <ns3:TrackPointExtension>
            <ns3:atemp>21.0</ns3:atemp>
          </ns3:TrackPointExtension>
        </extensions>
      </trkpt>
      <trkpt lat="42.545926608145236968994140625" lon="19.787104167044162750244140625">
        <ele>1369.199951171875</ele>
        <time>2026-06-18T07:50:00.000Z</time>
        <extensions>
          <ns3:TrackPointExtension>
            <ns3:atemp>21.0</ns3:atemp>
          </ns3:TrackPointExtension>
        </extensions>
      </trkpt>
      <trkpt lat="42.54593457095324993133544921875" lon="19.78707575239241123199462890625">
        <ele>1369.5999755859375</ele>
        <time>2026-06-18T07:50:01.000Z</time>
        <extensions>
          <ns3:TrackPointExtension>
            <ns3:atemp>21.0</ns3:atemp>
          </ns3:TrackPointExtension>
        </extensions>
      </trkpt>
      <trkpt lat="42.54594027064740657806396484375" lon="19.78704976849257946014404296875">
        <ele>1369.800048828125</ele>
        <time>2026-06-18T07:50:02.000Z</time>
        <extensions>
          <ns3:TrackPointExtension>
            <ns3:atemp>21.0</ns3:atemp>
          </ns3:TrackPointExtension>
        </extensions>
      </trkpt>
      <trkpt lat="42.545942701399326324462890625" lon="19.7870262153446674346923828125">
        <ele>1370</ele>
        <time>2026-06-18T07:50:03.000Z</time>
        <extensions>
          <ns3:TrackPointExtension>
            <ns3:atemp>21.0</ns3:atemp>
          </ns3:TrackPointExtension>
        </extensions>
      </trkpt>
      <trkpt lat="42.5459475629031658172607421875" lon="19.78700316511094570159912109375">
        <ele>1370.199951171875</ele>
        <time>2026-06-18T07:50:04.000Z</time>
        <extensions>
          <ns3:TrackPointExtension>
            <ns3:atemp>21.0</ns3:atemp>
          </ns3:TrackPointExtension>
        </extensions>
      </trkpt>
      <trkpt lat="42.54595519043505191802978515625" lon="19.78698539547622203826904296875">
        <ele>1370.4000244140625</ele>
        <time>2026-06-18T07:50:05.000Z</time>
        <extensions>
          <ns3:TrackPointExtension>
            <ns3:atemp>21.0</ns3:atemp>
          </ns3:TrackPointExtension>
        </extensions>
      </trkpt>
      <trkpt lat="42.5459636561572551727294921875" lon="19.78696502745151519775390625">
        <ele>1370.5999755859375</ele>
        <time>2026-06-18T07:50:06.000Z</time>
        <extensions>
          <ns3:TrackPointExtension>
            <ns3:atemp>21.0</ns3:atemp>
          </ns3:TrackPointExtension>
        </extensions>
      </trkpt>
      <trkpt lat="42.54598050378262996673583984375" lon="19.7869467549026012420654296875">
        <ele>1370.5999755859375</ele>
        <time>2026-06-18T07:50:07.000Z</time>
        <extensions>
          <ns3:TrackPointExtension>
            <ns3:atemp>21.0</ns3:atemp>
          </ns3:TrackPointExtension>
        </extensions>
      </trkpt>
      <trkpt lat="42.54599533975124359130859375" lon="19.78693560697138309478759765625">
        <ele>1370.5999755859375</ele>
        <time>2026-06-18T07:50:08.000Z</time>
        <extensions>
          <ns3:TrackPointExtension>
            <ns3:atemp>21.0</ns3:atemp>
          </ns3:TrackPointExtension>
        </extensions>
      </trkpt>
      <trkpt lat="42.546013109385967254638671875" lon="19.7869266383349895477294921875">
        <ele>1370.5999755859375</ele>
        <time>2026-06-18T07:50:09.000Z</time>
        <extensions>
          <ns3:TrackPointExtension>
            <ns3:atemp>21.0</ns3:atemp>
          </ns3:TrackPointExtension>
        </extensions>
      </trkpt>
      <trkpt lat="42.54602978937327861785888671875" lon="19.786919094622135162353515625">
        <ele>1370.5999755859375</ele>
        <time>2026-06-18T07:50:10.000Z</time>
        <extensions>
          <ns3:TrackPointExtension>
            <ns3:atemp>21.0</ns3:atemp>
          </ns3:TrackPointExtension>
        </extensions>
      </trkpt>
      <trkpt lat="42.54605040885508060455322265625" lon="19.78691515512764453887939453125">
        <ele>1370.5999755859375</ele>
        <time>2026-06-18T07:50:11.000Z</time>
        <extensions>
          <ns3:TrackPointExtension>
            <ns3:atemp>22.0</ns3:atemp>
          </ns3:TrackPointExtension>
        </extensions>
      </trkpt>
      <trkpt lat="42.5460751354694366455078125" lon="19.7869093716144561767578125">
        <ele>1370.800048828125</ele>
        <time>2026-06-18T07:50:12.000Z</time>
        <extensions>
          <ns3:TrackPointExtension>
            <ns3:atemp>22.0</ns3:atemp>
          </ns3:TrackPointExtension>
        </extensions>
      </trkpt>
      <trkpt lat="42.5461004488170146942138671875" lon="19.7869035042822360992431640625">
        <ele>1371</ele>
        <time>2026-06-18T07:50:13.000Z</time>
        <extensions>
          <ns3:TrackPointExtension>
            <ns3:atemp>22.0</ns3:atemp>
          </ns3:TrackPointExtension>
        </extensions>
      </trkpt>
      <trkpt lat="42.54612551070749759674072265625" lon="19.7868981398642063140869140625">
        <ele>1371</ele>
        <time>2026-06-18T07:50:14.000Z</time>
        <extensions>
          <ns3:TrackPointExtension>
            <ns3:atemp>22.0</ns3:atemp>
          </ns3:TrackPointExtension>
        </extensions>
      </trkpt>
      <trkpt lat="42.54614713601768016815185546875" lon="19.786888919770717620849609375">
        <ele>1371.199951171875</ele>
        <time>2026-06-18T07:50:15.000Z</time>
        <extensions>
          <ns3:TrackPointExtension>
            <ns3:atemp>22.0</ns3:atemp>
          </ns3:TrackPointExtension>
        </extensions>
      </trkpt>
      <trkpt lat="42.54616255871951580047607421875" lon="19.78687978349626064300537109375">
        <ele>1371.199951171875</ele>
        <time>2026-06-18T07:50:16.000Z</time>
        <extensions>
          <ns3:TrackPointExtension>
            <ns3:atemp>22.0</ns3:atemp>
          </ns3:TrackPointExtension>
        </extensions>
      </trkpt>
      <trkpt lat="42.54617982544004917144775390625" lon="19.786870479583740234375">
        <ele>1371.199951171875</ele>
        <time>2026-06-18T07:50:17.000Z</time>
        <extensions>
          <ns3:TrackPointExtension>
            <ns3:atemp>22.0</ns3:atemp>
          </ns3:TrackPointExtension>
        </extensions>
      </trkpt>
      <trkpt lat="42.54619927145540714263916015625" lon="19.7868558950722217559814453125">
        <ele>1371.199951171875</ele>
        <time>2026-06-18T07:50:18.000Z</time>
        <extensions>
          <ns3:TrackPointExtension>
            <ns3:atemp>21.0</ns3:atemp>
          </ns3:TrackPointExtension>
        </extensions>
      </trkpt>
      <trkpt lat="42.54622190259397029876708984375" lon="19.78683670051395893096923828125">
        <ele>1371.199951171875</ele>
        <time>2026-06-18T07:50:19.000Z</time>
        <extensions>
          <ns3:TrackPointExtension>
            <ns3:atemp>22.0</ns3:atemp>
          </ns3:TrackPointExtension>
        </extensions>
      </trkpt>
      <trkpt lat="42.5462439469993114471435546875" lon="19.7868149913847446441650390625">
        <ele>1371.4000244140625</ele>
        <time>2026-06-18T07:50:20.000Z</time>
        <extensions>
          <ns3:TrackPointExtension>
            <ns3:atemp>22.0</ns3:atemp>
          </ns3:TrackPointExtension>
        </extensions>
      </trkpt>
      <trkpt lat="42.54626490175724029541015625" lon="19.78679344989359378814697265625">
        <ele>1371.5999755859375</ele>
        <time>2026-06-18T07:50:21.000Z</time>
        <extensions>
          <ns3:TrackPointExtension>
            <ns3:atemp>22.0</ns3:atemp>
          </ns3:TrackPointExtension>
        </extensions>
      </trkpt>
      <trkpt lat="42.54628459922969341278076171875" lon="19.786771573126316070556640625">
        <ele>1371.800048828125</ele>
        <time>2026-06-18T07:50:22.000Z</time>
        <extensions>
          <ns3:TrackPointExtension>
            <ns3:atemp>22.0</ns3:atemp>
          </ns3:TrackPointExtension>
        </extensions>
      </trkpt>
      <trkpt lat="42.5463026203215122222900390625" lon="19.7867502830922603607177734375">
        <ele>1371.800048828125</ele>
        <time>2026-06-18T07:50:23.000Z</time>
        <extensions>
          <ns3:TrackPointExtension>
            <ns3:atemp>22.0</ns3:atemp>
          </ns3:TrackPointExtension>
        </extensions>
      </trkpt>
      <trkpt lat="42.5463217310607433319091796875" lon="19.786727987229824066162109375">
        <ele>1372</ele>
        <time>2026-06-18T07:50:24.000Z</time>
        <extensions>
          <ns3:TrackPointExtension>
            <ns3:atemp>22.0</ns3:atemp>
          </ns3:TrackPointExtension>
        </extensions>
      </trkpt>
      <trkpt lat="42.54633807577192783355712890625" lon="19.7867023386061191558837890625">
        <ele>1372</ele>
        <time>2026-06-18T07:50:25.000Z</time>
        <extensions>
          <ns3:TrackPointExtension>
            <ns3:atemp>22.0</ns3:atemp>
          </ns3:TrackPointExtension>
        </extensions>
      </trkpt>
      <trkpt lat="42.54635802470147609710693359375" lon="19.7866745106875896453857421875">
        <ele>1372</ele>
        <time>2026-06-18T07:50:26.000Z</time>
        <extensions>
          <ns3:TrackPointExtension>
            <ns3:atemp>22.0</ns3:atemp>
          </ns3:TrackPointExtension>
        </extensions>
      </trkpt>
      <trkpt lat="42.5463743694126605987548828125" lon="19.78665313683450222015380859375">
        <ele>1372.199951171875</ele>
        <time>2026-06-18T07:50:27.000Z</time>
        <extensions>
          <ns3:TrackPointExtension>
            <ns3:atemp>22.0</ns3:atemp>
          </ns3:TrackPointExtension>
        </extensions>
      </trkpt>
      <trkpt lat="42.5463894568383693695068359375" lon="19.78663033805787563323974609375">
        <ele>1372.199951171875</ele>
        <time>2026-06-18T07:50:28.000Z</time>
        <extensions>
          <ns3:TrackPointExtension>
            <ns3:atemp>21.0</ns3:atemp>
          </ns3:TrackPointExtension>
        </extensions>
      </trkpt>
      <trkpt lat="42.54640462808310985565185546875" lon="19.78660368360579013824462890625">
        <ele>1372.199951171875</ele>
        <time>2026-06-18T07:50:29.000Z</time>
        <extensions>
          <ns3:TrackPointExtension>
            <ns3:atemp>21.0</ns3:atemp>
          </ns3:TrackPointExtension>
        </extensions>
      </trkpt>
      <trkpt lat="42.5464203022420406341552734375" lon="19.78658038191497325897216796875">
        <ele>1372.4000244140625</ele>
        <time>2026-06-18T07:50:30.000Z</time>
        <extensions>
          <ns3:TrackPointExtension>
            <ns3:atemp>21.0</ns3:atemp>
          </ns3:TrackPointExtension>
        </extensions>
      </trkpt>
      <trkpt lat="42.54643790423870086669921875" lon="19.78655397891998291015625">
        <ele>1372.5999755859375</ele>
        <time>2026-06-18T07:50:31.000Z</time>
        <extensions>
          <ns3:TrackPointExtension>
            <ns3:atemp>21.0</ns3:atemp>
          </ns3:TrackPointExtension>
        </extensions>
      </trkpt>
      <trkpt lat="42.54645944572985172271728515625" lon="19.78652724064886569976806640625">
        <ele>1372.800048828125</ele>
        <time>2026-06-18T07:50:32.000Z</time>
        <extensions>
          <ns3:TrackPointExtension>
            <ns3:atemp>21.0</ns3:atemp>
          </ns3:TrackPointExtension>
        </extensions>
      </trkpt>
      <trkpt lat="42.54647704772651195526123046875" lon="19.78650310076773166656494140625">
        <ele>1373</ele>
        <time>2026-06-18T07:50:33.000Z</time>
        <extensions>
          <ns3:TrackPointExtension>
            <ns3:atemp>21.0</ns3:atemp>
          </ns3:TrackPointExtension>
        </extensions>
      </trkpt>
      <trkpt lat="42.5464903749525547027587890625" lon="19.78648348711431026458740234375">
        <ele>1373.4000244140625</ele>
        <time>2026-06-18T07:50:34.000Z</time>
        <extensions>
          <ns3:TrackPointExtension>
            <ns3:atemp>21.0</ns3:atemp>
          </ns3:TrackPointExtension>
        </extensions>
      </trkpt>
      <trkpt lat="42.54650764167308807373046875" lon="19.78646018542349338531494140625">
        <ele>1373.800048828125</ele>
        <time>2026-06-18T07:50:35.000Z</time>
        <extensions>
          <ns3:TrackPointExtension>
            <ns3:atemp>21.0</ns3:atemp>
          </ns3:TrackPointExtension>
        </extensions>
      </trkpt>
      <trkpt lat="42.54652046598494052886962890625" lon="19.7864394821226596832275390625">
        <ele>1374</ele>
        <time>2026-06-18T07:50:36.000Z</time>
        <extensions>
          <ns3:TrackPointExtension>
            <ns3:atemp>22.0</ns3:atemp>
          </ns3:TrackPointExtension>
        </extensions>
      </trkpt>
      <trkpt lat="42.54653672687709331512451171875" lon="19.7864133305847644805908203125">
        <ele>1374.199951171875</ele>
        <time>2026-06-18T07:50:37.000Z</time>
        <extensions>
          <ns3:TrackPointExtension>
            <ns3:atemp>22.0</ns3:atemp>
          </ns3:TrackPointExtension>
        </extensions>
      </trkpt>
      <trkpt lat="42.5465587712824344635009765625" lon="19.78638726286590099334716796875">
        <ele>1374.5999755859375</ele>
        <time>2026-06-18T07:50:38.000Z</time>
        <extensions>
          <ns3:TrackPointExtension>
            <ns3:atemp>22.0</ns3:atemp>
          </ns3:TrackPointExtension>
        </extensions>
      </trkpt>
      <trkpt lat="42.546579055488109588623046875" lon="19.78635859675705432891845703125">
        <ele>1374.800048828125</ele>
        <time>2026-06-18T07:50:39.000Z</time>
        <extensions>
          <ns3:TrackPointExtension>
            <ns3:atemp>22.0</ns3:atemp>
          </ns3:TrackPointExtension>
        </extensions>
      </trkpt>
      <trkpt lat="42.54660026170313358306884765625" lon="19.78633378632366657257080078125">
        <ele>1375</ele>
        <time>2026-06-18T07:50:40.000Z</time>
        <extensions>
          <ns3:TrackPointExtension>
            <ns3:atemp>21.0</ns3:atemp>
          </ns3:TrackPointExtension>
        </extensions>
      </trkpt>
      <trkpt lat="42.54662155173718929290771484375" lon="19.7863117419183254241943359375">
        <ele>1375.199951171875</ele>
        <time>2026-06-18T07:50:41.000Z</time>
        <extensions>
          <ns3:TrackPointExtension>
            <ns3:atemp>21.0</ns3:atemp>
          </ns3:TrackPointExtension>
        </extensions>
      </trkpt>
      <trkpt lat="42.54663915373384952545166015625" lon="19.78628533892333507537841796875">
        <ele>1375.199951171875</ele>
        <time>2026-06-18T07:50:42.000Z</time>
        <extensions>
          <ns3:TrackPointExtension>
            <ns3:atemp>21.0</ns3:atemp>
          </ns3:TrackPointExtension>
        </extensions>
      </trkpt>
      <trkpt lat="42.546654827892780303955078125" lon="19.786259941756725311279296875">
        <ele>1375.4000244140625</ele>
        <time>2026-06-18T07:50:43.000Z</time>
        <extensions>
          <ns3:TrackPointExtension>
            <ns3:atemp>21.0</ns3:atemp>
          </ns3:TrackPointExtension>
        </extensions>
      </trkpt>
      <trkpt lat="42.54667100496590137481689453125" lon="19.7862322814762592315673828125">
        <ele>1375.4000244140625</ele>
        <time>2026-06-18T07:50:44.000Z</time>
        <extensions>
          <ns3:TrackPointExtension>
            <ns3:atemp>22.0</ns3:atemp>
          </ns3:TrackPointExtension>
        </extensions>
      </trkpt>
      <trkpt lat="42.546687014400959014892578125" lon="19.78620420210063457489013671875">
        <ele>1375.5999755859375</ele>
        <time>2026-06-18T07:50:45.000Z</time>
        <extensions>
          <ns3:TrackPointExtension>
            <ns3:atemp>22.0</ns3:atemp>
          </ns3:TrackPointExtension>
        </extensions>
      </trkpt>
      <trkpt lat="42.54670101217925548553466796875" lon="19.786176122725009918212890625">
        <ele>1375.5999755859375</ele>
        <time>2026-06-18T07:50:46.000Z</time>
        <extensions>
          <ns3:TrackPointExtension>
            <ns3:atemp>22.0</ns3:atemp>
          </ns3:TrackPointExtension>
        </extensions>
      </trkpt>
      <trkpt lat="42.54671123810112476348876953125" lon="19.78615089319646358489990234375">
        <ele>1375.800048828125</ele>
        <time>2026-06-18T07:50:47.000Z</time>
        <extensions>
          <ns3:TrackPointExtension>
            <ns3:atemp>22.0</ns3:atemp>
          </ns3:TrackPointExtension>
        </extensions>
      </trkpt>
      <trkpt lat="42.54672867245972156524658203125" lon="19.7861239872872829437255859375">
        <ele>1375.800048828125</ele>
        <time>2026-06-18T07:50:48.000Z</time>
        <extensions>
          <ns3:TrackPointExtension>
            <ns3:atemp>21.0</ns3:atemp>
          </ns3:TrackPointExtension>
        </extensions>
      </trkpt>
      <trkpt lat="42.54674367606639862060546875" lon="19.7860961593687534332275390625">
        <ele>1375.800048828125</ele>
        <time>2026-06-18T07:50:49.000Z</time>
        <extensions>
          <ns3:TrackPointExtension>
            <ns3:atemp>22.0</ns3:atemp>
          </ns3:TrackPointExtension>
        </extensions>
      </trkpt>
      <trkpt lat="42.54675708711147308349609375" lon="19.78607210330665111541748046875">
        <ele>1375.800048828125</ele>
        <time>2026-06-18T07:50:50.000Z</time>
        <extensions>
          <ns3:TrackPointExtension>
            <ns3:atemp>22.0</ns3:atemp>
          </ns3:TrackPointExtension>
        </extensions>
      </trkpt>
      <trkpt lat="42.5467713363468647003173828125" lon="19.7860455326735973358154296875">
        <ele>1375.800048828125</ele>
        <time>2026-06-18T07:50:51.000Z</time>
        <extensions>
          <ns3:TrackPointExtension>
            <ns3:atemp>22.0</ns3:atemp>
          </ns3:TrackPointExtension>
        </extensions>
      </trkpt>
      <trkpt lat="42.54678315483033657073974609375" lon="19.786024577915668487548828125">
        <ele>1376</ele>
        <time>2026-06-18T07:50:52.000Z</time>
        <extensions>
          <ns3:TrackPointExtension>
            <ns3:atemp>22.0</ns3:atemp>
          </ns3:TrackPointExtension>
        </extensions>
      </trkpt>
      <trkpt lat="42.5467964820563793182373046875" lon="19.786003790795803070068359375">
        <ele>1376</ele>
        <time>2026-06-18T07:50:53.000Z</time>
        <extensions>
          <ns3:TrackPointExtension>
            <ns3:atemp>22.0</ns3:atemp>
          </ns3:TrackPointExtension>
        </extensions>
      </trkpt>
      <trkpt lat="42.546810396015644073486328125" lon="19.78599431924521923065185546875">
        <ele>1376.199951171875</ele>
        <time>2026-06-18T07:50:54.000Z</time>
        <extensions>
          <ns3:TrackPointExtension>
            <ns3:atemp>22.0</ns3:atemp>
          </ns3:TrackPointExtension>
        </extensions>
      </trkpt>
      <trkpt lat="42.54682707600295543670654296875" lon="19.78597537614405155181884765625">
        <ele>1376.199951171875</ele>
        <time>2026-06-18T07:50:55.000Z</time>
        <extensions>
          <ns3:TrackPointExtension>
            <ns3:atemp>22.0</ns3:atemp>
          </ns3:TrackPointExtension>
        </extensions>
      </trkpt>
      <trkpt lat="42.54684149287641048431396484375" lon="19.785961210727691650390625">
        <ele>1376.199951171875</ele>
        <time>2026-06-18T07:50:56.000Z</time>
        <extensions>
          <ns3:TrackPointExtension>
            <ns3:atemp>21.0</ns3:atemp>
          </ns3:TrackPointExtension>
        </extensions>
      </trkpt>
      <trkpt lat="42.546855323016643524169921875" lon="19.785938747227191925048828125">
        <ele>1376.199951171875</ele>
        <time>2026-06-18T07:50:57.000Z</time>
        <extensions>
          <ns3:TrackPointExtension>
            <ns3:atemp>21.0</ns3:atemp>
          </ns3:TrackPointExtension>
        </extensions>
      </trkpt>
      <trkpt lat="42.546872757375240325927734375" lon="19.78592290543019771575927734375">
        <ele>1376.199951171875</ele>
        <time>2026-06-18T07:50:58.000Z</time>
        <extensions>
          <ns3:TrackPointExtension>
            <ns3:atemp>21.0</ns3:atemp>
          </ns3:TrackPointExtension>
        </extensions>
      </trkpt>
      <trkpt lat="42.54689463414251804351806640625" lon="19.78590798564255237579345703125">
        <ele>1376.199951171875</ele>
        <time>2026-06-18T07:50:59.000Z</time>
        <extensions>
          <ns3:TrackPointExtension>
            <ns3:atemp>21.0</ns3:atemp>
          </ns3:TrackPointExtension>
        </extensions>
      </trkpt>
      <trkpt lat="42.54691156558692455291748046875" lon="19.78589080274105072021484375">
        <ele>1376.4000244140625</ele>
        <time>2026-06-18T07:51:00.000Z</time>
        <extensions>
          <ns3:TrackPointExtension>
            <ns3:atemp>21.0</ns3:atemp>
          </ns3:TrackPointExtension>
        </extensions>
      </trkpt>
      <trkpt lat="42.54693184979259967803955078125" lon="19.7858742065727710723876953125">
        <ele>1376.4000244140625</ele>
        <time>2026-06-18T07:51:01.000Z</time>
        <extensions>
          <ns3:TrackPointExtension>
            <ns3:atemp>21.0</ns3:atemp>
          </ns3:TrackPointExtension>
        </extensions>
      </trkpt>
      <trkpt lat="42.54695649258792400360107421875" lon="19.7858567722141742706298828125">
        <ele>1376.5999755859375</ele>
        <time>2026-06-18T07:51:02.000Z</time>
        <extensions>
          <ns3:TrackPointExtension>
            <ns3:atemp>21.0</ns3:atemp>
          </ns3:TrackPointExtension>
        </extensions>
      </trkpt>
      <trkpt lat="42.5469768606126308441162109375" lon="19.78583908639848232269287109375">
        <ele>1376.800048828125</ele>
        <time>2026-06-18T07:51:03.000Z</time>
        <extensions>
          <ns3:TrackPointExtension>
            <ns3:atemp>21.0</ns3:atemp>
          </ns3:TrackPointExtension>
        </extensions>
      </trkpt>
      <trkpt lat="42.54699722863733768463134765625" lon="19.78581997565925121307373046875">
        <ele>1377</ele>
        <time>2026-06-18T07:51:04.000Z</time>
        <extensions>
          <ns3:TrackPointExtension>
            <ns3:atemp>21.0</ns3:atemp>
          </ns3:TrackPointExtension>
        </extensions>
      </trkpt>
      <trkpt lat="42.54701835103332996368408203125" lon="19.78580069728195667266845703125">
        <ele>1377.199951171875</ele>
        <time>2026-06-18T07:51:05.000Z</time>
        <extensions>
          <ns3:TrackPointExtension>
            <ns3:atemp>22.0</ns3:atemp>
          </ns3:TrackPointExtension>
        </extensions>
      </trkpt>
      <trkpt lat="42.5470311753451824188232421875" lon="19.785781837999820709228515625">
        <ele>1377.199951171875</ele>
        <time>2026-06-18T07:51:06.000Z</time>
        <extensions>
          <ns3:TrackPointExtension>
            <ns3:atemp>21.0</ns3:atemp>
          </ns3:TrackPointExtension>
        </extensions>
      </trkpt>
      <trkpt lat="42.54704684950411319732666015625" lon="19.78575761429965496063232421875">
        <ele>1377.5999755859375</ele>
        <time>2026-06-18T07:51:07.000Z</time>
        <extensions>
          <ns3:TrackPointExtension>
            <ns3:atemp>21.0</ns3:atemp>
          </ns3:TrackPointExtension>
        </extensions>
      </trkpt>
      <trkpt lat="42.547060512006282806396484375" lon="19.78572811000049114227294921875">
        <ele>1377.800048828125</ele>
        <time>2026-06-18T07:51:08.000Z</time>
        <extensions>
          <ns3:TrackPointExtension>
            <ns3:atemp>21.0</ns3:atemp>
          </ns3:TrackPointExtension>
        </extensions>
      </trkpt>
      <trkpt lat="42.54707735963165760040283203125" lon="19.785698354244232177734375">
        <ele>1378</ele>
        <time>2026-06-18T07:51:09.000Z</time>
        <extensions>
          <ns3:TrackPointExtension>
            <ns3:atemp>21.0</ns3:atemp>
          </ns3:TrackPointExtension>
        </extensions>
      </trkpt>
      <trkpt lat="42.54709294997155666351318359375" lon="19.785665161907672882080078125">
        <ele>1378.199951171875</ele>
        <time>2026-06-18T07:51:10.000Z</time>
        <extensions>
          <ns3:TrackPointExtension>
            <ns3:atemp>21.0</ns3:atemp>
          </ns3:TrackPointExtension>
        </extensions>
      </trkpt>
      <trkpt lat="42.5471051037311553955078125" lon="19.78564294986426830291748046875">
        <ele>1378.4000244140625</ele>
        <time>2026-06-18T07:51:11.000Z</time>
        <extensions>
          <ns3:TrackPointExtension>
            <ns3:atemp>22.0</ns3:atemp>
          </ns3:TrackPointExtension>
        </extensions>
      </trkpt>
      <trkpt lat="42.54711926914751529693603515625" lon="19.78562015108764171600341796875">
        <ele>1378.5999755859375</ele>
        <time>2026-06-18T07:51:12.000Z</time>
        <extensions>
          <ns3:TrackPointExtension>
            <ns3:atemp>22.0</ns3:atemp>
          </ns3:TrackPointExtension>
        </extensions>
      </trkpt>
      <trkpt lat="42.5471337698400020599365234375" lon="19.78559399954974651336669921875">
        <ele>1378.5999755859375</ele>
        <time>2026-06-18T07:51:13.000Z</time>
        <extensions>
          <ns3:TrackPointExtension>
            <ns3:atemp>22.0</ns3:atemp>
          </ns3:TrackPointExtension>
        </extensions>
      </trkpt>
      <trkpt lat="42.54715145565569400787353515625" lon="19.7855709493160247802734375">
        <ele>1378.800048828125</ele>
        <time>2026-06-18T07:51:14.000Z</time>
        <extensions>
          <ns3:TrackPointExtension>
            <ns3:atemp>22.0</ns3:atemp>
          </ns3:TrackPointExtension>
        </extensions>
      </trkpt>
      <trkpt lat="42.5471683032810688018798828125" lon="19.78554286994040012359619140625">
        <ele>1379.199951171875</ele>
        <time>2026-06-18T07:51:15.000Z</time>
        <extensions>
          <ns3:TrackPointExtension>
            <ns3:atemp>21.0</ns3:atemp>
          </ns3:TrackPointExtension>
        </extensions>
      </trkpt>
      <trkpt lat="42.54718582145869731903076171875" lon="19.78551537729799747467041015625">
        <ele>1379.4000244140625</ele>
        <time>2026-06-18T07:51:16.000Z</time>
        <extensions>
          <ns3:TrackPointExtension>
            <ns3:atemp>22.0</ns3:atemp>
          </ns3:TrackPointExtension>
        </extensions>
      </trkpt>
      <trkpt lat="42.5472021661698818206787109375" lon="19.7854946739971637725830078125">
        <ele>1379.800048828125</ele>
        <time>2026-06-18T07:51:17.000Z</time>
        <extensions>
          <ns3:TrackPointExtension>
            <ns3:atemp>22.0</ns3:atemp>
          </ns3:TrackPointExtension>
        </extensions>
      </trkpt>
      <trkpt lat="42.54722177982330322265625" lon="19.7854748927056789398193359375">
        <ele>1380.199951171875</ele>
        <time>2026-06-18T07:51:18.000Z</time>
        <extensions>
          <ns3:TrackPointExtension>
            <ns3:atemp>22.0</ns3:atemp>
          </ns3:TrackPointExtension>
        </extensions>
      </trkpt>
      <trkpt lat="42.5472410582005977630615234375" lon="19.78545963764190673828125">
        <ele>1380.4000244140625</ele>
        <time>2026-06-18T07:51:19.000Z</time>
        <extensions>
          <ns3:TrackPointExtension>
            <ns3:atemp>22.0</ns3:atemp>
          </ns3:TrackPointExtension>
        </extensions>
      </trkpt>
      <trkpt lat="42.54725924693048000335693359375" lon="19.7854376770555973052978515625">
        <ele>1380.800048828125</ele>
        <time>2026-06-18T07:51:20.000Z</time>
        <extensions>
          <ns3:TrackPointExtension>
            <ns3:atemp>22.0</ns3:atemp>
          </ns3:TrackPointExtension>
        </extensions>
      </trkpt>
      <trkpt lat="42.5472772680222988128662109375" lon="19.78541781194508075714111328125">
        <ele>1381</ele>
        <time>2026-06-18T07:51:21.000Z</time>
        <extensions>
          <ns3:TrackPointExtension>
            <ns3:atemp>22.0</ns3:atemp>
          </ns3:TrackPointExtension>
        </extensions>
      </trkpt>
      <trkpt lat="42.5472940318286418914794921875" lon="19.78539668954908847808837890625">
        <ele>1381.199951171875</ele>
        <time>2026-06-18T07:51:22.000Z</time>
        <extensions>
          <ns3:TrackPointExtension>
            <ns3:atemp>22.0</ns3:atemp>
          </ns3:TrackPointExtension>
        </extensions>
      </trkpt>
      <trkpt lat="42.54731222055852413177490234375" lon="19.78537506423890590667724609375">
        <ele>1381.5999755859375</ele>
        <time>2026-06-18T07:51:23.000Z</time>
        <extensions>
          <ns3:TrackPointExtension>
            <ns3:atemp>21.0</ns3:atemp>
          </ns3:TrackPointExtension>
        </extensions>
      </trkpt>
      <trkpt lat="42.547326050698757171630859375" lon="19.78534807451069355010986328125">
        <ele>1381.800048828125</ele>
        <time>2026-06-18T07:51:24.000Z</time>
        <extensions>
          <ns3:TrackPointExtension>
            <ns3:atemp>22.0</ns3:atemp>
          </ns3:TrackPointExtension>
        </extensions>
      </trkpt>
      <trkpt lat="42.54733912646770477294921875" lon="19.78532527573406696319580078125">
        <ele>1382.199951171875</ele>
        <time>2026-06-18T07:51:25.000Z</time>
        <extensions>
          <ns3:TrackPointExtension>
            <ns3:atemp>22.0</ns3:atemp>
          </ns3:TrackPointExtension>
        </extensions>
      </trkpt>
      <trkpt lat="42.54735521972179412841796875" lon="19.7853005491197109222412109375">
        <ele>1382.4000244140625</ele>
        <time>2026-06-18T07:51:26.000Z</time>
        <extensions>
          <ns3:TrackPointExtension>
            <ns3:atemp>22.0</ns3:atemp>
          </ns3:TrackPointExtension>
        </extensions>
      </trkpt>
      <trkpt lat="42.54737223498523235321044921875" lon="19.785279594361782073974609375">
        <ele>1382.800048828125</ele>
        <time>2026-06-18T07:51:27.000Z</time>
        <extensions>
          <ns3:TrackPointExtension>
            <ns3:atemp>22.0</ns3:atemp>
          </ns3:TrackPointExtension>
        </extensions>
      </trkpt>
      <trkpt lat="42.5473791919648647308349609375" lon="19.785259477794170379638671875">
        <ele>1383</ele>
        <time>2026-06-18T07:51:28.000Z</time>
        <extensions>
          <ns3:TrackPointExtension>
            <ns3:atemp>22.0</ns3:atemp>
          </ns3:TrackPointExtension>
        </extensions>
      </trkpt>
      <trkpt lat="42.54739436320960521697998046875" lon="19.785229302942752838134765625">
        <ele>1383.4000244140625</ele>
        <time>2026-06-18T07:51:29.000Z</time>
        <extensions>
          <ns3:TrackPointExtension>
            <ns3:atemp>22.0</ns3:atemp>
          </ns3:TrackPointExtension>
        </extensions>
      </trkpt>
      <trkpt lat="42.547405846416950225830078125" lon="19.78520147502422332763671875">
        <ele>1383.5999755859375</ele>
        <time>2026-06-18T07:51:30.000Z</time>
        <extensions>
          <ns3:TrackPointExtension>
            <ns3:atemp>22.0</ns3:atemp>
          </ns3:TrackPointExtension>
        </extensions>
      </trkpt>
      <trkpt lat="42.5474211014807224273681640625" lon="19.78517758660018444061279296875">
        <ele>1383.800048828125</ele>
        <time>2026-06-18T07:51:31.000Z</time>
        <extensions>
          <ns3:TrackPointExtension>
            <ns3:atemp>22.0</ns3:atemp>
          </ns3:TrackPointExtension>
        </extensions>
      </trkpt>
      <trkpt lat="42.54743442870676517486572265625" lon="19.78515747003257274627685546875">
        <ele>1384</ele>
        <time>2026-06-18T07:51:32.000Z</time>
        <extensions>
          <ns3:TrackPointExtension>
            <ns3:atemp>22.0</ns3:atemp>
          </ns3:TrackPointExtension>
        </extensions>
      </trkpt>
      <trkpt lat="42.5474495999515056610107421875" lon="19.785144813358783721923828125">
        <ele>1384.199951171875</ele>
        <time>2026-06-18T07:51:33.000Z</time>
        <extensions>
          <ns3:TrackPointExtension>
            <ns3:atemp>22.0</ns3:atemp>
          </ns3:TrackPointExtension>
        </extensions>
      </trkpt>
      <trkpt lat="42.547465525567531585693359375" lon="19.7851292230188846588134765625">
        <ele>1384.4000244140625</ele>
        <time>2026-06-18T07:51:34.000Z</time>
        <extensions>
          <ns3:TrackPointExtension>
            <ns3:atemp>22.0</ns3:atemp>
          </ns3:TrackPointExtension>
        </extensions>
      </trkpt>
      <trkpt lat="42.547480277717113494873046875" lon="19.785112626850605010986328125">
        <ele>1384.800048828125</ele>
        <time>2026-06-18T07:51:35.000Z</time>
        <extensions>
          <ns3:TrackPointExtension>
            <ns3:atemp>22.0</ns3:atemp>
          </ns3:TrackPointExtension>
        </extensions>
      </trkpt>
      <trkpt lat="42.54749461077153682708740234375" lon="19.78509628213942050933837890625">
        <ele>1385</ele>
        <time>2026-06-18T07:51:36.000Z</time>
        <extensions>
          <ns3:TrackPointExtension>
            <ns3:atemp>22.0</ns3:atemp>
          </ns3:TrackPointExtension>
        </extensions>
      </trkpt>
      <trkpt lat="42.547507099807262420654296875" lon="19.78507985360920429229736328125">
        <ele>1385.4000244140625</ele>
        <time>2026-06-18T07:51:37.000Z</time>
        <extensions>
          <ns3:TrackPointExtension>
            <ns3:atemp>22.0</ns3:atemp>
          </ns3:TrackPointExtension>
        </extensions>
      </trkpt>
      <trkpt lat="42.54751590080559253692626953125" lon="19.78507339954376220703125">
        <ele>1385.800048828125</ele>
        <time>2026-06-18T07:51:38.000Z</time>
        <extensions>
          <ns3:TrackPointExtension>
            <ns3:atemp>22.0</ns3:atemp>
          </ns3:TrackPointExtension>
        </extensions>
      </trkpt>
      <trkpt lat="42.54752956330776214599609375" lon="19.78506107814610004425048828125">
        <ele>1386</ele>
        <time>2026-06-18T07:51:39.000Z</time>
        <extensions>
          <ns3:TrackPointExtension>
            <ns3:atemp>22.0</ns3:atemp>
          </ns3:TrackPointExtension>
        </extensions>
      </trkpt>
      <trkpt lat="42.547545321285724639892578125" lon="19.78505051694810390472412109375">
        <ele>1386.4000244140625</ele>
        <time>2026-06-18T07:51:40.000Z</time>
        <extensions>
          <ns3:TrackPointExtension>
            <ns3:atemp>22.0</ns3:atemp>
          </ns3:TrackPointExtension>
        </extensions>
      </trkpt>
      <trkpt lat="42.54756049253046512603759765625" lon="19.78503878228366374969482421875">
        <ele>1386.800048828125</ele>
        <time>2026-06-18T07:51:41.000Z</time>
        <extensions>
          <ns3:TrackPointExtension>
            <ns3:atemp>22.0</ns3:atemp>
          </ns3:TrackPointExtension>
        </extensions>
      </trkpt>
      <trkpt lat="42.547578178346157073974609375" lon="19.7850232757627964019775390625">
        <ele>1387</ele>
        <time>2026-06-18T07:51:42.000Z</time>
        <extensions>
          <ns3:TrackPointExtension>
            <ns3:atemp>22.0</ns3:atemp>
          </ns3:TrackPointExtension>
        </extensions>
      </trkpt>
      <trkpt lat="42.54759393632411956787109375" lon="19.7850145585834980010986328125">
        <ele>1387.199951171875</ele>
        <time>2026-06-18T07:51:43.000Z</time>
        <extensions>
          <ns3:TrackPointExtension>
            <ns3:atemp>22.0</ns3:atemp>
          </ns3:TrackPointExtension>
        </extensions>
      </trkpt>
      <trkpt lat="42.5476152263581752777099609375" lon="19.7850014828145503997802734375">
        <ele>1387.5999755859375</ele>
        <time>2026-06-18T07:51:44.000Z</time>
        <extensions>
          <ns3:TrackPointExtension>
            <ns3:atemp>22.0</ns3:atemp>
          </ns3:TrackPointExtension>
        </extensions>
      </trkpt>
      <trkpt lat="42.5476286374032497406005859375" lon="19.7849867306649684906005859375">
        <ele>1387.800048828125</ele>
        <time>2026-06-18T07:51:45.000Z</time>
        <extensions>
          <ns3:TrackPointExtension>
            <ns3:atemp>22.0</ns3:atemp>
          </ns3:TrackPointExtension>
        </extensions>
      </trkpt>
      <trkpt lat="42.547644563019275665283203125" lon="19.78497575037181377410888671875">
        <ele>1388.199951171875</ele>
        <time>2026-06-18T07:51:46.000Z</time>
        <extensions>
          <ns3:TrackPointExtension>
            <ns3:atemp>22.0</ns3:atemp>
          </ns3:TrackPointExtension>
        </extensions>
      </trkpt>
      <trkpt lat="42.5476651825010776519775390625" lon="19.78496753610670566558837890625">
        <ele>1388.5999755859375</ele>
        <time>2026-06-18T07:51:47.000Z</time>
        <extensions>
          <ns3:TrackPointExtension>
            <ns3:atemp>22.0</ns3:atemp>
          </ns3:TrackPointExtension>
        </extensions>
      </trkpt>
      <trkpt lat="42.5476839579641819000244140625" lon="19.784957058727741241455078125">
        <ele>1388.800048828125</ele>
        <time>2026-06-18T07:51:48.000Z</time>
        <extensions>
          <ns3:TrackPointExtension>
            <ns3:atemp>22.0</ns3:atemp>
          </ns3:TrackPointExtension>
        </extensions>
      </trkpt>
      <trkpt lat="42.5477030687034130096435546875" lon="19.784951694309711456298828125">
        <ele>1389</ele>
        <time>2026-06-18T07:51:49.000Z</time>
        <extensions>
          <ns3:TrackPointExtension>
            <ns3:atemp>22.0</ns3:atemp>
          </ns3:TrackPointExtension>
        </extensions>
      </trkpt>
      <trkpt lat="42.547721676528453826904296875" lon="19.78494691662490367889404296875">
        <ele>1389.4000244140625</ele>
        <time>2026-06-18T07:51:50.000Z</time>
        <extensions>
          <ns3:TrackPointExtension>
            <ns3:atemp>22.0</ns3:atemp>
          </ns3:TrackPointExtension>
        </extensions>
      </trkpt>
      <trkpt lat="42.54774154163897037506103515625" lon="19.78493836708366870880126953125">
        <ele>1389.800048828125</ele>
        <time>2026-06-18T07:51:51.000Z</time>
        <extensions>
          <ns3:TrackPointExtension>
            <ns3:atemp>22.0</ns3:atemp>
          </ns3:TrackPointExtension>
        </extensions>
      </trkpt>
      <trkpt lat="42.54775595851242542266845703125" lon="19.78492948226630687713623046875">
        <ele>1390</ele>
        <time>2026-06-18T07:51:52.000Z</time>
        <extensions>
          <ns3:TrackPointExtension>
            <ns3:atemp>22.0</ns3:atemp>
          </ns3:TrackPointExtension>
        </extensions>
      </trkpt>
      <trkpt lat="42.5477738119661808013916015625" lon="19.784928224980831146240234375">
        <ele>1390.4000244140625</ele>
        <time>2026-06-18T07:51:53.000Z</time>
        <extensions>
          <ns3:TrackPointExtension>
            <ns3:atemp>22.0</ns3:atemp>
          </ns3:TrackPointExtension>
        </extensions>
      </trkpt>
      <trkpt lat="42.54779853858053684234619140625" lon="19.7849226929247379302978515625">
        <ele>1390.800048828125</ele>
        <time>2026-06-18T07:51:54.000Z</time>
        <extensions>
          <ns3:TrackPointExtension>
            <ns3:atemp>22.0</ns3:atemp>
          </ns3:TrackPointExtension>
        </extensions>
      </trkpt>
      <trkpt lat="42.5478180684149265289306640625" lon="19.7849245369434356689453125">
        <ele>1391</ele>
        <time>2026-06-18T07:51:55.000Z</time>
        <extensions>
          <ns3:TrackPointExtension>
            <ns3:atemp>22.0</ns3:atemp>
          </ns3:TrackPointExtension>
        </extensions>
      </trkpt>
      <trkpt lat="42.54784061573445796966552734375" lon="19.7849230282008647918701171875">
        <ele>1391.4000244140625</ele>
        <time>2026-06-18T07:51:56.000Z</time>
        <extensions>
          <ns3:TrackPointExtension>
            <ns3:atemp>22.0</ns3:atemp>
          </ns3:TrackPointExtension>
        </extensions>
      </trkpt>
      <trkpt lat="42.54786123521625995635986328125" lon="19.78492512367665767669677734375">
        <ele>1391.800048828125</ele>
        <time>2026-06-18T07:51:57.000Z</time>
        <extensions>
          <ns3:TrackPointExtension>
            <ns3:atemp>22.0</ns3:atemp>
          </ns3:TrackPointExtension>
        </extensions>
      </trkpt>
      <trkpt lat="42.547882609069347381591796875" lon="19.784927554428577423095703125">
        <ele>1392</ele>
        <time>2026-06-18T07:51:58.000Z</time>
        <extensions>
          <ns3:TrackPointExtension>
            <ns3:atemp>22.0</ns3:atemp>
          </ns3:TrackPointExtension>
        </extensions>
      </trkpt>
      <trkpt lat="42.54790532402694225311279296875" lon="19.7849327512085437774658203125">
        <ele>1392.199951171875</ele>
        <time>2026-06-18T07:51:59.000Z</time>
        <extensions>
          <ns3:TrackPointExtension>
            <ns3:atemp>22.0</ns3:atemp>
          </ns3:TrackPointExtension>
        </extensions>
      </trkpt>
      <trkpt lat="42.54792653024196624755859375" lon="19.784939624369144439697265625">
        <ele>1392.4000244140625</ele>
        <time>2026-06-18T07:52:00.000Z</time>
        <extensions>
          <ns3:TrackPointExtension>
            <ns3:atemp>22.0</ns3:atemp>
          </ns3:TrackPointExtension>
        </extensions>
      </trkpt>
      <trkpt lat="42.54794438369572162628173828125" lon="19.7849433124065399169921875">
        <ele>1392.800048828125</ele>
        <time>2026-06-18T07:52:01.000Z</time>
        <extensions>
          <ns3:TrackPointExtension>
            <ns3:atemp>22.0</ns3:atemp>
          </ns3:TrackPointExtension>
        </extensions>
      </trkpt>
      <trkpt lat="42.54796349443495273590087890625" lon="19.7849518619477748870849609375">
        <ele>1393</ele>
        <time>2026-06-18T07:52:02.000Z</time>
        <extensions>
          <ns3:TrackPointExtension>
            <ns3:atemp>22.0</ns3:atemp>
          </ns3:TrackPointExtension>
        </extensions>
      </trkpt>
      <trkpt lat="42.5479848682880401611328125" lon="19.78496116586029529571533203125">
        <ele>1393.199951171875</ele>
        <time>2026-06-18T07:52:03.000Z</time>
        <extensions>
          <ns3:TrackPointExtension>
            <ns3:atemp>22.0</ns3:atemp>
          </ns3:TrackPointExtension>
        </extensions>
      </trkpt>
      <trkpt lat="42.54800054244697093963623046875" lon="19.784972481429576873779296875">
        <ele>1393.5999755859375</ele>
        <time>2026-06-18T07:52:04.000Z</time>
        <extensions>
          <ns3:TrackPointExtension>
            <ns3:atemp>22.0</ns3:atemp>
          </ns3:TrackPointExtension>
        </extensions>
      </trkpt>
      <trkpt lat="42.5480195693671703338623046875" lon="19.78498245589435100555419921875">
        <ele>1393.800048828125</ele>
        <time>2026-06-18T07:52:05.000Z</time>
        <extensions>
          <ns3:TrackPointExtension>
            <ns3:atemp>22.0</ns3:atemp>
          </ns3:TrackPointExtension>
        </extensions>
      </trkpt>
      <trkpt lat="42.54804127849638462066650390625" lon="19.78498983196914196014404296875">
        <ele>1394</ele>
        <time>2026-06-18T07:52:06.000Z</time>
        <extensions>
          <ns3:TrackPointExtension>
            <ns3:atemp>22.0</ns3:atemp>
          </ns3:TrackPointExtension>
        </extensions>
      </trkpt>
      <trkpt lat="42.5480621494352817535400390625" lon="19.78500223718583583831787109375">
        <ele>1394.199951171875</ele>
        <time>2026-06-18T07:52:07.000Z</time>
        <extensions>
          <ns3:TrackPointExtension>
            <ns3:atemp>22.0</ns3:atemp>
          </ns3:TrackPointExtension>
        </extensions>
      </trkpt>
      <trkpt lat="42.5480846129357814788818359375" lon="19.7850189171731472015380859375">
        <ele>1394.4000244140625</ele>
        <time>2026-06-18T07:52:08.000Z</time>
        <extensions>
          <ns3:TrackPointExtension>
            <ns3:atemp>22.0</ns3:atemp>
          </ns3:TrackPointExtension>
        </extensions>
      </trkpt>
      <trkpt lat="42.54810112528502941131591796875" lon="19.78503744117915630340576171875">
        <ele>1394.800048828125</ele>
        <time>2026-06-18T07:52:09.000Z</time>
        <extensions>
          <ns3:TrackPointExtension>
            <ns3:atemp>22.0</ns3:atemp>
          </ns3:TrackPointExtension>
        </extensions>
      </trkpt>
      <trkpt lat="42.5481181405484676361083984375" lon="19.7850534506142139434814453125">
        <ele>1395</ele>
        <time>2026-06-18T07:52:10.000Z</time>
        <extensions>
          <ns3:TrackPointExtension>
            <ns3:atemp>22.0</ns3:atemp>
          </ns3:TrackPointExtension>
        </extensions>
      </trkpt>
      <trkpt lat="42.54813213832676410675048828125" lon="19.785073734819889068603515625">
        <ele>1395.199951171875</ele>
        <time>2026-06-18T07:52:11.000Z</time>
        <extensions>
          <ns3:TrackPointExtension>
            <ns3:atemp>22.0</ns3:atemp>
          </ns3:TrackPointExtension>
        </extensions>
      </trkpt>
      <trkpt lat="42.5481484830379486083984375" lon="19.78509225882589817047119140625">
        <ele>1395.4000244140625</ele>
        <time>2026-06-18T07:52:12.000Z</time>
        <extensions>
          <ns3:TrackPointExtension>
            <ns3:atemp>22.0</ns3:atemp>
          </ns3:TrackPointExtension>
        </extensions>
      </trkpt>
      <trkpt lat="42.54816516302525997161865234375" lon="19.78511371649801731109619140625">
        <ele>1395.5999755859375</ele>
        <time>2026-06-18T07:52:13.000Z</time>
        <extensions>
          <ns3:TrackPointExtension>
            <ns3:atemp>22.0</ns3:atemp>
          </ns3:TrackPointExtension>
        </extensions>
      </trkpt>
      <trkpt lat="42.54817974753677845001220703125" lon="19.78513282723724842071533203125">
        <ele>1395.800048828125</ele>
        <time>2026-06-18T07:52:14.000Z</time>
        <extensions>
          <ns3:TrackPointExtension>
            <ns3:atemp>22.0</ns3:atemp>
          </ns3:TrackPointExtension>
        </extensions>
      </trkpt>
      <trkpt lat="42.5481979362666606903076171875" lon="19.78514506481587886810302734375">
        <ele>1396</ele>
        <time>2026-06-18T07:52:15.000Z</time>
        <extensions>
          <ns3:TrackPointExtension>
            <ns3:atemp>22.0</ns3:atemp>
          </ns3:TrackPointExtension>
        </extensions>
      </trkpt>
      <trkpt lat="42.54821754992008209228515625" lon="19.7851593978703022003173828125">
        <ele>1396.199951171875</ele>
        <time>2026-06-18T07:52:16.000Z</time>
        <extensions>
          <ns3:TrackPointExtension>
            <ns3:atemp>22.0</ns3:atemp>
          </ns3:TrackPointExtension>
        </extensions>
      </trkpt>
      <trkpt lat="42.54824244417250156402587890625" lon="19.7851640917360782623291015625">
        <ele>1396.4000244140625</ele>
        <time>2026-06-18T07:52:17.000Z</time>
        <extensions>
          <ns3:TrackPointExtension>
            <ns3:atemp>22.0</ns3:atemp>
          </ns3:TrackPointExtension>
        </extensions>
      </trkpt>
      <trkpt lat="42.54826054908335208892822265625" lon="19.78516987524926662445068359375">
        <ele>1396.800048828125</ele>
        <time>2026-06-18T07:52:18.000Z</time>
        <extensions>
          <ns3:TrackPointExtension>
            <ns3:atemp>22.0</ns3:atemp>
          </ns3:TrackPointExtension>
        </extensions>
      </trkpt>
      <trkpt lat="42.5482794083654880523681640625" lon="19.78517959825694561004638671875">
        <ele>1397.199951171875</ele>
        <time>2026-06-18T07:52:19.000Z</time>
        <extensions>
          <ns3:TrackPointExtension>
            <ns3:atemp>22.0</ns3:atemp>
          </ns3:TrackPointExtension>
        </extensions>
      </trkpt>
      <trkpt lat="42.54829960875213146209716796875" lon="19.7851860523223876953125">
        <ele>1397.5999755859375</ele>
        <time>2026-06-18T07:52:20.000Z</time>
        <extensions>
          <ns3:TrackPointExtension>
            <ns3:atemp>22.0</ns3:atemp>
          </ns3:TrackPointExtension>
        </extensions>
      </trkpt>
      <trkpt lat="42.54831838421523571014404296875" lon="19.7851882316172122955322265625">
        <ele>1398</ele>
        <time>2026-06-18T07:52:21.000Z</time>
        <extensions>
          <ns3:TrackPointExtension>
            <ns3:atemp>22.0</ns3:atemp>
          </ns3:TrackPointExtension>
        </extensions>
      </trkpt>
      <trkpt lat="42.54833699204027652740478515625" lon="19.78519284166395664215087890625">
        <ele>1398.4000244140625</ele>
        <time>2026-06-18T07:52:22.000Z</time>
        <extensions>
          <ns3:TrackPointExtension>
            <ns3:atemp>22.0</ns3:atemp>
          </ns3:TrackPointExtension>
        </extensions>
      </trkpt>
      <trkpt lat="42.54835694096982479095458984375" lon="19.78519552387297153472900390625">
        <ele>1398.5999755859375</ele>
        <time>2026-06-18T07:52:23.000Z</time>
        <extensions>
          <ns3:TrackPointExtension>
            <ns3:atemp>22.0</ns3:atemp>
          </ns3:TrackPointExtension>
        </extensions>
      </trkpt>
      <trkpt lat="42.54837521351873874664306640625" lon="19.78520105592906475067138671875">
        <ele>1399</ele>
        <time>2026-06-18T07:52:24.000Z</time>
        <extensions>
          <ns3:TrackPointExtension>
            <ns3:atemp>22.0</ns3:atemp>
          </ns3:TrackPointExtension>
        </extensions>
      </trkpt>
      <trkpt lat="42.5483920611441135406494140625" lon="19.78520683944225311279296875">
        <ele>1399.4000244140625</ele>
        <time>2026-06-18T07:52:25.000Z</time>
        <extensions>
          <ns3:TrackPointExtension>
            <ns3:atemp>22.0</ns3:atemp>
          </ns3:TrackPointExtension>
        </extensions>
      </trkpt>
      <trkpt lat="42.54841108806431293487548828125" lon="19.78521044366061687469482421875">
        <ele>1399.800048828125</ele>
        <time>2026-06-18T07:52:26.000Z</time>
        <extensions>
          <ns3:TrackPointExtension>
            <ns3:atemp>22.0</ns3:atemp>
          </ns3:TrackPointExtension>
        </extensions>
      </trkpt>
      <trkpt lat="42.54842810332775115966796875" lon="19.78521329350769519805908203125">
        <ele>1400</ele>
        <time>2026-06-18T07:52:27.000Z</time>
        <extensions>
          <ns3:TrackPointExtension>
            <ns3:atemp>22.0</ns3:atemp>
          </ns3:TrackPointExtension>
        </extensions>
      </trkpt>
      <trkpt lat="42.5484497286379337310791015625" lon="19.78521664626896381378173828125">
        <ele>1400.4000244140625</ele>
        <time>2026-06-18T07:52:28.000Z</time>
        <extensions>
          <ns3:TrackPointExtension>
            <ns3:atemp>22.0</ns3:atemp>
          </ns3:TrackPointExtension>
        </extensions>
      </trkpt>
      <trkpt lat="42.54847101867198944091796875" lon="19.7852227650582790374755859375">
        <ele>1400.800048828125</ele>
        <time>2026-06-18T07:52:29.000Z</time>
        <extensions>
          <ns3:TrackPointExtension>
            <ns3:atemp>22.0</ns3:atemp>
          </ns3:TrackPointExtension>
        </extensions>
      </trkpt>
      <trkpt lat="42.54849406890571117401123046875" lon="19.7852288000285625457763671875">
        <ele>1401.4000244140625</ele>
        <time>2026-06-18T07:52:30.000Z</time>
        <extensions>
          <ns3:TrackPointExtension>
            <ns3:atemp>22.0</ns3:atemp>
          </ns3:TrackPointExtension>
        </extensions>
      </trkpt>
      <trkpt lat="42.54851418547332286834716796875" lon="19.7852341644465923309326171875">
        <ele>1401.5999755859375</ele>
        <time>2026-06-18T07:52:31.000Z</time>
        <extensions>
          <ns3:TrackPointExtension>
            <ns3:atemp>22.0</ns3:atemp>
          </ns3:TrackPointExtension>
        </extensions>
      </trkpt>
      <trkpt lat="42.54854075610637664794921875" lon="19.78523709811270236968994140625">
        <ele>1401.800048828125</ele>
        <time>2026-06-18T07:52:32.000Z</time>
        <extensions>
          <ns3:TrackPointExtension>
            <ns3:atemp>22.0</ns3:atemp>
          </ns3:TrackPointExtension>
        </extensions>
      </trkpt>
      <trkpt lat="42.54856129176914691925048828125" lon="19.785237014293670654296875">
        <ele>1402</ele>
        <time>2026-06-18T07:52:33.000Z</time>
        <extensions>
          <ns3:TrackPointExtension>
            <ns3:atemp>22.0</ns3:atemp>
          </ns3:TrackPointExtension>
        </extensions>
      </trkpt>
      <trkpt lat="42.54858375526964664459228515625" lon="19.78523894213140010833740234375">
        <ele>1402</ele>
        <time>2026-06-18T07:52:34.000Z</time>
        <extensions>
          <ns3:TrackPointExtension>
            <ns3:atemp>22.0</ns3:atemp>
          </ns3:TrackPointExtension>
        </extensions>
      </trkpt>
      <trkpt lat="42.5486059673130512237548828125" lon="19.78523592464625835418701171875">
        <ele>1402.199951171875</ele>
        <time>2026-06-18T07:52:35.000Z</time>
        <extensions>
          <ns3:TrackPointExtension>
            <ns3:atemp>22.0</ns3:atemp>
          </ns3:TrackPointExtension>
        </extensions>
      </trkpt>
      <trkpt lat="42.548628263175487518310546875" lon="19.78523978032171726226806640625">
        <ele>1402.4000244140625</ele>
        <time>2026-06-18T07:52:36.000Z</time>
        <extensions>
          <ns3:TrackPointExtension>
            <ns3:atemp>22.0</ns3:atemp>
          </ns3:TrackPointExtension>
        </extensions>
      </trkpt>
      <trkpt lat="42.54864670336246490478515625" lon="19.785236008465290069580078125">
        <ele>1402.800048828125</ele>
        <time>2026-06-18T07:52:37.000Z</time>
        <extensions>
          <ns3:TrackPointExtension>
            <ns3:atemp>22.0</ns3:atemp>
          </ns3:TrackPointExtension>
        </extensions>
      </trkpt>
      <trkpt lat="42.54866707138717174530029296875" lon="19.7852314822375774383544921875">
        <ele>1403</ele>
        <time>2026-06-18T07:52:38.000Z</time>
        <extensions>
          <ns3:TrackPointExtension>
            <ns3:atemp>22.0</ns3:atemp>
          </ns3:TrackPointExtension>
        </extensions>
      </trkpt>
      <trkpt lat="42.54868919961154460906982421875" lon="19.78523139841854572296142578125">
        <ele>1403.199951171875</ele>
        <time>2026-06-18T07:52:39.000Z</time>
        <extensions>
          <ns3:TrackPointExtension>
            <ns3:atemp>22.0</ns3:atemp>
          </ns3:TrackPointExtension>
        </extensions>
      </trkpt>
      <trkpt lat="42.54871300421655178070068359375" lon="19.7852301411330699920654296875">
        <ele>1403.4000244140625</ele>
        <time>2026-06-18T07:52:40.000Z</time>
        <extensions>
          <ns3:TrackPointExtension>
            <ns3:atemp>22.0</ns3:atemp>
          </ns3:TrackPointExtension>
        </extensions>
      </trkpt>
      <trkpt lat="42.54873043857514858245849609375" lon="19.78522603400051593780517578125">
        <ele>1403.800048828125</ele>
        <time>2026-06-18T07:52:41.000Z</time>
        <extensions>
          <ns3:TrackPointExtension>
            <ns3:atemp>22.0</ns3:atemp>
          </ns3:TrackPointExtension>
        </extensions>
      </trkpt>
      <trkpt lat="42.54874602891504764556884765625" lon="19.78522184304893016815185546875">
        <ele>1404</ele>
        <time>2026-06-18T07:52:42.000Z</time>
        <extensions>
          <ns3:TrackPointExtension>
            <ns3:atemp>22.0</ns3:atemp>
          </ns3:TrackPointExtension>
        </extensions>
      </trkpt>
      <trkpt lat="42.54876337945461273193359375" lon="19.78521756827831268310546875">
        <ele>1404.199951171875</ele>
        <time>2026-06-18T07:52:43.000Z</time>
        <extensions>
          <ns3:TrackPointExtension>
            <ns3:atemp>22.0</ns3:atemp>
          </ns3:TrackPointExtension>
        </extensions>
      </trkpt>
      <trkpt lat="42.548785507678985595703125" lon="19.78521664626896381378173828125">
        <ele>1404.5999755859375</ele>
        <time>2026-06-18T07:52:44.000Z</time>
        <extensions>
          <ns3:TrackPointExtension>
            <ns3:atemp>22.0</ns3:atemp>
          </ns3:TrackPointExtension>
        </extensions>
      </trkpt>
      <trkpt lat="42.548807300627231597900390625" lon="19.785220921039581298828125">
        <ele>1405</ele>
        <time>2026-06-18T07:52:45.000Z</time>
        <extensions>
          <ns3:TrackPointExtension>
            <ns3:atemp>22.0</ns3:atemp>
          </ns3:TrackPointExtension>
        </extensions>
      </trkpt>
      <trkpt lat="42.5488324463367462158203125" lon="19.78522636927664279937744140625">
        <ele>1405.4000244140625</ele>
        <time>2026-06-18T07:52:46.000Z</time>
        <extensions>
          <ns3:TrackPointExtension>
            <ns3:atemp>22.0</ns3:atemp>
          </ns3:TrackPointExtension>
        </extensions>
      </trkpt>
      <trkpt lat="42.54885164089500904083251953125" lon="19.78523341007530689239501953125">
        <ele>1405.800048828125</ele>
        <time>2026-06-18T07:52:47.000Z</time>
        <extensions>
          <ns3:TrackPointExtension>
            <ns3:atemp>22.0</ns3:atemp>
          </ns3:TrackPointExtension>
        </extensions>
      </trkpt>
      <trkpt lat="42.54887108691036701202392578125" lon="19.78523659519851207733154296875">
        <ele>1406</ele>
        <time>2026-06-18T07:52:48.000Z</time>
        <extensions>
          <ns3:TrackPointExtension>
            <ns3:atemp>22.0</ns3:atemp>
          </ns3:TrackPointExtension>
        </extensions>
      </trkpt>
      <trkpt lat="42.5488882698118686676025390625" lon="19.7852469049394130706787109375">
        <ele>1406</ele>
        <time>2026-06-18T07:52:49.000Z</time>
        <extensions>
          <ns3:TrackPointExtension>
            <ns3:atemp>22.0</ns3:atemp>
          </ns3:TrackPointExtension>
        </extensions>
      </trkpt>
      <trkpt lat="42.54890796728432178497314453125" lon="19.78525654412806034088134765625">
        <ele>1406.199951171875</ele>
        <time>2026-06-18T07:52:50.000Z</time>
        <extensions>
          <ns3:TrackPointExtension>
            <ns3:atemp>22.0</ns3:atemp>
          </ns3:TrackPointExtension>
        </extensions>
      </trkpt>
      <trkpt lat="42.5489315204322338104248046875" lon="19.7852670215070247650146484375">
        <ele>1406.199951171875</ele>
        <time>2026-06-18T07:52:51.000Z</time>
        <extensions>
          <ns3:TrackPointExtension>
            <ns3:atemp>22.0</ns3:atemp>
          </ns3:TrackPointExtension>
        </extensions>
      </trkpt>
      <trkpt lat="42.54895054735243320465087890625" lon="19.78527733124792575836181640625">
        <ele>1406.199951171875</ele>
        <time>2026-06-18T07:52:52.000Z</time>
        <extensions>
          <ns3:TrackPointExtension>
            <ns3:atemp>22.0</ns3:atemp>
          </ns3:TrackPointExtension>
        </extensions>
      </trkpt>
      <trkpt lat="42.5489692389965057373046875" lon="19.78528521023690700531005859375">
        <ele>1406.4000244140625</ele>
        <time>2026-06-18T07:52:53.000Z</time>
        <extensions>
          <ns3:TrackPointExtension>
            <ns3:atemp>22.0</ns3:atemp>
          </ns3:TrackPointExtension>
        </extensions>
      </trkpt>
      <trkpt lat="42.54898910410702228546142578125" lon="19.7852904908359050750732421875">
        <ele>1406.800048828125</ele>
        <time>2026-06-18T07:52:54.000Z</time>
        <extensions>
          <ns3:TrackPointExtension>
            <ns3:atemp>22.0</ns3:atemp>
          </ns3:TrackPointExtension>
        </extensions>
      </trkpt>
      <trkpt lat="42.5490109808743000030517578125" lon="19.78529342450201511383056640625">
        <ele>1407</ele>
        <time>2026-06-18T07:52:55.000Z</time>
        <extensions>
          <ns3:TrackPointExtension>
            <ns3:atemp>22.0</ns3:atemp>
          </ns3:TrackPointExtension>
        </extensions>
      </trkpt>
      <trkpt lat="42.5490307621657848358154296875" lon="19.78529895655810832977294921875">
        <ele>1407.4000244140625</ele>
        <time>2026-06-18T07:52:56.000Z</time>
        <extensions>
          <ns3:TrackPointExtension>
            <ns3:atemp>22.0</ns3:atemp>
          </ns3:TrackPointExtension>
        </extensions>
      </trkpt>
      <trkpt lat="42.54904660396277904510498046875" lon="19.78530465625226497650146484375">
        <ele>1407.5999755859375</ele>
        <time>2026-06-18T07:52:57.000Z</time>
        <extensions>
          <ns3:TrackPointExtension>
            <ns3:atemp>22.0</ns3:atemp>
          </ns3:TrackPointExtension>
        </extensions>
      </trkpt>
      <trkpt lat="42.5490676425397396087646484375" lon="19.78531672619283199310302734375">
        <ele>1407.800048828125</ele>
        <time>2026-06-18T07:52:58.000Z</time>
        <extensions>
          <ns3:TrackPointExtension>
            <ns3:atemp>22.0</ns3:atemp>
          </ns3:TrackPointExtension>
        </extensions>
      </trkpt>
      <trkpt lat="42.54909195005893707275390625" lon="19.785325527191162109375">
        <ele>1408</ele>
        <time>2026-06-18T07:52:59.000Z</time>
        <extensions>
          <ns3:TrackPointExtension>
            <ns3:atemp>22.0</ns3:atemp>
          </ns3:TrackPointExtension>
        </extensions>
      </trkpt>
      <trkpt lat="42.54911114461719989776611328125" lon="19.78533516637980937957763671875">
        <ele>1408</ele>
        <time>2026-06-18T07:53:00.000Z</time>
        <extensions>
          <ns3:TrackPointExtension>
            <ns3:atemp>22.0</ns3:atemp>
          </ns3:TrackPointExtension>
        </extensions>
      </trkpt>
      <trkpt lat="42.54912639968097209930419921875" lon="19.78534790687263011932373046875">
        <ele>1408</ele>
        <time>2026-06-18T07:53:01.000Z</time>
        <extensions>
          <ns3:TrackPointExtension>
            <ns3:atemp>22.0</ns3:atemp>
          </ns3:TrackPointExtension>
        </extensions>
      </trkpt>
      <trkpt lat="42.5491450913250446319580078125" lon="19.78535813279449939727783203125">
        <ele>1408.199951171875</ele>
        <time>2026-06-18T07:53:02.000Z</time>
        <extensions>
          <ns3:TrackPointExtension>
            <ns3:atemp>22.0</ns3:atemp>
          </ns3:TrackPointExtension>
        </extensions>
      </trkpt>
      <trkpt lat="42.5491665489971637725830078125" lon="19.785364754498004913330078125">
        <ele>1408.199951171875</ele>
        <time>2026-06-18T07:53:03.000Z</time>
        <extensions>
          <ns3:TrackPointExtension>
            <ns3:atemp>22.0</ns3:atemp>
          </ns3:TrackPointExtension>
        </extensions>
      </trkpt>
      <trkpt lat="42.5491859950125217437744140625" lon="19.7853724658489227294921875">
        <ele>1408.5999755859375</ele>
        <time>2026-06-18T07:53:04.000Z</time>
        <extensions>
          <ns3:TrackPointExtension>
            <ns3:atemp>22.0</ns3:atemp>
          </ns3:TrackPointExtension>
        </extensions>
      </trkpt>
      <trkpt lat="42.54920334555208683013916015625" lon="19.78537925519049167633056640625">
        <ele>1408.800048828125</ele>
        <time>2026-06-18T07:53:05.000Z</time>
        <extensions>
          <ns3:TrackPointExtension>
            <ns3:atemp>22.0</ns3:atemp>
          </ns3:TrackPointExtension>
        </extensions>
      </trkpt>
      <trkpt lat="42.549221701920032501220703125" lon="19.78538746945559978485107421875">
        <ele>1409.199951171875</ele>
        <time>2026-06-18T07:53:06.000Z</time>
        <extensions>
          <ns3:TrackPointExtension>
            <ns3:atemp>22.0</ns3:atemp>
          </ns3:TrackPointExtension>
        </extensions>
      </trkpt>
      <trkpt lat="42.54923922009766101837158203125" lon="19.7853977791965007781982421875">
        <ele>1409.5999755859375</ele>
        <time>2026-06-18T07:53:07.000Z</time>
        <extensions>
          <ns3:TrackPointExtension>
            <ns3:atemp>22.0</ns3:atemp>
          </ns3:TrackPointExtension>
        </extensions>
      </trkpt>
      <trkpt lat="42.54925581626594066619873046875" lon="19.7854046523571014404296875">
        <ele>1409.800048828125</ele>
        <time>2026-06-18T07:53:08.000Z</time>
        <extensions>
          <ns3:TrackPointExtension>
            <ns3:atemp>22.0</ns3:atemp>
          </ns3:TrackPointExtension>
        </extensions>
      </trkpt>
      <trkpt lat="42.5492745079100131988525390625" lon="19.785406328737735748291015625">
        <ele>1410.199951171875</ele>
        <time>2026-06-18T07:53:09.000Z</time>
        <extensions>
          <ns3:TrackPointExtension>
            <ns3:atemp>22.0</ns3:atemp>
          </ns3:TrackPointExtension>
        </extensions>
      </trkpt>
      <trkpt lat="42.5492932833731174468994140625" lon="19.78541110642254352569580078125">
        <ele>1410.5999755859375</ele>
        <time>2026-06-18T07:53:10.000Z</time>
        <extensions>
          <ns3:TrackPointExtension>
            <ns3:atemp>22.0</ns3:atemp>
          </ns3:TrackPointExtension>
        </extensions>
      </trkpt>
      <trkpt lat="42.54931029863655567169189453125" lon="19.7854180634021759033203125">
        <ele>1410.800048828125</ele>
        <time>2026-06-18T07:53:11.000Z</time>
        <extensions>
          <ns3:TrackPointExtension>
            <ns3:atemp>22.0</ns3:atemp>
          </ns3:TrackPointExtension>
        </extensions>
      </trkpt>
      <trkpt lat="42.549328319728374481201171875" lon="19.78542502038180828094482421875">
        <ele>1411.199951171875</ele>
        <time>2026-06-18T07:53:12.000Z</time>
        <extensions>
          <ns3:TrackPointExtension>
            <ns3:atemp>22.0</ns3:atemp>
          </ns3:TrackPointExtension>
        </extensions>
      </trkpt>
      <trkpt lat="42.54935153760015964508056640625" lon="19.78542770259082317352294921875">
        <ele>1411.4000244140625</ele>
        <time>2026-06-18T07:53:13.000Z</time>
        <extensions>
          <ns3:TrackPointExtension>
            <ns3:atemp>22.0</ns3:atemp>
          </ns3:TrackPointExtension>
        </extensions>
      </trkpt>
      <trkpt lat="42.54937232472002506256103515625" lon="19.78542837314307689666748046875">
        <ele>1411.5999755859375</ele>
        <time>2026-06-18T07:53:14.000Z</time>
        <extensions>
          <ns3:TrackPointExtension>
            <ns3:atemp>22.0</ns3:atemp>
          </ns3:TrackPointExtension>
        </extensions>
      </trkpt>
      <trkpt lat="42.5493921898305416107177734375" lon="19.78542049415409564971923828125">
        <ele>1412</ele>
        <time>2026-06-18T07:53:15.000Z</time>
        <extensions>
          <ns3:TrackPointExtension>
            <ns3:atemp>22.0</ns3:atemp>
          </ns3:TrackPointExtension>
        </extensions>
      </trkpt>
      <trkpt lat="42.54941021092236042022705078125" lon="19.785408340394496917724609375">
        <ele>1412.199951171875</ele>
        <time>2026-06-18T07:53:16.000Z</time>
        <extensions>
          <ns3:TrackPointExtension>
            <ns3:atemp>22.0</ns3:atemp>
          </ns3:TrackPointExtension>
        </extensions>
      </trkpt>
      <trkpt lat="42.5494314171373844146728515625" lon="19.78538746945559978485107421875">
        <ele>1412.4000244140625</ele>
        <time>2026-06-18T07:53:17.000Z</time>
        <extensions>
          <ns3:TrackPointExtension>
            <ns3:atemp>22.0</ns3:atemp>
          </ns3:TrackPointExtension>
        </extensions>
      </trkpt>
      <trkpt lat="42.5494454987347126007080078125" lon="19.78536768816411495208740234375">
        <ele>1412.5999755859375</ele>
        <time>2026-06-18T07:53:18.000Z</time>
        <extensions>
          <ns3:TrackPointExtension>
            <ns3:atemp>22.0</ns3:atemp>
          </ns3:TrackPointExtension>
        </extensions>
      </trkpt>
      <trkpt lat="42.54944742657244205474853515625" lon="19.78534421883523464202880859375">
        <ele>1412.800048828125</ele>
        <time>2026-06-18T07:53:19.000Z</time>
        <extensions>
          <ns3:TrackPointExtension>
            <ns3:atemp>22.0</ns3:atemp>
          </ns3:TrackPointExtension>
        </extensions>
      </trkpt>
      <trkpt lat="42.54945161752402782440185546875" lon="19.7853186540305614471435546875">
        <ele>1413</ele>
        <time>2026-06-18T07:53:20.000Z</time>
        <extensions>
          <ns3:TrackPointExtension>
            <ns3:atemp>22.0</ns3:atemp>
          </ns3:TrackPointExtension>
        </extensions>
      </trkpt>
      <trkpt lat="42.5494505278766155242919921875" lon="19.7852992080152034759521484375">
        <ele>1413.199951171875</ele>
        <time>2026-06-18T07:53:21.000Z</time>
        <extensions>
          <ns3:TrackPointExtension>
            <ns3:atemp>22.0</ns3:atemp>
          </ns3:TrackPointExtension>
        </extensions>
      </trkpt>
      <trkpt lat="42.54945111460983753204345703125" lon="19.78527925908565521240234375">
        <ele>1413.4000244140625</ele>
        <time>2026-06-18T07:53:22.000Z</time>
        <extensions>
          <ns3:TrackPointExtension>
            <ns3:atemp>22.0</ns3:atemp>
          </ns3:TrackPointExtension>
        </extensions>
      </trkpt>
      <trkpt lat="42.54944466054439544677734375" lon="19.785261489450931549072265625">
        <ele>1413.800048828125</ele>
        <time>2026-06-18T07:53:23.000Z</time>
        <extensions>
          <ns3:TrackPointExtension>
            <ns3:atemp>22.0</ns3:atemp>
          </ns3:TrackPointExtension>
        </extensions>
      </trkpt>
      <trkpt lat="42.5494454987347126007080078125" lon="19.7852371819317340850830078125">
        <ele>1414</ele>
        <time>2026-06-18T07:53:24.000Z</time>
        <extensions>
          <ns3:TrackPointExtension>
            <ns3:atemp>22.0</ns3:atemp>
          </ns3:TrackPointExtension>
        </extensions>
      </trkpt>
      <trkpt lat="42.5494434870779514312744140625" lon="19.785213880240917205810546875">
        <ele>1414.199951171875</ele>
        <time>2026-06-18T07:53:25.000Z</time>
        <extensions>
          <ns3:TrackPointExtension>
            <ns3:atemp>22.0</ns3:atemp>
          </ns3:TrackPointExtension>
        </extensions>
      </trkpt>
      <trkpt lat="42.5494404695928096771240234375" lon="19.7851848788559436798095703125">
        <ele>1414.4000244140625</ele>
        <time>2026-06-18T07:53:26.000Z</time>
        <extensions>
          <ns3:TrackPointExtension>
            <ns3:atemp>22.0</ns3:atemp>
          </ns3:TrackPointExtension>
        </extensions>
      </trkpt>
      <trkpt lat="42.5494351051747798919677734375" lon="19.78515864349901676177978515625">
        <ele>1414.5999755859375</ele>
        <time>2026-06-18T07:53:27.000Z</time>
        <extensions>
          <ns3:TrackPointExtension>
            <ns3:atemp>22.0</ns3:atemp>
          </ns3:TrackPointExtension>
        </extensions>
      </trkpt>
      <trkpt lat="42.54942747764289379119873046875" lon="19.78513198904693126678466796875">
        <ele>1415</ele>
        <time>2026-06-18T07:53:28.000Z</time>
        <extensions>
          <ns3:TrackPointExtension>
            <ns3:atemp>22.0</ns3:atemp>
          </ns3:TrackPointExtension>
        </extensions>
      </trkpt>
      <trkpt lat="42.54942781291902065277099609375" lon="19.78510265238583087921142578125">
        <ele>1415.199951171875</ele>
        <time>2026-06-18T07:53:29.000Z</time>
        <extensions>
          <ns3:TrackPointExtension>
            <ns3:atemp>22.0</ns3:atemp>
          </ns3:TrackPointExtension>
        </extensions>
      </trkpt>
      <trkpt lat="42.5494247116148471832275390625" lon="19.7850735671818256378173828125">
        <ele>1415.199951171875</ele>
        <time>2026-06-18T07:53:30.000Z</time>
        <extensions>
          <ns3:TrackPointExtension>
            <ns3:atemp>22.0</ns3:atemp>
          </ns3:TrackPointExtension>
        </extensions>
      </trkpt>
      <trkpt lat="42.549422867596149444580078125" lon="19.78504599072039127349853515625">
        <ele>1415.4000244140625</ele>
        <time>2026-06-18T07:53:31.000Z</time>
        <extensions>
          <ns3:TrackPointExtension>
            <ns3:atemp>22.0</ns3:atemp>
          </ns3:TrackPointExtension>
        </extensions>
      </trkpt>
      <trkpt lat="42.5494180060923099517822265625" lon="19.78501715697348117828369140625">
        <ele>1415.4000244140625</ele>
        <time>2026-06-18T07:53:32.000Z</time>
        <extensions>
          <ns3:TrackPointExtension>
            <ns3:atemp>22.0</ns3:atemp>
          </ns3:TrackPointExtension>
        </extensions>
      </trkpt>
      <trkpt lat="42.54941381514072418212890625" lon="19.78499502874910831451416015625">
        <ele>1415.5999755859375</ele>
        <time>2026-06-18T07:53:33.000Z</time>
        <extensions>
          <ns3:TrackPointExtension>
            <ns3:atemp>22.0</ns3:atemp>
          </ns3:TrackPointExtension>
        </extensions>
      </trkpt>
      <trkpt lat="42.5494129769504070281982421875" lon="19.78497290052473545074462890625">
        <ele>1415.800048828125</ele>
        <time>2026-06-18T07:53:34.000Z</time>
        <extensions>
          <ns3:TrackPointExtension>
            <ns3:atemp>22.0</ns3:atemp>
          </ns3:TrackPointExtension>
        </extensions>
      </trkpt>
      <trkpt lat="42.54941171966493129730224609375" lon="19.78494959883391857147216796875">
        <ele>1416</ele>
        <time>2026-06-18T07:53:35.000Z</time>
        <extensions>
          <ns3:TrackPointExtension>
            <ns3:atemp>22.0</ns3:atemp>
          </ns3:TrackPointExtension>
        </extensions>
      </trkpt>
      <trkpt lat="42.54940970800817012786865234375" lon="19.7849223576486110687255859375">
        <ele>1416.199951171875</ele>
        <time>2026-06-18T07:53:36.000Z</time>
        <extensions>
          <ns3:TrackPointExtension>
            <ns3:atemp>22.0</ns3:atemp>
          </ns3:TrackPointExtension>
        </extensions>
      </trkpt>
      <trkpt lat="42.5494079478085041046142578125" lon="19.78489679284393787384033203125">
        <ele>1416.4000244140625</ele>
        <time>2026-06-18T07:53:37.000Z</time>
        <extensions>
          <ns3:TrackPointExtension>
            <ns3:atemp>22.0</ns3:atemp>
          </ns3:TrackPointExtension>
        </extensions>
      </trkpt>
      <trkpt lat="42.5494019128382205963134765625" lon="19.7848724015057086944580078125">
        <ele>1416.5999755859375</ele>
        <time>2026-06-18T07:53:38.000Z</time>
        <extensions>
          <ns3:TrackPointExtension>
            <ns3:atemp>22.0</ns3:atemp>
          </ns3:TrackPointExtension>
        </extensions>
      </trkpt>
      <trkpt lat="42.54939512349665164947509765625" lon="19.78484281338751316070556640625">
        <ele>1416.800048828125</ele>
        <time>2026-06-18T07:53:39.000Z</time>
        <extensions>
          <ns3:TrackPointExtension>
            <ns3:atemp>22.0</ns3:atemp>
          </ns3:TrackPointExtension>
        </extensions>
      </trkpt>
      <trkpt lat="42.54939101636409759521484375" lon="19.784815572202205657958984375">
        <ele>1417</ele>
        <time>2026-06-18T07:53:40.000Z</time>
        <extensions>
          <ns3:TrackPointExtension>
            <ns3:atemp>22.0</ns3:atemp>
          </ns3:TrackPointExtension>
        </extensions>
      </trkpt>
      <trkpt lat="42.54938892088830471038818359375" lon="19.7847855649888515472412109375">
        <ele>1417.199951171875</ele>
        <time>2026-06-18T07:53:41.000Z</time>
        <extensions>
          <ns3:TrackPointExtension>
            <ns3:atemp>22.0</ns3:atemp>
          </ns3:TrackPointExtension>
        </extensions>
      </trkpt>
      <trkpt lat="42.54938741214573383331298828125" lon="19.7847617603838443756103515625">
        <ele>1417.4000244140625</ele>
        <time>2026-06-18T07:53:42.000Z</time>
        <extensions>
          <ns3:TrackPointExtension>
            <ns3:atemp>22.0</ns3:atemp>
          </ns3:TrackPointExtension>
        </extensions>
      </trkpt>
      <trkpt lat="42.54938422702252864837646484375" lon="19.78473720140755176544189453125">
        <ele>1417.800048828125</ele>
        <time>2026-06-18T07:53:43.000Z</time>
        <extensions>
          <ns3:TrackPointExtension>
            <ns3:atemp>22.0</ns3:atemp>
          </ns3:TrackPointExtension>
        </extensions>
      </trkpt>
      <trkpt lat="42.5493791140615940093994140625" lon="19.7847101278603076934814453125">
        <ele>1418.199951171875</ele>
        <time>2026-06-18T07:53:44.000Z</time>
        <extensions>
          <ns3:TrackPointExtension>
            <ns3:atemp>22.0</ns3:atemp>
          </ns3:TrackPointExtension>
        </extensions>
      </trkpt>
      <trkpt lat="42.54937534220516681671142578125" lon="19.78469185531139373779296875">
        <ele>1418.4000244140625</ele>
        <time>2026-06-18T07:53:45.000Z</time>
        <extensions>
          <ns3:TrackPointExtension>
            <ns3:atemp>22.0</ns3:atemp>
          </ns3:TrackPointExtension>
        </extensions>
      </trkpt>
      <trkpt lat="42.54937500692903995513916015625" lon="19.7846695594489574432373046875">
        <ele>1418.800048828125</ele>
        <time>2026-06-18T07:53:46.000Z</time>
        <extensions>
          <ns3:TrackPointExtension>
            <ns3:atemp>22.0</ns3:atemp>
          </ns3:TrackPointExtension>
        </extensions>
      </trkpt>
      <trkpt lat="42.54937467165291309356689453125" lon="19.7846536338329315185546875">
        <ele>1419</ele>
        <time>2026-06-18T07:53:47.000Z</time>
        <extensions>
          <ns3:TrackPointExtension>
            <ns3:atemp>22.0</ns3:atemp>
          </ns3:TrackPointExtension>
        </extensions>
      </trkpt>
      <trkpt lat="42.5493740849196910858154296875" lon="19.7846330143511295318603515625">
        <ele>1419.4000244140625</ele>
        <time>2026-06-18T07:53:48.000Z</time>
        <extensions>
          <ns3:TrackPointExtension>
            <ns3:atemp>22.0</ns3:atemp>
          </ns3:TrackPointExtension>
        </extensions>
      </trkpt>
      <trkpt lat="42.549371905624866485595703125" lon="19.7846142388880252838134765625">
        <ele>1419.5999755859375</ele>
        <time>2026-06-18T07:53:49.000Z</time>
        <extensions>
          <ns3:TrackPointExtension>
            <ns3:atemp>22.0</ns3:atemp>
          </ns3:TrackPointExtension>
        </extensions>
      </trkpt>
      <trkpt lat="42.5493683852255344390869140625" lon="19.7845944575965404510498046875">
        <ele>1419.800048828125</ele>
        <time>2026-06-18T07:53:50.000Z</time>
        <extensions>
          <ns3:TrackPointExtension>
            <ns3:atemp>22.0</ns3:atemp>
          </ns3:TrackPointExtension>
        </extensions>
      </trkpt>
      <trkpt lat="42.54936494864523410797119140625" lon="19.78457476012408733367919921875">
        <ele>1420</ele>
        <time>2026-06-18T07:53:51.000Z</time>
        <extensions>
          <ns3:TrackPointExtension>
            <ns3:atemp>22.0</ns3:atemp>
          </ns3:TrackPointExtension>
        </extensions>
      </trkpt>
      <trkpt lat="42.54936142824590206146240234375" lon="19.7845515422523021697998046875">
        <ele>1420.199951171875</ele>
        <time>2026-06-18T07:53:52.000Z</time>
        <extensions>
          <ns3:TrackPointExtension>
            <ns3:atemp>22.0</ns3:atemp>
          </ns3:TrackPointExtension>
        </extensions>
      </trkpt>
      <trkpt lat="42.5493633560836315155029296875" lon="19.7845248878002166748046875">
        <ele>1420.5999755859375</ele>
        <time>2026-06-18T07:53:53.000Z</time>
        <extensions>
          <ns3:TrackPointExtension>
            <ns3:atemp>22.0</ns3:atemp>
          </ns3:TrackPointExtension>
        </extensions>
      </trkpt>
      <trkpt lat="42.54936553537845611572265625" lon="19.78449798189103603363037109375">
        <ele>1420.800048828125</ele>
        <time>2026-06-18T07:53:54.000Z</time>
        <extensions>
          <ns3:TrackPointExtension>
            <ns3:atemp>22.0</ns3:atemp>
          </ns3:TrackPointExtension>
        </extensions>
      </trkpt>
      <trkpt lat="42.54936511628329753875732421875" lon="19.78447820059955120086669921875">
        <ele>1421</ele>
        <time>2026-06-18T07:53:55.000Z</time>
        <extensions>
          <ns3:TrackPointExtension>
            <ns3:atemp>22.0</ns3:atemp>
          </ns3:TrackPointExtension>
        </extensions>
      </trkpt>
      <trkpt lat="42.54936427809298038482666015625" lon="19.78445473127067089080810546875">
        <ele>1421.199951171875</ele>
        <time>2026-06-18T07:53:56.000Z</time>
        <extensions>
          <ns3:TrackPointExtension>
            <ns3:atemp>22.0</ns3:atemp>
          </ns3:TrackPointExtension>
        </extensions>
      </trkpt>
      <trkpt lat="42.54936343990266323089599609375" lon="19.78443159721791744232177734375">
        <ele>1421.5999755859375</ele>
        <time>2026-06-18T07:53:57.000Z</time>
        <extensions>
          <ns3:TrackPointExtension>
            <ns3:atemp>22.0</ns3:atemp>
          </ns3:TrackPointExtension>
        </extensions>
      </trkpt>
      <trkpt lat="42.54936662502586841583251953125" lon="19.78440762497484683990478515625">
        <ele>1421.800048828125</ele>
        <time>2026-06-18T07:53:58.000Z</time>
        <extensions>
          <ns3:TrackPointExtension>
            <ns3:atemp>22.0</ns3:atemp>
          </ns3:TrackPointExtension>
        </extensions>
      </trkpt>
      <trkpt lat="42.549371235072612762451171875" lon="19.784384407103061676025390625">
        <ele>1422.199951171875</ele>
        <time>2026-06-18T07:53:59.000Z</time>
        <extensions>
          <ns3:TrackPointExtension>
            <ns3:atemp>22.0</ns3:atemp>
          </ns3:TrackPointExtension>
        </extensions>
      </trkpt>
      <trkpt lat="42.5493724085390567779541015625" lon="19.784360937774181365966796875">
        <ele>1422.4000244140625</ele>
        <time>2026-06-18T07:54:00.000Z</time>
        <extensions>
          <ns3:TrackPointExtension>
            <ns3:atemp>22.0</ns3:atemp>
          </ns3:TrackPointExtension>
        </extensions>
      </trkpt>
      <trkpt lat="42.549373917281627655029296875" lon="19.7843322716653347015380859375">
        <ele>1422.800048828125</ele>
        <time>2026-06-18T07:54:01.000Z</time>
        <extensions>
          <ns3:TrackPointExtension>
            <ns3:atemp>22.0</ns3:atemp>
          </ns3:TrackPointExtension>
        </extensions>
      </trkpt>
      <trkpt lat="42.54937894642353057861328125" lon="19.7843047790229320526123046875">
        <ele>1423</ele>
        <time>2026-06-18T07:54:02.000Z</time>
        <extensions>
          <ns3:TrackPointExtension>
            <ns3:atemp>22.0</ns3:atemp>
          </ns3:TrackPointExtension>
        </extensions>
      </trkpt>
      <trkpt lat="42.54937919788062572479248046875" lon="19.78427787311375141143798828125">
        <ele>1423.199951171875</ele>
        <time>2026-06-18T07:54:03.000Z</time>
        <extensions>
          <ns3:TrackPointExtension>
            <ns3:atemp>22.0</ns3:atemp>
          </ns3:TrackPointExtension>
        </extensions>
      </trkpt>
      <trkpt lat="42.5493844784796237945556640625" lon="19.78424803353846073150634765625">
        <ele>1423.4000244140625</ele>
        <time>2026-06-18T07:54:04.000Z</time>
        <extensions>
          <ns3:TrackPointExtension>
            <ns3:atemp>22.0</ns3:atemp>
          </ns3:TrackPointExtension>
        </extensions>
      </trkpt>
      <trkpt lat="42.5493905134499073028564453125" lon="19.78421819396317005157470703125">
        <ele>1423.800048828125</ele>
        <time>2026-06-18T07:54:05.000Z</time>
        <extensions>
          <ns3:TrackPointExtension>
            <ns3:atemp>22.0</ns3:atemp>
          </ns3:TrackPointExtension>
        </extensions>
      </trkpt>
      <trkpt lat="42.54939026199281215667724609375" lon="19.784196317195892333984375">
        <ele>1424</ele>
        <time>2026-06-18T07:54:06.000Z</time>
        <extensions>
          <ns3:TrackPointExtension>
            <ns3:atemp>22.0</ns3:atemp>
          </ns3:TrackPointExtension>
        </extensions>
      </trkpt>
      <trkpt lat="42.5493968836963176727294921875" lon="19.784164465963840484619140625">
        <ele>1424.199951171875</ele>
        <time>2026-06-18T07:54:07.000Z</time>
        <extensions>
          <ns3:TrackPointExtension>
            <ns3:atemp>22.0</ns3:atemp>
          </ns3:TrackPointExtension>
        </extensions>
      </trkpt>
      <trkpt lat="42.549402080476284027099609375" lon="19.78413403965532779693603515625">
        <ele>1424.4000244140625</ele>
        <time>2026-06-18T07:54:08.000Z</time>
        <extensions>
          <ns3:TrackPointExtension>
            <ns3:atemp>22.0</ns3:atemp>
          </ns3:TrackPointExtension>
        </extensions>
      </trkpt>
      <trkpt lat="42.5494079478085041046142578125" lon="19.78410218842327594757080078125">
        <ele>1424.5999755859375</ele>
        <time>2026-06-18T07:54:09.000Z</time>
        <extensions>
          <ns3:TrackPointExtension>
            <ns3:atemp>22.0</ns3:atemp>
          </ns3:TrackPointExtension>
        </extensions>
      </trkpt>
      <trkpt lat="42.5494149886071681976318359375" lon="19.78407201357185840606689453125">
        <ele>1424.800048828125</ele>
        <time>2026-06-18T07:54:10.000Z</time>
        <extensions>
          <ns3:TrackPointExtension>
            <ns3:atemp>22.0</ns3:atemp>
          </ns3:TrackPointExtension>
        </extensions>
      </trkpt>
      <trkpt lat="42.54942311905324459075927734375" lon="19.7840476222336292266845703125">
        <ele>1425.199951171875</ele>
        <time>2026-06-18T07:54:11.000Z</time>
        <extensions>
          <ns3:TrackPointExtension>
            <ns3:atemp>22.0</ns3:atemp>
          </ns3:TrackPointExtension>
        </extensions>
      </trkpt>
      <trkpt lat="42.549428902566432952880859375" lon="19.7840233147144317626953125">
        <ele>1425.4000244140625</ele>
        <time>2026-06-18T07:54:12.000Z</time>
        <extensions>
          <ns3:TrackPointExtension>
            <ns3:atemp>22.0</ns3:atemp>
          </ns3:TrackPointExtension>
        </extensions>
      </trkpt>
      <trkpt lat="42.54943686537444591522216796875" lon="19.78399439714848995208740234375">
        <ele>1425.5999755859375</ele>
        <time>2026-06-18T07:54:13.000Z</time>
        <extensions>
          <ns3:TrackPointExtension>
            <ns3:atemp>22.0</ns3:atemp>
          </ns3:TrackPointExtension>
        </extensions>
      </trkpt>
      <trkpt lat="42.549442313611507415771484375" lon="19.7839688323438167572021484375">
        <ele>1425.800048828125</ele>
        <time>2026-06-18T07:54:14.000Z</time>
        <extensions>
          <ns3:TrackPointExtension>
            <ns3:atemp>22.0</ns3:atemp>
          </ns3:TrackPointExtension>
        </extensions>
      </trkpt>
      <trkpt lat="42.5494515337049961090087890625" lon="19.7839453630149364471435546875">
        <ele>1426</ele>
        <time>2026-06-18T07:54:15.000Z</time>
        <extensions>
          <ns3:TrackPointExtension>
            <ns3:atemp>22.0</ns3:atemp>
          </ns3:TrackPointExtension>
        </extensions>
      </trkpt>
      <trkpt lat="42.5494587421417236328125" lon="19.783918373286724090576171875">
        <ele>1426.199951171875</ele>
        <time>2026-06-18T07:54:16.000Z</time>
        <extensions>
          <ns3:TrackPointExtension>
            <ns3:atemp>22.0</ns3:atemp>
          </ns3:TrackPointExtension>
        </extensions>
      </trkpt>
      <trkpt lat="42.54946502856910228729248046875" lon="19.7838892042636871337890625">
        <ele>1426.199951171875</ele>
        <time>2026-06-18T07:54:17.000Z</time>
        <extensions>
          <ns3:TrackPointExtension>
            <ns3:atemp>22.0</ns3:atemp>
          </ns3:TrackPointExtension>
        </extensions>
      </trkpt>
      <trkpt lat="42.54947190172970294952392578125" lon="19.78386171162128448486328125">
        <ele>1426.4000244140625</ele>
        <time>2026-06-18T07:54:18.000Z</time>
        <extensions>
          <ns3:TrackPointExtension>
            <ns3:atemp>22.0</ns3:atemp>
          </ns3:TrackPointExtension>
        </extensions>
      </trkpt>
      <trkpt lat="42.5494827143847942352294921875" lon="19.783838577568531036376953125">
        <ele>1426.5999755859375</ele>
        <time>2026-06-18T07:54:19.000Z</time>
        <extensions>
          <ns3:TrackPointExtension>
            <ns3:atemp>22.0</ns3:atemp>
          </ns3:TrackPointExtension>
        </extensions>
      </trkpt>
      <trkpt lat="42.54949201829731464385986328125" lon="19.7838146053254604339599609375">
        <ele>1426.5999755859375</ele>
        <time>2026-06-18T07:54:20.000Z</time>
        <extensions>
          <ns3:TrackPointExtension>
            <ns3:atemp>22.0</ns3:atemp>
          </ns3:TrackPointExtension>
        </extensions>
      </trkpt>
      <trkpt lat="42.5494974665343761444091796875" lon="19.7837864421308040618896484375">
        <ele>1426.800048828125</ele>
        <time>2026-06-18T07:54:21.000Z</time>
        <extensions>
          <ns3:TrackPointExtension>
            <ns3:atemp>22.0</ns3:atemp>
          </ns3:TrackPointExtension>
        </extensions>
      </trkpt>
      <trkpt lat="42.549498975276947021484375" lon="19.78375635109841823577880859375">
        <ele>1427</ele>
        <time>2026-06-18T07:54:22.000Z</time>
        <extensions>
          <ns3:TrackPointExtension>
            <ns3:atemp>22.0</ns3:atemp>
          </ns3:TrackPointExtension>
        </extensions>
      </trkpt>
      <trkpt lat="42.54949453286826610565185546875" lon="19.7837254218757152557373046875">
        <ele>1427</ele>
        <time>2026-06-18T07:54:23.000Z</time>
        <extensions>
          <ns3:TrackPointExtension>
            <ns3:atemp>22.0</ns3:atemp>
          </ns3:TrackPointExtension>
        </extensions>
      </trkpt>
      <trkpt lat="42.54949268884956836700439453125" lon="19.78369533084332942962646484375">
        <ele>1426.800048828125</ele>
        <time>2026-06-18T07:54:24.000Z</time>
        <extensions>
          <ns3:TrackPointExtension>
            <ns3:atemp>22.0</ns3:atemp>
          </ns3:TrackPointExtension>
        </extensions>
      </trkpt>
      <trkpt lat="42.549489252269268035888671875" lon="19.783665575087070465087890625">
        <ele>1426.800048828125</ele>
        <time>2026-06-18T07:54:25.000Z</time>
        <extensions>
          <ns3:TrackPointExtension>
            <ns3:atemp>22.0</ns3:atemp>
          </ns3:TrackPointExtension>
        </extensions>
      </trkpt>
      <trkpt lat="42.54948221147060394287109375" lon="19.78363766334950923919677734375">
        <ele>1426.5999755859375</ele>
        <time>2026-06-18T07:54:26.000Z</time>
        <extensions>
          <ns3:TrackPointExtension>
            <ns3:atemp>22.0</ns3:atemp>
          </ns3:TrackPointExtension>
        </extensions>
      </trkpt>
      <trkpt lat="42.549475841224193572998046875" lon="19.78360815905034542083740234375">
        <ele>1426.5999755859375</ele>
        <time>2026-06-18T07:54:27.000Z</time>
        <extensions>
          <ns3:TrackPointExtension>
            <ns3:atemp>22.0</ns3:atemp>
          </ns3:TrackPointExtension>
        </extensions>
      </trkpt>
      <trkpt lat="42.5494713149964809417724609375" lon="19.78358251042664051055908203125">
        <ele>1426.4000244140625</ele>
        <time>2026-06-18T07:54:28.000Z</time>
        <extensions>
          <ns3:TrackPointExtension>
            <ns3:atemp>22.0</ns3:atemp>
          </ns3:TrackPointExtension>
        </extensions>
      </trkpt>
      <trkpt lat="42.549465112388134002685546875" lon="19.783556275069713592529296875">
        <ele>1426.4000244140625</ele>
        <time>2026-06-18T07:54:29.000Z</time>
        <extensions>
          <ns3:TrackPointExtension>
            <ns3:atemp>22.0</ns3:atemp>
          </ns3:TrackPointExtension>
        </extensions>
      </trkpt>
      <trkpt lat="42.54945849068462848663330078125" lon="19.7835292853415012359619140625">
        <ele>1426.4000244140625</ele>
        <time>2026-06-18T07:54:30.000Z</time>
        <extensions>
          <ns3:TrackPointExtension>
            <ns3:atemp>22.0</ns3:atemp>
          </ns3:TrackPointExtension>
        </extensions>
      </trkpt>
      <trkpt lat="42.5494568981230258941650390625" lon="19.78350740857422351837158203125">
        <ele>1426.4000244140625</ele>
        <time>2026-06-18T07:54:31.000Z</time>
        <extensions>
          <ns3:TrackPointExtension>
            <ns3:atemp>22.0</ns3:atemp>
          </ns3:TrackPointExtension>
        </extensions>
      </trkpt>
      <trkpt lat="42.5494528748095035552978515625" lon="19.78347823955118656158447265625">
        <ele>1426.4000244140625</ele>
        <time>2026-06-18T07:54:32.000Z</time>
        <extensions>
          <ns3:TrackPointExtension>
            <ns3:atemp>22.0</ns3:atemp>
          </ns3:TrackPointExtension>
        </extensions>
      </trkpt>
      <trkpt lat="42.54944843240082263946533203125" lon="19.7834424488246440887451171875">
        <ele>1426.4000244140625</ele>
        <time>2026-06-18T07:54:33.000Z</time>
        <extensions>
          <ns3:TrackPointExtension>
            <ns3:atemp>22.0</ns3:atemp>
          </ns3:TrackPointExtension>
        </extensions>
      </trkpt>
      <trkpt lat="42.54943619482219219207763671875" lon="19.78341436944901943206787109375">
        <ele>1426.4000244140625</ele>
        <time>2026-06-18T07:54:34.000Z</time>
        <extensions>
          <ns3:TrackPointExtension>
            <ns3:atemp>22.0</ns3:atemp>
          </ns3:TrackPointExtension>
        </extensions>
      </trkpt>
      <trkpt lat="42.5494273938238620758056640625" lon="19.78338318876922130584716796875">
        <ele>1426.4000244140625</ele>
        <time>2026-06-18T07:54:35.000Z</time>
        <extensions>
          <ns3:TrackPointExtension>
            <ns3:atemp>22.0</ns3:atemp>
          </ns3:TrackPointExtension>
        </extensions>
      </trkpt>
      <trkpt lat="42.54942144267261028289794921875" lon="19.7833539359271526336669921875">
        <ele>1426.4000244140625</ele>
        <time>2026-06-18T07:54:36.000Z</time>
        <extensions>
          <ns3:TrackPointExtension>
            <ns3:atemp>22.0</ns3:atemp>
          </ns3:TrackPointExtension>
        </extensions>
      </trkpt>
      <trkpt lat="42.54941524006426334381103515625" lon="19.78332451544702053070068359375">
        <ele>1426.199951171875</ele>
        <time>2026-06-18T07:54:37.000Z</time>
        <extensions>
          <ns3:TrackPointExtension>
            <ns3:atemp>22.0</ns3:atemp>
          </ns3:TrackPointExtension>
        </extensions>
      </trkpt>
      <trkpt lat="42.54940979182720184326171875" lon="19.783297441899776458740234375">
        <ele>1426.199951171875</ele>
        <time>2026-06-18T07:54:38.000Z</time>
        <extensions>
          <ns3:TrackPointExtension>
            <ns3:atemp>22.0</ns3:atemp>
          </ns3:TrackPointExtension>
        </extensions>
      </trkpt>
      <trkpt lat="42.549408785998821258544921875" lon="19.7832701168954372406005859375">
        <ele>1426.4000244140625</ele>
        <time>2026-06-18T07:54:39.000Z</time>
        <extensions>
          <ns3:TrackPointExtension>
            <ns3:atemp>22.0</ns3:atemp>
          </ns3:TrackPointExtension>
        </extensions>
      </trkpt>
      <trkpt lat="42.5494066067039966583251953125" lon="19.78324471972882747650146484375">
        <ele>1426.5999755859375</ele>
        <time>2026-06-18T07:54:40.000Z</time>
        <extensions>
          <ns3:TrackPointExtension>
            <ns3:atemp>22.0</ns3:atemp>
          </ns3:TrackPointExtension>
        </extensions>
      </trkpt>
      <trkpt lat="42.5494039244949817657470703125" lon="19.7832218371331691741943359375">
        <ele>1426.800048828125</ele>
        <time>2026-06-18T07:54:41.000Z</time>
        <extensions>
          <ns3:TrackPointExtension>
            <ns3:atemp>22.0</ns3:atemp>
          </ns3:TrackPointExtension>
        </extensions>
      </trkpt>
      <trkpt lat="42.54939864389598369598388671875" lon="19.78319928981363773345947265625">
        <ele>1426.800048828125</ele>
        <time>2026-06-18T07:54:42.000Z</time>
        <extensions>
          <ns3:TrackPointExtension>
            <ns3:atemp>22.0</ns3:atemp>
          </ns3:TrackPointExtension>
        </extensions>
      </trkpt>
      <trkpt lat="42.54939411766827106475830078125" lon="19.78317783214151859283447265625">
        <ele>1427</ele>
        <time>2026-06-18T07:54:43.000Z</time>
        <extensions>
          <ns3:TrackPointExtension>
            <ns3:atemp>22.0</ns3:atemp>
          </ns3:TrackPointExtension>
        </extensions>
      </trkpt>
      <trkpt lat="42.5493851490318775177001953125" lon="19.78315872140228748321533203125">
        <ele>1427.199951171875</ele>
        <time>2026-06-18T07:54:44.000Z</time>
        <extensions>
          <ns3:TrackPointExtension>
            <ns3:atemp>22.0</ns3:atemp>
          </ns3:TrackPointExtension>
        </extensions>
      </trkpt>
      <trkpt lat="42.549379281699657440185546875" lon="19.78313148021697998046875">
        <ele>1427.5999755859375</ele>
        <time>2026-06-18T07:54:45.000Z</time>
        <extensions>
          <ns3:TrackPointExtension>
            <ns3:atemp>22.0</ns3:atemp>
          </ns3:TrackPointExtension>
        </extensions>
      </trkpt>
      <trkpt lat="42.5493781082332134246826171875" lon="19.78310507722198963165283203125">
        <ele>1428</ele>
        <time>2026-06-18T07:54:46.000Z</time>
        <extensions>
          <ns3:TrackPointExtension>
            <ns3:atemp>22.0</ns3:atemp>
          </ns3:TrackPointExtension>
        </extensions>
      </trkpt>
      <trkpt lat="42.54937400110065937042236328125" lon="19.7830726392567157745361328125">
        <ele>1428.4000244140625</ele>
        <time>2026-06-18T07:54:47.000Z</time>
        <extensions>
          <ns3:TrackPointExtension>
            <ns3:atemp>22.0</ns3:atemp>
          </ns3:TrackPointExtension>
        </extensions>
      </trkpt>
      <trkpt lat="42.54937081597745418548583984375" lon="19.78303852491080760955810546875">
        <ele>1428.5999755859375</ele>
        <time>2026-06-18T07:54:48.000Z</time>
        <extensions>
          <ns3:TrackPointExtension>
            <ns3:atemp>22.0</ns3:atemp>
          </ns3:TrackPointExtension>
        </extensions>
      </trkpt>
      <trkpt lat="42.54935958422720432281494140625" lon="19.78300684131681919097900390625">
        <ele>1428.800048828125</ele>
        <time>2026-06-18T07:54:49.000Z</time>
        <extensions>
          <ns3:TrackPointExtension>
            <ns3:atemp>22.0</ns3:atemp>
          </ns3:TrackPointExtension>
        </extensions>
      </trkpt>
      <trkpt lat="42.54935254342854022979736328125" lon="19.78297046385705471038818359375">
        <ele>1429</ele>
        <time>2026-06-18T07:54:50.000Z</time>
        <extensions>
          <ns3:TrackPointExtension>
            <ns3:atemp>22.0</ns3:atemp>
          </ns3:TrackPointExtension>
        </extensions>
      </trkpt>
      <trkpt lat="42.54934717901051044464111328125" lon="19.78294112719595432281494140625">
        <ele>1429.199951171875</ele>
        <time>2026-06-18T07:54:51.000Z</time>
        <extensions>
          <ns3:TrackPointExtension>
            <ns3:atemp>22.0</ns3:atemp>
          </ns3:TrackPointExtension>
        </extensions>
      </trkpt>
      <trkpt lat="42.5493432395160198211669921875" lon="19.7829086892306804656982421875">
        <ele>1429.5999755859375</ele>
        <time>2026-06-18T07:54:52.000Z</time>
        <extensions>
          <ns3:TrackPointExtension>
            <ns3:atemp>22.0</ns3:atemp>
          </ns3:TrackPointExtension>
        </extensions>
      </trkpt>
      <trkpt lat="42.54933728836476802825927734375" lon="19.7828805260360240936279296875">
        <ele>1430</ele>
        <time>2026-06-18T07:54:53.000Z</time>
        <extensions>
          <ns3:TrackPointExtension>
            <ns3:atemp>22.0</ns3:atemp>
          </ns3:TrackPointExtension>
        </extensions>
      </trkpt>
      <trkpt lat="42.549331001937389373779296875" lon="19.78285680525004863739013671875">
        <ele>1430.4000244140625</ele>
        <time>2026-06-18T07:54:54.000Z</time>
        <extensions>
          <ns3:TrackPointExtension>
            <ns3:atemp>22.0</ns3:atemp>
          </ns3:TrackPointExtension>
        </extensions>
      </trkpt>
      <trkpt lat="42.54931993782520294189453125" lon="19.78282495401799678802490234375">
        <ele>1431</ele>
        <time>2026-06-18T07:54:55.000Z</time>
        <extensions>
          <ns3:TrackPointExtension>
            <ns3:atemp>22.0</ns3:atemp>
          </ns3:TrackPointExtension>
        </extensions>
      </trkpt>
      <trkpt lat="42.54931113682687282562255859375" lon="19.7827943600714206695556640625">
        <ele>1431.4000244140625</ele>
        <time>2026-06-18T07:54:56.000Z</time>
        <extensions>
          <ns3:TrackPointExtension>
            <ns3:atemp>22.0</ns3:atemp>
          </ns3:TrackPointExtension>
        </extensions>
      </trkpt>
      <trkpt lat="42.54930476658046245574951171875" lon="19.78276443667709827423095703125">
        <ele>1431.800048828125</ele>
        <time>2026-06-18T07:54:57.000Z</time>
        <extensions>
          <ns3:TrackPointExtension>
            <ns3:atemp>22.0</ns3:atemp>
          </ns3:TrackPointExtension>
        </extensions>
      </trkpt>
      <trkpt lat="42.549296803772449493408203125" lon="19.78273945860564708709716796875">
        <ele>1432.199951171875</ele>
        <time>2026-06-18T07:54:58.000Z</time>
        <extensions>
          <ns3:TrackPointExtension>
            <ns3:atemp>22.0</ns3:atemp>
          </ns3:TrackPointExtension>
        </extensions>
      </trkpt>
      <trkpt lat="42.54928951151669025421142578125" lon="19.78271163068711757659912109375">
        <ele>1432.4000244140625</ele>
        <time>2026-06-18T07:54:59.000Z</time>
        <extensions>
          <ns3:TrackPointExtension>
            <ns3:atemp>22.0</ns3:atemp>
          </ns3:TrackPointExtension>
        </extensions>
      </trkpt>
      <trkpt lat="42.54928263835608959197998046875" lon="19.7826843895018100738525390625">
        <ele>1432.5999755859375</ele>
        <time>2026-06-18T07:55:00.000Z</time>
        <extensions>
          <ns3:TrackPointExtension>
            <ns3:atemp>22.0</ns3:atemp>
          </ns3:TrackPointExtension>
        </extensions>
      </trkpt>
      <trkpt lat="42.54927811212837696075439453125" lon="19.782656393945217132568359375">
        <ele>1433</ele>
        <time>2026-06-18T07:55:01.000Z</time>
        <extensions>
          <ns3:TrackPointExtension>
            <ns3:atemp>22.0</ns3:atemp>
          </ns3:TrackPointExtension>
        </extensions>
      </trkpt>
      <trkpt lat="42.54927509464323520660400390625" lon="19.78262579999864101409912109375">
        <ele>1433.199951171875</ele>
        <time>2026-06-18T07:55:02.000Z</time>
        <extensions>
          <ns3:TrackPointExtension>
            <ns3:atemp>22.0</ns3:atemp>
          </ns3:TrackPointExtension>
        </extensions>
      </trkpt>
      <trkpt lat="42.5492664612829685211181640625" lon="19.78259294293820858001708984375">
        <ele>1433.4000244140625</ele>
        <time>2026-06-18T07:55:03.000Z</time>
        <extensions>
          <ns3:TrackPointExtension>
            <ns3:atemp>22.0</ns3:atemp>
          </ns3:TrackPointExtension>
        </extensions>
      </trkpt>
      <trkpt lat="42.54926017485558986663818359375" lon="19.78255857713520526885986328125">
        <ele>1433.4000244140625</ele>
        <time>2026-06-18T07:55:04.000Z</time>
        <extensions>
          <ns3:TrackPointExtension>
            <ns3:atemp>22.0</ns3:atemp>
          </ns3:TrackPointExtension>
        </extensions>
      </trkpt>
      <trkpt lat="42.54925447516143321990966796875" lon="19.78252588771283626556396484375">
        <ele>1433.5999755859375</ele>
        <time>2026-06-18T07:55:05.000Z</time>
        <extensions>
          <ns3:TrackPointExtension>
            <ns3:atemp>22.0</ns3:atemp>
          </ns3:TrackPointExtension>
        </extensions>
      </trkpt>
      <trkpt lat="42.549247853457927703857421875" lon="19.78248917497694492340087890625">
        <ele>1433.800048828125</ele>
        <time>2026-06-18T07:55:06.000Z</time>
        <extensions>
          <ns3:TrackPointExtension>
            <ns3:atemp>22.0</ns3:atemp>
          </ns3:TrackPointExtension>
        </extensions>
      </trkpt>
      <trkpt lat="42.549234442412853240966796875" lon="19.782449863851070404052734375">
        <ele>1433.800048828125</ele>
        <time>2026-06-18T07:55:07.000Z</time>
        <extensions>
          <ns3:TrackPointExtension>
            <ns3:atemp>22.0</ns3:atemp>
          </ns3:TrackPointExtension>
        </extensions>
      </trkpt>
      <trkpt lat="42.54922329448163509368896484375" lon="19.7824131511151790618896484375">
        <ele>1433.800048828125</ele>
        <time>2026-06-18T07:55:08.000Z</time>
        <extensions>
          <ns3:TrackPointExtension>
            <ns3:atemp>22.0</ns3:atemp>
          </ns3:TrackPointExtension>
        </extensions>
      </trkpt>
      <trkpt lat="42.5492121465504169464111328125" lon="19.7823776118457317352294921875">
        <ele>1433.800048828125</ele>
        <time>2026-06-18T07:55:09.000Z</time>
        <extensions>
          <ns3:TrackPointExtension>
            <ns3:atemp>22.0</ns3:atemp>
          </ns3:TrackPointExtension>
        </extensions>
      </trkpt>
      <trkpt lat="42.54919177852571010589599609375" lon="19.78233427740633487701416015625">
        <ele>1433.800048828125</ele>
        <time>2026-06-18T07:55:10.000Z</time>
        <extensions>
          <ns3:TrackPointExtension>
            <ns3:atemp>22.0</ns3:atemp>
          </ns3:TrackPointExtension>
        </extensions>
      </trkpt>
      <trkpt lat="42.54917107522487640380859375" lon="19.782286919653415679931640625">
        <ele>1433.800048828125</ele>
        <time>2026-06-18T07:55:11.000Z</time>
        <extensions>
          <ns3:TrackPointExtension>
            <ns3:atemp>22.0</ns3:atemp>
          </ns3:TrackPointExtension>
        </extensions>
      </trkpt>
      <trkpt lat="42.5491467677056789398193359375" lon="19.78225330822169780731201171875">
        <ele>1433.5999755859375</ele>
        <time>2026-06-18T07:55:12.000Z</time>
        <extensions>
          <ns3:TrackPointExtension>
            <ns3:atemp>22.0</ns3:atemp>
          </ns3:TrackPointExtension>
        </extensions>
      </trkpt>
      <trkpt lat="42.54912078380584716796875" lon="19.7822220437228679656982421875">
        <ele>1433.5999755859375</ele>
        <time>2026-06-18T07:55:13.000Z</time>
        <extensions>
          <ns3:TrackPointExtension>
            <ns3:atemp>22.0</ns3:atemp>
          </ns3:TrackPointExtension>
        </extensions>
      </trkpt>
      <trkpt lat="42.54909153096377849578857421875" lon="19.78219731710851192474365234375">
        <ele>1433.5999755859375</ele>
        <time>2026-06-18T07:55:14.000Z</time>
        <extensions>
          <ns3:TrackPointExtension>
            <ns3:atemp>22.0</ns3:atemp>
          </ns3:TrackPointExtension>
        </extensions>
      </trkpt>
      <trkpt lat="42.54906604997813701629638671875" lon="19.78217921219766139984130859375">
        <ele>1433.5999755859375</ele>
        <time>2026-06-18T07:55:15.000Z</time>
        <extensions>
          <ns3:TrackPointExtension>
            <ns3:atemp>22.0</ns3:atemp>
          </ns3:TrackPointExtension>
        </extensions>
      </trkpt>
      <trkpt lat="42.5490448437631130218505859375" lon="19.7821603529155254364013671875">
        <ele>1433.5999755859375</ele>
        <time>2026-06-18T07:55:16.000Z</time>
        <extensions>
          <ns3:TrackPointExtension>
            <ns3:atemp>22.0</ns3:atemp>
          </ns3:TrackPointExtension>
        </extensions>
      </trkpt>
      <trkpt lat="42.5490223802626132965087890625" lon="19.78214778006076812744140625">
        <ele>1433.800048828125</ele>
        <time>2026-06-18T07:55:17.000Z</time>
        <extensions>
          <ns3:TrackPointExtension>
            <ns3:atemp>22.0</ns3:atemp>
          </ns3:TrackPointExtension>
        </extensions>
      </trkpt>
      <trkpt lat="42.54900276660919189453125" lon="19.7821321897208690643310546875">
        <ele>1434</ele>
        <time>2026-06-18T07:55:18.000Z</time>
        <extensions>
          <ns3:TrackPointExtension>
            <ns3:atemp>22.0</ns3:atemp>
          </ns3:TrackPointExtension>
        </extensions>
      </trkpt>
      <trkpt lat="42.54898088984191417694091796875" lon="19.78211601264774799346923828125">
        <ele>1434</ele>
        <time>2026-06-18T07:55:19.000Z</time>
        <extensions>
          <ns3:TrackPointExtension>
            <ns3:atemp>22.0</ns3:atemp>
          </ns3:TrackPointExtension>
        </extensions>
      </trkpt>
      <trkpt lat="42.54895892925560474395751953125" lon="19.78209841065108776092529296875">
        <ele>1434.199951171875</ele>
        <time>2026-06-18T07:55:20.000Z</time>
        <extensions>
          <ns3:TrackPointExtension>
            <ns3:atemp>22.0</ns3:atemp>
          </ns3:TrackPointExtension>
        </extensions>
      </trkpt>
      <trkpt lat="42.5489345379173755645751953125" lon="19.782077707350254058837890625">
        <ele>1434.4000244140625</ele>
        <time>2026-06-18T07:55:21.000Z</time>
        <extensions>
          <ns3:TrackPointExtension>
            <ns3:atemp>22.0</ns3:atemp>
          </ns3:TrackPointExtension>
        </extensions>
      </trkpt>
      <trkpt lat="42.54891266115009784698486328125" lon="19.7820547409355640411376953125">
        <ele>1434.4000244140625</ele>
        <time>2026-06-18T07:55:22.000Z</time>
        <extensions>
          <ns3:TrackPointExtension>
            <ns3:atemp>22.0</ns3:atemp>
          </ns3:TrackPointExtension>
        </extensions>
      </trkpt>
      <trkpt lat="42.54889346659183502197265625" lon="19.78203319944441318511962890625">
        <ele>1434.5999755859375</ele>
        <time>2026-06-18T07:55:23.000Z</time>
        <extensions>
          <ns3:TrackPointExtension>
            <ns3:atemp>22.0</ns3:atemp>
          </ns3:TrackPointExtension>
        </extensions>
      </trkpt>
      <trkpt lat="42.54887360148131847381591796875" lon="19.7820175252854824066162109375">
        <ele>1434.5999755859375</ele>
        <time>2026-06-18T07:55:24.000Z</time>
        <extensions>
          <ns3:TrackPointExtension>
            <ns3:atemp>22.0</ns3:atemp>
          </ns3:TrackPointExtension>
        </extensions>
      </trkpt>
      <trkpt lat="42.54885817877948284149169921875" lon="19.7820044495165348052978515625">
        <ele>1434.5999755859375</ele>
        <time>2026-06-18T07:55:25.000Z</time>
        <extensions>
          <ns3:TrackPointExtension>
            <ns3:atemp>22.0</ns3:atemp>
          </ns3:TrackPointExtension>
        </extensions>
      </trkpt>
      <trkpt lat="42.54884007386863231658935546875" lon="19.7819823212921619415283203125">
        <ele>1434.5999755859375</ele>
        <time>2026-06-18T07:55:26.000Z</time>
        <extensions>
          <ns3:TrackPointExtension>
            <ns3:atemp>22.0</ns3:atemp>
          </ns3:TrackPointExtension>
        </extensions>
      </trkpt>
      <trkpt lat="42.5488217175006866455078125" lon="19.78195776231586933135986328125">
        <ele>1434.5999755859375</ele>
        <time>2026-06-18T07:55:27.000Z</time>
        <extensions>
          <ns3:TrackPointExtension>
            <ns3:atemp>22.0</ns3:atemp>
          </ns3:TrackPointExtension>
        </extensions>
      </trkpt>
      <trkpt lat="42.5488047860562801361083984375" lon="19.781934209167957305908203125">
        <ele>1434.5999755859375</ele>
        <time>2026-06-18T07:55:28.000Z</time>
        <extensions>
          <ns3:TrackPointExtension>
            <ns3:atemp>22.0</ns3:atemp>
          </ns3:TrackPointExtension>
        </extensions>
      </trkpt>
      <trkpt lat="42.54878676496446132659912109375" lon="19.78190512396395206451416015625">
        <ele>1434.5999755859375</ele>
        <time>2026-06-18T07:55:29.000Z</time>
        <extensions>
          <ns3:TrackPointExtension>
            <ns3:atemp>22.0</ns3:atemp>
          </ns3:TrackPointExtension>
        </extensions>
      </trkpt>
      <trkpt lat="42.5487702526152133941650390625" lon="19.78187821805477142333984375">
        <ele>1434.4000244140625</ele>
        <time>2026-06-18T07:55:30.000Z</time>
        <extensions>
          <ns3:TrackPointExtension>
            <ns3:atemp>22.0</ns3:atemp>
          </ns3:TrackPointExtension>
        </extensions>
      </trkpt>
      <trkpt lat="42.54875491373240947723388671875" lon="19.7818545810878276824951171875">
        <ele>1434.4000244140625</ele>
        <time>2026-06-18T07:55:31.000Z</time>
        <extensions>
          <ns3:TrackPointExtension>
            <ns3:atemp>22.0</ns3:atemp>
          </ns3:TrackPointExtension>
        </extensions>
      </trkpt>
      <trkpt lat="42.5487417541444301605224609375" lon="19.7818331234157085418701171875">
        <ele>1434.4000244140625</ele>
        <time>2026-06-18T07:55:32.000Z</time>
        <extensions>
          <ns3:TrackPointExtension>
            <ns3:atemp>22.0</ns3:atemp>
          </ns3:TrackPointExtension>
        </extensions>
      </trkpt>
      <trkpt lat="42.5487303547561168670654296875" lon="19.78181107901036739349365234375">
        <ele>1434.199951171875</ele>
        <time>2026-06-18T07:55:33.000Z</time>
        <extensions>
          <ns3:TrackPointExtension>
            <ns3:atemp>22.0</ns3:atemp>
          </ns3:TrackPointExtension>
        </extensions>
      </trkpt>
      <trkpt lat="42.54872046411037445068359375" lon="19.78179062716662883758544921875">
        <ele>1434.199951171875</ele>
        <time>2026-06-18T07:55:34.000Z</time>
        <extensions>
          <ns3:TrackPointExtension>
            <ns3:atemp>22.0</ns3:atemp>
          </ns3:TrackPointExtension>
        </extensions>
      </trkpt>
      <trkpt lat="42.5487082265317440032958984375" lon="19.7817710973322391510009765625">
        <ele>1434.199951171875</ele>
        <time>2026-06-18T07:55:35.000Z</time>
        <extensions>
          <ns3:TrackPointExtension>
            <ns3:atemp>22.0</ns3:atemp>
          </ns3:TrackPointExtension>
        </extensions>
      </trkpt>
      <trkpt lat="42.5486971624195575714111328125" lon="19.78175492025911808013916015625">
        <ele>1434.199951171875</ele>
        <time>2026-06-18T07:55:36.000Z</time>
        <extensions>
          <ns3:TrackPointExtension>
            <ns3:atemp>22.0</ns3:atemp>
          </ns3:TrackPointExtension>
        </extensions>
      </trkpt>
      <trkpt lat="42.54868702031672000885009765625" lon="19.78173664771020412445068359375">
        <ele>1434.199951171875</ele>
        <time>2026-06-18T07:55:37.000Z</time>
        <extensions>
          <ns3:TrackPointExtension>
            <ns3:atemp>22.0</ns3:atemp>
          </ns3:TrackPointExtension>
        </extensions>
      </trkpt>
      <trkpt lat="42.5486827455461025238037109375" lon="19.78172658942639827728271484375">
        <ele>1434.199951171875</ele>
        <time>2026-06-18T07:55:38.000Z</time>
        <extensions>
          <ns3:TrackPointExtension>
            <ns3:atemp>22.0</ns3:atemp>
          </ns3:TrackPointExtension>
        </extensions>
      </trkpt>
      <trkpt lat="42.54868366755545139312744140625" lon="19.781720973551273345947265625">
        <ele>1434.199951171875</ele>
        <time>2026-06-18T07:55:39.000Z</time>
        <extensions>
          <ns3:TrackPointExtension>
            <ns3:atemp>22.0</ns3:atemp>
          </ns3:TrackPointExtension>
        </extensions>
      </trkpt>
      <trkpt lat="42.54868383519351482391357421875" lon="19.7817218117415904998779296875">
        <ele>1434.4000244140625</ele>
        <time>2026-06-18T07:55:40.000Z</time>
        <extensions>
          <ns3:TrackPointExtension>
            <ns3:atemp>22.0</ns3:atemp>
          </ns3:TrackPointExtension>
        </extensions>
      </trkpt>
      <trkpt lat="42.54868349991738796234130859375" lon="19.7817219793796539306640625">
        <ele>1434.4000244140625</ele>
        <time>2026-06-18T07:55:41.000Z</time>
        <extensions>
          <ns3:TrackPointExtension>
            <ns3:atemp>22.0</ns3:atemp>
          </ns3:TrackPointExtension>
        </extensions>
      </trkpt>
      <trkpt lat="42.54868182353675365447998046875" lon="19.7817187942564487457275390625">
        <ele>1434.4000244140625</ele>
        <time>2026-06-18T07:55:42.000Z</time>
        <extensions>
          <ns3:TrackPointExtension>
            <ns3:atemp>22.0</ns3:atemp>
          </ns3:TrackPointExtension>
        </extensions>
      </trkpt>
      <trkpt lat="42.54867847077548503875732421875" lon="19.78171996772289276123046875">
        <ele>1434.4000244140625</ele>
        <time>2026-06-18T07:55:43.000Z</time>
        <extensions>
          <ns3:TrackPointExtension>
            <ns3:atemp>22.0</ns3:atemp>
          </ns3:TrackPointExtension>
        </extensions>
      </trkpt>
      <trkpt lat="42.54867847077548503875732421875" lon="19.78171996772289276123046875">
        <ele>1434.4000244140625</ele>
        <time>2026-06-18T07:55:44.000Z</time>
        <extensions>
          <ns3:TrackPointExtension>
            <ns3:atemp>22.0</ns3:atemp>
          </ns3:TrackPointExtension>
        </extensions>
      </trkpt>
      <trkpt lat="42.54867847077548503875732421875" lon="19.78171996772289276123046875">
        <ele>1434.4000244140625</ele>
        <time>2026-06-18T07:55:45.000Z</time>
        <extensions>
          <ns3:TrackPointExtension>
            <ns3:atemp>22.0</ns3:atemp>
          </ns3:TrackPointExtension>
        </extensions>
      </trkpt>
      <trkpt lat="42.54867847077548503875732421875" lon="19.78171996772289276123046875">
        <ele>1434.4000244140625</ele>
        <time>2026-06-18T07:55:46.000Z</time>
        <extensions>
          <ns3:TrackPointExtension>
            <ns3:atemp>22.0</ns3:atemp>
          </ns3:TrackPointExtension>
        </extensions>
      </trkpt>
      <trkpt lat="42.54867847077548503875732421875" lon="19.78171996772289276123046875">
        <ele>1434.199951171875</ele>
        <time>2026-06-18T07:55:47.000Z</time>
        <extensions>
          <ns3:TrackPointExtension>
            <ns3:atemp>22.0</ns3:atemp>
          </ns3:TrackPointExtension>
        </extensions>
      </trkpt>
      <trkpt lat="42.54867847077548503875732421875" lon="19.78171996772289276123046875">
        <ele>1434</ele>
        <time>2026-06-18T07:55:48.000Z</time>
        <extensions>
          <ns3:TrackPointExtension>
            <ns3:atemp>22.0</ns3:atemp>
          </ns3:TrackPointExtension>
        </extensions>
      </trkpt>
      <trkpt lat="42.54867847077548503875732421875" lon="19.78171996772289276123046875">
        <ele>1433.800048828125</ele>
        <time>2026-06-18T07:55:49.000Z</time>
        <extensions>
          <ns3:TrackPointExtension>
            <ns3:atemp>22.0</ns3:atemp>
          </ns3:TrackPointExtension>
        </extensions>
      </trkpt>
      <trkpt lat="42.54867847077548503875732421875" lon="19.78171996772289276123046875">
        <ele>1433.800048828125</ele>
        <time>2026-06-18T07:55:50.000Z</time>
        <extensions>
          <ns3:TrackPointExtension>
            <ns3:atemp>22.0</ns3:atemp>
          </ns3:TrackPointExtension>
        </extensions>
      </trkpt>
      <trkpt lat="42.54867847077548503875732421875" lon="19.78171996772289276123046875">
        <ele>1433.5999755859375</ele>
        <time>2026-06-18T07:55:51.000Z</time>
        <extensions>
          <ns3:TrackPointExtension>
            <ns3:atemp>22.0</ns3:atemp>
          </ns3:TrackPointExtension>
        </extensions>
      </trkpt>
      <trkpt lat="42.54867847077548503875732421875" lon="19.78171996772289276123046875">
        <ele>1433.5999755859375</ele>
        <time>2026-06-18T07:55:52.000Z</time>
        <extensions>
          <ns3:TrackPointExtension>
            <ns3:atemp>22.0</ns3:atemp>
          </ns3:TrackPointExtension>
        </extensions>
      </trkpt>
      <trkpt lat="42.54867847077548503875732421875" lon="19.78171996772289276123046875">
        <ele>1433.5999755859375</ele>
        <time>2026-06-18T07:55:53.000Z</time>
        <extensions>
          <ns3:TrackPointExtension>
            <ns3:atemp>22.0</ns3:atemp>
          </ns3:TrackPointExtension>
        </extensions>
      </trkpt>
      <trkpt lat="42.54867847077548503875732421875" lon="19.78171996772289276123046875">
        <ele>1433.5999755859375</ele>
        <time>2026-06-18T07:55:54.000Z</time>
        <extensions>
          <ns3:TrackPointExtension>
            <ns3:atemp>22.0</ns3:atemp>
          </ns3:TrackPointExtension>
        </extensions>
      </trkpt>
      <trkpt lat="42.54867847077548503875732421875" lon="19.78171996772289276123046875">
        <ele>1433.5999755859375</ele>
        <time>2026-06-18T07:55:55.000Z</time>
        <extensions>
          <ns3:TrackPointExtension>
            <ns3:atemp>22.0</ns3:atemp>
          </ns3:TrackPointExtension>
        </extensions>
      </trkpt>
      <trkpt lat="42.54867847077548503875732421875" lon="19.78171996772289276123046875">
        <ele>1433.5999755859375</ele>
        <time>2026-06-18T07:55:56.000Z</time>
        <extensions>
          <ns3:TrackPointExtension>
            <ns3:atemp>22.0</ns3:atemp>
          </ns3:TrackPointExtension>
        </extensions>
      </trkpt>
      <trkpt lat="42.54867847077548503875732421875" lon="19.78171996772289276123046875">
        <ele>1433.5999755859375</ele>
        <time>2026-06-18T07:55:57.000Z</time>
        <extensions>
          <ns3:TrackPointExtension>
            <ns3:atemp>22.0</ns3:atemp>
          </ns3:TrackPointExtension>
        </extensions>
      </trkpt>
      <trkpt lat="42.54867847077548503875732421875" lon="19.78171996772289276123046875">
        <ele>1433.5999755859375</ele>
        <time>2026-06-18T07:55:58.000Z</time>
        <extensions>
          <ns3:TrackPointExtension>
            <ns3:atemp>22.0</ns3:atemp>
          </ns3:TrackPointExtension>
        </extensions>
      </trkpt>
      <trkpt lat="42.54867847077548503875732421875" lon="19.78171996772289276123046875">
        <ele>1433.5999755859375</ele>
        <time>2026-06-18T07:55:59.000Z</time>
        <extensions>
          <ns3:TrackPointExtension>
            <ns3:atemp>22.0</ns3:atemp>
          </ns3:TrackPointExtension>
        </extensions>
      </trkpt>
      <trkpt lat="42.54867847077548503875732421875" lon="19.78171996772289276123046875">
        <ele>1433.5999755859375</ele>
        <time>2026-06-18T07:56:00.000Z</time>
        <extensions>
          <ns3:TrackPointExtension>
            <ns3:atemp>22.0</ns3:atemp>
          </ns3:TrackPointExtension>
        </extensions>
      </trkpt>
      <trkpt lat="42.54867847077548503875732421875" lon="19.78171996772289276123046875">
        <ele>1433.5999755859375</ele>
        <time>2026-06-18T07:56:01.000Z</time>
        <extensions>
          <ns3:TrackPointExtension>
            <ns3:atemp>22.0</ns3:atemp>
          </ns3:TrackPointExtension>
        </extensions>
      </trkpt>
      <trkpt lat="42.54867847077548503875732421875" lon="19.78171996772289276123046875">
        <ele>1433.5999755859375</ele>
        <time>2026-06-18T07:56:02.000Z</time>
        <extensions>
          <ns3:TrackPointExtension>
            <ns3:atemp>22.0</ns3:atemp>
          </ns3:TrackPointExtension>
        </extensions>
      </trkpt>
      <trkpt lat="42.54867847077548503875732421875" lon="19.78171996772289276123046875">
        <ele>1433.5999755859375</ele>
        <time>2026-06-18T07:56:03.000Z</time>
        <extensions>
          <ns3:TrackPointExtension>
            <ns3:atemp>22.0</ns3:atemp>
          </ns3:TrackPointExtension>
        </extensions>
      </trkpt>
      <trkpt lat="42.54867847077548503875732421875" lon="19.78171996772289276123046875">
        <ele>1433.5999755859375</ele>
        <time>2026-06-18T07:56:04.000Z</time>
        <extensions>
          <ns3:TrackPointExtension>
            <ns3:atemp>22.0</ns3:atemp>
          </ns3:TrackPointExtension>
        </extensions>
      </trkpt>
      <trkpt lat="42.54867847077548503875732421875" lon="19.78171996772289276123046875">
        <ele>1433.4000244140625</ele>
        <time>2026-06-18T07:56:05.000Z</time>
        <extensions>
          <ns3:TrackPointExtension>
            <ns3:atemp>22.0</ns3:atemp>
          </ns3:TrackPointExtension>
        </extensions>
      </trkpt>
      <trkpt lat="42.54867847077548503875732421875" lon="19.78171996772289276123046875">
        <ele>1433.4000244140625</ele>
        <time>2026-06-18T07:56:06.000Z</time>
        <extensions>
          <ns3:TrackPointExtension>
            <ns3:atemp>22.0</ns3:atemp>
          </ns3:TrackPointExtension>
        </extensions>
      </trkpt>
      <trkpt lat="42.54867847077548503875732421875" lon="19.78171996772289276123046875">
        <ele>1433.4000244140625</ele>
        <time>2026-06-18T07:56:07.000Z</time>
        <extensions>
          <ns3:TrackPointExtension>
            <ns3:atemp>22.0</ns3:atemp>
          </ns3:TrackPointExtension>
        </extensions>
      </trkpt>
      <trkpt lat="42.54867847077548503875732421875" lon="19.78171996772289276123046875">
        <ele>1433.4000244140625</ele>
        <time>2026-06-18T07:56:08.000Z</time>
        <extensions>
          <ns3:TrackPointExtension>
            <ns3:atemp>22.0</ns3:atemp>
          </ns3:TrackPointExtension>
        </extensions>
      </trkpt>
      <trkpt lat="42.54867847077548503875732421875" lon="19.78171996772289276123046875">
        <ele>1433.4000244140625</ele>
        <time>2026-06-18T07:56:09.000Z</time>
        <extensions>
          <ns3:TrackPointExtension>
            <ns3:atemp>22.0</ns3:atemp>
          </ns3:TrackPointExtension>
        </extensions>
      </trkpt>
      <trkpt lat="42.54867847077548503875732421875" lon="19.78171996772289276123046875">
        <ele>1433.4000244140625</ele>
        <time>2026-06-18T07:56:10.000Z</time>
        <extensions>
          <ns3:TrackPointExtension>
            <ns3:atemp>22.0</ns3:atemp>
          </ns3:TrackPointExtension>
        </extensions>
      </trkpt>
      <trkpt lat="42.54867847077548503875732421875" lon="19.78171996772289276123046875">
        <ele>1433.4000244140625</ele>
        <time>2026-06-18T07:56:11.000Z</time>
        <extensions>
          <ns3:TrackPointExtension>
            <ns3:atemp>22.0</ns3:atemp>
          </ns3:TrackPointExtension>
        </extensions>
      </trkpt>
      <trkpt lat="42.54867847077548503875732421875" lon="19.78171996772289276123046875">
        <ele>1433.199951171875</ele>
        <time>2026-06-18T07:56:12.000Z</time>
        <extensions>
          <ns3:TrackPointExtension>
            <ns3:atemp>22.0</ns3:atemp>
          </ns3:TrackPointExtension>
        </extensions>
      </trkpt>
      <trkpt lat="42.54867847077548503875732421875" lon="19.78171996772289276123046875">
        <ele>1433.199951171875</ele>
        <time>2026-06-18T07:56:13.000Z</time>
        <extensions>
          <ns3:TrackPointExtension>
            <ns3:atemp>22.0</ns3:atemp>
          </ns3:TrackPointExtension>
        </extensions>
      </trkpt>
      <trkpt lat="42.54867847077548503875732421875" lon="19.78171996772289276123046875">
        <ele>1433.199951171875</ele>
        <time>2026-06-18T07:56:14.000Z</time>
        <extensions>
          <ns3:TrackPointExtension>
            <ns3:atemp>22.0</ns3:atemp>
          </ns3:TrackPointExtension>
        </extensions>
      </trkpt>
      <trkpt lat="42.54867847077548503875732421875" lon="19.78171996772289276123046875">
        <ele>1433.4000244140625</ele>
        <time>2026-06-18T07:56:15.000Z</time>
        <extensions>
          <ns3:TrackPointExtension>
            <ns3:atemp>22.0</ns3:atemp>
          </ns3:TrackPointExtension>
        </extensions>
      </trkpt>
      <trkpt lat="42.54867847077548503875732421875" lon="19.78171996772289276123046875">
        <ele>1433.4000244140625</ele>
        <time>2026-06-18T07:56:16.000Z</time>
        <extensions>
          <ns3:TrackPointExtension>
            <ns3:atemp>22.0</ns3:atemp>
          </ns3:TrackPointExtension>
        </extensions>
      </trkpt>
      <trkpt lat="42.54867847077548503875732421875" lon="19.78171996772289276123046875">
        <ele>1433.4000244140625</ele>
        <time>2026-06-18T07:56:17.000Z</time>
        <extensions>
          <ns3:TrackPointExtension>
            <ns3:atemp>22.0</ns3:atemp>
          </ns3:TrackPointExtension>
        </extensions>
      </trkpt>
      <trkpt lat="42.54867847077548503875732421875" lon="19.78171996772289276123046875">
        <ele>1433.5999755859375</ele>
        <time>2026-06-18T07:56:18.000Z</time>
        <extensions>
          <ns3:TrackPointExtension>
            <ns3:atemp>22.0</ns3:atemp>
          </ns3:TrackPointExtension>
        </extensions>
      </trkpt>
      <trkpt lat="42.54867847077548503875732421875" lon="19.78171996772289276123046875">
        <ele>1433.5999755859375</ele>
        <time>2026-06-18T07:56:19.000Z</time>
        <extensions>
          <ns3:TrackPointExtension>
            <ns3:atemp>22.0</ns3:atemp>
          </ns3:TrackPointExtension>
        </extensions>
      </trkpt>
      <trkpt lat="42.54867847077548503875732421875" lon="19.78171996772289276123046875">
        <ele>1433.5999755859375</ele>
        <time>2026-06-18T07:56:20.000Z</time>
        <extensions>
          <ns3:TrackPointExtension>
            <ns3:atemp>22.0</ns3:atemp>
          </ns3:TrackPointExtension>
        </extensions>
      </trkpt>
      <trkpt lat="42.54867847077548503875732421875" lon="19.78171996772289276123046875">
        <ele>1433.5999755859375</ele>
        <time>2026-06-18T07:56:21.000Z</time>
        <extensions>
          <ns3:TrackPointExtension>
            <ns3:atemp>22.0</ns3:atemp>
          </ns3:TrackPointExtension>
        </extensions>
      </trkpt>
      <trkpt lat="42.54867847077548503875732421875" lon="19.78171996772289276123046875">
        <ele>1433.800048828125</ele>
        <time>2026-06-18T07:56:22.000Z</time>
        <extensions>
          <ns3:TrackPointExtension>
            <ns3:atemp>22.0</ns3:atemp>
          </ns3:TrackPointExtension>
        </extensions>
      </trkpt>
      <trkpt lat="42.54867847077548503875732421875" lon="19.78171996772289276123046875">
        <ele>1433.800048828125</ele>
        <time>2026-06-18T07:56:23.000Z</time>
        <extensions>
          <ns3:TrackPointExtension>
            <ns3:atemp>22.0</ns3:atemp>
          </ns3:TrackPointExtension>
        </extensions>
      </trkpt>
      <trkpt lat="42.54867847077548503875732421875" lon="19.78171996772289276123046875">
        <ele>1433.800048828125</ele>
        <time>2026-06-18T07:56:24.000Z</time>
        <extensions>
          <ns3:TrackPointExtension>
            <ns3:atemp>22.0</ns3:atemp>
          </ns3:TrackPointExtension>
        </extensions>
      </trkpt>
      <trkpt lat="42.54867847077548503875732421875" lon="19.78171996772289276123046875">
        <ele>1434</ele>
        <time>2026-06-18T07:56:25.000Z</time>
        <extensions>
          <ns3:TrackPointExtension>
            <ns3:atemp>22.0</ns3:atemp>
          </ns3:TrackPointExtension>
        </extensions>
      </trkpt>
      <trkpt lat="42.54867847077548503875732421875" lon="19.78171996772289276123046875">
        <ele>1434</ele>
        <time>2026-06-18T07:56:26.000Z</time>
        <extensions>
          <ns3:TrackPointExtension>
            <ns3:atemp>22.0</ns3:atemp>
          </ns3:TrackPointExtension>
        </extensions>
      </trkpt>
      <trkpt lat="42.54867847077548503875732421875" lon="19.78171996772289276123046875">
        <ele>1434</ele>
        <time>2026-06-18T07:56:27.000Z</time>
        <extensions>
          <ns3:TrackPointExtension>
            <ns3:atemp>22.0</ns3:atemp>
          </ns3:TrackPointExtension>
        </extensions>
      </trkpt>
      <trkpt lat="42.54867847077548503875732421875" lon="19.78171996772289276123046875">
        <ele>1434</ele>
        <time>2026-06-18T07:56:28.000Z</time>
        <extensions>
          <ns3:TrackPointExtension>
            <ns3:atemp>22.0</ns3:atemp>
          </ns3:TrackPointExtension>
        </extensions>
      </trkpt>
      <trkpt lat="42.54867847077548503875732421875" lon="19.78171996772289276123046875">
        <ele>1434.199951171875</ele>
        <time>2026-06-18T07:56:29.000Z</time>
        <extensions>
          <ns3:TrackPointExtension>
            <ns3:atemp>22.0</ns3:atemp>
          </ns3:TrackPointExtension>
        </extensions>
      </trkpt>
      <trkpt lat="42.54867847077548503875732421875" lon="19.78171996772289276123046875">
        <ele>1434.199951171875</ele>
        <time>2026-06-18T07:56:30.000Z</time>
        <extensions>
          <ns3:TrackPointExtension>
            <ns3:atemp>22.0</ns3:atemp>
          </ns3:TrackPointExtension>
        </extensions>
      </trkpt>
      <trkpt lat="42.54867847077548503875732421875" lon="19.78171996772289276123046875">
        <ele>1434.199951171875</ele>
        <time>2026-06-18T07:56:31.000Z</time>
        <extensions>
          <ns3:TrackPointExtension>
            <ns3:atemp>22.0</ns3:atemp>
          </ns3:TrackPointExtension>
        </extensions>
      </trkpt>
      <trkpt lat="42.54867847077548503875732421875" lon="19.78171996772289276123046875">
        <ele>1434.199951171875</ele>
        <time>2026-06-18T07:56:32.000Z</time>
        <extensions>
          <ns3:TrackPointExtension>
            <ns3:atemp>22.0</ns3:atemp>
          </ns3:TrackPointExtension>
        </extensions>
      </trkpt>
      <trkpt lat="42.54867847077548503875732421875" lon="19.78171996772289276123046875">
        <ele>1434.199951171875</ele>
        <time>2026-06-18T07:56:33.000Z</time>
        <extensions>
          <ns3:TrackPointExtension>
            <ns3:atemp>22.0</ns3:atemp>
          </ns3:TrackPointExtension>
        </extensions>
      </trkpt>
      <trkpt lat="42.54867847077548503875732421875" lon="19.78171996772289276123046875">
        <ele>1434.199951171875</ele>
        <time>2026-06-18T07:56:34.000Z</time>
        <extensions>
          <ns3:TrackPointExtension>
            <ns3:atemp>22.0</ns3:atemp>
          </ns3:TrackPointExtension>
        </extensions>
      </trkpt>
      <trkpt lat="42.54867847077548503875732421875" lon="19.78171996772289276123046875">
        <ele>1434.199951171875</ele>
        <time>2026-06-18T07:56:35.000Z</time>
        <extensions>
          <ns3:TrackPointExtension>
            <ns3:atemp>22.0</ns3:atemp>
          </ns3:TrackPointExtension>
        </extensions>
      </trkpt>
      <trkpt lat="42.54867847077548503875732421875" lon="19.78171996772289276123046875">
        <ele>1434.199951171875</ele>
        <time>2026-06-18T07:56:36.000Z</time>
        <extensions>
          <ns3:TrackPointExtension>
            <ns3:atemp>22.0</ns3:atemp>
          </ns3:TrackPointExtension>
        </extensions>
      </trkpt>
      <trkpt lat="42.54867847077548503875732421875" lon="19.78171996772289276123046875">
        <ele>1434.199951171875</ele>
        <time>2026-06-18T07:56:37.000Z</time>
        <extensions>
          <ns3:TrackPointExtension>
            <ns3:atemp>22.0</ns3:atemp>
          </ns3:TrackPointExtension>
        </extensions>
      </trkpt>
      <trkpt lat="42.54867847077548503875732421875" lon="19.78171996772289276123046875">
        <ele>1434.4000244140625</ele>
        <time>2026-06-18T07:56:38.000Z</time>
        <extensions>
          <ns3:TrackPointExtension>
            <ns3:atemp>22.0</ns3:atemp>
          </ns3:TrackPointExtension>
        </extensions>
      </trkpt>
      <trkpt lat="42.54867847077548503875732421875" lon="19.78171996772289276123046875">
        <ele>1434.4000244140625</ele>
        <time>2026-06-18T07:56:39.000Z</time>
        <extensions>
          <ns3:TrackPointExtension>
            <ns3:atemp>22.0</ns3:atemp>
          </ns3:TrackPointExtension>
        </extensions>
      </trkpt>
      <trkpt lat="42.54867847077548503875732421875" lon="19.78171996772289276123046875">
        <ele>1434.4000244140625</ele>
        <time>2026-06-18T07:56:40.000Z</time>
        <extensions>
          <ns3:TrackPointExtension>
            <ns3:atemp>22.0</ns3:atemp>
          </ns3:TrackPointExtension>
        </extensions>
      </trkpt>
      <trkpt lat="42.54867847077548503875732421875" lon="19.78171996772289276123046875">
        <ele>1434.4000244140625</ele>
        <time>2026-06-18T07:56:41.000Z</time>
        <extensions>
          <ns3:TrackPointExtension>
            <ns3:atemp>22.0</ns3:atemp>
          </ns3:TrackPointExtension>
        </extensions>
      </trkpt>
      <trkpt lat="42.54867847077548503875732421875" lon="19.78171996772289276123046875">
        <ele>1434.4000244140625</ele>
        <time>2026-06-18T07:56:42.000Z</time>
        <extensions>
          <ns3:TrackPointExtension>
            <ns3:atemp>22.0</ns3:atemp>
          </ns3:TrackPointExtension>
        </extensions>
      </trkpt>
      <trkpt lat="42.54867847077548503875732421875" lon="19.78171996772289276123046875">
        <ele>1434.4000244140625</ele>
        <time>2026-06-18T07:56:43.000Z</time>
        <extensions>
          <ns3:TrackPointExtension>
            <ns3:atemp>22.0</ns3:atemp>
          </ns3:TrackPointExtension>
        </extensions>
      </trkpt>
      <trkpt lat="42.54867847077548503875732421875" lon="19.78171996772289276123046875">
        <ele>1434.4000244140625</ele>
        <time>2026-06-18T07:56:44.000Z</time>
        <extensions>
          <ns3:TrackPointExtension>
            <ns3:atemp>22.0</ns3:atemp>
          </ns3:TrackPointExtension>
        </extensions>
      </trkpt>
      <trkpt lat="42.54867847077548503875732421875" lon="19.78171996772289276123046875">
        <ele>1434.4000244140625</ele>
        <time>2026-06-18T07:56:45.000Z</time>
        <extensions>
          <ns3:TrackPointExtension>
            <ns3:atemp>22.0</ns3:atemp>
          </ns3:TrackPointExtension>
        </extensions>
      </trkpt>
      <trkpt lat="42.54867847077548503875732421875" lon="19.78171996772289276123046875">
        <ele>1434.4000244140625</ele>
        <time>2026-06-18T07:56:46.000Z</time>
        <extensions>
          <ns3:TrackPointExtension>
            <ns3:atemp>22.0</ns3:atemp>
          </ns3:TrackPointExtension>
        </extensions>
      </trkpt>
      <trkpt lat="42.54867847077548503875732421875" lon="19.78171996772289276123046875">
        <ele>1434.4000244140625</ele>
        <time>2026-06-18T07:56:47.000Z</time>
        <extensions>
          <ns3:TrackPointExtension>
            <ns3:atemp>22.0</ns3:atemp>
          </ns3:TrackPointExtension>
        </extensions>
      </trkpt>
      <trkpt lat="42.54867847077548503875732421875" lon="19.78171996772289276123046875">
        <ele>1434.4000244140625</ele>
        <time>2026-06-18T07:56:48.000Z</time>
        <extensions>
          <ns3:TrackPointExtension>
            <ns3:atemp>22.0</ns3:atemp>
          </ns3:TrackPointExtension>
        </extensions>
      </trkpt>
      <trkpt lat="42.54867847077548503875732421875" lon="19.78171996772289276123046875">
        <ele>1434.4000244140625</ele>
        <time>2026-06-18T07:56:49.000Z</time>
        <extensions>
          <ns3:TrackPointExtension>
            <ns3:atemp>22.0</ns3:atemp>
          </ns3:TrackPointExtension>
        </extensions>
      </trkpt>
      <trkpt lat="42.54867847077548503875732421875" lon="19.78171996772289276123046875">
        <ele>1434.4000244140625</ele>
        <time>2026-06-18T07:56:50.000Z</time>
        <extensions>
          <ns3:TrackPointExtension>
            <ns3:atemp>22.0</ns3:atemp>
          </ns3:TrackPointExtension>
        </extensions>
      </trkpt>
      <trkpt lat="42.54867847077548503875732421875" lon="19.78171996772289276123046875">
        <ele>1434.4000244140625</ele>
        <time>2026-06-18T07:56:51.000Z</time>
        <extensions>
          <ns3:TrackPointExtension>
            <ns3:atemp>22.0</ns3:atemp>
          </ns3:TrackPointExtension>
        </extensions>
      </trkpt>
      <trkpt lat="42.54867847077548503875732421875" lon="19.78171996772289276123046875">
        <ele>1434.4000244140625</ele>
        <time>2026-06-18T07:56:52.000Z</time>
        <extensions>
          <ns3:TrackPointExtension>
            <ns3:atemp>22.0</ns3:atemp>
          </ns3:TrackPointExtension>
        </extensions>
      </trkpt>
      <trkpt lat="42.54867847077548503875732421875" lon="19.78171996772289276123046875">
        <ele>1434.4000244140625</ele>
        <time>2026-06-18T07:56:53.000Z</time>
        <extensions>
          <ns3:TrackPointExtension>
            <ns3:atemp>22.0</ns3:atemp>
          </ns3:TrackPointExtension>
        </extensions>
      </trkpt>
      <trkpt lat="42.54867847077548503875732421875" lon="19.78171996772289276123046875">
        <ele>1434.4000244140625</ele>
        <time>2026-06-18T07:56:54.000Z</time>
        <extensions>
          <ns3:TrackPointExtension>
            <ns3:atemp>22.0</ns3:atemp>
          </ns3:TrackPointExtension>
        </extensions>
      </trkpt>
      <trkpt lat="42.54867847077548503875732421875" lon="19.78171996772289276123046875">
        <ele>1434.4000244140625</ele>
        <time>2026-06-18T07:56:55.000Z</time>
        <extensions>
          <ns3:TrackPointExtension>
            <ns3:atemp>22.0</ns3:atemp>
          </ns3:TrackPointExtension>
        </extensions>
      </trkpt>
      <trkpt lat="42.54867847077548503875732421875" lon="19.78171996772289276123046875">
        <ele>1434.4000244140625</ele>
        <time>2026-06-18T07:56:56.000Z</time>
        <extensions>
          <ns3:TrackPointExtension>
            <ns3:atemp>22.0</ns3:atemp>
          </ns3:TrackPointExtension>
        </extensions>
      </trkpt>
      <trkpt lat="42.54867847077548503875732421875" lon="19.78171996772289276123046875">
        <ele>1434.4000244140625</ele>
        <time>2026-06-18T07:56:57.000Z</time>
        <extensions>
          <ns3:TrackPointExtension>
            <ns3:atemp>22.0</ns3:atemp>
          </ns3:TrackPointExtension>
        </extensions>
      </trkpt>
      <trkpt lat="42.54867847077548503875732421875" lon="19.78171996772289276123046875">
        <ele>1434.4000244140625</ele>
        <time>2026-06-18T07:56:58.000Z</time>
        <extensions>
          <ns3:TrackPointExtension>
            <ns3:atemp>22.0</ns3:atemp>
          </ns3:TrackPointExtension>
        </extensions>
      </trkpt>
      <trkpt lat="42.54867847077548503875732421875" lon="19.78171996772289276123046875">
        <ele>1434.4000244140625</ele>
        <time>2026-06-18T07:56:59.000Z</time>
        <extensions>
          <ns3:TrackPointExtension>
            <ns3:atemp>22.0</ns3:atemp>
          </ns3:TrackPointExtension>
        </extensions>
      </trkpt>
      <trkpt lat="42.54867847077548503875732421875" lon="19.78171996772289276123046875">
        <ele>1434.4000244140625</ele>
        <time>2026-06-18T07:57:00.000Z</time>
        <extensions>
          <ns3:TrackPointExtension>
            <ns3:atemp>22.0</ns3:atemp>
          </ns3:TrackPointExtension>
        </extensions>
      </trkpt>
      <trkpt lat="42.54867847077548503875732421875" lon="19.78171996772289276123046875">
        <ele>1434.4000244140625</ele>
        <time>2026-06-18T07:57:01.000Z</time>
        <extensions>
          <ns3:TrackPointExtension>
            <ns3:atemp>22.0</ns3:atemp>
          </ns3:TrackPointExtension>
        </extensions>
      </trkpt>
      <trkpt lat="42.54867847077548503875732421875" lon="19.78171996772289276123046875">
        <ele>1434.4000244140625</ele>
        <time>2026-06-18T07:57:02.000Z</time>
        <extensions>
          <ns3:TrackPointExtension>
            <ns3:atemp>22.0</ns3:atemp>
          </ns3:TrackPointExtension>
        </extensions>
      </trkpt>
      <trkpt lat="42.54867847077548503875732421875" lon="19.78171996772289276123046875">
        <ele>1434.4000244140625</ele>
        <time>2026-06-18T07:57:03.000Z</time>
        <extensions>
          <ns3:TrackPointExtension>
            <ns3:atemp>22.0</ns3:atemp>
          </ns3:TrackPointExtension>
        </extensions>
      </trkpt>
      <trkpt lat="42.54867847077548503875732421875" lon="19.78171996772289276123046875">
        <ele>1434.4000244140625</ele>
        <time>2026-06-18T07:57:04.000Z</time>
        <extensions>
          <ns3:TrackPointExtension>
            <ns3:atemp>22.0</ns3:atemp>
          </ns3:TrackPointExtension>
        </extensions>
      </trkpt>
      <trkpt lat="42.54867847077548503875732421875" lon="19.78171996772289276123046875">
        <ele>1434.4000244140625</ele>
        <time>2026-06-18T07:57:05.000Z</time>
        <extensions>
          <ns3:TrackPointExtension>
            <ns3:atemp>22.0</ns3:atemp>
          </ns3:TrackPointExtension>
        </extensions>
      </trkpt>
      <trkpt lat="42.54867847077548503875732421875" lon="19.78171996772289276123046875">
        <ele>1434.4000244140625</ele>
        <time>2026-06-18T07:57:06.000Z</time>
        <extensions>
          <ns3:TrackPointExtension>
            <ns3:atemp>22.0</ns3:atemp>
          </ns3:TrackPointExtension>
        </extensions>
      </trkpt>
      <trkpt lat="42.54867847077548503875732421875" lon="19.78171996772289276123046875">
        <ele>1434.4000244140625</ele>
        <time>2026-06-18T07:57:07.000Z</time>
        <extensions>
          <ns3:TrackPointExtension>
            <ns3:atemp>22.0</ns3:atemp>
          </ns3:TrackPointExtension>
        </extensions>
      </trkpt>
      <trkpt lat="42.54867847077548503875732421875" lon="19.78171996772289276123046875">
        <ele>1434.4000244140625</ele>
        <time>2026-06-18T07:57:08.000Z</time>
        <extensions>
          <ns3:TrackPointExtension>
            <ns3:atemp>22.0</ns3:atemp>
          </ns3:TrackPointExtension>
        </extensions>
      </trkpt>
      <trkpt lat="42.54867847077548503875732421875" lon="19.78171996772289276123046875">
        <ele>1434.4000244140625</ele>
        <time>2026-06-18T07:57:09.000Z</time>
        <extensions>
          <ns3:TrackPointExtension>
            <ns3:atemp>22.0</ns3:atemp>
          </ns3:TrackPointExtension>
        </extensions>
      </trkpt>
      <trkpt lat="42.54867847077548503875732421875" lon="19.78171996772289276123046875">
        <ele>1434.4000244140625</ele>
        <time>2026-06-18T07:57:10.000Z</time>
        <extensions>
          <ns3:TrackPointExtension>
            <ns3:atemp>22.0</ns3:atemp>
          </ns3:TrackPointExtension>
        </extensions>
      </trkpt>
      <trkpt lat="42.54867847077548503875732421875" lon="19.78171996772289276123046875">
        <ele>1434.4000244140625</ele>
        <time>2026-06-18T07:57:11.000Z</time>
        <extensions>
          <ns3:TrackPointExtension>
            <ns3:atemp>22.0</ns3:atemp>
          </ns3:TrackPointExtension>
        </extensions>
      </trkpt>
      <trkpt lat="42.54867847077548503875732421875" lon="19.78171996772289276123046875">
        <ele>1434.4000244140625</ele>
        <time>2026-06-18T07:57:12.000Z</time>
        <extensions>
          <ns3:TrackPointExtension>
            <ns3:atemp>22.0</ns3:atemp>
          </ns3:TrackPointExtension>
        </extensions>
      </trkpt>
      <trkpt lat="42.54867847077548503875732421875" lon="19.78171996772289276123046875">
        <ele>1434.4000244140625</ele>
        <time>2026-06-18T07:57:13.000Z</time>
        <extensions>
          <ns3:TrackPointExtension>
            <ns3:atemp>22.0</ns3:atemp>
          </ns3:TrackPointExtension>
        </extensions>
      </trkpt>
      <trkpt lat="42.54867847077548503875732421875" lon="19.78171996772289276123046875">
        <ele>1434.4000244140625</ele>
        <time>2026-06-18T07:57:14.000Z</time>
        <extensions>
          <ns3:TrackPointExtension>
            <ns3:atemp>22.0</ns3:atemp>
          </ns3:TrackPointExtension>
        </extensions>
      </trkpt>
      <trkpt lat="42.54867847077548503875732421875" lon="19.78171996772289276123046875">
        <ele>1434.4000244140625</ele>
        <time>2026-06-18T07:57:15.000Z</time>
        <extensions>
          <ns3:TrackPointExtension>
            <ns3:atemp>22.0</ns3:atemp>
          </ns3:TrackPointExtension>
        </extensions>
      </trkpt>
      <trkpt lat="42.54867847077548503875732421875" lon="19.78171996772289276123046875">
        <ele>1434.4000244140625</ele>
        <time>2026-06-18T07:57:16.000Z</time>
        <extensions>
          <ns3:TrackPointExtension>
            <ns3:atemp>22.0</ns3:atemp>
          </ns3:TrackPointExtension>
        </extensions>
      </trkpt>
      <trkpt lat="42.54867847077548503875732421875" lon="19.78171996772289276123046875">
        <ele>1434.4000244140625</ele>
        <time>2026-06-18T07:57:17.000Z</time>
        <extensions>
          <ns3:TrackPointExtension>
            <ns3:atemp>22.0</ns3:atemp>
          </ns3:TrackPointExtension>
        </extensions>
      </trkpt>
      <trkpt lat="42.54867847077548503875732421875" lon="19.78171996772289276123046875">
        <ele>1434.4000244140625</ele>
        <time>2026-06-18T07:57:18.000Z</time>
        <extensions>
          <ns3:TrackPointExtension>
            <ns3:atemp>22.0</ns3:atemp>
          </ns3:TrackPointExtension>
        </extensions>
      </trkpt>
      <trkpt lat="42.54867847077548503875732421875" lon="19.78171996772289276123046875">
        <ele>1434.4000244140625</ele>
        <time>2026-06-18T07:57:19.000Z</time>
        <extensions>
          <ns3:TrackPointExtension>
            <ns3:atemp>22.0</ns3:atemp>
          </ns3:TrackPointExtension>
        </extensions>
      </trkpt>
      <trkpt lat="42.54867847077548503875732421875" lon="19.78171996772289276123046875">
        <ele>1434.4000244140625</ele>
        <time>2026-06-18T07:57:20.000Z</time>
        <extensions>
          <ns3:TrackPointExtension>
            <ns3:atemp>22.0</ns3:atemp>
          </ns3:TrackPointExtension>
        </extensions>
      </trkpt>
      <trkpt lat="42.54867847077548503875732421875" lon="19.78171996772289276123046875">
        <ele>1434.4000244140625</ele>
        <time>2026-06-18T07:57:21.000Z</time>
        <extensions>
          <ns3:TrackPointExtension>
            <ns3:atemp>22.0</ns3:atemp>
          </ns3:TrackPointExtension>
        </extensions>
      </trkpt>
      <trkpt lat="42.54867847077548503875732421875" lon="19.78171996772289276123046875">
        <ele>1434.4000244140625</ele>
        <time>2026-06-18T07:57:22.000Z</time>
        <extensions>
          <ns3:TrackPointExtension>
            <ns3:atemp>22.0</ns3:atemp>
          </ns3:TrackPointExtension>
        </extensions>
      </trkpt>
      <trkpt lat="42.54867847077548503875732421875" lon="19.78171996772289276123046875">
        <ele>1434.4000244140625</ele>
        <time>2026-06-18T07:57:23.000Z</time>
        <extensions>
          <ns3:TrackPointExtension>
            <ns3:atemp>22.0</ns3:atemp>
          </ns3:TrackPointExtension>
        </extensions>
      </trkpt>
      <trkpt lat="42.54867847077548503875732421875" lon="19.78171996772289276123046875">
        <ele>1434.4000244140625</ele>
        <time>2026-06-18T07:57:24.000Z</time>
        <extensions>
          <ns3:TrackPointExtension>
            <ns3:atemp>22.0</ns3:atemp>
          </ns3:TrackPointExtension>
        </extensions>
      </trkpt>
      <trkpt lat="42.54867847077548503875732421875" lon="19.78171996772289276123046875">
        <ele>1434.4000244140625</ele>
        <time>2026-06-18T07:57:25.000Z</time>
        <extensions>
          <ns3:TrackPointExtension>
            <ns3:atemp>22.0</ns3:atemp>
          </ns3:TrackPointExtension>
        </extensions>
      </trkpt>
      <trkpt lat="42.54867847077548503875732421875" lon="19.78171996772289276123046875">
        <ele>1434.4000244140625</ele>
        <time>2026-06-18T07:57:26.000Z</time>
        <extensions>
          <ns3:TrackPointExtension>
            <ns3:atemp>22.0</ns3:atemp>
          </ns3:TrackPointExtension>
        </extensions>
      </trkpt>
      <trkpt lat="42.54867847077548503875732421875" lon="19.78171996772289276123046875">
        <ele>1434.4000244140625</ele>
        <time>2026-06-18T07:57:27.000Z</time>
        <extensions>
          <ns3:TrackPointExtension>
            <ns3:atemp>22.0</ns3:atemp>
          </ns3:TrackPointExtension>
        </extensions>
      </trkpt>
      <trkpt lat="42.54867847077548503875732421875" lon="19.78171996772289276123046875">
        <ele>1434.4000244140625</ele>
        <time>2026-06-18T07:57:28.000Z</time>
        <extensions>
          <ns3:TrackPointExtension>
            <ns3:atemp>22.0</ns3:atemp>
          </ns3:TrackPointExtension>
        </extensions>
      </trkpt>
      <trkpt lat="42.54867847077548503875732421875" lon="19.78171996772289276123046875">
        <ele>1434.4000244140625</ele>
        <time>2026-06-18T07:57:29.000Z</time>
        <extensions>
          <ns3:TrackPointExtension>
            <ns3:atemp>22.0</ns3:atemp>
          </ns3:TrackPointExtension>
        </extensions>
      </trkpt>
      <trkpt lat="42.54867847077548503875732421875" lon="19.78171996772289276123046875">
        <ele>1434.4000244140625</ele>
        <time>2026-06-18T07:57:30.000Z</time>
        <extensions>
          <ns3:TrackPointExtension>
            <ns3:atemp>22.0</ns3:atemp>
          </ns3:TrackPointExtension>
        </extensions>
      </trkpt>
      <trkpt lat="42.54867847077548503875732421875" lon="19.78171996772289276123046875">
        <ele>1434.4000244140625</ele>
        <time>2026-06-18T07:57:31.000Z</time>
        <extensions>
          <ns3:TrackPointExtension>
            <ns3:atemp>22.0</ns3:atemp>
          </ns3:TrackPointExtension>
        </extensions>
      </trkpt>
      <trkpt lat="42.54867847077548503875732421875" lon="19.78171996772289276123046875">
        <ele>1434.4000244140625</ele>
        <time>2026-06-18T07:57:32.000Z</time>
        <extensions>
          <ns3:TrackPointExtension>
            <ns3:atemp>22.0</ns3:atemp>
          </ns3:TrackPointExtension>
        </extensions>
      </trkpt>
      <trkpt lat="42.54867847077548503875732421875" lon="19.78171996772289276123046875">
        <ele>1434.4000244140625</ele>
        <time>2026-06-18T07:57:33.000Z</time>
        <extensions>
          <ns3:TrackPointExtension>
            <ns3:atemp>22.0</ns3:atemp>
          </ns3:TrackPointExtension>
        </extensions>
      </trkpt>
      <trkpt lat="42.54867847077548503875732421875" lon="19.78171996772289276123046875">
        <ele>1434.4000244140625</ele>
        <time>2026-06-18T07:57:34.000Z</time>
        <extensions>
          <ns3:TrackPointExtension>
            <ns3:atemp>22.0</ns3:atemp>
          </ns3:TrackPointExtension>
        </extensions>
      </trkpt>
      <trkpt lat="42.54867847077548503875732421875" lon="19.78171996772289276123046875">
        <ele>1434.4000244140625</ele>
        <time>2026-06-18T07:57:35.000Z</time>
        <extensions>
          <ns3:TrackPointExtension>
            <ns3:atemp>22.0</ns3:atemp>
          </ns3:TrackPointExtension>
        </extensions>
      </trkpt>
      <trkpt lat="42.54867847077548503875732421875" lon="19.78171996772289276123046875">
        <ele>1434.4000244140625</ele>
        <time>2026-06-18T07:57:36.000Z</time>
        <extensions>
          <ns3:TrackPointExtension>
            <ns3:atemp>22.0</ns3:atemp>
          </ns3:TrackPointExtension>
        </extensions>
      </trkpt>
      <trkpt lat="42.54867847077548503875732421875" lon="19.78171996772289276123046875">
        <ele>1434.4000244140625</ele>
        <time>2026-06-18T07:57:37.000Z</time>
        <extensions>
          <ns3:TrackPointExtension>
            <ns3:atemp>22.0</ns3:atemp>
          </ns3:TrackPointExtension>
        </extensions>
      </trkpt>
      <trkpt lat="42.54867847077548503875732421875" lon="19.78171996772289276123046875">
        <ele>1434.4000244140625</ele>
        <time>2026-06-18T07:57:38.000Z</time>
        <extensions>
          <ns3:TrackPointExtension>
            <ns3:atemp>22.0</ns3:atemp>
          </ns3:TrackPointExtension>
        </extensions>
      </trkpt>
      <trkpt lat="42.54867847077548503875732421875" lon="19.78171996772289276123046875">
        <ele>1434.4000244140625</ele>
        <time>2026-06-18T07:57:39.000Z</time>
        <extensions>
          <ns3:TrackPointExtension>
            <ns3:atemp>22.0</ns3:atemp>
          </ns3:TrackPointExtension>
        </extensions>
      </trkpt>
      <trkpt lat="42.54867847077548503875732421875" lon="19.78171996772289276123046875">
        <ele>1434.4000244140625</ele>
        <time>2026-06-18T07:57:40.000Z</time>
        <extensions>
          <ns3:TrackPointExtension>
            <ns3:atemp>22.0</ns3:atemp>
          </ns3:TrackPointExtension>
        </extensions>
      </trkpt>
      <trkpt lat="42.54867847077548503875732421875" lon="19.78171996772289276123046875">
        <ele>1434.4000244140625</ele>
        <time>2026-06-18T07:57:41.000Z</time>
        <extensions>
          <ns3:TrackPointExtension>
            <ns3:atemp>22.0</ns3:atemp>
          </ns3:TrackPointExtension>
        </extensions>
      </trkpt>
      <trkpt lat="42.54867847077548503875732421875" lon="19.78171996772289276123046875">
        <ele>1434.4000244140625</ele>
        <time>2026-06-18T07:57:42.000Z</time>
        <extensions>
          <ns3:TrackPointExtension>
            <ns3:atemp>22.0</ns3:atemp>
          </ns3:TrackPointExtension>
        </extensions>
      </trkpt>
      <trkpt lat="42.54867847077548503875732421875" lon="19.78171996772289276123046875">
        <ele>1434.4000244140625</ele>
        <time>2026-06-18T07:57:43.000Z</time>
        <extensions>
          <ns3:TrackPointExtension>
            <ns3:atemp>22.0</ns3:atemp>
          </ns3:TrackPointExtension>
        </extensions>
      </trkpt>
      <trkpt lat="42.54867847077548503875732421875" lon="19.78171996772289276123046875">
        <ele>1434.4000244140625</ele>
        <time>2026-06-18T07:57:44.000Z</time>
        <extensions>
          <ns3:TrackPointExtension>
            <ns3:atemp>22.0</ns3:atemp>
          </ns3:TrackPointExtension>
        </extensions>
      </trkpt>
      <trkpt lat="42.54867847077548503875732421875" lon="19.78171996772289276123046875">
        <ele>1434.4000244140625</ele>
        <time>2026-06-18T07:57:45.000Z</time>
        <extensions>
          <ns3:TrackPointExtension>
            <ns3:atemp>22.0</ns3:atemp>
          </ns3:TrackPointExtension>
        </extensions>
      </trkpt>
      <trkpt lat="42.54867847077548503875732421875" lon="19.78171996772289276123046875">
        <ele>1434.4000244140625</ele>
        <time>2026-06-18T07:57:46.000Z</time>
        <extensions>
          <ns3:TrackPointExtension>
            <ns3:atemp>22.0</ns3:atemp>
          </ns3:TrackPointExtension>
        </extensions>
      </trkpt>
      <trkpt lat="42.54867847077548503875732421875" lon="19.78171996772289276123046875">
        <ele>1434.4000244140625</ele>
        <time>2026-06-18T07:57:47.000Z</time>
        <extensions>
          <ns3:TrackPointExtension>
            <ns3:atemp>22.0</ns3:atemp>
          </ns3:TrackPointExtension>
        </extensions>
      </trkpt>
      <trkpt lat="42.54867847077548503875732421875" lon="19.78171996772289276123046875">
        <ele>1434.4000244140625</ele>
        <time>2026-06-18T07:57:48.000Z</time>
        <extensions>
          <ns3:TrackPointExtension>
            <ns3:atemp>22.0</ns3:atemp>
          </ns3:TrackPointExtension>
        </extensions>
      </trkpt>
      <trkpt lat="42.54867847077548503875732421875" lon="19.78171996772289276123046875">
        <ele>1434.4000244140625</ele>
        <time>2026-06-18T07:57:49.000Z</time>
        <extensions>
          <ns3:TrackPointExtension>
            <ns3:atemp>22.0</ns3:atemp>
          </ns3:TrackPointExtension>
        </extensions>
      </trkpt>
      <trkpt lat="42.54867847077548503875732421875" lon="19.78171996772289276123046875">
        <ele>1434.4000244140625</ele>
        <time>2026-06-18T07:57:50.000Z</time>
        <extensions>
          <ns3:TrackPointExtension>
            <ns3:atemp>22.0</ns3:atemp>
          </ns3:TrackPointExtension>
        </extensions>
      </trkpt>
      <trkpt lat="42.54867847077548503875732421875" lon="19.78171996772289276123046875">
        <ele>1434.4000244140625</ele>
        <time>2026-06-18T07:57:51.000Z</time>
        <extensions>
          <ns3:TrackPointExtension>
            <ns3:atemp>22.0</ns3:atemp>
          </ns3:TrackPointExtension>
        </extensions>
      </trkpt>
      <trkpt lat="42.54867847077548503875732421875" lon="19.78171996772289276123046875">
        <ele>1434.4000244140625</ele>
        <time>2026-06-18T07:57:52.000Z</time>
        <extensions>
          <ns3:TrackPointExtension>
            <ns3:atemp>22.0</ns3:atemp>
          </ns3:TrackPointExtension>
        </extensions>
      </trkpt>
      <trkpt lat="42.54867847077548503875732421875" lon="19.78171996772289276123046875">
        <ele>1434.4000244140625</ele>
        <time>2026-06-18T07:57:53.000Z</time>
        <extensions>
          <ns3:TrackPointExtension>
            <ns3:atemp>22.0</ns3:atemp>
          </ns3:TrackPointExtension>
        </extensions>
      </trkpt>
      <trkpt lat="42.54867847077548503875732421875" lon="19.78171996772289276123046875">
        <ele>1434.4000244140625</ele>
        <time>2026-06-18T07:57:54.000Z</time>
        <extensions>
          <ns3:TrackPointExtension>
            <ns3:atemp>22.0</ns3:atemp>
          </ns3:TrackPointExtension>
        </extensions>
      </trkpt>
      <trkpt lat="42.54867847077548503875732421875" lon="19.78171996772289276123046875">
        <ele>1434.4000244140625</ele>
        <time>2026-06-18T07:57:55.000Z</time>
        <extensions>
          <ns3:TrackPointExtension>
            <ns3:atemp>22.0</ns3:atemp>
          </ns3:TrackPointExtension>
        </extensions>
      </trkpt>
      <trkpt lat="42.54867847077548503875732421875" lon="19.78171996772289276123046875">
        <ele>1434.4000244140625</ele>
        <time>2026-06-18T07:57:56.000Z</time>
        <extensions>
          <ns3:TrackPointExtension>
            <ns3:atemp>22.0</ns3:atemp>
          </ns3:TrackPointExtension>
        </extensions>
      </trkpt>
      <trkpt lat="42.54867847077548503875732421875" lon="19.78171996772289276123046875">
        <ele>1434.4000244140625</ele>
        <time>2026-06-18T07:57:57.000Z</time>
        <extensions>
          <ns3:TrackPointExtension>
            <ns3:atemp>22.0</ns3:atemp>
          </ns3:TrackPointExtension>
        </extensions>
      </trkpt>
      <trkpt lat="42.54867847077548503875732421875" lon="19.78171996772289276123046875">
        <ele>1434.4000244140625</ele>
        <time>2026-06-18T07:57:58.000Z</time>
        <extensions>
          <ns3:TrackPointExtension>
            <ns3:atemp>22.0</ns3:atemp>
          </ns3:TrackPointExtension>
        </extensions>
      </trkpt>
      <trkpt lat="42.54867847077548503875732421875" lon="19.78171996772289276123046875">
        <ele>1434.4000244140625</ele>
        <time>2026-06-18T07:57:59.000Z</time>
        <extensions>
          <ns3:TrackPointExtension>
            <ns3:atemp>22.0</ns3:atemp>
          </ns3:TrackPointExtension>
        </extensions>
      </trkpt>
      <trkpt lat="42.54867847077548503875732421875" lon="19.78171996772289276123046875">
        <ele>1434.4000244140625</ele>
        <time>2026-06-18T07:58:00.000Z</time>
        <extensions>
          <ns3:TrackPointExtension>
            <ns3:atemp>22.0</ns3:atemp>
          </ns3:TrackPointExtension>
        </extensions>
      </trkpt>
      <trkpt lat="42.54867847077548503875732421875" lon="19.78171996772289276123046875">
        <ele>1434.4000244140625</ele>
        <time>2026-06-18T07:58:01.000Z</time>
        <extensions>
          <ns3:TrackPointExtension>
            <ns3:atemp>22.0</ns3:atemp>
          </ns3:TrackPointExtension>
        </extensions>
      </trkpt>
      <trkpt lat="42.54867847077548503875732421875" lon="19.78171996772289276123046875">
        <ele>1434.4000244140625</ele>
        <time>2026-06-18T07:58:02.000Z</time>
        <extensions>
          <ns3:TrackPointExtension>
            <ns3:atemp>22.0</ns3:atemp>
          </ns3:TrackPointExtension>
        </extensions>
      </trkpt>
      <trkpt lat="42.54867847077548503875732421875" lon="19.78171996772289276123046875">
        <ele>1434.4000244140625</ele>
        <time>2026-06-18T07:58:03.000Z</time>
        <extensions>
          <ns3:TrackPointExtension>
            <ns3:atemp>22.0</ns3:atemp>
          </ns3:TrackPointExtension>
        </extensions>
      </trkpt>
      <trkpt lat="42.54867847077548503875732421875" lon="19.78171996772289276123046875">
        <ele>1434.4000244140625</ele>
        <time>2026-06-18T07:58:04.000Z</time>
        <extensions>
          <ns3:TrackPointExtension>
            <ns3:atemp>22.0</ns3:atemp>
          </ns3:TrackPointExtension>
        </extensions>
      </trkpt>
      <trkpt lat="42.54867847077548503875732421875" lon="19.78171996772289276123046875">
        <ele>1434.4000244140625</ele>
        <time>2026-06-18T07:58:05.000Z</time>
        <extensions>
          <ns3:TrackPointExtension>
            <ns3:atemp>22.0</ns3:atemp>
          </ns3:TrackPointExtension>
        </extensions>
      </trkpt>
      <trkpt lat="42.54867847077548503875732421875" lon="19.78171996772289276123046875">
        <ele>1434.4000244140625</ele>
        <time>2026-06-18T07:58:06.000Z</time>
        <extensions>
          <ns3:TrackPointExtension>
            <ns3:atemp>22.0</ns3:atemp>
          </ns3:TrackPointExtension>
        </extensions>
      </trkpt>
      <trkpt lat="42.54867847077548503875732421875" lon="19.78171996772289276123046875">
        <ele>1434.4000244140625</ele>
        <time>2026-06-18T07:58:07.000Z</time>
        <extensions>
          <ns3:TrackPointExtension>
            <ns3:atemp>22.0</ns3:atemp>
          </ns3:TrackPointExtension>
        </extensions>
      </trkpt>
      <trkpt lat="42.54867847077548503875732421875" lon="19.78171996772289276123046875">
        <ele>1434.4000244140625</ele>
        <time>2026-06-18T07:58:08.000Z</time>
        <extensions>
          <ns3:TrackPointExtension>
            <ns3:atemp>22.0</ns3:atemp>
          </ns3:TrackPointExtension>
        </extensions>
      </trkpt>
      <trkpt lat="42.54867847077548503875732421875" lon="19.78171996772289276123046875">
        <ele>1434.4000244140625</ele>
        <time>2026-06-18T07:58:09.000Z</time>
        <extensions>
          <ns3:TrackPointExtension>
            <ns3:atemp>22.0</ns3:atemp>
          </ns3:TrackPointExtension>
        </extensions>
      </trkpt>
      <trkpt lat="42.54867847077548503875732421875" lon="19.78171996772289276123046875">
        <ele>1434.4000244140625</ele>
        <time>2026-06-18T07:58:10.000Z</time>
        <extensions>
          <ns3:TrackPointExtension>
            <ns3:atemp>22.0</ns3:atemp>
          </ns3:TrackPointExtension>
        </extensions>
      </trkpt>
      <trkpt lat="42.54867847077548503875732421875" lon="19.78171996772289276123046875">
        <ele>1434.4000244140625</ele>
        <time>2026-06-18T07:58:11.000Z</time>
        <extensions>
          <ns3:TrackPointExtension>
            <ns3:atemp>22.0</ns3:atemp>
          </ns3:TrackPointExtension>
        </extensions>
      </trkpt>
      <trkpt lat="42.54867847077548503875732421875" lon="19.78171996772289276123046875">
        <ele>1434.4000244140625</ele>
        <time>2026-06-18T07:58:12.000Z</time>
        <extensions>
          <ns3:TrackPointExtension>
            <ns3:atemp>22.0</ns3:atemp>
          </ns3:TrackPointExtension>
        </extensions>
      </trkpt>
      <trkpt lat="42.54867847077548503875732421875" lon="19.78171996772289276123046875">
        <ele>1434.4000244140625</ele>
        <time>2026-06-18T07:58:13.000Z</time>
        <extensions>
          <ns3:TrackPointExtension>
            <ns3:atemp>22.0</ns3:atemp>
          </ns3:TrackPointExtension>
        </extensions>
      </trkpt>
      <trkpt lat="42.54867847077548503875732421875" lon="19.78171996772289276123046875">
        <ele>1434.4000244140625</ele>
        <time>2026-06-18T07:58:14.000Z</time>
        <extensions>
          <ns3:TrackPointExtension>
            <ns3:atemp>22.0</ns3:atemp>
          </ns3:TrackPointExtension>
        </extensions>
      </trkpt>
      <trkpt lat="42.54867847077548503875732421875" lon="19.78171996772289276123046875">
        <ele>1434.4000244140625</ele>
        <time>2026-06-18T07:58:15.000Z</time>
        <extensions>
          <ns3:TrackPointExtension>
            <ns3:atemp>22.0</ns3:atemp>
          </ns3:TrackPointExtension>
        </extensions>
      </trkpt>
      <trkpt lat="42.54867847077548503875732421875" lon="19.78171996772289276123046875">
        <ele>1434.4000244140625</ele>
        <time>2026-06-18T07:58:16.000Z</time>
        <extensions>
          <ns3:TrackPointExtension>
            <ns3:atemp>22.0</ns3:atemp>
          </ns3:TrackPointExtension>
        </extensions>
      </trkpt>
      <trkpt lat="42.54867847077548503875732421875" lon="19.78171996772289276123046875">
        <ele>1434.4000244140625</ele>
        <time>2026-06-18T07:58:17.000Z</time>
        <extensions>
          <ns3:TrackPointExtension>
            <ns3:atemp>22.0</ns3:atemp>
          </ns3:TrackPointExtension>
        </extensions>
      </trkpt>
      <trkpt lat="42.54867847077548503875732421875" lon="19.78171996772289276123046875">
        <ele>1434.4000244140625</ele>
        <time>2026-06-18T07:58:18.000Z</time>
        <extensions>
          <ns3:TrackPointExtension>
            <ns3:atemp>22.0</ns3:atemp>
          </ns3:TrackPointExtension>
        </extensions>
      </trkpt>
      <trkpt lat="42.54867847077548503875732421875" lon="19.78171996772289276123046875">
        <ele>1434.4000244140625</ele>
        <time>2026-06-18T07:58:19.000Z</time>
        <extensions>
          <ns3:TrackPointExtension>
            <ns3:atemp>22.0</ns3:atemp>
          </ns3:TrackPointExtension>
        </extensions>
      </trkpt>
      <trkpt lat="42.54867847077548503875732421875" lon="19.78171996772289276123046875">
        <ele>1434.4000244140625</ele>
        <time>2026-06-18T07:58:20.000Z</time>
        <extensions>
          <ns3:TrackPointExtension>
            <ns3:atemp>22.0</ns3:atemp>
          </ns3:TrackPointExtension>
        </extensions>
      </trkpt>
      <trkpt lat="42.54867847077548503875732421875" lon="19.78171996772289276123046875">
        <ele>1434.4000244140625</ele>
        <time>2026-06-18T07:58:21.000Z</time>
        <extensions>
          <ns3:TrackPointExtension>
            <ns3:atemp>22.0</ns3:atemp>
          </ns3:TrackPointExtension>
        </extensions>
      </trkpt>
      <trkpt lat="42.54867847077548503875732421875" lon="19.78171996772289276123046875">
        <ele>1434.4000244140625</ele>
        <time>2026-06-18T07:58:22.000Z</time>
        <extensions>
          <ns3:TrackPointExtension>
            <ns3:atemp>22.0</ns3:atemp>
          </ns3:TrackPointExtension>
        </extensions>
      </trkpt>
      <trkpt lat="42.54867847077548503875732421875" lon="19.78171996772289276123046875">
        <ele>1434.4000244140625</ele>
        <time>2026-06-18T07:58:23.000Z</time>
        <extensions>
          <ns3:TrackPointExtension>
            <ns3:atemp>22.0</ns3:atemp>
          </ns3:TrackPointExtension>
        </extensions>
      </trkpt>
      <trkpt lat="42.54867847077548503875732421875" lon="19.78171996772289276123046875">
        <ele>1434.4000244140625</ele>
        <time>2026-06-18T07:58:24.000Z</time>
        <extensions>
          <ns3:TrackPointExtension>
            <ns3:atemp>22.0</ns3:atemp>
          </ns3:TrackPointExtension>
        </extensions>
      </trkpt>
      <trkpt lat="42.54867847077548503875732421875" lon="19.78171996772289276123046875">
        <ele>1434.4000244140625</ele>
        <time>2026-06-18T07:58:25.000Z</time>
        <extensions>
          <ns3:TrackPointExtension>
            <ns3:atemp>22.0</ns3:atemp>
          </ns3:TrackPointExtension>
        </extensions>
      </trkpt>
      <trkpt lat="42.54867847077548503875732421875" lon="19.78171996772289276123046875">
        <ele>1434.4000244140625</ele>
        <time>2026-06-18T07:58:26.000Z</time>
        <extensions>
          <ns3:TrackPointExtension>
            <ns3:atemp>22.0</ns3:atemp>
          </ns3:TrackPointExtension>
        </extensions>
      </trkpt>
      <trkpt lat="42.54867847077548503875732421875" lon="19.78171996772289276123046875">
        <ele>1434.4000244140625</ele>
        <time>2026-06-18T07:58:27.000Z</time>
        <extensions>
          <ns3:TrackPointExtension>
            <ns3:atemp>22.0</ns3:atemp>
          </ns3:TrackPointExtension>
        </extensions>
      </trkpt>
      <trkpt lat="42.54867847077548503875732421875" lon="19.78171996772289276123046875">
        <ele>1434.4000244140625</ele>
        <time>2026-06-18T07:58:28.000Z</time>
        <extensions>
          <ns3:TrackPointExtension>
            <ns3:atemp>22.0</ns3:atemp>
          </ns3:TrackPointExtension>
        </extensions>
      </trkpt>
      <trkpt lat="42.54867847077548503875732421875" lon="19.78171996772289276123046875">
        <ele>1434.4000244140625</ele>
        <time>2026-06-18T07:58:29.000Z</time>
        <extensions>
          <ns3:TrackPointExtension>
            <ns3:atemp>22.0</ns3:atemp>
          </ns3:TrackPointExtension>
        </extensions>
      </trkpt>
      <trkpt lat="42.54867847077548503875732421875" lon="19.78171996772289276123046875">
        <ele>1434.4000244140625</ele>
        <time>2026-06-18T07:58:30.000Z</time>
        <extensions>
          <ns3:TrackPointExtension>
            <ns3:atemp>22.0</ns3:atemp>
          </ns3:TrackPointExtension>
        </extensions>
      </trkpt>
      <trkpt lat="42.54867847077548503875732421875" lon="19.78171996772289276123046875">
        <ele>1434.4000244140625</ele>
        <time>2026-06-18T07:58:31.000Z</time>
        <extensions>
          <ns3:TrackPointExtension>
            <ns3:atemp>22.0</ns3:atemp>
          </ns3:TrackPointExtension>
        </extensions>
      </trkpt>
      <trkpt lat="42.54867847077548503875732421875" lon="19.78171996772289276123046875">
        <ele>1434.4000244140625</ele>
        <time>2026-06-18T07:58:32.000Z</time>
        <extensions>
          <ns3:TrackPointExtension>
            <ns3:atemp>22.0</ns3:atemp>
          </ns3:TrackPointExtension>
        </extensions>
      </trkpt>
      <trkpt lat="42.548675872385501861572265625" lon="19.7817224822938442230224609375">
        <ele>1434.4000244140625</ele>
        <time>2026-06-18T07:58:33.000Z</time>
        <extensions>
          <ns3:TrackPointExtension>
            <ns3:atemp>22.0</ns3:atemp>
          </ns3:TrackPointExtension>
        </extensions>
      </trkpt>
      <trkpt lat="42.54866388626396656036376953125" lon="19.78172508068382740020751953125">
        <ele>1434.4000244140625</ele>
        <time>2026-06-18T07:58:34.000Z</time>
        <extensions>
          <ns3:TrackPointExtension>
            <ns3:atemp>22.0</ns3:atemp>
          </ns3:TrackPointExtension>
        </extensions>
      </trkpt>
      <trkpt lat="42.5486634671688079833984375" lon="19.7817295230925083160400390625">
        <ele>1434.4000244140625</ele>
        <time>2026-06-18T07:58:35.000Z</time>
        <extensions>
          <ns3:TrackPointExtension>
            <ns3:atemp>22.0</ns3:atemp>
          </ns3:TrackPointExtension>
        </extensions>
      </trkpt>
      <trkpt lat="42.54866338334977626800537109375" lon="19.78172943927347660064697265625">
        <ele>1434.4000244140625</ele>
        <time>2026-06-18T07:58:36.000Z</time>
        <extensions>
          <ns3:TrackPointExtension>
            <ns3:atemp>22.0</ns3:atemp>
          </ns3:TrackPointExtension>
        </extensions>
      </trkpt>
      <trkpt lat="42.54866338334977626800537109375" lon="19.78172943927347660064697265625">
        <ele>1434.4000244140625</ele>
        <time>2026-06-18T07:58:37.000Z</time>
        <extensions>
          <ns3:TrackPointExtension>
            <ns3:atemp>22.0</ns3:atemp>
          </ns3:TrackPointExtension>
        </extensions>
      </trkpt>
      <trkpt lat="42.54866321571171283721923828125" lon="19.7817291878163814544677734375">
        <ele>1434.4000244140625</ele>
        <time>2026-06-18T07:58:38.000Z</time>
        <extensions>
          <ns3:TrackPointExtension>
            <ns3:atemp>22.0</ns3:atemp>
          </ns3:TrackPointExtension>
        </extensions>
      </trkpt>
      <trkpt lat="42.548654414713382720947265625" lon="19.7817171178758144378662109375">
        <ele>1434.4000244140625</ele>
        <time>2026-06-18T07:58:39.000Z</time>
        <extensions>
          <ns3:TrackPointExtension>
            <ns3:atemp>22.0</ns3:atemp>
          </ns3:TrackPointExtension>
        </extensions>
      </trkpt>
      <trkpt lat="42.548650391399860382080078125" lon="19.7817147709429264068603515625">
        <ele>1434.4000244140625</ele>
        <time>2026-06-18T07:58:40.000Z</time>
        <extensions>
          <ns3:TrackPointExtension>
            <ns3:atemp>22.0</ns3:atemp>
          </ns3:TrackPointExtension>
        </extensions>
      </trkpt>
      <trkpt lat="42.548651732504367828369140625" lon="19.781716950237751007080078125">
        <ele>1434.4000244140625</ele>
        <time>2026-06-18T07:58:41.000Z</time>
        <extensions>
          <ns3:TrackPointExtension>
            <ns3:atemp>22.0</ns3:atemp>
          </ns3:TrackPointExtension>
        </extensions>
      </trkpt>
      <trkpt lat="42.548651732504367828369140625" lon="19.78171686641871929168701171875">
        <ele>1434.4000244140625</ele>
        <time>2026-06-18T07:58:42.000Z</time>
        <extensions>
          <ns3:TrackPointExtension>
            <ns3:atemp>22.0</ns3:atemp>
          </ns3:TrackPointExtension>
        </extensions>
      </trkpt>
      <trkpt lat="42.548651732504367828369140625" lon="19.78171686641871929168701171875">
        <ele>1434.4000244140625</ele>
        <time>2026-06-18T07:58:43.000Z</time>
        <extensions>
          <ns3:TrackPointExtension>
            <ns3:atemp>22.0</ns3:atemp>
          </ns3:TrackPointExtension>
        </extensions>
      </trkpt>
      <trkpt lat="42.548651732504367828369140625" lon="19.78171686641871929168701171875">
        <ele>1434.4000244140625</ele>
        <time>2026-06-18T07:58:44.000Z</time>
        <extensions>
          <ns3:TrackPointExtension>
            <ns3:atemp>22.0</ns3:atemp>
          </ns3:TrackPointExtension>
        </extensions>
      </trkpt>
      <trkpt lat="42.54865131340920925140380859375" lon="19.78171636350452899932861328125">
        <ele>1434.4000244140625</ele>
        <time>2026-06-18T07:58:45.000Z</time>
        <extensions>
          <ns3:TrackPointExtension>
            <ns3:atemp>22.0</ns3:atemp>
          </ns3:TrackPointExtension>
        </extensions>
      </trkpt>
      <trkpt lat="42.54864108748733997344970703125" lon="19.78170596994459629058837890625">
        <ele>1434.4000244140625</ele>
        <time>2026-06-18T07:58:46.000Z</time>
        <extensions>
          <ns3:TrackPointExtension>
            <ns3:atemp>22.0</ns3:atemp>
          </ns3:TrackPointExtension>
        </extensions>
      </trkpt>
      <trkpt lat="42.54863941110670566558837890625" lon="19.78169809095561504364013671875">
        <ele>1434.4000244140625</ele>
        <time>2026-06-18T07:58:47.000Z</time>
        <extensions>
          <ns3:TrackPointExtension>
            <ns3:atemp>22.0</ns3:atemp>
          </ns3:TrackPointExtension>
        </extensions>
      </trkpt>
      <trkpt lat="42.54863387905061244964599609375" lon="19.78169356472790241241455078125">
        <ele>1434.4000244140625</ele>
        <time>2026-06-18T07:58:48.000Z</time>
        <extensions>
          <ns3:TrackPointExtension>
            <ns3:atemp>22.0</ns3:atemp>
          </ns3:TrackPointExtension>
        </extensions>
      </trkpt>
      <trkpt lat="42.54862985573709011077880859375" lon="19.7816835902631282806396484375">
        <ele>1434.4000244140625</ele>
        <time>2026-06-18T07:58:49.000Z</time>
        <extensions>
          <ns3:TrackPointExtension>
            <ns3:atemp>22.0</ns3:atemp>
          </ns3:TrackPointExtension>
        </extensions>
      </trkpt>
      <trkpt lat="42.548626251518726348876953125" lon="19.78167780674993991851806640625">
        <ele>1434.4000244140625</ele>
        <time>2026-06-18T07:58:50.000Z</time>
        <extensions>
          <ns3:TrackPointExtension>
            <ns3:atemp>22.0</ns3:atemp>
          </ns3:TrackPointExtension>
        </extensions>
      </trkpt>
      <trkpt lat="42.54861979745328426361083984375" lon="19.78167059831321239471435546875">
        <ele>1434.4000244140625</ele>
        <time>2026-06-18T07:58:51.000Z</time>
        <extensions>
          <ns3:TrackPointExtension>
            <ns3:atemp>22.0</ns3:atemp>
          </ns3:TrackPointExtension>
        </extensions>
      </trkpt>
      <trkpt lat="42.54860973916947841644287109375" lon="19.7816597856581211090087890625">
        <ele>1434.4000244140625</ele>
        <time>2026-06-18T07:58:52.000Z</time>
        <extensions>
          <ns3:TrackPointExtension>
            <ns3:atemp>22.0</ns3:atemp>
          </ns3:TrackPointExtension>
        </extensions>
      </trkpt>
      <trkpt lat="42.54859750159084796905517578125" lon="19.7816450335085391998291015625">
        <ele>1434.5999755859375</ele>
        <time>2026-06-18T07:58:53.000Z</time>
        <extensions>
          <ns3:TrackPointExtension>
            <ns3:atemp>22.0</ns3:atemp>
          </ns3:TrackPointExtension>
        </extensions>
      </trkpt>
      <trkpt lat="42.54857989959418773651123046875" lon="19.7816245816648006439208984375">
        <ele>1434.4000244140625</ele>
        <time>2026-06-18T07:58:54.000Z</time>
        <extensions>
          <ns3:TrackPointExtension>
            <ns3:atemp>22.0</ns3:atemp>
          </ns3:TrackPointExtension>
        </extensions>
      </trkpt>
      <trkpt lat="42.54856313578784465789794921875" lon="19.78160304017364978790283203125">
        <ele>1434.4000244140625</ele>
        <time>2026-06-18T07:58:55.000Z</time>
        <extensions>
          <ns3:TrackPointExtension>
            <ns3:atemp>22.0</ns3:atemp>
          </ns3:TrackPointExtension>
        </extensions>
      </trkpt>
      <trkpt lat="42.54854486323893070220947265625" lon="19.78158074431121349334716796875">
        <ele>1434.4000244140625</ele>
        <time>2026-06-18T07:58:56.000Z</time>
        <extensions>
          <ns3:TrackPointExtension>
            <ns3:atemp>22.0</ns3:atemp>
          </ns3:TrackPointExtension>
        </extensions>
      </trkpt>
      <trkpt lat="42.548528350889682769775390625" lon="19.7815568558871746063232421875">
        <ele>1434.4000244140625</ele>
        <time>2026-06-18T07:58:57.000Z</time>
        <extensions>
          <ns3:TrackPointExtension>
            <ns3:atemp>22.0</ns3:atemp>
          </ns3:TrackPointExtension>
        </extensions>
      </trkpt>
      <trkpt lat="42.54851267673075199127197265625" lon="19.78153447620570659637451171875">
        <ele>1434.199951171875</ele>
        <time>2026-06-18T07:58:58.000Z</time>
        <extensions>
          <ns3:TrackPointExtension>
            <ns3:atemp>22.0</ns3:atemp>
          </ns3:TrackPointExtension>
        </extensions>
      </trkpt>
      <trkpt lat="42.5484976731240749359130859375" lon="19.78151435963809490203857421875">
        <ele>1434.199951171875</ele>
        <time>2026-06-18T07:58:59.000Z</time>
        <extensions>
          <ns3:TrackPointExtension>
            <ns3:atemp>22.0</ns3:atemp>
          </ns3:TrackPointExtension>
        </extensions>
      </trkpt>
      <trkpt lat="42.54847730509936809539794921875" lon="19.78149189613759517669677734375">
        <ele>1434.4000244140625</ele>
        <time>2026-06-18T07:59:00.000Z</time>
        <extensions>
          <ns3:TrackPointExtension>
            <ns3:atemp>22.0</ns3:atemp>
          </ns3:TrackPointExtension>
        </extensions>
      </trkpt>
      <trkpt lat="42.54845760762691497802734375" lon="19.7814686782658100128173828125">
        <ele>1434.4000244140625</ele>
        <time>2026-06-18T07:59:01.000Z</time>
        <extensions>
          <ns3:TrackPointExtension>
            <ns3:atemp>22.0</ns3:atemp>
          </ns3:TrackPointExtension>
        </extensions>
      </trkpt>
      <trkpt lat="42.5484379939734935760498046875" lon="19.781450070440769195556640625">
        <ele>1434.4000244140625</ele>
        <time>2026-06-18T07:59:02.000Z</time>
        <extensions>
          <ns3:TrackPointExtension>
            <ns3:atemp>22.0</ns3:atemp>
          </ns3:TrackPointExtension>
        </extensions>
      </trkpt>
      <trkpt lat="42.54841997288167476654052734375" lon="19.78143028914928436279296875">
        <ele>1434.5999755859375</ele>
        <time>2026-06-18T07:59:03.000Z</time>
        <extensions>
          <ns3:TrackPointExtension>
            <ns3:atemp>22.0</ns3:atemp>
          </ns3:TrackPointExtension>
        </extensions>
      </trkpt>
      <trkpt lat="42.54840136505663394927978515625" lon="19.781415201723575592041015625">
        <ele>1434.800048828125</ele>
        <time>2026-06-18T07:59:04.000Z</time>
        <extensions>
          <ns3:TrackPointExtension>
            <ns3:atemp>22.0</ns3:atemp>
          </ns3:TrackPointExtension>
        </extensions>
      </trkpt>
      <trkpt lat="42.548380158841609954833984375" lon="19.78139818646013736724853515625">
        <ele>1435</ele>
        <time>2026-06-18T07:59:05.000Z</time>
        <extensions>
          <ns3:TrackPointExtension>
            <ns3:atemp>22.0</ns3:atemp>
          </ns3:TrackPointExtension>
        </extensions>
      </trkpt>
      <trkpt lat="42.54836079664528369903564453125" lon="19.78138058446347713470458984375">
        <ele>1435.199951171875</ele>
        <time>2026-06-18T07:59:06.000Z</time>
        <extensions>
          <ns3:TrackPointExtension>
            <ns3:atemp>22.0</ns3:atemp>
          </ns3:TrackPointExtension>
        </extensions>
      </trkpt>
      <trkpt lat="42.5483431108295917510986328125" lon="19.78136247955262660980224609375">
        <ele>1435.4000244140625</ele>
        <time>2026-06-18T07:59:07.000Z</time>
        <extensions>
          <ns3:TrackPointExtension>
            <ns3:atemp>22.0</ns3:atemp>
          </ns3:TrackPointExtension>
        </extensions>
      </trkpt>
      <trkpt lat="42.54832643084228038787841796875" lon="19.78134755976498126983642578125">
        <ele>1435.5999755859375</ele>
        <time>2026-06-18T07:59:08.000Z</time>
        <extensions>
          <ns3:TrackPointExtension>
            <ns3:atemp>22.0</ns3:atemp>
          </ns3:TrackPointExtension>
        </extensions>
      </trkpt>
      <trkpt lat="42.54830614663660526275634765625" lon="19.78132777847349643707275390625">
        <ele>1435.800048828125</ele>
        <time>2026-06-18T07:59:09.000Z</time>
        <extensions>
          <ns3:TrackPointExtension>
            <ns3:atemp>22.0</ns3:atemp>
          </ns3:TrackPointExtension>
        </extensions>
      </trkpt>
      <trkpt lat="42.54828485660254955291748046875" lon="19.78130556643009185791015625">
        <ele>1435.800048828125</ele>
        <time>2026-06-18T07:59:10.000Z</time>
        <extensions>
          <ns3:TrackPointExtension>
            <ns3:atemp>22.0</ns3:atemp>
          </ns3:TrackPointExtension>
        </extensions>
      </trkpt>
      <trkpt lat="42.54826038144528865814208984375" lon="19.781281761825084686279296875">
        <ele>1436</ele>
        <time>2026-06-18T07:59:11.000Z</time>
        <extensions>
          <ns3:TrackPointExtension>
            <ns3:atemp>22.0</ns3:atemp>
          </ns3:TrackPointExtension>
        </extensions>
      </trkpt>
      <trkpt lat="42.54823506809771060943603515625" lon="19.7812581248581409454345703125">
        <ele>1436</ele>
        <time>2026-06-18T07:59:12.000Z</time>
        <extensions>
          <ns3:TrackPointExtension>
            <ns3:atemp>22.0</ns3:atemp>
          </ns3:TrackPointExtension>
        </extensions>
      </trkpt>
      <trkpt lat="42.54821293987333774566650390625" lon="19.7812391817569732666015625">
        <ele>1436.199951171875</ele>
        <time>2026-06-18T07:59:13.000Z</time>
        <extensions>
          <ns3:TrackPointExtension>
            <ns3:atemp>22.0</ns3:atemp>
          </ns3:TrackPointExtension>
        </extensions>
      </trkpt>
      <trkpt lat="42.54819014109671115875244140625" lon="19.78121814318001270294189453125">
        <ele>1436.199951171875</ele>
        <time>2026-06-18T07:59:14.000Z</time>
        <extensions>
          <ns3:TrackPointExtension>
            <ns3:atemp>22.0</ns3:atemp>
          </ns3:TrackPointExtension>
        </extensions>
      </trkpt>
      <trkpt lat="42.5481701083481311798095703125" lon="19.78119266219437122344970703125">
        <ele>1436.4000244140625</ele>
        <time>2026-06-18T07:59:15.000Z</time>
        <extensions>
          <ns3:TrackPointExtension>
            <ns3:atemp>22.0</ns3:atemp>
          </ns3:TrackPointExtension>
        </extensions>
      </trkpt>
      <trkpt lat="42.54814940504729747772216796875" lon="19.78116449899971485137939453125">
        <ele>1436.5999755859375</ele>
        <time>2026-06-18T07:59:16.000Z</time>
        <extensions>
          <ns3:TrackPointExtension>
            <ns3:atemp>22.0</ns3:atemp>
          </ns3:TrackPointExtension>
        </extensions>
      </trkpt>
      <trkpt lat="42.54813062958419322967529296875" lon="19.7811412811279296875">
        <ele>1436.800048828125</ele>
        <time>2026-06-18T07:59:17.000Z</time>
        <extensions>
          <ns3:TrackPointExtension>
            <ns3:atemp>22.0</ns3:atemp>
          </ns3:TrackPointExtension>
        </extensions>
      </trkpt>
      <trkpt lat="42.5481127761304378509521484375" lon="19.78111504577100276947021484375">
        <ele>1437</ele>
        <time>2026-06-18T07:59:18.000Z</time>
        <extensions>
          <ns3:TrackPointExtension>
            <ns3:atemp>22.0</ns3:atemp>
          </ns3:TrackPointExtension>
        </extensions>
      </trkpt>
      <trkpt lat="42.5480940006673336029052734375" lon="19.78108772076666355133056640625">
        <ele>1437.199951171875</ele>
        <time>2026-06-18T07:59:19.000Z</time>
        <extensions>
          <ns3:TrackPointExtension>
            <ns3:atemp>22.0</ns3:atemp>
          </ns3:TrackPointExtension>
        </extensions>
      </trkpt>
      <trkpt lat="42.54807782359421253204345703125" lon="19.7810613177716732025146484375">
        <ele>1437.199951171875</ele>
        <time>2026-06-18T07:59:20.000Z</time>
        <extensions>
          <ns3:TrackPointExtension>
            <ns3:atemp>22.0</ns3:atemp>
          </ns3:TrackPointExtension>
        </extensions>
      </trkpt>
      <trkpt lat="42.54806374199688434600830078125" lon="19.78103759698569774627685546875">
        <ele>1437.4000244140625</ele>
        <time>2026-06-18T07:59:21.000Z</time>
        <extensions>
          <ns3:TrackPointExtension>
            <ns3:atemp>22.0</ns3:atemp>
          </ns3:TrackPointExtension>
        </extensions>
      </trkpt>
      <trkpt lat="42.5480517558753490447998046875" lon="19.78101278655230998992919921875">
        <ele>1437.5999755859375</ele>
        <time>2026-06-18T07:59:22.000Z</time>
        <extensions>
          <ns3:TrackPointExtension>
            <ns3:atemp>22.0</ns3:atemp>
          </ns3:TrackPointExtension>
        </extensions>
      </trkpt>
      <trkpt lat="42.548036836087703704833984375" lon="19.78098143823444843292236328125">
        <ele>1437.5999755859375</ele>
        <time>2026-06-18T07:59:23.000Z</time>
        <extensions>
          <ns3:TrackPointExtension>
            <ns3:atemp>22.0</ns3:atemp>
          </ns3:TrackPointExtension>
        </extensions>
      </trkpt>
      <trkpt lat="42.54802300594747066497802734375" lon="19.78095411323010921478271484375">
        <ele>1437.800048828125</ele>
        <time>2026-06-18T07:59:24.000Z</time>
        <extensions>
          <ns3:TrackPointExtension>
            <ns3:atemp>22.0</ns3:atemp>
          </ns3:TrackPointExtension>
        </extensions>
      </trkpt>
      <trkpt lat="42.54800993017852306365966796875" lon="19.780928380787372589111328125">
        <ele>1437.800048828125</ele>
        <time>2026-06-18T07:59:25.000Z</time>
        <extensions>
          <ns3:TrackPointExtension>
            <ns3:atemp>22.0</ns3:atemp>
          </ns3:TrackPointExtension>
        </extensions>
      </trkpt>
      <trkpt lat="42.547997944056987762451171875" lon="19.78089979849755764007568359375">
        <ele>1438</ele>
        <time>2026-06-18T07:59:26.000Z</time>
        <extensions>
          <ns3:TrackPointExtension>
            <ns3:atemp>22.0</ns3:atemp>
          </ns3:TrackPointExtension>
        </extensions>
      </trkpt>
      <trkpt lat="42.54798495210707187652587890625" lon="19.78087264113128185272216796875">
        <ele>1438</ele>
        <time>2026-06-18T07:59:27.000Z</time>
        <extensions>
          <ns3:TrackPointExtension>
            <ns3:atemp>22.0</ns3:atemp>
          </ns3:TrackPointExtension>
        </extensions>
      </trkpt>
      <trkpt lat="42.547970116138458251953125" lon="19.780843891203403472900390625">
        <ele>1438.199951171875</ele>
        <time>2026-06-18T07:59:28.000Z</time>
        <extensions>
          <ns3:TrackPointExtension>
            <ns3:atemp>22.0</ns3:atemp>
          </ns3:TrackPointExtension>
        </extensions>
      </trkpt>
      <trkpt lat="42.547955699265003204345703125" lon="19.7808155603706836700439453125">
        <ele>1438.199951171875</ele>
        <time>2026-06-18T07:59:29.000Z</time>
        <extensions>
          <ns3:TrackPointExtension>
            <ns3:atemp>22.0</ns3:atemp>
          </ns3:TrackPointExtension>
        </extensions>
      </trkpt>
      <trkpt lat="42.54794052802026271820068359375" lon="19.7807867266237735748291015625">
        <ele>1438.4000244140625</ele>
        <time>2026-06-18T07:59:30.000Z</time>
        <extensions>
          <ns3:TrackPointExtension>
            <ns3:atemp>22.0</ns3:atemp>
          </ns3:TrackPointExtension>
        </extensions>
      </trkpt>
      <trkpt lat="42.547927200794219970703125" lon="19.78075546212494373321533203125">
        <ele>1438.5999755859375</ele>
        <time>2026-06-18T07:59:31.000Z</time>
        <extensions>
          <ns3:TrackPointExtension>
            <ns3:atemp>22.0</ns3:atemp>
          </ns3:TrackPointExtension>
        </extensions>
      </trkpt>
      <trkpt lat="42.547914795577526092529296875" lon="19.78072830475866794586181640625">
        <ele>1438.800048828125</ele>
        <time>2026-06-18T07:59:32.000Z</time>
        <extensions>
          <ns3:TrackPointExtension>
            <ns3:atemp>22.0</ns3:atemp>
          </ns3:TrackPointExtension>
        </extensions>
      </trkpt>
      <trkpt lat="42.54790230654180049896240234375" lon="19.7807015664875507354736328125">
        <ele>1439</ele>
        <time>2026-06-18T07:59:33.000Z</time>
        <extensions>
          <ns3:TrackPointExtension>
            <ns3:atemp>22.0</ns3:atemp>
          </ns3:TrackPointExtension>
        </extensions>
      </trkpt>
      <trkpt lat="42.54788973368704319000244140625" lon="19.7806750796735286712646484375">
        <ele>1439.199951171875</ele>
        <time>2026-06-18T07:59:34.000Z</time>
        <extensions>
          <ns3:TrackPointExtension>
            <ns3:atemp>22.0</ns3:atemp>
          </ns3:TrackPointExtension>
        </extensions>
      </trkpt>
      <trkpt lat="42.54787816666066646575927734375" lon="19.7806532867252826690673828125">
        <ele>1439.199951171875</ele>
        <time>2026-06-18T07:59:35.000Z</time>
        <extensions>
          <ns3:TrackPointExtension>
            <ns3:atemp>22.0</ns3:atemp>
          </ns3:TrackPointExtension>
        </extensions>
      </trkpt>
      <trkpt lat="42.54787045530974864959716796875" lon="19.780640043318271636962890625">
        <ele>1439.199951171875</ele>
        <time>2026-06-18T07:59:36.000Z</time>
        <extensions>
          <ns3:TrackPointExtension>
            <ns3:atemp>22.0</ns3:atemp>
          </ns3:TrackPointExtension>
        </extensions>
      </trkpt>
      <trkpt lat="42.547863833606243133544921875" lon="19.78063107468187808990478515625">
        <ele>1439.4000244140625</ele>
        <time>2026-06-18T07:59:37.000Z</time>
        <extensions>
          <ns3:TrackPointExtension>
            <ns3:atemp>22.0</ns3:atemp>
          </ns3:TrackPointExtension>
        </extensions>
      </trkpt>
      <trkpt lat="42.54785955883562564849853515625" lon="19.78061615489423274993896484375">
        <ele>1439.4000244140625</ele>
        <time>2026-06-18T07:59:38.000Z</time>
        <extensions>
          <ns3:TrackPointExtension>
            <ns3:atemp>22.0</ns3:atemp>
          </ns3:TrackPointExtension>
        </extensions>
      </trkpt>
      <trkpt lat="42.5478561222553253173828125" lon="19.78060550987720489501953125">
        <ele>1439.5999755859375</ele>
        <time>2026-06-18T07:59:39.000Z</time>
        <extensions>
          <ns3:TrackPointExtension>
            <ns3:atemp>22.0</ns3:atemp>
          </ns3:TrackPointExtension>
        </extensions>
      </trkpt>
      <trkpt lat="42.54785033874213695526123046875" lon="19.78059318847954273223876953125">
        <ele>1439.5999755859375</ele>
        <time>2026-06-18T07:59:40.000Z</time>
        <extensions>
          <ns3:TrackPointExtension>
            <ns3:atemp>22.0</ns3:atemp>
          </ns3:TrackPointExtension>
        </extensions>
      </trkpt>
      <trkpt lat="42.54784472286701202392578125" lon="19.78058128617703914642333984375">
        <ele>1439.5999755859375</ele>
        <time>2026-06-18T07:59:41.000Z</time>
        <extensions>
          <ns3:TrackPointExtension>
            <ns3:atemp>22.0</ns3:atemp>
          </ns3:TrackPointExtension>
        </extensions>
      </trkpt>
      <trkpt lat="42.547836340963840484619140625" lon="19.7805748321115970611572265625">
        <ele>1439.5999755859375</ele>
        <time>2026-06-18T07:59:42.000Z</time>
        <extensions>
          <ns3:TrackPointExtension>
            <ns3:atemp>22.0</ns3:atemp>
          </ns3:TrackPointExtension>
        </extensions>
      </trkpt>
      <trkpt lat="42.547830641269683837890625" lon="19.78056821040809154510498046875">
        <ele>1439.5999755859375</ele>
        <time>2026-06-18T07:59:43.000Z</time>
        <extensions>
          <ns3:TrackPointExtension>
            <ns3:atemp>22.0</ns3:atemp>
          </ns3:TrackPointExtension>
        </extensions>
      </trkpt>
      <trkpt lat="42.54782469011843204498291015625" lon="19.78057055734097957611083984375">
        <ele>1439.5999755859375</ele>
        <time>2026-06-18T07:59:44.000Z</time>
        <extensions>
          <ns3:TrackPointExtension>
            <ns3:atemp>22.0</ns3:atemp>
          </ns3:TrackPointExtension>
        </extensions>
      </trkpt>
      <trkpt lat="42.54782452248036861419677734375" lon="19.78056334890425205230712890625">
        <ele>1439.800048828125</ele>
        <time>2026-06-18T07:59:45.000Z</time>
        <extensions>
          <ns3:TrackPointExtension>
            <ns3:atemp>22.0</ns3:atemp>
          </ns3:TrackPointExtension>
        </extensions>
      </trkpt>
      <trkpt lat="42.54782334901392459869384765625" lon="19.78055831976234912872314453125">
        <ele>1440</ele>
        <time>2026-06-18T07:59:46.000Z</time>
        <extensions>
          <ns3:TrackPointExtension>
            <ns3:atemp>22.0</ns3:atemp>
          </ns3:TrackPointExtension>
        </extensions>
      </trkpt>
      <trkpt lat="42.5478294678032398223876953125" lon="19.7805530391633510589599609375">
        <ele>1440.199951171875</ele>
        <time>2026-06-18T07:59:47.000Z</time>
        <extensions>
          <ns3:TrackPointExtension>
            <ns3:atemp>22.0</ns3:atemp>
          </ns3:TrackPointExtension>
        </extensions>
      </trkpt>
      <trkpt lat="42.54782955162227153778076171875" lon="19.78055127896368503570556640625">
        <ele>1440.4000244140625</ele>
        <time>2026-06-18T07:59:48.000Z</time>
        <extensions>
          <ns3:TrackPointExtension>
            <ns3:atemp>22.0</ns3:atemp>
          </ns3:TrackPointExtension>
        </extensions>
      </trkpt>
      <trkpt lat="42.54782955162227153778076171875" lon="19.7805513627827167510986328125">
        <ele>1440.4000244140625</ele>
        <time>2026-06-18T07:59:49.000Z</time>
        <extensions>
          <ns3:TrackPointExtension>
            <ns3:atemp>22.0</ns3:atemp>
          </ns3:TrackPointExtension>
        </extensions>
      </trkpt>
      <trkpt lat="42.54782586358487606048583984375" lon="19.78055379353463649749755859375">
        <ele>1440.4000244140625</ele>
        <time>2026-06-18T07:59:50.000Z</time>
        <extensions>
          <ns3:TrackPointExtension>
            <ns3:atemp>22.0</ns3:atemp>
          </ns3:TrackPointExtension>
        </extensions>
      </trkpt>
      <trkpt lat="42.54782519303262233734130859375" lon="19.780554212629795074462890625">
        <ele>1440.199951171875</ele>
        <time>2026-06-18T07:59:51.000Z</time>
        <extensions>
          <ns3:TrackPointExtension>
            <ns3:atemp>22.0</ns3:atemp>
          </ns3:TrackPointExtension>
        </extensions>
      </trkpt>
      <trkpt lat="42.5478271208703517913818359375" lon="19.78055546991527080535888671875">
        <ele>1440</ele>
        <time>2026-06-18T07:59:52.000Z</time>
        <extensions>
          <ns3:TrackPointExtension>
            <ns3:atemp>22.0</ns3:atemp>
          </ns3:TrackPointExtension>
        </extensions>
      </trkpt>
      <trkpt lat="42.547824271023273468017578125" lon="19.780556224286556243896484375">
        <ele>1439.800048828125</ele>
        <time>2026-06-18T07:59:53.000Z</time>
        <extensions>
          <ns3:TrackPointExtension>
            <ns3:atemp>22.0</ns3:atemp>
          </ns3:TrackPointExtension>
        </extensions>
      </trkpt>
      <trkpt lat="42.54782653413712978363037109375" lon="19.7805557213723659515380859375">
        <ele>1439.5999755859375</ele>
        <time>2026-06-18T07:59:54.000Z</time>
        <extensions>
          <ns3:TrackPointExtension>
            <ns3:atemp>22.0</ns3:atemp>
          </ns3:TrackPointExtension>
        </extensions>
      </trkpt>
      <trkpt lat="42.54782653413712978363037109375" lon="19.7805557213723659515380859375">
        <ele>1439.5999755859375</ele>
        <time>2026-06-18T07:59:55.000Z</time>
        <extensions>
          <ns3:TrackPointExtension>
            <ns3:atemp>22.0</ns3:atemp>
          </ns3:TrackPointExtension>
        </extensions>
      </trkpt>
      <trkpt lat="42.54782653413712978363037109375" lon="19.7805557213723659515380859375">
        <ele>1439.5999755859375</ele>
        <time>2026-06-18T07:59:56.000Z</time>
        <extensions>
          <ns3:TrackPointExtension>
            <ns3:atemp>22.0</ns3:atemp>
          </ns3:TrackPointExtension>
        </extensions>
      </trkpt>
      <trkpt lat="42.54782653413712978363037109375" lon="19.7805557213723659515380859375">
        <ele>1439.800048828125</ele>
        <time>2026-06-18T07:59:57.000Z</time>
        <extensions>
          <ns3:TrackPointExtension>
            <ns3:atemp>22.0</ns3:atemp>
          </ns3:TrackPointExtension>
        </extensions>
      </trkpt>
      <trkpt lat="42.54782653413712978363037109375" lon="19.7805557213723659515380859375">
        <ele>1439.800048828125</ele>
        <time>2026-06-18T07:59:58.000Z</time>
        <extensions>
          <ns3:TrackPointExtension>
            <ns3:atemp>22.0</ns3:atemp>
          </ns3:TrackPointExtension>
        </extensions>
      </trkpt>
      <trkpt lat="42.54782653413712978363037109375" lon="19.7805557213723659515380859375">
        <ele>1439.800048828125</ele>
        <time>2026-06-18T07:59:59.000Z</time>
        <extensions>
          <ns3:TrackPointExtension>
            <ns3:atemp>22.0</ns3:atemp>
          </ns3:TrackPointExtension>
        </extensions>
      </trkpt>
      <trkpt lat="42.54782653413712978363037109375" lon="19.7805557213723659515380859375">
        <ele>1439.800048828125</ele>
        <time>2026-06-18T08:00:00.000Z</time>
        <extensions>
          <ns3:TrackPointExtension>
            <ns3:atemp>22.0</ns3:atemp>
          </ns3:TrackPointExtension>
        </extensions>
      </trkpt>
      <trkpt lat="42.54782653413712978363037109375" lon="19.7805557213723659515380859375">
        <ele>1439.800048828125</ele>
        <time>2026-06-18T08:00:01.000Z</time>
        <extensions>
          <ns3:TrackPointExtension>
            <ns3:atemp>22.0</ns3:atemp>
          </ns3:TrackPointExtension>
        </extensions>
      </trkpt>
      <trkpt lat="42.54782653413712978363037109375" lon="19.7805557213723659515380859375">
        <ele>1439.800048828125</ele>
        <time>2026-06-18T08:00:02.000Z</time>
        <extensions>
          <ns3:TrackPointExtension>
            <ns3:atemp>22.0</ns3:atemp>
          </ns3:TrackPointExtension>
        </extensions>
      </trkpt>
      <trkpt lat="42.547826953232288360595703125" lon="19.78055647574365139007568359375">
        <ele>1439.800048828125</ele>
        <time>2026-06-18T08:00:03.000Z</time>
        <extensions>
          <ns3:TrackPointExtension>
            <ns3:atemp>22.0</ns3:atemp>
          </ns3:TrackPointExtension>
        </extensions>
      </trkpt>
      <trkpt lat="42.54783491604030132293701171875" lon="19.78056686930358409881591796875">
        <ele>1439.800048828125</ele>
        <time>2026-06-18T08:00:04.000Z</time>
        <extensions>
          <ns3:TrackPointExtension>
            <ns3:atemp>22.0</ns3:atemp>
          </ns3:TrackPointExtension>
        </extensions>
      </trkpt>
      <trkpt lat="42.547839023172855377197265625" lon="19.7805738262832164764404296875">
        <ele>1439.800048828125</ele>
        <time>2026-06-18T08:00:05.000Z</time>
        <extensions>
          <ns3:TrackPointExtension>
            <ns3:atemp>22.0</ns3:atemp>
          </ns3:TrackPointExtension>
        </extensions>
      </trkpt>
      <trkpt lat="42.54784933291375637054443359375" lon="19.78058447130024433135986328125">
        <ele>1439.5999755859375</ele>
        <time>2026-06-18T08:00:06.000Z</time>
        <extensions>
          <ns3:TrackPointExtension>
            <ns3:atemp>22.0</ns3:atemp>
          </ns3:TrackPointExtension>
        </extensions>
      </trkpt>
      <trkpt lat="42.54786307923495769500732421875" lon="19.78060442022979259490966796875">
        <ele>1439.5999755859375</ele>
        <time>2026-06-18T08:00:07.000Z</time>
        <extensions>
          <ns3:TrackPointExtension>
            <ns3:atemp>22.0</ns3:atemp>
          </ns3:TrackPointExtension>
        </extensions>
      </trkpt>
      <trkpt lat="42.54787649028003215789794921875" lon="19.7806276381015777587890625">
        <ele>1439.5999755859375</ele>
        <time>2026-06-18T08:00:08.000Z</time>
        <extensions>
          <ns3:TrackPointExtension>
            <ns3:atemp>22.0</ns3:atemp>
          </ns3:TrackPointExtension>
        </extensions>
      </trkpt>
      <trkpt lat="42.5478918291628360748291015625" lon="19.780657477676868438720703125">
        <ele>1439.4000244140625</ele>
        <time>2026-06-18T08:00:09.000Z</time>
        <extensions>
          <ns3:TrackPointExtension>
            <ns3:atemp>22.0</ns3:atemp>
          </ns3:TrackPointExtension>
        </extensions>
      </trkpt>
      <trkpt lat="42.5479070842266082763671875" lon="19.780685640871524810791015625">
        <ele>1439.4000244140625</ele>
        <time>2026-06-18T08:00:10.000Z</time>
        <extensions>
          <ns3:TrackPointExtension>
            <ns3:atemp>22.0</ns3:atemp>
          </ns3:TrackPointExtension>
        </extensions>
      </trkpt>
      <trkpt lat="42.54792518913745880126953125" lon="19.780719168484210968017578125">
        <ele>1439.4000244140625</ele>
        <time>2026-06-18T08:00:11.000Z</time>
        <extensions>
          <ns3:TrackPointExtension>
            <ns3:atemp>22.0</ns3:atemp>
          </ns3:TrackPointExtension>
        </extensions>
      </trkpt>
      <trkpt lat="42.54794136621057987213134765625" lon="19.7807538695633411407470703125">
        <ele>1439.199951171875</ele>
        <time>2026-06-18T08:00:12.000Z</time>
        <extensions>
          <ns3:TrackPointExtension>
            <ns3:atemp>22.0</ns3:atemp>
          </ns3:TrackPointExtension>
        </extensions>
      </trkpt>
      <trkpt lat="42.547957040369510650634765625" lon="19.7807880677282810211181640625">
        <ele>1439.199951171875</ele>
        <time>2026-06-18T08:00:13.000Z</time>
        <extensions>
          <ns3:TrackPointExtension>
            <ns3:atemp>22.0</ns3:atemp>
          </ns3:TrackPointExtension>
        </extensions>
      </trkpt>
      <trkpt lat="42.5479702837765216827392578125" lon="19.78081815876066684722900390625">
        <ele>1439.199951171875</ele>
        <time>2026-06-18T08:00:14.000Z</time>
        <extensions>
          <ns3:TrackPointExtension>
            <ns3:atemp>22.0</ns3:atemp>
          </ns3:TrackPointExtension>
        </extensions>
      </trkpt>
      <trkpt lat="42.54798746667802333831787109375" lon="19.78085034526884555816650390625">
        <ele>1439.199951171875</ele>
        <time>2026-06-18T08:00:15.000Z</time>
        <extensions>
          <ns3:TrackPointExtension>
            <ns3:atemp>22.0</ns3:atemp>
          </ns3:TrackPointExtension>
        </extensions>
      </trkpt>
      <trkpt lat="42.548002637922763824462890625" lon="19.78088186122477054595947265625">
        <ele>1439.199951171875</ele>
        <time>2026-06-18T08:00:16.000Z</time>
        <extensions>
          <ns3:TrackPointExtension>
            <ns3:atemp>22.0</ns3:atemp>
          </ns3:TrackPointExtension>
        </extensions>
      </trkpt>
      <trkpt lat="42.54801847971975803375244140625" lon="19.7809158079326152801513671875">
        <ele>1439</ele>
        <time>2026-06-18T08:00:17.000Z</time>
        <extensions>
          <ns3:TrackPointExtension>
            <ns3:atemp>22.0</ns3:atemp>
          </ns3:TrackPointExtension>
        </extensions>
      </trkpt>
      <trkpt lat="42.54803742282092571258544921875" lon="19.78094891645014286041259765625">
        <ele>1439</ele>
        <time>2026-06-18T08:00:18.000Z</time>
        <extensions>
          <ns3:TrackPointExtension>
            <ns3:atemp>22.0</ns3:atemp>
          </ns3:TrackPointExtension>
        </extensions>
      </trkpt>
      <trkpt lat="42.54805569536983966827392578125" lon="19.780988730490207672119140625">
        <ele>1438.800048828125</ele>
        <time>2026-06-18T08:00:19.000Z</time>
        <extensions>
          <ns3:TrackPointExtension>
            <ns3:atemp>22.0</ns3:atemp>
          </ns3:TrackPointExtension>
        </extensions>
      </trkpt>
      <trkpt lat="42.548076398670673370361328125" lon="19.781028293073177337646484375">
        <ele>1438.5999755859375</ele>
        <time>2026-06-18T08:00:20.000Z</time>
        <extensions>
          <ns3:TrackPointExtension>
            <ns3:atemp>22.0</ns3:atemp>
          </ns3:TrackPointExtension>
        </extensions>
      </trkpt>
      <trkpt lat="42.54809643141925334930419921875" lon="19.78106819093227386474609375">
        <ele>1438.4000244140625</ele>
        <time>2026-06-18T08:00:21.000Z</time>
        <extensions>
          <ns3:TrackPointExtension>
            <ns3:atemp>22.0</ns3:atemp>
          </ns3:TrackPointExtension>
        </extensions>
      </trkpt>
      <trkpt lat="42.5481214933097362518310546875" lon="19.78110440075397491455078125">
        <ele>1438.199951171875</ele>
        <time>2026-06-18T08:00:22.000Z</time>
        <extensions>
          <ns3:TrackPointExtension>
            <ns3:atemp>22.0</ns3:atemp>
          </ns3:TrackPointExtension>
        </extensions>
      </trkpt>
      <trkpt lat="42.5481446273624897003173828125" lon="19.7811364196240901947021484375">
        <ele>1438</ele>
        <time>2026-06-18T08:00:23.000Z</time>
        <extensions>
          <ns3:TrackPointExtension>
            <ns3:atemp>22.0</ns3:atemp>
          </ns3:TrackPointExtension>
        </extensions>
      </trkpt>
      <trkpt lat="42.54817103035748004913330078125" lon="19.7811689414083957672119140625">
        <ele>1438</ele>
        <time>2026-06-18T08:00:24.000Z</time>
        <extensions>
          <ns3:TrackPointExtension>
            <ns3:atemp>22.0</ns3:atemp>
          </ns3:TrackPointExtension>
        </extensions>
      </trkpt>
      <trkpt lat="42.548199109733104705810546875" lon="19.78120272047817707061767578125">
        <ele>1437.800048828125</ele>
        <time>2026-06-18T08:00:25.000Z</time>
        <extensions>
          <ns3:TrackPointExtension>
            <ns3:atemp>22.0</ns3:atemp>
          </ns3:TrackPointExtension>
        </extensions>
      </trkpt>
      <trkpt lat="42.54822517745196819305419921875" lon="19.78123373351991176605224609375">
        <ele>1437.5999755859375</ele>
        <time>2026-06-18T08:00:26.000Z</time>
        <extensions>
          <ns3:TrackPointExtension>
            <ns3:atemp>22.0</ns3:atemp>
          </ns3:TrackPointExtension>
        </extensions>
      </trkpt>
      <trkpt lat="42.54825367592275142669677734375" lon="19.7812614776194095611572265625">
        <ele>1437.5999755859375</ele>
        <time>2026-06-18T08:00:27.000Z</time>
        <extensions>
          <ns3:TrackPointExtension>
            <ns3:atemp>22.0</ns3:atemp>
          </ns3:TrackPointExtension>
        </extensions>
      </trkpt>
      <trkpt lat="42.54828393459320068359375" lon="19.78128704242408275604248046875">
        <ele>1437.4000244140625</ele>
        <time>2026-06-18T08:00:28.000Z</time>
        <extensions>
          <ns3:TrackPointExtension>
            <ns3:atemp>22.0</ns3:atemp>
          </ns3:TrackPointExtension>
        </extensions>
      </trkpt>
      <trkpt lat="42.5483120977878570556640625" lon="19.78131403215229511260986328125">
        <ele>1437.4000244140625</ele>
        <time>2026-06-18T08:00:29.000Z</time>
        <extensions>
          <ns3:TrackPointExtension>
            <ns3:atemp>22.0</ns3:atemp>
          </ns3:TrackPointExtension>
        </extensions>
      </trkpt>
      <trkpt lat="42.5483414344489574432373046875" lon="19.78133783675730228424072265625">
        <ele>1437.199951171875</ele>
        <time>2026-06-18T08:00:30.000Z</time>
        <extensions>
          <ns3:TrackPointExtension>
            <ns3:atemp>22.0</ns3:atemp>
          </ns3:TrackPointExtension>
        </extensions>
      </trkpt>
      <trkpt lat="42.5483711063861846923828125" lon="19.78136432357132434844970703125">
        <ele>1437</ele>
        <time>2026-06-18T08:00:31.000Z</time>
        <extensions>
          <ns3:TrackPointExtension>
            <ns3:atemp>22.0</ns3:atemp>
          </ns3:TrackPointExtension>
        </extensions>
      </trkpt>
      <trkpt lat="42.54840371198952198028564453125" lon="19.78139433078467845916748046875">
        <ele>1436.800048828125</ele>
        <time>2026-06-18T08:00:32.000Z</time>
        <extensions>
          <ns3:TrackPointExtension>
            <ns3:atemp>22.0</ns3:atemp>
          </ns3:TrackPointExtension>
        </extensions>
      </trkpt>
      <trkpt lat="42.5484383292496204376220703125" lon="19.7814242541790008544921875">
        <ele>1436.800048828125</ele>
        <time>2026-06-18T08:00:33.000Z</time>
        <extensions>
          <ns3:TrackPointExtension>
            <ns3:atemp>22.0</ns3:atemp>
          </ns3:TrackPointExtension>
        </extensions>
      </trkpt>
      <trkpt lat="42.5484685041010379791259765625" lon="19.7814592905342578887939453125">
        <ele>1436.5999755859375</ele>
        <time>2026-06-18T08:00:34.000Z</time>
        <extensions>
          <ns3:TrackPointExtension>
            <ns3:atemp>22.0</ns3:atemp>
          </ns3:TrackPointExtension>
        </extensions>
      </trkpt>
      <trkpt lat="42.5484959967434406280517578125" lon="19.78149390779435634613037109375">
        <ele>1436.4000244140625</ele>
        <time>2026-06-18T08:00:35.000Z</time>
        <extensions>
          <ns3:TrackPointExtension>
            <ns3:atemp>22.0</ns3:atemp>
          </ns3:TrackPointExtension>
        </extensions>
      </trkpt>
      <trkpt lat="42.548522651195526123046875" lon="19.7815263457596302032470703125">
        <ele>1436.4000244140625</ele>
        <time>2026-06-18T08:00:36.000Z</time>
        <extensions>
          <ns3:TrackPointExtension>
            <ns3:atemp>22.0</ns3:atemp>
          </ns3:TrackPointExtension>
        </extensions>
      </trkpt>
      <trkpt lat="42.54854687489569187164306640625" lon="19.7815555147826671600341796875">
        <ele>1436.4000244140625</ele>
        <time>2026-06-18T08:00:37.000Z</time>
        <extensions>
          <ns3:TrackPointExtension>
            <ns3:atemp>22.0</ns3:atemp>
          </ns3:TrackPointExtension>
        </extensions>
      </trkpt>
      <trkpt lat="42.5485694222152233123779296875" lon="19.78158594109117984771728515625">
        <ele>1436.199951171875</ele>
        <time>2026-06-18T08:00:38.000Z</time>
        <extensions>
          <ns3:TrackPointExtension>
            <ns3:atemp>22.0</ns3:atemp>
          </ns3:TrackPointExtension>
        </extensions>
      </trkpt>
      <trkpt lat="42.5485885329544544219970703125" lon="19.781610332429409027099609375">
        <ele>1436.199951171875</ele>
        <time>2026-06-18T08:00:39.000Z</time>
        <extensions>
          <ns3:TrackPointExtension>
            <ns3:atemp>22.0</ns3:atemp>
          </ns3:TrackPointExtension>
        </extensions>
      </trkpt>
      <trkpt lat="42.54860512912273406982421875" lon="19.7816309519112110137939453125">
        <ele>1436.199951171875</ele>
        <time>2026-06-18T08:00:40.000Z</time>
        <extensions>
          <ns3:TrackPointExtension>
            <ns3:atemp>22.0</ns3:atemp>
          </ns3:TrackPointExtension>
        </extensions>
      </trkpt>
      <trkpt lat="42.54861962981522083282470703125" lon="19.7816463746130466461181640625">
        <ele>1436.199951171875</ele>
        <time>2026-06-18T08:00:41.000Z</time>
        <extensions>
          <ns3:TrackPointExtension>
            <ns3:atemp>22.0</ns3:atemp>
          </ns3:TrackPointExtension>
        </extensions>
      </trkpt>
      <trkpt lat="42.54863195121288299560546875" lon="19.7816607914865016937255859375">
        <ele>1436.199951171875</ele>
        <time>2026-06-18T08:00:42.000Z</time>
        <extensions>
          <ns3:TrackPointExtension>
            <ns3:atemp>22.0</ns3:atemp>
          </ns3:TrackPointExtension>
        </extensions>
      </trkpt>
      <trkpt lat="42.5486405007541179656982421875" lon="19.78167478926479816436767578125">
        <ele>1436.199951171875</ele>
        <time>2026-06-18T08:00:43.000Z</time>
        <extensions>
          <ns3:TrackPointExtension>
            <ns3:atemp>22.0</ns3:atemp>
          </ns3:TrackPointExtension>
        </extensions>
      </trkpt>
      <trkpt lat="42.548646032810211181640625" lon="19.781684093177318572998046875">
        <ele>1436.199951171875</ele>
        <time>2026-06-18T08:00:44.000Z</time>
        <extensions>
          <ns3:TrackPointExtension>
            <ns3:atemp>22.0</ns3:atemp>
          </ns3:TrackPointExtension>
        </extensions>
      </trkpt>
      <trkpt lat="42.5486455298960208892822265625" lon="19.78168250061571598052978515625">
        <ele>1436</ele>
        <time>2026-06-18T08:00:45.000Z</time>
        <extensions>
          <ns3:TrackPointExtension>
            <ns3:atemp>22.0</ns3:atemp>
          </ns3:TrackPointExtension>
        </extensions>
      </trkpt>
      <trkpt lat="42.54864511080086231231689453125" lon="19.781682752072811126708984375">
        <ele>1436</ele>
        <time>2026-06-18T08:00:46.000Z</time>
        <extensions>
          <ns3:TrackPointExtension>
            <ns3:atemp>22.0</ns3:atemp>
          </ns3:TrackPointExtension>
        </extensions>
      </trkpt>
      <trkpt lat="42.54864511080086231231689453125" lon="19.781682752072811126708984375">
        <ele>1435.800048828125</ele>
        <time>2026-06-18T08:00:47.000Z</time>
        <extensions>
          <ns3:TrackPointExtension>
            <ns3:atemp>22.0</ns3:atemp>
          </ns3:TrackPointExtension>
        </extensions>
      </trkpt>
      <trkpt lat="42.54864511080086231231689453125" lon="19.781682752072811126708984375">
        <ele>1435.800048828125</ele>
        <time>2026-06-18T08:00:48.000Z</time>
        <extensions>
          <ns3:TrackPointExtension>
            <ns3:atemp>22.0</ns3:atemp>
          </ns3:TrackPointExtension>
        </extensions>
      </trkpt>
      <trkpt lat="42.54864511080086231231689453125" lon="19.781682752072811126708984375">
        <ele>1435.5999755859375</ele>
        <time>2026-06-18T08:00:49.000Z</time>
        <extensions>
          <ns3:TrackPointExtension>
            <ns3:atemp>22.0</ns3:atemp>
          </ns3:TrackPointExtension>
        </extensions>
      </trkpt>
      <trkpt lat="42.54864536225795745849609375" lon="19.78168308734893798828125">
        <ele>1435.5999755859375</ele>
        <time>2026-06-18T08:00:50.000Z</time>
        <extensions>
          <ns3:TrackPointExtension>
            <ns3:atemp>22.0</ns3:atemp>
          </ns3:TrackPointExtension>
        </extensions>
      </trkpt>
      <trkpt lat="42.54865013994276523590087890625" lon="19.7816897928714752197265625">
        <ele>1435.4000244140625</ele>
        <time>2026-06-18T08:00:51.000Z</time>
        <extensions>
          <ns3:TrackPointExtension>
            <ns3:atemp>22.0</ns3:atemp>
          </ns3:TrackPointExtension>
        </extensions>
      </trkpt>
      <trkpt lat="42.54864511080086231231689453125" lon="19.781682752072811126708984375">
        <ele>1435.4000244140625</ele>
        <time>2026-06-18T08:00:52.000Z</time>
        <extensions>
          <ns3:TrackPointExtension>
            <ns3:atemp>22.0</ns3:atemp>
          </ns3:TrackPointExtension>
        </extensions>
      </trkpt>
      <trkpt lat="42.54864511080086231231689453125" lon="19.781682752072811126708984375">
        <ele>1435.199951171875</ele>
        <time>2026-06-18T08:00:53.000Z</time>
        <extensions>
          <ns3:TrackPointExtension>
            <ns3:atemp>22.0</ns3:atemp>
          </ns3:TrackPointExtension>
        </extensions>
      </trkpt>
      <trkpt lat="42.54864511080086231231689453125" lon="19.781682752072811126708984375">
        <ele>1435.199951171875</ele>
        <time>2026-06-18T08:00:54.000Z</time>
        <extensions>
          <ns3:TrackPointExtension>
            <ns3:atemp>22.0</ns3:atemp>
          </ns3:TrackPointExtension>
        </extensions>
      </trkpt>
      <trkpt lat="42.54864511080086231231689453125" lon="19.781682752072811126708984375">
        <ele>1435.199951171875</ele>
        <time>2026-06-18T08:00:55.000Z</time>
        <extensions>
          <ns3:TrackPointExtension>
            <ns3:atemp>22.0</ns3:atemp>
          </ns3:TrackPointExtension>
        </extensions>
      </trkpt>
      <trkpt lat="42.54864511080086231231689453125" lon="19.781682752072811126708984375">
        <ele>1435.4000244140625</ele>
        <time>2026-06-18T08:00:56.000Z</time>
        <extensions>
          <ns3:TrackPointExtension>
            <ns3:atemp>22.0</ns3:atemp>
          </ns3:TrackPointExtension>
        </extensions>
      </trkpt>
      <trkpt lat="42.54864511080086231231689453125" lon="19.781682752072811126708984375">
        <ele>1435.4000244140625</ele>
        <time>2026-06-18T08:00:57.000Z</time>
        <extensions>
          <ns3:TrackPointExtension>
            <ns3:atemp>22.0</ns3:atemp>
          </ns3:TrackPointExtension>
        </extensions>
      </trkpt>
      <trkpt lat="42.54864511080086231231689453125" lon="19.781682752072811126708984375">
        <ele>1435.4000244140625</ele>
        <time>2026-06-18T08:00:58.000Z</time>
        <extensions>
          <ns3:TrackPointExtension>
            <ns3:atemp>22.0</ns3:atemp>
          </ns3:TrackPointExtension>
        </extensions>
      </trkpt>
      <trkpt lat="42.54865064285695552825927734375" lon="19.78169507347047328948974609375">
        <ele>1435.4000244140625</ele>
        <time>2026-06-18T08:00:59.000Z</time>
        <extensions>
          <ns3:TrackPointExtension>
            <ns3:atemp>22.0</ns3:atemp>
          </ns3:TrackPointExtension>
        </extensions>
      </trkpt>
      <trkpt lat="42.54864511080086231231689453125" lon="19.781682752072811126708984375">
        <ele>1435.199951171875</ele>
        <time>2026-06-18T08:01:00.000Z</time>
        <extensions>
          <ns3:TrackPointExtension>
            <ns3:atemp>22.0</ns3:atemp>
          </ns3:TrackPointExtension>
        </extensions>
      </trkpt>
      <trkpt lat="42.54864293150603771209716796875" lon="19.78169775567948818206787109375">
        <ele>1435.199951171875</ele>
        <time>2026-06-18T08:01:01.000Z</time>
        <extensions>
          <ns3:TrackPointExtension>
            <ns3:atemp>22.0</ns3:atemp>
          </ns3:TrackPointExtension>
        </extensions>
      </trkpt>
      <trkpt lat="42.54864511080086231231689453125" lon="19.781682752072811126708984375">
        <ele>1435.4000244140625</ele>
        <time>2026-06-18T08:01:02.000Z</time>
        <extensions>
          <ns3:TrackPointExtension>
            <ns3:atemp>22.0</ns3:atemp>
          </ns3:TrackPointExtension>
        </extensions>
      </trkpt>
      <trkpt lat="42.54864511080086231231689453125" lon="19.781682752072811126708984375">
        <ele>1435.4000244140625</ele>
        <time>2026-06-18T08:01:03.000Z</time>
        <extensions>
          <ns3:TrackPointExtension>
            <ns3:atemp>22.0</ns3:atemp>
          </ns3:TrackPointExtension>
        </extensions>
      </trkpt>
      <trkpt lat="42.54864511080086231231689453125" lon="19.781682752072811126708984375">
        <ele>1435.5999755859375</ele>
        <time>2026-06-18T08:01:04.000Z</time>
        <extensions>
          <ns3:TrackPointExtension>
            <ns3:atemp>22.0</ns3:atemp>
          </ns3:TrackPointExtension>
        </extensions>
      </trkpt>
      <trkpt lat="42.54864511080086231231689453125" lon="19.781682752072811126708984375">
        <ele>1435.800048828125</ele>
        <time>2026-06-18T08:01:05.000Z</time>
        <extensions>
          <ns3:TrackPointExtension>
            <ns3:atemp>22.0</ns3:atemp>
          </ns3:TrackPointExtension>
        </extensions>
      </trkpt>
      <trkpt lat="42.54864511080086231231689453125" lon="19.781682752072811126708984375">
        <ele>1435.800048828125</ele>
        <time>2026-06-18T08:01:06.000Z</time>
        <extensions>
          <ns3:TrackPointExtension>
            <ns3:atemp>22.0</ns3:atemp>
          </ns3:TrackPointExtension>
        </extensions>
      </trkpt>
      <trkpt lat="42.54864511080086231231689453125" lon="19.781682752072811126708984375">
        <ele>1435.800048828125</ele>
        <time>2026-06-18T08:01:07.000Z</time>
        <extensions>
          <ns3:TrackPointExtension>
            <ns3:atemp>22.0</ns3:atemp>
          </ns3:TrackPointExtension>
        </extensions>
      </trkpt>
      <trkpt lat="42.54864511080086231231689453125" lon="19.781682752072811126708984375">
        <ele>1435.800048828125</ele>
        <time>2026-06-18T08:01:08.000Z</time>
        <extensions>
          <ns3:TrackPointExtension>
            <ns3:atemp>22.0</ns3:atemp>
          </ns3:TrackPointExtension>
        </extensions>
      </trkpt>
      <trkpt lat="42.54864511080086231231689453125" lon="19.781682752072811126708984375">
        <ele>1436</ele>
        <time>2026-06-18T08:01:09.000Z</time>
        <extensions>
          <ns3:TrackPointExtension>
            <ns3:atemp>22.0</ns3:atemp>
          </ns3:TrackPointExtension>
        </extensions>
      </trkpt>
      <trkpt lat="42.54864511080086231231689453125" lon="19.781682752072811126708984375">
        <ele>1436</ele>
        <time>2026-06-18T08:01:10.000Z</time>
        <extensions>
          <ns3:TrackPointExtension>
            <ns3:atemp>23.0</ns3:atemp>
          </ns3:TrackPointExtension>
        </extensions>
      </trkpt>
      <trkpt lat="42.54864511080086231231689453125" lon="19.781682752072811126708984375">
        <ele>1436.199951171875</ele>
        <time>2026-06-18T08:01:11.000Z</time>
        <extensions>
          <ns3:TrackPointExtension>
            <ns3:atemp>22.0</ns3:atemp>
          </ns3:TrackPointExtension>
        </extensions>
      </trkpt>
      <trkpt lat="42.54864511080086231231689453125" lon="19.781682752072811126708984375">
        <ele>1436.199951171875</ele>
        <time>2026-06-18T08:01:12.000Z</time>
        <extensions>
          <ns3:TrackPointExtension>
            <ns3:atemp>22.0</ns3:atemp>
          </ns3:TrackPointExtension>
        </extensions>
      </trkpt>
      <trkpt lat="42.54864511080086231231689453125" lon="19.781682752072811126708984375">
        <ele>1436.4000244140625</ele>
        <time>2026-06-18T08:01:13.000Z</time>
        <extensions>
          <ns3:TrackPointExtension>
            <ns3:atemp>22.0</ns3:atemp>
          </ns3:TrackPointExtension>
        </extensions>
      </trkpt>
      <trkpt lat="42.54864511080086231231689453125" lon="19.781682752072811126708984375">
        <ele>1436.4000244140625</ele>
        <time>2026-06-18T08:01:14.000Z</time>
        <extensions>
          <ns3:TrackPointExtension>
            <ns3:atemp>22.0</ns3:atemp>
          </ns3:TrackPointExtension>
        </extensions>
      </trkpt>
      <trkpt lat="42.54864511080086231231689453125" lon="19.781682752072811126708984375">
        <ele>1436.4000244140625</ele>
        <time>2026-06-18T08:01:15.000Z</time>
        <extensions>
          <ns3:TrackPointExtension>
            <ns3:atemp>22.0</ns3:atemp>
          </ns3:TrackPointExtension>
        </extensions>
      </trkpt>
      <trkpt lat="42.54864192567765712738037109375" lon="19.78169851005077362060546875">
        <ele>1436.4000244140625</ele>
        <time>2026-06-18T08:01:16.000Z</time>
        <extensions>
          <ns3:TrackPointExtension>
            <ns3:atemp>22.0</ns3:atemp>
          </ns3:TrackPointExtension>
        </extensions>
      </trkpt>
      <trkpt lat="42.5486368127167224884033203125" lon="19.781689457595348358154296875">
        <ele>1436.199951171875</ele>
        <time>2026-06-18T08:01:17.000Z</time>
        <extensions>
          <ns3:TrackPointExtension>
            <ns3:atemp>22.0</ns3:atemp>
          </ns3:TrackPointExtension>
        </extensions>
      </trkpt>
      <trkpt lat="42.5486314482986927032470703125" lon="19.7816872783005237579345703125">
        <ele>1436.199951171875</ele>
        <time>2026-06-18T08:01:18.000Z</time>
        <extensions>
          <ns3:TrackPointExtension>
            <ns3:atemp>22.0</ns3:atemp>
          </ns3:TrackPointExtension>
        </extensions>
      </trkpt>
      <trkpt lat="42.54862432368099689483642578125" lon="19.78167445398867130279541015625">
        <ele>1436</ele>
        <time>2026-06-18T08:01:19.000Z</time>
        <extensions>
          <ns3:TrackPointExtension>
            <ns3:atemp>23.0</ns3:atemp>
          </ns3:TrackPointExtension>
        </extensions>
      </trkpt>
      <trkpt lat="42.548613511025905609130859375" lon="19.78165852837264537811279296875">
        <ele>1436</ele>
        <time>2026-06-18T08:01:20.000Z</time>
        <extensions>
          <ns3:TrackPointExtension>
            <ns3:atemp>23.0</ns3:atemp>
          </ns3:TrackPointExtension>
        </extensions>
      </trkpt>
      <trkpt lat="42.548600770533084869384765625" lon="19.781641177833080291748046875">
        <ele>1436</ele>
        <time>2026-06-18T08:01:21.000Z</time>
        <extensions>
          <ns3:TrackPointExtension>
            <ns3:atemp>23.0</ns3:atemp>
          </ns3:TrackPointExtension>
        </extensions>
      </trkpt>
      <trkpt lat="42.54858727566897869110107421875" lon="19.78162206709384918212890625">
        <ele>1436</ele>
        <time>2026-06-18T08:01:22.000Z</time>
        <extensions>
          <ns3:TrackPointExtension>
            <ns3:atemp>23.0</ns3:atemp>
          </ns3:TrackPointExtension>
        </extensions>
      </trkpt>
      <trkpt lat="42.5485714338719844818115234375" lon="19.78160739876329898834228515625">
        <ele>1436</ele>
        <time>2026-06-18T08:01:23.000Z</time>
        <extensions>
          <ns3:TrackPointExtension>
            <ns3:atemp>23.0</ns3:atemp>
          </ns3:TrackPointExtension>
        </extensions>
      </trkpt>
      <trkpt lat="42.54855726845562458038330078125" lon="19.7815883718430995941162109375">
        <ele>1436</ele>
        <time>2026-06-18T08:01:24.000Z</time>
        <extensions>
          <ns3:TrackPointExtension>
            <ns3:atemp>23.0</ns3:atemp>
          </ns3:TrackPointExtension>
        </extensions>
      </trkpt>
      <trkpt lat="42.54854075610637664794921875" lon="19.78156817145645618438720703125">
        <ele>1436.199951171875</ele>
        <time>2026-06-18T08:01:25.000Z</time>
        <extensions>
          <ns3:TrackPointExtension>
            <ns3:atemp>23.0</ns3:atemp>
          </ns3:TrackPointExtension>
        </extensions>
      </trkpt>
      <trkpt lat="42.54852307029068470001220703125" lon="19.78154855780303478240966796875">
        <ele>1436.199951171875</ele>
        <time>2026-06-18T08:01:26.000Z</time>
        <extensions>
          <ns3:TrackPointExtension>
            <ns3:atemp>23.0</ns3:atemp>
          </ns3:TrackPointExtension>
        </extensions>
      </trkpt>
      <trkpt lat="42.548506557941436767578125" lon="19.781528525054454803466796875">
        <ele>1436.4000244140625</ele>
        <time>2026-06-18T08:01:27.000Z</time>
        <extensions>
          <ns3:TrackPointExtension>
            <ns3:atemp>23.0</ns3:atemp>
          </ns3:TrackPointExtension>
        </extensions>
      </trkpt>
      <trkpt lat="42.54849247634410858154296875" lon="19.781511090695858001708984375">
        <ele>1436.4000244140625</ele>
        <time>2026-06-18T08:01:28.000Z</time>
        <extensions>
          <ns3:TrackPointExtension>
            <ns3:atemp>23.0</ns3:atemp>
          </ns3:TrackPointExtension>
        </extensions>
      </trkpt>
      <trkpt lat="42.548475377261638641357421875" lon="19.78149239905178546905517578125">
        <ele>1436.5999755859375</ele>
        <time>2026-06-18T08:01:29.000Z</time>
        <extensions>
          <ns3:TrackPointExtension>
            <ns3:atemp>23.0</ns3:atemp>
          </ns3:TrackPointExtension>
        </extensions>
      </trkpt>
      <trkpt lat="42.5484584458172321319580078125" lon="19.7814740426838397979736328125">
        <ele>1436.800048828125</ele>
        <time>2026-06-18T08:01:30.000Z</time>
        <extensions>
          <ns3:TrackPointExtension>
            <ns3:atemp>23.0</ns3:atemp>
          </ns3:TrackPointExtension>
        </extensions>
      </trkpt>
      <trkpt lat="42.548440508544445037841796875" lon="19.7814559377729892730712890625">
        <ele>1436.800048828125</ele>
        <time>2026-06-18T08:01:31.000Z</time>
        <extensions>
          <ns3:TrackPointExtension>
            <ns3:atemp>23.0</ns3:atemp>
          </ns3:TrackPointExtension>
        </extensions>
      </trkpt>
      <trkpt lat="42.54842299036681652069091796875" lon="19.78143758140504360198974609375">
        <ele>1437</ele>
        <time>2026-06-18T08:01:32.000Z</time>
        <extensions>
          <ns3:TrackPointExtension>
            <ns3:atemp>23.0</ns3:atemp>
          </ns3:TrackPointExtension>
        </extensions>
      </trkpt>
      <trkpt lat="42.5484048016369342803955078125" lon="19.7814193926751613616943359375">
        <ele>1437</ele>
        <time>2026-06-18T08:01:33.000Z</time>
        <extensions>
          <ns3:TrackPointExtension>
            <ns3:atemp>23.0</ns3:atemp>
          </ns3:TrackPointExtension>
        </extensions>
      </trkpt>
      <trkpt lat="42.5483866967260837554931640625" lon="19.78139944374561309814453125">
        <ele>1437.199951171875</ele>
        <time>2026-06-18T08:01:34.000Z</time>
        <extensions>
          <ns3:TrackPointExtension>
            <ns3:atemp>23.0</ns3:atemp>
          </ns3:TrackPointExtension>
        </extensions>
      </trkpt>
      <trkpt lat="42.5483684241771697998046875" lon="19.78138267993927001953125">
        <ele>1437.199951171875</ele>
        <time>2026-06-18T08:01:35.000Z</time>
        <extensions>
          <ns3:TrackPointExtension>
            <ns3:atemp>23.0</ns3:atemp>
          </ns3:TrackPointExtension>
        </extensions>
      </trkpt>
      <trkpt lat="42.54835207946598529815673828125" lon="19.78136616759002208709716796875">
        <ele>1437.4000244140625</ele>
        <time>2026-06-18T08:01:36.000Z</time>
        <extensions>
          <ns3:TrackPointExtension>
            <ns3:atemp>23.0</ns3:atemp>
          </ns3:TrackPointExtension>
        </extensions>
      </trkpt>
      <trkpt lat="42.54833430983126163482666015625" lon="19.781346805393695831298828125">
        <ele>1437.5999755859375</ele>
        <time>2026-06-18T08:01:37.000Z</time>
        <extensions>
          <ns3:TrackPointExtension>
            <ns3:atemp>23.0</ns3:atemp>
          </ns3:TrackPointExtension>
        </extensions>
      </trkpt>
      <trkpt lat="42.54831620492041110992431640625" lon="19.78133079595863819122314453125">
        <ele>1437.800048828125</ele>
        <time>2026-06-18T08:01:38.000Z</time>
        <extensions>
          <ns3:TrackPointExtension>
            <ns3:atemp>23.0</ns3:atemp>
          </ns3:TrackPointExtension>
        </extensions>
      </trkpt>
      <trkpt lat="42.5482961721718311309814453125" lon="19.7813147865235805511474609375">
        <ele>1437.800048828125</ele>
        <time>2026-06-18T08:01:39.000Z</time>
        <extensions>
          <ns3:TrackPointExtension>
            <ns3:atemp>23.0</ns3:atemp>
          </ns3:TrackPointExtension>
        </extensions>
      </trkpt>
      <trkpt lat="42.54827647469937801361083984375" lon="19.781297184526920318603515625">
        <ele>1437.800048828125</ele>
        <time>2026-06-18T08:01:40.000Z</time>
        <extensions>
          <ns3:TrackPointExtension>
            <ns3:atemp>23.0</ns3:atemp>
          </ns3:TrackPointExtension>
        </extensions>
      </trkpt>
      <trkpt lat="42.548257447779178619384765625" lon="19.78127748705446720123291015625">
        <ele>1438</ele>
        <time>2026-06-18T08:01:41.000Z</time>
        <extensions>
          <ns3:TrackPointExtension>
            <ns3:atemp>23.0</ns3:atemp>
          </ns3:TrackPointExtension>
        </extensions>
      </trkpt>
      <trkpt lat="42.54823775030672550201416015625" lon="19.78125686757266521453857421875">
        <ele>1438</ele>
        <time>2026-06-18T08:01:42.000Z</time>
        <extensions>
          <ns3:TrackPointExtension>
            <ns3:atemp>23.0</ns3:atemp>
          </ns3:TrackPointExtension>
        </extensions>
      </trkpt>
      <trkpt lat="42.54821696318686008453369140625" lon="19.78123985230922698974609375">
        <ele>1438</ele>
        <time>2026-06-18T08:01:43.000Z</time>
        <extensions>
          <ns3:TrackPointExtension>
            <ns3:atemp>23.0</ns3:atemp>
          </ns3:TrackPointExtension>
        </extensions>
      </trkpt>
      <trkpt lat="42.5481939129531383514404296875" lon="19.78121973574161529541015625">
        <ele>1438.199951171875</ele>
        <time>2026-06-18T08:01:44.000Z</time>
        <extensions>
          <ns3:TrackPointExtension>
            <ns3:atemp>23.0</ns3:atemp>
          </ns3:TrackPointExtension>
        </extensions>
      </trkpt>
      <trkpt lat="42.54817195236682891845703125" lon="19.78119534440338611602783203125">
        <ele>1438.199951171875</ele>
        <time>2026-06-18T08:01:45.000Z</time>
        <extensions>
          <ns3:TrackPointExtension>
            <ns3:atemp>23.0</ns3:atemp>
          </ns3:TrackPointExtension>
        </extensions>
      </trkpt>
      <trkpt lat="42.54815191961824893951416015625" lon="19.781171791255474090576171875">
        <ele>1438.199951171875</ele>
        <time>2026-06-18T08:01:46.000Z</time>
        <extensions>
          <ns3:TrackPointExtension>
            <ns3:atemp>23.0</ns3:atemp>
          </ns3:TrackPointExtension>
        </extensions>
      </trkpt>
      <trkpt lat="42.5481362454593181610107421875" lon="19.7811488248407840728759765625">
        <ele>1438.4000244140625</ele>
        <time>2026-06-18T08:01:47.000Z</time>
        <extensions>
          <ns3:TrackPointExtension>
            <ns3:atemp>23.0</ns3:atemp>
          </ns3:TrackPointExtension>
        </extensions>
      </trkpt>
      <trkpt lat="42.54812040366232395172119140625" lon="19.7811226733028888702392578125">
        <ele>1438.5999755859375</ele>
        <time>2026-06-18T08:01:48.000Z</time>
        <extensions>
          <ns3:TrackPointExtension>
            <ns3:atemp>23.0</ns3:atemp>
          </ns3:TrackPointExtension>
        </extensions>
      </trkpt>
      <trkpt lat="42.5481050647795200347900390625" lon="19.78109828196465969085693359375">
        <ele>1438.5999755859375</ele>
        <time>2026-06-18T08:01:49.000Z</time>
        <extensions>
          <ns3:TrackPointExtension>
            <ns3:atemp>23.0</ns3:atemp>
          </ns3:TrackPointExtension>
        </extensions>
      </trkpt>
      <trkpt lat="42.54808905534446239471435546875" lon="19.7810723818838596343994140625">
        <ele>1438.800048828125</ele>
        <time>2026-06-18T08:01:50.000Z</time>
        <extensions>
          <ns3:TrackPointExtension>
            <ns3:atemp>23.0</ns3:atemp>
          </ns3:TrackPointExtension>
        </extensions>
      </trkpt>
      <trkpt lat="42.54807430319488048553466796875" lon="19.78104539215564727783203125">
        <ele>1439</ele>
        <time>2026-06-18T08:01:51.000Z</time>
        <extensions>
          <ns3:TrackPointExtension>
            <ns3:atemp>23.0</ns3:atemp>
          </ns3:TrackPointExtension>
        </extensions>
      </trkpt>
      <trkpt lat="42.5480624847114086151123046875" lon="19.78102116845548152923583984375">
        <ele>1439.199951171875</ele>
        <time>2026-06-18T08:01:52.000Z</time>
        <extensions>
          <ns3:TrackPointExtension>
            <ns3:atemp>23.0</ns3:atemp>
          </ns3:TrackPointExtension>
        </extensions>
      </trkpt>
      <trkpt lat="42.54804882220923900604248046875" lon="19.7809915803372859954833984375">
        <ele>1439.199951171875</ele>
        <time>2026-06-18T08:01:53.000Z</time>
        <extensions>
          <ns3:TrackPointExtension>
            <ns3:atemp>23.0</ns3:atemp>
          </ns3:TrackPointExtension>
        </extensions>
      </trkpt>
      <trkpt lat="42.548032812774181365966796875" lon="19.780965261161327362060546875">
        <ele>1439.4000244140625</ele>
        <time>2026-06-18T08:01:54.000Z</time>
        <extensions>
          <ns3:TrackPointExtension>
            <ns3:atemp>23.0</ns3:atemp>
          </ns3:TrackPointExtension>
        </extensions>
      </trkpt>
      <trkpt lat="42.54801982082426548004150390625" lon="19.780939109623432159423828125">
        <ele>1439.4000244140625</ele>
        <time>2026-06-18T08:01:55.000Z</time>
        <extensions>
          <ns3:TrackPointExtension>
            <ns3:atemp>23.0</ns3:atemp>
          </ns3:TrackPointExtension>
        </extensions>
      </trkpt>
      <trkpt lat="42.54800708033144474029541015625" lon="19.7809124551713466644287109375">
        <ele>1439.5999755859375</ele>
        <time>2026-06-18T08:01:56.000Z</time>
        <extensions>
          <ns3:TrackPointExtension>
            <ns3:atemp>23.0</ns3:atemp>
          </ns3:TrackPointExtension>
        </extensions>
      </trkpt>
      <trkpt lat="42.54799425601959228515625" lon="19.780886806547641754150390625">
        <ele>1439.5999755859375</ele>
        <time>2026-06-18T08:01:57.000Z</time>
        <extensions>
          <ns3:TrackPointExtension>
            <ns3:atemp>23.0</ns3:atemp>
          </ns3:TrackPointExtension>
        </extensions>
      </trkpt>
      <trkpt lat="42.5479823537170886993408203125" lon="19.78086275048553943634033203125">
        <ele>1439.5999755859375</ele>
        <time>2026-06-18T08:01:58.000Z</time>
        <extensions>
          <ns3:TrackPointExtension>
            <ns3:atemp>23.0</ns3:atemp>
          </ns3:TrackPointExtension>
        </extensions>
      </trkpt>
      <trkpt lat="42.54796986468136310577392578125" lon="19.78084296919405460357666015625">
        <ele>1439.800048828125</ele>
        <time>2026-06-18T08:01:59.000Z</time>
        <extensions>
          <ns3:TrackPointExtension>
            <ns3:atemp>23.0</ns3:atemp>
          </ns3:TrackPointExtension>
        </extensions>
      </trkpt>
      <trkpt lat="42.54795745946466922760009765625" lon="19.78082335554063320159912109375">
        <ele>1439.800048828125</ele>
        <time>2026-06-18T08:02:00.000Z</time>
        <extensions>
          <ns3:TrackPointExtension>
            <ns3:atemp>23.0</ns3:atemp>
          </ns3:TrackPointExtension>
        </extensions>
      </trkpt>
      <trkpt lat="42.54794572480022907257080078125" lon="19.7807998023927211761474609375">
        <ele>1440</ele>
        <time>2026-06-18T08:02:01.000Z</time>
        <extensions>
          <ns3:TrackPointExtension>
            <ns3:atemp>23.0</ns3:atemp>
          </ns3:TrackPointExtension>
        </extensions>
      </trkpt>
      <trkpt lat="42.54793466068804264068603515625" lon="19.78078027255833148956298828125">
        <ele>1440</ele>
        <time>2026-06-18T08:02:02.000Z</time>
        <extensions>
          <ns3:TrackPointExtension>
            <ns3:atemp>23.0</ns3:atemp>
          </ns3:TrackPointExtension>
        </extensions>
      </trkpt>
      <trkpt lat="42.547925524413585662841796875" lon="19.78075797669589519500732421875">
        <ele>1440.199951171875</ele>
        <time>2026-06-18T08:02:03.000Z</time>
        <extensions>
          <ns3:TrackPointExtension>
            <ns3:atemp>23.0</ns3:atemp>
          </ns3:TrackPointExtension>
        </extensions>
      </trkpt>
      <trkpt lat="42.54791580140590667724609375" lon="19.78073350153863430023193359375">
        <ele>1440.199951171875</ele>
        <time>2026-06-18T08:02:04.000Z</time>
        <extensions>
          <ns3:TrackPointExtension>
            <ns3:atemp>23.0</ns3:atemp>
          </ns3:TrackPointExtension>
        </extensions>
      </trkpt>
      <trkpt lat="42.54790582694113254547119140625" lon="19.78070869110524654388427734375">
        <ele>1440.4000244140625</ele>
        <time>2026-06-18T08:02:05.000Z</time>
        <extensions>
          <ns3:TrackPointExtension>
            <ns3:atemp>23.0</ns3:atemp>
          </ns3:TrackPointExtension>
        </extensions>
      </trkpt>
      <trkpt lat="42.54789710976183414459228515625" lon="19.78068404830992221832275390625">
        <ele>1440.4000244140625</ele>
        <time>2026-06-18T08:02:06.000Z</time>
        <extensions>
          <ns3:TrackPointExtension>
            <ns3:atemp>23.0</ns3:atemp>
          </ns3:TrackPointExtension>
        </extensions>
      </trkpt>
      <trkpt lat="42.547889314591884613037109375" lon="19.7806626744568347930908203125">
        <ele>1440.4000244140625</ele>
        <time>2026-06-18T08:02:07.000Z</time>
        <extensions>
          <ns3:TrackPointExtension>
            <ns3:atemp>23.0</ns3:atemp>
          </ns3:TrackPointExtension>
        </extensions>
      </trkpt>
      <trkpt lat="42.54787950776517391204833984375" lon="19.78064280934631824493408203125">
        <ele>1440.4000244140625</ele>
        <time>2026-06-18T08:02:08.000Z</time>
        <extensions>
          <ns3:TrackPointExtension>
            <ns3:atemp>23.0</ns3:atemp>
          </ns3:TrackPointExtension>
        </extensions>
      </trkpt>
      <trkpt lat="42.547868192195892333984375" lon="19.7806278057396411895751953125">
        <ele>1440.4000244140625</ele>
        <time>2026-06-18T08:02:09.000Z</time>
        <extensions>
          <ns3:TrackPointExtension>
            <ns3:atemp>23.0</ns3:atemp>
          </ns3:TrackPointExtension>
        </extensions>
      </trkpt>
      <trkpt lat="42.54786006174981594085693359375" lon="19.78061079047620296478271484375">
        <ele>1440.5999755859375</ele>
        <time>2026-06-18T08:02:10.000Z</time>
        <extensions>
          <ns3:TrackPointExtension>
            <ns3:atemp>23.0</ns3:atemp>
          </ns3:TrackPointExtension>
        </extensions>
      </trkpt>
      <trkpt lat="42.54785235039889812469482421875" lon="19.78059687651693820953369140625">
        <ele>1440.5999755859375</ele>
        <time>2026-06-18T08:02:11.000Z</time>
        <extensions>
          <ns3:TrackPointExtension>
            <ns3:atemp>23.0</ns3:atemp>
          </ns3:TrackPointExtension>
        </extensions>
      </trkpt>
      <trkpt lat="42.5478428788483142852783203125" lon="19.7805879078805446624755859375">
        <ele>1440.800048828125</ele>
        <time>2026-06-18T08:02:12.000Z</time>
        <extensions>
          <ns3:TrackPointExtension>
            <ns3:atemp>23.0</ns3:atemp>
          </ns3:TrackPointExtension>
        </extensions>
      </trkpt>
      <trkpt lat="42.54783676005899906158447265625" lon="19.78057776577770709991455078125">
        <ele>1440.800048828125</ele>
        <time>2026-06-18T08:02:13.000Z</time>
        <extensions>
          <ns3:TrackPointExtension>
            <ns3:atemp>23.0</ns3:atemp>
          </ns3:TrackPointExtension>
        </extensions>
      </trkpt>
      <trkpt lat="42.54783240146934986114501953125" lon="19.780570305883884429931640625">
        <ele>1440.800048828125</ele>
        <time>2026-06-18T08:02:14.000Z</time>
        <extensions>
          <ns3:TrackPointExtension>
            <ns3:atemp>23.0</ns3:atemp>
          </ns3:TrackPointExtension>
        </extensions>
      </trkpt>
      <trkpt lat="42.54782636649906635284423828125" lon="19.78056049905717372894287109375">
        <ele>1441</ele>
        <time>2026-06-18T08:02:15.000Z</time>
        <extensions>
          <ns3:TrackPointExtension>
            <ns3:atemp>23.0</ns3:atemp>
          </ns3:TrackPointExtension>
        </extensions>
      </trkpt>
      <trkpt lat="42.54782368429005146026611328125" lon="19.7805506922304630279541015625">
        <ele>1441</ele>
        <time>2026-06-18T08:02:16.000Z</time>
        <extensions>
          <ns3:TrackPointExtension>
            <ns3:atemp>23.0</ns3:atemp>
          </ns3:TrackPointExtension>
        </extensions>
      </trkpt>
      <trkpt lat="42.547814883291721343994140625" lon="19.7805376164615154266357421875">
        <ele>1441</ele>
        <time>2026-06-18T08:02:17.000Z</time>
        <extensions>
          <ns3:TrackPointExtension>
            <ns3:atemp>23.0</ns3:atemp>
          </ns3:TrackPointExtension>
        </extensions>
      </trkpt>
      <trkpt lat="42.54780314862728118896484375" lon="19.78053350932896137237548828125">
        <ele>1441</ele>
        <time>2026-06-18T08:02:18.000Z</time>
        <extensions>
          <ns3:TrackPointExtension>
            <ns3:atemp>23.0</ns3:atemp>
          </ns3:TrackPointExtension>
        </extensions>
      </trkpt>
      <trkpt lat="42.5477919168770313262939453125" lon="19.780540131032466888427734375">
        <ele>1441</ele>
        <time>2026-06-18T08:02:19.000Z</time>
        <extensions>
          <ns3:TrackPointExtension>
            <ns3:atemp>23.0</ns3:atemp>
          </ns3:TrackPointExtension>
        </extensions>
      </trkpt>
      <trkpt lat="42.547788061201572418212890625" lon="19.7805486805737018585205078125">
        <ele>1441</ele>
        <time>2026-06-18T08:02:20.000Z</time>
        <extensions>
          <ns3:TrackPointExtension>
            <ns3:atemp>23.0</ns3:atemp>
          </ns3:TrackPointExtension>
        </extensions>
      </trkpt>
      <trkpt lat="42.5477858819067478179931640625" lon="19.78054960258305072784423828125">
        <ele>1441</ele>
        <time>2026-06-18T08:02:21.000Z</time>
        <extensions>
          <ns3:TrackPointExtension>
            <ns3:atemp>23.0</ns3:atemp>
          </ns3:TrackPointExtension>
        </extensions>
      </trkpt>
      <trkpt lat="42.547786049544811248779296875" lon="19.780549518764019012451171875">
        <ele>1441</ele>
        <time>2026-06-18T08:02:22.000Z</time>
        <extensions>
          <ns3:TrackPointExtension>
            <ns3:atemp>23.0</ns3:atemp>
          </ns3:TrackPointExtension>
        </extensions>
      </trkpt>
      <trkpt lat="42.547786049544811248779296875" lon="19.780549518764019012451171875">
        <ele>1441.199951171875</ele>
        <time>2026-06-18T08:02:23.000Z</time>
        <extensions>
          <ns3:TrackPointExtension>
            <ns3:atemp>23.0</ns3:atemp>
          </ns3:TrackPointExtension>
        </extensions>
      </trkpt>
      <trkpt lat="42.54778646863996982574462890625" lon="19.7805493511259555816650390625">
        <ele>1441.199951171875</ele>
        <time>2026-06-18T08:02:24.000Z</time>
        <extensions>
          <ns3:TrackPointExtension>
            <ns3:atemp>23.0</ns3:atemp>
          </ns3:TrackPointExtension>
        </extensions>
      </trkpt>
      <trkpt lat="42.547786049544811248779296875" lon="19.780549518764019012451171875">
        <ele>1441.4000244140625</ele>
        <time>2026-06-18T08:02:25.000Z</time>
        <extensions>
          <ns3:TrackPointExtension>
            <ns3:atemp>23.0</ns3:atemp>
          </ns3:TrackPointExtension>
        </extensions>
      </trkpt>
      <trkpt lat="42.547786049544811248779296875" lon="19.780549518764019012451171875">
        <ele>1441.4000244140625</ele>
        <time>2026-06-18T08:02:26.000Z</time>
        <extensions>
          <ns3:TrackPointExtension>
            <ns3:atemp>23.0</ns3:atemp>
          </ns3:TrackPointExtension>
        </extensions>
      </trkpt>
      <trkpt lat="42.547786049544811248779296875" lon="19.780549518764019012451171875">
        <ele>1441.4000244140625</ele>
        <time>2026-06-18T08:02:27.000Z</time>
        <extensions>
          <ns3:TrackPointExtension>
            <ns3:atemp>23.0</ns3:atemp>
          </ns3:TrackPointExtension>
        </extensions>
      </trkpt>
      <trkpt lat="42.547786049544811248779296875" lon="19.780549518764019012451171875">
        <ele>1441.4000244140625</ele>
        <time>2026-06-18T08:02:28.000Z</time>
        <extensions>
          <ns3:TrackPointExtension>
            <ns3:atemp>23.0</ns3:atemp>
          </ns3:TrackPointExtension>
        </extensions>
      </trkpt>
      <trkpt lat="42.54779216833412647247314453125" lon="19.78054608218371868133544921875">
        <ele>1441.199951171875</ele>
        <time>2026-06-18T08:02:29.000Z</time>
        <extensions>
          <ns3:TrackPointExtension>
            <ns3:atemp>23.0</ns3:atemp>
          </ns3:TrackPointExtension>
        </extensions>
      </trkpt>
      <trkpt lat="42.5478078424930572509765625" lon="19.7805527038872241973876953125">
        <ele>1441.199951171875</ele>
        <time>2026-06-18T08:02:30.000Z</time>
        <extensions>
          <ns3:TrackPointExtension>
            <ns3:atemp>23.0</ns3:atemp>
          </ns3:TrackPointExtension>
        </extensions>
      </trkpt>
      <trkpt lat="42.5478130392730236053466796875" lon="19.7805459983646869659423828125">
        <ele>1441</ele>
        <time>2026-06-18T08:02:31.000Z</time>
        <extensions>
          <ns3:TrackPointExtension>
            <ns3:atemp>23.0</ns3:atemp>
          </ns3:TrackPointExtension>
        </extensions>
      </trkpt>
      <trkpt lat="42.54781924188137054443359375" lon="19.78053887374699115753173828125">
        <ele>1441</ele>
        <time>2026-06-18T08:02:32.000Z</time>
        <extensions>
          <ns3:TrackPointExtension>
            <ns3:atemp>23.0</ns3:atemp>
          </ns3:TrackPointExtension>
        </extensions>
      </trkpt>
      <trkpt lat="42.5478261150419712066650390625" lon="19.78053702972829341888427734375">
        <ele>1441.199951171875</ele>
        <time>2026-06-18T08:02:33.000Z</time>
        <extensions>
          <ns3:TrackPointExtension>
            <ns3:atemp>23.0</ns3:atemp>
          </ns3:TrackPointExtension>
        </extensions>
      </trkpt>
      <trkpt lat="42.5478261150419712066650390625" lon="19.78053702972829341888427734375">
        <ele>1441.199951171875</ele>
        <time>2026-06-18T08:02:34.000Z</time>
        <extensions>
          <ns3:TrackPointExtension>
            <ns3:atemp>23.0</ns3:atemp>
          </ns3:TrackPointExtension>
        </extensions>
      </trkpt>
      <trkpt lat="42.5478261150419712066650390625" lon="19.78053702972829341888427734375">
        <ele>1441.199951171875</ele>
        <time>2026-06-18T08:02:35.000Z</time>
        <extensions>
          <ns3:TrackPointExtension>
            <ns3:atemp>23.0</ns3:atemp>
          </ns3:TrackPointExtension>
        </extensions>
      </trkpt>
      <trkpt lat="42.5478261150419712066650390625" lon="19.78053702972829341888427734375">
        <ele>1441.199951171875</ele>
        <time>2026-06-18T08:02:36.000Z</time>
        <extensions>
          <ns3:TrackPointExtension>
            <ns3:atemp>23.0</ns3:atemp>
          </ns3:TrackPointExtension>
        </extensions>
      </trkpt>
      <trkpt lat="42.5478261150419712066650390625" lon="19.78053702972829341888427734375">
        <ele>1441.199951171875</ele>
        <time>2026-06-18T08:02:37.000Z</time>
        <extensions>
          <ns3:TrackPointExtension>
            <ns3:atemp>23.0</ns3:atemp>
          </ns3:TrackPointExtension>
        </extensions>
      </trkpt>
      <trkpt lat="42.5478261150419712066650390625" lon="19.78053702972829341888427734375">
        <ele>1441.199951171875</ele>
        <time>2026-06-18T08:02:38.000Z</time>
        <extensions>
          <ns3:TrackPointExtension>
            <ns3:atemp>23.0</ns3:atemp>
          </ns3:TrackPointExtension>
        </extensions>
      </trkpt>
      <trkpt lat="42.5478261150419712066650390625" lon="19.78053702972829341888427734375">
        <ele>1441.199951171875</ele>
        <time>2026-06-18T08:02:39.000Z</time>
        <extensions>
          <ns3:TrackPointExtension>
            <ns3:atemp>23.0</ns3:atemp>
          </ns3:TrackPointExtension>
        </extensions>
      </trkpt>
      <trkpt lat="42.5478261150419712066650390625" lon="19.78053702972829341888427734375">
        <ele>1441</ele>
        <time>2026-06-18T08:02:40.000Z</time>
        <extensions>
          <ns3:TrackPointExtension>
            <ns3:atemp>23.0</ns3:atemp>
          </ns3:TrackPointExtension>
        </extensions>
      </trkpt>
      <trkpt lat="42.5478261150419712066650390625" lon="19.78053702972829341888427734375">
        <ele>1441</ele>
        <time>2026-06-18T08:02:41.000Z</time>
        <extensions>
          <ns3:TrackPointExtension>
            <ns3:atemp>23.0</ns3:atemp>
          </ns3:TrackPointExtension>
        </extensions>
      </trkpt>
      <trkpt lat="42.5478261150419712066650390625" lon="19.78053702972829341888427734375">
        <ele>1441</ele>
        <time>2026-06-18T08:02:42.000Z</time>
        <extensions>
          <ns3:TrackPointExtension>
            <ns3:atemp>23.0</ns3:atemp>
          </ns3:TrackPointExtension>
        </extensions>
      </trkpt>
      <trkpt lat="42.5478261150419712066650390625" lon="19.78053702972829341888427734375">
        <ele>1441</ele>
        <time>2026-06-18T08:02:43.000Z</time>
        <extensions>
          <ns3:TrackPointExtension>
            <ns3:atemp>23.0</ns3:atemp>
          </ns3:TrackPointExtension>
        </extensions>
      </trkpt>
      <trkpt lat="42.5478261150419712066650390625" lon="19.78053702972829341888427734375">
        <ele>1441</ele>
        <time>2026-06-18T08:02:44.000Z</time>
        <extensions>
          <ns3:TrackPointExtension>
            <ns3:atemp>23.0</ns3:atemp>
          </ns3:TrackPointExtension>
        </extensions>
      </trkpt>
      <trkpt lat="42.5478261150419712066650390625" lon="19.78053702972829341888427734375">
        <ele>1441</ele>
        <time>2026-06-18T08:02:45.000Z</time>
        <extensions>
          <ns3:TrackPointExtension>
            <ns3:atemp>23.0</ns3:atemp>
          </ns3:TrackPointExtension>
        </extensions>
      </trkpt>
      <trkpt lat="42.5478261150419712066650390625" lon="19.78053702972829341888427734375">
        <ele>1441.199951171875</ele>
        <time>2026-06-18T08:02:46.000Z</time>
        <extensions>
          <ns3:TrackPointExtension>
            <ns3:atemp>23.0</ns3:atemp>
          </ns3:TrackPointExtension>
        </extensions>
      </trkpt>
      <trkpt lat="42.5478261150419712066650390625" lon="19.78053702972829341888427734375">
        <ele>1441.199951171875</ele>
        <time>2026-06-18T08:02:47.000Z</time>
        <extensions>
          <ns3:TrackPointExtension>
            <ns3:atemp>23.0</ns3:atemp>
          </ns3:TrackPointExtension>
        </extensions>
      </trkpt>
      <trkpt lat="42.5478261150419712066650390625" lon="19.78053702972829341888427734375">
        <ele>1441.199951171875</ele>
        <time>2026-06-18T08:02:48.000Z</time>
        <extensions>
          <ns3:TrackPointExtension>
            <ns3:atemp>23.0</ns3:atemp>
          </ns3:TrackPointExtension>
        </extensions>
      </trkpt>
      <trkpt lat="42.5478261150419712066650390625" lon="19.78053702972829341888427734375">
        <ele>1441</ele>
        <time>2026-06-18T08:02:49.000Z</time>
        <extensions>
          <ns3:TrackPointExtension>
            <ns3:atemp>23.0</ns3:atemp>
          </ns3:TrackPointExtension>
        </extensions>
      </trkpt>
      <trkpt lat="42.5478261150419712066650390625" lon="19.78053702972829341888427734375">
        <ele>1441</ele>
        <time>2026-06-18T08:02:50.000Z</time>
        <extensions>
          <ns3:TrackPointExtension>
            <ns3:atemp>23.0</ns3:atemp>
          </ns3:TrackPointExtension>
        </extensions>
      </trkpt>
      <trkpt lat="42.5478261150419712066650390625" lon="19.78053702972829341888427734375">
        <ele>1441</ele>
        <time>2026-06-18T08:02:51.000Z</time>
        <extensions>
          <ns3:TrackPointExtension>
            <ns3:atemp>23.0</ns3:atemp>
          </ns3:TrackPointExtension>
        </extensions>
      </trkpt>
      <trkpt lat="42.5478261150419712066650390625" lon="19.78053702972829341888427734375">
        <ele>1441</ele>
        <time>2026-06-18T08:02:52.000Z</time>
        <extensions>
          <ns3:TrackPointExtension>
            <ns3:atemp>23.0</ns3:atemp>
          </ns3:TrackPointExtension>
        </extensions>
      </trkpt>
      <trkpt lat="42.5478261150419712066650390625" lon="19.78053702972829341888427734375">
        <ele>1441</ele>
        <time>2026-06-18T08:02:53.000Z</time>
        <extensions>
          <ns3:TrackPointExtension>
            <ns3:atemp>23.0</ns3:atemp>
          </ns3:TrackPointExtension>
        </extensions>
      </trkpt>
      <trkpt lat="42.5478261150419712066650390625" lon="19.78053702972829341888427734375">
        <ele>1441</ele>
        <time>2026-06-18T08:02:54.000Z</time>
        <extensions>
          <ns3:TrackPointExtension>
            <ns3:atemp>23.0</ns3:atemp>
          </ns3:TrackPointExtension>
        </extensions>
      </trkpt>
      <trkpt lat="42.5478261150419712066650390625" lon="19.78053702972829341888427734375">
        <ele>1441.199951171875</ele>
        <time>2026-06-18T08:02:55.000Z</time>
        <extensions>
          <ns3:TrackPointExtension>
            <ns3:atemp>23.0</ns3:atemp>
          </ns3:TrackPointExtension>
        </extensions>
      </trkpt>
      <trkpt lat="42.5478261150419712066650390625" lon="19.78053702972829341888427734375">
        <ele>1441.199951171875</ele>
        <time>2026-06-18T08:02:56.000Z</time>
        <extensions>
          <ns3:TrackPointExtension>
            <ns3:atemp>23.0</ns3:atemp>
          </ns3:TrackPointExtension>
        </extensions>
      </trkpt>
      <trkpt lat="42.5478261150419712066650390625" lon="19.78053702972829341888427734375">
        <ele>1441.199951171875</ele>
        <time>2026-06-18T08:02:57.000Z</time>
        <extensions>
          <ns3:TrackPointExtension>
            <ns3:atemp>23.0</ns3:atemp>
          </ns3:TrackPointExtension>
        </extensions>
      </trkpt>
      <trkpt lat="42.5478261150419712066650390625" lon="19.78053702972829341888427734375">
        <ele>1441.199951171875</ele>
        <time>2026-06-18T08:02:58.000Z</time>
        <extensions>
          <ns3:TrackPointExtension>
            <ns3:atemp>23.0</ns3:atemp>
          </ns3:TrackPointExtension>
        </extensions>
      </trkpt>
      <trkpt lat="42.5478261150419712066650390625" lon="19.78053702972829341888427734375">
        <ele>1441.199951171875</ele>
        <time>2026-06-18T08:02:59.000Z</time>
        <extensions>
          <ns3:TrackPointExtension>
            <ns3:atemp>23.0</ns3:atemp>
          </ns3:TrackPointExtension>
        </extensions>
      </trkpt>
      <trkpt lat="42.54782485775649547576904296875" lon="19.78053837083280086517333984375">
        <ele>1441.199951171875</ele>
        <time>2026-06-18T08:03:00.000Z</time>
        <extensions>
          <ns3:TrackPointExtension>
            <ns3:atemp>23.0</ns3:atemp>
          </ns3:TrackPointExtension>
        </extensions>
      </trkpt>
      <trkpt lat="42.5478234328329563140869140625" lon="19.78053577244281768798828125">
        <ele>1441.199951171875</ele>
        <time>2026-06-18T08:03:01.000Z</time>
        <extensions>
          <ns3:TrackPointExtension>
            <ns3:atemp>23.0</ns3:atemp>
          </ns3:TrackPointExtension>
        </extensions>
      </trkpt>
      <trkpt lat="42.54782251082360744476318359375" lon="19.780528061091899871826171875">
        <ele>1441.199951171875</ele>
        <time>2026-06-18T08:03:02.000Z</time>
        <extensions>
          <ns3:TrackPointExtension>
            <ns3:atemp>23.0</ns3:atemp>
          </ns3:TrackPointExtension>
        </extensions>
      </trkpt>
      <trkpt lat="42.54782100208103656768798828125" lon="19.78053174912929534912109375">
        <ele>1441.4000244140625</ele>
        <time>2026-06-18T08:03:03.000Z</time>
        <extensions>
          <ns3:TrackPointExtension>
            <ns3:atemp>23.0</ns3:atemp>
          </ns3:TrackPointExtension>
        </extensions>
      </trkpt>
      <trkpt lat="42.5478261150419712066650390625" lon="19.78053702972829341888427734375">
        <ele>1441.5999755859375</ele>
        <time>2026-06-18T08:03:04.000Z</time>
        <extensions>
          <ns3:TrackPointExtension>
            <ns3:atemp>23.0</ns3:atemp>
          </ns3:TrackPointExtension>
        </extensions>
      </trkpt>
      <trkpt lat="42.5478261150419712066650390625" lon="19.78053702972829341888427734375">
        <ele>1441.800048828125</ele>
        <time>2026-06-18T08:03:05.000Z</time>
        <extensions>
          <ns3:TrackPointExtension>
            <ns3:atemp>23.0</ns3:atemp>
          </ns3:TrackPointExtension>
        </extensions>
      </trkpt>
      <trkpt lat="42.5478261150419712066650390625" lon="19.78053702972829341888427734375">
        <ele>1441.800048828125</ele>
        <time>2026-06-18T08:03:06.000Z</time>
        <extensions>
          <ns3:TrackPointExtension>
            <ns3:atemp>23.0</ns3:atemp>
          </ns3:TrackPointExtension>
        </extensions>
      </trkpt>
      <trkpt lat="42.5478261150419712066650390625" lon="19.78053702972829341888427734375">
        <ele>1441.5999755859375</ele>
        <time>2026-06-18T08:03:07.000Z</time>
        <extensions>
          <ns3:TrackPointExtension>
            <ns3:atemp>23.0</ns3:atemp>
          </ns3:TrackPointExtension>
        </extensions>
      </trkpt>
      <trkpt lat="42.5478261150419712066650390625" lon="19.78053702972829341888427734375">
        <ele>1441.4000244140625</ele>
        <time>2026-06-18T08:03:08.000Z</time>
        <extensions>
          <ns3:TrackPointExtension>
            <ns3:atemp>23.0</ns3:atemp>
          </ns3:TrackPointExtension>
        </extensions>
      </trkpt>
      <trkpt lat="42.5478261150419712066650390625" lon="19.78053702972829341888427734375">
        <ele>1441.199951171875</ele>
        <time>2026-06-18T08:03:09.000Z</time>
        <extensions>
          <ns3:TrackPointExtension>
            <ns3:atemp>23.0</ns3:atemp>
          </ns3:TrackPointExtension>
        </extensions>
      </trkpt>
      <trkpt lat="42.5478261150419712066650390625" lon="19.78053702972829341888427734375">
        <ele>1441</ele>
        <time>2026-06-18T08:03:10.000Z</time>
        <extensions>
          <ns3:TrackPointExtension>
            <ns3:atemp>23.0</ns3:atemp>
          </ns3:TrackPointExtension>
        </extensions>
      </trkpt>
      <trkpt lat="42.5478261150419712066650390625" lon="19.78053702972829341888427734375">
        <ele>1441</ele>
        <time>2026-06-18T08:03:11.000Z</time>
        <extensions>
          <ns3:TrackPointExtension>
            <ns3:atemp>23.0</ns3:atemp>
          </ns3:TrackPointExtension>
        </extensions>
      </trkpt>
      <trkpt lat="42.5478261150419712066650390625" lon="19.78053702972829341888427734375">
        <ele>1441</ele>
        <time>2026-06-18T08:03:12.000Z</time>
        <extensions>
          <ns3:TrackPointExtension>
            <ns3:atemp>23.0</ns3:atemp>
          </ns3:TrackPointExtension>
        </extensions>
      </trkpt>
      <trkpt lat="42.5478261150419712066650390625" lon="19.78053702972829341888427734375">
        <ele>1441</ele>
        <time>2026-06-18T08:03:13.000Z</time>
        <extensions>
          <ns3:TrackPointExtension>
            <ns3:atemp>23.0</ns3:atemp>
          </ns3:TrackPointExtension>
        </extensions>
      </trkpt>
      <trkpt lat="42.5478261150419712066650390625" lon="19.78053702972829341888427734375">
        <ele>1441</ele>
        <time>2026-06-18T08:03:14.000Z</time>
        <extensions>
          <ns3:TrackPointExtension>
            <ns3:atemp>23.0</ns3:atemp>
          </ns3:TrackPointExtension>
        </extensions>
      </trkpt>
      <trkpt lat="42.5478261150419712066650390625" lon="19.78053702972829341888427734375">
        <ele>1441</ele>
        <time>2026-06-18T08:03:15.000Z</time>
        <extensions>
          <ns3:TrackPointExtension>
            <ns3:atemp>23.0</ns3:atemp>
          </ns3:TrackPointExtension>
        </extensions>
      </trkpt>
      <trkpt lat="42.5478261150419712066650390625" lon="19.78053702972829341888427734375">
        <ele>1441</ele>
        <time>2026-06-18T08:03:16.000Z</time>
        <extensions>
          <ns3:TrackPointExtension>
            <ns3:atemp>23.0</ns3:atemp>
          </ns3:TrackPointExtension>
        </extensions>
      </trkpt>
      <trkpt lat="42.5478261150419712066650390625" lon="19.78053702972829341888427734375">
        <ele>1441</ele>
        <time>2026-06-18T08:03:17.000Z</time>
        <extensions>
          <ns3:TrackPointExtension>
            <ns3:atemp>23.0</ns3:atemp>
          </ns3:TrackPointExtension>
        </extensions>
      </trkpt>
      <trkpt lat="42.5478261150419712066650390625" lon="19.78053702972829341888427734375">
        <ele>1441</ele>
        <time>2026-06-18T08:03:18.000Z</time>
        <extensions>
          <ns3:TrackPointExtension>
            <ns3:atemp>23.0</ns3:atemp>
          </ns3:TrackPointExtension>
        </extensions>
      </trkpt>
      <trkpt lat="42.5478261150419712066650390625" lon="19.78053702972829341888427734375">
        <ele>1441</ele>
        <time>2026-06-18T08:03:19.000Z</time>
        <extensions>
          <ns3:TrackPointExtension>
            <ns3:atemp>23.0</ns3:atemp>
          </ns3:TrackPointExtension>
        </extensions>
      </trkpt>
      <trkpt lat="42.5478261150419712066650390625" lon="19.78053702972829341888427734375">
        <ele>1441</ele>
        <time>2026-06-18T08:03:20.000Z</time>
        <extensions>
          <ns3:TrackPointExtension>
            <ns3:atemp>23.0</ns3:atemp>
          </ns3:TrackPointExtension>
        </extensions>
      </trkpt>
      <trkpt lat="42.5478261150419712066650390625" lon="19.78053702972829341888427734375">
        <ele>1441</ele>
        <time>2026-06-18T08:03:21.000Z</time>
        <extensions>
          <ns3:TrackPointExtension>
            <ns3:atemp>23.0</ns3:atemp>
          </ns3:TrackPointExtension>
        </extensions>
      </trkpt>
      <trkpt lat="42.5478261150419712066650390625" lon="19.78053702972829341888427734375">
        <ele>1440.800048828125</ele>
        <time>2026-06-18T08:03:22.000Z</time>
        <extensions>
          <ns3:TrackPointExtension>
            <ns3:atemp>23.0</ns3:atemp>
          </ns3:TrackPointExtension>
        </extensions>
      </trkpt>
      <trkpt lat="42.5478261150419712066650390625" lon="19.78053702972829341888427734375">
        <ele>1440.800048828125</ele>
        <time>2026-06-18T08:03:23.000Z</time>
        <extensions>
          <ns3:TrackPointExtension>
            <ns3:atemp>23.0</ns3:atemp>
          </ns3:TrackPointExtension>
        </extensions>
      </trkpt>
      <trkpt lat="42.5478261150419712066650390625" lon="19.78053702972829341888427734375">
        <ele>1440.800048828125</ele>
        <time>2026-06-18T08:03:24.000Z</time>
        <extensions>
          <ns3:TrackPointExtension>
            <ns3:atemp>23.0</ns3:atemp>
          </ns3:TrackPointExtension>
        </extensions>
      </trkpt>
      <trkpt lat="42.5478261150419712066650390625" lon="19.78053702972829341888427734375">
        <ele>1440.800048828125</ele>
        <time>2026-06-18T08:03:25.000Z</time>
        <extensions>
          <ns3:TrackPointExtension>
            <ns3:atemp>23.0</ns3:atemp>
          </ns3:TrackPointExtension>
        </extensions>
      </trkpt>
      <trkpt lat="42.5478261150419712066650390625" lon="19.78053702972829341888427734375">
        <ele>1440.800048828125</ele>
        <time>2026-06-18T08:03:26.000Z</time>
        <extensions>
          <ns3:TrackPointExtension>
            <ns3:atemp>23.0</ns3:atemp>
          </ns3:TrackPointExtension>
        </extensions>
      </trkpt>
      <trkpt lat="42.5478261150419712066650390625" lon="19.78053702972829341888427734375">
        <ele>1440.800048828125</ele>
        <time>2026-06-18T08:03:27.000Z</time>
        <extensions>
          <ns3:TrackPointExtension>
            <ns3:atemp>23.0</ns3:atemp>
          </ns3:TrackPointExtension>
        </extensions>
      </trkpt>
      <trkpt lat="42.5478261150419712066650390625" lon="19.78053702972829341888427734375">
        <ele>1440.800048828125</ele>
        <time>2026-06-18T08:03:28.000Z</time>
        <extensions>
          <ns3:TrackPointExtension>
            <ns3:atemp>23.0</ns3:atemp>
          </ns3:TrackPointExtension>
        </extensions>
      </trkpt>
      <trkpt lat="42.54782284609973430633544921875" lon="19.78053300641477108001708984375">
        <ele>1440.800048828125</ele>
        <time>2026-06-18T08:03:29.000Z</time>
        <extensions>
          <ns3:TrackPointExtension>
            <ns3:atemp>23.0</ns3:atemp>
          </ns3:TrackPointExtension>
        </extensions>
      </trkpt>
      <trkpt lat="42.54782100208103656768798828125" lon="19.78053568862378597259521484375">
        <ele>1440.800048828125</ele>
        <time>2026-06-18T08:03:30.000Z</time>
        <extensions>
          <ns3:TrackPointExtension>
            <ns3:atemp>23.0</ns3:atemp>
          </ns3:TrackPointExtension>
        </extensions>
      </trkpt>
      <trkpt lat="42.5478261150419712066650390625" lon="19.78053702972829341888427734375">
        <ele>1440.800048828125</ele>
        <time>2026-06-18T08:03:31.000Z</time>
        <extensions>
          <ns3:TrackPointExtension>
            <ns3:atemp>23.0</ns3:atemp>
          </ns3:TrackPointExtension>
        </extensions>
      </trkpt>
      <trkpt lat="42.5478261150419712066650390625" lon="19.78053702972829341888427734375">
        <ele>1440.800048828125</ele>
        <time>2026-06-18T08:03:32.000Z</time>
        <extensions>
          <ns3:TrackPointExtension>
            <ns3:atemp>23.0</ns3:atemp>
          </ns3:TrackPointExtension>
        </extensions>
      </trkpt>
      <trkpt lat="42.5478261150419712066650390625" lon="19.78053702972829341888427734375">
        <ele>1440.800048828125</ele>
        <time>2026-06-18T08:03:33.000Z</time>
        <extensions>
          <ns3:TrackPointExtension>
            <ns3:atemp>23.0</ns3:atemp>
          </ns3:TrackPointExtension>
        </extensions>
      </trkpt>
      <trkpt lat="42.5478261150419712066650390625" lon="19.78053702972829341888427734375">
        <ele>1440.800048828125</ele>
        <time>2026-06-18T08:03:34.000Z</time>
        <extensions>
          <ns3:TrackPointExtension>
            <ns3:atemp>23.0</ns3:atemp>
          </ns3:TrackPointExtension>
        </extensions>
      </trkpt>
      <trkpt lat="42.5478261150419712066650390625" lon="19.78053702972829341888427734375">
        <ele>1441</ele>
        <time>2026-06-18T08:03:35.000Z</time>
        <extensions>
          <ns3:TrackPointExtension>
            <ns3:atemp>23.0</ns3:atemp>
          </ns3:TrackPointExtension>
        </extensions>
      </trkpt>
      <trkpt lat="42.5478261150419712066650390625" lon="19.78053702972829341888427734375">
        <ele>1441</ele>
        <time>2026-06-18T08:03:36.000Z</time>
        <extensions>
          <ns3:TrackPointExtension>
            <ns3:atemp>23.0</ns3:atemp>
          </ns3:TrackPointExtension>
        </extensions>
      </trkpt>
      <trkpt lat="42.5478261150419712066650390625" lon="19.78053702972829341888427734375">
        <ele>1441</ele>
        <time>2026-06-18T08:03:37.000Z</time>
        <extensions>
          <ns3:TrackPointExtension>
            <ns3:atemp>23.0</ns3:atemp>
          </ns3:TrackPointExtension>
        </extensions>
      </trkpt>
      <trkpt lat="42.5478261150419712066650390625" lon="19.78053702972829341888427734375">
        <ele>1441</ele>
        <time>2026-06-18T08:03:38.000Z</time>
        <extensions>
          <ns3:TrackPointExtension>
            <ns3:atemp>23.0</ns3:atemp>
          </ns3:TrackPointExtension>
        </extensions>
      </trkpt>
      <trkpt lat="42.5478261150419712066650390625" lon="19.78053702972829341888427734375">
        <ele>1441</ele>
        <time>2026-06-18T08:03:39.000Z</time>
        <extensions>
          <ns3:TrackPointExtension>
            <ns3:atemp>23.0</ns3:atemp>
          </ns3:TrackPointExtension>
        </extensions>
      </trkpt>
      <trkpt lat="42.5478261150419712066650390625" lon="19.78053702972829341888427734375">
        <ele>1441</ele>
        <time>2026-06-18T08:03:40.000Z</time>
        <extensions>
          <ns3:TrackPointExtension>
            <ns3:atemp>23.0</ns3:atemp>
          </ns3:TrackPointExtension>
        </extensions>
      </trkpt>
      <trkpt lat="42.5478261150419712066650390625" lon="19.78053702972829341888427734375">
        <ele>1441</ele>
        <time>2026-06-18T08:03:41.000Z</time>
        <extensions>
          <ns3:TrackPointExtension>
            <ns3:atemp>23.0</ns3:atemp>
          </ns3:TrackPointExtension>
        </extensions>
      </trkpt>
      <trkpt lat="42.5478261150419712066650390625" lon="19.78053702972829341888427734375">
        <ele>1441</ele>
        <time>2026-06-18T08:03:42.000Z</time>
        <extensions>
          <ns3:TrackPointExtension>
            <ns3:atemp>23.0</ns3:atemp>
          </ns3:TrackPointExtension>
        </extensions>
      </trkpt>
      <trkpt lat="42.5478261150419712066650390625" lon="19.78053702972829341888427734375">
        <ele>1441</ele>
        <time>2026-06-18T08:03:43.000Z</time>
        <extensions>
          <ns3:TrackPointExtension>
            <ns3:atemp>23.0</ns3:atemp>
          </ns3:TrackPointExtension>
        </extensions>
      </trkpt>
      <trkpt lat="42.5478261150419712066650390625" lon="19.78053702972829341888427734375">
        <ele>1441</ele>
        <time>2026-06-18T08:03:44.000Z</time>
        <extensions>
          <ns3:TrackPointExtension>
            <ns3:atemp>23.0</ns3:atemp>
          </ns3:TrackPointExtension>
        </extensions>
      </trkpt>
      <trkpt lat="42.5478261150419712066650390625" lon="19.78053702972829341888427734375">
        <ele>1441</ele>
        <time>2026-06-18T08:03:45.000Z</time>
        <extensions>
          <ns3:TrackPointExtension>
            <ns3:atemp>23.0</ns3:atemp>
          </ns3:TrackPointExtension>
        </extensions>
      </trkpt>
      <trkpt lat="42.5478261150419712066650390625" lon="19.78053702972829341888427734375">
        <ele>1441</ele>
        <time>2026-06-18T08:03:46.000Z</time>
        <extensions>
          <ns3:TrackPointExtension>
            <ns3:atemp>23.0</ns3:atemp>
          </ns3:TrackPointExtension>
        </extensions>
      </trkpt>
      <trkpt lat="42.5478261150419712066650390625" lon="19.78053702972829341888427734375">
        <ele>1441.199951171875</ele>
        <time>2026-06-18T08:03:47.000Z</time>
        <extensions>
          <ns3:TrackPointExtension>
            <ns3:atemp>23.0</ns3:atemp>
          </ns3:TrackPointExtension>
        </extensions>
      </trkpt>
      <trkpt lat="42.5478261150419712066650390625" lon="19.78053702972829341888427734375">
        <ele>1441.199951171875</ele>
        <time>2026-06-18T08:03:48.000Z</time>
        <extensions>
          <ns3:TrackPointExtension>
            <ns3:atemp>23.0</ns3:atemp>
          </ns3:TrackPointExtension>
        </extensions>
      </trkpt>
      <trkpt lat="42.5478261150419712066650390625" lon="19.78053702972829341888427734375">
        <ele>1441.199951171875</ele>
        <time>2026-06-18T08:03:49.000Z</time>
        <extensions>
          <ns3:TrackPointExtension>
            <ns3:atemp>23.0</ns3:atemp>
          </ns3:TrackPointExtension>
        </extensions>
      </trkpt>
      <trkpt lat="42.5478261150419712066650390625" lon="19.78053702972829341888427734375">
        <ele>1441.199951171875</ele>
        <time>2026-06-18T08:03:50.000Z</time>
        <extensions>
          <ns3:TrackPointExtension>
            <ns3:atemp>23.0</ns3:atemp>
          </ns3:TrackPointExtension>
        </extensions>
      </trkpt>
      <trkpt lat="42.5478261150419712066650390625" lon="19.78053702972829341888427734375">
        <ele>1441.199951171875</ele>
        <time>2026-06-18T08:03:51.000Z</time>
        <extensions>
          <ns3:TrackPointExtension>
            <ns3:atemp>23.0</ns3:atemp>
          </ns3:TrackPointExtension>
        </extensions>
      </trkpt>
      <trkpt lat="42.5478261150419712066650390625" lon="19.78053702972829341888427734375">
        <ele>1441.4000244140625</ele>
        <time>2026-06-18T08:03:52.000Z</time>
        <extensions>
          <ns3:TrackPointExtension>
            <ns3:atemp>23.0</ns3:atemp>
          </ns3:TrackPointExtension>
        </extensions>
      </trkpt>
      <trkpt lat="42.5478261150419712066650390625" lon="19.78053702972829341888427734375">
        <ele>1441.4000244140625</ele>
        <time>2026-06-18T08:03:53.000Z</time>
        <extensions>
          <ns3:TrackPointExtension>
            <ns3:atemp>23.0</ns3:atemp>
          </ns3:TrackPointExtension>
        </extensions>
      </trkpt>
      <trkpt lat="42.5478261150419712066650390625" lon="19.78053702972829341888427734375">
        <ele>1441.4000244140625</ele>
        <time>2026-06-18T08:03:54.000Z</time>
        <extensions>
          <ns3:TrackPointExtension>
            <ns3:atemp>23.0</ns3:atemp>
          </ns3:TrackPointExtension>
        </extensions>
      </trkpt>
      <trkpt lat="42.5478261150419712066650390625" lon="19.78053702972829341888427734375">
        <ele>1441.5999755859375</ele>
        <time>2026-06-18T08:03:55.000Z</time>
        <extensions>
          <ns3:TrackPointExtension>
            <ns3:atemp>23.0</ns3:atemp>
          </ns3:TrackPointExtension>
        </extensions>
      </trkpt>
      <trkpt lat="42.5478261150419712066650390625" lon="19.78053702972829341888427734375">
        <ele>1441.800048828125</ele>
        <time>2026-06-18T08:03:56.000Z</time>
        <extensions>
          <ns3:TrackPointExtension>
            <ns3:atemp>23.0</ns3:atemp>
          </ns3:TrackPointExtension>
        </extensions>
      </trkpt>
      <trkpt lat="42.5478261150419712066650390625" lon="19.78053702972829341888427734375">
        <ele>1441.800048828125</ele>
        <time>2026-06-18T08:03:57.000Z</time>
        <extensions>
          <ns3:TrackPointExtension>
            <ns3:atemp>23.0</ns3:atemp>
          </ns3:TrackPointExtension>
        </extensions>
      </trkpt>
      <trkpt lat="42.5478261150419712066650390625" lon="19.78053702972829341888427734375">
        <ele>1441.5999755859375</ele>
        <time>2026-06-18T08:03:58.000Z</time>
        <extensions>
          <ns3:TrackPointExtension>
            <ns3:atemp>23.0</ns3:atemp>
          </ns3:TrackPointExtension>
        </extensions>
      </trkpt>
      <trkpt lat="42.5478261150419712066650390625" lon="19.78053702972829341888427734375">
        <ele>1441.5999755859375</ele>
        <time>2026-06-18T08:03:59.000Z</time>
        <extensions>
          <ns3:TrackPointExtension>
            <ns3:atemp>23.0</ns3:atemp>
          </ns3:TrackPointExtension>
        </extensions>
      </trkpt>
      <trkpt lat="42.5478261150419712066650390625" lon="19.78053702972829341888427734375">
        <ele>1441.4000244140625</ele>
        <time>2026-06-18T08:04:00.000Z</time>
        <extensions>
          <ns3:TrackPointExtension>
            <ns3:atemp>23.0</ns3:atemp>
          </ns3:TrackPointExtension>
        </extensions>
      </trkpt>
      <trkpt lat="42.5478261150419712066650390625" lon="19.78053702972829341888427734375">
        <ele>1441.199951171875</ele>
        <time>2026-06-18T08:04:01.000Z</time>
        <extensions>
          <ns3:TrackPointExtension>
            <ns3:atemp>23.0</ns3:atemp>
          </ns3:TrackPointExtension>
        </extensions>
      </trkpt>
      <trkpt lat="42.5478261150419712066650390625" lon="19.78053702972829341888427734375">
        <ele>1441.199951171875</ele>
        <time>2026-06-18T08:04:02.000Z</time>
        <extensions>
          <ns3:TrackPointExtension>
            <ns3:atemp>23.0</ns3:atemp>
          </ns3:TrackPointExtension>
        </extensions>
      </trkpt>
      <trkpt lat="42.5478261150419712066650390625" lon="19.78053702972829341888427734375">
        <ele>1441.4000244140625</ele>
        <time>2026-06-18T08:04:03.000Z</time>
        <extensions>
          <ns3:TrackPointExtension>
            <ns3:atemp>23.0</ns3:atemp>
          </ns3:TrackPointExtension>
        </extensions>
      </trkpt>
      <trkpt lat="42.5478261150419712066650390625" lon="19.78053702972829341888427734375">
        <ele>1441.4000244140625</ele>
        <time>2026-06-18T08:04:04.000Z</time>
        <extensions>
          <ns3:TrackPointExtension>
            <ns3:atemp>23.0</ns3:atemp>
          </ns3:TrackPointExtension>
        </extensions>
      </trkpt>
      <trkpt lat="42.5478261150419712066650390625" lon="19.78053702972829341888427734375">
        <ele>1441.4000244140625</ele>
        <time>2026-06-18T08:04:05.000Z</time>
        <extensions>
          <ns3:TrackPointExtension>
            <ns3:atemp>23.0</ns3:atemp>
          </ns3:TrackPointExtension>
        </extensions>
      </trkpt>
      <trkpt lat="42.5478261150419712066650390625" lon="19.78053702972829341888427734375">
        <ele>1441.5999755859375</ele>
        <time>2026-06-18T08:04:06.000Z</time>
        <extensions>
          <ns3:TrackPointExtension>
            <ns3:atemp>23.0</ns3:atemp>
          </ns3:TrackPointExtension>
        </extensions>
      </trkpt>
      <trkpt lat="42.54782594740390777587890625" lon="19.78053384460508823394775390625">
        <ele>1441.5999755859375</ele>
        <time>2026-06-18T08:04:07.000Z</time>
        <extensions>
          <ns3:TrackPointExtension>
            <ns3:atemp>23.0</ns3:atemp>
          </ns3:TrackPointExtension>
        </extensions>
      </trkpt>
      <trkpt lat="42.5478308089077472686767578125" lon="19.7805252112448215484619140625">
        <ele>1441.4000244140625</ele>
        <time>2026-06-18T08:04:08.000Z</time>
        <extensions>
          <ns3:TrackPointExtension>
            <ns3:atemp>23.0</ns3:atemp>
          </ns3:TrackPointExtension>
        </extensions>
      </trkpt>
      <trkpt lat="42.5478294678032398223876953125" lon="19.78052194230258464813232421875">
        <ele>1441.4000244140625</ele>
        <time>2026-06-18T08:04:09.000Z</time>
        <extensions>
          <ns3:TrackPointExtension>
            <ns3:atemp>23.0</ns3:atemp>
          </ns3:TrackPointExtension>
        </extensions>
      </trkpt>
      <trkpt lat="42.5478267855942249298095703125" lon="19.78051590733230113983154296875">
        <ele>1441.4000244140625</ele>
        <time>2026-06-18T08:04:10.000Z</time>
        <extensions>
          <ns3:TrackPointExtension>
            <ns3:atemp>23.0</ns3:atemp>
          </ns3:TrackPointExtension>
        </extensions>
      </trkpt>
      <trkpt lat="42.54782728850841522216796875" lon="19.7805118001997470855712890625">
        <ele>1441.4000244140625</ele>
        <time>2026-06-18T08:04:11.000Z</time>
        <extensions>
          <ns3:TrackPointExtension>
            <ns3:atemp>23.0</ns3:atemp>
          </ns3:TrackPointExtension>
        </extensions>
      </trkpt>
      <trkpt lat="42.54782619886100292205810546875" lon="19.78050719015300273895263671875">
        <ele>1441.4000244140625</ele>
        <time>2026-06-18T08:04:12.000Z</time>
        <extensions>
          <ns3:TrackPointExtension>
            <ns3:atemp>23.0</ns3:atemp>
          </ns3:TrackPointExtension>
        </extensions>
      </trkpt>
      <trkpt lat="42.54782058298587799072265625" lon="19.78049193508923053741455078125">
        <ele>1441.4000244140625</ele>
        <time>2026-06-18T08:04:13.000Z</time>
        <extensions>
          <ns3:TrackPointExtension>
            <ns3:atemp>23.0</ns3:atemp>
          </ns3:TrackPointExtension>
        </extensions>
      </trkpt>
      <trkpt lat="42.54781949333846569061279296875" lon="19.780487827956676483154296875">
        <ele>1441.4000244140625</ele>
        <time>2026-06-18T08:04:14.000Z</time>
        <extensions>
          <ns3:TrackPointExtension>
            <ns3:atemp>23.0</ns3:atemp>
          </ns3:TrackPointExtension>
        </extensions>
      </trkpt>
      <trkpt lat="42.5478147156536579132080078125" lon="19.78047952987253665924072265625">
        <ele>1441.4000244140625</ele>
        <time>2026-06-18T08:04:15.000Z</time>
        <extensions>
          <ns3:TrackPointExtension>
            <ns3:atemp>23.0</ns3:atemp>
          </ns3:TrackPointExtension>
        </extensions>
      </trkpt>
      <trkpt lat="42.54781060852110385894775390625" lon="19.7804776020348072052001953125">
        <ele>1441.4000244140625</ele>
        <time>2026-06-18T08:04:16.000Z</time>
        <extensions>
          <ns3:TrackPointExtension>
            <ns3:atemp>23.0</ns3:atemp>
          </ns3:TrackPointExtension>
        </extensions>
      </trkpt>
      <trkpt lat="42.5478036515414714813232421875" lon="19.78046997450292110443115234375">
        <ele>1441.4000244140625</ele>
        <time>2026-06-18T08:04:17.000Z</time>
        <extensions>
          <ns3:TrackPointExtension>
            <ns3:atemp>23.0</ns3:atemp>
          </ns3:TrackPointExtension>
        </extensions>
      </trkpt>
      <trkpt lat="42.5477917492389678955078125" lon="19.7804460860788822174072265625">
        <ele>1441.4000244140625</ele>
        <time>2026-06-18T08:04:18.000Z</time>
        <extensions>
          <ns3:TrackPointExtension>
            <ns3:atemp>23.0</ns3:atemp>
          </ns3:TrackPointExtension>
        </extensions>
      </trkpt>
      <trkpt lat="42.54777825437486171722412109375" lon="19.78041884489357471466064453125">
        <ele>1441.4000244140625</ele>
        <time>2026-06-18T08:04:19.000Z</time>
        <extensions>
          <ns3:TrackPointExtension>
            <ns3:atemp>23.0</ns3:atemp>
          </ns3:TrackPointExtension>
        </extensions>
      </trkpt>
      <trkpt lat="42.547767274081707000732421875" lon="19.78039721958339214324951171875">
        <ele>1441.4000244140625</ele>
        <time>2026-06-18T08:04:20.000Z</time>
        <extensions>
          <ns3:TrackPointExtension>
            <ns3:atemp>23.0</ns3:atemp>
          </ns3:TrackPointExtension>
        </extensions>
      </trkpt>
      <trkpt lat="42.54777171649038791656494140625" lon="19.7803843952715396881103515625">
        <ele>1441.4000244140625</ele>
        <time>2026-06-18T08:04:21.000Z</time>
        <extensions>
          <ns3:TrackPointExtension>
            <ns3:atemp>23.0</ns3:atemp>
          </ns3:TrackPointExtension>
        </extensions>
      </trkpt>
      <trkpt lat="42.54777523688971996307373046875" lon="19.78039135225117206573486328125">
        <ele>1441.5999755859375</ele>
        <time>2026-06-18T08:04:22.000Z</time>
        <extensions>
          <ns3:TrackPointExtension>
            <ns3:atemp>23.0</ns3:atemp>
          </ns3:TrackPointExtension>
        </extensions>
      </trkpt>
      <trkpt lat="42.54777959547936916351318359375" lon="19.78039939887821674346923828125">
        <ele>1441.5999755859375</ele>
        <time>2026-06-18T08:04:23.000Z</time>
        <extensions>
          <ns3:TrackPointExtension>
            <ns3:atemp>23.0</ns3:atemp>
          </ns3:TrackPointExtension>
        </extensions>
      </trkpt>
      <trkpt lat="42.547786049544811248779296875" lon="19.78041373193264007568359375">
        <ele>1441.800048828125</ele>
        <time>2026-06-18T08:04:24.000Z</time>
        <extensions>
          <ns3:TrackPointExtension>
            <ns3:atemp>23.0</ns3:atemp>
          </ns3:TrackPointExtension>
        </extensions>
      </trkpt>
      <trkpt lat="42.54779619164764881134033203125" lon="19.78044281713664531707763671875">
        <ele>1441.800048828125</ele>
        <time>2026-06-18T08:04:25.000Z</time>
        <extensions>
          <ns3:TrackPointExtension>
            <ns3:atemp>23.0</ns3:atemp>
          </ns3:TrackPointExtension>
        </extensions>
      </trkpt>
      <trkpt lat="42.5478105247020721435546875" lon="19.78047617711126804351806640625">
        <ele>1441.5999755859375</ele>
        <time>2026-06-18T08:04:26.000Z</time>
        <extensions>
          <ns3:TrackPointExtension>
            <ns3:atemp>23.0</ns3:atemp>
          </ns3:TrackPointExtension>
        </extensions>
      </trkpt>
      <trkpt lat="42.54782318137586116790771484375" lon="19.78051188401877880096435546875">
        <ele>1441.4000244140625</ele>
        <time>2026-06-18T08:04:27.000Z</time>
        <extensions>
          <ns3:TrackPointExtension>
            <ns3:atemp>23.0</ns3:atemp>
          </ns3:TrackPointExtension>
        </extensions>
      </trkpt>
      <trkpt lat="42.54783474840223789215087890625" lon="19.7805429808795452117919921875">
        <ele>1441.199951171875</ele>
        <time>2026-06-18T08:04:28.000Z</time>
        <extensions>
          <ns3:TrackPointExtension>
            <ns3:atemp>23.0</ns3:atemp>
          </ns3:TrackPointExtension>
        </extensions>
      </trkpt>
      <trkpt lat="42.54784882999956607818603515625" lon="19.7805605828762054443359375">
        <ele>1441</ele>
        <time>2026-06-18T08:04:29.000Z</time>
        <extensions>
          <ns3:TrackPointExtension>
            <ns3:atemp>23.0</ns3:atemp>
          </ns3:TrackPointExtension>
        </extensions>
      </trkpt>
      <trkpt lat="42.5478453934192657470703125" lon="19.78057508356869220733642578125">
        <ele>1441.199951171875</ele>
        <time>2026-06-18T08:04:30.000Z</time>
        <extensions>
          <ns3:TrackPointExtension>
            <ns3:atemp>23.0</ns3:atemp>
          </ns3:TrackPointExtension>
        </extensions>
      </trkpt>
      <trkpt lat="42.54784405231475830078125" lon="19.7805768437683582305908203125">
        <ele>1441.4000244140625</ele>
        <time>2026-06-18T08:04:31.000Z</time>
        <extensions>
          <ns3:TrackPointExtension>
            <ns3:atemp>23.0</ns3:atemp>
          </ns3:TrackPointExtension>
        </extensions>
      </trkpt>
      <trkpt lat="42.54784396849572658538818359375" lon="19.7805768437683582305908203125">
        <ele>1441.5999755859375</ele>
        <time>2026-06-18T08:04:32.000Z</time>
        <extensions>
          <ns3:TrackPointExtension>
            <ns3:atemp>23.0</ns3:atemp>
          </ns3:TrackPointExtension>
        </extensions>
      </trkpt>
      <trkpt lat="42.54784396849572658538818359375" lon="19.7805768437683582305908203125">
        <ele>1441.800048828125</ele>
        <time>2026-06-18T08:04:33.000Z</time>
        <extensions>
          <ns3:TrackPointExtension>
            <ns3:atemp>23.0</ns3:atemp>
          </ns3:TrackPointExtension>
        </extensions>
      </trkpt>
      <trkpt lat="42.54784396849572658538818359375" lon="19.7805768437683582305908203125">
        <ele>1442</ele>
        <time>2026-06-18T08:04:34.000Z</time>
        <extensions>
          <ns3:TrackPointExtension>
            <ns3:atemp>23.0</ns3:atemp>
          </ns3:TrackPointExtension>
        </extensions>
      </trkpt>
      <trkpt lat="42.54784396849572658538818359375" lon="19.7805768437683582305908203125">
        <ele>1442</ele>
        <time>2026-06-18T08:04:35.000Z</time>
        <extensions>
          <ns3:TrackPointExtension>
            <ns3:atemp>23.0</ns3:atemp>
          </ns3:TrackPointExtension>
        </extensions>
      </trkpt>
      <trkpt lat="42.54784396849572658538818359375" lon="19.7805768437683582305908203125">
        <ele>1442</ele>
        <time>2026-06-18T08:04:36.000Z</time>
        <extensions>
          <ns3:TrackPointExtension>
            <ns3:atemp>23.0</ns3:atemp>
          </ns3:TrackPointExtension>
        </extensions>
      </trkpt>
      <trkpt lat="42.54784396849572658538818359375" lon="19.7805768437683582305908203125">
        <ele>1441.800048828125</ele>
        <time>2026-06-18T08:04:37.000Z</time>
        <extensions>
          <ns3:TrackPointExtension>
            <ns3:atemp>23.0</ns3:atemp>
          </ns3:TrackPointExtension>
        </extensions>
      </trkpt>
      <trkpt lat="42.54784396849572658538818359375" lon="19.7805768437683582305908203125">
        <ele>1441.5999755859375</ele>
        <time>2026-06-18T08:04:38.000Z</time>
        <extensions>
          <ns3:TrackPointExtension>
            <ns3:atemp>23.0</ns3:atemp>
          </ns3:TrackPointExtension>
        </extensions>
      </trkpt>
      <trkpt lat="42.54784396849572658538818359375" lon="19.7805768437683582305908203125">
        <ele>1441.4000244140625</ele>
        <time>2026-06-18T08:04:39.000Z</time>
        <extensions>
          <ns3:TrackPointExtension>
            <ns3:atemp>23.0</ns3:atemp>
          </ns3:TrackPointExtension>
        </extensions>
      </trkpt>
      <trkpt lat="42.54784396849572658538818359375" lon="19.7805768437683582305908203125">
        <ele>1441.199951171875</ele>
        <time>2026-06-18T08:04:40.000Z</time>
        <extensions>
          <ns3:TrackPointExtension>
            <ns3:atemp>23.0</ns3:atemp>
          </ns3:TrackPointExtension>
        </extensions>
      </trkpt>
      <trkpt lat="42.54784396849572658538818359375" lon="19.7805768437683582305908203125">
        <ele>1441</ele>
        <time>2026-06-18T08:04:41.000Z</time>
        <extensions>
          <ns3:TrackPointExtension>
            <ns3:atemp>23.0</ns3:atemp>
          </ns3:TrackPointExtension>
        </extensions>
      </trkpt>
      <trkpt lat="42.54784396849572658538818359375" lon="19.7805768437683582305908203125">
        <ele>1440.800048828125</ele>
        <time>2026-06-18T08:04:42.000Z</time>
        <extensions>
          <ns3:TrackPointExtension>
            <ns3:atemp>23.0</ns3:atemp>
          </ns3:TrackPointExtension>
        </extensions>
      </trkpt>
      <trkpt lat="42.54784396849572658538818359375" lon="19.7805768437683582305908203125">
        <ele>1440.800048828125</ele>
        <time>2026-06-18T08:04:43.000Z</time>
        <extensions>
          <ns3:TrackPointExtension>
            <ns3:atemp>23.0</ns3:atemp>
          </ns3:TrackPointExtension>
        </extensions>
      </trkpt>
      <trkpt lat="42.54784396849572658538818359375" lon="19.7805768437683582305908203125">
        <ele>1440.5999755859375</ele>
        <time>2026-06-18T08:04:44.000Z</time>
        <extensions>
          <ns3:TrackPointExtension>
            <ns3:atemp>23.0</ns3:atemp>
          </ns3:TrackPointExtension>
        </extensions>
      </trkpt>
      <trkpt lat="42.54784396849572658538818359375" lon="19.7805768437683582305908203125">
        <ele>1440.5999755859375</ele>
        <time>2026-06-18T08:04:45.000Z</time>
        <extensions>
          <ns3:TrackPointExtension>
            <ns3:atemp>23.0</ns3:atemp>
          </ns3:TrackPointExtension>
        </extensions>
      </trkpt>
      <trkpt lat="42.54784396849572658538818359375" lon="19.7805768437683582305908203125">
        <ele>1440.800048828125</ele>
        <time>2026-06-18T08:04:46.000Z</time>
        <extensions>
          <ns3:TrackPointExtension>
            <ns3:atemp>23.0</ns3:atemp>
          </ns3:TrackPointExtension>
        </extensions>
      </trkpt>
      <trkpt lat="42.54784396849572658538818359375" lon="19.7805768437683582305908203125">
        <ele>1440.800048828125</ele>
        <time>2026-06-18T08:04:47.000Z</time>
        <extensions>
          <ns3:TrackPointExtension>
            <ns3:atemp>23.0</ns3:atemp>
          </ns3:TrackPointExtension>
        </extensions>
      </trkpt>
      <trkpt lat="42.54784396849572658538818359375" lon="19.78057877160608768463134765625">
        <ele>1441</ele>
        <time>2026-06-18T08:04:48.000Z</time>
        <extensions>
          <ns3:TrackPointExtension>
            <ns3:atemp>23.0</ns3:atemp>
          </ns3:TrackPointExtension>
        </extensions>
      </trkpt>
      <trkpt lat="42.54783676005899906158447265625" lon="19.78057625703513622283935546875">
        <ele>1441</ele>
        <time>2026-06-18T08:04:49.000Z</time>
        <extensions>
          <ns3:TrackPointExtension>
            <ns3:atemp>23.0</ns3:atemp>
          </ns3:TrackPointExtension>
        </extensions>
      </trkpt>
      <trkpt lat="42.54784396849572658538818359375" lon="19.7805768437683582305908203125">
        <ele>1441</ele>
        <time>2026-06-18T08:04:50.000Z</time>
        <extensions>
          <ns3:TrackPointExtension>
            <ns3:atemp>23.0</ns3:atemp>
          </ns3:TrackPointExtension>
        </extensions>
      </trkpt>
      <trkpt lat="42.54784396849572658538818359375" lon="19.7805768437683582305908203125">
        <ele>1441</ele>
        <time>2026-06-18T08:04:51.000Z</time>
        <extensions>
          <ns3:TrackPointExtension>
            <ns3:atemp>23.0</ns3:atemp>
          </ns3:TrackPointExtension>
        </extensions>
      </trkpt>
      <trkpt lat="42.54784396849572658538818359375" lon="19.7805768437683582305908203125">
        <ele>1441.199951171875</ele>
        <time>2026-06-18T08:04:52.000Z</time>
        <extensions>
          <ns3:TrackPointExtension>
            <ns3:atemp>23.0</ns3:atemp>
          </ns3:TrackPointExtension>
        </extensions>
      </trkpt>
      <trkpt lat="42.54784396849572658538818359375" lon="19.7805768437683582305908203125">
        <ele>1441.4000244140625</ele>
        <time>2026-06-18T08:04:53.000Z</time>
        <extensions>
          <ns3:TrackPointExtension>
            <ns3:atemp>23.0</ns3:atemp>
          </ns3:TrackPointExtension>
        </extensions>
      </trkpt>
      <trkpt lat="42.54784396849572658538818359375" lon="19.7805768437683582305908203125">
        <ele>1441.800048828125</ele>
        <time>2026-06-18T08:04:54.000Z</time>
        <extensions>
          <ns3:TrackPointExtension>
            <ns3:atemp>23.0</ns3:atemp>
          </ns3:TrackPointExtension>
        </extensions>
      </trkpt>
      <trkpt lat="42.54783793352544307708740234375" lon="19.78057877160608768463134765625">
        <ele>1442</ele>
        <time>2026-06-18T08:04:55.000Z</time>
        <extensions>
          <ns3:TrackPointExtension>
            <ns3:atemp>23.0</ns3:atemp>
          </ns3:TrackPointExtension>
        </extensions>
      </trkpt>
      <trkpt lat="42.54784396849572658538818359375" lon="19.7805768437683582305908203125">
        <ele>1442</ele>
        <time>2026-06-18T08:04:56.000Z</time>
        <extensions>
          <ns3:TrackPointExtension>
            <ns3:atemp>23.0</ns3:atemp>
          </ns3:TrackPointExtension>
        </extensions>
      </trkpt>
      <trkpt lat="42.547839693725109100341796875" lon="19.78057642467319965362548828125">
        <ele>1441.800048828125</ele>
        <time>2026-06-18T08:04:57.000Z</time>
        <extensions>
          <ns3:TrackPointExtension>
            <ns3:atemp>23.0</ns3:atemp>
          </ns3:TrackPointExtension>
        </extensions>
      </trkpt>
      <trkpt lat="42.54784178920090198516845703125" lon="19.78057332336902618408203125">
        <ele>1441.800048828125</ele>
        <time>2026-06-18T08:04:58.000Z</time>
        <extensions>
          <ns3:TrackPointExtension>
            <ns3:atemp>23.0</ns3:atemp>
          </ns3:TrackPointExtension>
        </extensions>
      </trkpt>
      <trkpt lat="42.54784514196217060089111328125" lon="19.78057156316936016082763671875">
        <ele>1441.800048828125</ele>
        <time>2026-06-18T08:04:59.000Z</time>
        <extensions>
          <ns3:TrackPointExtension>
            <ns3:atemp>23.0</ns3:atemp>
          </ns3:TrackPointExtension>
        </extensions>
      </trkpt>
      <trkpt lat="42.54784916527569293975830078125" lon="19.78057290427386760711669921875">
        <ele>1441.5999755859375</ele>
        <time>2026-06-18T08:05:00.000Z</time>
        <extensions>
          <ns3:TrackPointExtension>
            <ns3:atemp>23.0</ns3:atemp>
          </ns3:TrackPointExtension>
        </extensions>
      </trkpt>
      <trkpt lat="42.5478452257812023162841796875" lon="19.780571646988391876220703125">
        <ele>1441.800048828125</ele>
        <time>2026-06-18T08:05:01.000Z</time>
        <extensions>
          <ns3:TrackPointExtension>
            <ns3:atemp>23.0</ns3:atemp>
          </ns3:TrackPointExtension>
        </extensions>
      </trkpt>
      <trkpt lat="42.54784095101058483123779296875" lon="19.78055597282946109771728515625">
        <ele>1441.800048828125</ele>
        <time>2026-06-18T08:05:02.000Z</time>
        <extensions>
          <ns3:TrackPointExtension>
            <ns3:atemp>23.0</ns3:atemp>
          </ns3:TrackPointExtension>
        </extensions>
      </trkpt>
      <trkpt lat="42.547835670411586761474609375" lon="19.7805332578718662261962890625">
        <ele>1441.800048828125</ele>
        <time>2026-06-18T08:05:03.000Z</time>
        <extensions>
          <ns3:TrackPointExtension>
            <ns3:atemp>23.0</ns3:atemp>
          </ns3:TrackPointExtension>
        </extensions>
      </trkpt>
      <trkpt lat="42.54782955162227153778076171875" lon="19.78050484322011470794677734375">
        <ele>1442</ele>
        <time>2026-06-18T08:05:04.000Z</time>
        <extensions>
          <ns3:TrackPointExtension>
            <ns3:atemp>23.0</ns3:atemp>
          </ns3:TrackPointExtension>
        </extensions>
      </trkpt>
      <trkpt lat="42.54782150499522686004638671875" lon="19.7804802842438220977783203125">
        <ele>1442</ele>
        <time>2026-06-18T08:05:05.000Z</time>
        <extensions>
          <ns3:TrackPointExtension>
            <ns3:atemp>23.0</ns3:atemp>
          </ns3:TrackPointExtension>
        </extensions>
      </trkpt>
      <trkpt lat="42.54781496711075305938720703125" lon="19.7804594971239566802978515625">
        <ele>1442</ele>
        <time>2026-06-18T08:05:06.000Z</time>
        <extensions>
          <ns3:TrackPointExtension>
            <ns3:atemp>23.0</ns3:atemp>
          </ns3:TrackPointExtension>
        </extensions>
      </trkpt>
      <trkpt lat="42.5478185713291168212890625" lon="19.78046176023781299591064453125">
        <ele>1442</ele>
        <time>2026-06-18T08:05:07.000Z</time>
        <extensions>
          <ns3:TrackPointExtension>
            <ns3:atemp>23.0</ns3:atemp>
          </ns3:TrackPointExtension>
        </extensions>
      </trkpt>
      <trkpt lat="42.54781848751008510589599609375" lon="19.780461676418781280517578125">
        <ele>1442</ele>
        <time>2026-06-18T08:05:08.000Z</time>
        <extensions>
          <ns3:TrackPointExtension>
            <ns3:atemp>23.0</ns3:atemp>
          </ns3:TrackPointExtension>
        </extensions>
      </trkpt>
      <trkpt lat="42.54781848751008510589599609375" lon="19.780461676418781280517578125">
        <ele>1442.199951171875</ele>
        <time>2026-06-18T08:05:09.000Z</time>
        <extensions>
          <ns3:TrackPointExtension>
            <ns3:atemp>23.0</ns3:atemp>
          </ns3:TrackPointExtension>
        </extensions>
      </trkpt>
      <trkpt lat="42.54781848751008510589599609375" lon="19.780461676418781280517578125">
        <ele>1442.199951171875</ele>
        <time>2026-06-18T08:05:10.000Z</time>
        <extensions>
          <ns3:TrackPointExtension>
            <ns3:atemp>23.0</ns3:atemp>
          </ns3:TrackPointExtension>
        </extensions>
      </trkpt>
      <trkpt lat="42.5478180684149265289306640625" lon="19.7804611735045909881591796875">
        <ele>1442.199951171875</ele>
        <time>2026-06-18T08:05:11.000Z</time>
        <extensions>
          <ns3:TrackPointExtension>
            <ns3:atemp>23.0</ns3:atemp>
          </ns3:TrackPointExtension>
        </extensions>
      </trkpt>
      <trkpt lat="42.547806836664676666259765625" lon="19.7804608382284641265869140625">
        <ele>1442.199951171875</ele>
        <time>2026-06-18T08:05:12.000Z</time>
        <extensions>
          <ns3:TrackPointExtension>
            <ns3:atemp>23.0</ns3:atemp>
          </ns3:TrackPointExtension>
        </extensions>
      </trkpt>
      <trkpt lat="42.54780340008437633514404296875" lon="19.78046846576035022735595703125">
        <ele>1442.199951171875</ele>
        <time>2026-06-18T08:05:13.000Z</time>
        <extensions>
          <ns3:TrackPointExtension>
            <ns3:atemp>23.0</ns3:atemp>
          </ns3:TrackPointExtension>
        </extensions>
      </trkpt>
      <trkpt lat="42.5478026457130908966064453125" lon="19.78048120625317096710205078125">
        <ele>1442.199951171875</ele>
        <time>2026-06-18T08:05:14.000Z</time>
        <extensions>
          <ns3:TrackPointExtension>
            <ns3:atemp>23.0</ns3:atemp>
          </ns3:TrackPointExtension>
        </extensions>
      </trkpt>
      <trkpt lat="42.5478049926459789276123046875" lon="19.78048556484282016754150390625">
        <ele>1442.199951171875</ele>
        <time>2026-06-18T08:05:15.000Z</time>
        <extensions>
          <ns3:TrackPointExtension>
            <ns3:atemp>23.0</ns3:atemp>
          </ns3:TrackPointExtension>
        </extensions>
      </trkpt>
      <trkpt lat="42.54780155606567859649658203125" lon="19.78048791177570819854736328125">
        <ele>1442.199951171875</ele>
        <time>2026-06-18T08:05:16.000Z</time>
        <extensions>
          <ns3:TrackPointExtension>
            <ns3:atemp>23.0</ns3:atemp>
          </ns3:TrackPointExtension>
        </extensions>
      </trkpt>
      <trkpt lat="42.547801472246646881103515625" lon="19.7804879955947399139404296875">
        <ele>1442.199951171875</ele>
        <time>2026-06-18T08:05:17.000Z</time>
        <extensions>
          <ns3:TrackPointExtension>
            <ns3:atemp>23.0</ns3:atemp>
          </ns3:TrackPointExtension>
        </extensions>
      </trkpt>
      <trkpt lat="42.547801472246646881103515625" lon="19.7804879955947399139404296875">
        <ele>1442.199951171875</ele>
        <time>2026-06-18T08:05:18.000Z</time>
        <extensions>
          <ns3:TrackPointExtension>
            <ns3:atemp>23.0</ns3:atemp>
          </ns3:TrackPointExtension>
        </extensions>
      </trkpt>
      <trkpt lat="42.547801472246646881103515625" lon="19.7804879955947399139404296875">
        <ele>1442.199951171875</ele>
        <time>2026-06-18T08:05:19.000Z</time>
        <extensions>
          <ns3:TrackPointExtension>
            <ns3:atemp>23.0</ns3:atemp>
          </ns3:TrackPointExtension>
        </extensions>
      </trkpt>
      <trkpt lat="42.547801472246646881103515625" lon="19.7804879955947399139404296875">
        <ele>1442.199951171875</ele>
        <time>2026-06-18T08:05:20.000Z</time>
        <extensions>
          <ns3:TrackPointExtension>
            <ns3:atemp>23.0</ns3:atemp>
          </ns3:TrackPointExtension>
        </extensions>
      </trkpt>
      <trkpt lat="42.547801472246646881103515625" lon="19.7804879955947399139404296875">
        <ele>1442.199951171875</ele>
        <time>2026-06-18T08:05:21.000Z</time>
        <extensions>
          <ns3:TrackPointExtension>
            <ns3:atemp>23.0</ns3:atemp>
          </ns3:TrackPointExtension>
        </extensions>
      </trkpt>
      <trkpt lat="42.547801472246646881103515625" lon="19.7804879955947399139404296875">
        <ele>1442</ele>
        <time>2026-06-18T08:05:22.000Z</time>
        <extensions>
          <ns3:TrackPointExtension>
            <ns3:atemp>23.0</ns3:atemp>
          </ns3:TrackPointExtension>
        </extensions>
      </trkpt>
      <trkpt lat="42.547801472246646881103515625" lon="19.7804879955947399139404296875">
        <ele>1442</ele>
        <time>2026-06-18T08:05:23.000Z</time>
        <extensions>
          <ns3:TrackPointExtension>
            <ns3:atemp>23.0</ns3:atemp>
          </ns3:TrackPointExtension>
        </extensions>
      </trkpt>
      <trkpt lat="42.547801472246646881103515625" lon="19.7804879955947399139404296875">
        <ele>1442</ele>
        <time>2026-06-18T08:05:24.000Z</time>
        <extensions>
          <ns3:TrackPointExtension>
            <ns3:atemp>23.0</ns3:atemp>
          </ns3:TrackPointExtension>
        </extensions>
      </trkpt>
      <trkpt lat="42.547801472246646881103515625" lon="19.7804879955947399139404296875">
        <ele>1442</ele>
        <time>2026-06-18T08:05:25.000Z</time>
        <extensions>
          <ns3:TrackPointExtension>
            <ns3:atemp>23.0</ns3:atemp>
          </ns3:TrackPointExtension>
        </extensions>
      </trkpt>
      <trkpt lat="42.547801472246646881103515625" lon="19.7804879955947399139404296875">
        <ele>1442</ele>
        <time>2026-06-18T08:05:26.000Z</time>
        <extensions>
          <ns3:TrackPointExtension>
            <ns3:atemp>23.0</ns3:atemp>
          </ns3:TrackPointExtension>
        </extensions>
      </trkpt>
      <trkpt lat="42.547801472246646881103515625" lon="19.7804879955947399139404296875">
        <ele>1442</ele>
        <time>2026-06-18T08:05:27.000Z</time>
        <extensions>
          <ns3:TrackPointExtension>
            <ns3:atemp>23.0</ns3:atemp>
          </ns3:TrackPointExtension>
        </extensions>
      </trkpt>
      <trkpt lat="42.547801472246646881103515625" lon="19.7804879955947399139404296875">
        <ele>1442</ele>
        <time>2026-06-18T08:05:28.000Z</time>
        <extensions>
          <ns3:TrackPointExtension>
            <ns3:atemp>23.0</ns3:atemp>
          </ns3:TrackPointExtension>
        </extensions>
      </trkpt>
      <trkpt lat="42.54780205897986888885498046875" lon="19.780488498508930206298828125">
        <ele>1442.199951171875</ele>
        <time>2026-06-18T08:05:29.000Z</time>
        <extensions>
          <ns3:TrackPointExtension>
            <ns3:atemp>23.0</ns3:atemp>
          </ns3:TrackPointExtension>
        </extensions>
      </trkpt>
      <trkpt lat="42.54780926741659641265869140625" lon="19.78050417266786098480224609375">
        <ele>1442</ele>
        <time>2026-06-18T08:05:30.000Z</time>
        <extensions>
          <ns3:TrackPointExtension>
            <ns3:atemp>23.0</ns3:atemp>
          </ns3:TrackPointExtension>
        </extensions>
      </trkpt>
      <trkpt lat="42.547815553843975067138671875" lon="19.7805201821029186248779296875">
        <ele>1442</ele>
        <time>2026-06-18T08:05:31.000Z</time>
        <extensions>
          <ns3:TrackPointExtension>
            <ns3:atemp>23.0</ns3:atemp>
          </ns3:TrackPointExtension>
        </extensions>
      </trkpt>
      <trkpt lat="42.547821588814258575439453125" lon="19.78053954429924488067626953125">
        <ele>1442</ele>
        <time>2026-06-18T08:05:32.000Z</time>
        <extensions>
          <ns3:TrackPointExtension>
            <ns3:atemp>23.0</ns3:atemp>
          </ns3:TrackPointExtension>
        </extensions>
      </trkpt>
      <trkpt lat="42.54782871343195438385009765625" lon="19.78055865503847599029541015625">
        <ele>1442</ele>
        <time>2026-06-18T08:05:33.000Z</time>
        <extensions>
          <ns3:TrackPointExtension>
            <ns3:atemp>23.0</ns3:atemp>
          </ns3:TrackPointExtension>
        </extensions>
      </trkpt>
      <trkpt lat="42.54783491604030132293701171875" lon="19.78058128617703914642333984375">
        <ele>1441.800048828125</ele>
        <time>2026-06-18T08:05:34.000Z</time>
        <extensions>
          <ns3:TrackPointExtension>
            <ns3:atemp>23.0</ns3:atemp>
          </ns3:TrackPointExtension>
        </extensions>
      </trkpt>
      <trkpt lat="42.54783038981258869171142578125" lon="19.7805869020521640777587890625">
        <ele>1441.800048828125</ele>
        <time>2026-06-18T08:05:35.000Z</time>
        <extensions>
          <ns3:TrackPointExtension>
            <ns3:atemp>24.0</ns3:atemp>
          </ns3:TrackPointExtension>
        </extensions>
      </trkpt>
      <trkpt lat="42.5478324852883815765380859375" lon="19.78058313019573688507080078125">
        <ele>1441.800048828125</ele>
        <time>2026-06-18T08:05:36.000Z</time>
        <extensions>
          <ns3:TrackPointExtension>
            <ns3:atemp>23.0</ns3:atemp>
          </ns3:TrackPointExtension>
        </extensions>
      </trkpt>
      <trkpt lat="42.5478324852883815765380859375" lon="19.7805832140147686004638671875">
        <ele>1441.800048828125</ele>
        <time>2026-06-18T08:05:37.000Z</time>
        <extensions>
          <ns3:TrackPointExtension>
            <ns3:atemp>23.0</ns3:atemp>
          </ns3:TrackPointExtension>
        </extensions>
      </trkpt>
      <trkpt lat="42.5478324852883815765380859375" lon="19.7805832140147686004638671875">
        <ele>1441.800048828125</ele>
        <time>2026-06-18T08:05:38.000Z</time>
        <extensions>
          <ns3:TrackPointExtension>
            <ns3:atemp>23.0</ns3:atemp>
          </ns3:TrackPointExtension>
        </extensions>
      </trkpt>
      <trkpt lat="42.54783256910741329193115234375" lon="19.7805835492908954620361328125">
        <ele>1441.800048828125</ele>
        <time>2026-06-18T08:05:39.000Z</time>
        <extensions>
          <ns3:TrackPointExtension>
            <ns3:atemp>23.0</ns3:atemp>
          </ns3:TrackPointExtension>
        </extensions>
      </trkpt>
      <trkpt lat="42.54783944226801395416259765625" lon="19.78058539330959320068359375">
        <ele>1441.800048828125</ele>
        <time>2026-06-18T08:05:40.000Z</time>
        <extensions>
          <ns3:TrackPointExtension>
            <ns3:atemp>24.0</ns3:atemp>
          </ns3:TrackPointExtension>
        </extensions>
      </trkpt>
      <trkpt lat="42.5478324852883815765380859375" lon="19.7805832140147686004638671875">
        <ele>1441.800048828125</ele>
        <time>2026-06-18T08:05:41.000Z</time>
        <extensions>
          <ns3:TrackPointExtension>
            <ns3:atemp>24.0</ns3:atemp>
          </ns3:TrackPointExtension>
        </extensions>
      </trkpt>
      <trkpt lat="42.5478324852883815765380859375" lon="19.7805832140147686004638671875">
        <ele>1441.800048828125</ele>
        <time>2026-06-18T08:05:42.000Z</time>
        <extensions>
          <ns3:TrackPointExtension>
            <ns3:atemp>24.0</ns3:atemp>
          </ns3:TrackPointExtension>
        </extensions>
      </trkpt>
      <trkpt lat="42.5478324852883815765380859375" lon="19.7805832140147686004638671875">
        <ele>1441.800048828125</ele>
        <time>2026-06-18T08:05:43.000Z</time>
        <extensions>
          <ns3:TrackPointExtension>
            <ns3:atemp>24.0</ns3:atemp>
          </ns3:TrackPointExtension>
        </extensions>
      </trkpt>
      <trkpt lat="42.5478324852883815765380859375" lon="19.7805832140147686004638671875">
        <ele>1441.800048828125</ele>
        <time>2026-06-18T08:05:44.000Z</time>
        <extensions>
          <ns3:TrackPointExtension>
            <ns3:atemp>24.0</ns3:atemp>
          </ns3:TrackPointExtension>
        </extensions>
      </trkpt>
      <trkpt lat="42.54784245975315570831298828125" lon="19.78058271110057830810546875">
        <ele>1441.800048828125</ele>
        <time>2026-06-18T08:05:45.000Z</time>
        <extensions>
          <ns3:TrackPointExtension>
            <ns3:atemp>24.0</ns3:atemp>
          </ns3:TrackPointExtension>
        </extensions>
      </trkpt>
      <trkpt lat="42.5478324852883815765380859375" lon="19.7805832140147686004638671875">
        <ele>1441.800048828125</ele>
        <time>2026-06-18T08:05:46.000Z</time>
        <extensions>
          <ns3:TrackPointExtension>
            <ns3:atemp>24.0</ns3:atemp>
          </ns3:TrackPointExtension>
        </extensions>
      </trkpt>
      <trkpt lat="42.5478324852883815765380859375" lon="19.7805832140147686004638671875">
        <ele>1441.800048828125</ele>
        <time>2026-06-18T08:05:47.000Z</time>
        <extensions>
          <ns3:TrackPointExtension>
            <ns3:atemp>24.0</ns3:atemp>
          </ns3:TrackPointExtension>
        </extensions>
      </trkpt>
      <trkpt lat="42.5478458963334560394287109375" lon="19.78058380074799060821533203125">
        <ele>1441.800048828125</ele>
        <time>2026-06-18T08:05:48.000Z</time>
        <extensions>
          <ns3:TrackPointExtension>
            <ns3:atemp>24.0</ns3:atemp>
          </ns3:TrackPointExtension>
        </extensions>
      </trkpt>
      <trkpt lat="42.5478324852883815765380859375" lon="19.7805832140147686004638671875">
        <ele>1441.800048828125</ele>
        <time>2026-06-18T08:05:49.000Z</time>
        <extensions>
          <ns3:TrackPointExtension>
            <ns3:atemp>24.0</ns3:atemp>
          </ns3:TrackPointExtension>
        </extensions>
      </trkpt>
      <trkpt lat="42.5478324852883815765380859375" lon="19.7805832140147686004638671875">
        <ele>1441.800048828125</ele>
        <time>2026-06-18T08:05:50.000Z</time>
        <extensions>
          <ns3:TrackPointExtension>
            <ns3:atemp>24.0</ns3:atemp>
          </ns3:TrackPointExtension>
        </extensions>
      </trkpt>
      <trkpt lat="42.5478324852883815765380859375" lon="19.7805832140147686004638671875">
        <ele>1441.800048828125</ele>
        <time>2026-06-18T08:05:51.000Z</time>
        <extensions>
          <ns3:TrackPointExtension>
            <ns3:atemp>24.0</ns3:atemp>
          </ns3:TrackPointExtension>
        </extensions>
      </trkpt>
      <trkpt lat="42.5478324852883815765380859375" lon="19.7805832140147686004638671875">
        <ele>1441.800048828125</ele>
        <time>2026-06-18T08:05:52.000Z</time>
        <extensions>
          <ns3:TrackPointExtension>
            <ns3:atemp>24.0</ns3:atemp>
          </ns3:TrackPointExtension>
        </extensions>
      </trkpt>
      <trkpt lat="42.5478324852883815765380859375" lon="19.7805832140147686004638671875">
        <ele>1441.800048828125</ele>
        <time>2026-06-18T08:05:53.000Z</time>
        <extensions>
          <ns3:TrackPointExtension>
            <ns3:atemp>24.0</ns3:atemp>
          </ns3:TrackPointExtension>
        </extensions>
      </trkpt>
      <trkpt lat="42.5478324852883815765380859375" lon="19.7805832140147686004638671875">
        <ele>1441.800048828125</ele>
        <time>2026-06-18T08:05:54.000Z</time>
        <extensions>
          <ns3:TrackPointExtension>
            <ns3:atemp>24.0</ns3:atemp>
          </ns3:TrackPointExtension>
        </extensions>
      </trkpt>
      <trkpt lat="42.5478324852883815765380859375" lon="19.7805832140147686004638671875">
        <ele>1441.800048828125</ele>
        <time>2026-06-18T08:05:55.000Z</time>
        <extensions>
          <ns3:TrackPointExtension>
            <ns3:atemp>24.0</ns3:atemp>
          </ns3:TrackPointExtension>
        </extensions>
      </trkpt>
      <trkpt lat="42.5478324852883815765380859375" lon="19.7805832140147686004638671875">
        <ele>1441.800048828125</ele>
        <time>2026-06-18T08:05:56.000Z</time>
        <extensions>
          <ns3:TrackPointExtension>
            <ns3:atemp>24.0</ns3:atemp>
          </ns3:TrackPointExtension>
        </extensions>
      </trkpt>
      <trkpt lat="42.5478324852883815765380859375" lon="19.7805832140147686004638671875">
        <ele>1441.800048828125</ele>
        <time>2026-06-18T08:05:57.000Z</time>
        <extensions>
          <ns3:TrackPointExtension>
            <ns3:atemp>24.0</ns3:atemp>
          </ns3:TrackPointExtension>
        </extensions>
      </trkpt>
      <trkpt lat="42.5478324852883815765380859375" lon="19.7805832140147686004638671875">
        <ele>1441.800048828125</ele>
        <time>2026-06-18T08:05:58.000Z</time>
        <extensions>
          <ns3:TrackPointExtension>
            <ns3:atemp>24.0</ns3:atemp>
          </ns3:TrackPointExtension>
        </extensions>
      </trkpt>
      <trkpt lat="42.5478324852883815765380859375" lon="19.7805832140147686004638671875">
        <ele>1441.800048828125</ele>
        <time>2026-06-18T08:05:59.000Z</time>
        <extensions>
          <ns3:TrackPointExtension>
            <ns3:atemp>24.0</ns3:atemp>
          </ns3:TrackPointExtension>
        </extensions>
      </trkpt>
      <trkpt lat="42.5478324852883815765380859375" lon="19.7805832140147686004638671875">
        <ele>1441.800048828125</ele>
        <time>2026-06-18T08:06:00.000Z</time>
        <extensions>
          <ns3:TrackPointExtension>
            <ns3:atemp>24.0</ns3:atemp>
          </ns3:TrackPointExtension>
        </extensions>
      </trkpt>
      <trkpt lat="42.5478324852883815765380859375" lon="19.7805832140147686004638671875">
        <ele>1441.800048828125</ele>
        <time>2026-06-18T08:06:01.000Z</time>
        <extensions>
          <ns3:TrackPointExtension>
            <ns3:atemp>24.0</ns3:atemp>
          </ns3:TrackPointExtension>
        </extensions>
      </trkpt>
      <trkpt lat="42.5478324852883815765380859375" lon="19.7805832140147686004638671875">
        <ele>1441.800048828125</ele>
        <time>2026-06-18T08:06:02.000Z</time>
        <extensions>
          <ns3:TrackPointExtension>
            <ns3:atemp>24.0</ns3:atemp>
          </ns3:TrackPointExtension>
        </extensions>
      </trkpt>
      <trkpt lat="42.5478324852883815765380859375" lon="19.7805832140147686004638671875">
        <ele>1441.800048828125</ele>
        <time>2026-06-18T08:06:03.000Z</time>
        <extensions>
          <ns3:TrackPointExtension>
            <ns3:atemp>24.0</ns3:atemp>
          </ns3:TrackPointExtension>
        </extensions>
      </trkpt>
      <trkpt lat="42.5478324852883815765380859375" lon="19.7805832140147686004638671875">
        <ele>1441.800048828125</ele>
        <time>2026-06-18T08:06:04.000Z</time>
        <extensions>
          <ns3:TrackPointExtension>
            <ns3:atemp>24.0</ns3:atemp>
          </ns3:TrackPointExtension>
        </extensions>
      </trkpt>
      <trkpt lat="42.5478324852883815765380859375" lon="19.7805832140147686004638671875">
        <ele>1441.800048828125</ele>
        <time>2026-06-18T08:06:05.000Z</time>
        <extensions>
          <ns3:TrackPointExtension>
            <ns3:atemp>24.0</ns3:atemp>
          </ns3:TrackPointExtension>
        </extensions>
      </trkpt>
      <trkpt lat="42.54784514196217060089111328125" lon="19.78058145381510257720947265625">
        <ele>1441.800048828125</ele>
        <time>2026-06-18T08:06:06.000Z</time>
        <extensions>
          <ns3:TrackPointExtension>
            <ns3:atemp>24.0</ns3:atemp>
          </ns3:TrackPointExtension>
        </extensions>
      </trkpt>
      <trkpt lat="42.54784128628671169281005859375" lon="19.78058061562478542327880859375">
        <ele>1441.800048828125</ele>
        <time>2026-06-18T08:06:07.000Z</time>
        <extensions>
          <ns3:TrackPointExtension>
            <ns3:atemp>24.0</ns3:atemp>
          </ns3:TrackPointExtension>
        </extensions>
      </trkpt>
      <trkpt lat="42.5478304736316204071044921875" lon="19.78057810105383396148681640625">
        <ele>1441.800048828125</ele>
        <time>2026-06-18T08:06:08.000Z</time>
        <extensions>
          <ns3:TrackPointExtension>
            <ns3:atemp>24.0</ns3:atemp>
          </ns3:TrackPointExtension>
        </extensions>
      </trkpt>
      <trkpt lat="42.54782251082360744476318359375" lon="19.78058782406151294708251953125">
        <ele>1441.800048828125</ele>
        <time>2026-06-18T08:06:09.000Z</time>
        <extensions>
          <ns3:TrackPointExtension>
            <ns3:atemp>24.0</ns3:atemp>
          </ns3:TrackPointExtension>
        </extensions>
      </trkpt>
      <trkpt lat="42.5478324852883815765380859375" lon="19.7805832140147686004638671875">
        <ele>1441.800048828125</ele>
        <time>2026-06-18T08:06:10.000Z</time>
        <extensions>
          <ns3:TrackPointExtension>
            <ns3:atemp>24.0</ns3:atemp>
          </ns3:TrackPointExtension>
        </extensions>
      </trkpt>
      <trkpt lat="42.5478324852883815765380859375" lon="19.7805832140147686004638671875">
        <ele>1441.800048828125</ele>
        <time>2026-06-18T08:06:11.000Z</time>
        <extensions>
          <ns3:TrackPointExtension>
            <ns3:atemp>24.0</ns3:atemp>
          </ns3:TrackPointExtension>
        </extensions>
      </trkpt>
      <trkpt lat="42.5478324852883815765380859375" lon="19.7805832140147686004638671875">
        <ele>1441.800048828125</ele>
        <time>2026-06-18T08:06:12.000Z</time>
        <extensions>
          <ns3:TrackPointExtension>
            <ns3:atemp>24.0</ns3:atemp>
          </ns3:TrackPointExtension>
        </extensions>
      </trkpt>
      <trkpt lat="42.5478324852883815765380859375" lon="19.7805832140147686004638671875">
        <ele>1441.800048828125</ele>
        <time>2026-06-18T08:06:13.000Z</time>
        <extensions>
          <ns3:TrackPointExtension>
            <ns3:atemp>24.0</ns3:atemp>
          </ns3:TrackPointExtension>
        </extensions>
      </trkpt>
      <trkpt lat="42.5478324852883815765380859375" lon="19.7805832140147686004638671875">
        <ele>1441.800048828125</ele>
        <time>2026-06-18T08:06:14.000Z</time>
        <extensions>
          <ns3:TrackPointExtension>
            <ns3:atemp>24.0</ns3:atemp>
          </ns3:TrackPointExtension>
        </extensions>
      </trkpt>
      <trkpt lat="42.5478324852883815765380859375" lon="19.7805832140147686004638671875">
        <ele>1441.5999755859375</ele>
        <time>2026-06-18T08:06:15.000Z</time>
        <extensions>
          <ns3:TrackPointExtension>
            <ns3:atemp>24.0</ns3:atemp>
          </ns3:TrackPointExtension>
        </extensions>
      </trkpt>
      <trkpt lat="42.5478324852883815765380859375" lon="19.7805832140147686004638671875">
        <ele>1441.4000244140625</ele>
        <time>2026-06-18T08:06:16.000Z</time>
        <extensions>
          <ns3:TrackPointExtension>
            <ns3:atemp>24.0</ns3:atemp>
          </ns3:TrackPointExtension>
        </extensions>
      </trkpt>
      <trkpt lat="42.5478324852883815765380859375" lon="19.7805832140147686004638671875">
        <ele>1441.199951171875</ele>
        <time>2026-06-18T08:06:17.000Z</time>
        <extensions>
          <ns3:TrackPointExtension>
            <ns3:atemp>24.0</ns3:atemp>
          </ns3:TrackPointExtension>
        </extensions>
      </trkpt>
      <trkpt lat="42.5478324852883815765380859375" lon="19.7805832140147686004638671875">
        <ele>1441.199951171875</ele>
        <time>2026-06-18T08:06:18.000Z</time>
        <extensions>
          <ns3:TrackPointExtension>
            <ns3:atemp>24.0</ns3:atemp>
          </ns3:TrackPointExtension>
        </extensions>
      </trkpt>
      <trkpt lat="42.5478324852883815765380859375" lon="19.7805832140147686004638671875">
        <ele>1441</ele>
        <time>2026-06-18T08:06:19.000Z</time>
        <extensions>
          <ns3:TrackPointExtension>
            <ns3:atemp>24.0</ns3:atemp>
          </ns3:TrackPointExtension>
        </extensions>
      </trkpt>
      <trkpt lat="42.5478324852883815765380859375" lon="19.7805832140147686004638671875">
        <ele>1441</ele>
        <time>2026-06-18T08:06:20.000Z</time>
        <extensions>
          <ns3:TrackPointExtension>
            <ns3:atemp>24.0</ns3:atemp>
          </ns3:TrackPointExtension>
        </extensions>
      </trkpt>
      <trkpt lat="42.5478324852883815765380859375" lon="19.7805832140147686004638671875">
        <ele>1441</ele>
        <time>2026-06-18T08:06:21.000Z</time>
        <extensions>
          <ns3:TrackPointExtension>
            <ns3:atemp>24.0</ns3:atemp>
          </ns3:TrackPointExtension>
        </extensions>
      </trkpt>
      <trkpt lat="42.5478324852883815765380859375" lon="19.7805832140147686004638671875">
        <ele>1440.800048828125</ele>
        <time>2026-06-18T08:06:22.000Z</time>
        <extensions>
          <ns3:TrackPointExtension>
            <ns3:atemp>24.0</ns3:atemp>
          </ns3:TrackPointExtension>
        </extensions>
      </trkpt>
      <trkpt lat="42.5478324852883815765380859375" lon="19.7805832140147686004638671875">
        <ele>1440.800048828125</ele>
        <time>2026-06-18T08:06:23.000Z</time>
        <extensions>
          <ns3:TrackPointExtension>
            <ns3:atemp>24.0</ns3:atemp>
          </ns3:TrackPointExtension>
        </extensions>
      </trkpt>
      <trkpt lat="42.5478324852883815765380859375" lon="19.7805832140147686004638671875">
        <ele>1440.800048828125</ele>
        <time>2026-06-18T08:06:24.000Z</time>
        <extensions>
          <ns3:TrackPointExtension>
            <ns3:atemp>24.0</ns3:atemp>
          </ns3:TrackPointExtension>
        </extensions>
      </trkpt>
      <trkpt lat="42.5478324852883815765380859375" lon="19.7805832140147686004638671875">
        <ele>1440.5999755859375</ele>
        <time>2026-06-18T08:06:25.000Z</time>
        <extensions>
          <ns3:TrackPointExtension>
            <ns3:atemp>24.0</ns3:atemp>
          </ns3:TrackPointExtension>
        </extensions>
      </trkpt>
      <trkpt lat="42.5478324852883815765380859375" lon="19.7805832140147686004638671875">
        <ele>1440.5999755859375</ele>
        <time>2026-06-18T08:06:26.000Z</time>
        <extensions>
          <ns3:TrackPointExtension>
            <ns3:atemp>24.0</ns3:atemp>
          </ns3:TrackPointExtension>
        </extensions>
      </trkpt>
      <trkpt lat="42.5478324852883815765380859375" lon="19.7805832140147686004638671875">
        <ele>1440.5999755859375</ele>
        <time>2026-06-18T08:06:27.000Z</time>
        <extensions>
          <ns3:TrackPointExtension>
            <ns3:atemp>24.0</ns3:atemp>
          </ns3:TrackPointExtension>
        </extensions>
      </trkpt>
      <trkpt lat="42.5478324852883815765380859375" lon="19.7805832140147686004638671875">
        <ele>1440.5999755859375</ele>
        <time>2026-06-18T08:06:28.000Z</time>
        <extensions>
          <ns3:TrackPointExtension>
            <ns3:atemp>24.0</ns3:atemp>
          </ns3:TrackPointExtension>
        </extensions>
      </trkpt>
      <trkpt lat="42.5478324852883815765380859375" lon="19.7805832140147686004638671875">
        <ele>1440.5999755859375</ele>
        <time>2026-06-18T08:06:29.000Z</time>
        <extensions>
          <ns3:TrackPointExtension>
            <ns3:atemp>24.0</ns3:atemp>
          </ns3:TrackPointExtension>
        </extensions>
      </trkpt>
      <trkpt lat="42.5478324852883815765380859375" lon="19.7805832140147686004638671875">
        <ele>1440.4000244140625</ele>
        <time>2026-06-18T08:06:30.000Z</time>
        <extensions>
          <ns3:TrackPointExtension>
            <ns3:atemp>24.0</ns3:atemp>
          </ns3:TrackPointExtension>
        </extensions>
      </trkpt>
      <trkpt lat="42.5478324852883815765380859375" lon="19.7805832140147686004638671875">
        <ele>1440.4000244140625</ele>
        <time>2026-06-18T08:06:31.000Z</time>
        <extensions>
          <ns3:TrackPointExtension>
            <ns3:atemp>24.0</ns3:atemp>
          </ns3:TrackPointExtension>
        </extensions>
      </trkpt>
      <trkpt lat="42.5478324852883815765380859375" lon="19.7805832140147686004638671875">
        <ele>1440.4000244140625</ele>
        <time>2026-06-18T08:06:32.000Z</time>
        <extensions>
          <ns3:TrackPointExtension>
            <ns3:atemp>24.0</ns3:atemp>
          </ns3:TrackPointExtension>
        </extensions>
      </trkpt>
      <trkpt lat="42.5478324852883815765380859375" lon="19.7805832140147686004638671875">
        <ele>1440.4000244140625</ele>
        <time>2026-06-18T08:06:33.000Z</time>
        <extensions>
          <ns3:TrackPointExtension>
            <ns3:atemp>24.0</ns3:atemp>
          </ns3:TrackPointExtension>
        </extensions>
      </trkpt>
      <trkpt lat="42.5478324852883815765380859375" lon="19.7805832140147686004638671875">
        <ele>1440.4000244140625</ele>
        <time>2026-06-18T08:06:34.000Z</time>
        <extensions>
          <ns3:TrackPointExtension>
            <ns3:atemp>24.0</ns3:atemp>
          </ns3:TrackPointExtension>
        </extensions>
      </trkpt>
      <trkpt lat="42.5478324852883815765380859375" lon="19.7805832140147686004638671875">
        <ele>1440.4000244140625</ele>
        <time>2026-06-18T08:06:35.000Z</time>
        <extensions>
          <ns3:TrackPointExtension>
            <ns3:atemp>24.0</ns3:atemp>
          </ns3:TrackPointExtension>
        </extensions>
      </trkpt>
      <trkpt lat="42.5478324852883815765380859375" lon="19.7805832140147686004638671875">
        <ele>1440.4000244140625</ele>
        <time>2026-06-18T08:06:36.000Z</time>
        <extensions>
          <ns3:TrackPointExtension>
            <ns3:atemp>24.0</ns3:atemp>
          </ns3:TrackPointExtension>
        </extensions>
      </trkpt>
      <trkpt lat="42.5478324852883815765380859375" lon="19.7805832140147686004638671875">
        <ele>1440.4000244140625</ele>
        <time>2026-06-18T08:06:37.000Z</time>
        <extensions>
          <ns3:TrackPointExtension>
            <ns3:atemp>24.0</ns3:atemp>
          </ns3:TrackPointExtension>
        </extensions>
      </trkpt>
      <trkpt lat="42.5478324852883815765380859375" lon="19.7805832140147686004638671875">
        <ele>1440.4000244140625</ele>
        <time>2026-06-18T08:06:38.000Z</time>
        <extensions>
          <ns3:TrackPointExtension>
            <ns3:atemp>24.0</ns3:atemp>
          </ns3:TrackPointExtension>
        </extensions>
      </trkpt>
      <trkpt lat="42.5478324852883815765380859375" lon="19.7805832140147686004638671875">
        <ele>1440.4000244140625</ele>
        <time>2026-06-18T08:06:39.000Z</time>
        <extensions>
          <ns3:TrackPointExtension>
            <ns3:atemp>24.0</ns3:atemp>
          </ns3:TrackPointExtension>
        </extensions>
      </trkpt>
      <trkpt lat="42.5478324852883815765380859375" lon="19.7805832140147686004638671875">
        <ele>1440.4000244140625</ele>
        <time>2026-06-18T08:06:40.000Z</time>
        <extensions>
          <ns3:TrackPointExtension>
            <ns3:atemp>24.0</ns3:atemp>
          </ns3:TrackPointExtension>
        </extensions>
      </trkpt>
      <trkpt lat="42.5478324852883815765380859375" lon="19.7805832140147686004638671875">
        <ele>1440.4000244140625</ele>
        <time>2026-06-18T08:06:41.000Z</time>
        <extensions>
          <ns3:TrackPointExtension>
            <ns3:atemp>24.0</ns3:atemp>
          </ns3:TrackPointExtension>
        </extensions>
      </trkpt>
      <trkpt lat="42.5478324852883815765380859375" lon="19.7805832140147686004638671875">
        <ele>1440.4000244140625</ele>
        <time>2026-06-18T08:06:42.000Z</time>
        <extensions>
          <ns3:TrackPointExtension>
            <ns3:atemp>24.0</ns3:atemp>
          </ns3:TrackPointExtension>
        </extensions>
      </trkpt>
      <trkpt lat="42.5478324852883815765380859375" lon="19.7805832140147686004638671875">
        <ele>1440.4000244140625</ele>
        <time>2026-06-18T08:06:43.000Z</time>
        <extensions>
          <ns3:TrackPointExtension>
            <ns3:atemp>24.0</ns3:atemp>
          </ns3:TrackPointExtension>
        </extensions>
      </trkpt>
      <trkpt lat="42.5478324852883815765380859375" lon="19.7805832140147686004638671875">
        <ele>1440.4000244140625</ele>
        <time>2026-06-18T08:06:44.000Z</time>
        <extensions>
          <ns3:TrackPointExtension>
            <ns3:atemp>24.0</ns3:atemp>
          </ns3:TrackPointExtension>
        </extensions>
      </trkpt>
      <trkpt lat="42.5478324852883815765380859375" lon="19.7805832140147686004638671875">
        <ele>1440.5999755859375</ele>
        <time>2026-06-18T08:06:45.000Z</time>
        <extensions>
          <ns3:TrackPointExtension>
            <ns3:atemp>24.0</ns3:atemp>
          </ns3:TrackPointExtension>
        </extensions>
      </trkpt>
      <trkpt lat="42.5478324852883815765380859375" lon="19.7805832140147686004638671875">
        <ele>1440.5999755859375</ele>
        <time>2026-06-18T08:06:46.000Z</time>
        <extensions>
          <ns3:TrackPointExtension>
            <ns3:atemp>24.0</ns3:atemp>
          </ns3:TrackPointExtension>
        </extensions>
      </trkpt>
      <trkpt lat="42.5478324852883815765380859375" lon="19.7805832140147686004638671875">
        <ele>1440.5999755859375</ele>
        <time>2026-06-18T08:06:47.000Z</time>
        <extensions>
          <ns3:TrackPointExtension>
            <ns3:atemp>24.0</ns3:atemp>
          </ns3:TrackPointExtension>
        </extensions>
      </trkpt>
      <trkpt lat="42.5478324852883815765380859375" lon="19.7805832140147686004638671875">
        <ele>1440.5999755859375</ele>
        <time>2026-06-18T08:06:48.000Z</time>
        <extensions>
          <ns3:TrackPointExtension>
            <ns3:atemp>24.0</ns3:atemp>
          </ns3:TrackPointExtension>
        </extensions>
      </trkpt>
      <trkpt lat="42.5478324852883815765380859375" lon="19.7805832140147686004638671875">
        <ele>1440.5999755859375</ele>
        <time>2026-06-18T08:06:49.000Z</time>
        <extensions>
          <ns3:TrackPointExtension>
            <ns3:atemp>24.0</ns3:atemp>
          </ns3:TrackPointExtension>
        </extensions>
      </trkpt>
      <trkpt lat="42.5478324852883815765380859375" lon="19.7805832140147686004638671875">
        <ele>1440.4000244140625</ele>
        <time>2026-06-18T08:06:50.000Z</time>
        <extensions>
          <ns3:TrackPointExtension>
            <ns3:atemp>24.0</ns3:atemp>
          </ns3:TrackPointExtension>
        </extensions>
      </trkpt>
      <trkpt lat="42.54782703705132007598876953125" lon="19.78058673441410064697265625">
        <ele>1440.4000244140625</ele>
        <time>2026-06-18T08:06:51.000Z</time>
        <extensions>
          <ns3:TrackPointExtension>
            <ns3:atemp>24.0</ns3:atemp>
          </ns3:TrackPointExtension>
        </extensions>
      </trkpt>
      <trkpt lat="42.5478308089077472686767578125" lon="19.78056871332228183746337890625">
        <ele>1440.4000244140625</ele>
        <time>2026-06-18T08:06:52.000Z</time>
        <extensions>
          <ns3:TrackPointExtension>
            <ns3:atemp>24.0</ns3:atemp>
          </ns3:TrackPointExtension>
        </extensions>
      </trkpt>
      <trkpt lat="42.54782737232744693756103515625" lon="19.78056418709456920623779296875">
        <ele>1440.4000244140625</ele>
        <time>2026-06-18T08:06:53.000Z</time>
        <extensions>
          <ns3:TrackPointExtension>
            <ns3:atemp>24.0</ns3:atemp>
          </ns3:TrackPointExtension>
        </extensions>
      </trkpt>
      <trkpt lat="42.54782469011843204498291015625" lon="19.78055731393396854400634765625">
        <ele>1440.5999755859375</ele>
        <time>2026-06-18T08:06:54.000Z</time>
        <extensions>
          <ns3:TrackPointExtension>
            <ns3:atemp>24.0</ns3:atemp>
          </ns3:TrackPointExtension>
        </extensions>
      </trkpt>
      <trkpt lat="42.54782519303262233734130859375" lon="19.780552200973033905029296875">
        <ele>1440.800048828125</ele>
        <time>2026-06-18T08:06:55.000Z</time>
        <extensions>
          <ns3:TrackPointExtension>
            <ns3:atemp>24.0</ns3:atemp>
          </ns3:TrackPointExtension>
        </extensions>
      </trkpt>
      <trkpt lat="42.5478261150419712066650390625" lon="19.7805466689169406890869140625">
        <ele>1441</ele>
        <time>2026-06-18T08:06:56.000Z</time>
        <extensions>
          <ns3:TrackPointExtension>
            <ns3:atemp>24.0</ns3:atemp>
          </ns3:TrackPointExtension>
        </extensions>
      </trkpt>
      <trkpt lat="42.54782594740390777587890625" lon="19.78054557926952838897705078125">
        <ele>1441.199951171875</ele>
        <time>2026-06-18T08:06:57.000Z</time>
        <extensions>
          <ns3:TrackPointExtension>
            <ns3:atemp>24.0</ns3:atemp>
          </ns3:TrackPointExtension>
        </extensions>
      </trkpt>
      <trkpt lat="42.54782594740390777587890625" lon="19.78054557926952838897705078125">
        <ele>1441.199951171875</ele>
        <time>2026-06-18T08:06:58.000Z</time>
        <extensions>
          <ns3:TrackPointExtension>
            <ns3:atemp>24.0</ns3:atemp>
          </ns3:TrackPointExtension>
        </extensions>
      </trkpt>
      <trkpt lat="42.54782594740390777587890625" lon="19.78054557926952838897705078125">
        <ele>1441.199951171875</ele>
        <time>2026-06-18T08:06:59.000Z</time>
        <extensions>
          <ns3:TrackPointExtension>
            <ns3:atemp>24.0</ns3:atemp>
          </ns3:TrackPointExtension>
        </extensions>
      </trkpt>
      <trkpt lat="42.54782594740390777587890625" lon="19.78054557926952838897705078125">
        <ele>1441.4000244140625</ele>
        <time>2026-06-18T08:07:00.000Z</time>
        <extensions>
          <ns3:TrackPointExtension>
            <ns3:atemp>24.0</ns3:atemp>
          </ns3:TrackPointExtension>
        </extensions>
      </trkpt>
      <trkpt lat="42.54782594740390777587890625" lon="19.78054557926952838897705078125">
        <ele>1441.4000244140625</ele>
        <time>2026-06-18T08:07:01.000Z</time>
        <extensions>
          <ns3:TrackPointExtension>
            <ns3:atemp>24.0</ns3:atemp>
          </ns3:TrackPointExtension>
        </extensions>
      </trkpt>
      <trkpt lat="42.54782594740390777587890625" lon="19.78054557926952838897705078125">
        <ele>1441.5999755859375</ele>
        <time>2026-06-18T08:07:02.000Z</time>
        <extensions>
          <ns3:TrackPointExtension>
            <ns3:atemp>24.0</ns3:atemp>
          </ns3:TrackPointExtension>
        </extensions>
      </trkpt>
      <trkpt lat="42.54782594740390777587890625" lon="19.78054557926952838897705078125">
        <ele>1441.800048828125</ele>
        <time>2026-06-18T08:07:03.000Z</time>
        <extensions>
          <ns3:TrackPointExtension>
            <ns3:atemp>24.0</ns3:atemp>
          </ns3:TrackPointExtension>
        </extensions>
      </trkpt>
      <trkpt lat="42.54782594740390777587890625" lon="19.78054557926952838897705078125">
        <ele>1442</ele>
        <time>2026-06-18T08:07:04.000Z</time>
        <extensions>
          <ns3:TrackPointExtension>
            <ns3:atemp>24.0</ns3:atemp>
          </ns3:TrackPointExtension>
        </extensions>
      </trkpt>
      <trkpt lat="42.54782594740390777587890625" lon="19.78054557926952838897705078125">
        <ele>1442.199951171875</ele>
        <time>2026-06-18T08:07:05.000Z</time>
        <extensions>
          <ns3:TrackPointExtension>
            <ns3:atemp>24.0</ns3:atemp>
          </ns3:TrackPointExtension>
        </extensions>
      </trkpt>
      <trkpt lat="42.54782594740390777587890625" lon="19.78054557926952838897705078125">
        <ele>1442.4000244140625</ele>
        <time>2026-06-18T08:07:06.000Z</time>
        <extensions>
          <ns3:TrackPointExtension>
            <ns3:atemp>24.0</ns3:atemp>
          </ns3:TrackPointExtension>
        </extensions>
      </trkpt>
      <trkpt lat="42.54782594740390777587890625" lon="19.78054557926952838897705078125">
        <ele>1442.4000244140625</ele>
        <time>2026-06-18T08:07:07.000Z</time>
        <extensions>
          <ns3:TrackPointExtension>
            <ns3:atemp>24.0</ns3:atemp>
          </ns3:TrackPointExtension>
        </extensions>
      </trkpt>
      <trkpt lat="42.54782594740390777587890625" lon="19.78054557926952838897705078125">
        <ele>1442.4000244140625</ele>
        <time>2026-06-18T08:07:08.000Z</time>
        <extensions>
          <ns3:TrackPointExtension>
            <ns3:atemp>24.0</ns3:atemp>
          </ns3:TrackPointExtension>
        </extensions>
      </trkpt>
      <trkpt lat="42.54782594740390777587890625" lon="19.78054557926952838897705078125">
        <ele>1442.4000244140625</ele>
        <time>2026-06-18T08:07:09.000Z</time>
        <extensions>
          <ns3:TrackPointExtension>
            <ns3:atemp>24.0</ns3:atemp>
          </ns3:TrackPointExtension>
        </extensions>
      </trkpt>
      <trkpt lat="42.54782594740390777587890625" lon="19.78054557926952838897705078125">
        <ele>1442.4000244140625</ele>
        <time>2026-06-18T08:07:10.000Z</time>
        <extensions>
          <ns3:TrackPointExtension>
            <ns3:atemp>24.0</ns3:atemp>
          </ns3:TrackPointExtension>
        </extensions>
      </trkpt>
      <trkpt lat="42.54782594740390777587890625" lon="19.78054557926952838897705078125">
        <ele>1442.4000244140625</ele>
        <time>2026-06-18T08:07:11.000Z</time>
        <extensions>
          <ns3:TrackPointExtension>
            <ns3:atemp>24.0</ns3:atemp>
          </ns3:TrackPointExtension>
        </extensions>
      </trkpt>
      <trkpt lat="42.54782594740390777587890625" lon="19.78054557926952838897705078125">
        <ele>1442.4000244140625</ele>
        <time>2026-06-18T08:07:12.000Z</time>
        <extensions>
          <ns3:TrackPointExtension>
            <ns3:atemp>24.0</ns3:atemp>
          </ns3:TrackPointExtension>
        </extensions>
      </trkpt>
      <trkpt lat="42.54782594740390777587890625" lon="19.78054557926952838897705078125">
        <ele>1442.4000244140625</ele>
        <time>2026-06-18T08:07:13.000Z</time>
        <extensions>
          <ns3:TrackPointExtension>
            <ns3:atemp>24.0</ns3:atemp>
          </ns3:TrackPointExtension>
        </extensions>
      </trkpt>
      <trkpt lat="42.54782368429005146026611328125" lon="19.78054742328822612762451171875">
        <ele>1442.4000244140625</ele>
        <time>2026-06-18T08:07:14.000Z</time>
        <extensions>
          <ns3:TrackPointExtension>
            <ns3:atemp>24.0</ns3:atemp>
          </ns3:TrackPointExtension>
        </extensions>
      </trkpt>
      <trkpt lat="42.54782594740390777587890625" lon="19.78054557926952838897705078125">
        <ele>1442.4000244140625</ele>
        <time>2026-06-18T08:07:15.000Z</time>
        <extensions>
          <ns3:TrackPointExtension>
            <ns3:atemp>24.0</ns3:atemp>
          </ns3:TrackPointExtension>
        </extensions>
      </trkpt>
      <trkpt lat="42.54782594740390777587890625" lon="19.78054557926952838897705078125">
        <ele>1442.4000244140625</ele>
        <time>2026-06-18T08:07:16.000Z</time>
        <extensions>
          <ns3:TrackPointExtension>
            <ns3:atemp>24.0</ns3:atemp>
          </ns3:TrackPointExtension>
        </extensions>
      </trkpt>
      <trkpt lat="42.54782594740390777587890625" lon="19.78054557926952838897705078125">
        <ele>1442.199951171875</ele>
        <time>2026-06-18T08:07:17.000Z</time>
        <extensions>
          <ns3:TrackPointExtension>
            <ns3:atemp>24.0</ns3:atemp>
          </ns3:TrackPointExtension>
        </extensions>
      </trkpt>
      <trkpt lat="42.54782594740390777587890625" lon="19.78054557926952838897705078125">
        <ele>1442</ele>
        <time>2026-06-18T08:07:18.000Z</time>
        <extensions>
          <ns3:TrackPointExtension>
            <ns3:atemp>24.0</ns3:atemp>
          </ns3:TrackPointExtension>
        </extensions>
      </trkpt>
      <trkpt lat="42.54782594740390777587890625" lon="19.78054557926952838897705078125">
        <ele>1442</ele>
        <time>2026-06-18T08:07:19.000Z</time>
        <extensions>
          <ns3:TrackPointExtension>
            <ns3:atemp>24.0</ns3:atemp>
          </ns3:TrackPointExtension>
        </extensions>
      </trkpt>
      <trkpt lat="42.54782594740390777587890625" lon="19.78054557926952838897705078125">
        <ele>1441.800048828125</ele>
        <time>2026-06-18T08:07:20.000Z</time>
        <extensions>
          <ns3:TrackPointExtension>
            <ns3:atemp>24.0</ns3:atemp>
          </ns3:TrackPointExtension>
        </extensions>
      </trkpt>
      <trkpt lat="42.54782594740390777587890625" lon="19.78054557926952838897705078125">
        <ele>1441.800048828125</ele>
        <time>2026-06-18T08:07:21.000Z</time>
        <extensions>
          <ns3:TrackPointExtension>
            <ns3:atemp>24.0</ns3:atemp>
          </ns3:TrackPointExtension>
        </extensions>
      </trkpt>
      <trkpt lat="42.54782594740390777587890625" lon="19.78054557926952838897705078125">
        <ele>1441.5999755859375</ele>
        <time>2026-06-18T08:07:22.000Z</time>
        <extensions>
          <ns3:TrackPointExtension>
            <ns3:atemp>24.0</ns3:atemp>
          </ns3:TrackPointExtension>
        </extensions>
      </trkpt>
      <trkpt lat="42.54782594740390777587890625" lon="19.78054557926952838897705078125">
        <ele>1441.5999755859375</ele>
        <time>2026-06-18T08:07:23.000Z</time>
        <extensions>
          <ns3:TrackPointExtension>
            <ns3:atemp>24.0</ns3:atemp>
          </ns3:TrackPointExtension>
        </extensions>
      </trkpt>
      <trkpt lat="42.54782594740390777587890625" lon="19.78054557926952838897705078125">
        <ele>1441.4000244140625</ele>
        <time>2026-06-18T08:07:24.000Z</time>
        <extensions>
          <ns3:TrackPointExtension>
            <ns3:atemp>24.0</ns3:atemp>
          </ns3:TrackPointExtension>
        </extensions>
      </trkpt>
      <trkpt lat="42.54782594740390777587890625" lon="19.78054557926952838897705078125">
        <ele>1441.4000244140625</ele>
        <time>2026-06-18T08:07:25.000Z</time>
        <extensions>
          <ns3:TrackPointExtension>
            <ns3:atemp>24.0</ns3:atemp>
          </ns3:TrackPointExtension>
        </extensions>
      </trkpt>
      <trkpt lat="42.54782594740390777587890625" lon="19.78054557926952838897705078125">
        <ele>1441.4000244140625</ele>
        <time>2026-06-18T08:07:26.000Z</time>
        <extensions>
          <ns3:TrackPointExtension>
            <ns3:atemp>24.0</ns3:atemp>
          </ns3:TrackPointExtension>
        </extensions>
      </trkpt>
      <trkpt lat="42.54782594740390777587890625" lon="19.78054557926952838897705078125">
        <ele>1441.5999755859375</ele>
        <time>2026-06-18T08:07:27.000Z</time>
        <extensions>
          <ns3:TrackPointExtension>
            <ns3:atemp>24.0</ns3:atemp>
          </ns3:TrackPointExtension>
        </extensions>
      </trkpt>
      <trkpt lat="42.54782594740390777587890625" lon="19.78054557926952838897705078125">
        <ele>1441.5999755859375</ele>
        <time>2026-06-18T08:07:28.000Z</time>
        <extensions>
          <ns3:TrackPointExtension>
            <ns3:atemp>24.0</ns3:atemp>
          </ns3:TrackPointExtension>
        </extensions>
      </trkpt>
      <trkpt lat="42.54782594740390777587890625" lon="19.78054557926952838897705078125">
        <ele>1441.5999755859375</ele>
        <time>2026-06-18T08:07:29.000Z</time>
        <extensions>
          <ns3:TrackPointExtension>
            <ns3:atemp>24.0</ns3:atemp>
          </ns3:TrackPointExtension>
        </extensions>
      </trkpt>
      <trkpt lat="42.54782594740390777587890625" lon="19.78054557926952838897705078125">
        <ele>1441.5999755859375</ele>
        <time>2026-06-18T08:07:30.000Z</time>
        <extensions>
          <ns3:TrackPointExtension>
            <ns3:atemp>24.0</ns3:atemp>
          </ns3:TrackPointExtension>
        </extensions>
      </trkpt>
      <trkpt lat="42.54782594740390777587890625" lon="19.78054557926952838897705078125">
        <ele>1441.5999755859375</ele>
        <time>2026-06-18T08:07:31.000Z</time>
        <extensions>
          <ns3:TrackPointExtension>
            <ns3:atemp>24.0</ns3:atemp>
          </ns3:TrackPointExtension>
        </extensions>
      </trkpt>
      <trkpt lat="42.54782594740390777587890625" lon="19.78054557926952838897705078125">
        <ele>1441.5999755859375</ele>
        <time>2026-06-18T08:07:32.000Z</time>
        <extensions>
          <ns3:TrackPointExtension>
            <ns3:atemp>24.0</ns3:atemp>
          </ns3:TrackPointExtension>
        </extensions>
      </trkpt>
      <trkpt lat="42.54782594740390777587890625" lon="19.78054557926952838897705078125">
        <ele>1441.4000244140625</ele>
        <time>2026-06-18T08:07:33.000Z</time>
        <extensions>
          <ns3:TrackPointExtension>
            <ns3:atemp>24.0</ns3:atemp>
          </ns3:TrackPointExtension>
        </extensions>
      </trkpt>
      <trkpt lat="42.54782594740390777587890625" lon="19.78054557926952838897705078125">
        <ele>1441.4000244140625</ele>
        <time>2026-06-18T08:07:34.000Z</time>
        <extensions>
          <ns3:TrackPointExtension>
            <ns3:atemp>24.0</ns3:atemp>
          </ns3:TrackPointExtension>
        </extensions>
      </trkpt>
      <trkpt lat="42.54782594740390777587890625" lon="19.78054557926952838897705078125">
        <ele>1441.4000244140625</ele>
        <time>2026-06-18T08:07:35.000Z</time>
        <extensions>
          <ns3:TrackPointExtension>
            <ns3:atemp>24.0</ns3:atemp>
          </ns3:TrackPointExtension>
        </extensions>
      </trkpt>
      <trkpt lat="42.54782594740390777587890625" lon="19.78054557926952838897705078125">
        <ele>1441.199951171875</ele>
        <time>2026-06-18T08:07:36.000Z</time>
        <extensions>
          <ns3:TrackPointExtension>
            <ns3:atemp>24.0</ns3:atemp>
          </ns3:TrackPointExtension>
        </extensions>
      </trkpt>
      <trkpt lat="42.54782594740390777587890625" lon="19.78054557926952838897705078125">
        <ele>1441.199951171875</ele>
        <time>2026-06-18T08:07:37.000Z</time>
        <extensions>
          <ns3:TrackPointExtension>
            <ns3:atemp>24.0</ns3:atemp>
          </ns3:TrackPointExtension>
        </extensions>
      </trkpt>
      <trkpt lat="42.54782594740390777587890625" lon="19.78054557926952838897705078125">
        <ele>1441.4000244140625</ele>
        <time>2026-06-18T08:07:38.000Z</time>
        <extensions>
          <ns3:TrackPointExtension>
            <ns3:atemp>24.0</ns3:atemp>
          </ns3:TrackPointExtension>
        </extensions>
      </trkpt>
      <trkpt lat="42.54782594740390777587890625" lon="19.78054557926952838897705078125">
        <ele>1441.4000244140625</ele>
        <time>2026-06-18T08:07:39.000Z</time>
        <extensions>
          <ns3:TrackPointExtension>
            <ns3:atemp>24.0</ns3:atemp>
          </ns3:TrackPointExtension>
        </extensions>
      </trkpt>
      <trkpt lat="42.54782594740390777587890625" lon="19.78054557926952838897705078125">
        <ele>1441.5999755859375</ele>
        <time>2026-06-18T08:07:40.000Z</time>
        <extensions>
          <ns3:TrackPointExtension>
            <ns3:atemp>24.0</ns3:atemp>
          </ns3:TrackPointExtension>
        </extensions>
      </trkpt>
      <trkpt lat="42.54782594740390777587890625" lon="19.78054557926952838897705078125">
        <ele>1441.800048828125</ele>
        <time>2026-06-18T08:07:41.000Z</time>
        <extensions>
          <ns3:TrackPointExtension>
            <ns3:atemp>24.0</ns3:atemp>
          </ns3:TrackPointExtension>
        </extensions>
      </trkpt>
      <trkpt lat="42.54782594740390777587890625" lon="19.78054557926952838897705078125">
        <ele>1442</ele>
        <time>2026-06-18T08:07:42.000Z</time>
        <extensions>
          <ns3:TrackPointExtension>
            <ns3:atemp>24.0</ns3:atemp>
          </ns3:TrackPointExtension>
        </extensions>
      </trkpt>
      <trkpt lat="42.54782594740390777587890625" lon="19.78054557926952838897705078125">
        <ele>1442</ele>
        <time>2026-06-18T08:07:43.000Z</time>
        <extensions>
          <ns3:TrackPointExtension>
            <ns3:atemp>24.0</ns3:atemp>
          </ns3:TrackPointExtension>
        </extensions>
      </trkpt>
      <trkpt lat="42.54782594740390777587890625" lon="19.78054557926952838897705078125">
        <ele>1442.199951171875</ele>
        <time>2026-06-18T08:07:44.000Z</time>
        <extensions>
          <ns3:TrackPointExtension>
            <ns3:atemp>24.0</ns3:atemp>
          </ns3:TrackPointExtension>
        </extensions>
      </trkpt>
      <trkpt lat="42.54782594740390777587890625" lon="19.78054557926952838897705078125">
        <ele>1442.199951171875</ele>
        <time>2026-06-18T08:07:45.000Z</time>
        <extensions>
          <ns3:TrackPointExtension>
            <ns3:atemp>24.0</ns3:atemp>
          </ns3:TrackPointExtension>
        </extensions>
      </trkpt>
      <trkpt lat="42.54782594740390777587890625" lon="19.78054557926952838897705078125">
        <ele>1442.4000244140625</ele>
        <time>2026-06-18T08:07:46.000Z</time>
        <extensions>
          <ns3:TrackPointExtension>
            <ns3:atemp>24.0</ns3:atemp>
          </ns3:TrackPointExtension>
        </extensions>
      </trkpt>
      <trkpt lat="42.54782594740390777587890625" lon="19.78054557926952838897705078125">
        <ele>1442.4000244140625</ele>
        <time>2026-06-18T08:07:47.000Z</time>
        <extensions>
          <ns3:TrackPointExtension>
            <ns3:atemp>24.0</ns3:atemp>
          </ns3:TrackPointExtension>
        </extensions>
      </trkpt>
      <trkpt lat="42.54782594740390777587890625" lon="19.78054557926952838897705078125">
        <ele>1442.4000244140625</ele>
        <time>2026-06-18T08:07:48.000Z</time>
        <extensions>
          <ns3:TrackPointExtension>
            <ns3:atemp>24.0</ns3:atemp>
          </ns3:TrackPointExtension>
        </extensions>
      </trkpt>
      <trkpt lat="42.54782594740390777587890625" lon="19.78054557926952838897705078125">
        <ele>1442.4000244140625</ele>
        <time>2026-06-18T08:07:49.000Z</time>
        <extensions>
          <ns3:TrackPointExtension>
            <ns3:atemp>24.0</ns3:atemp>
          </ns3:TrackPointExtension>
        </extensions>
      </trkpt>
      <trkpt lat="42.54782594740390777587890625" lon="19.78054557926952838897705078125">
        <ele>1442.5999755859375</ele>
        <time>2026-06-18T08:07:50.000Z</time>
        <extensions>
          <ns3:TrackPointExtension>
            <ns3:atemp>24.0</ns3:atemp>
          </ns3:TrackPointExtension>
        </extensions>
      </trkpt>
      <trkpt lat="42.54782594740390777587890625" lon="19.78054557926952838897705078125">
        <ele>1442.5999755859375</ele>
        <time>2026-06-18T08:07:51.000Z</time>
        <extensions>
          <ns3:TrackPointExtension>
            <ns3:atemp>24.0</ns3:atemp>
          </ns3:TrackPointExtension>
        </extensions>
      </trkpt>
      <trkpt lat="42.54782594740390777587890625" lon="19.78054557926952838897705078125">
        <ele>1442.5999755859375</ele>
        <time>2026-06-18T08:07:52.000Z</time>
        <extensions>
          <ns3:TrackPointExtension>
            <ns3:atemp>25.0</ns3:atemp>
          </ns3:TrackPointExtension>
        </extensions>
      </trkpt>
      <trkpt lat="42.54782594740390777587890625" lon="19.78054557926952838897705078125">
        <ele>1442.800048828125</ele>
        <time>2026-06-18T08:07:53.000Z</time>
        <extensions>
          <ns3:TrackPointExtension>
            <ns3:atemp>24.0</ns3:atemp>
          </ns3:TrackPointExtension>
        </extensions>
      </trkpt>
      <trkpt lat="42.54782594740390777587890625" lon="19.78054557926952838897705078125">
        <ele>1442.800048828125</ele>
        <time>2026-06-18T08:07:54.000Z</time>
        <extensions>
          <ns3:TrackPointExtension>
            <ns3:atemp>24.0</ns3:atemp>
          </ns3:TrackPointExtension>
        </extensions>
      </trkpt>
      <trkpt lat="42.54782594740390777587890625" lon="19.78054557926952838897705078125">
        <ele>1442.800048828125</ele>
        <time>2026-06-18T08:07:55.000Z</time>
        <extensions>
          <ns3:TrackPointExtension>
            <ns3:atemp>24.0</ns3:atemp>
          </ns3:TrackPointExtension>
        </extensions>
      </trkpt>
      <trkpt lat="42.54782594740390777587890625" lon="19.78054557926952838897705078125">
        <ele>1443</ele>
        <time>2026-06-18T08:07:56.000Z</time>
        <extensions>
          <ns3:TrackPointExtension>
            <ns3:atemp>24.0</ns3:atemp>
          </ns3:TrackPointExtension>
        </extensions>
      </trkpt>
      <trkpt lat="42.54782594740390777587890625" lon="19.78054557926952838897705078125">
        <ele>1443</ele>
        <time>2026-06-18T08:07:57.000Z</time>
        <extensions>
          <ns3:TrackPointExtension>
            <ns3:atemp>25.0</ns3:atemp>
          </ns3:TrackPointExtension>
        </extensions>
      </trkpt>
      <trkpt lat="42.54782594740390777587890625" lon="19.78054557926952838897705078125">
        <ele>1443</ele>
        <time>2026-06-18T08:07:58.000Z</time>
        <extensions>
          <ns3:TrackPointExtension>
            <ns3:atemp>25.0</ns3:atemp>
          </ns3:TrackPointExtension>
        </extensions>
      </trkpt>
      <trkpt lat="42.54782594740390777587890625" lon="19.78054557926952838897705078125">
        <ele>1443</ele>
        <time>2026-06-18T08:07:59.000Z</time>
        <extensions>
          <ns3:TrackPointExtension>
            <ns3:atemp>25.0</ns3:atemp>
          </ns3:TrackPointExtension>
        </extensions>
      </trkpt>
      <trkpt lat="42.54782594740390777587890625" lon="19.78054557926952838897705078125">
        <ele>1443.199951171875</ele>
        <time>2026-06-18T08:08:00.000Z</time>
        <extensions>
          <ns3:TrackPointExtension>
            <ns3:atemp>25.0</ns3:atemp>
          </ns3:TrackPointExtension>
        </extensions>
      </trkpt>
      <trkpt lat="42.54782594740390777587890625" lon="19.78054557926952838897705078125">
        <ele>1443</ele>
        <time>2026-06-18T08:08:01.000Z</time>
        <extensions>
          <ns3:TrackPointExtension>
            <ns3:atemp>25.0</ns3:atemp>
          </ns3:TrackPointExtension>
        </extensions>
      </trkpt>
      <trkpt lat="42.54782594740390777587890625" lon="19.78054557926952838897705078125">
        <ele>1443</ele>
        <time>2026-06-18T08:08:02.000Z</time>
        <extensions>
          <ns3:TrackPointExtension>
            <ns3:atemp>25.0</ns3:atemp>
          </ns3:TrackPointExtension>
        </extensions>
      </trkpt>
      <trkpt lat="42.54782594740390777587890625" lon="19.78054557926952838897705078125">
        <ele>1442.800048828125</ele>
        <time>2026-06-18T08:08:03.000Z</time>
        <extensions>
          <ns3:TrackPointExtension>
            <ns3:atemp>25.0</ns3:atemp>
          </ns3:TrackPointExtension>
        </extensions>
      </trkpt>
      <trkpt lat="42.54782594740390777587890625" lon="19.78054557926952838897705078125">
        <ele>1442.5999755859375</ele>
        <time>2026-06-18T08:08:04.000Z</time>
        <extensions>
          <ns3:TrackPointExtension>
            <ns3:atemp>25.0</ns3:atemp>
          </ns3:TrackPointExtension>
        </extensions>
      </trkpt>
      <trkpt lat="42.54782594740390777587890625" lon="19.78054557926952838897705078125">
        <ele>1442.4000244140625</ele>
        <time>2026-06-18T08:08:05.000Z</time>
        <extensions>
          <ns3:TrackPointExtension>
            <ns3:atemp>25.0</ns3:atemp>
          </ns3:TrackPointExtension>
        </extensions>
      </trkpt>
      <trkpt lat="42.54782594740390777587890625" lon="19.78054557926952838897705078125">
        <ele>1442.4000244140625</ele>
        <time>2026-06-18T08:08:06.000Z</time>
        <extensions>
          <ns3:TrackPointExtension>
            <ns3:atemp>25.0</ns3:atemp>
          </ns3:TrackPointExtension>
        </extensions>
      </trkpt>
      <trkpt lat="42.54782594740390777587890625" lon="19.78054557926952838897705078125">
        <ele>1442.4000244140625</ele>
        <time>2026-06-18T08:08:07.000Z</time>
        <extensions>
          <ns3:TrackPointExtension>
            <ns3:atemp>25.0</ns3:atemp>
          </ns3:TrackPointExtension>
        </extensions>
      </trkpt>
      <trkpt lat="42.54782594740390777587890625" lon="19.78054557926952838897705078125">
        <ele>1442.4000244140625</ele>
        <time>2026-06-18T08:08:08.000Z</time>
        <extensions>
          <ns3:TrackPointExtension>
            <ns3:atemp>25.0</ns3:atemp>
          </ns3:TrackPointExtension>
        </extensions>
      </trkpt>
      <trkpt lat="42.54782594740390777587890625" lon="19.78054557926952838897705078125">
        <ele>1442.4000244140625</ele>
        <time>2026-06-18T08:08:09.000Z</time>
        <extensions>
          <ns3:TrackPointExtension>
            <ns3:atemp>25.0</ns3:atemp>
          </ns3:TrackPointExtension>
        </extensions>
      </trkpt>
      <trkpt lat="42.54782594740390777587890625" lon="19.78054557926952838897705078125">
        <ele>1442.4000244140625</ele>
        <time>2026-06-18T08:08:10.000Z</time>
        <extensions>
          <ns3:TrackPointExtension>
            <ns3:atemp>25.0</ns3:atemp>
          </ns3:TrackPointExtension>
        </extensions>
      </trkpt>
      <trkpt lat="42.54782594740390777587890625" lon="19.78054557926952838897705078125">
        <ele>1442.199951171875</ele>
        <time>2026-06-18T08:08:11.000Z</time>
        <extensions>
          <ns3:TrackPointExtension>
            <ns3:atemp>25.0</ns3:atemp>
          </ns3:TrackPointExtension>
        </extensions>
      </trkpt>
      <trkpt lat="42.54782594740390777587890625" lon="19.78054557926952838897705078125">
        <ele>1442.199951171875</ele>
        <time>2026-06-18T08:08:12.000Z</time>
        <extensions>
          <ns3:TrackPointExtension>
            <ns3:atemp>25.0</ns3:atemp>
          </ns3:TrackPointExtension>
        </extensions>
      </trkpt>
      <trkpt lat="42.54782594740390777587890625" lon="19.78054557926952838897705078125">
        <ele>1442.199951171875</ele>
        <time>2026-06-18T08:08:13.000Z</time>
        <extensions>
          <ns3:TrackPointExtension>
            <ns3:atemp>25.0</ns3:atemp>
          </ns3:TrackPointExtension>
        </extensions>
      </trkpt>
      <trkpt lat="42.54782594740390777587890625" lon="19.78054557926952838897705078125">
        <ele>1442.199951171875</ele>
        <time>2026-06-18T08:08:14.000Z</time>
        <extensions>
          <ns3:TrackPointExtension>
            <ns3:atemp>25.0</ns3:atemp>
          </ns3:TrackPointExtension>
        </extensions>
      </trkpt>
      <trkpt lat="42.54782594740390777587890625" lon="19.78054557926952838897705078125">
        <ele>1442.199951171875</ele>
        <time>2026-06-18T08:08:15.000Z</time>
        <extensions>
          <ns3:TrackPointExtension>
            <ns3:atemp>25.0</ns3:atemp>
          </ns3:TrackPointExtension>
        </extensions>
      </trkpt>
      <trkpt lat="42.54782594740390777587890625" lon="19.78054557926952838897705078125">
        <ele>1442.199951171875</ele>
        <time>2026-06-18T08:08:16.000Z</time>
        <extensions>
          <ns3:TrackPointExtension>
            <ns3:atemp>25.0</ns3:atemp>
          </ns3:TrackPointExtension>
        </extensions>
      </trkpt>
      <trkpt lat="42.54782594740390777587890625" lon="19.78054557926952838897705078125">
        <ele>1442.199951171875</ele>
        <time>2026-06-18T08:08:17.000Z</time>
        <extensions>
          <ns3:TrackPointExtension>
            <ns3:atemp>25.0</ns3:atemp>
          </ns3:TrackPointExtension>
        </extensions>
      </trkpt>
      <trkpt lat="42.54782594740390777587890625" lon="19.78054557926952838897705078125">
        <ele>1442.199951171875</ele>
        <time>2026-06-18T08:08:18.000Z</time>
        <extensions>
          <ns3:TrackPointExtension>
            <ns3:atemp>25.0</ns3:atemp>
          </ns3:TrackPointExtension>
        </extensions>
      </trkpt>
      <trkpt lat="42.54782594740390777587890625" lon="19.78054557926952838897705078125">
        <ele>1442.199951171875</ele>
        <time>2026-06-18T08:08:19.000Z</time>
        <extensions>
          <ns3:TrackPointExtension>
            <ns3:atemp>25.0</ns3:atemp>
          </ns3:TrackPointExtension>
        </extensions>
      </trkpt>
      <trkpt lat="42.54782594740390777587890625" lon="19.78054557926952838897705078125">
        <ele>1442.199951171875</ele>
        <time>2026-06-18T08:08:20.000Z</time>
        <extensions>
          <ns3:TrackPointExtension>
            <ns3:atemp>25.0</ns3:atemp>
          </ns3:TrackPointExtension>
        </extensions>
      </trkpt>
      <trkpt lat="42.54782594740390777587890625" lon="19.78054557926952838897705078125">
        <ele>1442.199951171875</ele>
        <time>2026-06-18T08:08:21.000Z</time>
        <extensions>
          <ns3:TrackPointExtension>
            <ns3:atemp>25.0</ns3:atemp>
          </ns3:TrackPointExtension>
        </extensions>
      </trkpt>
      <trkpt lat="42.54782594740390777587890625" lon="19.78054557926952838897705078125">
        <ele>1442.199951171875</ele>
        <time>2026-06-18T08:08:22.000Z</time>
        <extensions>
          <ns3:TrackPointExtension>
            <ns3:atemp>25.0</ns3:atemp>
          </ns3:TrackPointExtension>
        </extensions>
      </trkpt>
      <trkpt lat="42.54782594740390777587890625" lon="19.78054557926952838897705078125">
        <ele>1442.199951171875</ele>
        <time>2026-06-18T08:08:23.000Z</time>
        <extensions>
          <ns3:TrackPointExtension>
            <ns3:atemp>25.0</ns3:atemp>
          </ns3:TrackPointExtension>
        </extensions>
      </trkpt>
      <trkpt lat="42.54782150499522686004638671875" lon="19.78055647574365139007568359375">
        <ele>1442.199951171875</ele>
        <time>2026-06-18T08:08:24.000Z</time>
        <extensions>
          <ns3:TrackPointExtension>
            <ns3:atemp>25.0</ns3:atemp>
          </ns3:TrackPointExtension>
        </extensions>
      </trkpt>
      <trkpt lat="42.547820918262004852294921875" lon="19.7805651091039180755615234375">
        <ele>1442.199951171875</ele>
        <time>2026-06-18T08:08:25.000Z</time>
        <extensions>
          <ns3:TrackPointExtension>
            <ns3:atemp>25.0</ns3:atemp>
          </ns3:TrackPointExtension>
        </extensions>
      </trkpt>
      <trkpt lat="42.54782418720424175262451171875" lon="19.78056686930358409881591796875">
        <ele>1442.199951171875</ele>
        <time>2026-06-18T08:08:26.000Z</time>
        <extensions>
          <ns3:TrackPointExtension>
            <ns3:atemp>25.0</ns3:atemp>
          </ns3:TrackPointExtension>
        </extensions>
      </trkpt>
      <trkpt lat="42.54782418720424175262451171875" lon="19.78056686930358409881591796875">
        <ele>1442.199951171875</ele>
        <time>2026-06-18T08:08:27.000Z</time>
        <extensions>
          <ns3:TrackPointExtension>
            <ns3:atemp>25.0</ns3:atemp>
          </ns3:TrackPointExtension>
        </extensions>
      </trkpt>
      <trkpt lat="42.54782418720424175262451171875" lon="19.78056686930358409881591796875">
        <ele>1442.199951171875</ele>
        <time>2026-06-18T08:08:28.000Z</time>
        <extensions>
          <ns3:TrackPointExtension>
            <ns3:atemp>25.0</ns3:atemp>
          </ns3:TrackPointExtension>
        </extensions>
      </trkpt>
      <trkpt lat="42.54782418720424175262451171875" lon="19.78056686930358409881591796875">
        <ele>1442.199951171875</ele>
        <time>2026-06-18T08:08:29.000Z</time>
        <extensions>
          <ns3:TrackPointExtension>
            <ns3:atemp>25.0</ns3:atemp>
          </ns3:TrackPointExtension>
        </extensions>
      </trkpt>
      <trkpt lat="42.54782418720424175262451171875" lon="19.78056686930358409881591796875">
        <ele>1442.199951171875</ele>
        <time>2026-06-18T08:08:30.000Z</time>
        <extensions>
          <ns3:TrackPointExtension>
            <ns3:atemp>25.0</ns3:atemp>
          </ns3:TrackPointExtension>
        </extensions>
      </trkpt>
      <trkpt lat="42.54782418720424175262451171875" lon="19.78056686930358409881591796875">
        <ele>1442.199951171875</ele>
        <time>2026-06-18T08:08:31.000Z</time>
        <extensions>
          <ns3:TrackPointExtension>
            <ns3:atemp>25.0</ns3:atemp>
          </ns3:TrackPointExtension>
        </extensions>
      </trkpt>
      <trkpt lat="42.54782418720424175262451171875" lon="19.78056686930358409881591796875">
        <ele>1442.199951171875</ele>
        <time>2026-06-18T08:08:32.000Z</time>
        <extensions>
          <ns3:TrackPointExtension>
            <ns3:atemp>25.0</ns3:atemp>
          </ns3:TrackPointExtension>
        </extensions>
      </trkpt>
      <trkpt lat="42.54782418720424175262451171875" lon="19.78056686930358409881591796875">
        <ele>1442.199951171875</ele>
        <time>2026-06-18T08:08:33.000Z</time>
        <extensions>
          <ns3:TrackPointExtension>
            <ns3:atemp>25.0</ns3:atemp>
          </ns3:TrackPointExtension>
        </extensions>
      </trkpt>
      <trkpt lat="42.54782418720424175262451171875" lon="19.78056686930358409881591796875">
        <ele>1442.199951171875</ele>
        <time>2026-06-18T08:08:34.000Z</time>
        <extensions>
          <ns3:TrackPointExtension>
            <ns3:atemp>25.0</ns3:atemp>
          </ns3:TrackPointExtension>
        </extensions>
      </trkpt>
      <trkpt lat="42.54782418720424175262451171875" lon="19.78056686930358409881591796875">
        <ele>1442.199951171875</ele>
        <time>2026-06-18T08:08:35.000Z</time>
        <extensions>
          <ns3:TrackPointExtension>
            <ns3:atemp>25.0</ns3:atemp>
          </ns3:TrackPointExtension>
        </extensions>
      </trkpt>
      <trkpt lat="42.54782418720424175262451171875" lon="19.78056686930358409881591796875">
        <ele>1442.199951171875</ele>
        <time>2026-06-18T08:08:36.000Z</time>
        <extensions>
          <ns3:TrackPointExtension>
            <ns3:atemp>25.0</ns3:atemp>
          </ns3:TrackPointExtension>
        </extensions>
      </trkpt>
      <trkpt lat="42.54782418720424175262451171875" lon="19.78056686930358409881591796875">
        <ele>1442.199951171875</ele>
        <time>2026-06-18T08:08:37.000Z</time>
        <extensions>
          <ns3:TrackPointExtension>
            <ns3:atemp>25.0</ns3:atemp>
          </ns3:TrackPointExtension>
        </extensions>
      </trkpt>
      <trkpt lat="42.54782418720424175262451171875" lon="19.78056686930358409881591796875">
        <ele>1442.199951171875</ele>
        <time>2026-06-18T08:08:38.000Z</time>
        <extensions>
          <ns3:TrackPointExtension>
            <ns3:atemp>25.0</ns3:atemp>
          </ns3:TrackPointExtension>
        </extensions>
      </trkpt>
      <trkpt lat="42.54782418720424175262451171875" lon="19.78056686930358409881591796875">
        <ele>1442.199951171875</ele>
        <time>2026-06-18T08:08:39.000Z</time>
        <extensions>
          <ns3:TrackPointExtension>
            <ns3:atemp>25.0</ns3:atemp>
          </ns3:TrackPointExtension>
        </extensions>
      </trkpt>
      <trkpt lat="42.54782418720424175262451171875" lon="19.78056686930358409881591796875">
        <ele>1442.199951171875</ele>
        <time>2026-06-18T08:08:40.000Z</time>
        <extensions>
          <ns3:TrackPointExtension>
            <ns3:atemp>25.0</ns3:atemp>
          </ns3:TrackPointExtension>
        </extensions>
      </trkpt>
      <trkpt lat="42.54782418720424175262451171875" lon="19.78056686930358409881591796875">
        <ele>1442.199951171875</ele>
        <time>2026-06-18T08:08:41.000Z</time>
        <extensions>
          <ns3:TrackPointExtension>
            <ns3:atemp>25.0</ns3:atemp>
          </ns3:TrackPointExtension>
        </extensions>
      </trkpt>
      <trkpt lat="42.54782418720424175262451171875" lon="19.78056686930358409881591796875">
        <ele>1442.199951171875</ele>
        <time>2026-06-18T08:08:42.000Z</time>
        <extensions>
          <ns3:TrackPointExtension>
            <ns3:atemp>25.0</ns3:atemp>
          </ns3:TrackPointExtension>
        </extensions>
      </trkpt>
      <trkpt lat="42.54782418720424175262451171875" lon="19.78056686930358409881591796875">
        <ele>1442.199951171875</ele>
        <time>2026-06-18T08:08:43.000Z</time>
        <extensions>
          <ns3:TrackPointExtension>
            <ns3:atemp>25.0</ns3:atemp>
          </ns3:TrackPointExtension>
        </extensions>
      </trkpt>
      <trkpt lat="42.54782418720424175262451171875" lon="19.78056686930358409881591796875">
        <ele>1442.199951171875</ele>
        <time>2026-06-18T08:08:44.000Z</time>
        <extensions>
          <ns3:TrackPointExtension>
            <ns3:atemp>25.0</ns3:atemp>
          </ns3:TrackPointExtension>
        </extensions>
      </trkpt>
      <trkpt lat="42.54782418720424175262451171875" lon="19.78056686930358409881591796875">
        <ele>1442.199951171875</ele>
        <time>2026-06-18T08:08:45.000Z</time>
        <extensions>
          <ns3:TrackPointExtension>
            <ns3:atemp>25.0</ns3:atemp>
          </ns3:TrackPointExtension>
        </extensions>
      </trkpt>
      <trkpt lat="42.54782418720424175262451171875" lon="19.78056686930358409881591796875">
        <ele>1442.199951171875</ele>
        <time>2026-06-18T08:08:46.000Z</time>
        <extensions>
          <ns3:TrackPointExtension>
            <ns3:atemp>25.0</ns3:atemp>
          </ns3:TrackPointExtension>
        </extensions>
      </trkpt>
      <trkpt lat="42.54782418720424175262451171875" lon="19.78056686930358409881591796875">
        <ele>1442.199951171875</ele>
        <time>2026-06-18T08:08:47.000Z</time>
        <extensions>
          <ns3:TrackPointExtension>
            <ns3:atemp>25.0</ns3:atemp>
          </ns3:TrackPointExtension>
        </extensions>
      </trkpt>
      <trkpt lat="42.54782418720424175262451171875" lon="19.78056686930358409881591796875">
        <ele>1442.199951171875</ele>
        <time>2026-06-18T08:08:48.000Z</time>
        <extensions>
          <ns3:TrackPointExtension>
            <ns3:atemp>25.0</ns3:atemp>
          </ns3:TrackPointExtension>
        </extensions>
      </trkpt>
      <trkpt lat="42.5478227622807025909423828125" lon="19.780566282570362091064453125">
        <ele>1442.199951171875</ele>
        <time>2026-06-18T08:08:49.000Z</time>
        <extensions>
          <ns3:TrackPointExtension>
            <ns3:atemp>25.0</ns3:atemp>
          </ns3:TrackPointExtension>
        </extensions>
      </trkpt>
      <trkpt lat="42.54782418720424175262451171875" lon="19.78056686930358409881591796875">
        <ele>1442.199951171875</ele>
        <time>2026-06-18T08:08:50.000Z</time>
        <extensions>
          <ns3:TrackPointExtension>
            <ns3:atemp>25.0</ns3:atemp>
          </ns3:TrackPointExtension>
        </extensions>
      </trkpt>
      <trkpt lat="42.54782418720424175262451171875" lon="19.78056686930358409881591796875">
        <ele>1442.199951171875</ele>
        <time>2026-06-18T08:08:51.000Z</time>
        <extensions>
          <ns3:TrackPointExtension>
            <ns3:atemp>25.0</ns3:atemp>
          </ns3:TrackPointExtension>
        </extensions>
      </trkpt>
      <trkpt lat="42.54781731404364109039306640625" lon="19.78056569583714008331298828125">
        <ele>1442.199951171875</ele>
        <time>2026-06-18T08:08:52.000Z</time>
        <extensions>
          <ns3:TrackPointExtension>
            <ns3:atemp>25.0</ns3:atemp>
          </ns3:TrackPointExtension>
        </extensions>
      </trkpt>
      <trkpt lat="42.547804825007915496826171875" lon="19.78055186569690704345703125">
        <ele>1442.199951171875</ele>
        <time>2026-06-18T08:08:53.000Z</time>
        <extensions>
          <ns3:TrackPointExtension>
            <ns3:atemp>25.0</ns3:atemp>
          </ns3:TrackPointExtension>
        </extensions>
      </trkpt>
      <trkpt lat="42.54779149778187274932861328125" lon="19.7805456630885601043701171875">
        <ele>1442</ele>
        <time>2026-06-18T08:08:54.000Z</time>
        <extensions>
          <ns3:TrackPointExtension>
            <ns3:atemp>25.0</ns3:atemp>
          </ns3:TrackPointExtension>
        </extensions>
      </trkpt>
      <trkpt lat="42.54777959547936916351318359375" lon="19.78053577244281768798828125">
        <ele>1442</ele>
        <time>2026-06-18T08:08:55.000Z</time>
        <extensions>
          <ns3:TrackPointExtension>
            <ns3:atemp>25.0</ns3:atemp>
          </ns3:TrackPointExtension>
        </extensions>
      </trkpt>
      <trkpt lat="42.54776668734848499298095703125" lon="19.7805231995880603790283203125">
        <ele>1442.199951171875</ele>
        <time>2026-06-18T08:08:56.000Z</time>
        <extensions>
          <ns3:TrackPointExtension>
            <ns3:atemp>25.0</ns3:atemp>
          </ns3:TrackPointExtension>
        </extensions>
      </trkpt>
      <trkpt lat="42.54775310866534709930419921875" lon="19.78051272220909595489501953125">
        <ele>1442.4000244140625</ele>
        <time>2026-06-18T08:08:57.000Z</time>
        <extensions>
          <ns3:TrackPointExtension>
            <ns3:atemp>25.0</ns3:atemp>
          </ns3:TrackPointExtension>
        </extensions>
      </trkpt>
      <trkpt lat="42.547738440334796905517578125" lon="19.78050434030592441558837890625">
        <ele>1442.4000244140625</ele>
        <time>2026-06-18T08:08:58.000Z</time>
        <extensions>
          <ns3:TrackPointExtension>
            <ns3:atemp>25.0</ns3:atemp>
          </ns3:TrackPointExtension>
        </extensions>
      </trkpt>
      <trkpt lat="42.5477228499948978424072265625" lon="19.7804960422217845916748046875">
        <ele>1442.5999755859375</ele>
        <time>2026-06-18T08:08:59.000Z</time>
        <extensions>
          <ns3:TrackPointExtension>
            <ns3:atemp>25.0</ns3:atemp>
          </ns3:TrackPointExtension>
        </extensions>
      </trkpt>
      <trkpt lat="42.54770734347403049468994140625" lon="19.78048615157604217529296875">
        <ele>1442.5999755859375</ele>
        <time>2026-06-18T08:09:00.000Z</time>
        <extensions>
          <ns3:TrackPointExtension>
            <ns3:atemp>25.0</ns3:atemp>
          </ns3:TrackPointExtension>
        </extensions>
      </trkpt>
      <trkpt lat="42.54769275896251201629638671875" lon="19.78047265671193599700927734375">
        <ele>1442.800048828125</ele>
        <time>2026-06-18T08:09:01.000Z</time>
        <extensions>
          <ns3:TrackPointExtension>
            <ns3:atemp>25.0</ns3:atemp>
          </ns3:TrackPointExtension>
        </extensions>
      </trkpt>
      <trkpt lat="42.54767817445099353790283203125" lon="19.780463688075542449951171875">
        <ele>1442.800048828125</ele>
        <time>2026-06-18T08:09:02.000Z</time>
        <extensions>
          <ns3:TrackPointExtension>
            <ns3:atemp>25.0</ns3:atemp>
          </ns3:TrackPointExtension>
        </extensions>
      </trkpt>
      <trkpt lat="42.54766166210174560546875" lon="19.780452959239482879638671875">
        <ele>1442.800048828125</ele>
        <time>2026-06-18T08:09:03.000Z</time>
        <extensions>
          <ns3:TrackPointExtension>
            <ns3:atemp>25.0</ns3:atemp>
          </ns3:TrackPointExtension>
        </extensions>
      </trkpt>
      <trkpt lat="42.54764716140925884246826171875" lon="19.7804383747279644012451171875">
        <ele>1443</ele>
        <time>2026-06-18T08:09:04.000Z</time>
        <extensions>
          <ns3:TrackPointExtension>
            <ns3:atemp>25.0</ns3:atemp>
          </ns3:TrackPointExtension>
        </extensions>
      </trkpt>
      <trkpt lat="42.54763224162161350250244140625" lon="19.7804256342351436614990234375">
        <ele>1443</ele>
        <time>2026-06-18T08:09:05.000Z</time>
        <extensions>
          <ns3:TrackPointExtension>
            <ns3:atemp>25.0</ns3:atemp>
          </ns3:TrackPointExtension>
        </extensions>
      </trkpt>
      <trkpt lat="42.54761631600558757781982421875" lon="19.780420102179050445556640625">
        <ele>1443</ele>
        <time>2026-06-18T08:09:06.000Z</time>
        <extensions>
          <ns3:TrackPointExtension>
            <ns3:atemp>25.0</ns3:atemp>
          </ns3:TrackPointExtension>
        </extensions>
      </trkpt>
      <trkpt lat="42.5475971214473247528076171875" lon="19.78040979243814945220947265625">
        <ele>1443.199951171875</ele>
        <time>2026-06-18T08:09:07.000Z</time>
        <extensions>
          <ns3:TrackPointExtension>
            <ns3:atemp>25.0</ns3:atemp>
          </ns3:TrackPointExtension>
        </extensions>
      </trkpt>
      <trkpt lat="42.54758144728839397430419921875" lon="19.7803998179733753204345703125">
        <ele>1443.4000244140625</ele>
        <time>2026-06-18T08:09:08.000Z</time>
        <extensions>
          <ns3:TrackPointExtension>
            <ns3:atemp>25.0</ns3:atemp>
          </ns3:TrackPointExtension>
        </extensions>
      </trkpt>
      <trkpt lat="42.54756585694849491119384765625" lon="19.78038867004215717315673828125">
        <ele>1443.4000244140625</ele>
        <time>2026-06-18T08:09:09.000Z</time>
        <extensions>
          <ns3:TrackPointExtension>
            <ns3:atemp>25.0</ns3:atemp>
          </ns3:TrackPointExtension>
        </extensions>
      </trkpt>
      <trkpt lat="42.547550685703754425048828125" lon="19.7803729958832263946533203125">
        <ele>1443.5999755859375</ele>
        <time>2026-06-18T08:09:10.000Z</time>
        <extensions>
          <ns3:TrackPointExtension>
            <ns3:atemp>25.0</ns3:atemp>
          </ns3:TrackPointExtension>
        </extensions>
      </trkpt>
      <trkpt lat="42.5475320778787136077880859375" lon="19.7803619317710399627685546875">
        <ele>1443.800048828125</ele>
        <time>2026-06-18T08:09:11.000Z</time>
        <extensions>
          <ns3:TrackPointExtension>
            <ns3:atemp>25.0</ns3:atemp>
          </ns3:TrackPointExtension>
        </extensions>
      </trkpt>
      <trkpt lat="42.54751070402562618255615234375" lon="19.780349023640155792236328125">
        <ele>1443.800048828125</ele>
        <time>2026-06-18T08:09:12.000Z</time>
        <extensions>
          <ns3:TrackPointExtension>
            <ns3:atemp>25.0</ns3:atemp>
          </ns3:TrackPointExtension>
        </extensions>
      </trkpt>
      <trkpt lat="42.54748790524899959564208984375" lon="19.78033318184316158294677734375">
        <ele>1444</ele>
        <time>2026-06-18T08:09:13.000Z</time>
        <extensions>
          <ns3:TrackPointExtension>
            <ns3:atemp>25.0</ns3:atemp>
          </ns3:TrackPointExtension>
        </extensions>
      </trkpt>
      <trkpt lat="42.5474663637578487396240234375" lon="19.78031708858907222747802734375">
        <ele>1444.199951171875</ele>
        <time>2026-06-18T08:09:14.000Z</time>
        <extensions>
          <ns3:TrackPointExtension>
            <ns3:atemp>25.0</ns3:atemp>
          </ns3:TrackPointExtension>
        </extensions>
      </trkpt>
      <trkpt lat="42.54744633100926876068115234375" lon="19.78030283935368061065673828125">
        <ele>1444.199951171875</ele>
        <time>2026-06-18T08:09:15.000Z</time>
        <extensions>
          <ns3:TrackPointExtension>
            <ns3:atemp>25.0</ns3:atemp>
          </ns3:TrackPointExtension>
        </extensions>
      </trkpt>
      <trkpt lat="42.54742805846035480499267578125" lon="19.7802895121276378631591796875">
        <ele>1444.4000244140625</ele>
        <time>2026-06-18T08:09:16.000Z</time>
        <extensions>
          <ns3:TrackPointExtension>
            <ns3:atemp>25.0</ns3:atemp>
          </ns3:TrackPointExtension>
        </extensions>
      </trkpt>
      <trkpt lat="42.5474086962640285491943359375" lon="19.78027786128222942352294921875">
        <ele>1444.5999755859375</ele>
        <time>2026-06-18T08:09:17.000Z</time>
        <extensions>
          <ns3:TrackPointExtension>
            <ns3:atemp>25.0</ns3:atemp>
          </ns3:TrackPointExtension>
        </extensions>
      </trkpt>
      <trkpt lat="42.547391764819622039794921875" lon="19.78026813827455043792724609375">
        <ele>1444.800048828125</ele>
        <time>2026-06-18T08:09:18.000Z</time>
        <extensions>
          <ns3:TrackPointExtension>
            <ns3:atemp>25.0</ns3:atemp>
          </ns3:TrackPointExtension>
        </extensions>
      </trkpt>
      <trkpt lat="42.54737642593681812286376953125" lon="19.7802579961717128753662109375">
        <ele>1444.800048828125</ele>
        <time>2026-06-18T08:09:19.000Z</time>
        <extensions>
          <ns3:TrackPointExtension>
            <ns3:atemp>25.0</ns3:atemp>
          </ns3:TrackPointExtension>
        </extensions>
      </trkpt>
      <trkpt lat="42.5473614223301410675048828125" lon="19.78024550713598728179931640625">
        <ele>1445</ele>
        <time>2026-06-18T08:09:20.000Z</time>
        <extensions>
          <ns3:TrackPointExtension>
            <ns3:atemp>25.0</ns3:atemp>
          </ns3:TrackPointExtension>
        </extensions>
      </trkpt>
      <trkpt lat="42.5473453290760517120361328125" lon="19.7802345268428325653076171875">
        <ele>1445</ele>
        <time>2026-06-18T08:09:21.000Z</time>
        <extensions>
          <ns3:TrackPointExtension>
            <ns3:atemp>25.0</ns3:atemp>
          </ns3:TrackPointExtension>
        </extensions>
      </trkpt>
      <trkpt lat="42.54732630215585231781005859375" lon="19.78022287599742412567138671875">
        <ele>1445.199951171875</ele>
        <time>2026-06-18T08:09:22.000Z</time>
        <extensions>
          <ns3:TrackPointExtension>
            <ns3:atemp>25.0</ns3:atemp>
          </ns3:TrackPointExtension>
        </extensions>
      </trkpt>
      <trkpt lat="42.547310627996921539306640625" lon="19.78020980022847652435302734375">
        <ele>1445.199951171875</ele>
        <time>2026-06-18T08:09:23.000Z</time>
        <extensions>
          <ns3:TrackPointExtension>
            <ns3:atemp>25.0</ns3:atemp>
          </ns3:TrackPointExtension>
        </extensions>
      </trkpt>
      <trkpt lat="42.54729428328573703765869140625" lon="19.780198819935321807861328125">
        <ele>1445.4000244140625</ele>
        <time>2026-06-18T08:09:24.000Z</time>
        <extensions>
          <ns3:TrackPointExtension>
            <ns3:atemp>25.0</ns3:atemp>
          </ns3:TrackPointExtension>
        </extensions>
      </trkpt>
      <trkpt lat="42.54727517254650592803955078125" lon="19.78018867783248424530029296875">
        <ele>1445.5999755859375</ele>
        <time>2026-06-18T08:09:25.000Z</time>
        <extensions>
          <ns3:TrackPointExtension>
            <ns3:atemp>25.0</ns3:atemp>
          </ns3:TrackPointExtension>
        </extensions>
      </trkpt>
      <trkpt lat="42.54726176150143146514892578125" lon="19.7801792062819004058837890625">
        <ele>1445.800048828125</ele>
        <time>2026-06-18T08:09:26.000Z</time>
        <extensions>
          <ns3:TrackPointExtension>
            <ns3:atemp>25.0</ns3:atemp>
          </ns3:TrackPointExtension>
        </extensions>
      </trkpt>
      <trkpt lat="42.54724550060927867889404296875" lon="19.78016872890293598175048828125">
        <ele>1446</ele>
        <time>2026-06-18T08:09:27.000Z</time>
        <extensions>
          <ns3:TrackPointExtension>
            <ns3:atemp>25.0</ns3:atemp>
          </ns3:TrackPointExtension>
        </extensions>
      </trkpt>
      <trkpt lat="42.54723208956420421600341796875" lon="19.780159257352352142333984375">
        <ele>1446.199951171875</ele>
        <time>2026-06-18T08:09:28.000Z</time>
        <extensions>
          <ns3:TrackPointExtension>
            <ns3:atemp>25.0</ns3:atemp>
          </ns3:TrackPointExtension>
        </extensions>
      </trkpt>
      <trkpt lat="42.54722102545201778411865234375" lon="19.78014945052564144134521484375">
        <ele>1446.4000244140625</ele>
        <time>2026-06-18T08:09:29.000Z</time>
        <extensions>
          <ns3:TrackPointExtension>
            <ns3:atemp>25.0</ns3:atemp>
          </ns3:TrackPointExtension>
        </extensions>
      </trkpt>
      <trkpt lat="42.54720627330243587493896484375" lon="19.7801416553556919097900390625">
        <ele>1446.800048828125</ele>
        <time>2026-06-18T08:09:30.000Z</time>
        <extensions>
          <ns3:TrackPointExtension>
            <ns3:atemp>25.0</ns3:atemp>
          </ns3:TrackPointExtension>
        </extensions>
      </trkpt>
      <trkpt lat="42.54719302989542484283447265625" lon="19.780132435262203216552734375">
        <ele>1447</ele>
        <time>2026-06-18T08:09:31.000Z</time>
        <extensions>
          <ns3:TrackPointExtension>
            <ns3:atemp>25.0</ns3:atemp>
          </ns3:TrackPointExtension>
        </extensions>
      </trkpt>
      <trkpt lat="42.54718045704066753387451171875" lon="19.780118353664875030517578125">
        <ele>1447.4000244140625</ele>
        <time>2026-06-18T08:09:32.000Z</time>
        <extensions>
          <ns3:TrackPointExtension>
            <ns3:atemp>25.0</ns3:atemp>
          </ns3:TrackPointExtension>
        </extensions>
      </trkpt>
      <trkpt lat="42.5471669621765613555908203125" lon="19.780104942619800567626953125">
        <ele>1447.5999755859375</ele>
        <time>2026-06-18T08:09:33.000Z</time>
        <extensions>
          <ns3:TrackPointExtension>
            <ns3:atemp>25.0</ns3:atemp>
          </ns3:TrackPointExtension>
        </extensions>
      </trkpt>
      <trkpt lat="42.5471528805792331695556640625" lon="19.78009245358407497406005859375">
        <ele>1447.800048828125</ele>
        <time>2026-06-18T08:09:34.000Z</time>
        <extensions>
          <ns3:TrackPointExtension>
            <ns3:atemp>25.0</ns3:atemp>
          </ns3:TrackPointExtension>
        </extensions>
      </trkpt>
      <trkpt lat="42.5471384637057781219482421875" lon="19.78007904253900051116943359375">
        <ele>1448</ele>
        <time>2026-06-18T08:09:35.000Z</time>
        <extensions>
          <ns3:TrackPointExtension>
            <ns3:atemp>25.0</ns3:atemp>
          </ns3:TrackPointExtension>
        </extensions>
      </trkpt>
      <trkpt lat="42.54712429828941822052001953125" lon="19.78006663732230663299560546875">
        <ele>1448.199951171875</ele>
        <time>2026-06-18T08:09:36.000Z</time>
        <extensions>
          <ns3:TrackPointExtension>
            <ns3:atemp>25.0</ns3:atemp>
          </ns3:TrackPointExtension>
        </extensions>
      </trkpt>
      <trkpt lat="42.54710971377789974212646484375" lon="19.78005775250494480133056640625">
        <ele>1448.4000244140625</ele>
        <time>2026-06-18T08:09:37.000Z</time>
        <extensions>
          <ns3:TrackPointExtension>
            <ns3:atemp>25.0</ns3:atemp>
          </ns3:TrackPointExtension>
        </extensions>
      </trkpt>
      <trkpt lat="42.54709303379058837890625" lon="19.7800484485924243927001953125">
        <ele>1448.5999755859375</ele>
        <time>2026-06-18T08:09:38.000Z</time>
        <extensions>
          <ns3:TrackPointExtension>
            <ns3:atemp>25.0</ns3:atemp>
          </ns3:TrackPointExtension>
        </extensions>
      </trkpt>
      <trkpt lat="42.54707836546003818511962890625" lon="19.78004199452698230743408203125">
        <ele>1448.800048828125</ele>
        <time>2026-06-18T08:09:39.000Z</time>
        <extensions>
          <ns3:TrackPointExtension>
            <ns3:atemp>25.0</ns3:atemp>
          </ns3:TrackPointExtension>
        </extensions>
      </trkpt>
      <trkpt lat="42.54706084728240966796875" lon="19.7800402343273162841796875">
        <ele>1449</ele>
        <time>2026-06-18T08:09:40.000Z</time>
        <extensions>
          <ns3:TrackPointExtension>
            <ns3:atemp>25.0</ns3:atemp>
          </ns3:TrackPointExtension>
        </extensions>
      </trkpt>
      <trkpt lat="42.54704601131379604339599609375" lon="19.780031852424144744873046875">
        <ele>1449.199951171875</ele>
        <time>2026-06-18T08:09:41.000Z</time>
        <extensions>
          <ns3:TrackPointExtension>
            <ns3:atemp>25.0</ns3:atemp>
          </ns3:TrackPointExtension>
        </extensions>
      </trkpt>
      <trkpt lat="42.54702891223132610321044921875" lon="19.7800286673009395599365234375">
        <ele>1449.4000244140625</ele>
        <time>2026-06-18T08:09:42.000Z</time>
        <extensions>
          <ns3:TrackPointExtension>
            <ns3:atemp>25.0</ns3:atemp>
          </ns3:TrackPointExtension>
        </extensions>
      </trkpt>
      <trkpt lat="42.5470125675201416015625" lon="19.7800303436815738677978515625">
        <ele>1449.5999755859375</ele>
        <time>2026-06-18T08:09:43.000Z</time>
        <extensions>
          <ns3:TrackPointExtension>
            <ns3:atemp>25.0</ns3:atemp>
          </ns3:TrackPointExtension>
        </extensions>
      </trkpt>
      <trkpt lat="42.54699856974184513092041015625" lon="19.78003461845219135284423828125">
        <ele>1449.5999755859375</ele>
        <time>2026-06-18T08:09:44.000Z</time>
        <extensions>
          <ns3:TrackPointExtension>
            <ns3:atemp>25.0</ns3:atemp>
          </ns3:TrackPointExtension>
        </extensions>
      </trkpt>
      <trkpt lat="42.54698331467807292938232421875" lon="19.78004132397472858428955078125">
        <ele>1449.800048828125</ele>
        <time>2026-06-18T08:09:45.000Z</time>
        <extensions>
          <ns3:TrackPointExtension>
            <ns3:atemp>25.0</ns3:atemp>
          </ns3:TrackPointExtension>
        </extensions>
      </trkpt>
      <trkpt lat="42.54696453921496868133544921875" lon="19.7800471074879169464111328125">
        <ele>1449.800048828125</ele>
        <time>2026-06-18T08:09:46.000Z</time>
        <extensions>
          <ns3:TrackPointExtension>
            <ns3:atemp>25.0</ns3:atemp>
          </ns3:TrackPointExtension>
        </extensions>
      </trkpt>
      <trkpt lat="42.5469463504850864410400390625" lon="19.7800551541149616241455078125">
        <ele>1449.800048828125</ele>
        <time>2026-06-18T08:09:47.000Z</time>
        <extensions>
          <ns3:TrackPointExtension>
            <ns3:atemp>25.0</ns3:atemp>
          </ns3:TrackPointExtension>
        </extensions>
      </trkpt>
      <trkpt lat="42.54692916758358478546142578125" lon="19.78005959652364253997802734375">
        <ele>1449.800048828125</ele>
        <time>2026-06-18T08:09:48.000Z</time>
        <extensions>
          <ns3:TrackPointExtension>
            <ns3:atemp>25.0</ns3:atemp>
          </ns3:TrackPointExtension>
        </extensions>
      </trkpt>
      <trkpt lat="42.54691064357757568359375" lon="19.7800689004361629486083984375">
        <ele>1449.800048828125</ele>
        <time>2026-06-18T08:09:49.000Z</time>
        <extensions>
          <ns3:TrackPointExtension>
            <ns3:atemp>25.0</ns3:atemp>
          </ns3:TrackPointExtension>
        </extensions>
      </trkpt>
      <trkpt lat="42.54689010791480541229248046875" lon="19.7800762765109539031982421875">
        <ele>1450</ele>
        <time>2026-06-18T08:09:50.000Z</time>
        <extensions>
          <ns3:TrackPointExtension>
            <ns3:atemp>25.0</ns3:atemp>
          </ns3:TrackPointExtension>
        </extensions>
      </trkpt>
      <trkpt lat="42.54687066189944744110107421875" lon="19.780084826052188873291015625">
        <ele>1450</ele>
        <time>2026-06-18T08:09:51.000Z</time>
        <extensions>
          <ns3:TrackPointExtension>
            <ns3:atemp>25.0</ns3:atemp>
          </ns3:TrackPointExtension>
        </extensions>
      </trkpt>
      <trkpt lat="42.54685540683567523956298828125" lon="19.78008742444217205047607421875">
        <ele>1450.199951171875</ele>
        <time>2026-06-18T08:09:52.000Z</time>
        <extensions>
          <ns3:TrackPointExtension>
            <ns3:atemp>25.0</ns3:atemp>
          </ns3:TrackPointExtension>
        </extensions>
      </trkpt>
      <trkpt lat="42.5468395650386810302734375" lon="19.78009496815502643585205078125">
        <ele>1450.199951171875</ele>
        <time>2026-06-18T08:09:53.000Z</time>
        <extensions>
          <ns3:TrackPointExtension>
            <ns3:atemp>25.0</ns3:atemp>
          </ns3:TrackPointExtension>
        </extensions>
      </trkpt>
      <trkpt lat="42.5468176044523715972900390625" lon="19.78009748272597789764404296875">
        <ele>1450.199951171875</ele>
        <time>2026-06-18T08:09:54.000Z</time>
        <extensions>
          <ns3:TrackPointExtension>
            <ns3:atemp>25.0</ns3:atemp>
          </ns3:TrackPointExtension>
        </extensions>
      </trkpt>
      <trkpt lat="42.5467971526086330413818359375" lon="19.78009815327823162078857421875">
        <ele>1450.4000244140625</ele>
        <time>2026-06-18T08:09:55.000Z</time>
        <extensions>
          <ns3:TrackPointExtension>
            <ns3:atemp>25.0</ns3:atemp>
          </ns3:TrackPointExtension>
        </extensions>
      </trkpt>
      <trkpt lat="42.54677745513617992401123046875" lon="19.780097901821136474609375">
        <ele>1450.4000244140625</ele>
        <time>2026-06-18T08:09:56.000Z</time>
        <extensions>
          <ns3:TrackPointExtension>
            <ns3:atemp>25.0</ns3:atemp>
          </ns3:TrackPointExtension>
        </extensions>
      </trkpt>
      <trkpt lat="42.54675976932048797607421875" lon="19.78009915910661220550537109375">
        <ele>1450.5999755859375</ele>
        <time>2026-06-18T08:09:57.000Z</time>
        <extensions>
          <ns3:TrackPointExtension>
            <ns3:atemp>25.0</ns3:atemp>
          </ns3:TrackPointExtension>
        </extensions>
      </trkpt>
      <trkpt lat="42.546741999685764312744140625" lon="19.7800992429256439208984375">
        <ele>1450.5999755859375</ele>
        <time>2026-06-18T08:09:58.000Z</time>
        <extensions>
          <ns3:TrackPointExtension>
            <ns3:atemp>25.0</ns3:atemp>
          </ns3:TrackPointExtension>
        </extensions>
      </trkpt>
      <trkpt lat="42.546724565327167510986328125" lon="19.780099578201770782470703125">
        <ele>1450.800048828125</ele>
        <time>2026-06-18T08:09:59.000Z</time>
        <extensions>
          <ns3:TrackPointExtension>
            <ns3:atemp>25.0</ns3:atemp>
          </ns3:TrackPointExtension>
        </extensions>
      </trkpt>
      <trkpt lat="42.5467046163976192474365234375" lon="19.78009614162147045135498046875">
        <ele>1451</ele>
        <time>2026-06-18T08:10:00.000Z</time>
        <extensions>
          <ns3:TrackPointExtension>
            <ns3:atemp>25.0</ns3:atemp>
          </ns3:TrackPointExtension>
        </extensions>
      </trkpt>
      <trkpt lat="42.54668458364903926849365234375" lon="19.78009245358407497406005859375">
        <ele>1451.199951171875</ele>
        <time>2026-06-18T08:10:01.000Z</time>
        <extensions>
          <ns3:TrackPointExtension>
            <ns3:atemp>25.0</ns3:atemp>
          </ns3:TrackPointExtension>
        </extensions>
      </trkpt>
      <trkpt lat="42.546664215624332427978515625" lon="19.78008993901312351226806640625">
        <ele>1451.199951171875</ele>
        <time>2026-06-18T08:10:02.000Z</time>
        <extensions>
          <ns3:TrackPointExtension>
            <ns3:atemp>25.0</ns3:atemp>
          </ns3:TrackPointExtension>
        </extensions>
      </trkpt>
      <trkpt lat="42.54664602689445018768310546875" lon="19.78008692152798175811767578125">
        <ele>1451.4000244140625</ele>
        <time>2026-06-18T08:10:03.000Z</time>
        <extensions>
          <ns3:TrackPointExtension>
            <ns3:atemp>25.0</ns3:atemp>
          </ns3:TrackPointExtension>
        </extensions>
      </trkpt>
      <trkpt lat="42.5466268323361873626708984375" lon="19.7800831496715545654296875">
        <ele>1451.5999755859375</ele>
        <time>2026-06-18T08:10:04.000Z</time>
        <extensions>
          <ns3:TrackPointExtension>
            <ns3:atemp>25.0</ns3:atemp>
          </ns3:TrackPointExtension>
        </extensions>
      </trkpt>
      <trkpt lat="42.54661065526306629180908203125" lon="19.78007351048290729522705078125">
        <ele>1451.800048828125</ele>
        <time>2026-06-18T08:10:05.000Z</time>
        <extensions>
          <ns3:TrackPointExtension>
            <ns3:atemp>25.0</ns3:atemp>
          </ns3:TrackPointExtension>
        </extensions>
      </trkpt>
      <trkpt lat="42.5465928018093109130859375" lon="19.780062027275562286376953125">
        <ele>1452</ele>
        <time>2026-06-18T08:10:06.000Z</time>
        <extensions>
          <ns3:TrackPointExtension>
            <ns3:atemp>25.0</ns3:atemp>
          </ns3:TrackPointExtension>
        </extensions>
      </trkpt>
      <trkpt lat="42.54657679237425327301025390625" lon="19.78004685603082180023193359375">
        <ele>1452.4000244140625</ele>
        <time>2026-06-18T08:10:07.000Z</time>
        <extensions>
          <ns3:TrackPointExtension>
            <ns3:atemp>25.0</ns3:atemp>
          </ns3:TrackPointExtension>
        </extensions>
      </trkpt>
      <trkpt lat="42.546563632786273956298828125" lon="19.78002506308257579803466796875">
        <ele>1452.5999755859375</ele>
        <time>2026-06-18T08:10:08.000Z</time>
        <extensions>
          <ns3:TrackPointExtension>
            <ns3:atemp>25.0</ns3:atemp>
          </ns3:TrackPointExtension>
        </extensions>
      </trkpt>
      <trkpt lat="42.546552903950214385986328125" lon="19.78000578470528125762939453125">
        <ele>1452.800048828125</ele>
        <time>2026-06-18T08:10:09.000Z</time>
        <extensions>
          <ns3:TrackPointExtension>
            <ns3:atemp>25.0</ns3:atemp>
          </ns3:TrackPointExtension>
        </extensions>
      </trkpt>
      <trkpt lat="42.546542845666408538818359375" lon="19.77998533286154270172119140625">
        <ele>1453</ele>
        <time>2026-06-18T08:10:10.000Z</time>
        <extensions>
          <ns3:TrackPointExtension>
            <ns3:atemp>25.0</ns3:atemp>
          </ns3:TrackPointExtension>
        </extensions>
      </trkpt>
      <trkpt lat="42.5465379841625690460205078125" lon="19.7799642942845821380615234375">
        <ele>1453.199951171875</ele>
        <time>2026-06-18T08:10:11.000Z</time>
        <extensions>
          <ns3:TrackPointExtension>
            <ns3:atemp>25.0</ns3:atemp>
          </ns3:TrackPointExtension>
        </extensions>
      </trkpt>
      <trkpt lat="42.54653119482100009918212890625" lon="19.77994124405086040496826171875">
        <ele>1453.4000244140625</ele>
        <time>2026-06-18T08:10:12.000Z</time>
        <extensions>
          <ns3:TrackPointExtension>
            <ns3:atemp>25.0</ns3:atemp>
          </ns3:TrackPointExtension>
        </extensions>
      </trkpt>
      <trkpt lat="42.54652566276490688323974609375" lon="19.77991794236004352569580078125">
        <ele>1453.5999755859375</ele>
        <time>2026-06-18T08:10:13.000Z</time>
        <extensions>
          <ns3:TrackPointExtension>
            <ns3:atemp>25.0</ns3:atemp>
          </ns3:TrackPointExtension>
        </extensions>
      </trkpt>
      <trkpt lat="42.54652331583201885223388671875" lon="19.7798969037830829620361328125">
        <ele>1453.800048828125</ele>
        <time>2026-06-18T08:10:14.000Z</time>
        <extensions>
          <ns3:TrackPointExtension>
            <ns3:atemp>25.0</ns3:atemp>
          </ns3:TrackPointExtension>
        </extensions>
      </trkpt>
      <trkpt lat="42.54652331583201885223388671875" lon="19.779876954853534698486328125">
        <ele>1454.199951171875</ele>
        <time>2026-06-18T08:10:15.000Z</time>
        <extensions>
          <ns3:TrackPointExtension>
            <ns3:atemp>25.0</ns3:atemp>
          </ns3:TrackPointExtension>
        </extensions>
      </trkpt>
      <trkpt lat="42.54651929251849651336669921875" lon="19.77985977195203304290771484375">
        <ele>1454.4000244140625</ele>
        <time>2026-06-18T08:10:16.000Z</time>
        <extensions>
          <ns3:TrackPointExtension>
            <ns3:atemp>25.0</ns3:atemp>
          </ns3:TrackPointExtension>
        </extensions>
      </trkpt>
      <trkpt lat="42.54651627503335475921630859375" lon="19.7798429243266582489013671875">
        <ele>1454.800048828125</ele>
        <time>2026-06-18T08:10:17.000Z</time>
        <extensions>
          <ns3:TrackPointExtension>
            <ns3:atemp>25.0</ns3:atemp>
          </ns3:TrackPointExtension>
        </extensions>
      </trkpt>
      <trkpt lat="42.54651392810046672821044921875" lon="19.77982071228325366973876953125">
        <ele>1455</ele>
        <time>2026-06-18T08:10:18.000Z</time>
        <extensions>
          <ns3:TrackPointExtension>
            <ns3:atemp>25.0</ns3:atemp>
          </ns3:TrackPointExtension>
        </extensions>
      </trkpt>
      <trkpt lat="42.54650789313018321990966796875" lon="19.77979774586856365203857421875">
        <ele>1455.199951171875</ele>
        <time>2026-06-18T08:10:19.000Z</time>
        <extensions>
          <ns3:TrackPointExtension>
            <ns3:atemp>25.0</ns3:atemp>
          </ns3:TrackPointExtension>
        </extensions>
      </trkpt>
      <trkpt lat="42.5465021096169948577880859375" lon="19.77977578528225421905517578125">
        <ele>1455.4000244140625</ele>
        <time>2026-06-18T08:10:20.000Z</time>
        <extensions>
          <ns3:TrackPointExtension>
            <ns3:atemp>25.0</ns3:atemp>
          </ns3:TrackPointExtension>
        </extensions>
      </trkpt>
      <trkpt lat="42.546495236456394195556640625" lon="19.77975516580045223236083984375">
        <ele>1455.5999755859375</ele>
        <time>2026-06-18T08:10:21.000Z</time>
        <extensions>
          <ns3:TrackPointExtension>
            <ns3:atemp>25.0</ns3:atemp>
          </ns3:TrackPointExtension>
        </extensions>
      </trkpt>
      <trkpt lat="42.54648626782000064849853515625" lon="19.77973672561347484588623046875">
        <ele>1455.5999755859375</ele>
        <time>2026-06-18T08:10:22.000Z</time>
        <extensions>
          <ns3:TrackPointExtension>
            <ns3:atemp>25.0</ns3:atemp>
          </ns3:TrackPointExtension>
        </extensions>
      </trkpt>
      <trkpt lat="42.54647805355489253997802734375" lon="19.77971979416906833648681640625">
        <ele>1455.800048828125</ele>
        <time>2026-06-18T08:10:23.000Z</time>
        <extensions>
          <ns3:TrackPointExtension>
            <ns3:atemp>25.0</ns3:atemp>
          </ns3:TrackPointExtension>
        </extensions>
      </trkpt>
      <trkpt lat="42.5464709289371967315673828125" lon="19.77970235981047153472900390625">
        <ele>1456</ele>
        <time>2026-06-18T08:10:24.000Z</time>
        <extensions>
          <ns3:TrackPointExtension>
            <ns3:atemp>25.0</ns3:atemp>
          </ns3:TrackPointExtension>
        </extensions>
      </trkpt>
      <trkpt lat="42.546462714672088623046875" lon="19.77968417108058929443359375">
        <ele>1456.4000244140625</ele>
        <time>2026-06-18T08:10:25.000Z</time>
        <extensions>
          <ns3:TrackPointExtension>
            <ns3:atemp>25.0</ns3:atemp>
          </ns3:TrackPointExtension>
        </extensions>
      </trkpt>
      <trkpt lat="42.54645240493118762969970703125" lon="19.779665060341358184814453125">
        <ele>1456.5999755859375</ele>
        <time>2026-06-18T08:10:26.000Z</time>
        <extensions>
          <ns3:TrackPointExtension>
            <ns3:atemp>25.0</ns3:atemp>
          </ns3:TrackPointExtension>
        </extensions>
      </trkpt>
      <trkpt lat="42.546439580619335174560546875" lon="19.7796441055834293365478515625">
        <ele>1456.800048828125</ele>
        <time>2026-06-18T08:10:27.000Z</time>
        <extensions>
          <ns3:TrackPointExtension>
            <ns3:atemp>25.0</ns3:atemp>
          </ns3:TrackPointExtension>
        </extensions>
      </trkpt>
      <trkpt lat="42.54643178544938564300537109375" lon="19.7796203009784221649169921875">
        <ele>1457</ele>
        <time>2026-06-18T08:10:28.000Z</time>
        <extensions>
          <ns3:TrackPointExtension>
            <ns3:atemp>25.0</ns3:atemp>
          </ns3:TrackPointExtension>
        </extensions>
      </trkpt>
      <trkpt lat="42.54642424173653125762939453125" lon="19.7796025313436985015869140625">
        <ele>1457.199951171875</ele>
        <time>2026-06-18T08:10:29.000Z</time>
        <extensions>
          <ns3:TrackPointExtension>
            <ns3:atemp>25.0</ns3:atemp>
          </ns3:TrackPointExtension>
        </extensions>
      </trkpt>
      <trkpt lat="42.5464169494807720184326171875" lon="19.7795814089477062225341796875">
        <ele>1457.4000244140625</ele>
        <time>2026-06-18T08:10:30.000Z</time>
        <extensions>
          <ns3:TrackPointExtension>
            <ns3:atemp>25.0</ns3:atemp>
          </ns3:TrackPointExtension>
        </extensions>
      </trkpt>
      <trkpt lat="42.54640881903469562530517578125" lon="19.7795636393129825592041015625">
        <ele>1457.800048828125</ele>
        <time>2026-06-18T08:10:31.000Z</time>
        <extensions>
          <ns3:TrackPointExtension>
            <ns3:atemp>25.0</ns3:atemp>
          </ns3:TrackPointExtension>
        </extensions>
      </trkpt>
      <trkpt lat="42.54639775492250919342041015625" lon="19.77954360656440258026123046875">
        <ele>1458</ele>
        <time>2026-06-18T08:10:32.000Z</time>
        <extensions>
          <ns3:TrackPointExtension>
            <ns3:atemp>25.0</ns3:atemp>
          </ns3:TrackPointExtension>
        </extensions>
      </trkpt>
      <trkpt lat="42.54638887010514736175537109375" lon="19.779523909091949462890625">
        <ele>1458.199951171875</ele>
        <time>2026-06-18T08:10:33.000Z</time>
        <extensions>
          <ns3:TrackPointExtension>
            <ns3:atemp>25.0</ns3:atemp>
          </ns3:TrackPointExtension>
        </extensions>
      </trkpt>
      <trkpt lat="42.546381242573261260986328125" lon="19.7795076481997966766357421875">
        <ele>1458.4000244140625</ele>
        <time>2026-06-18T08:10:34.000Z</time>
        <extensions>
          <ns3:TrackPointExtension>
            <ns3:atemp>25.0</ns3:atemp>
          </ns3:TrackPointExtension>
        </extensions>
      </trkpt>
      <trkpt lat="42.54637462086975574493408203125" lon="19.7794935666024684906005859375">
        <ele>1458.800048828125</ele>
        <time>2026-06-18T08:10:35.000Z</time>
        <extensions>
          <ns3:TrackPointExtension>
            <ns3:atemp>25.0</ns3:atemp>
          </ns3:TrackPointExtension>
        </extensions>
      </trkpt>
      <trkpt lat="42.54636607132852077484130859375" lon="19.77947755716741085052490234375">
        <ele>1459</ele>
        <time>2026-06-18T08:10:36.000Z</time>
        <extensions>
          <ns3:TrackPointExtension>
            <ns3:atemp>25.0</ns3:atemp>
          </ns3:TrackPointExtension>
        </extensions>
      </trkpt>
      <trkpt lat="42.54635601304471492767333984375" lon="19.779459200799465179443359375">
        <ele>1459.199951171875</ele>
        <time>2026-06-18T08:10:37.000Z</time>
        <extensions>
          <ns3:TrackPointExtension>
            <ns3:atemp>25.0</ns3:atemp>
          </ns3:TrackPointExtension>
        </extensions>
      </trkpt>
      <trkpt lat="42.5463406741619110107421875" lon="19.77944285608828067779541015625">
        <ele>1459.4000244140625</ele>
        <time>2026-06-18T08:10:38.000Z</time>
        <extensions>
          <ns3:TrackPointExtension>
            <ns3:atemp>25.0</ns3:atemp>
          </ns3:TrackPointExtension>
        </extensions>
      </trkpt>
      <trkpt lat="42.546324916183948516845703125" lon="19.77942592464387416839599609375">
        <ele>1459.5999755859375</ele>
        <time>2026-06-18T08:10:39.000Z</time>
        <extensions>
          <ns3:TrackPointExtension>
            <ns3:atemp>25.0</ns3:atemp>
          </ns3:TrackPointExtension>
        </extensions>
      </trkpt>
      <trkpt lat="42.5463173724710941314697265625" lon="19.779411256313323974609375">
        <ele>1459.800048828125</ele>
        <time>2026-06-18T08:10:40.000Z</time>
        <extensions>
          <ns3:TrackPointExtension>
            <ns3:atemp>25.0</ns3:atemp>
          </ns3:TrackPointExtension>
        </extensions>
      </trkpt>
      <trkpt lat="42.54630639217793941497802734375" lon="19.7793938219547271728515625">
        <ele>1460</ele>
        <time>2026-06-18T08:10:41.000Z</time>
        <extensions>
          <ns3:TrackPointExtension>
            <ns3:atemp>25.0</ns3:atemp>
          </ns3:TrackPointExtension>
        </extensions>
      </trkpt>
      <trkpt lat="42.54629314877092838287353515625" lon="19.7793772257864475250244140625">
        <ele>1460.199951171875</ele>
        <time>2026-06-18T08:10:42.000Z</time>
        <extensions>
          <ns3:TrackPointExtension>
            <ns3:atemp>25.0</ns3:atemp>
          </ns3:TrackPointExtension>
        </extensions>
      </trkpt>
      <trkpt lat="42.54628124646842479705810546875" lon="19.77936205454170703887939453125">
        <ele>1460.5999755859375</ele>
        <time>2026-06-18T08:10:43.000Z</time>
        <extensions>
          <ns3:TrackPointExtension>
            <ns3:atemp>25.0</ns3:atemp>
          </ns3:TrackPointExtension>
        </extensions>
      </trkpt>
      <trkpt lat="42.5462714396417140960693359375" lon="19.77934260852634906768798828125">
        <ele>1460.800048828125</ele>
        <time>2026-06-18T08:10:44.000Z</time>
        <extensions>
          <ns3:TrackPointExtension>
            <ns3:atemp>25.0</ns3:atemp>
          </ns3:TrackPointExtension>
        </extensions>
      </trkpt>
      <trkpt lat="42.54625794477760791778564453125" lon="19.779323078691959381103515625">
        <ele>1461.199951171875</ele>
        <time>2026-06-18T08:10:45.000Z</time>
        <extensions>
          <ns3:TrackPointExtension>
            <ns3:atemp>25.0</ns3:atemp>
          </ns3:TrackPointExtension>
        </extensions>
      </trkpt>
      <trkpt lat="42.54624470137059688568115234375" lon="19.77930589579045772552490234375">
        <ele>1461.4000244140625</ele>
        <time>2026-06-18T08:10:46.000Z</time>
        <extensions>
          <ns3:TrackPointExtension>
            <ns3:atemp>25.0</ns3:atemp>
          </ns3:TrackPointExtension>
        </extensions>
      </trkpt>
      <trkpt lat="42.54623363725841045379638671875" lon="19.77928762324154376983642578125">
        <ele>1461.5999755859375</ele>
        <time>2026-06-18T08:10:47.000Z</time>
        <extensions>
          <ns3:TrackPointExtension>
            <ns3:atemp>25.0</ns3:atemp>
          </ns3:TrackPointExtension>
        </extensions>
      </trkpt>
      <trkpt lat="42.54622525535523891448974609375" lon="19.7792665846645832061767578125">
        <ele>1461.5999755859375</ele>
        <time>2026-06-18T08:10:48.000Z</time>
        <extensions>
          <ns3:TrackPointExtension>
            <ns3:atemp>25.0</ns3:atemp>
          </ns3:TrackPointExtension>
        </extensions>
      </trkpt>
      <trkpt lat="42.5462144427001476287841796875" lon="19.77924839593470096588134765625">
        <ele>1461.800048828125</ele>
        <time>2026-06-18T08:10:49.000Z</time>
        <extensions>
          <ns3:TrackPointExtension>
            <ns3:atemp>25.0</ns3:atemp>
          </ns3:TrackPointExtension>
        </extensions>
      </trkpt>
      <trkpt lat="42.5462057255208492279052734375" lon="19.77923029102385044097900390625">
        <ele>1461.800048828125</ele>
        <time>2026-06-18T08:10:50.000Z</time>
        <extensions>
          <ns3:TrackPointExtension>
            <ns3:atemp>25.0</ns3:atemp>
          </ns3:TrackPointExtension>
        </extensions>
      </trkpt>
      <trkpt lat="42.54620111547410488128662109375" lon="19.77921520359814167022705078125">
        <ele>1462</ele>
        <time>2026-06-18T08:10:51.000Z</time>
        <extensions>
          <ns3:TrackPointExtension>
            <ns3:atemp>25.0</ns3:atemp>
          </ns3:TrackPointExtension>
        </extensions>
      </trkpt>
      <trkpt lat="42.54619390703737735748291015625" lon="19.77919324301183223724365234375">
        <ele>1462.4000244140625</ele>
        <time>2026-06-18T08:10:52.000Z</time>
        <extensions>
          <ns3:TrackPointExtension>
            <ns3:atemp>25.0</ns3:atemp>
          </ns3:TrackPointExtension>
        </extensions>
      </trkpt>
      <trkpt lat="42.5461851060390472412109375" lon="19.77916960604488849639892578125">
        <ele>1462.800048828125</ele>
        <time>2026-06-18T08:10:53.000Z</time>
        <extensions>
          <ns3:TrackPointExtension>
            <ns3:atemp>25.0</ns3:atemp>
          </ns3:TrackPointExtension>
        </extensions>
      </trkpt>
      <trkpt lat="42.54617395810782909393310546875" lon="19.77914663963019847869873046875">
        <ele>1463</ele>
        <time>2026-06-18T08:10:54.000Z</time>
        <extensions>
          <ns3:TrackPointExtension>
            <ns3:atemp>25.0</ns3:atemp>
          </ns3:TrackPointExtension>
        </extensions>
      </trkpt>
      <trkpt lat="42.54616172052919864654541015625" lon="19.779125265777111053466796875">
        <ele>1463.199951171875</ele>
        <time>2026-06-18T08:10:55.000Z</time>
        <extensions>
          <ns3:TrackPointExtension>
            <ns3:atemp>25.0</ns3:atemp>
          </ns3:TrackPointExtension>
        </extensions>
      </trkpt>
      <trkpt lat="42.546149902045726776123046875" lon="19.77910171262919902801513671875">
        <ele>1463.4000244140625</ele>
        <time>2026-06-18T08:10:56.000Z</time>
        <extensions>
          <ns3:TrackPointExtension>
            <ns3:atemp>25.0</ns3:atemp>
          </ns3:TrackPointExtension>
        </extensions>
      </trkpt>
      <trkpt lat="42.546141855418682098388671875" lon="19.77907589636743068695068359375">
        <ele>1463.5999755859375</ele>
        <time>2026-06-18T08:10:57.000Z</time>
        <extensions>
          <ns3:TrackPointExtension>
            <ns3:atemp>25.0</ns3:atemp>
          </ns3:TrackPointExtension>
        </extensions>
      </trkpt>
      <trkpt lat="42.54613188095390796661376953125" lon="19.77905158884823322296142578125">
        <ele>1463.5999755859375</ele>
        <time>2026-06-18T08:10:58.000Z</time>
        <extensions>
          <ns3:TrackPointExtension>
            <ns3:atemp>25.0</ns3:atemp>
          </ns3:TrackPointExtension>
        </extensions>
      </trkpt>
      <trkpt lat="42.54612048156559467315673828125" lon="19.779029376804828643798828125">
        <ele>1463.800048828125</ele>
        <time>2026-06-18T08:10:59.000Z</time>
        <extensions>
          <ns3:TrackPointExtension>
            <ns3:atemp>25.0</ns3:atemp>
          </ns3:TrackPointExtension>
        </extensions>
      </trkpt>
      <trkpt lat="42.54611092619597911834716796875" lon="19.77901303209364414215087890625">
        <ele>1464</ele>
        <time>2026-06-18T08:11:00.000Z</time>
        <extensions>
          <ns3:TrackPointExtension>
            <ns3:atemp>25.0</ns3:atemp>
          </ns3:TrackPointExtension>
        </extensions>
      </trkpt>
      <trkpt lat="42.54610505886375904083251953125" lon="19.77899710647761821746826171875">
        <ele>1464.199951171875</ele>
        <time>2026-06-18T08:11:01.000Z</time>
        <extensions>
          <ns3:TrackPointExtension>
            <ns3:atemp>25.0</ns3:atemp>
          </ns3:TrackPointExtension>
        </extensions>
      </trkpt>
      <trkpt lat="42.546101622283458709716796875" lon="19.77897179313004016876220703125">
        <ele>1464.4000244140625</ele>
        <time>2026-06-18T08:11:02.000Z</time>
        <extensions>
          <ns3:TrackPointExtension>
            <ns3:atemp>25.0</ns3:atemp>
          </ns3:TrackPointExtension>
        </extensions>
      </trkpt>
      <trkpt lat="42.54609717987477779388427734375" lon="19.77894949726760387420654296875">
        <ele>1464.5999755859375</ele>
        <time>2026-06-18T08:11:03.000Z</time>
        <extensions>
          <ns3:TrackPointExtension>
            <ns3:atemp>25.0</ns3:atemp>
          </ns3:TrackPointExtension>
        </extensions>
      </trkpt>
      <trkpt lat="42.546088211238384246826171875" lon="19.77893172763288021087646484375">
        <ele>1464.800048828125</ele>
        <time>2026-06-18T08:11:04.000Z</time>
        <extensions>
          <ns3:TrackPointExtension>
            <ns3:atemp>25.0</ns3:atemp>
          </ns3:TrackPointExtension>
        </extensions>
      </trkpt>
      <trkpt lat="42.54608108662068843841552734375" lon="19.77891010232269763946533203125">
        <ele>1464.800048828125</ele>
        <time>2026-06-18T08:11:05.000Z</time>
        <extensions>
          <ns3:TrackPointExtension>
            <ns3:atemp>25.0</ns3:atemp>
          </ns3:TrackPointExtension>
        </extensions>
      </trkpt>
      <trkpt lat="42.5460778176784515380859375" lon="19.7788857109844684600830078125">
        <ele>1465</ele>
        <time>2026-06-18T08:11:06.000Z</time>
        <extensions>
          <ns3:TrackPointExtension>
            <ns3:atemp>25.0</ns3:atemp>
          </ns3:TrackPointExtension>
        </extensions>
      </trkpt>
      <trkpt lat="42.54607689566910266876220703125" lon="19.7788632474839687347412109375">
        <ele>1465.199951171875</ele>
        <time>2026-06-18T08:11:07.000Z</time>
        <extensions>
          <ns3:TrackPointExtension>
            <ns3:atemp>25.0</ns3:atemp>
          </ns3:TrackPointExtension>
        </extensions>
      </trkpt>
      <trkpt lat="42.5460736267268657684326171875" lon="19.77884656749665737152099609375">
        <ele>1465.4000244140625</ele>
        <time>2026-06-18T08:11:08.000Z</time>
        <extensions>
          <ns3:TrackPointExtension>
            <ns3:atemp>25.0</ns3:atemp>
          </ns3:TrackPointExtension>
        </extensions>
      </trkpt>
      <trkpt lat="42.54606985487043857574462890625" lon="19.77882544510066509246826171875">
        <ele>1465.5999755859375</ele>
        <time>2026-06-18T08:11:09.000Z</time>
        <extensions>
          <ns3:TrackPointExtension>
            <ns3:atemp>25.0</ns3:atemp>
          </ns3:TrackPointExtension>
        </extensions>
      </trkpt>
      <trkpt lat="42.54606465809047222137451171875" lon="19.77880549617111682891845703125">
        <ele>1465.800048828125</ele>
        <time>2026-06-18T08:11:10.000Z</time>
        <extensions>
          <ns3:TrackPointExtension>
            <ns3:atemp>25.0</ns3:atemp>
          </ns3:TrackPointExtension>
        </extensions>
      </trkpt>
      <trkpt lat="42.5460622273385524749755859375" lon="19.7787827812135219573974609375">
        <ele>1466</ele>
        <time>2026-06-18T08:11:11.000Z</time>
        <extensions>
          <ns3:TrackPointExtension>
            <ns3:atemp>25.0</ns3:atemp>
          </ns3:TrackPointExtension>
        </extensions>
      </trkpt>
      <trkpt lat="42.54605560563504695892333984375" lon="19.778762161731719970703125">
        <ele>1466.199951171875</ele>
        <time>2026-06-18T08:11:12.000Z</time>
        <extensions>
          <ns3:TrackPointExtension>
            <ns3:atemp>25.0</ns3:atemp>
          </ns3:TrackPointExtension>
        </extensions>
      </trkpt>
      <trkpt lat="42.54604772664606571197509765625" lon="19.7787432186305522918701171875">
        <ele>1466.4000244140625</ele>
        <time>2026-06-18T08:11:13.000Z</time>
        <extensions>
          <ns3:TrackPointExtension>
            <ns3:atemp>25.0</ns3:atemp>
          </ns3:TrackPointExtension>
        </extensions>
      </trkpt>
      <trkpt lat="42.546039931476116180419921875" lon="19.77872419171035289764404296875">
        <ele>1466.5999755859375</ele>
        <time>2026-06-18T08:11:14.000Z</time>
        <extensions>
          <ns3:TrackPointExtension>
            <ns3:atemp>25.0</ns3:atemp>
          </ns3:TrackPointExtension>
        </extensions>
      </trkpt>
      <trkpt lat="42.54603984765708446502685546875" lon="19.7787060029804706573486328125">
        <ele>1467</ele>
        <time>2026-06-18T08:11:15.000Z</time>
        <extensions>
          <ns3:TrackPointExtension>
            <ns3:atemp>25.0</ns3:atemp>
          </ns3:TrackPointExtension>
        </extensions>
      </trkpt>
      <trkpt lat="42.5460350699722766876220703125" lon="19.7786902450025081634521484375">
        <ele>1467.199951171875</ele>
        <time>2026-06-18T08:11:16.000Z</time>
        <extensions>
          <ns3:TrackPointExtension>
            <ns3:atemp>25.0</ns3:atemp>
          </ns3:TrackPointExtension>
        </extensions>
      </trkpt>
      <trkpt lat="42.5460268557071685791015625" lon="19.7786724753677845001220703125">
        <ele>1467.5999755859375</ele>
        <time>2026-06-18T08:11:17.000Z</time>
        <extensions>
          <ns3:TrackPointExtension>
            <ns3:atemp>25.0</ns3:atemp>
          </ns3:TrackPointExtension>
        </extensions>
      </trkpt>
      <trkpt lat="42.54601947963237762451171875" lon="19.77865411899983882904052734375">
        <ele>1467.800048828125</ele>
        <time>2026-06-18T08:11:18.000Z</time>
        <extensions>
          <ns3:TrackPointExtension>
            <ns3:atemp>25.0</ns3:atemp>
          </ns3:TrackPointExtension>
        </extensions>
      </trkpt>
      <trkpt lat="42.54601118154823780059814453125" lon="19.77863450534641742706298828125">
        <ele>1468</ele>
        <time>2026-06-18T08:11:19.000Z</time>
        <extensions>
          <ns3:TrackPointExtension>
            <ns3:atemp>25.0</ns3:atemp>
          </ns3:TrackPointExtension>
        </extensions>
      </trkpt>
      <trkpt lat="42.54600330255925655364990234375" lon="19.77861405350267887115478515625">
        <ele>1468.4000244140625</ele>
        <time>2026-06-18T08:11:20.000Z</time>
        <extensions>
          <ns3:TrackPointExtension>
            <ns3:atemp>25.0</ns3:atemp>
          </ns3:TrackPointExtension>
        </extensions>
      </trkpt>
      <trkpt lat="42.5459945015609264373779296875" lon="19.77859091944992542266845703125">
        <ele>1468.5999755859375</ele>
        <time>2026-06-18T08:11:21.000Z</time>
        <extensions>
          <ns3:TrackPointExtension>
            <ns3:atemp>25.0</ns3:atemp>
          </ns3:TrackPointExtension>
        </extensions>
      </trkpt>
      <trkpt lat="42.54598637111485004425048828125" lon="19.77856778539717197418212890625">
        <ele>1468.800048828125</ele>
        <time>2026-06-18T08:11:22.000Z</time>
        <extensions>
          <ns3:TrackPointExtension>
            <ns3:atemp>25.0</ns3:atemp>
          </ns3:TrackPointExtension>
        </extensions>
      </trkpt>
      <trkpt lat="42.5459774024784564971923828125" lon="19.77854649536311626434326171875">
        <ele>1468.800048828125</ele>
        <time>2026-06-18T08:11:23.000Z</time>
        <extensions>
          <ns3:TrackPointExtension>
            <ns3:atemp>25.0</ns3:atemp>
          </ns3:TrackPointExtension>
        </extensions>
      </trkpt>
      <trkpt lat="42.54596994258463382720947265625" lon="19.7785262949764728546142578125">
        <ele>1469.199951171875</ele>
        <time>2026-06-18T08:11:24.000Z</time>
        <extensions>
          <ns3:TrackPointExtension>
            <ns3:atemp>25.0</ns3:atemp>
          </ns3:TrackPointExtension>
        </extensions>
      </trkpt>
      <trkpt lat="42.545962817966938018798828125" lon="19.7785048373043537139892578125">
        <ele>1469.5999755859375</ele>
        <time>2026-06-18T08:11:25.000Z</time>
        <extensions>
          <ns3:TrackPointExtension>
            <ns3:atemp>25.0</ns3:atemp>
          </ns3:TrackPointExtension>
        </extensions>
      </trkpt>
      <trkpt lat="42.54595368169248104095458984375" lon="19.77848916314542293548583984375">
        <ele>1469.800048828125</ele>
        <time>2026-06-18T08:11:26.000Z</time>
        <extensions>
          <ns3:TrackPointExtension>
            <ns3:atemp>25.0</ns3:atemp>
          </ns3:TrackPointExtension>
        </extensions>
      </trkpt>
      <trkpt lat="42.54594848491251468658447265625" lon="19.77846871130168437957763671875">
        <ele>1470.199951171875</ele>
        <time>2026-06-18T08:11:27.000Z</time>
        <extensions>
          <ns3:TrackPointExtension>
            <ns3:atemp>25.0</ns3:atemp>
          </ns3:TrackPointExtension>
        </extensions>
      </trkpt>
      <trkpt lat="42.54594513215124607086181640625" lon="19.7784443199634552001953125">
        <ele>1470.5999755859375</ele>
        <time>2026-06-18T08:11:28.000Z</time>
        <extensions>
          <ns3:TrackPointExtension>
            <ns3:atemp>25.0</ns3:atemp>
          </ns3:TrackPointExtension>
        </extensions>
      </trkpt>
      <trkpt lat="42.5459334813058376312255859375" lon="19.77842026390135288238525390625">
        <ele>1471</ele>
        <time>2026-06-18T08:11:29.000Z</time>
        <extensions>
          <ns3:TrackPointExtension>
            <ns3:atemp>25.0</ns3:atemp>
          </ns3:TrackPointExtension>
        </extensions>
      </trkpt>
      <trkpt lat="42.54592333920300006866455078125" lon="19.7783945314586162567138671875">
        <ele>1471</ele>
        <time>2026-06-18T08:11:30.000Z</time>
        <extensions>
          <ns3:TrackPointExtension>
            <ns3:atemp>25.0</ns3:atemp>
          </ns3:TrackPointExtension>
        </extensions>
      </trkpt>
      <trkpt lat="42.5459116883575916290283203125" lon="19.778378270566463470458984375">
        <ele>1471.199951171875</ele>
        <time>2026-06-18T08:11:31.000Z</time>
        <extensions>
          <ns3:TrackPointExtension>
            <ns3:atemp>25.0</ns3:atemp>
          </ns3:TrackPointExtension>
        </extensions>
      </trkpt>
      <trkpt lat="42.54590548574924468994140625" lon="19.77835672907531261444091796875">
        <ele>1471.4000244140625</ele>
        <time>2026-06-18T08:11:32.000Z</time>
        <extensions>
          <ns3:TrackPointExtension>
            <ns3:atemp>25.0</ns3:atemp>
          </ns3:TrackPointExtension>
        </extensions>
      </trkpt>
      <trkpt lat="42.54589702002704143524169921875" lon="19.77833376266062259674072265625">
        <ele>1471.5999755859375</ele>
        <time>2026-06-18T08:11:33.000Z</time>
        <extensions>
          <ns3:TrackPointExtension>
            <ns3:atemp>25.0</ns3:atemp>
          </ns3:TrackPointExtension>
        </extensions>
      </trkpt>
      <trkpt lat="42.5458898954093456268310546875" lon="19.77831088006496429443359375">
        <ele>1472</ele>
        <time>2026-06-18T08:11:34.000Z</time>
        <extensions>
          <ns3:TrackPointExtension>
            <ns3:atemp>25.0</ns3:atemp>
          </ns3:TrackPointExtension>
        </extensions>
      </trkpt>
      <trkpt lat="42.54588645882904529571533203125" lon="19.77829101495444774627685546875">
        <ele>1472.199951171875</ele>
        <time>2026-06-18T08:11:35.000Z</time>
        <extensions>
          <ns3:TrackPointExtension>
            <ns3:atemp>25.0</ns3:atemp>
          </ns3:TrackPointExtension>
        </extensions>
      </trkpt>
      <trkpt lat="42.54587656818330287933349609375" lon="19.77826754562556743621826171875">
        <ele>1472.4000244140625</ele>
        <time>2026-06-18T08:11:36.000Z</time>
        <extensions>
          <ns3:TrackPointExtension>
            <ns3:atemp>25.0</ns3:atemp>
          </ns3:TrackPointExtension>
        </extensions>
      </trkpt>
      <trkpt lat="42.54587422125041484832763671875" lon="19.77824239991605281829833984375">
        <ele>1472.5999755859375</ele>
        <time>2026-06-18T08:11:37.000Z</time>
        <extensions>
          <ns3:TrackPointExtension>
            <ns3:atemp>25.0</ns3:atemp>
          </ns3:TrackPointExtension>
        </extensions>
      </trkpt>
      <trkpt lat="42.5458697788417339324951171875" lon="19.7782168351113796234130859375">
        <ele>1472.800048828125</ele>
        <time>2026-06-18T08:11:38.000Z</time>
        <extensions>
          <ns3:TrackPointExtension>
            <ns3:atemp>25.0</ns3:atemp>
          </ns3:TrackPointExtension>
        </extensions>
      </trkpt>
      <trkpt lat="42.54586533643305301666259765625" lon="19.77819931693375110626220703125">
        <ele>1473.199951171875</ele>
        <time>2026-06-18T08:11:39.000Z</time>
        <extensions>
          <ns3:TrackPointExtension>
            <ns3:atemp>25.0</ns3:atemp>
          </ns3:TrackPointExtension>
        </extensions>
      </trkpt>
      <trkpt lat="42.54586231894791126251220703125" lon="19.77817433886229991912841796875">
        <ele>1473.4000244140625</ele>
        <time>2026-06-18T08:11:40.000Z</time>
        <extensions>
          <ns3:TrackPointExtension>
            <ns3:atemp>25.0</ns3:atemp>
          </ns3:TrackPointExtension>
        </extensions>
      </trkpt>
      <trkpt lat="42.5458567030727863311767578125" lon="19.7781538031995296478271484375">
        <ele>1473.5999755859375</ele>
        <time>2026-06-18T08:11:41.000Z</time>
        <extensions>
          <ns3:TrackPointExtension>
            <ns3:atemp>25.0</ns3:atemp>
          </ns3:TrackPointExtension>
        </extensions>
      </trkpt>
      <trkpt lat="42.54585309885442256927490234375" lon="19.7781336866319179534912109375">
        <ele>1474</ele>
        <time>2026-06-18T08:11:42.000Z</time>
        <extensions>
          <ns3:TrackPointExtension>
            <ns3:atemp>25.0</ns3:atemp>
          </ns3:TrackPointExtension>
        </extensions>
      </trkpt>
      <trkpt lat="42.5458469800651073455810546875" lon="19.7781092114746570587158203125">
        <ele>1474.199951171875</ele>
        <time>2026-06-18T08:11:43.000Z</time>
        <extensions>
          <ns3:TrackPointExtension>
            <ns3:atemp>25.0</ns3:atemp>
          </ns3:TrackPointExtension>
        </extensions>
      </trkpt>
      <trkpt lat="42.545836083590984344482421875" lon="19.77808314375579357147216796875">
        <ele>1474.5999755859375</ele>
        <time>2026-06-18T08:11:44.000Z</time>
        <extensions>
          <ns3:TrackPointExtension>
            <ns3:atemp>25.0</ns3:atemp>
          </ns3:TrackPointExtension>
        </extensions>
      </trkpt>
      <trkpt lat="42.54582292400300502777099609375" lon="19.77806252427399158477783203125">
        <ele>1474.800048828125</ele>
        <time>2026-06-18T08:11:45.000Z</time>
        <extensions>
          <ns3:TrackPointExtension>
            <ns3:atemp>25.0</ns3:atemp>
          </ns3:TrackPointExtension>
        </extensions>
      </trkpt>
      <trkpt lat="42.54580364562571048736572265625" lon="19.778042994439601898193359375">
        <ele>1475.199951171875</ele>
        <time>2026-06-18T08:11:46.000Z</time>
        <extensions>
          <ns3:TrackPointExtension>
            <ns3:atemp>25.0</ns3:atemp>
          </ns3:TrackPointExtension>
        </extensions>
      </trkpt>
      <trkpt lat="42.5457846187055110931396484375" lon="19.77803553454577922821044921875">
        <ele>1475.4000244140625</ele>
        <time>2026-06-18T08:11:47.000Z</time>
        <extensions>
          <ns3:TrackPointExtension>
            <ns3:atemp>25.0</ns3:atemp>
          </ns3:TrackPointExtension>
        </extensions>
      </trkpt>
      <trkpt lat="42.54576659761369228363037109375" lon="19.778030253946781158447265625">
        <ele>1475.800048828125</ele>
        <time>2026-06-18T08:11:48.000Z</time>
        <extensions>
          <ns3:TrackPointExtension>
            <ns3:atemp>25.0</ns3:atemp>
          </ns3:TrackPointExtension>
        </extensions>
      </trkpt>
      <trkpt lat="42.54575125873088836669921875" lon="19.77803385816514492034912109375">
        <ele>1476.199951171875</ele>
        <time>2026-06-18T08:11:49.000Z</time>
        <extensions>
          <ns3:TrackPointExtension>
            <ns3:atemp>25.0</ns3:atemp>
          </ns3:TrackPointExtension>
        </extensions>
      </trkpt>
      <trkpt lat="42.54573742859065532684326171875" lon="19.77803151123225688934326171875">
        <ele>1476.5999755859375</ele>
        <time>2026-06-18T08:11:50.000Z</time>
        <extensions>
          <ns3:TrackPointExtension>
            <ns3:atemp>25.0</ns3:atemp>
          </ns3:TrackPointExtension>
        </extensions>
      </trkpt>
      <trkpt lat="42.54572183825075626373291015625" lon="19.7780287452042102813720703125">
        <ele>1477</ele>
        <time>2026-06-18T08:11:51.000Z</time>
        <extensions>
          <ns3:TrackPointExtension>
            <ns3:atemp>25.0</ns3:atemp>
          </ns3:TrackPointExtension>
        </extensions>
      </trkpt>
      <trkpt lat="42.54570172168314456939697265625" lon="19.7780290804803371429443359375">
        <ele>1477.199951171875</ele>
        <time>2026-06-18T08:11:52.000Z</time>
        <extensions>
          <ns3:TrackPointExtension>
            <ns3:atemp>25.0</ns3:atemp>
          </ns3:TrackPointExtension>
        </extensions>
      </trkpt>
      <trkpt lat="42.54568512551486492156982421875" lon="19.7780320979654788970947265625">
        <ele>1477.5999755859375</ele>
        <time>2026-06-18T08:11:53.000Z</time>
        <extensions>
          <ns3:TrackPointExtension>
            <ns3:atemp>26.0</ns3:atemp>
          </ns3:TrackPointExtension>
        </extensions>
      </trkpt>
      <trkpt lat="42.54566484130918979644775390625" lon="19.778036959469318389892578125">
        <ele>1477.800048828125</ele>
        <time>2026-06-18T08:11:54.000Z</time>
        <extensions>
          <ns3:TrackPointExtension>
            <ns3:atemp>26.0</ns3:atemp>
          </ns3:TrackPointExtension>
        </extensions>
      </trkpt>
      <trkpt lat="42.54564237780869007110595703125" lon="19.77804089896380901336669921875">
        <ele>1478</ele>
        <time>2026-06-18T08:11:55.000Z</time>
        <extensions>
          <ns3:TrackPointExtension>
            <ns3:atemp>26.0</ns3:atemp>
          </ns3:TrackPointExtension>
        </extensions>
      </trkpt>
      <trkpt lat="42.54562242887914180755615234375" lon="19.7780428268015384674072265625">
        <ele>1478.4000244140625</ele>
        <time>2026-06-18T08:11:56.000Z</time>
        <extensions>
          <ns3:TrackPointExtension>
            <ns3:atemp>26.0</ns3:atemp>
          </ns3:TrackPointExtension>
        </extensions>
      </trkpt>
      <trkpt lat="42.54560214467346668243408203125" lon="19.77804408408701419830322265625">
        <ele>1478.5999755859375</ele>
        <time>2026-06-18T08:11:57.000Z</time>
        <extensions>
          <ns3:TrackPointExtension>
            <ns3:atemp>26.0</ns3:atemp>
          </ns3:TrackPointExtension>
        </extensions>
      </trkpt>
      <trkpt lat="42.54558026790618896484375" lon="19.77804173715412616729736328125">
        <ele>1478.800048828125</ele>
        <time>2026-06-18T08:11:58.000Z</time>
        <extensions>
          <ns3:TrackPointExtension>
            <ns3:atemp>26.0</ns3:atemp>
          </ns3:TrackPointExtension>
        </extensions>
      </trkpt>
      <trkpt lat="42.5455576367676258087158203125" lon="19.7780337743461132049560546875">
        <ele>1479</ele>
        <time>2026-06-18T08:11:59.000Z</time>
        <extensions>
          <ns3:TrackPointExtension>
            <ns3:atemp>26.0</ns3:atemp>
          </ns3:TrackPointExtension>
        </extensions>
      </trkpt>
      <trkpt lat="42.54554179497063159942626953125" lon="19.7780153341591358184814453125">
        <ele>1479.199951171875</ele>
        <time>2026-06-18T08:12:00.000Z</time>
        <extensions>
          <ns3:TrackPointExtension>
            <ns3:atemp>26.0</ns3:atemp>
          </ns3:TrackPointExtension>
        </extensions>
      </trkpt>
      <trkpt lat="42.54552855156362056732177734375" lon="19.77798675186932086944580078125">
        <ele>1479.4000244140625</ele>
        <time>2026-06-18T08:12:01.000Z</time>
        <extensions>
          <ns3:TrackPointExtension>
            <ns3:atemp>26.0</ns3:atemp>
          </ns3:TrackPointExtension>
        </extensions>
      </trkpt>
      <trkpt lat="42.54551933147013187408447265625" lon="19.77796194143593311309814453125">
        <ele>1479.5999755859375</ele>
        <time>2026-06-18T08:12:02.000Z</time>
        <extensions>
          <ns3:TrackPointExtension>
            <ns3:atemp>26.0</ns3:atemp>
          </ns3:TrackPointExtension>
        </extensions>
      </trkpt>
      <trkpt lat="42.54551011137664318084716796875" lon="19.77793863974511623382568359375">
        <ele>1479.800048828125</ele>
        <time>2026-06-18T08:12:03.000Z</time>
        <extensions>
          <ns3:TrackPointExtension>
            <ns3:atemp>26.0</ns3:atemp>
          </ns3:TrackPointExtension>
        </extensions>
      </trkpt>
      <trkpt lat="42.54550315439701080322265625" lon="19.77791257202625274658203125">
        <ele>1480</ele>
        <time>2026-06-18T08:12:04.000Z</time>
        <extensions>
          <ns3:TrackPointExtension>
            <ns3:atemp>26.0</ns3:atemp>
          </ns3:TrackPointExtension>
        </extensions>
      </trkpt>
      <trkpt lat="42.545497454702854156494140625" lon="19.7778882645070552825927734375">
        <ele>1480</ele>
        <time>2026-06-18T08:12:05.000Z</time>
        <extensions>
          <ns3:TrackPointExtension>
            <ns3:atemp>26.0</ns3:atemp>
          </ns3:TrackPointExtension>
        </extensions>
      </trkpt>
      <trkpt lat="42.54549242556095123291015625" lon="19.77786320261657238006591796875">
        <ele>1480.199951171875</ele>
        <time>2026-06-18T08:12:06.000Z</time>
        <extensions>
          <ns3:TrackPointExtension>
            <ns3:atemp>26.0</ns3:atemp>
          </ns3:TrackPointExtension>
        </extensions>
      </trkpt>
      <trkpt lat="42.54548965953290462493896484375" lon="19.7778393141925334930419921875">
        <ele>1480.4000244140625</ele>
        <time>2026-06-18T08:12:07.000Z</time>
        <extensions>
          <ns3:TrackPointExtension>
            <ns3:atemp>26.0</ns3:atemp>
          </ns3:TrackPointExtension>
        </extensions>
      </trkpt>
      <trkpt lat="42.5454865582287311553955078125" lon="19.777815677225589752197265625">
        <ele>1480.800048828125</ele>
        <time>2026-06-18T08:12:08.000Z</time>
        <extensions>
          <ns3:TrackPointExtension>
            <ns3:atemp>26.0</ns3:atemp>
          </ns3:TrackPointExtension>
        </extensions>
      </trkpt>
      <trkpt lat="42.54548178054392337799072265625" lon="19.77778851985931396484375">
        <ele>1481</ele>
        <time>2026-06-18T08:12:09.000Z</time>
        <extensions>
          <ns3:TrackPointExtension>
            <ns3:atemp>26.0</ns3:atemp>
          </ns3:TrackPointExtension>
        </extensions>
      </trkpt>
      <trkpt lat="42.54547993652522563934326171875" lon="19.77776127867400646209716796875">
        <ele>1481.199951171875</ele>
        <time>2026-06-18T08:12:10.000Z</time>
        <extensions>
          <ns3:TrackPointExtension>
            <ns3:atemp>26.0</ns3:atemp>
          </ns3:TrackPointExtension>
        </extensions>
      </trkpt>
      <trkpt lat="42.54547708667814731597900390625" lon="19.7777404077351093292236328125">
        <ele>1481.5999755859375</ele>
        <time>2026-06-18T08:12:11.000Z</time>
        <extensions>
          <ns3:TrackPointExtension>
            <ns3:atemp>26.0</ns3:atemp>
          </ns3:TrackPointExtension>
        </extensions>
      </trkpt>
      <trkpt lat="42.54546920768916606903076171875" lon="19.7777169384062290191650390625">
        <ele>1481.800048828125</ele>
        <time>2026-06-18T08:12:12.000Z</time>
        <extensions>
          <ns3:TrackPointExtension>
            <ns3:atemp>26.0</ns3:atemp>
          </ns3:TrackPointExtension>
        </extensions>
      </trkpt>
      <trkpt lat="42.5454597361385822296142578125" lon="19.77769263088703155517578125">
        <ele>1482.199951171875</ele>
        <time>2026-06-18T08:12:13.000Z</time>
        <extensions>
          <ns3:TrackPointExtension>
            <ns3:atemp>26.0</ns3:atemp>
          </ns3:TrackPointExtension>
        </extensions>
      </trkpt>
      <trkpt lat="42.5454490073025226593017578125" lon="19.77767050266265869140625">
        <ele>1482.5999755859375</ele>
        <time>2026-06-18T08:12:14.000Z</time>
        <extensions>
          <ns3:TrackPointExtension>
            <ns3:atemp>26.0</ns3:atemp>
          </ns3:TrackPointExtension>
        </extensions>
      </trkpt>
      <trkpt lat="42.54543752409517765045166015625" lon="19.77764678187668323516845703125">
        <ele>1482.800048828125</ele>
        <time>2026-06-18T08:12:15.000Z</time>
        <extensions>
          <ns3:TrackPointExtension>
            <ns3:atemp>26.0</ns3:atemp>
          </ns3:TrackPointExtension>
        </extensions>
      </trkpt>
      <trkpt lat="42.5454238615930080413818359375" lon="19.77762230671942234039306640625">
        <ele>1483.199951171875</ele>
        <time>2026-06-18T08:12:16.000Z</time>
        <extensions>
          <ns3:TrackPointExtension>
            <ns3:atemp>26.0</ns3:atemp>
          </ns3:TrackPointExtension>
        </extensions>
      </trkpt>
      <trkpt lat="42.5454117916524410247802734375" lon="19.77759934030473232269287109375">
        <ele>1483.4000244140625</ele>
        <time>2026-06-18T08:12:17.000Z</time>
        <extensions>
          <ns3:TrackPointExtension>
            <ns3:atemp>26.0</ns3:atemp>
          </ns3:TrackPointExtension>
        </extensions>
      </trkpt>
      <trkpt lat="42.545401565730571746826171875" lon="19.777576960623264312744140625">
        <ele>1483.5999755859375</ele>
        <time>2026-06-18T08:12:18.000Z</time>
        <extensions>
          <ns3:TrackPointExtension>
            <ns3:atemp>26.0</ns3:atemp>
          </ns3:TrackPointExtension>
        </extensions>
      </trkpt>
      <trkpt lat="42.545390166342258453369140625" lon="19.77755608968436717987060546875">
        <ele>1483.800048828125</ele>
        <time>2026-06-18T08:12:19.000Z</time>
        <extensions>
          <ns3:TrackPointExtension>
            <ns3:atemp>26.0</ns3:atemp>
          </ns3:TrackPointExtension>
        </extensions>
      </trkpt>
      <trkpt lat="42.54538019187748432159423828125" lon="19.77753496728837490081787109375">
        <ele>1483.800048828125</ele>
        <time>2026-06-18T08:12:20.000Z</time>
        <extensions>
          <ns3:TrackPointExtension>
            <ns3:atemp>26.0</ns3:atemp>
          </ns3:TrackPointExtension>
        </extensions>
      </trkpt>
      <trkpt lat="42.54536778666079044342041015625" lon="19.77751719765365123748779296875">
        <ele>1484</ele>
        <time>2026-06-18T08:12:21.000Z</time>
        <extensions>
          <ns3:TrackPointExtension>
            <ns3:atemp>26.0</ns3:atemp>
          </ns3:TrackPointExtension>
        </extensions>
      </trkpt>
      <trkpt lat="42.5453544594347476959228515625" lon="19.77749825455248355865478515625">
        <ele>1484.4000244140625</ele>
        <time>2026-06-18T08:12:22.000Z</time>
        <extensions>
          <ns3:TrackPointExtension>
            <ns3:atemp>26.0</ns3:atemp>
          </ns3:TrackPointExtension>
        </extensions>
      </trkpt>
      <trkpt lat="42.5453410483896732330322265625" lon="19.77747847326099872589111328125">
        <ele>1484.5999755859375</ele>
        <time>2026-06-18T08:12:23.000Z</time>
        <extensions>
          <ns3:TrackPointExtension>
            <ns3:atemp>26.0</ns3:atemp>
          </ns3:TrackPointExtension>
        </extensions>
      </trkpt>
      <trkpt lat="42.5453294813632965087890625" lon="19.77746355347335338592529296875">
        <ele>1485.199951171875</ele>
        <time>2026-06-18T08:12:24.000Z</time>
        <extensions>
          <ns3:TrackPointExtension>
            <ns3:atemp>26.0</ns3:atemp>
          </ns3:TrackPointExtension>
        </extensions>
      </trkpt>
      <trkpt lat="42.54531363956630229949951171875" lon="19.77744854986667633056640625">
        <ele>1485.5999755859375</ele>
        <time>2026-06-18T08:12:25.000Z</time>
        <extensions>
          <ns3:TrackPointExtension>
            <ns3:atemp>26.0</ns3:atemp>
          </ns3:TrackPointExtension>
        </extensions>
      </trkpt>
      <trkpt lat="42.54529637284576892852783203125" lon="19.77743304334580898284912109375">
        <ele>1485.800048828125</ele>
        <time>2026-06-18T08:12:26.000Z</time>
        <extensions>
          <ns3:TrackPointExtension>
            <ns3:atemp>26.0</ns3:atemp>
          </ns3:TrackPointExtension>
        </extensions>
      </trkpt>
      <trkpt lat="42.5452790223062038421630859375" lon="19.77741770446300506591796875">
        <ele>1486.199951171875</ele>
        <time>2026-06-18T08:12:27.000Z</time>
        <extensions>
          <ns3:TrackPointExtension>
            <ns3:atemp>26.0</ns3:atemp>
          </ns3:TrackPointExtension>
        </extensions>
      </trkpt>
      <trkpt lat="42.54526267759501934051513671875" lon="19.77740228176116943359375">
        <ele>1486.199951171875</ele>
        <time>2026-06-18T08:12:28.000Z</time>
        <extensions>
          <ns3:TrackPointExtension>
            <ns3:atemp>26.0</ns3:atemp>
          </ns3:TrackPointExtension>
        </extensions>
      </trkpt>
      <trkpt lat="42.54524792544543743133544921875" lon="19.77738325484097003936767578125">
        <ele>1486.4000244140625</ele>
        <time>2026-06-18T08:12:29.000Z</time>
        <extensions>
          <ns3:TrackPointExtension>
            <ns3:atemp>26.0</ns3:atemp>
          </ns3:TrackPointExtension>
        </extensions>
      </trkpt>
      <trkpt lat="42.5452351011335849761962890625" lon="19.77736397646367549896240234375">
        <ele>1486.5999755859375</ele>
        <time>2026-06-18T08:12:30.000Z</time>
        <extensions>
          <ns3:TrackPointExtension>
            <ns3:atemp>26.0</ns3:atemp>
          </ns3:TrackPointExtension>
        </extensions>
      </trkpt>
      <trkpt lat="42.54522244445979595184326171875" lon="19.77734469808638095855712890625">
        <ele>1486.800048828125</ele>
        <time>2026-06-18T08:12:31.000Z</time>
        <extensions>
          <ns3:TrackPointExtension>
            <ns3:atemp>26.0</ns3:atemp>
          </ns3:TrackPointExtension>
        </extensions>
      </trkpt>
      <trkpt lat="42.54520718939602375030517578125" lon="19.77732541970908641815185546875">
        <ele>1487.199951171875</ele>
        <time>2026-06-18T08:12:32.000Z</time>
        <extensions>
          <ns3:TrackPointExtension>
            <ns3:atemp>26.0</ns3:atemp>
          </ns3:TrackPointExtension>
        </extensions>
      </trkpt>
      <trkpt lat="42.54519143141806125640869140625" lon="19.77730563841760158538818359375">
        <ele>1487.5999755859375</ele>
        <time>2026-06-18T08:12:33.000Z</time>
        <extensions>
          <ns3:TrackPointExtension>
            <ns3:atemp>26.0</ns3:atemp>
          </ns3:TrackPointExtension>
        </extensions>
      </trkpt>
      <trkpt lat="42.5451777689158916473388671875" lon="19.7772857733070850372314453125">
        <ele>1488.199951171875</ele>
        <time>2026-06-18T08:12:34.000Z</time>
        <extensions>
          <ns3:TrackPointExtension>
            <ns3:atemp>26.0</ns3:atemp>
          </ns3:TrackPointExtension>
        </extensions>
      </trkpt>
      <trkpt lat="42.54516578279435634613037109375" lon="19.77726674638688564300537109375">
        <ele>1488.4000244140625</ele>
        <time>2026-06-18T08:12:35.000Z</time>
        <extensions>
          <ns3:TrackPointExtension>
            <ns3:atemp>26.0</ns3:atemp>
          </ns3:TrackPointExtension>
        </extensions>
      </trkpt>
      <trkpt lat="42.54515371285378932952880859375" lon="19.777249395847320556640625">
        <ele>1488.5999755859375</ele>
        <time>2026-06-18T08:12:36.000Z</time>
        <extensions>
          <ns3:TrackPointExtension>
            <ns3:atemp>26.0</ns3:atemp>
          </ns3:TrackPointExtension>
        </extensions>
      </trkpt>
      <trkpt lat="42.54514331929385662078857421875" lon="19.77723154239356517791748046875">
        <ele>1489</ele>
        <time>2026-06-18T08:12:37.000Z</time>
        <extensions>
          <ns3:TrackPointExtension>
            <ns3:atemp>26.0</ns3:atemp>
          </ns3:TrackPointExtension>
        </extensions>
      </trkpt>
      <trkpt lat="42.5451311655342578887939453125" lon="19.77720983326435089111328125">
        <ele>1489.199951171875</ele>
        <time>2026-06-18T08:12:38.000Z</time>
        <extensions>
          <ns3:TrackPointExtension>
            <ns3:atemp>26.0</ns3:atemp>
          </ns3:TrackPointExtension>
        </extensions>
      </trkpt>
      <trkpt lat="42.5451194308698177337646484375" lon="19.777194745838642120361328125">
        <ele>1489.4000244140625</ele>
        <time>2026-06-18T08:12:39.000Z</time>
        <extensions>
          <ns3:TrackPointExtension>
            <ns3:atemp>26.0</ns3:atemp>
          </ns3:TrackPointExtension>
        </extensions>
      </trkpt>
      <trkpt lat="42.54510627128183841705322265625" lon="19.77717655710875988006591796875">
        <ele>1489.800048828125</ele>
        <time>2026-06-18T08:12:40.000Z</time>
        <extensions>
          <ns3:TrackPointExtension>
            <ns3:atemp>26.0</ns3:atemp>
          </ns3:TrackPointExtension>
        </extensions>
      </trkpt>
      <trkpt lat="42.5450959615409374237060546875" lon="19.7771566919982433319091796875">
        <ele>1490</ele>
        <time>2026-06-18T08:12:41.000Z</time>
        <extensions>
          <ns3:TrackPointExtension>
            <ns3:atemp>26.0</ns3:atemp>
          </ns3:TrackPointExtension>
        </extensions>
      </trkpt>
      <trkpt lat="42.5450828857719898223876953125" lon="19.777135737240314483642578125">
        <ele>1490.199951171875</ele>
        <time>2026-06-18T08:12:42.000Z</time>
        <extensions>
          <ns3:TrackPointExtension>
            <ns3:atemp>26.0</ns3:atemp>
          </ns3:TrackPointExtension>
        </extensions>
      </trkpt>
      <trkpt lat="42.54506637342274188995361328125" lon="19.77711553685367107391357421875">
        <ele>1490.5999755859375</ele>
        <time>2026-06-18T08:12:43.000Z</time>
        <extensions>
          <ns3:TrackPointExtension>
            <ns3:atemp>26.0</ns3:atemp>
          </ns3:TrackPointExtension>
        </extensions>
      </trkpt>
      <trkpt lat="42.54504944197833538055419921875" lon="19.77709827013313770294189453125">
        <ele>1490.800048828125</ele>
        <time>2026-06-18T08:12:44.000Z</time>
        <extensions>
          <ns3:TrackPointExtension>
            <ns3:atemp>26.0</ns3:atemp>
          </ns3:TrackPointExtension>
        </extensions>
      </trkpt>
      <trkpt lat="42.54503401927649974822998046875" lon="19.77708368562161922454833984375">
        <ele>1491</ele>
        <time>2026-06-18T08:12:45.000Z</time>
        <extensions>
          <ns3:TrackPointExtension>
            <ns3:atemp>26.0</ns3:atemp>
          </ns3:TrackPointExtension>
        </extensions>
      </trkpt>
      <trkpt lat="42.54501826129853725433349609375" lon="19.777067005634307861328125">
        <ele>1491.199951171875</ele>
        <time>2026-06-18T08:12:46.000Z</time>
        <extensions>
          <ns3:TrackPointExtension>
            <ns3:atemp>26.0</ns3:atemp>
          </ns3:TrackPointExtension>
        </extensions>
      </trkpt>
      <trkpt lat="42.54500183276832103729248046875" lon="19.7770500741899013519287109375">
        <ele>1491.4000244140625</ele>
        <time>2026-06-18T08:12:47.000Z</time>
        <extensions>
          <ns3:TrackPointExtension>
            <ns3:atemp>26.0</ns3:atemp>
          </ns3:TrackPointExtension>
        </extensions>
      </trkpt>
      <trkpt lat="42.54498858936131000518798828125" lon="19.77703339420258998870849609375">
        <ele>1491.5999755859375</ele>
        <time>2026-06-18T08:12:48.000Z</time>
        <extensions>
          <ns3:TrackPointExtension>
            <ns3:atemp>26.0</ns3:atemp>
          </ns3:TrackPointExtension>
        </extensions>
      </trkpt>
      <trkpt lat="42.54497341811656951904296875" lon="19.7770188935101032257080078125">
        <ele>1492</ele>
        <time>2026-06-18T08:12:49.000Z</time>
        <extensions>
          <ns3:TrackPointExtension>
            <ns3:atemp>26.0</ns3:atemp>
          </ns3:TrackPointExtension>
        </extensions>
      </trkpt>
      <trkpt lat="42.54495992325246334075927734375" lon="19.77700003422796726226806640625">
        <ele>1492.4000244140625</ele>
        <time>2026-06-18T08:12:50.000Z</time>
        <extensions>
          <ns3:TrackPointExtension>
            <ns3:atemp>26.0</ns3:atemp>
          </ns3:TrackPointExtension>
        </extensions>
      </trkpt>
      <trkpt lat="42.54494600929319858551025390625" lon="19.77698595263063907623291015625">
        <ele>1492.5999755859375</ele>
        <time>2026-06-18T08:12:51.000Z</time>
        <extensions>
          <ns3:TrackPointExtension>
            <ns3:atemp>26.0</ns3:atemp>
          </ns3:TrackPointExtension>
        </extensions>
      </trkpt>
      <trkpt lat="42.54493276588618755340576171875" lon="19.7769672609865665435791015625">
        <ele>1493</ele>
        <time>2026-06-18T08:12:52.000Z</time>
        <extensions>
          <ns3:TrackPointExtension>
            <ns3:atemp>26.0</ns3:atemp>
          </ns3:TrackPointExtension>
        </extensions>
      </trkpt>
      <trkpt lat="42.54492052830755710601806640625" lon="19.7769515030086040496826171875">
        <ele>1493.199951171875</ele>
        <time>2026-06-18T08:12:53.000Z</time>
        <extensions>
          <ns3:TrackPointExtension>
            <ns3:atemp>26.0</ns3:atemp>
          </ns3:TrackPointExtension>
        </extensions>
      </trkpt>
      <trkpt lat="42.5449072010815143585205078125" lon="19.77693918161094188690185546875">
        <ele>1493.5999755859375</ele>
        <time>2026-06-18T08:12:54.000Z</time>
        <extensions>
          <ns3:TrackPointExtension>
            <ns3:atemp>26.0</ns3:atemp>
          </ns3:TrackPointExtension>
        </extensions>
      </trkpt>
      <trkpt lat="42.5448958016932010650634765625" lon="19.77692325599491596221923828125">
        <ele>1493.800048828125</ele>
        <time>2026-06-18T08:12:55.000Z</time>
        <extensions>
          <ns3:TrackPointExtension>
            <ns3:atemp>26.0</ns3:atemp>
          </ns3:TrackPointExtension>
        </extensions>
      </trkpt>
      <trkpt lat="42.54487979225814342498779296875" lon="19.7769035585224628448486328125">
        <ele>1494.199951171875</ele>
        <time>2026-06-18T08:12:56.000Z</time>
        <extensions>
          <ns3:TrackPointExtension>
            <ns3:atemp>26.0</ns3:atemp>
          </ns3:TrackPointExtension>
        </extensions>
      </trkpt>
      <trkpt lat="42.54486906342208385467529296875" lon="19.7768805921077728271484375">
        <ele>1494.4000244140625</ele>
        <time>2026-06-18T08:12:57.000Z</time>
        <extensions>
          <ns3:TrackPointExtension>
            <ns3:atemp>26.0</ns3:atemp>
          </ns3:TrackPointExtension>
        </extensions>
      </trkpt>
      <trkpt lat="42.54485632292926311492919921875" lon="19.77685846388339996337890625">
        <ele>1494.800048828125</ele>
        <time>2026-06-18T08:12:58.000Z</time>
        <extensions>
          <ns3:TrackPointExtension>
            <ns3:atemp>26.0</ns3:atemp>
          </ns3:TrackPointExtension>
        </extensions>
      </trkpt>
      <trkpt lat="42.54484391771256923675537109375" lon="19.776836670935153961181640625">
        <ele>1495</ele>
        <time>2026-06-18T08:12:59.000Z</time>
        <extensions>
          <ns3:TrackPointExtension>
            <ns3:atemp>26.0</ns3:atemp>
          </ns3:TrackPointExtension>
        </extensions>
      </trkpt>
      <trkpt lat="42.54483452998101711273193359375" lon="19.77681445889174938201904296875">
        <ele>1495.4000244140625</ele>
        <time>2026-06-18T08:13:00.000Z</time>
        <extensions>
          <ns3:TrackPointExtension>
            <ns3:atemp>26.0</ns3:atemp>
          </ns3:TrackPointExtension>
        </extensions>
      </trkpt>
      <trkpt lat="42.54482363350689411163330078125" lon="19.77679534815251827239990234375">
        <ele>1495.800048828125</ele>
        <time>2026-06-18T08:13:01.000Z</time>
        <extensions>
          <ns3:TrackPointExtension>
            <ns3:atemp>26.0</ns3:atemp>
          </ns3:TrackPointExtension>
        </extensions>
      </trkpt>
      <trkpt lat="42.54481424577534198760986328125" lon="19.77677439339458942413330078125">
        <ele>1496</ele>
        <time>2026-06-18T08:13:02.000Z</time>
        <extensions>
          <ns3:TrackPointExtension>
            <ns3:atemp>26.0</ns3:atemp>
          </ns3:TrackPointExtension>
        </extensions>
      </trkpt>
      <trkpt lat="42.5448042713105678558349609375" lon="19.77675385773181915283203125">
        <ele>1496.4000244140625</ele>
        <time>2026-06-18T08:13:03.000Z</time>
        <extensions>
          <ns3:TrackPointExtension>
            <ns3:atemp>26.0</ns3:atemp>
          </ns3:TrackPointExtension>
        </extensions>
      </trkpt>
      <trkpt lat="42.5447932071983814239501953125" lon="19.7767298854887485504150390625">
        <ele>1496.800048828125</ele>
        <time>2026-06-18T08:13:04.000Z</time>
        <extensions>
          <ns3:TrackPointExtension>
            <ns3:atemp>26.0</ns3:atemp>
          </ns3:TrackPointExtension>
        </extensions>
      </trkpt>
      <trkpt lat="42.5447794608771800994873046875" lon="19.77671136148273944854736328125">
        <ele>1497.199951171875</ele>
        <time>2026-06-18T08:13:05.000Z</time>
        <extensions>
          <ns3:TrackPointExtension>
            <ns3:atemp>26.0</ns3:atemp>
          </ns3:TrackPointExtension>
        </extensions>
      </trkpt>
      <trkpt lat="42.54476915113627910614013671875" lon="19.77668621577322483062744140625">
        <ele>1497.5999755859375</ele>
        <time>2026-06-18T08:13:06.000Z</time>
        <extensions>
          <ns3:TrackPointExtension>
            <ns3:atemp>26.0</ns3:atemp>
          </ns3:TrackPointExtension>
        </extensions>
      </trkpt>
      <trkpt lat="42.544760517776012420654296875" lon="19.7766638360917568206787109375">
        <ele>1498</ele>
        <time>2026-06-18T08:13:07.000Z</time>
        <extensions>
          <ns3:TrackPointExtension>
            <ns3:atemp>26.0</ns3:atemp>
          </ns3:TrackPointExtension>
        </extensions>
      </trkpt>
      <trkpt lat="42.5447529740631580352783203125" lon="19.77664028294384479522705078125">
        <ele>1498.4000244140625</ele>
        <time>2026-06-18T08:13:08.000Z</time>
        <extensions>
          <ns3:TrackPointExtension>
            <ns3:atemp>26.0</ns3:atemp>
          </ns3:TrackPointExtension>
        </extensions>
      </trkpt>
      <trkpt lat="42.54474132321774959564208984375" lon="19.7766232676804065704345703125">
        <ele>1498.800048828125</ele>
        <time>2026-06-18T08:13:09.000Z</time>
        <extensions>
          <ns3:TrackPointExtension>
            <ns3:atemp>26.0</ns3:atemp>
          </ns3:TrackPointExtension>
        </extensions>
      </trkpt>
      <trkpt lat="42.5447355397045612335205078125" lon="19.77659669704735279083251953125">
        <ele>1499</ele>
        <time>2026-06-18T08:13:10.000Z</time>
        <extensions>
          <ns3:TrackPointExtension>
            <ns3:atemp>26.0</ns3:atemp>
          </ns3:TrackPointExtension>
        </extensions>
      </trkpt>
      <trkpt lat="42.5447315163910388946533203125" lon="19.77657238952815532684326171875">
        <ele>1499</ele>
        <time>2026-06-18T08:13:11.000Z</time>
        <extensions>
          <ns3:TrackPointExtension>
            <ns3:atemp>26.0</ns3:atemp>
          </ns3:TrackPointExtension>
        </extensions>
      </trkpt>
      <trkpt lat="42.5447258166968822479248046875" lon="19.7765471599996089935302734375">
        <ele>1499</ele>
        <time>2026-06-18T08:13:12.000Z</time>
        <extensions>
          <ns3:TrackPointExtension>
            <ns3:atemp>26.0</ns3:atemp>
          </ns3:TrackPointExtension>
        </extensions>
      </trkpt>
      <trkpt lat="42.54471852444112300872802734375" lon="19.7765226848423480987548828125">
        <ele>1499</ele>
        <time>2026-06-18T08:13:13.000Z</time>
        <extensions>
          <ns3:TrackPointExtension>
            <ns3:atemp>26.0</ns3:atemp>
          </ns3:TrackPointExtension>
        </extensions>
      </trkpt>
      <trkpt lat="42.54471265710890293121337890625" lon="19.77649359963834285736083984375">
        <ele>1499</ele>
        <time>2026-06-18T08:13:14.000Z</time>
        <extensions>
          <ns3:TrackPointExtension>
            <ns3:atemp>26.0</ns3:atemp>
          </ns3:TrackPointExtension>
        </extensions>
      </trkpt>
      <trkpt lat="42.54470695741474628448486328125" lon="19.77646929211914539337158203125">
        <ele>1499</ele>
        <time>2026-06-18T08:13:15.000Z</time>
        <extensions>
          <ns3:TrackPointExtension>
            <ns3:atemp>26.0</ns3:atemp>
          </ns3:TrackPointExtension>
        </extensions>
      </trkpt>
      <trkpt lat="42.54470259882509708404541015625" lon="19.77644297294318675994873046875">
        <ele>1499.199951171875</ele>
        <time>2026-06-18T08:13:16.000Z</time>
        <extensions>
          <ns3:TrackPointExtension>
            <ns3:atemp>26.0</ns3:atemp>
          </ns3:TrackPointExtension>
        </extensions>
      </trkpt>
      <trkpt lat="42.54469849169254302978515625" lon="19.7764190845191478729248046875">
        <ele>1499.199951171875</ele>
        <time>2026-06-18T08:13:17.000Z</time>
        <extensions>
          <ns3:TrackPointExtension>
            <ns3:atemp>26.0</ns3:atemp>
          </ns3:TrackPointExtension>
        </extensions>
      </trkpt>
      <trkpt lat="42.544692791998386383056640625" lon="19.7763912566006183624267578125">
        <ele>1499.4000244140625</ele>
        <time>2026-06-18T08:13:18.000Z</time>
        <extensions>
          <ns3:TrackPointExtension>
            <ns3:atemp>26.0</ns3:atemp>
          </ns3:TrackPointExtension>
        </extensions>
      </trkpt>
      <trkpt lat="42.5446855835616588592529296875" lon="19.77636451832950115203857421875">
        <ele>1499.5999755859375</ele>
        <time>2026-06-18T08:13:19.000Z</time>
        <extensions>
          <ns3:TrackPointExtension>
            <ns3:atemp>26.0</ns3:atemp>
          </ns3:TrackPointExtension>
        </extensions>
      </trkpt>
      <trkpt lat="42.54467795602977275848388671875" lon="19.7763352654874324798583984375">
        <ele>1499.5999755859375</ele>
        <time>2026-06-18T08:13:20.000Z</time>
        <extensions>
          <ns3:TrackPointExtension>
            <ns3:atemp>26.0</ns3:atemp>
          </ns3:TrackPointExtension>
        </extensions>
      </trkpt>
      <trkpt lat="42.54466907121241092681884765625" lon="19.77630450390279293060302734375">
        <ele>1499.800048828125</ele>
        <time>2026-06-18T08:13:21.000Z</time>
        <extensions>
          <ns3:TrackPointExtension>
            <ns3:atemp>26.0</ns3:atemp>
          </ns3:TrackPointExtension>
        </extensions>
      </trkpt>
      <trkpt lat="42.5446577556431293487548828125" lon="19.77627969346940517425537109375">
        <ele>1499.800048828125</ele>
        <time>2026-06-18T08:13:22.000Z</time>
        <extensions>
          <ns3:TrackPointExtension>
            <ns3:atemp>26.0</ns3:atemp>
          </ns3:TrackPointExtension>
        </extensions>
      </trkpt>
      <trkpt lat="42.54464426077902317047119140625" lon="19.7762547992169857025146484375">
        <ele>1500.199951171875</ele>
        <time>2026-06-18T08:13:23.000Z</time>
        <extensions>
          <ns3:TrackPointExtension>
            <ns3:atemp>26.0</ns3:atemp>
          </ns3:TrackPointExtension>
        </extensions>
      </trkpt>
      <trkpt lat="42.5446282513439655303955078125" lon="19.776230491697788238525390625">
        <ele>1500.199951171875</ele>
        <time>2026-06-18T08:13:24.000Z</time>
        <extensions>
          <ns3:TrackPointExtension>
            <ns3:atemp>26.0</ns3:atemp>
          </ns3:TrackPointExtension>
        </extensions>
      </trkpt>
      <trkpt lat="42.54461173899471759796142578125" lon="19.77620576508343219757080078125">
        <ele>1500.4000244140625</ele>
        <time>2026-06-18T08:13:25.000Z</time>
        <extensions>
          <ns3:TrackPointExtension>
            <ns3:atemp>26.0</ns3:atemp>
          </ns3:TrackPointExtension>
        </extensions>
      </trkpt>
      <trkpt lat="42.54459430463612079620361328125" lon="19.776181541383266448974609375">
        <ele>1500.5999755859375</ele>
        <time>2026-06-18T08:13:26.000Z</time>
        <extensions>
          <ns3:TrackPointExtension>
            <ns3:atemp>26.0</ns3:atemp>
          </ns3:TrackPointExtension>
        </extensions>
      </trkpt>
      <trkpt lat="42.54457645118236541748046875" lon="19.77616083808243274688720703125">
        <ele>1500.800048828125</ele>
        <time>2026-06-18T08:13:27.000Z</time>
        <extensions>
          <ns3:TrackPointExtension>
            <ns3:atemp>26.0</ns3:atemp>
          </ns3:TrackPointExtension>
        </extensions>
      </trkpt>
      <trkpt lat="42.5445605255663394927978515625" lon="19.776145331561565399169921875">
        <ele>1501</ele>
        <time>2026-06-18T08:13:28.000Z</time>
        <extensions>
          <ns3:TrackPointExtension>
            <ns3:atemp>26.0</ns3:atemp>
          </ns3:TrackPointExtension>
        </extensions>
      </trkpt>
      <trkpt lat="42.5445449352264404296875" lon="19.7761304117739200592041015625">
        <ele>1501.199951171875</ele>
        <time>2026-06-18T08:13:29.000Z</time>
        <extensions>
          <ns3:TrackPointExtension>
            <ns3:atemp>26.0</ns3:atemp>
          </ns3:TrackPointExtension>
        </extensions>
      </trkpt>
      <trkpt lat="42.5445275008678436279296875" lon="19.7761133126914501190185546875">
        <ele>1501.199951171875</ele>
        <time>2026-06-18T08:13:30.000Z</time>
        <extensions>
          <ns3:TrackPointExtension>
            <ns3:atemp>26.0</ns3:atemp>
          </ns3:TrackPointExtension>
        </extensions>
      </trkpt>
      <trkpt lat="42.54450646229088306427001953125" lon="19.77609277702867984771728515625">
        <ele>1501.4000244140625</ele>
        <time>2026-06-18T08:13:31.000Z</time>
        <extensions>
          <ns3:TrackPointExtension>
            <ns3:atemp>26.0</ns3:atemp>
          </ns3:TrackPointExtension>
        </extensions>
      </trkpt>
      <trkpt lat="42.54448701627552509307861328125" lon="19.77607098408043384552001953125">
        <ele>1501.4000244140625</ele>
        <time>2026-06-18T08:13:32.000Z</time>
        <extensions>
          <ns3:TrackPointExtension>
            <ns3:atemp>26.0</ns3:atemp>
          </ns3:TrackPointExtension>
        </extensions>
      </trkpt>
      <trkpt lat="42.5444676540791988372802734375" lon="19.7760506160557270050048828125">
        <ele>1501.5999755859375</ele>
        <time>2026-06-18T08:13:33.000Z</time>
        <extensions>
          <ns3:TrackPointExtension>
            <ns3:atemp>26.0</ns3:atemp>
          </ns3:TrackPointExtension>
        </extensions>
      </trkpt>
      <trkpt lat="42.544450052082538604736328125" lon="19.7760268114507198333740234375">
        <ele>1501.5999755859375</ele>
        <time>2026-06-18T08:13:34.000Z</time>
        <extensions>
          <ns3:TrackPointExtension>
            <ns3:atemp>26.0</ns3:atemp>
          </ns3:TrackPointExtension>
        </extensions>
      </trkpt>
      <trkpt lat="42.54443488083779811859130859375" lon="19.77600074373185634613037109375">
        <ele>1501.5999755859375</ele>
        <time>2026-06-18T08:13:35.000Z</time>
        <extensions>
          <ns3:TrackPointExtension>
            <ns3:atemp>26.0</ns3:atemp>
          </ns3:TrackPointExtension>
        </extensions>
      </trkpt>
      <trkpt lat="42.5444150157272815704345703125" lon="19.77597534656524658203125">
        <ele>1501.5999755859375</ele>
        <time>2026-06-18T08:13:36.000Z</time>
        <extensions>
          <ns3:TrackPointExtension>
            <ns3:atemp>26.0</ns3:atemp>
          </ns3:TrackPointExtension>
        </extensions>
      </trkpt>
      <trkpt lat="42.54439397715032100677490234375" lon="19.77594316005706787109375">
        <ele>1501.5999755859375</ele>
        <time>2026-06-18T08:13:37.000Z</time>
        <extensions>
          <ns3:TrackPointExtension>
            <ns3:atemp>26.0</ns3:atemp>
          </ns3:TrackPointExtension>
        </extensions>
      </trkpt>
      <trkpt lat="42.544367574155330657958984375" lon="19.775920026004314422607421875">
        <ele>1501.4000244140625</ele>
        <time>2026-06-18T08:13:38.000Z</time>
        <extensions>
          <ns3:TrackPointExtension>
            <ns3:atemp>26.0</ns3:atemp>
          </ns3:TrackPointExtension>
        </extensions>
      </trkpt>
      <trkpt lat="42.54434175789356231689453125" lon="19.7759024240076541900634765625">
        <ele>1501.199951171875</ele>
        <time>2026-06-18T08:13:39.000Z</time>
        <extensions>
          <ns3:TrackPointExtension>
            <ns3:atemp>26.0</ns3:atemp>
          </ns3:TrackPointExtension>
        </extensions>
      </trkpt>
      <trkpt lat="42.54431761801242828369140625" lon="19.77588373236358165740966796875">
        <ele>1501.199951171875</ele>
        <time>2026-06-18T08:13:40.000Z</time>
        <extensions>
          <ns3:TrackPointExtension>
            <ns3:atemp>26.0</ns3:atemp>
          </ns3:TrackPointExtension>
        </extensions>
      </trkpt>
      <trkpt lat="42.54429557360708713531494140625" lon="19.77586277760565280914306640625">
        <ele>1501.199951171875</ele>
        <time>2026-06-18T08:13:41.000Z</time>
        <extensions>
          <ns3:TrackPointExtension>
            <ns3:atemp>26.0</ns3:atemp>
          </ns3:TrackPointExtension>
        </extensions>
      </trkpt>
      <trkpt lat="42.54427428357303142547607421875" lon="19.7758345305919647216796875">
        <ele>1501.4000244140625</ele>
        <time>2026-06-18T08:13:42.000Z</time>
        <extensions>
          <ns3:TrackPointExtension>
            <ns3:atemp>26.0</ns3:atemp>
          </ns3:TrackPointExtension>
        </extensions>
      </trkpt>
      <trkpt lat="42.5442510657012462615966796875" lon="19.7758102230727672576904296875">
        <ele>1501.4000244140625</ele>
        <time>2026-06-18T08:13:43.000Z</time>
        <extensions>
          <ns3:TrackPointExtension>
            <ns3:atemp>26.0</ns3:atemp>
          </ns3:TrackPointExtension>
        </extensions>
      </trkpt>
      <trkpt lat="42.54422902129590511322021484375" lon="19.7757835686206817626953125">
        <ele>1501.5999755859375</ele>
        <time>2026-06-18T08:13:44.000Z</time>
        <extensions>
          <ns3:TrackPointExtension>
            <ns3:atemp>26.0</ns3:atemp>
          </ns3:TrackPointExtension>
        </extensions>
      </trkpt>
      <trkpt lat="42.5442094914615154266357421875" lon="19.775755070149898529052734375">
        <ele>1501.800048828125</ele>
        <time>2026-06-18T08:13:45.000Z</time>
        <extensions>
          <ns3:TrackPointExtension>
            <ns3:atemp>26.0</ns3:atemp>
          </ns3:TrackPointExtension>
        </extensions>
      </trkpt>
      <trkpt lat="42.5441920571029186248779296875" lon="19.77572749368846416473388671875">
        <ele>1502</ele>
        <time>2026-06-18T08:13:46.000Z</time>
        <extensions>
          <ns3:TrackPointExtension>
            <ns3:atemp>26.0</ns3:atemp>
          </ns3:TrackPointExtension>
        </extensions>
      </trkpt>
      <trkpt lat="42.54417814314365386962890625" lon="19.77569706737995147705078125">
        <ele>1502.199951171875</ele>
        <time>2026-06-18T08:13:47.000Z</time>
        <extensions>
          <ns3:TrackPointExtension>
            <ns3:atemp>26.0</ns3:atemp>
          </ns3:TrackPointExtension>
        </extensions>
      </trkpt>
      <trkpt lat="42.5441682524979114532470703125" lon="19.7756600193679332733154296875">
        <ele>1502.4000244140625</ele>
        <time>2026-06-18T08:13:48.000Z</time>
        <extensions>
          <ns3:TrackPointExtension>
            <ns3:atemp>26.0</ns3:atemp>
          </ns3:TrackPointExtension>
        </extensions>
      </trkpt>
      <trkpt lat="42.5441605411469936370849609375" lon="19.77562129497528076171875">
        <ele>1502.4000244140625</ele>
        <time>2026-06-18T08:13:49.000Z</time>
        <extensions>
          <ns3:TrackPointExtension>
            <ns3:atemp>26.0</ns3:atemp>
          </ns3:TrackPointExtension>
        </extensions>
      </trkpt>
      <trkpt lat="42.54415559582412242889404296875" lon="19.7755762003362178802490234375">
        <ele>1502.4000244140625</ele>
        <time>2026-06-18T08:13:50.000Z</time>
        <extensions>
          <ns3:TrackPointExtension>
            <ns3:atemp>26.0</ns3:atemp>
          </ns3:TrackPointExtension>
        </extensions>
      </trkpt>
      <trkpt lat="42.54415534436702728271484375" lon="19.7755342908203601837158203125">
        <ele>1502.4000244140625</ele>
        <time>2026-06-18T08:13:51.000Z</time>
        <extensions>
          <ns3:TrackPointExtension>
            <ns3:atemp>26.0</ns3:atemp>
          </ns3:TrackPointExtension>
        </extensions>
      </trkpt>
      <trkpt lat="42.54415358416736125946044921875" lon="19.7754974104464054107666015625">
        <ele>1502.4000244140625</ele>
        <time>2026-06-18T08:13:52.000Z</time>
        <extensions>
          <ns3:TrackPointExtension>
            <ns3:atemp>26.0</ns3:atemp>
          </ns3:TrackPointExtension>
        </extensions>
      </trkpt>
      <trkpt lat="42.54414997994899749755859375" lon="19.77546161971986293792724609375">
        <ele>1502.4000244140625</ele>
        <time>2026-06-18T08:13:53.000Z</time>
        <extensions>
          <ns3:TrackPointExtension>
            <ns3:atemp>26.0</ns3:atemp>
          </ns3:TrackPointExtension>
        </extensions>
      </trkpt>
      <trkpt lat="42.54415576346218585968017578125" lon="19.7754293493926525115966796875">
        <ele>1502.5999755859375</ele>
        <time>2026-06-18T08:13:54.000Z</time>
        <extensions>
          <ns3:TrackPointExtension>
            <ns3:atemp>26.0</ns3:atemp>
          </ns3:TrackPointExtension>
        </extensions>
      </trkpt>
      <trkpt lat="42.5441605411469936370849609375" lon="19.77539657615125179290771484375">
        <ele>1503</ele>
        <time>2026-06-18T08:13:55.000Z</time>
        <extensions>
          <ns3:TrackPointExtension>
            <ns3:atemp>26.0</ns3:atemp>
          </ns3:TrackPointExtension>
        </extensions>
      </trkpt>
      <trkpt lat="42.54416163079440593719482421875" lon="19.7753619588911533355712890625">
        <ele>1503.4000244140625</ele>
        <time>2026-06-18T08:13:56.000Z</time>
        <extensions>
          <ns3:TrackPointExtension>
            <ns3:atemp>26.0</ns3:atemp>
          </ns3:TrackPointExtension>
        </extensions>
      </trkpt>
      <trkpt lat="42.544161714613437652587890625" lon="19.77532683871686458587646484375">
        <ele>1503.5999755859375</ele>
        <time>2026-06-18T08:13:57.000Z</time>
        <extensions>
          <ns3:TrackPointExtension>
            <ns3:atemp>26.0</ns3:atemp>
          </ns3:TrackPointExtension>
        </extensions>
      </trkpt>
      <trkpt lat="42.54416146315634250640869140625" lon="19.77529079653322696685791015625">
        <ele>1503.800048828125</ele>
        <time>2026-06-18T08:13:58.000Z</time>
        <extensions>
          <ns3:TrackPointExtension>
            <ns3:atemp>26.0</ns3:atemp>
          </ns3:TrackPointExtension>
        </extensions>
      </trkpt>
      <trkpt lat="42.54415961913764476776123046875" lon="19.7752550058066844940185546875">
        <ele>1503.800048828125</ele>
        <time>2026-06-18T08:13:59.000Z</time>
        <extensions>
          <ns3:TrackPointExtension>
            <ns3:atemp>26.0</ns3:atemp>
          </ns3:TrackPointExtension>
        </extensions>
      </trkpt>
      <trkpt lat="42.5441585294902324676513671875" lon="19.77521602995693683624267578125">
        <ele>1503.800048828125</ele>
        <time>2026-06-18T08:14:00.000Z</time>
        <extensions>
          <ns3:TrackPointExtension>
            <ns3:atemp>26.0</ns3:atemp>
          </ns3:TrackPointExtension>
        </extensions>
      </trkpt>
      <trkpt lat="42.54415894858539104461669921875" lon="19.77517629973590373992919921875">
        <ele>1503.800048828125</ele>
        <time>2026-06-18T08:14:01.000Z</time>
        <extensions>
          <ns3:TrackPointExtension>
            <ns3:atemp>26.0</ns3:atemp>
          </ns3:TrackPointExtension>
        </extensions>
      </trkpt>
      <trkpt lat="42.54416045732796192169189453125" lon="19.7751343064010143280029296875">
        <ele>1503.800048828125</ele>
        <time>2026-06-18T08:14:02.000Z</time>
        <extensions>
          <ns3:TrackPointExtension>
            <ns3:atemp>26.0</ns3:atemp>
          </ns3:TrackPointExtension>
        </extensions>
      </trkpt>
      <trkpt lat="42.54415802657604217529296875" lon="19.7750954143702983856201171875">
        <ele>1504</ele>
        <time>2026-06-18T08:14:03.000Z</time>
        <extensions>
          <ns3:TrackPointExtension>
            <ns3:atemp>26.0</ns3:atemp>
          </ns3:TrackPointExtension>
        </extensions>
      </trkpt>
      <trkpt lat="42.54415844567120075225830078125" lon="19.7750571928918361663818359375">
        <ele>1504.199951171875</ele>
        <time>2026-06-18T08:14:04.000Z</time>
        <extensions>
          <ns3:TrackPointExtension>
            <ns3:atemp>26.0</ns3:atemp>
          </ns3:TrackPointExtension>
        </extensions>
      </trkpt>
      <trkpt lat="42.5441602058708667755126953125" lon="19.77502810768783092498779296875">
        <ele>1504.4000244140625</ele>
        <time>2026-06-18T08:14:05.000Z</time>
        <extensions>
          <ns3:TrackPointExtension>
            <ns3:atemp>26.0</ns3:atemp>
          </ns3:TrackPointExtension>
        </extensions>
      </trkpt>
      <trkpt lat="42.5441615469753742218017578125" lon="19.7750005312263965606689453125">
        <ele>1504.5999755859375</ele>
        <time>2026-06-18T08:14:06.000Z</time>
        <extensions>
          <ns3:TrackPointExtension>
            <ns3:atemp>26.0</ns3:atemp>
          </ns3:TrackPointExtension>
        </extensions>
      </trkpt>
      <trkpt lat="42.54416582174599170684814453125" lon="19.77496675215661525726318359375">
        <ele>1504.800048828125</ele>
        <time>2026-06-18T08:14:07.000Z</time>
        <extensions>
          <ns3:TrackPointExtension>
            <ns3:atemp>26.0</ns3:atemp>
          </ns3:TrackPointExtension>
        </extensions>
      </trkpt>
      <trkpt lat="42.5441682524979114532470703125" lon="19.7749311290681362152099609375">
        <ele>1504.800048828125</ele>
        <time>2026-06-18T08:14:08.000Z</time>
        <extensions>
          <ns3:TrackPointExtension>
            <ns3:atemp>26.0</ns3:atemp>
          </ns3:TrackPointExtension>
        </extensions>
      </trkpt>
      <trkpt lat="42.54417009651660919189453125" lon="19.77489642798900604248046875">
        <ele>1505</ele>
        <time>2026-06-18T08:14:09.000Z</time>
        <extensions>
          <ns3:TrackPointExtension>
            <ns3:atemp>26.0</ns3:atemp>
          </ns3:TrackPointExtension>
        </extensions>
      </trkpt>
      <trkpt lat="42.54417252726852893829345703125" lon="19.77486248128116130828857421875">
        <ele>1505.199951171875</ele>
        <time>2026-06-18T08:14:10.000Z</time>
        <extensions>
          <ns3:TrackPointExtension>
            <ns3:atemp>26.0</ns3:atemp>
          </ns3:TrackPointExtension>
        </extensions>
      </trkpt>
      <trkpt lat="42.544171772897243499755859375" lon="19.7748245112597942352294921875">
        <ele>1505.199951171875</ele>
        <time>2026-06-18T08:14:11.000Z</time>
        <extensions>
          <ns3:TrackPointExtension>
            <ns3:atemp>26.0</ns3:atemp>
          </ns3:TrackPointExtension>
        </extensions>
      </trkpt>
      <trkpt lat="42.5441702641546726226806640625" lon="19.77478511631488800048828125">
        <ele>1505.4000244140625</ele>
        <time>2026-06-18T08:14:12.000Z</time>
        <extensions>
          <ns3:TrackPointExtension>
            <ns3:atemp>26.0</ns3:atemp>
          </ns3:TrackPointExtension>
        </extensions>
      </trkpt>
      <trkpt lat="42.5441736169159412384033203125" lon="19.77474764920771121978759765625">
        <ele>1505.5999755859375</ele>
        <time>2026-06-18T08:14:13.000Z</time>
        <extensions>
          <ns3:TrackPointExtension>
            <ns3:atemp>26.0</ns3:atemp>
          </ns3:TrackPointExtension>
        </extensions>
      </trkpt>
      <trkpt lat="42.54417152144014835357666015625" lon="19.774713031947612762451171875">
        <ele>1505.800048828125</ele>
        <time>2026-06-18T08:14:14.000Z</time>
        <extensions>
          <ns3:TrackPointExtension>
            <ns3:atemp>26.0</ns3:atemp>
          </ns3:TrackPointExtension>
        </extensions>
      </trkpt>
      <trkpt lat="42.54416783340275287628173828125" lon="19.7746786661446094512939453125">
        <ele>1506</ele>
        <time>2026-06-18T08:14:15.000Z</time>
        <extensions>
          <ns3:TrackPointExtension>
            <ns3:atemp>26.0</ns3:atemp>
          </ns3:TrackPointExtension>
        </extensions>
      </trkpt>
      <trkpt lat="42.54416741430759429931640625" lon="19.7746409475803375244140625">
        <ele>1506.199951171875</ele>
        <time>2026-06-18T08:14:16.000Z</time>
        <extensions>
          <ns3:TrackPointExtension>
            <ns3:atemp>26.0</ns3:atemp>
          </ns3:TrackPointExtension>
        </extensions>
      </trkpt>
      <trkpt lat="42.54416498355567455291748046875" lon="19.7746042348444461822509765625">
        <ele>1506.4000244140625</ele>
        <time>2026-06-18T08:14:17.000Z</time>
        <extensions>
          <ns3:TrackPointExtension>
            <ns3:atemp>26.0</ns3:atemp>
          </ns3:TrackPointExtension>
        </extensions>
      </trkpt>
      <trkpt lat="42.544161044061183929443359375" lon="19.77456827647984027862548828125">
        <ele>1506.800048828125</ele>
        <time>2026-06-18T08:14:18.000Z</time>
        <extensions>
          <ns3:TrackPointExtension>
            <ns3:atemp>26.0</ns3:atemp>
          </ns3:TrackPointExtension>
        </extensions>
      </trkpt>
      <trkpt lat="42.54415509290993213653564453125" lon="19.7745388559997081756591796875">
        <ele>1507.199951171875</ele>
        <time>2026-06-18T08:14:19.000Z</time>
        <extensions>
          <ns3:TrackPointExtension>
            <ns3:atemp>26.0</ns3:atemp>
          </ns3:TrackPointExtension>
        </extensions>
      </trkpt>
      <trkpt lat="42.5441451184451580047607421875" lon="19.77450926788151264190673828125">
        <ele>1507.5999755859375</ele>
        <time>2026-06-18T08:14:20.000Z</time>
        <extensions>
          <ns3:TrackPointExtension>
            <ns3:atemp>26.0</ns3:atemp>
          </ns3:TrackPointExtension>
        </extensions>
      </trkpt>
      <trkpt lat="42.54413212649524211883544921875" lon="19.7744832001626491546630859375">
        <ele>1507.800048828125</ele>
        <time>2026-06-18T08:14:21.000Z</time>
        <extensions>
          <ns3:TrackPointExtension>
            <ns3:atemp>26.0</ns3:atemp>
          </ns3:TrackPointExtension>
        </extensions>
      </trkpt>
      <trkpt lat="42.54411620087921619415283203125" lon="19.774454869329929351806640625">
        <ele>1508.199951171875</ele>
        <time>2026-06-18T08:14:22.000Z</time>
        <extensions>
          <ns3:TrackPointExtension>
            <ns3:atemp>26.0</ns3:atemp>
          </ns3:TrackPointExtension>
        </extensions>
      </trkpt>
      <trkpt lat="42.54409507848322391510009765625" lon="19.774428717792034149169921875">
        <ele>1508.5999755859375</ele>
        <time>2026-06-18T08:14:23.000Z</time>
        <extensions>
          <ns3:TrackPointExtension>
            <ns3:atemp>26.0</ns3:atemp>
          </ns3:TrackPointExtension>
        </extensions>
      </trkpt>
      <trkpt lat="42.54407160915434360504150390625" lon="19.77441321127116680145263671875">
        <ele>1508.800048828125</ele>
        <time>2026-06-18T08:14:24.000Z</time>
        <extensions>
          <ns3:TrackPointExtension>
            <ns3:atemp>26.0</ns3:atemp>
          </ns3:TrackPointExtension>
        </extensions>
      </trkpt>
      <trkpt lat="42.54404612816870212554931640625" lon="19.7743993811309337615966796875">
        <ele>1509</ele>
        <time>2026-06-18T08:14:25.000Z</time>
        <extensions>
          <ns3:TrackPointExtension>
            <ns3:atemp>26.0</ns3:atemp>
          </ns3:TrackPointExtension>
        </extensions>
      </trkpt>
      <trkpt lat="42.5440193898975849151611328125" lon="19.774384796619415283203125">
        <ele>1509</ele>
        <time>2026-06-18T08:14:26.000Z</time>
        <extensions>
          <ns3:TrackPointExtension>
            <ns3:atemp>26.0</ns3:atemp>
          </ns3:TrackPointExtension>
        </extensions>
      </trkpt>
      <trkpt lat="42.54399348981678485870361328125" lon="19.77437180466949939727783203125">
        <ele>1509.199951171875</ele>
        <time>2026-06-18T08:14:27.000Z</time>
        <extensions>
          <ns3:TrackPointExtension>
            <ns3:atemp>26.0</ns3:atemp>
          </ns3:TrackPointExtension>
        </extensions>
      </trkpt>
      <trkpt lat="42.5439603812992572784423828125" lon="19.77436057291924953460693359375">
        <ele>1509.4000244140625</ele>
        <time>2026-06-18T08:14:28.000Z</time>
        <extensions>
          <ns3:TrackPointExtension>
            <ns3:atemp>26.0</ns3:atemp>
          </ns3:TrackPointExtension>
        </extensions>
      </trkpt>
      <trkpt lat="42.5439332239329814910888671875" lon="19.77434917353093624114990234375">
        <ele>1509.4000244140625</ele>
        <time>2026-06-18T08:14:29.000Z</time>
        <extensions>
          <ns3:TrackPointExtension>
            <ns3:atemp>26.0</ns3:atemp>
          </ns3:TrackPointExtension>
        </extensions>
      </trkpt>
      <trkpt lat="42.5439047254621982574462890625" lon="19.774341881275177001953125">
        <ele>1509.5999755859375</ele>
        <time>2026-06-18T08:14:30.000Z</time>
        <extensions>
          <ns3:TrackPointExtension>
            <ns3:atemp>26.0</ns3:atemp>
          </ns3:TrackPointExtension>
        </extensions>
      </trkpt>
      <trkpt lat="42.5438711978495121002197265625" lon="19.77433224208652973175048828125">
        <ele>1509.5999755859375</ele>
        <time>2026-06-18T08:14:31.000Z</time>
        <extensions>
          <ns3:TrackPointExtension>
            <ns3:atemp>26.0</ns3:atemp>
          </ns3:TrackPointExtension>
        </extensions>
      </trkpt>
      <trkpt lat="42.54383641295135021209716796875" lon="19.77432553656399250030517578125">
        <ele>1509.800048828125</ele>
        <time>2026-06-18T08:14:32.000Z</time>
        <extensions>
          <ns3:TrackPointExtension>
            <ns3:atemp>26.0</ns3:atemp>
          </ns3:TrackPointExtension>
        </extensions>
      </trkpt>
      <trkpt lat="42.5438024662435054779052734375" lon="19.77431430481374263763427734375">
        <ele>1509.800048828125</ele>
        <time>2026-06-18T08:14:33.000Z</time>
        <extensions>
          <ns3:TrackPointExtension>
            <ns3:atemp>26.0</ns3:atemp>
          </ns3:TrackPointExtension>
        </extensions>
      </trkpt>
      <trkpt lat="42.54376851953566074371337890625" lon="19.77430357597768306732177734375">
        <ele>1510</ele>
        <time>2026-06-18T08:14:34.000Z</time>
        <extensions>
          <ns3:TrackPointExtension>
            <ns3:atemp>26.0</ns3:atemp>
          </ns3:TrackPointExtension>
        </extensions>
      </trkpt>
      <trkpt lat="42.54373633302748203277587890625" lon="19.77428949438035488128662109375">
        <ele>1510.199951171875</ele>
        <time>2026-06-18T08:14:35.000Z</time>
        <extensions>
          <ns3:TrackPointExtension>
            <ns3:atemp>26.0</ns3:atemp>
          </ns3:TrackPointExtension>
        </extensions>
      </trkpt>
      <trkpt lat="42.5437052361667156219482421875" lon="19.77427289821207523345947265625">
        <ele>1510.199951171875</ele>
        <time>2026-06-18T08:14:36.000Z</time>
        <extensions>
          <ns3:TrackPointExtension>
            <ns3:atemp>26.0</ns3:atemp>
          </ns3:TrackPointExtension>
        </extensions>
      </trkpt>
      <trkpt lat="42.54367916844785213470458984375" lon="19.77425261400640010833740234375">
        <ele>1510.4000244140625</ele>
        <time>2026-06-18T08:14:37.000Z</time>
        <extensions>
          <ns3:TrackPointExtension>
            <ns3:atemp>26.0</ns3:atemp>
          </ns3:TrackPointExtension>
        </extensions>
      </trkpt>
      <trkpt lat="42.543661482632160186767578125" lon="19.77422185242176055908203125">
        <ele>1510.4000244140625</ele>
        <time>2026-06-18T08:14:38.000Z</time>
        <extensions>
          <ns3:TrackPointExtension>
            <ns3:atemp>26.0</ns3:atemp>
          </ns3:TrackPointExtension>
        </extensions>
      </trkpt>
      <trkpt lat="42.54364907741546630859375" lon="19.7741925157606601715087890625">
        <ele>1510.199951171875</ele>
        <time>2026-06-18T08:14:39.000Z</time>
        <extensions>
          <ns3:TrackPointExtension>
            <ns3:atemp>26.0</ns3:atemp>
          </ns3:TrackPointExtension>
        </extensions>
      </trkpt>
      <trkpt lat="42.5436370074748992919921875" lon="19.77416477166116237640380859375">
        <ele>1510.4000244140625</ele>
        <time>2026-06-18T08:14:40.000Z</time>
        <extensions>
          <ns3:TrackPointExtension>
            <ns3:atemp>26.0</ns3:atemp>
          </ns3:TrackPointExtension>
        </extensions>
      </trkpt>
      <trkpt lat="42.5436289608478546142578125" lon="19.774135015904903411865234375">
        <ele>1510.4000244140625</ele>
        <time>2026-06-18T08:14:41.000Z</time>
        <extensions>
          <ns3:TrackPointExtension>
            <ns3:atemp>26.0</ns3:atemp>
          </ns3:TrackPointExtension>
        </extensions>
      </trkpt>
      <trkpt lat="42.54362284205853939056396484375" lon="19.77410123683512210845947265625">
        <ele>1510.4000244140625</ele>
        <time>2026-06-18T08:14:42.000Z</time>
        <extensions>
          <ns3:TrackPointExtension>
            <ns3:atemp>26.0</ns3:atemp>
          </ns3:TrackPointExtension>
        </extensions>
      </trkpt>
      <trkpt lat="42.54361513070762157440185546875" lon="19.77407374419271945953369140625">
        <ele>1510.5999755859375</ele>
        <time>2026-06-18T08:14:43.000Z</time>
        <extensions>
          <ns3:TrackPointExtension>
            <ns3:atemp>26.0</ns3:atemp>
          </ns3:TrackPointExtension>
        </extensions>
      </trkpt>
      <trkpt lat="42.54360574297606945037841796875" lon="19.7740389592945575714111328125">
        <ele>1510.800048828125</ele>
        <time>2026-06-18T08:14:44.000Z</time>
        <extensions>
          <ns3:TrackPointExtension>
            <ns3:atemp>26.0</ns3:atemp>
          </ns3:TrackPointExtension>
        </extensions>
      </trkpt>
      <trkpt lat="42.54359886981546878814697265625" lon="19.77400434203445911407470703125">
        <ele>1510.800048828125</ele>
        <time>2026-06-18T08:14:45.000Z</time>
        <extensions>
          <ns3:TrackPointExtension>
            <ns3:atemp>26.0</ns3:atemp>
          </ns3:TrackPointExtension>
        </extensions>
      </trkpt>
      <trkpt lat="42.54359182901680469512939453125" lon="19.7739712335169315338134765625">
        <ele>1510.800048828125</ele>
        <time>2026-06-18T08:14:46.000Z</time>
        <extensions>
          <ns3:TrackPointExtension>
            <ns3:atemp>26.0</ns3:atemp>
          </ns3:TrackPointExtension>
        </extensions>
      </trkpt>
      <trkpt lat="42.5435882247984409332275390625" lon="19.7739360295236110687255859375">
        <ele>1510.800048828125</ele>
        <time>2026-06-18T08:14:47.000Z</time>
        <extensions>
          <ns3:TrackPointExtension>
            <ns3:atemp>26.0</ns3:atemp>
          </ns3:TrackPointExtension>
        </extensions>
      </trkpt>
      <trkpt lat="42.54358495585620403289794921875" lon="19.7738971374928951263427734375">
        <ele>1511</ele>
        <time>2026-06-18T08:14:48.000Z</time>
        <extensions>
          <ns3:TrackPointExtension>
            <ns3:atemp>26.0</ns3:atemp>
          </ns3:TrackPointExtension>
        </extensions>
      </trkpt>
      <trkpt lat="42.5435795076191425323486328125" lon="19.773863442242145538330078125">
        <ele>1511</ele>
        <time>2026-06-18T08:14:49.000Z</time>
        <extensions>
          <ns3:TrackPointExtension>
            <ns3:atemp>26.0</ns3:atemp>
          </ns3:TrackPointExtension>
        </extensions>
      </trkpt>
      <trkpt lat="42.54356685094535350799560546875" lon="19.77383485995233058929443359375">
        <ele>1511.199951171875</ele>
        <time>2026-06-18T08:14:50.000Z</time>
        <extensions>
          <ns3:TrackPointExtension>
            <ns3:atemp>26.0</ns3:atemp>
          </ns3:TrackPointExtension>
        </extensions>
      </trkpt>
      <trkpt lat="42.54356131888926029205322265625" lon="19.7737989015877246856689453125">
        <ele>1511.4000244140625</ele>
        <time>2026-06-18T08:14:51.000Z</time>
        <extensions>
          <ns3:TrackPointExtension>
            <ns3:atemp>26.0</ns3:atemp>
          </ns3:TrackPointExtension>
        </extensions>
      </trkpt>
      <trkpt lat="42.54356265999376773834228515625" lon="19.7737653739750385284423828125">
        <ele>1511.5999755859375</ele>
        <time>2026-06-18T08:14:52.000Z</time>
        <extensions>
          <ns3:TrackPointExtension>
            <ns3:atemp>26.0</ns3:atemp>
          </ns3:TrackPointExtension>
        </extensions>
      </trkpt>
      <trkpt lat="42.54355008713901042938232421875" lon="19.773721955716609954833984375">
        <ele>1511.800048828125</ele>
        <time>2026-06-18T08:14:53.000Z</time>
        <extensions>
          <ns3:TrackPointExtension>
            <ns3:atemp>26.0</ns3:atemp>
          </ns3:TrackPointExtension>
        </extensions>
      </trkpt>
      <trkpt lat="42.54353382624685764312744140625" lon="19.77366638369858264923095703125">
        <ele>1511.800048828125</ele>
        <time>2026-06-18T08:14:54.000Z</time>
        <extensions>
          <ns3:TrackPointExtension>
            <ns3:atemp>26.0</ns3:atemp>
          </ns3:TrackPointExtension>
        </extensions>
      </trkpt>
      <trkpt lat="42.5435168109834194183349609375" lon="19.77361089549958705902099609375">
        <ele>1511.800048828125</ele>
        <time>2026-06-18T08:14:55.000Z</time>
        <extensions>
          <ns3:TrackPointExtension>
            <ns3:atemp>26.0</ns3:atemp>
          </ns3:TrackPointExtension>
        </extensions>
      </trkpt>
      <trkpt lat="42.5435002148151397705078125" lon="19.77355406619608402252197265625">
        <ele>1511.800048828125</ele>
        <time>2026-06-18T08:14:56.000Z</time>
        <extensions>
          <ns3:TrackPointExtension>
            <ns3:atemp>26.0</ns3:atemp>
          </ns3:TrackPointExtension>
        </extensions>
      </trkpt>
      <trkpt lat="42.54348219372332096099853515625" lon="19.7734951414167881011962890625">
        <ele>1511.5999755859375</ele>
        <time>2026-06-18T08:14:57.000Z</time>
        <extensions>
          <ns3:TrackPointExtension>
            <ns3:atemp>26.0</ns3:atemp>
          </ns3:TrackPointExtension>
        </extensions>
      </trkpt>
      <trkpt lat="42.5434681959450244903564453125" lon="19.7734421677887439727783203125">
        <ele>1511.800048828125</ele>
        <time>2026-06-18T08:14:58.000Z</time>
        <extensions>
          <ns3:TrackPointExtension>
            <ns3:atemp>26.0</ns3:atemp>
          </ns3:TrackPointExtension>
        </extensions>
      </trkpt>
      <trkpt lat="42.5434521026909351348876953125" lon="19.77338693104684352874755859375">
        <ele>1511.800048828125</ele>
        <time>2026-06-18T08:14:59.000Z</time>
        <extensions>
          <ns3:TrackPointExtension>
            <ns3:atemp>26.0</ns3:atemp>
          </ns3:TrackPointExtension>
        </extensions>
      </trkpt>
      <trkpt lat="42.54343450069427490234375" lon="19.77333479560911655426025390625">
        <ele>1511.800048828125</ele>
        <time>2026-06-18T08:15:00.000Z</time>
        <extensions>
          <ns3:TrackPointExtension>
            <ns3:atemp>26.0</ns3:atemp>
          </ns3:TrackPointExtension>
        </extensions>
      </trkpt>
      <trkpt lat="42.54342117346823215484619140625" lon="19.77328400127589702606201171875">
        <ele>1511.800048828125</ele>
        <time>2026-06-18T08:15:01.000Z</time>
        <extensions>
          <ns3:TrackPointExtension>
            <ns3:atemp>26.0</ns3:atemp>
          </ns3:TrackPointExtension>
        </extensions>
      </trkpt>
      <trkpt lat="42.5434117019176483154296875" lon="19.77323018945753574371337890625">
        <ele>1511.5999755859375</ele>
        <time>2026-06-18T08:15:02.000Z</time>
        <extensions>
          <ns3:TrackPointExtension>
            <ns3:atemp>26.0</ns3:atemp>
          </ns3:TrackPointExtension>
        </extensions>
      </trkpt>
      <trkpt lat="42.54340298473834991455078125" lon="19.7731803171336650848388671875">
        <ele>1511.4000244140625</ele>
        <time>2026-06-18T08:15:03.000Z</time>
        <extensions>
          <ns3:TrackPointExtension>
            <ns3:atemp>26.0</ns3:atemp>
          </ns3:TrackPointExtension>
        </extensions>
      </trkpt>
      <trkpt lat="42.54339225590229034423828125" lon="19.77312960661947727203369140625">
        <ele>1511.199951171875</ele>
        <time>2026-06-18T08:15:04.000Z</time>
        <extensions>
          <ns3:TrackPointExtension>
            <ns3:atemp>26.0</ns3:atemp>
          </ns3:TrackPointExtension>
        </extensions>
      </trkpt>
      <trkpt lat="42.54337423481047153472900390625" lon="19.77308216504752635955810546875">
        <ele>1511.199951171875</ele>
        <time>2026-06-18T08:15:05.000Z</time>
        <extensions>
          <ns3:TrackPointExtension>
            <ns3:atemp>26.0</ns3:atemp>
          </ns3:TrackPointExtension>
        </extensions>
      </trkpt>
      <trkpt lat="42.54335931502282619476318359375" lon="19.7730435244739055633544921875">
        <ele>1511</ele>
        <time>2026-06-18T08:15:06.000Z</time>
        <extensions>
          <ns3:TrackPointExtension>
            <ns3:atemp>26.0</ns3:atemp>
          </ns3:TrackPointExtension>
        </extensions>
      </trkpt>
      <trkpt lat="42.54334405995905399322509765625" lon="19.77301058359444141387939453125">
        <ele>1511</ele>
        <time>2026-06-18T08:15:07.000Z</time>
        <extensions>
          <ns3:TrackPointExtension>
            <ns3:atemp>26.0</ns3:atemp>
          </ns3:TrackPointExtension>
        </extensions>
      </trkpt>
      <trkpt lat="42.543325535953044891357421875" lon="19.77298208512365818023681640625">
        <ele>1511</ele>
        <time>2026-06-18T08:15:08.000Z</time>
        <extensions>
          <ns3:TrackPointExtension>
            <ns3:atemp>26.0</ns3:atemp>
          </ns3:TrackPointExtension>
        </extensions>
      </trkpt>
      <trkpt lat="42.54330567084252834320068359375" lon="19.77295224554836750030517578125">
        <ele>1511</ele>
        <time>2026-06-18T08:15:09.000Z</time>
        <extensions>
          <ns3:TrackPointExtension>
            <ns3:atemp>26.0</ns3:atemp>
          </ns3:TrackPointExtension>
        </extensions>
      </trkpt>
      <trkpt lat="42.5432811118662357330322265625" lon="19.77292726747691631317138671875">
        <ele>1511</ele>
        <time>2026-06-18T08:15:10.000Z</time>
        <extensions>
          <ns3:TrackPointExtension>
            <ns3:atemp>26.0</ns3:atemp>
          </ns3:TrackPointExtension>
        </extensions>
      </trkpt>
      <trkpt lat="42.54326074384152889251708984375" lon="19.7728919796645641326904296875">
        <ele>1511</ele>
        <time>2026-06-18T08:15:11.000Z</time>
        <extensions>
          <ns3:TrackPointExtension>
            <ns3:atemp>26.0</ns3:atemp>
          </ns3:TrackPointExtension>
        </extensions>
      </trkpt>
      <trkpt lat="42.5432355143129825592041015625" lon="19.7728599607944488525390625">
        <ele>1511</ele>
        <time>2026-06-18T08:15:12.000Z</time>
        <extensions>
          <ns3:TrackPointExtension>
            <ns3:atemp>26.0</ns3:atemp>
          </ns3:TrackPointExtension>
        </extensions>
      </trkpt>
      <trkpt lat="42.5432132184505462646484375" lon="19.77282844483852386474609375">
        <ele>1511</ele>
        <time>2026-06-18T08:15:13.000Z</time>
        <extensions>
          <ns3:TrackPointExtension>
            <ns3:atemp>26.0</ns3:atemp>
          </ns3:TrackPointExtension>
        </extensions>
      </trkpt>
      <trkpt lat="42.54319000057876110076904296875" lon="19.77279533632099628448486328125">
        <ele>1510.800048828125</ele>
        <time>2026-06-18T08:15:14.000Z</time>
        <extensions>
          <ns3:TrackPointExtension>
            <ns3:atemp>26.0</ns3:atemp>
          </ns3:TrackPointExtension>
        </extensions>
      </trkpt>
      <trkpt lat="42.54316401667892932891845703125" lon="19.7727605514228343963623046875">
        <ele>1510.5999755859375</ele>
        <time>2026-06-18T08:15:15.000Z</time>
        <extensions>
          <ns3:TrackPointExtension>
            <ns3:atemp>26.0</ns3:atemp>
          </ns3:TrackPointExtension>
        </extensions>
      </trkpt>
      <trkpt lat="42.54314172081649303436279296875" lon="19.77272258140146732330322265625">
        <ele>1510.4000244140625</ele>
        <time>2026-06-18T08:15:16.000Z</time>
        <extensions>
          <ns3:TrackPointExtension>
            <ns3:atemp>26.0</ns3:atemp>
          </ns3:TrackPointExtension>
        </extensions>
      </trkpt>
      <trkpt lat="42.54310718737542629241943359375" lon="19.77269073016941547393798828125">
        <ele>1510.199951171875</ele>
        <time>2026-06-18T08:15:17.000Z</time>
        <extensions>
          <ns3:TrackPointExtension>
            <ns3:atemp>26.0</ns3:atemp>
          </ns3:TrackPointExtension>
        </extensions>
      </trkpt>
      <trkpt lat="42.543081454932689666748046875" lon="19.77265703491866588592529296875">
        <ele>1509.800048828125</ele>
        <time>2026-06-18T08:15:18.000Z</time>
        <extensions>
          <ns3:TrackPointExtension>
            <ns3:atemp>26.0</ns3:atemp>
          </ns3:TrackPointExtension>
        </extensions>
      </trkpt>
      <trkpt lat="42.54305270500481128692626953125" lon="19.77262283675372600555419921875">
        <ele>1509.5999755859375</ele>
        <time>2026-06-18T08:15:19.000Z</time>
        <extensions>
          <ns3:TrackPointExtension>
            <ns3:atemp>26.0</ns3:atemp>
          </ns3:TrackPointExtension>
        </extensions>
      </trkpt>
      <trkpt lat="42.54302236251533031463623046875" lon="19.77259148843586444854736328125">
        <ele>1509.5999755859375</ele>
        <time>2026-06-18T08:15:20.000Z</time>
        <extensions>
          <ns3:TrackPointExtension>
            <ns3:atemp>26.0</ns3:atemp>
          </ns3:TrackPointExtension>
        </extensions>
      </trkpt>
      <trkpt lat="42.542996965348720550537109375" lon="19.77255628444254398345947265625">
        <ele>1509.5999755859375</ele>
        <time>2026-06-18T08:15:21.000Z</time>
        <extensions>
          <ns3:TrackPointExtension>
            <ns3:atemp>26.0</ns3:atemp>
          </ns3:TrackPointExtension>
        </extensions>
      </trkpt>
      <trkpt lat="42.5429760105907917022705078125" lon="19.77251873351633548736572265625">
        <ele>1509.5999755859375</ele>
        <time>2026-06-18T08:15:22.000Z</time>
        <extensions>
          <ns3:TrackPointExtension>
            <ns3:atemp>26.0</ns3:atemp>
          </ns3:TrackPointExtension>
        </extensions>
      </trkpt>
      <trkpt lat="42.54295648075640201568603515625" lon="19.77248352952301502227783203125">
        <ele>1509.5999755859375</ele>
        <time>2026-06-18T08:15:23.000Z</time>
        <extensions>
          <ns3:TrackPointExtension>
            <ns3:atemp>26.0</ns3:atemp>
          </ns3:TrackPointExtension>
        </extensions>
      </trkpt>
      <trkpt lat="42.54293753765523433685302734375" lon="19.77244597859680652618408203125">
        <ele>1509.4000244140625</ele>
        <time>2026-06-18T08:15:24.000Z</time>
        <extensions>
          <ns3:TrackPointExtension>
            <ns3:atemp>26.0</ns3:atemp>
          </ns3:TrackPointExtension>
        </extensions>
      </trkpt>
      <trkpt lat="42.54291356541216373443603515625" lon="19.77240071631968021392822265625">
        <ele>1509.4000244140625</ele>
        <time>2026-06-18T08:15:25.000Z</time>
        <extensions>
          <ns3:TrackPointExtension>
            <ns3:atemp>26.0</ns3:atemp>
          </ns3:TrackPointExtension>
        </extensions>
      </trkpt>
      <trkpt lat="42.542884647846221923828125" lon="19.77235528640449047088623046875">
        <ele>1509.199951171875</ele>
        <time>2026-06-18T08:15:26.000Z</time>
        <extensions>
          <ns3:TrackPointExtension>
            <ns3:atemp>26.0</ns3:atemp>
          </ns3:TrackPointExtension>
        </extensions>
      </trkpt>
      <trkpt lat="42.5428569875657558441162109375" lon="19.77231136523187160491943359375">
        <ele>1509.199951171875</ele>
        <time>2026-06-18T08:15:27.000Z</time>
        <extensions>
          <ns3:TrackPointExtension>
            <ns3:atemp>26.0</ns3:atemp>
          </ns3:TrackPointExtension>
        </extensions>
      </trkpt>
      <trkpt lat="42.542842067778110504150390625" lon="19.7722671926021575927734375">
        <ele>1509.199951171875</ele>
        <time>2026-06-18T08:15:28.000Z</time>
        <extensions>
          <ns3:TrackPointExtension>
            <ns3:atemp>26.0</ns3:atemp>
          </ns3:TrackPointExtension>
        </extensions>
      </trkpt>
      <trkpt lat="42.54282706417143344879150390625" lon="19.7722220979630947113037109375">
        <ele>1509</ele>
        <time>2026-06-18T08:15:29.000Z</time>
        <extensions>
          <ns3:TrackPointExtension>
            <ns3:atemp>26.0</ns3:atemp>
          </ns3:TrackPointExtension>
        </extensions>
      </trkpt>
      <trkpt lat="42.54281549714505672454833984375" lon="19.77217398583889007568359375">
        <ele>1509</ele>
        <time>2026-06-18T08:15:30.000Z</time>
        <extensions>
          <ns3:TrackPointExtension>
            <ns3:atemp>26.0</ns3:atemp>
          </ns3:TrackPointExtension>
        </extensions>
      </trkpt>
      <trkpt lat="42.5428036786615848541259765625" lon="19.77212696336209774017333984375">
        <ele>1509</ele>
        <time>2026-06-18T08:15:31.000Z</time>
        <extensions>
          <ns3:TrackPointExtension>
            <ns3:atemp>26.0</ns3:atemp>
          </ns3:TrackPointExtension>
        </extensions>
      </trkpt>
      <trkpt lat="42.54279236309230327606201171875" lon="19.77207466028630733489990234375">
        <ele>1509.199951171875</ele>
        <time>2026-06-18T08:15:32.000Z</time>
        <extensions>
          <ns3:TrackPointExtension>
            <ns3:atemp>26.0</ns3:atemp>
          </ns3:TrackPointExtension>
        </extensions>
      </trkpt>
      <trkpt lat="42.54278004169464111328125" lon="19.77202621288597583770751953125">
        <ele>1509.199951171875</ele>
        <time>2026-06-18T08:15:33.000Z</time>
        <extensions>
          <ns3:TrackPointExtension>
            <ns3:atemp>26.0</ns3:atemp>
          </ns3:TrackPointExtension>
        </extensions>
      </trkpt>
      <trkpt lat="42.542766630649566650390625" lon="19.771973825991153717041015625">
        <ele>1509.199951171875</ele>
        <time>2026-06-18T08:15:34.000Z</time>
        <extensions>
          <ns3:TrackPointExtension>
            <ns3:atemp>26.0</ns3:atemp>
          </ns3:TrackPointExtension>
        </extensions>
      </trkpt>
      <trkpt lat="42.54275263287127017974853515625" lon="19.771926216781139373779296875">
        <ele>1509.199951171875</ele>
        <time>2026-06-18T08:15:35.000Z</time>
        <extensions>
          <ns3:TrackPointExtension>
            <ns3:atemp>26.0</ns3:atemp>
          </ns3:TrackPointExtension>
        </extensions>
      </trkpt>
      <trkpt lat="42.5427396409213542938232421875" lon="19.77187416516244411468505859375">
        <ele>1509</ele>
        <time>2026-06-18T08:15:36.000Z</time>
        <extensions>
          <ns3:TrackPointExtension>
            <ns3:atemp>26.0</ns3:atemp>
          </ns3:TrackPointExtension>
        </extensions>
      </trkpt>
      <trkpt lat="42.54272706806659698486328125" lon="19.77182219736278057098388671875">
        <ele>1508.800048828125</ele>
        <time>2026-06-18T08:15:37.000Z</time>
        <extensions>
          <ns3:TrackPointExtension>
            <ns3:atemp>26.0</ns3:atemp>
          </ns3:TrackPointExtension>
        </extensions>
      </trkpt>
      <trkpt lat="42.54272094927728176116943359375" lon="19.77176939137279987335205078125">
        <ele>1508.800048828125</ele>
        <time>2026-06-18T08:15:38.000Z</time>
        <extensions>
          <ns3:TrackPointExtension>
            <ns3:atemp>26.0</ns3:atemp>
          </ns3:TrackPointExtension>
        </extensions>
      </trkpt>
      <trkpt lat="42.54272145219147205352783203125" lon="19.771716333925724029541015625">
        <ele>1508.5999755859375</ele>
        <time>2026-06-18T08:15:39.000Z</time>
        <extensions>
          <ns3:TrackPointExtension>
            <ns3:atemp>26.0</ns3:atemp>
          </ns3:TrackPointExtension>
        </extensions>
      </trkpt>
      <trkpt lat="42.5427235476672649383544921875" lon="19.7716698981821537017822265625">
        <ele>1508.4000244140625</ele>
        <time>2026-06-18T08:15:40.000Z</time>
        <extensions>
          <ns3:TrackPointExtension>
            <ns3:atemp>26.0</ns3:atemp>
          </ns3:TrackPointExtension>
        </extensions>
      </trkpt>
      <trkpt lat="42.54272840917110443115234375" lon="19.7716243006289005279541015625">
        <ele>1508.199951171875</ele>
        <time>2026-06-18T08:15:41.000Z</time>
        <extensions>
          <ns3:TrackPointExtension>
            <ns3:atemp>26.0</ns3:atemp>
          </ns3:TrackPointExtension>
        </extensions>
      </trkpt>
      <trkpt lat="42.54273402504622936248779296875" lon="19.77157694287598133087158203125">
        <ele>1508</ele>
        <time>2026-06-18T08:15:42.000Z</time>
        <extensions>
          <ns3:TrackPointExtension>
            <ns3:atemp>26.0</ns3:atemp>
          </ns3:TrackPointExtension>
        </extensions>
      </trkpt>
      <trkpt lat="42.542735449969768524169921875" lon="19.7715294174849987030029296875">
        <ele>1508</ele>
        <time>2026-06-18T08:15:43.000Z</time>
        <extensions>
          <ns3:TrackPointExtension>
            <ns3:atemp>26.0</ns3:atemp>
          </ns3:TrackPointExtension>
        </extensions>
      </trkpt>
      <trkpt lat="42.54273285157978534698486328125" lon="19.77148465812206268310546875">
        <ele>1507.800048828125</ele>
        <time>2026-06-18T08:15:44.000Z</time>
        <extensions>
          <ns3:TrackPointExtension>
            <ns3:atemp>26.0</ns3:atemp>
          </ns3:TrackPointExtension>
        </extensions>
      </trkpt>
      <trkpt lat="42.54272497259080410003662109375" lon="19.77144333533942699432373046875">
        <ele>1507.800048828125</ele>
        <time>2026-06-18T08:15:45.000Z</time>
        <extensions>
          <ns3:TrackPointExtension>
            <ns3:atemp>26.0</ns3:atemp>
          </ns3:TrackPointExtension>
        </extensions>
      </trkpt>
      <trkpt lat="42.5427094660699367523193359375" lon="19.77140209637582302093505859375">
        <ele>1507.800048828125</ele>
        <time>2026-06-18T08:15:46.000Z</time>
        <extensions>
          <ns3:TrackPointExtension>
            <ns3:atemp>26.0</ns3:atemp>
          </ns3:TrackPointExtension>
        </extensions>
      </trkpt>
      <trkpt lat="42.54269463010132312774658203125" lon="19.77136018685996532440185546875">
        <ele>1507.800048828125</ele>
        <time>2026-06-18T08:15:47.000Z</time>
        <extensions>
          <ns3:TrackPointExtension>
            <ns3:atemp>26.0</ns3:atemp>
          </ns3:TrackPointExtension>
        </extensions>
      </trkpt>
      <trkpt lat="42.5426766090095043182373046875" lon="19.77132774889469146728515625">
        <ele>1507.800048828125</ele>
        <time>2026-06-18T08:15:48.000Z</time>
        <extensions>
          <ns3:TrackPointExtension>
            <ns3:atemp>26.0</ns3:atemp>
          </ns3:TrackPointExtension>
        </extensions>
      </trkpt>
      <trkpt lat="42.54265707917511463165283203125" lon="19.771301932632923126220703125">
        <ele>1507.800048828125</ele>
        <time>2026-06-18T08:15:49.000Z</time>
        <extensions>
          <ns3:TrackPointExtension>
            <ns3:atemp>26.0</ns3:atemp>
          </ns3:TrackPointExtension>
        </extensions>
      </trkpt>
      <trkpt lat="42.54263444803655147552490234375" lon="19.7712776251137256622314453125">
        <ele>1507.5999755859375</ele>
        <time>2026-06-18T08:15:50.000Z</time>
        <extensions>
          <ns3:TrackPointExtension>
            <ns3:atemp>25.0</ns3:atemp>
          </ns3:TrackPointExtension>
        </extensions>
      </trkpt>
      <trkpt lat="42.54260980524122714996337890625" lon="19.77124703116714954376220703125">
        <ele>1507.4000244140625</ele>
        <time>2026-06-18T08:15:51.000Z</time>
        <extensions>
          <ns3:TrackPointExtension>
            <ns3:atemp>25.0</ns3:atemp>
          </ns3:TrackPointExtension>
        </extensions>
      </trkpt>
      <trkpt lat="42.54259035922586917877197265625" lon="19.77121777832508087158203125">
        <ele>1507.199951171875</ele>
        <time>2026-06-18T08:15:52.000Z</time>
        <extensions>
          <ns3:TrackPointExtension>
            <ns3:atemp>25.0</ns3:atemp>
          </ns3:TrackPointExtension>
        </extensions>
      </trkpt>
      <trkpt lat="42.54256672225892543792724609375" lon="19.77118819020688533782958984375">
        <ele>1506.5999755859375</ele>
        <time>2026-06-18T08:15:53.000Z</time>
        <extensions>
          <ns3:TrackPointExtension>
            <ns3:atemp>25.0</ns3:atemp>
          </ns3:TrackPointExtension>
        </extensions>
      </trkpt>
      <trkpt lat="42.54254710860550403594970703125" lon="19.7711525671184062957763671875">
        <ele>1506.199951171875</ele>
        <time>2026-06-18T08:15:54.000Z</time>
        <extensions>
          <ns3:TrackPointExtension>
            <ns3:atemp>25.0</ns3:atemp>
          </ns3:TrackPointExtension>
        </extensions>
      </trkpt>
      <trkpt lat="42.54252363927662372589111328125" lon="19.77111853659152984619140625">
        <ele>1505.800048828125</ele>
        <time>2026-06-18T08:15:55.000Z</time>
        <extensions>
          <ns3:TrackPointExtension>
            <ns3:atemp>25.0</ns3:atemp>
          </ns3:TrackPointExtension>
        </extensions>
      </trkpt>
      <trkpt lat="42.54249815829098224639892578125" lon="19.77108098566532135009765625">
        <ele>1505.199951171875</ele>
        <time>2026-06-18T08:15:56.000Z</time>
        <extensions>
          <ns3:TrackPointExtension>
            <ns3:atemp>25.0</ns3:atemp>
          </ns3:TrackPointExtension>
        </extensions>
      </trkpt>
      <trkpt lat="42.54246664233505725860595703125" lon="19.7710494697093963623046875">
        <ele>1504.5999755859375</ele>
        <time>2026-06-18T08:15:57.000Z</time>
        <extensions>
          <ns3:TrackPointExtension>
            <ns3:atemp>25.0</ns3:atemp>
          </ns3:TrackPointExtension>
        </extensions>
      </trkpt>
      <trkpt lat="42.54243428818881511688232421875" lon="19.7710130922496318817138671875">
        <ele>1504.199951171875</ele>
        <time>2026-06-18T08:15:58.000Z</time>
        <extensions>
          <ns3:TrackPointExtension>
            <ns3:atemp>25.0</ns3:atemp>
          </ns3:TrackPointExtension>
        </extensions>
      </trkpt>
      <trkpt lat="42.54240629263222217559814453125" lon="19.770979396998882293701171875">
        <ele>1503.800048828125</ele>
        <time>2026-06-18T08:15:59.000Z</time>
        <extensions>
          <ns3:TrackPointExtension>
            <ns3:atemp>25.0</ns3:atemp>
          </ns3:TrackPointExtension>
        </extensions>
      </trkpt>
      <trkpt lat="42.54237812943756580352783203125" lon="19.77094461210072040557861328125">
        <ele>1503.199951171875</ele>
        <time>2026-06-18T08:16:00.000Z</time>
        <extensions>
          <ns3:TrackPointExtension>
            <ns3:atemp>25.0</ns3:atemp>
          </ns3:TrackPointExtension>
        </extensions>
      </trkpt>
      <trkpt lat="42.5423460267484188079833984375" lon="19.77090530097484588623046875">
        <ele>1503</ele>
        <time>2026-06-18T08:16:01.000Z</time>
        <extensions>
          <ns3:TrackPointExtension>
            <ns3:atemp>25.0</ns3:atemp>
          </ns3:TrackPointExtension>
        </extensions>
      </trkpt>
      <trkpt lat="42.54231375642120838165283203125" lon="19.77087537758052349090576171875">
        <ele>1502.800048828125</ele>
        <time>2026-06-18T08:16:02.000Z</time>
        <extensions>
          <ns3:TrackPointExtension>
            <ns3:atemp>25.0</ns3:atemp>
          </ns3:TrackPointExtension>
        </extensions>
      </trkpt>
      <trkpt lat="42.5422823242843151092529296875" lon="19.77083749137818813323974609375">
        <ele>1502.4000244140625</ele>
        <time>2026-06-18T08:16:03.000Z</time>
        <extensions>
          <ns3:TrackPointExtension>
            <ns3:atemp>25.0</ns3:atemp>
          </ns3:TrackPointExtension>
        </extensions>
      </trkpt>
      <trkpt lat="42.54223890602588653564453125" lon="19.7707961685955524444580078125">
        <ele>1502</ele>
        <time>2026-06-18T08:16:04.000Z</time>
        <extensions>
          <ns3:TrackPointExtension>
            <ns3:atemp>25.0</ns3:atemp>
          </ns3:TrackPointExtension>
        </extensions>
      </trkpt>
      <trkpt lat="42.5421964935958385467529296875" lon="19.77076071314513683319091796875">
        <ele>1501.5999755859375</ele>
        <time>2026-06-18T08:16:05.000Z</time>
        <extensions>
          <ns3:TrackPointExtension>
            <ns3:atemp>25.0</ns3:atemp>
          </ns3:TrackPointExtension>
        </extensions>
      </trkpt>
      <trkpt lat="42.542147375643253326416015625" lon="19.77073070593178272247314453125">
        <ele>1501.199951171875</ele>
        <time>2026-06-18T08:16:06.000Z</time>
        <extensions>
          <ns3:TrackPointExtension>
            <ns3:atemp>25.0</ns3:atemp>
          </ns3:TrackPointExtension>
        </extensions>
      </trkpt>
      <trkpt lat="42.5421006046235561370849609375" lon="19.77070011198520660400390625">
        <ele>1500.800048828125</ele>
        <time>2026-06-18T08:16:07.000Z</time>
        <extensions>
          <ns3:TrackPointExtension>
            <ns3:atemp>25.0</ns3:atemp>
          </ns3:TrackPointExtension>
        </extensions>
      </trkpt>
      <trkpt lat="42.54205659963190555572509765625" lon="19.77066616527736186981201171875">
        <ele>1500.199951171875</ele>
        <time>2026-06-18T08:16:08.000Z</time>
        <extensions>
          <ns3:TrackPointExtension>
            <ns3:atemp>25.0</ns3:atemp>
          </ns3:TrackPointExtension>
        </extensions>
      </trkpt>
      <trkpt lat="42.54201753996312618255615234375" lon="19.770630039274692535400390625">
        <ele>1499.800048828125</ele>
        <time>2026-06-18T08:16:09.000Z</time>
        <extensions>
          <ns3:TrackPointExtension>
            <ns3:atemp>25.0</ns3:atemp>
          </ns3:TrackPointExtension>
        </extensions>
      </trkpt>
      <trkpt lat="42.54197898320853710174560546875" lon="19.77060413919389247894287109375">
        <ele>1499.5999755859375</ele>
        <time>2026-06-18T08:16:10.000Z</time>
        <extensions>
          <ns3:TrackPointExtension>
            <ns3:atemp>25.0</ns3:atemp>
          </ns3:TrackPointExtension>
        </extensions>
      </trkpt>
      <trkpt lat="42.54193983972072601318359375" lon="19.770581424236297607421875">
        <ele>1499.199951171875</ele>
        <time>2026-06-18T08:16:11.000Z</time>
        <extensions>
          <ns3:TrackPointExtension>
            <ns3:atemp>25.0</ns3:atemp>
          </ns3:TrackPointExtension>
        </extensions>
      </trkpt>
      <trkpt lat="42.5419017858803272247314453125" lon="19.77056507952511310577392578125">
        <ele>1499</ele>
        <time>2026-06-18T08:16:12.000Z</time>
        <extensions>
          <ns3:TrackPointExtension>
            <ns3:atemp>25.0</ns3:atemp>
          </ns3:TrackPointExtension>
        </extensions>
      </trkpt>
      <trkpt lat="42.54186876118183135986328125" lon="19.77055904455482959747314453125">
        <ele>1498.800048828125</ele>
        <time>2026-06-18T08:16:13.000Z</time>
        <extensions>
          <ns3:TrackPointExtension>
            <ns3:atemp>25.0</ns3:atemp>
          </ns3:TrackPointExtension>
        </extensions>
      </trkpt>
      <trkpt lat="42.54184369929134845733642578125" lon="19.77055217139422893524169921875">
        <ele>1498.800048828125</ele>
        <time>2026-06-18T08:16:14.000Z</time>
        <extensions>
          <ns3:TrackPointExtension>
            <ns3:atemp>25.0</ns3:atemp>
          </ns3:TrackPointExtension>
        </extensions>
      </trkpt>
      <trkpt lat="42.541819475591182708740234375" lon="19.77054093964397907257080078125">
        <ele>1498.800048828125</ele>
        <time>2026-06-18T08:16:15.000Z</time>
        <extensions>
          <ns3:TrackPointExtension>
            <ns3:atemp>25.0</ns3:atemp>
          </ns3:TrackPointExtension>
        </extensions>
      </trkpt>
      <trkpt lat="42.54180061630904674530029296875" lon="19.7705286182463169097900390625">
        <ele>1498.800048828125</ele>
        <time>2026-06-18T08:16:16.000Z</time>
        <extensions>
          <ns3:TrackPointExtension>
            <ns3:atemp>25.0</ns3:atemp>
          </ns3:TrackPointExtension>
        </extensions>
      </trkpt>
      <trkpt lat="42.54178217612206935882568359375" lon="19.7705162130296230316162109375">
        <ele>1499</ele>
        <time>2026-06-18T08:16:17.000Z</time>
        <extensions>
          <ns3:TrackPointExtension>
            <ns3:atemp>25.0</ns3:atemp>
          </ns3:TrackPointExtension>
        </extensions>
      </trkpt>
      <trkpt lat="42.5417693518102169036865234375" lon="19.77050456218421459197998046875">
        <ele>1499</ele>
        <time>2026-06-18T08:16:18.000Z</time>
        <extensions>
          <ns3:TrackPointExtension>
            <ns3:atemp>25.0</ns3:atemp>
          </ns3:TrackPointExtension>
        </extensions>
      </trkpt>
      <trkpt lat="42.541753090918064117431640625" lon="19.77048696018755435943603515625">
        <ele>1499</ele>
        <time>2026-06-18T08:16:19.000Z</time>
        <extensions>
          <ns3:TrackPointExtension>
            <ns3:atemp>25.0</ns3:atemp>
          </ns3:TrackPointExtension>
        </extensions>
      </trkpt>
      <trkpt lat="42.54173423163592815399169921875" lon="19.7704722918570041656494140625">
        <ele>1499</ele>
        <time>2026-06-18T08:16:20.000Z</time>
        <extensions>
          <ns3:TrackPointExtension>
            <ns3:atemp>25.0</ns3:atemp>
          </ns3:TrackPointExtension>
        </extensions>
      </trkpt>
      <trkpt lat="42.54171763546764850616455078125" lon="19.77045468986034393310546875">
        <ele>1499</ele>
        <time>2026-06-18T08:16:21.000Z</time>
        <extensions>
          <ns3:TrackPointExtension>
            <ns3:atemp>25.0</ns3:atemp>
          </ns3:TrackPointExtension>
        </extensions>
      </trkpt>
      <trkpt lat="42.54170003347098827362060546875" lon="19.770438931882381439208984375">
        <ele>1498.800048828125</ele>
        <time>2026-06-18T08:16:22.000Z</time>
        <extensions>
          <ns3:TrackPointExtension>
            <ns3:atemp>25.0</ns3:atemp>
          </ns3:TrackPointExtension>
        </extensions>
      </trkpt>
      <trkpt lat="42.5416748039424419403076171875" lon="19.7704199887812137603759765625">
        <ele>1498.800048828125</ele>
        <time>2026-06-18T08:16:23.000Z</time>
        <extensions>
          <ns3:TrackPointExtension>
            <ns3:atemp>25.0</ns3:atemp>
          </ns3:TrackPointExtension>
        </extensions>
      </trkpt>
      <trkpt lat="42.541652508080005645751953125" lon="19.770402051508426666259765625">
        <ele>1498.5999755859375</ele>
        <time>2026-06-18T08:16:24.000Z</time>
        <extensions>
          <ns3:TrackPointExtension>
            <ns3:atemp>25.0</ns3:atemp>
          </ns3:TrackPointExtension>
        </extensions>
      </trkpt>
      <trkpt lat="42.54162979312241077423095703125" lon="19.7703804261982440948486328125">
        <ele>1498.5999755859375</ele>
        <time>2026-06-18T08:16:25.000Z</time>
        <extensions>
          <ns3:TrackPointExtension>
            <ns3:atemp>25.0</ns3:atemp>
          </ns3:TrackPointExtension>
        </extensions>
      </trkpt>
      <trkpt lat="42.5416047312319278717041015625" lon="19.77035569958388805389404296875">
        <ele>1498.5999755859375</ele>
        <time>2026-06-18T08:16:26.000Z</time>
        <extensions>
          <ns3:TrackPointExtension>
            <ns3:atemp>25.0</ns3:atemp>
          </ns3:TrackPointExtension>
        </extensions>
      </trkpt>
      <trkpt lat="42.5415822677314281463623046875" lon="19.770338349044322967529296875">
        <ele>1498.5999755859375</ele>
        <time>2026-06-18T08:16:27.000Z</time>
        <extensions>
          <ns3:TrackPointExtension>
            <ns3:atemp>25.0</ns3:atemp>
          </ns3:TrackPointExtension>
        </extensions>
      </trkpt>
      <trkpt lat="42.54156039096415042877197265625" lon="19.77031680755317211151123046875">
        <ele>1498.5999755859375</ele>
        <time>2026-06-18T08:16:28.000Z</time>
        <extensions>
          <ns3:TrackPointExtension>
            <ns3:atemp>25.0</ns3:atemp>
          </ns3:TrackPointExtension>
        </extensions>
      </trkpt>
      <trkpt lat="42.54153742454946041107177734375" lon="19.770300127565860748291015625">
        <ele>1498.5999755859375</ele>
        <time>2026-06-18T08:16:29.000Z</time>
        <extensions>
          <ns3:TrackPointExtension>
            <ns3:atemp>25.0</ns3:atemp>
          </ns3:TrackPointExtension>
        </extensions>
      </trkpt>
      <trkpt lat="42.541510351002216339111328125" lon="19.77028311230242252349853515625">
        <ele>1498.5999755859375</ele>
        <time>2026-06-18T08:16:30.000Z</time>
        <extensions>
          <ns3:TrackPointExtension>
            <ns3:atemp>25.0</ns3:atemp>
          </ns3:TrackPointExtension>
        </extensions>
      </trkpt>
      <trkpt lat="42.54148143343627452850341796875" lon="19.7702724672853946685791015625">
        <ele>1498.5999755859375</ele>
        <time>2026-06-18T08:16:31.000Z</time>
        <extensions>
          <ns3:TrackPointExtension>
            <ns3:atemp>25.0</ns3:atemp>
          </ns3:TrackPointExtension>
        </extensions>
      </trkpt>
      <trkpt lat="42.54145477898418903350830078125" lon="19.77025696076452732086181640625">
        <ele>1498.5999755859375</ele>
        <time>2026-06-18T08:16:32.000Z</time>
        <extensions>
          <ns3:TrackPointExtension>
            <ns3:atemp>25.0</ns3:atemp>
          </ns3:TrackPointExtension>
        </extensions>
      </trkpt>
      <trkpt lat="42.54142913036048412322998046875" lon="19.77024472318589687347412109375">
        <ele>1498.5999755859375</ele>
        <time>2026-06-18T08:16:33.000Z</time>
        <extensions>
          <ns3:TrackPointExtension>
            <ns3:atemp>25.0</ns3:atemp>
          </ns3:TrackPointExtension>
        </extensions>
      </trkpt>
      <trkpt lat="42.5414008833467960357666015625" lon="19.7702339105308055877685546875">
        <ele>1498.5999755859375</ele>
        <time>2026-06-18T08:16:34.000Z</time>
        <extensions>
          <ns3:TrackPointExtension>
            <ns3:atemp>25.0</ns3:atemp>
          </ns3:TrackPointExtension>
        </extensions>
      </trkpt>
      <trkpt lat="42.541371881961822509765625" lon="19.77022343315184116363525390625">
        <ele>1498.5999755859375</ele>
        <time>2026-06-18T08:16:35.000Z</time>
        <extensions>
          <ns3:TrackPointExtension>
            <ns3:atemp>25.0</ns3:atemp>
          </ns3:TrackPointExtension>
        </extensions>
      </trkpt>
      <trkpt lat="42.5413371808826923370361328125" lon="19.77021655999124050140380859375">
        <ele>1498.800048828125</ele>
        <time>2026-06-18T08:16:36.000Z</time>
        <extensions>
          <ns3:TrackPointExtension>
            <ns3:atemp>25.0</ns3:atemp>
          </ns3:TrackPointExtension>
        </extensions>
      </trkpt>
      <trkpt lat="42.5412986241281032562255859375" lon="19.7702111117541790008544921875">
        <ele>1498.800048828125</ele>
        <time>2026-06-18T08:16:37.000Z</time>
        <extensions>
          <ns3:TrackPointExtension>
            <ns3:atemp>25.0</ns3:atemp>
          </ns3:TrackPointExtension>
        </extensions>
      </trkpt>
      <trkpt lat="42.54126216284930706024169921875" lon="19.77020700462162494659423828125">
        <ele>1499</ele>
        <time>2026-06-18T08:16:38.000Z</time>
        <extensions>
          <ns3:TrackPointExtension>
            <ns3:atemp>25.0</ns3:atemp>
          </ns3:TrackPointExtension>
        </extensions>
      </trkpt>
      <trkpt lat="42.54122695885598659515380859375" lon="19.7702013887465000152587890625">
        <ele>1499.199951171875</ele>
        <time>2026-06-18T08:16:39.000Z</time>
        <extensions>
          <ns3:TrackPointExtension>
            <ns3:atemp>25.0</ns3:atemp>
          </ns3:TrackPointExtension>
        </extensions>
      </trkpt>
      <trkpt lat="42.54119242541491985321044921875" lon="19.77019761689007282257080078125">
        <ele>1499.4000244140625</ele>
        <time>2026-06-18T08:16:40.000Z</time>
        <extensions>
          <ns3:TrackPointExtension>
            <ns3:atemp>25.0</ns3:atemp>
          </ns3:TrackPointExtension>
        </extensions>
      </trkpt>
      <trkpt lat="42.54116191528737545013427734375" lon="19.77019292302429676055908203125">
        <ele>1499.800048828125</ele>
        <time>2026-06-18T08:16:41.000Z</time>
        <extensions>
          <ns3:TrackPointExtension>
            <ns3:atemp>25.0</ns3:atemp>
          </ns3:TrackPointExtension>
        </extensions>
      </trkpt>
      <trkpt lat="42.54113123752176761627197265625" lon="19.7701893188059329986572265625">
        <ele>1500</ele>
        <time>2026-06-18T08:16:42.000Z</time>
        <extensions>
          <ns3:TrackPointExtension>
            <ns3:atemp>25.0</ns3:atemp>
          </ns3:TrackPointExtension>
        </extensions>
      </trkpt>
      <trkpt lat="42.541104666888713836669921875" lon="19.7701920010149478912353515625">
        <ele>1500.4000244140625</ele>
        <time>2026-06-18T08:16:43.000Z</time>
        <extensions>
          <ns3:TrackPointExtension>
            <ns3:atemp>25.0</ns3:atemp>
          </ns3:TrackPointExtension>
        </extensions>
      </trkpt>
      <trkpt lat="42.54107415676116943359375" lon="19.77019594050943851470947265625">
        <ele>1500.5999755859375</ele>
        <time>2026-06-18T08:16:44.000Z</time>
        <extensions>
          <ns3:TrackPointExtension>
            <ns3:atemp>25.0</ns3:atemp>
          </ns3:TrackPointExtension>
        </extensions>
      </trkpt>
      <trkpt lat="42.54104322753846645355224609375" lon="19.770192839205265045166015625">
        <ele>1500.800048828125</ele>
        <time>2026-06-18T08:16:45.000Z</time>
        <extensions>
          <ns3:TrackPointExtension>
            <ns3:atemp>25.0</ns3:atemp>
          </ns3:TrackPointExtension>
        </extensions>
      </trkpt>
      <trkpt lat="42.54101372323930263519287109375" lon="19.77019007317721843719482421875">
        <ele>1501</ele>
        <time>2026-06-18T08:16:46.000Z</time>
        <extensions>
          <ns3:TrackPointExtension>
            <ns3:atemp>25.0</ns3:atemp>
          </ns3:TrackPointExtension>
        </extensions>
      </trkpt>
      <trkpt lat="42.5409858115017414093017578125" lon="19.770189486443996429443359375">
        <ele>1501.199951171875</ele>
        <time>2026-06-18T08:16:47.000Z</time>
        <extensions>
          <ns3:TrackPointExtension>
            <ns3:atemp>25.0</ns3:atemp>
          </ns3:TrackPointExtension>
        </extensions>
      </trkpt>
      <trkpt lat="42.54095605574548244476318359375" lon="19.7701899893581867218017578125">
        <ele>1501.4000244140625</ele>
        <time>2026-06-18T08:16:48.000Z</time>
        <extensions>
          <ns3:TrackPointExtension>
            <ns3:atemp>25.0</ns3:atemp>
          </ns3:TrackPointExtension>
        </extensions>
      </trkpt>
      <trkpt lat="42.5409244559705257415771484375" lon="19.7701879777014255523681640625">
        <ele>1501.800048828125</ele>
        <time>2026-06-18T08:16:49.000Z</time>
        <extensions>
          <ns3:TrackPointExtension>
            <ns3:atemp>25.0</ns3:atemp>
          </ns3:TrackPointExtension>
        </extensions>
      </trkpt>
      <trkpt lat="42.54089268855750560760498046875" lon="19.77018487639725208282470703125">
        <ele>1502</ele>
        <time>2026-06-18T08:16:50.000Z</time>
        <extensions>
          <ns3:TrackPointExtension>
            <ns3:atemp>25.0</ns3:atemp>
          </ns3:TrackPointExtension>
        </extensions>
      </trkpt>
      <trkpt lat="42.54086829721927642822265625" lon="19.77017842233180999755859375">
        <ele>1502.199951171875</ele>
        <time>2026-06-18T08:16:51.000Z</time>
        <extensions>
          <ns3:TrackPointExtension>
            <ns3:atemp>25.0</ns3:atemp>
          </ns3:TrackPointExtension>
        </extensions>
      </trkpt>
      <trkpt lat="42.540840804576873779296875" lon="19.7701712138950824737548828125">
        <ele>1502.5999755859375</ele>
        <time>2026-06-18T08:16:52.000Z</time>
        <extensions>
          <ns3:TrackPointExtension>
            <ns3:atemp>25.0</ns3:atemp>
          </ns3:TrackPointExtension>
        </extensions>
      </trkpt>
      <trkpt lat="42.540810294449329376220703125" lon="19.77016459219157695770263671875">
        <ele>1502.800048828125</ele>
        <time>2026-06-18T08:16:53.000Z</time>
        <extensions>
          <ns3:TrackPointExtension>
            <ns3:atemp>25.0</ns3:atemp>
          </ns3:TrackPointExtension>
        </extensions>
      </trkpt>
      <trkpt lat="42.5407836399972438812255859375" lon="19.7701514326035976409912109375">
        <ele>1503</ele>
        <time>2026-06-18T08:16:54.000Z</time>
        <extensions>
          <ns3:TrackPointExtension>
            <ns3:atemp>25.0</ns3:atemp>
          </ns3:TrackPointExtension>
        </extensions>
      </trkpt>
      <trkpt lat="42.54075966775417327880859375" lon="19.77013978175818920135498046875">
        <ele>1503.199951171875</ele>
        <time>2026-06-18T08:16:55.000Z</time>
        <extensions>
          <ns3:TrackPointExtension>
            <ns3:atemp>25.0</ns3:atemp>
          </ns3:TrackPointExtension>
        </extensions>
      </trkpt>
      <trkpt lat="42.54073527641594409942626953125" lon="19.770124442875385284423828125">
        <ele>1503.5999755859375</ele>
        <time>2026-06-18T08:16:56.000Z</time>
        <extensions>
          <ns3:TrackPointExtension>
            <ns3:atemp>25.0</ns3:atemp>
          </ns3:TrackPointExtension>
        </extensions>
      </trkpt>
      <trkpt lat="42.5407139025628566741943359375" lon="19.77010868489742279052734375">
        <ele>1503.800048828125</ele>
        <time>2026-06-18T08:16:57.000Z</time>
        <extensions>
          <ns3:TrackPointExtension>
            <ns3:atemp>25.0</ns3:atemp>
          </ns3:TrackPointExtension>
        </extensions>
      </trkpt>
      <trkpt lat="42.5406946241855621337890625" lon="19.77009351365268230438232421875">
        <ele>1504</ele>
        <time>2026-06-18T08:16:58.000Z</time>
        <extensions>
          <ns3:TrackPointExtension>
            <ns3:atemp>25.0</ns3:atemp>
          </ns3:TrackPointExtension>
        </extensions>
      </trkpt>
      <trkpt lat="42.54066989757120609283447265625" lon="19.770077168941497802734375">
        <ele>1504.4000244140625</ele>
        <time>2026-06-18T08:16:59.000Z</time>
        <extensions>
          <ns3:TrackPointExtension>
            <ns3:atemp>25.0</ns3:atemp>
          </ns3:TrackPointExtension>
        </extensions>
      </trkpt>
      <trkpt lat="42.54064726643264293670654296875" lon="19.77006317116320133209228515625">
        <ele>1504.5999755859375</ele>
        <time>2026-06-18T08:17:00.000Z</time>
        <extensions>
          <ns3:TrackPointExtension>
            <ns3:atemp>25.0</ns3:atemp>
          </ns3:TrackPointExtension>
        </extensions>
      </trkpt>
      <trkpt lat="42.540629915893077850341796875" lon="19.77004833519458770751953125">
        <ele>1505</ele>
        <time>2026-06-18T08:17:01.000Z</time>
        <extensions>
          <ns3:TrackPointExtension>
            <ns3:atemp>25.0</ns3:atemp>
          </ns3:TrackPointExtension>
        </extensions>
      </trkpt>
      <trkpt lat="42.5406141579151153564453125" lon="19.7700347565114498138427734375">
        <ele>1505.199951171875</ele>
        <time>2026-06-18T08:17:02.000Z</time>
        <extensions>
          <ns3:TrackPointExtension>
            <ns3:atemp>25.0</ns3:atemp>
          </ns3:TrackPointExtension>
        </extensions>
      </trkpt>
      <trkpt lat="42.54059077240526676177978515625" lon="19.77001489140093326568603515625">
        <ele>1505.4000244140625</ele>
        <time>2026-06-18T08:17:03.000Z</time>
        <extensions>
          <ns3:TrackPointExtension>
            <ns3:atemp>25.0</ns3:atemp>
          </ns3:TrackPointExtension>
        </extensions>
      </trkpt>
      <trkpt lat="42.54056780599057674407958984375" lon="19.770002067089080810546875">
        <ele>1505.800048828125</ele>
        <time>2026-06-18T08:17:04.000Z</time>
        <extensions>
          <ns3:TrackPointExtension>
            <ns3:atemp>25.0</ns3:atemp>
          </ns3:TrackPointExtension>
        </extensions>
      </trkpt>
      <trkpt lat="42.54054752178490161895751953125" lon="19.76998589001595973968505859375">
        <ele>1506.199951171875</ele>
        <time>2026-06-18T08:17:05.000Z</time>
        <extensions>
          <ns3:TrackPointExtension>
            <ns3:atemp>25.0</ns3:atemp>
          </ns3:TrackPointExtension>
        </extensions>
      </trkpt>
      <trkpt lat="42.540524639189243316650390625" lon="19.76996577344834804534912109375">
        <ele>1506.4000244140625</ele>
        <time>2026-06-18T08:17:06.000Z</time>
        <extensions>
          <ns3:TrackPointExtension>
            <ns3:atemp>25.0</ns3:atemp>
          </ns3:TrackPointExtension>
        </extensions>
      </trkpt>
      <trkpt lat="42.54050829447805881500244140625" lon="19.76994649507105350494384765625">
        <ele>1506.800048828125</ele>
        <time>2026-06-18T08:17:07.000Z</time>
        <extensions>
          <ns3:TrackPointExtension>
            <ns3:atemp>25.0</ns3:atemp>
          </ns3:TrackPointExtension>
        </extensions>
      </trkpt>
      <trkpt lat="42.5404909439384937286376953125" lon="19.7699244506657123565673828125">
        <ele>1507</ele>
        <time>2026-06-18T08:17:08.000Z</time>
        <extensions>
          <ns3:TrackPointExtension>
            <ns3:atemp>25.0</ns3:atemp>
          </ns3:TrackPointExtension>
        </extensions>
      </trkpt>
      <trkpt lat="42.5404741801321506500244140625" lon="19.769907854497432708740234375">
        <ele>1507.4000244140625</ele>
        <time>2026-06-18T08:17:09.000Z</time>
        <extensions>
          <ns3:TrackPointExtension>
            <ns3:atemp>25.0</ns3:atemp>
          </ns3:TrackPointExtension>
        </extensions>
      </trkpt>
      <trkpt lat="42.54045615904033184051513671875" lon="19.76988832466304302215576171875">
        <ele>1507.800048828125</ele>
        <time>2026-06-18T08:17:10.000Z</time>
        <extensions>
          <ns3:TrackPointExtension>
            <ns3:atemp>25.0</ns3:atemp>
          </ns3:TrackPointExtension>
        </extensions>
      </trkpt>
      <trkpt lat="42.54044140689074993133544921875" lon="19.7698612511157989501953125">
        <ele>1508</ele>
        <time>2026-06-18T08:17:11.000Z</time>
        <extensions>
          <ns3:TrackPointExtension>
            <ns3:atemp>25.0</ns3:atemp>
          </ns3:TrackPointExtension>
        </extensions>
      </trkpt>
      <trkpt lat="42.54042313434183597564697265625" lon="19.76983669213950634002685546875">
        <ele>1508.4000244140625</ele>
        <time>2026-06-18T08:17:12.000Z</time>
        <extensions>
          <ns3:TrackPointExtension>
            <ns3:atemp>25.0</ns3:atemp>
          </ns3:TrackPointExtension>
        </extensions>
      </trkpt>
      <trkpt lat="42.54039346240460872650146484375" lon="19.7698128037154674530029296875">
        <ele>1508.5999755859375</ele>
        <time>2026-06-18T08:17:13.000Z</time>
        <extensions>
          <ns3:TrackPointExtension>
            <ns3:atemp>25.0</ns3:atemp>
          </ns3:TrackPointExtension>
        </extensions>
      </trkpt>
      <trkpt lat="42.54036060534417629241943359375" lon="19.769797213375568389892578125">
        <ele>1508.800048828125</ele>
        <time>2026-06-18T08:17:14.000Z</time>
        <extensions>
          <ns3:TrackPointExtension>
            <ns3:atemp>25.0</ns3:atemp>
          </ns3:TrackPointExtension>
        </extensions>
      </trkpt>
      <trkpt lat="42.54032925702631473541259765625" lon="19.76978539489209651947021484375">
        <ele>1509</ele>
        <time>2026-06-18T08:17:15.000Z</time>
        <extensions>
          <ns3:TrackPointExtension>
            <ns3:atemp>25.0</ns3:atemp>
          </ns3:TrackPointExtension>
        </extensions>
      </trkpt>
      <trkpt lat="42.54029790870845317840576171875" lon="19.76977701298892498016357421875">
        <ele>1509.199951171875</ele>
        <time>2026-06-18T08:17:16.000Z</time>
        <extensions>
          <ns3:TrackPointExtension>
            <ns3:atemp>25.0</ns3:atemp>
          </ns3:TrackPointExtension>
        </extensions>
      </trkpt>
      <trkpt lat="42.54026605747640132904052734375" lon="19.76977407932281494140625">
        <ele>1509.4000244140625</ele>
        <time>2026-06-18T08:17:17.000Z</time>
        <extensions>
          <ns3:TrackPointExtension>
            <ns3:atemp>25.0</ns3:atemp>
          </ns3:TrackPointExtension>
        </extensions>
      </trkpt>
      <trkpt lat="42.54023353569209575653076171875" lon="19.76977349258959293365478515625">
        <ele>1509.4000244140625</ele>
        <time>2026-06-18T08:17:18.000Z</time>
        <extensions>
          <ns3:TrackPointExtension>
            <ns3:atemp>25.0</ns3:atemp>
          </ns3:TrackPointExtension>
        </extensions>
      </trkpt>
      <trkpt lat="42.540203444659709930419921875" lon="19.76977148093283176422119140625">
        <ele>1509.4000244140625</ele>
        <time>2026-06-18T08:17:19.000Z</time>
        <extensions>
          <ns3:TrackPointExtension>
            <ns3:atemp>25.0</ns3:atemp>
          </ns3:TrackPointExtension>
        </extensions>
      </trkpt>
      <trkpt lat="42.5401731021702289581298828125" lon="19.7697695530951023101806640625">
        <ele>1509.4000244140625</ele>
        <time>2026-06-18T08:17:20.000Z</time>
        <extensions>
          <ns3:TrackPointExtension>
            <ns3:atemp>25.0</ns3:atemp>
          </ns3:TrackPointExtension>
        </extensions>
      </trkpt>
      <trkpt lat="42.54014016129076480865478515625" lon="19.7697725705802440643310546875">
        <ele>1509.4000244140625</ele>
        <time>2026-06-18T08:17:21.000Z</time>
        <extensions>
          <ns3:TrackPointExtension>
            <ns3:atemp>25.0</ns3:atemp>
          </ns3:TrackPointExtension>
        </extensions>
      </trkpt>
      <trkpt lat="42.5401097349822521209716796875" lon="19.76977215148508548736572265625">
        <ele>1509.5999755859375</ele>
        <time>2026-06-18T08:17:22.000Z</time>
        <extensions>
          <ns3:TrackPointExtension>
            <ns3:atemp>25.0</ns3:atemp>
          </ns3:TrackPointExtension>
        </extensions>
      </trkpt>
      <trkpt lat="42.54007763229310512542724609375" lon="19.76976796053349971771240234375">
        <ele>1509.5999755859375</ele>
        <time>2026-06-18T08:17:23.000Z</time>
        <extensions>
          <ns3:TrackPointExtension>
            <ns3:atemp>25.0</ns3:atemp>
          </ns3:TrackPointExtension>
        </extensions>
      </trkpt>
      <trkpt lat="42.54004611633718013763427734375" lon="19.76976536214351654052734375">
        <ele>1509.5999755859375</ele>
        <time>2026-06-18T08:17:24.000Z</time>
        <extensions>
          <ns3:TrackPointExtension>
            <ns3:atemp>25.0</ns3:atemp>
          </ns3:TrackPointExtension>
        </extensions>
      </trkpt>
      <trkpt lat="42.54001325927674770355224609375" lon="19.76976511068642139434814453125">
        <ele>1509.5999755859375</ele>
        <time>2026-06-18T08:17:25.000Z</time>
        <extensions>
          <ns3:TrackPointExtension>
            <ns3:atemp>25.0</ns3:atemp>
          </ns3:TrackPointExtension>
        </extensions>
      </trkpt>
      <trkpt lat="42.53997855819761753082275390625" lon="19.7697682119905948638916015625">
        <ele>1509.5999755859375</ele>
        <time>2026-06-18T08:17:26.000Z</time>
        <extensions>
          <ns3:TrackPointExtension>
            <ns3:atemp>25.0</ns3:atemp>
          </ns3:TrackPointExtension>
        </extensions>
      </trkpt>
      <trkpt lat="42.53994436003267765045166015625" lon="19.76977516897022724151611328125">
        <ele>1509.5999755859375</ele>
        <time>2026-06-18T08:17:27.000Z</time>
        <extensions>
          <ns3:TrackPointExtension>
            <ns3:atemp>25.0</ns3:atemp>
          </ns3:TrackPointExtension>
        </extensions>
      </trkpt>
      <trkpt lat="42.5399075634777545928955078125" lon="19.7697792761027812957763671875">
        <ele>1509.4000244140625</ele>
        <time>2026-06-18T08:17:28.000Z</time>
        <extensions>
          <ns3:TrackPointExtension>
            <ns3:atemp>25.0</ns3:atemp>
          </ns3:TrackPointExtension>
        </extensions>
      </trkpt>
      <trkpt lat="42.5398700125515460968017578125" lon="19.7697822935879230499267578125">
        <ele>1509.4000244140625</ele>
        <time>2026-06-18T08:17:29.000Z</time>
        <extensions>
          <ns3:TrackPointExtension>
            <ns3:atemp>25.0</ns3:atemp>
          </ns3:TrackPointExtension>
        </extensions>
      </trkpt>
      <trkpt lat="42.53982651047408580780029296875" lon="19.76978355087339878082275390625">
        <ele>1509.4000244140625</ele>
        <time>2026-06-18T08:17:30.000Z</time>
        <extensions>
          <ns3:TrackPointExtension>
            <ns3:atemp>25.0</ns3:atemp>
          </ns3:TrackPointExtension>
        </extensions>
      </trkpt>
      <trkpt lat="42.539783008396625518798828125" lon="19.7697794437408447265625">
        <ele>1509.199951171875</ele>
        <time>2026-06-18T08:17:31.000Z</time>
        <extensions>
          <ns3:TrackPointExtension>
            <ns3:atemp>25.0</ns3:atemp>
          </ns3:TrackPointExtension>
        </extensions>
      </trkpt>
      <trkpt lat="42.5397409312427043914794921875" lon="19.76976670324802398681640625">
        <ele>1509</ele>
        <time>2026-06-18T08:17:32.000Z</time>
        <extensions>
          <ns3:TrackPointExtension>
            <ns3:atemp>25.0</ns3:atemp>
          </ns3:TrackPointExtension>
        </extensions>
      </trkpt>
      <trkpt lat="42.53970581106841564178466796875" lon="19.7697485983371734619140625">
        <ele>1509</ele>
        <time>2026-06-18T08:17:33.000Z</time>
        <extensions>
          <ns3:TrackPointExtension>
            <ns3:atemp>25.0</ns3:atemp>
          </ns3:TrackPointExtension>
        </extensions>
      </trkpt>
      <trkpt lat="42.53967748023569583892822265625" lon="19.769726134836673736572265625">
        <ele>1508.800048828125</ele>
        <time>2026-06-18T08:17:34.000Z</time>
        <extensions>
          <ns3:TrackPointExtension>
            <ns3:atemp>25.0</ns3:atemp>
          </ns3:TrackPointExtension>
        </extensions>
      </trkpt>
      <trkpt lat="42.53965434618294239044189453125" lon="19.76970501244068145751953125">
        <ele>1508.800048828125</ele>
        <time>2026-06-18T08:17:35.000Z</time>
        <extensions>
          <ns3:TrackPointExtension>
            <ns3:atemp>25.0</ns3:atemp>
          </ns3:TrackPointExtension>
        </extensions>
      </trkpt>
      <trkpt lat="42.539631463587284088134765625" lon="19.76968514733016490936279296875">
        <ele>1508.800048828125</ele>
        <time>2026-06-18T08:17:36.000Z</time>
        <extensions>
          <ns3:TrackPointExtension>
            <ns3:atemp>25.0</ns3:atemp>
          </ns3:TrackPointExtension>
        </extensions>
      </trkpt>
      <trkpt lat="42.539599947631359100341796875" lon="19.76966285146772861480712890625">
        <ele>1509</ele>
        <time>2026-06-18T08:17:37.000Z</time>
        <extensions>
          <ns3:TrackPointExtension>
            <ns3:atemp>25.0</ns3:atemp>
          </ns3:TrackPointExtension>
        </extensions>
      </trkpt>
      <trkpt lat="42.53956885077059268951416015625" lon="19.76964156143367290496826171875">
        <ele>1509</ele>
        <time>2026-06-18T08:17:38.000Z</time>
        <extensions>
          <ns3:TrackPointExtension>
            <ns3:atemp>25.0</ns3:atemp>
          </ns3:TrackPointExtension>
        </extensions>
      </trkpt>
      <trkpt lat="42.5395404361188411712646484375" lon="19.7696223668754100799560546875">
        <ele>1509.199951171875</ele>
        <time>2026-06-18T08:17:39.000Z</time>
        <extensions>
          <ns3:TrackPointExtension>
            <ns3:atemp>25.0</ns3:atemp>
          </ns3:TrackPointExtension>
        </extensions>
      </trkpt>
      <trkpt lat="42.5395099259912967681884765625" lon="19.76960317231714725494384765625">
        <ele>1509.4000244140625</ele>
        <time>2026-06-18T08:17:40.000Z</time>
        <extensions>
          <ns3:TrackPointExtension>
            <ns3:atemp>25.0</ns3:atemp>
          </ns3:TrackPointExtension>
        </extensions>
      </trkpt>
      <trkpt lat="42.53947799094021320343017578125" lon="19.7695811279118061065673828125">
        <ele>1509.4000244140625</ele>
        <time>2026-06-18T08:17:41.000Z</time>
        <extensions>
          <ns3:TrackPointExtension>
            <ns3:atemp>25.0</ns3:atemp>
          </ns3:TrackPointExtension>
        </extensions>
      </trkpt>
      <trkpt lat="42.5394445471465587615966796875" lon="19.76955690421164035797119140625">
        <ele>1509.4000244140625</ele>
        <time>2026-06-18T08:17:42.000Z</time>
        <extensions>
          <ns3:TrackPointExtension>
            <ns3:atemp>25.0</ns3:atemp>
          </ns3:TrackPointExtension>
        </extensions>
      </trkpt>
      <trkpt lat="42.5394126959145069122314453125" lon="19.769535362720489501953125">
        <ele>1509.5999755859375</ele>
        <time>2026-06-18T08:17:43.000Z</time>
        <extensions>
          <ns3:TrackPointExtension>
            <ns3:atemp>25.0</ns3:atemp>
          </ns3:TrackPointExtension>
        </extensions>
      </trkpt>
      <trkpt lat="42.539383359253406524658203125" lon="19.76951985619962215423583984375">
        <ele>1509.5999755859375</ele>
        <time>2026-06-18T08:17:44.000Z</time>
        <extensions>
          <ns3:TrackPointExtension>
            <ns3:atemp>25.0</ns3:atemp>
          </ns3:TrackPointExtension>
        </extensions>
      </trkpt>
      <trkpt lat="42.53936047665774822235107421875" lon="19.76950342766940593719482421875">
        <ele>1509.800048828125</ele>
        <time>2026-06-18T08:17:45.000Z</time>
        <extensions>
          <ns3:TrackPointExtension>
            <ns3:atemp>25.0</ns3:atemp>
          </ns3:TrackPointExtension>
        </extensions>
      </trkpt>
      <trkpt lat="42.53933952189981937408447265625" lon="19.76948549039661884307861328125">
        <ele>1510</ele>
        <time>2026-06-18T08:17:46.000Z</time>
        <extensions>
          <ns3:TrackPointExtension>
            <ns3:atemp>25.0</ns3:atemp>
          </ns3:TrackPointExtension>
        </extensions>
      </trkpt>
      <trkpt lat="42.53931504674255847930908203125" lon="19.769470989704132080078125">
        <ele>1510.199951171875</ele>
        <time>2026-06-18T08:17:47.000Z</time>
        <extensions>
          <ns3:TrackPointExtension>
            <ns3:atemp>25.0</ns3:atemp>
          </ns3:TrackPointExtension>
        </extensions>
      </trkpt>
      <trkpt lat="42.53928688354790210723876953125" lon="19.7694580815732479095458984375">
        <ele>1510.4000244140625</ele>
        <time>2026-06-18T08:17:48.000Z</time>
        <extensions>
          <ns3:TrackPointExtension>
            <ns3:atemp>25.0</ns3:atemp>
          </ns3:TrackPointExtension>
        </extensions>
      </trkpt>
      <trkpt lat="42.53926676698029041290283203125" lon="19.76944123394787311553955078125">
        <ele>1510.800048828125</ele>
        <time>2026-06-18T08:17:49.000Z</time>
        <extensions>
          <ns3:TrackPointExtension>
            <ns3:atemp>25.0</ns3:atemp>
          </ns3:TrackPointExtension>
        </extensions>
      </trkpt>
      <trkpt lat="42.53924380056560039520263671875" lon="19.76942916400730609893798828125">
        <ele>1511</ele>
        <time>2026-06-18T08:17:50.000Z</time>
        <extensions>
          <ns3:TrackPointExtension>
            <ns3:atemp>25.0</ns3:atemp>
          </ns3:TrackPointExtension>
        </extensions>
      </trkpt>
      <trkpt lat="42.53922100178897380828857421875" lon="19.76940988563001155853271484375">
        <ele>1511.4000244140625</ele>
        <time>2026-06-18T08:17:51.000Z</time>
        <extensions>
          <ns3:TrackPointExtension>
            <ns3:atemp>25.0</ns3:atemp>
          </ns3:TrackPointExtension>
        </extensions>
      </trkpt>
      <trkpt lat="42.53919702954590320587158203125" lon="19.76939362473785877227783203125">
        <ele>1511.5999755859375</ele>
        <time>2026-06-18T08:17:52.000Z</time>
        <extensions>
          <ns3:TrackPointExtension>
            <ns3:atemp>25.0</ns3:atemp>
          </ns3:TrackPointExtension>
        </extensions>
      </trkpt>
      <trkpt lat="42.53917448222637176513671875" lon="19.76937434636056423187255859375">
        <ele>1512</ele>
        <time>2026-06-18T08:17:53.000Z</time>
        <extensions>
          <ns3:TrackPointExtension>
            <ns3:atemp>25.0</ns3:atemp>
          </ns3:TrackPointExtension>
        </extensions>
      </trkpt>
      <trkpt lat="42.53915227018296718597412109375" lon="19.7693554870784282684326171875">
        <ele>1512.199951171875</ele>
        <time>2026-06-18T08:17:54.000Z</time>
        <extensions>
          <ns3:TrackPointExtension>
            <ns3:atemp>25.0</ns3:atemp>
          </ns3:TrackPointExtension>
        </extensions>
      </trkpt>
      <trkpt lat="42.5391290523111820220947265625" lon="19.76934433914721012115478515625">
        <ele>1512.4000244140625</ele>
        <time>2026-06-18T08:17:55.000Z</time>
        <extensions>
          <ns3:TrackPointExtension>
            <ns3:atemp>25.0</ns3:atemp>
          </ns3:TrackPointExtension>
        </extensions>
      </trkpt>
      <trkpt lat="42.53910147584974765777587890625" lon="19.7693310119211673736572265625">
        <ele>1512.800048828125</ele>
        <time>2026-06-18T08:17:56.000Z</time>
        <extensions>
          <ns3:TrackPointExtension>
            <ns3:atemp>25.0</ns3:atemp>
          </ns3:TrackPointExtension>
        </extensions>
      </trkpt>
      <trkpt lat="42.53907901234924793243408203125" lon="19.769322462379932403564453125">
        <ele>1512.800048828125</ele>
        <time>2026-06-18T08:17:57.000Z</time>
        <extensions>
          <ns3:TrackPointExtension>
            <ns3:atemp>25.0</ns3:atemp>
          </ns3:TrackPointExtension>
        </extensions>
      </trkpt>
      <trkpt lat="42.53905353136360645294189453125" lon="19.769309721887111663818359375">
        <ele>1513</ele>
        <time>2026-06-18T08:17:58.000Z</time>
        <extensions>
          <ns3:TrackPointExtension>
            <ns3:atemp>25.0</ns3:atemp>
          </ns3:TrackPointExtension>
        </extensions>
      </trkpt>
      <trkpt lat="42.539022602140903472900390625" lon="19.76929656229913234710693359375">
        <ele>1513.199951171875</ele>
        <time>2026-06-18T08:17:59.000Z</time>
        <extensions>
          <ns3:TrackPointExtension>
            <ns3:atemp>25.0</ns3:atemp>
          </ns3:TrackPointExtension>
        </extensions>
      </trkpt>
      <trkpt lat="42.53899686969816684722900390625" lon="19.76928415708243846893310546875">
        <ele>1513.4000244140625</ele>
        <time>2026-06-18T08:18:00.000Z</time>
        <extensions>
          <ns3:TrackPointExtension>
            <ns3:atemp>25.0</ns3:atemp>
          </ns3:TrackPointExtension>
        </extensions>
      </trkpt>
      <trkpt lat="42.5389657728374004364013671875" lon="19.76927158422768115997314453125">
        <ele>1513.5999755859375</ele>
        <time>2026-06-18T08:18:01.000Z</time>
        <extensions>
          <ns3:TrackPointExtension>
            <ns3:atemp>25.0</ns3:atemp>
          </ns3:TrackPointExtension>
        </extensions>
      </trkpt>
      <trkpt lat="42.53893383778631687164306640625" lon="19.769264794886112213134765625">
        <ele>1513.5999755859375</ele>
        <time>2026-06-18T08:18:02.000Z</time>
        <extensions>
          <ns3:TrackPointExtension>
            <ns3:atemp>25.0</ns3:atemp>
          </ns3:TrackPointExtension>
        </extensions>
      </trkpt>
      <trkpt lat="42.53890517167747020721435546875" lon="19.76925482042133808135986328125">
        <ele>1514</ele>
        <time>2026-06-18T08:18:03.000Z</time>
        <extensions>
          <ns3:TrackPointExtension>
            <ns3:atemp>25.0</ns3:atemp>
          </ns3:TrackPointExtension>
        </extensions>
      </trkpt>
      <trkpt lat="42.53887943923473358154296875" lon="19.76924476213753223419189453125">
        <ele>1514.199951171875</ele>
        <time>2026-06-18T08:18:04.000Z</time>
        <extensions>
          <ns3:TrackPointExtension>
            <ns3:atemp>25.0</ns3:atemp>
          </ns3:TrackPointExtension>
        </extensions>
      </trkpt>
      <trkpt lat="42.53884968347847461700439453125" lon="19.769237302243709564208984375">
        <ele>1514.4000244140625</ele>
        <time>2026-06-18T08:18:05.000Z</time>
        <extensions>
          <ns3:TrackPointExtension>
            <ns3:atemp>25.0</ns3:atemp>
          </ns3:TrackPointExtension>
        </extensions>
      </trkpt>
      <trkpt lat="42.53882319666445255279541015625" lon="19.76922632195055484771728515625">
        <ele>1514.800048828125</ele>
        <time>2026-06-18T08:18:06.000Z</time>
        <extensions>
          <ns3:TrackPointExtension>
            <ns3:atemp>25.0</ns3:atemp>
          </ns3:TrackPointExtension>
        </extensions>
      </trkpt>
      <trkpt lat="42.538797967135906219482421875" lon="19.769218862056732177734375">
        <ele>1515</ele>
        <time>2026-06-18T08:18:07.000Z</time>
        <extensions>
          <ns3:TrackPointExtension>
            <ns3:atemp>25.0</ns3:atemp>
          </ns3:TrackPointExtension>
        </extensions>
      </trkpt>
      <trkpt lat="42.53876812756061553955078125" lon="19.76921022869646549224853515625">
        <ele>1515.199951171875</ele>
        <time>2026-06-18T08:18:08.000Z</time>
        <extensions>
          <ns3:TrackPointExtension>
            <ns3:atemp>25.0</ns3:atemp>
          </ns3:TrackPointExtension>
        </extensions>
      </trkpt>
      <trkpt lat="42.5387387908995151519775390625" lon="19.7692042775452136993408203125">
        <ele>1515.4000244140625</ele>
        <time>2026-06-18T08:18:09.000Z</time>
        <extensions>
          <ns3:TrackPointExtension>
            <ns3:atemp>25.0</ns3:atemp>
          </ns3:TrackPointExtension>
        </extensions>
      </trkpt>
      <trkpt lat="42.53870719112455844879150390625" lon="19.7692005895078182220458984375">
        <ele>1515.5999755859375</ele>
        <time>2026-06-18T08:18:10.000Z</time>
        <extensions>
          <ns3:TrackPointExtension>
            <ns3:atemp>25.0</ns3:atemp>
          </ns3:TrackPointExtension>
        </extensions>
      </trkpt>
      <trkpt lat="42.5386776030063629150390625" lon="19.76919530890882015228271484375">
        <ele>1515.800048828125</ele>
        <time>2026-06-18T08:18:11.000Z</time>
        <extensions>
          <ns3:TrackPointExtension>
            <ns3:atemp>25.0</ns3:atemp>
          </ns3:TrackPointExtension>
        </extensions>
      </trkpt>
      <trkpt lat="42.53864742815494537353515625" lon="19.7691901959478855133056640625">
        <ele>1516</ele>
        <time>2026-06-18T08:18:12.000Z</time>
        <extensions>
          <ns3:TrackPointExtension>
            <ns3:atemp>25.0</ns3:atemp>
          </ns3:TrackPointExtension>
        </extensions>
      </trkpt>
      <trkpt lat="42.53861985169351100921630859375" lon="19.76919195614755153656005859375">
        <ele>1516.4000244140625</ele>
        <time>2026-06-18T08:18:13.000Z</time>
        <extensions>
          <ns3:TrackPointExtension>
            <ns3:atemp>25.0</ns3:atemp>
          </ns3:TrackPointExtension>
        </extensions>
      </trkpt>
      <trkpt lat="42.53858967684209346771240234375" lon="19.76919463835656642913818359375">
        <ele>1516.5999755859375</ele>
        <time>2026-06-18T08:18:14.000Z</time>
        <extensions>
          <ns3:TrackPointExtension>
            <ns3:atemp>25.0</ns3:atemp>
          </ns3:TrackPointExtension>
        </extensions>
      </trkpt>
      <trkpt lat="42.5385569036006927490234375" lon="19.7691960632801055908203125">
        <ele>1516.800048828125</ele>
        <time>2026-06-18T08:18:15.000Z</time>
        <extensions>
          <ns3:TrackPointExtension>
            <ns3:atemp>25.0</ns3:atemp>
          </ns3:TrackPointExtension>
        </extensions>
      </trkpt>
      <trkpt lat="42.53852446563541889190673828125" lon="19.76919715292751789093017578125">
        <ele>1517</ele>
        <time>2026-06-18T08:18:16.000Z</time>
        <extensions>
          <ns3:TrackPointExtension>
            <ns3:atemp>25.0</ns3:atemp>
          </ns3:TrackPointExtension>
        </extensions>
      </trkpt>
      <trkpt lat="42.5384926982223987579345703125" lon="19.7691975720226764678955078125">
        <ele>1517.199951171875</ele>
        <time>2026-06-18T08:18:17.000Z</time>
        <extensions>
          <ns3:TrackPointExtension>
            <ns3:atemp>25.0</ns3:atemp>
          </ns3:TrackPointExtension>
        </extensions>
      </trkpt>
      <trkpt lat="42.53846243955194950103759765625" lon="19.769197069108486175537109375">
        <ele>1517.4000244140625</ele>
        <time>2026-06-18T08:18:18.000Z</time>
        <extensions>
          <ns3:TrackPointExtension>
            <ns3:atemp>25.0</ns3:atemp>
          </ns3:TrackPointExtension>
        </extensions>
      </trkpt>
      <trkpt lat="42.53843377344310283660888671875" lon="19.7691933810710906982421875">
        <ele>1517.5999755859375</ele>
        <time>2026-06-18T08:18:19.000Z</time>
        <extensions>
          <ns3:TrackPointExtension>
            <ns3:atemp>25.0</ns3:atemp>
          </ns3:TrackPointExtension>
        </extensions>
      </trkpt>
      <trkpt lat="42.53840376622974872589111328125" lon="19.76918776519596576690673828125">
        <ele>1517.800048828125</ele>
        <time>2026-06-18T08:18:20.000Z</time>
        <extensions>
          <ns3:TrackPointExtension>
            <ns3:atemp>25.0</ns3:atemp>
          </ns3:TrackPointExtension>
        </extensions>
      </trkpt>
      <trkpt lat="42.5383771955966949462890625" lon="19.7691878490149974822998046875">
        <ele>1518.199951171875</ele>
        <time>2026-06-18T08:18:21.000Z</time>
        <extensions>
          <ns3:TrackPointExtension>
            <ns3:atemp>25.0</ns3:atemp>
          </ns3:TrackPointExtension>
        </extensions>
      </trkpt>
      <trkpt lat="42.53835028968751430511474609375" lon="19.769182987511157989501953125">
        <ele>1518.4000244140625</ele>
        <time>2026-06-18T08:18:22.000Z</time>
        <extensions>
          <ns3:TrackPointExtension>
            <ns3:atemp>25.0</ns3:atemp>
          </ns3:TrackPointExtension>
        </extensions>
      </trkpt>
      <trkpt lat="42.538319863379001617431640625" lon="19.76918541826307773590087890625">
        <ele>1518.5999755859375</ele>
        <time>2026-06-18T08:18:23.000Z</time>
        <extensions>
          <ns3:TrackPointExtension>
            <ns3:atemp>25.0</ns3:atemp>
          </ns3:TrackPointExtension>
        </extensions>
      </trkpt>
      <trkpt lat="42.538289688527584075927734375" lon="19.769185669720172882080078125">
        <ele>1518.5999755859375</ele>
        <time>2026-06-18T08:18:24.000Z</time>
        <extensions>
          <ns3:TrackPointExtension>
            <ns3:atemp>25.0</ns3:atemp>
          </ns3:TrackPointExtension>
        </extensions>
      </trkpt>
      <trkpt lat="42.5382583402097225189208984375" lon="19.7691891901195049285888671875">
        <ele>1518.800048828125</ele>
        <time>2026-06-18T08:18:25.000Z</time>
        <extensions>
          <ns3:TrackPointExtension>
            <ns3:atemp>25.0</ns3:atemp>
          </ns3:TrackPointExtension>
        </extensions>
      </trkpt>
      <trkpt lat="42.5382278300821781158447265625" lon="19.7691955603659152984619140625">
        <ele>1518.800048828125</ele>
        <time>2026-06-18T08:18:26.000Z</time>
        <extensions>
          <ns3:TrackPointExtension>
            <ns3:atemp>25.0</ns3:atemp>
          </ns3:TrackPointExtension>
        </extensions>
      </trkpt>
      <trkpt lat="42.538194470107555389404296875" lon="19.76919782347977161407470703125">
        <ele>1518.800048828125</ele>
        <time>2026-06-18T08:18:27.000Z</time>
        <extensions>
          <ns3:TrackPointExtension>
            <ns3:atemp>25.0</ns3:atemp>
          </ns3:TrackPointExtension>
        </extensions>
      </trkpt>
      <trkpt lat="42.53816287033259868621826171875" lon="19.76920352317392826080322265625">
        <ele>1518.800048828125</ele>
        <time>2026-06-18T08:18:28.000Z</time>
        <extensions>
          <ns3:TrackPointExtension>
            <ns3:atemp>25.0</ns3:atemp>
          </ns3:TrackPointExtension>
        </extensions>
      </trkpt>
      <trkpt lat="42.53812766633927822113037109375" lon="19.7692052833735942840576171875">
        <ele>1518.800048828125</ele>
        <time>2026-06-18T08:18:29.000Z</time>
        <extensions>
          <ns3:TrackPointExtension>
            <ns3:atemp>25.0</ns3:atemp>
          </ns3:TrackPointExtension>
        </extensions>
      </trkpt>
      <trkpt lat="42.5381024368107318878173828125" lon="19.76920788176357746124267578125">
        <ele>1518.5999755859375</ele>
        <time>2026-06-18T08:18:30.000Z</time>
        <extensions>
          <ns3:TrackPointExtension>
            <ns3:atemp>25.0</ns3:atemp>
          </ns3:TrackPointExtension>
        </extensions>
      </trkpt>
      <trkpt lat="42.5380769558250904083251953125" lon="19.76920855231583118438720703125">
        <ele>1518.5999755859375</ele>
        <time>2026-06-18T08:18:31.000Z</time>
        <extensions>
          <ns3:TrackPointExtension>
            <ns3:atemp>25.0</ns3:atemp>
          </ns3:TrackPointExtension>
        </extensions>
      </trkpt>
      <trkpt lat="42.53805625252425670623779296875" lon="19.769205115735530853271484375">
        <ele>1518.4000244140625</ele>
        <time>2026-06-18T08:18:32.000Z</time>
        <extensions>
          <ns3:TrackPointExtension>
            <ns3:atemp>25.0</ns3:atemp>
          </ns3:TrackPointExtension>
        </extensions>
      </trkpt>
      <trkpt lat="42.53803345374763011932373046875" lon="19.7691992484033107757568359375">
        <ele>1518.199951171875</ele>
        <time>2026-06-18T08:18:33.000Z</time>
        <extensions>
          <ns3:TrackPointExtension>
            <ns3:atemp>25.0</ns3:atemp>
          </ns3:TrackPointExtension>
        </extensions>
      </trkpt>
      <trkpt lat="42.53800596110522747039794921875" lon="19.76918675936758518218994140625">
        <ele>1518.199951171875</ele>
        <time>2026-06-18T08:18:34.000Z</time>
        <extensions>
          <ns3:TrackPointExtension>
            <ns3:atemp>25.0</ns3:atemp>
          </ns3:TrackPointExtension>
        </extensions>
      </trkpt>
      <trkpt lat="42.5379797257483005523681640625" lon="19.76917502470314502716064453125">
        <ele>1518.199951171875</ele>
        <time>2026-06-18T08:18:35.000Z</time>
        <extensions>
          <ns3:TrackPointExtension>
            <ns3:atemp>25.0</ns3:atemp>
          </ns3:TrackPointExtension>
        </extensions>
      </trkpt>
      <trkpt lat="42.53796170465648174285888671875" lon="19.76915859617292881011962890625">
        <ele>1518.199951171875</ele>
        <time>2026-06-18T08:18:36.000Z</time>
        <extensions>
          <ns3:TrackPointExtension>
            <ns3:atemp>25.0</ns3:atemp>
          </ns3:TrackPointExtension>
        </extensions>
      </trkpt>
      <trkpt lat="42.53794200718402862548828125" lon="19.76914166472852230072021484375">
        <ele>1518.4000244140625</ele>
        <time>2026-06-18T08:18:37.000Z</time>
        <extensions>
          <ns3:TrackPointExtension>
            <ns3:atemp>25.0</ns3:atemp>
          </ns3:TrackPointExtension>
        </extensions>
      </trkpt>
      <trkpt lat="42.53792264498770236968994140625" lon="19.769121967256069183349609375">
        <ele>1518.4000244140625</ele>
        <time>2026-06-18T08:18:38.000Z</time>
        <extensions>
          <ns3:TrackPointExtension>
            <ns3:atemp>25.0</ns3:atemp>
          </ns3:TrackPointExtension>
        </extensions>
      </trkpt>
      <trkpt lat="42.53790169022977352142333984375" lon="19.76910143159329891204833984375">
        <ele>1518.4000244140625</ele>
        <time>2026-06-18T08:18:39.000Z</time>
        <extensions>
          <ns3:TrackPointExtension>
            <ns3:atemp>25.0</ns3:atemp>
          </ns3:TrackPointExtension>
        </extensions>
      </trkpt>
      <trkpt lat="42.53787838853895664215087890625" lon="19.76908014155924320220947265625">
        <ele>1518.5999755859375</ele>
        <time>2026-06-18T08:18:40.000Z</time>
        <extensions>
          <ns3:TrackPointExtension>
            <ns3:atemp>25.0</ns3:atemp>
          </ns3:TrackPointExtension>
        </extensions>
      </trkpt>
      <trkpt lat="42.5378563441336154937744140625" lon="19.769058935344219207763671875">
        <ele>1518.800048828125</ele>
        <time>2026-06-18T08:18:41.000Z</time>
        <extensions>
          <ns3:TrackPointExtension>
            <ns3:atemp>25.0</ns3:atemp>
          </ns3:TrackPointExtension>
        </extensions>
      </trkpt>
      <trkpt lat="42.53783631138503551483154296875" lon="19.76903722621500492095947265625">
        <ele>1519</ele>
        <time>2026-06-18T08:18:42.000Z</time>
        <extensions>
          <ns3:TrackPointExtension>
            <ns3:atemp>25.0</ns3:atemp>
          </ns3:TrackPointExtension>
        </extensions>
      </trkpt>
      <trkpt lat="42.53781837411224842071533203125" lon="19.7690151818096637725830078125">
        <ele>1519.199951171875</ele>
        <time>2026-06-18T08:18:43.000Z</time>
        <extensions>
          <ns3:TrackPointExtension>
            <ns3:atemp>25.0</ns3:atemp>
          </ns3:TrackPointExtension>
        </extensions>
      </trkpt>
      <trkpt lat="42.5378033705055713653564453125" lon="19.76899146102368831634521484375">
        <ele>1519.5999755859375</ele>
        <time>2026-06-18T08:18:44.000Z</time>
        <extensions>
          <ns3:TrackPointExtension>
            <ns3:atemp>24.0</ns3:atemp>
          </ns3:TrackPointExtension>
        </extensions>
      </trkpt>
      <trkpt lat="42.5377844274044036865234375" lon="19.76897419430315494537353515625">
        <ele>1519.800048828125</ele>
        <time>2026-06-18T08:18:45.000Z</time>
        <extensions>
          <ns3:TrackPointExtension>
            <ns3:atemp>24.0</ns3:atemp>
          </ns3:TrackPointExtension>
        </extensions>
      </trkpt>
      <trkpt lat="42.53776657395064830780029296875" lon="19.76895868778228759765625">
        <ele>1520</ele>
        <time>2026-06-18T08:18:46.000Z</time>
        <extensions>
          <ns3:TrackPointExtension>
            <ns3:atemp>24.0</ns3:atemp>
          </ns3:TrackPointExtension>
        </extensions>
      </trkpt>
      <trkpt lat="42.53774620592594146728515625" lon="19.76894066669046878814697265625">
        <ele>1520.199951171875</ele>
        <time>2026-06-18T08:18:47.000Z</time>
        <extensions>
          <ns3:TrackPointExtension>
            <ns3:atemp>25.0</ns3:atemp>
          </ns3:TrackPointExtension>
        </extensions>
      </trkpt>
      <trkpt lat="42.53772064112126827239990234375" lon="19.76892323233187198638916015625">
        <ele>1520.4000244140625</ele>
        <time>2026-06-18T08:18:48.000Z</time>
        <extensions>
          <ns3:TrackPointExtension>
            <ns3:atemp>25.0</ns3:atemp>
          </ns3:TrackPointExtension>
        </extensions>
      </trkpt>
      <trkpt lat="42.5376947410404682159423828125" lon="19.76890680380165576934814453125">
        <ele>1520.5999755859375</ele>
        <time>2026-06-18T08:18:49.000Z</time>
        <extensions>
          <ns3:TrackPointExtension>
            <ns3:atemp>25.0</ns3:atemp>
          </ns3:TrackPointExtension>
        </extensions>
      </trkpt>
      <trkpt lat="42.53766884095966815948486328125" lon="19.7688944824039936065673828125">
        <ele>1521</ele>
        <time>2026-06-18T08:18:50.000Z</time>
        <extensions>
          <ns3:TrackPointExtension>
            <ns3:atemp>25.0</ns3:atemp>
          </ns3:TrackPointExtension>
        </extensions>
      </trkpt>
      <trkpt lat="42.5376461260020732879638671875" lon="19.76888534612953662872314453125">
        <ele>1521.199951171875</ele>
        <time>2026-06-18T08:18:51.000Z</time>
        <extensions>
          <ns3:TrackPointExtension>
            <ns3:atemp>24.0</ns3:atemp>
          </ns3:TrackPointExtension>
        </extensions>
      </trkpt>
      <trkpt lat="42.5376193039119243621826171875" lon="19.7688795626163482666015625">
        <ele>1521.4000244140625</ele>
        <time>2026-06-18T08:18:52.000Z</time>
        <extensions>
          <ns3:TrackPointExtension>
            <ns3:atemp>24.0</ns3:atemp>
          </ns3:TrackPointExtension>
        </extensions>
      </trkpt>
      <trkpt lat="42.53759357146918773651123046875" lon="19.76887243799865245819091796875">
        <ele>1521.800048828125</ele>
        <time>2026-06-18T08:18:53.000Z</time>
        <extensions>
          <ns3:TrackPointExtension>
            <ns3:atemp>24.0</ns3:atemp>
          </ns3:TrackPointExtension>
        </extensions>
      </trkpt>
      <trkpt lat="42.53756943158805370330810546875" lon="19.76886455900967121124267578125">
        <ele>1522</ele>
        <time>2026-06-18T08:18:54.000Z</time>
        <extensions>
          <ns3:TrackPointExtension>
            <ns3:atemp>24.0</ns3:atemp>
          </ns3:TrackPointExtension>
        </extensions>
      </trkpt>
      <trkpt lat="42.53754378296434879302978515625" lon="19.76885969750583171844482421875">
        <ele>1522.4000244140625</ele>
        <time>2026-06-18T08:18:55.000Z</time>
        <extensions>
          <ns3:TrackPointExtension>
            <ns3:atemp>24.0</ns3:atemp>
          </ns3:TrackPointExtension>
        </extensions>
      </trkpt>
      <trkpt lat="42.53751746378839015960693359375" lon="19.7688465379178524017333984375">
        <ele>1522.5999755859375</ele>
        <time>2026-06-18T08:18:56.000Z</time>
        <extensions>
          <ns3:TrackPointExtension>
            <ns3:atemp>24.0</ns3:atemp>
          </ns3:TrackPointExtension>
        </extensions>
      </trkpt>
      <trkpt lat="42.53749164752662181854248046875" lon="19.76883505471050739288330078125">
        <ele>1522.800048828125</ele>
        <time>2026-06-18T08:18:57.000Z</time>
        <extensions>
          <ns3:TrackPointExtension>
            <ns3:atemp>24.0</ns3:atemp>
          </ns3:TrackPointExtension>
        </extensions>
      </trkpt>
      <trkpt lat="42.53746549598872661590576171875" lon="19.7688277624547481536865234375">
        <ele>1522.800048828125</ele>
        <time>2026-06-18T08:18:58.000Z</time>
        <extensions>
          <ns3:TrackPointExtension>
            <ns3:atemp>24.0</ns3:atemp>
          </ns3:TrackPointExtension>
        </extensions>
      </trkpt>
      <trkpt lat="42.537444122135639190673828125" lon="19.7688200511038303375244140625">
        <ele>1523</ele>
        <time>2026-06-18T08:18:59.000Z</time>
        <extensions>
          <ns3:TrackPointExtension>
            <ns3:atemp>24.0</ns3:atemp>
          </ns3:TrackPointExtension>
        </extensions>
      </trkpt>
      <trkpt lat="42.5374261848628520965576171875" lon="19.76880990900099277496337890625">
        <ele>1523.199951171875</ele>
        <time>2026-06-18T08:19:00.000Z</time>
        <extensions>
          <ns3:TrackPointExtension>
            <ns3:atemp>24.0</ns3:atemp>
          </ns3:TrackPointExtension>
        </extensions>
      </trkpt>
      <trkpt lat="42.5374060682952404022216796875" lon="19.76879850961267948150634765625">
        <ele>1523.199951171875</ele>
        <time>2026-06-18T08:19:01.000Z</time>
        <extensions>
          <ns3:TrackPointExtension>
            <ns3:atemp>24.0</ns3:atemp>
          </ns3:TrackPointExtension>
        </extensions>
      </trkpt>
      <trkpt lat="42.537384442985057830810546875" lon="19.76879096589982509613037109375">
        <ele>1523.199951171875</ele>
        <time>2026-06-18T08:19:02.000Z</time>
        <extensions>
          <ns3:TrackPointExtension>
            <ns3:atemp>24.0</ns3:atemp>
          </ns3:TrackPointExtension>
        </extensions>
      </trkpt>
      <trkpt lat="42.53736038692295551300048828125" lon="19.76877923123538494110107421875">
        <ele>1523.199951171875</ele>
        <time>2026-06-18T08:19:03.000Z</time>
        <extensions>
          <ns3:TrackPointExtension>
            <ns3:atemp>24.0</ns3:atemp>
          </ns3:TrackPointExtension>
        </extensions>
      </trkpt>
      <trkpt lat="42.53733775578439235687255859375" lon="19.76876615546643733978271484375">
        <ele>1523.199951171875</ele>
        <time>2026-06-18T08:19:04.000Z</time>
        <extensions>
          <ns3:TrackPointExtension>
            <ns3:atemp>24.0</ns3:atemp>
          </ns3:TrackPointExtension>
        </extensions>
      </trkpt>
      <trkpt lat="42.53730674274265766143798828125" lon="19.7687593661248683929443359375">
        <ele>1523.199951171875</ele>
        <time>2026-06-18T08:19:05.000Z</time>
        <extensions>
          <ns3:TrackPointExtension>
            <ns3:atemp>24.0</ns3:atemp>
          </ns3:TrackPointExtension>
        </extensions>
      </trkpt>
      <trkpt lat="42.53727287985384464263916015625" lon="19.768754504621028900146484375">
        <ele>1523.199951171875</ele>
        <time>2026-06-18T08:19:06.000Z</time>
        <extensions>
          <ns3:TrackPointExtension>
            <ns3:atemp>24.0</ns3:atemp>
          </ns3:TrackPointExtension>
        </extensions>
      </trkpt>
      <trkpt lat="42.537235915660858154296875" lon="19.76875542663037776947021484375">
        <ele>1523.4000244140625</ele>
        <time>2026-06-18T08:19:07.000Z</time>
        <extensions>
          <ns3:TrackPointExtension>
            <ns3:atemp>24.0</ns3:atemp>
          </ns3:TrackPointExtension>
        </extensions>
      </trkpt>
      <trkpt lat="42.5371995382010936737060546875" lon="19.76875341497361660003662109375">
        <ele>1523.4000244140625</ele>
        <time>2026-06-18T08:19:08.000Z</time>
        <extensions>
          <ns3:TrackPointExtension>
            <ns3:atemp>24.0</ns3:atemp>
          </ns3:TrackPointExtension>
        </extensions>
      </trkpt>
      <trkpt lat="42.53716492094099521636962890625" lon="19.76875224150717258453369140625">
        <ele>1523.4000244140625</ele>
        <time>2026-06-18T08:19:09.000Z</time>
        <extensions>
          <ns3:TrackPointExtension>
            <ns3:atemp>24.0</ns3:atemp>
          </ns3:TrackPointExtension>
        </extensions>
      </trkpt>
      <trkpt lat="42.5371281243860721588134765625" lon="19.76875509135425090789794921875">
        <ele>1523.4000244140625</ele>
        <time>2026-06-18T08:19:10.000Z</time>
        <extensions>
          <ns3:TrackPointExtension>
            <ns3:atemp>24.0</ns3:atemp>
          </ns3:TrackPointExtension>
        </extensions>
      </trkpt>
      <trkpt lat="42.53709568642079830169677734375" lon="19.76876079104840755462646484375">
        <ele>1523.4000244140625</ele>
        <time>2026-06-18T08:19:11.000Z</time>
        <extensions>
          <ns3:TrackPointExtension>
            <ns3:atemp>24.0</ns3:atemp>
          </ns3:TrackPointExtension>
        </extensions>
      </trkpt>
      <trkpt lat="42.53706048242747783660888671875" lon="19.76876196451485157012939453125">
        <ele>1523.4000244140625</ele>
        <time>2026-06-18T08:19:12.000Z</time>
        <extensions>
          <ns3:TrackPointExtension>
            <ns3:atemp>24.0</ns3:atemp>
          </ns3:TrackPointExtension>
        </extensions>
      </trkpt>
      <trkpt lat="42.5370255298912525177001953125" lon="19.76875777356326580047607421875">
        <ele>1523.199951171875</ele>
        <time>2026-06-18T08:19:13.000Z</time>
        <extensions>
          <ns3:TrackPointExtension>
            <ns3:atemp>24.0</ns3:atemp>
          </ns3:TrackPointExtension>
        </extensions>
      </trkpt>
      <trkpt lat="42.53698890097439289093017578125" lon="19.768742434680461883544921875">
        <ele>1523.199951171875</ele>
        <time>2026-06-18T08:19:14.000Z</time>
        <extensions>
          <ns3:TrackPointExtension>
            <ns3:atemp>24.0</ns3:atemp>
          </ns3:TrackPointExtension>
        </extensions>
      </trkpt>
      <trkpt lat="42.53695805557072162628173828125" lon="19.76871737278997898101806640625">
        <ele>1523</ele>
        <time>2026-06-18T08:19:15.000Z</time>
        <extensions>
          <ns3:TrackPointExtension>
            <ns3:atemp>24.0</ns3:atemp>
          </ns3:TrackPointExtension>
        </extensions>
      </trkpt>
      <trkpt lat="42.53694028593599796295166015625" lon="19.76869055069983005523681640625">
        <ele>1522.800048828125</ele>
        <time>2026-06-18T08:19:16.000Z</time>
        <extensions>
          <ns3:TrackPointExtension>
            <ns3:atemp>24.0</ns3:atemp>
          </ns3:TrackPointExtension>
        </extensions>
      </trkpt>
      <trkpt lat="42.53692016936838626861572265625" lon="19.76865819655358791351318359375">
        <ele>1522.5999755859375</ele>
        <time>2026-06-18T08:19:17.000Z</time>
        <extensions>
          <ns3:TrackPointExtension>
            <ns3:atemp>24.0</ns3:atemp>
          </ns3:TrackPointExtension>
        </extensions>
      </trkpt>
      <trkpt lat="42.5368971191346645355224609375" lon="19.76862584240734577178955078125">
        <ele>1522.5999755859375</ele>
        <time>2026-06-18T08:19:18.000Z</time>
        <extensions>
          <ns3:TrackPointExtension>
            <ns3:atemp>24.0</ns3:atemp>
          </ns3:TrackPointExtension>
        </extensions>
      </trkpt>
      <trkpt lat="42.53687473945319652557373046875" lon="19.768588878214359283447265625">
        <ele>1522.4000244140625</ele>
        <time>2026-06-18T08:19:19.000Z</time>
        <extensions>
          <ns3:TrackPointExtension>
            <ns3:atemp>24.0</ns3:atemp>
          </ns3:TrackPointExtension>
        </extensions>
      </trkpt>
      <trkpt lat="42.536845989525318145751953125" lon="19.7685541771352291107177734375">
        <ele>1522.199951171875</ele>
        <time>2026-06-18T08:19:20.000Z</time>
        <extensions>
          <ns3:TrackPointExtension>
            <ns3:atemp>24.0</ns3:atemp>
          </ns3:TrackPointExtension>
        </extensions>
      </trkpt>
      <trkpt lat="42.53681221045553684234619140625" lon="19.7685256786644458770751953125">
        <ele>1522</ele>
        <time>2026-06-18T08:19:21.000Z</time>
        <extensions>
          <ns3:TrackPointExtension>
            <ns3:atemp>24.0</ns3:atemp>
          </ns3:TrackPointExtension>
        </extensions>
      </trkpt>
      <trkpt lat="42.5367770902812480926513671875" lon="19.7685092501342296600341796875">
        <ele>1522</ele>
        <time>2026-06-18T08:19:22.000Z</time>
        <extensions>
          <ns3:TrackPointExtension>
            <ns3:atemp>24.0</ns3:atemp>
          </ns3:TrackPointExtension>
        </extensions>
      </trkpt>
      <trkpt lat="42.53674549050629138946533203125" lon="19.768491648137569427490234375">
        <ele>1521.800048828125</ele>
        <time>2026-06-18T08:19:23.000Z</time>
        <extensions>
          <ns3:TrackPointExtension>
            <ns3:atemp>24.0</ns3:atemp>
          </ns3:TrackPointExtension>
        </extensions>
      </trkpt>
      <trkpt lat="42.536718584597110748291015625" lon="19.768469519913196563720703125">
        <ele>1521.800048828125</ele>
        <time>2026-06-18T08:19:24.000Z</time>
        <extensions>
          <ns3:TrackPointExtension>
            <ns3:atemp>24.0</ns3:atemp>
          </ns3:TrackPointExtension>
        </extensions>
      </trkpt>
      <trkpt lat="42.536692433059215545654296875" lon="19.76844948716461658477783203125">
        <ele>1521.800048828125</ele>
        <time>2026-06-18T08:19:25.000Z</time>
        <extensions>
          <ns3:TrackPointExtension>
            <ns3:atemp>24.0</ns3:atemp>
          </ns3:TrackPointExtension>
        </extensions>
      </trkpt>
      <trkpt lat="42.53665924072265625" lon="19.7684289515018463134765625">
        <ele>1521.800048828125</ele>
        <time>2026-06-18T08:19:26.000Z</time>
        <extensions>
          <ns3:TrackPointExtension>
            <ns3:atemp>24.0</ns3:atemp>
          </ns3:TrackPointExtension>
        </extensions>
      </trkpt>
      <trkpt lat="42.536622025072574615478515625" lon="19.76840154267847537994384765625">
        <ele>1521.5999755859375</ele>
        <time>2026-06-18T08:19:27.000Z</time>
        <extensions>
          <ns3:TrackPointExtension>
            <ns3:atemp>24.0</ns3:atemp>
          </ns3:TrackPointExtension>
        </extensions>
      </trkpt>
      <trkpt lat="42.53658321686089038848876953125" lon="19.76837136782705783843994140625">
        <ele>1521.199951171875</ele>
        <time>2026-06-18T08:19:28.000Z</time>
        <extensions>
          <ns3:TrackPointExtension>
            <ns3:atemp>24.0</ns3:atemp>
          </ns3:TrackPointExtension>
        </extensions>
      </trkpt>
      <trkpt lat="42.53654214553534984588623046875" lon="19.76834622211754322052001953125">
        <ele>1521</ele>
        <time>2026-06-18T08:19:29.000Z</time>
        <extensions>
          <ns3:TrackPointExtension>
            <ns3:atemp>24.0</ns3:atemp>
          </ns3:TrackPointExtension>
        </extensions>
      </trkpt>
      <trkpt lat="42.53650258295238018035888671875" lon="19.76832996122539043426513671875">
        <ele>1520.800048828125</ele>
        <time>2026-06-18T08:19:30.000Z</time>
        <extensions>
          <ns3:TrackPointExtension>
            <ns3:atemp>24.0</ns3:atemp>
          </ns3:TrackPointExtension>
        </extensions>
      </trkpt>
      <trkpt lat="42.53646352328360080718994140625" lon="19.768328368663787841796875">
        <ele>1520.4000244140625</ele>
        <time>2026-06-18T08:19:31.000Z</time>
        <extensions>
          <ns3:TrackPointExtension>
            <ns3:atemp>24.0</ns3:atemp>
          </ns3:TrackPointExtension>
        </extensions>
      </trkpt>
      <trkpt lat="42.53642697818577289581298828125" lon="19.76834286935627460479736328125">
        <ele>1520.199951171875</ele>
        <time>2026-06-18T08:19:32.000Z</time>
        <extensions>
          <ns3:TrackPointExtension>
            <ns3:atemp>24.0</ns3:atemp>
          </ns3:TrackPointExtension>
        </extensions>
      </trkpt>
      <trkpt lat="42.5363972224295139312744140625" lon="19.76836298592388629913330078125">
        <ele>1520</ele>
        <time>2026-06-18T08:19:33.000Z</time>
        <extensions>
          <ns3:TrackPointExtension>
            <ns3:atemp>24.0</ns3:atemp>
          </ns3:TrackPointExtension>
        </extensions>
      </trkpt>
      <trkpt lat="42.5363653711974620819091796875" lon="19.76838561706244945526123046875">
        <ele>1519.800048828125</ele>
        <time>2026-06-18T08:19:34.000Z</time>
        <extensions>
          <ns3:TrackPointExtension>
            <ns3:atemp>24.0</ns3:atemp>
          </ns3:TrackPointExtension>
        </extensions>
      </trkpt>
      <trkpt lat="42.53633678890764713287353515625" lon="19.768404476344585418701171875">
        <ele>1519.5999755859375</ele>
        <time>2026-06-18T08:19:35.000Z</time>
        <extensions>
          <ns3:TrackPointExtension>
            <ns3:atemp>24.0</ns3:atemp>
          </ns3:TrackPointExtension>
        </extensions>
      </trkpt>
      <trkpt lat="42.5363023392856121063232421875" lon="19.7684136964380741119384765625">
        <ele>1519.4000244140625</ele>
        <time>2026-06-18T08:19:36.000Z</time>
        <extensions>
          <ns3:TrackPointExtension>
            <ns3:atemp>24.0</ns3:atemp>
          </ns3:TrackPointExtension>
        </extensions>
      </trkpt>
      <trkpt lat="42.53627442754805088043212890625" lon="19.7684016264975070953369140625">
        <ele>1519.199951171875</ele>
        <time>2026-06-18T08:19:37.000Z</time>
        <extensions>
          <ns3:TrackPointExtension>
            <ns3:atemp>24.0</ns3:atemp>
          </ns3:TrackPointExtension>
        </extensions>
      </trkpt>
      <trkpt lat="42.536251209676265716552734375" lon="19.7683778218924999237060546875">
        <ele>1519</ele>
        <time>2026-06-18T08:19:38.000Z</time>
        <extensions>
          <ns3:TrackPointExtension>
            <ns3:atemp>24.0</ns3:atemp>
          </ns3:TrackPointExtension>
        </extensions>
      </trkpt>
      <trkpt lat="42.53624022938311100006103515625" lon="19.76835879497230052947998046875">
        <ele>1518.5999755859375</ele>
        <time>2026-06-18T08:19:39.000Z</time>
        <extensions>
          <ns3:TrackPointExtension>
            <ns3:atemp>24.0</ns3:atemp>
          </ns3:TrackPointExtension>
        </extensions>
      </trkpt>
      <trkpt lat="42.5362312607467174530029296875" lon="19.7683399356901645660400390625">
        <ele>1518.4000244140625</ele>
        <time>2026-06-18T08:19:40.000Z</time>
        <extensions>
          <ns3:TrackPointExtension>
            <ns3:atemp>24.0</ns3:atemp>
          </ns3:TrackPointExtension>
        </extensions>
      </trkpt>
      <trkpt lat="42.53622765652835369110107421875" lon="19.76831537671387195587158203125">
        <ele>1518.199951171875</ele>
        <time>2026-06-18T08:19:41.000Z</time>
        <extensions>
          <ns3:TrackPointExtension>
            <ns3:atemp>24.0</ns3:atemp>
          </ns3:TrackPointExtension>
        </extensions>
      </trkpt>
      <trkpt lat="42.53622480668127536773681640625" lon="19.76828821934759616851806640625">
        <ele>1518</ele>
        <time>2026-06-18T08:19:42.000Z</time>
        <extensions>
          <ns3:TrackPointExtension>
            <ns3:atemp>24.0</ns3:atemp>
          </ns3:TrackPointExtension>
        </extensions>
      </trkpt>
      <trkpt lat="42.536219023168087005615234375" lon="19.7682530991733074188232421875">
        <ele>1518</ele>
        <time>2026-06-18T08:19:43.000Z</time>
        <extensions>
          <ns3:TrackPointExtension>
            <ns3:atemp>24.0</ns3:atemp>
          </ns3:TrackPointExtension>
        </extensions>
      </trkpt>
      <trkpt lat="42.5362180173397064208984375" lon="19.76821462623775005340576171875">
        <ele>1518</ele>
        <time>2026-06-18T08:19:44.000Z</time>
        <extensions>
          <ns3:TrackPointExtension>
            <ns3:atemp>24.0</ns3:atemp>
          </ns3:TrackPointExtension>
        </extensions>
      </trkpt>
      <trkpt lat="42.53621474839746952056884765625" lon="19.76817749440670013427734375">
        <ele>1518.199951171875</ele>
        <time>2026-06-18T08:19:45.000Z</time>
        <extensions>
          <ns3:TrackPointExtension>
            <ns3:atemp>24.0</ns3:atemp>
          </ns3:TrackPointExtension>
        </extensions>
      </trkpt>
      <trkpt lat="42.53621407784521579742431640625" lon="19.76815008558332920074462890625">
        <ele>1518.4000244140625</ele>
        <time>2026-06-18T08:19:46.000Z</time>
        <extensions>
          <ns3:TrackPointExtension>
            <ns3:atemp>24.0</ns3:atemp>
          </ns3:TrackPointExtension>
        </extensions>
      </trkpt>
      <trkpt lat="42.5362151674926280975341796875" lon="19.7681203298270702362060546875">
        <ele>1518.4000244140625</ele>
        <time>2026-06-18T08:19:47.000Z</time>
        <extensions>
          <ns3:TrackPointExtension>
            <ns3:atemp>24.0</ns3:atemp>
          </ns3:TrackPointExtension>
        </extensions>
      </trkpt>
      <trkpt lat="42.53621734678745269775390625" lon="19.76809610612690448760986328125">
        <ele>1518.800048828125</ele>
        <time>2026-06-18T08:19:48.000Z</time>
        <extensions>
          <ns3:TrackPointExtension>
            <ns3:atemp>24.0</ns3:atemp>
          </ns3:TrackPointExtension>
        </extensions>
      </trkpt>
      <trkpt lat="42.5362181849777698516845703125" lon="19.7680686973035335540771484375">
        <ele>1519</ele>
        <time>2026-06-18T08:19:49.000Z</time>
        <extensions>
          <ns3:TrackPointExtension>
            <ns3:atemp>24.0</ns3:atemp>
          </ns3:TrackPointExtension>
        </extensions>
      </trkpt>
      <trkpt lat="42.536216340959072113037109375" lon="19.7680385224521160125732421875">
        <ele>1519.199951171875</ele>
        <time>2026-06-18T08:19:50.000Z</time>
        <extensions>
          <ns3:TrackPointExtension>
            <ns3:atemp>24.0</ns3:atemp>
          </ns3:TrackPointExtension>
        </extensions>
      </trkpt>
      <trkpt lat="42.53621223382651805877685546875" lon="19.7680049948394298553466796875">
        <ele>1519.4000244140625</ele>
        <time>2026-06-18T08:19:51.000Z</time>
        <extensions>
          <ns3:TrackPointExtension>
            <ns3:atemp>24.0</ns3:atemp>
          </ns3:TrackPointExtension>
        </extensions>
      </trkpt>
      <trkpt lat="42.5362057797610759735107421875" lon="19.76797238923609256744384765625">
        <ele>1519.5999755859375</ele>
        <time>2026-06-18T08:19:52.000Z</time>
        <extensions>
          <ns3:TrackPointExtension>
            <ns3:atemp>24.0</ns3:atemp>
          </ns3:TrackPointExtension>
        </extensions>
      </trkpt>
      <trkpt lat="42.536195553839206695556640625" lon="19.7679434716701507568359375">
        <ele>1519.800048828125</ele>
        <time>2026-06-18T08:19:53.000Z</time>
        <extensions>
          <ns3:TrackPointExtension>
            <ns3:atemp>24.0</ns3:atemp>
          </ns3:TrackPointExtension>
        </extensions>
      </trkpt>
      <trkpt lat="42.53618239425122737884521484375" lon="19.76792276836931705474853515625">
        <ele>1520</ele>
        <time>2026-06-18T08:19:54.000Z</time>
        <extensions>
          <ns3:TrackPointExtension>
            <ns3:atemp>24.0</ns3:atemp>
          </ns3:TrackPointExtension>
        </extensions>
      </trkpt>
      <trkpt lat="42.5361628644168376922607421875" lon="19.7679020650684833526611328125">
        <ele>1520.199951171875</ele>
        <time>2026-06-18T08:19:55.000Z</time>
        <extensions>
          <ns3:TrackPointExtension>
            <ns3:atemp>24.0</ns3:atemp>
          </ns3:TrackPointExtension>
        </extensions>
      </trkpt>
      <trkpt lat="42.53614232875406742095947265625" lon="19.76788823492825031280517578125">
        <ele>1520.5999755859375</ele>
        <time>2026-06-18T08:19:56.000Z</time>
        <extensions>
          <ns3:TrackPointExtension>
            <ns3:atemp>24.0</ns3:atemp>
          </ns3:TrackPointExtension>
        </extensions>
      </trkpt>
      <trkpt lat="42.53611969761550426483154296875" lon="19.767876081168651580810546875">
        <ele>1520.800048828125</ele>
        <time>2026-06-18T08:19:57.000Z</time>
        <extensions>
          <ns3:TrackPointExtension>
            <ns3:atemp>24.0</ns3:atemp>
          </ns3:TrackPointExtension>
        </extensions>
      </trkpt>
      <trkpt lat="42.536096982657909393310546875" lon="19.76786811836063861846923828125">
        <ele>1521</ele>
        <time>2026-06-18T08:19:58.000Z</time>
        <extensions>
          <ns3:TrackPointExtension>
            <ns3:atemp>24.0</ns3:atemp>
          </ns3:TrackPointExtension>
        </extensions>
      </trkpt>
      <trkpt lat="42.536070831120014190673828125" lon="19.767865352332592010498046875">
        <ele>1521.199951171875</ele>
        <time>2026-06-18T08:19:59.000Z</time>
        <extensions>
          <ns3:TrackPointExtension>
            <ns3:atemp>24.0</ns3:atemp>
          </ns3:TrackPointExtension>
        </extensions>
      </trkpt>
      <trkpt lat="42.5360448472201824188232421875" lon="19.7678630053997039794921875">
        <ele>1521.4000244140625</ele>
        <time>2026-06-18T08:20:00.000Z</time>
        <extensions>
          <ns3:TrackPointExtension>
            <ns3:atemp>24.0</ns3:atemp>
          </ns3:TrackPointExtension>
        </extensions>
      </trkpt>
      <trkpt lat="42.536019198596477508544921875" lon="19.76786191575229167938232421875">
        <ele>1521.4000244140625</ele>
        <time>2026-06-18T08:20:01.000Z</time>
        <extensions>
          <ns3:TrackPointExtension>
            <ns3:atemp>24.0</ns3:atemp>
          </ns3:TrackPointExtension>
        </extensions>
      </trkpt>
      <trkpt lat="42.53599346615374088287353515625" lon="19.7678588144481182098388671875">
        <ele>1521.5999755859375</ele>
        <time>2026-06-18T08:20:02.000Z</time>
        <extensions>
          <ns3:TrackPointExtension>
            <ns3:atemp>24.0</ns3:atemp>
          </ns3:TrackPointExtension>
        </extensions>
      </trkpt>
      <trkpt lat="42.53596530295908451080322265625" lon="19.767858646810054779052734375">
        <ele>1521.800048828125</ele>
        <time>2026-06-18T08:20:03.000Z</time>
        <extensions>
          <ns3:TrackPointExtension>
            <ns3:atemp>24.0</ns3:atemp>
          </ns3:TrackPointExtension>
        </extensions>
      </trkpt>
      <trkpt lat="42.5359402410686016082763671875" lon="19.76785806007683277130126953125">
        <ele>1521.800048828125</ele>
        <time>2026-06-18T08:20:04.000Z</time>
        <extensions>
          <ns3:TrackPointExtension>
            <ns3:atemp>24.0</ns3:atemp>
          </ns3:TrackPointExtension>
        </extensions>
      </trkpt>
      <trkpt lat="42.535912580788135528564453125" lon="19.7678621672093868255615234375">
        <ele>1522</ele>
        <time>2026-06-18T08:20:05.000Z</time>
        <extensions>
          <ns3:TrackPointExtension>
            <ns3:atemp>24.0</ns3:atemp>
          </ns3:TrackPointExtension>
        </extensions>
      </trkpt>
      <trkpt lat="42.535886429250240325927734375" lon="19.767862670123577117919921875">
        <ele>1522.199951171875</ele>
        <time>2026-06-18T08:20:06.000Z</time>
        <extensions>
          <ns3:TrackPointExtension>
            <ns3:atemp>24.0</ns3:atemp>
          </ns3:TrackPointExtension>
        </extensions>
      </trkpt>
      <trkpt lat="42.53586019389331340789794921875" lon="19.76786560378968715667724609375">
        <ele>1522.4000244140625</ele>
        <time>2026-06-18T08:20:07.000Z</time>
        <extensions>
          <ns3:TrackPointExtension>
            <ns3:atemp>24.0</ns3:atemp>
          </ns3:TrackPointExtension>
        </extensions>
      </trkpt>
      <trkpt lat="42.53583638928830623626708984375" lon="19.7678678669035434722900390625">
        <ele>1522.5999755859375</ele>
        <time>2026-06-18T08:20:08.000Z</time>
        <extensions>
          <ns3:TrackPointExtension>
            <ns3:atemp>24.0</ns3:atemp>
          </ns3:TrackPointExtension>
        </extensions>
      </trkpt>
      <trkpt lat="42.5358125008642673492431640625" lon="19.767870716750621795654296875">
        <ele>1522.800048828125</ele>
        <time>2026-06-18T08:20:09.000Z</time>
        <extensions>
          <ns3:TrackPointExtension>
            <ns3:atemp>24.0</ns3:atemp>
          </ns3:TrackPointExtension>
        </extensions>
      </trkpt>
      <trkpt lat="42.53578391857445240020751953125" lon="19.7678775899112224578857421875">
        <ele>1522.800048828125</ele>
        <time>2026-06-18T08:20:10.000Z</time>
        <extensions>
          <ns3:TrackPointExtension>
            <ns3:atemp>24.0</ns3:atemp>
          </ns3:TrackPointExtension>
        </extensions>
      </trkpt>
      <trkpt lat="42.53575558774173259735107421875" lon="19.7678893245756626129150390625">
        <ele>1523</ele>
        <time>2026-06-18T08:20:11.000Z</time>
        <extensions>
          <ns3:TrackPointExtension>
            <ns3:atemp>24.0</ns3:atemp>
          </ns3:TrackPointExtension>
        </extensions>
      </trkpt>
      <trkpt lat="42.5357258319854736328125" lon="19.767899215221405029296875">
        <ele>1523.199951171875</ele>
        <time>2026-06-18T08:20:12.000Z</time>
        <extensions>
          <ns3:TrackPointExtension>
            <ns3:atemp>24.0</ns3:atemp>
          </ns3:TrackPointExtension>
        </extensions>
      </trkpt>
      <trkpt lat="42.5356961600482463836669921875" lon="19.767907597124576568603515625">
        <ele>1523.4000244140625</ele>
        <time>2026-06-18T08:20:13.000Z</time>
        <extensions>
          <ns3:TrackPointExtension>
            <ns3:atemp>24.0</ns3:atemp>
          </ns3:TrackPointExtension>
        </extensions>
      </trkpt>
      <trkpt lat="42.5356693379580974578857421875" lon="19.7679194994270801544189453125">
        <ele>1523.4000244140625</ele>
        <time>2026-06-18T08:20:14.000Z</time>
        <extensions>
          <ns3:TrackPointExtension>
            <ns3:atemp>24.0</ns3:atemp>
          </ns3:TrackPointExtension>
        </extensions>
      </trkpt>
      <trkpt lat="42.535642683506011962890625" lon="19.76792846806347370147705078125">
        <ele>1523.5999755859375</ele>
        <time>2026-06-18T08:20:15.000Z</time>
        <extensions>
          <ns3:TrackPointExtension>
            <ns3:atemp>24.0</ns3:atemp>
          </ns3:TrackPointExtension>
        </extensions>
      </trkpt>
      <trkpt lat="42.535616867244243621826171875" lon="19.76794003508985042572021484375">
        <ele>1523.800048828125</ele>
        <time>2026-06-18T08:20:16.000Z</time>
        <extensions>
          <ns3:TrackPointExtension>
            <ns3:atemp>24.0</ns3:atemp>
          </ns3:TrackPointExtension>
        </extensions>
      </trkpt>
      <trkpt lat="42.5355925597250461578369140625" lon="19.7679523564875125885009765625">
        <ele>1524</ele>
        <time>2026-06-18T08:20:17.000Z</time>
        <extensions>
          <ns3:TrackPointExtension>
            <ns3:atemp>24.0</ns3:atemp>
          </ns3:TrackPointExtension>
        </extensions>
      </trkpt>
      <trkpt lat="42.5355650670826435089111328125" lon="19.76796400733292102813720703125">
        <ele>1524.4000244140625</ele>
        <time>2026-06-18T08:20:18.000Z</time>
        <extensions>
          <ns3:TrackPointExtension>
            <ns3:atemp>24.0</ns3:atemp>
          </ns3:TrackPointExtension>
        </extensions>
      </trkpt>
      <trkpt lat="42.535537071526050567626953125" lon="19.7679724730551242828369140625">
        <ele>1524.5999755859375</ele>
        <time>2026-06-18T08:20:19.000Z</time>
        <extensions>
          <ns3:TrackPointExtension>
            <ns3:atemp>24.0</ns3:atemp>
          </ns3:TrackPointExtension>
        </extensions>
      </trkpt>
      <trkpt lat="42.53550865687429904937744140625" lon="19.767982028424739837646484375">
        <ele>1524.800048828125</ele>
        <time>2026-06-18T08:20:20.000Z</time>
        <extensions>
          <ns3:TrackPointExtension>
            <ns3:atemp>24.0</ns3:atemp>
          </ns3:TrackPointExtension>
        </extensions>
      </trkpt>
      <trkpt lat="42.5354825891554355621337890625" lon="19.76798479445278644561767578125">
        <ele>1525</ele>
        <time>2026-06-18T08:20:21.000Z</time>
        <extensions>
          <ns3:TrackPointExtension>
            <ns3:atemp>24.0</ns3:atemp>
          </ns3:TrackPointExtension>
        </extensions>
      </trkpt>
      <trkpt lat="42.53545836545526981353759765625" lon="19.76798043586313724517822265625">
        <ele>1525.4000244140625</ele>
        <time>2026-06-18T08:20:22.000Z</time>
        <extensions>
          <ns3:TrackPointExtension>
            <ns3:atemp>24.0</ns3:atemp>
          </ns3:TrackPointExtension>
        </extensions>
      </trkpt>
      <trkpt lat="42.53543254919350147247314453125" lon="19.76797775365412235260009765625">
        <ele>1525.5999755859375</ele>
        <time>2026-06-18T08:20:23.000Z</time>
        <extensions>
          <ns3:TrackPointExtension>
            <ns3:atemp>24.0</ns3:atemp>
          </ns3:TrackPointExtension>
        </extensions>
      </trkpt>
      <trkpt lat="42.53541092388331890106201171875" lon="19.7679734788835048675537109375">
        <ele>1525.800048828125</ele>
        <time>2026-06-18T08:20:24.000Z</time>
        <extensions>
          <ns3:TrackPointExtension>
            <ns3:atemp>24.0</ns3:atemp>
          </ns3:TrackPointExtension>
        </extensions>
      </trkpt>
      <trkpt lat="42.53538862802088260650634765625" lon="19.76795881055295467376708984375">
        <ele>1526</ele>
        <time>2026-06-18T08:20:25.000Z</time>
        <extensions>
          <ns3:TrackPointExtension>
            <ns3:atemp>24.0</ns3:atemp>
          </ns3:TrackPointExtension>
        </extensions>
      </trkpt>
      <trkpt lat="42.535368762910366058349609375" lon="19.767937101423740386962890625">
        <ele>1526.199951171875</ele>
        <time>2026-06-18T08:20:26.000Z</time>
        <extensions>
          <ns3:TrackPointExtension>
            <ns3:atemp>24.0</ns3:atemp>
          </ns3:TrackPointExtension>
        </extensions>
      </trkpt>
      <trkpt lat="42.535349316895008087158203125" lon="19.76790986023843288421630859375">
        <ele>1526.199951171875</ele>
        <time>2026-06-18T08:20:27.000Z</time>
        <extensions>
          <ns3:TrackPointExtension>
            <ns3:atemp>24.0</ns3:atemp>
          </ns3:TrackPointExtension>
        </extensions>
      </trkpt>
      <trkpt lat="42.53533699549734592437744140625" lon="19.7678772546350955963134765625">
        <ele>1526.5999755859375</ele>
        <time>2026-06-18T08:20:28.000Z</time>
        <extensions>
          <ns3:TrackPointExtension>
            <ns3:atemp>24.0</ns3:atemp>
          </ns3:TrackPointExtension>
        </extensions>
      </trkpt>
      <trkpt lat="42.5353293679654598236083984375" lon="19.767841883003711700439453125">
        <ele>1526.800048828125</ele>
        <time>2026-06-18T08:20:29.000Z</time>
        <extensions>
          <ns3:TrackPointExtension>
            <ns3:atemp>23.0</ns3:atemp>
          </ns3:TrackPointExtension>
        </extensions>
      </trkpt>
      <trkpt lat="42.5353206507861614227294921875" lon="19.76780978031456470489501953125">
        <ele>1526.800048828125</ele>
        <time>2026-06-18T08:20:30.000Z</time>
        <extensions>
          <ns3:TrackPointExtension>
            <ns3:atemp>24.0</ns3:atemp>
          </ns3:TrackPointExtension>
        </extensions>
      </trkpt>
      <trkpt lat="42.53531654365360736846923828125" lon="19.767776168882846832275390625">
        <ele>1527</ele>
        <time>2026-06-18T08:20:31.000Z</time>
        <extensions>
          <ns3:TrackPointExtension>
            <ns3:atemp>24.0</ns3:atemp>
          </ns3:TrackPointExtension>
        </extensions>
      </trkpt>
      <trkpt lat="42.53531277179718017578125" lon="19.76774238981306552886962890625">
        <ele>1527.199951171875</ele>
        <time>2026-06-18T08:20:32.000Z</time>
        <extensions>
          <ns3:TrackPointExtension>
            <ns3:atemp>24.0</ns3:atemp>
          </ns3:TrackPointExtension>
        </extensions>
      </trkpt>
      <trkpt lat="42.535311765968799591064453125" lon="19.7677082754671573638916015625">
        <ele>1527.4000244140625</ele>
        <time>2026-06-18T08:20:33.000Z</time>
        <extensions>
          <ns3:TrackPointExtension>
            <ns3:atemp>24.0</ns3:atemp>
          </ns3:TrackPointExtension>
        </extensions>
      </trkpt>
      <trkpt lat="42.5353087484836578369140625" lon="19.7676760889589786529541015625">
        <ele>1527.5999755859375</ele>
        <time>2026-06-18T08:20:34.000Z</time>
        <extensions>
          <ns3:TrackPointExtension>
            <ns3:atemp>24.0</ns3:atemp>
          </ns3:TrackPointExtension>
        </extensions>
      </trkpt>
      <trkpt lat="42.53531084395945072174072265625" lon="19.76764063350856304168701171875">
        <ele>1527.800048828125</ele>
        <time>2026-06-18T08:20:35.000Z</time>
        <extensions>
          <ns3:TrackPointExtension>
            <ns3:atemp>24.0</ns3:atemp>
          </ns3:TrackPointExtension>
        </extensions>
      </trkpt>
      <trkpt lat="42.53531201742589473724365234375" lon="19.76760484278202056884765625">
        <ele>1528</ele>
        <time>2026-06-18T08:20:36.000Z</time>
        <extensions>
          <ns3:TrackPointExtension>
            <ns3:atemp>24.0</ns3:atemp>
          </ns3:TrackPointExtension>
        </extensions>
      </trkpt>
      <trkpt lat="42.53530866466462612152099609375" lon="19.7675693035125732421875">
        <ele>1528.199951171875</ele>
        <time>2026-06-18T08:20:37.000Z</time>
        <extensions>
          <ns3:TrackPointExtension>
            <ns3:atemp>24.0</ns3:atemp>
          </ns3:TrackPointExtension>
        </extensions>
      </trkpt>
      <trkpt lat="42.5353075750172138214111328125" lon="19.76753334514796733856201171875">
        <ele>1528.4000244140625</ele>
        <time>2026-06-18T08:20:38.000Z</time>
        <extensions>
          <ns3:TrackPointExtension>
            <ns3:atemp>23.0</ns3:atemp>
          </ns3:TrackPointExtension>
        </extensions>
      </trkpt>
      <trkpt lat="42.53530950285494327545166015625" lon="19.76749830879271030426025390625">
        <ele>1528.5999755859375</ele>
        <time>2026-06-18T08:20:39.000Z</time>
        <extensions>
          <ns3:TrackPointExtension>
            <ns3:atemp>23.0</ns3:atemp>
          </ns3:TrackPointExtension>
        </extensions>
      </trkpt>
      <trkpt lat="42.5353114306926727294921875" lon="19.767458997666835784912109375">
        <ele>1529</ele>
        <time>2026-06-18T08:20:40.000Z</time>
        <extensions>
          <ns3:TrackPointExtension>
            <ns3:atemp>23.0</ns3:atemp>
          </ns3:TrackPointExtension>
        </extensions>
      </trkpt>
      <trkpt lat="42.535309083759784698486328125" lon="19.76742186583578586578369140625">
        <ele>1529.4000244140625</ele>
        <time>2026-06-18T08:20:41.000Z</time>
        <extensions>
          <ns3:TrackPointExtension>
            <ns3:atemp>23.0</ns3:atemp>
          </ns3:TrackPointExtension>
        </extensions>
      </trkpt>
      <trkpt lat="42.53530799411237239837646484375" lon="19.767381884157657623291015625">
        <ele>1529.800048828125</ele>
        <time>2026-06-18T08:20:42.000Z</time>
        <extensions>
          <ns3:TrackPointExtension>
            <ns3:atemp>24.0</ns3:atemp>
          </ns3:TrackPointExtension>
        </extensions>
      </trkpt>
      <trkpt lat="42.5353115983307361602783203125" lon="19.76734424941241741180419921875">
        <ele>1530.199951171875</ele>
        <time>2026-06-18T08:20:43.000Z</time>
        <extensions>
          <ns3:TrackPointExtension>
            <ns3:atemp>23.0</ns3:atemp>
          </ns3:TrackPointExtension>
        </extensions>
      </trkpt>
      <trkpt lat="42.53531570546329021453857421875" lon="19.7673042677342891693115234375">
        <ele>1530.4000244140625</ele>
        <time>2026-06-18T08:20:44.000Z</time>
        <extensions>
          <ns3:TrackPointExtension>
            <ns3:atemp>23.0</ns3:atemp>
          </ns3:TrackPointExtension>
        </extensions>
      </trkpt>
      <trkpt lat="42.5353181362152099609375" lon="19.7672670520842075347900390625">
        <ele>1530.800048828125</ele>
        <time>2026-06-18T08:20:45.000Z</time>
        <extensions>
          <ns3:TrackPointExtension>
            <ns3:atemp>23.0</ns3:atemp>
          </ns3:TrackPointExtension>
        </extensions>
      </trkpt>
      <trkpt lat="42.53532140515744686126708984375" lon="19.76723109371960163116455078125">
        <ele>1531</ele>
        <time>2026-06-18T08:20:46.000Z</time>
        <extensions>
          <ns3:TrackPointExtension>
            <ns3:atemp>23.0</ns3:atemp>
          </ns3:TrackPointExtension>
        </extensions>
      </trkpt>
      <trkpt lat="42.53532559610903263092041015625" lon="19.76719253696501255035400390625">
        <ele>1531.199951171875</ele>
        <time>2026-06-18T08:20:47.000Z</time>
        <extensions>
          <ns3:TrackPointExtension>
            <ns3:atemp>23.0</ns3:atemp>
          </ns3:TrackPointExtension>
        </extensions>
      </trkpt>
      <trkpt lat="42.5353337265551090240478515625" lon="19.7671590931713581085205078125">
        <ele>1531.5999755859375</ele>
        <time>2026-06-18T08:20:48.000Z</time>
        <extensions>
          <ns3:TrackPointExtension>
            <ns3:atemp>23.0</ns3:atemp>
          </ns3:TrackPointExtension>
        </extensions>
      </trkpt>
      <trkpt lat="42.53534303046762943267822265625" lon="19.76712338626384735107421875">
        <ele>1531.800048828125</ele>
        <time>2026-06-18T08:20:49.000Z</time>
        <extensions>
          <ns3:TrackPointExtension>
            <ns3:atemp>23.0</ns3:atemp>
          </ns3:TrackPointExtension>
        </extensions>
      </trkpt>
      <trkpt lat="42.5353545136749744415283203125" lon="19.76708960719406604766845703125">
        <ele>1532.199951171875</ele>
        <time>2026-06-18T08:20:50.000Z</time>
        <extensions>
          <ns3:TrackPointExtension>
            <ns3:atemp>23.0</ns3:atemp>
          </ns3:TrackPointExtension>
        </extensions>
      </trkpt>
      <trkpt lat="42.53536415286362171173095703125" lon="19.76705457083880901336669921875">
        <ele>1532.5999755859375</ele>
        <time>2026-06-18T08:20:51.000Z</time>
        <extensions>
          <ns3:TrackPointExtension>
            <ns3:atemp>23.0</ns3:atemp>
          </ns3:TrackPointExtension>
        </extensions>
      </trkpt>
      <trkpt lat="42.535367421805858612060546875" lon="19.76701634936034679412841796875">
        <ele>1533</ele>
        <time>2026-06-18T08:20:52.000Z</time>
        <extensions>
          <ns3:TrackPointExtension>
            <ns3:atemp>23.0</ns3:atemp>
          </ns3:TrackPointExtension>
        </extensions>
      </trkpt>
      <trkpt lat="42.535363733768463134765625" lon="19.7669767029583454132080078125">
        <ele>1533.199951171875</ele>
        <time>2026-06-18T08:20:53.000Z</time>
        <extensions>
          <ns3:TrackPointExtension>
            <ns3:atemp>23.0</ns3:atemp>
          </ns3:TrackPointExtension>
        </extensions>
      </trkpt>
      <trkpt lat="42.5353592075407505035400390625" lon="19.766936637461185455322265625">
        <ele>1533.4000244140625</ele>
        <time>2026-06-18T08:20:54.000Z</time>
        <extensions>
          <ns3:TrackPointExtension>
            <ns3:atemp>23.0</ns3:atemp>
          </ns3:TrackPointExtension>
        </extensions>
      </trkpt>
      <trkpt lat="42.53535769879817962646484375" lon="19.76689497940242290496826171875">
        <ele>1533.5999755859375</ele>
        <time>2026-06-18T08:20:55.000Z</time>
        <extensions>
          <ns3:TrackPointExtension>
            <ns3:atemp>23.0</ns3:atemp>
          </ns3:TrackPointExtension>
        </extensions>
      </trkpt>
      <trkpt lat="42.53535610623657703399658203125" lon="19.7668491303920745849609375">
        <ele>1533.5999755859375</ele>
        <time>2026-06-18T08:20:56.000Z</time>
        <extensions>
          <ns3:TrackPointExtension>
            <ns3:atemp>23.0</ns3:atemp>
          </ns3:TrackPointExtension>
        </extensions>
      </trkpt>
      <trkpt lat="42.53536934964358806610107421875" lon="19.76680378429591655731201171875">
        <ele>1533.800048828125</ele>
        <time>2026-06-18T08:20:57.000Z</time>
        <extensions>
          <ns3:TrackPointExtension>
            <ns3:atemp>23.0</ns3:atemp>
          </ns3:TrackPointExtension>
        </extensions>
      </trkpt>
      <trkpt lat="42.53539348952472209930419921875" lon="19.7667740285396575927734375">
        <ele>1534</ele>
        <time>2026-06-18T08:20:58.000Z</time>
        <extensions>
          <ns3:TrackPointExtension>
            <ns3:atemp>23.0</ns3:atemp>
          </ns3:TrackPointExtension>
        </extensions>
      </trkpt>
      <trkpt lat="42.5354148633778095245361328125" lon="19.76675231941044330596923828125">
        <ele>1534</ele>
        <time>2026-06-18T08:20:59.000Z</time>
        <extensions>
          <ns3:TrackPointExtension>
            <ns3:atemp>23.0</ns3:atemp>
          </ns3:TrackPointExtension>
        </extensions>
      </trkpt>
      <trkpt lat="42.53544009290635585784912109375" lon="19.76673169992864131927490234375">
        <ele>1534.199951171875</ele>
        <time>2026-06-18T08:21:00.000Z</time>
        <extensions>
          <ns3:TrackPointExtension>
            <ns3:atemp>23.0</ns3:atemp>
          </ns3:TrackPointExtension>
        </extensions>
      </trkpt>
      <trkpt lat="42.53546305932104587554931640625" lon="19.7667114995419979095458984375">
        <ele>1534.4000244140625</ele>
        <time>2026-06-18T08:21:01.000Z</time>
        <extensions>
          <ns3:TrackPointExtension>
            <ns3:atemp>23.0</ns3:atemp>
          </ns3:TrackPointExtension>
        </extensions>
      </trkpt>
      <trkpt lat="42.53548384644091129302978515625" lon="19.7666933946311473846435546875">
        <ele>1534.4000244140625</ele>
        <time>2026-06-18T08:21:02.000Z</time>
        <extensions>
          <ns3:TrackPointExtension>
            <ns3:atemp>23.0</ns3:atemp>
          </ns3:TrackPointExtension>
        </extensions>
      </trkpt>
      <trkpt lat="42.53550513647496700286865234375" lon="19.7666709311306476593017578125">
        <ele>1534.5999755859375</ele>
        <time>2026-06-18T08:21:03.000Z</time>
        <extensions>
          <ns3:TrackPointExtension>
            <ns3:atemp>23.0</ns3:atemp>
          </ns3:TrackPointExtension>
        </extensions>
      </trkpt>
      <trkpt lat="42.5355248339474201202392578125" lon="19.76664863526821136474609375">
        <ele>1534.800048828125</ele>
        <time>2026-06-18T08:21:04.000Z</time>
        <extensions>
          <ns3:TrackPointExtension>
            <ns3:atemp>23.0</ns3:atemp>
          </ns3:TrackPointExtension>
        </extensions>
      </trkpt>
      <trkpt lat="42.53554570488631725311279296875" lon="19.7666280157864093780517578125">
        <ele>1535</ele>
        <time>2026-06-18T08:21:05.000Z</time>
        <extensions>
          <ns3:TrackPointExtension>
            <ns3:atemp>23.0</ns3:atemp>
          </ns3:TrackPointExtension>
        </extensions>
      </trkpt>
      <trkpt lat="42.53556288778781890869140625" lon="19.76661049760878086090087890625">
        <ele>1535.5999755859375</ele>
        <time>2026-06-18T08:21:06.000Z</time>
        <extensions>
          <ns3:TrackPointExtension>
            <ns3:atemp>23.0</ns3:atemp>
          </ns3:TrackPointExtension>
        </extensions>
      </trkpt>
      <trkpt lat="42.5355778075754642486572265625" lon="19.76658702827990055084228515625">
        <ele>1536</ele>
        <time>2026-06-18T08:21:07.000Z</time>
        <extensions>
          <ns3:TrackPointExtension>
            <ns3:atemp>23.0</ns3:atemp>
          </ns3:TrackPointExtension>
        </extensions>
      </trkpt>
      <trkpt lat="42.53559105098247528076171875" lon="19.76656909100711345672607421875">
        <ele>1536.4000244140625</ele>
        <time>2026-06-18T08:21:08.000Z</time>
        <extensions>
          <ns3:TrackPointExtension>
            <ns3:atemp>23.0</ns3:atemp>
          </ns3:TrackPointExtension>
        </extensions>
      </trkpt>
      <trkpt lat="42.53560312092304229736328125" lon="19.76654746569693088531494140625">
        <ele>1536.5999755859375</ele>
        <time>2026-06-18T08:21:09.000Z</time>
        <extensions>
          <ns3:TrackPointExtension>
            <ns3:atemp>23.0</ns3:atemp>
          </ns3:TrackPointExtension>
        </extensions>
      </trkpt>
      <trkpt lat="42.535611502826213836669921875" lon="19.76652927696704864501953125">
        <ele>1537</ele>
        <time>2026-06-18T08:21:10.000Z</time>
        <extensions>
          <ns3:TrackPointExtension>
            <ns3:atemp>23.0</ns3:atemp>
          </ns3:TrackPointExtension>
        </extensions>
      </trkpt>
      <trkpt lat="42.535616867244243621826171875" lon="19.7665120102465152740478515625">
        <ele>1537.199951171875</ele>
        <time>2026-06-18T08:21:11.000Z</time>
        <extensions>
          <ns3:TrackPointExtension>
            <ns3:atemp>23.0</ns3:atemp>
          </ns3:TrackPointExtension>
        </extensions>
      </trkpt>
      <trkpt lat="42.5356183759868144989013671875" lon="19.76649683900177478790283203125">
        <ele>1537.5999755859375</ele>
        <time>2026-06-18T08:21:12.000Z</time>
        <extensions>
          <ns3:TrackPointExtension>
            <ns3:atemp>23.0</ns3:atemp>
          </ns3:TrackPointExtension>
        </extensions>
      </trkpt>
      <trkpt lat="42.53562248311936855316162109375" lon="19.76648376323282718658447265625">
        <ele>1537.5999755859375</ele>
        <time>2026-06-18T08:21:13.000Z</time>
        <extensions>
          <ns3:TrackPointExtension>
            <ns3:atemp>23.0</ns3:atemp>
          </ns3:TrackPointExtension>
        </extensions>
      </trkpt>
      <trkpt lat="42.53562323749065399169921875" lon="19.7664707712829113006591796875">
        <ele>1537.800048828125</ele>
        <time>2026-06-18T08:21:14.000Z</time>
        <extensions>
          <ns3:TrackPointExtension>
            <ns3:atemp>23.0</ns3:atemp>
          </ns3:TrackPointExtension>
        </extensions>
      </trkpt>
      <trkpt lat="42.53562851808965206146240234375" lon="19.76644990034401416778564453125">
        <ele>1537.800048828125</ele>
        <time>2026-06-18T08:21:15.000Z</time>
        <extensions>
          <ns3:TrackPointExtension>
            <ns3:atemp>23.0</ns3:atemp>
          </ns3:TrackPointExtension>
        </extensions>
      </trkpt>
      <trkpt lat="42.53563874401152133941650390625" lon="19.7664369083940982818603515625">
        <ele>1537.800048828125</ele>
        <time>2026-06-18T08:21:16.000Z</time>
        <extensions>
          <ns3:TrackPointExtension>
            <ns3:atemp>23.0</ns3:atemp>
          </ns3:TrackPointExtension>
        </extensions>
      </trkpt>
      <trkpt lat="42.5356520712375640869140625" lon="19.766429699957370758056640625">
        <ele>1538</ele>
        <time>2026-06-18T08:21:17.000Z</time>
        <extensions>
          <ns3:TrackPointExtension>
            <ns3:atemp>23.0</ns3:atemp>
          </ns3:TrackPointExtension>
        </extensions>
      </trkpt>
      <trkpt lat="42.535665817558765411376953125" lon="19.7664253413677215576171875">
        <ele>1538</ele>
        <time>2026-06-18T08:21:18.000Z</time>
        <extensions>
          <ns3:TrackPointExtension>
            <ns3:atemp>23.0</ns3:atemp>
          </ns3:TrackPointExtension>
        </extensions>
      </trkpt>
      <trkpt lat="42.5356763787567615509033203125" lon="19.76642425172030925750732421875">
        <ele>1538</ele>
        <time>2026-06-18T08:21:19.000Z</time>
        <extensions>
          <ns3:TrackPointExtension>
            <ns3:atemp>23.0</ns3:atemp>
          </ns3:TrackPointExtension>
        </extensions>
      </trkpt>
      <trkpt lat="42.5356854312121868133544921875" lon="19.76642643101513385772705078125">
        <ele>1538.199951171875</ele>
        <time>2026-06-18T08:21:20.000Z</time>
        <extensions>
          <ns3:TrackPointExtension>
            <ns3:atemp>23.0</ns3:atemp>
          </ns3:TrackPointExtension>
        </extensions>
      </trkpt>
      <trkpt lat="42.535691969096660614013671875" lon="19.76643917150795459747314453125">
        <ele>1538.199951171875</ele>
        <time>2026-06-18T08:21:21.000Z</time>
        <extensions>
          <ns3:TrackPointExtension>
            <ns3:atemp>23.0</ns3:atemp>
          </ns3:TrackPointExtension>
        </extensions>
      </trkpt>
      <trkpt lat="42.53568828105926513671875" lon="19.7664526663720607757568359375">
        <ele>1538.199951171875</ele>
        <time>2026-06-18T08:21:22.000Z</time>
        <extensions>
          <ns3:TrackPointExtension>
            <ns3:atemp>23.0</ns3:atemp>
          </ns3:TrackPointExtension>
        </extensions>
      </trkpt>
      <trkpt lat="42.535676546394824981689453125" lon="19.7664573602378368377685546875">
        <ele>1538</ele>
        <time>2026-06-18T08:21:23.000Z</time>
        <extensions>
          <ns3:TrackPointExtension>
            <ns3:atemp>23.0</ns3:atemp>
          </ns3:TrackPointExtension>
        </extensions>
      </trkpt>
      <trkpt lat="42.53566078841686248779296875" lon="19.76645560003817081451416015625">
        <ele>1538</ele>
        <time>2026-06-18T08:21:24.000Z</time>
        <extensions>
          <ns3:TrackPointExtension>
            <ns3:atemp>23.0</ns3:atemp>
          </ns3:TrackPointExtension>
        </extensions>
      </trkpt>
      <trkpt lat="42.5356438569724559783935546875" lon="19.76644604466855525970458984375">
        <ele>1538</ele>
        <time>2026-06-18T08:21:25.000Z</time>
        <extensions>
          <ns3:TrackPointExtension>
            <ns3:atemp>23.0</ns3:atemp>
          </ns3:TrackPointExtension>
        </extensions>
      </trkpt>
      <trkpt lat="42.53562533296644687652587890625" lon="19.76643431000411510467529296875">
        <ele>1538</ele>
        <time>2026-06-18T08:21:26.000Z</time>
        <extensions>
          <ns3:TrackPointExtension>
            <ns3:atemp>23.0</ns3:atemp>
          </ns3:TrackPointExtension>
        </extensions>
      </trkpt>
      <trkpt lat="42.535605132579803466796875" lon="19.76642559282481670379638671875">
        <ele>1538</ele>
        <time>2026-06-18T08:21:27.000Z</time>
        <extensions>
          <ns3:TrackPointExtension>
            <ns3:atemp>23.0</ns3:atemp>
          </ns3:TrackPointExtension>
        </extensions>
      </trkpt>
      <trkpt lat="42.5355850160121917724609375" lon="19.7664226591587066650390625">
        <ele>1538</ele>
        <time>2026-06-18T08:21:28.000Z</time>
        <extensions>
          <ns3:TrackPointExtension>
            <ns3:atemp>23.0</ns3:atemp>
          </ns3:TrackPointExtension>
        </extensions>
      </trkpt>
      <trkpt lat="42.5355627201497554779052734375" lon="19.76641972549259662628173828125">
        <ele>1538</ele>
        <time>2026-06-18T08:21:29.000Z</time>
        <extensions>
          <ns3:TrackPointExtension>
            <ns3:atemp>23.0</ns3:atemp>
          </ns3:TrackPointExtension>
        </extensions>
      </trkpt>
      <trkpt lat="42.53553916700184345245361328125" lon="19.76641754619777202606201171875">
        <ele>1538</ele>
        <time>2026-06-18T08:21:30.000Z</time>
        <extensions>
          <ns3:TrackPointExtension>
            <ns3:atemp>23.0</ns3:atemp>
          </ns3:TrackPointExtension>
        </extensions>
      </trkpt>
      <trkpt lat="42.535518966615200042724609375" lon="19.76641754619777202606201171875">
        <ele>1538.199951171875</ele>
        <time>2026-06-18T08:21:31.000Z</time>
        <extensions>
          <ns3:TrackPointExtension>
            <ns3:atemp>23.0</ns3:atemp>
          </ns3:TrackPointExtension>
        </extensions>
      </trkpt>
      <trkpt lat="42.53549809567630290985107421875" lon="19.7664164565503597259521484375">
        <ele>1538.4000244140625</ele>
        <time>2026-06-18T08:21:32.000Z</time>
        <extensions>
          <ns3:TrackPointExtension>
            <ns3:atemp>23.0</ns3:atemp>
          </ns3:TrackPointExtension>
        </extensions>
      </trkpt>
      <trkpt lat="42.5354782305657863616943359375" lon="19.7664221562445163726806640625">
        <ele>1538.5999755859375</ele>
        <time>2026-06-18T08:21:33.000Z</time>
        <extensions>
          <ns3:TrackPointExtension>
            <ns3:atemp>23.0</ns3:atemp>
          </ns3:TrackPointExtension>
        </extensions>
      </trkpt>
      <trkpt lat="42.5354616343975067138671875" lon="19.76643481291830539703369140625">
        <ele>1538.5999755859375</ele>
        <time>2026-06-18T08:21:34.000Z</time>
        <extensions>
          <ns3:TrackPointExtension>
            <ns3:atemp>23.0</ns3:atemp>
          </ns3:TrackPointExtension>
        </extensions>
      </trkpt>
      <trkpt lat="42.5354455411434173583984375" lon="19.76644604466855525970458984375">
        <ele>1538.800048828125</ele>
        <time>2026-06-18T08:21:35.000Z</time>
        <extensions>
          <ns3:TrackPointExtension>
            <ns3:atemp>23.0</ns3:atemp>
          </ns3:TrackPointExtension>
        </extensions>
      </trkpt>
      <trkpt lat="42.5354279391467571258544921875" lon="19.7664566896855831146240234375">
        <ele>1539</ele>
        <time>2026-06-18T08:21:36.000Z</time>
        <extensions>
          <ns3:TrackPointExtension>
            <ns3:atemp>23.0</ns3:atemp>
          </ns3:TrackPointExtension>
        </extensions>
      </trkpt>
      <trkpt lat="42.535408325493335723876953125" lon="19.766465909779071807861328125">
        <ele>1539.199951171875</ele>
        <time>2026-06-18T08:21:37.000Z</time>
        <extensions>
          <ns3:TrackPointExtension>
            <ns3:atemp>23.0</ns3:atemp>
          </ns3:TrackPointExtension>
        </extensions>
      </trkpt>
      <trkpt lat="42.535390891134738922119140625" lon="19.76647135801613330841064453125">
        <ele>1539.4000244140625</ele>
        <time>2026-06-18T08:21:38.000Z</time>
        <extensions>
          <ns3:TrackPointExtension>
            <ns3:atemp>23.0</ns3:atemp>
          </ns3:TrackPointExtension>
        </extensions>
      </trkpt>
      <trkpt lat="42.5353729538619518280029296875" lon="19.76647521369159221649169921875">
        <ele>1539.5999755859375</ele>
        <time>2026-06-18T08:21:39.000Z</time>
        <extensions>
          <ns3:TrackPointExtension>
            <ns3:atemp>23.0</ns3:atemp>
          </ns3:TrackPointExtension>
        </extensions>
      </trkpt>
      <trkpt lat="42.53536281175911426544189453125" lon="19.76647655479609966278076171875">
        <ele>1539.800048828125</ele>
        <time>2026-06-18T08:21:40.000Z</time>
        <extensions>
          <ns3:TrackPointExtension>
            <ns3:atemp>23.0</ns3:atemp>
          </ns3:TrackPointExtension>
        </extensions>
      </trkpt>
      <trkpt lat="42.5353525020182132720947265625" lon="19.76647672243416309356689453125">
        <ele>1540</ele>
        <time>2026-06-18T08:21:41.000Z</time>
        <extensions>
          <ns3:TrackPointExtension>
            <ns3:atemp>23.0</ns3:atemp>
          </ns3:TrackPointExtension>
        </extensions>
      </trkpt>
      <trkpt lat="42.53534026443958282470703125" lon="19.76647370494902133941650390625">
        <ele>1540.199951171875</ele>
        <time>2026-06-18T08:21:42.000Z</time>
        <extensions>
          <ns3:TrackPointExtension>
            <ns3:atemp>23.0</ns3:atemp>
          </ns3:TrackPointExtension>
        </extensions>
      </trkpt>
      <trkpt lat="42.53532609902322292327880859375" lon="19.7664731182157993316650390625">
        <ele>1540.4000244140625</ele>
        <time>2026-06-18T08:21:43.000Z</time>
        <extensions>
          <ns3:TrackPointExtension>
            <ns3:atemp>23.0</ns3:atemp>
          </ns3:TrackPointExtension>
        </extensions>
      </trkpt>
      <trkpt lat="42.53531352616846561431884765625" lon="19.76648175157606601715087890625">
        <ele>1540.5999755859375</ele>
        <time>2026-06-18T08:21:44.000Z</time>
        <extensions>
          <ns3:TrackPointExtension>
            <ns3:atemp>23.0</ns3:atemp>
          </ns3:TrackPointExtension>
        </extensions>
      </trkpt>
      <trkpt lat="42.5353012047708034515380859375" lon="19.76649038493633270263671875">
        <ele>1540.800048828125</ele>
        <time>2026-06-18T08:21:45.000Z</time>
        <extensions>
          <ns3:TrackPointExtension>
            <ns3:atemp>23.0</ns3:atemp>
          </ns3:TrackPointExtension>
        </extensions>
      </trkpt>
      <trkpt lat="42.53528888337314128875732421875" lon="19.76649432443082332611083984375">
        <ele>1541</ele>
        <time>2026-06-18T08:21:46.000Z</time>
        <extensions>
          <ns3:TrackPointExtension>
            <ns3:atemp>23.0</ns3:atemp>
          </ns3:TrackPointExtension>
        </extensions>
      </trkpt>
      <trkpt lat="42.5352747179567813873291015625" lon="19.76649499498307704925537109375">
        <ele>1541.199951171875</ele>
        <time>2026-06-18T08:21:47.000Z</time>
        <extensions>
          <ns3:TrackPointExtension>
            <ns3:atemp>23.0</ns3:atemp>
          </ns3:TrackPointExtension>
        </extensions>
      </trkpt>
      <trkpt lat="42.53525753505527973175048828125" lon="19.766495414078235626220703125">
        <ele>1541.199951171875</ele>
        <time>2026-06-18T08:21:48.000Z</time>
        <extensions>
          <ns3:TrackPointExtension>
            <ns3:atemp>23.0</ns3:atemp>
          </ns3:TrackPointExtension>
        </extensions>
      </trkpt>
      <trkpt lat="42.5352398492395877838134765625" lon="19.76649180985987186431884765625">
        <ele>1541.4000244140625</ele>
        <time>2026-06-18T08:21:49.000Z</time>
        <extensions>
          <ns3:TrackPointExtension>
            <ns3:atemp>23.0</ns3:atemp>
          </ns3:TrackPointExtension>
        </extensions>
      </trkpt>
      <trkpt lat="42.53522383980453014373779296875" lon="19.7664892114698886871337890625">
        <ele>1541.5999755859375</ele>
        <time>2026-06-18T08:21:50.000Z</time>
        <extensions>
          <ns3:TrackPointExtension>
            <ns3:atemp>23.0</ns3:atemp>
          </ns3:TrackPointExtension>
        </extensions>
      </trkpt>
      <trkpt lat="42.53521227277815341949462890625" lon="19.76648611016571521759033203125">
        <ele>1541.800048828125</ele>
        <time>2026-06-18T08:21:51.000Z</time>
        <extensions>
          <ns3:TrackPointExtension>
            <ns3:atemp>23.0</ns3:atemp>
          </ns3:TrackPointExtension>
        </extensions>
      </trkpt>
      <trkpt lat="42.53520347177982330322265625" lon="19.76648175157606601715087890625">
        <ele>1542.199951171875</ele>
        <time>2026-06-18T08:21:52.000Z</time>
        <extensions>
          <ns3:TrackPointExtension>
            <ns3:atemp>23.0</ns3:atemp>
          </ns3:TrackPointExtension>
        </extensions>
      </trkpt>
      <trkpt lat="42.53519332967698574066162109375" lon="19.76647370494902133941650390625">
        <ele>1542.4000244140625</ele>
        <time>2026-06-18T08:21:53.000Z</time>
        <extensions>
          <ns3:TrackPointExtension>
            <ns3:atemp>23.0</ns3:atemp>
          </ns3:TrackPointExtension>
        </extensions>
      </trkpt>
      <trkpt lat="42.5351800024509429931640625" lon="19.76646800525486469268798828125">
        <ele>1542.5999755859375</ele>
        <time>2026-06-18T08:21:54.000Z</time>
        <extensions>
          <ns3:TrackPointExtension>
            <ns3:atemp>23.0</ns3:atemp>
          </ns3:TrackPointExtension>
        </extensions>
      </trkpt>
      <trkpt lat="42.53516516648232936859130859375" lon="19.7664627246558666229248046875">
        <ele>1542.800048828125</ele>
        <time>2026-06-18T08:21:55.000Z</time>
        <extensions>
          <ns3:TrackPointExtension>
            <ns3:atemp>23.0</ns3:atemp>
          </ns3:TrackPointExtension>
        </extensions>
      </trkpt>
      <trkpt lat="42.5351486541330814361572265625" lon="19.7664573602378368377685546875">
        <ele>1543</ele>
        <time>2026-06-18T08:21:56.000Z</time>
        <extensions>
          <ns3:TrackPointExtension>
            <ns3:atemp>23.0</ns3:atemp>
          </ns3:TrackPointExtension>
        </extensions>
      </trkpt>
      <trkpt lat="42.53513331525027751922607421875" lon="19.76645342074334621429443359375">
        <ele>1543.4000244140625</ele>
        <time>2026-06-18T08:21:57.000Z</time>
        <extensions>
          <ns3:TrackPointExtension>
            <ns3:atemp>23.0</ns3:atemp>
          </ns3:TrackPointExtension>
        </extensions>
      </trkpt>
      <trkpt lat="42.535119317471981048583984375" lon="19.76645073853433132171630859375">
        <ele>1543.5999755859375</ele>
        <time>2026-06-18T08:21:58.000Z</time>
        <extensions>
          <ns3:TrackPointExtension>
            <ns3:atemp>23.0</ns3:atemp>
          </ns3:TrackPointExtension>
        </extensions>
      </trkpt>
      <trkpt lat="42.53510280512273311614990234375" lon="19.7664486430585384368896484375">
        <ele>1543.800048828125</ele>
        <time>2026-06-18T08:21:59.000Z</time>
        <extensions>
          <ns3:TrackPointExtension>
            <ns3:atemp>23.0</ns3:atemp>
          </ns3:TrackPointExtension>
        </extensions>
      </trkpt>
      <trkpt lat="42.535088472068309783935546875" lon="19.76644604466855525970458984375">
        <ele>1544</ele>
        <time>2026-06-18T08:22:00.000Z</time>
        <extensions>
          <ns3:TrackPointExtension>
            <ns3:atemp>23.0</ns3:atemp>
          </ns3:TrackPointExtension>
        </extensions>
      </trkpt>
      <trkpt lat="42.535071708261966705322265625" lon="19.76644738577306270599365234375">
        <ele>1544.199951171875</ele>
        <time>2026-06-18T08:22:01.000Z</time>
        <extensions>
          <ns3:TrackPointExtension>
            <ns3:atemp>23.0</ns3:atemp>
          </ns3:TrackPointExtension>
        </extensions>
      </trkpt>
      <trkpt lat="42.53505737520754337310791015625" lon="19.76644855923950672149658203125">
        <ele>1544.4000244140625</ele>
        <time>2026-06-18T08:22:02.000Z</time>
        <extensions>
          <ns3:TrackPointExtension>
            <ns3:atemp>23.0</ns3:atemp>
          </ns3:TrackPointExtension>
        </extensions>
      </trkpt>
      <trkpt lat="42.5350420363247394561767578125" lon="19.76645283401012420654296875">
        <ele>1544.5999755859375</ele>
        <time>2026-06-18T08:22:03.000Z</time>
        <extensions>
          <ns3:TrackPointExtension>
            <ns3:atemp>23.0</ns3:atemp>
          </ns3:TrackPointExtension>
        </extensions>
      </trkpt>
      <trkpt lat="42.53502502106130123138427734375" lon="19.766459204256534576416015625">
        <ele>1544.800048828125</ele>
        <time>2026-06-18T08:22:04.000Z</time>
        <extensions>
          <ns3:TrackPointExtension>
            <ns3:atemp>23.0</ns3:atemp>
          </ns3:TrackPointExtension>
        </extensions>
      </trkpt>
      <trkpt lat="42.53500767052173614501953125" lon="19.766468591988086700439453125">
        <ele>1545</ele>
        <time>2026-06-18T08:22:05.000Z</time>
        <extensions>
          <ns3:TrackPointExtension>
            <ns3:atemp>23.0</ns3:atemp>
          </ns3:TrackPointExtension>
        </extensions>
      </trkpt>
      <trkpt lat="42.53498964942991733551025390625" lon="19.76647437550127506256103515625">
        <ele>1545.199951171875</ele>
        <time>2026-06-18T08:22:06.000Z</time>
        <extensions>
          <ns3:TrackPointExtension>
            <ns3:atemp>23.0</ns3:atemp>
          </ns3:TrackPointExtension>
        </extensions>
      </trkpt>
      <trkpt lat="42.5349726341664791107177734375" lon="19.76648091338574886322021484375">
        <ele>1545.4000244140625</ele>
        <time>2026-06-18T08:22:07.000Z</time>
        <extensions>
          <ns3:TrackPointExtension>
            <ns3:atemp>23.0</ns3:atemp>
          </ns3:TrackPointExtension>
        </extensions>
      </trkpt>
      <trkpt lat="42.5349573791027069091796875" lon="19.7664871998131275177001953125">
        <ele>1545.800048828125</ele>
        <time>2026-06-18T08:22:08.000Z</time>
        <extensions>
          <ns3:TrackPointExtension>
            <ns3:atemp>23.0</ns3:atemp>
          </ns3:TrackPointExtension>
        </extensions>
      </trkpt>
      <trkpt lat="42.53494673408567905426025390625" lon="19.76649600081145763397216796875">
        <ele>1546.199951171875</ele>
        <time>2026-06-18T08:22:09.000Z</time>
        <extensions>
          <ns3:TrackPointExtension>
            <ns3:atemp>23.0</ns3:atemp>
          </ns3:TrackPointExtension>
        </extensions>
      </trkpt>
      <trkpt lat="42.534934915602207183837890625" lon="19.76650136522948741912841796875">
        <ele>1546.4000244140625</ele>
        <time>2026-06-18T08:22:10.000Z</time>
        <extensions>
          <ns3:TrackPointExtension>
            <ns3:atemp>23.0</ns3:atemp>
          </ns3:TrackPointExtension>
        </extensions>
      </trkpt>
      <trkpt lat="42.53492360003292560577392578125" lon="19.766511507332324981689453125">
        <ele>1546.800048828125</ele>
        <time>2026-06-18T08:22:11.000Z</time>
        <extensions>
          <ns3:TrackPointExtension>
            <ns3:atemp>23.0</ns3:atemp>
          </ns3:TrackPointExtension>
        </extensions>
      </trkpt>
      <trkpt lat="42.53491303883492946624755859375" lon="19.7665244154632091522216796875">
        <ele>1547.199951171875</ele>
        <time>2026-06-18T08:22:12.000Z</time>
        <extensions>
          <ns3:TrackPointExtension>
            <ns3:atemp>23.0</ns3:atemp>
          </ns3:TrackPointExtension>
        </extensions>
      </trkpt>
      <trkpt lat="42.5348965264856815338134765625" lon="19.7665341384708881378173828125">
        <ele>1547.4000244140625</ele>
        <time>2026-06-18T08:22:13.000Z</time>
        <extensions>
          <ns3:TrackPointExtension>
            <ns3:atemp>23.0</ns3:atemp>
          </ns3:TrackPointExtension>
        </extensions>
      </trkpt>
      <trkpt lat="42.53488487564027309417724609375" lon="19.76654109545052051544189453125">
        <ele>1547.5999755859375</ele>
        <time>2026-06-18T08:22:14.000Z</time>
        <extensions>
          <ns3:TrackPointExtension>
            <ns3:atemp>23.0</ns3:atemp>
          </ns3:TrackPointExtension>
        </extensions>
      </trkpt>
      <trkpt lat="42.53487297333776950836181640625" lon="19.7665515728294849395751953125">
        <ele>1548</ele>
        <time>2026-06-18T08:22:15.000Z</time>
        <extensions>
          <ns3:TrackPointExtension>
            <ns3:atemp>23.0</ns3:atemp>
          </ns3:TrackPointExtension>
        </extensions>
      </trkpt>
      <trkpt lat="42.53486241213977336883544921875" lon="19.76656137965619564056396484375">
        <ele>1548.4000244140625</ele>
        <time>2026-06-18T08:22:16.000Z</time>
        <extensions>
          <ns3:TrackPointExtension>
            <ns3:atemp>23.0</ns3:atemp>
          </ns3:TrackPointExtension>
        </extensions>
      </trkpt>
      <trkpt lat="42.534847073256969451904296875" lon="19.76656942628324031829833984375">
        <ele>1548.5999755859375</ele>
        <time>2026-06-18T08:22:17.000Z</time>
        <extensions>
          <ns3:TrackPointExtension>
            <ns3:atemp>23.0</ns3:atemp>
          </ns3:TrackPointExtension>
        </extensions>
      </trkpt>
      <trkpt lat="42.534832321107387542724609375" lon="19.7665800713002681732177734375">
        <ele>1548.800048828125</ele>
        <time>2026-06-18T08:22:18.000Z</time>
        <extensions>
          <ns3:TrackPointExtension>
            <ns3:atemp>23.0</ns3:atemp>
          </ns3:TrackPointExtension>
        </extensions>
      </trkpt>
      <trkpt lat="42.53481463529169559478759765625" lon="19.76658753119409084320068359375">
        <ele>1549</ele>
        <time>2026-06-18T08:22:19.000Z</time>
        <extensions>
          <ns3:TrackPointExtension>
            <ns3:atemp>23.0</ns3:atemp>
          </ns3:TrackPointExtension>
        </extensions>
      </trkpt>
      <trkpt lat="42.53479435108602046966552734375" lon="19.76659742183983325958251953125">
        <ele>1549.199951171875</ele>
        <time>2026-06-18T08:22:20.000Z</time>
        <extensions>
          <ns3:TrackPointExtension>
            <ns3:atemp>23.0</ns3:atemp>
          </ns3:TrackPointExtension>
        </extensions>
      </trkpt>
      <trkpt lat="42.5347801856696605682373046875" lon="19.7666048817336559295654296875">
        <ele>1549.4000244140625</ele>
        <time>2026-06-18T08:22:21.000Z</time>
        <extensions>
          <ns3:TrackPointExtension>
            <ns3:atemp>23.0</ns3:atemp>
          </ns3:TrackPointExtension>
        </extensions>
      </trkpt>
      <trkpt lat="42.5347630865871906280517578125" lon="19.76661502383649349212646484375">
        <ele>1549.5999755859375</ele>
        <time>2026-06-18T08:22:22.000Z</time>
        <extensions>
          <ns3:TrackPointExtension>
            <ns3:atemp>23.0</ns3:atemp>
          </ns3:TrackPointExtension>
        </extensions>
      </trkpt>
      <trkpt lat="42.53474422730505466461181640625" lon="19.76661854423582553863525390625">
        <ele>1550</ele>
        <time>2026-06-18T08:22:23.000Z</time>
        <extensions>
          <ns3:TrackPointExtension>
            <ns3:atemp>23.0</ns3:atemp>
          </ns3:TrackPointExtension>
        </extensions>
      </trkpt>
      <trkpt lat="42.5347241945564746856689453125" lon="19.76662625558674335479736328125">
        <ele>1550.199951171875</ele>
        <time>2026-06-18T08:22:24.000Z</time>
        <extensions>
          <ns3:TrackPointExtension>
            <ns3:atemp>23.0</ns3:atemp>
          </ns3:TrackPointExtension>
        </extensions>
      </trkpt>
      <trkpt lat="42.53470533527433872222900390625" lon="19.766636900603771209716796875">
        <ele>1550.5999755859375</ele>
        <time>2026-06-18T08:22:25.000Z</time>
        <extensions>
          <ns3:TrackPointExtension>
            <ns3:atemp>23.0</ns3:atemp>
          </ns3:TrackPointExtension>
        </extensions>
      </trkpt>
      <trkpt lat="42.53468488343060016632080078125" lon="19.7666471265256404876708984375">
        <ele>1550.800048828125</ele>
        <time>2026-06-18T08:22:26.000Z</time>
        <extensions>
          <ns3:TrackPointExtension>
            <ns3:atemp>23.0</ns3:atemp>
          </ns3:TrackPointExtension>
        </extensions>
      </trkpt>
      <trkpt lat="42.5346651859581470489501953125" lon="19.76665324531495571136474609375">
        <ele>1551.199951171875</ele>
        <time>2026-06-18T08:22:27.000Z</time>
        <extensions>
          <ns3:TrackPointExtension>
            <ns3:atemp>23.0</ns3:atemp>
          </ns3:TrackPointExtension>
        </extensions>
      </trkpt>
      <trkpt lat="42.53464733250439167022705078125" lon="19.7666635550558567047119140625">
        <ele>1551.5999755859375</ele>
        <time>2026-06-18T08:22:28.000Z</time>
        <extensions>
          <ns3:TrackPointExtension>
            <ns3:atemp>23.0</ns3:atemp>
          </ns3:TrackPointExtension>
        </extensions>
      </trkpt>
      <trkpt lat="42.53462956286966800689697265625" lon="19.76667411625385284423828125">
        <ele>1551.800048828125</ele>
        <time>2026-06-18T08:22:29.000Z</time>
        <extensions>
          <ns3:TrackPointExtension>
            <ns3:atemp>23.0</ns3:atemp>
          </ns3:TrackPointExtension>
        </extensions>
      </trkpt>
      <trkpt lat="42.53461129032075405120849609375" lon="19.766687192022800445556640625">
        <ele>1552.199951171875</ele>
        <time>2026-06-18T08:22:30.000Z</time>
        <extensions>
          <ns3:TrackPointExtension>
            <ns3:atemp>23.0</ns3:atemp>
          </ns3:TrackPointExtension>
        </extensions>
      </trkpt>
      <trkpt lat="42.534592933952808380126953125" lon="19.76670286618173122406005859375">
        <ele>1552.4000244140625</ele>
        <time>2026-06-18T08:22:31.000Z</time>
        <extensions>
          <ns3:TrackPointExtension>
            <ns3:atemp>23.0</ns3:atemp>
          </ns3:TrackPointExtension>
        </extensions>
      </trkpt>
      <trkpt lat="42.5345760025084018707275390625" lon="19.76671594195067882537841796875">
        <ele>1552.5999755859375</ele>
        <time>2026-06-18T08:22:32.000Z</time>
        <extensions>
          <ns3:TrackPointExtension>
            <ns3:atemp>23.0</ns3:atemp>
          </ns3:TrackPointExtension>
        </extensions>
      </trkpt>
      <trkpt lat="42.53456166945397853851318359375" lon="19.76673237048089504241943359375">
        <ele>1553</ele>
        <time>2026-06-18T08:22:33.000Z</time>
        <extensions>
          <ns3:TrackPointExtension>
            <ns3:atemp>23.0</ns3:atemp>
          </ns3:TrackPointExtension>
        </extensions>
      </trkpt>
      <trkpt lat="42.53454892896115779876708984375" lon="19.76674796082079410552978515625">
        <ele>1553.199951171875</ele>
        <time>2026-06-18T08:22:34.000Z</time>
        <extensions>
          <ns3:TrackPointExtension>
            <ns3:atemp>23.0</ns3:atemp>
          </ns3:TrackPointExtension>
        </extensions>
      </trkpt>
      <trkpt lat="42.53453618846833705902099609375" lon="19.76675952784717082977294921875">
        <ele>1553.5999755859375</ele>
        <time>2026-06-18T08:22:35.000Z</time>
        <extensions>
          <ns3:TrackPointExtension>
            <ns3:atemp>23.0</ns3:atemp>
          </ns3:TrackPointExtension>
        </extensions>
      </trkpt>
      <trkpt lat="42.53452260978519916534423828125" lon="19.766777046024799346923828125">
        <ele>1553.800048828125</ele>
        <time>2026-06-18T08:22:36.000Z</time>
        <extensions>
          <ns3:TrackPointExtension>
            <ns3:atemp>23.0</ns3:atemp>
          </ns3:TrackPointExtension>
        </extensions>
      </trkpt>
      <trkpt lat="42.53451271913945674896240234375" lon="19.766794480383396148681640625">
        <ele>1554.199951171875</ele>
        <time>2026-06-18T08:22:37.000Z</time>
        <extensions>
          <ns3:TrackPointExtension>
            <ns3:atemp>23.0</ns3:atemp>
          </ns3:TrackPointExtension>
        </extensions>
      </trkpt>
      <trkpt lat="42.53450182266533374786376953125" lon="19.766810238361358642578125">
        <ele>1554.4000244140625</ele>
        <time>2026-06-18T08:22:38.000Z</time>
        <extensions>
          <ns3:TrackPointExtension>
            <ns3:atemp>23.0</ns3:atemp>
          </ns3:TrackPointExtension>
        </extensions>
      </trkpt>
      <trkpt lat="42.53449126146733760833740234375" lon="19.766826666891574859619140625">
        <ele>1554.800048828125</ele>
        <time>2026-06-18T08:22:39.000Z</time>
        <extensions>
          <ns3:TrackPointExtension>
            <ns3:atemp>23.0</ns3:atemp>
          </ns3:TrackPointExtension>
        </extensions>
      </trkpt>
      <trkpt lat="42.53448019735515117645263671875" lon="19.76684133522212505340576171875">
        <ele>1555</ele>
        <time>2026-06-18T08:22:40.000Z</time>
        <extensions>
          <ns3:TrackPointExtension>
            <ns3:atemp>23.0</ns3:atemp>
          </ns3:TrackPointExtension>
        </extensions>
      </trkpt>
      <trkpt lat="42.53446863032877445220947265625" lon="19.766855500638484954833984375">
        <ele>1555.4000244140625</ele>
        <time>2026-06-18T08:22:41.000Z</time>
        <extensions>
          <ns3:TrackPointExtension>
            <ns3:atemp>23.0</ns3:atemp>
          </ns3:TrackPointExtension>
        </extensions>
      </trkpt>
      <trkpt lat="42.5344603322446346282958984375" lon="19.76686631329357624053955078125">
        <ele>1555.5999755859375</ele>
        <time>2026-06-18T08:22:42.000Z</time>
        <extensions>
          <ns3:TrackPointExtension>
            <ns3:atemp>23.0</ns3:atemp>
          </ns3:TrackPointExtension>
        </extensions>
      </trkpt>
      <trkpt lat="42.53445111215114593505859375" lon="19.7668774612247943878173828125">
        <ele>1556</ele>
        <time>2026-06-18T08:22:43.000Z</time>
        <extensions>
          <ns3:TrackPointExtension>
            <ns3:atemp>23.0</ns3:atemp>
          </ns3:TrackPointExtension>
        </extensions>
      </trkpt>
      <trkpt lat="42.5344368629157543182373046875" lon="19.7668898664414882659912109375">
        <ele>1556.4000244140625</ele>
        <time>2026-06-18T08:22:44.000Z</time>
        <extensions>
          <ns3:TrackPointExtension>
            <ns3:atemp>23.0</ns3:atemp>
          </ns3:TrackPointExtension>
        </extensions>
      </trkpt>
      <trkpt lat="42.53442336805164813995361328125" lon="19.76690503768622875213623046875">
        <ele>1556.5999755859375</ele>
        <time>2026-06-18T08:22:45.000Z</time>
        <extensions>
          <ns3:TrackPointExtension>
            <ns3:atemp>23.0</ns3:atemp>
          </ns3:TrackPointExtension>
        </extensions>
      </trkpt>
      <trkpt lat="42.53440761007368564605712890625" lon="19.76692356169223785400390625">
        <ele>1557</ele>
        <time>2026-06-18T08:22:46.000Z</time>
        <extensions>
          <ns3:TrackPointExtension>
            <ns3:atemp>23.0</ns3:atemp>
          </ns3:TrackPointExtension>
        </extensions>
      </trkpt>
      <trkpt lat="42.53439009189605712890625" lon="19.76693621836602687835693359375">
        <ele>1557.199951171875</ele>
        <time>2026-06-18T08:22:47.000Z</time>
        <extensions>
          <ns3:TrackPointExtension>
            <ns3:atemp>23.0</ns3:atemp>
          </ns3:TrackPointExtension>
        </extensions>
      </trkpt>
      <trkpt lat="42.534372992813587188720703125" lon="19.76694795303046703338623046875">
        <ele>1557.5999755859375</ele>
        <time>2026-06-18T08:22:48.000Z</time>
        <extensions>
          <ns3:TrackPointExtension>
            <ns3:atemp>23.0</ns3:atemp>
          </ns3:TrackPointExtension>
        </extensions>
      </trkpt>
      <trkpt lat="42.5343540497124195098876953125" lon="19.7669599391520023345947265625">
        <ele>1557.800048828125</ele>
        <time>2026-06-18T08:22:49.000Z</time>
        <extensions>
          <ns3:TrackPointExtension>
            <ns3:atemp>23.0</ns3:atemp>
          </ns3:TrackPointExtension>
        </extensions>
      </trkpt>
      <trkpt lat="42.53433686681091785430908203125" lon="19.7669736854732036590576171875">
        <ele>1558</ele>
        <time>2026-06-18T08:22:50.000Z</time>
        <extensions>
          <ns3:TrackPointExtension>
            <ns3:atemp>23.0</ns3:atemp>
          </ns3:TrackPointExtension>
        </extensions>
      </trkpt>
      <trkpt lat="42.53432094119489192962646484375" lon="19.766984917223453521728515625">
        <ele>1558.199951171875</ele>
        <time>2026-06-18T08:22:51.000Z</time>
        <extensions>
          <ns3:TrackPointExtension>
            <ns3:atemp>23.0</ns3:atemp>
          </ns3:TrackPointExtension>
        </extensions>
      </trkpt>
      <trkpt lat="42.5343071110546588897705078125" lon="19.76699304766952991485595703125">
        <ele>1558.5999755859375</ele>
        <time>2026-06-18T08:22:52.000Z</time>
        <extensions>
          <ns3:TrackPointExtension>
            <ns3:atemp>23.0</ns3:atemp>
          </ns3:TrackPointExtension>
        </extensions>
      </trkpt>
      <trkpt lat="42.53429328091442584991455078125" lon="19.767001681029796600341796875">
        <ele>1558.800048828125</ele>
        <time>2026-06-18T08:22:53.000Z</time>
        <extensions>
          <ns3:TrackPointExtension>
            <ns3:atemp>23.0</ns3:atemp>
          </ns3:TrackPointExtension>
        </extensions>
      </trkpt>
      <trkpt lat="42.5342782773077487945556640625" lon="19.7670100629329681396484375">
        <ele>1559</ele>
        <time>2026-06-18T08:22:54.000Z</time>
        <extensions>
          <ns3:TrackPointExtension>
            <ns3:atemp>23.0</ns3:atemp>
          </ns3:TrackPointExtension>
        </extensions>
      </trkpt>
      <trkpt lat="42.53426193259656429290771484375" lon="19.7670186124742031097412109375">
        <ele>1559.199951171875</ele>
        <time>2026-06-18T08:22:55.000Z</time>
        <extensions>
          <ns3:TrackPointExtension>
            <ns3:atemp>23.0</ns3:atemp>
          </ns3:TrackPointExtension>
        </extensions>
      </trkpt>
      <trkpt lat="42.5342447496950626373291015625" lon="19.767025150358676910400390625">
        <ele>1559.4000244140625</ele>
        <time>2026-06-18T08:22:56.000Z</time>
        <extensions>
          <ns3:TrackPointExtension>
            <ns3:atemp>23.0</ns3:atemp>
          </ns3:TrackPointExtension>
        </extensions>
      </trkpt>
      <trkpt lat="42.53422991372644901275634765625" lon="19.76703378371894359588623046875">
        <ele>1559.800048828125</ele>
        <time>2026-06-18T08:22:57.000Z</time>
        <extensions>
          <ns3:TrackPointExtension>
            <ns3:atemp>23.0</ns3:atemp>
          </ns3:TrackPointExtension>
        </extensions>
      </trkpt>
      <trkpt lat="42.53421298228204250335693359375" lon="19.76704518310725688934326171875">
        <ele>1560</ele>
        <time>2026-06-18T08:22:58.000Z</time>
        <extensions>
          <ns3:TrackPointExtension>
            <ns3:atemp>23.0</ns3:atemp>
          </ns3:TrackPointExtension>
        </extensions>
      </trkpt>
      <trkpt lat="42.5341929495334625244140625" lon="19.767055995762348175048828125">
        <ele>1560.4000244140625</ele>
        <time>2026-06-18T08:22:59.000Z</time>
        <extensions>
          <ns3:TrackPointExtension>
            <ns3:atemp>23.0</ns3:atemp>
          </ns3:TrackPointExtension>
        </extensions>
      </trkpt>
      <trkpt lat="42.53417576663196086883544921875" lon="19.76705842651426792144775390625">
        <ele>1560.800048828125</ele>
        <time>2026-06-18T08:23:00.000Z</time>
        <extensions>
          <ns3:TrackPointExtension>
            <ns3:atemp>23.0</ns3:atemp>
          </ns3:TrackPointExtension>
        </extensions>
      </trkpt>
      <trkpt lat="42.53415933810174465179443359375" lon="19.7670692391693592071533203125">
        <ele>1561.199951171875</ele>
        <time>2026-06-18T08:23:01.000Z</time>
        <extensions>
          <ns3:TrackPointExtension>
            <ns3:atemp>23.0</ns3:atemp>
          </ns3:TrackPointExtension>
        </extensions>
      </trkpt>
      <trkpt lat="42.53414609469473361968994140625" lon="19.76708181202411651611328125">
        <ele>1561.4000244140625</ele>
        <time>2026-06-18T08:23:02.000Z</time>
        <extensions>
          <ns3:TrackPointExtension>
            <ns3:atemp>23.0</ns3:atemp>
          </ns3:TrackPointExtension>
        </extensions>
      </trkpt>
      <trkpt lat="42.534130923449993133544921875" lon="19.7670958936214447021484375">
        <ele>1561.800048828125</ele>
        <time>2026-06-18T08:23:03.000Z</time>
        <extensions>
          <ns3:TrackPointExtension>
            <ns3:atemp>23.0</ns3:atemp>
          </ns3:TrackPointExtension>
        </extensions>
      </trkpt>
      <trkpt lat="42.53411407582461833953857421875" lon="19.76710553281009197235107421875">
        <ele>1562</ele>
        <time>2026-06-18T08:23:04.000Z</time>
        <extensions>
          <ns3:TrackPointExtension>
            <ns3:atemp>23.0</ns3:atemp>
          </ns3:TrackPointExtension>
        </extensions>
      </trkpt>
      <trkpt lat="42.534099407494068145751953125" lon="19.76711844094097614288330078125">
        <ele>1562.4000244140625</ele>
        <time>2026-06-18T08:23:05.000Z</time>
        <extensions>
          <ns3:TrackPointExtension>
            <ns3:atemp>23.0</ns3:atemp>
          </ns3:TrackPointExtension>
        </extensions>
      </trkpt>
      <trkpt lat="42.53408926539123058319091796875" lon="19.76713034324347972869873046875">
        <ele>1562.800048828125</ele>
        <time>2026-06-18T08:23:06.000Z</time>
        <extensions>
          <ns3:TrackPointExtension>
            <ns3:atemp>23.0</ns3:atemp>
          </ns3:TrackPointExtension>
        </extensions>
      </trkpt>
      <trkpt lat="42.5340787880122661590576171875" lon="19.76714291609823703765869140625">
        <ele>1563.199951171875</ele>
        <time>2026-06-18T08:23:07.000Z</time>
        <extensions>
          <ns3:TrackPointExtension>
            <ns3:atemp>23.0</ns3:atemp>
          </ns3:TrackPointExtension>
        </extensions>
      </trkpt>
      <trkpt lat="42.53406831063330173492431640625" lon="19.76716018281877040863037109375">
        <ele>1563.4000244140625</ele>
        <time>2026-06-18T08:23:08.000Z</time>
        <extensions>
          <ns3:TrackPointExtension>
            <ns3:atemp>23.0</ns3:atemp>
          </ns3:TrackPointExtension>
        </extensions>
      </trkpt>
      <trkpt lat="42.5340590067207813262939453125" lon="19.767180047929286956787109375">
        <ele>1563.5999755859375</ele>
        <time>2026-06-18T08:23:09.000Z</time>
        <extensions>
          <ns3:TrackPointExtension>
            <ns3:atemp>23.0</ns3:atemp>
          </ns3:TrackPointExtension>
        </extensions>
      </trkpt>
      <trkpt lat="42.534049451351165771484375" lon="19.76720259524881839752197265625">
        <ele>1563.800048828125</ele>
        <time>2026-06-18T08:23:10.000Z</time>
        <extensions>
          <ns3:TrackPointExtension>
            <ns3:atemp>23.0</ns3:atemp>
          </ns3:TrackPointExtension>
        </extensions>
      </trkpt>
      <trkpt lat="42.53403964452445507049560546875" lon="19.76722187362611293792724609375">
        <ele>1564</ele>
        <time>2026-06-18T08:23:11.000Z</time>
        <extensions>
          <ns3:TrackPointExtension>
            <ns3:atemp>23.0</ns3:atemp>
          </ns3:TrackPointExtension>
        </extensions>
      </trkpt>
      <trkpt lat="42.53403293900191783905029296875" lon="19.76724131964147090911865234375">
        <ele>1564.4000244140625</ele>
        <time>2026-06-18T08:23:12.000Z</time>
        <extensions>
          <ns3:TrackPointExtension>
            <ns3:atemp>23.0</ns3:atemp>
          </ns3:TrackPointExtension>
        </extensions>
      </trkpt>
      <trkpt lat="42.53402740694582462310791015625" lon="19.7672630287706851959228515625">
        <ele>1564.5999755859375</ele>
        <time>2026-06-18T08:23:13.000Z</time>
        <extensions>
          <ns3:TrackPointExtension>
            <ns3:atemp>23.0</ns3:atemp>
          </ns3:TrackPointExtension>
        </extensions>
      </trkpt>
      <trkpt lat="42.53402070142328739166259765625" lon="19.767284654080867767333984375">
        <ele>1565</ele>
        <time>2026-06-18T08:23:14.000Z</time>
        <extensions>
          <ns3:TrackPointExtension>
            <ns3:atemp>23.0</ns3:atemp>
          </ns3:TrackPointExtension>
        </extensions>
      </trkpt>
      <trkpt lat="42.5340140797197818756103515625" lon="19.7673032619059085845947265625">
        <ele>1565.199951171875</ele>
        <time>2026-06-18T08:23:15.000Z</time>
        <extensions>
          <ns3:TrackPointExtension>
            <ns3:atemp>23.0</ns3:atemp>
          </ns3:TrackPointExtension>
        </extensions>
      </trkpt>
      <trkpt lat="42.534009553492069244384765625" lon="19.7673260606825351715087890625">
        <ele>1565.5999755859375</ele>
        <time>2026-06-18T08:23:16.000Z</time>
        <extensions>
          <ns3:TrackPointExtension>
            <ns3:atemp>23.0</ns3:atemp>
          </ns3:TrackPointExtension>
        </extensions>
      </trkpt>
      <trkpt lat="42.5340036861598491668701171875" lon="19.76734911091625690460205078125">
        <ele>1566</ele>
        <time>2026-06-18T08:23:17.000Z</time>
        <extensions>
          <ns3:TrackPointExtension>
            <ns3:atemp>23.0</ns3:atemp>
          </ns3:TrackPointExtension>
        </extensions>
      </trkpt>
      <trkpt lat="42.5339983217418193817138671875" lon="19.7673703171312808990478515625">
        <ele>1566.4000244140625</ele>
        <time>2026-06-18T08:23:18.000Z</time>
        <extensions>
          <ns3:TrackPointExtension>
            <ns3:atemp>23.0</ns3:atemp>
          </ns3:TrackPointExtension>
        </extensions>
      </trkpt>
      <trkpt lat="42.5339963100850582122802734375" lon="19.7673909366130828857421875">
        <ele>1566.800048828125</ele>
        <time>2026-06-18T08:23:19.000Z</time>
        <extensions>
          <ns3:TrackPointExtension>
            <ns3:atemp>23.0</ns3:atemp>
          </ns3:TrackPointExtension>
        </extensions>
      </trkpt>
      <trkpt lat="42.53398968838155269622802734375" lon="19.7674162499606609344482421875">
        <ele>1567</ele>
        <time>2026-06-18T08:23:20.000Z</time>
        <extensions>
          <ns3:TrackPointExtension>
            <ns3:atemp>23.0</ns3:atemp>
          </ns3:TrackPointExtension>
        </extensions>
      </trkpt>
      <trkpt lat="42.5339822284877300262451171875" lon="19.7674383781850337982177734375">
        <ele>1567.199951171875</ele>
        <time>2026-06-18T08:23:21.000Z</time>
        <extensions>
          <ns3:TrackPointExtension>
            <ns3:atemp>23.0</ns3:atemp>
          </ns3:TrackPointExtension>
        </extensions>
      </trkpt>
      <trkpt lat="42.53397409804165363311767578125" lon="19.76746344007551670074462890625">
        <ele>1567.4000244140625</ele>
        <time>2026-06-18T08:23:22.000Z</time>
        <extensions>
          <ns3:TrackPointExtension>
            <ns3:atemp>23.0</ns3:atemp>
          </ns3:TrackPointExtension>
        </extensions>
      </trkpt>
      <trkpt lat="42.5339664705097675323486328125" lon="19.767485149204730987548828125">
        <ele>1567.5999755859375</ele>
        <time>2026-06-18T08:23:23.000Z</time>
        <extensions>
          <ns3:TrackPointExtension>
            <ns3:atemp>23.0</ns3:atemp>
          </ns3:TrackPointExtension>
        </extensions>
      </trkpt>
      <trkpt lat="42.53396051935851573944091796875" lon="19.767503254115581512451171875">
        <ele>1567.5999755859375</ele>
        <time>2026-06-18T08:23:24.000Z</time>
        <extensions>
          <ns3:TrackPointExtension>
            <ns3:atemp>23.0</ns3:atemp>
          </ns3:TrackPointExtension>
        </extensions>
      </trkpt>
      <trkpt lat="42.533949874341487884521484375" lon="19.767520688474178314208984375">
        <ele>1567.800048828125</ele>
        <time>2026-06-18T08:23:25.000Z</time>
        <extensions>
          <ns3:TrackPointExtension>
            <ns3:atemp>23.0</ns3:atemp>
          </ns3:TrackPointExtension>
        </extensions>
      </trkpt>
      <trkpt lat="42.53393855877220630645751953125" lon="19.76754189468920230865478515625">
        <ele>1568</ele>
        <time>2026-06-18T08:23:26.000Z</time>
        <extensions>
          <ns3:TrackPointExtension>
            <ns3:atemp>23.0</ns3:atemp>
          </ns3:TrackPointExtension>
        </extensions>
      </trkpt>
      <trkpt lat="42.53392883576452732086181640625" lon="19.7675651125609874725341796875">
        <ele>1568.4000244140625</ele>
        <time>2026-06-18T08:23:27.000Z</time>
        <extensions>
          <ns3:TrackPointExtension>
            <ns3:atemp>23.0</ns3:atemp>
          </ns3:TrackPointExtension>
        </extensions>
      </trkpt>
      <trkpt lat="42.53391777165234088897705078125" lon="19.7675828821957111358642578125">
        <ele>1569</ele>
        <time>2026-06-18T08:23:28.000Z</time>
        <extensions>
          <ns3:TrackPointExtension>
            <ns3:atemp>23.0</ns3:atemp>
          </ns3:TrackPointExtension>
        </extensions>
      </trkpt>
      <trkpt lat="42.53390771336853504180908203125" lon="19.76760408841073513031005859375">
        <ele>1569.199951171875</ele>
        <time>2026-06-18T08:23:29.000Z</time>
        <extensions>
          <ns3:TrackPointExtension>
            <ns3:atemp>23.0</ns3:atemp>
          </ns3:TrackPointExtension>
        </extensions>
      </trkpt>
      <trkpt lat="42.53389656543731689453125" lon="19.76762219332158565521240234375">
        <ele>1569.5999755859375</ele>
        <time>2026-06-18T08:23:30.000Z</time>
        <extensions>
          <ns3:TrackPointExtension>
            <ns3:atemp>23.0</ns3:atemp>
          </ns3:TrackPointExtension>
        </extensions>
      </trkpt>
      <trkpt lat="42.53388541750609874725341796875" lon="19.76763593964278697967529296875">
        <ele>1569.800048828125</ele>
        <time>2026-06-18T08:23:31.000Z</time>
        <extensions>
          <ns3:TrackPointExtension>
            <ns3:atemp>23.0</ns3:atemp>
          </ns3:TrackPointExtension>
        </extensions>
      </trkpt>
      <trkpt lat="42.5338769517838954925537109375" lon="19.76765253581106662750244140625">
        <ele>1570.199951171875</ele>
        <time>2026-06-18T08:23:32.000Z</time>
        <extensions>
          <ns3:TrackPointExtension>
            <ns3:atemp>23.0</ns3:atemp>
          </ns3:TrackPointExtension>
        </extensions>
      </trkpt>
      <trkpt lat="42.53387033008038997650146484375" lon="19.76766787469387054443359375">
        <ele>1570.4000244140625</ele>
        <time>2026-06-18T08:23:33.000Z</time>
        <extensions>
          <ns3:TrackPointExtension>
            <ns3:atemp>23.0</ns3:atemp>
          </ns3:TrackPointExtension>
        </extensions>
      </trkpt>
      <trkpt lat="42.533860020339488983154296875" lon="19.76768522523343563079833984375">
        <ele>1570.800048828125</ele>
        <time>2026-06-18T08:23:34.000Z</time>
        <extensions>
          <ns3:TrackPointExtension>
            <ns3:atemp>23.0</ns3:atemp>
          </ns3:TrackPointExtension>
        </extensions>
      </trkpt>
      <trkpt lat="42.533853985369205474853515625" lon="19.76770014502108097076416015625">
        <ele>1571</ele>
        <time>2026-06-18T08:23:35.000Z</time>
        <extensions>
          <ns3:TrackPointExtension>
            <ns3:atemp>23.0</ns3:atemp>
          </ns3:TrackPointExtension>
        </extensions>
      </trkpt>
      <trkpt lat="42.5338457711040973663330078125" lon="19.7677173279225826263427734375">
        <ele>1571.4000244140625</ele>
        <time>2026-06-18T08:23:36.000Z</time>
        <extensions>
          <ns3:TrackPointExtension>
            <ns3:atemp>23.0</ns3:atemp>
          </ns3:TrackPointExtension>
        </extensions>
      </trkpt>
      <trkpt lat="42.53383663482964038848876953125" lon="19.7677283920347690582275390625">
        <ele>1571.5999755859375</ele>
        <time>2026-06-18T08:23:37.000Z</time>
        <extensions>
          <ns3:TrackPointExtension>
            <ns3:atemp>23.0</ns3:atemp>
          </ns3:TrackPointExtension>
        </extensions>
      </trkpt>
      <trkpt lat="42.53382087685167789459228515625" lon="19.76774088107049465179443359375">
        <ele>1572.199951171875</ele>
        <time>2026-06-18T08:23:38.000Z</time>
        <extensions>
          <ns3:TrackPointExtension>
            <ns3:atemp>23.0</ns3:atemp>
          </ns3:TrackPointExtension>
        </extensions>
      </trkpt>
      <trkpt lat="42.53380981273949146270751953125" lon="19.76775580085813999176025390625">
        <ele>1572.4000244140625</ele>
        <time>2026-06-18T08:23:39.000Z</time>
        <extensions>
          <ns3:TrackPointExtension>
            <ns3:atemp>23.0</ns3:atemp>
          </ns3:TrackPointExtension>
        </extensions>
      </trkpt>
      <trkpt lat="42.533797323703765869140625" lon="19.76777005009353160858154296875">
        <ele>1572.800048828125</ele>
        <time>2026-06-18T08:23:40.000Z</time>
        <extensions>
          <ns3:TrackPointExtension>
            <ns3:atemp>23.0</ns3:atemp>
          </ns3:TrackPointExtension>
        </extensions>
      </trkpt>
      <trkpt lat="42.53378391265869140625" lon="19.76778597570955753326416015625">
        <ele>1573.199951171875</ele>
        <time>2026-06-18T08:23:41.000Z</time>
        <extensions>
          <ns3:TrackPointExtension>
            <ns3:atemp>23.0</ns3:atemp>
          </ns3:TrackPointExtension>
        </extensions>
      </trkpt>
      <trkpt lat="42.53377326764166355133056640625" lon="19.7677991352975368499755859375">
        <ele>1573.5999755859375</ele>
        <time>2026-06-18T08:23:42.000Z</time>
        <extensions>
          <ns3:TrackPointExtension>
            <ns3:atemp>23.0</ns3:atemp>
          </ns3:TrackPointExtension>
        </extensions>
      </trkpt>
      <trkpt lat="42.5337636284530162811279296875" lon="19.7678145579993724822998046875">
        <ele>1574</ele>
        <time>2026-06-18T08:23:43.000Z</time>
        <extensions>
          <ns3:TrackPointExtension>
            <ns3:atemp>23.0</ns3:atemp>
          </ns3:TrackPointExtension>
        </extensions>
      </trkpt>
      <trkpt lat="42.5337495468556880950927734375" lon="19.7678276337683200836181640625">
        <ele>1574.199951171875</ele>
        <time>2026-06-18T08:23:44.000Z</time>
        <extensions>
          <ns3:TrackPointExtension>
            <ns3:atemp>23.0</ns3:atemp>
          </ns3:TrackPointExtension>
        </extensions>
      </trkpt>
      <trkpt lat="42.5337361358106136322021484375" lon="19.7678440622985363006591796875">
        <ele>1574.4000244140625</ele>
        <time>2026-06-18T08:23:45.000Z</time>
        <extensions>
          <ns3:TrackPointExtension>
            <ns3:atemp>23.0</ns3:atemp>
          </ns3:TrackPointExtension>
        </extensions>
      </trkpt>
      <trkpt lat="42.53371912054717540740966796875" lon="19.76785738952457904815673828125">
        <ele>1574.5999755859375</ele>
        <time>2026-06-18T08:23:46.000Z</time>
        <extensions>
          <ns3:TrackPointExtension>
            <ns3:atemp>23.0</ns3:atemp>
          </ns3:TrackPointExtension>
        </extensions>
      </trkpt>
      <trkpt lat="42.53370277583599090576171875" lon="19.76787163875997066497802734375">
        <ele>1574.800048828125</ele>
        <time>2026-06-18T08:23:47.000Z</time>
        <extensions>
          <ns3:TrackPointExtension>
            <ns3:atemp>23.0</ns3:atemp>
          </ns3:TrackPointExtension>
        </extensions>
      </trkpt>
      <trkpt lat="42.53368509002029895782470703125" lon="19.76788513362407684326171875">
        <ele>1575</ele>
        <time>2026-06-18T08:23:48.000Z</time>
        <extensions>
          <ns3:TrackPointExtension>
            <ns3:atemp>23.0</ns3:atemp>
          </ns3:TrackPointExtension>
        </extensions>
      </trkpt>
      <trkpt lat="42.533668577671051025390625" lon="19.7678970359265804290771484375">
        <ele>1575.4000244140625</ele>
        <time>2026-06-18T08:23:49.000Z</time>
        <extensions>
          <ns3:TrackPointExtension>
            <ns3:atemp>23.0</ns3:atemp>
          </ns3:TrackPointExtension>
        </extensions>
      </trkpt>
      <trkpt lat="42.53364871256053447723388671875" lon="19.767900891602039337158203125">
        <ele>1575.800048828125</ele>
        <time>2026-06-18T08:23:50.000Z</time>
        <extensions>
          <ns3:TrackPointExtension>
            <ns3:atemp>23.0</ns3:atemp>
          </ns3:TrackPointExtension>
        </extensions>
      </trkpt>
      <trkpt lat="42.53362993709743022918701171875" lon="19.7679091058671474456787109375">
        <ele>1576</ele>
        <time>2026-06-18T08:23:51.000Z</time>
        <extensions>
          <ns3:TrackPointExtension>
            <ns3:atemp>23.0</ns3:atemp>
          </ns3:TrackPointExtension>
        </extensions>
      </trkpt>
      <trkpt lat="42.53360948525369167327880859375" lon="19.7679126262664794921875">
        <ele>1576.4000244140625</ele>
        <time>2026-06-18T08:23:52.000Z</time>
        <extensions>
          <ns3:TrackPointExtension>
            <ns3:atemp>23.0</ns3:atemp>
          </ns3:TrackPointExtension>
        </extensions>
      </trkpt>
      <trkpt lat="42.53359288908541202545166015625" lon="19.767916314303874969482421875">
        <ele>1576.5999755859375</ele>
        <time>2026-06-18T08:23:53.000Z</time>
        <extensions>
          <ns3:TrackPointExtension>
            <ns3:atemp>23.0</ns3:atemp>
          </ns3:TrackPointExtension>
        </extensions>
      </trkpt>
      <trkpt lat="42.533575035631656646728515625" lon="19.76792276836931705474853515625">
        <ele>1577</ele>
        <time>2026-06-18T08:23:54.000Z</time>
        <extensions>
          <ns3:TrackPointExtension>
            <ns3:atemp>23.0</ns3:atemp>
          </ns3:TrackPointExtension>
        </extensions>
      </trkpt>
      <trkpt lat="42.533560283482074737548828125" lon="19.76792871952056884765625">
        <ele>1577.199951171875</ele>
        <time>2026-06-18T08:23:55.000Z</time>
        <extensions>
          <ns3:TrackPointExtension>
            <ns3:atemp>23.0</ns3:atemp>
          </ns3:TrackPointExtension>
        </extensions>
      </trkpt>
      <trkpt lat="42.533544190227985382080078125" lon="19.767932407557964324951171875">
        <ele>1577.4000244140625</ele>
        <time>2026-06-18T08:23:56.000Z</time>
        <extensions>
          <ns3:TrackPointExtension>
            <ns3:atemp>23.0</ns3:atemp>
          </ns3:TrackPointExtension>
        </extensions>
      </trkpt>
      <trkpt lat="42.533526755869388580322265625" lon="19.767939113080501556396484375">
        <ele>1577.800048828125</ele>
        <time>2026-06-18T08:23:57.000Z</time>
        <extensions>
          <ns3:TrackPointExtension>
            <ns3:atemp>23.0</ns3:atemp>
          </ns3:TrackPointExtension>
        </extensions>
      </trkpt>
      <trkpt lat="42.53350789658725261688232421875" lon="19.7679466567933559417724609375">
        <ele>1577.800048828125</ele>
        <time>2026-06-18T08:23:58.000Z</time>
        <extensions>
          <ns3:TrackPointExtension>
            <ns3:atemp>23.0</ns3:atemp>
          </ns3:TrackPointExtension>
        </extensions>
      </trkpt>
      <trkpt lat="42.533489204943180084228515625" lon="19.76795084774494171142578125">
        <ele>1578</ele>
        <time>2026-06-18T08:23:59.000Z</time>
        <extensions>
          <ns3:TrackPointExtension>
            <ns3:atemp>23.0</ns3:atemp>
          </ns3:TrackPointExtension>
        </extensions>
      </trkpt>
      <trkpt lat="42.5334709323942661285400390625" lon="19.76796023547649383544921875">
        <ele>1578.4000244140625</ele>
        <time>2026-06-18T08:24:00.000Z</time>
        <extensions>
          <ns3:TrackPointExtension>
            <ns3:atemp>23.0</ns3:atemp>
          </ns3:TrackPointExtension>
        </extensions>
      </trkpt>
      <trkpt lat="42.53345307894051074981689453125" lon="19.767971299588680267333984375">
        <ele>1578.4000244140625</ele>
        <time>2026-06-18T08:24:01.000Z</time>
        <extensions>
          <ns3:TrackPointExtension>
            <ns3:atemp>23.0</ns3:atemp>
          </ns3:TrackPointExtension>
        </extensions>
      </trkpt>
      <trkpt lat="42.53343187272548675537109375" lon="19.76797725073993206024169921875">
        <ele>1578.800048828125</ele>
        <time>2026-06-18T08:24:02.000Z</time>
        <extensions>
          <ns3:TrackPointExtension>
            <ns3:atemp>23.0</ns3:atemp>
          </ns3:TrackPointExtension>
        </extensions>
      </trkpt>
      <trkpt lat="42.5334125943481922149658203125" lon="19.767980016767978668212890625">
        <ele>1579</ele>
        <time>2026-06-18T08:24:03.000Z</time>
        <extensions>
          <ns3:TrackPointExtension>
            <ns3:atemp>23.0</ns3:atemp>
          </ns3:TrackPointExtension>
        </extensions>
      </trkpt>
      <trkpt lat="42.5333931483328342437744140625" lon="19.767983369529247283935546875">
        <ele>1579.199951171875</ele>
        <time>2026-06-18T08:24:04.000Z</time>
        <extensions>
          <ns3:TrackPointExtension>
            <ns3:atemp>23.0</ns3:atemp>
          </ns3:TrackPointExtension>
        </extensions>
      </trkpt>
      <trkpt lat="42.53337143920361995697021484375" lon="19.7679899074137210845947265625">
        <ele>1579.5999755859375</ele>
        <time>2026-06-18T08:24:05.000Z</time>
        <extensions>
          <ns3:TrackPointExtension>
            <ns3:atemp>23.0</ns3:atemp>
          </ns3:TrackPointExtension>
        </extensions>
      </trkpt>
      <trkpt lat="42.53334931097924709320068359375" lon="19.767995439469814300537109375">
        <ele>1579.800048828125</ele>
        <time>2026-06-18T08:24:06.000Z</time>
        <extensions>
          <ns3:TrackPointExtension>
            <ns3:atemp>23.0</ns3:atemp>
          </ns3:TrackPointExtension>
        </extensions>
      </trkpt>
      <trkpt lat="42.5333292782306671142578125" lon="19.76799602620303630828857421875">
        <ele>1580</ele>
        <time>2026-06-18T08:24:07.000Z</time>
        <extensions>
          <ns3:TrackPointExtension>
            <ns3:atemp>23.0</ns3:atemp>
          </ns3:TrackPointExtension>
        </extensions>
      </trkpt>
      <trkpt lat="42.53330756910145282745361328125" lon="19.7679935954511165618896484375">
        <ele>1580.199951171875</ele>
        <time>2026-06-18T08:24:08.000Z</time>
        <extensions>
          <ns3:TrackPointExtension>
            <ns3:atemp>23.0</ns3:atemp>
          </ns3:TrackPointExtension>
        </extensions>
      </trkpt>
      <trkpt lat="42.53328527323901653289794921875" lon="19.7679863870143890380859375">
        <ele>1580.199951171875</ele>
        <time>2026-06-18T08:24:09.000Z</time>
        <extensions>
          <ns3:TrackPointExtension>
            <ns3:atemp>23.0</ns3:atemp>
          </ns3:TrackPointExtension>
        </extensions>
      </trkpt>
      <trkpt lat="42.533266246318817138671875" lon="19.767977334558963775634765625">
        <ele>1580.4000244140625</ele>
        <time>2026-06-18T08:24:10.000Z</time>
        <extensions>
          <ns3:TrackPointExtension>
            <ns3:atemp>23.0</ns3:atemp>
          </ns3:TrackPointExtension>
        </extensions>
      </trkpt>
      <trkpt lat="42.53324814140796661376953125" lon="19.7679661028087139129638671875">
        <ele>1580.5999755859375</ele>
        <time>2026-06-18T08:24:11.000Z</time>
        <extensions>
          <ns3:TrackPointExtension>
            <ns3:atemp>23.0</ns3:atemp>
          </ns3:TrackPointExtension>
        </extensions>
      </trkpt>
      <trkpt lat="42.53323338925838470458984375" lon="19.7679496742784976959228515625">
        <ele>1580.800048828125</ele>
        <time>2026-06-18T08:24:12.000Z</time>
        <extensions>
          <ns3:TrackPointExtension>
            <ns3:atemp>23.0</ns3:atemp>
          </ns3:TrackPointExtension>
        </extensions>
      </trkpt>
      <trkpt lat="42.53321721218526363372802734375" lon="19.76793400011956691741943359375">
        <ele>1581</ele>
        <time>2026-06-18T08:24:13.000Z</time>
        <extensions>
          <ns3:TrackPointExtension>
            <ns3:atemp>23.0</ns3:atemp>
          </ns3:TrackPointExtension>
        </extensions>
      </trkpt>
      <trkpt lat="42.5332058966159820556640625" lon="19.7679168172180652618408203125">
        <ele>1581.199951171875</ele>
        <time>2026-06-18T08:24:14.000Z</time>
        <extensions>
          <ns3:TrackPointExtension>
            <ns3:atemp>23.0</ns3:atemp>
          </ns3:TrackPointExtension>
        </extensions>
      </trkpt>
      <trkpt lat="42.53319039009511470794677734375" lon="19.76789745502173900604248046875">
        <ele>1581.4000244140625</ele>
        <time>2026-06-18T08:24:15.000Z</time>
        <extensions>
          <ns3:TrackPointExtension>
            <ns3:atemp>23.0</ns3:atemp>
          </ns3:TrackPointExtension>
        </extensions>
      </trkpt>
      <trkpt lat="42.53317563794553279876708984375" lon="19.767880104482173919677734375">
        <ele>1581.800048828125</ele>
        <time>2026-06-18T08:24:16.000Z</time>
        <extensions>
          <ns3:TrackPointExtension>
            <ns3:atemp>23.0</ns3:atemp>
          </ns3:TrackPointExtension>
        </extensions>
      </trkpt>
      <trkpt lat="42.5331621430814266204833984375" lon="19.7678682021796703338623046875">
        <ele>1581.800048828125</ele>
        <time>2026-06-18T08:24:17.000Z</time>
        <extensions>
          <ns3:TrackPointExtension>
            <ns3:atemp>23.0</ns3:atemp>
          </ns3:TrackPointExtension>
        </extensions>
      </trkpt>
      <trkpt lat="42.53314864821732044219970703125" lon="19.76785185746848583221435546875">
        <ele>1582</ele>
        <time>2026-06-18T08:24:18.000Z</time>
        <extensions>
          <ns3:TrackPointExtension>
            <ns3:atemp>23.0</ns3:atemp>
          </ns3:TrackPointExtension>
        </extensions>
      </trkpt>
      <trkpt lat="42.533133141696453094482421875" lon="19.76783417165279388427734375">
        <ele>1582.199951171875</ele>
        <time>2026-06-18T08:24:19.000Z</time>
        <extensions>
          <ns3:TrackPointExtension>
            <ns3:atemp>23.0</ns3:atemp>
          </ns3:TrackPointExtension>
        </extensions>
      </trkpt>
      <trkpt lat="42.53311964683234691619873046875" lon="19.76781514473259449005126953125">
        <ele>1582.4000244140625</ele>
        <time>2026-06-18T08:24:20.000Z</time>
        <extensions>
          <ns3:TrackPointExtension>
            <ns3:atemp>23.0</ns3:atemp>
          </ns3:TrackPointExtension>
        </extensions>
      </trkpt>
      <trkpt lat="42.5331084989011287689208984375" lon="19.767794944345951080322265625">
        <ele>1582.5999755859375</ele>
        <time>2026-06-18T08:24:21.000Z</time>
        <extensions>
          <ns3:TrackPointExtension>
            <ns3:atemp>23.0</ns3:atemp>
          </ns3:TrackPointExtension>
        </extensions>
      </trkpt>
      <trkpt lat="42.53309668041765689849853515625" lon="19.767775833606719970703125">
        <ele>1582.800048828125</ele>
        <time>2026-06-18T08:24:22.000Z</time>
        <extensions>
          <ns3:TrackPointExtension>
            <ns3:atemp>23.0</ns3:atemp>
          </ns3:TrackPointExtension>
        </extensions>
      </trkpt>
      <trkpt lat="42.53308846615254878997802734375" lon="19.76775378920137882232666015625">
        <ele>1583</ele>
        <time>2026-06-18T08:24:23.000Z</time>
        <extensions>
          <ns3:TrackPointExtension>
            <ns3:atemp>23.0</ns3:atemp>
          </ns3:TrackPointExtension>
        </extensions>
      </trkpt>
      <trkpt lat="42.5330833531916141510009765625" lon="19.76772411726415157318115234375">
        <ele>1583.199951171875</ele>
        <time>2026-06-18T08:24:24.000Z</time>
        <extensions>
          <ns3:TrackPointExtension>
            <ns3:atemp>23.0</ns3:atemp>
          </ns3:TrackPointExtension>
        </extensions>
      </trkpt>
      <trkpt lat="42.5330692715942859649658203125" lon="19.76769511587917804718017578125">
        <ele>1583.5999755859375</ele>
        <time>2026-06-18T08:24:25.000Z</time>
        <extensions>
          <ns3:TrackPointExtension>
            <ns3:atemp>23.0</ns3:atemp>
          </ns3:TrackPointExtension>
        </extensions>
      </trkpt>
      <trkpt lat="42.53306038677692413330078125" lon="19.76766594685614109039306640625">
        <ele>1584</ele>
        <time>2026-06-18T08:24:26.000Z</time>
        <extensions>
          <ns3:TrackPointExtension>
            <ns3:atemp>23.0</ns3:atemp>
          </ns3:TrackPointExtension>
        </extensions>
      </trkpt>
      <trkpt lat="42.5330481491982936859130859375" lon="19.767638035118579864501953125">
        <ele>1584.4000244140625</ele>
        <time>2026-06-18T08:24:27.000Z</time>
        <extensions>
          <ns3:TrackPointExtension>
            <ns3:atemp>23.0</ns3:atemp>
          </ns3:TrackPointExtension>
        </extensions>
      </trkpt>
      <trkpt lat="42.53303222358226776123046875" lon="19.76761154830455780029296875">
        <ele>1584.5999755859375</ele>
        <time>2026-06-18T08:24:28.000Z</time>
        <extensions>
          <ns3:TrackPointExtension>
            <ns3:atemp>23.0</ns3:atemp>
          </ns3:TrackPointExtension>
        </extensions>
      </trkpt>
      <trkpt lat="42.53301705233752727508544921875" lon="19.76757810451090335845947265625">
        <ele>1584.800048828125</ele>
        <time>2026-06-18T08:24:29.000Z</time>
        <extensions>
          <ns3:TrackPointExtension>
            <ns3:atemp>23.0</ns3:atemp>
          </ns3:TrackPointExtension>
        </extensions>
      </trkpt>
      <trkpt lat="42.53299869596958160400390625" lon="19.76754424162209033966064453125">
        <ele>1584.800048828125</ele>
        <time>2026-06-18T08:24:30.000Z</time>
        <extensions>
          <ns3:TrackPointExtension>
            <ns3:atemp>23.0</ns3:atemp>
          </ns3:TrackPointExtension>
        </extensions>
      </trkpt>
      <trkpt lat="42.53298285417258739471435546875" lon="19.7675170004367828369140625">
        <ele>1585</ele>
        <time>2026-06-18T08:24:31.000Z</time>
        <extensions>
          <ns3:TrackPointExtension>
            <ns3:atemp>23.0</ns3:atemp>
          </ns3:TrackPointExtension>
        </extensions>
      </trkpt>
      <trkpt lat="42.5329673476517200469970703125" lon="19.76749378256499767303466796875">
        <ele>1585</ele>
        <time>2026-06-18T08:24:32.000Z</time>
        <extensions>
          <ns3:TrackPointExtension>
            <ns3:atemp>23.0</ns3:atemp>
          </ns3:TrackPointExtension>
        </extensions>
      </trkpt>
      <trkpt lat="42.5329532660543918609619140625" lon="19.76746930740773677825927734375">
        <ele>1585.199951171875</ele>
        <time>2026-06-18T08:24:33.000Z</time>
        <extensions>
          <ns3:TrackPointExtension>
            <ns3:atemp>23.0</ns3:atemp>
          </ns3:TrackPointExtension>
        </extensions>
      </trkpt>
      <trkpt lat="42.53294446505606174468994140625" lon="19.7674413956701755523681640625">
        <ele>1585.199951171875</ele>
        <time>2026-06-18T08:24:34.000Z</time>
        <extensions>
          <ns3:TrackPointExtension>
            <ns3:atemp>23.0</ns3:atemp>
          </ns3:TrackPointExtension>
        </extensions>
      </trkpt>
      <trkpt lat="42.53293189220130443572998046875" lon="19.7674175910651683807373046875">
        <ele>1585.4000244140625</ele>
        <time>2026-06-18T08:24:35.000Z</time>
        <extensions>
          <ns3:TrackPointExtension>
            <ns3:atemp>23.0</ns3:atemp>
          </ns3:TrackPointExtension>
        </extensions>
      </trkpt>
      <trkpt lat="42.53292200155556201934814453125" lon="19.76739152334630489349365234375">
        <ele>1585.5999755859375</ele>
        <time>2026-06-18T08:24:36.000Z</time>
        <extensions>
          <ns3:TrackPointExtension>
            <ns3:atemp>23.0</ns3:atemp>
          </ns3:TrackPointExtension>
        </extensions>
      </trkpt>
      <trkpt lat="42.532913200557231903076171875" lon="19.76736076176166534423828125">
        <ele>1585.800048828125</ele>
        <time>2026-06-18T08:24:37.000Z</time>
        <extensions>
          <ns3:TrackPointExtension>
            <ns3:atemp>23.0</ns3:atemp>
          </ns3:TrackPointExtension>
        </extensions>
      </trkpt>
      <trkpt lat="42.53290590830147266387939453125" lon="19.76732916198670864105224609375">
        <ele>1586</ele>
        <time>2026-06-18T08:24:38.000Z</time>
        <extensions>
          <ns3:TrackPointExtension>
            <ns3:atemp>23.0</ns3:atemp>
          </ns3:TrackPointExtension>
        </extensions>
      </trkpt>
      <trkpt lat="42.53290289081633090972900390625" lon="19.76729647256433963775634765625">
        <ele>1586.4000244140625</ele>
        <time>2026-06-18T08:24:39.000Z</time>
        <extensions>
          <ns3:TrackPointExtension>
            <ns3:atemp>23.0</ns3:atemp>
          </ns3:TrackPointExtension>
        </extensions>
      </trkpt>
      <trkpt lat="42.53290356136858463287353515625" lon="19.76726596243679523468017578125">
        <ele>1586.5999755859375</ele>
        <time>2026-06-18T08:24:40.000Z</time>
        <extensions>
          <ns3:TrackPointExtension>
            <ns3:atemp>23.0</ns3:atemp>
          </ns3:TrackPointExtension>
        </extensions>
      </trkpt>
      <trkpt lat="42.53291018307209014892578125" lon="19.7672402299940586090087890625">
        <ele>1586.5999755859375</ele>
        <time>2026-06-18T08:24:41.000Z</time>
        <extensions>
          <ns3:TrackPointExtension>
            <ns3:atemp>23.0</ns3:atemp>
          </ns3:TrackPointExtension>
        </extensions>
      </trkpt>
      <trkpt lat="42.5329207442700862884521484375" lon="19.7672184370458126068115234375">
        <ele>1586.800048828125</ele>
        <time>2026-06-18T08:24:42.000Z</time>
        <extensions>
          <ns3:TrackPointExtension>
            <ns3:atemp>23.0</ns3:atemp>
          </ns3:TrackPointExtension>
        </extensions>
      </trkpt>
      <trkpt lat="42.5329308025538921356201171875" lon="19.76720142178237438201904296875">
        <ele>1587</ele>
        <time>2026-06-18T08:24:43.000Z</time>
        <extensions>
          <ns3:TrackPointExtension>
            <ns3:atemp>23.0</ns3:atemp>
          </ns3:TrackPointExtension>
        </extensions>
      </trkpt>
      <trkpt lat="42.532944716513156890869140625" lon="19.76718239486217498779296875">
        <ele>1587.199951171875</ele>
        <time>2026-06-18T08:24:44.000Z</time>
        <extensions>
          <ns3:TrackPointExtension>
            <ns3:atemp>23.0</ns3:atemp>
          </ns3:TrackPointExtension>
        </extensions>
      </trkpt>
      <trkpt lat="42.53295703791081905364990234375" lon="19.7671661339700222015380859375">
        <ele>1587.5999755859375</ele>
        <time>2026-06-18T08:24:45.000Z</time>
        <extensions>
          <ns3:TrackPointExtension>
            <ns3:atemp>23.0</ns3:atemp>
          </ns3:TrackPointExtension>
        </extensions>
      </trkpt>
      <trkpt lat="42.53296676091849803924560546875" lon="19.76714995689690113067626953125">
        <ele>1587.800048828125</ele>
        <time>2026-06-18T08:24:46.000Z</time>
        <extensions>
          <ns3:TrackPointExtension>
            <ns3:atemp>23.0</ns3:atemp>
          </ns3:TrackPointExtension>
        </extensions>
      </trkpt>
      <trkpt lat="42.532982267439365386962890625" lon="19.76713453419506549835205078125">
        <ele>1588</ele>
        <time>2026-06-18T08:24:47.000Z</time>
        <extensions>
          <ns3:TrackPointExtension>
            <ns3:atemp>23.0</ns3:atemp>
          </ns3:TrackPointExtension>
        </extensions>
      </trkpt>
      <trkpt lat="42.53299626521766185760498046875" lon="19.7671218775212764739990234375">
        <ele>1588.4000244140625</ele>
        <time>2026-06-18T08:24:48.000Z</time>
        <extensions>
          <ns3:TrackPointExtension>
            <ns3:atemp>23.0</ns3:atemp>
          </ns3:TrackPointExtension>
        </extensions>
      </trkpt>
      <trkpt lat="42.5330082513391971588134765625" lon="19.76710620336234569549560546875">
        <ele>1588.5999755859375</ele>
        <time>2026-06-18T08:24:49.000Z</time>
        <extensions>
          <ns3:TrackPointExtension>
            <ns3:atemp>23.0</ns3:atemp>
          </ns3:TrackPointExtension>
        </extensions>
      </trkpt>
      <trkpt lat="42.53301839344203472137451171875" lon="19.76708876900374889373779296875">
        <ele>1588.800048828125</ele>
        <time>2026-06-18T08:24:50.000Z</time>
        <extensions>
          <ns3:TrackPointExtension>
            <ns3:atemp>23.0</ns3:atemp>
          </ns3:TrackPointExtension>
        </extensions>
      </trkpt>
      <trkpt lat="42.53302845172584056854248046875" lon="19.76706714369356632232666015625">
        <ele>1589</ele>
        <time>2026-06-18T08:24:51.000Z</time>
        <extensions>
          <ns3:TrackPointExtension>
            <ns3:atemp>23.0</ns3:atemp>
          </ns3:TrackPointExtension>
        </extensions>
      </trkpt>
      <trkpt lat="42.5330422818660736083984375" lon="19.76704694330692291259765625">
        <ele>1589</ele>
        <time>2026-06-18T08:24:52.000Z</time>
        <extensions>
          <ns3:TrackPointExtension>
            <ns3:atemp>23.0</ns3:atemp>
          </ns3:TrackPointExtension>
        </extensions>
      </trkpt>
      <trkpt lat="42.53305141814053058624267578125" lon="19.76702925749123096466064453125">
        <ele>1589.4000244140625</ele>
        <time>2026-06-18T08:24:53.000Z</time>
        <extensions>
          <ns3:TrackPointExtension>
            <ns3:atemp>23.0</ns3:atemp>
          </ns3:TrackPointExtension>
        </extensions>
      </trkpt>
      <trkpt lat="42.53306516446173191070556640625" lon="19.76701081730425357818603515625">
        <ele>1589.5999755859375</ele>
        <time>2026-06-18T08:24:54.000Z</time>
        <extensions>
          <ns3:TrackPointExtension>
            <ns3:atemp>23.0</ns3:atemp>
          </ns3:TrackPointExtension>
        </extensions>
      </trkpt>
      <trkpt lat="42.533081509172916412353515625" lon="19.766994304955005645751953125">
        <ele>1589.800048828125</ele>
        <time>2026-06-18T08:24:55.000Z</time>
        <extensions>
          <ns3:TrackPointExtension>
            <ns3:atemp>23.0</ns3:atemp>
          </ns3:TrackPointExtension>
        </extensions>
      </trkpt>
      <trkpt lat="42.5330997817218303680419921875" lon="19.76697930134832859039306640625">
        <ele>1589.800048828125</ele>
        <time>2026-06-18T08:24:56.000Z</time>
        <extensions>
          <ns3:TrackPointExtension>
            <ns3:atemp>23.0</ns3:atemp>
          </ns3:TrackPointExtension>
        </extensions>
      </trkpt>
      <trkpt lat="42.53311344422399997711181640625" lon="19.76696119643747806549072265625">
        <ele>1589.800048828125</ele>
        <time>2026-06-18T08:24:57.000Z</time>
        <extensions>
          <ns3:TrackPointExtension>
            <ns3:atemp>23.0</ns3:atemp>
          </ns3:TrackPointExtension>
        </extensions>
      </trkpt>
      <trkpt lat="42.53313037566840648651123046875" lon="19.76694904267787933349609375">
        <ele>1590</ele>
        <time>2026-06-18T08:24:58.000Z</time>
        <extensions>
          <ns3:TrackPointExtension>
            <ns3:atemp>23.0</ns3:atemp>
          </ns3:TrackPointExtension>
        </extensions>
      </trkpt>
      <trkpt lat="42.5331480614840984344482421875" lon="19.76693521253764629364013671875">
        <ele>1590</ele>
        <time>2026-06-18T08:24:59.000Z</time>
        <extensions>
          <ns3:TrackPointExtension>
            <ns3:atemp>23.0</ns3:atemp>
          </ns3:TrackPointExtension>
        </extensions>
      </trkpt>
      <trkpt lat="42.53316306509077548980712890625" lon="19.76691828109323978424072265625">
        <ele>1590.199951171875</ele>
        <time>2026-06-18T08:25:00.000Z</time>
        <extensions>
          <ns3:TrackPointExtension>
            <ns3:atemp>23.0</ns3:atemp>
          </ns3:TrackPointExtension>
        </extensions>
      </trkpt>
      <trkpt lat="42.5331748835742473602294921875" lon="19.7669012658298015594482421875">
        <ele>1590.4000244140625</ele>
        <time>2026-06-18T08:25:01.000Z</time>
        <extensions>
          <ns3:TrackPointExtension>
            <ns3:atemp>23.0</ns3:atemp>
          </ns3:TrackPointExtension>
        </extensions>
      </trkpt>
      <trkpt lat="42.53318586386740207672119140625" lon="19.7668858431279659271240234375">
        <ele>1590.5999755859375</ele>
        <time>2026-06-18T08:25:02.000Z</time>
        <extensions>
          <ns3:TrackPointExtension>
            <ns3:atemp>23.0</ns3:atemp>
          </ns3:TrackPointExtension>
        </extensions>
      </trkpt>
      <trkpt lat="42.53320111893117427825927734375" lon="19.76686815731227397918701171875">
        <ele>1590.800048828125</ele>
        <time>2026-06-18T08:25:03.000Z</time>
        <extensions>
          <ns3:TrackPointExtension>
            <ns3:atemp>23.0</ns3:atemp>
          </ns3:TrackPointExtension>
        </extensions>
      </trkpt>
      <trkpt lat="42.533214278519153594970703125" lon="19.76684485562145709991455078125">
        <ele>1591.199951171875</ele>
        <time>2026-06-18T08:25:04.000Z</time>
        <extensions>
          <ns3:TrackPointExtension>
            <ns3:atemp>23.0</ns3:atemp>
          </ns3:TrackPointExtension>
        </extensions>
      </trkpt>
      <trkpt lat="42.533227689564228057861328125" lon="19.76682431995868682861328125">
        <ele>1591.4000244140625</ele>
        <time>2026-06-18T08:25:05.000Z</time>
        <extensions>
          <ns3:TrackPointExtension>
            <ns3:atemp>23.0</ns3:atemp>
          </ns3:TrackPointExtension>
        </extensions>
      </trkpt>
      <trkpt lat="42.5332395918667316436767578125" lon="19.76680629886686801910400390625">
        <ele>1591.800048828125</ele>
        <time>2026-06-18T08:25:06.000Z</time>
        <extensions>
          <ns3:TrackPointExtension>
            <ns3:atemp>23.0</ns3:atemp>
          </ns3:TrackPointExtension>
        </extensions>
      </trkpt>
      <trkpt lat="42.533255182206630706787109375" lon="19.7667847573757171630859375">
        <ele>1592</ele>
        <time>2026-06-18T08:25:07.000Z</time>
        <extensions>
          <ns3:TrackPointExtension>
            <ns3:atemp>23.0</ns3:atemp>
          </ns3:TrackPointExtension>
        </extensions>
      </trkpt>
      <trkpt lat="42.5332690961658954620361328125" lon="19.76676707156002521514892578125">
        <ele>1592.199951171875</ele>
        <time>2026-06-18T08:25:08.000Z</time>
        <extensions>
          <ns3:TrackPointExtension>
            <ns3:atemp>23.0</ns3:atemp>
          </ns3:TrackPointExtension>
        </extensions>
      </trkpt>
      <trkpt lat="42.53328560851514339447021484375" lon="19.7667534090578556060791015625">
        <ele>1592.4000244140625</ele>
        <time>2026-06-18T08:25:09.000Z</time>
        <extensions>
          <ns3:TrackPointExtension>
            <ns3:atemp>23.0</ns3:atemp>
          </ns3:TrackPointExtension>
        </extensions>
      </trkpt>
      <trkpt lat="42.53329834900796413421630859375" lon="19.7667391598224639892578125">
        <ele>1592.800048828125</ele>
        <time>2026-06-18T08:25:10.000Z</time>
        <extensions>
          <ns3:TrackPointExtension>
            <ns3:atemp>23.0</ns3:atemp>
          </ns3:TrackPointExtension>
        </extensions>
      </trkpt>
      <trkpt lat="42.53331393934786319732666015625" lon="19.7667222283780574798583984375">
        <ele>1593</ele>
        <time>2026-06-18T08:25:11.000Z</time>
        <extensions>
          <ns3:TrackPointExtension>
            <ns3:atemp>23.0</ns3:atemp>
          </ns3:TrackPointExtension>
        </extensions>
      </trkpt>
      <trkpt lat="42.53332869149744510650634765625" lon="19.7667024470865726470947265625">
        <ele>1593.199951171875</ele>
        <time>2026-06-18T08:25:12.000Z</time>
        <extensions>
          <ns3:TrackPointExtension>
            <ns3:atemp>23.0</ns3:atemp>
          </ns3:TrackPointExtension>
        </extensions>
      </trkpt>
      <trkpt lat="42.53334830515086650848388671875" lon="19.76668258197605609893798828125">
        <ele>1593.5999755859375</ele>
        <time>2026-06-18T08:25:13.000Z</time>
        <extensions>
          <ns3:TrackPointExtension>
            <ns3:atemp>23.0</ns3:atemp>
          </ns3:TrackPointExtension>
        </extensions>
      </trkpt>
      <trkpt lat="42.53336615860462188720703125" lon="19.7666667401790618896484375">
        <ele>1593.800048828125</ele>
        <time>2026-06-18T08:25:14.000Z</time>
        <extensions>
          <ns3:TrackPointExtension>
            <ns3:atemp>23.0</ns3:atemp>
          </ns3:TrackPointExtension>
        </extensions>
      </trkpt>
      <trkpt lat="42.5333824194967746734619140625" lon="19.7666555084288120269775390625">
        <ele>1594.199951171875</ele>
        <time>2026-06-18T08:25:15.000Z</time>
        <extensions>
          <ns3:TrackPointExtension>
            <ns3:atemp>23.0</ns3:atemp>
          </ns3:TrackPointExtension>
        </extensions>
      </trkpt>
      <trkpt lat="42.533400021493434906005859375" lon="19.766648299992084503173828125">
        <ele>1594.4000244140625</ele>
        <time>2026-06-18T08:25:16.000Z</time>
        <extensions>
          <ns3:TrackPointExtension>
            <ns3:atemp>23.0</ns3:atemp>
          </ns3:TrackPointExtension>
        </extensions>
      </trkpt>
      <trkpt lat="42.533413432538509368896484375" lon="19.766630195081233978271484375">
        <ele>1594.4000244140625</ele>
        <time>2026-06-18T08:25:17.000Z</time>
        <extensions>
          <ns3:TrackPointExtension>
            <ns3:atemp>23.0</ns3:atemp>
          </ns3:TrackPointExtension>
        </extensions>
      </trkpt>
      <trkpt lat="42.53342893905937671661376953125" lon="19.7666082344949245452880859375">
        <ele>1594.4000244140625</ele>
        <time>2026-06-18T08:25:18.000Z</time>
        <extensions>
          <ns3:TrackPointExtension>
            <ns3:atemp>23.0</ns3:atemp>
          </ns3:TrackPointExtension>
        </extensions>
      </trkpt>
      <trkpt lat="42.53344251774251461029052734375" lon="19.76658560335636138916015625">
        <ele>1594.5999755859375</ele>
        <time>2026-06-18T08:25:19.000Z</time>
        <extensions>
          <ns3:TrackPointExtension>
            <ns3:atemp>23.0</ns3:atemp>
          </ns3:TrackPointExtension>
        </extensions>
      </trkpt>
      <trkpt lat="42.5334571860730648040771484375" lon="19.76656741462647914886474609375">
        <ele>1594.5999755859375</ele>
        <time>2026-06-18T08:25:20.000Z</time>
        <extensions>
          <ns3:TrackPointExtension>
            <ns3:atemp>23.0</ns3:atemp>
          </ns3:TrackPointExtension>
        </extensions>
      </trkpt>
      <trkpt lat="42.53347017802298069000244140625" lon="19.7665441967546939849853515625">
        <ele>1594.800048828125</ele>
        <time>2026-06-18T08:25:21.000Z</time>
        <extensions>
          <ns3:TrackPointExtension>
            <ns3:atemp>23.0</ns3:atemp>
          </ns3:TrackPointExtension>
        </extensions>
      </trkpt>
      <trkpt lat="42.53347554244101047515869140625" lon="19.76651410572230815887451171875">
        <ele>1595</ele>
        <time>2026-06-18T08:25:22.000Z</time>
        <extensions>
          <ns3:TrackPointExtension>
            <ns3:atemp>23.0</ns3:atemp>
          </ns3:TrackPointExtension>
        </extensions>
      </trkpt>
      <trkpt lat="42.5334786437451839447021484375" lon="19.76648510433733463287353515625">
        <ele>1595.199951171875</ele>
        <time>2026-06-18T08:25:23.000Z</time>
        <extensions>
          <ns3:TrackPointExtension>
            <ns3:atemp>23.0</ns3:atemp>
          </ns3:TrackPointExtension>
        </extensions>
      </trkpt>
      <trkpt lat="42.53348015248775482177734375" lon="19.7664630599319934844970703125">
        <ele>1595.4000244140625</ele>
        <time>2026-06-18T08:25:24.000Z</time>
        <extensions>
          <ns3:TrackPointExtension>
            <ns3:atemp>23.0</ns3:atemp>
          </ns3:TrackPointExtension>
        </extensions>
      </trkpt>
      <trkpt lat="42.5334786437451839447021484375" lon="19.766442775726318359375">
        <ele>1595.5999755859375</ele>
        <time>2026-06-18T08:25:25.000Z</time>
        <extensions>
          <ns3:TrackPointExtension>
            <ns3:atemp>23.0</ns3:atemp>
          </ns3:TrackPointExtension>
        </extensions>
      </trkpt>
      <trkpt lat="42.5334732793271541595458984375" lon="19.766415618360042572021484375">
        <ele>1596</ele>
        <time>2026-06-18T08:25:26.000Z</time>
        <extensions>
          <ns3:TrackPointExtension>
            <ns3:atemp>23.0</ns3:atemp>
          </ns3:TrackPointExtension>
        </extensions>
      </trkpt>
      <trkpt lat="42.53346548415720462799072265625" lon="19.76638711988925933837890625">
        <ele>1596.199951171875</ele>
        <time>2026-06-18T08:25:27.000Z</time>
        <extensions>
          <ns3:TrackPointExtension>
            <ns3:atemp>23.0</ns3:atemp>
          </ns3:TrackPointExtension>
        </extensions>
      </trkpt>
      <trkpt lat="42.53345726989209651947021484375" lon="19.76636054925620555877685546875">
        <ele>1596.4000244140625</ele>
        <time>2026-06-18T08:25:28.000Z</time>
        <extensions>
          <ns3:TrackPointExtension>
            <ns3:atemp>23.0</ns3:atemp>
          </ns3:TrackPointExtension>
        </extensions>
      </trkpt>
      <trkpt lat="42.5334474630653858184814453125" lon="19.766335822641849517822265625">
        <ele>1596.800048828125</ele>
        <time>2026-06-18T08:25:29.000Z</time>
        <extensions>
          <ns3:TrackPointExtension>
            <ns3:atemp>23.0</ns3:atemp>
          </ns3:TrackPointExtension>
        </extensions>
      </trkpt>
      <trkpt lat="42.533440925180912017822265625" lon="19.7663153707981109619140625">
        <ele>1597</ele>
        <time>2026-06-18T08:25:30.000Z</time>
        <extensions>
          <ns3:TrackPointExtension>
            <ns3:atemp>23.0</ns3:atemp>
          </ns3:TrackPointExtension>
        </extensions>
      </trkpt>
      <trkpt lat="42.53343396820127964019775390625" lon="19.7662981040775775909423828125">
        <ele>1597.4000244140625</ele>
        <time>2026-06-18T08:25:31.000Z</time>
        <extensions>
          <ns3:TrackPointExtension>
            <ns3:atemp>23.0</ns3:atemp>
          </ns3:TrackPointExtension>
        </extensions>
      </trkpt>
      <trkpt lat="42.53342525102198123931884765625" lon="19.76627605967223644256591796875">
        <ele>1597.800048828125</ele>
        <time>2026-06-18T08:25:32.000Z</time>
        <extensions>
          <ns3:TrackPointExtension>
            <ns3:atemp>23.0</ns3:atemp>
          </ns3:TrackPointExtension>
        </extensions>
      </trkpt>
      <trkpt lat="42.533416114747524261474609375" lon="19.7662536799907684326171875">
        <ele>1598</ele>
        <time>2026-06-18T08:25:33.000Z</time>
        <extensions>
          <ns3:TrackPointExtension>
            <ns3:atemp>23.0</ns3:atemp>
          </ns3:TrackPointExtension>
        </extensions>
      </trkpt>
      <trkpt lat="42.5334079004824161529541015625" lon="19.7662300430238246917724609375">
        <ele>1598.4000244140625</ele>
        <time>2026-06-18T08:25:34.000Z</time>
        <extensions>
          <ns3:TrackPointExtension>
            <ns3:atemp>23.0</ns3:atemp>
          </ns3:TrackPointExtension>
        </extensions>
      </trkpt>
      <trkpt lat="42.5334005244076251983642578125" lon="19.7662065736949443817138671875">
        <ele>1598.5999755859375</ele>
        <time>2026-06-18T08:25:35.000Z</time>
        <extensions>
          <ns3:TrackPointExtension>
            <ns3:atemp>23.0</ns3:atemp>
          </ns3:TrackPointExtension>
        </extensions>
      </trkpt>
      <trkpt lat="42.533395327627658843994140625" lon="19.7661774046719074249267578125">
        <ele>1598.800048828125</ele>
        <time>2026-06-18T08:25:36.000Z</time>
        <extensions>
          <ns3:TrackPointExtension>
            <ns3:atemp>23.0</ns3:atemp>
          </ns3:TrackPointExtension>
        </extensions>
      </trkpt>
      <trkpt lat="42.53338770009577274322509765625" lon="19.766152761876583099365234375">
        <ele>1599.199951171875</ele>
        <time>2026-06-18T08:25:37.000Z</time>
        <extensions>
          <ns3:TrackPointExtension>
            <ns3:atemp>23.0</ns3:atemp>
          </ns3:TrackPointExtension>
        </extensions>
      </trkpt>
      <trkpt lat="42.533381916582584381103515625" lon="19.7661249339580535888671875">
        <ele>1599.5999755859375</ele>
        <time>2026-06-18T08:25:38.000Z</time>
        <extensions>
          <ns3:TrackPointExtension>
            <ns3:atemp>23.0</ns3:atemp>
          </ns3:TrackPointExtension>
        </extensions>
      </trkpt>
      <trkpt lat="42.53337982110679149627685546875" lon="19.766100458800792694091796875">
        <ele>1599.800048828125</ele>
        <time>2026-06-18T08:25:39.000Z</time>
        <extensions>
          <ns3:TrackPointExtension>
            <ns3:atemp>23.0</ns3:atemp>
          </ns3:TrackPointExtension>
        </extensions>
      </trkpt>
      <trkpt lat="42.5333748757839202880859375" lon="19.7660724632441997528076171875">
        <ele>1600.199951171875</ele>
        <time>2026-06-18T08:25:40.000Z</time>
        <extensions>
          <ns3:TrackPointExtension>
            <ns3:atemp>23.0</ns3:atemp>
          </ns3:TrackPointExtension>
        </extensions>
      </trkpt>
      <trkpt lat="42.533373534679412841796875" lon="19.76604723371565341949462890625">
        <ele>1600.4000244140625</ele>
        <time>2026-06-18T08:25:41.000Z</time>
        <extensions>
          <ns3:TrackPointExtension>
            <ns3:atemp>23.0</ns3:atemp>
          </ns3:TrackPointExtension>
        </extensions>
      </trkpt>
      <trkpt lat="42.53337110392749309539794921875" lon="19.7660245187580585479736328125">
        <ele>1600.5999755859375</ele>
        <time>2026-06-18T08:25:42.000Z</time>
        <extensions>
          <ns3:TrackPointExtension>
            <ns3:atemp>23.0</ns3:atemp>
          </ns3:TrackPointExtension>
        </extensions>
      </trkpt>
      <trkpt lat="42.533368505537509918212890625" lon="19.76599643938243389129638671875">
        <ele>1601</ele>
        <time>2026-06-18T08:25:43.000Z</time>
        <extensions>
          <ns3:TrackPointExtension>
            <ns3:atemp>23.0</ns3:atemp>
          </ns3:TrackPointExtension>
        </extensions>
      </trkpt>
      <trkpt lat="42.5333663262426853179931640625" lon="19.765973389148712158203125">
        <ele>1601.199951171875</ele>
        <time>2026-06-18T08:25:44.000Z</time>
        <extensions>
          <ns3:TrackPointExtension>
            <ns3:atemp>23.0</ns3:atemp>
          </ns3:TrackPointExtension>
        </extensions>
      </trkpt>
      <trkpt lat="42.53336691297590732574462890625" lon="19.765949249267578125">
        <ele>1601.4000244140625</ele>
        <time>2026-06-18T08:25:45.000Z</time>
        <extensions>
          <ns3:TrackPointExtension>
            <ns3:atemp>23.0</ns3:atemp>
          </ns3:TrackPointExtension>
        </extensions>
      </trkpt>
      <trkpt lat="42.5333649851381778717041015625" lon="19.76592686958611011505126953125">
        <ele>1601.5999755859375</ele>
        <time>2026-06-18T08:25:46.000Z</time>
        <extensions>
          <ns3:TrackPointExtension>
            <ns3:atemp>23.0</ns3:atemp>
          </ns3:TrackPointExtension>
        </extensions>
      </trkpt>
      <trkpt lat="42.53336054272949695587158203125" lon="19.76590541191399097442626953125">
        <ele>1602.199951171875</ele>
        <time>2026-06-18T08:25:47.000Z</time>
        <extensions>
          <ns3:TrackPointExtension>
            <ns3:atemp>23.0</ns3:atemp>
          </ns3:TrackPointExtension>
        </extensions>
      </trkpt>
      <trkpt lat="42.533358447253704071044921875" lon="19.76587993092834949493408203125">
        <ele>1602.4000244140625</ele>
        <time>2026-06-18T08:25:48.000Z</time>
        <extensions>
          <ns3:TrackPointExtension>
            <ns3:atemp>23.0</ns3:atemp>
          </ns3:TrackPointExtension>
        </extensions>
      </trkpt>
      <trkpt lat="42.5333599559962749481201171875" lon="19.76585495285689830780029296875">
        <ele>1602.800048828125</ele>
        <time>2026-06-18T08:25:49.000Z</time>
        <extensions>
          <ns3:TrackPointExtension>
            <ns3:atemp>23.0</ns3:atemp>
          </ns3:TrackPointExtension>
        </extensions>
      </trkpt>
      <trkpt lat="42.53335903398692607879638671875" lon="19.7658303938806056976318359375">
        <ele>1603.199951171875</ele>
        <time>2026-06-18T08:25:50.000Z</time>
        <extensions>
          <ns3:TrackPointExtension>
            <ns3:atemp>23.0</ns3:atemp>
          </ns3:TrackPointExtension>
        </extensions>
      </trkpt>
      <trkpt lat="42.53335618413984775543212890625" lon="19.76580583490431308746337890625">
        <ele>1603.5999755859375</ele>
        <time>2026-06-18T08:25:51.000Z</time>
        <extensions>
          <ns3:TrackPointExtension>
            <ns3:atemp>23.0</ns3:atemp>
          </ns3:TrackPointExtension>
        </extensions>
      </trkpt>
      <trkpt lat="42.5333532504737377166748046875" lon="19.76577599532902240753173828125">
        <ele>1603.800048828125</ele>
        <time>2026-06-18T08:25:52.000Z</time>
        <extensions>
          <ns3:TrackPointExtension>
            <ns3:atemp>23.0</ns3:atemp>
          </ns3:TrackPointExtension>
        </extensions>
      </trkpt>
      <trkpt lat="42.533347047865390777587890625" lon="19.76574607193470001220703125">
        <ele>1604.4000244140625</ele>
        <time>2026-06-18T08:25:53.000Z</time>
        <extensions>
          <ns3:TrackPointExtension>
            <ns3:atemp>23.0</ns3:atemp>
          </ns3:TrackPointExtension>
        </extensions>
      </trkpt>
      <trkpt lat="42.53333690576255321502685546875" lon="19.76571883074939250946044921875">
        <ele>1604.5999755859375</ele>
        <time>2026-06-18T08:25:54.000Z</time>
        <extensions>
          <ns3:TrackPointExtension>
            <ns3:atemp>23.0</ns3:atemp>
          </ns3:TrackPointExtension>
        </extensions>
      </trkpt>
      <trkpt lat="42.53332651220262050628662109375" lon="19.765690080821514129638671875">
        <ele>1604.800048828125</ele>
        <time>2026-06-18T08:25:55.000Z</time>
        <extensions>
          <ns3:TrackPointExtension>
            <ns3:atemp>23.0</ns3:atemp>
          </ns3:TrackPointExtension>
        </extensions>
      </trkpt>
      <trkpt lat="42.533310838043689727783203125" lon="19.76566292345523834228515625">
        <ele>1605.199951171875</ele>
        <time>2026-06-18T08:25:56.000Z</time>
        <extensions>
          <ns3:TrackPointExtension>
            <ns3:atemp>23.0</ns3:atemp>
          </ns3:TrackPointExtension>
        </extensions>
      </trkpt>
      <trkpt lat="42.53329549916088581085205078125" lon="19.76564004085958003997802734375">
        <ele>1605.5999755859375</ele>
        <time>2026-06-18T08:25:57.000Z</time>
        <extensions>
          <ns3:TrackPointExtension>
            <ns3:atemp>23.0</ns3:atemp>
          </ns3:TrackPointExtension>
        </extensions>
      </trkpt>
      <trkpt lat="42.53328032791614532470703125" lon="19.76561958901584148406982421875">
        <ele>1606</ele>
        <time>2026-06-18T08:25:58.000Z</time>
        <extensions>
          <ns3:TrackPointExtension>
            <ns3:atemp>23.0</ns3:atemp>
          </ns3:TrackPointExtension>
        </extensions>
      </trkpt>
      <trkpt lat="42.5332675874233245849609375" lon="19.76559427566826343536376953125">
        <ele>1606.4000244140625</ele>
        <time>2026-06-18T08:25:59.000Z</time>
        <extensions>
          <ns3:TrackPointExtension>
            <ns3:atemp>23.0</ns3:atemp>
          </ns3:TrackPointExtension>
        </extensions>
      </trkpt>
      <trkpt lat="42.53325484693050384521484375" lon="19.76557214744389057159423828125">
        <ele>1606.5999755859375</ele>
        <time>2026-06-18T08:26:00.000Z</time>
        <extensions>
          <ns3:TrackPointExtension>
            <ns3:atemp>23.0</ns3:atemp>
          </ns3:TrackPointExtension>
        </extensions>
      </trkpt>
      <trkpt lat="42.5332348980009555816650390625" lon="19.76555337198078632354736328125">
        <ele>1607</ele>
        <time>2026-06-18T08:26:01.000Z</time>
        <extensions>
          <ns3:TrackPointExtension>
            <ns3:atemp>23.0</ns3:atemp>
          </ns3:TrackPointExtension>
        </extensions>
      </trkpt>
      <trkpt lat="42.5332134403288364410400390625" lon="19.76553576998412609100341796875">
        <ele>1607.4000244140625</ele>
        <time>2026-06-18T08:26:02.000Z</time>
        <extensions>
          <ns3:TrackPointExtension>
            <ns3:atemp>23.0</ns3:atemp>
          </ns3:TrackPointExtension>
        </extensions>
      </trkpt>
      <trkpt lat="42.533190809190273284912109375" lon="19.76552453823387622833251953125">
        <ele>1607.5999755859375</ele>
        <time>2026-06-18T08:26:03.000Z</time>
        <extensions>
          <ns3:TrackPointExtension>
            <ns3:atemp>23.0</ns3:atemp>
          </ns3:TrackPointExtension>
        </extensions>
      </trkpt>
      <trkpt lat="42.53317312337458133697509765625" lon="19.76551431231200695037841796875">
        <ele>1608</ele>
        <time>2026-06-18T08:26:04.000Z</time>
        <extensions>
          <ns3:TrackPointExtension>
            <ns3:atemp>23.0</ns3:atemp>
          </ns3:TrackPointExtension>
        </extensions>
      </trkpt>
      <trkpt lat="42.53315552137792110443115234375" lon="19.7655055113136768341064453125">
        <ele>1608.199951171875</ele>
        <time>2026-06-18T08:26:05.000Z</time>
        <extensions>
          <ns3:TrackPointExtension>
            <ns3:atemp>23.0</ns3:atemp>
          </ns3:TrackPointExtension>
        </extensions>
      </trkpt>
      <trkpt lat="42.53313574008643627166748046875" lon="19.76550157181918621063232421875">
        <ele>1608.4000244140625</ele>
        <time>2026-06-18T08:26:06.000Z</time>
        <extensions>
          <ns3:TrackPointExtension>
            <ns3:atemp>23.0</ns3:atemp>
          </ns3:TrackPointExtension>
        </extensions>
      </trkpt>
      <trkpt lat="42.53311662934720516204833984375" lon="19.76549796760082244873046875">
        <ele>1608.5999755859375</ele>
        <time>2026-06-18T08:26:07.000Z</time>
        <extensions>
          <ns3:TrackPointExtension>
            <ns3:atemp>23.0</ns3:atemp>
          </ns3:TrackPointExtension>
        </extensions>
      </trkpt>
      <trkpt lat="42.53309659659862518310546875" lon="19.76549486629664897918701171875">
        <ele>1608.800048828125</ele>
        <time>2026-06-18T08:26:08.000Z</time>
        <extensions>
          <ns3:TrackPointExtension>
            <ns3:atemp>23.0</ns3:atemp>
          </ns3:TrackPointExtension>
        </extensions>
      </trkpt>
      <trkpt lat="42.533080838620662689208984375" lon="19.76549126207828521728515625">
        <ele>1609.199951171875</ele>
        <time>2026-06-18T08:26:09.000Z</time>
        <extensions>
          <ns3:TrackPointExtension>
            <ns3:atemp>23.0</ns3:atemp>
          </ns3:TrackPointExtension>
        </extensions>
      </trkpt>
      <trkpt lat="42.53306332044303417205810546875" lon="19.7654910944402217864990234375">
        <ele>1609.4000244140625</ele>
        <time>2026-06-18T08:26:10.000Z</time>
        <extensions>
          <ns3:TrackPointExtension>
            <ns3:atemp>23.0</ns3:atemp>
          </ns3:TrackPointExtension>
        </extensions>
      </trkpt>
      <trkpt lat="42.53304957412183284759521484375" lon="19.765492267906665802001953125">
        <ele>1609.800048828125</ele>
        <time>2026-06-18T08:26:11.000Z</time>
        <extensions>
          <ns3:TrackPointExtension>
            <ns3:atemp>23.0</ns3:atemp>
          </ns3:TrackPointExtension>
        </extensions>
      </trkpt>
      <trkpt lat="42.533033899962902069091796875" lon="19.76549620740115642547607421875">
        <ele>1610</ele>
        <time>2026-06-18T08:26:12.000Z</time>
        <extensions>
          <ns3:TrackPointExtension>
            <ns3:atemp>23.0</ns3:atemp>
          </ns3:TrackPointExtension>
        </extensions>
      </trkpt>
      <trkpt lat="42.5330149568617343902587890625" lon="19.7654971294105052947998046875">
        <ele>1610.4000244140625</ele>
        <time>2026-06-18T08:26:13.000Z</time>
        <extensions>
          <ns3:TrackPointExtension>
            <ns3:atemp>23.0</ns3:atemp>
          </ns3:TrackPointExtension>
        </extensions>
      </trkpt>
      <trkpt lat="42.5329965166747570037841796875" lon="19.76550064980983734130859375">
        <ele>1610.5999755859375</ele>
        <time>2026-06-18T08:26:14.000Z</time>
        <extensions>
          <ns3:TrackPointExtension>
            <ns3:atemp>23.0</ns3:atemp>
          </ns3:TrackPointExtension>
        </extensions>
      </trkpt>
      <trkpt lat="42.5329792499542236328125" lon="19.765505008399486541748046875">
        <ele>1610.800048828125</ele>
        <time>2026-06-18T08:26:15.000Z</time>
        <extensions>
          <ns3:TrackPointExtension>
            <ns3:atemp>23.0</ns3:atemp>
          </ns3:TrackPointExtension>
        </extensions>
      </trkpt>
      <trkpt lat="42.5329609774053096771240234375" lon="19.765513055026531219482421875">
        <ele>1611.199951171875</ele>
        <time>2026-06-18T08:26:16.000Z</time>
        <extensions>
          <ns3:TrackPointExtension>
            <ns3:atemp>23.0</ns3:atemp>
          </ns3:TrackPointExtension>
        </extensions>
      </trkpt>
      <trkpt lat="42.53294127993285655975341796875" lon="19.76551649160683155059814453125">
        <ele>1611.4000244140625</ele>
        <time>2026-06-18T08:26:17.000Z</time>
        <extensions>
          <ns3:TrackPointExtension>
            <ns3:atemp>23.0</ns3:atemp>
          </ns3:TrackPointExtension>
        </extensions>
      </trkpt>
      <trkpt lat="42.53292468376457691192626953125" lon="19.76551950909197330474853515625">
        <ele>1611.5999755859375</ele>
        <time>2026-06-18T08:26:18.000Z</time>
        <extensions>
          <ns3:TrackPointExtension>
            <ns3:atemp>23.0</ns3:atemp>
          </ns3:TrackPointExtension>
        </extensions>
      </trkpt>
      <trkpt lat="42.5329096801578998565673828125" lon="19.7655252926051616668701171875">
        <ele>1611.800048828125</ele>
        <time>2026-06-18T08:26:19.000Z</time>
        <extensions>
          <ns3:TrackPointExtension>
            <ns3:atemp>23.0</ns3:atemp>
          </ns3:TrackPointExtension>
        </extensions>
      </trkpt>
      <trkpt lat="42.5328939221799373626708984375" lon="19.76553560234606266021728515625">
        <ele>1612</ele>
        <time>2026-06-18T08:26:20.000Z</time>
        <extensions>
          <ns3:TrackPointExtension>
            <ns3:atemp>23.0</ns3:atemp>
          </ns3:TrackPointExtension>
        </extensions>
      </trkpt>
      <trkpt lat="42.53287891857326030731201171875" lon="19.76554750464856624603271484375">
        <ele>1612.199951171875</ele>
        <time>2026-06-18T08:26:21.000Z</time>
        <extensions>
          <ns3:TrackPointExtension>
            <ns3:atemp>23.0</ns3:atemp>
          </ns3:TrackPointExtension>
        </extensions>
      </trkpt>
      <trkpt lat="42.53286299295723438262939453125" lon="19.76555764675140380859375">
        <ele>1612.199951171875</ele>
        <time>2026-06-18T08:26:22.000Z</time>
        <extensions>
          <ns3:TrackPointExtension>
            <ns3:atemp>23.0</ns3:atemp>
          </ns3:TrackPointExtension>
        </extensions>
      </trkpt>
      <trkpt lat="42.53284824080765247344970703125" lon="19.76556996814906597137451171875">
        <ele>1612.199951171875</ele>
        <time>2026-06-18T08:26:23.000Z</time>
        <extensions>
          <ns3:TrackPointExtension>
            <ns3:atemp>23.0</ns3:atemp>
          </ns3:TrackPointExtension>
        </extensions>
      </trkpt>
      <trkpt lat="42.5328357517719268798828125" lon="19.76557818241417407989501953125">
        <ele>1612.4000244140625</ele>
        <time>2026-06-18T08:26:24.000Z</time>
        <extensions>
          <ns3:TrackPointExtension>
            <ns3:atemp>23.0</ns3:atemp>
          </ns3:TrackPointExtension>
        </extensions>
      </trkpt>
      <trkpt lat="42.53282024525105953216552734375" lon="19.765590168535709381103515625">
        <ele>1612.5999755859375</ele>
        <time>2026-06-18T08:26:25.000Z</time>
        <extensions>
          <ns3:TrackPointExtension>
            <ns3:atemp>23.0</ns3:atemp>
          </ns3:TrackPointExtension>
        </extensions>
      </trkpt>
      <trkpt lat="42.532802559435367584228515625" lon="19.76560391485691070556640625">
        <ele>1612.800048828125</ele>
        <time>2026-06-18T08:26:26.000Z</time>
        <extensions>
          <ns3:TrackPointExtension>
            <ns3:atemp>23.0</ns3:atemp>
          </ns3:TrackPointExtension>
        </extensions>
      </trkpt>
      <trkpt lat="42.53278520889580249786376953125" lon="19.76561053656041622161865234375">
        <ele>1613</ele>
        <time>2026-06-18T08:26:27.000Z</time>
        <extensions>
          <ns3:TrackPointExtension>
            <ns3:atemp>23.0</ns3:atemp>
          </ns3:TrackPointExtension>
        </extensions>
      </trkpt>
      <trkpt lat="42.53276827745139598846435546875" lon="19.765614308416843414306640625">
        <ele>1613.199951171875</ele>
        <time>2026-06-18T08:26:28.000Z</time>
        <extensions>
          <ns3:TrackPointExtension>
            <ns3:atemp>23.0</ns3:atemp>
          </ns3:TrackPointExtension>
        </extensions>
      </trkpt>
      <trkpt lat="42.5327497534453868865966796875" lon="19.765616320073604583740234375">
        <ele>1613.4000244140625</ele>
        <time>2026-06-18T08:26:29.000Z</time>
        <extensions>
          <ns3:TrackPointExtension>
            <ns3:atemp>23.0</ns3:atemp>
          </ns3:TrackPointExtension>
        </extensions>
      </trkpt>
      <trkpt lat="42.53272972069680690765380859375" lon="19.76562210358679294586181640625">
        <ele>1613.5999755859375</ele>
        <time>2026-06-18T08:26:30.000Z</time>
        <extensions>
          <ns3:TrackPointExtension>
            <ns3:atemp>23.0</ns3:atemp>
          </ns3:TrackPointExtension>
        </extensions>
      </trkpt>
      <trkpt lat="42.53271278925240039825439453125" lon="19.76561489515006542205810546875">
        <ele>1613.800048828125</ele>
        <time>2026-06-18T08:26:31.000Z</time>
        <extensions>
          <ns3:TrackPointExtension>
            <ns3:atemp>23.0</ns3:atemp>
          </ns3:TrackPointExtension>
        </extensions>
      </trkpt>
      <trkpt lat="42.5326967798173427581787109375" lon="19.7656057588756084442138671875">
        <ele>1614</ele>
        <time>2026-06-18T08:26:32.000Z</time>
        <extensions>
          <ns3:TrackPointExtension>
            <ns3:atemp>23.0</ns3:atemp>
          </ns3:TrackPointExtension>
        </extensions>
      </trkpt>
      <trkpt lat="42.53268127329647541046142578125" lon="19.76558891125023365020751953125">
        <ele>1614</ele>
        <time>2026-06-18T08:26:33.000Z</time>
        <extensions>
          <ns3:TrackPointExtension>
            <ns3:atemp>23.0</ns3:atemp>
          </ns3:TrackPointExtension>
        </extensions>
      </trkpt>
      <trkpt lat="42.53267322666943073272705078125" lon="19.76556628011167049407958984375">
        <ele>1614.199951171875</ele>
        <time>2026-06-18T08:26:34.000Z</time>
        <extensions>
          <ns3:TrackPointExtension>
            <ns3:atemp>23.0</ns3:atemp>
          </ns3:TrackPointExtension>
        </extensions>
      </trkpt>
      <trkpt lat="42.53266350366175174713134765625" lon="19.7655457444489002227783203125">
        <ele>1614.4000244140625</ele>
        <time>2026-06-18T08:26:35.000Z</time>
        <extensions>
          <ns3:TrackPointExtension>
            <ns3:atemp>23.0</ns3:atemp>
          </ns3:TrackPointExtension>
        </extensions>
      </trkpt>
      <trkpt lat="42.5326552055776119232177734375" lon="19.76552386768162250518798828125">
        <ele>1614.5999755859375</ele>
        <time>2026-06-18T08:26:36.000Z</time>
        <extensions>
          <ns3:TrackPointExtension>
            <ns3:atemp>23.0</ns3:atemp>
          </ns3:TrackPointExtension>
        </extensions>
      </trkpt>
      <trkpt lat="42.532646656036376953125" lon="19.7655018232762813568115234375">
        <ele>1614.5999755859375</ele>
        <time>2026-06-18T08:26:37.000Z</time>
        <extensions>
          <ns3:TrackPointExtension>
            <ns3:atemp>23.0</ns3:atemp>
          </ns3:TrackPointExtension>
        </extensions>
      </trkpt>
      <trkpt lat="42.53263651393353939056396484375" lon="19.76548053324222564697265625">
        <ele>1614.800048828125</ele>
        <time>2026-06-18T08:26:38.000Z</time>
        <extensions>
          <ns3:TrackPointExtension>
            <ns3:atemp>23.0</ns3:atemp>
          </ns3:TrackPointExtension>
        </extensions>
      </trkpt>
      <trkpt lat="42.532627880573272705078125" lon="19.76545496843755245208740234375">
        <ele>1615</ele>
        <time>2026-06-18T08:26:39.000Z</time>
        <extensions>
          <ns3:TrackPointExtension>
            <ns3:atemp>23.0</ns3:atemp>
          </ns3:TrackPointExtension>
        </extensions>
      </trkpt>
      <trkpt lat="42.5326186604797840118408203125" lon="19.76542965508997440338134765625">
        <ele>1615.199951171875</ele>
        <time>2026-06-18T08:26:40.000Z</time>
        <extensions>
          <ns3:TrackPointExtension>
            <ns3:atemp>23.0</ns3:atemp>
          </ns3:TrackPointExtension>
        </extensions>
      </trkpt>
      <trkpt lat="42.532610110938549041748046875" lon="19.76540769450366497039794921875">
        <ele>1615.4000244140625</ele>
        <time>2026-06-18T08:26:41.000Z</time>
        <extensions>
          <ns3:TrackPointExtension>
            <ns3:atemp>23.0</ns3:atemp>
          </ns3:TrackPointExtension>
        </extensions>
      </trkpt>
      <trkpt lat="42.5326050817966461181640625" lon="19.76538472808897495269775390625">
        <ele>1615.5999755859375</ele>
        <time>2026-06-18T08:26:42.000Z</time>
        <extensions>
          <ns3:TrackPointExtension>
            <ns3:atemp>23.0</ns3:atemp>
          </ns3:TrackPointExtension>
        </extensions>
      </trkpt>
      <trkpt lat="42.532595358788967132568359375" lon="19.76536209695041179656982421875">
        <ele>1615.800048828125</ele>
        <time>2026-06-18T08:26:43.000Z</time>
        <extensions>
          <ns3:TrackPointExtension>
            <ns3:atemp>23.0</ns3:atemp>
          </ns3:TrackPointExtension>
        </extensions>
      </trkpt>
      <trkpt lat="42.53258354030549526214599609375" lon="19.765336029231548309326171875">
        <ele>1616</ele>
        <time>2026-06-18T08:26:44.000Z</time>
        <extensions>
          <ns3:TrackPointExtension>
            <ns3:atemp>23.0</ns3:atemp>
          </ns3:TrackPointExtension>
        </extensions>
      </trkpt>
      <trkpt lat="42.5325730629265308380126953125" lon="19.7653133980929851531982421875">
        <ele>1616.199951171875</ele>
        <time>2026-06-18T08:26:45.000Z</time>
        <extensions>
          <ns3:TrackPointExtension>
            <ns3:atemp>23.0</ns3:atemp>
          </ns3:TrackPointExtension>
        </extensions>
      </trkpt>
      <trkpt lat="42.53256392665207386016845703125" lon="19.76529420353472232818603515625">
        <ele>1616.199951171875</ele>
        <time>2026-06-18T08:26:46.000Z</time>
        <extensions>
          <ns3:TrackPointExtension>
            <ns3:atemp>23.0</ns3:atemp>
          </ns3:TrackPointExtension>
        </extensions>
      </trkpt>
      <trkpt lat="42.53255613148212432861328125" lon="19.7652798704802989959716796875">
        <ele>1616.5999755859375</ele>
        <time>2026-06-18T08:26:47.000Z</time>
        <extensions>
          <ns3:TrackPointExtension>
            <ns3:atemp>23.0</ns3:atemp>
          </ns3:TrackPointExtension>
        </extensions>
      </trkpt>
      <trkpt lat="42.53254883922636508941650390625" lon="19.76526520214974880218505859375">
        <ele>1616.800048828125</ele>
        <time>2026-06-18T08:26:48.000Z</time>
        <extensions>
          <ns3:TrackPointExtension>
            <ns3:atemp>23.0</ns3:atemp>
          </ns3:TrackPointExtension>
        </extensions>
      </trkpt>
      <trkpt lat="42.53254297189414501190185546875" lon="19.7652480192482471466064453125">
        <ele>1617</ele>
        <time>2026-06-18T08:26:49.000Z</time>
        <extensions>
          <ns3:TrackPointExtension>
            <ns3:atemp>23.0</ns3:atemp>
          </ns3:TrackPointExtension>
        </extensions>
      </trkpt>
      <trkpt lat="42.53253458999097347259521484375" lon="19.76523200981318950653076171875">
        <ele>1617.4000244140625</ele>
        <time>2026-06-18T08:26:50.000Z</time>
        <extensions>
          <ns3:TrackPointExtension>
            <ns3:atemp>23.0</ns3:atemp>
          </ns3:TrackPointExtension>
        </extensions>
      </trkpt>
      <trkpt lat="42.5325241126120090484619140625" lon="19.7652124799787998199462890625">
        <ele>1617.5999755859375</ele>
        <time>2026-06-18T08:26:51.000Z</time>
        <extensions>
          <ns3:TrackPointExtension>
            <ns3:atemp>23.0</ns3:atemp>
          </ns3:TrackPointExtension>
        </extensions>
      </trkpt>
      <trkpt lat="42.53250877372920513153076171875" lon="19.76519211195409297943115234375">
        <ele>1618</ele>
        <time>2026-06-18T08:26:52.000Z</time>
        <extensions>
          <ns3:TrackPointExtension>
            <ns3:atemp>23.0</ns3:atemp>
          </ns3:TrackPointExtension>
        </extensions>
      </trkpt>
      <trkpt lat="42.5324925966560840606689453125" lon="19.765173085033893585205078125">
        <ele>1618.4000244140625</ele>
        <time>2026-06-18T08:26:53.000Z</time>
        <extensions>
          <ns3:TrackPointExtension>
            <ns3:atemp>23.0</ns3:atemp>
          </ns3:TrackPointExtension>
        </extensions>
      </trkpt>
      <trkpt lat="42.5324758328497409820556640625" lon="19.7651593387126922607421875">
        <ele>1618.5999755859375</ele>
        <time>2026-06-18T08:26:54.000Z</time>
        <extensions>
          <ns3:TrackPointExtension>
            <ns3:atemp>23.0</ns3:atemp>
          </ns3:TrackPointExtension>
        </extensions>
      </trkpt>
      <trkpt lat="42.5324590690433979034423828125" lon="19.76514651440083980560302734375">
        <ele>1619</ele>
        <time>2026-06-18T08:26:55.000Z</time>
        <extensions>
          <ns3:TrackPointExtension>
            <ns3:atemp>23.0</ns3:atemp>
          </ns3:TrackPointExtension>
        </extensions>
      </trkpt>
      <trkpt lat="42.5324416346848011016845703125" lon="19.76513964124023914337158203125">
        <ele>1619.4000244140625</ele>
        <time>2026-06-18T08:26:56.000Z</time>
        <extensions>
          <ns3:TrackPointExtension>
            <ns3:atemp>23.0</ns3:atemp>
          </ns3:TrackPointExtension>
        </extensions>
      </trkpt>
      <trkpt lat="42.5324235297739505767822265625" lon="19.76513452827930450439453125">
        <ele>1619.800048828125</ele>
        <time>2026-06-18T08:26:57.000Z</time>
        <extensions>
          <ns3:TrackPointExtension>
            <ns3:atemp>23.0</ns3:atemp>
          </ns3:TrackPointExtension>
        </extensions>
      </trkpt>
      <trkpt lat="42.53240525722503662109375" lon="19.7651320137083530426025390625">
        <ele>1620.4000244140625</ele>
        <time>2026-06-18T08:26:58.000Z</time>
        <extensions>
          <ns3:TrackPointExtension>
            <ns3:atemp>23.0</ns3:atemp>
          </ns3:TrackPointExtension>
        </extensions>
      </trkpt>
      <trkpt lat="42.53238773904740810394287109375" lon="19.76513310335576534271240234375">
        <ele>1620.5999755859375</ele>
        <time>2026-06-18T08:26:59.000Z</time>
        <extensions>
          <ns3:TrackPointExtension>
            <ns3:atemp>23.0</ns3:atemp>
          </ns3:TrackPointExtension>
        </extensions>
      </trkpt>
      <trkpt lat="42.532371394336223602294921875" lon="19.7651336900889873504638671875">
        <ele>1621</ele>
        <time>2026-06-18T08:27:00.000Z</time>
        <extensions>
          <ns3:TrackPointExtension>
            <ns3:atemp>23.0</ns3:atemp>
          </ns3:TrackPointExtension>
        </extensions>
      </trkpt>
      <trkpt lat="42.532353959977626800537109375" lon="19.76513528265058994293212890625">
        <ele>1621.199951171875</ele>
        <time>2026-06-18T08:27:01.000Z</time>
        <extensions>
          <ns3:TrackPointExtension>
            <ns3:atemp>23.0</ns3:atemp>
          </ns3:TrackPointExtension>
        </extensions>
      </trkpt>
      <trkpt lat="42.53233644179999828338623046875" lon="19.76513209752738475799560546875">
        <ele>1621.5999755859375</ele>
        <time>2026-06-18T08:27:02.000Z</time>
        <extensions>
          <ns3:TrackPointExtension>
            <ns3:atemp>23.0</ns3:atemp>
          </ns3:TrackPointExtension>
        </extensions>
      </trkpt>
      <trkpt lat="42.53232051618397235870361328125" lon="19.7651279903948307037353515625">
        <ele>1622</ele>
        <time>2026-06-18T08:27:03.000Z</time>
        <extensions>
          <ns3:TrackPointExtension>
            <ns3:atemp>23.0</ns3:atemp>
          </ns3:TrackPointExtension>
        </extensions>
      </trkpt>
      <trkpt lat="42.5323045067489147186279296875" lon="19.76513075642287731170654296875">
        <ele>1622.199951171875</ele>
        <time>2026-06-18T08:27:04.000Z</time>
        <extensions>
          <ns3:TrackPointExtension>
            <ns3:atemp>23.0</ns3:atemp>
          </ns3:TrackPointExtension>
        </extensions>
      </trkpt>
      <trkpt lat="42.53228480927646160125732421875" lon="19.7651350311934947967529296875">
        <ele>1622.5999755859375</ele>
        <time>2026-06-18T08:27:05.000Z</time>
        <extensions>
          <ns3:TrackPointExtension>
            <ns3:atemp>23.0</ns3:atemp>
          </ns3:TrackPointExtension>
        </extensions>
      </trkpt>
      <trkpt lat="42.53226804547011852264404296875" lon="19.76513008587062358856201171875">
        <ele>1623</ele>
        <time>2026-06-18T08:27:06.000Z</time>
        <extensions>
          <ns3:TrackPointExtension>
            <ns3:atemp>23.0</ns3:atemp>
          </ns3:TrackPointExtension>
        </extensions>
      </trkpt>
      <trkpt lat="42.5322495214641094207763671875" lon="19.7651231288909912109375">
        <ele>1623.199951171875</ele>
        <time>2026-06-18T08:27:07.000Z</time>
        <extensions>
          <ns3:TrackPointExtension>
            <ns3:atemp>23.0</ns3:atemp>
          </ns3:TrackPointExtension>
        </extensions>
      </trkpt>
      <trkpt lat="42.5322307460010051727294921875" lon="19.76511843502521514892578125">
        <ele>1623.5999755859375</ele>
        <time>2026-06-18T08:27:08.000Z</time>
        <extensions>
          <ns3:TrackPointExtension>
            <ns3:atemp>23.0</ns3:atemp>
          </ns3:TrackPointExtension>
        </extensions>
      </trkpt>
      <trkpt lat="42.53221406601369380950927734375" lon="19.76511533372104167938232421875">
        <ele>1623.800048828125</ele>
        <time>2026-06-18T08:27:09.000Z</time>
        <extensions>
          <ns3:TrackPointExtension>
            <ns3:atemp>23.0</ns3:atemp>
          </ns3:TrackPointExtension>
        </extensions>
      </trkpt>
      <trkpt lat="42.532196380198001861572265625" lon="19.76511734537780284881591796875">
        <ele>1624</ele>
        <time>2026-06-18T08:27:10.000Z</time>
        <extensions>
          <ns3:TrackPointExtension>
            <ns3:atemp>23.0</ns3:atemp>
          </ns3:TrackPointExtension>
        </extensions>
      </trkpt>
      <trkpt lat="42.53218053840100765228271484375" lon="19.76511885412037372589111328125">
        <ele>1624.4000244140625</ele>
        <time>2026-06-18T08:27:11.000Z</time>
        <extensions>
          <ns3:TrackPointExtension>
            <ns3:atemp>23.0</ns3:atemp>
          </ns3:TrackPointExtension>
        </extensions>
      </trkpt>
      <trkpt lat="42.53216360695660114288330078125" lon="19.7651222907006740570068359375">
        <ele>1624.5999755859375</ele>
        <time>2026-06-18T08:27:12.000Z</time>
        <extensions>
          <ns3:TrackPointExtension>
            <ns3:atemp>23.0</ns3:atemp>
          </ns3:TrackPointExtension>
        </extensions>
      </trkpt>
      <trkpt lat="42.53214617259800434112548828125" lon="19.76512187160551548004150390625">
        <ele>1625</ele>
        <time>2026-06-18T08:27:13.000Z</time>
        <extensions>
          <ns3:TrackPointExtension>
            <ns3:atemp>23.0</ns3:atemp>
          </ns3:TrackPointExtension>
        </extensions>
      </trkpt>
      <trkpt lat="42.53212890587747097015380859375" lon="19.76512187160551548004150390625">
        <ele>1625.199951171875</ele>
        <time>2026-06-18T08:27:14.000Z</time>
        <extensions>
          <ns3:TrackPointExtension>
            <ns3:atemp>23.0</ns3:atemp>
          </ns3:TrackPointExtension>
        </extensions>
      </trkpt>
      <trkpt lat="42.53211163915693759918212890625" lon="19.7651246376335620880126953125">
        <ele>1625.5999755859375</ele>
        <time>2026-06-18T08:27:15.000Z</time>
        <extensions>
          <ns3:TrackPointExtension>
            <ns3:atemp>23.0</ns3:atemp>
          </ns3:TrackPointExtension>
        </extensions>
      </trkpt>
      <trkpt lat="42.5320959649980068206787109375" lon="19.76513260044157505035400390625">
        <ele>1625.800048828125</ele>
        <time>2026-06-18T08:27:16.000Z</time>
        <extensions>
          <ns3:TrackPointExtension>
            <ns3:atemp>23.0</ns3:atemp>
          </ns3:TrackPointExtension>
        </extensions>
      </trkpt>
      <trkpt lat="42.532080374658107757568359375" lon="19.7651444189250469207763671875">
        <ele>1626</ele>
        <time>2026-06-18T08:27:17.000Z</time>
        <extensions>
          <ns3:TrackPointExtension>
            <ns3:atemp>23.0</ns3:atemp>
          </ns3:TrackPointExtension>
        </extensions>
      </trkpt>
      <trkpt lat="42.53206436522305011749267578125" lon="19.76515062153339385986328125">
        <ele>1626.4000244140625</ele>
        <time>2026-06-18T08:27:18.000Z</time>
        <extensions>
          <ns3:TrackPointExtension>
            <ns3:atemp>23.0</ns3:atemp>
          </ns3:TrackPointExtension>
        </extensions>
      </trkpt>
      <trkpt lat="42.53204961307346820831298828125" lon="19.76515305228531360626220703125">
        <ele>1627</ele>
        <time>2026-06-18T08:27:19.000Z</time>
        <extensions>
          <ns3:TrackPointExtension>
            <ns3:atemp>23.0</ns3:atemp>
          </ns3:TrackPointExtension>
        </extensions>
      </trkpt>
      <trkpt lat="42.53204173408448696136474609375" lon="19.7651631943881511688232421875">
        <ele>1627.4000244140625</ele>
        <time>2026-06-18T08:27:20.000Z</time>
        <extensions>
          <ns3:TrackPointExtension>
            <ns3:atemp>23.0</ns3:atemp>
          </ns3:TrackPointExtension>
        </extensions>
      </trkpt>
      <trkpt lat="42.53202312625944614410400390625" lon="19.7651745937764644622802734375">
        <ele>1627.5999755859375</ele>
        <time>2026-06-18T08:27:21.000Z</time>
        <extensions>
          <ns3:TrackPointExtension>
            <ns3:atemp>23.0</ns3:atemp>
          </ns3:TrackPointExtension>
        </extensions>
      </trkpt>
      <trkpt lat="42.53200770355761051177978515625" lon="19.76518037728965282440185546875">
        <ele>1628</ele>
        <time>2026-06-18T08:27:22.000Z</time>
        <extensions>
          <ns3:TrackPointExtension>
            <ns3:atemp>23.0</ns3:atemp>
          </ns3:TrackPointExtension>
        </extensions>
      </trkpt>
      <trkpt lat="42.53199328668415546417236328125" lon="19.7651926986873149871826171875">
        <ele>1628.4000244140625</ele>
        <time>2026-06-18T08:27:23.000Z</time>
        <extensions>
          <ns3:TrackPointExtension>
            <ns3:atemp>23.0</ns3:atemp>
          </ns3:TrackPointExtension>
        </extensions>
      </trkpt>
      <trkpt lat="42.53197736106812953948974609375" lon="19.7652037627995014190673828125">
        <ele>1628.800048828125</ele>
        <time>2026-06-18T08:27:24.000Z</time>
        <extensions>
          <ns3:TrackPointExtension>
            <ns3:atemp>23.0</ns3:atemp>
          </ns3:TrackPointExtension>
        </extensions>
      </trkpt>
      <trkpt lat="42.5319628603756427764892578125" lon="19.765213318169116973876953125">
        <ele>1629.199951171875</ele>
        <time>2026-06-18T08:27:25.000Z</time>
        <extensions>
          <ns3:TrackPointExtension>
            <ns3:atemp>23.0</ns3:atemp>
          </ns3:TrackPointExtension>
        </extensions>
      </trkpt>
      <trkpt lat="42.53194651566445827484130859375" lon="19.765226058661937713623046875">
        <ele>1629.5999755859375</ele>
        <time>2026-06-18T08:27:26.000Z</time>
        <extensions>
          <ns3:TrackPointExtension>
            <ns3:atemp>23.0</ns3:atemp>
          </ns3:TrackPointExtension>
        </extensions>
      </trkpt>
      <trkpt lat="42.53193209879100322723388671875" lon="19.7652398049831390380859375">
        <ele>1629.800048828125</ele>
        <time>2026-06-18T08:27:27.000Z</time>
        <extensions>
          <ns3:TrackPointExtension>
            <ns3:atemp>23.0</ns3:atemp>
          </ns3:TrackPointExtension>
        </extensions>
      </trkpt>
      <trkpt lat="42.531916089355945587158203125" lon="19.76525120437145233154296875">
        <ele>1630</ele>
        <time>2026-06-18T08:27:28.000Z</time>
        <extensions>
          <ns3:TrackPointExtension>
            <ns3:atemp>23.0</ns3:atemp>
          </ns3:TrackPointExtension>
        </extensions>
      </trkpt>
      <trkpt lat="42.531898319721221923828125" lon="19.76525933481752872467041015625">
        <ele>1630.199951171875</ele>
        <time>2026-06-18T08:27:29.000Z</time>
        <extensions>
          <ns3:TrackPointExtension>
            <ns3:atemp>23.0</ns3:atemp>
          </ns3:TrackPointExtension>
        </extensions>
      </trkpt>
      <trkpt lat="42.5318797118961811065673828125" lon="19.76526536978781223297119140625">
        <ele>1630.800048828125</ele>
        <time>2026-06-18T08:27:30.000Z</time>
        <extensions>
          <ns3:TrackPointExtension>
            <ns3:atemp>23.0</ns3:atemp>
          </ns3:TrackPointExtension>
        </extensions>
      </trkpt>
      <trkpt lat="42.5318619422614574432373046875" lon="19.76527056656777858734130859375">
        <ele>1631</ele>
        <time>2026-06-18T08:27:31.000Z</time>
        <extensions>
          <ns3:TrackPointExtension>
            <ns3:atemp>23.0</ns3:atemp>
          </ns3:TrackPointExtension>
        </extensions>
      </trkpt>
      <trkpt lat="42.53184526227414608001708984375" lon="19.7652768529951572418212890625">
        <ele>1631.4000244140625</ele>
        <time>2026-06-18T08:27:32.000Z</time>
        <extensions>
          <ns3:TrackPointExtension>
            <ns3:atemp>23.0</ns3:atemp>
          </ns3:TrackPointExtension>
        </extensions>
      </trkpt>
      <trkpt lat="42.531828582286834716796875" lon="19.7652835585176944732666015625">
        <ele>1632</ele>
        <time>2026-06-18T08:27:33.000Z</time>
        <extensions>
          <ns3:TrackPointExtension>
            <ns3:atemp>23.0</ns3:atemp>
          </ns3:TrackPointExtension>
        </extensions>
      </trkpt>
      <trkpt lat="42.531812824308872222900390625" lon="19.76528448052704334259033203125">
        <ele>1632.4000244140625</ele>
        <time>2026-06-18T08:27:34.000Z</time>
        <extensions>
          <ns3:TrackPointExtension>
            <ns3:atemp>23.0</ns3:atemp>
          </ns3:TrackPointExtension>
        </extensions>
      </trkpt>
      <trkpt lat="42.53179480321705341339111328125" lon="19.7652845643460750579833984375">
        <ele>1632.800048828125</ele>
        <time>2026-06-18T08:27:35.000Z</time>
        <extensions>
          <ns3:TrackPointExtension>
            <ns3:atemp>23.0</ns3:atemp>
          </ns3:TrackPointExtension>
        </extensions>
      </trkpt>
      <trkpt lat="42.53177451901137828826904296875" lon="19.765289090573787689208984375">
        <ele>1633</ele>
        <time>2026-06-18T08:27:36.000Z</time>
        <extensions>
          <ns3:TrackPointExtension>
            <ns3:atemp>23.0</ns3:atemp>
          </ns3:TrackPointExtension>
        </extensions>
      </trkpt>
      <trkpt lat="42.53175389952957630157470703125" lon="19.76529370062053203582763671875">
        <ele>1633.4000244140625</ele>
        <time>2026-06-18T08:27:37.000Z</time>
        <extensions>
          <ns3:TrackPointExtension>
            <ns3:atemp>23.0</ns3:atemp>
          </ns3:TrackPointExtension>
        </extensions>
      </trkpt>
      <trkpt lat="42.53173763863742351531982421875" lon="19.7652983106672763824462890625">
        <ele>1633.5999755859375</ele>
        <time>2026-06-18T08:27:38.000Z</time>
        <extensions>
          <ns3:TrackPointExtension>
            <ns3:atemp>23.0</ns3:atemp>
          </ns3:TrackPointExtension>
        </extensions>
      </trkpt>
      <trkpt lat="42.5317201204597949981689453125" lon="19.76529839448630809783935546875">
        <ele>1634</ele>
        <time>2026-06-18T08:27:39.000Z</time>
        <extensions>
          <ns3:TrackPointExtension>
            <ns3:atemp>23.0</ns3:atemp>
          </ns3:TrackPointExtension>
        </extensions>
      </trkpt>
      <trkpt lat="42.53170226700603961944580078125" lon="19.765297137200832366943359375">
        <ele>1634.4000244140625</ele>
        <time>2026-06-18T08:27:40.000Z</time>
        <extensions>
          <ns3:TrackPointExtension>
            <ns3:atemp>23.0</ns3:atemp>
          </ns3:TrackPointExtension>
        </extensions>
      </trkpt>
      <trkpt lat="42.531684748828411102294921875" lon="19.7652959637343883514404296875">
        <ele>1634.800048828125</ele>
        <time>2026-06-18T08:27:41.000Z</time>
        <extensions>
          <ns3:TrackPointExtension>
            <ns3:atemp>23.0</ns3:atemp>
          </ns3:TrackPointExtension>
        </extensions>
      </trkpt>
      <trkpt lat="42.53166622482240200042724609375" lon="19.765289761126041412353515625">
        <ele>1635</ele>
        <time>2026-06-18T08:27:42.000Z</time>
        <extensions>
          <ns3:TrackPointExtension>
            <ns3:atemp>23.0</ns3:atemp>
          </ns3:TrackPointExtension>
        </extensions>
      </trkpt>
      <trkpt lat="42.531646527349948883056640625" lon="19.7652859054505825042724609375">
        <ele>1635.4000244140625</ele>
        <time>2026-06-18T08:27:43.000Z</time>
        <extensions>
          <ns3:TrackPointExtension>
            <ns3:atemp>23.0</ns3:atemp>
          </ns3:TrackPointExtension>
        </extensions>
      </trkpt>
      <trkpt lat="42.53163286484777927398681640625" lon="19.76528246887028217315673828125">
        <ele>1635.5999755859375</ele>
        <time>2026-06-18T08:27:44.000Z</time>
        <extensions>
          <ns3:TrackPointExtension>
            <ns3:atemp>23.0</ns3:atemp>
          </ns3:TrackPointExtension>
        </extensions>
      </trkpt>
      <trkpt lat="42.531619369983673095703125" lon="19.76527777500450611114501953125">
        <ele>1636</ele>
        <time>2026-06-18T08:27:45.000Z</time>
        <extensions>
          <ns3:TrackPointExtension>
            <ns3:atemp>23.0</ns3:atemp>
          </ns3:TrackPointExtension>
        </extensions>
      </trkpt>
      <trkpt lat="42.5316041149199008941650390625" lon="19.76526956073939800262451171875">
        <ele>1636.4000244140625</ele>
        <time>2026-06-18T08:27:46.000Z</time>
        <extensions>
          <ns3:TrackPointExtension>
            <ns3:atemp>23.0</ns3:atemp>
          </ns3:TrackPointExtension>
        </extensions>
      </trkpt>
      <trkpt lat="42.5315886922180652618408203125" lon="19.7652590833604335784912109375">
        <ele>1637</ele>
        <time>2026-06-18T08:27:47.000Z</time>
        <extensions>
          <ns3:TrackPointExtension>
            <ns3:atemp>23.0</ns3:atemp>
          </ns3:TrackPointExtension>
        </extensions>
      </trkpt>
      <trkpt lat="42.53157285042107105255126953125" lon="19.76525045000016689300537109375">
        <ele>1637.4000244140625</ele>
        <time>2026-06-18T08:27:48.000Z</time>
        <extensions>
          <ns3:TrackPointExtension>
            <ns3:atemp>23.0</ns3:atemp>
          </ns3:TrackPointExtension>
        </extensions>
      </trkpt>
      <trkpt lat="42.5315558351576328277587890625" lon="19.76524005644023418426513671875">
        <ele>1637.800048828125</ele>
        <time>2026-06-18T08:27:49.000Z</time>
        <extensions>
          <ns3:TrackPointExtension>
            <ns3:atemp>23.0</ns3:atemp>
          </ns3:TrackPointExtension>
        </extensions>
      </trkpt>
      <trkpt lat="42.53154217265546321868896484375" lon="19.76522429846227169036865234375">
        <ele>1638</ele>
        <time>2026-06-18T08:27:50.000Z</time>
        <extensions>
          <ns3:TrackPointExtension>
            <ns3:atemp>23.0</ns3:atemp>
          </ns3:TrackPointExtension>
        </extensions>
      </trkpt>
      <trkpt lat="42.53152624703943729400634765625" lon="19.76520904339849948883056640625">
        <ele>1638.4000244140625</ele>
        <time>2026-06-18T08:27:51.000Z</time>
        <extensions>
          <ns3:TrackPointExtension>
            <ns3:atemp>23.0</ns3:atemp>
          </ns3:TrackPointExtension>
        </extensions>
      </trkpt>
      <trkpt lat="42.53151199780404567718505859375" lon="19.76519999094307422637939453125">
        <ele>1638.5999755859375</ele>
        <time>2026-06-18T08:27:52.000Z</time>
        <extensions>
          <ns3:TrackPointExtension>
            <ns3:atemp>23.0</ns3:atemp>
          </ns3:TrackPointExtension>
        </extensions>
      </trkpt>
      <trkpt lat="42.53149540163576602935791015625" lon="19.76518792100250720977783203125">
        <ele>1638.800048828125</ele>
        <time>2026-06-18T08:27:53.000Z</time>
        <extensions>
          <ns3:TrackPointExtension>
            <ns3:atemp>23.0</ns3:atemp>
          </ns3:TrackPointExtension>
        </extensions>
      </trkpt>
      <trkpt lat="42.53147914074361324310302734375" lon="19.7651752643287181854248046875">
        <ele>1639.199951171875</ele>
        <time>2026-06-18T08:27:54.000Z</time>
        <extensions>
          <ns3:TrackPointExtension>
            <ns3:atemp>23.0</ns3:atemp>
          </ns3:TrackPointExtension>
        </extensions>
      </trkpt>
      <trkpt lat="42.5314624607563018798828125" lon="19.765163362026214599609375">
        <ele>1639.4000244140625</ele>
        <time>2026-06-18T08:27:55.000Z</time>
        <extensions>
          <ns3:TrackPointExtension>
            <ns3:atemp>23.0</ns3:atemp>
          </ns3:TrackPointExtension>
        </extensions>
      </trkpt>
      <trkpt lat="42.531448714435100555419921875" lon="19.76514986716210842132568359375">
        <ele>1639.800048828125</ele>
        <time>2026-06-18T08:27:56.000Z</time>
        <extensions>
          <ns3:TrackPointExtension>
            <ns3:atemp>23.0</ns3:atemp>
          </ns3:TrackPointExtension>
        </extensions>
      </trkpt>
      <trkpt lat="42.53143404610455036163330078125" lon="19.76513494737446308135986328125">
        <ele>1640.199951171875</ele>
        <time>2026-06-18T08:27:57.000Z</time>
        <extensions>
          <ns3:TrackPointExtension>
            <ns3:atemp>23.0</ns3:atemp>
          </ns3:TrackPointExtension>
        </extensions>
      </trkpt>
      <trkpt lat="42.5314195454120635986328125" lon="19.7651244699954986572265625">
        <ele>1640.4000244140625</ele>
        <time>2026-06-18T08:27:58.000Z</time>
        <extensions>
          <ns3:TrackPointExtension>
            <ns3:atemp>23.0</ns3:atemp>
          </ns3:TrackPointExtension>
        </extensions>
      </trkpt>
      <trkpt lat="42.5314029492437839508056640625" lon="19.76510996930301189422607421875">
        <ele>1640.5999755859375</ele>
        <time>2026-06-18T08:27:59.000Z</time>
        <extensions>
          <ns3:TrackPointExtension>
            <ns3:atemp>23.0</ns3:atemp>
          </ns3:TrackPointExtension>
        </extensions>
      </trkpt>
      <trkpt lat="42.53138878382742404937744140625" lon="19.76509429514408111572265625">
        <ele>1640.800048828125</ele>
        <time>2026-06-18T08:28:00.000Z</time>
        <extensions>
          <ns3:TrackPointExtension>
            <ns3:atemp>23.0</ns3:atemp>
          </ns3:TrackPointExtension>
        </extensions>
      </trkpt>
      <trkpt lat="42.53137403167784214019775390625" lon="19.7650813870131969451904296875">
        <ele>1641</ele>
        <time>2026-06-18T08:28:01.000Z</time>
        <extensions>
          <ns3:TrackPointExtension>
            <ns3:atemp>23.0</ns3:atemp>
          </ns3:TrackPointExtension>
        </extensions>
      </trkpt>
      <trkpt lat="42.5313610397279262542724609375" lon="19.765069484710693359375">
        <ele>1641.199951171875</ele>
        <time>2026-06-18T08:28:02.000Z</time>
        <extensions>
          <ns3:TrackPointExtension>
            <ns3:atemp>23.0</ns3:atemp>
          </ns3:TrackPointExtension>
        </extensions>
      </trkpt>
      <trkpt lat="42.53134553320705890655517578125" lon="19.76505313999950885772705078125">
        <ele>1641.5999755859375</ele>
        <time>2026-06-18T08:28:03.000Z</time>
        <extensions>
          <ns3:TrackPointExtension>
            <ns3:atemp>23.0</ns3:atemp>
          </ns3:TrackPointExtension>
        </extensions>
      </trkpt>
      <trkpt lat="42.53133011050522327423095703125" lon="19.76503872312605381011962890625">
        <ele>1641.800048828125</ele>
        <time>2026-06-18T08:28:04.000Z</time>
        <extensions>
          <ns3:TrackPointExtension>
            <ns3:atemp>23.0</ns3:atemp>
          </ns3:TrackPointExtension>
        </extensions>
      </trkpt>
      <trkpt lat="42.531313598155975341796875" lon="19.7650252282619476318359375">
        <ele>1642</ele>
        <time>2026-06-18T08:28:05.000Z</time>
        <extensions>
          <ns3:TrackPointExtension>
            <ns3:atemp>23.0</ns3:atemp>
          </ns3:TrackPointExtension>
        </extensions>
      </trkpt>
      <trkpt lat="42.5312993489205837249755859375" lon="19.76501240395009517669677734375">
        <ele>1642.199951171875</ele>
        <time>2026-06-18T08:28:06.000Z</time>
        <extensions>
          <ns3:TrackPointExtension>
            <ns3:atemp>23.0</ns3:atemp>
          </ns3:TrackPointExtension>
        </extensions>
      </trkpt>
      <trkpt lat="42.53128501586616039276123046875" lon="19.76499983109533786773681640625">
        <ele>1642.5999755859375</ele>
        <time>2026-06-18T08:28:07.000Z</time>
        <extensions>
          <ns3:TrackPointExtension>
            <ns3:atemp>23.0</ns3:atemp>
          </ns3:TrackPointExtension>
        </extensions>
      </trkpt>
      <trkpt lat="42.531266994774341583251953125" lon="19.764988012611865997314453125">
        <ele>1643</ele>
        <time>2026-06-18T08:28:08.000Z</time>
        <extensions>
          <ns3:TrackPointExtension>
            <ns3:atemp>23.0</ns3:atemp>
          </ns3:TrackPointExtension>
        </extensions>
      </trkpt>
      <trkpt lat="42.531249560415744781494140625" lon="19.76497619412839412689208984375">
        <ele>1643.199951171875</ele>
        <time>2026-06-18T08:28:09.000Z</time>
        <extensions>
          <ns3:TrackPointExtension>
            <ns3:atemp>23.0</ns3:atemp>
          </ns3:TrackPointExtension>
        </extensions>
      </trkpt>
      <trkpt lat="42.531234137713909149169921875" lon="19.7649697400629520416259765625">
        <ele>1643.5999755859375</ele>
        <time>2026-06-18T08:28:10.000Z</time>
        <extensions>
          <ns3:TrackPointExtension>
            <ns3:atemp>23.0</ns3:atemp>
          </ns3:TrackPointExtension>
        </extensions>
      </trkpt>
      <trkpt lat="42.53121527843177318572998046875" lon="19.76496060378849506378173828125">
        <ele>1643.800048828125</ele>
        <time>2026-06-18T08:28:11.000Z</time>
        <extensions>
          <ns3:TrackPointExtension>
            <ns3:atemp>23.0</ns3:atemp>
          </ns3:TrackPointExtension>
        </extensions>
      </trkpt>
      <trkpt lat="42.5311957485973834991455078125" lon="19.76495205424726009368896484375">
        <ele>1644.199951171875</ele>
        <time>2026-06-18T08:28:12.000Z</time>
        <extensions>
          <ns3:TrackPointExtension>
            <ns3:atemp>23.0</ns3:atemp>
          </ns3:TrackPointExtension>
        </extensions>
      </trkpt>
      <trkpt lat="42.53117638640105724334716796875" lon="19.76494970731437206268310546875">
        <ele>1644.4000244140625</ele>
        <time>2026-06-18T08:28:13.000Z</time>
        <extensions>
          <ns3:TrackPointExtension>
            <ns3:atemp>23.0</ns3:atemp>
          </ns3:TrackPointExtension>
        </extensions>
      </trkpt>
      <trkpt lat="42.53116004168987274169921875" lon="19.7649474442005157470703125">
        <ele>1644.5999755859375</ele>
        <time>2026-06-18T08:28:14.000Z</time>
        <extensions>
          <ns3:TrackPointExtension>
            <ns3:atemp>23.0</ns3:atemp>
          </ns3:TrackPointExtension>
        </extensions>
      </trkpt>
      <trkpt lat="42.53114503808319568634033203125" lon="19.76494551636278629302978515625">
        <ele>1645</ele>
        <time>2026-06-18T08:28:15.000Z</time>
        <extensions>
          <ns3:TrackPointExtension>
            <ns3:atemp>23.0</ns3:atemp>
          </ns3:TrackPointExtension>
        </extensions>
      </trkpt>
      <trkpt lat="42.531130872666835784912109375" lon="19.7649459354579448699951171875">
        <ele>1645.199951171875</ele>
        <time>2026-06-18T08:28:16.000Z</time>
        <extensions>
          <ns3:TrackPointExtension>
            <ns3:atemp>23.0</ns3:atemp>
          </ns3:TrackPointExtension>
        </extensions>
      </trkpt>
      <trkpt lat="42.53111846745014190673828125" lon="19.76494451053440570831298828125">
        <ele>1645.4000244140625</ele>
        <time>2026-06-18T08:28:17.000Z</time>
        <extensions>
          <ns3:TrackPointExtension>
            <ns3:atemp>23.0</ns3:atemp>
          </ns3:TrackPointExtension>
        </extensions>
      </trkpt>
      <trkpt lat="42.53110245801508426666259765625" lon="19.7649419121444225311279296875">
        <ele>1645.5999755859375</ele>
        <time>2026-06-18T08:28:18.000Z</time>
        <extensions>
          <ns3:TrackPointExtension>
            <ns3:atemp>23.0</ns3:atemp>
          </ns3:TrackPointExtension>
        </extensions>
      </trkpt>
      <trkpt lat="42.53108225762844085693359375" lon="19.76494434289634227752685546875">
        <ele>1645.800048828125</ele>
        <time>2026-06-18T08:28:19.000Z</time>
        <extensions>
          <ns3:TrackPointExtension>
            <ns3:atemp>23.0</ns3:atemp>
          </ns3:TrackPointExtension>
        </extensions>
      </trkpt>
      <trkpt lat="42.531063146889209747314453125" lon="19.76494836620986461639404296875">
        <ele>1645.800048828125</ele>
        <time>2026-06-18T08:28:20.000Z</time>
        <extensions>
          <ns3:TrackPointExtension>
            <ns3:atemp>23.0</ns3:atemp>
          </ns3:TrackPointExtension>
        </extensions>
      </trkpt>
      <trkpt lat="42.53104512579739093780517578125" lon="19.7649563290178775787353515625">
        <ele>1646</ele>
        <time>2026-06-18T08:28:21.000Z</time>
        <extensions>
          <ns3:TrackPointExtension>
            <ns3:atemp>23.0</ns3:atemp>
          </ns3:TrackPointExtension>
        </extensions>
      </trkpt>
      <trkpt lat="42.53102500922977924346923828125" lon="19.76495842449367046356201171875">
        <ele>1646.199951171875</ele>
        <time>2026-06-18T08:28:22.000Z</time>
        <extensions>
          <ns3:TrackPointExtension>
            <ns3:atemp>23.0</ns3:atemp>
          </ns3:TrackPointExtension>
        </extensions>
      </trkpt>
      <trkpt lat="42.53100589849054813385009765625" lon="19.76495892740786075592041015625">
        <ele>1646.4000244140625</ele>
        <time>2026-06-18T08:28:23.000Z</time>
        <extensions>
          <ns3:TrackPointExtension>
            <ns3:atemp>23.0</ns3:atemp>
          </ns3:TrackPointExtension>
        </extensions>
      </trkpt>
      <trkpt lat="42.53098812885582447052001953125" lon="19.7649539820849895477294921875">
        <ele>1646.5999755859375</ele>
        <time>2026-06-18T08:28:24.000Z</time>
        <extensions>
          <ns3:TrackPointExtension>
            <ns3:atemp>23.0</ns3:atemp>
          </ns3:TrackPointExtension>
        </extensions>
      </trkpt>
      <trkpt lat="42.53096767701208591461181640625" lon="19.7649546526372432708740234375">
        <ele>1646.800048828125</ele>
        <time>2026-06-18T08:28:25.000Z</time>
        <extensions>
          <ns3:TrackPointExtension>
            <ns3:atemp>23.0</ns3:atemp>
          </ns3:TrackPointExtension>
        </extensions>
      </trkpt>
      <trkpt lat="42.53095124848186969757080078125" lon="19.7649600170552730560302734375">
        <ele>1646.800048828125</ele>
        <time>2026-06-18T08:28:26.000Z</time>
        <extensions>
          <ns3:TrackPointExtension>
            <ns3:atemp>23.0</ns3:atemp>
          </ns3:TrackPointExtension>
        </extensions>
      </trkpt>
      <trkpt lat="42.53093398176133632659912109375" lon="19.76495859213173389434814453125">
        <ele>1646.800048828125</ele>
        <time>2026-06-18T08:28:27.000Z</time>
        <extensions>
          <ns3:TrackPointExtension>
            <ns3:atemp>23.0</ns3:atemp>
          </ns3:TrackPointExtension>
        </extensions>
      </trkpt>
      <trkpt lat="42.53091730177402496337890625" lon="19.76495892740786075592041015625">
        <ele>1647</ele>
        <time>2026-06-18T08:28:28.000Z</time>
        <extensions>
          <ns3:TrackPointExtension>
            <ns3:atemp>23.0</ns3:atemp>
          </ns3:TrackPointExtension>
        </extensions>
      </trkpt>
      <trkpt lat="42.5308991968631744384765625" lon="19.7649566642940044403076171875">
        <ele>1647</ele>
        <time>2026-06-18T08:28:29.000Z</time>
        <extensions>
          <ns3:TrackPointExtension>
            <ns3:atemp>23.0</ns3:atemp>
          </ns3:TrackPointExtension>
        </extensions>
      </trkpt>
      <trkpt lat="42.53088167868554592132568359375" lon="19.76494945585727691650390625">
        <ele>1647</ele>
        <time>2026-06-18T08:28:30.000Z</time>
        <extensions>
          <ns3:TrackPointExtension>
            <ns3:atemp>23.0</ns3:atemp>
          </ns3:TrackPointExtension>
        </extensions>
      </trkpt>
      <trkpt lat="42.5308621488511562347412109375" lon="19.76494786329567432403564453125">
        <ele>1647.199951171875</ele>
        <time>2026-06-18T08:28:31.000Z</time>
        <extensions>
          <ns3:TrackPointExtension>
            <ns3:atemp>23.0</ns3:atemp>
          </ns3:TrackPointExtension>
        </extensions>
      </trkpt>
      <trkpt lat="42.5308416970074176788330078125" lon="19.7649472765624523162841796875">
        <ele>1647.4000244140625</ele>
        <time>2026-06-18T08:28:32.000Z</time>
        <extensions>
          <ns3:TrackPointExtension>
            <ns3:atemp>23.0</ns3:atemp>
          </ns3:TrackPointExtension>
        </extensions>
      </trkpt>
      <trkpt lat="42.530820071697235107421875" lon="19.7649476118385791778564453125">
        <ele>1647.5999755859375</ele>
        <time>2026-06-18T08:28:33.000Z</time>
        <extensions>
          <ns3:TrackPointExtension>
            <ns3:atemp>23.0</ns3:atemp>
          </ns3:TrackPointExtension>
        </extensions>
      </trkpt>
      <trkpt lat="42.53080070950090885162353515625" lon="19.76494082249701023101806640625">
        <ele>1648</ele>
        <time>2026-06-18T08:28:34.000Z</time>
        <extensions>
          <ns3:TrackPointExtension>
            <ns3:atemp>23.0</ns3:atemp>
          </ns3:TrackPointExtension>
        </extensions>
      </trkpt>
      <trkpt lat="42.53078176639974117279052734375" lon="19.7649388946592807769775390625">
        <ele>1648.199951171875</ele>
        <time>2026-06-18T08:28:35.000Z</time>
        <extensions>
          <ns3:TrackPointExtension>
            <ns3:atemp>23.0</ns3:atemp>
          </ns3:TrackPointExtension>
        </extensions>
      </trkpt>
      <trkpt lat="42.530763410031795501708984375" lon="19.7649362124502658843994140625">
        <ele>1648.4000244140625</ele>
        <time>2026-06-18T08:28:36.000Z</time>
        <extensions>
          <ns3:TrackPointExtension>
            <ns3:atemp>23.0</ns3:atemp>
          </ns3:TrackPointExtension>
        </extensions>
      </trkpt>
      <trkpt lat="42.530745975673198699951171875" lon="19.76492992602288722991943359375">
        <ele>1648.5999755859375</ele>
        <time>2026-06-18T08:28:37.000Z</time>
        <extensions>
          <ns3:TrackPointExtension>
            <ns3:atemp>23.0</ns3:atemp>
          </ns3:TrackPointExtension>
        </extensions>
      </trkpt>
      <trkpt lat="42.53072661347687244415283203125" lon="19.7649221308529376983642578125">
        <ele>1648.800048828125</ele>
        <time>2026-06-18T08:28:38.000Z</time>
        <extensions>
          <ns3:TrackPointExtension>
            <ns3:atemp>23.0</ns3:atemp>
          </ns3:TrackPointExtension>
        </extensions>
      </trkpt>
      <trkpt lat="42.53071068786084651947021484375" lon="19.76490662433207035064697265625">
        <ele>1649</ele>
        <time>2026-06-18T08:28:39.000Z</time>
        <extensions>
          <ns3:TrackPointExtension>
            <ns3:atemp>23.0</ns3:atemp>
          </ns3:TrackPointExtension>
        </extensions>
      </trkpt>
      <trkpt lat="42.53069476224482059478759765625" lon="19.76489723660051822662353515625">
        <ele>1649.199951171875</ele>
        <time>2026-06-18T08:28:40.000Z</time>
        <extensions>
          <ns3:TrackPointExtension>
            <ns3:atemp>23.0</ns3:atemp>
          </ns3:TrackPointExtension>
        </extensions>
      </trkpt>
      <trkpt lat="42.53067883662879467010498046875" lon="19.76488650776445865631103515625">
        <ele>1649.4000244140625</ele>
        <time>2026-06-18T08:28:41.000Z</time>
        <extensions>
          <ns3:TrackPointExtension>
            <ns3:atemp>23.0</ns3:atemp>
          </ns3:TrackPointExtension>
        </extensions>
      </trkpt>
      <trkpt lat="42.5306559540331363677978515625" lon="19.76487276144325733184814453125">
        <ele>1649.4000244140625</ele>
        <time>2026-06-18T08:28:42.000Z</time>
        <extensions>
          <ns3:TrackPointExtension>
            <ns3:atemp>23.0</ns3:atemp>
          </ns3:TrackPointExtension>
        </extensions>
      </trkpt>
      <trkpt lat="42.53064111806452274322509765625" lon="19.76486320607364177703857421875">
        <ele>1649.5999755859375</ele>
        <time>2026-06-18T08:28:43.000Z</time>
        <extensions>
          <ns3:TrackPointExtension>
            <ns3:atemp>23.0</ns3:atemp>
          </ns3:TrackPointExtension>
        </extensions>
      </trkpt>
      <trkpt lat="42.53062586300075054168701171875" lon="19.76485348306596279144287109375">
        <ele>1649.800048828125</ele>
        <time>2026-06-18T08:28:44.000Z</time>
        <extensions>
          <ns3:TrackPointExtension>
            <ns3:atemp>23.0</ns3:atemp>
          </ns3:TrackPointExtension>
        </extensions>
      </trkpt>
      <trkpt lat="42.53061555325984954833984375" lon="19.7648401558399200439453125">
        <ele>1650.199951171875</ele>
        <time>2026-06-18T08:28:45.000Z</time>
        <extensions>
          <ns3:TrackPointExtension>
            <ns3:atemp>23.0</ns3:atemp>
          </ns3:TrackPointExtension>
        </extensions>
      </trkpt>
      <trkpt lat="42.5306026451289653778076171875" lon="19.76482850499451160430908203125">
        <ele>1650.5999755859375</ele>
        <time>2026-06-18T08:28:46.000Z</time>
        <extensions>
          <ns3:TrackPointExtension>
            <ns3:atemp>23.0</ns3:atemp>
          </ns3:TrackPointExtension>
        </extensions>
      </trkpt>
      <trkpt lat="42.530589401721954345703125" lon="19.76481710560619831085205078125">
        <ele>1650.800048828125</ele>
        <time>2026-06-18T08:28:47.000Z</time>
        <extensions>
          <ns3:TrackPointExtension>
            <ns3:atemp>23.0</ns3:atemp>
          </ns3:TrackPointExtension>
        </extensions>
      </trkpt>
      <trkpt lat="42.53057666122913360595703125" lon="19.7648024372756481170654296875">
        <ele>1651</ele>
        <time>2026-06-18T08:28:48.000Z</time>
        <extensions>
          <ns3:TrackPointExtension>
            <ns3:atemp>23.0</ns3:atemp>
          </ns3:TrackPointExtension>
        </extensions>
      </trkpt>
      <trkpt lat="42.53056484274566173553466796875" lon="19.7647865116596221923828125">
        <ele>1651.199951171875</ele>
        <time>2026-06-18T08:28:49.000Z</time>
        <extensions>
          <ns3:TrackPointExtension>
            <ns3:atemp>23.0</ns3:atemp>
          </ns3:TrackPointExtension>
        </extensions>
      </trkpt>
      <trkpt lat="42.5305479951202869415283203125" lon="19.764770753681659698486328125">
        <ele>1651.5999755859375</ele>
        <time>2026-06-18T08:28:50.000Z</time>
        <extensions>
          <ns3:TrackPointExtension>
            <ns3:atemp>23.0</ns3:atemp>
          </ns3:TrackPointExtension>
        </extensions>
      </trkpt>
      <trkpt lat="42.53052729181945323944091796875" lon="19.76475675590336322784423828125">
        <ele>1651.800048828125</ele>
        <time>2026-06-18T08:28:51.000Z</time>
        <extensions>
          <ns3:TrackPointExtension>
            <ns3:atemp>23.0</ns3:atemp>
          </ns3:TrackPointExtension>
        </extensions>
      </trkpt>
      <trkpt lat="42.53051094710826873779296875" lon="19.7647417522966861724853515625">
        <ele>1652.199951171875</ele>
        <time>2026-06-18T08:28:52.000Z</time>
        <extensions>
          <ns3:TrackPointExtension>
            <ns3:atemp>23.0</ns3:atemp>
          </ns3:TrackPointExtension>
        </extensions>
      </trkpt>
      <trkpt lat="42.53049694932997226715087890625" lon="19.7647280059754848480224609375">
        <ele>1652.5999755859375</ele>
        <time>2026-06-18T08:28:53.000Z</time>
        <extensions>
          <ns3:TrackPointExtension>
            <ns3:atemp>23.0</ns3:atemp>
          </ns3:TrackPointExtension>
        </extensions>
      </trkpt>
      <trkpt lat="42.53048085607588291168212890625" lon="19.76471333764493465423583984375">
        <ele>1653</ele>
        <time>2026-06-18T08:28:54.000Z</time>
        <extensions>
          <ns3:TrackPointExtension>
            <ns3:atemp>23.0</ns3:atemp>
          </ns3:TrackPointExtension>
        </extensions>
      </trkpt>
      <trkpt lat="42.53046534955501556396484375" lon="19.7646979987621307373046875">
        <ele>1653.4000244140625</ele>
        <time>2026-06-18T08:28:55.000Z</time>
        <extensions>
          <ns3:TrackPointExtension>
            <ns3:atemp>23.0</ns3:atemp>
          </ns3:TrackPointExtension>
        </extensions>
      </trkpt>
      <trkpt lat="42.530450932681560516357421875" lon="19.76468198932707309722900390625">
        <ele>1653.800048828125</ele>
        <time>2026-06-18T08:28:56.000Z</time>
        <extensions>
          <ns3:TrackPointExtension>
            <ns3:atemp>23.0</ns3:atemp>
          </ns3:TrackPointExtension>
        </extensions>
      </trkpt>
      <trkpt lat="42.53043626435101032257080078125" lon="19.7646663151681423187255859375">
        <ele>1654.199951171875</ele>
        <time>2026-06-18T08:28:57.000Z</time>
        <extensions>
          <ns3:TrackPointExtension>
            <ns3:atemp>23.0</ns3:atemp>
          </ns3:TrackPointExtension>
        </extensions>
      </trkpt>
      <trkpt lat="42.5304244458675384521484375" lon="19.76464678533375263214111328125">
        <ele>1654.4000244140625</ele>
        <time>2026-06-18T08:28:58.000Z</time>
        <extensions>
          <ns3:TrackPointExtension>
            <ns3:atemp>23.0</ns3:atemp>
          </ns3:TrackPointExtension>
        </extensions>
      </trkpt>
      <trkpt lat="42.53041229210793972015380859375" lon="19.76462532766163349151611328125">
        <ele>1654.800048828125</ele>
        <time>2026-06-18T08:28:59.000Z</time>
        <extensions>
          <ns3:TrackPointExtension>
            <ns3:atemp>23.0</ns3:atemp>
          </ns3:TrackPointExtension>
        </extensions>
      </trkpt>
      <trkpt lat="42.5303998030722141265869140625" lon="19.76460621692240238189697265625">
        <ele>1655.199951171875</ele>
        <time>2026-06-18T08:29:00.000Z</time>
        <extensions>
          <ns3:TrackPointExtension>
            <ns3:atemp>23.0</ns3:atemp>
          </ns3:TrackPointExtension>
        </extensions>
      </trkpt>
      <trkpt lat="42.5303868949413299560546875" lon="19.7645866870880126953125">
        <ele>1655.5999755859375</ele>
        <time>2026-06-18T08:29:01.000Z</time>
        <extensions>
          <ns3:TrackPointExtension>
            <ns3:atemp>23.0</ns3:atemp>
          </ns3:TrackPointExtension>
        </extensions>
      </trkpt>
      <trkpt lat="42.5303810276091098785400390625" lon="19.76456179283559322357177734375">
        <ele>1655.800048828125</ele>
        <time>2026-06-18T08:29:02.000Z</time>
        <extensions>
          <ns3:TrackPointExtension>
            <ns3:atemp>23.0</ns3:atemp>
          </ns3:TrackPointExtension>
        </extensions>
      </trkpt>
      <trkpt lat="42.53037373535335063934326171875" lon="19.76453681476414203643798828125">
        <ele>1656.199951171875</ele>
        <time>2026-06-18T08:29:03.000Z</time>
        <extensions>
          <ns3:TrackPointExtension>
            <ns3:atemp>23.0</ns3:atemp>
          </ns3:TrackPointExtension>
        </extensions>
      </trkpt>
      <trkpt lat="42.53036149777472019195556640625" lon="19.76451770402491092681884765625">
        <ele>1656.5999755859375</ele>
        <time>2026-06-18T08:29:04.000Z</time>
        <extensions>
          <ns3:TrackPointExtension>
            <ns3:atemp>23.0</ns3:atemp>
          </ns3:TrackPointExtension>
        </extensions>
      </trkpt>
      <trkpt lat="42.5303521938621997833251953125" lon="19.7644993476569652557373046875">
        <ele>1657</ele>
        <time>2026-06-18T08:29:05.000Z</time>
        <extensions>
          <ns3:TrackPointExtension>
            <ns3:atemp>23.0</ns3:atemp>
          </ns3:TrackPointExtension>
        </extensions>
      </trkpt>
      <trkpt lat="42.5303451530635356903076171875" lon="19.7644778899848461151123046875">
        <ele>1657.5999755859375</ele>
        <time>2026-06-18T08:29:06.000Z</time>
        <extensions>
          <ns3:TrackPointExtension>
            <ns3:atemp>23.0</ns3:atemp>
          </ns3:TrackPointExtension>
        </extensions>
      </trkpt>
      <trkpt lat="42.530340291559696197509765625" lon="19.76445249281823635101318359375">
        <ele>1657.800048828125</ele>
        <time>2026-06-18T08:29:07.000Z</time>
        <extensions>
          <ns3:TrackPointExtension>
            <ns3:atemp>23.0</ns3:atemp>
          </ns3:TrackPointExtension>
        </extensions>
      </trkpt>
      <trkpt lat="42.53033132292330265045166015625" lon="19.76442835293710231781005859375">
        <ele>1658.199951171875</ele>
        <time>2026-06-18T08:29:08.000Z</time>
        <extensions>
          <ns3:TrackPointExtension>
            <ns3:atemp>23.0</ns3:atemp>
          </ns3:TrackPointExtension>
        </extensions>
      </trkpt>
      <trkpt lat="42.5303252041339874267578125" lon="19.764401279389858245849609375">
        <ele>1658.5999755859375</ele>
        <time>2026-06-18T08:29:09.000Z</time>
        <extensions>
          <ns3:TrackPointExtension>
            <ns3:atemp>23.0</ns3:atemp>
          </ns3:TrackPointExtension>
        </extensions>
      </trkpt>
      <trkpt lat="42.53031891770660877227783203125" lon="19.76437537930905818939208984375">
        <ele>1658.800048828125</ele>
        <time>2026-06-18T08:29:10.000Z</time>
        <extensions>
          <ns3:TrackPointExtension>
            <ns3:atemp>23.0</ns3:atemp>
          </ns3:TrackPointExtension>
        </extensions>
      </trkpt>
      <trkpt lat="42.53031154163181781768798828125" lon="19.764357693493366241455078125">
        <ele>1659.199951171875</ele>
        <time>2026-06-18T08:29:11.000Z</time>
        <extensions>
          <ns3:TrackPointExtension>
            <ns3:atemp>23.0</ns3:atemp>
          </ns3:TrackPointExtension>
        </extensions>
      </trkpt>
      <trkpt lat="42.5303008966147899627685546875" lon="19.76433397270739078521728515625">
        <ele>1659.4000244140625</ele>
        <time>2026-06-18T08:29:12.000Z</time>
        <extensions>
          <ns3:TrackPointExtension>
            <ns3:atemp>23.0</ns3:atemp>
          </ns3:TrackPointExtension>
        </extensions>
      </trkpt>
      <trkpt lat="42.530292011797428131103515625" lon="19.76430664770305156707763671875">
        <ele>1659.5999755859375</ele>
        <time>2026-06-18T08:29:13.000Z</time>
        <extensions>
          <ns3:TrackPointExtension>
            <ns3:atemp>23.0</ns3:atemp>
          </ns3:TrackPointExtension>
        </extensions>
      </trkpt>
      <trkpt lat="42.530282624065876007080078125" lon="19.7642841003835201263427734375">
        <ele>1659.800048828125</ele>
        <time>2026-06-18T08:29:14.000Z</time>
        <extensions>
          <ns3:TrackPointExtension>
            <ns3:atemp>23.0</ns3:atemp>
          </ns3:TrackPointExtension>
        </extensions>
      </trkpt>
      <trkpt lat="42.530269213020801544189453125" lon="19.76426322944462299346923828125">
        <ele>1660</ele>
        <time>2026-06-18T08:29:15.000Z</time>
        <extensions>
          <ns3:TrackPointExtension>
            <ns3:atemp>23.0</ns3:atemp>
          </ns3:TrackPointExtension>
        </extensions>
      </trkpt>
      <trkpt lat="42.5302583165466785430908203125" lon="19.76423867046833038330078125">
        <ele>1660.4000244140625</ele>
        <time>2026-06-18T08:29:16.000Z</time>
        <extensions>
          <ns3:TrackPointExtension>
            <ns3:atemp>23.0</ns3:atemp>
          </ns3:TrackPointExtension>
        </extensions>
      </trkpt>
      <trkpt lat="42.53025270067155361175537109375" lon="19.76421654224395751953125">
        <ele>1660.5999755859375</ele>
        <time>2026-06-18T08:29:17.000Z</time>
        <extensions>
          <ns3:TrackPointExtension>
            <ns3:atemp>23.0</ns3:atemp>
          </ns3:TrackPointExtension>
        </extensions>
      </trkpt>
      <trkpt lat="42.53024046309292316436767578125" lon="19.7641964256763458251953125">
        <ele>1661</ele>
        <time>2026-06-18T08:29:18.000Z</time>
        <extensions>
          <ns3:TrackPointExtension>
            <ns3:atemp>23.0</ns3:atemp>
          </ns3:TrackPointExtension>
        </extensions>
      </trkpt>
      <trkpt lat="42.530229650437831878662109375" lon="19.7641748003661632537841796875">
        <ele>1661.4000244140625</ele>
        <time>2026-06-18T08:29:19.000Z</time>
        <extensions>
          <ns3:TrackPointExtension>
            <ns3:atemp>23.0</ns3:atemp>
          </ns3:TrackPointExtension>
        </extensions>
      </trkpt>
      <trkpt lat="42.53021649084985256195068359375" lon="19.7641556896269321441650390625">
        <ele>1661.5999755859375</ele>
        <time>2026-06-18T08:29:20.000Z</time>
        <extensions>
          <ns3:TrackPointExtension>
            <ns3:atemp>23.0</ns3:atemp>
          </ns3:TrackPointExtension>
        </extensions>
      </trkpt>
      <trkpt lat="42.53020475618541240692138671875" lon="19.7641374170780181884765625">
        <ele>1662</ele>
        <time>2026-06-18T08:29:21.000Z</time>
        <extensions>
          <ns3:TrackPointExtension>
            <ns3:atemp>23.0</ns3:atemp>
          </ns3:TrackPointExtension>
        </extensions>
      </trkpt>
      <trkpt lat="42.5301875732839107513427734375" lon="19.76411973126232624053955078125">
        <ele>1662.199951171875</ele>
        <time>2026-06-18T08:29:22.000Z</time>
        <extensions>
          <ns3:TrackPointExtension>
            <ns3:atemp>23.0</ns3:atemp>
          </ns3:TrackPointExtension>
        </extensions>
      </trkpt>
      <trkpt lat="42.5301714800298213958740234375" lon="19.7641033865511417388916015625">
        <ele>1662.4000244140625</ele>
        <time>2026-06-18T08:29:23.000Z</time>
        <extensions>
          <ns3:TrackPointExtension>
            <ns3:atemp>23.0</ns3:atemp>
          </ns3:TrackPointExtension>
        </extensions>
      </trkpt>
      <trkpt lat="42.530154883861541748046875" lon="19.7640916518867015838623046875">
        <ele>1662.800048828125</ele>
        <time>2026-06-18T08:29:24.000Z</time>
        <extensions>
          <ns3:TrackPointExtension>
            <ns3:atemp>23.0</ns3:atemp>
          </ns3:TrackPointExtension>
        </extensions>
      </trkpt>
      <trkpt lat="42.5301374495029449462890625" lon="19.7640836052596569061279296875">
        <ele>1662.800048828125</ele>
        <time>2026-06-18T08:29:25.000Z</time>
        <extensions>
          <ns3:TrackPointExtension>
            <ns3:atemp>23.0</ns3:atemp>
          </ns3:TrackPointExtension>
        </extensions>
      </trkpt>
      <trkpt lat="42.53012026660144329071044921875" lon="19.7640792466700077056884765625">
        <ele>1663</ele>
        <time>2026-06-18T08:29:26.000Z</time>
        <extensions>
          <ns3:TrackPointExtension>
            <ns3:atemp>23.0</ns3:atemp>
          </ns3:TrackPointExtension>
        </extensions>
      </trkpt>
      <trkpt lat="42.53010115586221218109130859375" lon="19.76407765410840511322021484375">
        <ele>1663.199951171875</ele>
        <time>2026-06-18T08:29:27.000Z</time>
        <extensions>
          <ns3:TrackPointExtension>
            <ns3:atemp>23.0</ns3:atemp>
          </ns3:TrackPointExtension>
        </extensions>
      </trkpt>
      <trkpt lat="42.53008154220879077911376953125" lon="19.76407681591808795928955078125">
        <ele>1663.4000244140625</ele>
        <time>2026-06-18T08:29:28.000Z</time>
        <extensions>
          <ns3:TrackPointExtension>
            <ns3:atemp>23.0</ns3:atemp>
          </ns3:TrackPointExtension>
        </extensions>
      </trkpt>
      <trkpt lat="42.530061341822147369384765625" lon="19.76408419199287891387939453125">
        <ele>1663.5999755859375</ele>
        <time>2026-06-18T08:29:29.000Z</time>
        <extensions>
          <ns3:TrackPointExtension>
            <ns3:atemp>23.0</ns3:atemp>
          </ns3:TrackPointExtension>
        </extensions>
      </trkpt>
      <trkpt lat="42.53004156053066253662109375" lon="19.764091484248638153076171875">
        <ele>1663.800048828125</ele>
        <time>2026-06-18T08:29:30.000Z</time>
        <extensions>
          <ns3:TrackPointExtension>
            <ns3:atemp>23.0</ns3:atemp>
          </ns3:TrackPointExtension>
        </extensions>
      </trkpt>
      <trkpt lat="42.53002680838108062744140625" lon="19.76409927941858768463134765625">
        <ele>1664</ele>
        <time>2026-06-18T08:29:31.000Z</time>
        <extensions>
          <ns3:TrackPointExtension>
            <ns3:atemp>23.0</ns3:atemp>
          </ns3:TrackPointExtension>
        </extensions>
      </trkpt>
      <trkpt lat="42.5300085358321666717529296875" lon="19.7641087509691715240478515625">
        <ele>1664.199951171875</ele>
        <time>2026-06-18T08:29:32.000Z</time>
        <extensions>
          <ns3:TrackPointExtension>
            <ns3:atemp>23.0</ns3:atemp>
          </ns3:TrackPointExtension>
        </extensions>
      </trkpt>
      <trkpt lat="42.52999101765453815460205078125" lon="19.7641151212155818939208984375">
        <ele>1664.4000244140625</ele>
        <time>2026-06-18T08:29:33.000Z</time>
        <extensions>
          <ns3:TrackPointExtension>
            <ns3:atemp>23.0</ns3:atemp>
          </ns3:TrackPointExtension>
        </extensions>
      </trkpt>
      <trkpt lat="42.52997257746756076812744140625" lon="19.764122329652309417724609375">
        <ele>1664.5999755859375</ele>
        <time>2026-06-18T08:29:34.000Z</time>
        <extensions>
          <ns3:TrackPointExtension>
            <ns3:atemp>23.0</ns3:atemp>
          </ns3:TrackPointExtension>
        </extensions>
      </trkpt>
      <trkpt lat="42.529954724013805389404296875" lon="19.764135070145130157470703125">
        <ele>1664.800048828125</ele>
        <time>2026-06-18T08:29:35.000Z</time>
        <extensions>
          <ns3:TrackPointExtension>
            <ns3:atemp>23.0</ns3:atemp>
          </ns3:TrackPointExtension>
        </extensions>
      </trkpt>
      <trkpt lat="42.52993552945554256439208984375" lon="19.76415242068469524383544921875">
        <ele>1665.199951171875</ele>
        <time>2026-06-18T08:29:36.000Z</time>
        <extensions>
          <ns3:TrackPointExtension>
            <ns3:atemp>23.0</ns3:atemp>
          </ns3:TrackPointExtension>
        </extensions>
      </trkpt>
      <trkpt lat="42.5299149937927722930908203125" lon="19.764173962175846099853515625">
        <ele>1665.4000244140625</ele>
        <time>2026-06-18T08:29:37.000Z</time>
        <extensions>
          <ns3:TrackPointExtension>
            <ns3:atemp>23.0</ns3:atemp>
          </ns3:TrackPointExtension>
        </extensions>
      </trkpt>
      <trkpt lat="42.52989630214869976043701171875" lon="19.76419416256248950958251953125">
        <ele>1665.800048828125</ele>
        <time>2026-06-18T08:29:38.000Z</time>
        <extensions>
          <ns3:TrackPointExtension>
            <ns3:atemp>23.0</ns3:atemp>
          </ns3:TrackPointExtension>
        </extensions>
      </trkpt>
      <trkpt lat="42.5298794545233249664306640625" lon="19.7642056457698345184326171875">
        <ele>1666</ele>
        <time>2026-06-18T08:29:39.000Z</time>
        <extensions>
          <ns3:TrackPointExtension>
            <ns3:atemp>23.0</ns3:atemp>
          </ns3:TrackPointExtension>
        </extensions>
      </trkpt>
      <trkpt lat="42.52986210398375988006591796875" lon="19.76421545259654521942138671875">
        <ele>1666.4000244140625</ele>
        <time>2026-06-18T08:29:40.000Z</time>
        <extensions>
          <ns3:TrackPointExtension>
            <ns3:atemp>23.0</ns3:atemp>
          </ns3:TrackPointExtension>
        </extensions>
      </trkpt>
      <trkpt lat="42.52984299324452877044677734375" lon="19.7642331384122371673583984375">
        <ele>1666.5999755859375</ele>
        <time>2026-06-18T08:29:41.000Z</time>
        <extensions>
          <ns3:TrackPointExtension>
            <ns3:atemp>23.0</ns3:atemp>
          </ns3:TrackPointExtension>
        </extensions>
      </trkpt>
      <trkpt lat="42.52982941456139087677001953125" lon="19.7642589546740055084228515625">
        <ele>1666.800048828125</ele>
        <time>2026-06-18T08:29:42.000Z</time>
        <extensions>
          <ns3:TrackPointExtension>
            <ns3:atemp>23.0</ns3:atemp>
          </ns3:TrackPointExtension>
        </extensions>
      </trkpt>
      <trkpt lat="42.5298231281340122222900390625" lon="19.7642817534506320953369140625">
        <ele>1667</ele>
        <time>2026-06-18T08:29:43.000Z</time>
        <extensions>
          <ns3:TrackPointExtension>
            <ns3:atemp>23.0</ns3:atemp>
          </ns3:TrackPointExtension>
        </extensions>
      </trkpt>
      <trkpt lat="42.5298130698502063751220703125" lon="19.764304719865322113037109375">
        <ele>1667.199951171875</ele>
        <time>2026-06-18T08:29:44.000Z</time>
        <extensions>
          <ns3:TrackPointExtension>
            <ns3:atemp>23.0</ns3:atemp>
          </ns3:TrackPointExtension>
        </extensions>
      </trkpt>
      <trkpt lat="42.529805190861225128173828125" lon="19.76432844065129756927490234375">
        <ele>1667.4000244140625</ele>
        <time>2026-06-18T08:29:45.000Z</time>
        <extensions>
          <ns3:TrackPointExtension>
            <ns3:atemp>23.0</ns3:atemp>
          </ns3:TrackPointExtension>
        </extensions>
      </trkpt>
      <trkpt lat="42.52980276010930538177490234375" lon="19.7643546760082244873046875">
        <ele>1667.5999755859375</ele>
        <time>2026-06-18T08:29:46.000Z</time>
        <extensions>
          <ns3:TrackPointExtension>
            <ns3:atemp>23.0</ns3:atemp>
          </ns3:TrackPointExtension>
        </extensions>
      </trkpt>
      <trkpt lat="42.5297976471483707427978515625" lon="19.76437839679419994354248046875">
        <ele>1668</ele>
        <time>2026-06-18T08:29:47.000Z</time>
        <extensions>
          <ns3:TrackPointExtension>
            <ns3:atemp>23.0</ns3:atemp>
          </ns3:TrackPointExtension>
        </extensions>
      </trkpt>
      <trkpt lat="42.52979722805321216583251953125" lon="19.7644058056175708770751953125">
        <ele>1668.199951171875</ele>
        <time>2026-06-18T08:29:48.000Z</time>
        <extensions>
          <ns3:TrackPointExtension>
            <ns3:atemp>23.0</ns3:atemp>
          </ns3:TrackPointExtension>
        </extensions>
      </trkpt>
      <trkpt lat="42.52979840151965618133544921875" lon="19.76443438790738582611083984375">
        <ele>1668.4000244140625</ele>
        <time>2026-06-18T08:29:49.000Z</time>
        <extensions>
          <ns3:TrackPointExtension>
            <ns3:atemp>23.0</ns3:atemp>
          </ns3:TrackPointExtension>
        </extensions>
      </trkpt>
      <trkpt lat="42.529797814786434173583984375" lon="19.7644614614546298980712890625">
        <ele>1668.5999755859375</ele>
        <time>2026-06-18T08:29:50.000Z</time>
        <extensions>
          <ns3:TrackPointExtension>
            <ns3:atemp>23.0</ns3:atemp>
          </ns3:TrackPointExtension>
        </extensions>
      </trkpt>
      <trkpt lat="42.5297936238348484039306640625" lon="19.76448736153542995452880859375">
        <ele>1668.800048828125</ele>
        <time>2026-06-18T08:29:51.000Z</time>
        <extensions>
          <ns3:TrackPointExtension>
            <ns3:atemp>23.0</ns3:atemp>
          </ns3:TrackPointExtension>
        </extensions>
      </trkpt>
      <trkpt lat="42.52979278564453125" lon="19.76451686583459377288818359375">
        <ele>1669</ele>
        <time>2026-06-18T08:29:52.000Z</time>
        <extensions>
          <ns3:TrackPointExtension>
            <ns3:atemp>23.0</ns3:atemp>
          </ns3:TrackPointExtension>
        </extensions>
      </trkpt>
      <trkpt lat="42.52979085780680179595947265625" lon="19.76453916169703006744384765625">
        <ele>1669.4000244140625</ele>
        <time>2026-06-18T08:29:53.000Z</time>
        <extensions>
          <ns3:TrackPointExtension>
            <ns3:atemp>23.0</ns3:atemp>
          </ns3:TrackPointExtension>
        </extensions>
      </trkpt>
      <trkpt lat="42.52978281117975711822509765625" lon="19.76455978117883205413818359375">
        <ele>1669.5999755859375</ele>
        <time>2026-06-18T08:29:54.000Z</time>
        <extensions>
          <ns3:TrackPointExtension>
            <ns3:atemp>23.0</ns3:atemp>
          </ns3:TrackPointExtension>
        </extensions>
      </trkpt>
      <trkpt lat="42.5297714956104755401611328125" lon="19.7645831666886806488037109375">
        <ele>1670</ele>
        <time>2026-06-18T08:29:55.000Z</time>
        <extensions>
          <ns3:TrackPointExtension>
            <ns3:atemp>23.0</ns3:atemp>
          </ns3:TrackPointExtension>
        </extensions>
      </trkpt>
      <trkpt lat="42.52975749783217906951904296875" lon="19.76460671983659267425537109375">
        <ele>1670.199951171875</ele>
        <time>2026-06-18T08:29:56.000Z</time>
        <extensions>
          <ns3:TrackPointExtension>
            <ns3:atemp>23.0</ns3:atemp>
          </ns3:TrackPointExtension>
        </extensions>
      </trkpt>
      <trkpt lat="42.52974450588226318359375" lon="19.7646331228315830230712890625">
        <ele>1670.5999755859375</ele>
        <time>2026-06-18T08:29:57.000Z</time>
        <extensions>
          <ns3:TrackPointExtension>
            <ns3:atemp>23.0</ns3:atemp>
          </ns3:TrackPointExtension>
        </extensions>
      </trkpt>
      <trkpt lat="42.52973101101815700531005859375" lon="19.76465751416981220245361328125">
        <ele>1670.800048828125</ele>
        <time>2026-06-18T08:29:58.000Z</time>
        <extensions>
          <ns3:TrackPointExtension>
            <ns3:atemp>23.0</ns3:atemp>
          </ns3:TrackPointExtension>
        </extensions>
      </trkpt>
      <trkpt lat="42.52971994690597057342529296875" lon="19.76468031294643878936767578125">
        <ele>1671</ele>
        <time>2026-06-18T08:29:59.000Z</time>
        <extensions>
          <ns3:TrackPointExtension>
            <ns3:atemp>23.0</ns3:atemp>
          </ns3:TrackPointExtension>
        </extensions>
      </trkpt>
      <trkpt lat="42.5297054462134838104248046875" lon="19.76470629684627056121826171875">
        <ele>1671.199951171875</ele>
        <time>2026-06-18T08:30:00.000Z</time>
        <extensions>
          <ns3:TrackPointExtension>
            <ns3:atemp>23.0</ns3:atemp>
          </ns3:TrackPointExtension>
        </extensions>
      </trkpt>
      <trkpt lat="42.52969027496874332427978515625" lon="19.76472943089902400970458984375">
        <ele>1671.5999755859375</ele>
        <time>2026-06-18T08:30:01.000Z</time>
        <extensions>
          <ns3:TrackPointExtension>
            <ns3:atemp>23.0</ns3:atemp>
          </ns3:TrackPointExtension>
        </extensions>
      </trkpt>
      <trkpt lat="42.52967141568660736083984375" lon="19.7647491283714771270751953125">
        <ele>1671.800048828125</ele>
        <time>2026-06-18T08:30:02.000Z</time>
        <extensions>
          <ns3:TrackPointExtension>
            <ns3:atemp>23.0</ns3:atemp>
          </ns3:TrackPointExtension>
        </extensions>
      </trkpt>
      <trkpt lat="42.52964886836707592010498046875" lon="19.764756672084331512451171875">
        <ele>1672.199951171875</ele>
        <time>2026-06-18T08:30:03.000Z</time>
        <extensions>
          <ns3:TrackPointExtension>
            <ns3:atemp>23.0</ns3:atemp>
          </ns3:TrackPointExtension>
        </extensions>
      </trkpt>
      <trkpt lat="42.52962958998978137969970703125" lon="19.76475927047431468963623046875">
        <ele>1672.4000244140625</ele>
        <time>2026-06-18T08:30:04.000Z</time>
        <extensions>
          <ns3:TrackPointExtension>
            <ns3:atemp>23.0</ns3:atemp>
          </ns3:TrackPointExtension>
        </extensions>
      </trkpt>
      <trkpt lat="42.52961240708827972412109375" lon="19.7647650539875030517578125">
        <ele>1672.5999755859375</ele>
        <time>2026-06-18T08:30:05.000Z</time>
        <extensions>
          <ns3:TrackPointExtension>
            <ns3:atemp>23.0</ns3:atemp>
          </ns3:TrackPointExtension>
        </extensions>
      </trkpt>
      <trkpt lat="42.5295931287109851837158203125" lon="19.76477066986262798309326171875">
        <ele>1672.5999755859375</ele>
        <time>2026-06-18T08:30:06.000Z</time>
        <extensions>
          <ns3:TrackPointExtension>
            <ns3:atemp>23.0</ns3:atemp>
          </ns3:TrackPointExtension>
        </extensions>
      </trkpt>
      <trkpt lat="42.52956873737275600433349609375" lon="19.764777123928070068359375">
        <ele>1672.800048828125</ele>
        <time>2026-06-18T08:30:07.000Z</time>
        <extensions>
          <ns3:TrackPointExtension>
            <ns3:atemp>23.0</ns3:atemp>
          </ns3:TrackPointExtension>
        </extensions>
      </trkpt>
      <trkpt lat="42.52954929135739803314208984375" lon="19.76477636955678462982177734375">
        <ele>1673</ele>
        <time>2026-06-18T08:30:08.000Z</time>
        <extensions>
          <ns3:TrackPointExtension>
            <ns3:atemp>23.0</ns3:atemp>
          </ns3:TrackPointExtension>
        </extensions>
      </trkpt>
      <trkpt lat="42.5295304320752620697021484375" lon="19.7647729329764842987060546875">
        <ele>1673.199951171875</ele>
        <time>2026-06-18T08:30:09.000Z</time>
        <extensions>
          <ns3:TrackPointExtension>
            <ns3:atemp>23.0</ns3:atemp>
          </ns3:TrackPointExtension>
        </extensions>
      </trkpt>
      <trkpt lat="42.52951408736407756805419921875" lon="19.764771759510040283203125">
        <ele>1673.199951171875</ele>
        <time>2026-06-18T08:30:10.000Z</time>
        <extensions>
          <ns3:TrackPointExtension>
            <ns3:atemp>23.0</ns3:atemp>
          </ns3:TrackPointExtension>
        </extensions>
      </trkpt>
      <trkpt lat="42.52949975430965423583984375" lon="19.76477134041488170623779296875">
        <ele>1673.4000244140625</ele>
        <time>2026-06-18T08:30:11.000Z</time>
        <extensions>
          <ns3:TrackPointExtension>
            <ns3:atemp>23.0</ns3:atemp>
          </ns3:TrackPointExtension>
        </extensions>
      </trkpt>
      <trkpt lat="42.5294885225594043731689453125" lon="19.76476999931037425994873046875">
        <ele>1673.4000244140625</ele>
        <time>2026-06-18T08:30:12.000Z</time>
        <extensions>
          <ns3:TrackPointExtension>
            <ns3:atemp>23.0</ns3:atemp>
          </ns3:TrackPointExtension>
        </extensions>
      </trkpt>
      <trkpt lat="42.5294764526188373565673828125" lon="19.764764048159122467041015625">
        <ele>1673.4000244140625</ele>
        <time>2026-06-18T08:30:13.000Z</time>
        <extensions>
          <ns3:TrackPointExtension>
            <ns3:atemp>23.0</ns3:atemp>
          </ns3:TrackPointExtension>
        </extensions>
      </trkpt>
      <trkpt lat="42.5294640474021434783935546875" lon="19.76475792936980724334716796875">
        <ele>1673.5999755859375</ele>
        <time>2026-06-18T08:30:14.000Z</time>
        <extensions>
          <ns3:TrackPointExtension>
            <ns3:atemp>23.0</ns3:atemp>
          </ns3:TrackPointExtension>
        </extensions>
      </trkpt>
      <trkpt lat="42.5294519774615764617919921875" lon="19.76475499570369720458984375">
        <ele>1673.800048828125</ele>
        <time>2026-06-18T08:30:15.000Z</time>
        <extensions>
          <ns3:TrackPointExtension>
            <ns3:atemp>23.0</ns3:atemp>
          </ns3:TrackPointExtension>
        </extensions>
      </trkpt>
      <trkpt lat="42.52944066189229488372802734375" lon="19.764756672084331512451171875">
        <ele>1673.800048828125</ele>
        <time>2026-06-18T08:30:16.000Z</time>
        <extensions>
          <ns3:TrackPointExtension>
            <ns3:atemp>23.0</ns3:atemp>
          </ns3:TrackPointExtension>
        </extensions>
      </trkpt>
      <trkpt lat="42.529425323009490966796875" lon="19.76475642062723636627197265625">
        <ele>1674</ele>
        <time>2026-06-18T08:30:17.000Z</time>
        <extensions>
          <ns3:TrackPointExtension>
            <ns3:atemp>23.0</ns3:atemp>
          </ns3:TrackPointExtension>
        </extensions>
      </trkpt>
      <trkpt lat="42.5294080562889575958251953125" lon="19.764750301837921142578125">
        <ele>1674.199951171875</ele>
        <time>2026-06-18T08:30:18.000Z</time>
        <extensions>
          <ns3:TrackPointExtension>
            <ns3:atemp>23.0</ns3:atemp>
          </ns3:TrackPointExtension>
        </extensions>
      </trkpt>
      <trkpt lat="42.529386095702648162841796875" lon="19.76474418304860591888427734375">
        <ele>1674.4000244140625</ele>
        <time>2026-06-18T08:30:19.000Z</time>
        <extensions>
          <ns3:TrackPointExtension>
            <ns3:atemp>23.0</ns3:atemp>
          </ns3:TrackPointExtension>
        </extensions>
      </trkpt>
      <trkpt lat="42.52936539240181446075439453125" lon="19.7647360526025295257568359375">
        <ele>1674.5999755859375</ele>
        <time>2026-06-18T08:30:20.000Z</time>
        <extensions>
          <ns3:TrackPointExtension>
            <ns3:atemp>23.0</ns3:atemp>
          </ns3:TrackPointExtension>
        </extensions>
      </trkpt>
      <trkpt lat="42.5293460302054882049560546875" lon="19.7647333703935146331787109375">
        <ele>1674.5999755859375</ele>
        <time>2026-06-18T08:30:21.000Z</time>
        <extensions>
          <ns3:TrackPointExtension>
            <ns3:atemp>23.0</ns3:atemp>
          </ns3:TrackPointExtension>
        </extensions>
      </trkpt>
      <trkpt lat="42.5293272547423839569091796875" lon="19.76473144255578517913818359375">
        <ele>1674.5999755859375</ele>
        <time>2026-06-18T08:30:22.000Z</time>
        <extensions>
          <ns3:TrackPointExtension>
            <ns3:atemp>23.0</ns3:atemp>
          </ns3:TrackPointExtension>
        </extensions>
      </trkpt>
      <trkpt lat="42.52931091003119945526123046875" lon="19.7647323645651340484619140625">
        <ele>1674.800048828125</ele>
        <time>2026-06-18T08:30:23.000Z</time>
        <extensions>
          <ns3:TrackPointExtension>
            <ns3:atemp>23.0</ns3:atemp>
          </ns3:TrackPointExtension>
        </extensions>
      </trkpt>
      <trkpt lat="42.5292970798909664154052734375" lon="19.76473311893641948699951171875">
        <ele>1674.800048828125</ele>
        <time>2026-06-18T08:30:24.000Z</time>
        <extensions>
          <ns3:TrackPointExtension>
            <ns3:atemp>23.0</ns3:atemp>
          </ns3:TrackPointExtension>
        </extensions>
      </trkpt>
      <trkpt lat="42.52928425557911396026611328125" lon="19.76473622024059295654296875">
        <ele>1674.800048828125</ele>
        <time>2026-06-18T08:30:25.000Z</time>
        <extensions>
          <ns3:TrackPointExtension>
            <ns3:atemp>23.0</ns3:atemp>
          </ns3:TrackPointExtension>
        </extensions>
      </trkpt>
      <trkpt lat="42.52927042543888092041015625" lon="19.76474250666797161102294921875">
        <ele>1674.800048828125</ele>
        <time>2026-06-18T08:30:26.000Z</time>
        <extensions>
          <ns3:TrackPointExtension>
            <ns3:atemp>23.0</ns3:atemp>
          </ns3:TrackPointExtension>
        </extensions>
      </trkpt>
      <trkpt lat="42.5292595289647579193115234375" lon="19.76475273258984088897705078125">
        <ele>1674.800048828125</ele>
        <time>2026-06-18T08:30:27.000Z</time>
        <extensions>
          <ns3:TrackPointExtension>
            <ns3:atemp>23.0</ns3:atemp>
          </ns3:TrackPointExtension>
        </extensions>
      </trkpt>
      <trkpt lat="42.5292511470615863800048828125" lon="19.7647642157971858978271484375">
        <ele>1674.800048828125</ele>
        <time>2026-06-18T08:30:28.000Z</time>
        <extensions>
          <ns3:TrackPointExtension>
            <ns3:atemp>23.0</ns3:atemp>
          </ns3:TrackPointExtension>
        </extensions>
      </trkpt>
      <trkpt lat="42.52925592474639415740966796875" lon="19.76477201096713542938232421875">
        <ele>1674.800048828125</ele>
        <time>2026-06-18T08:30:29.000Z</time>
        <extensions>
          <ns3:TrackPointExtension>
            <ns3:atemp>23.0</ns3:atemp>
          </ns3:TrackPointExtension>
        </extensions>
      </trkpt>
      <trkpt lat="42.5292591936886310577392578125" lon="19.7647752799093723297119140625">
        <ele>1674.800048828125</ele>
        <time>2026-06-18T08:30:30.000Z</time>
        <extensions>
          <ns3:TrackPointExtension>
            <ns3:atemp>23.0</ns3:atemp>
          </ns3:TrackPointExtension>
        </extensions>
      </trkpt>
      <trkpt lat="42.52925944514572620391845703125" lon="19.76477771066129207611083984375">
        <ele>1674.800048828125</ele>
        <time>2026-06-18T08:30:31.000Z</time>
        <extensions>
          <ns3:TrackPointExtension>
            <ns3:atemp>23.0</ns3:atemp>
          </ns3:TrackPointExtension>
        </extensions>
      </trkpt>
      <trkpt lat="42.52925944514572620391845703125" lon="19.76477771066129207611083984375">
        <ele>1674.800048828125</ele>
        <time>2026-06-18T08:30:32.000Z</time>
        <extensions>
          <ns3:TrackPointExtension>
            <ns3:atemp>23.0</ns3:atemp>
          </ns3:TrackPointExtension>
        </extensions>
      </trkpt>
      <trkpt lat="42.52925944514572620391845703125" lon="19.76477771066129207611083984375">
        <ele>1674.800048828125</ele>
        <time>2026-06-18T08:30:33.000Z</time>
        <extensions>
          <ns3:TrackPointExtension>
            <ns3:atemp>23.0</ns3:atemp>
          </ns3:TrackPointExtension>
        </extensions>
      </trkpt>
      <trkpt lat="42.52925944514572620391845703125" lon="19.76477771066129207611083984375">
        <ele>1674.5999755859375</ele>
        <time>2026-06-18T08:30:34.000Z</time>
        <extensions>
          <ns3:TrackPointExtension>
            <ns3:atemp>23.0</ns3:atemp>
          </ns3:TrackPointExtension>
        </extensions>
      </trkpt>
      <trkpt lat="42.52925944514572620391845703125" lon="19.76477771066129207611083984375">
        <ele>1674.5999755859375</ele>
        <time>2026-06-18T08:30:35.000Z</time>
        <extensions>
          <ns3:TrackPointExtension>
            <ns3:atemp>23.0</ns3:atemp>
          </ns3:TrackPointExtension>
        </extensions>
      </trkpt>
      <trkpt lat="42.52925944514572620391845703125" lon="19.76477771066129207611083984375">
        <ele>1674.4000244140625</ele>
        <time>2026-06-18T08:30:36.000Z</time>
        <extensions>
          <ns3:TrackPointExtension>
            <ns3:atemp>23.0</ns3:atemp>
          </ns3:TrackPointExtension>
        </extensions>
      </trkpt>
      <trkpt lat="42.52925944514572620391845703125" lon="19.76477771066129207611083984375">
        <ele>1674.4000244140625</ele>
        <time>2026-06-18T08:30:37.000Z</time>
        <extensions>
          <ns3:TrackPointExtension>
            <ns3:atemp>23.0</ns3:atemp>
          </ns3:TrackPointExtension>
        </extensions>
      </trkpt>
      <trkpt lat="42.52925944514572620391845703125" lon="19.76477771066129207611083984375">
        <ele>1674.199951171875</ele>
        <time>2026-06-18T08:30:38.000Z</time>
        <extensions>
          <ns3:TrackPointExtension>
            <ns3:atemp>23.0</ns3:atemp>
          </ns3:TrackPointExtension>
        </extensions>
      </trkpt>
      <trkpt lat="42.52925944514572620391845703125" lon="19.76477771066129207611083984375">
        <ele>1674.199951171875</ele>
        <time>2026-06-18T08:30:39.000Z</time>
        <extensions>
          <ns3:TrackPointExtension>
            <ns3:atemp>23.0</ns3:atemp>
          </ns3:TrackPointExtension>
        </extensions>
      </trkpt>
      <trkpt lat="42.52925944514572620391845703125" lon="19.76477771066129207611083984375">
        <ele>1674.199951171875</ele>
        <time>2026-06-18T08:30:40.000Z</time>
        <extensions>
          <ns3:TrackPointExtension>
            <ns3:atemp>23.0</ns3:atemp>
          </ns3:TrackPointExtension>
        </extensions>
      </trkpt>
      <trkpt lat="42.52925944514572620391845703125" lon="19.76477771066129207611083984375">
        <ele>1674.199951171875</ele>
        <time>2026-06-18T08:30:41.000Z</time>
        <extensions>
          <ns3:TrackPointExtension>
            <ns3:atemp>23.0</ns3:atemp>
          </ns3:TrackPointExtension>
        </extensions>
      </trkpt>
      <trkpt lat="42.52925944514572620391845703125" lon="19.76477771066129207611083984375">
        <ele>1674.199951171875</ele>
        <time>2026-06-18T08:30:42.000Z</time>
        <extensions>
          <ns3:TrackPointExtension>
            <ns3:atemp>23.0</ns3:atemp>
          </ns3:TrackPointExtension>
        </extensions>
      </trkpt>
      <trkpt lat="42.52925944514572620391845703125" lon="19.76477771066129207611083984375">
        <ele>1674.199951171875</ele>
        <time>2026-06-18T08:30:43.000Z</time>
        <extensions>
          <ns3:TrackPointExtension>
            <ns3:atemp>23.0</ns3:atemp>
          </ns3:TrackPointExtension>
        </extensions>
      </trkpt>
      <trkpt lat="42.52925944514572620391845703125" lon="19.76477771066129207611083984375">
        <ele>1674.199951171875</ele>
        <time>2026-06-18T08:30:44.000Z</time>
        <extensions>
          <ns3:TrackPointExtension>
            <ns3:atemp>23.0</ns3:atemp>
          </ns3:TrackPointExtension>
        </extensions>
      </trkpt>
      <trkpt lat="42.52925944514572620391845703125" lon="19.76477771066129207611083984375">
        <ele>1674.199951171875</ele>
        <time>2026-06-18T08:30:45.000Z</time>
        <extensions>
          <ns3:TrackPointExtension>
            <ns3:atemp>23.0</ns3:atemp>
          </ns3:TrackPointExtension>
        </extensions>
      </trkpt>
      <trkpt lat="42.52925944514572620391845703125" lon="19.76477771066129207611083984375">
        <ele>1674.199951171875</ele>
        <time>2026-06-18T08:30:46.000Z</time>
        <extensions>
          <ns3:TrackPointExtension>
            <ns3:atemp>23.0</ns3:atemp>
          </ns3:TrackPointExtension>
        </extensions>
      </trkpt>
      <trkpt lat="42.52925944514572620391845703125" lon="19.76477771066129207611083984375">
        <ele>1674.199951171875</ele>
        <time>2026-06-18T08:30:47.000Z</time>
        <extensions>
          <ns3:TrackPointExtension>
            <ns3:atemp>23.0</ns3:atemp>
          </ns3:TrackPointExtension>
        </extensions>
      </trkpt>
      <trkpt lat="42.52925944514572620391845703125" lon="19.76477771066129207611083984375">
        <ele>1674.199951171875</ele>
        <time>2026-06-18T08:30:48.000Z</time>
        <extensions>
          <ns3:TrackPointExtension>
            <ns3:atemp>23.0</ns3:atemp>
          </ns3:TrackPointExtension>
        </extensions>
      </trkpt>
      <trkpt lat="42.52925944514572620391845703125" lon="19.76477771066129207611083984375">
        <ele>1674.199951171875</ele>
        <time>2026-06-18T08:30:49.000Z</time>
        <extensions>
          <ns3:TrackPointExtension>
            <ns3:atemp>23.0</ns3:atemp>
          </ns3:TrackPointExtension>
        </extensions>
      </trkpt>
      <trkpt lat="42.52925944514572620391845703125" lon="19.76477771066129207611083984375">
        <ele>1674.199951171875</ele>
        <time>2026-06-18T08:30:50.000Z</time>
        <extensions>
          <ns3:TrackPointExtension>
            <ns3:atemp>23.0</ns3:atemp>
          </ns3:TrackPointExtension>
        </extensions>
      </trkpt>
      <trkpt lat="42.52925944514572620391845703125" lon="19.76477771066129207611083984375">
        <ele>1674.199951171875</ele>
        <time>2026-06-18T08:30:51.000Z</time>
        <extensions>
          <ns3:TrackPointExtension>
            <ns3:atemp>23.0</ns3:atemp>
          </ns3:TrackPointExtension>
        </extensions>
      </trkpt>
      <trkpt lat="42.52925944514572620391845703125" lon="19.76477771066129207611083984375">
        <ele>1674.4000244140625</ele>
        <time>2026-06-18T08:30:52.000Z</time>
        <extensions>
          <ns3:TrackPointExtension>
            <ns3:atemp>23.0</ns3:atemp>
          </ns3:TrackPointExtension>
        </extensions>
      </trkpt>
      <trkpt lat="42.52925944514572620391845703125" lon="19.76477771066129207611083984375">
        <ele>1674.4000244140625</ele>
        <time>2026-06-18T08:30:53.000Z</time>
        <extensions>
          <ns3:TrackPointExtension>
            <ns3:atemp>23.0</ns3:atemp>
          </ns3:TrackPointExtension>
        </extensions>
      </trkpt>
      <trkpt lat="42.52925944514572620391845703125" lon="19.76477771066129207611083984375">
        <ele>1674.4000244140625</ele>
        <time>2026-06-18T08:30:54.000Z</time>
        <extensions>
          <ns3:TrackPointExtension>
            <ns3:atemp>23.0</ns3:atemp>
          </ns3:TrackPointExtension>
        </extensions>
      </trkpt>
      <trkpt lat="42.52925944514572620391845703125" lon="19.76477771066129207611083984375">
        <ele>1674.4000244140625</ele>
        <time>2026-06-18T08:30:55.000Z</time>
        <extensions>
          <ns3:TrackPointExtension>
            <ns3:atemp>23.0</ns3:atemp>
          </ns3:TrackPointExtension>
        </extensions>
      </trkpt>
      <trkpt lat="42.52925944514572620391845703125" lon="19.76477771066129207611083984375">
        <ele>1674.4000244140625</ele>
        <time>2026-06-18T08:30:56.000Z</time>
        <extensions>
          <ns3:TrackPointExtension>
            <ns3:atemp>23.0</ns3:atemp>
          </ns3:TrackPointExtension>
        </extensions>
      </trkpt>
      <trkpt lat="42.52925944514572620391845703125" lon="19.76477771066129207611083984375">
        <ele>1674.4000244140625</ele>
        <time>2026-06-18T08:30:57.000Z</time>
        <extensions>
          <ns3:TrackPointExtension>
            <ns3:atemp>23.0</ns3:atemp>
          </ns3:TrackPointExtension>
        </extensions>
      </trkpt>
      <trkpt lat="42.52925944514572620391845703125" lon="19.76477771066129207611083984375">
        <ele>1674.4000244140625</ele>
        <time>2026-06-18T08:30:58.000Z</time>
        <extensions>
          <ns3:TrackPointExtension>
            <ns3:atemp>23.0</ns3:atemp>
          </ns3:TrackPointExtension>
        </extensions>
      </trkpt>
      <trkpt lat="42.52925944514572620391845703125" lon="19.76477771066129207611083984375">
        <ele>1674.4000244140625</ele>
        <time>2026-06-18T08:30:59.000Z</time>
        <extensions>
          <ns3:TrackPointExtension>
            <ns3:atemp>23.0</ns3:atemp>
          </ns3:TrackPointExtension>
        </extensions>
      </trkpt>
      <trkpt lat="42.52925944514572620391845703125" lon="19.76477771066129207611083984375">
        <ele>1674.4000244140625</ele>
        <time>2026-06-18T08:31:00.000Z</time>
        <extensions>
          <ns3:TrackPointExtension>
            <ns3:atemp>23.0</ns3:atemp>
          </ns3:TrackPointExtension>
        </extensions>
      </trkpt>
      <trkpt lat="42.52925944514572620391845703125" lon="19.76477771066129207611083984375">
        <ele>1674.4000244140625</ele>
        <time>2026-06-18T08:31:01.000Z</time>
        <extensions>
          <ns3:TrackPointExtension>
            <ns3:atemp>23.0</ns3:atemp>
          </ns3:TrackPointExtension>
        </extensions>
      </trkpt>
      <trkpt lat="42.52925944514572620391845703125" lon="19.76477771066129207611083984375">
        <ele>1674.5999755859375</ele>
        <time>2026-06-18T08:31:02.000Z</time>
        <extensions>
          <ns3:TrackPointExtension>
            <ns3:atemp>23.0</ns3:atemp>
          </ns3:TrackPointExtension>
        </extensions>
      </trkpt>
      <trkpt lat="42.52925944514572620391845703125" lon="19.76477771066129207611083984375">
        <ele>1674.5999755859375</ele>
        <time>2026-06-18T08:31:03.000Z</time>
        <extensions>
          <ns3:TrackPointExtension>
            <ns3:atemp>23.0</ns3:atemp>
          </ns3:TrackPointExtension>
        </extensions>
      </trkpt>
      <trkpt lat="42.52925944514572620391845703125" lon="19.76477771066129207611083984375">
        <ele>1674.5999755859375</ele>
        <time>2026-06-18T08:31:04.000Z</time>
        <extensions>
          <ns3:TrackPointExtension>
            <ns3:atemp>23.0</ns3:atemp>
          </ns3:TrackPointExtension>
        </extensions>
      </trkpt>
      <trkpt lat="42.52925944514572620391845703125" lon="19.76477771066129207611083984375">
        <ele>1674.5999755859375</ele>
        <time>2026-06-18T08:31:05.000Z</time>
        <extensions>
          <ns3:TrackPointExtension>
            <ns3:atemp>23.0</ns3:atemp>
          </ns3:TrackPointExtension>
        </extensions>
      </trkpt>
      <trkpt lat="42.52925944514572620391845703125" lon="19.76477771066129207611083984375">
        <ele>1674.800048828125</ele>
        <time>2026-06-18T08:31:06.000Z</time>
        <extensions>
          <ns3:TrackPointExtension>
            <ns3:atemp>23.0</ns3:atemp>
          </ns3:TrackPointExtension>
        </extensions>
      </trkpt>
      <trkpt lat="42.52925944514572620391845703125" lon="19.76477771066129207611083984375">
        <ele>1674.800048828125</ele>
        <time>2026-06-18T08:31:07.000Z</time>
        <extensions>
          <ns3:TrackPointExtension>
            <ns3:atemp>23.0</ns3:atemp>
          </ns3:TrackPointExtension>
        </extensions>
      </trkpt>
      <trkpt lat="42.52925944514572620391845703125" lon="19.76477771066129207611083984375">
        <ele>1674.800048828125</ele>
        <time>2026-06-18T08:31:08.000Z</time>
        <extensions>
          <ns3:TrackPointExtension>
            <ns3:atemp>23.0</ns3:atemp>
          </ns3:TrackPointExtension>
        </extensions>
      </trkpt>
      <trkpt lat="42.52925944514572620391845703125" lon="19.76477771066129207611083984375">
        <ele>1674.800048828125</ele>
        <time>2026-06-18T08:31:09.000Z</time>
        <extensions>
          <ns3:TrackPointExtension>
            <ns3:atemp>23.0</ns3:atemp>
          </ns3:TrackPointExtension>
        </extensions>
      </trkpt>
      <trkpt lat="42.52925944514572620391845703125" lon="19.76477771066129207611083984375">
        <ele>1675</ele>
        <time>2026-06-18T08:31:10.000Z</time>
        <extensions>
          <ns3:TrackPointExtension>
            <ns3:atemp>23.0</ns3:atemp>
          </ns3:TrackPointExtension>
        </extensions>
      </trkpt>
      <trkpt lat="42.52925944514572620391845703125" lon="19.76477771066129207611083984375">
        <ele>1675</ele>
        <time>2026-06-18T08:31:11.000Z</time>
        <extensions>
          <ns3:TrackPointExtension>
            <ns3:atemp>23.0</ns3:atemp>
          </ns3:TrackPointExtension>
        </extensions>
      </trkpt>
      <trkpt lat="42.52925944514572620391845703125" lon="19.76477771066129207611083984375">
        <ele>1675.199951171875</ele>
        <time>2026-06-18T08:31:12.000Z</time>
        <extensions>
          <ns3:TrackPointExtension>
            <ns3:atemp>23.0</ns3:atemp>
          </ns3:TrackPointExtension>
        </extensions>
      </trkpt>
      <trkpt lat="42.52925944514572620391845703125" lon="19.76477771066129207611083984375">
        <ele>1675.199951171875</ele>
        <time>2026-06-18T08:31:13.000Z</time>
        <extensions>
          <ns3:TrackPointExtension>
            <ns3:atemp>23.0</ns3:atemp>
          </ns3:TrackPointExtension>
        </extensions>
      </trkpt>
      <trkpt lat="42.52925944514572620391845703125" lon="19.76477771066129207611083984375">
        <ele>1675.4000244140625</ele>
        <time>2026-06-18T08:31:14.000Z</time>
        <extensions>
          <ns3:TrackPointExtension>
            <ns3:atemp>23.0</ns3:atemp>
          </ns3:TrackPointExtension>
        </extensions>
      </trkpt>
      <trkpt lat="42.52925944514572620391845703125" lon="19.76477771066129207611083984375">
        <ele>1675.4000244140625</ele>
        <time>2026-06-18T08:31:15.000Z</time>
        <extensions>
          <ns3:TrackPointExtension>
            <ns3:atemp>23.0</ns3:atemp>
          </ns3:TrackPointExtension>
        </extensions>
      </trkpt>
      <trkpt lat="42.52925944514572620391845703125" lon="19.76477771066129207611083984375">
        <ele>1675.4000244140625</ele>
        <time>2026-06-18T08:31:16.000Z</time>
        <extensions>
          <ns3:TrackPointExtension>
            <ns3:atemp>23.0</ns3:atemp>
          </ns3:TrackPointExtension>
        </extensions>
      </trkpt>
      <trkpt lat="42.52925944514572620391845703125" lon="19.76477771066129207611083984375">
        <ele>1675.4000244140625</ele>
        <time>2026-06-18T08:31:17.000Z</time>
        <extensions>
          <ns3:TrackPointExtension>
            <ns3:atemp>23.0</ns3:atemp>
          </ns3:TrackPointExtension>
        </extensions>
      </trkpt>
      <trkpt lat="42.52925944514572620391845703125" lon="19.76477771066129207611083984375">
        <ele>1675.4000244140625</ele>
        <time>2026-06-18T08:31:18.000Z</time>
        <extensions>
          <ns3:TrackPointExtension>
            <ns3:atemp>23.0</ns3:atemp>
          </ns3:TrackPointExtension>
        </extensions>
      </trkpt>
      <trkpt lat="42.52925944514572620391845703125" lon="19.76477771066129207611083984375">
        <ele>1675.199951171875</ele>
        <time>2026-06-18T08:31:19.000Z</time>
        <extensions>
          <ns3:TrackPointExtension>
            <ns3:atemp>23.0</ns3:atemp>
          </ns3:TrackPointExtension>
        </extensions>
      </trkpt>
      <trkpt lat="42.52925944514572620391845703125" lon="19.76477771066129207611083984375">
        <ele>1675.199951171875</ele>
        <time>2026-06-18T08:31:20.000Z</time>
        <extensions>
          <ns3:TrackPointExtension>
            <ns3:atemp>23.0</ns3:atemp>
          </ns3:TrackPointExtension>
        </extensions>
      </trkpt>
      <trkpt lat="42.52925944514572620391845703125" lon="19.76477771066129207611083984375">
        <ele>1675.199951171875</ele>
        <time>2026-06-18T08:31:21.000Z</time>
        <extensions>
          <ns3:TrackPointExtension>
            <ns3:atemp>23.0</ns3:atemp>
          </ns3:TrackPointExtension>
        </extensions>
      </trkpt>
      <trkpt lat="42.52925944514572620391845703125" lon="19.76477771066129207611083984375">
        <ele>1675.199951171875</ele>
        <time>2026-06-18T08:31:22.000Z</time>
        <extensions>
          <ns3:TrackPointExtension>
            <ns3:atemp>23.0</ns3:atemp>
          </ns3:TrackPointExtension>
        </extensions>
      </trkpt>
      <trkpt lat="42.52925944514572620391845703125" lon="19.76477771066129207611083984375">
        <ele>1675.199951171875</ele>
        <time>2026-06-18T08:31:23.000Z</time>
        <extensions>
          <ns3:TrackPointExtension>
            <ns3:atemp>23.0</ns3:atemp>
          </ns3:TrackPointExtension>
        </extensions>
      </trkpt>
      <trkpt lat="42.52925944514572620391845703125" lon="19.76477771066129207611083984375">
        <ele>1675.199951171875</ele>
        <time>2026-06-18T08:31:24.000Z</time>
        <extensions>
          <ns3:TrackPointExtension>
            <ns3:atemp>23.0</ns3:atemp>
          </ns3:TrackPointExtension>
        </extensions>
      </trkpt>
      <trkpt lat="42.52925944514572620391845703125" lon="19.76477771066129207611083984375">
        <ele>1675.199951171875</ele>
        <time>2026-06-18T08:31:25.000Z</time>
        <extensions>
          <ns3:TrackPointExtension>
            <ns3:atemp>23.0</ns3:atemp>
          </ns3:TrackPointExtension>
        </extensions>
      </trkpt>
      <trkpt lat="42.52925944514572620391845703125" lon="19.76477771066129207611083984375">
        <ele>1675.199951171875</ele>
        <time>2026-06-18T08:31:26.000Z</time>
        <extensions>
          <ns3:TrackPointExtension>
            <ns3:atemp>23.0</ns3:atemp>
          </ns3:TrackPointExtension>
        </extensions>
      </trkpt>
      <trkpt lat="42.52925944514572620391845703125" lon="19.76477771066129207611083984375">
        <ele>1675.199951171875</ele>
        <time>2026-06-18T08:31:27.000Z</time>
        <extensions>
          <ns3:TrackPointExtension>
            <ns3:atemp>23.0</ns3:atemp>
          </ns3:TrackPointExtension>
        </extensions>
      </trkpt>
      <trkpt lat="42.52925944514572620391845703125" lon="19.76477771066129207611083984375">
        <ele>1675.199951171875</ele>
        <time>2026-06-18T08:31:28.000Z</time>
        <extensions>
          <ns3:TrackPointExtension>
            <ns3:atemp>23.0</ns3:atemp>
          </ns3:TrackPointExtension>
        </extensions>
      </trkpt>
      <trkpt lat="42.52925944514572620391845703125" lon="19.76477771066129207611083984375">
        <ele>1675.199951171875</ele>
        <time>2026-06-18T08:31:29.000Z</time>
        <extensions>
          <ns3:TrackPointExtension>
            <ns3:atemp>23.0</ns3:atemp>
          </ns3:TrackPointExtension>
        </extensions>
      </trkpt>
      <trkpt lat="42.52925944514572620391845703125" lon="19.76477771066129207611083984375">
        <ele>1675.199951171875</ele>
        <time>2026-06-18T08:31:30.000Z</time>
        <extensions>
          <ns3:TrackPointExtension>
            <ns3:atemp>23.0</ns3:atemp>
          </ns3:TrackPointExtension>
        </extensions>
      </trkpt>
      <trkpt lat="42.52925944514572620391845703125" lon="19.76477771066129207611083984375">
        <ele>1675.4000244140625</ele>
        <time>2026-06-18T08:31:31.000Z</time>
        <extensions>
          <ns3:TrackPointExtension>
            <ns3:atemp>23.0</ns3:atemp>
          </ns3:TrackPointExtension>
        </extensions>
      </trkpt>
      <trkpt lat="42.52925944514572620391845703125" lon="19.76477771066129207611083984375">
        <ele>1675.4000244140625</ele>
        <time>2026-06-18T08:31:32.000Z</time>
        <extensions>
          <ns3:TrackPointExtension>
            <ns3:atemp>23.0</ns3:atemp>
          </ns3:TrackPointExtension>
        </extensions>
      </trkpt>
      <trkpt lat="42.52925944514572620391845703125" lon="19.76477771066129207611083984375">
        <ele>1675.4000244140625</ele>
        <time>2026-06-18T08:31:33.000Z</time>
        <extensions>
          <ns3:TrackPointExtension>
            <ns3:atemp>23.0</ns3:atemp>
          </ns3:TrackPointExtension>
        </extensions>
      </trkpt>
      <trkpt lat="42.52925944514572620391845703125" lon="19.76477771066129207611083984375">
        <ele>1675.4000244140625</ele>
        <time>2026-06-18T08:31:34.000Z</time>
        <extensions>
          <ns3:TrackPointExtension>
            <ns3:atemp>23.0</ns3:atemp>
          </ns3:TrackPointExtension>
        </extensions>
      </trkpt>
      <trkpt lat="42.52925944514572620391845703125" lon="19.76477771066129207611083984375">
        <ele>1675.4000244140625</ele>
        <time>2026-06-18T08:31:35.000Z</time>
        <extensions>
          <ns3:TrackPointExtension>
            <ns3:atemp>23.0</ns3:atemp>
          </ns3:TrackPointExtension>
        </extensions>
      </trkpt>
      <trkpt lat="42.52925944514572620391845703125" lon="19.76477771066129207611083984375">
        <ele>1675.4000244140625</ele>
        <time>2026-06-18T08:31:36.000Z</time>
        <extensions>
          <ns3:TrackPointExtension>
            <ns3:atemp>23.0</ns3:atemp>
          </ns3:TrackPointExtension>
        </extensions>
      </trkpt>
      <trkpt lat="42.52925944514572620391845703125" lon="19.76477771066129207611083984375">
        <ele>1675.4000244140625</ele>
        <time>2026-06-18T08:31:37.000Z</time>
        <extensions>
          <ns3:TrackPointExtension>
            <ns3:atemp>23.0</ns3:atemp>
          </ns3:TrackPointExtension>
        </extensions>
      </trkpt>
      <trkpt lat="42.52925944514572620391845703125" lon="19.76477771066129207611083984375">
        <ele>1675.4000244140625</ele>
        <time>2026-06-18T08:31:38.000Z</time>
        <extensions>
          <ns3:TrackPointExtension>
            <ns3:atemp>23.0</ns3:atemp>
          </ns3:TrackPointExtension>
        </extensions>
      </trkpt>
      <trkpt lat="42.52925944514572620391845703125" lon="19.76477771066129207611083984375">
        <ele>1675.4000244140625</ele>
        <time>2026-06-18T08:31:39.000Z</time>
        <extensions>
          <ns3:TrackPointExtension>
            <ns3:atemp>23.0</ns3:atemp>
          </ns3:TrackPointExtension>
        </extensions>
      </trkpt>
      <trkpt lat="42.52925944514572620391845703125" lon="19.76477771066129207611083984375">
        <ele>1675.4000244140625</ele>
        <time>2026-06-18T08:31:40.000Z</time>
        <extensions>
          <ns3:TrackPointExtension>
            <ns3:atemp>23.0</ns3:atemp>
          </ns3:TrackPointExtension>
        </extensions>
      </trkpt>
      <trkpt lat="42.52925944514572620391845703125" lon="19.76477771066129207611083984375">
        <ele>1675.4000244140625</ele>
        <time>2026-06-18T08:31:41.000Z</time>
        <extensions>
          <ns3:TrackPointExtension>
            <ns3:atemp>23.0</ns3:atemp>
          </ns3:TrackPointExtension>
        </extensions>
      </trkpt>
      <trkpt lat="42.52925944514572620391845703125" lon="19.76477771066129207611083984375">
        <ele>1675.4000244140625</ele>
        <time>2026-06-18T08:31:42.000Z</time>
        <extensions>
          <ns3:TrackPointExtension>
            <ns3:atemp>23.0</ns3:atemp>
          </ns3:TrackPointExtension>
        </extensions>
      </trkpt>
      <trkpt lat="42.52925944514572620391845703125" lon="19.76477771066129207611083984375">
        <ele>1675.4000244140625</ele>
        <time>2026-06-18T08:31:43.000Z</time>
        <extensions>
          <ns3:TrackPointExtension>
            <ns3:atemp>23.0</ns3:atemp>
          </ns3:TrackPointExtension>
        </extensions>
      </trkpt>
      <trkpt lat="42.52925944514572620391845703125" lon="19.76477771066129207611083984375">
        <ele>1675.4000244140625</ele>
        <time>2026-06-18T08:31:44.000Z</time>
        <extensions>
          <ns3:TrackPointExtension>
            <ns3:atemp>23.0</ns3:atemp>
          </ns3:TrackPointExtension>
        </extensions>
      </trkpt>
      <trkpt lat="42.52925944514572620391845703125" lon="19.76477771066129207611083984375">
        <ele>1675.4000244140625</ele>
        <time>2026-06-18T08:31:45.000Z</time>
        <extensions>
          <ns3:TrackPointExtension>
            <ns3:atemp>23.0</ns3:atemp>
          </ns3:TrackPointExtension>
        </extensions>
      </trkpt>
      <trkpt lat="42.52925944514572620391845703125" lon="19.76477771066129207611083984375">
        <ele>1675.4000244140625</ele>
        <time>2026-06-18T08:31:46.000Z</time>
        <extensions>
          <ns3:TrackPointExtension>
            <ns3:atemp>23.0</ns3:atemp>
          </ns3:TrackPointExtension>
        </extensions>
      </trkpt>
      <trkpt lat="42.52925944514572620391845703125" lon="19.76477771066129207611083984375">
        <ele>1675.4000244140625</ele>
        <time>2026-06-18T08:31:47.000Z</time>
        <extensions>
          <ns3:TrackPointExtension>
            <ns3:atemp>23.0</ns3:atemp>
          </ns3:TrackPointExtension>
        </extensions>
      </trkpt>
      <trkpt lat="42.52925944514572620391845703125" lon="19.76477771066129207611083984375">
        <ele>1675.4000244140625</ele>
        <time>2026-06-18T08:31:48.000Z</time>
        <extensions>
          <ns3:TrackPointExtension>
            <ns3:atemp>23.0</ns3:atemp>
          </ns3:TrackPointExtension>
        </extensions>
      </trkpt>
      <trkpt lat="42.52925944514572620391845703125" lon="19.76477771066129207611083984375">
        <ele>1675.4000244140625</ele>
        <time>2026-06-18T08:31:49.000Z</time>
        <extensions>
          <ns3:TrackPointExtension>
            <ns3:atemp>23.0</ns3:atemp>
          </ns3:TrackPointExtension>
        </extensions>
      </trkpt>
      <trkpt lat="42.52925944514572620391845703125" lon="19.76477771066129207611083984375">
        <ele>1675.4000244140625</ele>
        <time>2026-06-18T08:31:50.000Z</time>
        <extensions>
          <ns3:TrackPointExtension>
            <ns3:atemp>23.0</ns3:atemp>
          </ns3:TrackPointExtension>
        </extensions>
      </trkpt>
      <trkpt lat="42.52925944514572620391845703125" lon="19.76477771066129207611083984375">
        <ele>1675.4000244140625</ele>
        <time>2026-06-18T08:31:51.000Z</time>
        <extensions>
          <ns3:TrackPointExtension>
            <ns3:atemp>23.0</ns3:atemp>
          </ns3:TrackPointExtension>
        </extensions>
      </trkpt>
      <trkpt lat="42.52925944514572620391845703125" lon="19.76477771066129207611083984375">
        <ele>1675.4000244140625</ele>
        <time>2026-06-18T08:31:52.000Z</time>
        <extensions>
          <ns3:TrackPointExtension>
            <ns3:atemp>23.0</ns3:atemp>
          </ns3:TrackPointExtension>
        </extensions>
      </trkpt>
      <trkpt lat="42.52925944514572620391845703125" lon="19.76477771066129207611083984375">
        <ele>1675.4000244140625</ele>
        <time>2026-06-18T08:31:53.000Z</time>
        <extensions>
          <ns3:TrackPointExtension>
            <ns3:atemp>23.0</ns3:atemp>
          </ns3:TrackPointExtension>
        </extensions>
      </trkpt>
      <trkpt lat="42.52925944514572620391845703125" lon="19.76477771066129207611083984375">
        <ele>1675.4000244140625</ele>
        <time>2026-06-18T08:31:54.000Z</time>
        <extensions>
          <ns3:TrackPointExtension>
            <ns3:atemp>23.0</ns3:atemp>
          </ns3:TrackPointExtension>
        </extensions>
      </trkpt>
      <trkpt lat="42.52925944514572620391845703125" lon="19.76477771066129207611083984375">
        <ele>1675.4000244140625</ele>
        <time>2026-06-18T08:31:55.000Z</time>
        <extensions>
          <ns3:TrackPointExtension>
            <ns3:atemp>23.0</ns3:atemp>
          </ns3:TrackPointExtension>
        </extensions>
      </trkpt>
      <trkpt lat="42.52925944514572620391845703125" lon="19.76477771066129207611083984375">
        <ele>1675.4000244140625</ele>
        <time>2026-06-18T08:31:56.000Z</time>
        <extensions>
          <ns3:TrackPointExtension>
            <ns3:atemp>23.0</ns3:atemp>
          </ns3:TrackPointExtension>
        </extensions>
      </trkpt>
      <trkpt lat="42.52925944514572620391845703125" lon="19.76477771066129207611083984375">
        <ele>1675.4000244140625</ele>
        <time>2026-06-18T08:31:57.000Z</time>
        <extensions>
          <ns3:TrackPointExtension>
            <ns3:atemp>23.0</ns3:atemp>
          </ns3:TrackPointExtension>
        </extensions>
      </trkpt>
      <trkpt lat="42.52925944514572620391845703125" lon="19.76477771066129207611083984375">
        <ele>1675.4000244140625</ele>
        <time>2026-06-18T08:31:58.000Z</time>
        <extensions>
          <ns3:TrackPointExtension>
            <ns3:atemp>23.0</ns3:atemp>
          </ns3:TrackPointExtension>
        </extensions>
      </trkpt>
      <trkpt lat="42.52925944514572620391845703125" lon="19.76477771066129207611083984375">
        <ele>1675.4000244140625</ele>
        <time>2026-06-18T08:31:59.000Z</time>
        <extensions>
          <ns3:TrackPointExtension>
            <ns3:atemp>23.0</ns3:atemp>
          </ns3:TrackPointExtension>
        </extensions>
      </trkpt>
      <trkpt lat="42.52925944514572620391845703125" lon="19.76477771066129207611083984375">
        <ele>1675.4000244140625</ele>
        <time>2026-06-18T08:32:00.000Z</time>
        <extensions>
          <ns3:TrackPointExtension>
            <ns3:atemp>23.0</ns3:atemp>
          </ns3:TrackPointExtension>
        </extensions>
      </trkpt>
      <trkpt lat="42.52925944514572620391845703125" lon="19.76477771066129207611083984375">
        <ele>1675.4000244140625</ele>
        <time>2026-06-18T08:32:01.000Z</time>
        <extensions>
          <ns3:TrackPointExtension>
            <ns3:atemp>23.0</ns3:atemp>
          </ns3:TrackPointExtension>
        </extensions>
      </trkpt>
      <trkpt lat="42.52925944514572620391845703125" lon="19.76477771066129207611083984375">
        <ele>1675.4000244140625</ele>
        <time>2026-06-18T08:32:02.000Z</time>
        <extensions>
          <ns3:TrackPointExtension>
            <ns3:atemp>23.0</ns3:atemp>
          </ns3:TrackPointExtension>
        </extensions>
      </trkpt>
      <trkpt lat="42.52925944514572620391845703125" lon="19.76477771066129207611083984375">
        <ele>1675.4000244140625</ele>
        <time>2026-06-18T08:32:03.000Z</time>
        <extensions>
          <ns3:TrackPointExtension>
            <ns3:atemp>23.0</ns3:atemp>
          </ns3:TrackPointExtension>
        </extensions>
      </trkpt>
      <trkpt lat="42.52925944514572620391845703125" lon="19.76477771066129207611083984375">
        <ele>1675.4000244140625</ele>
        <time>2026-06-18T08:32:04.000Z</time>
        <extensions>
          <ns3:TrackPointExtension>
            <ns3:atemp>23.0</ns3:atemp>
          </ns3:TrackPointExtension>
        </extensions>
      </trkpt>
      <trkpt lat="42.52925944514572620391845703125" lon="19.76477771066129207611083984375">
        <ele>1675.4000244140625</ele>
        <time>2026-06-18T08:32:05.000Z</time>
        <extensions>
          <ns3:TrackPointExtension>
            <ns3:atemp>23.0</ns3:atemp>
          </ns3:TrackPointExtension>
        </extensions>
      </trkpt>
      <trkpt lat="42.52925944514572620391845703125" lon="19.76477771066129207611083984375">
        <ele>1675.4000244140625</ele>
        <time>2026-06-18T08:32:06.000Z</time>
        <extensions>
          <ns3:TrackPointExtension>
            <ns3:atemp>23.0</ns3:atemp>
          </ns3:TrackPointExtension>
        </extensions>
      </trkpt>
      <trkpt lat="42.52925944514572620391845703125" lon="19.76477771066129207611083984375">
        <ele>1675.4000244140625</ele>
        <time>2026-06-18T08:32:07.000Z</time>
        <extensions>
          <ns3:TrackPointExtension>
            <ns3:atemp>23.0</ns3:atemp>
          </ns3:TrackPointExtension>
        </extensions>
      </trkpt>
      <trkpt lat="42.52925944514572620391845703125" lon="19.76477771066129207611083984375">
        <ele>1675.4000244140625</ele>
        <time>2026-06-18T08:32:08.000Z</time>
        <extensions>
          <ns3:TrackPointExtension>
            <ns3:atemp>23.0</ns3:atemp>
          </ns3:TrackPointExtension>
        </extensions>
      </trkpt>
      <trkpt lat="42.52925944514572620391845703125" lon="19.76477771066129207611083984375">
        <ele>1675.4000244140625</ele>
        <time>2026-06-18T08:32:09.000Z</time>
        <extensions>
          <ns3:TrackPointExtension>
            <ns3:atemp>23.0</ns3:atemp>
          </ns3:TrackPointExtension>
        </extensions>
      </trkpt>
      <trkpt lat="42.52925944514572620391845703125" lon="19.76477771066129207611083984375">
        <ele>1675.4000244140625</ele>
        <time>2026-06-18T08:32:10.000Z</time>
        <extensions>
          <ns3:TrackPointExtension>
            <ns3:atemp>23.0</ns3:atemp>
          </ns3:TrackPointExtension>
        </extensions>
      </trkpt>
      <trkpt lat="42.52925944514572620391845703125" lon="19.76477771066129207611083984375">
        <ele>1675.4000244140625</ele>
        <time>2026-06-18T08:32:11.000Z</time>
        <extensions>
          <ns3:TrackPointExtension>
            <ns3:atemp>23.0</ns3:atemp>
          </ns3:TrackPointExtension>
        </extensions>
      </trkpt>
      <trkpt lat="42.52925944514572620391845703125" lon="19.76477771066129207611083984375">
        <ele>1675.4000244140625</ele>
        <time>2026-06-18T08:32:12.000Z</time>
        <extensions>
          <ns3:TrackPointExtension>
            <ns3:atemp>23.0</ns3:atemp>
          </ns3:TrackPointExtension>
        </extensions>
      </trkpt>
      <trkpt lat="42.52925944514572620391845703125" lon="19.76477771066129207611083984375">
        <ele>1675.4000244140625</ele>
        <time>2026-06-18T08:32:13.000Z</time>
        <extensions>
          <ns3:TrackPointExtension>
            <ns3:atemp>23.0</ns3:atemp>
          </ns3:TrackPointExtension>
        </extensions>
      </trkpt>
      <trkpt lat="42.52925944514572620391845703125" lon="19.76477771066129207611083984375">
        <ele>1675.4000244140625</ele>
        <time>2026-06-18T08:32:14.000Z</time>
        <extensions>
          <ns3:TrackPointExtension>
            <ns3:atemp>23.0</ns3:atemp>
          </ns3:TrackPointExtension>
        </extensions>
      </trkpt>
      <trkpt lat="42.52925944514572620391845703125" lon="19.76477771066129207611083984375">
        <ele>1675.4000244140625</ele>
        <time>2026-06-18T08:32:15.000Z</time>
        <extensions>
          <ns3:TrackPointExtension>
            <ns3:atemp>23.0</ns3:atemp>
          </ns3:TrackPointExtension>
        </extensions>
      </trkpt>
      <trkpt lat="42.52925944514572620391845703125" lon="19.76477771066129207611083984375">
        <ele>1675.4000244140625</ele>
        <time>2026-06-18T08:32:16.000Z</time>
        <extensions>
          <ns3:TrackPointExtension>
            <ns3:atemp>23.0</ns3:atemp>
          </ns3:TrackPointExtension>
        </extensions>
      </trkpt>
      <trkpt lat="42.52925944514572620391845703125" lon="19.76477771066129207611083984375">
        <ele>1675.4000244140625</ele>
        <time>2026-06-18T08:32:17.000Z</time>
        <extensions>
          <ns3:TrackPointExtension>
            <ns3:atemp>23.0</ns3:atemp>
          </ns3:TrackPointExtension>
        </extensions>
      </trkpt>
      <trkpt lat="42.52925944514572620391845703125" lon="19.76477771066129207611083984375">
        <ele>1675.4000244140625</ele>
        <time>2026-06-18T08:32:18.000Z</time>
        <extensions>
          <ns3:TrackPointExtension>
            <ns3:atemp>23.0</ns3:atemp>
          </ns3:TrackPointExtension>
        </extensions>
      </trkpt>
      <trkpt lat="42.52925944514572620391845703125" lon="19.76477771066129207611083984375">
        <ele>1675.4000244140625</ele>
        <time>2026-06-18T08:32:19.000Z</time>
        <extensions>
          <ns3:TrackPointExtension>
            <ns3:atemp>23.0</ns3:atemp>
          </ns3:TrackPointExtension>
        </extensions>
      </trkpt>
      <trkpt lat="42.52925944514572620391845703125" lon="19.76477771066129207611083984375">
        <ele>1675.4000244140625</ele>
        <time>2026-06-18T08:32:20.000Z</time>
        <extensions>
          <ns3:TrackPointExtension>
            <ns3:atemp>23.0</ns3:atemp>
          </ns3:TrackPointExtension>
        </extensions>
      </trkpt>
      <trkpt lat="42.52925944514572620391845703125" lon="19.76477771066129207611083984375">
        <ele>1675.4000244140625</ele>
        <time>2026-06-18T08:32:21.000Z</time>
        <extensions>
          <ns3:TrackPointExtension>
            <ns3:atemp>23.0</ns3:atemp>
          </ns3:TrackPointExtension>
        </extensions>
      </trkpt>
      <trkpt lat="42.52925944514572620391845703125" lon="19.76477771066129207611083984375">
        <ele>1675.4000244140625</ele>
        <time>2026-06-18T08:32:22.000Z</time>
        <extensions>
          <ns3:TrackPointExtension>
            <ns3:atemp>23.0</ns3:atemp>
          </ns3:TrackPointExtension>
        </extensions>
      </trkpt>
      <trkpt lat="42.52925944514572620391845703125" lon="19.76477771066129207611083984375">
        <ele>1675.4000244140625</ele>
        <time>2026-06-18T08:32:23.000Z</time>
        <extensions>
          <ns3:TrackPointExtension>
            <ns3:atemp>23.0</ns3:atemp>
          </ns3:TrackPointExtension>
        </extensions>
      </trkpt>
      <trkpt lat="42.52925944514572620391845703125" lon="19.76477771066129207611083984375">
        <ele>1675.4000244140625</ele>
        <time>2026-06-18T08:32:24.000Z</time>
        <extensions>
          <ns3:TrackPointExtension>
            <ns3:atemp>23.0</ns3:atemp>
          </ns3:TrackPointExtension>
        </extensions>
      </trkpt>
      <trkpt lat="42.52925944514572620391845703125" lon="19.76477771066129207611083984375">
        <ele>1675.4000244140625</ele>
        <time>2026-06-18T08:32:25.000Z</time>
        <extensions>
          <ns3:TrackPointExtension>
            <ns3:atemp>23.0</ns3:atemp>
          </ns3:TrackPointExtension>
        </extensions>
      </trkpt>
      <trkpt lat="42.52925944514572620391845703125" lon="19.76477771066129207611083984375">
        <ele>1675.4000244140625</ele>
        <time>2026-06-18T08:32:26.000Z</time>
        <extensions>
          <ns3:TrackPointExtension>
            <ns3:atemp>23.0</ns3:atemp>
          </ns3:TrackPointExtension>
        </extensions>
      </trkpt>
      <trkpt lat="42.52925944514572620391845703125" lon="19.76477771066129207611083984375">
        <ele>1675.4000244140625</ele>
        <time>2026-06-18T08:32:27.000Z</time>
        <extensions>
          <ns3:TrackPointExtension>
            <ns3:atemp>23.0</ns3:atemp>
          </ns3:TrackPointExtension>
        </extensions>
      </trkpt>
      <trkpt lat="42.52925944514572620391845703125" lon="19.76477771066129207611083984375">
        <ele>1675.4000244140625</ele>
        <time>2026-06-18T08:32:28.000Z</time>
        <extensions>
          <ns3:TrackPointExtension>
            <ns3:atemp>23.0</ns3:atemp>
          </ns3:TrackPointExtension>
        </extensions>
      </trkpt>
      <trkpt lat="42.52925944514572620391845703125" lon="19.76477771066129207611083984375">
        <ele>1675.4000244140625</ele>
        <time>2026-06-18T08:32:29.000Z</time>
        <extensions>
          <ns3:TrackPointExtension>
            <ns3:atemp>23.0</ns3:atemp>
          </ns3:TrackPointExtension>
        </extensions>
      </trkpt>
      <trkpt lat="42.52925944514572620391845703125" lon="19.76477771066129207611083984375">
        <ele>1675.4000244140625</ele>
        <time>2026-06-18T08:32:30.000Z</time>
        <extensions>
          <ns3:TrackPointExtension>
            <ns3:atemp>23.0</ns3:atemp>
          </ns3:TrackPointExtension>
        </extensions>
      </trkpt>
      <trkpt lat="42.52925944514572620391845703125" lon="19.76477771066129207611083984375">
        <ele>1675.4000244140625</ele>
        <time>2026-06-18T08:32:31.000Z</time>
        <extensions>
          <ns3:TrackPointExtension>
            <ns3:atemp>23.0</ns3:atemp>
          </ns3:TrackPointExtension>
        </extensions>
      </trkpt>
      <trkpt lat="42.52925944514572620391845703125" lon="19.76477771066129207611083984375">
        <ele>1675.4000244140625</ele>
        <time>2026-06-18T08:32:32.000Z</time>
        <extensions>
          <ns3:TrackPointExtension>
            <ns3:atemp>23.0</ns3:atemp>
          </ns3:TrackPointExtension>
        </extensions>
      </trkpt>
      <trkpt lat="42.52925944514572620391845703125" lon="19.76477771066129207611083984375">
        <ele>1675.4000244140625</ele>
        <time>2026-06-18T08:32:33.000Z</time>
        <extensions>
          <ns3:TrackPointExtension>
            <ns3:atemp>23.0</ns3:atemp>
          </ns3:TrackPointExtension>
        </extensions>
      </trkpt>
      <trkpt lat="42.52925944514572620391845703125" lon="19.76477771066129207611083984375">
        <ele>1675.4000244140625</ele>
        <time>2026-06-18T08:32:34.000Z</time>
        <extensions>
          <ns3:TrackPointExtension>
            <ns3:atemp>23.0</ns3:atemp>
          </ns3:TrackPointExtension>
        </extensions>
      </trkpt>
      <trkpt lat="42.52925944514572620391845703125" lon="19.76477771066129207611083984375">
        <ele>1675.4000244140625</ele>
        <time>2026-06-18T08:32:35.000Z</time>
        <extensions>
          <ns3:TrackPointExtension>
            <ns3:atemp>23.0</ns3:atemp>
          </ns3:TrackPointExtension>
        </extensions>
      </trkpt>
      <trkpt lat="42.52925944514572620391845703125" lon="19.76477771066129207611083984375">
        <ele>1675.4000244140625</ele>
        <time>2026-06-18T08:32:36.000Z</time>
        <extensions>
          <ns3:TrackPointExtension>
            <ns3:atemp>23.0</ns3:atemp>
          </ns3:TrackPointExtension>
        </extensions>
      </trkpt>
      <trkpt lat="42.52925944514572620391845703125" lon="19.76477771066129207611083984375">
        <ele>1675.4000244140625</ele>
        <time>2026-06-18T08:32:37.000Z</time>
        <extensions>
          <ns3:TrackPointExtension>
            <ns3:atemp>23.0</ns3:atemp>
          </ns3:TrackPointExtension>
        </extensions>
      </trkpt>
      <trkpt lat="42.52925944514572620391845703125" lon="19.76477771066129207611083984375">
        <ele>1675.4000244140625</ele>
        <time>2026-06-18T08:32:38.000Z</time>
        <extensions>
          <ns3:TrackPointExtension>
            <ns3:atemp>23.0</ns3:atemp>
          </ns3:TrackPointExtension>
        </extensions>
      </trkpt>
      <trkpt lat="42.52925944514572620391845703125" lon="19.76477771066129207611083984375">
        <ele>1675.4000244140625</ele>
        <time>2026-06-18T08:32:39.000Z</time>
        <extensions>
          <ns3:TrackPointExtension>
            <ns3:atemp>23.0</ns3:atemp>
          </ns3:TrackPointExtension>
        </extensions>
      </trkpt>
      <trkpt lat="42.52925944514572620391845703125" lon="19.76477771066129207611083984375">
        <ele>1675.4000244140625</ele>
        <time>2026-06-18T08:32:40.000Z</time>
        <extensions>
          <ns3:TrackPointExtension>
            <ns3:atemp>23.0</ns3:atemp>
          </ns3:TrackPointExtension>
        </extensions>
      </trkpt>
      <trkpt lat="42.52925944514572620391845703125" lon="19.76477771066129207611083984375">
        <ele>1675.4000244140625</ele>
        <time>2026-06-18T08:32:41.000Z</time>
        <extensions>
          <ns3:TrackPointExtension>
            <ns3:atemp>23.0</ns3:atemp>
          </ns3:TrackPointExtension>
        </extensions>
      </trkpt>
      <trkpt lat="42.52925944514572620391845703125" lon="19.76477771066129207611083984375">
        <ele>1675.4000244140625</ele>
        <time>2026-06-18T08:32:42.000Z</time>
        <extensions>
          <ns3:TrackPointExtension>
            <ns3:atemp>23.0</ns3:atemp>
          </ns3:TrackPointExtension>
        </extensions>
      </trkpt>
      <trkpt lat="42.52925944514572620391845703125" lon="19.76477771066129207611083984375">
        <ele>1675.4000244140625</ele>
        <time>2026-06-18T08:32:43.000Z</time>
        <extensions>
          <ns3:TrackPointExtension>
            <ns3:atemp>23.0</ns3:atemp>
          </ns3:TrackPointExtension>
        </extensions>
      </trkpt>
      <trkpt lat="42.52925944514572620391845703125" lon="19.76477771066129207611083984375">
        <ele>1675.4000244140625</ele>
        <time>2026-06-18T08:32:44.000Z</time>
        <extensions>
          <ns3:TrackPointExtension>
            <ns3:atemp>23.0</ns3:atemp>
          </ns3:TrackPointExtension>
        </extensions>
      </trkpt>
      <trkpt lat="42.52925944514572620391845703125" lon="19.76477771066129207611083984375">
        <ele>1675.4000244140625</ele>
        <time>2026-06-18T08:32:45.000Z</time>
        <extensions>
          <ns3:TrackPointExtension>
            <ns3:atemp>23.0</ns3:atemp>
          </ns3:TrackPointExtension>
        </extensions>
      </trkpt>
      <trkpt lat="42.52925944514572620391845703125" lon="19.76477771066129207611083984375">
        <ele>1675.4000244140625</ele>
        <time>2026-06-18T08:32:46.000Z</time>
        <extensions>
          <ns3:TrackPointExtension>
            <ns3:atemp>23.0</ns3:atemp>
          </ns3:TrackPointExtension>
        </extensions>
      </trkpt>
      <trkpt lat="42.52925944514572620391845703125" lon="19.76477771066129207611083984375">
        <ele>1675.4000244140625</ele>
        <time>2026-06-18T08:32:47.000Z</time>
        <extensions>
          <ns3:TrackPointExtension>
            <ns3:atemp>23.0</ns3:atemp>
          </ns3:TrackPointExtension>
        </extensions>
      </trkpt>
      <trkpt lat="42.52925944514572620391845703125" lon="19.76477771066129207611083984375">
        <ele>1675.4000244140625</ele>
        <time>2026-06-18T08:32:48.000Z</time>
        <extensions>
          <ns3:TrackPointExtension>
            <ns3:atemp>23.0</ns3:atemp>
          </ns3:TrackPointExtension>
        </extensions>
      </trkpt>
      <trkpt lat="42.52925944514572620391845703125" lon="19.76477771066129207611083984375">
        <ele>1675.4000244140625</ele>
        <time>2026-06-18T08:32:49.000Z</time>
        <extensions>
          <ns3:TrackPointExtension>
            <ns3:atemp>23.0</ns3:atemp>
          </ns3:TrackPointExtension>
        </extensions>
      </trkpt>
      <trkpt lat="42.52925944514572620391845703125" lon="19.76477771066129207611083984375">
        <ele>1675.4000244140625</ele>
        <time>2026-06-18T08:32:50.000Z</time>
        <extensions>
          <ns3:TrackPointExtension>
            <ns3:atemp>23.0</ns3:atemp>
          </ns3:TrackPointExtension>
        </extensions>
      </trkpt>
      <trkpt lat="42.52925944514572620391845703125" lon="19.76477771066129207611083984375">
        <ele>1675.4000244140625</ele>
        <time>2026-06-18T08:32:51.000Z</time>
        <extensions>
          <ns3:TrackPointExtension>
            <ns3:atemp>23.0</ns3:atemp>
          </ns3:TrackPointExtension>
        </extensions>
      </trkpt>
      <trkpt lat="42.52925944514572620391845703125" lon="19.76477771066129207611083984375">
        <ele>1675.4000244140625</ele>
        <time>2026-06-18T08:32:52.000Z</time>
        <extensions>
          <ns3:TrackPointExtension>
            <ns3:atemp>23.0</ns3:atemp>
          </ns3:TrackPointExtension>
        </extensions>
      </trkpt>
      <trkpt lat="42.52925944514572620391845703125" lon="19.76477771066129207611083984375">
        <ele>1675.4000244140625</ele>
        <time>2026-06-18T08:32:53.000Z</time>
        <extensions>
          <ns3:TrackPointExtension>
            <ns3:atemp>23.0</ns3:atemp>
          </ns3:TrackPointExtension>
        </extensions>
      </trkpt>
      <trkpt lat="42.52925944514572620391845703125" lon="19.76477771066129207611083984375">
        <ele>1675.4000244140625</ele>
        <time>2026-06-18T08:32:54.000Z</time>
        <extensions>
          <ns3:TrackPointExtension>
            <ns3:atemp>23.0</ns3:atemp>
          </ns3:TrackPointExtension>
        </extensions>
      </trkpt>
      <trkpt lat="42.52925944514572620391845703125" lon="19.76477771066129207611083984375">
        <ele>1675.4000244140625</ele>
        <time>2026-06-18T08:32:55.000Z</time>
        <extensions>
          <ns3:TrackPointExtension>
            <ns3:atemp>23.0</ns3:atemp>
          </ns3:TrackPointExtension>
        </extensions>
      </trkpt>
      <trkpt lat="42.52925944514572620391845703125" lon="19.76477771066129207611083984375">
        <ele>1675.4000244140625</ele>
        <time>2026-06-18T08:32:56.000Z</time>
        <extensions>
          <ns3:TrackPointExtension>
            <ns3:atemp>23.0</ns3:atemp>
          </ns3:TrackPointExtension>
        </extensions>
      </trkpt>
      <trkpt lat="42.52925944514572620391845703125" lon="19.76477771066129207611083984375">
        <ele>1675.4000244140625</ele>
        <time>2026-06-18T08:32:57.000Z</time>
        <extensions>
          <ns3:TrackPointExtension>
            <ns3:atemp>23.0</ns3:atemp>
          </ns3:TrackPointExtension>
        </extensions>
      </trkpt>
      <trkpt lat="42.52925944514572620391845703125" lon="19.76477771066129207611083984375">
        <ele>1675.4000244140625</ele>
        <time>2026-06-18T08:32:58.000Z</time>
        <extensions>
          <ns3:TrackPointExtension>
            <ns3:atemp>23.0</ns3:atemp>
          </ns3:TrackPointExtension>
        </extensions>
      </trkpt>
      <trkpt lat="42.52925944514572620391845703125" lon="19.76477771066129207611083984375">
        <ele>1675.4000244140625</ele>
        <time>2026-06-18T08:32:59.000Z</time>
        <extensions>
          <ns3:TrackPointExtension>
            <ns3:atemp>23.0</ns3:atemp>
          </ns3:TrackPointExtension>
        </extensions>
      </trkpt>
      <trkpt lat="42.52925944514572620391845703125" lon="19.76477771066129207611083984375">
        <ele>1675.4000244140625</ele>
        <time>2026-06-18T08:33:00.000Z</time>
        <extensions>
          <ns3:TrackPointExtension>
            <ns3:atemp>23.0</ns3:atemp>
          </ns3:TrackPointExtension>
        </extensions>
      </trkpt>
      <trkpt lat="42.52925944514572620391845703125" lon="19.76477771066129207611083984375">
        <ele>1675.4000244140625</ele>
        <time>2026-06-18T08:33:01.000Z</time>
        <extensions>
          <ns3:TrackPointExtension>
            <ns3:atemp>23.0</ns3:atemp>
          </ns3:TrackPointExtension>
        </extensions>
      </trkpt>
      <trkpt lat="42.52925944514572620391845703125" lon="19.76477771066129207611083984375">
        <ele>1675.4000244140625</ele>
        <time>2026-06-18T08:33:02.000Z</time>
        <extensions>
          <ns3:TrackPointExtension>
            <ns3:atemp>23.0</ns3:atemp>
          </ns3:TrackPointExtension>
        </extensions>
      </trkpt>
      <trkpt lat="42.52925944514572620391845703125" lon="19.76477771066129207611083984375">
        <ele>1675.4000244140625</ele>
        <time>2026-06-18T08:33:03.000Z</time>
        <extensions>
          <ns3:TrackPointExtension>
            <ns3:atemp>23.0</ns3:atemp>
          </ns3:TrackPointExtension>
        </extensions>
      </trkpt>
      <trkpt lat="42.52925944514572620391845703125" lon="19.76477771066129207611083984375">
        <ele>1675.4000244140625</ele>
        <time>2026-06-18T08:33:04.000Z</time>
        <extensions>
          <ns3:TrackPointExtension>
            <ns3:atemp>23.0</ns3:atemp>
          </ns3:TrackPointExtension>
        </extensions>
      </trkpt>
      <trkpt lat="42.52925944514572620391845703125" lon="19.76477771066129207611083984375">
        <ele>1675.4000244140625</ele>
        <time>2026-06-18T08:33:05.000Z</time>
        <extensions>
          <ns3:TrackPointExtension>
            <ns3:atemp>23.0</ns3:atemp>
          </ns3:TrackPointExtension>
        </extensions>
      </trkpt>
      <trkpt lat="42.52925944514572620391845703125" lon="19.76477771066129207611083984375">
        <ele>1675.4000244140625</ele>
        <time>2026-06-18T08:33:06.000Z</time>
        <extensions>
          <ns3:TrackPointExtension>
            <ns3:atemp>23.0</ns3:atemp>
          </ns3:TrackPointExtension>
        </extensions>
      </trkpt>
      <trkpt lat="42.52925944514572620391845703125" lon="19.76477771066129207611083984375">
        <ele>1675.4000244140625</ele>
        <time>2026-06-18T08:33:07.000Z</time>
        <extensions>
          <ns3:TrackPointExtension>
            <ns3:atemp>23.0</ns3:atemp>
          </ns3:TrackPointExtension>
        </extensions>
      </trkpt>
      <trkpt lat="42.52925944514572620391845703125" lon="19.76477771066129207611083984375">
        <ele>1675.4000244140625</ele>
        <time>2026-06-18T08:33:08.000Z</time>
        <extensions>
          <ns3:TrackPointExtension>
            <ns3:atemp>23.0</ns3:atemp>
          </ns3:TrackPointExtension>
        </extensions>
      </trkpt>
      <trkpt lat="42.52925944514572620391845703125" lon="19.76477771066129207611083984375">
        <ele>1675.4000244140625</ele>
        <time>2026-06-18T08:33:09.000Z</time>
        <extensions>
          <ns3:TrackPointExtension>
            <ns3:atemp>23.0</ns3:atemp>
          </ns3:TrackPointExtension>
        </extensions>
      </trkpt>
      <trkpt lat="42.52925944514572620391845703125" lon="19.76477771066129207611083984375">
        <ele>1675.4000244140625</ele>
        <time>2026-06-18T08:33:10.000Z</time>
        <extensions>
          <ns3:TrackPointExtension>
            <ns3:atemp>23.0</ns3:atemp>
          </ns3:TrackPointExtension>
        </extensions>
      </trkpt>
      <trkpt lat="42.52925944514572620391845703125" lon="19.76477771066129207611083984375">
        <ele>1675.4000244140625</ele>
        <time>2026-06-18T08:33:11.000Z</time>
        <extensions>
          <ns3:TrackPointExtension>
            <ns3:atemp>23.0</ns3:atemp>
          </ns3:TrackPointExtension>
        </extensions>
      </trkpt>
      <trkpt lat="42.52925944514572620391845703125" lon="19.76477771066129207611083984375">
        <ele>1675.4000244140625</ele>
        <time>2026-06-18T08:33:12.000Z</time>
        <extensions>
          <ns3:TrackPointExtension>
            <ns3:atemp>23.0</ns3:atemp>
          </ns3:TrackPointExtension>
        </extensions>
      </trkpt>
      <trkpt lat="42.52925944514572620391845703125" lon="19.76477771066129207611083984375">
        <ele>1675.4000244140625</ele>
        <time>2026-06-18T08:33:13.000Z</time>
        <extensions>
          <ns3:TrackPointExtension>
            <ns3:atemp>23.0</ns3:atemp>
          </ns3:TrackPointExtension>
        </extensions>
      </trkpt>
      <trkpt lat="42.52925944514572620391845703125" lon="19.76477771066129207611083984375">
        <ele>1675.4000244140625</ele>
        <time>2026-06-18T08:33:14.000Z</time>
        <extensions>
          <ns3:TrackPointExtension>
            <ns3:atemp>23.0</ns3:atemp>
          </ns3:TrackPointExtension>
        </extensions>
      </trkpt>
      <trkpt lat="42.52925944514572620391845703125" lon="19.76477771066129207611083984375">
        <ele>1675.4000244140625</ele>
        <time>2026-06-18T08:33:15.000Z</time>
        <extensions>
          <ns3:TrackPointExtension>
            <ns3:atemp>23.0</ns3:atemp>
          </ns3:TrackPointExtension>
        </extensions>
      </trkpt>
      <trkpt lat="42.52925944514572620391845703125" lon="19.76477771066129207611083984375">
        <ele>1675.4000244140625</ele>
        <time>2026-06-18T08:33:16.000Z</time>
        <extensions>
          <ns3:TrackPointExtension>
            <ns3:atemp>23.0</ns3:atemp>
          </ns3:TrackPointExtension>
        </extensions>
      </trkpt>
      <trkpt lat="42.52925944514572620391845703125" lon="19.76477771066129207611083984375">
        <ele>1675.4000244140625</ele>
        <time>2026-06-18T08:33:17.000Z</time>
        <extensions>
          <ns3:TrackPointExtension>
            <ns3:atemp>23.0</ns3:atemp>
          </ns3:TrackPointExtension>
        </extensions>
      </trkpt>
      <trkpt lat="42.52925944514572620391845703125" lon="19.76477771066129207611083984375">
        <ele>1675.4000244140625</ele>
        <time>2026-06-18T08:33:18.000Z</time>
        <extensions>
          <ns3:TrackPointExtension>
            <ns3:atemp>23.0</ns3:atemp>
          </ns3:TrackPointExtension>
        </extensions>
      </trkpt>
      <trkpt lat="42.52925944514572620391845703125" lon="19.76477771066129207611083984375">
        <ele>1675.4000244140625</ele>
        <time>2026-06-18T08:33:19.000Z</time>
        <extensions>
          <ns3:TrackPointExtension>
            <ns3:atemp>23.0</ns3:atemp>
          </ns3:TrackPointExtension>
        </extensions>
      </trkpt>
      <trkpt lat="42.52925944514572620391845703125" lon="19.76477771066129207611083984375">
        <ele>1675.4000244140625</ele>
        <time>2026-06-18T08:33:20.000Z</time>
        <extensions>
          <ns3:TrackPointExtension>
            <ns3:atemp>23.0</ns3:atemp>
          </ns3:TrackPointExtension>
        </extensions>
      </trkpt>
      <trkpt lat="42.52925944514572620391845703125" lon="19.76477771066129207611083984375">
        <ele>1675.4000244140625</ele>
        <time>2026-06-18T08:33:21.000Z</time>
        <extensions>
          <ns3:TrackPointExtension>
            <ns3:atemp>23.0</ns3:atemp>
          </ns3:TrackPointExtension>
        </extensions>
      </trkpt>
      <trkpt lat="42.52925944514572620391845703125" lon="19.76477771066129207611083984375">
        <ele>1675.4000244140625</ele>
        <time>2026-06-18T08:33:22.000Z</time>
        <extensions>
          <ns3:TrackPointExtension>
            <ns3:atemp>23.0</ns3:atemp>
          </ns3:TrackPointExtension>
        </extensions>
      </trkpt>
      <trkpt lat="42.52925944514572620391845703125" lon="19.76477771066129207611083984375">
        <ele>1675.4000244140625</ele>
        <time>2026-06-18T08:33:23.000Z</time>
        <extensions>
          <ns3:TrackPointExtension>
            <ns3:atemp>23.0</ns3:atemp>
          </ns3:TrackPointExtension>
        </extensions>
      </trkpt>
      <trkpt lat="42.52925944514572620391845703125" lon="19.76477771066129207611083984375">
        <ele>1675.4000244140625</ele>
        <time>2026-06-18T08:33:24.000Z</time>
        <extensions>
          <ns3:TrackPointExtension>
            <ns3:atemp>23.0</ns3:atemp>
          </ns3:TrackPointExtension>
        </extensions>
      </trkpt>
      <trkpt lat="42.52925944514572620391845703125" lon="19.76477771066129207611083984375">
        <ele>1675.4000244140625</ele>
        <time>2026-06-18T08:33:25.000Z</time>
        <extensions>
          <ns3:TrackPointExtension>
            <ns3:atemp>23.0</ns3:atemp>
          </ns3:TrackPointExtension>
        </extensions>
      </trkpt>
      <trkpt lat="42.52925944514572620391845703125" lon="19.76477771066129207611083984375">
        <ele>1675.4000244140625</ele>
        <time>2026-06-18T08:33:26.000Z</time>
        <extensions>
          <ns3:TrackPointExtension>
            <ns3:atemp>23.0</ns3:atemp>
          </ns3:TrackPointExtension>
        </extensions>
      </trkpt>
      <trkpt lat="42.52925944514572620391845703125" lon="19.76477771066129207611083984375">
        <ele>1675.4000244140625</ele>
        <time>2026-06-18T08:33:27.000Z</time>
        <extensions>
          <ns3:TrackPointExtension>
            <ns3:atemp>23.0</ns3:atemp>
          </ns3:TrackPointExtension>
        </extensions>
      </trkpt>
      <trkpt lat="42.52925944514572620391845703125" lon="19.76477771066129207611083984375">
        <ele>1675.4000244140625</ele>
        <time>2026-06-18T08:33:28.000Z</time>
        <extensions>
          <ns3:TrackPointExtension>
            <ns3:atemp>23.0</ns3:atemp>
          </ns3:TrackPointExtension>
        </extensions>
      </trkpt>
      <trkpt lat="42.52925944514572620391845703125" lon="19.76477771066129207611083984375">
        <ele>1675.4000244140625</ele>
        <time>2026-06-18T08:33:29.000Z</time>
        <extensions>
          <ns3:TrackPointExtension>
            <ns3:atemp>23.0</ns3:atemp>
          </ns3:TrackPointExtension>
        </extensions>
      </trkpt>
      <trkpt lat="42.52925944514572620391845703125" lon="19.76477771066129207611083984375">
        <ele>1675.4000244140625</ele>
        <time>2026-06-18T08:33:30.000Z</time>
        <extensions>
          <ns3:TrackPointExtension>
            <ns3:atemp>23.0</ns3:atemp>
          </ns3:TrackPointExtension>
        </extensions>
      </trkpt>
      <trkpt lat="42.52925944514572620391845703125" lon="19.76477771066129207611083984375">
        <ele>1675.4000244140625</ele>
        <time>2026-06-18T08:33:31.000Z</time>
        <extensions>
          <ns3:TrackPointExtension>
            <ns3:atemp>23.0</ns3:atemp>
          </ns3:TrackPointExtension>
        </extensions>
      </trkpt>
      <trkpt lat="42.52925944514572620391845703125" lon="19.76477771066129207611083984375">
        <ele>1675.4000244140625</ele>
        <time>2026-06-18T08:33:32.000Z</time>
        <extensions>
          <ns3:TrackPointExtension>
            <ns3:atemp>23.0</ns3:atemp>
          </ns3:TrackPointExtension>
        </extensions>
      </trkpt>
      <trkpt lat="42.52925944514572620391845703125" lon="19.76477771066129207611083984375">
        <ele>1675.4000244140625</ele>
        <time>2026-06-18T08:33:33.000Z</time>
        <extensions>
          <ns3:TrackPointExtension>
            <ns3:atemp>23.0</ns3:atemp>
          </ns3:TrackPointExtension>
        </extensions>
      </trkpt>
      <trkpt lat="42.52925944514572620391845703125" lon="19.76477771066129207611083984375">
        <ele>1675.4000244140625</ele>
        <time>2026-06-18T08:33:34.000Z</time>
        <extensions>
          <ns3:TrackPointExtension>
            <ns3:atemp>24.0</ns3:atemp>
          </ns3:TrackPointExtension>
        </extensions>
      </trkpt>
      <trkpt lat="42.52925944514572620391845703125" lon="19.76477771066129207611083984375">
        <ele>1675.4000244140625</ele>
        <time>2026-06-18T08:33:35.000Z</time>
        <extensions>
          <ns3:TrackPointExtension>
            <ns3:atemp>24.0</ns3:atemp>
          </ns3:TrackPointExtension>
        </extensions>
      </trkpt>
      <trkpt lat="42.52925944514572620391845703125" lon="19.76477771066129207611083984375">
        <ele>1675.4000244140625</ele>
        <time>2026-06-18T08:33:36.000Z</time>
        <extensions>
          <ns3:TrackPointExtension>
            <ns3:atemp>24.0</ns3:atemp>
          </ns3:TrackPointExtension>
        </extensions>
      </trkpt>
      <trkpt lat="42.52925944514572620391845703125" lon="19.76477771066129207611083984375">
        <ele>1675.4000244140625</ele>
        <time>2026-06-18T08:33:37.000Z</time>
        <extensions>
          <ns3:TrackPointExtension>
            <ns3:atemp>24.0</ns3:atemp>
          </ns3:TrackPointExtension>
        </extensions>
      </trkpt>
      <trkpt lat="42.52925944514572620391845703125" lon="19.76477771066129207611083984375">
        <ele>1675.4000244140625</ele>
        <time>2026-06-18T08:33:38.000Z</time>
        <extensions>
          <ns3:TrackPointExtension>
            <ns3:atemp>24.0</ns3:atemp>
          </ns3:TrackPointExtension>
        </extensions>
      </trkpt>
      <trkpt lat="42.52925944514572620391845703125" lon="19.76477771066129207611083984375">
        <ele>1675.4000244140625</ele>
        <time>2026-06-18T08:33:39.000Z</time>
        <extensions>
          <ns3:TrackPointExtension>
            <ns3:atemp>24.0</ns3:atemp>
          </ns3:TrackPointExtension>
        </extensions>
      </trkpt>
      <trkpt lat="42.52925944514572620391845703125" lon="19.76477771066129207611083984375">
        <ele>1675.4000244140625</ele>
        <time>2026-06-18T08:33:40.000Z</time>
        <extensions>
          <ns3:TrackPointExtension>
            <ns3:atemp>24.0</ns3:atemp>
          </ns3:TrackPointExtension>
        </extensions>
      </trkpt>
      <trkpt lat="42.52925944514572620391845703125" lon="19.76477771066129207611083984375">
        <ele>1675.4000244140625</ele>
        <time>2026-06-18T08:33:41.000Z</time>
        <extensions>
          <ns3:TrackPointExtension>
            <ns3:atemp>24.0</ns3:atemp>
          </ns3:TrackPointExtension>
        </extensions>
      </trkpt>
      <trkpt lat="42.52925944514572620391845703125" lon="19.76477771066129207611083984375">
        <ele>1675.4000244140625</ele>
        <time>2026-06-18T08:33:42.000Z</time>
        <extensions>
          <ns3:TrackPointExtension>
            <ns3:atemp>24.0</ns3:atemp>
          </ns3:TrackPointExtension>
        </extensions>
      </trkpt>
      <trkpt lat="42.52925944514572620391845703125" lon="19.76477771066129207611083984375">
        <ele>1675.4000244140625</ele>
        <time>2026-06-18T08:33:43.000Z</time>
        <extensions>
          <ns3:TrackPointExtension>
            <ns3:atemp>24.0</ns3:atemp>
          </ns3:TrackPointExtension>
        </extensions>
      </trkpt>
      <trkpt lat="42.52925944514572620391845703125" lon="19.76477771066129207611083984375">
        <ele>1675.4000244140625</ele>
        <time>2026-06-18T08:33:44.000Z</time>
        <extensions>
          <ns3:TrackPointExtension>
            <ns3:atemp>24.0</ns3:atemp>
          </ns3:TrackPointExtension>
        </extensions>
      </trkpt>
      <trkpt lat="42.52925944514572620391845703125" lon="19.76477771066129207611083984375">
        <ele>1675.4000244140625</ele>
        <time>2026-06-18T08:33:45.000Z</time>
        <extensions>
          <ns3:TrackPointExtension>
            <ns3:atemp>24.0</ns3:atemp>
          </ns3:TrackPointExtension>
        </extensions>
      </trkpt>
      <trkpt lat="42.52925944514572620391845703125" lon="19.76477771066129207611083984375">
        <ele>1675.4000244140625</ele>
        <time>2026-06-18T08:33:46.000Z</time>
        <extensions>
          <ns3:TrackPointExtension>
            <ns3:atemp>24.0</ns3:atemp>
          </ns3:TrackPointExtension>
        </extensions>
      </trkpt>
      <trkpt lat="42.52925944514572620391845703125" lon="19.76477771066129207611083984375">
        <ele>1675.4000244140625</ele>
        <time>2026-06-18T08:33:47.000Z</time>
        <extensions>
          <ns3:TrackPointExtension>
            <ns3:atemp>23.0</ns3:atemp>
          </ns3:TrackPointExtension>
        </extensions>
      </trkpt>
      <trkpt lat="42.52925944514572620391845703125" lon="19.76477771066129207611083984375">
        <ele>1675.4000244140625</ele>
        <time>2026-06-18T08:33:48.000Z</time>
        <extensions>
          <ns3:TrackPointExtension>
            <ns3:atemp>23.0</ns3:atemp>
          </ns3:TrackPointExtension>
        </extensions>
      </trkpt>
      <trkpt lat="42.52925944514572620391845703125" lon="19.76477771066129207611083984375">
        <ele>1675.4000244140625</ele>
        <time>2026-06-18T08:33:49.000Z</time>
        <extensions>
          <ns3:TrackPointExtension>
            <ns3:atemp>23.0</ns3:atemp>
          </ns3:TrackPointExtension>
        </extensions>
      </trkpt>
      <trkpt lat="42.52925944514572620391845703125" lon="19.76477771066129207611083984375">
        <ele>1675.4000244140625</ele>
        <time>2026-06-18T08:33:50.000Z</time>
        <extensions>
          <ns3:TrackPointExtension>
            <ns3:atemp>23.0</ns3:atemp>
          </ns3:TrackPointExtension>
        </extensions>
      </trkpt>
      <trkpt lat="42.52925944514572620391845703125" lon="19.76477771066129207611083984375">
        <ele>1675.4000244140625</ele>
        <time>2026-06-18T08:33:51.000Z</time>
        <extensions>
          <ns3:TrackPointExtension>
            <ns3:atemp>23.0</ns3:atemp>
          </ns3:TrackPointExtension>
        </extensions>
      </trkpt>
      <trkpt lat="42.52925944514572620391845703125" lon="19.76477771066129207611083984375">
        <ele>1675.4000244140625</ele>
        <time>2026-06-18T08:33:52.000Z</time>
        <extensions>
          <ns3:TrackPointExtension>
            <ns3:atemp>23.0</ns3:atemp>
          </ns3:TrackPointExtension>
        </extensions>
      </trkpt>
      <trkpt lat="42.52925944514572620391845703125" lon="19.76477771066129207611083984375">
        <ele>1675.4000244140625</ele>
        <time>2026-06-18T08:33:53.000Z</time>
        <extensions>
          <ns3:TrackPointExtension>
            <ns3:atemp>23.0</ns3:atemp>
          </ns3:TrackPointExtension>
        </extensions>
      </trkpt>
      <trkpt lat="42.52925944514572620391845703125" lon="19.76477771066129207611083984375">
        <ele>1675.4000244140625</ele>
        <time>2026-06-18T08:33:54.000Z</time>
        <extensions>
          <ns3:TrackPointExtension>
            <ns3:atemp>23.0</ns3:atemp>
          </ns3:TrackPointExtension>
        </extensions>
      </trkpt>
      <trkpt lat="42.52925944514572620391845703125" lon="19.76477771066129207611083984375">
        <ele>1675.4000244140625</ele>
        <time>2026-06-18T08:33:55.000Z</time>
        <extensions>
          <ns3:TrackPointExtension>
            <ns3:atemp>24.0</ns3:atemp>
          </ns3:TrackPointExtension>
        </extensions>
      </trkpt>
      <trkpt lat="42.52925944514572620391845703125" lon="19.76477771066129207611083984375">
        <ele>1675.4000244140625</ele>
        <time>2026-06-18T08:33:56.000Z</time>
        <extensions>
          <ns3:TrackPointExtension>
            <ns3:atemp>24.0</ns3:atemp>
          </ns3:TrackPointExtension>
        </extensions>
      </trkpt>
      <trkpt lat="42.52925944514572620391845703125" lon="19.76477771066129207611083984375">
        <ele>1675.4000244140625</ele>
        <time>2026-06-18T08:33:57.000Z</time>
        <extensions>
          <ns3:TrackPointExtension>
            <ns3:atemp>24.0</ns3:atemp>
          </ns3:TrackPointExtension>
        </extensions>
      </trkpt>
      <trkpt lat="42.52925944514572620391845703125" lon="19.76477771066129207611083984375">
        <ele>1675.4000244140625</ele>
        <time>2026-06-18T08:33:58.000Z</time>
        <extensions>
          <ns3:TrackPointExtension>
            <ns3:atemp>24.0</ns3:atemp>
          </ns3:TrackPointExtension>
        </extensions>
      </trkpt>
      <trkpt lat="42.52925944514572620391845703125" lon="19.76477771066129207611083984375">
        <ele>1675.4000244140625</ele>
        <time>2026-06-18T08:33:59.000Z</time>
        <extensions>
          <ns3:TrackPointExtension>
            <ns3:atemp>24.0</ns3:atemp>
          </ns3:TrackPointExtension>
        </extensions>
      </trkpt>
      <trkpt lat="42.52925944514572620391845703125" lon="19.76477771066129207611083984375">
        <ele>1675.4000244140625</ele>
        <time>2026-06-18T08:34:00.000Z</time>
        <extensions>
          <ns3:TrackPointExtension>
            <ns3:atemp>24.0</ns3:atemp>
          </ns3:TrackPointExtension>
        </extensions>
      </trkpt>
      <trkpt lat="42.52925944514572620391845703125" lon="19.76477771066129207611083984375">
        <ele>1675.4000244140625</ele>
        <time>2026-06-18T08:34:01.000Z</time>
        <extensions>
          <ns3:TrackPointExtension>
            <ns3:atemp>24.0</ns3:atemp>
          </ns3:TrackPointExtension>
        </extensions>
      </trkpt>
      <trkpt lat="42.52925944514572620391845703125" lon="19.76477771066129207611083984375">
        <ele>1675.4000244140625</ele>
        <time>2026-06-18T08:34:02.000Z</time>
        <extensions>
          <ns3:TrackPointExtension>
            <ns3:atemp>24.0</ns3:atemp>
          </ns3:TrackPointExtension>
        </extensions>
      </trkpt>
      <trkpt lat="42.52925944514572620391845703125" lon="19.76477771066129207611083984375">
        <ele>1675.4000244140625</ele>
        <time>2026-06-18T08:34:03.000Z</time>
        <extensions>
          <ns3:TrackPointExtension>
            <ns3:atemp>24.0</ns3:atemp>
          </ns3:TrackPointExtension>
        </extensions>
      </trkpt>
      <trkpt lat="42.52925944514572620391845703125" lon="19.76477771066129207611083984375">
        <ele>1675.4000244140625</ele>
        <time>2026-06-18T08:34:04.000Z</time>
        <extensions>
          <ns3:TrackPointExtension>
            <ns3:atemp>24.0</ns3:atemp>
          </ns3:TrackPointExtension>
        </extensions>
      </trkpt>
      <trkpt lat="42.52925944514572620391845703125" lon="19.76477771066129207611083984375">
        <ele>1675.4000244140625</ele>
        <time>2026-06-18T08:34:05.000Z</time>
        <extensions>
          <ns3:TrackPointExtension>
            <ns3:atemp>24.0</ns3:atemp>
          </ns3:TrackPointExtension>
        </extensions>
      </trkpt>
      <trkpt lat="42.52925944514572620391845703125" lon="19.76477771066129207611083984375">
        <ele>1675.4000244140625</ele>
        <time>2026-06-18T08:34:06.000Z</time>
        <extensions>
          <ns3:TrackPointExtension>
            <ns3:atemp>24.0</ns3:atemp>
          </ns3:TrackPointExtension>
        </extensions>
      </trkpt>
      <trkpt lat="42.52925944514572620391845703125" lon="19.76477771066129207611083984375">
        <ele>1675.4000244140625</ele>
        <time>2026-06-18T08:34:07.000Z</time>
        <extensions>
          <ns3:TrackPointExtension>
            <ns3:atemp>24.0</ns3:atemp>
          </ns3:TrackPointExtension>
        </extensions>
      </trkpt>
      <trkpt lat="42.52925944514572620391845703125" lon="19.76477771066129207611083984375">
        <ele>1675.4000244140625</ele>
        <time>2026-06-18T08:34:08.000Z</time>
        <extensions>
          <ns3:TrackPointExtension>
            <ns3:atemp>24.0</ns3:atemp>
          </ns3:TrackPointExtension>
        </extensions>
      </trkpt>
      <trkpt lat="42.52925944514572620391845703125" lon="19.76477771066129207611083984375">
        <ele>1675.4000244140625</ele>
        <time>2026-06-18T08:34:09.000Z</time>
        <extensions>
          <ns3:TrackPointExtension>
            <ns3:atemp>24.0</ns3:atemp>
          </ns3:TrackPointExtension>
        </extensions>
      </trkpt>
      <trkpt lat="42.52925944514572620391845703125" lon="19.76477771066129207611083984375">
        <ele>1675.4000244140625</ele>
        <time>2026-06-18T08:34:10.000Z</time>
        <extensions>
          <ns3:TrackPointExtension>
            <ns3:atemp>24.0</ns3:atemp>
          </ns3:TrackPointExtension>
        </extensions>
      </trkpt>
      <trkpt lat="42.52925944514572620391845703125" lon="19.76477771066129207611083984375">
        <ele>1675.4000244140625</ele>
        <time>2026-06-18T08:34:11.000Z</time>
        <extensions>
          <ns3:TrackPointExtension>
            <ns3:atemp>24.0</ns3:atemp>
          </ns3:TrackPointExtension>
        </extensions>
      </trkpt>
      <trkpt lat="42.52925944514572620391845703125" lon="19.76477771066129207611083984375">
        <ele>1675.4000244140625</ele>
        <time>2026-06-18T08:34:12.000Z</time>
        <extensions>
          <ns3:TrackPointExtension>
            <ns3:atemp>24.0</ns3:atemp>
          </ns3:TrackPointExtension>
        </extensions>
      </trkpt>
      <trkpt lat="42.52925944514572620391845703125" lon="19.76477771066129207611083984375">
        <ele>1675.4000244140625</ele>
        <time>2026-06-18T08:34:13.000Z</time>
        <extensions>
          <ns3:TrackPointExtension>
            <ns3:atemp>24.0</ns3:atemp>
          </ns3:TrackPointExtension>
        </extensions>
      </trkpt>
      <trkpt lat="42.52925944514572620391845703125" lon="19.76477771066129207611083984375">
        <ele>1675.4000244140625</ele>
        <time>2026-06-18T08:34:14.000Z</time>
        <extensions>
          <ns3:TrackPointExtension>
            <ns3:atemp>24.0</ns3:atemp>
          </ns3:TrackPointExtension>
        </extensions>
      </trkpt>
      <trkpt lat="42.52925944514572620391845703125" lon="19.76477771066129207611083984375">
        <ele>1675.4000244140625</ele>
        <time>2026-06-18T08:34:15.000Z</time>
        <extensions>
          <ns3:TrackPointExtension>
            <ns3:atemp>24.0</ns3:atemp>
          </ns3:TrackPointExtension>
        </extensions>
      </trkpt>
      <trkpt lat="42.52925944514572620391845703125" lon="19.76477771066129207611083984375">
        <ele>1675.4000244140625</ele>
        <time>2026-06-18T08:34:16.000Z</time>
        <extensions>
          <ns3:TrackPointExtension>
            <ns3:atemp>24.0</ns3:atemp>
          </ns3:TrackPointExtension>
        </extensions>
      </trkpt>
      <trkpt lat="42.52925944514572620391845703125" lon="19.76477771066129207611083984375">
        <ele>1675.4000244140625</ele>
        <time>2026-06-18T08:34:17.000Z</time>
        <extensions>
          <ns3:TrackPointExtension>
            <ns3:atemp>24.0</ns3:atemp>
          </ns3:TrackPointExtension>
        </extensions>
      </trkpt>
      <trkpt lat="42.52925944514572620391845703125" lon="19.76477771066129207611083984375">
        <ele>1675.4000244140625</ele>
        <time>2026-06-18T08:34:18.000Z</time>
        <extensions>
          <ns3:TrackPointExtension>
            <ns3:atemp>24.0</ns3:atemp>
          </ns3:TrackPointExtension>
        </extensions>
      </trkpt>
      <trkpt lat="42.52925944514572620391845703125" lon="19.76477771066129207611083984375">
        <ele>1675.4000244140625</ele>
        <time>2026-06-18T08:34:19.000Z</time>
        <extensions>
          <ns3:TrackPointExtension>
            <ns3:atemp>24.0</ns3:atemp>
          </ns3:TrackPointExtension>
        </extensions>
      </trkpt>
      <trkpt lat="42.52925944514572620391845703125" lon="19.76477771066129207611083984375">
        <ele>1675.4000244140625</ele>
        <time>2026-06-18T08:34:20.000Z</time>
        <extensions>
          <ns3:TrackPointExtension>
            <ns3:atemp>24.0</ns3:atemp>
          </ns3:TrackPointExtension>
        </extensions>
      </trkpt>
      <trkpt lat="42.52925944514572620391845703125" lon="19.76477771066129207611083984375">
        <ele>1675.4000244140625</ele>
        <time>2026-06-18T08:34:21.000Z</time>
        <extensions>
          <ns3:TrackPointExtension>
            <ns3:atemp>24.0</ns3:atemp>
          </ns3:TrackPointExtension>
        </extensions>
      </trkpt>
      <trkpt lat="42.52925944514572620391845703125" lon="19.76477771066129207611083984375">
        <ele>1675.4000244140625</ele>
        <time>2026-06-18T08:34:22.000Z</time>
        <extensions>
          <ns3:TrackPointExtension>
            <ns3:atemp>24.0</ns3:atemp>
          </ns3:TrackPointExtension>
        </extensions>
      </trkpt>
      <trkpt lat="42.52925944514572620391845703125" lon="19.76477771066129207611083984375">
        <ele>1675.4000244140625</ele>
        <time>2026-06-18T08:34:23.000Z</time>
        <extensions>
          <ns3:TrackPointExtension>
            <ns3:atemp>24.0</ns3:atemp>
          </ns3:TrackPointExtension>
        </extensions>
      </trkpt>
      <trkpt lat="42.52925944514572620391845703125" lon="19.76477771066129207611083984375">
        <ele>1675.4000244140625</ele>
        <time>2026-06-18T08:34:24.000Z</time>
        <extensions>
          <ns3:TrackPointExtension>
            <ns3:atemp>24.0</ns3:atemp>
          </ns3:TrackPointExtension>
        </extensions>
      </trkpt>
      <trkpt lat="42.52925944514572620391845703125" lon="19.76477771066129207611083984375">
        <ele>1675.4000244140625</ele>
        <time>2026-06-18T08:34:25.000Z</time>
        <extensions>
          <ns3:TrackPointExtension>
            <ns3:atemp>24.0</ns3:atemp>
          </ns3:TrackPointExtension>
        </extensions>
      </trkpt>
      <trkpt lat="42.52925944514572620391845703125" lon="19.76477771066129207611083984375">
        <ele>1675.4000244140625</ele>
        <time>2026-06-18T08:34:26.000Z</time>
        <extensions>
          <ns3:TrackPointExtension>
            <ns3:atemp>24.0</ns3:atemp>
          </ns3:TrackPointExtension>
        </extensions>
      </trkpt>
      <trkpt lat="42.52925944514572620391845703125" lon="19.76477771066129207611083984375">
        <ele>1675.4000244140625</ele>
        <time>2026-06-18T08:34:27.000Z</time>
        <extensions>
          <ns3:TrackPointExtension>
            <ns3:atemp>24.0</ns3:atemp>
          </ns3:TrackPointExtension>
        </extensions>
      </trkpt>
      <trkpt lat="42.52925944514572620391845703125" lon="19.76477771066129207611083984375">
        <ele>1675.4000244140625</ele>
        <time>2026-06-18T08:34:28.000Z</time>
        <extensions>
          <ns3:TrackPointExtension>
            <ns3:atemp>24.0</ns3:atemp>
          </ns3:TrackPointExtension>
        </extensions>
      </trkpt>
      <trkpt lat="42.52925944514572620391845703125" lon="19.76477771066129207611083984375">
        <ele>1675.4000244140625</ele>
        <time>2026-06-18T08:34:29.000Z</time>
        <extensions>
          <ns3:TrackPointExtension>
            <ns3:atemp>24.0</ns3:atemp>
          </ns3:TrackPointExtension>
        </extensions>
      </trkpt>
      <trkpt lat="42.52925944514572620391845703125" lon="19.76477771066129207611083984375">
        <ele>1675.4000244140625</ele>
        <time>2026-06-18T08:34:30.000Z</time>
        <extensions>
          <ns3:TrackPointExtension>
            <ns3:atemp>24.0</ns3:atemp>
          </ns3:TrackPointExtension>
        </extensions>
      </trkpt>
      <trkpt lat="42.52925944514572620391845703125" lon="19.76477771066129207611083984375">
        <ele>1675.4000244140625</ele>
        <time>2026-06-18T08:34:31.000Z</time>
        <extensions>
          <ns3:TrackPointExtension>
            <ns3:atemp>24.0</ns3:atemp>
          </ns3:TrackPointExtension>
        </extensions>
      </trkpt>
      <trkpt lat="42.52925944514572620391845703125" lon="19.76477771066129207611083984375">
        <ele>1675.4000244140625</ele>
        <time>2026-06-18T08:34:32.000Z</time>
        <extensions>
          <ns3:TrackPointExtension>
            <ns3:atemp>24.0</ns3:atemp>
          </ns3:TrackPointExtension>
        </extensions>
      </trkpt>
      <trkpt lat="42.52925944514572620391845703125" lon="19.76477771066129207611083984375">
        <ele>1675.4000244140625</ele>
        <time>2026-06-18T08:34:33.000Z</time>
        <extensions>
          <ns3:TrackPointExtension>
            <ns3:atemp>24.0</ns3:atemp>
          </ns3:TrackPointExtension>
        </extensions>
      </trkpt>
      <trkpt lat="42.52925944514572620391845703125" lon="19.76477771066129207611083984375">
        <ele>1675.4000244140625</ele>
        <time>2026-06-18T08:34:34.000Z</time>
        <extensions>
          <ns3:TrackPointExtension>
            <ns3:atemp>24.0</ns3:atemp>
          </ns3:TrackPointExtension>
        </extensions>
      </trkpt>
      <trkpt lat="42.52925944514572620391845703125" lon="19.76477771066129207611083984375">
        <ele>1675.4000244140625</ele>
        <time>2026-06-18T08:34:35.000Z</time>
        <extensions>
          <ns3:TrackPointExtension>
            <ns3:atemp>24.0</ns3:atemp>
          </ns3:TrackPointExtension>
        </extensions>
      </trkpt>
      <trkpt lat="42.52925944514572620391845703125" lon="19.76477771066129207611083984375">
        <ele>1675.4000244140625</ele>
        <time>2026-06-18T08:34:36.000Z</time>
        <extensions>
          <ns3:TrackPointExtension>
            <ns3:atemp>24.0</ns3:atemp>
          </ns3:TrackPointExtension>
        </extensions>
      </trkpt>
      <trkpt lat="42.52925944514572620391845703125" lon="19.76477771066129207611083984375">
        <ele>1675.4000244140625</ele>
        <time>2026-06-18T08:34:37.000Z</time>
        <extensions>
          <ns3:TrackPointExtension>
            <ns3:atemp>24.0</ns3:atemp>
          </ns3:TrackPointExtension>
        </extensions>
      </trkpt>
      <trkpt lat="42.52925944514572620391845703125" lon="19.76477771066129207611083984375">
        <ele>1675.4000244140625</ele>
        <time>2026-06-18T08:34:38.000Z</time>
        <extensions>
          <ns3:TrackPointExtension>
            <ns3:atemp>24.0</ns3:atemp>
          </ns3:TrackPointExtension>
        </extensions>
      </trkpt>
      <trkpt lat="42.52925944514572620391845703125" lon="19.76477771066129207611083984375">
        <ele>1675.4000244140625</ele>
        <time>2026-06-18T08:34:39.000Z</time>
        <extensions>
          <ns3:TrackPointExtension>
            <ns3:atemp>24.0</ns3:atemp>
          </ns3:TrackPointExtension>
        </extensions>
      </trkpt>
      <trkpt lat="42.52925944514572620391845703125" lon="19.76477771066129207611083984375">
        <ele>1675.4000244140625</ele>
        <time>2026-06-18T08:34:40.000Z</time>
        <extensions>
          <ns3:TrackPointExtension>
            <ns3:atemp>24.0</ns3:atemp>
          </ns3:TrackPointExtension>
        </extensions>
      </trkpt>
      <trkpt lat="42.52925944514572620391845703125" lon="19.76477771066129207611083984375">
        <ele>1675.4000244140625</ele>
        <time>2026-06-18T08:34:41.000Z</time>
        <extensions>
          <ns3:TrackPointExtension>
            <ns3:atemp>24.0</ns3:atemp>
          </ns3:TrackPointExtension>
        </extensions>
      </trkpt>
      <trkpt lat="42.52925944514572620391845703125" lon="19.76477771066129207611083984375">
        <ele>1675.4000244140625</ele>
        <time>2026-06-18T08:34:42.000Z</time>
        <extensions>
          <ns3:TrackPointExtension>
            <ns3:atemp>24.0</ns3:atemp>
          </ns3:TrackPointExtension>
        </extensions>
      </trkpt>
      <trkpt lat="42.52925944514572620391845703125" lon="19.76477771066129207611083984375">
        <ele>1675.4000244140625</ele>
        <time>2026-06-18T08:34:43.000Z</time>
        <extensions>
          <ns3:TrackPointExtension>
            <ns3:atemp>24.0</ns3:atemp>
          </ns3:TrackPointExtension>
        </extensions>
      </trkpt>
      <trkpt lat="42.52925944514572620391845703125" lon="19.76477771066129207611083984375">
        <ele>1675.4000244140625</ele>
        <time>2026-06-18T08:34:44.000Z</time>
        <extensions>
          <ns3:TrackPointExtension>
            <ns3:atemp>24.0</ns3:atemp>
          </ns3:TrackPointExtension>
        </extensions>
      </trkpt>
      <trkpt lat="42.52925944514572620391845703125" lon="19.76477771066129207611083984375">
        <ele>1675.4000244140625</ele>
        <time>2026-06-18T08:34:45.000Z</time>
        <extensions>
          <ns3:TrackPointExtension>
            <ns3:atemp>24.0</ns3:atemp>
          </ns3:TrackPointExtension>
        </extensions>
      </trkpt>
      <trkpt lat="42.52925944514572620391845703125" lon="19.76477771066129207611083984375">
        <ele>1675.4000244140625</ele>
        <time>2026-06-18T08:34:46.000Z</time>
        <extensions>
          <ns3:TrackPointExtension>
            <ns3:atemp>24.0</ns3:atemp>
          </ns3:TrackPointExtension>
        </extensions>
      </trkpt>
      <trkpt lat="42.52925944514572620391845703125" lon="19.76477771066129207611083984375">
        <ele>1675.4000244140625</ele>
        <time>2026-06-18T08:34:47.000Z</time>
        <extensions>
          <ns3:TrackPointExtension>
            <ns3:atemp>24.0</ns3:atemp>
          </ns3:TrackPointExtension>
        </extensions>
      </trkpt>
      <trkpt lat="42.52925944514572620391845703125" lon="19.76477771066129207611083984375">
        <ele>1675.4000244140625</ele>
        <time>2026-06-18T08:34:48.000Z</time>
        <extensions>
          <ns3:TrackPointExtension>
            <ns3:atemp>24.0</ns3:atemp>
          </ns3:TrackPointExtension>
        </extensions>
      </trkpt>
      <trkpt lat="42.52925944514572620391845703125" lon="19.76477771066129207611083984375">
        <ele>1675.4000244140625</ele>
        <time>2026-06-18T08:34:49.000Z</time>
        <extensions>
          <ns3:TrackPointExtension>
            <ns3:atemp>24.0</ns3:atemp>
          </ns3:TrackPointExtension>
        </extensions>
      </trkpt>
      <trkpt lat="42.52925944514572620391845703125" lon="19.76477771066129207611083984375">
        <ele>1675.4000244140625</ele>
        <time>2026-06-18T08:34:50.000Z</time>
        <extensions>
          <ns3:TrackPointExtension>
            <ns3:atemp>24.0</ns3:atemp>
          </ns3:TrackPointExtension>
        </extensions>
      </trkpt>
      <trkpt lat="42.52925944514572620391845703125" lon="19.76477771066129207611083984375">
        <ele>1675.4000244140625</ele>
        <time>2026-06-18T08:34:51.000Z</time>
        <extensions>
          <ns3:TrackPointExtension>
            <ns3:atemp>24.0</ns3:atemp>
          </ns3:TrackPointExtension>
        </extensions>
      </trkpt>
      <trkpt lat="42.52925944514572620391845703125" lon="19.76477771066129207611083984375">
        <ele>1675.4000244140625</ele>
        <time>2026-06-18T08:34:52.000Z</time>
        <extensions>
          <ns3:TrackPointExtension>
            <ns3:atemp>24.0</ns3:atemp>
          </ns3:TrackPointExtension>
        </extensions>
      </trkpt>
      <trkpt lat="42.52925944514572620391845703125" lon="19.76477771066129207611083984375">
        <ele>1675.4000244140625</ele>
        <time>2026-06-18T08:34:53.000Z</time>
        <extensions>
          <ns3:TrackPointExtension>
            <ns3:atemp>24.0</ns3:atemp>
          </ns3:TrackPointExtension>
        </extensions>
      </trkpt>
      <trkpt lat="42.52925944514572620391845703125" lon="19.76477771066129207611083984375">
        <ele>1675.4000244140625</ele>
        <time>2026-06-18T08:34:54.000Z</time>
        <extensions>
          <ns3:TrackPointExtension>
            <ns3:atemp>24.0</ns3:atemp>
          </ns3:TrackPointExtension>
        </extensions>
      </trkpt>
      <trkpt lat="42.52925944514572620391845703125" lon="19.76477771066129207611083984375">
        <ele>1675.4000244140625</ele>
        <time>2026-06-18T08:34:55.000Z</time>
        <extensions>
          <ns3:TrackPointExtension>
            <ns3:atemp>24.0</ns3:atemp>
          </ns3:TrackPointExtension>
        </extensions>
      </trkpt>
      <trkpt lat="42.52925944514572620391845703125" lon="19.76477771066129207611083984375">
        <ele>1675.4000244140625</ele>
        <time>2026-06-18T08:34:56.000Z</time>
        <extensions>
          <ns3:TrackPointExtension>
            <ns3:atemp>24.0</ns3:atemp>
          </ns3:TrackPointExtension>
        </extensions>
      </trkpt>
      <trkpt lat="42.52925944514572620391845703125" lon="19.76477771066129207611083984375">
        <ele>1675.4000244140625</ele>
        <time>2026-06-18T08:34:57.000Z</time>
        <extensions>
          <ns3:TrackPointExtension>
            <ns3:atemp>24.0</ns3:atemp>
          </ns3:TrackPointExtension>
        </extensions>
      </trkpt>
      <trkpt lat="42.52925944514572620391845703125" lon="19.76477771066129207611083984375">
        <ele>1675.4000244140625</ele>
        <time>2026-06-18T08:34:58.000Z</time>
        <extensions>
          <ns3:TrackPointExtension>
            <ns3:atemp>24.0</ns3:atemp>
          </ns3:TrackPointExtension>
        </extensions>
      </trkpt>
      <trkpt lat="42.52925944514572620391845703125" lon="19.76477771066129207611083984375">
        <ele>1675.4000244140625</ele>
        <time>2026-06-18T08:34:59.000Z</time>
        <extensions>
          <ns3:TrackPointExtension>
            <ns3:atemp>24.0</ns3:atemp>
          </ns3:TrackPointExtension>
        </extensions>
      </trkpt>
      <trkpt lat="42.52925944514572620391845703125" lon="19.76477771066129207611083984375">
        <ele>1675.4000244140625</ele>
        <time>2026-06-18T08:35:00.000Z</time>
        <extensions>
          <ns3:TrackPointExtension>
            <ns3:atemp>24.0</ns3:atemp>
          </ns3:TrackPointExtension>
        </extensions>
      </trkpt>
      <trkpt lat="42.52925944514572620391845703125" lon="19.76477771066129207611083984375">
        <ele>1675.4000244140625</ele>
        <time>2026-06-18T08:35:01.000Z</time>
        <extensions>
          <ns3:TrackPointExtension>
            <ns3:atemp>24.0</ns3:atemp>
          </ns3:TrackPointExtension>
        </extensions>
      </trkpt>
      <trkpt lat="42.52925944514572620391845703125" lon="19.76477771066129207611083984375">
        <ele>1675.4000244140625</ele>
        <time>2026-06-18T08:35:02.000Z</time>
        <extensions>
          <ns3:TrackPointExtension>
            <ns3:atemp>24.0</ns3:atemp>
          </ns3:TrackPointExtension>
        </extensions>
      </trkpt>
      <trkpt lat="42.52925944514572620391845703125" lon="19.76477771066129207611083984375">
        <ele>1675.4000244140625</ele>
        <time>2026-06-18T08:35:03.000Z</time>
        <extensions>
          <ns3:TrackPointExtension>
            <ns3:atemp>24.0</ns3:atemp>
          </ns3:TrackPointExtension>
        </extensions>
      </trkpt>
      <trkpt lat="42.52925944514572620391845703125" lon="19.76477771066129207611083984375">
        <ele>1675.4000244140625</ele>
        <time>2026-06-18T08:35:04.000Z</time>
        <extensions>
          <ns3:TrackPointExtension>
            <ns3:atemp>24.0</ns3:atemp>
          </ns3:TrackPointExtension>
        </extensions>
      </trkpt>
      <trkpt lat="42.52925944514572620391845703125" lon="19.76477771066129207611083984375">
        <ele>1675.4000244140625</ele>
        <time>2026-06-18T08:35:05.000Z</time>
        <extensions>
          <ns3:TrackPointExtension>
            <ns3:atemp>24.0</ns3:atemp>
          </ns3:TrackPointExtension>
        </extensions>
      </trkpt>
      <trkpt lat="42.52925944514572620391845703125" lon="19.76477771066129207611083984375">
        <ele>1675.4000244140625</ele>
        <time>2026-06-18T08:35:06.000Z</time>
        <extensions>
          <ns3:TrackPointExtension>
            <ns3:atemp>24.0</ns3:atemp>
          </ns3:TrackPointExtension>
        </extensions>
      </trkpt>
      <trkpt lat="42.52925944514572620391845703125" lon="19.76477771066129207611083984375">
        <ele>1675.4000244140625</ele>
        <time>2026-06-18T08:35:07.000Z</time>
        <extensions>
          <ns3:TrackPointExtension>
            <ns3:atemp>24.0</ns3:atemp>
          </ns3:TrackPointExtension>
        </extensions>
      </trkpt>
      <trkpt lat="42.52925944514572620391845703125" lon="19.76477771066129207611083984375">
        <ele>1675.4000244140625</ele>
        <time>2026-06-18T08:35:08.000Z</time>
        <extensions>
          <ns3:TrackPointExtension>
            <ns3:atemp>24.0</ns3:atemp>
          </ns3:TrackPointExtension>
        </extensions>
      </trkpt>
      <trkpt lat="42.52925944514572620391845703125" lon="19.76477771066129207611083984375">
        <ele>1675.4000244140625</ele>
        <time>2026-06-18T08:35:09.000Z</time>
        <extensions>
          <ns3:TrackPointExtension>
            <ns3:atemp>24.0</ns3:atemp>
          </ns3:TrackPointExtension>
        </extensions>
      </trkpt>
      <trkpt lat="42.52925944514572620391845703125" lon="19.76477771066129207611083984375">
        <ele>1675.4000244140625</ele>
        <time>2026-06-18T08:35:10.000Z</time>
        <extensions>
          <ns3:TrackPointExtension>
            <ns3:atemp>24.0</ns3:atemp>
          </ns3:TrackPointExtension>
        </extensions>
      </trkpt>
      <trkpt lat="42.52925944514572620391845703125" lon="19.76477771066129207611083984375">
        <ele>1675.4000244140625</ele>
        <time>2026-06-18T08:35:11.000Z</time>
        <extensions>
          <ns3:TrackPointExtension>
            <ns3:atemp>24.0</ns3:atemp>
          </ns3:TrackPointExtension>
        </extensions>
      </trkpt>
      <trkpt lat="42.52925944514572620391845703125" lon="19.76477771066129207611083984375">
        <ele>1675.4000244140625</ele>
        <time>2026-06-18T08:35:12.000Z</time>
        <extensions>
          <ns3:TrackPointExtension>
            <ns3:atemp>24.0</ns3:atemp>
          </ns3:TrackPointExtension>
        </extensions>
      </trkpt>
      <trkpt lat="42.52925944514572620391845703125" lon="19.76477771066129207611083984375">
        <ele>1675.4000244140625</ele>
        <time>2026-06-18T08:35:13.000Z</time>
        <extensions>
          <ns3:TrackPointExtension>
            <ns3:atemp>24.0</ns3:atemp>
          </ns3:TrackPointExtension>
        </extensions>
      </trkpt>
      <trkpt lat="42.52925944514572620391845703125" lon="19.76477771066129207611083984375">
        <ele>1675.4000244140625</ele>
        <time>2026-06-18T08:35:14.000Z</time>
        <extensions>
          <ns3:TrackPointExtension>
            <ns3:atemp>24.0</ns3:atemp>
          </ns3:TrackPointExtension>
        </extensions>
      </trkpt>
      <trkpt lat="42.52925944514572620391845703125" lon="19.76477771066129207611083984375">
        <ele>1675.4000244140625</ele>
        <time>2026-06-18T08:35:15.000Z</time>
        <extensions>
          <ns3:TrackPointExtension>
            <ns3:atemp>24.0</ns3:atemp>
          </ns3:TrackPointExtension>
        </extensions>
      </trkpt>
      <trkpt lat="42.52925944514572620391845703125" lon="19.76477771066129207611083984375">
        <ele>1675.4000244140625</ele>
        <time>2026-06-18T08:35:16.000Z</time>
        <extensions>
          <ns3:TrackPointExtension>
            <ns3:atemp>24.0</ns3:atemp>
          </ns3:TrackPointExtension>
        </extensions>
      </trkpt>
      <trkpt lat="42.52925944514572620391845703125" lon="19.76477771066129207611083984375">
        <ele>1675.4000244140625</ele>
        <time>2026-06-18T08:35:17.000Z</time>
        <extensions>
          <ns3:TrackPointExtension>
            <ns3:atemp>24.0</ns3:atemp>
          </ns3:TrackPointExtension>
        </extensions>
      </trkpt>
      <trkpt lat="42.52925944514572620391845703125" lon="19.76477771066129207611083984375">
        <ele>1675.4000244140625</ele>
        <time>2026-06-18T08:35:18.000Z</time>
        <extensions>
          <ns3:TrackPointExtension>
            <ns3:atemp>24.0</ns3:atemp>
          </ns3:TrackPointExtension>
        </extensions>
      </trkpt>
      <trkpt lat="42.52925944514572620391845703125" lon="19.76477771066129207611083984375">
        <ele>1675.4000244140625</ele>
        <time>2026-06-18T08:35:19.000Z</time>
        <extensions>
          <ns3:TrackPointExtension>
            <ns3:atemp>24.0</ns3:atemp>
          </ns3:TrackPointExtension>
        </extensions>
      </trkpt>
      <trkpt lat="42.52925944514572620391845703125" lon="19.76477771066129207611083984375">
        <ele>1675.4000244140625</ele>
        <time>2026-06-18T08:35:20.000Z</time>
        <extensions>
          <ns3:TrackPointExtension>
            <ns3:atemp>24.0</ns3:atemp>
          </ns3:TrackPointExtension>
        </extensions>
      </trkpt>
      <trkpt lat="42.52925944514572620391845703125" lon="19.76477771066129207611083984375">
        <ele>1675.4000244140625</ele>
        <time>2026-06-18T08:35:21.000Z</time>
        <extensions>
          <ns3:TrackPointExtension>
            <ns3:atemp>24.0</ns3:atemp>
          </ns3:TrackPointExtension>
        </extensions>
      </trkpt>
      <trkpt lat="42.52925944514572620391845703125" lon="19.76477771066129207611083984375">
        <ele>1675.4000244140625</ele>
        <time>2026-06-18T08:35:22.000Z</time>
        <extensions>
          <ns3:TrackPointExtension>
            <ns3:atemp>24.0</ns3:atemp>
          </ns3:TrackPointExtension>
        </extensions>
      </trkpt>
      <trkpt lat="42.52925944514572620391845703125" lon="19.76477771066129207611083984375">
        <ele>1675.4000244140625</ele>
        <time>2026-06-18T08:35:23.000Z</time>
        <extensions>
          <ns3:TrackPointExtension>
            <ns3:atemp>24.0</ns3:atemp>
          </ns3:TrackPointExtension>
        </extensions>
      </trkpt>
      <trkpt lat="42.52925944514572620391845703125" lon="19.76477771066129207611083984375">
        <ele>1675.4000244140625</ele>
        <time>2026-06-18T08:35:24.000Z</time>
        <extensions>
          <ns3:TrackPointExtension>
            <ns3:atemp>24.0</ns3:atemp>
          </ns3:TrackPointExtension>
        </extensions>
      </trkpt>
      <trkpt lat="42.52925944514572620391845703125" lon="19.76477771066129207611083984375">
        <ele>1675.4000244140625</ele>
        <time>2026-06-18T08:35:25.000Z</time>
        <extensions>
          <ns3:TrackPointExtension>
            <ns3:atemp>24.0</ns3:atemp>
          </ns3:TrackPointExtension>
        </extensions>
      </trkpt>
      <trkpt lat="42.52925944514572620391845703125" lon="19.76477771066129207611083984375">
        <ele>1675.4000244140625</ele>
        <time>2026-06-18T08:35:26.000Z</time>
        <extensions>
          <ns3:TrackPointExtension>
            <ns3:atemp>24.0</ns3:atemp>
          </ns3:TrackPointExtension>
        </extensions>
      </trkpt>
      <trkpt lat="42.52925944514572620391845703125" lon="19.76477771066129207611083984375">
        <ele>1675.4000244140625</ele>
        <time>2026-06-18T08:35:27.000Z</time>
        <extensions>
          <ns3:TrackPointExtension>
            <ns3:atemp>24.0</ns3:atemp>
          </ns3:TrackPointExtension>
        </extensions>
      </trkpt>
      <trkpt lat="42.52925944514572620391845703125" lon="19.76477771066129207611083984375">
        <ele>1675.4000244140625</ele>
        <time>2026-06-18T08:35:28.000Z</time>
        <extensions>
          <ns3:TrackPointExtension>
            <ns3:atemp>24.0</ns3:atemp>
          </ns3:TrackPointExtension>
        </extensions>
      </trkpt>
      <trkpt lat="42.52925944514572620391845703125" lon="19.76477771066129207611083984375">
        <ele>1675.4000244140625</ele>
        <time>2026-06-18T08:35:29.000Z</time>
        <extensions>
          <ns3:TrackPointExtension>
            <ns3:atemp>24.0</ns3:atemp>
          </ns3:TrackPointExtension>
        </extensions>
      </trkpt>
      <trkpt lat="42.52925944514572620391845703125" lon="19.76477771066129207611083984375">
        <ele>1675.4000244140625</ele>
        <time>2026-06-18T08:35:30.000Z</time>
        <extensions>
          <ns3:TrackPointExtension>
            <ns3:atemp>24.0</ns3:atemp>
          </ns3:TrackPointExtension>
        </extensions>
      </trkpt>
      <trkpt lat="42.52925944514572620391845703125" lon="19.76477771066129207611083984375">
        <ele>1675.4000244140625</ele>
        <time>2026-06-18T08:35:31.000Z</time>
        <extensions>
          <ns3:TrackPointExtension>
            <ns3:atemp>24.0</ns3:atemp>
          </ns3:TrackPointExtension>
        </extensions>
      </trkpt>
      <trkpt lat="42.52925944514572620391845703125" lon="19.76477771066129207611083984375">
        <ele>1675.4000244140625</ele>
        <time>2026-06-18T08:35:32.000Z</time>
        <extensions>
          <ns3:TrackPointExtension>
            <ns3:atemp>24.0</ns3:atemp>
          </ns3:TrackPointExtension>
        </extensions>
      </trkpt>
      <trkpt lat="42.52925944514572620391845703125" lon="19.76477771066129207611083984375">
        <ele>1675.4000244140625</ele>
        <time>2026-06-18T08:35:33.000Z</time>
        <extensions>
          <ns3:TrackPointExtension>
            <ns3:atemp>24.0</ns3:atemp>
          </ns3:TrackPointExtension>
        </extensions>
      </trkpt>
      <trkpt lat="42.52925944514572620391845703125" lon="19.76477771066129207611083984375">
        <ele>1675.4000244140625</ele>
        <time>2026-06-18T08:35:34.000Z</time>
        <extensions>
          <ns3:TrackPointExtension>
            <ns3:atemp>24.0</ns3:atemp>
          </ns3:TrackPointExtension>
        </extensions>
      </trkpt>
      <trkpt lat="42.52925944514572620391845703125" lon="19.76477771066129207611083984375">
        <ele>1675.4000244140625</ele>
        <time>2026-06-18T08:35:35.000Z</time>
        <extensions>
          <ns3:TrackPointExtension>
            <ns3:atemp>24.0</ns3:atemp>
          </ns3:TrackPointExtension>
        </extensions>
      </trkpt>
      <trkpt lat="42.52925944514572620391845703125" lon="19.76477771066129207611083984375">
        <ele>1675.4000244140625</ele>
        <time>2026-06-18T08:35:36.000Z</time>
        <extensions>
          <ns3:TrackPointExtension>
            <ns3:atemp>24.0</ns3:atemp>
          </ns3:TrackPointExtension>
        </extensions>
      </trkpt>
      <trkpt lat="42.52925944514572620391845703125" lon="19.76477771066129207611083984375">
        <ele>1675.4000244140625</ele>
        <time>2026-06-18T08:35:37.000Z</time>
        <extensions>
          <ns3:TrackPointExtension>
            <ns3:atemp>24.0</ns3:atemp>
          </ns3:TrackPointExtension>
        </extensions>
      </trkpt>
      <trkpt lat="42.52925944514572620391845703125" lon="19.76477771066129207611083984375">
        <ele>1675.4000244140625</ele>
        <time>2026-06-18T08:35:38.000Z</time>
        <extensions>
          <ns3:TrackPointExtension>
            <ns3:atemp>24.0</ns3:atemp>
          </ns3:TrackPointExtension>
        </extensions>
      </trkpt>
      <trkpt lat="42.52925944514572620391845703125" lon="19.76477771066129207611083984375">
        <ele>1675.4000244140625</ele>
        <time>2026-06-18T08:35:39.000Z</time>
        <extensions>
          <ns3:TrackPointExtension>
            <ns3:atemp>24.0</ns3:atemp>
          </ns3:TrackPointExtension>
        </extensions>
      </trkpt>
      <trkpt lat="42.52925944514572620391845703125" lon="19.76477771066129207611083984375">
        <ele>1675.4000244140625</ele>
        <time>2026-06-18T08:35:40.000Z</time>
        <extensions>
          <ns3:TrackPointExtension>
            <ns3:atemp>24.0</ns3:atemp>
          </ns3:TrackPointExtension>
        </extensions>
      </trkpt>
      <trkpt lat="42.52925944514572620391845703125" lon="19.76477771066129207611083984375">
        <ele>1675.4000244140625</ele>
        <time>2026-06-18T08:35:41.000Z</time>
        <extensions>
          <ns3:TrackPointExtension>
            <ns3:atemp>24.0</ns3:atemp>
          </ns3:TrackPointExtension>
        </extensions>
      </trkpt>
      <trkpt lat="42.52925944514572620391845703125" lon="19.76477771066129207611083984375">
        <ele>1675.4000244140625</ele>
        <time>2026-06-18T08:35:42.000Z</time>
        <extensions>
          <ns3:TrackPointExtension>
            <ns3:atemp>24.0</ns3:atemp>
          </ns3:TrackPointExtension>
        </extensions>
      </trkpt>
      <trkpt lat="42.52925944514572620391845703125" lon="19.76477771066129207611083984375">
        <ele>1675.4000244140625</ele>
        <time>2026-06-18T08:35:43.000Z</time>
        <extensions>
          <ns3:TrackPointExtension>
            <ns3:atemp>24.0</ns3:atemp>
          </ns3:TrackPointExtension>
        </extensions>
      </trkpt>
      <trkpt lat="42.52925944514572620391845703125" lon="19.76477771066129207611083984375">
        <ele>1675.4000244140625</ele>
        <time>2026-06-18T08:35:44.000Z</time>
        <extensions>
          <ns3:TrackPointExtension>
            <ns3:atemp>24.0</ns3:atemp>
          </ns3:TrackPointExtension>
        </extensions>
      </trkpt>
      <trkpt lat="42.52925944514572620391845703125" lon="19.76477771066129207611083984375">
        <ele>1675.4000244140625</ele>
        <time>2026-06-18T08:35:45.000Z</time>
        <extensions>
          <ns3:TrackPointExtension>
            <ns3:atemp>24.0</ns3:atemp>
          </ns3:TrackPointExtension>
        </extensions>
      </trkpt>
      <trkpt lat="42.52925944514572620391845703125" lon="19.76477771066129207611083984375">
        <ele>1675.4000244140625</ele>
        <time>2026-06-18T08:35:46.000Z</time>
        <extensions>
          <ns3:TrackPointExtension>
            <ns3:atemp>24.0</ns3:atemp>
          </ns3:TrackPointExtension>
        </extensions>
      </trkpt>
      <trkpt lat="42.52925944514572620391845703125" lon="19.76477771066129207611083984375">
        <ele>1675.4000244140625</ele>
        <time>2026-06-18T08:35:47.000Z</time>
        <extensions>
          <ns3:TrackPointExtension>
            <ns3:atemp>24.0</ns3:atemp>
          </ns3:TrackPointExtension>
        </extensions>
      </trkpt>
      <trkpt lat="42.52925944514572620391845703125" lon="19.76477771066129207611083984375">
        <ele>1675.4000244140625</ele>
        <time>2026-06-18T08:35:48.000Z</time>
        <extensions>
          <ns3:TrackPointExtension>
            <ns3:atemp>24.0</ns3:atemp>
          </ns3:TrackPointExtension>
        </extensions>
      </trkpt>
      <trkpt lat="42.52925944514572620391845703125" lon="19.76477771066129207611083984375">
        <ele>1675.4000244140625</ele>
        <time>2026-06-18T08:35:49.000Z</time>
        <extensions>
          <ns3:TrackPointExtension>
            <ns3:atemp>24.0</ns3:atemp>
          </ns3:TrackPointExtension>
        </extensions>
      </trkpt>
      <trkpt lat="42.52925944514572620391845703125" lon="19.76477771066129207611083984375">
        <ele>1675.4000244140625</ele>
        <time>2026-06-18T08:35:50.000Z</time>
        <extensions>
          <ns3:TrackPointExtension>
            <ns3:atemp>24.0</ns3:atemp>
          </ns3:TrackPointExtension>
        </extensions>
      </trkpt>
      <trkpt lat="42.52925944514572620391845703125" lon="19.76477771066129207611083984375">
        <ele>1675.4000244140625</ele>
        <time>2026-06-18T08:35:51.000Z</time>
        <extensions>
          <ns3:TrackPointExtension>
            <ns3:atemp>24.0</ns3:atemp>
          </ns3:TrackPointExtension>
        </extensions>
      </trkpt>
      <trkpt lat="42.52925944514572620391845703125" lon="19.76477771066129207611083984375">
        <ele>1675.4000244140625</ele>
        <time>2026-06-18T08:35:52.000Z</time>
        <extensions>
          <ns3:TrackPointExtension>
            <ns3:atemp>24.0</ns3:atemp>
          </ns3:TrackPointExtension>
        </extensions>
      </trkpt>
      <trkpt lat="42.52925944514572620391845703125" lon="19.76477771066129207611083984375">
        <ele>1675.4000244140625</ele>
        <time>2026-06-18T08:35:53.000Z</time>
        <extensions>
          <ns3:TrackPointExtension>
            <ns3:atemp>24.0</ns3:atemp>
          </ns3:TrackPointExtension>
        </extensions>
      </trkpt>
      <trkpt lat="42.52925944514572620391845703125" lon="19.76477771066129207611083984375">
        <ele>1675.4000244140625</ele>
        <time>2026-06-18T08:35:54.000Z</time>
        <extensions>
          <ns3:TrackPointExtension>
            <ns3:atemp>24.0</ns3:atemp>
          </ns3:TrackPointExtension>
        </extensions>
      </trkpt>
      <trkpt lat="42.52925944514572620391845703125" lon="19.76477771066129207611083984375">
        <ele>1675.4000244140625</ele>
        <time>2026-06-18T08:35:55.000Z</time>
        <extensions>
          <ns3:TrackPointExtension>
            <ns3:atemp>24.0</ns3:atemp>
          </ns3:TrackPointExtension>
        </extensions>
      </trkpt>
      <trkpt lat="42.52925944514572620391845703125" lon="19.76477771066129207611083984375">
        <ele>1675.4000244140625</ele>
        <time>2026-06-18T08:35:56.000Z</time>
        <extensions>
          <ns3:TrackPointExtension>
            <ns3:atemp>24.0</ns3:atemp>
          </ns3:TrackPointExtension>
        </extensions>
      </trkpt>
      <trkpt lat="42.52925944514572620391845703125" lon="19.76477771066129207611083984375">
        <ele>1675.4000244140625</ele>
        <time>2026-06-18T08:35:57.000Z</time>
        <extensions>
          <ns3:TrackPointExtension>
            <ns3:atemp>24.0</ns3:atemp>
          </ns3:TrackPointExtension>
        </extensions>
      </trkpt>
      <trkpt lat="42.52925944514572620391845703125" lon="19.76477771066129207611083984375">
        <ele>1675.4000244140625</ele>
        <time>2026-06-18T08:35:58.000Z</time>
        <extensions>
          <ns3:TrackPointExtension>
            <ns3:atemp>24.0</ns3:atemp>
          </ns3:TrackPointExtension>
        </extensions>
      </trkpt>
      <trkpt lat="42.52925944514572620391845703125" lon="19.76477771066129207611083984375">
        <ele>1675.4000244140625</ele>
        <time>2026-06-18T08:35:59.000Z</time>
        <extensions>
          <ns3:TrackPointExtension>
            <ns3:atemp>24.0</ns3:atemp>
          </ns3:TrackPointExtension>
        </extensions>
      </trkpt>
      <trkpt lat="42.52925944514572620391845703125" lon="19.76477771066129207611083984375">
        <ele>1675.4000244140625</ele>
        <time>2026-06-18T08:36:00.000Z</time>
        <extensions>
          <ns3:TrackPointExtension>
            <ns3:atemp>24.0</ns3:atemp>
          </ns3:TrackPointExtension>
        </extensions>
      </trkpt>
      <trkpt lat="42.52925944514572620391845703125" lon="19.76477771066129207611083984375">
        <ele>1675.4000244140625</ele>
        <time>2026-06-18T08:36:01.000Z</time>
        <extensions>
          <ns3:TrackPointExtension>
            <ns3:atemp>24.0</ns3:atemp>
          </ns3:TrackPointExtension>
        </extensions>
      </trkpt>
      <trkpt lat="42.52925944514572620391845703125" lon="19.76477771066129207611083984375">
        <ele>1675.4000244140625</ele>
        <time>2026-06-18T08:36:02.000Z</time>
        <extensions>
          <ns3:TrackPointExtension>
            <ns3:atemp>24.0</ns3:atemp>
          </ns3:TrackPointExtension>
        </extensions>
      </trkpt>
      <trkpt lat="42.52925944514572620391845703125" lon="19.76477771066129207611083984375">
        <ele>1675.4000244140625</ele>
        <time>2026-06-18T08:36:03.000Z</time>
        <extensions>
          <ns3:TrackPointExtension>
            <ns3:atemp>24.0</ns3:atemp>
          </ns3:TrackPointExtension>
        </extensions>
      </trkpt>
      <trkpt lat="42.52925944514572620391845703125" lon="19.76477771066129207611083984375">
        <ele>1675.4000244140625</ele>
        <time>2026-06-18T08:36:04.000Z</time>
        <extensions>
          <ns3:TrackPointExtension>
            <ns3:atemp>24.0</ns3:atemp>
          </ns3:TrackPointExtension>
        </extensions>
      </trkpt>
      <trkpt lat="42.52925944514572620391845703125" lon="19.76477771066129207611083984375">
        <ele>1675.4000244140625</ele>
        <time>2026-06-18T08:36:05.000Z</time>
        <extensions>
          <ns3:TrackPointExtension>
            <ns3:atemp>24.0</ns3:atemp>
          </ns3:TrackPointExtension>
        </extensions>
      </trkpt>
      <trkpt lat="42.52925944514572620391845703125" lon="19.76477771066129207611083984375">
        <ele>1675.4000244140625</ele>
        <time>2026-06-18T08:36:06.000Z</time>
        <extensions>
          <ns3:TrackPointExtension>
            <ns3:atemp>24.0</ns3:atemp>
          </ns3:TrackPointExtension>
        </extensions>
      </trkpt>
      <trkpt lat="42.52925944514572620391845703125" lon="19.76477771066129207611083984375">
        <ele>1675.4000244140625</ele>
        <time>2026-06-18T08:36:07.000Z</time>
        <extensions>
          <ns3:TrackPointExtension>
            <ns3:atemp>24.0</ns3:atemp>
          </ns3:TrackPointExtension>
        </extensions>
      </trkpt>
      <trkpt lat="42.52925944514572620391845703125" lon="19.76477771066129207611083984375">
        <ele>1675.4000244140625</ele>
        <time>2026-06-18T08:36:08.000Z</time>
        <extensions>
          <ns3:TrackPointExtension>
            <ns3:atemp>24.0</ns3:atemp>
          </ns3:TrackPointExtension>
        </extensions>
      </trkpt>
      <trkpt lat="42.52925944514572620391845703125" lon="19.76477771066129207611083984375">
        <ele>1675.4000244140625</ele>
        <time>2026-06-18T08:36:09.000Z</time>
        <extensions>
          <ns3:TrackPointExtension>
            <ns3:atemp>24.0</ns3:atemp>
          </ns3:TrackPointExtension>
        </extensions>
      </trkpt>
      <trkpt lat="42.52925944514572620391845703125" lon="19.76477771066129207611083984375">
        <ele>1675.4000244140625</ele>
        <time>2026-06-18T08:36:10.000Z</time>
        <extensions>
          <ns3:TrackPointExtension>
            <ns3:atemp>24.0</ns3:atemp>
          </ns3:TrackPointExtension>
        </extensions>
      </trkpt>
      <trkpt lat="42.52925944514572620391845703125" lon="19.76477771066129207611083984375">
        <ele>1675.4000244140625</ele>
        <time>2026-06-18T08:36:11.000Z</time>
        <extensions>
          <ns3:TrackPointExtension>
            <ns3:atemp>24.0</ns3:atemp>
          </ns3:TrackPointExtension>
        </extensions>
      </trkpt>
      <trkpt lat="42.52925944514572620391845703125" lon="19.76477771066129207611083984375">
        <ele>1675.4000244140625</ele>
        <time>2026-06-18T08:36:12.000Z</time>
        <extensions>
          <ns3:TrackPointExtension>
            <ns3:atemp>24.0</ns3:atemp>
          </ns3:TrackPointExtension>
        </extensions>
      </trkpt>
      <trkpt lat="42.52925944514572620391845703125" lon="19.76477771066129207611083984375">
        <ele>1675.4000244140625</ele>
        <time>2026-06-18T08:36:13.000Z</time>
        <extensions>
          <ns3:TrackPointExtension>
            <ns3:atemp>24.0</ns3:atemp>
          </ns3:TrackPointExtension>
        </extensions>
      </trkpt>
      <trkpt lat="42.52925944514572620391845703125" lon="19.76477771066129207611083984375">
        <ele>1675.4000244140625</ele>
        <time>2026-06-18T08:36:14.000Z</time>
        <extensions>
          <ns3:TrackPointExtension>
            <ns3:atemp>24.0</ns3:atemp>
          </ns3:TrackPointExtension>
        </extensions>
      </trkpt>
      <trkpt lat="42.52925944514572620391845703125" lon="19.76477771066129207611083984375">
        <ele>1675.4000244140625</ele>
        <time>2026-06-18T08:36:15.000Z</time>
        <extensions>
          <ns3:TrackPointExtension>
            <ns3:atemp>24.0</ns3:atemp>
          </ns3:TrackPointExtension>
        </extensions>
      </trkpt>
      <trkpt lat="42.52925944514572620391845703125" lon="19.76477771066129207611083984375">
        <ele>1675.4000244140625</ele>
        <time>2026-06-18T08:36:16.000Z</time>
        <extensions>
          <ns3:TrackPointExtension>
            <ns3:atemp>24.0</ns3:atemp>
          </ns3:TrackPointExtension>
        </extensions>
      </trkpt>
      <trkpt lat="42.52925944514572620391845703125" lon="19.76477771066129207611083984375">
        <ele>1675.4000244140625</ele>
        <time>2026-06-18T08:36:17.000Z</time>
        <extensions>
          <ns3:TrackPointExtension>
            <ns3:atemp>24.0</ns3:atemp>
          </ns3:TrackPointExtension>
        </extensions>
      </trkpt>
      <trkpt lat="42.52925944514572620391845703125" lon="19.76477771066129207611083984375">
        <ele>1675.4000244140625</ele>
        <time>2026-06-18T08:36:18.000Z</time>
        <extensions>
          <ns3:TrackPointExtension>
            <ns3:atemp>24.0</ns3:atemp>
          </ns3:TrackPointExtension>
        </extensions>
      </trkpt>
      <trkpt lat="42.52925944514572620391845703125" lon="19.76477771066129207611083984375">
        <ele>1675.4000244140625</ele>
        <time>2026-06-18T08:36:19.000Z</time>
        <extensions>
          <ns3:TrackPointExtension>
            <ns3:atemp>24.0</ns3:atemp>
          </ns3:TrackPointExtension>
        </extensions>
      </trkpt>
      <trkpt lat="42.52925944514572620391845703125" lon="19.76477771066129207611083984375">
        <ele>1675.4000244140625</ele>
        <time>2026-06-18T08:36:20.000Z</time>
        <extensions>
          <ns3:TrackPointExtension>
            <ns3:atemp>24.0</ns3:atemp>
          </ns3:TrackPointExtension>
        </extensions>
      </trkpt>
      <trkpt lat="42.52925944514572620391845703125" lon="19.76477771066129207611083984375">
        <ele>1675.4000244140625</ele>
        <time>2026-06-18T08:36:21.000Z</time>
        <extensions>
          <ns3:TrackPointExtension>
            <ns3:atemp>24.0</ns3:atemp>
          </ns3:TrackPointExtension>
        </extensions>
      </trkpt>
      <trkpt lat="42.52925944514572620391845703125" lon="19.76477771066129207611083984375">
        <ele>1675.4000244140625</ele>
        <time>2026-06-18T08:36:22.000Z</time>
        <extensions>
          <ns3:TrackPointExtension>
            <ns3:atemp>24.0</ns3:atemp>
          </ns3:TrackPointExtension>
        </extensions>
      </trkpt>
      <trkpt lat="42.52925944514572620391845703125" lon="19.76477771066129207611083984375">
        <ele>1675.4000244140625</ele>
        <time>2026-06-18T08:36:23.000Z</time>
        <extensions>
          <ns3:TrackPointExtension>
            <ns3:atemp>24.0</ns3:atemp>
          </ns3:TrackPointExtension>
        </extensions>
      </trkpt>
      <trkpt lat="42.52925944514572620391845703125" lon="19.76477771066129207611083984375">
        <ele>1675.4000244140625</ele>
        <time>2026-06-18T08:36:24.000Z</time>
        <extensions>
          <ns3:TrackPointExtension>
            <ns3:atemp>24.0</ns3:atemp>
          </ns3:TrackPointExtension>
        </extensions>
      </trkpt>
      <trkpt lat="42.52925944514572620391845703125" lon="19.76477771066129207611083984375">
        <ele>1675.4000244140625</ele>
        <time>2026-06-18T08:36:25.000Z</time>
        <extensions>
          <ns3:TrackPointExtension>
            <ns3:atemp>24.0</ns3:atemp>
          </ns3:TrackPointExtension>
        </extensions>
      </trkpt>
      <trkpt lat="42.52925944514572620391845703125" lon="19.76477771066129207611083984375">
        <ele>1675.4000244140625</ele>
        <time>2026-06-18T08:36:26.000Z</time>
        <extensions>
          <ns3:TrackPointExtension>
            <ns3:atemp>24.0</ns3:atemp>
          </ns3:TrackPointExtension>
        </extensions>
      </trkpt>
      <trkpt lat="42.52925944514572620391845703125" lon="19.76477771066129207611083984375">
        <ele>1675.4000244140625</ele>
        <time>2026-06-18T08:36:27.000Z</time>
        <extensions>
          <ns3:TrackPointExtension>
            <ns3:atemp>24.0</ns3:atemp>
          </ns3:TrackPointExtension>
        </extensions>
      </trkpt>
      <trkpt lat="42.52925944514572620391845703125" lon="19.76477771066129207611083984375">
        <ele>1675.4000244140625</ele>
        <time>2026-06-18T08:36:28.000Z</time>
        <extensions>
          <ns3:TrackPointExtension>
            <ns3:atemp>24.0</ns3:atemp>
          </ns3:TrackPointExtension>
        </extensions>
      </trkpt>
      <trkpt lat="42.52925944514572620391845703125" lon="19.76477771066129207611083984375">
        <ele>1675.4000244140625</ele>
        <time>2026-06-18T08:36:29.000Z</time>
        <extensions>
          <ns3:TrackPointExtension>
            <ns3:atemp>24.0</ns3:atemp>
          </ns3:TrackPointExtension>
        </extensions>
      </trkpt>
      <trkpt lat="42.52925944514572620391845703125" lon="19.76477771066129207611083984375">
        <ele>1675.4000244140625</ele>
        <time>2026-06-18T08:36:30.000Z</time>
        <extensions>
          <ns3:TrackPointExtension>
            <ns3:atemp>24.0</ns3:atemp>
          </ns3:TrackPointExtension>
        </extensions>
      </trkpt>
      <trkpt lat="42.52925944514572620391845703125" lon="19.76477771066129207611083984375">
        <ele>1675.4000244140625</ele>
        <time>2026-06-18T08:36:31.000Z</time>
        <extensions>
          <ns3:TrackPointExtension>
            <ns3:atemp>24.0</ns3:atemp>
          </ns3:TrackPointExtension>
        </extensions>
      </trkpt>
      <trkpt lat="42.52925944514572620391845703125" lon="19.76477771066129207611083984375">
        <ele>1675.4000244140625</ele>
        <time>2026-06-18T08:36:32.000Z</time>
        <extensions>
          <ns3:TrackPointExtension>
            <ns3:atemp>24.0</ns3:atemp>
          </ns3:TrackPointExtension>
        </extensions>
      </trkpt>
      <trkpt lat="42.52925944514572620391845703125" lon="19.76477771066129207611083984375">
        <ele>1675.4000244140625</ele>
        <time>2026-06-18T08:36:33.000Z</time>
        <extensions>
          <ns3:TrackPointExtension>
            <ns3:atemp>24.0</ns3:atemp>
          </ns3:TrackPointExtension>
        </extensions>
      </trkpt>
      <trkpt lat="42.52925944514572620391845703125" lon="19.76477771066129207611083984375">
        <ele>1675.4000244140625</ele>
        <time>2026-06-18T08:36:34.000Z</time>
        <extensions>
          <ns3:TrackPointExtension>
            <ns3:atemp>24.0</ns3:atemp>
          </ns3:TrackPointExtension>
        </extensions>
      </trkpt>
      <trkpt lat="42.52925944514572620391845703125" lon="19.76477771066129207611083984375">
        <ele>1675.4000244140625</ele>
        <time>2026-06-18T08:36:35.000Z</time>
        <extensions>
          <ns3:TrackPointExtension>
            <ns3:atemp>24.0</ns3:atemp>
          </ns3:TrackPointExtension>
        </extensions>
      </trkpt>
      <trkpt lat="42.52925944514572620391845703125" lon="19.76477771066129207611083984375">
        <ele>1675.4000244140625</ele>
        <time>2026-06-18T08:36:36.000Z</time>
        <extensions>
          <ns3:TrackPointExtension>
            <ns3:atemp>24.0</ns3:atemp>
          </ns3:TrackPointExtension>
        </extensions>
      </trkpt>
      <trkpt lat="42.52925944514572620391845703125" lon="19.76477771066129207611083984375">
        <ele>1675.4000244140625</ele>
        <time>2026-06-18T08:36:37.000Z</time>
        <extensions>
          <ns3:TrackPointExtension>
            <ns3:atemp>24.0</ns3:atemp>
          </ns3:TrackPointExtension>
        </extensions>
      </trkpt>
      <trkpt lat="42.52925944514572620391845703125" lon="19.76477771066129207611083984375">
        <ele>1675.4000244140625</ele>
        <time>2026-06-18T08:36:38.000Z</time>
        <extensions>
          <ns3:TrackPointExtension>
            <ns3:atemp>24.0</ns3:atemp>
          </ns3:TrackPointExtension>
        </extensions>
      </trkpt>
      <trkpt lat="42.52925944514572620391845703125" lon="19.76477771066129207611083984375">
        <ele>1675.4000244140625</ele>
        <time>2026-06-18T08:36:39.000Z</time>
        <extensions>
          <ns3:TrackPointExtension>
            <ns3:atemp>24.0</ns3:atemp>
          </ns3:TrackPointExtension>
        </extensions>
      </trkpt>
      <trkpt lat="42.52925944514572620391845703125" lon="19.76477771066129207611083984375">
        <ele>1675.4000244140625</ele>
        <time>2026-06-18T08:36:40.000Z</time>
        <extensions>
          <ns3:TrackPointExtension>
            <ns3:atemp>24.0</ns3:atemp>
          </ns3:TrackPointExtension>
        </extensions>
      </trkpt>
      <trkpt lat="42.52925944514572620391845703125" lon="19.76477771066129207611083984375">
        <ele>1675.4000244140625</ele>
        <time>2026-06-18T08:36:41.000Z</time>
        <extensions>
          <ns3:TrackPointExtension>
            <ns3:atemp>24.0</ns3:atemp>
          </ns3:TrackPointExtension>
        </extensions>
      </trkpt>
      <trkpt lat="42.52925944514572620391845703125" lon="19.76477771066129207611083984375">
        <ele>1675.4000244140625</ele>
        <time>2026-06-18T08:36:42.000Z</time>
        <extensions>
          <ns3:TrackPointExtension>
            <ns3:atemp>24.0</ns3:atemp>
          </ns3:TrackPointExtension>
        </extensions>
      </trkpt>
      <trkpt lat="42.52925944514572620391845703125" lon="19.76477771066129207611083984375">
        <ele>1675.4000244140625</ele>
        <time>2026-06-18T08:36:43.000Z</time>
        <extensions>
          <ns3:TrackPointExtension>
            <ns3:atemp>24.0</ns3:atemp>
          </ns3:TrackPointExtension>
        </extensions>
      </trkpt>
      <trkpt lat="42.52925944514572620391845703125" lon="19.76477771066129207611083984375">
        <ele>1675.4000244140625</ele>
        <time>2026-06-18T08:36:44.000Z</time>
        <extensions>
          <ns3:TrackPointExtension>
            <ns3:atemp>24.0</ns3:atemp>
          </ns3:TrackPointExtension>
        </extensions>
      </trkpt>
      <trkpt lat="42.52925944514572620391845703125" lon="19.76477771066129207611083984375">
        <ele>1675.4000244140625</ele>
        <time>2026-06-18T08:36:45.000Z</time>
        <extensions>
          <ns3:TrackPointExtension>
            <ns3:atemp>24.0</ns3:atemp>
          </ns3:TrackPointExtension>
        </extensions>
      </trkpt>
      <trkpt lat="42.52925944514572620391845703125" lon="19.76477771066129207611083984375">
        <ele>1675.4000244140625</ele>
        <time>2026-06-18T08:36:46.000Z</time>
        <extensions>
          <ns3:TrackPointExtension>
            <ns3:atemp>24.0</ns3:atemp>
          </ns3:TrackPointExtension>
        </extensions>
      </trkpt>
      <trkpt lat="42.52925944514572620391845703125" lon="19.76477771066129207611083984375">
        <ele>1675.4000244140625</ele>
        <time>2026-06-18T08:36:47.000Z</time>
        <extensions>
          <ns3:TrackPointExtension>
            <ns3:atemp>24.0</ns3:atemp>
          </ns3:TrackPointExtension>
        </extensions>
      </trkpt>
      <trkpt lat="42.52925944514572620391845703125" lon="19.76477771066129207611083984375">
        <ele>1675.4000244140625</ele>
        <time>2026-06-18T08:36:48.000Z</time>
        <extensions>
          <ns3:TrackPointExtension>
            <ns3:atemp>24.0</ns3:atemp>
          </ns3:TrackPointExtension>
        </extensions>
      </trkpt>
      <trkpt lat="42.52925944514572620391845703125" lon="19.76477771066129207611083984375">
        <ele>1675.4000244140625</ele>
        <time>2026-06-18T08:36:49.000Z</time>
        <extensions>
          <ns3:TrackPointExtension>
            <ns3:atemp>24.0</ns3:atemp>
          </ns3:TrackPointExtension>
        </extensions>
      </trkpt>
      <trkpt lat="42.52925944514572620391845703125" lon="19.76477771066129207611083984375">
        <ele>1675.4000244140625</ele>
        <time>2026-06-18T08:36:50.000Z</time>
        <extensions>
          <ns3:TrackPointExtension>
            <ns3:atemp>24.0</ns3:atemp>
          </ns3:TrackPointExtension>
        </extensions>
      </trkpt>
      <trkpt lat="42.52925944514572620391845703125" lon="19.76477771066129207611083984375">
        <ele>1675.4000244140625</ele>
        <time>2026-06-18T08:36:51.000Z</time>
        <extensions>
          <ns3:TrackPointExtension>
            <ns3:atemp>24.0</ns3:atemp>
          </ns3:TrackPointExtension>
        </extensions>
      </trkpt>
      <trkpt lat="42.52925944514572620391845703125" lon="19.76477771066129207611083984375">
        <ele>1675.4000244140625</ele>
        <time>2026-06-18T08:36:52.000Z</time>
        <extensions>
          <ns3:TrackPointExtension>
            <ns3:atemp>24.0</ns3:atemp>
          </ns3:TrackPointExtension>
        </extensions>
      </trkpt>
      <trkpt lat="42.52925944514572620391845703125" lon="19.76477771066129207611083984375">
        <ele>1675.4000244140625</ele>
        <time>2026-06-18T08:36:53.000Z</time>
        <extensions>
          <ns3:TrackPointExtension>
            <ns3:atemp>24.0</ns3:atemp>
          </ns3:TrackPointExtension>
        </extensions>
      </trkpt>
      <trkpt lat="42.52925944514572620391845703125" lon="19.76477771066129207611083984375">
        <ele>1675.4000244140625</ele>
        <time>2026-06-18T08:36:54.000Z</time>
        <extensions>
          <ns3:TrackPointExtension>
            <ns3:atemp>24.0</ns3:atemp>
          </ns3:TrackPointExtension>
        </extensions>
      </trkpt>
      <trkpt lat="42.52925944514572620391845703125" lon="19.76477771066129207611083984375">
        <ele>1675.4000244140625</ele>
        <time>2026-06-18T08:36:55.000Z</time>
        <extensions>
          <ns3:TrackPointExtension>
            <ns3:atemp>24.0</ns3:atemp>
          </ns3:TrackPointExtension>
        </extensions>
      </trkpt>
      <trkpt lat="42.52925944514572620391845703125" lon="19.76477771066129207611083984375">
        <ele>1675.4000244140625</ele>
        <time>2026-06-18T08:36:56.000Z</time>
        <extensions>
          <ns3:TrackPointExtension>
            <ns3:atemp>24.0</ns3:atemp>
          </ns3:TrackPointExtension>
        </extensions>
      </trkpt>
      <trkpt lat="42.52925944514572620391845703125" lon="19.76477771066129207611083984375">
        <ele>1675.4000244140625</ele>
        <time>2026-06-18T08:36:57.000Z</time>
        <extensions>
          <ns3:TrackPointExtension>
            <ns3:atemp>24.0</ns3:atemp>
          </ns3:TrackPointExtension>
        </extensions>
      </trkpt>
      <trkpt lat="42.52925944514572620391845703125" lon="19.76477771066129207611083984375">
        <ele>1675.4000244140625</ele>
        <time>2026-06-18T08:36:58.000Z</time>
        <extensions>
          <ns3:TrackPointExtension>
            <ns3:atemp>24.0</ns3:atemp>
          </ns3:TrackPointExtension>
        </extensions>
      </trkpt>
      <trkpt lat="42.52925944514572620391845703125" lon="19.76477771066129207611083984375">
        <ele>1675.4000244140625</ele>
        <time>2026-06-18T08:36:59.000Z</time>
        <extensions>
          <ns3:TrackPointExtension>
            <ns3:atemp>24.0</ns3:atemp>
          </ns3:TrackPointExtension>
        </extensions>
      </trkpt>
      <trkpt lat="42.52925944514572620391845703125" lon="19.76477771066129207611083984375">
        <ele>1675.4000244140625</ele>
        <time>2026-06-18T08:37:00.000Z</time>
        <extensions>
          <ns3:TrackPointExtension>
            <ns3:atemp>24.0</ns3:atemp>
          </ns3:TrackPointExtension>
        </extensions>
      </trkpt>
      <trkpt lat="42.52925944514572620391845703125" lon="19.76477771066129207611083984375">
        <ele>1675.4000244140625</ele>
        <time>2026-06-18T08:37:01.000Z</time>
        <extensions>
          <ns3:TrackPointExtension>
            <ns3:atemp>24.0</ns3:atemp>
          </ns3:TrackPointExtension>
        </extensions>
      </trkpt>
      <trkpt lat="42.52925944514572620391845703125" lon="19.76477771066129207611083984375">
        <ele>1675.4000244140625</ele>
        <time>2026-06-18T08:37:02.000Z</time>
        <extensions>
          <ns3:TrackPointExtension>
            <ns3:atemp>24.0</ns3:atemp>
          </ns3:TrackPointExtension>
        </extensions>
      </trkpt>
      <trkpt lat="42.52925944514572620391845703125" lon="19.76477771066129207611083984375">
        <ele>1675.4000244140625</ele>
        <time>2026-06-18T08:37:03.000Z</time>
        <extensions>
          <ns3:TrackPointExtension>
            <ns3:atemp>24.0</ns3:atemp>
          </ns3:TrackPointExtension>
        </extensions>
      </trkpt>
      <trkpt lat="42.52925944514572620391845703125" lon="19.76477771066129207611083984375">
        <ele>1675.4000244140625</ele>
        <time>2026-06-18T08:37:04.000Z</time>
        <extensions>
          <ns3:TrackPointExtension>
            <ns3:atemp>24.0</ns3:atemp>
          </ns3:TrackPointExtension>
        </extensions>
      </trkpt>
      <trkpt lat="42.52925944514572620391845703125" lon="19.76477771066129207611083984375">
        <ele>1675.4000244140625</ele>
        <time>2026-06-18T08:37:05.000Z</time>
        <extensions>
          <ns3:TrackPointExtension>
            <ns3:atemp>24.0</ns3:atemp>
          </ns3:TrackPointExtension>
        </extensions>
      </trkpt>
      <trkpt lat="42.52925944514572620391845703125" lon="19.76477771066129207611083984375">
        <ele>1675.4000244140625</ele>
        <time>2026-06-18T08:37:06.000Z</time>
        <extensions>
          <ns3:TrackPointExtension>
            <ns3:atemp>24.0</ns3:atemp>
          </ns3:TrackPointExtension>
        </extensions>
      </trkpt>
      <trkpt lat="42.52925944514572620391845703125" lon="19.76477771066129207611083984375">
        <ele>1675.4000244140625</ele>
        <time>2026-06-18T08:37:07.000Z</time>
        <extensions>
          <ns3:TrackPointExtension>
            <ns3:atemp>24.0</ns3:atemp>
          </ns3:TrackPointExtension>
        </extensions>
      </trkpt>
      <trkpt lat="42.52925944514572620391845703125" lon="19.76477771066129207611083984375">
        <ele>1675.4000244140625</ele>
        <time>2026-06-18T08:37:08.000Z</time>
        <extensions>
          <ns3:TrackPointExtension>
            <ns3:atemp>24.0</ns3:atemp>
          </ns3:TrackPointExtension>
        </extensions>
      </trkpt>
      <trkpt lat="42.52925944514572620391845703125" lon="19.76477771066129207611083984375">
        <ele>1675.4000244140625</ele>
        <time>2026-06-18T08:37:09.000Z</time>
        <extensions>
          <ns3:TrackPointExtension>
            <ns3:atemp>24.0</ns3:atemp>
          </ns3:TrackPointExtension>
        </extensions>
      </trkpt>
      <trkpt lat="42.52925944514572620391845703125" lon="19.76477771066129207611083984375">
        <ele>1675.4000244140625</ele>
        <time>2026-06-18T08:37:10.000Z</time>
        <extensions>
          <ns3:TrackPointExtension>
            <ns3:atemp>24.0</ns3:atemp>
          </ns3:TrackPointExtension>
        </extensions>
      </trkpt>
      <trkpt lat="42.52925944514572620391845703125" lon="19.76477771066129207611083984375">
        <ele>1675.4000244140625</ele>
        <time>2026-06-18T08:37:11.000Z</time>
        <extensions>
          <ns3:TrackPointExtension>
            <ns3:atemp>24.0</ns3:atemp>
          </ns3:TrackPointExtension>
        </extensions>
      </trkpt>
      <trkpt lat="42.52925944514572620391845703125" lon="19.76477771066129207611083984375">
        <ele>1675.4000244140625</ele>
        <time>2026-06-18T08:37:12.000Z</time>
        <extensions>
          <ns3:TrackPointExtension>
            <ns3:atemp>24.0</ns3:atemp>
          </ns3:TrackPointExtension>
        </extensions>
      </trkpt>
      <trkpt lat="42.52925944514572620391845703125" lon="19.76477771066129207611083984375">
        <ele>1675.4000244140625</ele>
        <time>2026-06-18T08:37:13.000Z</time>
        <extensions>
          <ns3:TrackPointExtension>
            <ns3:atemp>24.0</ns3:atemp>
          </ns3:TrackPointExtension>
        </extensions>
      </trkpt>
      <trkpt lat="42.52925944514572620391845703125" lon="19.76477771066129207611083984375">
        <ele>1675.4000244140625</ele>
        <time>2026-06-18T08:37:14.000Z</time>
        <extensions>
          <ns3:TrackPointExtension>
            <ns3:atemp>24.0</ns3:atemp>
          </ns3:TrackPointExtension>
        </extensions>
      </trkpt>
      <trkpt lat="42.52925944514572620391845703125" lon="19.76477771066129207611083984375">
        <ele>1675.4000244140625</ele>
        <time>2026-06-18T08:37:15.000Z</time>
        <extensions>
          <ns3:TrackPointExtension>
            <ns3:atemp>24.0</ns3:atemp>
          </ns3:TrackPointExtension>
        </extensions>
      </trkpt>
      <trkpt lat="42.52925944514572620391845703125" lon="19.76477771066129207611083984375">
        <ele>1675.4000244140625</ele>
        <time>2026-06-18T08:37:16.000Z</time>
        <extensions>
          <ns3:TrackPointExtension>
            <ns3:atemp>24.0</ns3:atemp>
          </ns3:TrackPointExtension>
        </extensions>
      </trkpt>
      <trkpt lat="42.52925944514572620391845703125" lon="19.76477771066129207611083984375">
        <ele>1675.4000244140625</ele>
        <time>2026-06-18T08:37:17.000Z</time>
        <extensions>
          <ns3:TrackPointExtension>
            <ns3:atemp>24.0</ns3:atemp>
          </ns3:TrackPointExtension>
        </extensions>
      </trkpt>
      <trkpt lat="42.52925944514572620391845703125" lon="19.76477771066129207611083984375">
        <ele>1675.4000244140625</ele>
        <time>2026-06-18T08:37:18.000Z</time>
        <extensions>
          <ns3:TrackPointExtension>
            <ns3:atemp>24.0</ns3:atemp>
          </ns3:TrackPointExtension>
        </extensions>
      </trkpt>
      <trkpt lat="42.52925944514572620391845703125" lon="19.76477771066129207611083984375">
        <ele>1675.4000244140625</ele>
        <time>2026-06-18T08:37:19.000Z</time>
        <extensions>
          <ns3:TrackPointExtension>
            <ns3:atemp>24.0</ns3:atemp>
          </ns3:TrackPointExtension>
        </extensions>
      </trkpt>
      <trkpt lat="42.52925944514572620391845703125" lon="19.76477771066129207611083984375">
        <ele>1675.4000244140625</ele>
        <time>2026-06-18T08:37:20.000Z</time>
        <extensions>
          <ns3:TrackPointExtension>
            <ns3:atemp>24.0</ns3:atemp>
          </ns3:TrackPointExtension>
        </extensions>
      </trkpt>
      <trkpt lat="42.52925944514572620391845703125" lon="19.76477771066129207611083984375">
        <ele>1675.4000244140625</ele>
        <time>2026-06-18T08:37:21.000Z</time>
        <extensions>
          <ns3:TrackPointExtension>
            <ns3:atemp>24.0</ns3:atemp>
          </ns3:TrackPointExtension>
        </extensions>
      </trkpt>
      <trkpt lat="42.52925944514572620391845703125" lon="19.76477771066129207611083984375">
        <ele>1675.4000244140625</ele>
        <time>2026-06-18T08:37:22.000Z</time>
        <extensions>
          <ns3:TrackPointExtension>
            <ns3:atemp>24.0</ns3:atemp>
          </ns3:TrackPointExtension>
        </extensions>
      </trkpt>
      <trkpt lat="42.52925944514572620391845703125" lon="19.76477771066129207611083984375">
        <ele>1675.4000244140625</ele>
        <time>2026-06-18T08:37:23.000Z</time>
        <extensions>
          <ns3:TrackPointExtension>
            <ns3:atemp>24.0</ns3:atemp>
          </ns3:TrackPointExtension>
        </extensions>
      </trkpt>
      <trkpt lat="42.52925944514572620391845703125" lon="19.76477771066129207611083984375">
        <ele>1675.4000244140625</ele>
        <time>2026-06-18T08:37:24.000Z</time>
        <extensions>
          <ns3:TrackPointExtension>
            <ns3:atemp>24.0</ns3:atemp>
          </ns3:TrackPointExtension>
        </extensions>
      </trkpt>
      <trkpt lat="42.52925944514572620391845703125" lon="19.76477771066129207611083984375">
        <ele>1675.4000244140625</ele>
        <time>2026-06-18T08:37:25.000Z</time>
        <extensions>
          <ns3:TrackPointExtension>
            <ns3:atemp>24.0</ns3:atemp>
          </ns3:TrackPointExtension>
        </extensions>
      </trkpt>
      <trkpt lat="42.52925944514572620391845703125" lon="19.76477771066129207611083984375">
        <ele>1675.4000244140625</ele>
        <time>2026-06-18T08:37:26.000Z</time>
        <extensions>
          <ns3:TrackPointExtension>
            <ns3:atemp>24.0</ns3:atemp>
          </ns3:TrackPointExtension>
        </extensions>
      </trkpt>
      <trkpt lat="42.52925944514572620391845703125" lon="19.76477771066129207611083984375">
        <ele>1675.4000244140625</ele>
        <time>2026-06-18T08:37:27.000Z</time>
        <extensions>
          <ns3:TrackPointExtension>
            <ns3:atemp>24.0</ns3:atemp>
          </ns3:TrackPointExtension>
        </extensions>
      </trkpt>
      <trkpt lat="42.52925944514572620391845703125" lon="19.76477771066129207611083984375">
        <ele>1675.4000244140625</ele>
        <time>2026-06-18T08:37:28.000Z</time>
        <extensions>
          <ns3:TrackPointExtension>
            <ns3:atemp>24.0</ns3:atemp>
          </ns3:TrackPointExtension>
        </extensions>
      </trkpt>
      <trkpt lat="42.52925944514572620391845703125" lon="19.76477771066129207611083984375">
        <ele>1675.4000244140625</ele>
        <time>2026-06-18T08:37:29.000Z</time>
        <extensions>
          <ns3:TrackPointExtension>
            <ns3:atemp>24.0</ns3:atemp>
          </ns3:TrackPointExtension>
        </extensions>
      </trkpt>
      <trkpt lat="42.52925944514572620391845703125" lon="19.76477771066129207611083984375">
        <ele>1675.4000244140625</ele>
        <time>2026-06-18T08:37:30.000Z</time>
        <extensions>
          <ns3:TrackPointExtension>
            <ns3:atemp>24.0</ns3:atemp>
          </ns3:TrackPointExtension>
        </extensions>
      </trkpt>
      <trkpt lat="42.52925944514572620391845703125" lon="19.76477771066129207611083984375">
        <ele>1675.4000244140625</ele>
        <time>2026-06-18T08:37:31.000Z</time>
        <extensions>
          <ns3:TrackPointExtension>
            <ns3:atemp>24.0</ns3:atemp>
          </ns3:TrackPointExtension>
        </extensions>
      </trkpt>
      <trkpt lat="42.52925944514572620391845703125" lon="19.76477771066129207611083984375">
        <ele>1675.4000244140625</ele>
        <time>2026-06-18T08:37:32.000Z</time>
        <extensions>
          <ns3:TrackPointExtension>
            <ns3:atemp>24.0</ns3:atemp>
          </ns3:TrackPointExtension>
        </extensions>
      </trkpt>
      <trkpt lat="42.52925944514572620391845703125" lon="19.76477771066129207611083984375">
        <ele>1675.4000244140625</ele>
        <time>2026-06-18T08:37:33.000Z</time>
        <extensions>
          <ns3:TrackPointExtension>
            <ns3:atemp>24.0</ns3:atemp>
          </ns3:TrackPointExtension>
        </extensions>
      </trkpt>
      <trkpt lat="42.52925944514572620391845703125" lon="19.76477771066129207611083984375">
        <ele>1675.4000244140625</ele>
        <time>2026-06-18T08:37:34.000Z</time>
        <extensions>
          <ns3:TrackPointExtension>
            <ns3:atemp>24.0</ns3:atemp>
          </ns3:TrackPointExtension>
        </extensions>
      </trkpt>
      <trkpt lat="42.52925944514572620391845703125" lon="19.76477771066129207611083984375">
        <ele>1675.4000244140625</ele>
        <time>2026-06-18T08:37:35.000Z</time>
        <extensions>
          <ns3:TrackPointExtension>
            <ns3:atemp>24.0</ns3:atemp>
          </ns3:TrackPointExtension>
        </extensions>
      </trkpt>
      <trkpt lat="42.52925944514572620391845703125" lon="19.76477771066129207611083984375">
        <ele>1675.4000244140625</ele>
        <time>2026-06-18T08:37:36.000Z</time>
        <extensions>
          <ns3:TrackPointExtension>
            <ns3:atemp>24.0</ns3:atemp>
          </ns3:TrackPointExtension>
        </extensions>
      </trkpt>
      <trkpt lat="42.52925944514572620391845703125" lon="19.76477771066129207611083984375">
        <ele>1675.4000244140625</ele>
        <time>2026-06-18T08:37:37.000Z</time>
        <extensions>
          <ns3:TrackPointExtension>
            <ns3:atemp>24.0</ns3:atemp>
          </ns3:TrackPointExtension>
        </extensions>
      </trkpt>
      <trkpt lat="42.52925944514572620391845703125" lon="19.76477771066129207611083984375">
        <ele>1675.4000244140625</ele>
        <time>2026-06-18T08:37:38.000Z</time>
        <extensions>
          <ns3:TrackPointExtension>
            <ns3:atemp>24.0</ns3:atemp>
          </ns3:TrackPointExtension>
        </extensions>
      </trkpt>
      <trkpt lat="42.52925944514572620391845703125" lon="19.76477771066129207611083984375">
        <ele>1675.4000244140625</ele>
        <time>2026-06-18T08:37:39.000Z</time>
        <extensions>
          <ns3:TrackPointExtension>
            <ns3:atemp>24.0</ns3:atemp>
          </ns3:TrackPointExtension>
        </extensions>
      </trkpt>
      <trkpt lat="42.52925944514572620391845703125" lon="19.76477771066129207611083984375">
        <ele>1675.4000244140625</ele>
        <time>2026-06-18T08:37:40.000Z</time>
        <extensions>
          <ns3:TrackPointExtension>
            <ns3:atemp>24.0</ns3:atemp>
          </ns3:TrackPointExtension>
        </extensions>
      </trkpt>
      <trkpt lat="42.52925944514572620391845703125" lon="19.76477771066129207611083984375">
        <ele>1675.4000244140625</ele>
        <time>2026-06-18T08:37:41.000Z</time>
        <extensions>
          <ns3:TrackPointExtension>
            <ns3:atemp>24.0</ns3:atemp>
          </ns3:TrackPointExtension>
        </extensions>
      </trkpt>
      <trkpt lat="42.52925944514572620391845703125" lon="19.76477771066129207611083984375">
        <ele>1675.4000244140625</ele>
        <time>2026-06-18T08:37:42.000Z</time>
        <extensions>
          <ns3:TrackPointExtension>
            <ns3:atemp>24.0</ns3:atemp>
          </ns3:TrackPointExtension>
        </extensions>
      </trkpt>
      <trkpt lat="42.52925944514572620391845703125" lon="19.76477771066129207611083984375">
        <ele>1675.4000244140625</ele>
        <time>2026-06-18T08:37:43.000Z</time>
        <extensions>
          <ns3:TrackPointExtension>
            <ns3:atemp>24.0</ns3:atemp>
          </ns3:TrackPointExtension>
        </extensions>
      </trkpt>
      <trkpt lat="42.52925944514572620391845703125" lon="19.76477771066129207611083984375">
        <ele>1675.4000244140625</ele>
        <time>2026-06-18T08:37:44.000Z</time>
        <extensions>
          <ns3:TrackPointExtension>
            <ns3:atemp>24.0</ns3:atemp>
          </ns3:TrackPointExtension>
        </extensions>
      </trkpt>
      <trkpt lat="42.52925944514572620391845703125" lon="19.76477771066129207611083984375">
        <ele>1675.4000244140625</ele>
        <time>2026-06-18T08:37:45.000Z</time>
        <extensions>
          <ns3:TrackPointExtension>
            <ns3:atemp>24.0</ns3:atemp>
          </ns3:TrackPointExtension>
        </extensions>
      </trkpt>
      <trkpt lat="42.52925944514572620391845703125" lon="19.76477771066129207611083984375">
        <ele>1675.4000244140625</ele>
        <time>2026-06-18T08:37:46.000Z</time>
        <extensions>
          <ns3:TrackPointExtension>
            <ns3:atemp>24.0</ns3:atemp>
          </ns3:TrackPointExtension>
        </extensions>
      </trkpt>
      <trkpt lat="42.52925944514572620391845703125" lon="19.76477771066129207611083984375">
        <ele>1675.4000244140625</ele>
        <time>2026-06-18T08:37:47.000Z</time>
        <extensions>
          <ns3:TrackPointExtension>
            <ns3:atemp>24.0</ns3:atemp>
          </ns3:TrackPointExtension>
        </extensions>
      </trkpt>
      <trkpt lat="42.52925944514572620391845703125" lon="19.76477771066129207611083984375">
        <ele>1675.4000244140625</ele>
        <time>2026-06-18T08:37:48.000Z</time>
        <extensions>
          <ns3:TrackPointExtension>
            <ns3:atemp>24.0</ns3:atemp>
          </ns3:TrackPointExtension>
        </extensions>
      </trkpt>
      <trkpt lat="42.52925944514572620391845703125" lon="19.76477771066129207611083984375">
        <ele>1675.4000244140625</ele>
        <time>2026-06-18T08:37:49.000Z</time>
        <extensions>
          <ns3:TrackPointExtension>
            <ns3:atemp>24.0</ns3:atemp>
          </ns3:TrackPointExtension>
        </extensions>
      </trkpt>
      <trkpt lat="42.52925944514572620391845703125" lon="19.76477771066129207611083984375">
        <ele>1675.4000244140625</ele>
        <time>2026-06-18T08:37:50.000Z</time>
        <extensions>
          <ns3:TrackPointExtension>
            <ns3:atemp>24.0</ns3:atemp>
          </ns3:TrackPointExtension>
        </extensions>
      </trkpt>
      <trkpt lat="42.52925944514572620391845703125" lon="19.76477771066129207611083984375">
        <ele>1675.4000244140625</ele>
        <time>2026-06-18T08:37:51.000Z</time>
        <extensions>
          <ns3:TrackPointExtension>
            <ns3:atemp>24.0</ns3:atemp>
          </ns3:TrackPointExtension>
        </extensions>
      </trkpt>
      <trkpt lat="42.52925944514572620391845703125" lon="19.76477771066129207611083984375">
        <ele>1675.4000244140625</ele>
        <time>2026-06-18T08:37:52.000Z</time>
        <extensions>
          <ns3:TrackPointExtension>
            <ns3:atemp>24.0</ns3:atemp>
          </ns3:TrackPointExtension>
        </extensions>
      </trkpt>
      <trkpt lat="42.52925944514572620391845703125" lon="19.76477771066129207611083984375">
        <ele>1675.4000244140625</ele>
        <time>2026-06-18T08:37:53.000Z</time>
        <extensions>
          <ns3:TrackPointExtension>
            <ns3:atemp>24.0</ns3:atemp>
          </ns3:TrackPointExtension>
        </extensions>
      </trkpt>
      <trkpt lat="42.52925944514572620391845703125" lon="19.76477771066129207611083984375">
        <ele>1675.4000244140625</ele>
        <time>2026-06-18T08:37:54.000Z</time>
        <extensions>
          <ns3:TrackPointExtension>
            <ns3:atemp>24.0</ns3:atemp>
          </ns3:TrackPointExtension>
        </extensions>
      </trkpt>
      <trkpt lat="42.52925944514572620391845703125" lon="19.76477771066129207611083984375">
        <ele>1675.4000244140625</ele>
        <time>2026-06-18T08:37:55.000Z</time>
        <extensions>
          <ns3:TrackPointExtension>
            <ns3:atemp>24.0</ns3:atemp>
          </ns3:TrackPointExtension>
        </extensions>
      </trkpt>
      <trkpt lat="42.52925944514572620391845703125" lon="19.76477771066129207611083984375">
        <ele>1675.4000244140625</ele>
        <time>2026-06-18T08:37:56.000Z</time>
        <extensions>
          <ns3:TrackPointExtension>
            <ns3:atemp>24.0</ns3:atemp>
          </ns3:TrackPointExtension>
        </extensions>
      </trkpt>
      <trkpt lat="42.52925944514572620391845703125" lon="19.76477771066129207611083984375">
        <ele>1675.4000244140625</ele>
        <time>2026-06-18T08:37:57.000Z</time>
        <extensions>
          <ns3:TrackPointExtension>
            <ns3:atemp>24.0</ns3:atemp>
          </ns3:TrackPointExtension>
        </extensions>
      </trkpt>
      <trkpt lat="42.52925944514572620391845703125" lon="19.76477771066129207611083984375">
        <ele>1675.4000244140625</ele>
        <time>2026-06-18T08:37:58.000Z</time>
        <extensions>
          <ns3:TrackPointExtension>
            <ns3:atemp>24.0</ns3:atemp>
          </ns3:TrackPointExtension>
        </extensions>
      </trkpt>
      <trkpt lat="42.52925944514572620391845703125" lon="19.76477771066129207611083984375">
        <ele>1675.4000244140625</ele>
        <time>2026-06-18T08:37:59.000Z</time>
        <extensions>
          <ns3:TrackPointExtension>
            <ns3:atemp>24.0</ns3:atemp>
          </ns3:TrackPointExtension>
        </extensions>
      </trkpt>
      <trkpt lat="42.52925944514572620391845703125" lon="19.76477771066129207611083984375">
        <ele>1675.4000244140625</ele>
        <time>2026-06-18T08:38:00.000Z</time>
        <extensions>
          <ns3:TrackPointExtension>
            <ns3:atemp>24.0</ns3:atemp>
          </ns3:TrackPointExtension>
        </extensions>
      </trkpt>
      <trkpt lat="42.52925944514572620391845703125" lon="19.76477771066129207611083984375">
        <ele>1675.4000244140625</ele>
        <time>2026-06-18T08:38:01.000Z</time>
        <extensions>
          <ns3:TrackPointExtension>
            <ns3:atemp>24.0</ns3:atemp>
          </ns3:TrackPointExtension>
        </extensions>
      </trkpt>
      <trkpt lat="42.52925944514572620391845703125" lon="19.76477771066129207611083984375">
        <ele>1675.4000244140625</ele>
        <time>2026-06-18T08:38:02.000Z</time>
        <extensions>
          <ns3:TrackPointExtension>
            <ns3:atemp>24.0</ns3:atemp>
          </ns3:TrackPointExtension>
        </extensions>
      </trkpt>
      <trkpt lat="42.52925944514572620391845703125" lon="19.76477771066129207611083984375">
        <ele>1675.4000244140625</ele>
        <time>2026-06-18T08:38:03.000Z</time>
        <extensions>
          <ns3:TrackPointExtension>
            <ns3:atemp>24.0</ns3:atemp>
          </ns3:TrackPointExtension>
        </extensions>
      </trkpt>
      <trkpt lat="42.52925944514572620391845703125" lon="19.76477771066129207611083984375">
        <ele>1675.4000244140625</ele>
        <time>2026-06-18T08:38:04.000Z</time>
        <extensions>
          <ns3:TrackPointExtension>
            <ns3:atemp>24.0</ns3:atemp>
          </ns3:TrackPointExtension>
        </extensions>
      </trkpt>
      <trkpt lat="42.52925944514572620391845703125" lon="19.76477771066129207611083984375">
        <ele>1675.4000244140625</ele>
        <time>2026-06-18T08:38:05.000Z</time>
        <extensions>
          <ns3:TrackPointExtension>
            <ns3:atemp>24.0</ns3:atemp>
          </ns3:TrackPointExtension>
        </extensions>
      </trkpt>
      <trkpt lat="42.52925944514572620391845703125" lon="19.76477771066129207611083984375">
        <ele>1675.4000244140625</ele>
        <time>2026-06-18T08:38:06.000Z</time>
        <extensions>
          <ns3:TrackPointExtension>
            <ns3:atemp>24.0</ns3:atemp>
          </ns3:TrackPointExtension>
        </extensions>
      </trkpt>
      <trkpt lat="42.52925944514572620391845703125" lon="19.76477771066129207611083984375">
        <ele>1675.4000244140625</ele>
        <time>2026-06-18T08:38:07.000Z</time>
        <extensions>
          <ns3:TrackPointExtension>
            <ns3:atemp>25.0</ns3:atemp>
          </ns3:TrackPointExtension>
        </extensions>
      </trkpt>
      <trkpt lat="42.52925944514572620391845703125" lon="19.76477771066129207611083984375">
        <ele>1675.4000244140625</ele>
        <time>2026-06-18T08:38:08.000Z</time>
        <extensions>
          <ns3:TrackPointExtension>
            <ns3:atemp>25.0</ns3:atemp>
          </ns3:TrackPointExtension>
        </extensions>
      </trkpt>
      <trkpt lat="42.52925944514572620391845703125" lon="19.76477771066129207611083984375">
        <ele>1675.4000244140625</ele>
        <time>2026-06-18T08:38:09.000Z</time>
        <extensions>
          <ns3:TrackPointExtension>
            <ns3:atemp>25.0</ns3:atemp>
          </ns3:TrackPointExtension>
        </extensions>
      </trkpt>
      <trkpt lat="42.52925944514572620391845703125" lon="19.76477771066129207611083984375">
        <ele>1675.4000244140625</ele>
        <time>2026-06-18T08:38:10.000Z</time>
        <extensions>
          <ns3:TrackPointExtension>
            <ns3:atemp>25.0</ns3:atemp>
          </ns3:TrackPointExtension>
        </extensions>
      </trkpt>
      <trkpt lat="42.52925944514572620391845703125" lon="19.76477771066129207611083984375">
        <ele>1675.4000244140625</ele>
        <time>2026-06-18T08:38:11.000Z</time>
        <extensions>
          <ns3:TrackPointExtension>
            <ns3:atemp>25.0</ns3:atemp>
          </ns3:TrackPointExtension>
        </extensions>
      </trkpt>
      <trkpt lat="42.52925944514572620391845703125" lon="19.76477771066129207611083984375">
        <ele>1675.4000244140625</ele>
        <time>2026-06-18T08:38:12.000Z</time>
        <extensions>
          <ns3:TrackPointExtension>
            <ns3:atemp>25.0</ns3:atemp>
          </ns3:TrackPointExtension>
        </extensions>
      </trkpt>
      <trkpt lat="42.52925944514572620391845703125" lon="19.76477771066129207611083984375">
        <ele>1675.4000244140625</ele>
        <time>2026-06-18T08:38:13.000Z</time>
        <extensions>
          <ns3:TrackPointExtension>
            <ns3:atemp>25.0</ns3:atemp>
          </ns3:TrackPointExtension>
        </extensions>
      </trkpt>
      <trkpt lat="42.52925944514572620391845703125" lon="19.76477771066129207611083984375">
        <ele>1675.4000244140625</ele>
        <time>2026-06-18T08:38:14.000Z</time>
        <extensions>
          <ns3:TrackPointExtension>
            <ns3:atemp>25.0</ns3:atemp>
          </ns3:TrackPointExtension>
        </extensions>
      </trkpt>
      <trkpt lat="42.52925944514572620391845703125" lon="19.76477771066129207611083984375">
        <ele>1675.4000244140625</ele>
        <time>2026-06-18T08:38:15.000Z</time>
        <extensions>
          <ns3:TrackPointExtension>
            <ns3:atemp>25.0</ns3:atemp>
          </ns3:TrackPointExtension>
        </extensions>
      </trkpt>
      <trkpt lat="42.52925944514572620391845703125" lon="19.76477771066129207611083984375">
        <ele>1675.4000244140625</ele>
        <time>2026-06-18T08:38:16.000Z</time>
        <extensions>
          <ns3:TrackPointExtension>
            <ns3:atemp>25.0</ns3:atemp>
          </ns3:TrackPointExtension>
        </extensions>
      </trkpt>
      <trkpt lat="42.52925944514572620391845703125" lon="19.76477771066129207611083984375">
        <ele>1675.4000244140625</ele>
        <time>2026-06-18T08:38:17.000Z</time>
        <extensions>
          <ns3:TrackPointExtension>
            <ns3:atemp>25.0</ns3:atemp>
          </ns3:TrackPointExtension>
        </extensions>
      </trkpt>
      <trkpt lat="42.52925944514572620391845703125" lon="19.76477771066129207611083984375">
        <ele>1675.4000244140625</ele>
        <time>2026-06-18T08:38:18.000Z</time>
        <extensions>
          <ns3:TrackPointExtension>
            <ns3:atemp>25.0</ns3:atemp>
          </ns3:TrackPointExtension>
        </extensions>
      </trkpt>
      <trkpt lat="42.52925944514572620391845703125" lon="19.76477771066129207611083984375">
        <ele>1675.4000244140625</ele>
        <time>2026-06-18T08:38:19.000Z</time>
        <extensions>
          <ns3:TrackPointExtension>
            <ns3:atemp>25.0</ns3:atemp>
          </ns3:TrackPointExtension>
        </extensions>
      </trkpt>
      <trkpt lat="42.52925944514572620391845703125" lon="19.76477771066129207611083984375">
        <ele>1675.4000244140625</ele>
        <time>2026-06-18T08:38:20.000Z</time>
        <extensions>
          <ns3:TrackPointExtension>
            <ns3:atemp>25.0</ns3:atemp>
          </ns3:TrackPointExtension>
        </extensions>
      </trkpt>
      <trkpt lat="42.52925944514572620391845703125" lon="19.76477771066129207611083984375">
        <ele>1675.4000244140625</ele>
        <time>2026-06-18T08:38:21.000Z</time>
        <extensions>
          <ns3:TrackPointExtension>
            <ns3:atemp>25.0</ns3:atemp>
          </ns3:TrackPointExtension>
        </extensions>
      </trkpt>
      <trkpt lat="42.52925944514572620391845703125" lon="19.76477771066129207611083984375">
        <ele>1675.4000244140625</ele>
        <time>2026-06-18T08:38:22.000Z</time>
        <extensions>
          <ns3:TrackPointExtension>
            <ns3:atemp>25.0</ns3:atemp>
          </ns3:TrackPointExtension>
        </extensions>
      </trkpt>
      <trkpt lat="42.52925944514572620391845703125" lon="19.76477771066129207611083984375">
        <ele>1675.4000244140625</ele>
        <time>2026-06-18T08:38:23.000Z</time>
        <extensions>
          <ns3:TrackPointExtension>
            <ns3:atemp>25.0</ns3:atemp>
          </ns3:TrackPointExtension>
        </extensions>
      </trkpt>
      <trkpt lat="42.52925944514572620391845703125" lon="19.76477771066129207611083984375">
        <ele>1675.4000244140625</ele>
        <time>2026-06-18T08:38:24.000Z</time>
        <extensions>
          <ns3:TrackPointExtension>
            <ns3:atemp>25.0</ns3:atemp>
          </ns3:TrackPointExtension>
        </extensions>
      </trkpt>
      <trkpt lat="42.52925944514572620391845703125" lon="19.76477771066129207611083984375">
        <ele>1675.4000244140625</ele>
        <time>2026-06-18T08:38:25.000Z</time>
        <extensions>
          <ns3:TrackPointExtension>
            <ns3:atemp>25.0</ns3:atemp>
          </ns3:TrackPointExtension>
        </extensions>
      </trkpt>
      <trkpt lat="42.52925944514572620391845703125" lon="19.76477771066129207611083984375">
        <ele>1675.4000244140625</ele>
        <time>2026-06-18T08:38:26.000Z</time>
        <extensions>
          <ns3:TrackPointExtension>
            <ns3:atemp>25.0</ns3:atemp>
          </ns3:TrackPointExtension>
        </extensions>
      </trkpt>
      <trkpt lat="42.52925944514572620391845703125" lon="19.76477771066129207611083984375">
        <ele>1675.4000244140625</ele>
        <time>2026-06-18T08:38:27.000Z</time>
        <extensions>
          <ns3:TrackPointExtension>
            <ns3:atemp>25.0</ns3:atemp>
          </ns3:TrackPointExtension>
        </extensions>
      </trkpt>
      <trkpt lat="42.52925944514572620391845703125" lon="19.76477771066129207611083984375">
        <ele>1675.4000244140625</ele>
        <time>2026-06-18T08:38:28.000Z</time>
        <extensions>
          <ns3:TrackPointExtension>
            <ns3:atemp>25.0</ns3:atemp>
          </ns3:TrackPointExtension>
        </extensions>
      </trkpt>
      <trkpt lat="42.52925944514572620391845703125" lon="19.76477771066129207611083984375">
        <ele>1675.4000244140625</ele>
        <time>2026-06-18T08:38:29.000Z</time>
        <extensions>
          <ns3:TrackPointExtension>
            <ns3:atemp>25.0</ns3:atemp>
          </ns3:TrackPointExtension>
        </extensions>
      </trkpt>
      <trkpt lat="42.52925944514572620391845703125" lon="19.76477771066129207611083984375">
        <ele>1675.4000244140625</ele>
        <time>2026-06-18T08:38:30.000Z</time>
        <extensions>
          <ns3:TrackPointExtension>
            <ns3:atemp>25.0</ns3:atemp>
          </ns3:TrackPointExtension>
        </extensions>
      </trkpt>
      <trkpt lat="42.52925944514572620391845703125" lon="19.76477771066129207611083984375">
        <ele>1675.4000244140625</ele>
        <time>2026-06-18T08:38:31.000Z</time>
        <extensions>
          <ns3:TrackPointExtension>
            <ns3:atemp>25.0</ns3:atemp>
          </ns3:TrackPointExtension>
        </extensions>
      </trkpt>
      <trkpt lat="42.52925944514572620391845703125" lon="19.76477771066129207611083984375">
        <ele>1675.4000244140625</ele>
        <time>2026-06-18T08:38:32.000Z</time>
        <extensions>
          <ns3:TrackPointExtension>
            <ns3:atemp>25.0</ns3:atemp>
          </ns3:TrackPointExtension>
        </extensions>
      </trkpt>
      <trkpt lat="42.52925944514572620391845703125" lon="19.76477771066129207611083984375">
        <ele>1675.4000244140625</ele>
        <time>2026-06-18T08:38:33.000Z</time>
        <extensions>
          <ns3:TrackPointExtension>
            <ns3:atemp>25.0</ns3:atemp>
          </ns3:TrackPointExtension>
        </extensions>
      </trkpt>
      <trkpt lat="42.52925944514572620391845703125" lon="19.76477771066129207611083984375">
        <ele>1675.4000244140625</ele>
        <time>2026-06-18T08:38:34.000Z</time>
        <extensions>
          <ns3:TrackPointExtension>
            <ns3:atemp>25.0</ns3:atemp>
          </ns3:TrackPointExtension>
        </extensions>
      </trkpt>
      <trkpt lat="42.52925944514572620391845703125" lon="19.76477771066129207611083984375">
        <ele>1675.4000244140625</ele>
        <time>2026-06-18T08:38:35.000Z</time>
        <extensions>
          <ns3:TrackPointExtension>
            <ns3:atemp>25.0</ns3:atemp>
          </ns3:TrackPointExtension>
        </extensions>
      </trkpt>
      <trkpt lat="42.52925944514572620391845703125" lon="19.76477771066129207611083984375">
        <ele>1675.4000244140625</ele>
        <time>2026-06-18T08:38:36.000Z</time>
        <extensions>
          <ns3:TrackPointExtension>
            <ns3:atemp>25.0</ns3:atemp>
          </ns3:TrackPointExtension>
        </extensions>
      </trkpt>
      <trkpt lat="42.52925944514572620391845703125" lon="19.76477771066129207611083984375">
        <ele>1675.4000244140625</ele>
        <time>2026-06-18T08:38:37.000Z</time>
        <extensions>
          <ns3:TrackPointExtension>
            <ns3:atemp>25.0</ns3:atemp>
          </ns3:TrackPointExtension>
        </extensions>
      </trkpt>
      <trkpt lat="42.52925944514572620391845703125" lon="19.76477771066129207611083984375">
        <ele>1675.4000244140625</ele>
        <time>2026-06-18T08:38:38.000Z</time>
        <extensions>
          <ns3:TrackPointExtension>
            <ns3:atemp>25.0</ns3:atemp>
          </ns3:TrackPointExtension>
        </extensions>
      </trkpt>
      <trkpt lat="42.52925944514572620391845703125" lon="19.76477771066129207611083984375">
        <ele>1675.4000244140625</ele>
        <time>2026-06-18T08:38:39.000Z</time>
        <extensions>
          <ns3:TrackPointExtension>
            <ns3:atemp>25.0</ns3:atemp>
          </ns3:TrackPointExtension>
        </extensions>
      </trkpt>
      <trkpt lat="42.52925944514572620391845703125" lon="19.76477771066129207611083984375">
        <ele>1675.4000244140625</ele>
        <time>2026-06-18T08:38:40.000Z</time>
        <extensions>
          <ns3:TrackPointExtension>
            <ns3:atemp>25.0</ns3:atemp>
          </ns3:TrackPointExtension>
        </extensions>
      </trkpt>
      <trkpt lat="42.52925944514572620391845703125" lon="19.76477771066129207611083984375">
        <ele>1675.4000244140625</ele>
        <time>2026-06-18T08:38:41.000Z</time>
        <extensions>
          <ns3:TrackPointExtension>
            <ns3:atemp>25.0</ns3:atemp>
          </ns3:TrackPointExtension>
        </extensions>
      </trkpt>
      <trkpt lat="42.52925944514572620391845703125" lon="19.76477771066129207611083984375">
        <ele>1675.4000244140625</ele>
        <time>2026-06-18T08:38:42.000Z</time>
        <extensions>
          <ns3:TrackPointExtension>
            <ns3:atemp>25.0</ns3:atemp>
          </ns3:TrackPointExtension>
        </extensions>
      </trkpt>
      <trkpt lat="42.52925944514572620391845703125" lon="19.76477771066129207611083984375">
        <ele>1675.4000244140625</ele>
        <time>2026-06-18T08:38:43.000Z</time>
        <extensions>
          <ns3:TrackPointExtension>
            <ns3:atemp>25.0</ns3:atemp>
          </ns3:TrackPointExtension>
        </extensions>
      </trkpt>
      <trkpt lat="42.52925944514572620391845703125" lon="19.76477771066129207611083984375">
        <ele>1675.4000244140625</ele>
        <time>2026-06-18T08:38:44.000Z</time>
        <extensions>
          <ns3:TrackPointExtension>
            <ns3:atemp>25.0</ns3:atemp>
          </ns3:TrackPointExtension>
        </extensions>
      </trkpt>
      <trkpt lat="42.52925944514572620391845703125" lon="19.76477771066129207611083984375">
        <ele>1675.4000244140625</ele>
        <time>2026-06-18T08:38:45.000Z</time>
        <extensions>
          <ns3:TrackPointExtension>
            <ns3:atemp>25.0</ns3:atemp>
          </ns3:TrackPointExtension>
        </extensions>
      </trkpt>
      <trkpt lat="42.52925944514572620391845703125" lon="19.76477771066129207611083984375">
        <ele>1675.4000244140625</ele>
        <time>2026-06-18T08:38:46.000Z</time>
        <extensions>
          <ns3:TrackPointExtension>
            <ns3:atemp>25.0</ns3:atemp>
          </ns3:TrackPointExtension>
        </extensions>
      </trkpt>
      <trkpt lat="42.52925944514572620391845703125" lon="19.76477771066129207611083984375">
        <ele>1675.4000244140625</ele>
        <time>2026-06-18T08:38:47.000Z</time>
        <extensions>
          <ns3:TrackPointExtension>
            <ns3:atemp>25.0</ns3:atemp>
          </ns3:TrackPointExtension>
        </extensions>
      </trkpt>
      <trkpt lat="42.52925944514572620391845703125" lon="19.76477771066129207611083984375">
        <ele>1675.4000244140625</ele>
        <time>2026-06-18T08:38:48.000Z</time>
        <extensions>
          <ns3:TrackPointExtension>
            <ns3:atemp>25.0</ns3:atemp>
          </ns3:TrackPointExtension>
        </extensions>
      </trkpt>
      <trkpt lat="42.52925944514572620391845703125" lon="19.76477771066129207611083984375">
        <ele>1675.4000244140625</ele>
        <time>2026-06-18T08:38:49.000Z</time>
        <extensions>
          <ns3:TrackPointExtension>
            <ns3:atemp>25.0</ns3:atemp>
          </ns3:TrackPointExtension>
        </extensions>
      </trkpt>
      <trkpt lat="42.52925944514572620391845703125" lon="19.76477771066129207611083984375">
        <ele>1675.4000244140625</ele>
        <time>2026-06-18T08:38:50.000Z</time>
        <extensions>
          <ns3:TrackPointExtension>
            <ns3:atemp>25.0</ns3:atemp>
          </ns3:TrackPointExtension>
        </extensions>
      </trkpt>
      <trkpt lat="42.52925944514572620391845703125" lon="19.76477771066129207611083984375">
        <ele>1675.4000244140625</ele>
        <time>2026-06-18T08:38:51.000Z</time>
        <extensions>
          <ns3:TrackPointExtension>
            <ns3:atemp>25.0</ns3:atemp>
          </ns3:TrackPointExtension>
        </extensions>
      </trkpt>
      <trkpt lat="42.52925944514572620391845703125" lon="19.76477771066129207611083984375">
        <ele>1675.4000244140625</ele>
        <time>2026-06-18T08:38:52.000Z</time>
        <extensions>
          <ns3:TrackPointExtension>
            <ns3:atemp>25.0</ns3:atemp>
          </ns3:TrackPointExtension>
        </extensions>
      </trkpt>
      <trkpt lat="42.52925944514572620391845703125" lon="19.76477771066129207611083984375">
        <ele>1675.4000244140625</ele>
        <time>2026-06-18T08:38:53.000Z</time>
        <extensions>
          <ns3:TrackPointExtension>
            <ns3:atemp>25.0</ns3:atemp>
          </ns3:TrackPointExtension>
        </extensions>
      </trkpt>
      <trkpt lat="42.52925944514572620391845703125" lon="19.76477771066129207611083984375">
        <ele>1675.4000244140625</ele>
        <time>2026-06-18T08:38:54.000Z</time>
        <extensions>
          <ns3:TrackPointExtension>
            <ns3:atemp>25.0</ns3:atemp>
          </ns3:TrackPointExtension>
        </extensions>
      </trkpt>
      <trkpt lat="42.52925944514572620391845703125" lon="19.76477771066129207611083984375">
        <ele>1675.4000244140625</ele>
        <time>2026-06-18T08:38:55.000Z</time>
        <extensions>
          <ns3:TrackPointExtension>
            <ns3:atemp>25.0</ns3:atemp>
          </ns3:TrackPointExtension>
        </extensions>
      </trkpt>
      <trkpt lat="42.52925944514572620391845703125" lon="19.76477771066129207611083984375">
        <ele>1675.4000244140625</ele>
        <time>2026-06-18T08:38:56.000Z</time>
        <extensions>
          <ns3:TrackPointExtension>
            <ns3:atemp>25.0</ns3:atemp>
          </ns3:TrackPointExtension>
        </extensions>
      </trkpt>
      <trkpt lat="42.52925944514572620391845703125" lon="19.76477771066129207611083984375">
        <ele>1675.4000244140625</ele>
        <time>2026-06-18T08:38:57.000Z</time>
        <extensions>
          <ns3:TrackPointExtension>
            <ns3:atemp>25.0</ns3:atemp>
          </ns3:TrackPointExtension>
        </extensions>
      </trkpt>
      <trkpt lat="42.52925944514572620391845703125" lon="19.76477771066129207611083984375">
        <ele>1675.4000244140625</ele>
        <time>2026-06-18T08:38:58.000Z</time>
        <extensions>
          <ns3:TrackPointExtension>
            <ns3:atemp>25.0</ns3:atemp>
          </ns3:TrackPointExtension>
        </extensions>
      </trkpt>
      <trkpt lat="42.52925944514572620391845703125" lon="19.76477771066129207611083984375">
        <ele>1675.4000244140625</ele>
        <time>2026-06-18T08:38:59.000Z</time>
        <extensions>
          <ns3:TrackPointExtension>
            <ns3:atemp>25.0</ns3:atemp>
          </ns3:TrackPointExtension>
        </extensions>
      </trkpt>
      <trkpt lat="42.52925944514572620391845703125" lon="19.76477771066129207611083984375">
        <ele>1675.4000244140625</ele>
        <time>2026-06-18T08:39:00.000Z</time>
        <extensions>
          <ns3:TrackPointExtension>
            <ns3:atemp>25.0</ns3:atemp>
          </ns3:TrackPointExtension>
        </extensions>
      </trkpt>
      <trkpt lat="42.52925944514572620391845703125" lon="19.76477771066129207611083984375">
        <ele>1675.4000244140625</ele>
        <time>2026-06-18T08:39:01.000Z</time>
        <extensions>
          <ns3:TrackPointExtension>
            <ns3:atemp>25.0</ns3:atemp>
          </ns3:TrackPointExtension>
        </extensions>
      </trkpt>
      <trkpt lat="42.52925944514572620391845703125" lon="19.76477771066129207611083984375">
        <ele>1675.4000244140625</ele>
        <time>2026-06-18T08:39:02.000Z</time>
        <extensions>
          <ns3:TrackPointExtension>
            <ns3:atemp>25.0</ns3:atemp>
          </ns3:TrackPointExtension>
        </extensions>
      </trkpt>
      <trkpt lat="42.52925944514572620391845703125" lon="19.76477771066129207611083984375">
        <ele>1675.4000244140625</ele>
        <time>2026-06-18T08:39:03.000Z</time>
        <extensions>
          <ns3:TrackPointExtension>
            <ns3:atemp>25.0</ns3:atemp>
          </ns3:TrackPointExtension>
        </extensions>
      </trkpt>
      <trkpt lat="42.52925944514572620391845703125" lon="19.76477771066129207611083984375">
        <ele>1675.4000244140625</ele>
        <time>2026-06-18T08:39:04.000Z</time>
        <extensions>
          <ns3:TrackPointExtension>
            <ns3:atemp>25.0</ns3:atemp>
          </ns3:TrackPointExtension>
        </extensions>
      </trkpt>
      <trkpt lat="42.52925944514572620391845703125" lon="19.76477771066129207611083984375">
        <ele>1675.4000244140625</ele>
        <time>2026-06-18T08:39:05.000Z</time>
        <extensions>
          <ns3:TrackPointExtension>
            <ns3:atemp>25.0</ns3:atemp>
          </ns3:TrackPointExtension>
        </extensions>
      </trkpt>
      <trkpt lat="42.52925944514572620391845703125" lon="19.76477771066129207611083984375">
        <ele>1675.4000244140625</ele>
        <time>2026-06-18T08:39:06.000Z</time>
        <extensions>
          <ns3:TrackPointExtension>
            <ns3:atemp>25.0</ns3:atemp>
          </ns3:TrackPointExtension>
        </extensions>
      </trkpt>
      <trkpt lat="42.52925944514572620391845703125" lon="19.76477771066129207611083984375">
        <ele>1675.4000244140625</ele>
        <time>2026-06-18T08:39:07.000Z</time>
        <extensions>
          <ns3:TrackPointExtension>
            <ns3:atemp>25.0</ns3:atemp>
          </ns3:TrackPointExtension>
        </extensions>
      </trkpt>
      <trkpt lat="42.52925944514572620391845703125" lon="19.76477771066129207611083984375">
        <ele>1675.4000244140625</ele>
        <time>2026-06-18T08:39:08.000Z</time>
        <extensions>
          <ns3:TrackPointExtension>
            <ns3:atemp>25.0</ns3:atemp>
          </ns3:TrackPointExtension>
        </extensions>
      </trkpt>
      <trkpt lat="42.52925944514572620391845703125" lon="19.76477771066129207611083984375">
        <ele>1675.4000244140625</ele>
        <time>2026-06-18T08:39:09.000Z</time>
        <extensions>
          <ns3:TrackPointExtension>
            <ns3:atemp>25.0</ns3:atemp>
          </ns3:TrackPointExtension>
        </extensions>
      </trkpt>
      <trkpt lat="42.52925944514572620391845703125" lon="19.76477771066129207611083984375">
        <ele>1675.4000244140625</ele>
        <time>2026-06-18T08:39:10.000Z</time>
        <extensions>
          <ns3:TrackPointExtension>
            <ns3:atemp>25.0</ns3:atemp>
          </ns3:TrackPointExtension>
        </extensions>
      </trkpt>
      <trkpt lat="42.52925944514572620391845703125" lon="19.76477771066129207611083984375">
        <ele>1675.4000244140625</ele>
        <time>2026-06-18T08:39:11.000Z</time>
        <extensions>
          <ns3:TrackPointExtension>
            <ns3:atemp>25.0</ns3:atemp>
          </ns3:TrackPointExtension>
        </extensions>
      </trkpt>
      <trkpt lat="42.52925944514572620391845703125" lon="19.76477771066129207611083984375">
        <ele>1675.4000244140625</ele>
        <time>2026-06-18T08:39:12.000Z</time>
        <extensions>
          <ns3:TrackPointExtension>
            <ns3:atemp>25.0</ns3:atemp>
          </ns3:TrackPointExtension>
        </extensions>
      </trkpt>
      <trkpt lat="42.52925944514572620391845703125" lon="19.76477771066129207611083984375">
        <ele>1675.4000244140625</ele>
        <time>2026-06-18T08:39:13.000Z</time>
        <extensions>
          <ns3:TrackPointExtension>
            <ns3:atemp>25.0</ns3:atemp>
          </ns3:TrackPointExtension>
        </extensions>
      </trkpt>
      <trkpt lat="42.52925944514572620391845703125" lon="19.76477771066129207611083984375">
        <ele>1675.4000244140625</ele>
        <time>2026-06-18T08:39:14.000Z</time>
        <extensions>
          <ns3:TrackPointExtension>
            <ns3:atemp>25.0</ns3:atemp>
          </ns3:TrackPointExtension>
        </extensions>
      </trkpt>
      <trkpt lat="42.52925944514572620391845703125" lon="19.76477771066129207611083984375">
        <ele>1675.4000244140625</ele>
        <time>2026-06-18T08:39:15.000Z</time>
        <extensions>
          <ns3:TrackPointExtension>
            <ns3:atemp>25.0</ns3:atemp>
          </ns3:TrackPointExtension>
        </extensions>
      </trkpt>
      <trkpt lat="42.52925944514572620391845703125" lon="19.76477771066129207611083984375">
        <ele>1675.4000244140625</ele>
        <time>2026-06-18T08:39:16.000Z</time>
        <extensions>
          <ns3:TrackPointExtension>
            <ns3:atemp>25.0</ns3:atemp>
          </ns3:TrackPointExtension>
        </extensions>
      </trkpt>
      <trkpt lat="42.52925944514572620391845703125" lon="19.76477771066129207611083984375">
        <ele>1675.4000244140625</ele>
        <time>2026-06-18T08:39:17.000Z</time>
        <extensions>
          <ns3:TrackPointExtension>
            <ns3:atemp>25.0</ns3:atemp>
          </ns3:TrackPointExtension>
        </extensions>
      </trkpt>
      <trkpt lat="42.52925944514572620391845703125" lon="19.76477771066129207611083984375">
        <ele>1675.4000244140625</ele>
        <time>2026-06-18T08:39:18.000Z</time>
        <extensions>
          <ns3:TrackPointExtension>
            <ns3:atemp>25.0</ns3:atemp>
          </ns3:TrackPointExtension>
        </extensions>
      </trkpt>
      <trkpt lat="42.52925944514572620391845703125" lon="19.76477771066129207611083984375">
        <ele>1675.4000244140625</ele>
        <time>2026-06-18T08:39:19.000Z</time>
        <extensions>
          <ns3:TrackPointExtension>
            <ns3:atemp>25.0</ns3:atemp>
          </ns3:TrackPointExtension>
        </extensions>
      </trkpt>
      <trkpt lat="42.52925944514572620391845703125" lon="19.76477771066129207611083984375">
        <ele>1675.4000244140625</ele>
        <time>2026-06-18T08:39:20.000Z</time>
        <extensions>
          <ns3:TrackPointExtension>
            <ns3:atemp>25.0</ns3:atemp>
          </ns3:TrackPointExtension>
        </extensions>
      </trkpt>
      <trkpt lat="42.52925944514572620391845703125" lon="19.76477771066129207611083984375">
        <ele>1675.4000244140625</ele>
        <time>2026-06-18T08:39:21.000Z</time>
        <extensions>
          <ns3:TrackPointExtension>
            <ns3:atemp>25.0</ns3:atemp>
          </ns3:TrackPointExtension>
        </extensions>
      </trkpt>
      <trkpt lat="42.52925944514572620391845703125" lon="19.76477771066129207611083984375">
        <ele>1675.4000244140625</ele>
        <time>2026-06-18T08:39:22.000Z</time>
        <extensions>
          <ns3:TrackPointExtension>
            <ns3:atemp>25.0</ns3:atemp>
          </ns3:TrackPointExtension>
        </extensions>
      </trkpt>
      <trkpt lat="42.52925944514572620391845703125" lon="19.76477771066129207611083984375">
        <ele>1675.4000244140625</ele>
        <time>2026-06-18T08:39:23.000Z</time>
        <extensions>
          <ns3:TrackPointExtension>
            <ns3:atemp>25.0</ns3:atemp>
          </ns3:TrackPointExtension>
        </extensions>
      </trkpt>
      <trkpt lat="42.52925944514572620391845703125" lon="19.76477771066129207611083984375">
        <ele>1675.4000244140625</ele>
        <time>2026-06-18T08:39:24.000Z</time>
        <extensions>
          <ns3:TrackPointExtension>
            <ns3:atemp>25.0</ns3:atemp>
          </ns3:TrackPointExtension>
        </extensions>
      </trkpt>
      <trkpt lat="42.52925944514572620391845703125" lon="19.76477771066129207611083984375">
        <ele>1675.4000244140625</ele>
        <time>2026-06-18T08:39:25.000Z</time>
        <extensions>
          <ns3:TrackPointExtension>
            <ns3:atemp>25.0</ns3:atemp>
          </ns3:TrackPointExtension>
        </extensions>
      </trkpt>
      <trkpt lat="42.52925944514572620391845703125" lon="19.76477771066129207611083984375">
        <ele>1675.4000244140625</ele>
        <time>2026-06-18T08:39:26.000Z</time>
        <extensions>
          <ns3:TrackPointExtension>
            <ns3:atemp>25.0</ns3:atemp>
          </ns3:TrackPointExtension>
        </extensions>
      </trkpt>
      <trkpt lat="42.52925944514572620391845703125" lon="19.76477771066129207611083984375">
        <ele>1675.4000244140625</ele>
        <time>2026-06-18T08:39:27.000Z</time>
        <extensions>
          <ns3:TrackPointExtension>
            <ns3:atemp>25.0</ns3:atemp>
          </ns3:TrackPointExtension>
        </extensions>
      </trkpt>
      <trkpt lat="42.52925944514572620391845703125" lon="19.76477771066129207611083984375">
        <ele>1675.4000244140625</ele>
        <time>2026-06-18T08:39:28.000Z</time>
        <extensions>
          <ns3:TrackPointExtension>
            <ns3:atemp>25.0</ns3:atemp>
          </ns3:TrackPointExtension>
        </extensions>
      </trkpt>
      <trkpt lat="42.52925944514572620391845703125" lon="19.76477771066129207611083984375">
        <ele>1675.4000244140625</ele>
        <time>2026-06-18T08:39:29.000Z</time>
        <extensions>
          <ns3:TrackPointExtension>
            <ns3:atemp>25.0</ns3:atemp>
          </ns3:TrackPointExtension>
        </extensions>
      </trkpt>
      <trkpt lat="42.52925944514572620391845703125" lon="19.76477771066129207611083984375">
        <ele>1675.4000244140625</ele>
        <time>2026-06-18T08:39:30.000Z</time>
        <extensions>
          <ns3:TrackPointExtension>
            <ns3:atemp>25.0</ns3:atemp>
          </ns3:TrackPointExtension>
        </extensions>
      </trkpt>
      <trkpt lat="42.52925944514572620391845703125" lon="19.76477771066129207611083984375">
        <ele>1675.4000244140625</ele>
        <time>2026-06-18T08:39:31.000Z</time>
        <extensions>
          <ns3:TrackPointExtension>
            <ns3:atemp>25.0</ns3:atemp>
          </ns3:TrackPointExtension>
        </extensions>
      </trkpt>
      <trkpt lat="42.52925944514572620391845703125" lon="19.76477771066129207611083984375">
        <ele>1675.4000244140625</ele>
        <time>2026-06-18T08:39:32.000Z</time>
        <extensions>
          <ns3:TrackPointExtension>
            <ns3:atemp>25.0</ns3:atemp>
          </ns3:TrackPointExtension>
        </extensions>
      </trkpt>
      <trkpt lat="42.52925944514572620391845703125" lon="19.76477771066129207611083984375">
        <ele>1675.4000244140625</ele>
        <time>2026-06-18T08:39:33.000Z</time>
        <extensions>
          <ns3:TrackPointExtension>
            <ns3:atemp>25.0</ns3:atemp>
          </ns3:TrackPointExtension>
        </extensions>
      </trkpt>
      <trkpt lat="42.52925944514572620391845703125" lon="19.76477771066129207611083984375">
        <ele>1675.4000244140625</ele>
        <time>2026-06-18T08:39:34.000Z</time>
        <extensions>
          <ns3:TrackPointExtension>
            <ns3:atemp>25.0</ns3:atemp>
          </ns3:TrackPointExtension>
        </extensions>
      </trkpt>
      <trkpt lat="42.52925944514572620391845703125" lon="19.76477771066129207611083984375">
        <ele>1675.4000244140625</ele>
        <time>2026-06-18T08:39:35.000Z</time>
        <extensions>
          <ns3:TrackPointExtension>
            <ns3:atemp>25.0</ns3:atemp>
          </ns3:TrackPointExtension>
        </extensions>
      </trkpt>
      <trkpt lat="42.52925944514572620391845703125" lon="19.76477771066129207611083984375">
        <ele>1675.4000244140625</ele>
        <time>2026-06-18T08:39:36.000Z</time>
        <extensions>
          <ns3:TrackPointExtension>
            <ns3:atemp>25.0</ns3:atemp>
          </ns3:TrackPointExtension>
        </extensions>
      </trkpt>
      <trkpt lat="42.52925944514572620391845703125" lon="19.76477771066129207611083984375">
        <ele>1675.4000244140625</ele>
        <time>2026-06-18T08:39:37.000Z</time>
        <extensions>
          <ns3:TrackPointExtension>
            <ns3:atemp>25.0</ns3:atemp>
          </ns3:TrackPointExtension>
        </extensions>
      </trkpt>
      <trkpt lat="42.52925944514572620391845703125" lon="19.76477771066129207611083984375">
        <ele>1675.4000244140625</ele>
        <time>2026-06-18T08:39:38.000Z</time>
        <extensions>
          <ns3:TrackPointExtension>
            <ns3:atemp>25.0</ns3:atemp>
          </ns3:TrackPointExtension>
        </extensions>
      </trkpt>
      <trkpt lat="42.52925944514572620391845703125" lon="19.76477771066129207611083984375">
        <ele>1675.4000244140625</ele>
        <time>2026-06-18T08:39:39.000Z</time>
        <extensions>
          <ns3:TrackPointExtension>
            <ns3:atemp>25.0</ns3:atemp>
          </ns3:TrackPointExtension>
        </extensions>
      </trkpt>
      <trkpt lat="42.52925944514572620391845703125" lon="19.76477771066129207611083984375">
        <ele>1675.4000244140625</ele>
        <time>2026-06-18T08:39:40.000Z</time>
        <extensions>
          <ns3:TrackPointExtension>
            <ns3:atemp>25.0</ns3:atemp>
          </ns3:TrackPointExtension>
        </extensions>
      </trkpt>
      <trkpt lat="42.52925944514572620391845703125" lon="19.76477771066129207611083984375">
        <ele>1675.4000244140625</ele>
        <time>2026-06-18T08:39:41.000Z</time>
        <extensions>
          <ns3:TrackPointExtension>
            <ns3:atemp>25.0</ns3:atemp>
          </ns3:TrackPointExtension>
        </extensions>
      </trkpt>
      <trkpt lat="42.52925944514572620391845703125" lon="19.76477771066129207611083984375">
        <ele>1675.4000244140625</ele>
        <time>2026-06-18T08:39:42.000Z</time>
        <extensions>
          <ns3:TrackPointExtension>
            <ns3:atemp>25.0</ns3:atemp>
          </ns3:TrackPointExtension>
        </extensions>
      </trkpt>
      <trkpt lat="42.52925944514572620391845703125" lon="19.76477771066129207611083984375">
        <ele>1675.4000244140625</ele>
        <time>2026-06-18T08:39:43.000Z</time>
        <extensions>
          <ns3:TrackPointExtension>
            <ns3:atemp>25.0</ns3:atemp>
          </ns3:TrackPointExtension>
        </extensions>
      </trkpt>
      <trkpt lat="42.52925944514572620391845703125" lon="19.76477771066129207611083984375">
        <ele>1675.4000244140625</ele>
        <time>2026-06-18T08:39:44.000Z</time>
        <extensions>
          <ns3:TrackPointExtension>
            <ns3:atemp>25.0</ns3:atemp>
          </ns3:TrackPointExtension>
        </extensions>
      </trkpt>
      <trkpt lat="42.52925944514572620391845703125" lon="19.76477771066129207611083984375">
        <ele>1675.4000244140625</ele>
        <time>2026-06-18T08:39:45.000Z</time>
        <extensions>
          <ns3:TrackPointExtension>
            <ns3:atemp>25.0</ns3:atemp>
          </ns3:TrackPointExtension>
        </extensions>
      </trkpt>
      <trkpt lat="42.52925944514572620391845703125" lon="19.76477771066129207611083984375">
        <ele>1675.4000244140625</ele>
        <time>2026-06-18T08:39:46.000Z</time>
        <extensions>
          <ns3:TrackPointExtension>
            <ns3:atemp>25.0</ns3:atemp>
          </ns3:TrackPointExtension>
        </extensions>
      </trkpt>
      <trkpt lat="42.52925944514572620391845703125" lon="19.76477771066129207611083984375">
        <ele>1675.4000244140625</ele>
        <time>2026-06-18T08:39:47.000Z</time>
        <extensions>
          <ns3:TrackPointExtension>
            <ns3:atemp>25.0</ns3:atemp>
          </ns3:TrackPointExtension>
        </extensions>
      </trkpt>
      <trkpt lat="42.52925944514572620391845703125" lon="19.76477771066129207611083984375">
        <ele>1675.4000244140625</ele>
        <time>2026-06-18T08:39:48.000Z</time>
        <extensions>
          <ns3:TrackPointExtension>
            <ns3:atemp>25.0</ns3:atemp>
          </ns3:TrackPointExtension>
        </extensions>
      </trkpt>
      <trkpt lat="42.52925944514572620391845703125" lon="19.76477771066129207611083984375">
        <ele>1675.4000244140625</ele>
        <time>2026-06-18T08:39:49.000Z</time>
        <extensions>
          <ns3:TrackPointExtension>
            <ns3:atemp>25.0</ns3:atemp>
          </ns3:TrackPointExtension>
        </extensions>
      </trkpt>
      <trkpt lat="42.52925944514572620391845703125" lon="19.76477771066129207611083984375">
        <ele>1675.4000244140625</ele>
        <time>2026-06-18T08:39:50.000Z</time>
        <extensions>
          <ns3:TrackPointExtension>
            <ns3:atemp>25.0</ns3:atemp>
          </ns3:TrackPointExtension>
        </extensions>
      </trkpt>
      <trkpt lat="42.52925944514572620391845703125" lon="19.76477771066129207611083984375">
        <ele>1675.4000244140625</ele>
        <time>2026-06-18T08:39:51.000Z</time>
        <extensions>
          <ns3:TrackPointExtension>
            <ns3:atemp>25.0</ns3:atemp>
          </ns3:TrackPointExtension>
        </extensions>
      </trkpt>
      <trkpt lat="42.52925944514572620391845703125" lon="19.76477771066129207611083984375">
        <ele>1675.4000244140625</ele>
        <time>2026-06-18T08:39:52.000Z</time>
        <extensions>
          <ns3:TrackPointExtension>
            <ns3:atemp>25.0</ns3:atemp>
          </ns3:TrackPointExtension>
        </extensions>
      </trkpt>
      <trkpt lat="42.52925944514572620391845703125" lon="19.76477771066129207611083984375">
        <ele>1675.4000244140625</ele>
        <time>2026-06-18T08:39:53.000Z</time>
        <extensions>
          <ns3:TrackPointExtension>
            <ns3:atemp>25.0</ns3:atemp>
          </ns3:TrackPointExtension>
        </extensions>
      </trkpt>
      <trkpt lat="42.52925944514572620391845703125" lon="19.76477771066129207611083984375">
        <ele>1675.4000244140625</ele>
        <time>2026-06-18T08:39:54.000Z</time>
        <extensions>
          <ns3:TrackPointExtension>
            <ns3:atemp>25.0</ns3:atemp>
          </ns3:TrackPointExtension>
        </extensions>
      </trkpt>
      <trkpt lat="42.52925944514572620391845703125" lon="19.76477771066129207611083984375">
        <ele>1675.4000244140625</ele>
        <time>2026-06-18T08:39:55.000Z</time>
        <extensions>
          <ns3:TrackPointExtension>
            <ns3:atemp>25.0</ns3:atemp>
          </ns3:TrackPointExtension>
        </extensions>
      </trkpt>
      <trkpt lat="42.52925944514572620391845703125" lon="19.76477771066129207611083984375">
        <ele>1675.4000244140625</ele>
        <time>2026-06-18T08:39:56.000Z</time>
        <extensions>
          <ns3:TrackPointExtension>
            <ns3:atemp>25.0</ns3:atemp>
          </ns3:TrackPointExtension>
        </extensions>
      </trkpt>
      <trkpt lat="42.52925944514572620391845703125" lon="19.76477771066129207611083984375">
        <ele>1675.4000244140625</ele>
        <time>2026-06-18T08:39:57.000Z</time>
        <extensions>
          <ns3:TrackPointExtension>
            <ns3:atemp>25.0</ns3:atemp>
          </ns3:TrackPointExtension>
        </extensions>
      </trkpt>
      <trkpt lat="42.52925944514572620391845703125" lon="19.76477771066129207611083984375">
        <ele>1675.4000244140625</ele>
        <time>2026-06-18T08:39:58.000Z</time>
        <extensions>
          <ns3:TrackPointExtension>
            <ns3:atemp>25.0</ns3:atemp>
          </ns3:TrackPointExtension>
        </extensions>
      </trkpt>
      <trkpt lat="42.52925944514572620391845703125" lon="19.76477771066129207611083984375">
        <ele>1675.4000244140625</ele>
        <time>2026-06-18T08:39:59.000Z</time>
        <extensions>
          <ns3:TrackPointExtension>
            <ns3:atemp>25.0</ns3:atemp>
          </ns3:TrackPointExtension>
        </extensions>
      </trkpt>
      <trkpt lat="42.52925944514572620391845703125" lon="19.76477771066129207611083984375">
        <ele>1675.4000244140625</ele>
        <time>2026-06-18T08:40:00.000Z</time>
        <extensions>
          <ns3:TrackPointExtension>
            <ns3:atemp>25.0</ns3:atemp>
          </ns3:TrackPointExtension>
        </extensions>
      </trkpt>
      <trkpt lat="42.52925944514572620391845703125" lon="19.76477771066129207611083984375">
        <ele>1675.4000244140625</ele>
        <time>2026-06-18T08:40:01.000Z</time>
        <extensions>
          <ns3:TrackPointExtension>
            <ns3:atemp>25.0</ns3:atemp>
          </ns3:TrackPointExtension>
        </extensions>
      </trkpt>
      <trkpt lat="42.52925944514572620391845703125" lon="19.76477771066129207611083984375">
        <ele>1675.4000244140625</ele>
        <time>2026-06-18T08:40:02.000Z</time>
        <extensions>
          <ns3:TrackPointExtension>
            <ns3:atemp>25.0</ns3:atemp>
          </ns3:TrackPointExtension>
        </extensions>
      </trkpt>
      <trkpt lat="42.52925944514572620391845703125" lon="19.76477771066129207611083984375">
        <ele>1675.4000244140625</ele>
        <time>2026-06-18T08:40:03.000Z</time>
        <extensions>
          <ns3:TrackPointExtension>
            <ns3:atemp>25.0</ns3:atemp>
          </ns3:TrackPointExtension>
        </extensions>
      </trkpt>
      <trkpt lat="42.52925944514572620391845703125" lon="19.76477771066129207611083984375">
        <ele>1675.4000244140625</ele>
        <time>2026-06-18T08:40:04.000Z</time>
        <extensions>
          <ns3:TrackPointExtension>
            <ns3:atemp>25.0</ns3:atemp>
          </ns3:TrackPointExtension>
        </extensions>
      </trkpt>
      <trkpt lat="42.52925944514572620391845703125" lon="19.76477771066129207611083984375">
        <ele>1675.4000244140625</ele>
        <time>2026-06-18T08:40:05.000Z</time>
        <extensions>
          <ns3:TrackPointExtension>
            <ns3:atemp>25.0</ns3:atemp>
          </ns3:TrackPointExtension>
        </extensions>
      </trkpt>
      <trkpt lat="42.52925944514572620391845703125" lon="19.76477771066129207611083984375">
        <ele>1675.4000244140625</ele>
        <time>2026-06-18T08:40:06.000Z</time>
        <extensions>
          <ns3:TrackPointExtension>
            <ns3:atemp>25.0</ns3:atemp>
          </ns3:TrackPointExtension>
        </extensions>
      </trkpt>
      <trkpt lat="42.52925944514572620391845703125" lon="19.76477771066129207611083984375">
        <ele>1675.4000244140625</ele>
        <time>2026-06-18T08:40:07.000Z</time>
        <extensions>
          <ns3:TrackPointExtension>
            <ns3:atemp>25.0</ns3:atemp>
          </ns3:TrackPointExtension>
        </extensions>
      </trkpt>
      <trkpt lat="42.52925944514572620391845703125" lon="19.76477771066129207611083984375">
        <ele>1675.4000244140625</ele>
        <time>2026-06-18T08:40:08.000Z</time>
        <extensions>
          <ns3:TrackPointExtension>
            <ns3:atemp>25.0</ns3:atemp>
          </ns3:TrackPointExtension>
        </extensions>
      </trkpt>
      <trkpt lat="42.52925944514572620391845703125" lon="19.76477771066129207611083984375">
        <ele>1675.4000244140625</ele>
        <time>2026-06-18T08:40:09.000Z</time>
        <extensions>
          <ns3:TrackPointExtension>
            <ns3:atemp>25.0</ns3:atemp>
          </ns3:TrackPointExtension>
        </extensions>
      </trkpt>
      <trkpt lat="42.52925944514572620391845703125" lon="19.76477771066129207611083984375">
        <ele>1675.4000244140625</ele>
        <time>2026-06-18T08:40:10.000Z</time>
        <extensions>
          <ns3:TrackPointExtension>
            <ns3:atemp>25.0</ns3:atemp>
          </ns3:TrackPointExtension>
        </extensions>
      </trkpt>
      <trkpt lat="42.52925944514572620391845703125" lon="19.76477771066129207611083984375">
        <ele>1675.4000244140625</ele>
        <time>2026-06-18T08:40:11.000Z</time>
        <extensions>
          <ns3:TrackPointExtension>
            <ns3:atemp>25.0</ns3:atemp>
          </ns3:TrackPointExtension>
        </extensions>
      </trkpt>
      <trkpt lat="42.52925944514572620391845703125" lon="19.76477771066129207611083984375">
        <ele>1675.4000244140625</ele>
        <time>2026-06-18T08:40:12.000Z</time>
        <extensions>
          <ns3:TrackPointExtension>
            <ns3:atemp>25.0</ns3:atemp>
          </ns3:TrackPointExtension>
        </extensions>
      </trkpt>
      <trkpt lat="42.52925944514572620391845703125" lon="19.76477771066129207611083984375">
        <ele>1675.4000244140625</ele>
        <time>2026-06-18T08:40:13.000Z</time>
        <extensions>
          <ns3:TrackPointExtension>
            <ns3:atemp>25.0</ns3:atemp>
          </ns3:TrackPointExtension>
        </extensions>
      </trkpt>
      <trkpt lat="42.52925944514572620391845703125" lon="19.76477771066129207611083984375">
        <ele>1675.4000244140625</ele>
        <time>2026-06-18T08:40:14.000Z</time>
        <extensions>
          <ns3:TrackPointExtension>
            <ns3:atemp>25.0</ns3:atemp>
          </ns3:TrackPointExtension>
        </extensions>
      </trkpt>
      <trkpt lat="42.52925944514572620391845703125" lon="19.76477771066129207611083984375">
        <ele>1675.4000244140625</ele>
        <time>2026-06-18T08:40:15.000Z</time>
        <extensions>
          <ns3:TrackPointExtension>
            <ns3:atemp>25.0</ns3:atemp>
          </ns3:TrackPointExtension>
        </extensions>
      </trkpt>
      <trkpt lat="42.52925944514572620391845703125" lon="19.76477771066129207611083984375">
        <ele>1675.4000244140625</ele>
        <time>2026-06-18T08:40:16.000Z</time>
        <extensions>
          <ns3:TrackPointExtension>
            <ns3:atemp>25.0</ns3:atemp>
          </ns3:TrackPointExtension>
        </extensions>
      </trkpt>
      <trkpt lat="42.52925944514572620391845703125" lon="19.76477771066129207611083984375">
        <ele>1675.4000244140625</ele>
        <time>2026-06-18T08:40:17.000Z</time>
        <extensions>
          <ns3:TrackPointExtension>
            <ns3:atemp>25.0</ns3:atemp>
          </ns3:TrackPointExtension>
        </extensions>
      </trkpt>
      <trkpt lat="42.52925944514572620391845703125" lon="19.76477771066129207611083984375">
        <ele>1675.4000244140625</ele>
        <time>2026-06-18T08:40:18.000Z</time>
        <extensions>
          <ns3:TrackPointExtension>
            <ns3:atemp>25.0</ns3:atemp>
          </ns3:TrackPointExtension>
        </extensions>
      </trkpt>
      <trkpt lat="42.52925944514572620391845703125" lon="19.76477771066129207611083984375">
        <ele>1675.4000244140625</ele>
        <time>2026-06-18T08:40:19.000Z</time>
        <extensions>
          <ns3:TrackPointExtension>
            <ns3:atemp>25.0</ns3:atemp>
          </ns3:TrackPointExtension>
        </extensions>
      </trkpt>
      <trkpt lat="42.52925944514572620391845703125" lon="19.76477771066129207611083984375">
        <ele>1675.4000244140625</ele>
        <time>2026-06-18T08:40:20.000Z</time>
        <extensions>
          <ns3:TrackPointExtension>
            <ns3:atemp>25.0</ns3:atemp>
          </ns3:TrackPointExtension>
        </extensions>
      </trkpt>
      <trkpt lat="42.52925944514572620391845703125" lon="19.76477771066129207611083984375">
        <ele>1675.4000244140625</ele>
        <time>2026-06-18T08:40:21.000Z</time>
        <extensions>
          <ns3:TrackPointExtension>
            <ns3:atemp>25.0</ns3:atemp>
          </ns3:TrackPointExtension>
        </extensions>
      </trkpt>
      <trkpt lat="42.52925944514572620391845703125" lon="19.76477771066129207611083984375">
        <ele>1675.4000244140625</ele>
        <time>2026-06-18T08:40:22.000Z</time>
        <extensions>
          <ns3:TrackPointExtension>
            <ns3:atemp>25.0</ns3:atemp>
          </ns3:TrackPointExtension>
        </extensions>
      </trkpt>
      <trkpt lat="42.52925944514572620391845703125" lon="19.76477771066129207611083984375">
        <ele>1675.4000244140625</ele>
        <time>2026-06-18T08:40:23.000Z</time>
        <extensions>
          <ns3:TrackPointExtension>
            <ns3:atemp>25.0</ns3:atemp>
          </ns3:TrackPointExtension>
        </extensions>
      </trkpt>
      <trkpt lat="42.52925944514572620391845703125" lon="19.76477771066129207611083984375">
        <ele>1675.4000244140625</ele>
        <time>2026-06-18T08:40:24.000Z</time>
        <extensions>
          <ns3:TrackPointExtension>
            <ns3:atemp>25.0</ns3:atemp>
          </ns3:TrackPointExtension>
        </extensions>
      </trkpt>
      <trkpt lat="42.52925944514572620391845703125" lon="19.76477771066129207611083984375">
        <ele>1675.4000244140625</ele>
        <time>2026-06-18T08:40:25.000Z</time>
        <extensions>
          <ns3:TrackPointExtension>
            <ns3:atemp>25.0</ns3:atemp>
          </ns3:TrackPointExtension>
        </extensions>
      </trkpt>
      <trkpt lat="42.52925944514572620391845703125" lon="19.76477771066129207611083984375">
        <ele>1675.4000244140625</ele>
        <time>2026-06-18T08:40:26.000Z</time>
        <extensions>
          <ns3:TrackPointExtension>
            <ns3:atemp>25.0</ns3:atemp>
          </ns3:TrackPointExtension>
        </extensions>
      </trkpt>
      <trkpt lat="42.52925944514572620391845703125" lon="19.76477771066129207611083984375">
        <ele>1675.4000244140625</ele>
        <time>2026-06-18T08:40:27.000Z</time>
        <extensions>
          <ns3:TrackPointExtension>
            <ns3:atemp>25.0</ns3:atemp>
          </ns3:TrackPointExtension>
        </extensions>
      </trkpt>
      <trkpt lat="42.52925944514572620391845703125" lon="19.76477771066129207611083984375">
        <ele>1675.4000244140625</ele>
        <time>2026-06-18T08:40:28.000Z</time>
        <extensions>
          <ns3:TrackPointExtension>
            <ns3:atemp>25.0</ns3:atemp>
          </ns3:TrackPointExtension>
        </extensions>
      </trkpt>
      <trkpt lat="42.52925944514572620391845703125" lon="19.76477771066129207611083984375">
        <ele>1675.4000244140625</ele>
        <time>2026-06-18T08:40:29.000Z</time>
        <extensions>
          <ns3:TrackPointExtension>
            <ns3:atemp>25.0</ns3:atemp>
          </ns3:TrackPointExtension>
        </extensions>
      </trkpt>
      <trkpt lat="42.52925944514572620391845703125" lon="19.76477771066129207611083984375">
        <ele>1675.4000244140625</ele>
        <time>2026-06-18T08:40:30.000Z</time>
        <extensions>
          <ns3:TrackPointExtension>
            <ns3:atemp>25.0</ns3:atemp>
          </ns3:TrackPointExtension>
        </extensions>
      </trkpt>
      <trkpt lat="42.52925944514572620391845703125" lon="19.76477771066129207611083984375">
        <ele>1675.4000244140625</ele>
        <time>2026-06-18T08:40:31.000Z</time>
        <extensions>
          <ns3:TrackPointExtension>
            <ns3:atemp>25.0</ns3:atemp>
          </ns3:TrackPointExtension>
        </extensions>
      </trkpt>
      <trkpt lat="42.52925944514572620391845703125" lon="19.76477771066129207611083984375">
        <ele>1675.4000244140625</ele>
        <time>2026-06-18T08:40:32.000Z</time>
        <extensions>
          <ns3:TrackPointExtension>
            <ns3:atemp>25.0</ns3:atemp>
          </ns3:TrackPointExtension>
        </extensions>
      </trkpt>
      <trkpt lat="42.52925944514572620391845703125" lon="19.76477771066129207611083984375">
        <ele>1675.4000244140625</ele>
        <time>2026-06-18T08:40:33.000Z</time>
        <extensions>
          <ns3:TrackPointExtension>
            <ns3:atemp>25.0</ns3:atemp>
          </ns3:TrackPointExtension>
        </extensions>
      </trkpt>
      <trkpt lat="42.52925944514572620391845703125" lon="19.76477771066129207611083984375">
        <ele>1675.4000244140625</ele>
        <time>2026-06-18T08:40:34.000Z</time>
        <extensions>
          <ns3:TrackPointExtension>
            <ns3:atemp>25.0</ns3:atemp>
          </ns3:TrackPointExtension>
        </extensions>
      </trkpt>
      <trkpt lat="42.52925944514572620391845703125" lon="19.76477771066129207611083984375">
        <ele>1675.4000244140625</ele>
        <time>2026-06-18T08:40:35.000Z</time>
        <extensions>
          <ns3:TrackPointExtension>
            <ns3:atemp>25.0</ns3:atemp>
          </ns3:TrackPointExtension>
        </extensions>
      </trkpt>
      <trkpt lat="42.52925944514572620391845703125" lon="19.76477771066129207611083984375">
        <ele>1675.4000244140625</ele>
        <time>2026-06-18T08:40:36.000Z</time>
        <extensions>
          <ns3:TrackPointExtension>
            <ns3:atemp>25.0</ns3:atemp>
          </ns3:TrackPointExtension>
        </extensions>
      </trkpt>
      <trkpt lat="42.52925944514572620391845703125" lon="19.76477771066129207611083984375">
        <ele>1675.4000244140625</ele>
        <time>2026-06-18T08:40:37.000Z</time>
        <extensions>
          <ns3:TrackPointExtension>
            <ns3:atemp>25.0</ns3:atemp>
          </ns3:TrackPointExtension>
        </extensions>
      </trkpt>
      <trkpt lat="42.52925944514572620391845703125" lon="19.76477771066129207611083984375">
        <ele>1675.4000244140625</ele>
        <time>2026-06-18T08:40:38.000Z</time>
        <extensions>
          <ns3:TrackPointExtension>
            <ns3:atemp>25.0</ns3:atemp>
          </ns3:TrackPointExtension>
        </extensions>
      </trkpt>
      <trkpt lat="42.52925944514572620391845703125" lon="19.76477771066129207611083984375">
        <ele>1675.4000244140625</ele>
        <time>2026-06-18T08:40:39.000Z</time>
        <extensions>
          <ns3:TrackPointExtension>
            <ns3:atemp>25.0</ns3:atemp>
          </ns3:TrackPointExtension>
        </extensions>
      </trkpt>
      <trkpt lat="42.52925944514572620391845703125" lon="19.76477771066129207611083984375">
        <ele>1675.4000244140625</ele>
        <time>2026-06-18T08:40:40.000Z</time>
        <extensions>
          <ns3:TrackPointExtension>
            <ns3:atemp>25.0</ns3:atemp>
          </ns3:TrackPointExtension>
        </extensions>
      </trkpt>
      <trkpt lat="42.52925944514572620391845703125" lon="19.76477771066129207611083984375">
        <ele>1675.4000244140625</ele>
        <time>2026-06-18T08:40:41.000Z</time>
        <extensions>
          <ns3:TrackPointExtension>
            <ns3:atemp>25.0</ns3:atemp>
          </ns3:TrackPointExtension>
        </extensions>
      </trkpt>
      <trkpt lat="42.52925944514572620391845703125" lon="19.76477771066129207611083984375">
        <ele>1675.4000244140625</ele>
        <time>2026-06-18T08:40:42.000Z</time>
        <extensions>
          <ns3:TrackPointExtension>
            <ns3:atemp>25.0</ns3:atemp>
          </ns3:TrackPointExtension>
        </extensions>
      </trkpt>
      <trkpt lat="42.52925944514572620391845703125" lon="19.76477771066129207611083984375">
        <ele>1675.4000244140625</ele>
        <time>2026-06-18T08:40:43.000Z</time>
        <extensions>
          <ns3:TrackPointExtension>
            <ns3:atemp>25.0</ns3:atemp>
          </ns3:TrackPointExtension>
        </extensions>
      </trkpt>
      <trkpt lat="42.52925944514572620391845703125" lon="19.76477771066129207611083984375">
        <ele>1675.4000244140625</ele>
        <time>2026-06-18T08:40:44.000Z</time>
        <extensions>
          <ns3:TrackPointExtension>
            <ns3:atemp>25.0</ns3:atemp>
          </ns3:TrackPointExtension>
        </extensions>
      </trkpt>
      <trkpt lat="42.52925944514572620391845703125" lon="19.76477771066129207611083984375">
        <ele>1675.4000244140625</ele>
        <time>2026-06-18T08:40:45.000Z</time>
        <extensions>
          <ns3:TrackPointExtension>
            <ns3:atemp>25.0</ns3:atemp>
          </ns3:TrackPointExtension>
        </extensions>
      </trkpt>
      <trkpt lat="42.52925944514572620391845703125" lon="19.76477771066129207611083984375">
        <ele>1675.4000244140625</ele>
        <time>2026-06-18T08:40:46.000Z</time>
        <extensions>
          <ns3:TrackPointExtension>
            <ns3:atemp>25.0</ns3:atemp>
          </ns3:TrackPointExtension>
        </extensions>
      </trkpt>
      <trkpt lat="42.52925944514572620391845703125" lon="19.76477771066129207611083984375">
        <ele>1675.4000244140625</ele>
        <time>2026-06-18T08:40:47.000Z</time>
        <extensions>
          <ns3:TrackPointExtension>
            <ns3:atemp>25.0</ns3:atemp>
          </ns3:TrackPointExtension>
        </extensions>
      </trkpt>
      <trkpt lat="42.52925944514572620391845703125" lon="19.76477771066129207611083984375">
        <ele>1675.4000244140625</ele>
        <time>2026-06-18T08:40:48.000Z</time>
        <extensions>
          <ns3:TrackPointExtension>
            <ns3:atemp>25.0</ns3:atemp>
          </ns3:TrackPointExtension>
        </extensions>
      </trkpt>
      <trkpt lat="42.52925944514572620391845703125" lon="19.76477771066129207611083984375">
        <ele>1675.4000244140625</ele>
        <time>2026-06-18T08:40:49.000Z</time>
        <extensions>
          <ns3:TrackPointExtension>
            <ns3:atemp>25.0</ns3:atemp>
          </ns3:TrackPointExtension>
        </extensions>
      </trkpt>
      <trkpt lat="42.52925944514572620391845703125" lon="19.76477771066129207611083984375">
        <ele>1675.4000244140625</ele>
        <time>2026-06-18T08:40:50.000Z</time>
        <extensions>
          <ns3:TrackPointExtension>
            <ns3:atemp>25.0</ns3:atemp>
          </ns3:TrackPointExtension>
        </extensions>
      </trkpt>
      <trkpt lat="42.52925944514572620391845703125" lon="19.76477771066129207611083984375">
        <ele>1675.4000244140625</ele>
        <time>2026-06-18T08:40:51.000Z</time>
        <extensions>
          <ns3:TrackPointExtension>
            <ns3:atemp>25.0</ns3:atemp>
          </ns3:TrackPointExtension>
        </extensions>
      </trkpt>
      <trkpt lat="42.52925944514572620391845703125" lon="19.76477771066129207611083984375">
        <ele>1675.4000244140625</ele>
        <time>2026-06-18T08:40:52.000Z</time>
        <extensions>
          <ns3:TrackPointExtension>
            <ns3:atemp>25.0</ns3:atemp>
          </ns3:TrackPointExtension>
        </extensions>
      </trkpt>
      <trkpt lat="42.52925944514572620391845703125" lon="19.76477771066129207611083984375">
        <ele>1675.4000244140625</ele>
        <time>2026-06-18T08:40:53.000Z</time>
        <extensions>
          <ns3:TrackPointExtension>
            <ns3:atemp>25.0</ns3:atemp>
          </ns3:TrackPointExtension>
        </extensions>
      </trkpt>
      <trkpt lat="42.52925944514572620391845703125" lon="19.76477771066129207611083984375">
        <ele>1675.4000244140625</ele>
        <time>2026-06-18T08:40:54.000Z</time>
        <extensions>
          <ns3:TrackPointExtension>
            <ns3:atemp>25.0</ns3:atemp>
          </ns3:TrackPointExtension>
        </extensions>
      </trkpt>
      <trkpt lat="42.52925944514572620391845703125" lon="19.76477771066129207611083984375">
        <ele>1675.4000244140625</ele>
        <time>2026-06-18T08:40:55.000Z</time>
        <extensions>
          <ns3:TrackPointExtension>
            <ns3:atemp>25.0</ns3:atemp>
          </ns3:TrackPointExtension>
        </extensions>
      </trkpt>
      <trkpt lat="42.52925944514572620391845703125" lon="19.76477771066129207611083984375">
        <ele>1675.4000244140625</ele>
        <time>2026-06-18T08:40:56.000Z</time>
        <extensions>
          <ns3:TrackPointExtension>
            <ns3:atemp>25.0</ns3:atemp>
          </ns3:TrackPointExtension>
        </extensions>
      </trkpt>
      <trkpt lat="42.52925944514572620391845703125" lon="19.76477771066129207611083984375">
        <ele>1675.4000244140625</ele>
        <time>2026-06-18T08:40:57.000Z</time>
        <extensions>
          <ns3:TrackPointExtension>
            <ns3:atemp>25.0</ns3:atemp>
          </ns3:TrackPointExtension>
        </extensions>
      </trkpt>
      <trkpt lat="42.52925944514572620391845703125" lon="19.76477771066129207611083984375">
        <ele>1675.4000244140625</ele>
        <time>2026-06-18T08:40:58.000Z</time>
        <extensions>
          <ns3:TrackPointExtension>
            <ns3:atemp>25.0</ns3:atemp>
          </ns3:TrackPointExtension>
        </extensions>
      </trkpt>
      <trkpt lat="42.52925944514572620391845703125" lon="19.76477771066129207611083984375">
        <ele>1675.4000244140625</ele>
        <time>2026-06-18T08:40:59.000Z</time>
        <extensions>
          <ns3:TrackPointExtension>
            <ns3:atemp>25.0</ns3:atemp>
          </ns3:TrackPointExtension>
        </extensions>
      </trkpt>
      <trkpt lat="42.52925944514572620391845703125" lon="19.76477771066129207611083984375">
        <ele>1675.4000244140625</ele>
        <time>2026-06-18T08:41:00.000Z</time>
        <extensions>
          <ns3:TrackPointExtension>
            <ns3:atemp>25.0</ns3:atemp>
          </ns3:TrackPointExtension>
        </extensions>
      </trkpt>
      <trkpt lat="42.52925944514572620391845703125" lon="19.76477771066129207611083984375">
        <ele>1675.4000244140625</ele>
        <time>2026-06-18T08:41:01.000Z</time>
        <extensions>
          <ns3:TrackPointExtension>
            <ns3:atemp>25.0</ns3:atemp>
          </ns3:TrackPointExtension>
        </extensions>
      </trkpt>
      <trkpt lat="42.52925944514572620391845703125" lon="19.76477771066129207611083984375">
        <ele>1675.4000244140625</ele>
        <time>2026-06-18T08:41:02.000Z</time>
        <extensions>
          <ns3:TrackPointExtension>
            <ns3:atemp>25.0</ns3:atemp>
          </ns3:TrackPointExtension>
        </extensions>
      </trkpt>
      <trkpt lat="42.52925944514572620391845703125" lon="19.76477771066129207611083984375">
        <ele>1675.4000244140625</ele>
        <time>2026-06-18T08:41:03.000Z</time>
        <extensions>
          <ns3:TrackPointExtension>
            <ns3:atemp>25.0</ns3:atemp>
          </ns3:TrackPointExtension>
        </extensions>
      </trkpt>
      <trkpt lat="42.52925944514572620391845703125" lon="19.76477771066129207611083984375">
        <ele>1675.4000244140625</ele>
        <time>2026-06-18T08:41:04.000Z</time>
        <extensions>
          <ns3:TrackPointExtension>
            <ns3:atemp>25.0</ns3:atemp>
          </ns3:TrackPointExtension>
        </extensions>
      </trkpt>
      <trkpt lat="42.52925944514572620391845703125" lon="19.76477771066129207611083984375">
        <ele>1675.4000244140625</ele>
        <time>2026-06-18T08:41:05.000Z</time>
        <extensions>
          <ns3:TrackPointExtension>
            <ns3:atemp>25.0</ns3:atemp>
          </ns3:TrackPointExtension>
        </extensions>
      </trkpt>
      <trkpt lat="42.52925944514572620391845703125" lon="19.76477771066129207611083984375">
        <ele>1675.4000244140625</ele>
        <time>2026-06-18T08:41:06.000Z</time>
        <extensions>
          <ns3:TrackPointExtension>
            <ns3:atemp>25.0</ns3:atemp>
          </ns3:TrackPointExtension>
        </extensions>
      </trkpt>
      <trkpt lat="42.52925944514572620391845703125" lon="19.76477771066129207611083984375">
        <ele>1675.4000244140625</ele>
        <time>2026-06-18T08:41:07.000Z</time>
        <extensions>
          <ns3:TrackPointExtension>
            <ns3:atemp>25.0</ns3:atemp>
          </ns3:TrackPointExtension>
        </extensions>
      </trkpt>
      <trkpt lat="42.52925944514572620391845703125" lon="19.76477771066129207611083984375">
        <ele>1675.4000244140625</ele>
        <time>2026-06-18T08:41:08.000Z</time>
        <extensions>
          <ns3:TrackPointExtension>
            <ns3:atemp>25.0</ns3:atemp>
          </ns3:TrackPointExtension>
        </extensions>
      </trkpt>
      <trkpt lat="42.52925944514572620391845703125" lon="19.76477771066129207611083984375">
        <ele>1675.4000244140625</ele>
        <time>2026-06-18T08:41:09.000Z</time>
        <extensions>
          <ns3:TrackPointExtension>
            <ns3:atemp>25.0</ns3:atemp>
          </ns3:TrackPointExtension>
        </extensions>
      </trkpt>
      <trkpt lat="42.52925944514572620391845703125" lon="19.76477771066129207611083984375">
        <ele>1675.4000244140625</ele>
        <time>2026-06-18T08:41:10.000Z</time>
        <extensions>
          <ns3:TrackPointExtension>
            <ns3:atemp>25.0</ns3:atemp>
          </ns3:TrackPointExtension>
        </extensions>
      </trkpt>
      <trkpt lat="42.52925944514572620391845703125" lon="19.76477771066129207611083984375">
        <ele>1675.4000244140625</ele>
        <time>2026-06-18T08:41:11.000Z</time>
        <extensions>
          <ns3:TrackPointExtension>
            <ns3:atemp>25.0</ns3:atemp>
          </ns3:TrackPointExtension>
        </extensions>
      </trkpt>
      <trkpt lat="42.52925944514572620391845703125" lon="19.76477771066129207611083984375">
        <ele>1675.4000244140625</ele>
        <time>2026-06-18T08:41:12.000Z</time>
        <extensions>
          <ns3:TrackPointExtension>
            <ns3:atemp>25.0</ns3:atemp>
          </ns3:TrackPointExtension>
        </extensions>
      </trkpt>
      <trkpt lat="42.52925944514572620391845703125" lon="19.76477771066129207611083984375">
        <ele>1675.4000244140625</ele>
        <time>2026-06-18T08:41:13.000Z</time>
        <extensions>
          <ns3:TrackPointExtension>
            <ns3:atemp>25.0</ns3:atemp>
          </ns3:TrackPointExtension>
        </extensions>
      </trkpt>
      <trkpt lat="42.52925944514572620391845703125" lon="19.76477771066129207611083984375">
        <ele>1675.4000244140625</ele>
        <time>2026-06-18T08:41:14.000Z</time>
        <extensions>
          <ns3:TrackPointExtension>
            <ns3:atemp>25.0</ns3:atemp>
          </ns3:TrackPointExtension>
        </extensions>
      </trkpt>
      <trkpt lat="42.52925944514572620391845703125" lon="19.76477771066129207611083984375">
        <ele>1675.4000244140625</ele>
        <time>2026-06-18T08:41:15.000Z</time>
        <extensions>
          <ns3:TrackPointExtension>
            <ns3:atemp>25.0</ns3:atemp>
          </ns3:TrackPointExtension>
        </extensions>
      </trkpt>
      <trkpt lat="42.52925944514572620391845703125" lon="19.76477771066129207611083984375">
        <ele>1675.4000244140625</ele>
        <time>2026-06-18T08:41:16.000Z</time>
        <extensions>
          <ns3:TrackPointExtension>
            <ns3:atemp>25.0</ns3:atemp>
          </ns3:TrackPointExtension>
        </extensions>
      </trkpt>
      <trkpt lat="42.52925944514572620391845703125" lon="19.76477771066129207611083984375">
        <ele>1675.4000244140625</ele>
        <time>2026-06-18T08:41:17.000Z</time>
        <extensions>
          <ns3:TrackPointExtension>
            <ns3:atemp>25.0</ns3:atemp>
          </ns3:TrackPointExtension>
        </extensions>
      </trkpt>
      <trkpt lat="42.52925944514572620391845703125" lon="19.76477771066129207611083984375">
        <ele>1675.4000244140625</ele>
        <time>2026-06-18T08:41:18.000Z</time>
        <extensions>
          <ns3:TrackPointExtension>
            <ns3:atemp>25.0</ns3:atemp>
          </ns3:TrackPointExtension>
        </extensions>
      </trkpt>
      <trkpt lat="42.52925944514572620391845703125" lon="19.76477771066129207611083984375">
        <ele>1675.4000244140625</ele>
        <time>2026-06-18T08:41:19.000Z</time>
        <extensions>
          <ns3:TrackPointExtension>
            <ns3:atemp>25.0</ns3:atemp>
          </ns3:TrackPointExtension>
        </extensions>
      </trkpt>
      <trkpt lat="42.52925944514572620391845703125" lon="19.76477771066129207611083984375">
        <ele>1675.4000244140625</ele>
        <time>2026-06-18T08:41:20.000Z</time>
        <extensions>
          <ns3:TrackPointExtension>
            <ns3:atemp>25.0</ns3:atemp>
          </ns3:TrackPointExtension>
        </extensions>
      </trkpt>
      <trkpt lat="42.52925944514572620391845703125" lon="19.76477771066129207611083984375">
        <ele>1675.4000244140625</ele>
        <time>2026-06-18T08:41:21.000Z</time>
        <extensions>
          <ns3:TrackPointExtension>
            <ns3:atemp>25.0</ns3:atemp>
          </ns3:TrackPointExtension>
        </extensions>
      </trkpt>
      <trkpt lat="42.52925944514572620391845703125" lon="19.76477771066129207611083984375">
        <ele>1675.4000244140625</ele>
        <time>2026-06-18T08:41:22.000Z</time>
        <extensions>
          <ns3:TrackPointExtension>
            <ns3:atemp>25.0</ns3:atemp>
          </ns3:TrackPointExtension>
        </extensions>
      </trkpt>
      <trkpt lat="42.52925944514572620391845703125" lon="19.76477771066129207611083984375">
        <ele>1675.4000244140625</ele>
        <time>2026-06-18T08:41:23.000Z</time>
        <extensions>
          <ns3:TrackPointExtension>
            <ns3:atemp>25.0</ns3:atemp>
          </ns3:TrackPointExtension>
        </extensions>
      </trkpt>
      <trkpt lat="42.52925944514572620391845703125" lon="19.76477771066129207611083984375">
        <ele>1675.4000244140625</ele>
        <time>2026-06-18T08:41:24.000Z</time>
        <extensions>
          <ns3:TrackPointExtension>
            <ns3:atemp>25.0</ns3:atemp>
          </ns3:TrackPointExtension>
        </extensions>
      </trkpt>
      <trkpt lat="42.52925944514572620391845703125" lon="19.76477771066129207611083984375">
        <ele>1675.4000244140625</ele>
        <time>2026-06-18T08:41:25.000Z</time>
        <extensions>
          <ns3:TrackPointExtension>
            <ns3:atemp>25.0</ns3:atemp>
          </ns3:TrackPointExtension>
        </extensions>
      </trkpt>
      <trkpt lat="42.52925944514572620391845703125" lon="19.76477771066129207611083984375">
        <ele>1675.4000244140625</ele>
        <time>2026-06-18T08:41:26.000Z</time>
        <extensions>
          <ns3:TrackPointExtension>
            <ns3:atemp>25.0</ns3:atemp>
          </ns3:TrackPointExtension>
        </extensions>
      </trkpt>
      <trkpt lat="42.52925944514572620391845703125" lon="19.76477771066129207611083984375">
        <ele>1675.4000244140625</ele>
        <time>2026-06-18T08:41:27.000Z</time>
        <extensions>
          <ns3:TrackPointExtension>
            <ns3:atemp>25.0</ns3:atemp>
          </ns3:TrackPointExtension>
        </extensions>
      </trkpt>
      <trkpt lat="42.52925944514572620391845703125" lon="19.76477771066129207611083984375">
        <ele>1675.4000244140625</ele>
        <time>2026-06-18T08:41:28.000Z</time>
        <extensions>
          <ns3:TrackPointExtension>
            <ns3:atemp>25.0</ns3:atemp>
          </ns3:TrackPointExtension>
        </extensions>
      </trkpt>
      <trkpt lat="42.52925944514572620391845703125" lon="19.76477771066129207611083984375">
        <ele>1675.4000244140625</ele>
        <time>2026-06-18T08:41:29.000Z</time>
        <extensions>
          <ns3:TrackPointExtension>
            <ns3:atemp>25.0</ns3:atemp>
          </ns3:TrackPointExtension>
        </extensions>
      </trkpt>
      <trkpt lat="42.52925944514572620391845703125" lon="19.76477771066129207611083984375">
        <ele>1675.4000244140625</ele>
        <time>2026-06-18T08:41:30.000Z</time>
        <extensions>
          <ns3:TrackPointExtension>
            <ns3:atemp>25.0</ns3:atemp>
          </ns3:TrackPointExtension>
        </extensions>
      </trkpt>
      <trkpt lat="42.52925944514572620391845703125" lon="19.76477771066129207611083984375">
        <ele>1675.4000244140625</ele>
        <time>2026-06-18T08:41:31.000Z</time>
        <extensions>
          <ns3:TrackPointExtension>
            <ns3:atemp>25.0</ns3:atemp>
          </ns3:TrackPointExtension>
        </extensions>
      </trkpt>
      <trkpt lat="42.52925944514572620391845703125" lon="19.76477771066129207611083984375">
        <ele>1675.4000244140625</ele>
        <time>2026-06-18T08:41:32.000Z</time>
        <extensions>
          <ns3:TrackPointExtension>
            <ns3:atemp>25.0</ns3:atemp>
          </ns3:TrackPointExtension>
        </extensions>
      </trkpt>
      <trkpt lat="42.52925944514572620391845703125" lon="19.76477771066129207611083984375">
        <ele>1675.4000244140625</ele>
        <time>2026-06-18T08:41:33.000Z</time>
        <extensions>
          <ns3:TrackPointExtension>
            <ns3:atemp>25.0</ns3:atemp>
          </ns3:TrackPointExtension>
        </extensions>
      </trkpt>
      <trkpt lat="42.52925944514572620391845703125" lon="19.76477771066129207611083984375">
        <ele>1675.4000244140625</ele>
        <time>2026-06-18T08:41:34.000Z</time>
        <extensions>
          <ns3:TrackPointExtension>
            <ns3:atemp>25.0</ns3:atemp>
          </ns3:TrackPointExtension>
        </extensions>
      </trkpt>
      <trkpt lat="42.52925944514572620391845703125" lon="19.76477771066129207611083984375">
        <ele>1675.4000244140625</ele>
        <time>2026-06-18T08:41:35.000Z</time>
        <extensions>
          <ns3:TrackPointExtension>
            <ns3:atemp>25.0</ns3:atemp>
          </ns3:TrackPointExtension>
        </extensions>
      </trkpt>
      <trkpt lat="42.52925944514572620391845703125" lon="19.76477771066129207611083984375">
        <ele>1675.4000244140625</ele>
        <time>2026-06-18T08:41:36.000Z</time>
        <extensions>
          <ns3:TrackPointExtension>
            <ns3:atemp>25.0</ns3:atemp>
          </ns3:TrackPointExtension>
        </extensions>
      </trkpt>
      <trkpt lat="42.52925944514572620391845703125" lon="19.76477771066129207611083984375">
        <ele>1675.4000244140625</ele>
        <time>2026-06-18T08:41:37.000Z</time>
        <extensions>
          <ns3:TrackPointExtension>
            <ns3:atemp>25.0</ns3:atemp>
          </ns3:TrackPointExtension>
        </extensions>
      </trkpt>
      <trkpt lat="42.52925944514572620391845703125" lon="19.76477771066129207611083984375">
        <ele>1675.4000244140625</ele>
        <time>2026-06-18T08:41:38.000Z</time>
        <extensions>
          <ns3:TrackPointExtension>
            <ns3:atemp>25.0</ns3:atemp>
          </ns3:TrackPointExtension>
        </extensions>
      </trkpt>
      <trkpt lat="42.52925944514572620391845703125" lon="19.76477771066129207611083984375">
        <ele>1675.4000244140625</ele>
        <time>2026-06-18T08:41:39.000Z</time>
        <extensions>
          <ns3:TrackPointExtension>
            <ns3:atemp>25.0</ns3:atemp>
          </ns3:TrackPointExtension>
        </extensions>
      </trkpt>
      <trkpt lat="42.52925944514572620391845703125" lon="19.76477771066129207611083984375">
        <ele>1675.4000244140625</ele>
        <time>2026-06-18T08:41:40.000Z</time>
        <extensions>
          <ns3:TrackPointExtension>
            <ns3:atemp>25.0</ns3:atemp>
          </ns3:TrackPointExtension>
        </extensions>
      </trkpt>
      <trkpt lat="42.52925944514572620391845703125" lon="19.76477771066129207611083984375">
        <ele>1675.4000244140625</ele>
        <time>2026-06-18T08:41:41.000Z</time>
        <extensions>
          <ns3:TrackPointExtension>
            <ns3:atemp>25.0</ns3:atemp>
          </ns3:TrackPointExtension>
        </extensions>
      </trkpt>
      <trkpt lat="42.52925944514572620391845703125" lon="19.76477771066129207611083984375">
        <ele>1675.4000244140625</ele>
        <time>2026-06-18T08:41:42.000Z</time>
        <extensions>
          <ns3:TrackPointExtension>
            <ns3:atemp>25.0</ns3:atemp>
          </ns3:TrackPointExtension>
        </extensions>
      </trkpt>
      <trkpt lat="42.52925944514572620391845703125" lon="19.76477771066129207611083984375">
        <ele>1675.4000244140625</ele>
        <time>2026-06-18T08:41:43.000Z</time>
        <extensions>
          <ns3:TrackPointExtension>
            <ns3:atemp>25.0</ns3:atemp>
          </ns3:TrackPointExtension>
        </extensions>
      </trkpt>
      <trkpt lat="42.52925944514572620391845703125" lon="19.76477771066129207611083984375">
        <ele>1675.4000244140625</ele>
        <time>2026-06-18T08:41:44.000Z</time>
        <extensions>
          <ns3:TrackPointExtension>
            <ns3:atemp>25.0</ns3:atemp>
          </ns3:TrackPointExtension>
        </extensions>
      </trkpt>
      <trkpt lat="42.52925944514572620391845703125" lon="19.76477771066129207611083984375">
        <ele>1675.4000244140625</ele>
        <time>2026-06-18T08:41:45.000Z</time>
        <extensions>
          <ns3:TrackPointExtension>
            <ns3:atemp>25.0</ns3:atemp>
          </ns3:TrackPointExtension>
        </extensions>
      </trkpt>
      <trkpt lat="42.52925944514572620391845703125" lon="19.76477771066129207611083984375">
        <ele>1675.4000244140625</ele>
        <time>2026-06-18T08:41:46.000Z</time>
        <extensions>
          <ns3:TrackPointExtension>
            <ns3:atemp>25.0</ns3:atemp>
          </ns3:TrackPointExtension>
        </extensions>
      </trkpt>
      <trkpt lat="42.52925944514572620391845703125" lon="19.76477771066129207611083984375">
        <ele>1675.4000244140625</ele>
        <time>2026-06-18T08:41:47.000Z</time>
        <extensions>
          <ns3:TrackPointExtension>
            <ns3:atemp>25.0</ns3:atemp>
          </ns3:TrackPointExtension>
        </extensions>
      </trkpt>
      <trkpt lat="42.52925944514572620391845703125" lon="19.76477771066129207611083984375">
        <ele>1675.4000244140625</ele>
        <time>2026-06-18T08:41:48.000Z</time>
        <extensions>
          <ns3:TrackPointExtension>
            <ns3:atemp>25.0</ns3:atemp>
          </ns3:TrackPointExtension>
        </extensions>
      </trkpt>
      <trkpt lat="42.52925944514572620391845703125" lon="19.76477771066129207611083984375">
        <ele>1675.4000244140625</ele>
        <time>2026-06-18T08:41:49.000Z</time>
        <extensions>
          <ns3:TrackPointExtension>
            <ns3:atemp>25.0</ns3:atemp>
          </ns3:TrackPointExtension>
        </extensions>
      </trkpt>
      <trkpt lat="42.52925944514572620391845703125" lon="19.76477771066129207611083984375">
        <ele>1675.4000244140625</ele>
        <time>2026-06-18T08:41:50.000Z</time>
        <extensions>
          <ns3:TrackPointExtension>
            <ns3:atemp>25.0</ns3:atemp>
          </ns3:TrackPointExtension>
        </extensions>
      </trkpt>
      <trkpt lat="42.52925944514572620391845703125" lon="19.76477771066129207611083984375">
        <ele>1675.4000244140625</ele>
        <time>2026-06-18T08:41:51.000Z</time>
        <extensions>
          <ns3:TrackPointExtension>
            <ns3:atemp>25.0</ns3:atemp>
          </ns3:TrackPointExtension>
        </extensions>
      </trkpt>
      <trkpt lat="42.52925944514572620391845703125" lon="19.76477771066129207611083984375">
        <ele>1675.4000244140625</ele>
        <time>2026-06-18T08:41:52.000Z</time>
        <extensions>
          <ns3:TrackPointExtension>
            <ns3:atemp>25.0</ns3:atemp>
          </ns3:TrackPointExtension>
        </extensions>
      </trkpt>
      <trkpt lat="42.52925944514572620391845703125" lon="19.76477771066129207611083984375">
        <ele>1675.4000244140625</ele>
        <time>2026-06-18T08:41:53.000Z</time>
        <extensions>
          <ns3:TrackPointExtension>
            <ns3:atemp>25.0</ns3:atemp>
          </ns3:TrackPointExtension>
        </extensions>
      </trkpt>
      <trkpt lat="42.52925944514572620391845703125" lon="19.76477771066129207611083984375">
        <ele>1675.4000244140625</ele>
        <time>2026-06-18T08:41:54.000Z</time>
        <extensions>
          <ns3:TrackPointExtension>
            <ns3:atemp>25.0</ns3:atemp>
          </ns3:TrackPointExtension>
        </extensions>
      </trkpt>
      <trkpt lat="42.52925944514572620391845703125" lon="19.76477771066129207611083984375">
        <ele>1675.4000244140625</ele>
        <time>2026-06-18T08:41:55.000Z</time>
        <extensions>
          <ns3:TrackPointExtension>
            <ns3:atemp>25.0</ns3:atemp>
          </ns3:TrackPointExtension>
        </extensions>
      </trkpt>
      <trkpt lat="42.52925944514572620391845703125" lon="19.76477771066129207611083984375">
        <ele>1675.4000244140625</ele>
        <time>2026-06-18T08:41:56.000Z</time>
        <extensions>
          <ns3:TrackPointExtension>
            <ns3:atemp>25.0</ns3:atemp>
          </ns3:TrackPointExtension>
        </extensions>
      </trkpt>
      <trkpt lat="42.52925944514572620391845703125" lon="19.76477771066129207611083984375">
        <ele>1675.4000244140625</ele>
        <time>2026-06-18T08:41:57.000Z</time>
        <extensions>
          <ns3:TrackPointExtension>
            <ns3:atemp>25.0</ns3:atemp>
          </ns3:TrackPointExtension>
        </extensions>
      </trkpt>
      <trkpt lat="42.52925944514572620391845703125" lon="19.76477771066129207611083984375">
        <ele>1675.4000244140625</ele>
        <time>2026-06-18T08:41:58.000Z</time>
        <extensions>
          <ns3:TrackPointExtension>
            <ns3:atemp>25.0</ns3:atemp>
          </ns3:TrackPointExtension>
        </extensions>
      </trkpt>
      <trkpt lat="42.52925944514572620391845703125" lon="19.76477771066129207611083984375">
        <ele>1675.4000244140625</ele>
        <time>2026-06-18T08:41:59.000Z</time>
        <extensions>
          <ns3:TrackPointExtension>
            <ns3:atemp>25.0</ns3:atemp>
          </ns3:TrackPointExtension>
        </extensions>
      </trkpt>
      <trkpt lat="42.52925944514572620391845703125" lon="19.76477771066129207611083984375">
        <ele>1675.4000244140625</ele>
        <time>2026-06-18T08:42:00.000Z</time>
        <extensions>
          <ns3:TrackPointExtension>
            <ns3:atemp>25.0</ns3:atemp>
          </ns3:TrackPointExtension>
        </extensions>
      </trkpt>
      <trkpt lat="42.52925944514572620391845703125" lon="19.76477771066129207611083984375">
        <ele>1675.4000244140625</ele>
        <time>2026-06-18T08:42:01.000Z</time>
        <extensions>
          <ns3:TrackPointExtension>
            <ns3:atemp>25.0</ns3:atemp>
          </ns3:TrackPointExtension>
        </extensions>
      </trkpt>
      <trkpt lat="42.52925944514572620391845703125" lon="19.76477771066129207611083984375">
        <ele>1675.4000244140625</ele>
        <time>2026-06-18T08:42:02.000Z</time>
        <extensions>
          <ns3:TrackPointExtension>
            <ns3:atemp>25.0</ns3:atemp>
          </ns3:TrackPointExtension>
        </extensions>
      </trkpt>
      <trkpt lat="42.52925944514572620391845703125" lon="19.76477771066129207611083984375">
        <ele>1675.4000244140625</ele>
        <time>2026-06-18T08:42:03.000Z</time>
        <extensions>
          <ns3:TrackPointExtension>
            <ns3:atemp>25.0</ns3:atemp>
          </ns3:TrackPointExtension>
        </extensions>
      </trkpt>
      <trkpt lat="42.52925944514572620391845703125" lon="19.76477771066129207611083984375">
        <ele>1675.4000244140625</ele>
        <time>2026-06-18T08:42:04.000Z</time>
        <extensions>
          <ns3:TrackPointExtension>
            <ns3:atemp>25.0</ns3:atemp>
          </ns3:TrackPointExtension>
        </extensions>
      </trkpt>
      <trkpt lat="42.52925944514572620391845703125" lon="19.76477771066129207611083984375">
        <ele>1675.4000244140625</ele>
        <time>2026-06-18T08:42:05.000Z</time>
        <extensions>
          <ns3:TrackPointExtension>
            <ns3:atemp>25.0</ns3:atemp>
          </ns3:TrackPointExtension>
        </extensions>
      </trkpt>
      <trkpt lat="42.52925944514572620391845703125" lon="19.76477771066129207611083984375">
        <ele>1675.4000244140625</ele>
        <time>2026-06-18T08:42:06.000Z</time>
        <extensions>
          <ns3:TrackPointExtension>
            <ns3:atemp>25.0</ns3:atemp>
          </ns3:TrackPointExtension>
        </extensions>
      </trkpt>
      <trkpt lat="42.52925944514572620391845703125" lon="19.76477771066129207611083984375">
        <ele>1675.4000244140625</ele>
        <time>2026-06-18T08:42:07.000Z</time>
        <extensions>
          <ns3:TrackPointExtension>
            <ns3:atemp>25.0</ns3:atemp>
          </ns3:TrackPointExtension>
        </extensions>
      </trkpt>
      <trkpt lat="42.52925944514572620391845703125" lon="19.76477771066129207611083984375">
        <ele>1675.4000244140625</ele>
        <time>2026-06-18T08:42:08.000Z</time>
        <extensions>
          <ns3:TrackPointExtension>
            <ns3:atemp>25.0</ns3:atemp>
          </ns3:TrackPointExtension>
        </extensions>
      </trkpt>
      <trkpt lat="42.52925944514572620391845703125" lon="19.76477771066129207611083984375">
        <ele>1675.4000244140625</ele>
        <time>2026-06-18T08:42:09.000Z</time>
        <extensions>
          <ns3:TrackPointExtension>
            <ns3:atemp>25.0</ns3:atemp>
          </ns3:TrackPointExtension>
        </extensions>
      </trkpt>
      <trkpt lat="42.52925944514572620391845703125" lon="19.76477771066129207611083984375">
        <ele>1675.4000244140625</ele>
        <time>2026-06-18T08:42:10.000Z</time>
        <extensions>
          <ns3:TrackPointExtension>
            <ns3:atemp>25.0</ns3:atemp>
          </ns3:TrackPointExtension>
        </extensions>
      </trkpt>
      <trkpt lat="42.52925944514572620391845703125" lon="19.76477771066129207611083984375">
        <ele>1675.4000244140625</ele>
        <time>2026-06-18T08:42:11.000Z</time>
        <extensions>
          <ns3:TrackPointExtension>
            <ns3:atemp>25.0</ns3:atemp>
          </ns3:TrackPointExtension>
        </extensions>
      </trkpt>
      <trkpt lat="42.52925944514572620391845703125" lon="19.76477771066129207611083984375">
        <ele>1675.4000244140625</ele>
        <time>2026-06-18T08:42:12.000Z</time>
        <extensions>
          <ns3:TrackPointExtension>
            <ns3:atemp>25.0</ns3:atemp>
          </ns3:TrackPointExtension>
        </extensions>
      </trkpt>
      <trkpt lat="42.52925944514572620391845703125" lon="19.76477771066129207611083984375">
        <ele>1675.4000244140625</ele>
        <time>2026-06-18T08:42:13.000Z</time>
        <extensions>
          <ns3:TrackPointExtension>
            <ns3:atemp>25.0</ns3:atemp>
          </ns3:TrackPointExtension>
        </extensions>
      </trkpt>
      <trkpt lat="42.52925944514572620391845703125" lon="19.76477771066129207611083984375">
        <ele>1675.4000244140625</ele>
        <time>2026-06-18T08:42:14.000Z</time>
        <extensions>
          <ns3:TrackPointExtension>
            <ns3:atemp>25.0</ns3:atemp>
          </ns3:TrackPointExtension>
        </extensions>
      </trkpt>
      <trkpt lat="42.52925944514572620391845703125" lon="19.76477771066129207611083984375">
        <ele>1675.4000244140625</ele>
        <time>2026-06-18T08:42:15.000Z</time>
        <extensions>
          <ns3:TrackPointExtension>
            <ns3:atemp>25.0</ns3:atemp>
          </ns3:TrackPointExtension>
        </extensions>
      </trkpt>
      <trkpt lat="42.52925944514572620391845703125" lon="19.76477771066129207611083984375">
        <ele>1675.4000244140625</ele>
        <time>2026-06-18T08:42:16.000Z</time>
        <extensions>
          <ns3:TrackPointExtension>
            <ns3:atemp>25.0</ns3:atemp>
          </ns3:TrackPointExtension>
        </extensions>
      </trkpt>
      <trkpt lat="42.52925944514572620391845703125" lon="19.76477771066129207611083984375">
        <ele>1675.4000244140625</ele>
        <time>2026-06-18T08:42:17.000Z</time>
        <extensions>
          <ns3:TrackPointExtension>
            <ns3:atemp>25.0</ns3:atemp>
          </ns3:TrackPointExtension>
        </extensions>
      </trkpt>
      <trkpt lat="42.52925944514572620391845703125" lon="19.76477771066129207611083984375">
        <ele>1675.4000244140625</ele>
        <time>2026-06-18T08:42:18.000Z</time>
        <extensions>
          <ns3:TrackPointExtension>
            <ns3:atemp>25.0</ns3:atemp>
          </ns3:TrackPointExtension>
        </extensions>
      </trkpt>
      <trkpt lat="42.52925944514572620391845703125" lon="19.76477771066129207611083984375">
        <ele>1675.4000244140625</ele>
        <time>2026-06-18T08:42:19.000Z</time>
        <extensions>
          <ns3:TrackPointExtension>
            <ns3:atemp>25.0</ns3:atemp>
          </ns3:TrackPointExtension>
        </extensions>
      </trkpt>
      <trkpt lat="42.52925944514572620391845703125" lon="19.76477771066129207611083984375">
        <ele>1675.4000244140625</ele>
        <time>2026-06-18T08:42:20.000Z</time>
        <extensions>
          <ns3:TrackPointExtension>
            <ns3:atemp>25.0</ns3:atemp>
          </ns3:TrackPointExtension>
        </extensions>
      </trkpt>
      <trkpt lat="42.52925944514572620391845703125" lon="19.76477771066129207611083984375">
        <ele>1675.4000244140625</ele>
        <time>2026-06-18T08:42:21.000Z</time>
        <extensions>
          <ns3:TrackPointExtension>
            <ns3:atemp>25.0</ns3:atemp>
          </ns3:TrackPointExtension>
        </extensions>
      </trkpt>
      <trkpt lat="42.52925944514572620391845703125" lon="19.76477771066129207611083984375">
        <ele>1675.4000244140625</ele>
        <time>2026-06-18T08:42:22.000Z</time>
        <extensions>
          <ns3:TrackPointExtension>
            <ns3:atemp>25.0</ns3:atemp>
          </ns3:TrackPointExtension>
        </extensions>
      </trkpt>
      <trkpt lat="42.52925944514572620391845703125" lon="19.76477771066129207611083984375">
        <ele>1675.4000244140625</ele>
        <time>2026-06-18T08:42:23.000Z</time>
        <extensions>
          <ns3:TrackPointExtension>
            <ns3:atemp>25.0</ns3:atemp>
          </ns3:TrackPointExtension>
        </extensions>
      </trkpt>
      <trkpt lat="42.52925944514572620391845703125" lon="19.76477771066129207611083984375">
        <ele>1675.4000244140625</ele>
        <time>2026-06-18T08:42:24.000Z</time>
        <extensions>
          <ns3:TrackPointExtension>
            <ns3:atemp>25.0</ns3:atemp>
          </ns3:TrackPointExtension>
        </extensions>
      </trkpt>
      <trkpt lat="42.52925944514572620391845703125" lon="19.76477771066129207611083984375">
        <ele>1675.4000244140625</ele>
        <time>2026-06-18T08:42:25.000Z</time>
        <extensions>
          <ns3:TrackPointExtension>
            <ns3:atemp>25.0</ns3:atemp>
          </ns3:TrackPointExtension>
        </extensions>
      </trkpt>
      <trkpt lat="42.52925944514572620391845703125" lon="19.76477771066129207611083984375">
        <ele>1675.4000244140625</ele>
        <time>2026-06-18T08:42:26.000Z</time>
        <extensions>
          <ns3:TrackPointExtension>
            <ns3:atemp>25.0</ns3:atemp>
          </ns3:TrackPointExtension>
        </extensions>
      </trkpt>
      <trkpt lat="42.52925944514572620391845703125" lon="19.76477771066129207611083984375">
        <ele>1675.4000244140625</ele>
        <time>2026-06-18T08:42:27.000Z</time>
        <extensions>
          <ns3:TrackPointExtension>
            <ns3:atemp>25.0</ns3:atemp>
          </ns3:TrackPointExtension>
        </extensions>
      </trkpt>
      <trkpt lat="42.52925944514572620391845703125" lon="19.76477771066129207611083984375">
        <ele>1675.4000244140625</ele>
        <time>2026-06-18T08:42:28.000Z</time>
        <extensions>
          <ns3:TrackPointExtension>
            <ns3:atemp>25.0</ns3:atemp>
          </ns3:TrackPointExtension>
        </extensions>
      </trkpt>
      <trkpt lat="42.52925944514572620391845703125" lon="19.76477771066129207611083984375">
        <ele>1675.4000244140625</ele>
        <time>2026-06-18T08:42:29.000Z</time>
        <extensions>
          <ns3:TrackPointExtension>
            <ns3:atemp>25.0</ns3:atemp>
          </ns3:TrackPointExtension>
        </extensions>
      </trkpt>
      <trkpt lat="42.52925944514572620391845703125" lon="19.76477771066129207611083984375">
        <ele>1675.4000244140625</ele>
        <time>2026-06-18T08:42:30.000Z</time>
        <extensions>
          <ns3:TrackPointExtension>
            <ns3:atemp>25.0</ns3:atemp>
          </ns3:TrackPointExtension>
        </extensions>
      </trkpt>
      <trkpt lat="42.52925944514572620391845703125" lon="19.76477771066129207611083984375">
        <ele>1675.4000244140625</ele>
        <time>2026-06-18T08:42:31.000Z</time>
        <extensions>
          <ns3:TrackPointExtension>
            <ns3:atemp>25.0</ns3:atemp>
          </ns3:TrackPointExtension>
        </extensions>
      </trkpt>
      <trkpt lat="42.52925944514572620391845703125" lon="19.76477771066129207611083984375">
        <ele>1675.4000244140625</ele>
        <time>2026-06-18T08:42:32.000Z</time>
        <extensions>
          <ns3:TrackPointExtension>
            <ns3:atemp>25.0</ns3:atemp>
          </ns3:TrackPointExtension>
        </extensions>
      </trkpt>
      <trkpt lat="42.52925944514572620391845703125" lon="19.76477771066129207611083984375">
        <ele>1675.4000244140625</ele>
        <time>2026-06-18T08:42:33.000Z</time>
        <extensions>
          <ns3:TrackPointExtension>
            <ns3:atemp>25.0</ns3:atemp>
          </ns3:TrackPointExtension>
        </extensions>
      </trkpt>
      <trkpt lat="42.52925944514572620391845703125" lon="19.76477771066129207611083984375">
        <ele>1675.4000244140625</ele>
        <time>2026-06-18T08:42:34.000Z</time>
        <extensions>
          <ns3:TrackPointExtension>
            <ns3:atemp>25.0</ns3:atemp>
          </ns3:TrackPointExtension>
        </extensions>
      </trkpt>
      <trkpt lat="42.52925944514572620391845703125" lon="19.76477771066129207611083984375">
        <ele>1675.4000244140625</ele>
        <time>2026-06-18T08:42:35.000Z</time>
        <extensions>
          <ns3:TrackPointExtension>
            <ns3:atemp>25.0</ns3:atemp>
          </ns3:TrackPointExtension>
        </extensions>
      </trkpt>
      <trkpt lat="42.52925944514572620391845703125" lon="19.76477771066129207611083984375">
        <ele>1675.4000244140625</ele>
        <time>2026-06-18T08:42:36.000Z</time>
        <extensions>
          <ns3:TrackPointExtension>
            <ns3:atemp>25.0</ns3:atemp>
          </ns3:TrackPointExtension>
        </extensions>
      </trkpt>
      <trkpt lat="42.52925944514572620391845703125" lon="19.76477771066129207611083984375">
        <ele>1675.4000244140625</ele>
        <time>2026-06-18T08:42:37.000Z</time>
        <extensions>
          <ns3:TrackPointExtension>
            <ns3:atemp>25.0</ns3:atemp>
          </ns3:TrackPointExtension>
        </extensions>
      </trkpt>
      <trkpt lat="42.52925944514572620391845703125" lon="19.76477771066129207611083984375">
        <ele>1675.4000244140625</ele>
        <time>2026-06-18T08:42:38.000Z</time>
        <extensions>
          <ns3:TrackPointExtension>
            <ns3:atemp>25.0</ns3:atemp>
          </ns3:TrackPointExtension>
        </extensions>
      </trkpt>
      <trkpt lat="42.52925944514572620391845703125" lon="19.76477771066129207611083984375">
        <ele>1675.4000244140625</ele>
        <time>2026-06-18T08:42:39.000Z</time>
        <extensions>
          <ns3:TrackPointExtension>
            <ns3:atemp>25.0</ns3:atemp>
          </ns3:TrackPointExtension>
        </extensions>
      </trkpt>
      <trkpt lat="42.52925944514572620391845703125" lon="19.76477771066129207611083984375">
        <ele>1675.4000244140625</ele>
        <time>2026-06-18T08:42:40.000Z</time>
        <extensions>
          <ns3:TrackPointExtension>
            <ns3:atemp>25.0</ns3:atemp>
          </ns3:TrackPointExtension>
        </extensions>
      </trkpt>
      <trkpt lat="42.52925944514572620391845703125" lon="19.76477771066129207611083984375">
        <ele>1675.4000244140625</ele>
        <time>2026-06-18T08:42:41.000Z</time>
        <extensions>
          <ns3:TrackPointExtension>
            <ns3:atemp>25.0</ns3:atemp>
          </ns3:TrackPointExtension>
        </extensions>
      </trkpt>
      <trkpt lat="42.52925944514572620391845703125" lon="19.76477771066129207611083984375">
        <ele>1675.4000244140625</ele>
        <time>2026-06-18T08:42:42.000Z</time>
        <extensions>
          <ns3:TrackPointExtension>
            <ns3:atemp>25.0</ns3:atemp>
          </ns3:TrackPointExtension>
        </extensions>
      </trkpt>
      <trkpt lat="42.52925944514572620391845703125" lon="19.76477771066129207611083984375">
        <ele>1675.4000244140625</ele>
        <time>2026-06-18T08:42:43.000Z</time>
        <extensions>
          <ns3:TrackPointExtension>
            <ns3:atemp>26.0</ns3:atemp>
          </ns3:TrackPointExtension>
        </extensions>
      </trkpt>
      <trkpt lat="42.52925944514572620391845703125" lon="19.76477771066129207611083984375">
        <ele>1675.4000244140625</ele>
        <time>2026-06-18T08:42:44.000Z</time>
        <extensions>
          <ns3:TrackPointExtension>
            <ns3:atemp>26.0</ns3:atemp>
          </ns3:TrackPointExtension>
        </extensions>
      </trkpt>
      <trkpt lat="42.52925944514572620391845703125" lon="19.76477771066129207611083984375">
        <ele>1675.4000244140625</ele>
        <time>2026-06-18T08:42:45.000Z</time>
        <extensions>
          <ns3:TrackPointExtension>
            <ns3:atemp>26.0</ns3:atemp>
          </ns3:TrackPointExtension>
        </extensions>
      </trkpt>
      <trkpt lat="42.52925944514572620391845703125" lon="19.76477771066129207611083984375">
        <ele>1675.4000244140625</ele>
        <time>2026-06-18T08:42:46.000Z</time>
        <extensions>
          <ns3:TrackPointExtension>
            <ns3:atemp>26.0</ns3:atemp>
          </ns3:TrackPointExtension>
        </extensions>
      </trkpt>
      <trkpt lat="42.52925944514572620391845703125" lon="19.76477771066129207611083984375">
        <ele>1675.4000244140625</ele>
        <time>2026-06-18T08:42:47.000Z</time>
        <extensions>
          <ns3:TrackPointExtension>
            <ns3:atemp>26.0</ns3:atemp>
          </ns3:TrackPointExtension>
        </extensions>
      </trkpt>
      <trkpt lat="42.52925944514572620391845703125" lon="19.76477771066129207611083984375">
        <ele>1675.4000244140625</ele>
        <time>2026-06-18T08:42:48.000Z</time>
        <extensions>
          <ns3:TrackPointExtension>
            <ns3:atemp>26.0</ns3:atemp>
          </ns3:TrackPointExtension>
        </extensions>
      </trkpt>
      <trkpt lat="42.52925944514572620391845703125" lon="19.76477771066129207611083984375">
        <ele>1675.4000244140625</ele>
        <time>2026-06-18T08:42:49.000Z</time>
        <extensions>
          <ns3:TrackPointExtension>
            <ns3:atemp>26.0</ns3:atemp>
          </ns3:TrackPointExtension>
        </extensions>
      </trkpt>
      <trkpt lat="42.52925944514572620391845703125" lon="19.76477771066129207611083984375">
        <ele>1675.4000244140625</ele>
        <time>2026-06-18T08:42:50.000Z</time>
        <extensions>
          <ns3:TrackPointExtension>
            <ns3:atemp>26.0</ns3:atemp>
          </ns3:TrackPointExtension>
        </extensions>
      </trkpt>
      <trkpt lat="42.52925944514572620391845703125" lon="19.76477771066129207611083984375">
        <ele>1675.4000244140625</ele>
        <time>2026-06-18T08:42:51.000Z</time>
        <extensions>
          <ns3:TrackPointExtension>
            <ns3:atemp>26.0</ns3:atemp>
          </ns3:TrackPointExtension>
        </extensions>
      </trkpt>
      <trkpt lat="42.52925944514572620391845703125" lon="19.76477771066129207611083984375">
        <ele>1675.4000244140625</ele>
        <time>2026-06-18T08:42:52.000Z</time>
        <extensions>
          <ns3:TrackPointExtension>
            <ns3:atemp>26.0</ns3:atemp>
          </ns3:TrackPointExtension>
        </extensions>
      </trkpt>
      <trkpt lat="42.52925944514572620391845703125" lon="19.76477771066129207611083984375">
        <ele>1675.4000244140625</ele>
        <time>2026-06-18T08:42:53.000Z</time>
        <extensions>
          <ns3:TrackPointExtension>
            <ns3:atemp>26.0</ns3:atemp>
          </ns3:TrackPointExtension>
        </extensions>
      </trkpt>
      <trkpt lat="42.52925944514572620391845703125" lon="19.76477771066129207611083984375">
        <ele>1675.4000244140625</ele>
        <time>2026-06-18T08:42:54.000Z</time>
        <extensions>
          <ns3:TrackPointExtension>
            <ns3:atemp>26.0</ns3:atemp>
          </ns3:TrackPointExtension>
        </extensions>
      </trkpt>
      <trkpt lat="42.52925944514572620391845703125" lon="19.76477771066129207611083984375">
        <ele>1675.4000244140625</ele>
        <time>2026-06-18T08:42:55.000Z</time>
        <extensions>
          <ns3:TrackPointExtension>
            <ns3:atemp>26.0</ns3:atemp>
          </ns3:TrackPointExtension>
        </extensions>
      </trkpt>
      <trkpt lat="42.52925944514572620391845703125" lon="19.76477771066129207611083984375">
        <ele>1675.4000244140625</ele>
        <time>2026-06-18T08:42:56.000Z</time>
        <extensions>
          <ns3:TrackPointExtension>
            <ns3:atemp>26.0</ns3:atemp>
          </ns3:TrackPointExtension>
        </extensions>
      </trkpt>
      <trkpt lat="42.52925944514572620391845703125" lon="19.76477771066129207611083984375">
        <ele>1675.4000244140625</ele>
        <time>2026-06-18T08:42:57.000Z</time>
        <extensions>
          <ns3:TrackPointExtension>
            <ns3:atemp>26.0</ns3:atemp>
          </ns3:TrackPointExtension>
        </extensions>
      </trkpt>
      <trkpt lat="42.52925944514572620391845703125" lon="19.76477771066129207611083984375">
        <ele>1675.4000244140625</ele>
        <time>2026-06-18T08:42:58.000Z</time>
        <extensions>
          <ns3:TrackPointExtension>
            <ns3:atemp>26.0</ns3:atemp>
          </ns3:TrackPointExtension>
        </extensions>
      </trkpt>
      <trkpt lat="42.52925944514572620391845703125" lon="19.76477771066129207611083984375">
        <ele>1675.4000244140625</ele>
        <time>2026-06-18T08:42:59.000Z</time>
        <extensions>
          <ns3:TrackPointExtension>
            <ns3:atemp>26.0</ns3:atemp>
          </ns3:TrackPointExtension>
        </extensions>
      </trkpt>
      <trkpt lat="42.52925944514572620391845703125" lon="19.76477771066129207611083984375">
        <ele>1675.4000244140625</ele>
        <time>2026-06-18T08:43:00.000Z</time>
        <extensions>
          <ns3:TrackPointExtension>
            <ns3:atemp>26.0</ns3:atemp>
          </ns3:TrackPointExtension>
        </extensions>
      </trkpt>
      <trkpt lat="42.52925944514572620391845703125" lon="19.76477771066129207611083984375">
        <ele>1675.4000244140625</ele>
        <time>2026-06-18T08:43:01.000Z</time>
        <extensions>
          <ns3:TrackPointExtension>
            <ns3:atemp>26.0</ns3:atemp>
          </ns3:TrackPointExtension>
        </extensions>
      </trkpt>
      <trkpt lat="42.52925944514572620391845703125" lon="19.76477771066129207611083984375">
        <ele>1675.4000244140625</ele>
        <time>2026-06-18T08:43:02.000Z</time>
        <extensions>
          <ns3:TrackPointExtension>
            <ns3:atemp>26.0</ns3:atemp>
          </ns3:TrackPointExtension>
        </extensions>
      </trkpt>
      <trkpt lat="42.52925944514572620391845703125" lon="19.76477771066129207611083984375">
        <ele>1675.4000244140625</ele>
        <time>2026-06-18T08:43:03.000Z</time>
        <extensions>
          <ns3:TrackPointExtension>
            <ns3:atemp>26.0</ns3:atemp>
          </ns3:TrackPointExtension>
        </extensions>
      </trkpt>
      <trkpt lat="42.52925944514572620391845703125" lon="19.76477771066129207611083984375">
        <ele>1675.4000244140625</ele>
        <time>2026-06-18T08:43:04.000Z</time>
        <extensions>
          <ns3:TrackPointExtension>
            <ns3:atemp>26.0</ns3:atemp>
          </ns3:TrackPointExtension>
        </extensions>
      </trkpt>
      <trkpt lat="42.52925944514572620391845703125" lon="19.76477771066129207611083984375">
        <ele>1675.4000244140625</ele>
        <time>2026-06-18T08:43:05.000Z</time>
        <extensions>
          <ns3:TrackPointExtension>
            <ns3:atemp>26.0</ns3:atemp>
          </ns3:TrackPointExtension>
        </extensions>
      </trkpt>
      <trkpt lat="42.52925944514572620391845703125" lon="19.76477771066129207611083984375">
        <ele>1675.4000244140625</ele>
        <time>2026-06-18T08:43:06.000Z</time>
        <extensions>
          <ns3:TrackPointExtension>
            <ns3:atemp>26.0</ns3:atemp>
          </ns3:TrackPointExtension>
        </extensions>
      </trkpt>
      <trkpt lat="42.52925944514572620391845703125" lon="19.76477771066129207611083984375">
        <ele>1675.4000244140625</ele>
        <time>2026-06-18T08:43:07.000Z</time>
        <extensions>
          <ns3:TrackPointExtension>
            <ns3:atemp>26.0</ns3:atemp>
          </ns3:TrackPointExtension>
        </extensions>
      </trkpt>
      <trkpt lat="42.52925944514572620391845703125" lon="19.76477771066129207611083984375">
        <ele>1675.4000244140625</ele>
        <time>2026-06-18T08:43:08.000Z</time>
        <extensions>
          <ns3:TrackPointExtension>
            <ns3:atemp>26.0</ns3:atemp>
          </ns3:TrackPointExtension>
        </extensions>
      </trkpt>
      <trkpt lat="42.52925944514572620391845703125" lon="19.76477771066129207611083984375">
        <ele>1675.4000244140625</ele>
        <time>2026-06-18T08:43:09.000Z</time>
        <extensions>
          <ns3:TrackPointExtension>
            <ns3:atemp>26.0</ns3:atemp>
          </ns3:TrackPointExtension>
        </extensions>
      </trkpt>
      <trkpt lat="42.52925944514572620391845703125" lon="19.76477771066129207611083984375">
        <ele>1675.4000244140625</ele>
        <time>2026-06-18T08:43:10.000Z</time>
        <extensions>
          <ns3:TrackPointExtension>
            <ns3:atemp>26.0</ns3:atemp>
          </ns3:TrackPointExtension>
        </extensions>
      </trkpt>
      <trkpt lat="42.52925944514572620391845703125" lon="19.76477771066129207611083984375">
        <ele>1675.4000244140625</ele>
        <time>2026-06-18T08:43:11.000Z</time>
        <extensions>
          <ns3:TrackPointExtension>
            <ns3:atemp>26.0</ns3:atemp>
          </ns3:TrackPointExtension>
        </extensions>
      </trkpt>
      <trkpt lat="42.52925944514572620391845703125" lon="19.76477771066129207611083984375">
        <ele>1675.4000244140625</ele>
        <time>2026-06-18T08:43:12.000Z</time>
        <extensions>
          <ns3:TrackPointExtension>
            <ns3:atemp>26.0</ns3:atemp>
          </ns3:TrackPointExtension>
        </extensions>
      </trkpt>
      <trkpt lat="42.52925944514572620391845703125" lon="19.76477771066129207611083984375">
        <ele>1675.4000244140625</ele>
        <time>2026-06-18T08:43:13.000Z</time>
        <extensions>
          <ns3:TrackPointExtension>
            <ns3:atemp>26.0</ns3:atemp>
          </ns3:TrackPointExtension>
        </extensions>
      </trkpt>
      <trkpt lat="42.52925944514572620391845703125" lon="19.76477771066129207611083984375">
        <ele>1675.4000244140625</ele>
        <time>2026-06-18T08:43:14.000Z</time>
        <extensions>
          <ns3:TrackPointExtension>
            <ns3:atemp>26.0</ns3:atemp>
          </ns3:TrackPointExtension>
        </extensions>
      </trkpt>
      <trkpt lat="42.52925944514572620391845703125" lon="19.76477771066129207611083984375">
        <ele>1675.4000244140625</ele>
        <time>2026-06-18T08:43:15.000Z</time>
        <extensions>
          <ns3:TrackPointExtension>
            <ns3:atemp>26.0</ns3:atemp>
          </ns3:TrackPointExtension>
        </extensions>
      </trkpt>
      <trkpt lat="42.52925944514572620391845703125" lon="19.76477771066129207611083984375">
        <ele>1675.4000244140625</ele>
        <time>2026-06-18T08:43:16.000Z</time>
        <extensions>
          <ns3:TrackPointExtension>
            <ns3:atemp>26.0</ns3:atemp>
          </ns3:TrackPointExtension>
        </extensions>
      </trkpt>
      <trkpt lat="42.52925944514572620391845703125" lon="19.76477771066129207611083984375">
        <ele>1675.4000244140625</ele>
        <time>2026-06-18T08:43:17.000Z</time>
        <extensions>
          <ns3:TrackPointExtension>
            <ns3:atemp>26.0</ns3:atemp>
          </ns3:TrackPointExtension>
        </extensions>
      </trkpt>
      <trkpt lat="42.52925944514572620391845703125" lon="19.76477771066129207611083984375">
        <ele>1675.4000244140625</ele>
        <time>2026-06-18T08:43:18.000Z</time>
        <extensions>
          <ns3:TrackPointExtension>
            <ns3:atemp>26.0</ns3:atemp>
          </ns3:TrackPointExtension>
        </extensions>
      </trkpt>
      <trkpt lat="42.52925944514572620391845703125" lon="19.76477771066129207611083984375">
        <ele>1675.4000244140625</ele>
        <time>2026-06-18T08:43:19.000Z</time>
        <extensions>
          <ns3:TrackPointExtension>
            <ns3:atemp>26.0</ns3:atemp>
          </ns3:TrackPointExtension>
        </extensions>
      </trkpt>
      <trkpt lat="42.52925944514572620391845703125" lon="19.76477771066129207611083984375">
        <ele>1675.4000244140625</ele>
        <time>2026-06-18T08:43:20.000Z</time>
        <extensions>
          <ns3:TrackPointExtension>
            <ns3:atemp>26.0</ns3:atemp>
          </ns3:TrackPointExtension>
        </extensions>
      </trkpt>
      <trkpt lat="42.52925944514572620391845703125" lon="19.76477771066129207611083984375">
        <ele>1675.4000244140625</ele>
        <time>2026-06-18T08:43:21.000Z</time>
        <extensions>
          <ns3:TrackPointExtension>
            <ns3:atemp>26.0</ns3:atemp>
          </ns3:TrackPointExtension>
        </extensions>
      </trkpt>
      <trkpt lat="42.52925944514572620391845703125" lon="19.76477771066129207611083984375">
        <ele>1675.4000244140625</ele>
        <time>2026-06-18T08:43:22.000Z</time>
        <extensions>
          <ns3:TrackPointExtension>
            <ns3:atemp>26.0</ns3:atemp>
          </ns3:TrackPointExtension>
        </extensions>
      </trkpt>
      <trkpt lat="42.52925944514572620391845703125" lon="19.76477771066129207611083984375">
        <ele>1675.4000244140625</ele>
        <time>2026-06-18T08:43:23.000Z</time>
        <extensions>
          <ns3:TrackPointExtension>
            <ns3:atemp>26.0</ns3:atemp>
          </ns3:TrackPointExtension>
        </extensions>
      </trkpt>
      <trkpt lat="42.52925944514572620391845703125" lon="19.76477771066129207611083984375">
        <ele>1675.4000244140625</ele>
        <time>2026-06-18T08:43:24.000Z</time>
        <extensions>
          <ns3:TrackPointExtension>
            <ns3:atemp>26.0</ns3:atemp>
          </ns3:TrackPointExtension>
        </extensions>
      </trkpt>
      <trkpt lat="42.52925944514572620391845703125" lon="19.76477771066129207611083984375">
        <ele>1675.4000244140625</ele>
        <time>2026-06-18T08:43:25.000Z</time>
        <extensions>
          <ns3:TrackPointExtension>
            <ns3:atemp>26.0</ns3:atemp>
          </ns3:TrackPointExtension>
        </extensions>
      </trkpt>
      <trkpt lat="42.52925944514572620391845703125" lon="19.76477771066129207611083984375">
        <ele>1675.4000244140625</ele>
        <time>2026-06-18T08:43:26.000Z</time>
        <extensions>
          <ns3:TrackPointExtension>
            <ns3:atemp>26.0</ns3:atemp>
          </ns3:TrackPointExtension>
        </extensions>
      </trkpt>
      <trkpt lat="42.52925944514572620391845703125" lon="19.76477771066129207611083984375">
        <ele>1675.4000244140625</ele>
        <time>2026-06-18T08:43:27.000Z</time>
        <extensions>
          <ns3:TrackPointExtension>
            <ns3:atemp>26.0</ns3:atemp>
          </ns3:TrackPointExtension>
        </extensions>
      </trkpt>
      <trkpt lat="42.52925944514572620391845703125" lon="19.76477771066129207611083984375">
        <ele>1675.4000244140625</ele>
        <time>2026-06-18T08:43:28.000Z</time>
        <extensions>
          <ns3:TrackPointExtension>
            <ns3:atemp>26.0</ns3:atemp>
          </ns3:TrackPointExtension>
        </extensions>
      </trkpt>
      <trkpt lat="42.52925944514572620391845703125" lon="19.76477771066129207611083984375">
        <ele>1675.4000244140625</ele>
        <time>2026-06-18T08:43:29.000Z</time>
        <extensions>
          <ns3:TrackPointExtension>
            <ns3:atemp>26.0</ns3:atemp>
          </ns3:TrackPointExtension>
        </extensions>
      </trkpt>
      <trkpt lat="42.52925944514572620391845703125" lon="19.76477771066129207611083984375">
        <ele>1675.4000244140625</ele>
        <time>2026-06-18T08:43:30.000Z</time>
        <extensions>
          <ns3:TrackPointExtension>
            <ns3:atemp>26.0</ns3:atemp>
          </ns3:TrackPointExtension>
        </extensions>
      </trkpt>
      <trkpt lat="42.52925944514572620391845703125" lon="19.76477771066129207611083984375">
        <ele>1675.4000244140625</ele>
        <time>2026-06-18T08:43:31.000Z</time>
        <extensions>
          <ns3:TrackPointExtension>
            <ns3:atemp>26.0</ns3:atemp>
          </ns3:TrackPointExtension>
        </extensions>
      </trkpt>
      <trkpt lat="42.52925944514572620391845703125" lon="19.76477771066129207611083984375">
        <ele>1675.4000244140625</ele>
        <time>2026-06-18T08:43:32.000Z</time>
        <extensions>
          <ns3:TrackPointExtension>
            <ns3:atemp>26.0</ns3:atemp>
          </ns3:TrackPointExtension>
        </extensions>
      </trkpt>
      <trkpt lat="42.52925944514572620391845703125" lon="19.76477771066129207611083984375">
        <ele>1675.4000244140625</ele>
        <time>2026-06-18T08:43:33.000Z</time>
        <extensions>
          <ns3:TrackPointExtension>
            <ns3:atemp>26.0</ns3:atemp>
          </ns3:TrackPointExtension>
        </extensions>
      </trkpt>
      <trkpt lat="42.52925944514572620391845703125" lon="19.76477771066129207611083984375">
        <ele>1675.4000244140625</ele>
        <time>2026-06-18T08:43:34.000Z</time>
        <extensions>
          <ns3:TrackPointExtension>
            <ns3:atemp>26.0</ns3:atemp>
          </ns3:TrackPointExtension>
        </extensions>
      </trkpt>
      <trkpt lat="42.52925944514572620391845703125" lon="19.76477771066129207611083984375">
        <ele>1675.4000244140625</ele>
        <time>2026-06-18T08:43:35.000Z</time>
        <extensions>
          <ns3:TrackPointExtension>
            <ns3:atemp>26.0</ns3:atemp>
          </ns3:TrackPointExtension>
        </extensions>
      </trkpt>
      <trkpt lat="42.52925944514572620391845703125" lon="19.76477771066129207611083984375">
        <ele>1675.4000244140625</ele>
        <time>2026-06-18T08:43:36.000Z</time>
        <extensions>
          <ns3:TrackPointExtension>
            <ns3:atemp>26.0</ns3:atemp>
          </ns3:TrackPointExtension>
        </extensions>
      </trkpt>
      <trkpt lat="42.52925944514572620391845703125" lon="19.76477771066129207611083984375">
        <ele>1675.4000244140625</ele>
        <time>2026-06-18T08:43:37.000Z</time>
        <extensions>
          <ns3:TrackPointExtension>
            <ns3:atemp>26.0</ns3:atemp>
          </ns3:TrackPointExtension>
        </extensions>
      </trkpt>
      <trkpt lat="42.52925944514572620391845703125" lon="19.76477771066129207611083984375">
        <ele>1675.4000244140625</ele>
        <time>2026-06-18T08:43:38.000Z</time>
        <extensions>
          <ns3:TrackPointExtension>
            <ns3:atemp>26.0</ns3:atemp>
          </ns3:TrackPointExtension>
        </extensions>
      </trkpt>
      <trkpt lat="42.52925944514572620391845703125" lon="19.76477771066129207611083984375">
        <ele>1675.4000244140625</ele>
        <time>2026-06-18T08:43:39.000Z</time>
        <extensions>
          <ns3:TrackPointExtension>
            <ns3:atemp>26.0</ns3:atemp>
          </ns3:TrackPointExtension>
        </extensions>
      </trkpt>
      <trkpt lat="42.52925944514572620391845703125" lon="19.76477771066129207611083984375">
        <ele>1675.4000244140625</ele>
        <time>2026-06-18T08:43:40.000Z</time>
        <extensions>
          <ns3:TrackPointExtension>
            <ns3:atemp>26.0</ns3:atemp>
          </ns3:TrackPointExtension>
        </extensions>
      </trkpt>
      <trkpt lat="42.52925944514572620391845703125" lon="19.76477771066129207611083984375">
        <ele>1675.4000244140625</ele>
        <time>2026-06-18T08:43:41.000Z</time>
        <extensions>
          <ns3:TrackPointExtension>
            <ns3:atemp>26.0</ns3:atemp>
          </ns3:TrackPointExtension>
        </extensions>
      </trkpt>
      <trkpt lat="42.52925944514572620391845703125" lon="19.76477771066129207611083984375">
        <ele>1675.4000244140625</ele>
        <time>2026-06-18T08:43:42.000Z</time>
        <extensions>
          <ns3:TrackPointExtension>
            <ns3:atemp>26.0</ns3:atemp>
          </ns3:TrackPointExtension>
        </extensions>
      </trkpt>
      <trkpt lat="42.52925944514572620391845703125" lon="19.76477771066129207611083984375">
        <ele>1675.4000244140625</ele>
        <time>2026-06-18T08:43:43.000Z</time>
        <extensions>
          <ns3:TrackPointExtension>
            <ns3:atemp>26.0</ns3:atemp>
          </ns3:TrackPointExtension>
        </extensions>
      </trkpt>
      <trkpt lat="42.52925944514572620391845703125" lon="19.76477771066129207611083984375">
        <ele>1675.4000244140625</ele>
        <time>2026-06-18T08:43:44.000Z</time>
        <extensions>
          <ns3:TrackPointExtension>
            <ns3:atemp>26.0</ns3:atemp>
          </ns3:TrackPointExtension>
        </extensions>
      </trkpt>
      <trkpt lat="42.52925944514572620391845703125" lon="19.76477771066129207611083984375">
        <ele>1675.4000244140625</ele>
        <time>2026-06-18T08:43:45.000Z</time>
        <extensions>
          <ns3:TrackPointExtension>
            <ns3:atemp>26.0</ns3:atemp>
          </ns3:TrackPointExtension>
        </extensions>
      </trkpt>
      <trkpt lat="42.52925944514572620391845703125" lon="19.76477771066129207611083984375">
        <ele>1675.4000244140625</ele>
        <time>2026-06-18T08:43:46.000Z</time>
        <extensions>
          <ns3:TrackPointExtension>
            <ns3:atemp>26.0</ns3:atemp>
          </ns3:TrackPointExtension>
        </extensions>
      </trkpt>
      <trkpt lat="42.52925944514572620391845703125" lon="19.76477771066129207611083984375">
        <ele>1675.4000244140625</ele>
        <time>2026-06-18T08:43:47.000Z</time>
        <extensions>
          <ns3:TrackPointExtension>
            <ns3:atemp>26.0</ns3:atemp>
          </ns3:TrackPointExtension>
        </extensions>
      </trkpt>
      <trkpt lat="42.52925944514572620391845703125" lon="19.76477771066129207611083984375">
        <ele>1675.4000244140625</ele>
        <time>2026-06-18T08:43:48.000Z</time>
        <extensions>
          <ns3:TrackPointExtension>
            <ns3:atemp>26.0</ns3:atemp>
          </ns3:TrackPointExtension>
        </extensions>
      </trkpt>
      <trkpt lat="42.52925944514572620391845703125" lon="19.76477771066129207611083984375">
        <ele>1675.4000244140625</ele>
        <time>2026-06-18T08:43:49.000Z</time>
        <extensions>
          <ns3:TrackPointExtension>
            <ns3:atemp>26.0</ns3:atemp>
          </ns3:TrackPointExtension>
        </extensions>
      </trkpt>
      <trkpt lat="42.52925944514572620391845703125" lon="19.76477771066129207611083984375">
        <ele>1675.4000244140625</ele>
        <time>2026-06-18T08:43:50.000Z</time>
        <extensions>
          <ns3:TrackPointExtension>
            <ns3:atemp>26.0</ns3:atemp>
          </ns3:TrackPointExtension>
        </extensions>
      </trkpt>
      <trkpt lat="42.52925944514572620391845703125" lon="19.76477771066129207611083984375">
        <ele>1675.4000244140625</ele>
        <time>2026-06-18T08:43:51.000Z</time>
        <extensions>
          <ns3:TrackPointExtension>
            <ns3:atemp>26.0</ns3:atemp>
          </ns3:TrackPointExtension>
        </extensions>
      </trkpt>
      <trkpt lat="42.52925944514572620391845703125" lon="19.76477771066129207611083984375">
        <ele>1675.4000244140625</ele>
        <time>2026-06-18T08:43:52.000Z</time>
        <extensions>
          <ns3:TrackPointExtension>
            <ns3:atemp>26.0</ns3:atemp>
          </ns3:TrackPointExtension>
        </extensions>
      </trkpt>
      <trkpt lat="42.52925944514572620391845703125" lon="19.76477771066129207611083984375">
        <ele>1675.4000244140625</ele>
        <time>2026-06-18T08:43:53.000Z</time>
        <extensions>
          <ns3:TrackPointExtension>
            <ns3:atemp>26.0</ns3:atemp>
          </ns3:TrackPointExtension>
        </extensions>
      </trkpt>
      <trkpt lat="42.52925944514572620391845703125" lon="19.76477771066129207611083984375">
        <ele>1675.4000244140625</ele>
        <time>2026-06-18T08:43:54.000Z</time>
        <extensions>
          <ns3:TrackPointExtension>
            <ns3:atemp>26.0</ns3:atemp>
          </ns3:TrackPointExtension>
        </extensions>
      </trkpt>
      <trkpt lat="42.52925944514572620391845703125" lon="19.76477771066129207611083984375">
        <ele>1675.4000244140625</ele>
        <time>2026-06-18T08:43:55.000Z</time>
        <extensions>
          <ns3:TrackPointExtension>
            <ns3:atemp>26.0</ns3:atemp>
          </ns3:TrackPointExtension>
        </extensions>
      </trkpt>
      <trkpt lat="42.52925944514572620391845703125" lon="19.76477771066129207611083984375">
        <ele>1675.4000244140625</ele>
        <time>2026-06-18T08:43:56.000Z</time>
        <extensions>
          <ns3:TrackPointExtension>
            <ns3:atemp>26.0</ns3:atemp>
          </ns3:TrackPointExtension>
        </extensions>
      </trkpt>
      <trkpt lat="42.52925944514572620391845703125" lon="19.76477771066129207611083984375">
        <ele>1675.4000244140625</ele>
        <time>2026-06-18T08:43:57.000Z</time>
        <extensions>
          <ns3:TrackPointExtension>
            <ns3:atemp>26.0</ns3:atemp>
          </ns3:TrackPointExtension>
        </extensions>
      </trkpt>
      <trkpt lat="42.52925944514572620391845703125" lon="19.76477771066129207611083984375">
        <ele>1675.4000244140625</ele>
        <time>2026-06-18T08:43:58.000Z</time>
        <extensions>
          <ns3:TrackPointExtension>
            <ns3:atemp>26.0</ns3:atemp>
          </ns3:TrackPointExtension>
        </extensions>
      </trkpt>
      <trkpt lat="42.52925944514572620391845703125" lon="19.76477771066129207611083984375">
        <ele>1675.4000244140625</ele>
        <time>2026-06-18T08:43:59.000Z</time>
        <extensions>
          <ns3:TrackPointExtension>
            <ns3:atemp>26.0</ns3:atemp>
          </ns3:TrackPointExtension>
        </extensions>
      </trkpt>
      <trkpt lat="42.52925944514572620391845703125" lon="19.76477771066129207611083984375">
        <ele>1675.4000244140625</ele>
        <time>2026-06-18T08:44:00.000Z</time>
        <extensions>
          <ns3:TrackPointExtension>
            <ns3:atemp>26.0</ns3:atemp>
          </ns3:TrackPointExtension>
        </extensions>
      </trkpt>
      <trkpt lat="42.52925944514572620391845703125" lon="19.76477771066129207611083984375">
        <ele>1675.4000244140625</ele>
        <time>2026-06-18T08:44:01.000Z</time>
        <extensions>
          <ns3:TrackPointExtension>
            <ns3:atemp>26.0</ns3:atemp>
          </ns3:TrackPointExtension>
        </extensions>
      </trkpt>
      <trkpt lat="42.52925944514572620391845703125" lon="19.76477771066129207611083984375">
        <ele>1675.4000244140625</ele>
        <time>2026-06-18T08:44:02.000Z</time>
        <extensions>
          <ns3:TrackPointExtension>
            <ns3:atemp>26.0</ns3:atemp>
          </ns3:TrackPointExtension>
        </extensions>
      </trkpt>
      <trkpt lat="42.52925944514572620391845703125" lon="19.76477771066129207611083984375">
        <ele>1675.4000244140625</ele>
        <time>2026-06-18T08:44:03.000Z</time>
        <extensions>
          <ns3:TrackPointExtension>
            <ns3:atemp>26.0</ns3:atemp>
          </ns3:TrackPointExtension>
        </extensions>
      </trkpt>
      <trkpt lat="42.52925944514572620391845703125" lon="19.76477771066129207611083984375">
        <ele>1675.4000244140625</ele>
        <time>2026-06-18T08:44:04.000Z</time>
        <extensions>
          <ns3:TrackPointExtension>
            <ns3:atemp>26.0</ns3:atemp>
          </ns3:TrackPointExtension>
        </extensions>
      </trkpt>
      <trkpt lat="42.52925944514572620391845703125" lon="19.76477771066129207611083984375">
        <ele>1675.4000244140625</ele>
        <time>2026-06-18T08:44:05.000Z</time>
        <extensions>
          <ns3:TrackPointExtension>
            <ns3:atemp>26.0</ns3:atemp>
          </ns3:TrackPointExtension>
        </extensions>
      </trkpt>
      <trkpt lat="42.52925944514572620391845703125" lon="19.76477771066129207611083984375">
        <ele>1675.4000244140625</ele>
        <time>2026-06-18T08:44:06.000Z</time>
        <extensions>
          <ns3:TrackPointExtension>
            <ns3:atemp>26.0</ns3:atemp>
          </ns3:TrackPointExtension>
        </extensions>
      </trkpt>
      <trkpt lat="42.52925944514572620391845703125" lon="19.76477771066129207611083984375">
        <ele>1675.4000244140625</ele>
        <time>2026-06-18T08:44:07.000Z</time>
        <extensions>
          <ns3:TrackPointExtension>
            <ns3:atemp>26.0</ns3:atemp>
          </ns3:TrackPointExtension>
        </extensions>
      </trkpt>
      <trkpt lat="42.52925944514572620391845703125" lon="19.76477771066129207611083984375">
        <ele>1675.4000244140625</ele>
        <time>2026-06-18T08:44:08.000Z</time>
        <extensions>
          <ns3:TrackPointExtension>
            <ns3:atemp>26.0</ns3:atemp>
          </ns3:TrackPointExtension>
        </extensions>
      </trkpt>
      <trkpt lat="42.52925944514572620391845703125" lon="19.76477771066129207611083984375">
        <ele>1675.4000244140625</ele>
        <time>2026-06-18T08:44:09.000Z</time>
        <extensions>
          <ns3:TrackPointExtension>
            <ns3:atemp>26.0</ns3:atemp>
          </ns3:TrackPointExtension>
        </extensions>
      </trkpt>
      <trkpt lat="42.52925944514572620391845703125" lon="19.76477771066129207611083984375">
        <ele>1675.4000244140625</ele>
        <time>2026-06-18T08:44:10.000Z</time>
        <extensions>
          <ns3:TrackPointExtension>
            <ns3:atemp>26.0</ns3:atemp>
          </ns3:TrackPointExtension>
        </extensions>
      </trkpt>
      <trkpt lat="42.52925944514572620391845703125" lon="19.76477771066129207611083984375">
        <ele>1675.4000244140625</ele>
        <time>2026-06-18T08:44:11.000Z</time>
        <extensions>
          <ns3:TrackPointExtension>
            <ns3:atemp>26.0</ns3:atemp>
          </ns3:TrackPointExtension>
        </extensions>
      </trkpt>
      <trkpt lat="42.52925944514572620391845703125" lon="19.76477771066129207611083984375">
        <ele>1675.4000244140625</ele>
        <time>2026-06-18T08:44:12.000Z</time>
        <extensions>
          <ns3:TrackPointExtension>
            <ns3:atemp>26.0</ns3:atemp>
          </ns3:TrackPointExtension>
        </extensions>
      </trkpt>
      <trkpt lat="42.52925944514572620391845703125" lon="19.76477771066129207611083984375">
        <ele>1675.4000244140625</ele>
        <time>2026-06-18T08:44:13.000Z</time>
        <extensions>
          <ns3:TrackPointExtension>
            <ns3:atemp>26.0</ns3:atemp>
          </ns3:TrackPointExtension>
        </extensions>
      </trkpt>
      <trkpt lat="42.52925944514572620391845703125" lon="19.76477771066129207611083984375">
        <ele>1675.4000244140625</ele>
        <time>2026-06-18T08:44:14.000Z</time>
        <extensions>
          <ns3:TrackPointExtension>
            <ns3:atemp>26.0</ns3:atemp>
          </ns3:TrackPointExtension>
        </extensions>
      </trkpt>
      <trkpt lat="42.52925944514572620391845703125" lon="19.76477771066129207611083984375">
        <ele>1675.4000244140625</ele>
        <time>2026-06-18T08:44:15.000Z</time>
        <extensions>
          <ns3:TrackPointExtension>
            <ns3:atemp>26.0</ns3:atemp>
          </ns3:TrackPointExtension>
        </extensions>
      </trkpt>
      <trkpt lat="42.52925944514572620391845703125" lon="19.76477771066129207611083984375">
        <ele>1675.4000244140625</ele>
        <time>2026-06-18T08:44:16.000Z</time>
        <extensions>
          <ns3:TrackPointExtension>
            <ns3:atemp>26.0</ns3:atemp>
          </ns3:TrackPointExtension>
        </extensions>
      </trkpt>
      <trkpt lat="42.52925944514572620391845703125" lon="19.76477771066129207611083984375">
        <ele>1675.4000244140625</ele>
        <time>2026-06-18T08:44:17.000Z</time>
        <extensions>
          <ns3:TrackPointExtension>
            <ns3:atemp>26.0</ns3:atemp>
          </ns3:TrackPointExtension>
        </extensions>
      </trkpt>
      <trkpt lat="42.52925944514572620391845703125" lon="19.76477771066129207611083984375">
        <ele>1675.4000244140625</ele>
        <time>2026-06-18T08:44:18.000Z</time>
        <extensions>
          <ns3:TrackPointExtension>
            <ns3:atemp>26.0</ns3:atemp>
          </ns3:TrackPointExtension>
        </extensions>
      </trkpt>
      <trkpt lat="42.52925944514572620391845703125" lon="19.76477771066129207611083984375">
        <ele>1675.4000244140625</ele>
        <time>2026-06-18T08:44:19.000Z</time>
        <extensions>
          <ns3:TrackPointExtension>
            <ns3:atemp>26.0</ns3:atemp>
          </ns3:TrackPointExtension>
        </extensions>
      </trkpt>
      <trkpt lat="42.52925944514572620391845703125" lon="19.76477771066129207611083984375">
        <ele>1675.4000244140625</ele>
        <time>2026-06-18T08:44:20.000Z</time>
        <extensions>
          <ns3:TrackPointExtension>
            <ns3:atemp>26.0</ns3:atemp>
          </ns3:TrackPointExtension>
        </extensions>
      </trkpt>
      <trkpt lat="42.52925944514572620391845703125" lon="19.76477771066129207611083984375">
        <ele>1675.4000244140625</ele>
        <time>2026-06-18T08:44:21.000Z</time>
        <extensions>
          <ns3:TrackPointExtension>
            <ns3:atemp>26.0</ns3:atemp>
          </ns3:TrackPointExtension>
        </extensions>
      </trkpt>
      <trkpt lat="42.52925944514572620391845703125" lon="19.76477771066129207611083984375">
        <ele>1675.4000244140625</ele>
        <time>2026-06-18T08:44:22.000Z</time>
        <extensions>
          <ns3:TrackPointExtension>
            <ns3:atemp>26.0</ns3:atemp>
          </ns3:TrackPointExtension>
        </extensions>
      </trkpt>
      <trkpt lat="42.52925944514572620391845703125" lon="19.76477771066129207611083984375">
        <ele>1675.4000244140625</ele>
        <time>2026-06-18T08:44:23.000Z</time>
        <extensions>
          <ns3:TrackPointExtension>
            <ns3:atemp>26.0</ns3:atemp>
          </ns3:TrackPointExtension>
        </extensions>
      </trkpt>
      <trkpt lat="42.52925944514572620391845703125" lon="19.76477771066129207611083984375">
        <ele>1675.4000244140625</ele>
        <time>2026-06-18T08:44:24.000Z</time>
        <extensions>
          <ns3:TrackPointExtension>
            <ns3:atemp>26.0</ns3:atemp>
          </ns3:TrackPointExtension>
        </extensions>
      </trkpt>
      <trkpt lat="42.52925944514572620391845703125" lon="19.76477771066129207611083984375">
        <ele>1675.4000244140625</ele>
        <time>2026-06-18T08:44:25.000Z</time>
        <extensions>
          <ns3:TrackPointExtension>
            <ns3:atemp>26.0</ns3:atemp>
          </ns3:TrackPointExtension>
        </extensions>
      </trkpt>
      <trkpt lat="42.52925944514572620391845703125" lon="19.76477771066129207611083984375">
        <ele>1675.4000244140625</ele>
        <time>2026-06-18T08:44:26.000Z</time>
        <extensions>
          <ns3:TrackPointExtension>
            <ns3:atemp>26.0</ns3:atemp>
          </ns3:TrackPointExtension>
        </extensions>
      </trkpt>
      <trkpt lat="42.52925944514572620391845703125" lon="19.76477771066129207611083984375">
        <ele>1675.4000244140625</ele>
        <time>2026-06-18T08:44:27.000Z</time>
        <extensions>
          <ns3:TrackPointExtension>
            <ns3:atemp>26.0</ns3:atemp>
          </ns3:TrackPointExtension>
        </extensions>
      </trkpt>
      <trkpt lat="42.52925944514572620391845703125" lon="19.76477771066129207611083984375">
        <ele>1675.4000244140625</ele>
        <time>2026-06-18T08:44:28.000Z</time>
        <extensions>
          <ns3:TrackPointExtension>
            <ns3:atemp>26.0</ns3:atemp>
          </ns3:TrackPointExtension>
        </extensions>
      </trkpt>
      <trkpt lat="42.52925944514572620391845703125" lon="19.76477771066129207611083984375">
        <ele>1675.4000244140625</ele>
        <time>2026-06-18T08:44:29.000Z</time>
        <extensions>
          <ns3:TrackPointExtension>
            <ns3:atemp>26.0</ns3:atemp>
          </ns3:TrackPointExtension>
        </extensions>
      </trkpt>
      <trkpt lat="42.52925944514572620391845703125" lon="19.76477771066129207611083984375">
        <ele>1675.4000244140625</ele>
        <time>2026-06-18T08:44:30.000Z</time>
        <extensions>
          <ns3:TrackPointExtension>
            <ns3:atemp>26.0</ns3:atemp>
          </ns3:TrackPointExtension>
        </extensions>
      </trkpt>
      <trkpt lat="42.52925944514572620391845703125" lon="19.76477771066129207611083984375">
        <ele>1675.4000244140625</ele>
        <time>2026-06-18T08:44:31.000Z</time>
        <extensions>
          <ns3:TrackPointExtension>
            <ns3:atemp>26.0</ns3:atemp>
          </ns3:TrackPointExtension>
        </extensions>
      </trkpt>
      <trkpt lat="42.52925944514572620391845703125" lon="19.76477771066129207611083984375">
        <ele>1675.4000244140625</ele>
        <time>2026-06-18T08:44:32.000Z</time>
        <extensions>
          <ns3:TrackPointExtension>
            <ns3:atemp>26.0</ns3:atemp>
          </ns3:TrackPointExtension>
        </extensions>
      </trkpt>
      <trkpt lat="42.52925944514572620391845703125" lon="19.76477771066129207611083984375">
        <ele>1675.4000244140625</ele>
        <time>2026-06-18T08:44:33.000Z</time>
        <extensions>
          <ns3:TrackPointExtension>
            <ns3:atemp>26.0</ns3:atemp>
          </ns3:TrackPointExtension>
        </extensions>
      </trkpt>
      <trkpt lat="42.52925944514572620391845703125" lon="19.76477771066129207611083984375">
        <ele>1675.4000244140625</ele>
        <time>2026-06-18T08:44:34.000Z</time>
        <extensions>
          <ns3:TrackPointExtension>
            <ns3:atemp>26.0</ns3:atemp>
          </ns3:TrackPointExtension>
        </extensions>
      </trkpt>
      <trkpt lat="42.52925944514572620391845703125" lon="19.76477771066129207611083984375">
        <ele>1675.4000244140625</ele>
        <time>2026-06-18T08:44:35.000Z</time>
        <extensions>
          <ns3:TrackPointExtension>
            <ns3:atemp>26.0</ns3:atemp>
          </ns3:TrackPointExtension>
        </extensions>
      </trkpt>
      <trkpt lat="42.52925944514572620391845703125" lon="19.76477771066129207611083984375">
        <ele>1675.4000244140625</ele>
        <time>2026-06-18T08:44:36.000Z</time>
        <extensions>
          <ns3:TrackPointExtension>
            <ns3:atemp>26.0</ns3:atemp>
          </ns3:TrackPointExtension>
        </extensions>
      </trkpt>
      <trkpt lat="42.52925944514572620391845703125" lon="19.76477771066129207611083984375">
        <ele>1675.4000244140625</ele>
        <time>2026-06-18T08:44:37.000Z</time>
        <extensions>
          <ns3:TrackPointExtension>
            <ns3:atemp>26.0</ns3:atemp>
          </ns3:TrackPointExtension>
        </extensions>
      </trkpt>
      <trkpt lat="42.52925944514572620391845703125" lon="19.76477771066129207611083984375">
        <ele>1675.4000244140625</ele>
        <time>2026-06-18T08:44:38.000Z</time>
        <extensions>
          <ns3:TrackPointExtension>
            <ns3:atemp>26.0</ns3:atemp>
          </ns3:TrackPointExtension>
        </extensions>
      </trkpt>
      <trkpt lat="42.52925944514572620391845703125" lon="19.76477771066129207611083984375">
        <ele>1675.4000244140625</ele>
        <time>2026-06-18T08:44:39.000Z</time>
        <extensions>
          <ns3:TrackPointExtension>
            <ns3:atemp>26.0</ns3:atemp>
          </ns3:TrackPointExtension>
        </extensions>
      </trkpt>
      <trkpt lat="42.52925944514572620391845703125" lon="19.76477771066129207611083984375">
        <ele>1675.4000244140625</ele>
        <time>2026-06-18T08:44:40.000Z</time>
        <extensions>
          <ns3:TrackPointExtension>
            <ns3:atemp>26.0</ns3:atemp>
          </ns3:TrackPointExtension>
        </extensions>
      </trkpt>
      <trkpt lat="42.52925944514572620391845703125" lon="19.76477771066129207611083984375">
        <ele>1675.4000244140625</ele>
        <time>2026-06-18T08:44:41.000Z</time>
        <extensions>
          <ns3:TrackPointExtension>
            <ns3:atemp>26.0</ns3:atemp>
          </ns3:TrackPointExtension>
        </extensions>
      </trkpt>
      <trkpt lat="42.52925944514572620391845703125" lon="19.76477771066129207611083984375">
        <ele>1675.4000244140625</ele>
        <time>2026-06-18T08:44:42.000Z</time>
        <extensions>
          <ns3:TrackPointExtension>
            <ns3:atemp>26.0</ns3:atemp>
          </ns3:TrackPointExtension>
        </extensions>
      </trkpt>
      <trkpt lat="42.52925944514572620391845703125" lon="19.76477771066129207611083984375">
        <ele>1675.4000244140625</ele>
        <time>2026-06-18T08:44:43.000Z</time>
        <extensions>
          <ns3:TrackPointExtension>
            <ns3:atemp>26.0</ns3:atemp>
          </ns3:TrackPointExtension>
        </extensions>
      </trkpt>
      <trkpt lat="42.52925944514572620391845703125" lon="19.76477771066129207611083984375">
        <ele>1675.4000244140625</ele>
        <time>2026-06-18T08:44:44.000Z</time>
        <extensions>
          <ns3:TrackPointExtension>
            <ns3:atemp>26.0</ns3:atemp>
          </ns3:TrackPointExtension>
        </extensions>
      </trkpt>
      <trkpt lat="42.52925944514572620391845703125" lon="19.76477771066129207611083984375">
        <ele>1675.4000244140625</ele>
        <time>2026-06-18T08:44:45.000Z</time>
        <extensions>
          <ns3:TrackPointExtension>
            <ns3:atemp>26.0</ns3:atemp>
          </ns3:TrackPointExtension>
        </extensions>
      </trkpt>
      <trkpt lat="42.52925944514572620391845703125" lon="19.76477771066129207611083984375">
        <ele>1675.4000244140625</ele>
        <time>2026-06-18T08:44:46.000Z</time>
        <extensions>
          <ns3:TrackPointExtension>
            <ns3:atemp>26.0</ns3:atemp>
          </ns3:TrackPointExtension>
        </extensions>
      </trkpt>
      <trkpt lat="42.52925944514572620391845703125" lon="19.76477771066129207611083984375">
        <ele>1675.4000244140625</ele>
        <time>2026-06-18T08:44:47.000Z</time>
        <extensions>
          <ns3:TrackPointExtension>
            <ns3:atemp>26.0</ns3:atemp>
          </ns3:TrackPointExtension>
        </extensions>
      </trkpt>
      <trkpt lat="42.52925944514572620391845703125" lon="19.76477771066129207611083984375">
        <ele>1675.4000244140625</ele>
        <time>2026-06-18T08:44:48.000Z</time>
        <extensions>
          <ns3:TrackPointExtension>
            <ns3:atemp>26.0</ns3:atemp>
          </ns3:TrackPointExtension>
        </extensions>
      </trkpt>
      <trkpt lat="42.52925944514572620391845703125" lon="19.76477771066129207611083984375">
        <ele>1675.4000244140625</ele>
        <time>2026-06-18T08:44:49.000Z</time>
        <extensions>
          <ns3:TrackPointExtension>
            <ns3:atemp>26.0</ns3:atemp>
          </ns3:TrackPointExtension>
        </extensions>
      </trkpt>
      <trkpt lat="42.52925944514572620391845703125" lon="19.76477771066129207611083984375">
        <ele>1675.4000244140625</ele>
        <time>2026-06-18T08:44:50.000Z</time>
        <extensions>
          <ns3:TrackPointExtension>
            <ns3:atemp>26.0</ns3:atemp>
          </ns3:TrackPointExtension>
        </extensions>
      </trkpt>
      <trkpt lat="42.52925944514572620391845703125" lon="19.76477771066129207611083984375">
        <ele>1675.4000244140625</ele>
        <time>2026-06-18T08:44:51.000Z</time>
        <extensions>
          <ns3:TrackPointExtension>
            <ns3:atemp>26.0</ns3:atemp>
          </ns3:TrackPointExtension>
        </extensions>
      </trkpt>
      <trkpt lat="42.52925944514572620391845703125" lon="19.76477771066129207611083984375">
        <ele>1675.4000244140625</ele>
        <time>2026-06-18T08:44:52.000Z</time>
        <extensions>
          <ns3:TrackPointExtension>
            <ns3:atemp>26.0</ns3:atemp>
          </ns3:TrackPointExtension>
        </extensions>
      </trkpt>
      <trkpt lat="42.52925944514572620391845703125" lon="19.76477771066129207611083984375">
        <ele>1675.4000244140625</ele>
        <time>2026-06-18T08:44:53.000Z</time>
        <extensions>
          <ns3:TrackPointExtension>
            <ns3:atemp>26.0</ns3:atemp>
          </ns3:TrackPointExtension>
        </extensions>
      </trkpt>
      <trkpt lat="42.52925944514572620391845703125" lon="19.76477771066129207611083984375">
        <ele>1675.4000244140625</ele>
        <time>2026-06-18T08:44:54.000Z</time>
        <extensions>
          <ns3:TrackPointExtension>
            <ns3:atemp>26.0</ns3:atemp>
          </ns3:TrackPointExtension>
        </extensions>
      </trkpt>
      <trkpt lat="42.52925944514572620391845703125" lon="19.76477771066129207611083984375">
        <ele>1675.4000244140625</ele>
        <time>2026-06-18T08:44:55.000Z</time>
        <extensions>
          <ns3:TrackPointExtension>
            <ns3:atemp>26.0</ns3:atemp>
          </ns3:TrackPointExtension>
        </extensions>
      </trkpt>
      <trkpt lat="42.52925944514572620391845703125" lon="19.76477771066129207611083984375">
        <ele>1675.4000244140625</ele>
        <time>2026-06-18T08:44:56.000Z</time>
        <extensions>
          <ns3:TrackPointExtension>
            <ns3:atemp>26.0</ns3:atemp>
          </ns3:TrackPointExtension>
        </extensions>
      </trkpt>
      <trkpt lat="42.52925944514572620391845703125" lon="19.76477771066129207611083984375">
        <ele>1675.4000244140625</ele>
        <time>2026-06-18T08:44:57.000Z</time>
        <extensions>
          <ns3:TrackPointExtension>
            <ns3:atemp>26.0</ns3:atemp>
          </ns3:TrackPointExtension>
        </extensions>
      </trkpt>
      <trkpt lat="42.52925944514572620391845703125" lon="19.76477771066129207611083984375">
        <ele>1675.4000244140625</ele>
        <time>2026-06-18T08:44:58.000Z</time>
        <extensions>
          <ns3:TrackPointExtension>
            <ns3:atemp>26.0</ns3:atemp>
          </ns3:TrackPointExtension>
        </extensions>
      </trkpt>
      <trkpt lat="42.52925944514572620391845703125" lon="19.76477771066129207611083984375">
        <ele>1675.4000244140625</ele>
        <time>2026-06-18T08:44:59.000Z</time>
        <extensions>
          <ns3:TrackPointExtension>
            <ns3:atemp>26.0</ns3:atemp>
          </ns3:TrackPointExtension>
        </extensions>
      </trkpt>
      <trkpt lat="42.52925944514572620391845703125" lon="19.76477771066129207611083984375">
        <ele>1675.4000244140625</ele>
        <time>2026-06-18T08:45:00.000Z</time>
        <extensions>
          <ns3:TrackPointExtension>
            <ns3:atemp>26.0</ns3:atemp>
          </ns3:TrackPointExtension>
        </extensions>
      </trkpt>
      <trkpt lat="42.52925944514572620391845703125" lon="19.76477771066129207611083984375">
        <ele>1675.4000244140625</ele>
        <time>2026-06-18T08:45:01.000Z</time>
        <extensions>
          <ns3:TrackPointExtension>
            <ns3:atemp>26.0</ns3:atemp>
          </ns3:TrackPointExtension>
        </extensions>
      </trkpt>
      <trkpt lat="42.52925944514572620391845703125" lon="19.76477771066129207611083984375">
        <ele>1675.4000244140625</ele>
        <time>2026-06-18T08:45:02.000Z</time>
        <extensions>
          <ns3:TrackPointExtension>
            <ns3:atemp>26.0</ns3:atemp>
          </ns3:TrackPointExtension>
        </extensions>
      </trkpt>
      <trkpt lat="42.52925944514572620391845703125" lon="19.76477771066129207611083984375">
        <ele>1675.4000244140625</ele>
        <time>2026-06-18T08:45:03.000Z</time>
        <extensions>
          <ns3:TrackPointExtension>
            <ns3:atemp>26.0</ns3:atemp>
          </ns3:TrackPointExtension>
        </extensions>
      </trkpt>
      <trkpt lat="42.52925944514572620391845703125" lon="19.76477771066129207611083984375">
        <ele>1675.4000244140625</ele>
        <time>2026-06-18T08:45:04.000Z</time>
        <extensions>
          <ns3:TrackPointExtension>
            <ns3:atemp>26.0</ns3:atemp>
          </ns3:TrackPointExtension>
        </extensions>
      </trkpt>
      <trkpt lat="42.52925944514572620391845703125" lon="19.76477771066129207611083984375">
        <ele>1675.4000244140625</ele>
        <time>2026-06-18T08:45:05.000Z</time>
        <extensions>
          <ns3:TrackPointExtension>
            <ns3:atemp>26.0</ns3:atemp>
          </ns3:TrackPointExtension>
        </extensions>
      </trkpt>
      <trkpt lat="42.52925944514572620391845703125" lon="19.76477771066129207611083984375">
        <ele>1675.4000244140625</ele>
        <time>2026-06-18T08:45:06.000Z</time>
        <extensions>
          <ns3:TrackPointExtension>
            <ns3:atemp>26.0</ns3:atemp>
          </ns3:TrackPointExtension>
        </extensions>
      </trkpt>
      <trkpt lat="42.52925944514572620391845703125" lon="19.76477771066129207611083984375">
        <ele>1675.4000244140625</ele>
        <time>2026-06-18T08:45:07.000Z</time>
        <extensions>
          <ns3:TrackPointExtension>
            <ns3:atemp>26.0</ns3:atemp>
          </ns3:TrackPointExtension>
        </extensions>
      </trkpt>
      <trkpt lat="42.52925944514572620391845703125" lon="19.76477771066129207611083984375">
        <ele>1675.4000244140625</ele>
        <time>2026-06-18T08:45:08.000Z</time>
        <extensions>
          <ns3:TrackPointExtension>
            <ns3:atemp>26.0</ns3:atemp>
          </ns3:TrackPointExtension>
        </extensions>
      </trkpt>
      <trkpt lat="42.52925944514572620391845703125" lon="19.76477771066129207611083984375">
        <ele>1675.4000244140625</ele>
        <time>2026-06-18T08:45:09.000Z</time>
        <extensions>
          <ns3:TrackPointExtension>
            <ns3:atemp>26.0</ns3:atemp>
          </ns3:TrackPointExtension>
        </extensions>
      </trkpt>
      <trkpt lat="42.52925944514572620391845703125" lon="19.76477771066129207611083984375">
        <ele>1675.4000244140625</ele>
        <time>2026-06-18T08:45:10.000Z</time>
        <extensions>
          <ns3:TrackPointExtension>
            <ns3:atemp>26.0</ns3:atemp>
          </ns3:TrackPointExtension>
        </extensions>
      </trkpt>
      <trkpt lat="42.52925944514572620391845703125" lon="19.76477771066129207611083984375">
        <ele>1675.4000244140625</ele>
        <time>2026-06-18T08:45:11.000Z</time>
        <extensions>
          <ns3:TrackPointExtension>
            <ns3:atemp>26.0</ns3:atemp>
          </ns3:TrackPointExtension>
        </extensions>
      </trkpt>
      <trkpt lat="42.52925944514572620391845703125" lon="19.76477771066129207611083984375">
        <ele>1675.4000244140625</ele>
        <time>2026-06-18T08:45:12.000Z</time>
        <extensions>
          <ns3:TrackPointExtension>
            <ns3:atemp>26.0</ns3:atemp>
          </ns3:TrackPointExtension>
        </extensions>
      </trkpt>
      <trkpt lat="42.52925944514572620391845703125" lon="19.76477771066129207611083984375">
        <ele>1675.4000244140625</ele>
        <time>2026-06-18T08:45:13.000Z</time>
        <extensions>
          <ns3:TrackPointExtension>
            <ns3:atemp>26.0</ns3:atemp>
          </ns3:TrackPointExtension>
        </extensions>
      </trkpt>
      <trkpt lat="42.52925944514572620391845703125" lon="19.76477771066129207611083984375">
        <ele>1675.4000244140625</ele>
        <time>2026-06-18T08:45:14.000Z</time>
        <extensions>
          <ns3:TrackPointExtension>
            <ns3:atemp>26.0</ns3:atemp>
          </ns3:TrackPointExtension>
        </extensions>
      </trkpt>
      <trkpt lat="42.52925944514572620391845703125" lon="19.76477771066129207611083984375">
        <ele>1675.4000244140625</ele>
        <time>2026-06-18T08:45:15.000Z</time>
        <extensions>
          <ns3:TrackPointExtension>
            <ns3:atemp>26.0</ns3:atemp>
          </ns3:TrackPointExtension>
        </extensions>
      </trkpt>
      <trkpt lat="42.52925944514572620391845703125" lon="19.76477771066129207611083984375">
        <ele>1675.4000244140625</ele>
        <time>2026-06-18T08:45:16.000Z</time>
        <extensions>
          <ns3:TrackPointExtension>
            <ns3:atemp>26.0</ns3:atemp>
          </ns3:TrackPointExtension>
        </extensions>
      </trkpt>
      <trkpt lat="42.52925944514572620391845703125" lon="19.76477771066129207611083984375">
        <ele>1675.4000244140625</ele>
        <time>2026-06-18T08:45:17.000Z</time>
        <extensions>
          <ns3:TrackPointExtension>
            <ns3:atemp>26.0</ns3:atemp>
          </ns3:TrackPointExtension>
        </extensions>
      </trkpt>
      <trkpt lat="42.52925944514572620391845703125" lon="19.76477771066129207611083984375">
        <ele>1675.4000244140625</ele>
        <time>2026-06-18T08:45:18.000Z</time>
        <extensions>
          <ns3:TrackPointExtension>
            <ns3:atemp>26.0</ns3:atemp>
          </ns3:TrackPointExtension>
        </extensions>
      </trkpt>
      <trkpt lat="42.52925944514572620391845703125" lon="19.76477771066129207611083984375">
        <ele>1675.4000244140625</ele>
        <time>2026-06-18T08:45:19.000Z</time>
        <extensions>
          <ns3:TrackPointExtension>
            <ns3:atemp>26.0</ns3:atemp>
          </ns3:TrackPointExtension>
        </extensions>
      </trkpt>
      <trkpt lat="42.52925944514572620391845703125" lon="19.76477771066129207611083984375">
        <ele>1675.4000244140625</ele>
        <time>2026-06-18T08:45:20.000Z</time>
        <extensions>
          <ns3:TrackPointExtension>
            <ns3:atemp>26.0</ns3:atemp>
          </ns3:TrackPointExtension>
        </extensions>
      </trkpt>
      <trkpt lat="42.52925944514572620391845703125" lon="19.76477771066129207611083984375">
        <ele>1675.4000244140625</ele>
        <time>2026-06-18T08:45:21.000Z</time>
        <extensions>
          <ns3:TrackPointExtension>
            <ns3:atemp>26.0</ns3:atemp>
          </ns3:TrackPointExtension>
        </extensions>
      </trkpt>
      <trkpt lat="42.52925944514572620391845703125" lon="19.76477771066129207611083984375">
        <ele>1675.4000244140625</ele>
        <time>2026-06-18T08:45:22.000Z</time>
        <extensions>
          <ns3:TrackPointExtension>
            <ns3:atemp>26.0</ns3:atemp>
          </ns3:TrackPointExtension>
        </extensions>
      </trkpt>
      <trkpt lat="42.52925944514572620391845703125" lon="19.76477771066129207611083984375">
        <ele>1675.4000244140625</ele>
        <time>2026-06-18T08:45:23.000Z</time>
        <extensions>
          <ns3:TrackPointExtension>
            <ns3:atemp>26.0</ns3:atemp>
          </ns3:TrackPointExtension>
        </extensions>
      </trkpt>
      <trkpt lat="42.52925944514572620391845703125" lon="19.76477771066129207611083984375">
        <ele>1675.4000244140625</ele>
        <time>2026-06-18T08:45:24.000Z</time>
        <extensions>
          <ns3:TrackPointExtension>
            <ns3:atemp>26.0</ns3:atemp>
          </ns3:TrackPointExtension>
        </extensions>
      </trkpt>
      <trkpt lat="42.52925944514572620391845703125" lon="19.76477771066129207611083984375">
        <ele>1675.4000244140625</ele>
        <time>2026-06-18T08:45:25.000Z</time>
        <extensions>
          <ns3:TrackPointExtension>
            <ns3:atemp>26.0</ns3:atemp>
          </ns3:TrackPointExtension>
        </extensions>
      </trkpt>
      <trkpt lat="42.52925944514572620391845703125" lon="19.76477771066129207611083984375">
        <ele>1675.4000244140625</ele>
        <time>2026-06-18T08:45:26.000Z</time>
        <extensions>
          <ns3:TrackPointExtension>
            <ns3:atemp>26.0</ns3:atemp>
          </ns3:TrackPointExtension>
        </extensions>
      </trkpt>
      <trkpt lat="42.52925944514572620391845703125" lon="19.76477771066129207611083984375">
        <ele>1675.4000244140625</ele>
        <time>2026-06-18T08:45:27.000Z</time>
        <extensions>
          <ns3:TrackPointExtension>
            <ns3:atemp>26.0</ns3:atemp>
          </ns3:TrackPointExtension>
        </extensions>
      </trkpt>
      <trkpt lat="42.52925944514572620391845703125" lon="19.76477771066129207611083984375">
        <ele>1675.4000244140625</ele>
        <time>2026-06-18T08:45:28.000Z</time>
        <extensions>
          <ns3:TrackPointExtension>
            <ns3:atemp>26.0</ns3:atemp>
          </ns3:TrackPointExtension>
        </extensions>
      </trkpt>
      <trkpt lat="42.52925944514572620391845703125" lon="19.76477771066129207611083984375">
        <ele>1675.4000244140625</ele>
        <time>2026-06-18T08:45:29.000Z</time>
        <extensions>
          <ns3:TrackPointExtension>
            <ns3:atemp>26.0</ns3:atemp>
          </ns3:TrackPointExtension>
        </extensions>
      </trkpt>
      <trkpt lat="42.52925944514572620391845703125" lon="19.76477771066129207611083984375">
        <ele>1675.4000244140625</ele>
        <time>2026-06-18T08:45:30.000Z</time>
        <extensions>
          <ns3:TrackPointExtension>
            <ns3:atemp>26.0</ns3:atemp>
          </ns3:TrackPointExtension>
        </extensions>
      </trkpt>
      <trkpt lat="42.52925944514572620391845703125" lon="19.76477771066129207611083984375">
        <ele>1675.4000244140625</ele>
        <time>2026-06-18T08:45:31.000Z</time>
        <extensions>
          <ns3:TrackPointExtension>
            <ns3:atemp>26.0</ns3:atemp>
          </ns3:TrackPointExtension>
        </extensions>
      </trkpt>
      <trkpt lat="42.52925944514572620391845703125" lon="19.76477771066129207611083984375">
        <ele>1675.4000244140625</ele>
        <time>2026-06-18T08:45:32.000Z</time>
        <extensions>
          <ns3:TrackPointExtension>
            <ns3:atemp>26.0</ns3:atemp>
          </ns3:TrackPointExtension>
        </extensions>
      </trkpt>
      <trkpt lat="42.52925944514572620391845703125" lon="19.76477771066129207611083984375">
        <ele>1675.4000244140625</ele>
        <time>2026-06-18T08:45:33.000Z</time>
        <extensions>
          <ns3:TrackPointExtension>
            <ns3:atemp>26.0</ns3:atemp>
          </ns3:TrackPointExtension>
        </extensions>
      </trkpt>
      <trkpt lat="42.52925944514572620391845703125" lon="19.76477771066129207611083984375">
        <ele>1675.4000244140625</ele>
        <time>2026-06-18T08:45:34.000Z</time>
        <extensions>
          <ns3:TrackPointExtension>
            <ns3:atemp>26.0</ns3:atemp>
          </ns3:TrackPointExtension>
        </extensions>
      </trkpt>
      <trkpt lat="42.52925944514572620391845703125" lon="19.76477771066129207611083984375">
        <ele>1675.4000244140625</ele>
        <time>2026-06-18T08:45:35.000Z</time>
        <extensions>
          <ns3:TrackPointExtension>
            <ns3:atemp>26.0</ns3:atemp>
          </ns3:TrackPointExtension>
        </extensions>
      </trkpt>
      <trkpt lat="42.52925944514572620391845703125" lon="19.76477771066129207611083984375">
        <ele>1675.4000244140625</ele>
        <time>2026-06-18T08:45:36.000Z</time>
        <extensions>
          <ns3:TrackPointExtension>
            <ns3:atemp>26.0</ns3:atemp>
          </ns3:TrackPointExtension>
        </extensions>
      </trkpt>
      <trkpt lat="42.52925944514572620391845703125" lon="19.76477771066129207611083984375">
        <ele>1675.4000244140625</ele>
        <time>2026-06-18T08:45:37.000Z</time>
        <extensions>
          <ns3:TrackPointExtension>
            <ns3:atemp>26.0</ns3:atemp>
          </ns3:TrackPointExtension>
        </extensions>
      </trkpt>
      <trkpt lat="42.52925944514572620391845703125" lon="19.76477771066129207611083984375">
        <ele>1675.4000244140625</ele>
        <time>2026-06-18T08:45:38.000Z</time>
        <extensions>
          <ns3:TrackPointExtension>
            <ns3:atemp>26.0</ns3:atemp>
          </ns3:TrackPointExtension>
        </extensions>
      </trkpt>
      <trkpt lat="42.52925944514572620391845703125" lon="19.76477771066129207611083984375">
        <ele>1675.4000244140625</ele>
        <time>2026-06-18T08:45:39.000Z</time>
        <extensions>
          <ns3:TrackPointExtension>
            <ns3:atemp>26.0</ns3:atemp>
          </ns3:TrackPointExtension>
        </extensions>
      </trkpt>
      <trkpt lat="42.52925944514572620391845703125" lon="19.76477771066129207611083984375">
        <ele>1675.4000244140625</ele>
        <time>2026-06-18T08:45:40.000Z</time>
        <extensions>
          <ns3:TrackPointExtension>
            <ns3:atemp>26.0</ns3:atemp>
          </ns3:TrackPointExtension>
        </extensions>
      </trkpt>
      <trkpt lat="42.52925944514572620391845703125" lon="19.76477771066129207611083984375">
        <ele>1675.4000244140625</ele>
        <time>2026-06-18T08:45:41.000Z</time>
        <extensions>
          <ns3:TrackPointExtension>
            <ns3:atemp>26.0</ns3:atemp>
          </ns3:TrackPointExtension>
        </extensions>
      </trkpt>
      <trkpt lat="42.52925944514572620391845703125" lon="19.76477771066129207611083984375">
        <ele>1675.4000244140625</ele>
        <time>2026-06-18T08:45:42.000Z</time>
        <extensions>
          <ns3:TrackPointExtension>
            <ns3:atemp>26.0</ns3:atemp>
          </ns3:TrackPointExtension>
        </extensions>
      </trkpt>
      <trkpt lat="42.52925944514572620391845703125" lon="19.76477771066129207611083984375">
        <ele>1675.4000244140625</ele>
        <time>2026-06-18T08:45:43.000Z</time>
        <extensions>
          <ns3:TrackPointExtension>
            <ns3:atemp>26.0</ns3:atemp>
          </ns3:TrackPointExtension>
        </extensions>
      </trkpt>
      <trkpt lat="42.52925944514572620391845703125" lon="19.76477771066129207611083984375">
        <ele>1675.4000244140625</ele>
        <time>2026-06-18T08:45:44.000Z</time>
        <extensions>
          <ns3:TrackPointExtension>
            <ns3:atemp>26.0</ns3:atemp>
          </ns3:TrackPointExtension>
        </extensions>
      </trkpt>
      <trkpt lat="42.52925944514572620391845703125" lon="19.76477771066129207611083984375">
        <ele>1675.4000244140625</ele>
        <time>2026-06-18T08:45:45.000Z</time>
        <extensions>
          <ns3:TrackPointExtension>
            <ns3:atemp>26.0</ns3:atemp>
          </ns3:TrackPointExtension>
        </extensions>
      </trkpt>
      <trkpt lat="42.52925944514572620391845703125" lon="19.76477771066129207611083984375">
        <ele>1675.4000244140625</ele>
        <time>2026-06-18T08:45:46.000Z</time>
        <extensions>
          <ns3:TrackPointExtension>
            <ns3:atemp>26.0</ns3:atemp>
          </ns3:TrackPointExtension>
        </extensions>
      </trkpt>
      <trkpt lat="42.52925944514572620391845703125" lon="19.76477771066129207611083984375">
        <ele>1675.4000244140625</ele>
        <time>2026-06-18T08:45:47.000Z</time>
        <extensions>
          <ns3:TrackPointExtension>
            <ns3:atemp>26.0</ns3:atemp>
          </ns3:TrackPointExtension>
        </extensions>
      </trkpt>
      <trkpt lat="42.52925944514572620391845703125" lon="19.76477771066129207611083984375">
        <ele>1675.4000244140625</ele>
        <time>2026-06-18T08:45:48.000Z</time>
        <extensions>
          <ns3:TrackPointExtension>
            <ns3:atemp>26.0</ns3:atemp>
          </ns3:TrackPointExtension>
        </extensions>
      </trkpt>
      <trkpt lat="42.52925944514572620391845703125" lon="19.76477771066129207611083984375">
        <ele>1675.4000244140625</ele>
        <time>2026-06-18T08:45:49.000Z</time>
        <extensions>
          <ns3:TrackPointExtension>
            <ns3:atemp>26.0</ns3:atemp>
          </ns3:TrackPointExtension>
        </extensions>
      </trkpt>
      <trkpt lat="42.52925944514572620391845703125" lon="19.76477771066129207611083984375">
        <ele>1675.4000244140625</ele>
        <time>2026-06-18T08:45:50.000Z</time>
        <extensions>
          <ns3:TrackPointExtension>
            <ns3:atemp>26.0</ns3:atemp>
          </ns3:TrackPointExtension>
        </extensions>
      </trkpt>
      <trkpt lat="42.52925944514572620391845703125" lon="19.76477771066129207611083984375">
        <ele>1675.4000244140625</ele>
        <time>2026-06-18T08:45:51.000Z</time>
        <extensions>
          <ns3:TrackPointExtension>
            <ns3:atemp>26.0</ns3:atemp>
          </ns3:TrackPointExtension>
        </extensions>
      </trkpt>
      <trkpt lat="42.52925944514572620391845703125" lon="19.76477771066129207611083984375">
        <ele>1675.4000244140625</ele>
        <time>2026-06-18T08:45:52.000Z</time>
        <extensions>
          <ns3:TrackPointExtension>
            <ns3:atemp>26.0</ns3:atemp>
          </ns3:TrackPointExtension>
        </extensions>
      </trkpt>
      <trkpt lat="42.52925944514572620391845703125" lon="19.76477771066129207611083984375">
        <ele>1675.4000244140625</ele>
        <time>2026-06-18T08:45:53.000Z</time>
        <extensions>
          <ns3:TrackPointExtension>
            <ns3:atemp>26.0</ns3:atemp>
          </ns3:TrackPointExtension>
        </extensions>
      </trkpt>
      <trkpt lat="42.52925944514572620391845703125" lon="19.76477771066129207611083984375">
        <ele>1675.4000244140625</ele>
        <time>2026-06-18T08:45:54.000Z</time>
        <extensions>
          <ns3:TrackPointExtension>
            <ns3:atemp>26.0</ns3:atemp>
          </ns3:TrackPointExtension>
        </extensions>
      </trkpt>
      <trkpt lat="42.52925944514572620391845703125" lon="19.76477771066129207611083984375">
        <ele>1675.4000244140625</ele>
        <time>2026-06-18T08:45:55.000Z</time>
        <extensions>
          <ns3:TrackPointExtension>
            <ns3:atemp>26.0</ns3:atemp>
          </ns3:TrackPointExtension>
        </extensions>
      </trkpt>
      <trkpt lat="42.52925944514572620391845703125" lon="19.76477771066129207611083984375">
        <ele>1675.4000244140625</ele>
        <time>2026-06-18T08:45:56.000Z</time>
        <extensions>
          <ns3:TrackPointExtension>
            <ns3:atemp>26.0</ns3:atemp>
          </ns3:TrackPointExtension>
        </extensions>
      </trkpt>
      <trkpt lat="42.52925944514572620391845703125" lon="19.76477771066129207611083984375">
        <ele>1675.4000244140625</ele>
        <time>2026-06-18T08:45:57.000Z</time>
        <extensions>
          <ns3:TrackPointExtension>
            <ns3:atemp>26.0</ns3:atemp>
          </ns3:TrackPointExtension>
        </extensions>
      </trkpt>
      <trkpt lat="42.52925944514572620391845703125" lon="19.76477771066129207611083984375">
        <ele>1675.4000244140625</ele>
        <time>2026-06-18T08:45:58.000Z</time>
        <extensions>
          <ns3:TrackPointExtension>
            <ns3:atemp>26.0</ns3:atemp>
          </ns3:TrackPointExtension>
        </extensions>
      </trkpt>
      <trkpt lat="42.52925944514572620391845703125" lon="19.76477771066129207611083984375">
        <ele>1675.4000244140625</ele>
        <time>2026-06-18T08:45:59.000Z</time>
        <extensions>
          <ns3:TrackPointExtension>
            <ns3:atemp>26.0</ns3:atemp>
          </ns3:TrackPointExtension>
        </extensions>
      </trkpt>
      <trkpt lat="42.52925944514572620391845703125" lon="19.76477771066129207611083984375">
        <ele>1675.4000244140625</ele>
        <time>2026-06-18T08:46:00.000Z</time>
        <extensions>
          <ns3:TrackPointExtension>
            <ns3:atemp>26.0</ns3:atemp>
          </ns3:TrackPointExtension>
        </extensions>
      </trkpt>
      <trkpt lat="42.52925944514572620391845703125" lon="19.76477771066129207611083984375">
        <ele>1675.4000244140625</ele>
        <time>2026-06-18T08:46:01.000Z</time>
        <extensions>
          <ns3:TrackPointExtension>
            <ns3:atemp>26.0</ns3:atemp>
          </ns3:TrackPointExtension>
        </extensions>
      </trkpt>
      <trkpt lat="42.52925944514572620391845703125" lon="19.76477771066129207611083984375">
        <ele>1675.4000244140625</ele>
        <time>2026-06-18T08:46:02.000Z</time>
        <extensions>
          <ns3:TrackPointExtension>
            <ns3:atemp>26.0</ns3:atemp>
          </ns3:TrackPointExtension>
        </extensions>
      </trkpt>
      <trkpt lat="42.52925944514572620391845703125" lon="19.76477771066129207611083984375">
        <ele>1675.4000244140625</ele>
        <time>2026-06-18T08:46:03.000Z</time>
        <extensions>
          <ns3:TrackPointExtension>
            <ns3:atemp>26.0</ns3:atemp>
          </ns3:TrackPointExtension>
        </extensions>
      </trkpt>
      <trkpt lat="42.52925944514572620391845703125" lon="19.76477771066129207611083984375">
        <ele>1675.4000244140625</ele>
        <time>2026-06-18T08:46:04.000Z</time>
        <extensions>
          <ns3:TrackPointExtension>
            <ns3:atemp>26.0</ns3:atemp>
          </ns3:TrackPointExtension>
        </extensions>
      </trkpt>
      <trkpt lat="42.52925944514572620391845703125" lon="19.76477771066129207611083984375">
        <ele>1675.4000244140625</ele>
        <time>2026-06-18T08:46:05.000Z</time>
        <extensions>
          <ns3:TrackPointExtension>
            <ns3:atemp>26.0</ns3:atemp>
          </ns3:TrackPointExtension>
        </extensions>
      </trkpt>
      <trkpt lat="42.52925944514572620391845703125" lon="19.76477771066129207611083984375">
        <ele>1675.4000244140625</ele>
        <time>2026-06-18T08:46:06.000Z</time>
        <extensions>
          <ns3:TrackPointExtension>
            <ns3:atemp>26.0</ns3:atemp>
          </ns3:TrackPointExtension>
        </extensions>
      </trkpt>
      <trkpt lat="42.52925944514572620391845703125" lon="19.76477771066129207611083984375">
        <ele>1675.4000244140625</ele>
        <time>2026-06-18T08:46:07.000Z</time>
        <extensions>
          <ns3:TrackPointExtension>
            <ns3:atemp>26.0</ns3:atemp>
          </ns3:TrackPointExtension>
        </extensions>
      </trkpt>
      <trkpt lat="42.52925944514572620391845703125" lon="19.76477771066129207611083984375">
        <ele>1675.4000244140625</ele>
        <time>2026-06-18T08:46:08.000Z</time>
        <extensions>
          <ns3:TrackPointExtension>
            <ns3:atemp>26.0</ns3:atemp>
          </ns3:TrackPointExtension>
        </extensions>
      </trkpt>
      <trkpt lat="42.52925944514572620391845703125" lon="19.76477771066129207611083984375">
        <ele>1675.4000244140625</ele>
        <time>2026-06-18T08:46:09.000Z</time>
        <extensions>
          <ns3:TrackPointExtension>
            <ns3:atemp>26.0</ns3:atemp>
          </ns3:TrackPointExtension>
        </extensions>
      </trkpt>
      <trkpt lat="42.52925944514572620391845703125" lon="19.76477771066129207611083984375">
        <ele>1675.4000244140625</ele>
        <time>2026-06-18T08:46:10.000Z</time>
        <extensions>
          <ns3:TrackPointExtension>
            <ns3:atemp>26.0</ns3:atemp>
          </ns3:TrackPointExtension>
        </extensions>
      </trkpt>
      <trkpt lat="42.52925944514572620391845703125" lon="19.76477771066129207611083984375">
        <ele>1675.4000244140625</ele>
        <time>2026-06-18T08:46:11.000Z</time>
        <extensions>
          <ns3:TrackPointExtension>
            <ns3:atemp>26.0</ns3:atemp>
          </ns3:TrackPointExtension>
        </extensions>
      </trkpt>
      <trkpt lat="42.52925944514572620391845703125" lon="19.76477771066129207611083984375">
        <ele>1675.4000244140625</ele>
        <time>2026-06-18T08:46:12.000Z</time>
        <extensions>
          <ns3:TrackPointExtension>
            <ns3:atemp>26.0</ns3:atemp>
          </ns3:TrackPointExtension>
        </extensions>
      </trkpt>
      <trkpt lat="42.52925944514572620391845703125" lon="19.76477771066129207611083984375">
        <ele>1675.4000244140625</ele>
        <time>2026-06-18T08:46:13.000Z</time>
        <extensions>
          <ns3:TrackPointExtension>
            <ns3:atemp>26.0</ns3:atemp>
          </ns3:TrackPointExtension>
        </extensions>
      </trkpt>
      <trkpt lat="42.52925944514572620391845703125" lon="19.76477771066129207611083984375">
        <ele>1675.4000244140625</ele>
        <time>2026-06-18T08:46:14.000Z</time>
        <extensions>
          <ns3:TrackPointExtension>
            <ns3:atemp>26.0</ns3:atemp>
          </ns3:TrackPointExtension>
        </extensions>
      </trkpt>
      <trkpt lat="42.52925944514572620391845703125" lon="19.76477771066129207611083984375">
        <ele>1675.4000244140625</ele>
        <time>2026-06-18T08:46:15.000Z</time>
        <extensions>
          <ns3:TrackPointExtension>
            <ns3:atemp>26.0</ns3:atemp>
          </ns3:TrackPointExtension>
        </extensions>
      </trkpt>
      <trkpt lat="42.52925944514572620391845703125" lon="19.76477771066129207611083984375">
        <ele>1675.4000244140625</ele>
        <time>2026-06-18T08:46:16.000Z</time>
        <extensions>
          <ns3:TrackPointExtension>
            <ns3:atemp>26.0</ns3:atemp>
          </ns3:TrackPointExtension>
        </extensions>
      </trkpt>
      <trkpt lat="42.52925944514572620391845703125" lon="19.76477771066129207611083984375">
        <ele>1675.4000244140625</ele>
        <time>2026-06-18T08:46:17.000Z</time>
        <extensions>
          <ns3:TrackPointExtension>
            <ns3:atemp>26.0</ns3:atemp>
          </ns3:TrackPointExtension>
        </extensions>
      </trkpt>
      <trkpt lat="42.52925944514572620391845703125" lon="19.76477771066129207611083984375">
        <ele>1675.4000244140625</ele>
        <time>2026-06-18T08:46:18.000Z</time>
        <extensions>
          <ns3:TrackPointExtension>
            <ns3:atemp>26.0</ns3:atemp>
          </ns3:TrackPointExtension>
        </extensions>
      </trkpt>
      <trkpt lat="42.52925944514572620391845703125" lon="19.76477771066129207611083984375">
        <ele>1675.4000244140625</ele>
        <time>2026-06-18T08:46:19.000Z</time>
        <extensions>
          <ns3:TrackPointExtension>
            <ns3:atemp>26.0</ns3:atemp>
          </ns3:TrackPointExtension>
        </extensions>
      </trkpt>
      <trkpt lat="42.52925944514572620391845703125" lon="19.76477771066129207611083984375">
        <ele>1675.4000244140625</ele>
        <time>2026-06-18T08:46:20.000Z</time>
        <extensions>
          <ns3:TrackPointExtension>
            <ns3:atemp>26.0</ns3:atemp>
          </ns3:TrackPointExtension>
        </extensions>
      </trkpt>
      <trkpt lat="42.52925944514572620391845703125" lon="19.76477771066129207611083984375">
        <ele>1675.4000244140625</ele>
        <time>2026-06-18T08:46:21.000Z</time>
        <extensions>
          <ns3:TrackPointExtension>
            <ns3:atemp>26.0</ns3:atemp>
          </ns3:TrackPointExtension>
        </extensions>
      </trkpt>
      <trkpt lat="42.52925944514572620391845703125" lon="19.76477771066129207611083984375">
        <ele>1675.4000244140625</ele>
        <time>2026-06-18T08:46:22.000Z</time>
        <extensions>
          <ns3:TrackPointExtension>
            <ns3:atemp>26.0</ns3:atemp>
          </ns3:TrackPointExtension>
        </extensions>
      </trkpt>
      <trkpt lat="42.52925944514572620391845703125" lon="19.76477771066129207611083984375">
        <ele>1675.4000244140625</ele>
        <time>2026-06-18T08:46:23.000Z</time>
        <extensions>
          <ns3:TrackPointExtension>
            <ns3:atemp>26.0</ns3:atemp>
          </ns3:TrackPointExtension>
        </extensions>
      </trkpt>
      <trkpt lat="42.52925944514572620391845703125" lon="19.76477771066129207611083984375">
        <ele>1675.4000244140625</ele>
        <time>2026-06-18T08:46:24.000Z</time>
        <extensions>
          <ns3:TrackPointExtension>
            <ns3:atemp>26.0</ns3:atemp>
          </ns3:TrackPointExtension>
        </extensions>
      </trkpt>
      <trkpt lat="42.52925944514572620391845703125" lon="19.76477771066129207611083984375">
        <ele>1675.4000244140625</ele>
        <time>2026-06-18T08:46:25.000Z</time>
        <extensions>
          <ns3:TrackPointExtension>
            <ns3:atemp>26.0</ns3:atemp>
          </ns3:TrackPointExtension>
        </extensions>
      </trkpt>
      <trkpt lat="42.52925944514572620391845703125" lon="19.76477771066129207611083984375">
        <ele>1675.4000244140625</ele>
        <time>2026-06-18T08:46:26.000Z</time>
        <extensions>
          <ns3:TrackPointExtension>
            <ns3:atemp>26.0</ns3:atemp>
          </ns3:TrackPointExtension>
        </extensions>
      </trkpt>
      <trkpt lat="42.52925944514572620391845703125" lon="19.76477771066129207611083984375">
        <ele>1675.4000244140625</ele>
        <time>2026-06-18T08:46:27.000Z</time>
        <extensions>
          <ns3:TrackPointExtension>
            <ns3:atemp>26.0</ns3:atemp>
          </ns3:TrackPointExtension>
        </extensions>
      </trkpt>
      <trkpt lat="42.52925944514572620391845703125" lon="19.76477771066129207611083984375">
        <ele>1675.4000244140625</ele>
        <time>2026-06-18T08:46:28.000Z</time>
        <extensions>
          <ns3:TrackPointExtension>
            <ns3:atemp>26.0</ns3:atemp>
          </ns3:TrackPointExtension>
        </extensions>
      </trkpt>
      <trkpt lat="42.52925944514572620391845703125" lon="19.76477771066129207611083984375">
        <ele>1675.4000244140625</ele>
        <time>2026-06-18T08:46:29.000Z</time>
        <extensions>
          <ns3:TrackPointExtension>
            <ns3:atemp>26.0</ns3:atemp>
          </ns3:TrackPointExtension>
        </extensions>
      </trkpt>
      <trkpt lat="42.52925944514572620391845703125" lon="19.76477771066129207611083984375">
        <ele>1675.4000244140625</ele>
        <time>2026-06-18T08:46:30.000Z</time>
        <extensions>
          <ns3:TrackPointExtension>
            <ns3:atemp>26.0</ns3:atemp>
          </ns3:TrackPointExtension>
        </extensions>
      </trkpt>
      <trkpt lat="42.52925944514572620391845703125" lon="19.76477771066129207611083984375">
        <ele>1675.4000244140625</ele>
        <time>2026-06-18T08:46:31.000Z</time>
        <extensions>
          <ns3:TrackPointExtension>
            <ns3:atemp>26.0</ns3:atemp>
          </ns3:TrackPointExtension>
        </extensions>
      </trkpt>
      <trkpt lat="42.52925944514572620391845703125" lon="19.76477771066129207611083984375">
        <ele>1675.4000244140625</ele>
        <time>2026-06-18T08:46:32.000Z</time>
        <extensions>
          <ns3:TrackPointExtension>
            <ns3:atemp>26.0</ns3:atemp>
          </ns3:TrackPointExtension>
        </extensions>
      </trkpt>
      <trkpt lat="42.52925944514572620391845703125" lon="19.76477771066129207611083984375">
        <ele>1675.4000244140625</ele>
        <time>2026-06-18T08:46:33.000Z</time>
        <extensions>
          <ns3:TrackPointExtension>
            <ns3:atemp>26.0</ns3:atemp>
          </ns3:TrackPointExtension>
        </extensions>
      </trkpt>
      <trkpt lat="42.52925944514572620391845703125" lon="19.76477771066129207611083984375">
        <ele>1675.4000244140625</ele>
        <time>2026-06-18T08:46:34.000Z</time>
        <extensions>
          <ns3:TrackPointExtension>
            <ns3:atemp>26.0</ns3:atemp>
          </ns3:TrackPointExtension>
        </extensions>
      </trkpt>
      <trkpt lat="42.52925944514572620391845703125" lon="19.76477771066129207611083984375">
        <ele>1675.4000244140625</ele>
        <time>2026-06-18T08:46:35.000Z</time>
        <extensions>
          <ns3:TrackPointExtension>
            <ns3:atemp>26.0</ns3:atemp>
          </ns3:TrackPointExtension>
        </extensions>
      </trkpt>
      <trkpt lat="42.52925944514572620391845703125" lon="19.76477771066129207611083984375">
        <ele>1675.4000244140625</ele>
        <time>2026-06-18T08:46:36.000Z</time>
        <extensions>
          <ns3:TrackPointExtension>
            <ns3:atemp>26.0</ns3:atemp>
          </ns3:TrackPointExtension>
        </extensions>
      </trkpt>
      <trkpt lat="42.52925944514572620391845703125" lon="19.76477771066129207611083984375">
        <ele>1675.4000244140625</ele>
        <time>2026-06-18T08:46:37.000Z</time>
        <extensions>
          <ns3:TrackPointExtension>
            <ns3:atemp>26.0</ns3:atemp>
          </ns3:TrackPointExtension>
        </extensions>
      </trkpt>
      <trkpt lat="42.52925944514572620391845703125" lon="19.76477771066129207611083984375">
        <ele>1675.4000244140625</ele>
        <time>2026-06-18T08:46:38.000Z</time>
        <extensions>
          <ns3:TrackPointExtension>
            <ns3:atemp>26.0</ns3:atemp>
          </ns3:TrackPointExtension>
        </extensions>
      </trkpt>
      <trkpt lat="42.52925944514572620391845703125" lon="19.76477771066129207611083984375">
        <ele>1675.4000244140625</ele>
        <time>2026-06-18T08:46:39.000Z</time>
        <extensions>
          <ns3:TrackPointExtension>
            <ns3:atemp>26.0</ns3:atemp>
          </ns3:TrackPointExtension>
        </extensions>
      </trkpt>
      <trkpt lat="42.52925944514572620391845703125" lon="19.76477771066129207611083984375">
        <ele>1675.4000244140625</ele>
        <time>2026-06-18T08:46:40.000Z</time>
        <extensions>
          <ns3:TrackPointExtension>
            <ns3:atemp>26.0</ns3:atemp>
          </ns3:TrackPointExtension>
        </extensions>
      </trkpt>
      <trkpt lat="42.52925944514572620391845703125" lon="19.76477771066129207611083984375">
        <ele>1675.4000244140625</ele>
        <time>2026-06-18T08:46:41.000Z</time>
        <extensions>
          <ns3:TrackPointExtension>
            <ns3:atemp>26.0</ns3:atemp>
          </ns3:TrackPointExtension>
        </extensions>
      </trkpt>
      <trkpt lat="42.52925944514572620391845703125" lon="19.76477771066129207611083984375">
        <ele>1675.4000244140625</ele>
        <time>2026-06-18T08:46:42.000Z</time>
        <extensions>
          <ns3:TrackPointExtension>
            <ns3:atemp>26.0</ns3:atemp>
          </ns3:TrackPointExtension>
        </extensions>
      </trkpt>
      <trkpt lat="42.52925944514572620391845703125" lon="19.76477771066129207611083984375">
        <ele>1675.4000244140625</ele>
        <time>2026-06-18T08:46:43.000Z</time>
        <extensions>
          <ns3:TrackPointExtension>
            <ns3:atemp>26.0</ns3:atemp>
          </ns3:TrackPointExtension>
        </extensions>
      </trkpt>
      <trkpt lat="42.52925944514572620391845703125" lon="19.76477771066129207611083984375">
        <ele>1675.4000244140625</ele>
        <time>2026-06-18T08:46:44.000Z</time>
        <extensions>
          <ns3:TrackPointExtension>
            <ns3:atemp>26.0</ns3:atemp>
          </ns3:TrackPointExtension>
        </extensions>
      </trkpt>
      <trkpt lat="42.52925944514572620391845703125" lon="19.76477771066129207611083984375">
        <ele>1675.4000244140625</ele>
        <time>2026-06-18T08:46:45.000Z</time>
        <extensions>
          <ns3:TrackPointExtension>
            <ns3:atemp>26.0</ns3:atemp>
          </ns3:TrackPointExtension>
        </extensions>
      </trkpt>
      <trkpt lat="42.52925944514572620391845703125" lon="19.76477771066129207611083984375">
        <ele>1675.4000244140625</ele>
        <time>2026-06-18T08:46:46.000Z</time>
        <extensions>
          <ns3:TrackPointExtension>
            <ns3:atemp>26.0</ns3:atemp>
          </ns3:TrackPointExtension>
        </extensions>
      </trkpt>
      <trkpt lat="42.52925944514572620391845703125" lon="19.76477771066129207611083984375">
        <ele>1675.4000244140625</ele>
        <time>2026-06-18T08:46:47.000Z</time>
        <extensions>
          <ns3:TrackPointExtension>
            <ns3:atemp>26.0</ns3:atemp>
          </ns3:TrackPointExtension>
        </extensions>
      </trkpt>
      <trkpt lat="42.52925944514572620391845703125" lon="19.76477771066129207611083984375">
        <ele>1675.4000244140625</ele>
        <time>2026-06-18T08:46:48.000Z</time>
        <extensions>
          <ns3:TrackPointExtension>
            <ns3:atemp>26.0</ns3:atemp>
          </ns3:TrackPointExtension>
        </extensions>
      </trkpt>
      <trkpt lat="42.52925944514572620391845703125" lon="19.76477771066129207611083984375">
        <ele>1675.4000244140625</ele>
        <time>2026-06-18T08:46:49.000Z</time>
        <extensions>
          <ns3:TrackPointExtension>
            <ns3:atemp>26.0</ns3:atemp>
          </ns3:TrackPointExtension>
        </extensions>
      </trkpt>
      <trkpt lat="42.52925944514572620391845703125" lon="19.76477771066129207611083984375">
        <ele>1675.4000244140625</ele>
        <time>2026-06-18T08:46:50.000Z</time>
        <extensions>
          <ns3:TrackPointExtension>
            <ns3:atemp>26.0</ns3:atemp>
          </ns3:TrackPointExtension>
        </extensions>
      </trkpt>
      <trkpt lat="42.52925944514572620391845703125" lon="19.76477771066129207611083984375">
        <ele>1675.4000244140625</ele>
        <time>2026-06-18T08:46:51.000Z</time>
        <extensions>
          <ns3:TrackPointExtension>
            <ns3:atemp>26.0</ns3:atemp>
          </ns3:TrackPointExtension>
        </extensions>
      </trkpt>
      <trkpt lat="42.52925944514572620391845703125" lon="19.76477771066129207611083984375">
        <ele>1675.4000244140625</ele>
        <time>2026-06-18T08:46:52.000Z</time>
        <extensions>
          <ns3:TrackPointExtension>
            <ns3:atemp>26.0</ns3:atemp>
          </ns3:TrackPointExtension>
        </extensions>
      </trkpt>
      <trkpt lat="42.52925944514572620391845703125" lon="19.76477771066129207611083984375">
        <ele>1675.4000244140625</ele>
        <time>2026-06-18T08:46:53.000Z</time>
        <extensions>
          <ns3:TrackPointExtension>
            <ns3:atemp>26.0</ns3:atemp>
          </ns3:TrackPointExtension>
        </extensions>
      </trkpt>
      <trkpt lat="42.52925944514572620391845703125" lon="19.76477771066129207611083984375">
        <ele>1675.4000244140625</ele>
        <time>2026-06-18T08:46:54.000Z</time>
        <extensions>
          <ns3:TrackPointExtension>
            <ns3:atemp>26.0</ns3:atemp>
          </ns3:TrackPointExtension>
        </extensions>
      </trkpt>
      <trkpt lat="42.52925944514572620391845703125" lon="19.76477771066129207611083984375">
        <ele>1675.4000244140625</ele>
        <time>2026-06-18T08:46:55.000Z</time>
        <extensions>
          <ns3:TrackPointExtension>
            <ns3:atemp>26.0</ns3:atemp>
          </ns3:TrackPointExtension>
        </extensions>
      </trkpt>
      <trkpt lat="42.52925944514572620391845703125" lon="19.76477771066129207611083984375">
        <ele>1675.4000244140625</ele>
        <time>2026-06-18T08:46:56.000Z</time>
        <extensions>
          <ns3:TrackPointExtension>
            <ns3:atemp>26.0</ns3:atemp>
          </ns3:TrackPointExtension>
        </extensions>
      </trkpt>
      <trkpt lat="42.52925944514572620391845703125" lon="19.76477771066129207611083984375">
        <ele>1675.4000244140625</ele>
        <time>2026-06-18T08:46:57.000Z</time>
        <extensions>
          <ns3:TrackPointExtension>
            <ns3:atemp>26.0</ns3:atemp>
          </ns3:TrackPointExtension>
        </extensions>
      </trkpt>
      <trkpt lat="42.52925944514572620391845703125" lon="19.76477771066129207611083984375">
        <ele>1675.4000244140625</ele>
        <time>2026-06-18T08:46:58.000Z</time>
        <extensions>
          <ns3:TrackPointExtension>
            <ns3:atemp>26.0</ns3:atemp>
          </ns3:TrackPointExtension>
        </extensions>
      </trkpt>
      <trkpt lat="42.52925944514572620391845703125" lon="19.76477771066129207611083984375">
        <ele>1675.4000244140625</ele>
        <time>2026-06-18T08:46:59.000Z</time>
        <extensions>
          <ns3:TrackPointExtension>
            <ns3:atemp>26.0</ns3:atemp>
          </ns3:TrackPointExtension>
        </extensions>
      </trkpt>
      <trkpt lat="42.52925944514572620391845703125" lon="19.76477771066129207611083984375">
        <ele>1675.4000244140625</ele>
        <time>2026-06-18T08:47:00.000Z</time>
        <extensions>
          <ns3:TrackPointExtension>
            <ns3:atemp>26.0</ns3:atemp>
          </ns3:TrackPointExtension>
        </extensions>
      </trkpt>
      <trkpt lat="42.52925944514572620391845703125" lon="19.76477771066129207611083984375">
        <ele>1675.4000244140625</ele>
        <time>2026-06-18T08:47:01.000Z</time>
        <extensions>
          <ns3:TrackPointExtension>
            <ns3:atemp>26.0</ns3:atemp>
          </ns3:TrackPointExtension>
        </extensions>
      </trkpt>
      <trkpt lat="42.52925944514572620391845703125" lon="19.76477771066129207611083984375">
        <ele>1675.4000244140625</ele>
        <time>2026-06-18T08:47:02.000Z</time>
        <extensions>
          <ns3:TrackPointExtension>
            <ns3:atemp>26.0</ns3:atemp>
          </ns3:TrackPointExtension>
        </extensions>
      </trkpt>
      <trkpt lat="42.52925944514572620391845703125" lon="19.76477771066129207611083984375">
        <ele>1675.4000244140625</ele>
        <time>2026-06-18T08:47:03.000Z</time>
        <extensions>
          <ns3:TrackPointExtension>
            <ns3:atemp>26.0</ns3:atemp>
          </ns3:TrackPointExtension>
        </extensions>
      </trkpt>
      <trkpt lat="42.52925944514572620391845703125" lon="19.76477771066129207611083984375">
        <ele>1675.4000244140625</ele>
        <time>2026-06-18T08:47:04.000Z</time>
        <extensions>
          <ns3:TrackPointExtension>
            <ns3:atemp>26.0</ns3:atemp>
          </ns3:TrackPointExtension>
        </extensions>
      </trkpt>
      <trkpt lat="42.52925944514572620391845703125" lon="19.76477771066129207611083984375">
        <ele>1675.4000244140625</ele>
        <time>2026-06-18T08:47:05.000Z</time>
        <extensions>
          <ns3:TrackPointExtension>
            <ns3:atemp>26.0</ns3:atemp>
          </ns3:TrackPointExtension>
        </extensions>
      </trkpt>
      <trkpt lat="42.52925944514572620391845703125" lon="19.76477771066129207611083984375">
        <ele>1675.4000244140625</ele>
        <time>2026-06-18T08:47:06.000Z</time>
        <extensions>
          <ns3:TrackPointExtension>
            <ns3:atemp>26.0</ns3:atemp>
          </ns3:TrackPointExtension>
        </extensions>
      </trkpt>
      <trkpt lat="42.52925944514572620391845703125" lon="19.76477771066129207611083984375">
        <ele>1675.4000244140625</ele>
        <time>2026-06-18T08:47:07.000Z</time>
        <extensions>
          <ns3:TrackPointExtension>
            <ns3:atemp>26.0</ns3:atemp>
          </ns3:TrackPointExtension>
        </extensions>
      </trkpt>
      <trkpt lat="42.52925944514572620391845703125" lon="19.76477771066129207611083984375">
        <ele>1675.4000244140625</ele>
        <time>2026-06-18T08:47:08.000Z</time>
        <extensions>
          <ns3:TrackPointExtension>
            <ns3:atemp>26.0</ns3:atemp>
          </ns3:TrackPointExtension>
        </extensions>
      </trkpt>
      <trkpt lat="42.52925944514572620391845703125" lon="19.76477771066129207611083984375">
        <ele>1675.4000244140625</ele>
        <time>2026-06-18T08:47:09.000Z</time>
        <extensions>
          <ns3:TrackPointExtension>
            <ns3:atemp>26.0</ns3:atemp>
          </ns3:TrackPointExtension>
        </extensions>
      </trkpt>
      <trkpt lat="42.52925944514572620391845703125" lon="19.76477771066129207611083984375">
        <ele>1675.4000244140625</ele>
        <time>2026-06-18T08:47:10.000Z</time>
        <extensions>
          <ns3:TrackPointExtension>
            <ns3:atemp>26.0</ns3:atemp>
          </ns3:TrackPointExtension>
        </extensions>
      </trkpt>
      <trkpt lat="42.52925944514572620391845703125" lon="19.76477771066129207611083984375">
        <ele>1675.4000244140625</ele>
        <time>2026-06-18T08:47:11.000Z</time>
        <extensions>
          <ns3:TrackPointExtension>
            <ns3:atemp>26.0</ns3:atemp>
          </ns3:TrackPointExtension>
        </extensions>
      </trkpt>
      <trkpt lat="42.52925944514572620391845703125" lon="19.76477771066129207611083984375">
        <ele>1675.4000244140625</ele>
        <time>2026-06-18T08:47:12.000Z</time>
        <extensions>
          <ns3:TrackPointExtension>
            <ns3:atemp>26.0</ns3:atemp>
          </ns3:TrackPointExtension>
        </extensions>
      </trkpt>
      <trkpt lat="42.52925944514572620391845703125" lon="19.76477771066129207611083984375">
        <ele>1675.4000244140625</ele>
        <time>2026-06-18T08:47:13.000Z</time>
        <extensions>
          <ns3:TrackPointExtension>
            <ns3:atemp>26.0</ns3:atemp>
          </ns3:TrackPointExtension>
        </extensions>
      </trkpt>
      <trkpt lat="42.52925944514572620391845703125" lon="19.76477771066129207611083984375">
        <ele>1675.4000244140625</ele>
        <time>2026-06-18T08:47:14.000Z</time>
        <extensions>
          <ns3:TrackPointExtension>
            <ns3:atemp>26.0</ns3:atemp>
          </ns3:TrackPointExtension>
        </extensions>
      </trkpt>
      <trkpt lat="42.52925944514572620391845703125" lon="19.76477771066129207611083984375">
        <ele>1675.4000244140625</ele>
        <time>2026-06-18T08:47:15.000Z</time>
        <extensions>
          <ns3:TrackPointExtension>
            <ns3:atemp>26.0</ns3:atemp>
          </ns3:TrackPointExtension>
        </extensions>
      </trkpt>
      <trkpt lat="42.52925944514572620391845703125" lon="19.76477771066129207611083984375">
        <ele>1675.4000244140625</ele>
        <time>2026-06-18T08:47:16.000Z</time>
        <extensions>
          <ns3:TrackPointExtension>
            <ns3:atemp>26.0</ns3:atemp>
          </ns3:TrackPointExtension>
        </extensions>
      </trkpt>
      <trkpt lat="42.52925944514572620391845703125" lon="19.76477771066129207611083984375">
        <ele>1675.4000244140625</ele>
        <time>2026-06-18T08:47:17.000Z</time>
        <extensions>
          <ns3:TrackPointExtension>
            <ns3:atemp>26.0</ns3:atemp>
          </ns3:TrackPointExtension>
        </extensions>
      </trkpt>
      <trkpt lat="42.52925944514572620391845703125" lon="19.76477771066129207611083984375">
        <ele>1675.4000244140625</ele>
        <time>2026-06-18T08:47:18.000Z</time>
        <extensions>
          <ns3:TrackPointExtension>
            <ns3:atemp>26.0</ns3:atemp>
          </ns3:TrackPointExtension>
        </extensions>
      </trkpt>
      <trkpt lat="42.52925944514572620391845703125" lon="19.76477771066129207611083984375">
        <ele>1675.4000244140625</ele>
        <time>2026-06-18T08:47:19.000Z</time>
        <extensions>
          <ns3:TrackPointExtension>
            <ns3:atemp>26.0</ns3:atemp>
          </ns3:TrackPointExtension>
        </extensions>
      </trkpt>
      <trkpt lat="42.52925944514572620391845703125" lon="19.76477771066129207611083984375">
        <ele>1675.4000244140625</ele>
        <time>2026-06-18T08:47:20.000Z</time>
        <extensions>
          <ns3:TrackPointExtension>
            <ns3:atemp>26.0</ns3:atemp>
          </ns3:TrackPointExtension>
        </extensions>
      </trkpt>
      <trkpt lat="42.52925944514572620391845703125" lon="19.76477771066129207611083984375">
        <ele>1675.4000244140625</ele>
        <time>2026-06-18T08:47:21.000Z</time>
        <extensions>
          <ns3:TrackPointExtension>
            <ns3:atemp>26.0</ns3:atemp>
          </ns3:TrackPointExtension>
        </extensions>
      </trkpt>
      <trkpt lat="42.52925944514572620391845703125" lon="19.76477771066129207611083984375">
        <ele>1675.4000244140625</ele>
        <time>2026-06-18T08:47:22.000Z</time>
        <extensions>
          <ns3:TrackPointExtension>
            <ns3:atemp>26.0</ns3:atemp>
          </ns3:TrackPointExtension>
        </extensions>
      </trkpt>
      <trkpt lat="42.52925944514572620391845703125" lon="19.76477771066129207611083984375">
        <ele>1675.4000244140625</ele>
        <time>2026-06-18T08:47:23.000Z</time>
        <extensions>
          <ns3:TrackPointExtension>
            <ns3:atemp>26.0</ns3:atemp>
          </ns3:TrackPointExtension>
        </extensions>
      </trkpt>
      <trkpt lat="42.52925944514572620391845703125" lon="19.76477771066129207611083984375">
        <ele>1675.4000244140625</ele>
        <time>2026-06-18T08:47:24.000Z</time>
        <extensions>
          <ns3:TrackPointExtension>
            <ns3:atemp>26.0</ns3:atemp>
          </ns3:TrackPointExtension>
        </extensions>
      </trkpt>
      <trkpt lat="42.52925944514572620391845703125" lon="19.76477771066129207611083984375">
        <ele>1675.4000244140625</ele>
        <time>2026-06-18T08:47:25.000Z</time>
        <extensions>
          <ns3:TrackPointExtension>
            <ns3:atemp>26.0</ns3:atemp>
          </ns3:TrackPointExtension>
        </extensions>
      </trkpt>
      <trkpt lat="42.52925944514572620391845703125" lon="19.76477771066129207611083984375">
        <ele>1675.4000244140625</ele>
        <time>2026-06-18T08:47:26.000Z</time>
        <extensions>
          <ns3:TrackPointExtension>
            <ns3:atemp>26.0</ns3:atemp>
          </ns3:TrackPointExtension>
        </extensions>
      </trkpt>
      <trkpt lat="42.52925944514572620391845703125" lon="19.76477771066129207611083984375">
        <ele>1675.4000244140625</ele>
        <time>2026-06-18T08:47:27.000Z</time>
        <extensions>
          <ns3:TrackPointExtension>
            <ns3:atemp>26.0</ns3:atemp>
          </ns3:TrackPointExtension>
        </extensions>
      </trkpt>
      <trkpt lat="42.52925944514572620391845703125" lon="19.76477771066129207611083984375">
        <ele>1675.4000244140625</ele>
        <time>2026-06-18T08:47:28.000Z</time>
        <extensions>
          <ns3:TrackPointExtension>
            <ns3:atemp>26.0</ns3:atemp>
          </ns3:TrackPointExtension>
        </extensions>
      </trkpt>
      <trkpt lat="42.52925944514572620391845703125" lon="19.76477771066129207611083984375">
        <ele>1675.4000244140625</ele>
        <time>2026-06-18T08:47:29.000Z</time>
        <extensions>
          <ns3:TrackPointExtension>
            <ns3:atemp>26.0</ns3:atemp>
          </ns3:TrackPointExtension>
        </extensions>
      </trkpt>
      <trkpt lat="42.52925944514572620391845703125" lon="19.76477771066129207611083984375">
        <ele>1675.4000244140625</ele>
        <time>2026-06-18T08:47:30.000Z</time>
        <extensions>
          <ns3:TrackPointExtension>
            <ns3:atemp>26.0</ns3:atemp>
          </ns3:TrackPointExtension>
        </extensions>
      </trkpt>
      <trkpt lat="42.52925944514572620391845703125" lon="19.76477771066129207611083984375">
        <ele>1675.4000244140625</ele>
        <time>2026-06-18T08:47:31.000Z</time>
        <extensions>
          <ns3:TrackPointExtension>
            <ns3:atemp>26.0</ns3:atemp>
          </ns3:TrackPointExtension>
        </extensions>
      </trkpt>
      <trkpt lat="42.52925944514572620391845703125" lon="19.76477771066129207611083984375">
        <ele>1675.4000244140625</ele>
        <time>2026-06-18T08:47:32.000Z</time>
        <extensions>
          <ns3:TrackPointExtension>
            <ns3:atemp>26.0</ns3:atemp>
          </ns3:TrackPointExtension>
        </extensions>
      </trkpt>
      <trkpt lat="42.52925944514572620391845703125" lon="19.76477771066129207611083984375">
        <ele>1675.4000244140625</ele>
        <time>2026-06-18T08:47:33.000Z</time>
        <extensions>
          <ns3:TrackPointExtension>
            <ns3:atemp>26.0</ns3:atemp>
          </ns3:TrackPointExtension>
        </extensions>
      </trkpt>
      <trkpt lat="42.52925944514572620391845703125" lon="19.76477771066129207611083984375">
        <ele>1675.4000244140625</ele>
        <time>2026-06-18T08:47:34.000Z</time>
        <extensions>
          <ns3:TrackPointExtension>
            <ns3:atemp>26.0</ns3:atemp>
          </ns3:TrackPointExtension>
        </extensions>
      </trkpt>
      <trkpt lat="42.52925944514572620391845703125" lon="19.76477771066129207611083984375">
        <ele>1675.4000244140625</ele>
        <time>2026-06-18T08:47:35.000Z</time>
        <extensions>
          <ns3:TrackPointExtension>
            <ns3:atemp>26.0</ns3:atemp>
          </ns3:TrackPointExtension>
        </extensions>
      </trkpt>
      <trkpt lat="42.52925944514572620391845703125" lon="19.76477771066129207611083984375">
        <ele>1675.4000244140625</ele>
        <time>2026-06-18T08:47:36.000Z</time>
        <extensions>
          <ns3:TrackPointExtension>
            <ns3:atemp>26.0</ns3:atemp>
          </ns3:TrackPointExtension>
        </extensions>
      </trkpt>
      <trkpt lat="42.52925944514572620391845703125" lon="19.76477771066129207611083984375">
        <ele>1675.4000244140625</ele>
        <time>2026-06-18T08:47:37.000Z</time>
        <extensions>
          <ns3:TrackPointExtension>
            <ns3:atemp>26.0</ns3:atemp>
          </ns3:TrackPointExtension>
        </extensions>
      </trkpt>
      <trkpt lat="42.52925944514572620391845703125" lon="19.76477771066129207611083984375">
        <ele>1675.4000244140625</ele>
        <time>2026-06-18T08:47:38.000Z</time>
        <extensions>
          <ns3:TrackPointExtension>
            <ns3:atemp>26.0</ns3:atemp>
          </ns3:TrackPointExtension>
        </extensions>
      </trkpt>
      <trkpt lat="42.52925944514572620391845703125" lon="19.76477771066129207611083984375">
        <ele>1675.4000244140625</ele>
        <time>2026-06-18T08:47:39.000Z</time>
        <extensions>
          <ns3:TrackPointExtension>
            <ns3:atemp>26.0</ns3:atemp>
          </ns3:TrackPointExtension>
        </extensions>
      </trkpt>
      <trkpt lat="42.52925944514572620391845703125" lon="19.76477771066129207611083984375">
        <ele>1675.4000244140625</ele>
        <time>2026-06-18T08:47:40.000Z</time>
        <extensions>
          <ns3:TrackPointExtension>
            <ns3:atemp>26.0</ns3:atemp>
          </ns3:TrackPointExtension>
        </extensions>
      </trkpt>
      <trkpt lat="42.52925944514572620391845703125" lon="19.76477771066129207611083984375">
        <ele>1675.4000244140625</ele>
        <time>2026-06-18T08:47:41.000Z</time>
        <extensions>
          <ns3:TrackPointExtension>
            <ns3:atemp>26.0</ns3:atemp>
          </ns3:TrackPointExtension>
        </extensions>
      </trkpt>
      <trkpt lat="42.52925944514572620391845703125" lon="19.76477771066129207611083984375">
        <ele>1675.4000244140625</ele>
        <time>2026-06-18T08:47:42.000Z</time>
        <extensions>
          <ns3:TrackPointExtension>
            <ns3:atemp>26.0</ns3:atemp>
          </ns3:TrackPointExtension>
        </extensions>
      </trkpt>
      <trkpt lat="42.52925944514572620391845703125" lon="19.76477771066129207611083984375">
        <ele>1675.4000244140625</ele>
        <time>2026-06-18T08:47:43.000Z</time>
        <extensions>
          <ns3:TrackPointExtension>
            <ns3:atemp>26.0</ns3:atemp>
          </ns3:TrackPointExtension>
        </extensions>
      </trkpt>
      <trkpt lat="42.52925944514572620391845703125" lon="19.76477771066129207611083984375">
        <ele>1675.4000244140625</ele>
        <time>2026-06-18T08:47:44.000Z</time>
        <extensions>
          <ns3:TrackPointExtension>
            <ns3:atemp>26.0</ns3:atemp>
          </ns3:TrackPointExtension>
        </extensions>
      </trkpt>
      <trkpt lat="42.52925944514572620391845703125" lon="19.76477771066129207611083984375">
        <ele>1675.4000244140625</ele>
        <time>2026-06-18T08:47:45.000Z</time>
        <extensions>
          <ns3:TrackPointExtension>
            <ns3:atemp>26.0</ns3:atemp>
          </ns3:TrackPointExtension>
        </extensions>
      </trkpt>
      <trkpt lat="42.52925944514572620391845703125" lon="19.76477771066129207611083984375">
        <ele>1675.4000244140625</ele>
        <time>2026-06-18T08:47:46.000Z</time>
        <extensions>
          <ns3:TrackPointExtension>
            <ns3:atemp>26.0</ns3:atemp>
          </ns3:TrackPointExtension>
        </extensions>
      </trkpt>
      <trkpt lat="42.52925944514572620391845703125" lon="19.76477771066129207611083984375">
        <ele>1675.4000244140625</ele>
        <time>2026-06-18T08:47:47.000Z</time>
        <extensions>
          <ns3:TrackPointExtension>
            <ns3:atemp>26.0</ns3:atemp>
          </ns3:TrackPointExtension>
        </extensions>
      </trkpt>
      <trkpt lat="42.52925944514572620391845703125" lon="19.76477771066129207611083984375">
        <ele>1675.4000244140625</ele>
        <time>2026-06-18T08:47:48.000Z</time>
        <extensions>
          <ns3:TrackPointExtension>
            <ns3:atemp>26.0</ns3:atemp>
          </ns3:TrackPointExtension>
        </extensions>
      </trkpt>
      <trkpt lat="42.52925944514572620391845703125" lon="19.76477771066129207611083984375">
        <ele>1675.4000244140625</ele>
        <time>2026-06-18T08:47:49.000Z</time>
        <extensions>
          <ns3:TrackPointExtension>
            <ns3:atemp>26.0</ns3:atemp>
          </ns3:TrackPointExtension>
        </extensions>
      </trkpt>
      <trkpt lat="42.52925944514572620391845703125" lon="19.76477771066129207611083984375">
        <ele>1675.4000244140625</ele>
        <time>2026-06-18T08:47:50.000Z</time>
        <extensions>
          <ns3:TrackPointExtension>
            <ns3:atemp>26.0</ns3:atemp>
          </ns3:TrackPointExtension>
        </extensions>
      </trkpt>
      <trkpt lat="42.52925944514572620391845703125" lon="19.76477771066129207611083984375">
        <ele>1675.4000244140625</ele>
        <time>2026-06-18T08:47:51.000Z</time>
        <extensions>
          <ns3:TrackPointExtension>
            <ns3:atemp>26.0</ns3:atemp>
          </ns3:TrackPointExtension>
        </extensions>
      </trkpt>
      <trkpt lat="42.52925944514572620391845703125" lon="19.76477771066129207611083984375">
        <ele>1675.4000244140625</ele>
        <time>2026-06-18T08:47:52.000Z</time>
        <extensions>
          <ns3:TrackPointExtension>
            <ns3:atemp>26.0</ns3:atemp>
          </ns3:TrackPointExtension>
        </extensions>
      </trkpt>
      <trkpt lat="42.52925944514572620391845703125" lon="19.76477771066129207611083984375">
        <ele>1675.4000244140625</ele>
        <time>2026-06-18T08:47:53.000Z</time>
        <extensions>
          <ns3:TrackPointExtension>
            <ns3:atemp>26.0</ns3:atemp>
          </ns3:TrackPointExtension>
        </extensions>
      </trkpt>
      <trkpt lat="42.52925944514572620391845703125" lon="19.76477771066129207611083984375">
        <ele>1675.4000244140625</ele>
        <time>2026-06-18T08:47:54.000Z</time>
        <extensions>
          <ns3:TrackPointExtension>
            <ns3:atemp>26.0</ns3:atemp>
          </ns3:TrackPointExtension>
        </extensions>
      </trkpt>
      <trkpt lat="42.52925944514572620391845703125" lon="19.76477771066129207611083984375">
        <ele>1675.4000244140625</ele>
        <time>2026-06-18T08:47:55.000Z</time>
        <extensions>
          <ns3:TrackPointExtension>
            <ns3:atemp>26.0</ns3:atemp>
          </ns3:TrackPointExtension>
        </extensions>
      </trkpt>
      <trkpt lat="42.52925944514572620391845703125" lon="19.76477771066129207611083984375">
        <ele>1675.4000244140625</ele>
        <time>2026-06-18T08:47:56.000Z</time>
        <extensions>
          <ns3:TrackPointExtension>
            <ns3:atemp>26.0</ns3:atemp>
          </ns3:TrackPointExtension>
        </extensions>
      </trkpt>
      <trkpt lat="42.52925944514572620391845703125" lon="19.76477771066129207611083984375">
        <ele>1675.4000244140625</ele>
        <time>2026-06-18T08:47:57.000Z</time>
        <extensions>
          <ns3:TrackPointExtension>
            <ns3:atemp>26.0</ns3:atemp>
          </ns3:TrackPointExtension>
        </extensions>
      </trkpt>
      <trkpt lat="42.52925944514572620391845703125" lon="19.76477771066129207611083984375">
        <ele>1675.4000244140625</ele>
        <time>2026-06-18T08:47:58.000Z</time>
        <extensions>
          <ns3:TrackPointExtension>
            <ns3:atemp>26.0</ns3:atemp>
          </ns3:TrackPointExtension>
        </extensions>
      </trkpt>
      <trkpt lat="42.52925944514572620391845703125" lon="19.76477771066129207611083984375">
        <ele>1675.4000244140625</ele>
        <time>2026-06-18T08:47:59.000Z</time>
        <extensions>
          <ns3:TrackPointExtension>
            <ns3:atemp>26.0</ns3:atemp>
          </ns3:TrackPointExtension>
        </extensions>
      </trkpt>
      <trkpt lat="42.52925944514572620391845703125" lon="19.76477771066129207611083984375">
        <ele>1675.4000244140625</ele>
        <time>2026-06-18T08:48:00.000Z</time>
        <extensions>
          <ns3:TrackPointExtension>
            <ns3:atemp>26.0</ns3:atemp>
          </ns3:TrackPointExtension>
        </extensions>
      </trkpt>
      <trkpt lat="42.52925944514572620391845703125" lon="19.76477771066129207611083984375">
        <ele>1675.4000244140625</ele>
        <time>2026-06-18T08:48:01.000Z</time>
        <extensions>
          <ns3:TrackPointExtension>
            <ns3:atemp>26.0</ns3:atemp>
          </ns3:TrackPointExtension>
        </extensions>
      </trkpt>
      <trkpt lat="42.52925944514572620391845703125" lon="19.76477771066129207611083984375">
        <ele>1675.4000244140625</ele>
        <time>2026-06-18T08:48:02.000Z</time>
        <extensions>
          <ns3:TrackPointExtension>
            <ns3:atemp>26.0</ns3:atemp>
          </ns3:TrackPointExtension>
        </extensions>
      </trkpt>
      <trkpt lat="42.52925944514572620391845703125" lon="19.76477771066129207611083984375">
        <ele>1675.4000244140625</ele>
        <time>2026-06-18T08:48:03.000Z</time>
        <extensions>
          <ns3:TrackPointExtension>
            <ns3:atemp>26.0</ns3:atemp>
          </ns3:TrackPointExtension>
        </extensions>
      </trkpt>
      <trkpt lat="42.52925944514572620391845703125" lon="19.76477771066129207611083984375">
        <ele>1675.4000244140625</ele>
        <time>2026-06-18T08:48:04.000Z</time>
        <extensions>
          <ns3:TrackPointExtension>
            <ns3:atemp>26.0</ns3:atemp>
          </ns3:TrackPointExtension>
        </extensions>
      </trkpt>
      <trkpt lat="42.52925944514572620391845703125" lon="19.76477771066129207611083984375">
        <ele>1675.4000244140625</ele>
        <time>2026-06-18T08:48:05.000Z</time>
        <extensions>
          <ns3:TrackPointExtension>
            <ns3:atemp>26.0</ns3:atemp>
          </ns3:TrackPointExtension>
        </extensions>
      </trkpt>
      <trkpt lat="42.52925944514572620391845703125" lon="19.76477771066129207611083984375">
        <ele>1675.4000244140625</ele>
        <time>2026-06-18T08:48:06.000Z</time>
        <extensions>
          <ns3:TrackPointExtension>
            <ns3:atemp>26.0</ns3:atemp>
          </ns3:TrackPointExtension>
        </extensions>
      </trkpt>
      <trkpt lat="42.52925944514572620391845703125" lon="19.76477771066129207611083984375">
        <ele>1675.4000244140625</ele>
        <time>2026-06-18T08:48:07.000Z</time>
        <extensions>
          <ns3:TrackPointExtension>
            <ns3:atemp>26.0</ns3:atemp>
          </ns3:TrackPointExtension>
        </extensions>
      </trkpt>
      <trkpt lat="42.52925944514572620391845703125" lon="19.76477771066129207611083984375">
        <ele>1675.4000244140625</ele>
        <time>2026-06-18T08:48:08.000Z</time>
        <extensions>
          <ns3:TrackPointExtension>
            <ns3:atemp>26.0</ns3:atemp>
          </ns3:TrackPointExtension>
        </extensions>
      </trkpt>
      <trkpt lat="42.52925944514572620391845703125" lon="19.76477771066129207611083984375">
        <ele>1675.4000244140625</ele>
        <time>2026-06-18T08:48:09.000Z</time>
        <extensions>
          <ns3:TrackPointExtension>
            <ns3:atemp>26.0</ns3:atemp>
          </ns3:TrackPointExtension>
        </extensions>
      </trkpt>
      <trkpt lat="42.52925944514572620391845703125" lon="19.76477771066129207611083984375">
        <ele>1675.4000244140625</ele>
        <time>2026-06-18T08:48:10.000Z</time>
        <extensions>
          <ns3:TrackPointExtension>
            <ns3:atemp>26.0</ns3:atemp>
          </ns3:TrackPointExtension>
        </extensions>
      </trkpt>
      <trkpt lat="42.52925944514572620391845703125" lon="19.76477771066129207611083984375">
        <ele>1675.4000244140625</ele>
        <time>2026-06-18T08:48:11.000Z</time>
        <extensions>
          <ns3:TrackPointExtension>
            <ns3:atemp>26.0</ns3:atemp>
          </ns3:TrackPointExtension>
        </extensions>
      </trkpt>
      <trkpt lat="42.52925944514572620391845703125" lon="19.76477771066129207611083984375">
        <ele>1675.4000244140625</ele>
        <time>2026-06-18T08:48:12.000Z</time>
        <extensions>
          <ns3:TrackPointExtension>
            <ns3:atemp>26.0</ns3:atemp>
          </ns3:TrackPointExtension>
        </extensions>
      </trkpt>
      <trkpt lat="42.52925944514572620391845703125" lon="19.76477771066129207611083984375">
        <ele>1675.4000244140625</ele>
        <time>2026-06-18T08:48:13.000Z</time>
        <extensions>
          <ns3:TrackPointExtension>
            <ns3:atemp>26.0</ns3:atemp>
          </ns3:TrackPointExtension>
        </extensions>
      </trkpt>
      <trkpt lat="42.52925944514572620391845703125" lon="19.76477771066129207611083984375">
        <ele>1675.4000244140625</ele>
        <time>2026-06-18T08:48:14.000Z</time>
        <extensions>
          <ns3:TrackPointExtension>
            <ns3:atemp>26.0</ns3:atemp>
          </ns3:TrackPointExtension>
        </extensions>
      </trkpt>
      <trkpt lat="42.52925944514572620391845703125" lon="19.76477771066129207611083984375">
        <ele>1675.4000244140625</ele>
        <time>2026-06-18T08:48:15.000Z</time>
        <extensions>
          <ns3:TrackPointExtension>
            <ns3:atemp>26.0</ns3:atemp>
          </ns3:TrackPointExtension>
        </extensions>
      </trkpt>
      <trkpt lat="42.52925944514572620391845703125" lon="19.76477771066129207611083984375">
        <ele>1675.4000244140625</ele>
        <time>2026-06-18T08:48:16.000Z</time>
        <extensions>
          <ns3:TrackPointExtension>
            <ns3:atemp>26.0</ns3:atemp>
          </ns3:TrackPointExtension>
        </extensions>
      </trkpt>
      <trkpt lat="42.52925944514572620391845703125" lon="19.76477771066129207611083984375">
        <ele>1675.4000244140625</ele>
        <time>2026-06-18T08:48:17.000Z</time>
        <extensions>
          <ns3:TrackPointExtension>
            <ns3:atemp>26.0</ns3:atemp>
          </ns3:TrackPointExtension>
        </extensions>
      </trkpt>
      <trkpt lat="42.52925944514572620391845703125" lon="19.76477771066129207611083984375">
        <ele>1675.4000244140625</ele>
        <time>2026-06-18T08:48:18.000Z</time>
        <extensions>
          <ns3:TrackPointExtension>
            <ns3:atemp>26.0</ns3:atemp>
          </ns3:TrackPointExtension>
        </extensions>
      </trkpt>
      <trkpt lat="42.52925944514572620391845703125" lon="19.76477771066129207611083984375">
        <ele>1675.4000244140625</ele>
        <time>2026-06-18T08:48:19.000Z</time>
        <extensions>
          <ns3:TrackPointExtension>
            <ns3:atemp>26.0</ns3:atemp>
          </ns3:TrackPointExtension>
        </extensions>
      </trkpt>
      <trkpt lat="42.52925944514572620391845703125" lon="19.76477771066129207611083984375">
        <ele>1675.4000244140625</ele>
        <time>2026-06-18T08:48:20.000Z</time>
        <extensions>
          <ns3:TrackPointExtension>
            <ns3:atemp>26.0</ns3:atemp>
          </ns3:TrackPointExtension>
        </extensions>
      </trkpt>
      <trkpt lat="42.52925944514572620391845703125" lon="19.76477771066129207611083984375">
        <ele>1675.4000244140625</ele>
        <time>2026-06-18T08:48:21.000Z</time>
        <extensions>
          <ns3:TrackPointExtension>
            <ns3:atemp>26.0</ns3:atemp>
          </ns3:TrackPointExtension>
        </extensions>
      </trkpt>
      <trkpt lat="42.52925944514572620391845703125" lon="19.76477771066129207611083984375">
        <ele>1675.4000244140625</ele>
        <time>2026-06-18T08:48:22.000Z</time>
        <extensions>
          <ns3:TrackPointExtension>
            <ns3:atemp>26.0</ns3:atemp>
          </ns3:TrackPointExtension>
        </extensions>
      </trkpt>
      <trkpt lat="42.52925944514572620391845703125" lon="19.76477771066129207611083984375">
        <ele>1675.4000244140625</ele>
        <time>2026-06-18T08:48:23.000Z</time>
        <extensions>
          <ns3:TrackPointExtension>
            <ns3:atemp>26.0</ns3:atemp>
          </ns3:TrackPointExtension>
        </extensions>
      </trkpt>
      <trkpt lat="42.52925944514572620391845703125" lon="19.76477771066129207611083984375">
        <ele>1675.4000244140625</ele>
        <time>2026-06-18T08:48:24.000Z</time>
        <extensions>
          <ns3:TrackPointExtension>
            <ns3:atemp>26.0</ns3:atemp>
          </ns3:TrackPointExtension>
        </extensions>
      </trkpt>
      <trkpt lat="42.52925944514572620391845703125" lon="19.76477771066129207611083984375">
        <ele>1675.4000244140625</ele>
        <time>2026-06-18T08:48:25.000Z</time>
        <extensions>
          <ns3:TrackPointExtension>
            <ns3:atemp>26.0</ns3:atemp>
          </ns3:TrackPointExtension>
        </extensions>
      </trkpt>
      <trkpt lat="42.52925944514572620391845703125" lon="19.76477771066129207611083984375">
        <ele>1675.4000244140625</ele>
        <time>2026-06-18T08:48:26.000Z</time>
        <extensions>
          <ns3:TrackPointExtension>
            <ns3:atemp>26.0</ns3:atemp>
          </ns3:TrackPointExtension>
        </extensions>
      </trkpt>
      <trkpt lat="42.52925944514572620391845703125" lon="19.76477771066129207611083984375">
        <ele>1675.4000244140625</ele>
        <time>2026-06-18T08:48:27.000Z</time>
        <extensions>
          <ns3:TrackPointExtension>
            <ns3:atemp>26.0</ns3:atemp>
          </ns3:TrackPointExtension>
        </extensions>
      </trkpt>
      <trkpt lat="42.52925944514572620391845703125" lon="19.76477771066129207611083984375">
        <ele>1675.4000244140625</ele>
        <time>2026-06-18T08:48:28.000Z</time>
        <extensions>
          <ns3:TrackPointExtension>
            <ns3:atemp>26.0</ns3:atemp>
          </ns3:TrackPointExtension>
        </extensions>
      </trkpt>
      <trkpt lat="42.52925944514572620391845703125" lon="19.76477771066129207611083984375">
        <ele>1675.4000244140625</ele>
        <time>2026-06-18T08:48:29.000Z</time>
        <extensions>
          <ns3:TrackPointExtension>
            <ns3:atemp>26.0</ns3:atemp>
          </ns3:TrackPointExtension>
        </extensions>
      </trkpt>
      <trkpt lat="42.52925944514572620391845703125" lon="19.76477771066129207611083984375">
        <ele>1675.4000244140625</ele>
        <time>2026-06-18T08:48:30.000Z</time>
        <extensions>
          <ns3:TrackPointExtension>
            <ns3:atemp>26.0</ns3:atemp>
          </ns3:TrackPointExtension>
        </extensions>
      </trkpt>
      <trkpt lat="42.52925944514572620391845703125" lon="19.76477771066129207611083984375">
        <ele>1675.4000244140625</ele>
        <time>2026-06-18T08:48:31.000Z</time>
        <extensions>
          <ns3:TrackPointExtension>
            <ns3:atemp>26.0</ns3:atemp>
          </ns3:TrackPointExtension>
        </extensions>
      </trkpt>
      <trkpt lat="42.52925944514572620391845703125" lon="19.76477771066129207611083984375">
        <ele>1675.4000244140625</ele>
        <time>2026-06-18T08:48:32.000Z</time>
        <extensions>
          <ns3:TrackPointExtension>
            <ns3:atemp>26.0</ns3:atemp>
          </ns3:TrackPointExtension>
        </extensions>
      </trkpt>
      <trkpt lat="42.52925944514572620391845703125" lon="19.76477771066129207611083984375">
        <ele>1675.4000244140625</ele>
        <time>2026-06-18T08:48:33.000Z</time>
        <extensions>
          <ns3:TrackPointExtension>
            <ns3:atemp>26.0</ns3:atemp>
          </ns3:TrackPointExtension>
        </extensions>
      </trkpt>
      <trkpt lat="42.52925944514572620391845703125" lon="19.76477771066129207611083984375">
        <ele>1675.4000244140625</ele>
        <time>2026-06-18T08:48:34.000Z</time>
        <extensions>
          <ns3:TrackPointExtension>
            <ns3:atemp>26.0</ns3:atemp>
          </ns3:TrackPointExtension>
        </extensions>
      </trkpt>
      <trkpt lat="42.52925944514572620391845703125" lon="19.76477771066129207611083984375">
        <ele>1675.4000244140625</ele>
        <time>2026-06-18T08:48:35.000Z</time>
        <extensions>
          <ns3:TrackPointExtension>
            <ns3:atemp>26.0</ns3:atemp>
          </ns3:TrackPointExtension>
        </extensions>
      </trkpt>
      <trkpt lat="42.52925944514572620391845703125" lon="19.76477771066129207611083984375">
        <ele>1675.4000244140625</ele>
        <time>2026-06-18T08:48:36.000Z</time>
        <extensions>
          <ns3:TrackPointExtension>
            <ns3:atemp>26.0</ns3:atemp>
          </ns3:TrackPointExtension>
        </extensions>
      </trkpt>
      <trkpt lat="42.52925944514572620391845703125" lon="19.76477771066129207611083984375">
        <ele>1675.4000244140625</ele>
        <time>2026-06-18T08:48:37.000Z</time>
        <extensions>
          <ns3:TrackPointExtension>
            <ns3:atemp>26.0</ns3:atemp>
          </ns3:TrackPointExtension>
        </extensions>
      </trkpt>
      <trkpt lat="42.52925944514572620391845703125" lon="19.76477771066129207611083984375">
        <ele>1675.4000244140625</ele>
        <time>2026-06-18T08:48:38.000Z</time>
        <extensions>
          <ns3:TrackPointExtension>
            <ns3:atemp>26.0</ns3:atemp>
          </ns3:TrackPointExtension>
        </extensions>
      </trkpt>
      <trkpt lat="42.52925944514572620391845703125" lon="19.76477771066129207611083984375">
        <ele>1675.4000244140625</ele>
        <time>2026-06-18T08:48:39.000Z</time>
        <extensions>
          <ns3:TrackPointExtension>
            <ns3:atemp>26.0</ns3:atemp>
          </ns3:TrackPointExtension>
        </extensions>
      </trkpt>
      <trkpt lat="42.52925944514572620391845703125" lon="19.76477771066129207611083984375">
        <ele>1675.4000244140625</ele>
        <time>2026-06-18T08:48:40.000Z</time>
        <extensions>
          <ns3:TrackPointExtension>
            <ns3:atemp>26.0</ns3:atemp>
          </ns3:TrackPointExtension>
        </extensions>
      </trkpt>
      <trkpt lat="42.52925944514572620391845703125" lon="19.76477771066129207611083984375">
        <ele>1675.4000244140625</ele>
        <time>2026-06-18T08:48:41.000Z</time>
        <extensions>
          <ns3:TrackPointExtension>
            <ns3:atemp>26.0</ns3:atemp>
          </ns3:TrackPointExtension>
        </extensions>
      </trkpt>
      <trkpt lat="42.52925944514572620391845703125" lon="19.76477771066129207611083984375">
        <ele>1675.4000244140625</ele>
        <time>2026-06-18T08:48:42.000Z</time>
        <extensions>
          <ns3:TrackPointExtension>
            <ns3:atemp>26.0</ns3:atemp>
          </ns3:TrackPointExtension>
        </extensions>
      </trkpt>
      <trkpt lat="42.52925944514572620391845703125" lon="19.76477771066129207611083984375">
        <ele>1675.4000244140625</ele>
        <time>2026-06-18T08:48:43.000Z</time>
        <extensions>
          <ns3:TrackPointExtension>
            <ns3:atemp>26.0</ns3:atemp>
          </ns3:TrackPointExtension>
        </extensions>
      </trkpt>
      <trkpt lat="42.52925944514572620391845703125" lon="19.76477771066129207611083984375">
        <ele>1675.4000244140625</ele>
        <time>2026-06-18T08:48:44.000Z</time>
        <extensions>
          <ns3:TrackPointExtension>
            <ns3:atemp>26.0</ns3:atemp>
          </ns3:TrackPointExtension>
        </extensions>
      </trkpt>
      <trkpt lat="42.52925944514572620391845703125" lon="19.76477771066129207611083984375">
        <ele>1675.4000244140625</ele>
        <time>2026-06-18T08:48:45.000Z</time>
        <extensions>
          <ns3:TrackPointExtension>
            <ns3:atemp>26.0</ns3:atemp>
          </ns3:TrackPointExtension>
        </extensions>
      </trkpt>
      <trkpt lat="42.52925944514572620391845703125" lon="19.76477771066129207611083984375">
        <ele>1675.4000244140625</ele>
        <time>2026-06-18T08:48:46.000Z</time>
        <extensions>
          <ns3:TrackPointExtension>
            <ns3:atemp>26.0</ns3:atemp>
          </ns3:TrackPointExtension>
        </extensions>
      </trkpt>
      <trkpt lat="42.52925944514572620391845703125" lon="19.76477771066129207611083984375">
        <ele>1675.4000244140625</ele>
        <time>2026-06-18T08:48:47.000Z</time>
        <extensions>
          <ns3:TrackPointExtension>
            <ns3:atemp>26.0</ns3:atemp>
          </ns3:TrackPointExtension>
        </extensions>
      </trkpt>
      <trkpt lat="42.52925944514572620391845703125" lon="19.76477771066129207611083984375">
        <ele>1675.4000244140625</ele>
        <time>2026-06-18T08:48:48.000Z</time>
        <extensions>
          <ns3:TrackPointExtension>
            <ns3:atemp>26.0</ns3:atemp>
          </ns3:TrackPointExtension>
        </extensions>
      </trkpt>
      <trkpt lat="42.52925944514572620391845703125" lon="19.76477771066129207611083984375">
        <ele>1675.4000244140625</ele>
        <time>2026-06-18T08:48:49.000Z</time>
        <extensions>
          <ns3:TrackPointExtension>
            <ns3:atemp>26.0</ns3:atemp>
          </ns3:TrackPointExtension>
        </extensions>
      </trkpt>
      <trkpt lat="42.52925944514572620391845703125" lon="19.76477771066129207611083984375">
        <ele>1675.4000244140625</ele>
        <time>2026-06-18T08:48:50.000Z</time>
        <extensions>
          <ns3:TrackPointExtension>
            <ns3:atemp>26.0</ns3:atemp>
          </ns3:TrackPointExtension>
        </extensions>
      </trkpt>
      <trkpt lat="42.52925944514572620391845703125" lon="19.76477771066129207611083984375">
        <ele>1675.4000244140625</ele>
        <time>2026-06-18T08:48:51.000Z</time>
        <extensions>
          <ns3:TrackPointExtension>
            <ns3:atemp>26.0</ns3:atemp>
          </ns3:TrackPointExtension>
        </extensions>
      </trkpt>
      <trkpt lat="42.52925944514572620391845703125" lon="19.76477771066129207611083984375">
        <ele>1675.4000244140625</ele>
        <time>2026-06-18T08:48:52.000Z</time>
        <extensions>
          <ns3:TrackPointExtension>
            <ns3:atemp>26.0</ns3:atemp>
          </ns3:TrackPointExtension>
        </extensions>
      </trkpt>
      <trkpt lat="42.52925944514572620391845703125" lon="19.76477771066129207611083984375">
        <ele>1675.4000244140625</ele>
        <time>2026-06-18T08:48:53.000Z</time>
        <extensions>
          <ns3:TrackPointExtension>
            <ns3:atemp>26.0</ns3:atemp>
          </ns3:TrackPointExtension>
        </extensions>
      </trkpt>
      <trkpt lat="42.52925944514572620391845703125" lon="19.76477771066129207611083984375">
        <ele>1675.4000244140625</ele>
        <time>2026-06-18T08:48:54.000Z</time>
        <extensions>
          <ns3:TrackPointExtension>
            <ns3:atemp>26.0</ns3:atemp>
          </ns3:TrackPointExtension>
        </extensions>
      </trkpt>
      <trkpt lat="42.52925944514572620391845703125" lon="19.76477771066129207611083984375">
        <ele>1675.4000244140625</ele>
        <time>2026-06-18T08:48:55.000Z</time>
        <extensions>
          <ns3:TrackPointExtension>
            <ns3:atemp>26.0</ns3:atemp>
          </ns3:TrackPointExtension>
        </extensions>
      </trkpt>
      <trkpt lat="42.52925944514572620391845703125" lon="19.76477771066129207611083984375">
        <ele>1675.4000244140625</ele>
        <time>2026-06-18T08:48:56.000Z</time>
        <extensions>
          <ns3:TrackPointExtension>
            <ns3:atemp>26.0</ns3:atemp>
          </ns3:TrackPointExtension>
        </extensions>
      </trkpt>
      <trkpt lat="42.52925944514572620391845703125" lon="19.76477771066129207611083984375">
        <ele>1675.4000244140625</ele>
        <time>2026-06-18T08:48:57.000Z</time>
        <extensions>
          <ns3:TrackPointExtension>
            <ns3:atemp>26.0</ns3:atemp>
          </ns3:TrackPointExtension>
        </extensions>
      </trkpt>
      <trkpt lat="42.52925944514572620391845703125" lon="19.76477771066129207611083984375">
        <ele>1675.4000244140625</ele>
        <time>2026-06-18T08:48:58.000Z</time>
        <extensions>
          <ns3:TrackPointExtension>
            <ns3:atemp>26.0</ns3:atemp>
          </ns3:TrackPointExtension>
        </extensions>
      </trkpt>
      <trkpt lat="42.52925944514572620391845703125" lon="19.76477771066129207611083984375">
        <ele>1675.4000244140625</ele>
        <time>2026-06-18T08:48:59.000Z</time>
        <extensions>
          <ns3:TrackPointExtension>
            <ns3:atemp>26.0</ns3:atemp>
          </ns3:TrackPointExtension>
        </extensions>
      </trkpt>
      <trkpt lat="42.52925944514572620391845703125" lon="19.76477771066129207611083984375">
        <ele>1675.4000244140625</ele>
        <time>2026-06-18T08:49:00.000Z</time>
        <extensions>
          <ns3:TrackPointExtension>
            <ns3:atemp>26.0</ns3:atemp>
          </ns3:TrackPointExtension>
        </extensions>
      </trkpt>
      <trkpt lat="42.52925944514572620391845703125" lon="19.76477771066129207611083984375">
        <ele>1675.4000244140625</ele>
        <time>2026-06-18T08:49:01.000Z</time>
        <extensions>
          <ns3:TrackPointExtension>
            <ns3:atemp>26.0</ns3:atemp>
          </ns3:TrackPointExtension>
        </extensions>
      </trkpt>
      <trkpt lat="42.52925944514572620391845703125" lon="19.76477771066129207611083984375">
        <ele>1675.4000244140625</ele>
        <time>2026-06-18T08:49:02.000Z</time>
        <extensions>
          <ns3:TrackPointExtension>
            <ns3:atemp>26.0</ns3:atemp>
          </ns3:TrackPointExtension>
        </extensions>
      </trkpt>
      <trkpt lat="42.52925944514572620391845703125" lon="19.76477771066129207611083984375">
        <ele>1675.4000244140625</ele>
        <time>2026-06-18T08:49:03.000Z</time>
        <extensions>
          <ns3:TrackPointExtension>
            <ns3:atemp>26.0</ns3:atemp>
          </ns3:TrackPointExtension>
        </extensions>
      </trkpt>
      <trkpt lat="42.52925944514572620391845703125" lon="19.76477771066129207611083984375">
        <ele>1675.4000244140625</ele>
        <time>2026-06-18T08:49:04.000Z</time>
        <extensions>
          <ns3:TrackPointExtension>
            <ns3:atemp>26.0</ns3:atemp>
          </ns3:TrackPointExtension>
        </extensions>
      </trkpt>
      <trkpt lat="42.52925944514572620391845703125" lon="19.76477771066129207611083984375">
        <ele>1675.4000244140625</ele>
        <time>2026-06-18T08:49:05.000Z</time>
        <extensions>
          <ns3:TrackPointExtension>
            <ns3:atemp>26.0</ns3:atemp>
          </ns3:TrackPointExtension>
        </extensions>
      </trkpt>
      <trkpt lat="42.52925944514572620391845703125" lon="19.76477771066129207611083984375">
        <ele>1675.4000244140625</ele>
        <time>2026-06-18T08:49:06.000Z</time>
        <extensions>
          <ns3:TrackPointExtension>
            <ns3:atemp>26.0</ns3:atemp>
          </ns3:TrackPointExtension>
        </extensions>
      </trkpt>
      <trkpt lat="42.52925944514572620391845703125" lon="19.76477771066129207611083984375">
        <ele>1675.4000244140625</ele>
        <time>2026-06-18T08:49:07.000Z</time>
        <extensions>
          <ns3:TrackPointExtension>
            <ns3:atemp>26.0</ns3:atemp>
          </ns3:TrackPointExtension>
        </extensions>
      </trkpt>
      <trkpt lat="42.52925944514572620391845703125" lon="19.76477771066129207611083984375">
        <ele>1675.4000244140625</ele>
        <time>2026-06-18T08:49:08.000Z</time>
        <extensions>
          <ns3:TrackPointExtension>
            <ns3:atemp>26.0</ns3:atemp>
          </ns3:TrackPointExtension>
        </extensions>
      </trkpt>
      <trkpt lat="42.52925944514572620391845703125" lon="19.76477771066129207611083984375">
        <ele>1675.4000244140625</ele>
        <time>2026-06-18T08:49:09.000Z</time>
        <extensions>
          <ns3:TrackPointExtension>
            <ns3:atemp>26.0</ns3:atemp>
          </ns3:TrackPointExtension>
        </extensions>
      </trkpt>
      <trkpt lat="42.52925944514572620391845703125" lon="19.76477771066129207611083984375">
        <ele>1675.4000244140625</ele>
        <time>2026-06-18T08:49:10.000Z</time>
        <extensions>
          <ns3:TrackPointExtension>
            <ns3:atemp>26.0</ns3:atemp>
          </ns3:TrackPointExtension>
        </extensions>
      </trkpt>
      <trkpt lat="42.52925944514572620391845703125" lon="19.76477771066129207611083984375">
        <ele>1675.4000244140625</ele>
        <time>2026-06-18T08:49:11.000Z</time>
        <extensions>
          <ns3:TrackPointExtension>
            <ns3:atemp>26.0</ns3:atemp>
          </ns3:TrackPointExtension>
        </extensions>
      </trkpt>
      <trkpt lat="42.52925944514572620391845703125" lon="19.76477771066129207611083984375">
        <ele>1675.4000244140625</ele>
        <time>2026-06-18T08:49:12.000Z</time>
        <extensions>
          <ns3:TrackPointExtension>
            <ns3:atemp>26.0</ns3:atemp>
          </ns3:TrackPointExtension>
        </extensions>
      </trkpt>
      <trkpt lat="42.52925944514572620391845703125" lon="19.76477771066129207611083984375">
        <ele>1675.4000244140625</ele>
        <time>2026-06-18T08:49:13.000Z</time>
        <extensions>
          <ns3:TrackPointExtension>
            <ns3:atemp>26.0</ns3:atemp>
          </ns3:TrackPointExtension>
        </extensions>
      </trkpt>
      <trkpt lat="42.52925944514572620391845703125" lon="19.76477771066129207611083984375">
        <ele>1675.4000244140625</ele>
        <time>2026-06-18T08:49:14.000Z</time>
        <extensions>
          <ns3:TrackPointExtension>
            <ns3:atemp>26.0</ns3:atemp>
          </ns3:TrackPointExtension>
        </extensions>
      </trkpt>
      <trkpt lat="42.52925944514572620391845703125" lon="19.76477771066129207611083984375">
        <ele>1675.4000244140625</ele>
        <time>2026-06-18T08:49:15.000Z</time>
        <extensions>
          <ns3:TrackPointExtension>
            <ns3:atemp>26.0</ns3:atemp>
          </ns3:TrackPointExtension>
        </extensions>
      </trkpt>
      <trkpt lat="42.52925944514572620391845703125" lon="19.76477771066129207611083984375">
        <ele>1675.4000244140625</ele>
        <time>2026-06-18T08:49:16.000Z</time>
        <extensions>
          <ns3:TrackPointExtension>
            <ns3:atemp>26.0</ns3:atemp>
          </ns3:TrackPointExtension>
        </extensions>
      </trkpt>
      <trkpt lat="42.52925944514572620391845703125" lon="19.76477771066129207611083984375">
        <ele>1675.4000244140625</ele>
        <time>2026-06-18T08:49:17.000Z</time>
        <extensions>
          <ns3:TrackPointExtension>
            <ns3:atemp>26.0</ns3:atemp>
          </ns3:TrackPointExtension>
        </extensions>
      </trkpt>
      <trkpt lat="42.52925944514572620391845703125" lon="19.76477771066129207611083984375">
        <ele>1675.4000244140625</ele>
        <time>2026-06-18T08:49:18.000Z</time>
        <extensions>
          <ns3:TrackPointExtension>
            <ns3:atemp>26.0</ns3:atemp>
          </ns3:TrackPointExtension>
        </extensions>
      </trkpt>
      <trkpt lat="42.52925944514572620391845703125" lon="19.76477771066129207611083984375">
        <ele>1675.4000244140625</ele>
        <time>2026-06-18T08:49:19.000Z</time>
        <extensions>
          <ns3:TrackPointExtension>
            <ns3:atemp>26.0</ns3:atemp>
          </ns3:TrackPointExtension>
        </extensions>
      </trkpt>
      <trkpt lat="42.52925944514572620391845703125" lon="19.76477771066129207611083984375">
        <ele>1675.4000244140625</ele>
        <time>2026-06-18T08:49:20.000Z</time>
        <extensions>
          <ns3:TrackPointExtension>
            <ns3:atemp>26.0</ns3:atemp>
          </ns3:TrackPointExtension>
        </extensions>
      </trkpt>
      <trkpt lat="42.52925944514572620391845703125" lon="19.76477771066129207611083984375">
        <ele>1675.4000244140625</ele>
        <time>2026-06-18T08:49:21.000Z</time>
        <extensions>
          <ns3:TrackPointExtension>
            <ns3:atemp>26.0</ns3:atemp>
          </ns3:TrackPointExtension>
        </extensions>
      </trkpt>
      <trkpt lat="42.52925944514572620391845703125" lon="19.76477771066129207611083984375">
        <ele>1675.4000244140625</ele>
        <time>2026-06-18T08:49:22.000Z</time>
        <extensions>
          <ns3:TrackPointExtension>
            <ns3:atemp>26.0</ns3:atemp>
          </ns3:TrackPointExtension>
        </extensions>
      </trkpt>
      <trkpt lat="42.52925944514572620391845703125" lon="19.76477771066129207611083984375">
        <ele>1675.4000244140625</ele>
        <time>2026-06-18T08:49:23.000Z</time>
        <extensions>
          <ns3:TrackPointExtension>
            <ns3:atemp>26.0</ns3:atemp>
          </ns3:TrackPointExtension>
        </extensions>
      </trkpt>
      <trkpt lat="42.52925944514572620391845703125" lon="19.76477771066129207611083984375">
        <ele>1675.4000244140625</ele>
        <time>2026-06-18T08:49:24.000Z</time>
        <extensions>
          <ns3:TrackPointExtension>
            <ns3:atemp>26.0</ns3:atemp>
          </ns3:TrackPointExtension>
        </extensions>
      </trkpt>
      <trkpt lat="42.52925944514572620391845703125" lon="19.76477771066129207611083984375">
        <ele>1675.4000244140625</ele>
        <time>2026-06-18T08:49:25.000Z</time>
        <extensions>
          <ns3:TrackPointExtension>
            <ns3:atemp>26.0</ns3:atemp>
          </ns3:TrackPointExtension>
        </extensions>
      </trkpt>
      <trkpt lat="42.52925944514572620391845703125" lon="19.76477771066129207611083984375">
        <ele>1675.4000244140625</ele>
        <time>2026-06-18T08:49:26.000Z</time>
        <extensions>
          <ns3:TrackPointExtension>
            <ns3:atemp>26.0</ns3:atemp>
          </ns3:TrackPointExtension>
        </extensions>
      </trkpt>
      <trkpt lat="42.52925944514572620391845703125" lon="19.76477771066129207611083984375">
        <ele>1675.4000244140625</ele>
        <time>2026-06-18T08:49:27.000Z</time>
        <extensions>
          <ns3:TrackPointExtension>
            <ns3:atemp>26.0</ns3:atemp>
          </ns3:TrackPointExtension>
        </extensions>
      </trkpt>
      <trkpt lat="42.52925944514572620391845703125" lon="19.76477771066129207611083984375">
        <ele>1675.4000244140625</ele>
        <time>2026-06-18T08:49:28.000Z</time>
        <extensions>
          <ns3:TrackPointExtension>
            <ns3:atemp>26.0</ns3:atemp>
          </ns3:TrackPointExtension>
        </extensions>
      </trkpt>
      <trkpt lat="42.52925944514572620391845703125" lon="19.76477771066129207611083984375">
        <ele>1675.4000244140625</ele>
        <time>2026-06-18T08:49:29.000Z</time>
        <extensions>
          <ns3:TrackPointExtension>
            <ns3:atemp>26.0</ns3:atemp>
          </ns3:TrackPointExtension>
        </extensions>
      </trkpt>
      <trkpt lat="42.52925944514572620391845703125" lon="19.76477771066129207611083984375">
        <ele>1675.4000244140625</ele>
        <time>2026-06-18T08:49:30.000Z</time>
        <extensions>
          <ns3:TrackPointExtension>
            <ns3:atemp>26.0</ns3:atemp>
          </ns3:TrackPointExtension>
        </extensions>
      </trkpt>
      <trkpt lat="42.52925944514572620391845703125" lon="19.76477771066129207611083984375">
        <ele>1675.4000244140625</ele>
        <time>2026-06-18T08:49:31.000Z</time>
        <extensions>
          <ns3:TrackPointExtension>
            <ns3:atemp>26.0</ns3:atemp>
          </ns3:TrackPointExtension>
        </extensions>
      </trkpt>
      <trkpt lat="42.52925944514572620391845703125" lon="19.76477771066129207611083984375">
        <ele>1675.4000244140625</ele>
        <time>2026-06-18T08:49:32.000Z</time>
        <extensions>
          <ns3:TrackPointExtension>
            <ns3:atemp>26.0</ns3:atemp>
          </ns3:TrackPointExtension>
        </extensions>
      </trkpt>
      <trkpt lat="42.52925944514572620391845703125" lon="19.76477771066129207611083984375">
        <ele>1675.4000244140625</ele>
        <time>2026-06-18T08:49:33.000Z</time>
        <extensions>
          <ns3:TrackPointExtension>
            <ns3:atemp>26.0</ns3:atemp>
          </ns3:TrackPointExtension>
        </extensions>
      </trkpt>
      <trkpt lat="42.52925944514572620391845703125" lon="19.76477771066129207611083984375">
        <ele>1675.4000244140625</ele>
        <time>2026-06-18T08:49:34.000Z</time>
        <extensions>
          <ns3:TrackPointExtension>
            <ns3:atemp>26.0</ns3:atemp>
          </ns3:TrackPointExtension>
        </extensions>
      </trkpt>
      <trkpt lat="42.52925944514572620391845703125" lon="19.76477771066129207611083984375">
        <ele>1675.4000244140625</ele>
        <time>2026-06-18T08:49:35.000Z</time>
        <extensions>
          <ns3:TrackPointExtension>
            <ns3:atemp>26.0</ns3:atemp>
          </ns3:TrackPointExtension>
        </extensions>
      </trkpt>
      <trkpt lat="42.52925944514572620391845703125" lon="19.76477771066129207611083984375">
        <ele>1675.4000244140625</ele>
        <time>2026-06-18T08:49:36.000Z</time>
        <extensions>
          <ns3:TrackPointExtension>
            <ns3:atemp>26.0</ns3:atemp>
          </ns3:TrackPointExtension>
        </extensions>
      </trkpt>
      <trkpt lat="42.52925944514572620391845703125" lon="19.76477771066129207611083984375">
        <ele>1675.4000244140625</ele>
        <time>2026-06-18T08:49:37.000Z</time>
        <extensions>
          <ns3:TrackPointExtension>
            <ns3:atemp>26.0</ns3:atemp>
          </ns3:TrackPointExtension>
        </extensions>
      </trkpt>
      <trkpt lat="42.52925944514572620391845703125" lon="19.76477771066129207611083984375">
        <ele>1675.4000244140625</ele>
        <time>2026-06-18T08:49:38.000Z</time>
        <extensions>
          <ns3:TrackPointExtension>
            <ns3:atemp>26.0</ns3:atemp>
          </ns3:TrackPointExtension>
        </extensions>
      </trkpt>
      <trkpt lat="42.52925944514572620391845703125" lon="19.76477771066129207611083984375">
        <ele>1675.4000244140625</ele>
        <time>2026-06-18T08:49:39.000Z</time>
        <extensions>
          <ns3:TrackPointExtension>
            <ns3:atemp>26.0</ns3:atemp>
          </ns3:TrackPointExtension>
        </extensions>
      </trkpt>
      <trkpt lat="42.52925944514572620391845703125" lon="19.76477771066129207611083984375">
        <ele>1675.4000244140625</ele>
        <time>2026-06-18T08:49:40.000Z</time>
        <extensions>
          <ns3:TrackPointExtension>
            <ns3:atemp>26.0</ns3:atemp>
          </ns3:TrackPointExtension>
        </extensions>
      </trkpt>
      <trkpt lat="42.52925944514572620391845703125" lon="19.76477771066129207611083984375">
        <ele>1675.4000244140625</ele>
        <time>2026-06-18T08:49:41.000Z</time>
        <extensions>
          <ns3:TrackPointExtension>
            <ns3:atemp>26.0</ns3:atemp>
          </ns3:TrackPointExtension>
        </extensions>
      </trkpt>
      <trkpt lat="42.52925944514572620391845703125" lon="19.76477771066129207611083984375">
        <ele>1675.4000244140625</ele>
        <time>2026-06-18T08:49:42.000Z</time>
        <extensions>
          <ns3:TrackPointExtension>
            <ns3:atemp>26.0</ns3:atemp>
          </ns3:TrackPointExtension>
        </extensions>
      </trkpt>
      <trkpt lat="42.52925944514572620391845703125" lon="19.76477771066129207611083984375">
        <ele>1675.4000244140625</ele>
        <time>2026-06-18T08:49:43.000Z</time>
        <extensions>
          <ns3:TrackPointExtension>
            <ns3:atemp>26.0</ns3:atemp>
          </ns3:TrackPointExtension>
        </extensions>
      </trkpt>
      <trkpt lat="42.52925944514572620391845703125" lon="19.76477771066129207611083984375">
        <ele>1675.4000244140625</ele>
        <time>2026-06-18T08:49:44.000Z</time>
        <extensions>
          <ns3:TrackPointExtension>
            <ns3:atemp>26.0</ns3:atemp>
          </ns3:TrackPointExtension>
        </extensions>
      </trkpt>
      <trkpt lat="42.52925944514572620391845703125" lon="19.76477771066129207611083984375">
        <ele>1675.4000244140625</ele>
        <time>2026-06-18T08:49:45.000Z</time>
        <extensions>
          <ns3:TrackPointExtension>
            <ns3:atemp>26.0</ns3:atemp>
          </ns3:TrackPointExtension>
        </extensions>
      </trkpt>
      <trkpt lat="42.52925944514572620391845703125" lon="19.76477771066129207611083984375">
        <ele>1675.4000244140625</ele>
        <time>2026-06-18T08:49:46.000Z</time>
        <extensions>
          <ns3:TrackPointExtension>
            <ns3:atemp>26.0</ns3:atemp>
          </ns3:TrackPointExtension>
        </extensions>
      </trkpt>
      <trkpt lat="42.52925944514572620391845703125" lon="19.76477771066129207611083984375">
        <ele>1675.4000244140625</ele>
        <time>2026-06-18T08:49:47.000Z</time>
        <extensions>
          <ns3:TrackPointExtension>
            <ns3:atemp>26.0</ns3:atemp>
          </ns3:TrackPointExtension>
        </extensions>
      </trkpt>
      <trkpt lat="42.52925944514572620391845703125" lon="19.76477771066129207611083984375">
        <ele>1675.4000244140625</ele>
        <time>2026-06-18T08:49:48.000Z</time>
        <extensions>
          <ns3:TrackPointExtension>
            <ns3:atemp>26.0</ns3:atemp>
          </ns3:TrackPointExtension>
        </extensions>
      </trkpt>
      <trkpt lat="42.52925944514572620391845703125" lon="19.76477771066129207611083984375">
        <ele>1675.4000244140625</ele>
        <time>2026-06-18T08:49:49.000Z</time>
        <extensions>
          <ns3:TrackPointExtension>
            <ns3:atemp>26.0</ns3:atemp>
          </ns3:TrackPointExtension>
        </extensions>
      </trkpt>
      <trkpt lat="42.52925944514572620391845703125" lon="19.76477771066129207611083984375">
        <ele>1675.4000244140625</ele>
        <time>2026-06-18T08:49:50.000Z</time>
        <extensions>
          <ns3:TrackPointExtension>
            <ns3:atemp>26.0</ns3:atemp>
          </ns3:TrackPointExtension>
        </extensions>
      </trkpt>
      <trkpt lat="42.52925944514572620391845703125" lon="19.76477771066129207611083984375">
        <ele>1675.4000244140625</ele>
        <time>2026-06-18T08:49:51.000Z</time>
        <extensions>
          <ns3:TrackPointExtension>
            <ns3:atemp>26.0</ns3:atemp>
          </ns3:TrackPointExtension>
        </extensions>
      </trkpt>
      <trkpt lat="42.52925944514572620391845703125" lon="19.76477771066129207611083984375">
        <ele>1675.4000244140625</ele>
        <time>2026-06-18T08:49:52.000Z</time>
        <extensions>
          <ns3:TrackPointExtension>
            <ns3:atemp>26.0</ns3:atemp>
          </ns3:TrackPointExtension>
        </extensions>
      </trkpt>
      <trkpt lat="42.52925944514572620391845703125" lon="19.76477771066129207611083984375">
        <ele>1675.4000244140625</ele>
        <time>2026-06-18T08:49:53.000Z</time>
        <extensions>
          <ns3:TrackPointExtension>
            <ns3:atemp>26.0</ns3:atemp>
          </ns3:TrackPointExtension>
        </extensions>
      </trkpt>
      <trkpt lat="42.52925944514572620391845703125" lon="19.76477771066129207611083984375">
        <ele>1675.4000244140625</ele>
        <time>2026-06-18T08:49:54.000Z</time>
        <extensions>
          <ns3:TrackPointExtension>
            <ns3:atemp>26.0</ns3:atemp>
          </ns3:TrackPointExtension>
        </extensions>
      </trkpt>
      <trkpt lat="42.52925944514572620391845703125" lon="19.76477771066129207611083984375">
        <ele>1675.4000244140625</ele>
        <time>2026-06-18T08:49:55.000Z</time>
        <extensions>
          <ns3:TrackPointExtension>
            <ns3:atemp>26.0</ns3:atemp>
          </ns3:TrackPointExtension>
        </extensions>
      </trkpt>
      <trkpt lat="42.52925944514572620391845703125" lon="19.76477771066129207611083984375">
        <ele>1675.4000244140625</ele>
        <time>2026-06-18T08:49:56.000Z</time>
        <extensions>
          <ns3:TrackPointExtension>
            <ns3:atemp>26.0</ns3:atemp>
          </ns3:TrackPointExtension>
        </extensions>
      </trkpt>
      <trkpt lat="42.52925944514572620391845703125" lon="19.76477771066129207611083984375">
        <ele>1675.4000244140625</ele>
        <time>2026-06-18T08:49:57.000Z</time>
        <extensions>
          <ns3:TrackPointExtension>
            <ns3:atemp>26.0</ns3:atemp>
          </ns3:TrackPointExtension>
        </extensions>
      </trkpt>
      <trkpt lat="42.52925944514572620391845703125" lon="19.76477771066129207611083984375">
        <ele>1675.4000244140625</ele>
        <time>2026-06-18T08:49:58.000Z</time>
        <extensions>
          <ns3:TrackPointExtension>
            <ns3:atemp>26.0</ns3:atemp>
          </ns3:TrackPointExtension>
        </extensions>
      </trkpt>
      <trkpt lat="42.52925944514572620391845703125" lon="19.76477771066129207611083984375">
        <ele>1675.4000244140625</ele>
        <time>2026-06-18T08:49:59.000Z</time>
        <extensions>
          <ns3:TrackPointExtension>
            <ns3:atemp>26.0</ns3:atemp>
          </ns3:TrackPointExtension>
        </extensions>
      </trkpt>
      <trkpt lat="42.52925944514572620391845703125" lon="19.76477771066129207611083984375">
        <ele>1675.4000244140625</ele>
        <time>2026-06-18T08:50:00.000Z</time>
        <extensions>
          <ns3:TrackPointExtension>
            <ns3:atemp>26.0</ns3:atemp>
          </ns3:TrackPointExtension>
        </extensions>
      </trkpt>
      <trkpt lat="42.52925944514572620391845703125" lon="19.76477771066129207611083984375">
        <ele>1675.4000244140625</ele>
        <time>2026-06-18T08:50:01.000Z</time>
        <extensions>
          <ns3:TrackPointExtension>
            <ns3:atemp>26.0</ns3:atemp>
          </ns3:TrackPointExtension>
        </extensions>
      </trkpt>
      <trkpt lat="42.52925944514572620391845703125" lon="19.76477771066129207611083984375">
        <ele>1675.4000244140625</ele>
        <time>2026-06-18T08:50:02.000Z</time>
        <extensions>
          <ns3:TrackPointExtension>
            <ns3:atemp>26.0</ns3:atemp>
          </ns3:TrackPointExtension>
        </extensions>
      </trkpt>
      <trkpt lat="42.52925944514572620391845703125" lon="19.76477771066129207611083984375">
        <ele>1675.4000244140625</ele>
        <time>2026-06-18T08:50:03.000Z</time>
        <extensions>
          <ns3:TrackPointExtension>
            <ns3:atemp>26.0</ns3:atemp>
          </ns3:TrackPointExtension>
        </extensions>
      </trkpt>
      <trkpt lat="42.52925944514572620391845703125" lon="19.76477771066129207611083984375">
        <ele>1675.4000244140625</ele>
        <time>2026-06-18T08:50:04.000Z</time>
        <extensions>
          <ns3:TrackPointExtension>
            <ns3:atemp>26.0</ns3:atemp>
          </ns3:TrackPointExtension>
        </extensions>
      </trkpt>
      <trkpt lat="42.52925944514572620391845703125" lon="19.76477771066129207611083984375">
        <ele>1675.4000244140625</ele>
        <time>2026-06-18T08:50:05.000Z</time>
        <extensions>
          <ns3:TrackPointExtension>
            <ns3:atemp>26.0</ns3:atemp>
          </ns3:TrackPointExtension>
        </extensions>
      </trkpt>
      <trkpt lat="42.52925944514572620391845703125" lon="19.76477771066129207611083984375">
        <ele>1675.4000244140625</ele>
        <time>2026-06-18T08:50:06.000Z</time>
        <extensions>
          <ns3:TrackPointExtension>
            <ns3:atemp>26.0</ns3:atemp>
          </ns3:TrackPointExtension>
        </extensions>
      </trkpt>
      <trkpt lat="42.52925944514572620391845703125" lon="19.76477771066129207611083984375">
        <ele>1675.4000244140625</ele>
        <time>2026-06-18T08:50:07.000Z</time>
        <extensions>
          <ns3:TrackPointExtension>
            <ns3:atemp>26.0</ns3:atemp>
          </ns3:TrackPointExtension>
        </extensions>
      </trkpt>
      <trkpt lat="42.52925944514572620391845703125" lon="19.76477771066129207611083984375">
        <ele>1675.4000244140625</ele>
        <time>2026-06-18T08:50:08.000Z</time>
        <extensions>
          <ns3:TrackPointExtension>
            <ns3:atemp>26.0</ns3:atemp>
          </ns3:TrackPointExtension>
        </extensions>
      </trkpt>
      <trkpt lat="42.52925944514572620391845703125" lon="19.76477771066129207611083984375">
        <ele>1675.4000244140625</ele>
        <time>2026-06-18T08:50:09.000Z</time>
        <extensions>
          <ns3:TrackPointExtension>
            <ns3:atemp>26.0</ns3:atemp>
          </ns3:TrackPointExtension>
        </extensions>
      </trkpt>
      <trkpt lat="42.52925944514572620391845703125" lon="19.76477771066129207611083984375">
        <ele>1675.4000244140625</ele>
        <time>2026-06-18T08:50:10.000Z</time>
        <extensions>
          <ns3:TrackPointExtension>
            <ns3:atemp>26.0</ns3:atemp>
          </ns3:TrackPointExtension>
        </extensions>
      </trkpt>
      <trkpt lat="42.52925944514572620391845703125" lon="19.76477771066129207611083984375">
        <ele>1675.4000244140625</ele>
        <time>2026-06-18T08:50:11.000Z</time>
        <extensions>
          <ns3:TrackPointExtension>
            <ns3:atemp>26.0</ns3:atemp>
          </ns3:TrackPointExtension>
        </extensions>
      </trkpt>
      <trkpt lat="42.52925944514572620391845703125" lon="19.76477771066129207611083984375">
        <ele>1675.4000244140625</ele>
        <time>2026-06-18T08:50:12.000Z</time>
        <extensions>
          <ns3:TrackPointExtension>
            <ns3:atemp>26.0</ns3:atemp>
          </ns3:TrackPointExtension>
        </extensions>
      </trkpt>
      <trkpt lat="42.52925944514572620391845703125" lon="19.76477771066129207611083984375">
        <ele>1675.4000244140625</ele>
        <time>2026-06-18T08:50:13.000Z</time>
        <extensions>
          <ns3:TrackPointExtension>
            <ns3:atemp>26.0</ns3:atemp>
          </ns3:TrackPointExtension>
        </extensions>
      </trkpt>
      <trkpt lat="42.52925944514572620391845703125" lon="19.76477771066129207611083984375">
        <ele>1675.4000244140625</ele>
        <time>2026-06-18T08:50:14.000Z</time>
        <extensions>
          <ns3:TrackPointExtension>
            <ns3:atemp>26.0</ns3:atemp>
          </ns3:TrackPointExtension>
        </extensions>
      </trkpt>
      <trkpt lat="42.52925944514572620391845703125" lon="19.76477771066129207611083984375">
        <ele>1675.4000244140625</ele>
        <time>2026-06-18T08:50:15.000Z</time>
        <extensions>
          <ns3:TrackPointExtension>
            <ns3:atemp>26.0</ns3:atemp>
          </ns3:TrackPointExtension>
        </extensions>
      </trkpt>
      <trkpt lat="42.52925944514572620391845703125" lon="19.76477771066129207611083984375">
        <ele>1675.4000244140625</ele>
        <time>2026-06-18T08:50:16.000Z</time>
        <extensions>
          <ns3:TrackPointExtension>
            <ns3:atemp>26.0</ns3:atemp>
          </ns3:TrackPointExtension>
        </extensions>
      </trkpt>
      <trkpt lat="42.52925944514572620391845703125" lon="19.76477771066129207611083984375">
        <ele>1675.4000244140625</ele>
        <time>2026-06-18T08:50:17.000Z</time>
        <extensions>
          <ns3:TrackPointExtension>
            <ns3:atemp>26.0</ns3:atemp>
          </ns3:TrackPointExtension>
        </extensions>
      </trkpt>
      <trkpt lat="42.52925944514572620391845703125" lon="19.76477771066129207611083984375">
        <ele>1675.4000244140625</ele>
        <time>2026-06-18T08:50:18.000Z</time>
        <extensions>
          <ns3:TrackPointExtension>
            <ns3:atemp>26.0</ns3:atemp>
          </ns3:TrackPointExtension>
        </extensions>
      </trkpt>
      <trkpt lat="42.52925944514572620391845703125" lon="19.76477771066129207611083984375">
        <ele>1675.4000244140625</ele>
        <time>2026-06-18T08:50:19.000Z</time>
        <extensions>
          <ns3:TrackPointExtension>
            <ns3:atemp>26.0</ns3:atemp>
          </ns3:TrackPointExtension>
        </extensions>
      </trkpt>
      <trkpt lat="42.52925944514572620391845703125" lon="19.76477771066129207611083984375">
        <ele>1675.4000244140625</ele>
        <time>2026-06-18T08:50:20.000Z</time>
        <extensions>
          <ns3:TrackPointExtension>
            <ns3:atemp>26.0</ns3:atemp>
          </ns3:TrackPointExtension>
        </extensions>
      </trkpt>
      <trkpt lat="42.52925944514572620391845703125" lon="19.76477771066129207611083984375">
        <ele>1675.4000244140625</ele>
        <time>2026-06-18T08:50:21.000Z</time>
        <extensions>
          <ns3:TrackPointExtension>
            <ns3:atemp>26.0</ns3:atemp>
          </ns3:TrackPointExtension>
        </extensions>
      </trkpt>
      <trkpt lat="42.52925944514572620391845703125" lon="19.76477771066129207611083984375">
        <ele>1675.4000244140625</ele>
        <time>2026-06-18T08:50:22.000Z</time>
        <extensions>
          <ns3:TrackPointExtension>
            <ns3:atemp>26.0</ns3:atemp>
          </ns3:TrackPointExtension>
        </extensions>
      </trkpt>
      <trkpt lat="42.52925944514572620391845703125" lon="19.76477771066129207611083984375">
        <ele>1675.4000244140625</ele>
        <time>2026-06-18T08:50:23.000Z</time>
        <extensions>
          <ns3:TrackPointExtension>
            <ns3:atemp>26.0</ns3:atemp>
          </ns3:TrackPointExtension>
        </extensions>
      </trkpt>
      <trkpt lat="42.52925944514572620391845703125" lon="19.76477771066129207611083984375">
        <ele>1675.4000244140625</ele>
        <time>2026-06-18T08:50:24.000Z</time>
        <extensions>
          <ns3:TrackPointExtension>
            <ns3:atemp>26.0</ns3:atemp>
          </ns3:TrackPointExtension>
        </extensions>
      </trkpt>
      <trkpt lat="42.52925944514572620391845703125" lon="19.76477771066129207611083984375">
        <ele>1675.4000244140625</ele>
        <time>2026-06-18T08:50:25.000Z</time>
        <extensions>
          <ns3:TrackPointExtension>
            <ns3:atemp>26.0</ns3:atemp>
          </ns3:TrackPointExtension>
        </extensions>
      </trkpt>
      <trkpt lat="42.52925944514572620391845703125" lon="19.76477771066129207611083984375">
        <ele>1675.4000244140625</ele>
        <time>2026-06-18T08:50:26.000Z</time>
        <extensions>
          <ns3:TrackPointExtension>
            <ns3:atemp>26.0</ns3:atemp>
          </ns3:TrackPointExtension>
        </extensions>
      </trkpt>
      <trkpt lat="42.52925944514572620391845703125" lon="19.76477771066129207611083984375">
        <ele>1675.4000244140625</ele>
        <time>2026-06-18T08:50:27.000Z</time>
        <extensions>
          <ns3:TrackPointExtension>
            <ns3:atemp>26.0</ns3:atemp>
          </ns3:TrackPointExtension>
        </extensions>
      </trkpt>
      <trkpt lat="42.52925944514572620391845703125" lon="19.76477771066129207611083984375">
        <ele>1675.4000244140625</ele>
        <time>2026-06-18T08:50:28.000Z</time>
        <extensions>
          <ns3:TrackPointExtension>
            <ns3:atemp>26.0</ns3:atemp>
          </ns3:TrackPointExtension>
        </extensions>
      </trkpt>
      <trkpt lat="42.52925944514572620391845703125" lon="19.76477771066129207611083984375">
        <ele>1675.4000244140625</ele>
        <time>2026-06-18T08:50:29.000Z</time>
        <extensions>
          <ns3:TrackPointExtension>
            <ns3:atemp>26.0</ns3:atemp>
          </ns3:TrackPointExtension>
        </extensions>
      </trkpt>
      <trkpt lat="42.52925944514572620391845703125" lon="19.76477771066129207611083984375">
        <ele>1675.4000244140625</ele>
        <time>2026-06-18T08:50:30.000Z</time>
        <extensions>
          <ns3:TrackPointExtension>
            <ns3:atemp>26.0</ns3:atemp>
          </ns3:TrackPointExtension>
        </extensions>
      </trkpt>
      <trkpt lat="42.52925944514572620391845703125" lon="19.76477771066129207611083984375">
        <ele>1675.4000244140625</ele>
        <time>2026-06-18T08:50:31.000Z</time>
        <extensions>
          <ns3:TrackPointExtension>
            <ns3:atemp>26.0</ns3:atemp>
          </ns3:TrackPointExtension>
        </extensions>
      </trkpt>
      <trkpt lat="42.52925944514572620391845703125" lon="19.76477771066129207611083984375">
        <ele>1675.4000244140625</ele>
        <time>2026-06-18T08:50:32.000Z</time>
        <extensions>
          <ns3:TrackPointExtension>
            <ns3:atemp>26.0</ns3:atemp>
          </ns3:TrackPointExtension>
        </extensions>
      </trkpt>
      <trkpt lat="42.52925944514572620391845703125" lon="19.76477771066129207611083984375">
        <ele>1675.4000244140625</ele>
        <time>2026-06-18T08:50:33.000Z</time>
        <extensions>
          <ns3:TrackPointExtension>
            <ns3:atemp>26.0</ns3:atemp>
          </ns3:TrackPointExtension>
        </extensions>
      </trkpt>
      <trkpt lat="42.52925944514572620391845703125" lon="19.76477771066129207611083984375">
        <ele>1675.4000244140625</ele>
        <time>2026-06-18T08:50:34.000Z</time>
        <extensions>
          <ns3:TrackPointExtension>
            <ns3:atemp>26.0</ns3:atemp>
          </ns3:TrackPointExtension>
        </extensions>
      </trkpt>
      <trkpt lat="42.52925944514572620391845703125" lon="19.76477771066129207611083984375">
        <ele>1675.4000244140625</ele>
        <time>2026-06-18T08:50:35.000Z</time>
        <extensions>
          <ns3:TrackPointExtension>
            <ns3:atemp>26.0</ns3:atemp>
          </ns3:TrackPointExtension>
        </extensions>
      </trkpt>
      <trkpt lat="42.52925944514572620391845703125" lon="19.76477771066129207611083984375">
        <ele>1675.4000244140625</ele>
        <time>2026-06-18T08:50:36.000Z</time>
        <extensions>
          <ns3:TrackPointExtension>
            <ns3:atemp>26.0</ns3:atemp>
          </ns3:TrackPointExtension>
        </extensions>
      </trkpt>
      <trkpt lat="42.52925944514572620391845703125" lon="19.76477771066129207611083984375">
        <ele>1675.4000244140625</ele>
        <time>2026-06-18T08:50:37.000Z</time>
        <extensions>
          <ns3:TrackPointExtension>
            <ns3:atemp>26.0</ns3:atemp>
          </ns3:TrackPointExtension>
        </extensions>
      </trkpt>
      <trkpt lat="42.52925944514572620391845703125" lon="19.76477771066129207611083984375">
        <ele>1675.4000244140625</ele>
        <time>2026-06-18T08:50:38.000Z</time>
        <extensions>
          <ns3:TrackPointExtension>
            <ns3:atemp>26.0</ns3:atemp>
          </ns3:TrackPointExtension>
        </extensions>
      </trkpt>
      <trkpt lat="42.52925944514572620391845703125" lon="19.76477771066129207611083984375">
        <ele>1675.4000244140625</ele>
        <time>2026-06-18T08:50:39.000Z</time>
        <extensions>
          <ns3:TrackPointExtension>
            <ns3:atemp>26.0</ns3:atemp>
          </ns3:TrackPointExtension>
        </extensions>
      </trkpt>
      <trkpt lat="42.52925944514572620391845703125" lon="19.76477771066129207611083984375">
        <ele>1675.4000244140625</ele>
        <time>2026-06-18T08:50:40.000Z</time>
        <extensions>
          <ns3:TrackPointExtension>
            <ns3:atemp>26.0</ns3:atemp>
          </ns3:TrackPointExtension>
        </extensions>
      </trkpt>
      <trkpt lat="42.52925944514572620391845703125" lon="19.76477771066129207611083984375">
        <ele>1675.4000244140625</ele>
        <time>2026-06-18T08:50:41.000Z</time>
        <extensions>
          <ns3:TrackPointExtension>
            <ns3:atemp>26.0</ns3:atemp>
          </ns3:TrackPointExtension>
        </extensions>
      </trkpt>
      <trkpt lat="42.52925944514572620391845703125" lon="19.76477771066129207611083984375">
        <ele>1675.4000244140625</ele>
        <time>2026-06-18T08:50:42.000Z</time>
        <extensions>
          <ns3:TrackPointExtension>
            <ns3:atemp>26.0</ns3:atemp>
          </ns3:TrackPointExtension>
        </extensions>
      </trkpt>
      <trkpt lat="42.52925944514572620391845703125" lon="19.76477771066129207611083984375">
        <ele>1675.4000244140625</ele>
        <time>2026-06-18T08:50:43.000Z</time>
        <extensions>
          <ns3:TrackPointExtension>
            <ns3:atemp>26.0</ns3:atemp>
          </ns3:TrackPointExtension>
        </extensions>
      </trkpt>
      <trkpt lat="42.52925944514572620391845703125" lon="19.76477771066129207611083984375">
        <ele>1675.4000244140625</ele>
        <time>2026-06-18T08:50:44.000Z</time>
        <extensions>
          <ns3:TrackPointExtension>
            <ns3:atemp>26.0</ns3:atemp>
          </ns3:TrackPointExtension>
        </extensions>
      </trkpt>
      <trkpt lat="42.52925944514572620391845703125" lon="19.76477771066129207611083984375">
        <ele>1675.4000244140625</ele>
        <time>2026-06-18T08:50:45.000Z</time>
        <extensions>
          <ns3:TrackPointExtension>
            <ns3:atemp>26.0</ns3:atemp>
          </ns3:TrackPointExtension>
        </extensions>
      </trkpt>
      <trkpt lat="42.52925944514572620391845703125" lon="19.76477771066129207611083984375">
        <ele>1675.4000244140625</ele>
        <time>2026-06-18T08:50:46.000Z</time>
        <extensions>
          <ns3:TrackPointExtension>
            <ns3:atemp>26.0</ns3:atemp>
          </ns3:TrackPointExtension>
        </extensions>
      </trkpt>
      <trkpt lat="42.52925944514572620391845703125" lon="19.76477771066129207611083984375">
        <ele>1675.4000244140625</ele>
        <time>2026-06-18T08:50:47.000Z</time>
        <extensions>
          <ns3:TrackPointExtension>
            <ns3:atemp>26.0</ns3:atemp>
          </ns3:TrackPointExtension>
        </extensions>
      </trkpt>
      <trkpt lat="42.52925944514572620391845703125" lon="19.76477771066129207611083984375">
        <ele>1675.4000244140625</ele>
        <time>2026-06-18T08:50:48.000Z</time>
        <extensions>
          <ns3:TrackPointExtension>
            <ns3:atemp>26.0</ns3:atemp>
          </ns3:TrackPointExtension>
        </extensions>
      </trkpt>
      <trkpt lat="42.52925944514572620391845703125" lon="19.76477771066129207611083984375">
        <ele>1675.4000244140625</ele>
        <time>2026-06-18T08:50:49.000Z</time>
        <extensions>
          <ns3:TrackPointExtension>
            <ns3:atemp>26.0</ns3:atemp>
          </ns3:TrackPointExtension>
        </extensions>
      </trkpt>
      <trkpt lat="42.52925944514572620391845703125" lon="19.76477771066129207611083984375">
        <ele>1675.4000244140625</ele>
        <time>2026-06-18T08:50:50.000Z</time>
        <extensions>
          <ns3:TrackPointExtension>
            <ns3:atemp>26.0</ns3:atemp>
          </ns3:TrackPointExtension>
        </extensions>
      </trkpt>
      <trkpt lat="42.52925944514572620391845703125" lon="19.76477771066129207611083984375">
        <ele>1675.4000244140625</ele>
        <time>2026-06-18T08:50:51.000Z</time>
        <extensions>
          <ns3:TrackPointExtension>
            <ns3:atemp>26.0</ns3:atemp>
          </ns3:TrackPointExtension>
        </extensions>
      </trkpt>
      <trkpt lat="42.52925944514572620391845703125" lon="19.76477771066129207611083984375">
        <ele>1675.4000244140625</ele>
        <time>2026-06-18T08:50:52.000Z</time>
        <extensions>
          <ns3:TrackPointExtension>
            <ns3:atemp>26.0</ns3:atemp>
          </ns3:TrackPointExtension>
        </extensions>
      </trkpt>
      <trkpt lat="42.52925944514572620391845703125" lon="19.76477771066129207611083984375">
        <ele>1675.4000244140625</ele>
        <time>2026-06-18T08:50:53.000Z</time>
        <extensions>
          <ns3:TrackPointExtension>
            <ns3:atemp>26.0</ns3:atemp>
          </ns3:TrackPointExtension>
        </extensions>
      </trkpt>
      <trkpt lat="42.52925944514572620391845703125" lon="19.76477771066129207611083984375">
        <ele>1675.4000244140625</ele>
        <time>2026-06-18T08:50:54.000Z</time>
        <extensions>
          <ns3:TrackPointExtension>
            <ns3:atemp>26.0</ns3:atemp>
          </ns3:TrackPointExtension>
        </extensions>
      </trkpt>
      <trkpt lat="42.52925944514572620391845703125" lon="19.76477771066129207611083984375">
        <ele>1675.4000244140625</ele>
        <time>2026-06-18T08:50:55.000Z</time>
        <extensions>
          <ns3:TrackPointExtension>
            <ns3:atemp>26.0</ns3:atemp>
          </ns3:TrackPointExtension>
        </extensions>
      </trkpt>
      <trkpt lat="42.52925944514572620391845703125" lon="19.76477771066129207611083984375">
        <ele>1675.4000244140625</ele>
        <time>2026-06-18T08:50:56.000Z</time>
        <extensions>
          <ns3:TrackPointExtension>
            <ns3:atemp>26.0</ns3:atemp>
          </ns3:TrackPointExtension>
        </extensions>
      </trkpt>
      <trkpt lat="42.52925944514572620391845703125" lon="19.76477771066129207611083984375">
        <ele>1675.4000244140625</ele>
        <time>2026-06-18T08:50:57.000Z</time>
        <extensions>
          <ns3:TrackPointExtension>
            <ns3:atemp>26.0</ns3:atemp>
          </ns3:TrackPointExtension>
        </extensions>
      </trkpt>
      <trkpt lat="42.52925944514572620391845703125" lon="19.76477771066129207611083984375">
        <ele>1675.4000244140625</ele>
        <time>2026-06-18T08:50:58.000Z</time>
        <extensions>
          <ns3:TrackPointExtension>
            <ns3:atemp>26.0</ns3:atemp>
          </ns3:TrackPointExtension>
        </extensions>
      </trkpt>
      <trkpt lat="42.52925944514572620391845703125" lon="19.76477771066129207611083984375">
        <ele>1675.4000244140625</ele>
        <time>2026-06-18T08:50:59.000Z</time>
        <extensions>
          <ns3:TrackPointExtension>
            <ns3:atemp>26.0</ns3:atemp>
          </ns3:TrackPointExtension>
        </extensions>
      </trkpt>
      <trkpt lat="42.52925944514572620391845703125" lon="19.76477771066129207611083984375">
        <ele>1675.4000244140625</ele>
        <time>2026-06-18T08:51:00.000Z</time>
        <extensions>
          <ns3:TrackPointExtension>
            <ns3:atemp>26.0</ns3:atemp>
          </ns3:TrackPointExtension>
        </extensions>
      </trkpt>
      <trkpt lat="42.52925944514572620391845703125" lon="19.76477771066129207611083984375">
        <ele>1675.4000244140625</ele>
        <time>2026-06-18T08:51:01.000Z</time>
        <extensions>
          <ns3:TrackPointExtension>
            <ns3:atemp>26.0</ns3:atemp>
          </ns3:TrackPointExtension>
        </extensions>
      </trkpt>
      <trkpt lat="42.52925944514572620391845703125" lon="19.76477771066129207611083984375">
        <ele>1675.4000244140625</ele>
        <time>2026-06-18T08:51:02.000Z</time>
        <extensions>
          <ns3:TrackPointExtension>
            <ns3:atemp>26.0</ns3:atemp>
          </ns3:TrackPointExtension>
        </extensions>
      </trkpt>
      <trkpt lat="42.52925944514572620391845703125" lon="19.76477771066129207611083984375">
        <ele>1675.4000244140625</ele>
        <time>2026-06-18T08:51:03.000Z</time>
        <extensions>
          <ns3:TrackPointExtension>
            <ns3:atemp>26.0</ns3:atemp>
          </ns3:TrackPointExtension>
        </extensions>
      </trkpt>
      <trkpt lat="42.52925944514572620391845703125" lon="19.76477771066129207611083984375">
        <ele>1675.4000244140625</ele>
        <time>2026-06-18T08:51:04.000Z</time>
        <extensions>
          <ns3:TrackPointExtension>
            <ns3:atemp>26.0</ns3:atemp>
          </ns3:TrackPointExtension>
        </extensions>
      </trkpt>
      <trkpt lat="42.52925944514572620391845703125" lon="19.76477771066129207611083984375">
        <ele>1675.4000244140625</ele>
        <time>2026-06-18T08:51:05.000Z</time>
        <extensions>
          <ns3:TrackPointExtension>
            <ns3:atemp>26.0</ns3:atemp>
          </ns3:TrackPointExtension>
        </extensions>
      </trkpt>
      <trkpt lat="42.52925944514572620391845703125" lon="19.76477771066129207611083984375">
        <ele>1675.4000244140625</ele>
        <time>2026-06-18T08:51:06.000Z</time>
        <extensions>
          <ns3:TrackPointExtension>
            <ns3:atemp>26.0</ns3:atemp>
          </ns3:TrackPointExtension>
        </extensions>
      </trkpt>
      <trkpt lat="42.52925944514572620391845703125" lon="19.76477771066129207611083984375">
        <ele>1675.4000244140625</ele>
        <time>2026-06-18T08:51:07.000Z</time>
        <extensions>
          <ns3:TrackPointExtension>
            <ns3:atemp>26.0</ns3:atemp>
          </ns3:TrackPointExtension>
        </extensions>
      </trkpt>
      <trkpt lat="42.52925944514572620391845703125" lon="19.76477771066129207611083984375">
        <ele>1675.4000244140625</ele>
        <time>2026-06-18T08:51:08.000Z</time>
        <extensions>
          <ns3:TrackPointExtension>
            <ns3:atemp>26.0</ns3:atemp>
          </ns3:TrackPointExtension>
        </extensions>
      </trkpt>
      <trkpt lat="42.52925944514572620391845703125" lon="19.76477771066129207611083984375">
        <ele>1675.4000244140625</ele>
        <time>2026-06-18T08:51:09.000Z</time>
        <extensions>
          <ns3:TrackPointExtension>
            <ns3:atemp>26.0</ns3:atemp>
          </ns3:TrackPointExtension>
        </extensions>
      </trkpt>
      <trkpt lat="42.52925944514572620391845703125" lon="19.76477771066129207611083984375">
        <ele>1675.4000244140625</ele>
        <time>2026-06-18T08:51:10.000Z</time>
        <extensions>
          <ns3:TrackPointExtension>
            <ns3:atemp>26.0</ns3:atemp>
          </ns3:TrackPointExtension>
        </extensions>
      </trkpt>
      <trkpt lat="42.52925944514572620391845703125" lon="19.76477771066129207611083984375">
        <ele>1675.4000244140625</ele>
        <time>2026-06-18T08:51:11.000Z</time>
        <extensions>
          <ns3:TrackPointExtension>
            <ns3:atemp>26.0</ns3:atemp>
          </ns3:TrackPointExtension>
        </extensions>
      </trkpt>
      <trkpt lat="42.52925944514572620391845703125" lon="19.76477771066129207611083984375">
        <ele>1675.4000244140625</ele>
        <time>2026-06-18T08:51:12.000Z</time>
        <extensions>
          <ns3:TrackPointExtension>
            <ns3:atemp>26.0</ns3:atemp>
          </ns3:TrackPointExtension>
        </extensions>
      </trkpt>
      <trkpt lat="42.52925944514572620391845703125" lon="19.76477771066129207611083984375">
        <ele>1675.4000244140625</ele>
        <time>2026-06-18T08:51:13.000Z</time>
        <extensions>
          <ns3:TrackPointExtension>
            <ns3:atemp>26.0</ns3:atemp>
          </ns3:TrackPointExtension>
        </extensions>
      </trkpt>
      <trkpt lat="42.52925944514572620391845703125" lon="19.76477771066129207611083984375">
        <ele>1675.4000244140625</ele>
        <time>2026-06-18T08:51:14.000Z</time>
        <extensions>
          <ns3:TrackPointExtension>
            <ns3:atemp>26.0</ns3:atemp>
          </ns3:TrackPointExtension>
        </extensions>
      </trkpt>
      <trkpt lat="42.52925944514572620391845703125" lon="19.76477771066129207611083984375">
        <ele>1675.4000244140625</ele>
        <time>2026-06-18T08:51:15.000Z</time>
        <extensions>
          <ns3:TrackPointExtension>
            <ns3:atemp>26.0</ns3:atemp>
          </ns3:TrackPointExtension>
        </extensions>
      </trkpt>
      <trkpt lat="42.52925944514572620391845703125" lon="19.76477771066129207611083984375">
        <ele>1675.4000244140625</ele>
        <time>2026-06-18T08:51:16.000Z</time>
        <extensions>
          <ns3:TrackPointExtension>
            <ns3:atemp>26.0</ns3:atemp>
          </ns3:TrackPointExtension>
        </extensions>
      </trkpt>
      <trkpt lat="42.52925944514572620391845703125" lon="19.76477771066129207611083984375">
        <ele>1675.4000244140625</ele>
        <time>2026-06-18T08:51:17.000Z</time>
        <extensions>
          <ns3:TrackPointExtension>
            <ns3:atemp>26.0</ns3:atemp>
          </ns3:TrackPointExtension>
        </extensions>
      </trkpt>
      <trkpt lat="42.52925944514572620391845703125" lon="19.76477771066129207611083984375">
        <ele>1675.4000244140625</ele>
        <time>2026-06-18T08:51:18.000Z</time>
        <extensions>
          <ns3:TrackPointExtension>
            <ns3:atemp>26.0</ns3:atemp>
          </ns3:TrackPointExtension>
        </extensions>
      </trkpt>
      <trkpt lat="42.52925944514572620391845703125" lon="19.76477771066129207611083984375">
        <ele>1675.4000244140625</ele>
        <time>2026-06-18T08:51:19.000Z</time>
        <extensions>
          <ns3:TrackPointExtension>
            <ns3:atemp>26.0</ns3:atemp>
          </ns3:TrackPointExtension>
        </extensions>
      </trkpt>
      <trkpt lat="42.52925944514572620391845703125" lon="19.76477771066129207611083984375">
        <ele>1675.4000244140625</ele>
        <time>2026-06-18T08:51:20.000Z</time>
        <extensions>
          <ns3:TrackPointExtension>
            <ns3:atemp>26.0</ns3:atemp>
          </ns3:TrackPointExtension>
        </extensions>
      </trkpt>
      <trkpt lat="42.52925944514572620391845703125" lon="19.76477771066129207611083984375">
        <ele>1675.4000244140625</ele>
        <time>2026-06-18T08:51:21.000Z</time>
        <extensions>
          <ns3:TrackPointExtension>
            <ns3:atemp>26.0</ns3:atemp>
          </ns3:TrackPointExtension>
        </extensions>
      </trkpt>
      <trkpt lat="42.52925944514572620391845703125" lon="19.76477771066129207611083984375">
        <ele>1675.4000244140625</ele>
        <time>2026-06-18T08:51:22.000Z</time>
        <extensions>
          <ns3:TrackPointExtension>
            <ns3:atemp>26.0</ns3:atemp>
          </ns3:TrackPointExtension>
        </extensions>
      </trkpt>
      <trkpt lat="42.52925944514572620391845703125" lon="19.76477771066129207611083984375">
        <ele>1675.4000244140625</ele>
        <time>2026-06-18T08:51:23.000Z</time>
        <extensions>
          <ns3:TrackPointExtension>
            <ns3:atemp>26.0</ns3:atemp>
          </ns3:TrackPointExtension>
        </extensions>
      </trkpt>
      <trkpt lat="42.52925944514572620391845703125" lon="19.76477771066129207611083984375">
        <ele>1675.4000244140625</ele>
        <time>2026-06-18T08:51:24.000Z</time>
        <extensions>
          <ns3:TrackPointExtension>
            <ns3:atemp>26.0</ns3:atemp>
          </ns3:TrackPointExtension>
        </extensions>
      </trkpt>
      <trkpt lat="42.52925944514572620391845703125" lon="19.76477771066129207611083984375">
        <ele>1675.4000244140625</ele>
        <time>2026-06-18T08:51:25.000Z</time>
        <extensions>
          <ns3:TrackPointExtension>
            <ns3:atemp>26.0</ns3:atemp>
          </ns3:TrackPointExtension>
        </extensions>
      </trkpt>
      <trkpt lat="42.52925944514572620391845703125" lon="19.76477771066129207611083984375">
        <ele>1675.4000244140625</ele>
        <time>2026-06-18T08:51:26.000Z</time>
        <extensions>
          <ns3:TrackPointExtension>
            <ns3:atemp>26.0</ns3:atemp>
          </ns3:TrackPointExtension>
        </extensions>
      </trkpt>
      <trkpt lat="42.52925944514572620391845703125" lon="19.76477771066129207611083984375">
        <ele>1675.4000244140625</ele>
        <time>2026-06-18T08:51:27.000Z</time>
        <extensions>
          <ns3:TrackPointExtension>
            <ns3:atemp>26.0</ns3:atemp>
          </ns3:TrackPointExtension>
        </extensions>
      </trkpt>
      <trkpt lat="42.52925944514572620391845703125" lon="19.76477771066129207611083984375">
        <ele>1675.4000244140625</ele>
        <time>2026-06-18T08:51:28.000Z</time>
        <extensions>
          <ns3:TrackPointExtension>
            <ns3:atemp>26.0</ns3:atemp>
          </ns3:TrackPointExtension>
        </extensions>
      </trkpt>
      <trkpt lat="42.52925944514572620391845703125" lon="19.76477771066129207611083984375">
        <ele>1675.4000244140625</ele>
        <time>2026-06-18T08:51:29.000Z</time>
        <extensions>
          <ns3:TrackPointExtension>
            <ns3:atemp>26.0</ns3:atemp>
          </ns3:TrackPointExtension>
        </extensions>
      </trkpt>
      <trkpt lat="42.52925944514572620391845703125" lon="19.76477771066129207611083984375">
        <ele>1675.4000244140625</ele>
        <time>2026-06-18T08:51:30.000Z</time>
        <extensions>
          <ns3:TrackPointExtension>
            <ns3:atemp>26.0</ns3:atemp>
          </ns3:TrackPointExtension>
        </extensions>
      </trkpt>
      <trkpt lat="42.52925944514572620391845703125" lon="19.76477771066129207611083984375">
        <ele>1675.4000244140625</ele>
        <time>2026-06-18T08:51:31.000Z</time>
        <extensions>
          <ns3:TrackPointExtension>
            <ns3:atemp>26.0</ns3:atemp>
          </ns3:TrackPointExtension>
        </extensions>
      </trkpt>
      <trkpt lat="42.52925944514572620391845703125" lon="19.76477771066129207611083984375">
        <ele>1675.4000244140625</ele>
        <time>2026-06-18T08:51:32.000Z</time>
        <extensions>
          <ns3:TrackPointExtension>
            <ns3:atemp>26.0</ns3:atemp>
          </ns3:TrackPointExtension>
        </extensions>
      </trkpt>
      <trkpt lat="42.52925944514572620391845703125" lon="19.76477771066129207611083984375">
        <ele>1675.4000244140625</ele>
        <time>2026-06-18T08:51:33.000Z</time>
        <extensions>
          <ns3:TrackPointExtension>
            <ns3:atemp>26.0</ns3:atemp>
          </ns3:TrackPointExtension>
        </extensions>
      </trkpt>
      <trkpt lat="42.52925944514572620391845703125" lon="19.76477771066129207611083984375">
        <ele>1675.4000244140625</ele>
        <time>2026-06-18T08:51:34.000Z</time>
        <extensions>
          <ns3:TrackPointExtension>
            <ns3:atemp>26.0</ns3:atemp>
          </ns3:TrackPointExtension>
        </extensions>
      </trkpt>
      <trkpt lat="42.52925944514572620391845703125" lon="19.76477771066129207611083984375">
        <ele>1675.4000244140625</ele>
        <time>2026-06-18T08:51:35.000Z</time>
        <extensions>
          <ns3:TrackPointExtension>
            <ns3:atemp>26.0</ns3:atemp>
          </ns3:TrackPointExtension>
        </extensions>
      </trkpt>
      <trkpt lat="42.52925944514572620391845703125" lon="19.76477771066129207611083984375">
        <ele>1675.4000244140625</ele>
        <time>2026-06-18T08:51:36.000Z</time>
        <extensions>
          <ns3:TrackPointExtension>
            <ns3:atemp>26.0</ns3:atemp>
          </ns3:TrackPointExtension>
        </extensions>
      </trkpt>
      <trkpt lat="42.52925944514572620391845703125" lon="19.76477771066129207611083984375">
        <ele>1675.4000244140625</ele>
        <time>2026-06-18T08:51:37.000Z</time>
        <extensions>
          <ns3:TrackPointExtension>
            <ns3:atemp>26.0</ns3:atemp>
          </ns3:TrackPointExtension>
        </extensions>
      </trkpt>
      <trkpt lat="42.52925944514572620391845703125" lon="19.76477771066129207611083984375">
        <ele>1675.4000244140625</ele>
        <time>2026-06-18T08:51:38.000Z</time>
        <extensions>
          <ns3:TrackPointExtension>
            <ns3:atemp>26.0</ns3:atemp>
          </ns3:TrackPointExtension>
        </extensions>
      </trkpt>
      <trkpt lat="42.52925944514572620391845703125" lon="19.76477771066129207611083984375">
        <ele>1675.4000244140625</ele>
        <time>2026-06-18T08:51:39.000Z</time>
        <extensions>
          <ns3:TrackPointExtension>
            <ns3:atemp>26.0</ns3:atemp>
          </ns3:TrackPointExtension>
        </extensions>
      </trkpt>
      <trkpt lat="42.52925944514572620391845703125" lon="19.76477771066129207611083984375">
        <ele>1675.4000244140625</ele>
        <time>2026-06-18T08:51:40.000Z</time>
        <extensions>
          <ns3:TrackPointExtension>
            <ns3:atemp>26.0</ns3:atemp>
          </ns3:TrackPointExtension>
        </extensions>
      </trkpt>
      <trkpt lat="42.52925944514572620391845703125" lon="19.76477771066129207611083984375">
        <ele>1675.4000244140625</ele>
        <time>2026-06-18T08:51:41.000Z</time>
        <extensions>
          <ns3:TrackPointExtension>
            <ns3:atemp>26.0</ns3:atemp>
          </ns3:TrackPointExtension>
        </extensions>
      </trkpt>
      <trkpt lat="42.52925944514572620391845703125" lon="19.76477771066129207611083984375">
        <ele>1675.4000244140625</ele>
        <time>2026-06-18T08:51:42.000Z</time>
        <extensions>
          <ns3:TrackPointExtension>
            <ns3:atemp>26.0</ns3:atemp>
          </ns3:TrackPointExtension>
        </extensions>
      </trkpt>
      <trkpt lat="42.52925944514572620391845703125" lon="19.76477771066129207611083984375">
        <ele>1675.4000244140625</ele>
        <time>2026-06-18T08:51:43.000Z</time>
        <extensions>
          <ns3:TrackPointExtension>
            <ns3:atemp>26.0</ns3:atemp>
          </ns3:TrackPointExtension>
        </extensions>
      </trkpt>
      <trkpt lat="42.52925944514572620391845703125" lon="19.76477771066129207611083984375">
        <ele>1675.4000244140625</ele>
        <time>2026-06-18T08:51:44.000Z</time>
        <extensions>
          <ns3:TrackPointExtension>
            <ns3:atemp>26.0</ns3:atemp>
          </ns3:TrackPointExtension>
        </extensions>
      </trkpt>
      <trkpt lat="42.52925944514572620391845703125" lon="19.76477771066129207611083984375">
        <ele>1675.4000244140625</ele>
        <time>2026-06-18T08:51:45.000Z</time>
        <extensions>
          <ns3:TrackPointExtension>
            <ns3:atemp>26.0</ns3:atemp>
          </ns3:TrackPointExtension>
        </extensions>
      </trkpt>
      <trkpt lat="42.52925944514572620391845703125" lon="19.76477771066129207611083984375">
        <ele>1675.4000244140625</ele>
        <time>2026-06-18T08:51:46.000Z</time>
        <extensions>
          <ns3:TrackPointExtension>
            <ns3:atemp>26.0</ns3:atemp>
          </ns3:TrackPointExtension>
        </extensions>
      </trkpt>
      <trkpt lat="42.52925944514572620391845703125" lon="19.76477771066129207611083984375">
        <ele>1675.4000244140625</ele>
        <time>2026-06-18T08:51:47.000Z</time>
        <extensions>
          <ns3:TrackPointExtension>
            <ns3:atemp>26.0</ns3:atemp>
          </ns3:TrackPointExtension>
        </extensions>
      </trkpt>
      <trkpt lat="42.52925944514572620391845703125" lon="19.76477771066129207611083984375">
        <ele>1675.4000244140625</ele>
        <time>2026-06-18T08:51:48.000Z</time>
        <extensions>
          <ns3:TrackPointExtension>
            <ns3:atemp>26.0</ns3:atemp>
          </ns3:TrackPointExtension>
        </extensions>
      </trkpt>
      <trkpt lat="42.52925944514572620391845703125" lon="19.76477771066129207611083984375">
        <ele>1675.4000244140625</ele>
        <time>2026-06-18T08:51:49.000Z</time>
        <extensions>
          <ns3:TrackPointExtension>
            <ns3:atemp>26.0</ns3:atemp>
          </ns3:TrackPointExtension>
        </extensions>
      </trkpt>
      <trkpt lat="42.52925944514572620391845703125" lon="19.76477771066129207611083984375">
        <ele>1675.4000244140625</ele>
        <time>2026-06-18T08:51:50.000Z</time>
        <extensions>
          <ns3:TrackPointExtension>
            <ns3:atemp>26.0</ns3:atemp>
          </ns3:TrackPointExtension>
        </extensions>
      </trkpt>
      <trkpt lat="42.52925944514572620391845703125" lon="19.76477771066129207611083984375">
        <ele>1675.4000244140625</ele>
        <time>2026-06-18T08:51:51.000Z</time>
        <extensions>
          <ns3:TrackPointExtension>
            <ns3:atemp>26.0</ns3:atemp>
          </ns3:TrackPointExtension>
        </extensions>
      </trkpt>
      <trkpt lat="42.52925944514572620391845703125" lon="19.76477771066129207611083984375">
        <ele>1675.4000244140625</ele>
        <time>2026-06-18T08:51:52.000Z</time>
        <extensions>
          <ns3:TrackPointExtension>
            <ns3:atemp>26.0</ns3:atemp>
          </ns3:TrackPointExtension>
        </extensions>
      </trkpt>
      <trkpt lat="42.52925944514572620391845703125" lon="19.76477771066129207611083984375">
        <ele>1675.4000244140625</ele>
        <time>2026-06-18T08:51:53.000Z</time>
        <extensions>
          <ns3:TrackPointExtension>
            <ns3:atemp>26.0</ns3:atemp>
          </ns3:TrackPointExtension>
        </extensions>
      </trkpt>
      <trkpt lat="42.52925944514572620391845703125" lon="19.76477771066129207611083984375">
        <ele>1675.4000244140625</ele>
        <time>2026-06-18T08:51:54.000Z</time>
        <extensions>
          <ns3:TrackPointExtension>
            <ns3:atemp>26.0</ns3:atemp>
          </ns3:TrackPointExtension>
        </extensions>
      </trkpt>
      <trkpt lat="42.52925944514572620391845703125" lon="19.76477771066129207611083984375">
        <ele>1675.4000244140625</ele>
        <time>2026-06-18T08:51:55.000Z</time>
        <extensions>
          <ns3:TrackPointExtension>
            <ns3:atemp>26.0</ns3:atemp>
          </ns3:TrackPointExtension>
        </extensions>
      </trkpt>
      <trkpt lat="42.52925944514572620391845703125" lon="19.76477771066129207611083984375">
        <ele>1675.4000244140625</ele>
        <time>2026-06-18T08:51:56.000Z</time>
        <extensions>
          <ns3:TrackPointExtension>
            <ns3:atemp>26.0</ns3:atemp>
          </ns3:TrackPointExtension>
        </extensions>
      </trkpt>
      <trkpt lat="42.52925944514572620391845703125" lon="19.76477771066129207611083984375">
        <ele>1675.4000244140625</ele>
        <time>2026-06-18T08:51:57.000Z</time>
        <extensions>
          <ns3:TrackPointExtension>
            <ns3:atemp>26.0</ns3:atemp>
          </ns3:TrackPointExtension>
        </extensions>
      </trkpt>
      <trkpt lat="42.52925944514572620391845703125" lon="19.76477771066129207611083984375">
        <ele>1675.4000244140625</ele>
        <time>2026-06-18T08:51:58.000Z</time>
        <extensions>
          <ns3:TrackPointExtension>
            <ns3:atemp>26.0</ns3:atemp>
          </ns3:TrackPointExtension>
        </extensions>
      </trkpt>
      <trkpt lat="42.52925944514572620391845703125" lon="19.76477771066129207611083984375">
        <ele>1675.4000244140625</ele>
        <time>2026-06-18T08:51:59.000Z</time>
        <extensions>
          <ns3:TrackPointExtension>
            <ns3:atemp>26.0</ns3:atemp>
          </ns3:TrackPointExtension>
        </extensions>
      </trkpt>
      <trkpt lat="42.52925944514572620391845703125" lon="19.76477771066129207611083984375">
        <ele>1675.4000244140625</ele>
        <time>2026-06-18T08:52:00.000Z</time>
        <extensions>
          <ns3:TrackPointExtension>
            <ns3:atemp>26.0</ns3:atemp>
          </ns3:TrackPointExtension>
        </extensions>
      </trkpt>
      <trkpt lat="42.52925944514572620391845703125" lon="19.76477771066129207611083984375">
        <ele>1675.4000244140625</ele>
        <time>2026-06-18T08:52:01.000Z</time>
        <extensions>
          <ns3:TrackPointExtension>
            <ns3:atemp>26.0</ns3:atemp>
          </ns3:TrackPointExtension>
        </extensions>
      </trkpt>
      <trkpt lat="42.52925944514572620391845703125" lon="19.76477771066129207611083984375">
        <ele>1675.4000244140625</ele>
        <time>2026-06-18T08:52:02.000Z</time>
        <extensions>
          <ns3:TrackPointExtension>
            <ns3:atemp>26.0</ns3:atemp>
          </ns3:TrackPointExtension>
        </extensions>
      </trkpt>
      <trkpt lat="42.52925944514572620391845703125" lon="19.76477771066129207611083984375">
        <ele>1675.4000244140625</ele>
        <time>2026-06-18T08:52:03.000Z</time>
        <extensions>
          <ns3:TrackPointExtension>
            <ns3:atemp>26.0</ns3:atemp>
          </ns3:TrackPointExtension>
        </extensions>
      </trkpt>
      <trkpt lat="42.52925944514572620391845703125" lon="19.76477771066129207611083984375">
        <ele>1675.4000244140625</ele>
        <time>2026-06-18T08:52:04.000Z</time>
        <extensions>
          <ns3:TrackPointExtension>
            <ns3:atemp>26.0</ns3:atemp>
          </ns3:TrackPointExtension>
        </extensions>
      </trkpt>
      <trkpt lat="42.52925944514572620391845703125" lon="19.76477771066129207611083984375">
        <ele>1675.4000244140625</ele>
        <time>2026-06-18T08:52:05.000Z</time>
        <extensions>
          <ns3:TrackPointExtension>
            <ns3:atemp>26.0</ns3:atemp>
          </ns3:TrackPointExtension>
        </extensions>
      </trkpt>
      <trkpt lat="42.52925944514572620391845703125" lon="19.76477771066129207611083984375">
        <ele>1675.4000244140625</ele>
        <time>2026-06-18T08:52:06.000Z</time>
        <extensions>
          <ns3:TrackPointExtension>
            <ns3:atemp>26.0</ns3:atemp>
          </ns3:TrackPointExtension>
        </extensions>
      </trkpt>
      <trkpt lat="42.52925944514572620391845703125" lon="19.76477771066129207611083984375">
        <ele>1675.4000244140625</ele>
        <time>2026-06-18T08:52:07.000Z</time>
        <extensions>
          <ns3:TrackPointExtension>
            <ns3:atemp>26.0</ns3:atemp>
          </ns3:TrackPointExtension>
        </extensions>
      </trkpt>
      <trkpt lat="42.52925944514572620391845703125" lon="19.76477771066129207611083984375">
        <ele>1675.4000244140625</ele>
        <time>2026-06-18T08:52:08.000Z</time>
        <extensions>
          <ns3:TrackPointExtension>
            <ns3:atemp>26.0</ns3:atemp>
          </ns3:TrackPointExtension>
        </extensions>
      </trkpt>
      <trkpt lat="42.52925944514572620391845703125" lon="19.76477771066129207611083984375">
        <ele>1675.4000244140625</ele>
        <time>2026-06-18T08:52:09.000Z</time>
        <extensions>
          <ns3:TrackPointExtension>
            <ns3:atemp>26.0</ns3:atemp>
          </ns3:TrackPointExtension>
        </extensions>
      </trkpt>
      <trkpt lat="42.52925944514572620391845703125" lon="19.76477771066129207611083984375">
        <ele>1675.4000244140625</ele>
        <time>2026-06-18T08:52:10.000Z</time>
        <extensions>
          <ns3:TrackPointExtension>
            <ns3:atemp>26.0</ns3:atemp>
          </ns3:TrackPointExtension>
        </extensions>
      </trkpt>
      <trkpt lat="42.52925944514572620391845703125" lon="19.76477771066129207611083984375">
        <ele>1675.4000244140625</ele>
        <time>2026-06-18T08:52:11.000Z</time>
        <extensions>
          <ns3:TrackPointExtension>
            <ns3:atemp>26.0</ns3:atemp>
          </ns3:TrackPointExtension>
        </extensions>
      </trkpt>
      <trkpt lat="42.52925944514572620391845703125" lon="19.76477771066129207611083984375">
        <ele>1675.4000244140625</ele>
        <time>2026-06-18T08:52:12.000Z</time>
        <extensions>
          <ns3:TrackPointExtension>
            <ns3:atemp>26.0</ns3:atemp>
          </ns3:TrackPointExtension>
        </extensions>
      </trkpt>
      <trkpt lat="42.52925944514572620391845703125" lon="19.76477771066129207611083984375">
        <ele>1675.4000244140625</ele>
        <time>2026-06-18T08:52:13.000Z</time>
        <extensions>
          <ns3:TrackPointExtension>
            <ns3:atemp>26.0</ns3:atemp>
          </ns3:TrackPointExtension>
        </extensions>
      </trkpt>
      <trkpt lat="42.52925944514572620391845703125" lon="19.76477771066129207611083984375">
        <ele>1675.4000244140625</ele>
        <time>2026-06-18T08:52:14.000Z</time>
        <extensions>
          <ns3:TrackPointExtension>
            <ns3:atemp>26.0</ns3:atemp>
          </ns3:TrackPointExtension>
        </extensions>
      </trkpt>
      <trkpt lat="42.52925944514572620391845703125" lon="19.76477771066129207611083984375">
        <ele>1675.4000244140625</ele>
        <time>2026-06-18T08:52:15.000Z</time>
        <extensions>
          <ns3:TrackPointExtension>
            <ns3:atemp>26.0</ns3:atemp>
          </ns3:TrackPointExtension>
        </extensions>
      </trkpt>
      <trkpt lat="42.52925944514572620391845703125" lon="19.76477771066129207611083984375">
        <ele>1675.4000244140625</ele>
        <time>2026-06-18T08:52:16.000Z</time>
        <extensions>
          <ns3:TrackPointExtension>
            <ns3:atemp>26.0</ns3:atemp>
          </ns3:TrackPointExtension>
        </extensions>
      </trkpt>
      <trkpt lat="42.52925944514572620391845703125" lon="19.76477771066129207611083984375">
        <ele>1675.4000244140625</ele>
        <time>2026-06-18T08:52:17.000Z</time>
        <extensions>
          <ns3:TrackPointExtension>
            <ns3:atemp>26.0</ns3:atemp>
          </ns3:TrackPointExtension>
        </extensions>
      </trkpt>
      <trkpt lat="42.52925944514572620391845703125" lon="19.76477771066129207611083984375">
        <ele>1675.4000244140625</ele>
        <time>2026-06-18T08:52:18.000Z</time>
        <extensions>
          <ns3:TrackPointExtension>
            <ns3:atemp>26.0</ns3:atemp>
          </ns3:TrackPointExtension>
        </extensions>
      </trkpt>
      <trkpt lat="42.52925944514572620391845703125" lon="19.76477771066129207611083984375">
        <ele>1675.4000244140625</ele>
        <time>2026-06-18T08:52:19.000Z</time>
        <extensions>
          <ns3:TrackPointExtension>
            <ns3:atemp>26.0</ns3:atemp>
          </ns3:TrackPointExtension>
        </extensions>
      </trkpt>
      <trkpt lat="42.52925944514572620391845703125" lon="19.76477771066129207611083984375">
        <ele>1675.4000244140625</ele>
        <time>2026-06-18T08:52:20.000Z</time>
        <extensions>
          <ns3:TrackPointExtension>
            <ns3:atemp>26.0</ns3:atemp>
          </ns3:TrackPointExtension>
        </extensions>
      </trkpt>
      <trkpt lat="42.52925944514572620391845703125" lon="19.76477771066129207611083984375">
        <ele>1675.4000244140625</ele>
        <time>2026-06-18T08:52:21.000Z</time>
        <extensions>
          <ns3:TrackPointExtension>
            <ns3:atemp>26.0</ns3:atemp>
          </ns3:TrackPointExtension>
        </extensions>
      </trkpt>
      <trkpt lat="42.52925944514572620391845703125" lon="19.76477771066129207611083984375">
        <ele>1675.4000244140625</ele>
        <time>2026-06-18T08:52:22.000Z</time>
        <extensions>
          <ns3:TrackPointExtension>
            <ns3:atemp>26.0</ns3:atemp>
          </ns3:TrackPointExtension>
        </extensions>
      </trkpt>
      <trkpt lat="42.52925810404121875762939453125" lon="19.764777123928070068359375">
        <ele>1675.4000244140625</ele>
        <time>2026-06-18T08:52:23.000Z</time>
        <extensions>
          <ns3:TrackPointExtension>
            <ns3:atemp>26.0</ns3:atemp>
          </ns3:TrackPointExtension>
        </extensions>
      </trkpt>
      <trkpt lat="42.5292548350989818572998046875" lon="19.76477108895778656005859375">
        <ele>1675.4000244140625</ele>
        <time>2026-06-18T08:52:24.000Z</time>
        <extensions>
          <ns3:TrackPointExtension>
            <ns3:atemp>26.0</ns3:atemp>
          </ns3:TrackPointExtension>
        </extensions>
      </trkpt>
      <trkpt lat="42.5292514823377132415771484375" lon="19.7647712565958499908447265625">
        <ele>1675.4000244140625</ele>
        <time>2026-06-18T08:52:25.000Z</time>
        <extensions>
          <ns3:TrackPointExtension>
            <ns3:atemp>26.0</ns3:atemp>
          </ns3:TrackPointExtension>
        </extensions>
      </trkpt>
      <trkpt lat="42.52925944514572620391845703125" lon="19.76477771066129207611083984375">
        <ele>1675.4000244140625</ele>
        <time>2026-06-18T08:52:26.000Z</time>
        <extensions>
          <ns3:TrackPointExtension>
            <ns3:atemp>26.0</ns3:atemp>
          </ns3:TrackPointExtension>
        </extensions>
      </trkpt>
      <trkpt lat="42.52925944514572620391845703125" lon="19.76477771066129207611083984375">
        <ele>1675.4000244140625</ele>
        <time>2026-06-18T08:52:27.000Z</time>
        <extensions>
          <ns3:TrackPointExtension>
            <ns3:atemp>26.0</ns3:atemp>
          </ns3:TrackPointExtension>
        </extensions>
      </trkpt>
      <trkpt lat="42.52925944514572620391845703125" lon="19.76477771066129207611083984375">
        <ele>1675.4000244140625</ele>
        <time>2026-06-18T08:52:28.000Z</time>
        <extensions>
          <ns3:TrackPointExtension>
            <ns3:atemp>26.0</ns3:atemp>
          </ns3:TrackPointExtension>
        </extensions>
      </trkpt>
      <trkpt lat="42.52925944514572620391845703125" lon="19.76477771066129207611083984375">
        <ele>1675.4000244140625</ele>
        <time>2026-06-18T08:52:29.000Z</time>
        <extensions>
          <ns3:TrackPointExtension>
            <ns3:atemp>26.0</ns3:atemp>
          </ns3:TrackPointExtension>
        </extensions>
      </trkpt>
      <trkpt lat="42.52925944514572620391845703125" lon="19.76477771066129207611083984375">
        <ele>1675.4000244140625</ele>
        <time>2026-06-18T08:52:30.000Z</time>
        <extensions>
          <ns3:TrackPointExtension>
            <ns3:atemp>26.0</ns3:atemp>
          </ns3:TrackPointExtension>
        </extensions>
      </trkpt>
      <trkpt lat="42.52925944514572620391845703125" lon="19.76477771066129207611083984375">
        <ele>1675.4000244140625</ele>
        <time>2026-06-18T08:52:31.000Z</time>
        <extensions>
          <ns3:TrackPointExtension>
            <ns3:atemp>26.0</ns3:atemp>
          </ns3:TrackPointExtension>
        </extensions>
      </trkpt>
      <trkpt lat="42.52925944514572620391845703125" lon="19.76477771066129207611083984375">
        <ele>1675.4000244140625</ele>
        <time>2026-06-18T08:52:32.000Z</time>
        <extensions>
          <ns3:TrackPointExtension>
            <ns3:atemp>26.0</ns3:atemp>
          </ns3:TrackPointExtension>
        </extensions>
      </trkpt>
      <trkpt lat="42.52925944514572620391845703125" lon="19.76477771066129207611083984375">
        <ele>1675.4000244140625</ele>
        <time>2026-06-18T08:52:33.000Z</time>
        <extensions>
          <ns3:TrackPointExtension>
            <ns3:atemp>26.0</ns3:atemp>
          </ns3:TrackPointExtension>
        </extensions>
      </trkpt>
      <trkpt lat="42.52925944514572620391845703125" lon="19.76477771066129207611083984375">
        <ele>1675.4000244140625</ele>
        <time>2026-06-18T08:52:34.000Z</time>
        <extensions>
          <ns3:TrackPointExtension>
            <ns3:atemp>26.0</ns3:atemp>
          </ns3:TrackPointExtension>
        </extensions>
      </trkpt>
      <trkpt lat="42.52925944514572620391845703125" lon="19.76477771066129207611083984375">
        <ele>1675.4000244140625</ele>
        <time>2026-06-18T08:52:35.000Z</time>
        <extensions>
          <ns3:TrackPointExtension>
            <ns3:atemp>26.0</ns3:atemp>
          </ns3:TrackPointExtension>
        </extensions>
      </trkpt>
      <trkpt lat="42.52925944514572620391845703125" lon="19.76477771066129207611083984375">
        <ele>1675.4000244140625</ele>
        <time>2026-06-18T08:52:36.000Z</time>
        <extensions>
          <ns3:TrackPointExtension>
            <ns3:atemp>26.0</ns3:atemp>
          </ns3:TrackPointExtension>
        </extensions>
      </trkpt>
      <trkpt lat="42.52925944514572620391845703125" lon="19.76477771066129207611083984375">
        <ele>1675.4000244140625</ele>
        <time>2026-06-18T08:52:37.000Z</time>
        <extensions>
          <ns3:TrackPointExtension>
            <ns3:atemp>26.0</ns3:atemp>
          </ns3:TrackPointExtension>
        </extensions>
      </trkpt>
      <trkpt lat="42.52925944514572620391845703125" lon="19.76477771066129207611083984375">
        <ele>1675.4000244140625</ele>
        <time>2026-06-18T08:52:38.000Z</time>
        <extensions>
          <ns3:TrackPointExtension>
            <ns3:atemp>26.0</ns3:atemp>
          </ns3:TrackPointExtension>
        </extensions>
      </trkpt>
      <trkpt lat="42.52925944514572620391845703125" lon="19.76477771066129207611083984375">
        <ele>1675.4000244140625</ele>
        <time>2026-06-18T08:52:39.000Z</time>
        <extensions>
          <ns3:TrackPointExtension>
            <ns3:atemp>26.0</ns3:atemp>
          </ns3:TrackPointExtension>
        </extensions>
      </trkpt>
      <trkpt lat="42.52925944514572620391845703125" lon="19.76477771066129207611083984375">
        <ele>1675.4000244140625</ele>
        <time>2026-06-18T08:52:40.000Z</time>
        <extensions>
          <ns3:TrackPointExtension>
            <ns3:atemp>26.0</ns3:atemp>
          </ns3:TrackPointExtension>
        </extensions>
      </trkpt>
      <trkpt lat="42.52925944514572620391845703125" lon="19.76477771066129207611083984375">
        <ele>1675.4000244140625</ele>
        <time>2026-06-18T08:52:41.000Z</time>
        <extensions>
          <ns3:TrackPointExtension>
            <ns3:atemp>26.0</ns3:atemp>
          </ns3:TrackPointExtension>
        </extensions>
      </trkpt>
      <trkpt lat="42.52925944514572620391845703125" lon="19.76477771066129207611083984375">
        <ele>1675.4000244140625</ele>
        <time>2026-06-18T08:52:42.000Z</time>
        <extensions>
          <ns3:TrackPointExtension>
            <ns3:atemp>26.0</ns3:atemp>
          </ns3:TrackPointExtension>
        </extensions>
      </trkpt>
      <trkpt lat="42.52925944514572620391845703125" lon="19.76477771066129207611083984375">
        <ele>1675.4000244140625</ele>
        <time>2026-06-18T08:52:43.000Z</time>
        <extensions>
          <ns3:TrackPointExtension>
            <ns3:atemp>26.0</ns3:atemp>
          </ns3:TrackPointExtension>
        </extensions>
      </trkpt>
      <trkpt lat="42.52925944514572620391845703125" lon="19.76477771066129207611083984375">
        <ele>1675.4000244140625</ele>
        <time>2026-06-18T08:52:44.000Z</time>
        <extensions>
          <ns3:TrackPointExtension>
            <ns3:atemp>26.0</ns3:atemp>
          </ns3:TrackPointExtension>
        </extensions>
      </trkpt>
      <trkpt lat="42.52925944514572620391845703125" lon="19.76477771066129207611083984375">
        <ele>1675.4000244140625</ele>
        <time>2026-06-18T08:52:45.000Z</time>
        <extensions>
          <ns3:TrackPointExtension>
            <ns3:atemp>26.0</ns3:atemp>
          </ns3:TrackPointExtension>
        </extensions>
      </trkpt>
      <trkpt lat="42.52925944514572620391845703125" lon="19.76477771066129207611083984375">
        <ele>1675.4000244140625</ele>
        <time>2026-06-18T08:52:46.000Z</time>
        <extensions>
          <ns3:TrackPointExtension>
            <ns3:atemp>26.0</ns3:atemp>
          </ns3:TrackPointExtension>
        </extensions>
      </trkpt>
      <trkpt lat="42.52925944514572620391845703125" lon="19.76477771066129207611083984375">
        <ele>1675.4000244140625</ele>
        <time>2026-06-18T08:52:47.000Z</time>
        <extensions>
          <ns3:TrackPointExtension>
            <ns3:atemp>26.0</ns3:atemp>
          </ns3:TrackPointExtension>
        </extensions>
      </trkpt>
      <trkpt lat="42.52925944514572620391845703125" lon="19.76477771066129207611083984375">
        <ele>1675.4000244140625</ele>
        <time>2026-06-18T08:52:48.000Z</time>
        <extensions>
          <ns3:TrackPointExtension>
            <ns3:atemp>26.0</ns3:atemp>
          </ns3:TrackPointExtension>
        </extensions>
      </trkpt>
      <trkpt lat="42.52925944514572620391845703125" lon="19.76477771066129207611083984375">
        <ele>1675.4000244140625</ele>
        <time>2026-06-18T08:52:49.000Z</time>
        <extensions>
          <ns3:TrackPointExtension>
            <ns3:atemp>26.0</ns3:atemp>
          </ns3:TrackPointExtension>
        </extensions>
      </trkpt>
      <trkpt lat="42.52925944514572620391845703125" lon="19.76477771066129207611083984375">
        <ele>1675.4000244140625</ele>
        <time>2026-06-18T08:52:50.000Z</time>
        <extensions>
          <ns3:TrackPointExtension>
            <ns3:atemp>26.0</ns3:atemp>
          </ns3:TrackPointExtension>
        </extensions>
      </trkpt>
      <trkpt lat="42.52925944514572620391845703125" lon="19.76477771066129207611083984375">
        <ele>1675.4000244140625</ele>
        <time>2026-06-18T08:52:51.000Z</time>
        <extensions>
          <ns3:TrackPointExtension>
            <ns3:atemp>26.0</ns3:atemp>
          </ns3:TrackPointExtension>
        </extensions>
      </trkpt>
      <trkpt lat="42.52925944514572620391845703125" lon="19.76477771066129207611083984375">
        <ele>1675.4000244140625</ele>
        <time>2026-06-18T08:52:52.000Z</time>
        <extensions>
          <ns3:TrackPointExtension>
            <ns3:atemp>26.0</ns3:atemp>
          </ns3:TrackPointExtension>
        </extensions>
      </trkpt>
      <trkpt lat="42.52925944514572620391845703125" lon="19.76477771066129207611083984375">
        <ele>1675.4000244140625</ele>
        <time>2026-06-18T08:52:53.000Z</time>
        <extensions>
          <ns3:TrackPointExtension>
            <ns3:atemp>26.0</ns3:atemp>
          </ns3:TrackPointExtension>
        </extensions>
      </trkpt>
      <trkpt lat="42.52925944514572620391845703125" lon="19.76477771066129207611083984375">
        <ele>1675.4000244140625</ele>
        <time>2026-06-18T08:52:54.000Z</time>
        <extensions>
          <ns3:TrackPointExtension>
            <ns3:atemp>26.0</ns3:atemp>
          </ns3:TrackPointExtension>
        </extensions>
      </trkpt>
      <trkpt lat="42.52925944514572620391845703125" lon="19.76477771066129207611083984375">
        <ele>1675.4000244140625</ele>
        <time>2026-06-18T08:52:55.000Z</time>
        <extensions>
          <ns3:TrackPointExtension>
            <ns3:atemp>26.0</ns3:atemp>
          </ns3:TrackPointExtension>
        </extensions>
      </trkpt>
      <trkpt lat="42.52925944514572620391845703125" lon="19.76477771066129207611083984375">
        <ele>1675.4000244140625</ele>
        <time>2026-06-18T08:52:56.000Z</time>
        <extensions>
          <ns3:TrackPointExtension>
            <ns3:atemp>26.0</ns3:atemp>
          </ns3:TrackPointExtension>
        </extensions>
      </trkpt>
      <trkpt lat="42.52925944514572620391845703125" lon="19.76477771066129207611083984375">
        <ele>1675.4000244140625</ele>
        <time>2026-06-18T08:52:57.000Z</time>
        <extensions>
          <ns3:TrackPointExtension>
            <ns3:atemp>26.0</ns3:atemp>
          </ns3:TrackPointExtension>
        </extensions>
      </trkpt>
      <trkpt lat="42.52925944514572620391845703125" lon="19.76477771066129207611083984375">
        <ele>1675.4000244140625</ele>
        <time>2026-06-18T08:52:58.000Z</time>
        <extensions>
          <ns3:TrackPointExtension>
            <ns3:atemp>27.0</ns3:atemp>
          </ns3:TrackPointExtension>
        </extensions>
      </trkpt>
      <trkpt lat="42.52925944514572620391845703125" lon="19.76477771066129207611083984375">
        <ele>1675.4000244140625</ele>
        <time>2026-06-18T08:52:59.000Z</time>
        <extensions>
          <ns3:TrackPointExtension>
            <ns3:atemp>27.0</ns3:atemp>
          </ns3:TrackPointExtension>
        </extensions>
      </trkpt>
      <trkpt lat="42.52925944514572620391845703125" lon="19.76477771066129207611083984375">
        <ele>1675.4000244140625</ele>
        <time>2026-06-18T08:53:00.000Z</time>
        <extensions>
          <ns3:TrackPointExtension>
            <ns3:atemp>27.0</ns3:atemp>
          </ns3:TrackPointExtension>
        </extensions>
      </trkpt>
      <trkpt lat="42.52925944514572620391845703125" lon="19.76477771066129207611083984375">
        <ele>1677.5999755859375</ele>
        <time>2026-06-18T08:53:01.000Z</time>
        <extensions>
          <ns3:TrackPointExtension>
            <ns3:atemp>26.0</ns3:atemp>
          </ns3:TrackPointExtension>
        </extensions>
      </trkpt>
      <trkpt lat="42.52925944514572620391845703125" lon="19.76477771066129207611083984375">
        <ele>1677.5999755859375</ele>
        <time>2026-06-18T08:53:02.000Z</time>
        <extensions>
          <ns3:TrackPointExtension>
            <ns3:atemp>26.0</ns3:atemp>
          </ns3:TrackPointExtension>
        </extensions>
      </trkpt>
      <trkpt lat="42.52925944514572620391845703125" lon="19.76477771066129207611083984375">
        <ele>1677.800048828125</ele>
        <time>2026-06-18T08:53:03.000Z</time>
        <extensions>
          <ns3:TrackPointExtension>
            <ns3:atemp>27.0</ns3:atemp>
          </ns3:TrackPointExtension>
        </extensions>
      </trkpt>
      <trkpt lat="42.52925944514572620391845703125" lon="19.76477771066129207611083984375">
        <ele>1677.800048828125</ele>
        <time>2026-06-18T08:53:04.000Z</time>
        <extensions>
          <ns3:TrackPointExtension>
            <ns3:atemp>27.0</ns3:atemp>
          </ns3:TrackPointExtension>
        </extensions>
      </trkpt>
      <trkpt lat="42.52925944514572620391845703125" lon="19.76477771066129207611083984375">
        <ele>1677.800048828125</ele>
        <time>2026-06-18T08:53:05.000Z</time>
        <extensions>
          <ns3:TrackPointExtension>
            <ns3:atemp>26.0</ns3:atemp>
          </ns3:TrackPointExtension>
        </extensions>
      </trkpt>
      <trkpt lat="42.52925944514572620391845703125" lon="19.76477771066129207611083984375">
        <ele>1677.800048828125</ele>
        <time>2026-06-18T08:53:06.000Z</time>
        <extensions>
          <ns3:TrackPointExtension>
            <ns3:atemp>26.0</ns3:atemp>
          </ns3:TrackPointExtension>
        </extensions>
      </trkpt>
      <trkpt lat="42.52925944514572620391845703125" lon="19.76477771066129207611083984375">
        <ele>1678</ele>
        <time>2026-06-18T08:53:07.000Z</time>
        <extensions>
          <ns3:TrackPointExtension>
            <ns3:atemp>26.0</ns3:atemp>
          </ns3:TrackPointExtension>
        </extensions>
      </trkpt>
      <trkpt lat="42.52925944514572620391845703125" lon="19.76477771066129207611083984375">
        <ele>1678</ele>
        <time>2026-06-18T08:53:08.000Z</time>
        <extensions>
          <ns3:TrackPointExtension>
            <ns3:atemp>26.0</ns3:atemp>
          </ns3:TrackPointExtension>
        </extensions>
      </trkpt>
      <trkpt lat="42.52925944514572620391845703125" lon="19.76477771066129207611083984375">
        <ele>1678</ele>
        <time>2026-06-18T08:53:09.000Z</time>
        <extensions>
          <ns3:TrackPointExtension>
            <ns3:atemp>26.0</ns3:atemp>
          </ns3:TrackPointExtension>
        </extensions>
      </trkpt>
      <trkpt lat="42.52925944514572620391845703125" lon="19.76477771066129207611083984375">
        <ele>1678</ele>
        <time>2026-06-18T08:53:10.000Z</time>
        <extensions>
          <ns3:TrackPointExtension>
            <ns3:atemp>26.0</ns3:atemp>
          </ns3:TrackPointExtension>
        </extensions>
      </trkpt>
      <trkpt lat="42.52925944514572620391845703125" lon="19.76477771066129207611083984375">
        <ele>1678</ele>
        <time>2026-06-18T08:53:11.000Z</time>
        <extensions>
          <ns3:TrackPointExtension>
            <ns3:atemp>26.0</ns3:atemp>
          </ns3:TrackPointExtension>
        </extensions>
      </trkpt>
      <trkpt lat="42.52925944514572620391845703125" lon="19.76477771066129207611083984375">
        <ele>1678</ele>
        <time>2026-06-18T08:53:12.000Z</time>
        <extensions>
          <ns3:TrackPointExtension>
            <ns3:atemp>26.0</ns3:atemp>
          </ns3:TrackPointExtension>
        </extensions>
      </trkpt>
      <trkpt lat="42.52925944514572620391845703125" lon="19.76477771066129207611083984375">
        <ele>1678</ele>
        <time>2026-06-18T08:53:13.000Z</time>
        <extensions>
          <ns3:TrackPointExtension>
            <ns3:atemp>26.0</ns3:atemp>
          </ns3:TrackPointExtension>
        </extensions>
      </trkpt>
      <trkpt lat="42.52925944514572620391845703125" lon="19.76477771066129207611083984375">
        <ele>1678</ele>
        <time>2026-06-18T08:53:14.000Z</time>
        <extensions>
          <ns3:TrackPointExtension>
            <ns3:atemp>26.0</ns3:atemp>
          </ns3:TrackPointExtension>
        </extensions>
      </trkpt>
      <trkpt lat="42.52925944514572620391845703125" lon="19.76477771066129207611083984375">
        <ele>1678</ele>
        <time>2026-06-18T08:53:15.000Z</time>
        <extensions>
          <ns3:TrackPointExtension>
            <ns3:atemp>26.0</ns3:atemp>
          </ns3:TrackPointExtension>
        </extensions>
      </trkpt>
      <trkpt lat="42.52925944514572620391845703125" lon="19.76477771066129207611083984375">
        <ele>1677.800048828125</ele>
        <time>2026-06-18T08:53:16.000Z</time>
        <extensions>
          <ns3:TrackPointExtension>
            <ns3:atemp>26.0</ns3:atemp>
          </ns3:TrackPointExtension>
        </extensions>
      </trkpt>
      <trkpt lat="42.52925944514572620391845703125" lon="19.76477771066129207611083984375">
        <ele>1677.800048828125</ele>
        <time>2026-06-18T08:53:17.000Z</time>
        <extensions>
          <ns3:TrackPointExtension>
            <ns3:atemp>26.0</ns3:atemp>
          </ns3:TrackPointExtension>
        </extensions>
      </trkpt>
      <trkpt lat="42.52925944514572620391845703125" lon="19.76477771066129207611083984375">
        <ele>1678</ele>
        <time>2026-06-18T08:53:18.000Z</time>
        <extensions>
          <ns3:TrackPointExtension>
            <ns3:atemp>26.0</ns3:atemp>
          </ns3:TrackPointExtension>
        </extensions>
      </trkpt>
      <trkpt lat="42.52925944514572620391845703125" lon="19.76477771066129207611083984375">
        <ele>1678</ele>
        <time>2026-06-18T08:53:19.000Z</time>
        <extensions>
          <ns3:TrackPointExtension>
            <ns3:atemp>26.0</ns3:atemp>
          </ns3:TrackPointExtension>
        </extensions>
      </trkpt>
      <trkpt lat="42.52925944514572620391845703125" lon="19.76477771066129207611083984375">
        <ele>1678</ele>
        <time>2026-06-18T08:53:20.000Z</time>
        <extensions>
          <ns3:TrackPointExtension>
            <ns3:atemp>27.0</ns3:atemp>
          </ns3:TrackPointExtension>
        </extensions>
      </trkpt>
      <trkpt lat="42.52925944514572620391845703125" lon="19.76477771066129207611083984375">
        <ele>1678.199951171875</ele>
        <time>2026-06-18T08:53:21.000Z</time>
        <extensions>
          <ns3:TrackPointExtension>
            <ns3:atemp>27.0</ns3:atemp>
          </ns3:TrackPointExtension>
        </extensions>
      </trkpt>
      <trkpt lat="42.52925944514572620391845703125" lon="19.76477771066129207611083984375">
        <ele>1678.199951171875</ele>
        <time>2026-06-18T08:53:22.000Z</time>
        <extensions>
          <ns3:TrackPointExtension>
            <ns3:atemp>27.0</ns3:atemp>
          </ns3:TrackPointExtension>
        </extensions>
      </trkpt>
      <trkpt lat="42.52925944514572620391845703125" lon="19.76477771066129207611083984375">
        <ele>1678.199951171875</ele>
        <time>2026-06-18T08:53:23.000Z</time>
        <extensions>
          <ns3:TrackPointExtension>
            <ns3:atemp>27.0</ns3:atemp>
          </ns3:TrackPointExtension>
        </extensions>
      </trkpt>
      <trkpt lat="42.52925944514572620391845703125" lon="19.76477771066129207611083984375">
        <ele>1678.4000244140625</ele>
        <time>2026-06-18T08:53:24.000Z</time>
        <extensions>
          <ns3:TrackPointExtension>
            <ns3:atemp>26.0</ns3:atemp>
          </ns3:TrackPointExtension>
        </extensions>
      </trkpt>
      <trkpt lat="42.52925944514572620391845703125" lon="19.76477771066129207611083984375">
        <ele>1678.4000244140625</ele>
        <time>2026-06-18T08:53:25.000Z</time>
        <extensions>
          <ns3:TrackPointExtension>
            <ns3:atemp>26.0</ns3:atemp>
          </ns3:TrackPointExtension>
        </extensions>
      </trkpt>
      <trkpt lat="42.52925944514572620391845703125" lon="19.76477771066129207611083984375">
        <ele>1678.4000244140625</ele>
        <time>2026-06-18T08:53:26.000Z</time>
        <extensions>
          <ns3:TrackPointExtension>
            <ns3:atemp>27.0</ns3:atemp>
          </ns3:TrackPointExtension>
        </extensions>
      </trkpt>
      <trkpt lat="42.52925944514572620391845703125" lon="19.76477771066129207611083984375">
        <ele>1678.4000244140625</ele>
        <time>2026-06-18T08:53:27.000Z</time>
        <extensions>
          <ns3:TrackPointExtension>
            <ns3:atemp>27.0</ns3:atemp>
          </ns3:TrackPointExtension>
        </extensions>
      </trkpt>
      <trkpt lat="42.52925944514572620391845703125" lon="19.76477771066129207611083984375">
        <ele>1678.4000244140625</ele>
        <time>2026-06-18T08:53:28.000Z</time>
        <extensions>
          <ns3:TrackPointExtension>
            <ns3:atemp>27.0</ns3:atemp>
          </ns3:TrackPointExtension>
        </extensions>
      </trkpt>
      <trkpt lat="42.52925944514572620391845703125" lon="19.76477771066129207611083984375">
        <ele>1678.4000244140625</ele>
        <time>2026-06-18T08:53:29.000Z</time>
        <extensions>
          <ns3:TrackPointExtension>
            <ns3:atemp>27.0</ns3:atemp>
          </ns3:TrackPointExtension>
        </extensions>
      </trkpt>
      <trkpt lat="42.52925944514572620391845703125" lon="19.76477771066129207611083984375">
        <ele>1678.5999755859375</ele>
        <time>2026-06-18T08:53:30.000Z</time>
        <extensions>
          <ns3:TrackPointExtension>
            <ns3:atemp>27.0</ns3:atemp>
          </ns3:TrackPointExtension>
        </extensions>
      </trkpt>
      <trkpt lat="42.52925944514572620391845703125" lon="19.76477771066129207611083984375">
        <ele>1678.5999755859375</ele>
        <time>2026-06-18T08:53:31.000Z</time>
        <extensions>
          <ns3:TrackPointExtension>
            <ns3:atemp>27.0</ns3:atemp>
          </ns3:TrackPointExtension>
        </extensions>
      </trkpt>
      <trkpt lat="42.52925944514572620391845703125" lon="19.76477771066129207611083984375">
        <ele>1678.5999755859375</ele>
        <time>2026-06-18T08:53:32.000Z</time>
        <extensions>
          <ns3:TrackPointExtension>
            <ns3:atemp>27.0</ns3:atemp>
          </ns3:TrackPointExtension>
        </extensions>
      </trkpt>
      <trkpt lat="42.52925944514572620391845703125" lon="19.76477771066129207611083984375">
        <ele>1678.5999755859375</ele>
        <time>2026-06-18T08:53:33.000Z</time>
        <extensions>
          <ns3:TrackPointExtension>
            <ns3:atemp>27.0</ns3:atemp>
          </ns3:TrackPointExtension>
        </extensions>
      </trkpt>
      <trkpt lat="42.52925944514572620391845703125" lon="19.76477771066129207611083984375">
        <ele>1678.5999755859375</ele>
        <time>2026-06-18T08:53:34.000Z</time>
        <extensions>
          <ns3:TrackPointExtension>
            <ns3:atemp>27.0</ns3:atemp>
          </ns3:TrackPointExtension>
        </extensions>
      </trkpt>
      <trkpt lat="42.52925944514572620391845703125" lon="19.76477771066129207611083984375">
        <ele>1678.5999755859375</ele>
        <time>2026-06-18T08:53:35.000Z</time>
        <extensions>
          <ns3:TrackPointExtension>
            <ns3:atemp>27.0</ns3:atemp>
          </ns3:TrackPointExtension>
        </extensions>
      </trkpt>
      <trkpt lat="42.52925944514572620391845703125" lon="19.76477771066129207611083984375">
        <ele>1678.5999755859375</ele>
        <time>2026-06-18T08:53:36.000Z</time>
        <extensions>
          <ns3:TrackPointExtension>
            <ns3:atemp>27.0</ns3:atemp>
          </ns3:TrackPointExtension>
        </extensions>
      </trkpt>
      <trkpt lat="42.52924905158579349517822265625" lon="19.764774106442928314208984375">
        <ele>1678.5999755859375</ele>
        <time>2026-06-18T08:53:37.000Z</time>
        <extensions>
          <ns3:TrackPointExtension>
            <ns3:atemp>27.0</ns3:atemp>
          </ns3:TrackPointExtension>
        </extensions>
      </trkpt>
      <trkpt lat="42.52924335189163684844970703125" lon="19.7647803090512752532958984375">
        <ele>1678.5999755859375</ele>
        <time>2026-06-18T08:53:38.000Z</time>
        <extensions>
          <ns3:TrackPointExtension>
            <ns3:atemp>27.0</ns3:atemp>
          </ns3:TrackPointExtension>
        </extensions>
      </trkpt>
      <trkpt lat="42.52923983149230480194091796875" lon="19.76477905176579952239990234375">
        <ele>1678.5999755859375</ele>
        <time>2026-06-18T08:53:39.000Z</time>
        <extensions>
          <ns3:TrackPointExtension>
            <ns3:atemp>27.0</ns3:atemp>
          </ns3:TrackPointExtension>
        </extensions>
      </trkpt>
      <trkpt lat="42.5292357243597507476806640625" lon="19.7647769562900066375732421875">
        <ele>1678.5999755859375</ele>
        <time>2026-06-18T08:53:40.000Z</time>
        <extensions>
          <ns3:TrackPointExtension>
            <ns3:atemp>27.0</ns3:atemp>
          </ns3:TrackPointExtension>
        </extensions>
      </trkpt>
      <trkpt lat="42.5292313657701015472412109375" lon="19.76477167569100856781005859375">
        <ele>1678.800048828125</ele>
        <time>2026-06-18T08:53:41.000Z</time>
        <extensions>
          <ns3:TrackPointExtension>
            <ns3:atemp>27.0</ns3:atemp>
          </ns3:TrackPointExtension>
        </extensions>
      </trkpt>
      <trkpt lat="42.5292270071804523468017578125" lon="19.764772765338420867919921875">
        <ele>1678.800048828125</ele>
        <time>2026-06-18T08:53:42.000Z</time>
        <extensions>
          <ns3:TrackPointExtension>
            <ns3:atemp>27.0</ns3:atemp>
          </ns3:TrackPointExtension>
        </extensions>
      </trkpt>
      <trkpt lat="42.52922139130532741546630859375" lon="19.76477217860519886016845703125">
        <ele>1678.800048828125</ele>
        <time>2026-06-18T08:53:43.000Z</time>
        <extensions>
          <ns3:TrackPointExtension>
            <ns3:atemp>27.0</ns3:atemp>
          </ns3:TrackPointExtension>
        </extensions>
      </trkpt>
      <trkpt lat="42.52921971492469310760498046875" lon="19.764772765338420867919921875">
        <ele>1678.800048828125</ele>
        <time>2026-06-18T08:53:44.000Z</time>
        <extensions>
          <ns3:TrackPointExtension>
            <ns3:atemp>27.0</ns3:atemp>
          </ns3:TrackPointExtension>
        </extensions>
      </trkpt>
      <trkpt lat="42.529219798743724822998046875" lon="19.764772765338420867919921875">
        <ele>1678.5999755859375</ele>
        <time>2026-06-18T08:53:45.000Z</time>
        <extensions>
          <ns3:TrackPointExtension>
            <ns3:atemp>27.0</ns3:atemp>
          </ns3:TrackPointExtension>
        </extensions>
      </trkpt>
      <trkpt lat="42.52921837382018566131591796875" lon="19.76477100513875484466552734375">
        <ele>1678.5999755859375</ele>
        <time>2026-06-18T08:53:46.000Z</time>
        <extensions>
          <ns3:TrackPointExtension>
            <ns3:atemp>26.0</ns3:atemp>
          </ns3:TrackPointExtension>
        </extensions>
      </trkpt>
      <trkpt lat="42.5292166136205196380615234375" lon="19.76477217860519886016845703125">
        <ele>1678.5999755859375</ele>
        <time>2026-06-18T08:53:47.000Z</time>
        <extensions>
          <ns3:TrackPointExtension>
            <ns3:atemp>26.0</ns3:atemp>
          </ns3:TrackPointExtension>
        </extensions>
      </trkpt>
      <trkpt lat="42.52921652980148792266845703125" lon="19.76477217860519886016845703125">
        <ele>1678.5999755859375</ele>
        <time>2026-06-18T08:53:48.000Z</time>
        <extensions>
          <ns3:TrackPointExtension>
            <ns3:atemp>26.0</ns3:atemp>
          </ns3:TrackPointExtension>
        </extensions>
      </trkpt>
      <trkpt lat="42.5292166136205196380615234375" lon="19.76477217860519886016845703125">
        <ele>1678.4000244140625</ele>
        <time>2026-06-18T08:53:49.000Z</time>
        <extensions>
          <ns3:TrackPointExtension>
            <ns3:atemp>26.0</ns3:atemp>
          </ns3:TrackPointExtension>
        </extensions>
      </trkpt>
      <trkpt lat="42.529215775430202484130859375" lon="19.76476631127297878265380859375">
        <ele>1678.4000244140625</ele>
        <time>2026-06-18T08:53:50.000Z</time>
        <extensions>
          <ns3:TrackPointExtension>
            <ns3:atemp>26.0</ns3:atemp>
          </ns3:TrackPointExtension>
        </extensions>
      </trkpt>
      <trkpt lat="42.5292166136205196380615234375" lon="19.76477217860519886016845703125">
        <ele>1678.5999755859375</ele>
        <time>2026-06-18T08:53:51.000Z</time>
        <extensions>
          <ns3:TrackPointExtension>
            <ns3:atemp>26.0</ns3:atemp>
          </ns3:TrackPointExtension>
        </extensions>
      </trkpt>
      <trkpt lat="42.5292166136205196380615234375" lon="19.76477217860519886016845703125">
        <ele>1678.5999755859375</ele>
        <time>2026-06-18T08:53:52.000Z</time>
        <extensions>
          <ns3:TrackPointExtension>
            <ns3:atemp>26.0</ns3:atemp>
          </ns3:TrackPointExtension>
        </extensions>
      </trkpt>
      <trkpt lat="42.5292166136205196380615234375" lon="19.76477217860519886016845703125">
        <ele>1678.5999755859375</ele>
        <time>2026-06-18T08:53:53.000Z</time>
        <extensions>
          <ns3:TrackPointExtension>
            <ns3:atemp>27.0</ns3:atemp>
          </ns3:TrackPointExtension>
        </extensions>
      </trkpt>
      <trkpt lat="42.5292166136205196380615234375" lon="19.76477217860519886016845703125">
        <ele>1678.5999755859375</ele>
        <time>2026-06-18T08:53:54.000Z</time>
        <extensions>
          <ns3:TrackPointExtension>
            <ns3:atemp>27.0</ns3:atemp>
          </ns3:TrackPointExtension>
        </extensions>
      </trkpt>
      <trkpt lat="42.5292166136205196380615234375" lon="19.76477217860519886016845703125">
        <ele>1678.800048828125</ele>
        <time>2026-06-18T08:53:55.000Z</time>
        <extensions>
          <ns3:TrackPointExtension>
            <ns3:atemp>27.0</ns3:atemp>
          </ns3:TrackPointExtension>
        </extensions>
      </trkpt>
      <trkpt lat="42.5292166136205196380615234375" lon="19.76477217860519886016845703125">
        <ele>1678.5999755859375</ele>
        <time>2026-06-18T08:53:56.000Z</time>
        <extensions>
          <ns3:TrackPointExtension>
            <ns3:atemp>26.0</ns3:atemp>
          </ns3:TrackPointExtension>
        </extensions>
      </trkpt>
      <trkpt lat="42.5292166136205196380615234375" lon="19.76477217860519886016845703125">
        <ele>1678.5999755859375</ele>
        <time>2026-06-18T08:53:57.000Z</time>
        <extensions>
          <ns3:TrackPointExtension>
            <ns3:atemp>27.0</ns3:atemp>
          </ns3:TrackPointExtension>
        </extensions>
      </trkpt>
      <trkpt lat="42.5292166136205196380615234375" lon="19.76477217860519886016845703125">
        <ele>1678.4000244140625</ele>
        <time>2026-06-18T08:53:58.000Z</time>
        <extensions>
          <ns3:TrackPointExtension>
            <ns3:atemp>26.0</ns3:atemp>
          </ns3:TrackPointExtension>
        </extensions>
      </trkpt>
      <trkpt lat="42.5292166136205196380615234375" lon="19.76477217860519886016845703125">
        <ele>1678.4000244140625</ele>
        <time>2026-06-18T08:53:59.000Z</time>
        <extensions>
          <ns3:TrackPointExtension>
            <ns3:atemp>27.0</ns3:atemp>
          </ns3:TrackPointExtension>
        </extensions>
      </trkpt>
      <trkpt lat="42.5292166136205196380615234375" lon="19.76477217860519886016845703125">
        <ele>1678.4000244140625</ele>
        <time>2026-06-18T08:54:00.000Z</time>
        <extensions>
          <ns3:TrackPointExtension>
            <ns3:atemp>27.0</ns3:atemp>
          </ns3:TrackPointExtension>
        </extensions>
      </trkpt>
      <trkpt lat="42.5292166136205196380615234375" lon="19.76477217860519886016845703125">
        <ele>1678.4000244140625</ele>
        <time>2026-06-18T08:54:01.000Z</time>
        <extensions>
          <ns3:TrackPointExtension>
            <ns3:atemp>27.0</ns3:atemp>
          </ns3:TrackPointExtension>
        </extensions>
      </trkpt>
      <trkpt lat="42.5292166136205196380615234375" lon="19.76477217860519886016845703125">
        <ele>1678.4000244140625</ele>
        <time>2026-06-18T08:54:02.000Z</time>
        <extensions>
          <ns3:TrackPointExtension>
            <ns3:atemp>27.0</ns3:atemp>
          </ns3:TrackPointExtension>
        </extensions>
      </trkpt>
      <trkpt lat="42.5292166136205196380615234375" lon="19.76477217860519886016845703125">
        <ele>1678.5999755859375</ele>
        <time>2026-06-18T08:54:03.000Z</time>
        <extensions>
          <ns3:TrackPointExtension>
            <ns3:atemp>26.0</ns3:atemp>
          </ns3:TrackPointExtension>
        </extensions>
      </trkpt>
      <trkpt lat="42.5292166136205196380615234375" lon="19.76477217860519886016845703125">
        <ele>1678.5999755859375</ele>
        <time>2026-06-18T08:54:04.000Z</time>
        <extensions>
          <ns3:TrackPointExtension>
            <ns3:atemp>26.0</ns3:atemp>
          </ns3:TrackPointExtension>
        </extensions>
      </trkpt>
      <trkpt lat="42.5292166136205196380615234375" lon="19.76477217860519886016845703125">
        <ele>1678.800048828125</ele>
        <time>2026-06-18T08:54:05.000Z</time>
        <extensions>
          <ns3:TrackPointExtension>
            <ns3:atemp>26.0</ns3:atemp>
          </ns3:TrackPointExtension>
        </extensions>
      </trkpt>
      <trkpt lat="42.5292166136205196380615234375" lon="19.76477217860519886016845703125">
        <ele>1678.800048828125</ele>
        <time>2026-06-18T08:54:06.000Z</time>
        <extensions>
          <ns3:TrackPointExtension>
            <ns3:atemp>26.0</ns3:atemp>
          </ns3:TrackPointExtension>
        </extensions>
      </trkpt>
      <trkpt lat="42.5292166136205196380615234375" lon="19.76477217860519886016845703125">
        <ele>1679</ele>
        <time>2026-06-18T08:54:07.000Z</time>
        <extensions>
          <ns3:TrackPointExtension>
            <ns3:atemp>27.0</ns3:atemp>
          </ns3:TrackPointExtension>
        </extensions>
      </trkpt>
      <trkpt lat="42.5292166136205196380615234375" lon="19.76477217860519886016845703125">
        <ele>1679</ele>
        <time>2026-06-18T08:54:08.000Z</time>
        <extensions>
          <ns3:TrackPointExtension>
            <ns3:atemp>27.0</ns3:atemp>
          </ns3:TrackPointExtension>
        </extensions>
      </trkpt>
      <trkpt lat="42.5292166136205196380615234375" lon="19.76477217860519886016845703125">
        <ele>1679</ele>
        <time>2026-06-18T08:54:09.000Z</time>
        <extensions>
          <ns3:TrackPointExtension>
            <ns3:atemp>27.0</ns3:atemp>
          </ns3:TrackPointExtension>
        </extensions>
      </trkpt>
      <trkpt lat="42.5292166136205196380615234375" lon="19.76477217860519886016845703125">
        <ele>1679</ele>
        <time>2026-06-18T08:54:10.000Z</time>
        <extensions>
          <ns3:TrackPointExtension>
            <ns3:atemp>27.0</ns3:atemp>
          </ns3:TrackPointExtension>
        </extensions>
      </trkpt>
      <trkpt lat="42.5292166136205196380615234375" lon="19.76477217860519886016845703125">
        <ele>1679</ele>
        <time>2026-06-18T08:54:11.000Z</time>
        <extensions>
          <ns3:TrackPointExtension>
            <ns3:atemp>26.0</ns3:atemp>
          </ns3:TrackPointExtension>
        </extensions>
      </trkpt>
      <trkpt lat="42.5292166136205196380615234375" lon="19.76477217860519886016845703125">
        <ele>1679</ele>
        <time>2026-06-18T08:54:12.000Z</time>
        <extensions>
          <ns3:TrackPointExtension>
            <ns3:atemp>26.0</ns3:atemp>
          </ns3:TrackPointExtension>
        </extensions>
      </trkpt>
      <trkpt lat="42.5292166136205196380615234375" lon="19.76477217860519886016845703125">
        <ele>1679</ele>
        <time>2026-06-18T08:54:13.000Z</time>
        <extensions>
          <ns3:TrackPointExtension>
            <ns3:atemp>26.0</ns3:atemp>
          </ns3:TrackPointExtension>
        </extensions>
      </trkpt>
      <trkpt lat="42.5292166136205196380615234375" lon="19.76477217860519886016845703125">
        <ele>1678.800048828125</ele>
        <time>2026-06-18T08:54:14.000Z</time>
        <extensions>
          <ns3:TrackPointExtension>
            <ns3:atemp>26.0</ns3:atemp>
          </ns3:TrackPointExtension>
        </extensions>
      </trkpt>
      <trkpt lat="42.5292166136205196380615234375" lon="19.76477217860519886016845703125">
        <ele>1678.800048828125</ele>
        <time>2026-06-18T08:54:15.000Z</time>
        <extensions>
          <ns3:TrackPointExtension>
            <ns3:atemp>27.0</ns3:atemp>
          </ns3:TrackPointExtension>
        </extensions>
      </trkpt>
      <trkpt lat="42.5292166136205196380615234375" lon="19.76477217860519886016845703125">
        <ele>1678.800048828125</ele>
        <time>2026-06-18T08:54:16.000Z</time>
        <extensions>
          <ns3:TrackPointExtension>
            <ns3:atemp>26.0</ns3:atemp>
          </ns3:TrackPointExtension>
        </extensions>
      </trkpt>
      <trkpt lat="42.5292166136205196380615234375" lon="19.76477217860519886016845703125">
        <ele>1678.800048828125</ele>
        <time>2026-06-18T08:54:17.000Z</time>
        <extensions>
          <ns3:TrackPointExtension>
            <ns3:atemp>27.0</ns3:atemp>
          </ns3:TrackPointExtension>
        </extensions>
      </trkpt>
      <trkpt lat="42.5292166136205196380615234375" lon="19.76477217860519886016845703125">
        <ele>1678.800048828125</ele>
        <time>2026-06-18T08:54:18.000Z</time>
        <extensions>
          <ns3:TrackPointExtension>
            <ns3:atemp>26.0</ns3:atemp>
          </ns3:TrackPointExtension>
        </extensions>
      </trkpt>
      <trkpt lat="42.5292166136205196380615234375" lon="19.76477217860519886016845703125">
        <ele>1678.800048828125</ele>
        <time>2026-06-18T08:54:19.000Z</time>
        <extensions>
          <ns3:TrackPointExtension>
            <ns3:atemp>26.0</ns3:atemp>
          </ns3:TrackPointExtension>
        </extensions>
      </trkpt>
      <trkpt lat="42.5292166136205196380615234375" lon="19.76477217860519886016845703125">
        <ele>1678.5999755859375</ele>
        <time>2026-06-18T08:54:20.000Z</time>
        <extensions>
          <ns3:TrackPointExtension>
            <ns3:atemp>26.0</ns3:atemp>
          </ns3:TrackPointExtension>
        </extensions>
      </trkpt>
      <trkpt lat="42.5292166136205196380615234375" lon="19.76477217860519886016845703125">
        <ele>1678.5999755859375</ele>
        <time>2026-06-18T08:54:21.000Z</time>
        <extensions>
          <ns3:TrackPointExtension>
            <ns3:atemp>26.0</ns3:atemp>
          </ns3:TrackPointExtension>
        </extensions>
      </trkpt>
      <trkpt lat="42.5292166136205196380615234375" lon="19.76477217860519886016845703125">
        <ele>1678.5999755859375</ele>
        <time>2026-06-18T08:54:22.000Z</time>
        <extensions>
          <ns3:TrackPointExtension>
            <ns3:atemp>26.0</ns3:atemp>
          </ns3:TrackPointExtension>
        </extensions>
      </trkpt>
      <trkpt lat="42.5292166136205196380615234375" lon="19.76477217860519886016845703125">
        <ele>1678.5999755859375</ele>
        <time>2026-06-18T08:54:23.000Z</time>
        <extensions>
          <ns3:TrackPointExtension>
            <ns3:atemp>26.0</ns3:atemp>
          </ns3:TrackPointExtension>
        </extensions>
      </trkpt>
      <trkpt lat="42.5292166136205196380615234375" lon="19.76477217860519886016845703125">
        <ele>1678.5999755859375</ele>
        <time>2026-06-18T08:54:24.000Z</time>
        <extensions>
          <ns3:TrackPointExtension>
            <ns3:atemp>26.0</ns3:atemp>
          </ns3:TrackPointExtension>
        </extensions>
      </trkpt>
      <trkpt lat="42.5292166136205196380615234375" lon="19.76477217860519886016845703125">
        <ele>1678.5999755859375</ele>
        <time>2026-06-18T08:54:25.000Z</time>
        <extensions>
          <ns3:TrackPointExtension>
            <ns3:atemp>26.0</ns3:atemp>
          </ns3:TrackPointExtension>
        </extensions>
      </trkpt>
      <trkpt lat="42.5292166136205196380615234375" lon="19.76477217860519886016845703125">
        <ele>1678.800048828125</ele>
        <time>2026-06-18T08:54:26.000Z</time>
        <extensions>
          <ns3:TrackPointExtension>
            <ns3:atemp>26.0</ns3:atemp>
          </ns3:TrackPointExtension>
        </extensions>
      </trkpt>
      <trkpt lat="42.5292166136205196380615234375" lon="19.76477217860519886016845703125">
        <ele>1678.800048828125</ele>
        <time>2026-06-18T08:54:27.000Z</time>
        <extensions>
          <ns3:TrackPointExtension>
            <ns3:atemp>26.0</ns3:atemp>
          </ns3:TrackPointExtension>
        </extensions>
      </trkpt>
      <trkpt lat="42.5292166136205196380615234375" lon="19.76477217860519886016845703125">
        <ele>1678.800048828125</ele>
        <time>2026-06-18T08:54:28.000Z</time>
        <extensions>
          <ns3:TrackPointExtension>
            <ns3:atemp>26.0</ns3:atemp>
          </ns3:TrackPointExtension>
        </extensions>
      </trkpt>
      <trkpt lat="42.5292166136205196380615234375" lon="19.76477217860519886016845703125">
        <ele>1678.5999755859375</ele>
        <time>2026-06-18T08:54:29.000Z</time>
        <extensions>
          <ns3:TrackPointExtension>
            <ns3:atemp>26.0</ns3:atemp>
          </ns3:TrackPointExtension>
        </extensions>
      </trkpt>
      <trkpt lat="42.5292166136205196380615234375" lon="19.76477217860519886016845703125">
        <ele>1678.5999755859375</ele>
        <time>2026-06-18T08:54:30.000Z</time>
        <extensions>
          <ns3:TrackPointExtension>
            <ns3:atemp>26.0</ns3:atemp>
          </ns3:TrackPointExtension>
        </extensions>
      </trkpt>
      <trkpt lat="42.5292166136205196380615234375" lon="19.76477217860519886016845703125">
        <ele>1678.5999755859375</ele>
        <time>2026-06-18T08:54:31.000Z</time>
        <extensions>
          <ns3:TrackPointExtension>
            <ns3:atemp>26.0</ns3:atemp>
          </ns3:TrackPointExtension>
        </extensions>
      </trkpt>
      <trkpt lat="42.5292166136205196380615234375" lon="19.76477217860519886016845703125">
        <ele>1678.5999755859375</ele>
        <time>2026-06-18T08:54:32.000Z</time>
        <extensions>
          <ns3:TrackPointExtension>
            <ns3:atemp>26.0</ns3:atemp>
          </ns3:TrackPointExtension>
        </extensions>
      </trkpt>
      <trkpt lat="42.5292166136205196380615234375" lon="19.76477217860519886016845703125">
        <ele>1678.5999755859375</ele>
        <time>2026-06-18T08:54:33.000Z</time>
        <extensions>
          <ns3:TrackPointExtension>
            <ns3:atemp>26.0</ns3:atemp>
          </ns3:TrackPointExtension>
        </extensions>
      </trkpt>
      <trkpt lat="42.5292166136205196380615234375" lon="19.76477217860519886016845703125">
        <ele>1678.4000244140625</ele>
        <time>2026-06-18T08:54:34.000Z</time>
        <extensions>
          <ns3:TrackPointExtension>
            <ns3:atemp>26.0</ns3:atemp>
          </ns3:TrackPointExtension>
        </extensions>
      </trkpt>
      <trkpt lat="42.5292166136205196380615234375" lon="19.76477217860519886016845703125">
        <ele>1678.4000244140625</ele>
        <time>2026-06-18T08:54:35.000Z</time>
        <extensions>
          <ns3:TrackPointExtension>
            <ns3:atemp>26.0</ns3:atemp>
          </ns3:TrackPointExtension>
        </extensions>
      </trkpt>
      <trkpt lat="42.5292166136205196380615234375" lon="19.76477217860519886016845703125">
        <ele>1678.4000244140625</ele>
        <time>2026-06-18T08:54:36.000Z</time>
        <extensions>
          <ns3:TrackPointExtension>
            <ns3:atemp>26.0</ns3:atemp>
          </ns3:TrackPointExtension>
        </extensions>
      </trkpt>
      <trkpt lat="42.5292166136205196380615234375" lon="19.76477217860519886016845703125">
        <ele>1678.4000244140625</ele>
        <time>2026-06-18T08:54:37.000Z</time>
        <extensions>
          <ns3:TrackPointExtension>
            <ns3:atemp>26.0</ns3:atemp>
          </ns3:TrackPointExtension>
        </extensions>
      </trkpt>
      <trkpt lat="42.5292166136205196380615234375" lon="19.76477217860519886016845703125">
        <ele>1678.199951171875</ele>
        <time>2026-06-18T08:54:38.000Z</time>
        <extensions>
          <ns3:TrackPointExtension>
            <ns3:atemp>26.0</ns3:atemp>
          </ns3:TrackPointExtension>
        </extensions>
      </trkpt>
      <trkpt lat="42.5292166136205196380615234375" lon="19.76477217860519886016845703125">
        <ele>1678.199951171875</ele>
        <time>2026-06-18T08:54:39.000Z</time>
        <extensions>
          <ns3:TrackPointExtension>
            <ns3:atemp>26.0</ns3:atemp>
          </ns3:TrackPointExtension>
        </extensions>
      </trkpt>
      <trkpt lat="42.5292166136205196380615234375" lon="19.76477217860519886016845703125">
        <ele>1678.199951171875</ele>
        <time>2026-06-18T08:54:40.000Z</time>
        <extensions>
          <ns3:TrackPointExtension>
            <ns3:atemp>26.0</ns3:atemp>
          </ns3:TrackPointExtension>
        </extensions>
      </trkpt>
      <trkpt lat="42.5292166136205196380615234375" lon="19.76477217860519886016845703125">
        <ele>1678.199951171875</ele>
        <time>2026-06-18T08:54:41.000Z</time>
        <extensions>
          <ns3:TrackPointExtension>
            <ns3:atemp>26.0</ns3:atemp>
          </ns3:TrackPointExtension>
        </extensions>
      </trkpt>
      <trkpt lat="42.5292166136205196380615234375" lon="19.76477217860519886016845703125">
        <ele>1678.199951171875</ele>
        <time>2026-06-18T08:54:42.000Z</time>
        <extensions>
          <ns3:TrackPointExtension>
            <ns3:atemp>26.0</ns3:atemp>
          </ns3:TrackPointExtension>
        </extensions>
      </trkpt>
      <trkpt lat="42.5292166136205196380615234375" lon="19.76477217860519886016845703125">
        <ele>1678</ele>
        <time>2026-06-18T08:54:43.000Z</time>
        <extensions>
          <ns3:TrackPointExtension>
            <ns3:atemp>26.0</ns3:atemp>
          </ns3:TrackPointExtension>
        </extensions>
      </trkpt>
      <trkpt lat="42.5292166136205196380615234375" lon="19.76477217860519886016845703125">
        <ele>1677.800048828125</ele>
        <time>2026-06-18T08:54:44.000Z</time>
        <extensions>
          <ns3:TrackPointExtension>
            <ns3:atemp>26.0</ns3:atemp>
          </ns3:TrackPointExtension>
        </extensions>
      </trkpt>
      <trkpt lat="42.5292166136205196380615234375" lon="19.76477217860519886016845703125">
        <ele>1677.5999755859375</ele>
        <time>2026-06-18T08:54:45.000Z</time>
        <extensions>
          <ns3:TrackPointExtension>
            <ns3:atemp>26.0</ns3:atemp>
          </ns3:TrackPointExtension>
        </extensions>
      </trkpt>
      <trkpt lat="42.5292166136205196380615234375" lon="19.76477217860519886016845703125">
        <ele>1677.4000244140625</ele>
        <time>2026-06-18T08:54:46.000Z</time>
        <extensions>
          <ns3:TrackPointExtension>
            <ns3:atemp>26.0</ns3:atemp>
          </ns3:TrackPointExtension>
        </extensions>
      </trkpt>
      <trkpt lat="42.5292166136205196380615234375" lon="19.76477217860519886016845703125">
        <ele>1677.4000244140625</ele>
        <time>2026-06-18T08:54:47.000Z</time>
        <extensions>
          <ns3:TrackPointExtension>
            <ns3:atemp>26.0</ns3:atemp>
          </ns3:TrackPointExtension>
        </extensions>
      </trkpt>
      <trkpt lat="42.5292166136205196380615234375" lon="19.76477217860519886016845703125">
        <ele>1677.199951171875</ele>
        <time>2026-06-18T08:54:48.000Z</time>
        <extensions>
          <ns3:TrackPointExtension>
            <ns3:atemp>26.0</ns3:atemp>
          </ns3:TrackPointExtension>
        </extensions>
      </trkpt>
      <trkpt lat="42.5292166136205196380615234375" lon="19.76477217860519886016845703125">
        <ele>1677.199951171875</ele>
        <time>2026-06-18T08:54:49.000Z</time>
        <extensions>
          <ns3:TrackPointExtension>
            <ns3:atemp>26.0</ns3:atemp>
          </ns3:TrackPointExtension>
        </extensions>
      </trkpt>
      <trkpt lat="42.5292166136205196380615234375" lon="19.76477217860519886016845703125">
        <ele>1677.199951171875</ele>
        <time>2026-06-18T08:54:50.000Z</time>
        <extensions>
          <ns3:TrackPointExtension>
            <ns3:atemp>26.0</ns3:atemp>
          </ns3:TrackPointExtension>
        </extensions>
      </trkpt>
      <trkpt lat="42.5292166136205196380615234375" lon="19.76477217860519886016845703125">
        <ele>1677.199951171875</ele>
        <time>2026-06-18T08:54:51.000Z</time>
        <extensions>
          <ns3:TrackPointExtension>
            <ns3:atemp>26.0</ns3:atemp>
          </ns3:TrackPointExtension>
        </extensions>
      </trkpt>
      <trkpt lat="42.5292166136205196380615234375" lon="19.76477217860519886016845703125">
        <ele>1677.4000244140625</ele>
        <time>2026-06-18T08:54:52.000Z</time>
        <extensions>
          <ns3:TrackPointExtension>
            <ns3:atemp>26.0</ns3:atemp>
          </ns3:TrackPointExtension>
        </extensions>
      </trkpt>
      <trkpt lat="42.5292166136205196380615234375" lon="19.76477217860519886016845703125">
        <ele>1677.199951171875</ele>
        <time>2026-06-18T08:54:53.000Z</time>
        <extensions>
          <ns3:TrackPointExtension>
            <ns3:atemp>26.0</ns3:atemp>
          </ns3:TrackPointExtension>
        </extensions>
      </trkpt>
      <trkpt lat="42.5292166136205196380615234375" lon="19.76477217860519886016845703125">
        <ele>1677.199951171875</ele>
        <time>2026-06-18T08:54:54.000Z</time>
        <extensions>
          <ns3:TrackPointExtension>
            <ns3:atemp>26.0</ns3:atemp>
          </ns3:TrackPointExtension>
        </extensions>
      </trkpt>
      <trkpt lat="42.5292166136205196380615234375" lon="19.76477217860519886016845703125">
        <ele>1677.199951171875</ele>
        <time>2026-06-18T08:54:55.000Z</time>
        <extensions>
          <ns3:TrackPointExtension>
            <ns3:atemp>26.0</ns3:atemp>
          </ns3:TrackPointExtension>
        </extensions>
      </trkpt>
      <trkpt lat="42.5292166136205196380615234375" lon="19.76477217860519886016845703125">
        <ele>1677.4000244140625</ele>
        <time>2026-06-18T08:54:56.000Z</time>
        <extensions>
          <ns3:TrackPointExtension>
            <ns3:atemp>26.0</ns3:atemp>
          </ns3:TrackPointExtension>
        </extensions>
      </trkpt>
      <trkpt lat="42.5292166136205196380615234375" lon="19.76477217860519886016845703125">
        <ele>1677.4000244140625</ele>
        <time>2026-06-18T08:54:57.000Z</time>
        <extensions>
          <ns3:TrackPointExtension>
            <ns3:atemp>26.0</ns3:atemp>
          </ns3:TrackPointExtension>
        </extensions>
      </trkpt>
      <trkpt lat="42.5292166136205196380615234375" lon="19.76477217860519886016845703125">
        <ele>1677.5999755859375</ele>
        <time>2026-06-18T08:54:58.000Z</time>
        <extensions>
          <ns3:TrackPointExtension>
            <ns3:atemp>26.0</ns3:atemp>
          </ns3:TrackPointExtension>
        </extensions>
      </trkpt>
      <trkpt lat="42.5292166136205196380615234375" lon="19.76477217860519886016845703125">
        <ele>1677.800048828125</ele>
        <time>2026-06-18T08:54:59.000Z</time>
        <extensions>
          <ns3:TrackPointExtension>
            <ns3:atemp>26.0</ns3:atemp>
          </ns3:TrackPointExtension>
        </extensions>
      </trkpt>
      <trkpt lat="42.5292166136205196380615234375" lon="19.76477217860519886016845703125">
        <ele>1678</ele>
        <time>2026-06-18T08:55:00.000Z</time>
        <extensions>
          <ns3:TrackPointExtension>
            <ns3:atemp>26.0</ns3:atemp>
          </ns3:TrackPointExtension>
        </extensions>
      </trkpt>
      <trkpt lat="42.5292166136205196380615234375" lon="19.76477217860519886016845703125">
        <ele>1678.4000244140625</ele>
        <time>2026-06-18T08:55:01.000Z</time>
        <extensions>
          <ns3:TrackPointExtension>
            <ns3:atemp>26.0</ns3:atemp>
          </ns3:TrackPointExtension>
        </extensions>
      </trkpt>
      <trkpt lat="42.5292166136205196380615234375" lon="19.76477217860519886016845703125">
        <ele>1678.4000244140625</ele>
        <time>2026-06-18T08:55:02.000Z</time>
        <extensions>
          <ns3:TrackPointExtension>
            <ns3:atemp>26.0</ns3:atemp>
          </ns3:TrackPointExtension>
        </extensions>
      </trkpt>
      <trkpt lat="42.5292166136205196380615234375" lon="19.76477217860519886016845703125">
        <ele>1678.4000244140625</ele>
        <time>2026-06-18T08:55:03.000Z</time>
        <extensions>
          <ns3:TrackPointExtension>
            <ns3:atemp>26.0</ns3:atemp>
          </ns3:TrackPointExtension>
        </extensions>
      </trkpt>
      <trkpt lat="42.5292166136205196380615234375" lon="19.76477217860519886016845703125">
        <ele>1678.4000244140625</ele>
        <time>2026-06-18T08:55:04.000Z</time>
        <extensions>
          <ns3:TrackPointExtension>
            <ns3:atemp>26.0</ns3:atemp>
          </ns3:TrackPointExtension>
        </extensions>
      </trkpt>
      <trkpt lat="42.5292166136205196380615234375" lon="19.76477217860519886016845703125">
        <ele>1678.4000244140625</ele>
        <time>2026-06-18T08:55:05.000Z</time>
        <extensions>
          <ns3:TrackPointExtension>
            <ns3:atemp>26.0</ns3:atemp>
          </ns3:TrackPointExtension>
        </extensions>
      </trkpt>
      <trkpt lat="42.5292166136205196380615234375" lon="19.76477217860519886016845703125">
        <ele>1678.4000244140625</ele>
        <time>2026-06-18T08:55:06.000Z</time>
        <extensions>
          <ns3:TrackPointExtension>
            <ns3:atemp>26.0</ns3:atemp>
          </ns3:TrackPointExtension>
        </extensions>
      </trkpt>
      <trkpt lat="42.5292166136205196380615234375" lon="19.76477217860519886016845703125">
        <ele>1678.4000244140625</ele>
        <time>2026-06-18T08:55:07.000Z</time>
        <extensions>
          <ns3:TrackPointExtension>
            <ns3:atemp>26.0</ns3:atemp>
          </ns3:TrackPointExtension>
        </extensions>
      </trkpt>
      <trkpt lat="42.5292166136205196380615234375" lon="19.76477217860519886016845703125">
        <ele>1678.4000244140625</ele>
        <time>2026-06-18T08:55:08.000Z</time>
        <extensions>
          <ns3:TrackPointExtension>
            <ns3:atemp>26.0</ns3:atemp>
          </ns3:TrackPointExtension>
        </extensions>
      </trkpt>
      <trkpt lat="42.5292166136205196380615234375" lon="19.76477217860519886016845703125">
        <ele>1678.4000244140625</ele>
        <time>2026-06-18T08:55:09.000Z</time>
        <extensions>
          <ns3:TrackPointExtension>
            <ns3:atemp>26.0</ns3:atemp>
          </ns3:TrackPointExtension>
        </extensions>
      </trkpt>
      <trkpt lat="42.5292166136205196380615234375" lon="19.76477217860519886016845703125">
        <ele>1678.4000244140625</ele>
        <time>2026-06-18T08:55:10.000Z</time>
        <extensions>
          <ns3:TrackPointExtension>
            <ns3:atemp>26.0</ns3:atemp>
          </ns3:TrackPointExtension>
        </extensions>
      </trkpt>
      <trkpt lat="42.5292166136205196380615234375" lon="19.76477217860519886016845703125">
        <ele>1678.4000244140625</ele>
        <time>2026-06-18T08:55:11.000Z</time>
        <extensions>
          <ns3:TrackPointExtension>
            <ns3:atemp>26.0</ns3:atemp>
          </ns3:TrackPointExtension>
        </extensions>
      </trkpt>
      <trkpt lat="42.5292166136205196380615234375" lon="19.76477217860519886016845703125">
        <ele>1678.4000244140625</ele>
        <time>2026-06-18T08:55:12.000Z</time>
        <extensions>
          <ns3:TrackPointExtension>
            <ns3:atemp>26.0</ns3:atemp>
          </ns3:TrackPointExtension>
        </extensions>
      </trkpt>
      <trkpt lat="42.5292166136205196380615234375" lon="19.76477217860519886016845703125">
        <ele>1678.4000244140625</ele>
        <time>2026-06-18T08:55:13.000Z</time>
        <extensions>
          <ns3:TrackPointExtension>
            <ns3:atemp>26.0</ns3:atemp>
          </ns3:TrackPointExtension>
        </extensions>
      </trkpt>
      <trkpt lat="42.5292166136205196380615234375" lon="19.76477217860519886016845703125">
        <ele>1678.4000244140625</ele>
        <time>2026-06-18T08:55:14.000Z</time>
        <extensions>
          <ns3:TrackPointExtension>
            <ns3:atemp>26.0</ns3:atemp>
          </ns3:TrackPointExtension>
        </extensions>
      </trkpt>
      <trkpt lat="42.5292166136205196380615234375" lon="19.76477217860519886016845703125">
        <ele>1678.4000244140625</ele>
        <time>2026-06-18T08:55:15.000Z</time>
        <extensions>
          <ns3:TrackPointExtension>
            <ns3:atemp>26.0</ns3:atemp>
          </ns3:TrackPointExtension>
        </extensions>
      </trkpt>
      <trkpt lat="42.5292166136205196380615234375" lon="19.76477217860519886016845703125">
        <ele>1678.4000244140625</ele>
        <time>2026-06-18T08:55:16.000Z</time>
        <extensions>
          <ns3:TrackPointExtension>
            <ns3:atemp>26.0</ns3:atemp>
          </ns3:TrackPointExtension>
        </extensions>
      </trkpt>
      <trkpt lat="42.5292166136205196380615234375" lon="19.76477217860519886016845703125">
        <ele>1678.4000244140625</ele>
        <time>2026-06-18T08:55:17.000Z</time>
        <extensions>
          <ns3:TrackPointExtension>
            <ns3:atemp>26.0</ns3:atemp>
          </ns3:TrackPointExtension>
        </extensions>
      </trkpt>
      <trkpt lat="42.5292166136205196380615234375" lon="19.76477217860519886016845703125">
        <ele>1678.4000244140625</ele>
        <time>2026-06-18T08:55:18.000Z</time>
        <extensions>
          <ns3:TrackPointExtension>
            <ns3:atemp>26.0</ns3:atemp>
          </ns3:TrackPointExtension>
        </extensions>
      </trkpt>
      <trkpt lat="42.5292166136205196380615234375" lon="19.76477217860519886016845703125">
        <ele>1678.4000244140625</ele>
        <time>2026-06-18T08:55:19.000Z</time>
        <extensions>
          <ns3:TrackPointExtension>
            <ns3:atemp>26.0</ns3:atemp>
          </ns3:TrackPointExtension>
        </extensions>
      </trkpt>
      <trkpt lat="42.5292166136205196380615234375" lon="19.76477217860519886016845703125">
        <ele>1678.4000244140625</ele>
        <time>2026-06-18T08:55:20.000Z</time>
        <extensions>
          <ns3:TrackPointExtension>
            <ns3:atemp>26.0</ns3:atemp>
          </ns3:TrackPointExtension>
        </extensions>
      </trkpt>
      <trkpt lat="42.5292166136205196380615234375" lon="19.76477217860519886016845703125">
        <ele>1678.4000244140625</ele>
        <time>2026-06-18T08:55:21.000Z</time>
        <extensions>
          <ns3:TrackPointExtension>
            <ns3:atemp>26.0</ns3:atemp>
          </ns3:TrackPointExtension>
        </extensions>
      </trkpt>
      <trkpt lat="42.5292166136205196380615234375" lon="19.76477217860519886016845703125">
        <ele>1678.4000244140625</ele>
        <time>2026-06-18T08:55:22.000Z</time>
        <extensions>
          <ns3:TrackPointExtension>
            <ns3:atemp>26.0</ns3:atemp>
          </ns3:TrackPointExtension>
        </extensions>
      </trkpt>
      <trkpt lat="42.5292166136205196380615234375" lon="19.76477217860519886016845703125">
        <ele>1678.4000244140625</ele>
        <time>2026-06-18T08:55:23.000Z</time>
        <extensions>
          <ns3:TrackPointExtension>
            <ns3:atemp>26.0</ns3:atemp>
          </ns3:TrackPointExtension>
        </extensions>
      </trkpt>
      <trkpt lat="42.5292166136205196380615234375" lon="19.76477217860519886016845703125">
        <ele>1678.4000244140625</ele>
        <time>2026-06-18T08:55:24.000Z</time>
        <extensions>
          <ns3:TrackPointExtension>
            <ns3:atemp>26.0</ns3:atemp>
          </ns3:TrackPointExtension>
        </extensions>
      </trkpt>
      <trkpt lat="42.5292166136205196380615234375" lon="19.76477217860519886016845703125">
        <ele>1678.4000244140625</ele>
        <time>2026-06-18T08:55:25.000Z</time>
        <extensions>
          <ns3:TrackPointExtension>
            <ns3:atemp>26.0</ns3:atemp>
          </ns3:TrackPointExtension>
        </extensions>
      </trkpt>
      <trkpt lat="42.5292166136205196380615234375" lon="19.76477217860519886016845703125">
        <ele>1678.4000244140625</ele>
        <time>2026-06-18T08:55:26.000Z</time>
        <extensions>
          <ns3:TrackPointExtension>
            <ns3:atemp>26.0</ns3:atemp>
          </ns3:TrackPointExtension>
        </extensions>
      </trkpt>
      <trkpt lat="42.5292166136205196380615234375" lon="19.76477217860519886016845703125">
        <ele>1678.4000244140625</ele>
        <time>2026-06-18T08:55:27.000Z</time>
        <extensions>
          <ns3:TrackPointExtension>
            <ns3:atemp>26.0</ns3:atemp>
          </ns3:TrackPointExtension>
        </extensions>
      </trkpt>
      <trkpt lat="42.5292166136205196380615234375" lon="19.76477217860519886016845703125">
        <ele>1678.4000244140625</ele>
        <time>2026-06-18T08:55:28.000Z</time>
        <extensions>
          <ns3:TrackPointExtension>
            <ns3:atemp>26.0</ns3:atemp>
          </ns3:TrackPointExtension>
        </extensions>
      </trkpt>
      <trkpt lat="42.5292166136205196380615234375" lon="19.76477217860519886016845703125">
        <ele>1678.4000244140625</ele>
        <time>2026-06-18T08:55:29.000Z</time>
        <extensions>
          <ns3:TrackPointExtension>
            <ns3:atemp>26.0</ns3:atemp>
          </ns3:TrackPointExtension>
        </extensions>
      </trkpt>
      <trkpt lat="42.5292166136205196380615234375" lon="19.76477217860519886016845703125">
        <ele>1678.4000244140625</ele>
        <time>2026-06-18T08:55:30.000Z</time>
        <extensions>
          <ns3:TrackPointExtension>
            <ns3:atemp>26.0</ns3:atemp>
          </ns3:TrackPointExtension>
        </extensions>
      </trkpt>
      <trkpt lat="42.5292166136205196380615234375" lon="19.76477217860519886016845703125">
        <ele>1678.4000244140625</ele>
        <time>2026-06-18T08:55:31.000Z</time>
        <extensions>
          <ns3:TrackPointExtension>
            <ns3:atemp>26.0</ns3:atemp>
          </ns3:TrackPointExtension>
        </extensions>
      </trkpt>
      <trkpt lat="42.5292166136205196380615234375" lon="19.76477217860519886016845703125">
        <ele>1678.4000244140625</ele>
        <time>2026-06-18T08:55:32.000Z</time>
        <extensions>
          <ns3:TrackPointExtension>
            <ns3:atemp>26.0</ns3:atemp>
          </ns3:TrackPointExtension>
        </extensions>
      </trkpt>
      <trkpt lat="42.5292166136205196380615234375" lon="19.76477217860519886016845703125">
        <ele>1678.4000244140625</ele>
        <time>2026-06-18T08:55:33.000Z</time>
        <extensions>
          <ns3:TrackPointExtension>
            <ns3:atemp>26.0</ns3:atemp>
          </ns3:TrackPointExtension>
        </extensions>
      </trkpt>
      <trkpt lat="42.5292166136205196380615234375" lon="19.76477217860519886016845703125">
        <ele>1678.4000244140625</ele>
        <time>2026-06-18T08:55:34.000Z</time>
        <extensions>
          <ns3:TrackPointExtension>
            <ns3:atemp>26.0</ns3:atemp>
          </ns3:TrackPointExtension>
        </extensions>
      </trkpt>
      <trkpt lat="42.5292166136205196380615234375" lon="19.76477217860519886016845703125">
        <ele>1678.4000244140625</ele>
        <time>2026-06-18T08:55:35.000Z</time>
        <extensions>
          <ns3:TrackPointExtension>
            <ns3:atemp>26.0</ns3:atemp>
          </ns3:TrackPointExtension>
        </extensions>
      </trkpt>
      <trkpt lat="42.5292166136205196380615234375" lon="19.76477217860519886016845703125">
        <ele>1678.4000244140625</ele>
        <time>2026-06-18T08:55:36.000Z</time>
        <extensions>
          <ns3:TrackPointExtension>
            <ns3:atemp>26.0</ns3:atemp>
          </ns3:TrackPointExtension>
        </extensions>
      </trkpt>
      <trkpt lat="42.52921678125858306884765625" lon="19.76476262323558330535888671875">
        <ele>1678.4000244140625</ele>
        <time>2026-06-18T08:55:37.000Z</time>
        <extensions>
          <ns3:TrackPointExtension>
            <ns3:atemp>26.0</ns3:atemp>
          </ns3:TrackPointExtension>
        </extensions>
      </trkpt>
      <trkpt lat="42.52920806407928466796875" lon="19.76476782001554965972900390625">
        <ele>1678.4000244140625</ele>
        <time>2026-06-18T08:55:38.000Z</time>
        <extensions>
          <ns3:TrackPointExtension>
            <ns3:atemp>26.0</ns3:atemp>
          </ns3:TrackPointExtension>
        </extensions>
      </trkpt>
      <trkpt lat="42.5291954912245273590087890625" lon="19.7647769562900066375732421875">
        <ele>1678.199951171875</ele>
        <time>2026-06-18T08:55:39.000Z</time>
        <extensions>
          <ns3:TrackPointExtension>
            <ns3:atemp>26.0</ns3:atemp>
          </ns3:TrackPointExtension>
        </extensions>
      </trkpt>
      <trkpt lat="42.5291757099330425262451171875" lon="19.76478709839284420013427734375">
        <ele>1678.199951171875</ele>
        <time>2026-06-18T08:55:40.000Z</time>
        <extensions>
          <ns3:TrackPointExtension>
            <ns3:atemp>26.0</ns3:atemp>
          </ns3:TrackPointExtension>
        </extensions>
      </trkpt>
      <trkpt lat="42.52914972603321075439453125" lon="19.7647999227046966552734375">
        <ele>1678.199951171875</ele>
        <time>2026-06-18T08:55:41.000Z</time>
        <extensions>
          <ns3:TrackPointExtension>
            <ns3:atemp>26.0</ns3:atemp>
          </ns3:TrackPointExtension>
        </extensions>
      </trkpt>
      <trkpt lat="42.5291287712752819061279296875" lon="19.76480067707598209381103515625">
        <ele>1678.199951171875</ele>
        <time>2026-06-18T08:55:42.000Z</time>
        <extensions>
          <ns3:TrackPointExtension>
            <ns3:atemp>26.0</ns3:atemp>
          </ns3:TrackPointExtension>
        </extensions>
      </trkpt>
      <trkpt lat="42.52910722978413105010986328125" lon="19.7647930495440959930419921875">
        <ele>1678.4000244140625</ele>
        <time>2026-06-18T08:55:43.000Z</time>
        <extensions>
          <ns3:TrackPointExtension>
            <ns3:atemp>26.0</ns3:atemp>
          </ns3:TrackPointExtension>
        </extensions>
      </trkpt>
      <trkpt lat="42.52908644266426563262939453125" lon="19.76478558965027332305908203125">
        <ele>1678.4000244140625</ele>
        <time>2026-06-18T08:55:44.000Z</time>
        <extensions>
          <ns3:TrackPointExtension>
            <ns3:atemp>26.0</ns3:atemp>
          </ns3:TrackPointExtension>
        </extensions>
      </trkpt>
      <trkpt lat="42.5290640629827976226806640625" lon="19.7647779621183872222900390625">
        <ele>1678.4000244140625</ele>
        <time>2026-06-18T08:55:45.000Z</time>
        <extensions>
          <ns3:TrackPointExtension>
            <ns3:atemp>26.0</ns3:atemp>
          </ns3:TrackPointExtension>
        </extensions>
      </trkpt>
      <trkpt lat="42.52904268912971019744873046875" lon="19.764767400920391082763671875">
        <ele>1678.5999755859375</ele>
        <time>2026-06-18T08:55:46.000Z</time>
        <extensions>
          <ns3:TrackPointExtension>
            <ns3:atemp>26.0</ns3:atemp>
          </ns3:TrackPointExtension>
        </extensions>
      </trkpt>
      <trkpt lat="42.52902709878981113433837890625" lon="19.764747954905033111572265625">
        <ele>1678.5999755859375</ele>
        <time>2026-06-18T08:55:47.000Z</time>
        <extensions>
          <ns3:TrackPointExtension>
            <ns3:atemp>26.0</ns3:atemp>
          </ns3:TrackPointExtension>
        </extensions>
      </trkpt>
      <trkpt lat="42.52901159226894378662109375" lon="19.764726161956787109375">
        <ele>1678.800048828125</ele>
        <time>2026-06-18T08:55:48.000Z</time>
        <extensions>
          <ns3:TrackPointExtension>
            <ns3:atemp>26.0</ns3:atemp>
          </ns3:TrackPointExtension>
        </extensions>
      </trkpt>
      <trkpt lat="42.5289946608245372772216796875" lon="19.764705710113048553466796875">
        <ele>1678.800048828125</ele>
        <time>2026-06-18T08:55:49.000Z</time>
        <extensions>
          <ns3:TrackPointExtension>
            <ns3:atemp>26.0</ns3:atemp>
          </ns3:TrackPointExtension>
        </extensions>
      </trkpt>
      <trkpt lat="42.528977058827877044677734375" lon="19.764684252440929412841796875">
        <ele>1679</ele>
        <time>2026-06-18T08:55:50.000Z</time>
        <extensions>
          <ns3:TrackPointExtension>
            <ns3:atemp>26.0</ns3:atemp>
          </ns3:TrackPointExtension>
        </extensions>
      </trkpt>
      <trkpt lat="42.52896121703088283538818359375" lon="19.76466069929301738739013671875">
        <ele>1679</ele>
        <time>2026-06-18T08:55:51.000Z</time>
        <extensions>
          <ns3:TrackPointExtension>
            <ns3:atemp>26.0</ns3:atemp>
          </ns3:TrackPointExtension>
        </extensions>
      </trkpt>
      <trkpt lat="42.528947554528713226318359375" lon="19.7646351344883441925048828125">
        <ele>1679.199951171875</ele>
        <time>2026-06-18T08:55:52.000Z</time>
        <extensions>
          <ns3:TrackPointExtension>
            <ns3:atemp>26.0</ns3:atemp>
          </ns3:TrackPointExtension>
        </extensions>
      </trkpt>
      <trkpt lat="42.5289336405694484710693359375" lon="19.76461342535912990570068359375">
        <ele>1679.4000244140625</ele>
        <time>2026-06-18T08:55:53.000Z</time>
        <extensions>
          <ns3:TrackPointExtension>
            <ns3:atemp>26.0</ns3:atemp>
          </ns3:TrackPointExtension>
        </extensions>
      </trkpt>
      <trkpt lat="42.5289212353527545928955078125" lon="19.7645907104015350341796875">
        <ele>1679.5999755859375</ele>
        <time>2026-06-18T08:55:54.000Z</time>
        <extensions>
          <ns3:TrackPointExtension>
            <ns3:atemp>26.0</ns3:atemp>
          </ns3:TrackPointExtension>
        </extensions>
      </trkpt>
      <trkpt lat="42.528904974460601806640625" lon="19.76456900127232074737548828125">
        <ele>1679.5999755859375</ele>
        <time>2026-06-18T08:55:55.000Z</time>
        <extensions>
          <ns3:TrackPointExtension>
            <ns3:atemp>26.0</ns3:atemp>
          </ns3:TrackPointExtension>
        </extensions>
      </trkpt>
      <trkpt lat="42.528889216482639312744140625" lon="19.76454452611505985260009765625">
        <ele>1679.800048828125</ele>
        <time>2026-06-18T08:55:56.000Z</time>
        <extensions>
          <ns3:TrackPointExtension>
            <ns3:atemp>26.0</ns3:atemp>
          </ns3:TrackPointExtension>
        </extensions>
      </trkpt>
      <trkpt lat="42.528872787952423095703125" lon="19.7645238228142261505126953125">
        <ele>1680</ele>
        <time>2026-06-18T08:55:57.000Z</time>
        <extensions>
          <ns3:TrackPointExtension>
            <ns3:atemp>26.0</ns3:atemp>
          </ns3:TrackPointExtension>
        </extensions>
      </trkpt>
      <trkpt lat="42.5288555212318897247314453125" lon="19.764503203332424163818359375">
        <ele>1680</ele>
        <time>2026-06-18T08:55:58.000Z</time>
        <extensions>
          <ns3:TrackPointExtension>
            <ns3:atemp>26.0</ns3:atemp>
          </ns3:TrackPointExtension>
        </extensions>
      </trkpt>
      <trkpt lat="42.52883867360651493072509765625" lon="19.7644866071641445159912109375">
        <ele>1680.199951171875</ele>
        <time>2026-06-18T08:55:59.000Z</time>
        <extensions>
          <ns3:TrackPointExtension>
            <ns3:atemp>26.0</ns3:atemp>
          </ns3:TrackPointExtension>
        </extensions>
      </trkpt>
      <trkpt lat="42.52882249653339385986328125" lon="19.764476381242275238037109375">
        <ele>1680.4000244140625</ele>
        <time>2026-06-18T08:56:00.000Z</time>
        <extensions>
          <ns3:TrackPointExtension>
            <ns3:atemp>26.0</ns3:atemp>
          </ns3:TrackPointExtension>
        </extensions>
      </trkpt>
      <trkpt lat="42.5288082472980022430419921875" lon="19.7644664905965328216552734375">
        <ele>1680.5999755859375</ele>
        <time>2026-06-18T08:56:01.000Z</time>
        <extensions>
          <ns3:TrackPointExtension>
            <ns3:atemp>26.0</ns3:atemp>
          </ns3:TrackPointExtension>
        </extensions>
      </trkpt>
      <trkpt lat="42.52879207022488117218017578125" lon="19.7644584439694881439208984375">
        <ele>1680.800048828125</ele>
        <time>2026-06-18T08:56:02.000Z</time>
        <extensions>
          <ns3:TrackPointExtension>
            <ns3:atemp>26.0</ns3:atemp>
          </ns3:TrackPointExtension>
        </extensions>
      </trkpt>
      <trkpt lat="42.528776563704013824462890625" lon="19.764458276331424713134765625">
        <ele>1681.199951171875</ele>
        <time>2026-06-18T08:56:03.000Z</time>
        <extensions>
          <ns3:TrackPointExtension>
            <ns3:atemp>26.0</ns3:atemp>
          </ns3:TrackPointExtension>
        </extensions>
      </trkpt>
      <trkpt lat="42.52876080572605133056640625" lon="19.76445500738918781280517578125">
        <ele>1681.4000244140625</ele>
        <time>2026-06-18T08:56:04.000Z</time>
        <extensions>
          <ns3:TrackPointExtension>
            <ns3:atemp>26.0</ns3:atemp>
          </ns3:TrackPointExtension>
        </extensions>
      </trkpt>
      <trkpt lat="42.5287453830242156982421875" lon="19.7644512355327606201171875">
        <ele>1681.5999755859375</ele>
        <time>2026-06-18T08:56:05.000Z</time>
        <extensions>
          <ns3:TrackPointExtension>
            <ns3:atemp>26.0</ns3:atemp>
          </ns3:TrackPointExtension>
        </extensions>
      </trkpt>
      <trkpt lat="42.52873138524591922760009765625" lon="19.76445131935179233551025390625">
        <ele>1681.800048828125</ele>
        <time>2026-06-18T08:56:06.000Z</time>
        <extensions>
          <ns3:TrackPointExtension>
            <ns3:atemp>26.0</ns3:atemp>
          </ns3:TrackPointExtension>
        </extensions>
      </trkpt>
      <trkpt lat="42.52871428616344928741455078125" lon="19.7644524089992046356201171875">
        <ele>1682</ele>
        <time>2026-06-18T08:56:07.000Z</time>
        <extensions>
          <ns3:TrackPointExtension>
            <ns3:atemp>26.0</ns3:atemp>
          </ns3:TrackPointExtension>
        </extensions>
      </trkpt>
      <trkpt lat="42.52869601361453533172607421875" lon="19.76445064879953861236572265625">
        <ele>1682.199951171875</ele>
        <time>2026-06-18T08:56:08.000Z</time>
        <extensions>
          <ns3:TrackPointExtension>
            <ns3:atemp>26.0</ns3:atemp>
          </ns3:TrackPointExtension>
        </extensions>
      </trkpt>
      <trkpt lat="42.52867874689400196075439453125" lon="19.76444914005696773529052734375">
        <ele>1682.5999755859375</ele>
        <time>2026-06-18T08:56:09.000Z</time>
        <extensions>
          <ns3:TrackPointExtension>
            <ns3:atemp>26.0</ns3:atemp>
          </ns3:TrackPointExtension>
        </extensions>
      </trkpt>
      <trkpt lat="42.5286630727350711822509765625" lon="19.76444645784795284271240234375">
        <ele>1682.5999755859375</ele>
        <time>2026-06-18T08:56:10.000Z</time>
        <extensions>
          <ns3:TrackPointExtension>
            <ns3:atemp>26.0</ns3:atemp>
          </ns3:TrackPointExtension>
        </extensions>
      </trkpt>
      <trkpt lat="42.52864790149033069610595703125" lon="19.76443841122090816497802734375">
        <ele>1682.800048828125</ele>
        <time>2026-06-18T08:56:11.000Z</time>
        <extensions>
          <ns3:TrackPointExtension>
            <ns3:atemp>26.0</ns3:atemp>
          </ns3:TrackPointExtension>
        </extensions>
      </trkpt>
      <trkpt lat="42.5286369211971759796142578125" lon="19.7644229047000408172607421875">
        <ele>1683</ele>
        <time>2026-06-18T08:56:12.000Z</time>
        <extensions>
          <ns3:TrackPointExtension>
            <ns3:atemp>26.0</ns3:atemp>
          </ns3:TrackPointExtension>
        </extensions>
      </trkpt>
      <trkpt lat="42.52862091176211833953857421875" lon="19.7644074819982051849365234375">
        <ele>1683.199951171875</ele>
        <time>2026-06-18T08:56:13.000Z</time>
        <extensions>
          <ns3:TrackPointExtension>
            <ns3:atemp>26.0</ns3:atemp>
          </ns3:TrackPointExtension>
        </extensions>
      </trkpt>
      <trkpt lat="42.5286097638309001922607421875" lon="19.76439164020121097564697265625">
        <ele>1683.199951171875</ele>
        <time>2026-06-18T08:56:14.000Z</time>
        <extensions>
          <ns3:TrackPointExtension>
            <ns3:atemp>26.0</ns3:atemp>
          </ns3:TrackPointExtension>
        </extensions>
      </trkpt>
      <trkpt lat="42.5285953469574451446533203125" lon="19.7643692605197429656982421875">
        <ele>1683.4000244140625</ele>
        <time>2026-06-18T08:56:15.000Z</time>
        <extensions>
          <ns3:TrackPointExtension>
            <ns3:atemp>26.0</ns3:atemp>
          </ns3:TrackPointExtension>
        </extensions>
      </trkpt>
      <trkpt lat="42.52858336083590984344482421875" lon="19.76434604264795780181884765625">
        <ele>1683.4000244140625</ele>
        <time>2026-06-18T08:56:16.000Z</time>
        <extensions>
          <ns3:TrackPointExtension>
            <ns3:atemp>26.0</ns3:atemp>
          </ns3:TrackPointExtension>
        </extensions>
      </trkpt>
      <trkpt lat="42.52857464365661144256591796875" lon="19.76432039402425289154052734375">
        <ele>1683.4000244140625</ele>
        <time>2026-06-18T08:56:17.000Z</time>
        <extensions>
          <ns3:TrackPointExtension>
            <ns3:atemp>26.0</ns3:atemp>
          </ns3:TrackPointExtension>
        </extensions>
      </trkpt>
      <trkpt lat="42.528566680848598480224609375" lon="19.76429843343794345855712890625">
        <ele>1683.4000244140625</ele>
        <time>2026-06-18T08:56:18.000Z</time>
        <extensions>
          <ns3:TrackPointExtension>
            <ns3:atemp>26.0</ns3:atemp>
          </ns3:TrackPointExtension>
        </extensions>
      </trkpt>
      <trkpt lat="42.5285567902028560638427734375" lon="19.7642794065177440643310546875">
        <ele>1683.4000244140625</ele>
        <time>2026-06-18T08:56:19.000Z</time>
        <extensions>
          <ns3:TrackPointExtension>
            <ns3:atemp>26.0</ns3:atemp>
          </ns3:TrackPointExtension>
        </extensions>
      </trkpt>
      <trkpt lat="42.52854564227163791656494140625" lon="19.76425878703594207763671875">
        <ele>1683.4000244140625</ele>
        <time>2026-06-18T08:56:20.000Z</time>
        <extensions>
          <ns3:TrackPointExtension>
            <ns3:atemp>26.0</ns3:atemp>
          </ns3:TrackPointExtension>
        </extensions>
      </trkpt>
      <trkpt lat="42.52853323705494403839111328125" lon="19.7642366588115692138671875">
        <ele>1683.4000244140625</ele>
        <time>2026-06-18T08:56:21.000Z</time>
        <extensions>
          <ns3:TrackPointExtension>
            <ns3:atemp>26.0</ns3:atemp>
          </ns3:TrackPointExtension>
        </extensions>
      </trkpt>
      <trkpt lat="42.5285195745527744293212890625" lon="19.764216877520084381103515625">
        <ele>1683.4000244140625</ele>
        <time>2026-06-18T08:56:22.000Z</time>
        <extensions>
          <ns3:TrackPointExtension>
            <ns3:atemp>26.0</ns3:atemp>
          </ns3:TrackPointExtension>
        </extensions>
      </trkpt>
      <trkpt lat="42.5285105220973491668701171875" lon="19.7641969285905361175537109375">
        <ele>1683.199951171875</ele>
        <time>2026-06-18T08:56:23.000Z</time>
        <extensions>
          <ns3:TrackPointExtension>
            <ns3:atemp>26.0</ns3:atemp>
          </ns3:TrackPointExtension>
        </extensions>
      </trkpt>
      <trkpt lat="42.528500966727733612060546875" lon="19.76417723111808300018310546875">
        <ele>1683</ele>
        <time>2026-06-18T08:56:24.000Z</time>
        <extensions>
          <ns3:TrackPointExtension>
            <ns3:atemp>26.0</ns3:atemp>
          </ns3:TrackPointExtension>
        </extensions>
      </trkpt>
      <trkpt lat="42.52849333919584751129150390625" lon="19.76415426470339298248291015625">
        <ele>1683</ele>
        <time>2026-06-18T08:56:25.000Z</time>
        <extensions>
          <ns3:TrackPointExtension>
            <ns3:atemp>26.0</ns3:atemp>
          </ns3:TrackPointExtension>
        </extensions>
      </trkpt>
      <trkpt lat="42.52848294563591480255126953125" lon="19.7641298733651638031005859375">
        <ele>1682.800048828125</ele>
        <time>2026-06-18T08:56:26.000Z</time>
        <extensions>
          <ns3:TrackPointExtension>
            <ns3:atemp>26.0</ns3:atemp>
          </ns3:TrackPointExtension>
        </extensions>
      </trkpt>
      <trkpt lat="42.52847104333341121673583984375" lon="19.76410590112209320068359375">
        <ele>1682.5999755859375</ele>
        <time>2026-06-18T08:56:27.000Z</time>
        <extensions>
          <ns3:TrackPointExtension>
            <ns3:atemp>26.0</ns3:atemp>
          </ns3:TrackPointExtension>
        </extensions>
      </trkpt>
      <trkpt lat="42.5284619070589542388916015625" lon="19.76408268325030803680419921875">
        <ele>1682.5999755859375</ele>
        <time>2026-06-18T08:56:28.000Z</time>
        <extensions>
          <ns3:TrackPointExtension>
            <ns3:atemp>25.0</ns3:atemp>
          </ns3:TrackPointExtension>
        </extensions>
      </trkpt>
      <trkpt lat="42.52845159731805324554443359375" lon="19.76406340487301349639892578125">
        <ele>1682.4000244140625</ele>
        <time>2026-06-18T08:56:29.000Z</time>
        <extensions>
          <ns3:TrackPointExtension>
            <ns3:atemp>25.0</ns3:atemp>
          </ns3:TrackPointExtension>
        </extensions>
      </trkpt>
      <trkpt lat="42.5284427963197231292724609375" lon="19.764039181172847747802734375">
        <ele>1682.199951171875</ele>
        <time>2026-06-18T08:56:30.000Z</time>
        <extensions>
          <ns3:TrackPointExtension>
            <ns3:atemp>25.0</ns3:atemp>
          </ns3:TrackPointExtension>
        </extensions>
      </trkpt>
      <trkpt lat="42.52842997200787067413330078125" lon="19.7640167176723480224609375">
        <ele>1682.199951171875</ele>
        <time>2026-06-18T08:56:31.000Z</time>
        <extensions>
          <ns3:TrackPointExtension>
            <ns3:atemp>25.0</ns3:atemp>
          </ns3:TrackPointExtension>
        </extensions>
      </trkpt>
      <trkpt lat="42.52841622568666934967041015625" lon="19.76398964412510395050048828125">
        <ele>1682</ele>
        <time>2026-06-18T08:56:32.000Z</time>
        <extensions>
          <ns3:TrackPointExtension>
            <ns3:atemp>25.0</ns3:atemp>
          </ns3:TrackPointExtension>
        </extensions>
      </trkpt>
      <trkpt lat="42.52840264700353145599365234375" lon="19.7639657557010650634765625">
        <ele>1682</ele>
        <time>2026-06-18T08:56:33.000Z</time>
        <extensions>
          <ns3:TrackPointExtension>
            <ns3:atemp>25.0</ns3:atemp>
          </ns3:TrackPointExtension>
        </extensions>
      </trkpt>
      <trkpt lat="42.52838336862623691558837890625" lon="19.7639448009431362152099609375">
        <ele>1681.800048828125</ele>
        <time>2026-06-18T08:56:34.000Z</time>
        <extensions>
          <ns3:TrackPointExtension>
            <ns3:atemp>25.0</ns3:atemp>
          </ns3:TrackPointExtension>
        </extensions>
      </trkpt>
      <trkpt lat="42.5283660180866718292236328125" lon="19.7639250196516513824462890625">
        <ele>1681.800048828125</ele>
        <time>2026-06-18T08:56:35.000Z</time>
        <extensions>
          <ns3:TrackPointExtension>
            <ns3:atemp>25.0</ns3:atemp>
          </ns3:TrackPointExtension>
        </extensions>
      </trkpt>
      <trkpt lat="42.5283482484519481658935546875" lon="19.7639109380543231964111328125">
        <ele>1681.800048828125</ele>
        <time>2026-06-18T08:56:36.000Z</time>
        <extensions>
          <ns3:TrackPointExtension>
            <ns3:atemp>25.0</ns3:atemp>
          </ns3:TrackPointExtension>
        </extensions>
      </trkpt>
      <trkpt lat="42.5283350050449371337890625" lon="19.76389828138053417205810546875">
        <ele>1681.800048828125</ele>
        <time>2026-06-18T08:56:37.000Z</time>
        <extensions>
          <ns3:TrackPointExtension>
            <ns3:atemp>25.0</ns3:atemp>
          </ns3:TrackPointExtension>
        </extensions>
      </trkpt>
      <trkpt lat="42.52832033671438694000244140625" lon="19.7638871334493160247802734375">
        <ele>1681.800048828125</ele>
        <time>2026-06-18T08:56:38.000Z</time>
        <extensions>
          <ns3:TrackPointExtension>
            <ns3:atemp>25.0</ns3:atemp>
          </ns3:TrackPointExtension>
        </extensions>
      </trkpt>
      <trkpt lat="42.52830709330737590789794921875" lon="19.7638747282326221466064453125">
        <ele>1681.800048828125</ele>
        <time>2026-06-18T08:56:39.000Z</time>
        <extensions>
          <ns3:TrackPointExtension>
            <ns3:atemp>25.0</ns3:atemp>
          </ns3:TrackPointExtension>
        </extensions>
      </trkpt>
      <trkpt lat="42.52829871140420436859130859375" lon="19.7638593055307865142822265625">
        <ele>1682</ele>
        <time>2026-06-18T08:56:40.000Z</time>
        <extensions>
          <ns3:TrackPointExtension>
            <ns3:atemp>25.0</ns3:atemp>
          </ns3:TrackPointExtension>
        </extensions>
      </trkpt>
      <trkpt lat="42.52828747965395450592041015625" lon="19.76384815759956836700439453125">
        <ele>1682</ele>
        <time>2026-06-18T08:56:41.000Z</time>
        <extensions>
          <ns3:TrackPointExtension>
            <ns3:atemp>25.0</ns3:atemp>
          </ns3:TrackPointExtension>
        </extensions>
      </trkpt>
      <trkpt lat="42.5282751582562923431396484375" lon="19.76383793167769908905029296875">
        <ele>1682</ele>
        <time>2026-06-18T08:56:42.000Z</time>
        <extensions>
          <ns3:TrackPointExtension>
            <ns3:atemp>25.0</ns3:atemp>
          </ns3:TrackPointExtension>
        </extensions>
      </trkpt>
      <trkpt lat="42.5282620824873447418212890625" lon="19.76383323781192302703857421875">
        <ele>1682</ele>
        <time>2026-06-18T08:56:43.000Z</time>
        <extensions>
          <ns3:TrackPointExtension>
            <ns3:atemp>25.0</ns3:atemp>
          </ns3:TrackPointExtension>
        </extensions>
      </trkpt>
      <trkpt lat="42.5282483361661434173583984375" lon="19.76382435299456119537353515625">
        <ele>1682.199951171875</ele>
        <time>2026-06-18T08:56:44.000Z</time>
        <extensions>
          <ns3:TrackPointExtension>
            <ns3:atemp>25.0</ns3:atemp>
          </ns3:TrackPointExtension>
        </extensions>
      </trkpt>
      <trkpt lat="42.52823567949235439300537109375" lon="19.76382426917552947998046875">
        <ele>1682.199951171875</ele>
        <time>2026-06-18T08:56:45.000Z</time>
        <extensions>
          <ns3:TrackPointExtension>
            <ns3:atemp>25.0</ns3:atemp>
          </ns3:TrackPointExtension>
        </extensions>
      </trkpt>
      <trkpt lat="42.528226375579833984375" lon="19.763826616108417510986328125">
        <ele>1682.199951171875</ele>
        <time>2026-06-18T08:56:46.000Z</time>
        <extensions>
          <ns3:TrackPointExtension>
            <ns3:atemp>25.0</ns3:atemp>
          </ns3:TrackPointExtension>
        </extensions>
      </trkpt>
      <trkpt lat="42.528216652572154998779296875" lon="19.763823263347148895263671875">
        <ele>1682.4000244140625</ele>
        <time>2026-06-18T08:56:47.000Z</time>
        <extensions>
          <ns3:TrackPointExtension>
            <ns3:atemp>25.0</ns3:atemp>
          </ns3:TrackPointExtension>
        </extensions>
      </trkpt>
      <trkpt lat="42.52820852212607860565185546875" lon="19.76381714455783367156982421875">
        <ele>1682.5999755859375</ele>
        <time>2026-06-18T08:56:48.000Z</time>
        <extensions>
          <ns3:TrackPointExtension>
            <ns3:atemp>25.0</ns3:atemp>
          </ns3:TrackPointExtension>
        </extensions>
      </trkpt>
      <trkpt lat="42.52820014022290706634521484375" lon="19.76381362415850162506103515625">
        <ele>1682.800048828125</ele>
        <time>2026-06-18T08:56:49.000Z</time>
        <extensions>
          <ns3:TrackPointExtension>
            <ns3:atemp>25.0</ns3:atemp>
          </ns3:TrackPointExtension>
        </extensions>
      </trkpt>
      <trkpt lat="42.52819661982357501983642578125" lon="19.763806499540805816650390625">
        <ele>1683</ele>
        <time>2026-06-18T08:56:50.000Z</time>
        <extensions>
          <ns3:TrackPointExtension>
            <ns3:atemp>25.0</ns3:atemp>
          </ns3:TrackPointExtension>
        </extensions>
      </trkpt>
      <trkpt lat="42.52818882465362548828125" lon="19.76380373351275920867919921875">
        <ele>1683.199951171875</ele>
        <time>2026-06-18T08:56:51.000Z</time>
        <extensions>
          <ns3:TrackPointExtension>
            <ns3:atemp>25.0</ns3:atemp>
          </ns3:TrackPointExtension>
        </extensions>
      </trkpt>
      <trkpt lat="42.52818605862557888031005859375" lon="19.76379610598087310791015625">
        <ele>1683.4000244140625</ele>
        <time>2026-06-18T08:56:52.000Z</time>
        <extensions>
          <ns3:TrackPointExtension>
            <ns3:atemp>25.0</ns3:atemp>
          </ns3:TrackPointExtension>
        </extensions>
      </trkpt>
      <trkpt lat="42.5281842984259128570556640625" lon="19.76378881372511386871337890625">
        <ele>1683.5999755859375</ele>
        <time>2026-06-18T08:56:53.000Z</time>
        <extensions>
          <ns3:TrackPointExtension>
            <ns3:atemp>25.0</ns3:atemp>
          </ns3:TrackPointExtension>
        </extensions>
      </trkpt>
      <trkpt lat="42.52818010747432708740234375" lon="19.7637815214693546295166015625">
        <ele>1683.5999755859375</ele>
        <time>2026-06-18T08:56:54.000Z</time>
        <extensions>
          <ns3:TrackPointExtension>
            <ns3:atemp>25.0</ns3:atemp>
          </ns3:TrackPointExtension>
        </extensions>
      </trkpt>
      <trkpt lat="42.5281762517988681793212890625" lon="19.7637731395661830902099609375">
        <ele>1683.5999755859375</ele>
        <time>2026-06-18T08:56:55.000Z</time>
        <extensions>
          <ns3:TrackPointExtension>
            <ns3:atemp>25.0</ns3:atemp>
          </ns3:TrackPointExtension>
        </extensions>
      </trkpt>
      <trkpt lat="42.52817281521856784820556640625" lon="19.76376333273947238922119140625">
        <ele>1683.5999755859375</ele>
        <time>2026-06-18T08:56:56.000Z</time>
        <extensions>
          <ns3:TrackPointExtension>
            <ns3:atemp>25.0</ns3:atemp>
          </ns3:TrackPointExtension>
        </extensions>
      </trkpt>
      <trkpt lat="42.52816745080053806304931640625" lon="19.76375143043696880340576171875">
        <ele>1683.5999755859375</ele>
        <time>2026-06-18T08:56:57.000Z</time>
        <extensions>
          <ns3:TrackPointExtension>
            <ns3:atemp>25.0</ns3:atemp>
          </ns3:TrackPointExtension>
        </extensions>
      </trkpt>
      <trkpt lat="42.52816158346831798553466796875" lon="19.76373885758221149444580078125">
        <ele>1683.5999755859375</ele>
        <time>2026-06-18T08:56:58.000Z</time>
        <extensions>
          <ns3:TrackPointExtension>
            <ns3:atemp>25.0</ns3:atemp>
          </ns3:TrackPointExtension>
        </extensions>
      </trkpt>
      <trkpt lat="42.5281574763357639312744140625" lon="19.76372502744197845458984375">
        <ele>1683.4000244140625</ele>
        <time>2026-06-18T08:56:59.000Z</time>
        <extensions>
          <ns3:TrackPointExtension>
            <ns3:atemp>25.0</ns3:atemp>
          </ns3:TrackPointExtension>
        </extensions>
      </trkpt>
      <trkpt lat="42.528149597346782684326171875" lon="19.76370885036885738372802734375">
        <ele>1683.4000244140625</ele>
        <time>2026-06-18T08:57:00.000Z</time>
        <extensions>
          <ns3:TrackPointExtension>
            <ns3:atemp>25.0</ns3:atemp>
          </ns3:TrackPointExtension>
        </extensions>
      </trkpt>
      <trkpt lat="42.52813710831105709075927734375" lon="19.763692505657672882080078125">
        <ele>1683.4000244140625</ele>
        <time>2026-06-18T08:57:01.000Z</time>
        <extensions>
          <ns3:TrackPointExtension>
            <ns3:atemp>25.0</ns3:atemp>
          </ns3:TrackPointExtension>
        </extensions>
      </trkpt>
      <trkpt lat="42.5281239487230777740478515625" lon="19.763680435717105865478515625">
        <ele>1683.199951171875</ele>
        <time>2026-06-18T08:57:02.000Z</time>
        <extensions>
          <ns3:TrackPointExtension>
            <ns3:atemp>25.0</ns3:atemp>
          </ns3:TrackPointExtension>
        </extensions>
      </trkpt>
      <trkpt lat="42.52811229787766933441162109375" lon="19.76366694085299968719482421875">
        <ele>1683</ele>
        <time>2026-06-18T08:57:03.000Z</time>
        <extensions>
          <ns3:TrackPointExtension>
            <ns3:atemp>25.0</ns3:atemp>
          </ns3:TrackPointExtension>
        </extensions>
      </trkpt>
      <trkpt lat="42.52810307778418064117431640625" lon="19.76365168578922748565673828125">
        <ele>1683</ele>
        <time>2026-06-18T08:57:04.000Z</time>
        <extensions>
          <ns3:TrackPointExtension>
            <ns3:atemp>25.0</ns3:atemp>
          </ns3:TrackPointExtension>
        </extensions>
      </trkpt>
      <trkpt lat="42.52809570170938968658447265625" lon="19.76363659836351871490478515625">
        <ele>1682.800048828125</ele>
        <time>2026-06-18T08:57:05.000Z</time>
        <extensions>
          <ns3:TrackPointExtension>
            <ns3:atemp>25.0</ns3:atemp>
          </ns3:TrackPointExtension>
        </extensions>
      </trkpt>
      <trkpt lat="42.528088577091693878173828125" lon="19.76362050510942935943603515625">
        <ele>1682.800048828125</ele>
        <time>2026-06-18T08:57:06.000Z</time>
        <extensions>
          <ns3:TrackPointExtension>
            <ns3:atemp>25.0</ns3:atemp>
          </ns3:TrackPointExtension>
        </extensions>
      </trkpt>
      <trkpt lat="42.528076507151126861572265625" lon="19.76360491476953029632568359375">
        <ele>1682.5999755859375</ele>
        <time>2026-06-18T08:57:07.000Z</time>
        <extensions>
          <ns3:TrackPointExtension>
            <ns3:atemp>25.0</ns3:atemp>
          </ns3:TrackPointExtension>
        </extensions>
      </trkpt>
      <trkpt lat="42.52806368283927440643310546875" lon="19.7635944373905658721923828125">
        <ele>1682.4000244140625</ele>
        <time>2026-06-18T08:57:08.000Z</time>
        <extensions>
          <ns3:TrackPointExtension>
            <ns3:atemp>25.0</ns3:atemp>
          </ns3:TrackPointExtension>
        </extensions>
      </trkpt>
      <trkpt lat="42.52804742194712162017822265625" lon="19.76358312182128429412841796875">
        <ele>1682.4000244140625</ele>
        <time>2026-06-18T08:57:09.000Z</time>
        <extensions>
          <ns3:TrackPointExtension>
            <ns3:atemp>25.0</ns3:atemp>
          </ns3:TrackPointExtension>
        </extensions>
      </trkpt>
      <trkpt lat="42.52803199924528598785400390625" lon="19.76357574574649333953857421875">
        <ele>1682.4000244140625</ele>
        <time>2026-06-18T08:57:10.000Z</time>
        <extensions>
          <ns3:TrackPointExtension>
            <ns3:atemp>25.0</ns3:atemp>
          </ns3:TrackPointExtension>
        </extensions>
      </trkpt>
      <trkpt lat="42.528015486896038055419921875" lon="19.7635759972035884857177734375">
        <ele>1682.4000244140625</ele>
        <time>2026-06-18T08:57:11.000Z</time>
        <extensions>
          <ns3:TrackPointExtension>
            <ns3:atemp>25.0</ns3:atemp>
          </ns3:TrackPointExtension>
        </extensions>
      </trkpt>
      <trkpt lat="42.5280005671083927154541015625" lon="19.76356904022395610809326171875">
        <ele>1682.4000244140625</ele>
        <time>2026-06-18T08:57:12.000Z</time>
        <extensions>
          <ns3:TrackPointExtension>
            <ns3:atemp>25.0</ns3:atemp>
          </ns3:TrackPointExtension>
        </extensions>
      </trkpt>
      <trkpt lat="42.52798522822558879852294921875" lon="19.76356635801494121551513671875">
        <ele>1682.4000244140625</ele>
        <time>2026-06-18T08:57:13.000Z</time>
        <extensions>
          <ns3:TrackPointExtension>
            <ns3:atemp>25.0</ns3:atemp>
          </ns3:TrackPointExtension>
        </extensions>
      </trkpt>
      <trkpt lat="42.5279702246189117431640625" lon="19.76356468163430690765380859375">
        <ele>1682.5999755859375</ele>
        <time>2026-06-18T08:57:14.000Z</time>
        <extensions>
          <ns3:TrackPointExtension>
            <ns3:atemp>25.0</ns3:atemp>
          </ns3:TrackPointExtension>
        </extensions>
      </trkpt>
      <trkpt lat="42.5279512815177440643310546875" lon="19.76356334052979946136474609375">
        <ele>1682.800048828125</ele>
        <time>2026-06-18T08:57:15.000Z</time>
        <extensions>
          <ns3:TrackPointExtension>
            <ns3:atemp>25.0</ns3:atemp>
          </ns3:TrackPointExtension>
        </extensions>
      </trkpt>
      <trkpt lat="42.52793091349303722381591796875" lon="19.7635607421398162841796875">
        <ele>1683.199951171875</ele>
        <time>2026-06-18T08:57:16.000Z</time>
        <extensions>
          <ns3:TrackPointExtension>
            <ns3:atemp>25.0</ns3:atemp>
          </ns3:TrackPointExtension>
        </extensions>
      </trkpt>
      <trkpt lat="42.52791264094412326812744140625" lon="19.76355864666402339935302734375">
        <ele>1683.5999755859375</ele>
        <time>2026-06-18T08:57:17.000Z</time>
        <extensions>
          <ns3:TrackPointExtension>
            <ns3:atemp>25.0</ns3:atemp>
          </ns3:TrackPointExtension>
        </extensions>
      </trkpt>
      <trkpt lat="42.5278951227664947509765625" lon="19.76356032304465770721435546875">
        <ele>1684</ele>
        <time>2026-06-18T08:57:18.000Z</time>
        <extensions>
          <ns3:TrackPointExtension>
            <ns3:atemp>25.0</ns3:atemp>
          </ns3:TrackPointExtension>
        </extensions>
      </trkpt>
      <trkpt lat="42.52787693403661251068115234375" lon="19.76355663500726222991943359375">
        <ele>1684.5999755859375</ele>
        <time>2026-06-18T08:57:19.000Z</time>
        <extensions>
          <ns3:TrackPointExtension>
            <ns3:atemp>25.0</ns3:atemp>
          </ns3:TrackPointExtension>
        </extensions>
      </trkpt>
      <trkpt lat="42.52785832621157169342041015625" lon="19.763553701341152191162109375">
        <ele>1685</ele>
        <time>2026-06-18T08:57:20.000Z</time>
        <extensions>
          <ns3:TrackPointExtension>
            <ns3:atemp>25.0</ns3:atemp>
          </ns3:TrackPointExtension>
        </extensions>
      </trkpt>
      <trkpt lat="42.52784173004329204559326171875" lon="19.76355738937854766845703125">
        <ele>1685.4000244140625</ele>
        <time>2026-06-18T08:57:21.000Z</time>
        <extensions>
          <ns3:TrackPointExtension>
            <ns3:atemp>25.0</ns3:atemp>
          </ns3:TrackPointExtension>
        </extensions>
      </trkpt>
      <trkpt lat="42.5278235413134098052978515625" lon="19.7635622508823871612548828125">
        <ele>1685.800048828125</ele>
        <time>2026-06-18T08:57:22.000Z</time>
        <extensions>
          <ns3:TrackPointExtension>
            <ns3:atemp>25.0</ns3:atemp>
          </ns3:TrackPointExtension>
        </extensions>
      </trkpt>
      <trkpt lat="42.52780728042125701904296875" lon="19.7635676153004169464111328125">
        <ele>1686.4000244140625</ele>
        <time>2026-06-18T08:57:23.000Z</time>
        <extensions>
          <ns3:TrackPointExtension>
            <ns3:atemp>25.0</ns3:atemp>
          </ns3:TrackPointExtension>
        </extensions>
      </trkpt>
      <trkpt lat="42.52779210917651653289794921875" lon="19.76357809267938137054443359375">
        <ele>1686.800048828125</ele>
        <time>2026-06-18T08:57:24.000Z</time>
        <extensions>
          <ns3:TrackPointExtension>
            <ns3:atemp>25.0</ns3:atemp>
          </ns3:TrackPointExtension>
        </extensions>
      </trkpt>
      <trkpt lat="42.52777651883661746978759765625" lon="19.763587228953838348388671875">
        <ele>1687.4000244140625</ele>
        <time>2026-06-18T08:57:25.000Z</time>
        <extensions>
          <ns3:TrackPointExtension>
            <ns3:atemp>25.0</ns3:atemp>
          </ns3:TrackPointExtension>
        </extensions>
      </trkpt>
      <trkpt lat="42.527759335935115814208984375" lon="19.76359653286635875701904296875">
        <ele>1688.199951171875</ele>
        <time>2026-06-18T08:57:26.000Z</time>
        <extensions>
          <ns3:TrackPointExtension>
            <ns3:atemp>25.0</ns3:atemp>
          </ns3:TrackPointExtension>
        </extensions>
      </trkpt>
      <trkpt lat="42.5277437455952167510986328125" lon="19.76360877044498920440673828125">
        <ele>1688.800048828125</ele>
        <time>2026-06-18T08:57:27.000Z</time>
        <extensions>
          <ns3:TrackPointExtension>
            <ns3:atemp>25.0</ns3:atemp>
          </ns3:TrackPointExtension>
        </extensions>
      </trkpt>
      <trkpt lat="42.527729161083698272705078125" lon="19.7636172361671924591064453125">
        <ele>1689.199951171875</ele>
        <time>2026-06-18T08:57:28.000Z</time>
        <extensions>
          <ns3:TrackPointExtension>
            <ns3:atemp>25.0</ns3:atemp>
          </ns3:TrackPointExtension>
        </extensions>
      </trkpt>
      <trkpt lat="42.527714408934116363525390625" lon="19.76362352259457111358642578125">
        <ele>1689.800048828125</ele>
        <time>2026-06-18T08:57:29.000Z</time>
        <extensions>
          <ns3:TrackPointExtension>
            <ns3:atemp>25.0</ns3:atemp>
          </ns3:TrackPointExtension>
        </extensions>
      </trkpt>
      <trkpt lat="42.527701668441295623779296875" lon="19.76363173685967922210693359375">
        <ele>1690.4000244140625</ele>
        <time>2026-06-18T08:57:30.000Z</time>
        <extensions>
          <ns3:TrackPointExtension>
            <ns3:atemp>25.0</ns3:atemp>
          </ns3:TrackPointExtension>
        </extensions>
      </trkpt>
      <trkpt lat="42.52768733538687229156494140625" lon="19.76363995112478733062744140625">
        <ele>1691</ele>
        <time>2026-06-18T08:57:31.000Z</time>
        <extensions>
          <ns3:TrackPointExtension>
            <ns3:atemp>25.0</ns3:atemp>
          </ns3:TrackPointExtension>
        </extensions>
      </trkpt>
      <trkpt lat="42.5276730023324489593505859375" lon="19.76364850066602230072021484375">
        <ele>1691.4000244140625</ele>
        <time>2026-06-18T08:57:32.000Z</time>
        <extensions>
          <ns3:TrackPointExtension>
            <ns3:atemp>25.0</ns3:atemp>
          </ns3:TrackPointExtension>
        </extensions>
      </trkpt>
      <trkpt lat="42.52765883691608905792236328125" lon="19.76365822367370128631591796875">
        <ele>1691.800048828125</ele>
        <time>2026-06-18T08:57:33.000Z</time>
        <extensions>
          <ns3:TrackPointExtension>
            <ns3:atemp>25.0</ns3:atemp>
          </ns3:TrackPointExtension>
        </extensions>
      </trkpt>
      <trkpt lat="42.52764626406133174896240234375" lon="19.7636688686907291412353515625">
        <ele>1692.4000244140625</ele>
        <time>2026-06-18T08:57:34.000Z</time>
        <extensions>
          <ns3:TrackPointExtension>
            <ns3:atemp>25.0</ns3:atemp>
          </ns3:TrackPointExtension>
        </extensions>
      </trkpt>
      <trkpt lat="42.52763318829238414764404296875" lon="19.7636765800416469573974609375">
        <ele>1692.800048828125</ele>
        <time>2026-06-18T08:57:35.000Z</time>
        <extensions>
          <ns3:TrackPointExtension>
            <ns3:atemp>25.0</ns3:atemp>
          </ns3:TrackPointExtension>
        </extensions>
      </trkpt>
      <trkpt lat="42.52761675976216793060302734375" lon="19.76368085481226444244384765625">
        <ele>1693.4000244140625</ele>
        <time>2026-06-18T08:57:36.000Z</time>
        <extensions>
          <ns3:TrackPointExtension>
            <ns3:atemp>25.0</ns3:atemp>
          </ns3:TrackPointExtension>
        </extensions>
      </trkpt>
      <trkpt lat="42.52760334871709346771240234375" lon="19.76368722505867481231689453125">
        <ele>1694</ele>
        <time>2026-06-18T08:57:37.000Z</time>
        <extensions>
          <ns3:TrackPointExtension>
            <ns3:atemp>25.0</ns3:atemp>
          </ns3:TrackPointExtension>
        </extensions>
      </trkpt>
      <trkpt lat="42.52759211696684360504150390625" lon="19.7636980377137660980224609375">
        <ele>1694.5999755859375</ele>
        <time>2026-06-18T08:57:38.000Z</time>
        <extensions>
          <ns3:TrackPointExtension>
            <ns3:atemp>25.0</ns3:atemp>
          </ns3:TrackPointExtension>
        </extensions>
      </trkpt>
      <trkpt lat="42.527582645416259765625" lon="19.7637055814266204833984375">
        <ele>1695</ele>
        <time>2026-06-18T08:57:39.000Z</time>
        <extensions>
          <ns3:TrackPointExtension>
            <ns3:atemp>25.0</ns3:atemp>
          </ns3:TrackPointExtension>
        </extensions>
      </trkpt>
      <trkpt lat="42.527572922408580780029296875" lon="19.763709940016269683837890625">
        <ele>1695.5999755859375</ele>
        <time>2026-06-18T08:57:40.000Z</time>
        <extensions>
          <ns3:TrackPointExtension>
            <ns3:atemp>25.0</ns3:atemp>
          </ns3:TrackPointExtension>
        </extensions>
      </trkpt>
      <trkpt lat="42.52756060101091861724853515625" lon="19.7637127898633480072021484375">
        <ele>1696</ele>
        <time>2026-06-18T08:57:41.000Z</time>
        <extensions>
          <ns3:TrackPointExtension>
            <ns3:atemp>25.0</ns3:atemp>
          </ns3:TrackPointExtension>
        </extensions>
      </trkpt>
      <trkpt lat="42.52754509449005126953125" lon="19.7637248598039150238037109375">
        <ele>1696.4000244140625</ele>
        <time>2026-06-18T08:57:42.000Z</time>
        <extensions>
          <ns3:TrackPointExtension>
            <ns3:atemp>25.0</ns3:atemp>
          </ns3:TrackPointExtension>
        </extensions>
      </trkpt>
      <trkpt lat="42.52752791158854961395263671875" lon="19.76373575627803802490234375">
        <ele>1696.800048828125</ele>
        <time>2026-06-18T08:57:43.000Z</time>
        <extensions>
          <ns3:TrackPointExtension>
            <ns3:atemp>25.0</ns3:atemp>
          </ns3:TrackPointExtension>
        </extensions>
      </trkpt>
      <trkpt lat="42.527510561048984527587890625" lon="19.76373064331710338592529296875">
        <ele>1697.199951171875</ele>
        <time>2026-06-18T08:57:44.000Z</time>
        <extensions>
          <ns3:TrackPointExtension>
            <ns3:atemp>25.0</ns3:atemp>
          </ns3:TrackPointExtension>
        </extensions>
      </trkpt>
      <trkpt lat="42.52749505452811717987060546875" lon="19.7637164779007434844970703125">
        <ele>1697.5999755859375</ele>
        <time>2026-06-18T08:57:45.000Z</time>
        <extensions>
          <ns3:TrackPointExtension>
            <ns3:atemp>25.0</ns3:atemp>
          </ns3:TrackPointExtension>
        </extensions>
      </trkpt>
      <trkpt lat="42.527474351227283477783203125" lon="19.76370767690241336822509765625">
        <ele>1698</ele>
        <time>2026-06-18T08:57:46.000Z</time>
        <extensions>
          <ns3:TrackPointExtension>
            <ns3:atemp>25.0</ns3:atemp>
          </ns3:TrackPointExtension>
        </extensions>
      </trkpt>
      <trkpt lat="42.527455575764179229736328125" lon="19.7636997140944004058837890625">
        <ele>1698.4000244140625</ele>
        <time>2026-06-18T08:57:47.000Z</time>
        <extensions>
          <ns3:TrackPointExtension>
            <ns3:atemp>25.0</ns3:atemp>
          </ns3:TrackPointExtension>
        </extensions>
      </trkpt>
      <trkpt lat="42.52743872813880443572998046875" lon="19.76369225420057773590087890625">
        <ele>1698.5999755859375</ele>
        <time>2026-06-18T08:57:48.000Z</time>
        <extensions>
          <ns3:TrackPointExtension>
            <ns3:atemp>25.0</ns3:atemp>
          </ns3:TrackPointExtension>
        </extensions>
      </trkpt>
      <trkpt lat="42.5274232216179370880126953125" lon="19.763690494000911712646484375">
        <ele>1699</ele>
        <time>2026-06-18T08:57:49.000Z</time>
        <extensions>
          <ns3:TrackPointExtension>
            <ns3:atemp>25.0</ns3:atemp>
          </ns3:TrackPointExtension>
        </extensions>
      </trkpt>
      <trkpt lat="42.527408301830291748046875" lon="19.76369158364832401275634765625">
        <ele>1699.4000244140625</ele>
        <time>2026-06-18T08:57:50.000Z</time>
        <extensions>
          <ns3:TrackPointExtension>
            <ns3:atemp>25.0</ns3:atemp>
          </ns3:TrackPointExtension>
        </extensions>
      </trkpt>
      <trkpt lat="42.527394555509090423583984375" lon="19.76369242183864116668701171875">
        <ele>1699.800048828125</ele>
        <time>2026-06-18T08:57:51.000Z</time>
        <extensions>
          <ns3:TrackPointExtension>
            <ns3:atemp>25.0</ns3:atemp>
          </ns3:TrackPointExtension>
        </extensions>
      </trkpt>
      <trkpt lat="42.527379803359508514404296875" lon="19.763692505657672882080078125">
        <ele>1700.199951171875</ele>
        <time>2026-06-18T08:57:52.000Z</time>
        <extensions>
          <ns3:TrackPointExtension>
            <ns3:atemp>25.0</ns3:atemp>
          </ns3:TrackPointExtension>
        </extensions>
      </trkpt>
      <trkpt lat="42.5273658894002437591552734375" lon="19.76369527168571949005126953125">
        <ele>1700.5999755859375</ele>
        <time>2026-06-18T08:57:53.000Z</time>
        <extensions>
          <ns3:TrackPointExtension>
            <ns3:atemp>25.0</ns3:atemp>
          </ns3:TrackPointExtension>
        </extensions>
      </trkpt>
      <trkpt lat="42.52735004760324954986572265625" lon="19.76369258947670459747314453125">
        <ele>1701.199951171875</ele>
        <time>2026-06-18T08:57:54.000Z</time>
        <extensions>
          <ns3:TrackPointExtension>
            <ns3:atemp>25.0</ns3:atemp>
          </ns3:TrackPointExtension>
        </extensions>
      </trkpt>
      <trkpt lat="42.52733789384365081787109375" lon="19.7636903263628482818603515625">
        <ele>1701.5999755859375</ele>
        <time>2026-06-18T08:57:55.000Z</time>
        <extensions>
          <ns3:TrackPointExtension>
            <ns3:atemp>25.0</ns3:atemp>
          </ns3:TrackPointExtension>
        </extensions>
      </trkpt>
      <trkpt lat="42.5273243151605129241943359375" lon="19.76368479430675506591796875">
        <ele>1702</ele>
        <time>2026-06-18T08:57:56.000Z</time>
        <extensions>
          <ns3:TrackPointExtension>
            <ns3:atemp>25.0</ns3:atemp>
          </ns3:TrackPointExtension>
        </extensions>
      </trkpt>
      <trkpt lat="42.52730914391577243804931640625" lon="19.76368010044097900390625">
        <ele>1702.4000244140625</ele>
        <time>2026-06-18T08:57:57.000Z</time>
        <extensions>
          <ns3:TrackPointExtension>
            <ns3:atemp>25.0</ns3:atemp>
          </ns3:TrackPointExtension>
        </extensions>
      </trkpt>
      <trkpt lat="42.52729137428104877471923828125" lon="19.76367800496518611907958984375">
        <ele>1702.5999755859375</ele>
        <time>2026-06-18T08:57:58.000Z</time>
        <extensions>
          <ns3:TrackPointExtension>
            <ns3:atemp>25.0</ns3:atemp>
          </ns3:TrackPointExtension>
        </extensions>
      </trkpt>
      <trkpt lat="42.5272750295698642730712890625" lon="19.76366643793880939483642578125">
        <ele>1703</ele>
        <time>2026-06-18T08:57:59.000Z</time>
        <extensions>
          <ns3:TrackPointExtension>
            <ns3:atemp>25.0</ns3:atemp>
          </ns3:TrackPointExtension>
        </extensions>
      </trkpt>
      <trkpt lat="42.52726103179156780242919921875" lon="19.763653613626956939697265625">
        <ele>1703.199951171875</ele>
        <time>2026-06-18T08:58:00.000Z</time>
        <extensions>
          <ns3:TrackPointExtension>
            <ns3:atemp>25.0</ns3:atemp>
          </ns3:TrackPointExtension>
        </extensions>
      </trkpt>
      <trkpt lat="42.52724695019423961639404296875" lon="19.763644225895404815673828125">
        <ele>1703.4000244140625</ele>
        <time>2026-06-18T08:58:01.000Z</time>
        <extensions>
          <ns3:TrackPointExtension>
            <ns3:atemp>25.0</ns3:atemp>
          </ns3:TrackPointExtension>
        </extensions>
      </trkpt>
      <trkpt lat="42.52723236568272113800048828125" lon="19.76363651454448699951171875">
        <ele>1703.5999755859375</ele>
        <time>2026-06-18T08:58:02.000Z</time>
        <extensions>
          <ns3:TrackPointExtension>
            <ns3:atemp>25.0</ns3:atemp>
          </ns3:TrackPointExtension>
        </extensions>
      </trkpt>
      <trkpt lat="42.52721761353313922882080078125" lon="19.76362922228872776031494140625">
        <ele>1704</ele>
        <time>2026-06-18T08:58:03.000Z</time>
        <extensions>
          <ns3:TrackPointExtension>
            <ns3:atemp>25.0</ns3:atemp>
          </ns3:TrackPointExtension>
        </extensions>
      </trkpt>
      <trkpt lat="42.52720420248806476593017578125" lon="19.76362578570842742919921875">
        <ele>1704.199951171875</ele>
        <time>2026-06-18T08:58:04.000Z</time>
        <extensions>
          <ns3:TrackPointExtension>
            <ns3:atemp>25.0</ns3:atemp>
          </ns3:TrackPointExtension>
        </extensions>
      </trkpt>
      <trkpt lat="42.52718844451010227203369140625" lon="19.76362268440425395965576171875">
        <ele>1704.4000244140625</ele>
        <time>2026-06-18T08:58:05.000Z</time>
        <extensions>
          <ns3:TrackPointExtension>
            <ns3:atemp>25.0</ns3:atemp>
          </ns3:TrackPointExtension>
        </extensions>
      </trkpt>
      <trkpt lat="42.52717033959925174713134765625" lon="19.76362151093780994415283203125">
        <ele>1704.800048828125</ele>
        <time>2026-06-18T08:58:06.000Z</time>
        <extensions>
          <ns3:TrackPointExtension>
            <ns3:atemp>25.0</ns3:atemp>
          </ns3:TrackPointExtension>
        </extensions>
      </trkpt>
      <trkpt lat="42.527151145040988922119140625" lon="19.76361933164298534393310546875">
        <ele>1705.199951171875</ele>
        <time>2026-06-18T08:58:07.000Z</time>
        <extensions>
          <ns3:TrackPointExtension>
            <ns3:atemp>25.0</ns3:atemp>
          </ns3:TrackPointExtension>
        </extensions>
      </trkpt>
      <trkpt lat="42.52713195048272609710693359375" lon="19.76361346431076526641845703125">
        <ele>1705.4000244140625</ele>
        <time>2026-06-18T08:58:08.000Z</time>
        <extensions>
          <ns3:TrackPointExtension>
            <ns3:atemp>25.0</ns3:atemp>
          </ns3:TrackPointExtension>
        </extensions>
      </trkpt>
      <trkpt lat="42.52711082808673381805419921875" lon="19.7636085189878940582275390625">
        <ele>1705.800048828125</ele>
        <time>2026-06-18T08:58:09.000Z</time>
        <extensions>
          <ns3:TrackPointExtension>
            <ns3:atemp>25.0</ns3:atemp>
          </ns3:TrackPointExtension>
        </extensions>
      </trkpt>
      <trkpt lat="42.5270906277000904083251953125" lon="19.7636055015027523040771484375">
        <ele>1706</ele>
        <time>2026-06-18T08:58:10.000Z</time>
        <extensions>
          <ns3:TrackPointExtension>
            <ns3:atemp>25.0</ns3:atemp>
          </ns3:TrackPointExtension>
        </extensions>
      </trkpt>
      <trkpt lat="42.52706992439925670623779296875" lon="19.76360726170241832733154296875">
        <ele>1706.199951171875</ele>
        <time>2026-06-18T08:58:11.000Z</time>
        <extensions>
          <ns3:TrackPointExtension>
            <ns3:atemp>25.0</ns3:atemp>
          </ns3:TrackPointExtension>
        </extensions>
      </trkpt>
      <trkpt lat="42.52705089747905731201171875" lon="19.7636021487414836883544921875">
        <ele>1706.5999755859375</ele>
        <time>2026-06-18T08:58:12.000Z</time>
        <extensions>
          <ns3:TrackPointExtension>
            <ns3:atemp>25.0</ns3:atemp>
          </ns3:TrackPointExtension>
        </extensions>
      </trkpt>
      <trkpt lat="42.52703404985368251800537109375" lon="19.76358689367771148681640625">
        <ele>1706.800048828125</ele>
        <time>2026-06-18T08:58:13.000Z</time>
        <extensions>
          <ns3:TrackPointExtension>
            <ns3:atemp>25.0</ns3:atemp>
          </ns3:TrackPointExtension>
        </extensions>
      </trkpt>
      <trkpt lat="42.5270180404186248779296875" lon="19.76356971077620983123779296875">
        <ele>1707</ele>
        <time>2026-06-18T08:58:14.000Z</time>
        <extensions>
          <ns3:TrackPointExtension>
            <ns3:atemp>25.0</ns3:atemp>
          </ns3:TrackPointExtension>
        </extensions>
      </trkpt>
      <trkpt lat="42.52700303681194782257080078125" lon="19.76355470716953277587890625">
        <ele>1707.199951171875</ele>
        <time>2026-06-18T08:58:15.000Z</time>
        <extensions>
          <ns3:TrackPointExtension>
            <ns3:atemp>25.0</ns3:atemp>
          </ns3:TrackPointExtension>
        </extensions>
      </trkpt>
      <trkpt lat="42.52699029631912708282470703125" lon="19.76354422979056835174560546875">
        <ele>1707.4000244140625</ele>
        <time>2026-06-18T08:58:16.000Z</time>
        <extensions>
          <ns3:TrackPointExtension>
            <ns3:atemp>25.0</ns3:atemp>
          </ns3:TrackPointExtension>
        </extensions>
      </trkpt>
      <trkpt lat="42.52697973512113094329833984375" lon="19.76353618316352367401123046875">
        <ele>1707.5999755859375</ele>
        <time>2026-06-18T08:58:17.000Z</time>
        <extensions>
          <ns3:TrackPointExtension>
            <ns3:atemp>25.0</ns3:atemp>
          </ns3:TrackPointExtension>
        </extensions>
      </trkpt>
      <trkpt lat="42.52696649171411991119384765625" lon="19.7635183297097682952880859375">
        <ele>1707.800048828125</ele>
        <time>2026-06-18T08:58:18.000Z</time>
        <extensions>
          <ns3:TrackPointExtension>
            <ns3:atemp>25.0</ns3:atemp>
          </ns3:TrackPointExtension>
        </extensions>
      </trkpt>
      <trkpt lat="42.52694872207939624786376953125" lon="19.76349796168506145477294921875">
        <ele>1708.199951171875</ele>
        <time>2026-06-18T08:58:19.000Z</time>
        <extensions>
          <ns3:TrackPointExtension>
            <ns3:atemp>25.0</ns3:atemp>
          </ns3:TrackPointExtension>
        </extensions>
      </trkpt>
      <trkpt lat="42.52692743204534053802490234375" lon="19.763475246727466583251953125">
        <ele>1708.4000244140625</ele>
        <time>2026-06-18T08:58:20.000Z</time>
        <extensions>
          <ns3:TrackPointExtension>
            <ns3:atemp>25.0</ns3:atemp>
          </ns3:TrackPointExtension>
        </extensions>
      </trkpt>
      <trkpt lat="42.52690094523131847381591796875" lon="19.7634542919695377349853515625">
        <ele>1708.4000244140625</ele>
        <time>2026-06-18T08:58:21.000Z</time>
        <extensions>
          <ns3:TrackPointExtension>
            <ns3:atemp>25.0</ns3:atemp>
          </ns3:TrackPointExtension>
        </extensions>
      </trkpt>
      <trkpt lat="42.5268723629415035247802734375" lon="19.76343576796352863311767578125">
        <ele>1708.4000244140625</ele>
        <time>2026-06-18T08:58:22.000Z</time>
        <extensions>
          <ns3:TrackPointExtension>
            <ns3:atemp>25.0</ns3:atemp>
          </ns3:TrackPointExtension>
        </extensions>
      </trkpt>
      <trkpt lat="42.526845037937164306640625" lon="19.7634247876703739166259765625">
        <ele>1708.4000244140625</ele>
        <time>2026-06-18T08:58:23.000Z</time>
        <extensions>
          <ns3:TrackPointExtension>
            <ns3:atemp>25.0</ns3:atemp>
          </ns3:TrackPointExtension>
        </extensions>
      </trkpt>
      <trkpt lat="42.526821233332157135009765625" lon="19.76341229863464832305908203125">
        <ele>1708.4000244140625</ele>
        <time>2026-06-18T08:58:24.000Z</time>
        <extensions>
          <ns3:TrackPointExtension>
            <ns3:atemp>25.0</ns3:atemp>
          </ns3:TrackPointExtension>
        </extensions>
      </trkpt>
      <trkpt lat="42.52679432742297649383544921875" lon="19.76339989341795444488525390625">
        <ele>1708.199951171875</ele>
        <time>2026-06-18T08:58:25.000Z</time>
        <extensions>
          <ns3:TrackPointExtension>
            <ns3:atemp>25.0</ns3:atemp>
          </ns3:TrackPointExtension>
        </extensions>
      </trkpt>
      <trkpt lat="42.52676649950444698333740234375" lon="19.76338732056319713592529296875">
        <ele>1708.199951171875</ele>
        <time>2026-06-18T08:58:26.000Z</time>
        <extensions>
          <ns3:TrackPointExtension>
            <ns3:atemp>25.0</ns3:atemp>
          </ns3:TrackPointExtension>
        </extensions>
      </trkpt>
      <trkpt lat="42.5267409346997737884521484375" lon="19.7633721493184566497802734375">
        <ele>1708.199951171875</ele>
        <time>2026-06-18T08:58:27.000Z</time>
        <extensions>
          <ns3:TrackPointExtension>
            <ns3:atemp>25.0</ns3:atemp>
          </ns3:TrackPointExtension>
        </extensions>
      </trkpt>
      <trkpt lat="42.52671352587640285491943359375" lon="19.76336083374917507171630859375">
        <ele>1708</ele>
        <time>2026-06-18T08:58:28.000Z</time>
        <extensions>
          <ns3:TrackPointExtension>
            <ns3:atemp>25.0</ns3:atemp>
          </ns3:TrackPointExtension>
        </extensions>
      </trkpt>
      <trkpt lat="42.52668703906238079071044921875" lon="19.7633470036089420318603515625">
        <ele>1708</ele>
        <time>2026-06-18T08:58:29.000Z</time>
        <extensions>
          <ns3:TrackPointExtension>
            <ns3:atemp>25.0</ns3:atemp>
          </ns3:TrackPointExtension>
        </extensions>
      </trkpt>
      <trkpt lat="42.52666591666638851165771484375" lon="19.76333317346870899200439453125">
        <ele>1708</ele>
        <time>2026-06-18T08:58:30.000Z</time>
        <extensions>
          <ns3:TrackPointExtension>
            <ns3:atemp>25.0</ns3:atemp>
          </ns3:TrackPointExtension>
        </extensions>
      </trkpt>
      <trkpt lat="42.5266473926603794097900390625" lon="19.76332001388072967529296875">
        <ele>1708.199951171875</ele>
        <time>2026-06-18T08:58:31.000Z</time>
        <extensions>
          <ns3:TrackPointExtension>
            <ns3:atemp>25.0</ns3:atemp>
          </ns3:TrackPointExtension>
        </extensions>
      </trkpt>
      <trkpt lat="42.5266306288540363311767578125" lon="19.76331506855785846710205078125">
        <ele>1708.199951171875</ele>
        <time>2026-06-18T08:58:32.000Z</time>
        <extensions>
          <ns3:TrackPointExtension>
            <ns3:atemp>25.0</ns3:atemp>
          </ns3:TrackPointExtension>
        </extensions>
      </trkpt>
      <trkpt lat="42.5266158767044544219970703125" lon="19.76330635137856006622314453125">
        <ele>1708.5999755859375</ele>
        <time>2026-06-18T08:58:33.000Z</time>
        <extensions>
          <ns3:TrackPointExtension>
            <ns3:atemp>25.0</ns3:atemp>
          </ns3:TrackPointExtension>
        </extensions>
      </trkpt>
      <trkpt lat="42.52660808153450489044189453125" lon="19.76329511962831020355224609375">
        <ele>1708.800048828125</ele>
        <time>2026-06-18T08:58:34.000Z</time>
        <extensions>
          <ns3:TrackPointExtension>
            <ns3:atemp>25.0</ns3:atemp>
          </ns3:TrackPointExtension>
        </extensions>
      </trkpt>
      <trkpt lat="42.52659919671714305877685546875" lon="19.76328372023999691009521484375">
        <ele>1709</ele>
        <time>2026-06-18T08:58:35.000Z</time>
        <extensions>
          <ns3:TrackPointExtension>
            <ns3:atemp>25.0</ns3:atemp>
          </ns3:TrackPointExtension>
        </extensions>
      </trkpt>
      <trkpt lat="42.5265860371291637420654296875" lon="19.76327835582196712493896484375">
        <ele>1709.4000244140625</ele>
        <time>2026-06-18T08:58:36.000Z</time>
        <extensions>
          <ns3:TrackPointExtension>
            <ns3:atemp>25.0</ns3:atemp>
          </ns3:TrackPointExtension>
        </extensions>
      </trkpt>
      <trkpt lat="42.52657338045537471771240234375" lon="19.76327265612781047821044921875">
        <ele>1709.5999755859375</ele>
        <time>2026-06-18T08:58:37.000Z</time>
        <extensions>
          <ns3:TrackPointExtension>
            <ns3:atemp>25.0</ns3:atemp>
          </ns3:TrackPointExtension>
        </extensions>
      </trkpt>
      <trkpt lat="42.52655611373484134674072265625" lon="19.76326159201562404632568359375">
        <ele>1709.800048828125</ele>
        <time>2026-06-18T08:58:38.000Z</time>
        <extensions>
          <ns3:TrackPointExtension>
            <ns3:atemp>25.0</ns3:atemp>
          </ns3:TrackPointExtension>
        </extensions>
      </trkpt>
      <trkpt lat="42.5265350751578807830810546875" lon="19.76325027644634246826171875">
        <ele>1710</ele>
        <time>2026-06-18T08:58:39.000Z</time>
        <extensions>
          <ns3:TrackPointExtension>
            <ns3:atemp>25.0</ns3:atemp>
          </ns3:TrackPointExtension>
        </extensions>
      </trkpt>
      <trkpt lat="42.52651571296155452728271484375" lon="19.7632434032857418060302734375">
        <ele>1710.199951171875</ele>
        <time>2026-06-18T08:58:40.000Z</time>
        <extensions>
          <ns3:TrackPointExtension>
            <ns3:atemp>25.0</ns3:atemp>
          </ns3:TrackPointExtension>
        </extensions>
      </trkpt>
      <trkpt lat="42.52649643458425998687744140625" lon="19.76323862560093402862548828125">
        <ele>1710.4000244140625</ele>
        <time>2026-06-18T08:58:41.000Z</time>
        <extensions>
          <ns3:TrackPointExtension>
            <ns3:atemp>25.0</ns3:atemp>
          </ns3:TrackPointExtension>
        </extensions>
      </trkpt>
      <trkpt lat="42.5264827720820903778076171875" lon="19.76324030198156833648681640625">
        <ele>1710.5999755859375</ele>
        <time>2026-06-18T08:58:42.000Z</time>
        <extensions>
          <ns3:TrackPointExtension>
            <ns3:atemp>25.0</ns3:atemp>
          </ns3:TrackPointExtension>
        </extensions>
      </trkpt>
      <trkpt lat="42.52647832967340946197509765625" lon="19.76322689093649387359619140625">
        <ele>1710.800048828125</ele>
        <time>2026-06-18T08:58:43.000Z</time>
        <extensions>
          <ns3:TrackPointExtension>
            <ns3:atemp>25.0</ns3:atemp>
          </ns3:TrackPointExtension>
        </extensions>
      </trkpt>
      <trkpt lat="42.52647162415087223052978515625" lon="19.7632172517478466033935546875">
        <ele>1711.199951171875</ele>
        <time>2026-06-18T08:58:44.000Z</time>
        <extensions>
          <ns3:TrackPointExtension>
            <ns3:atemp>25.0</ns3:atemp>
          </ns3:TrackPointExtension>
        </extensions>
      </trkpt>
      <trkpt lat="42.5264569558203220367431640625" lon="19.763207025825977325439453125">
        <ele>1711.4000244140625</ele>
        <time>2026-06-18T08:58:45.000Z</time>
        <extensions>
          <ns3:TrackPointExtension>
            <ns3:atemp>25.0</ns3:atemp>
          </ns3:TrackPointExtension>
        </extensions>
      </trkpt>
      <trkpt lat="42.52643977291882038116455078125" lon="19.7631986439228057861328125">
        <ele>1711.5999755859375</ele>
        <time>2026-06-18T08:58:46.000Z</time>
        <extensions>
          <ns3:TrackPointExtension>
            <ns3:atemp>25.0</ns3:atemp>
          </ns3:TrackPointExtension>
        </extensions>
      </trkpt>
      <trkpt lat="42.5264200754463672637939453125" lon="19.7631870768964290618896484375">
        <ele>1712</ele>
        <time>2026-06-18T08:58:47.000Z</time>
        <extensions>
          <ns3:TrackPointExtension>
            <ns3:atemp>25.0</ns3:atemp>
          </ns3:TrackPointExtension>
        </extensions>
      </trkpt>
      <trkpt lat="42.52640272490680217742919921875" lon="19.7631770186126232147216796875">
        <ele>1712.199951171875</ele>
        <time>2026-06-18T08:58:48.000Z</time>
        <extensions>
          <ns3:TrackPointExtension>
            <ns3:atemp>25.0</ns3:atemp>
          </ns3:TrackPointExtension>
        </extensions>
      </trkpt>
      <trkpt lat="42.52638411708176136016845703125" lon="19.76316989399492740631103515625">
        <ele>1712.4000244140625</ele>
        <time>2026-06-18T08:58:49.000Z</time>
        <extensions>
          <ns3:TrackPointExtension>
            <ns3:atemp>25.0</ns3:atemp>
          </ns3:TrackPointExtension>
        </extensions>
      </trkpt>
      <trkpt lat="42.52636500634253025054931640625" lon="19.763162098824977874755859375">
        <ele>1712.5999755859375</ele>
        <time>2026-06-18T08:58:50.000Z</time>
        <extensions>
          <ns3:TrackPointExtension>
            <ns3:atemp>25.0</ns3:atemp>
          </ns3:TrackPointExtension>
        </extensions>
      </trkpt>
      <trkpt lat="42.5263448059558868408203125" lon="19.7631565667688846588134765625">
        <ele>1713</ele>
        <time>2026-06-18T08:58:51.000Z</time>
        <extensions>
          <ns3:TrackPointExtension>
            <ns3:atemp>25.0</ns3:atemp>
          </ns3:TrackPointExtension>
        </extensions>
      </trkpt>
      <trkpt lat="42.52632225863635540008544921875" lon="19.76315229199826717376708984375">
        <ele>1713.199951171875</ele>
        <time>2026-06-18T08:58:52.000Z</time>
        <extensions>
          <ns3:TrackPointExtension>
            <ns3:atemp>25.0</ns3:atemp>
          </ns3:TrackPointExtension>
        </extensions>
      </trkpt>
      <trkpt lat="42.5262983702123165130615234375" lon="19.76314592175185680389404296875">
        <ele>1713.4000244140625</ele>
        <time>2026-06-18T08:58:53.000Z</time>
        <extensions>
          <ns3:TrackPointExtension>
            <ns3:atemp>25.0</ns3:atemp>
          </ns3:TrackPointExtension>
        </extensions>
      </trkpt>
      <trkpt lat="42.52627582289278507232666015625" lon="19.76313536055386066436767578125">
        <ele>1713.5999755859375</ele>
        <time>2026-06-18T08:58:54.000Z</time>
        <extensions>
          <ns3:TrackPointExtension>
            <ns3:atemp>25.0</ns3:atemp>
          </ns3:TrackPointExtension>
        </extensions>
      </trkpt>
      <trkpt lat="42.52625352703034877777099609375" lon="19.76312823593616485595703125">
        <ele>1713.800048828125</ele>
        <time>2026-06-18T08:58:55.000Z</time>
        <extensions>
          <ns3:TrackPointExtension>
            <ns3:atemp>25.0</ns3:atemp>
          </ns3:TrackPointExtension>
        </extensions>
      </trkpt>
      <trkpt lat="42.52623408101499080657958984375" lon="19.763119183480739593505859375">
        <ele>1713.800048828125</ele>
        <time>2026-06-18T08:58:56.000Z</time>
        <extensions>
          <ns3:TrackPointExtension>
            <ns3:atemp>25.0</ns3:atemp>
          </ns3:TrackPointExtension>
        </extensions>
      </trkpt>
      <trkpt lat="42.5262138806283473968505859375" lon="19.76311155594885349273681640625">
        <ele>1714</ele>
        <time>2026-06-18T08:58:57.000Z</time>
        <extensions>
          <ns3:TrackPointExtension>
            <ns3:atemp>25.0</ns3:atemp>
          </ns3:TrackPointExtension>
        </extensions>
      </trkpt>
      <trkpt lat="42.52619401551783084869384765625" lon="19.76310233585536479949951171875">
        <ele>1714</ele>
        <time>2026-06-18T08:58:58.000Z</time>
        <extensions>
          <ns3:TrackPointExtension>
            <ns3:atemp>25.0</ns3:atemp>
          </ns3:TrackPointExtension>
        </extensions>
      </trkpt>
      <trkpt lat="42.52618010155856609344482421875" lon="19.76309026591479778289794921875">
        <ele>1714.199951171875</ele>
        <time>2026-06-18T08:58:59.000Z</time>
        <extensions>
          <ns3:TrackPointExtension>
            <ns3:atemp>25.0</ns3:atemp>
          </ns3:TrackPointExtension>
        </extensions>
      </trkpt>
      <trkpt lat="42.526168785989284515380859375" lon="19.7630801238119602203369140625">
        <ele>1714.4000244140625</ele>
        <time>2026-06-18T08:59:00.000Z</time>
        <extensions>
          <ns3:TrackPointExtension>
            <ns3:atemp>25.0</ns3:atemp>
          </ns3:TrackPointExtension>
        </extensions>
      </trkpt>
      <trkpt lat="42.52615244127810001373291015625" lon="19.7630730830132961273193359375">
        <ele>1714.5999755859375</ele>
        <time>2026-06-18T08:59:01.000Z</time>
        <extensions>
          <ns3:TrackPointExtension>
            <ns3:atemp>25.0</ns3:atemp>
          </ns3:TrackPointExtension>
        </extensions>
      </trkpt>
      <trkpt lat="42.52613232471048831939697265625" lon="19.76306528784334659576416015625">
        <ele>1714.800048828125</ele>
        <time>2026-06-18T08:59:02.000Z</time>
        <extensions>
          <ns3:TrackPointExtension>
            <ns3:atemp>25.0</ns3:atemp>
          </ns3:TrackPointExtension>
        </extensions>
      </trkpt>
      <trkpt lat="42.5261169858276844024658203125" lon="19.7630522958934307098388671875">
        <ele>1715</ele>
        <time>2026-06-18T08:59:03.000Z</time>
        <extensions>
          <ns3:TrackPointExtension>
            <ns3:atemp>25.0</ns3:atemp>
          </ns3:TrackPointExtension>
        </extensions>
      </trkpt>
      <trkpt lat="42.52610231749713420867919921875" lon="19.7630388848483562469482421875">
        <ele>1715.199951171875</ele>
        <time>2026-06-18T08:59:04.000Z</time>
        <extensions>
          <ns3:TrackPointExtension>
            <ns3:atemp>25.0</ns3:atemp>
          </ns3:TrackPointExtension>
        </extensions>
      </trkpt>
      <trkpt lat="42.52608857117593288421630859375" lon="19.763031005859375">
        <ele>1715.4000244140625</ele>
        <time>2026-06-18T08:59:05.000Z</time>
        <extensions>
          <ns3:TrackPointExtension>
            <ns3:atemp>25.0</ns3:atemp>
          </ns3:TrackPointExtension>
        </extensions>
      </trkpt>
      <trkpt lat="42.52607482485473155975341796875" lon="19.76301960647106170654296875">
        <ele>1715.5999755859375</ele>
        <time>2026-06-18T08:59:06.000Z</time>
        <extensions>
          <ns3:TrackPointExtension>
            <ns3:atemp>25.0</ns3:atemp>
          </ns3:TrackPointExtension>
        </extensions>
      </trkpt>
      <trkpt lat="42.52605722285807132720947265625" lon="19.7630100511014461517333984375">
        <ele>1716</ele>
        <time>2026-06-18T08:59:07.000Z</time>
        <extensions>
          <ns3:TrackPointExtension>
            <ns3:atemp>25.0</ns3:atemp>
          </ns3:TrackPointExtension>
        </extensions>
      </trkpt>
      <trkpt lat="42.5260435603559017181396484375" lon="19.763000495731830596923828125">
        <ele>1716.199951171875</ele>
        <time>2026-06-18T08:59:08.000Z</time>
        <extensions>
          <ns3:TrackPointExtension>
            <ns3:atemp>25.0</ns3:atemp>
          </ns3:TrackPointExtension>
        </extensions>
      </trkpt>
      <trkpt lat="42.52603107132017612457275390625" lon="19.76299387402832508087158203125">
        <ele>1716.5999755859375</ele>
        <time>2026-06-18T08:59:09.000Z</time>
        <extensions>
          <ns3:TrackPointExtension>
            <ns3:atemp>25.0</ns3:atemp>
          </ns3:TrackPointExtension>
        </extensions>
      </trkpt>
      <trkpt lat="42.52601766027510166168212890625" lon="19.76299119181931018829345703125">
        <ele>1717</ele>
        <time>2026-06-18T08:59:10.000Z</time>
        <extensions>
          <ns3:TrackPointExtension>
            <ns3:atemp>25.0</ns3:atemp>
          </ns3:TrackPointExtension>
        </extensions>
      </trkpt>
      <trkpt lat="42.5260073505342006683349609375" lon="19.76299052126705646514892578125">
        <ele>1717.4000244140625</ele>
        <time>2026-06-18T08:59:11.000Z</time>
        <extensions>
          <ns3:TrackPointExtension>
            <ns3:atemp>25.0</ns3:atemp>
          </ns3:TrackPointExtension>
        </extensions>
      </trkpt>
      <trkpt lat="42.52599536441266536712646484375" lon="19.7629889287054538726806640625">
        <ele>1717.800048828125</ele>
        <time>2026-06-18T08:59:12.000Z</time>
        <extensions>
          <ns3:TrackPointExtension>
            <ns3:atemp>25.0</ns3:atemp>
          </ns3:TrackPointExtension>
        </extensions>
      </trkpt>
      <trkpt lat="42.525986731052398681640625" lon="19.762985743582248687744140625">
        <ele>1718.199951171875</ele>
        <time>2026-06-18T08:59:13.000Z</time>
        <extensions>
          <ns3:TrackPointExtension>
            <ns3:atemp>25.0</ns3:atemp>
          </ns3:TrackPointExtension>
        </extensions>
      </trkpt>
      <trkpt lat="42.5259731523692607879638671875" lon="19.76297744549810886383056640625">
        <ele>1718.5999755859375</ele>
        <time>2026-06-18T08:59:14.000Z</time>
        <extensions>
          <ns3:TrackPointExtension>
            <ns3:atemp>25.0</ns3:atemp>
          </ns3:TrackPointExtension>
        </extensions>
      </trkpt>
      <trkpt lat="42.52595848403871059417724609375" lon="19.7629714943468570709228515625">
        <ele>1719</ele>
        <time>2026-06-18T08:59:15.000Z</time>
        <extensions>
          <ns3:TrackPointExtension>
            <ns3:atemp>25.0</ns3:atemp>
          </ns3:TrackPointExtension>
        </extensions>
      </trkpt>
      <trkpt lat="42.52594356425106525421142578125" lon="19.7629701532423496246337890625">
        <ele>1719.199951171875</ele>
        <time>2026-06-18T08:59:16.000Z</time>
        <extensions>
          <ns3:TrackPointExtension>
            <ns3:atemp>25.0</ns3:atemp>
          </ns3:TrackPointExtension>
        </extensions>
      </trkpt>
      <trkpt lat="42.52592931501567363739013671875" lon="19.76297266781330108642578125">
        <ele>1719.5999755859375</ele>
        <time>2026-06-18T08:59:17.000Z</time>
        <extensions>
          <ns3:TrackPointExtension>
            <ns3:atemp>25.0</ns3:atemp>
          </ns3:TrackPointExtension>
        </extensions>
      </trkpt>
      <trkpt lat="42.525916658341884613037109375" lon="19.76297526620328426361083984375">
        <ele>1720</ele>
        <time>2026-06-18T08:59:18.000Z</time>
        <extensions>
          <ns3:TrackPointExtension>
            <ns3:atemp>25.0</ns3:atemp>
          </ns3:TrackPointExtension>
        </extensions>
      </trkpt>
      <trkpt lat="42.52590584568679332733154296875" lon="19.7629688121378421783447265625">
        <ele>1720.4000244140625</ele>
        <time>2026-06-18T08:59:19.000Z</time>
        <extensions>
          <ns3:TrackPointExtension>
            <ns3:atemp>25.0</ns3:atemp>
          </ns3:TrackPointExtension>
        </extensions>
      </trkpt>
      <trkpt lat="42.52589285373687744140625" lon="19.762968979775905609130859375">
        <ele>1720.800048828125</ele>
        <time>2026-06-18T08:59:20.000Z</time>
        <extensions>
          <ns3:TrackPointExtension>
            <ns3:atemp>25.0</ns3:atemp>
          </ns3:TrackPointExtension>
        </extensions>
      </trkpt>
      <trkpt lat="42.5258809514343738555908203125" lon="19.76297073997557163238525390625">
        <ele>1721</ele>
        <time>2026-06-18T08:59:21.000Z</time>
        <extensions>
          <ns3:TrackPointExtension>
            <ns3:atemp>25.0</ns3:atemp>
          </ns3:TrackPointExtension>
        </extensions>
      </trkpt>
      <trkpt lat="42.52586443908512592315673828125" lon="19.76296839304268360137939453125">
        <ele>1721.4000244140625</ele>
        <time>2026-06-18T08:59:22.000Z</time>
        <extensions>
          <ns3:TrackPointExtension>
            <ns3:atemp>25.0</ns3:atemp>
          </ns3:TrackPointExtension>
        </extensions>
      </trkpt>
      <trkpt lat="42.52584884874522686004638671875" lon="19.76296353153884410858154296875">
        <ele>1721.5999755859375</ele>
        <time>2026-06-18T08:59:23.000Z</time>
        <extensions>
          <ns3:TrackPointExtension>
            <ns3:atemp>25.0</ns3:atemp>
          </ns3:TrackPointExtension>
        </extensions>
      </trkpt>
      <trkpt lat="42.5258279778063297271728515625" lon="19.7629580833017826080322265625">
        <ele>1721.800048828125</ele>
        <time>2026-06-18T08:59:24.000Z</time>
        <extensions>
          <ns3:TrackPointExtension>
            <ns3:atemp>25.0</ns3:atemp>
          </ns3:TrackPointExtension>
        </extensions>
      </trkpt>
      <trkpt lat="42.52581129781901836395263671875" lon="19.76295255124568939208984375">
        <ele>1722</ele>
        <time>2026-06-18T08:59:25.000Z</time>
        <extensions>
          <ns3:TrackPointExtension>
            <ns3:atemp>25.0</ns3:atemp>
          </ns3:TrackPointExtension>
        </extensions>
      </trkpt>
      <trkpt lat="42.52579696476459503173828125" lon="19.76294442079961299896240234375">
        <ele>1722.199951171875</ele>
        <time>2026-06-18T08:59:26.000Z</time>
        <extensions>
          <ns3:TrackPointExtension>
            <ns3:atemp>25.0</ns3:atemp>
          </ns3:TrackPointExtension>
        </extensions>
      </trkpt>
      <trkpt lat="42.52578087151050567626953125" lon="19.762937463819980621337890625">
        <ele>1722.4000244140625</ele>
        <time>2026-06-18T08:59:27.000Z</time>
        <extensions>
          <ns3:TrackPointExtension>
            <ns3:atemp>25.0</ns3:atemp>
          </ns3:TrackPointExtension>
        </extensions>
      </trkpt>
      <trkpt lat="42.52576217986643314361572265625" lon="19.76293335668742656707763671875">
        <ele>1722.800048828125</ele>
        <time>2026-06-18T08:59:28.000Z</time>
        <extensions>
          <ns3:TrackPointExtension>
            <ns3:atemp>25.0</ns3:atemp>
          </ns3:TrackPointExtension>
        </extensions>
      </trkpt>
      <trkpt lat="42.5257408060133457183837890625" lon="19.7629272378981113433837890625">
        <ele>1723.199951171875</ele>
        <time>2026-06-18T08:59:29.000Z</time>
        <extensions>
          <ns3:TrackPointExtension>
            <ns3:atemp>25.0</ns3:atemp>
          </ns3:TrackPointExtension>
        </extensions>
      </trkpt>
      <trkpt lat="42.5257253833115100860595703125" lon="19.76291810162365436553955078125">
        <ele>1723.4000244140625</ele>
        <time>2026-06-18T08:59:30.000Z</time>
        <extensions>
          <ns3:TrackPointExtension>
            <ns3:atemp>25.0</ns3:atemp>
          </ns3:TrackPointExtension>
        </extensions>
      </trkpt>
      <trkpt lat="42.52570920623838901519775390625" lon="19.7629051096737384796142578125">
        <ele>1723.800048828125</ele>
        <time>2026-06-18T08:59:31.000Z</time>
        <extensions>
          <ns3:TrackPointExtension>
            <ns3:atemp>25.0</ns3:atemp>
          </ns3:TrackPointExtension>
        </extensions>
      </trkpt>
      <trkpt lat="42.52569294534623622894287109375" lon="19.76289312355220317840576171875">
        <ele>1724</ele>
        <time>2026-06-18T08:59:32.000Z</time>
        <extensions>
          <ns3:TrackPointExtension>
            <ns3:atemp>25.0</ns3:atemp>
          </ns3:TrackPointExtension>
        </extensions>
      </trkpt>
      <trkpt lat="42.5256797857582569122314453125" lon="19.76287904195487499237060546875">
        <ele>1724.5999755859375</ele>
        <time>2026-06-18T08:59:33.000Z</time>
        <extensions>
          <ns3:TrackPointExtension>
            <ns3:atemp>25.0</ns3:atemp>
          </ns3:TrackPointExtension>
        </extensions>
      </trkpt>
      <trkpt lat="42.5256677158176898956298828125" lon="19.76286194287240505218505859375">
        <ele>1725</ele>
        <time>2026-06-18T08:59:34.000Z</time>
        <extensions>
          <ns3:TrackPointExtension>
            <ns3:atemp>25.0</ns3:atemp>
          </ns3:TrackPointExtension>
        </extensions>
      </trkpt>
      <trkpt lat="42.5256543047726154327392578125" lon="19.762845598161220550537109375">
        <ele>1725.199951171875</ele>
        <time>2026-06-18T08:59:35.000Z</time>
        <extensions>
          <ns3:TrackPointExtension>
            <ns3:atemp>25.0</ns3:atemp>
          </ns3:TrackPointExtension>
        </extensions>
      </trkpt>
      <trkpt lat="42.5256408937275409698486328125" lon="19.7628387250006198883056640625">
        <ele>1725.5999755859375</ele>
        <time>2026-06-18T08:59:36.000Z</time>
        <extensions>
          <ns3:TrackPointExtension>
            <ns3:atemp>25.0</ns3:atemp>
          </ns3:TrackPointExtension>
        </extensions>
      </trkpt>
      <trkpt lat="42.52562689594924449920654296875" lon="19.762832187116146087646484375">
        <ele>1726</ele>
        <time>2026-06-18T08:59:37.000Z</time>
        <extensions>
          <ns3:TrackPointExtension>
            <ns3:atemp>25.0</ns3:atemp>
          </ns3:TrackPointExtension>
        </extensions>
      </trkpt>
      <trkpt lat="42.52561583183705806732177734375" lon="19.7628249786794185638427734375">
        <ele>1726.4000244140625</ele>
        <time>2026-06-18T08:59:38.000Z</time>
        <extensions>
          <ns3:TrackPointExtension>
            <ns3:atemp>25.0</ns3:atemp>
          </ns3:TrackPointExtension>
        </extensions>
      </trkpt>
      <trkpt lat="42.525605857372283935546875" lon="19.76281047798693180084228515625">
        <ele>1726.800048828125</ele>
        <time>2026-06-18T08:59:39.000Z</time>
        <extensions>
          <ns3:TrackPointExtension>
            <ns3:atemp>25.0</ns3:atemp>
          </ns3:TrackPointExtension>
        </extensions>
      </trkpt>
      <trkpt lat="42.52559185959398746490478515625" lon="19.76279539056122303009033203125">
        <ele>1727</ele>
        <time>2026-06-18T08:59:40.000Z</time>
        <extensions>
          <ns3:TrackPointExtension>
            <ns3:atemp>25.0</ns3:atemp>
          </ns3:TrackPointExtension>
        </extensions>
      </trkpt>
      <trkpt lat="42.52557861618697643280029296875" lon="19.7627763636410236358642578125">
        <ele>1727.199951171875</ele>
        <time>2026-06-18T08:59:41.000Z</time>
        <extensions>
          <ns3:TrackPointExtension>
            <ns3:atemp>25.0</ns3:atemp>
          </ns3:TrackPointExtension>
        </extensions>
      </trkpt>
      <trkpt lat="42.52556118182837963104248046875" lon="19.7627683170139789581298828125">
        <ele>1727.5999755859375</ele>
        <time>2026-06-18T08:59:42.000Z</time>
        <extensions>
          <ns3:TrackPointExtension>
            <ns3:atemp>25.0</ns3:atemp>
          </ns3:TrackPointExtension>
        </extensions>
      </trkpt>
      <trkpt lat="42.5255473516881465911865234375" lon="19.7627595998346805572509765625">
        <ele>1727.800048828125</ele>
        <time>2026-06-18T08:59:43.000Z</time>
        <extensions>
          <ns3:TrackPointExtension>
            <ns3:atemp>25.0</ns3:atemp>
          </ns3:TrackPointExtension>
        </extensions>
      </trkpt>
      <trkpt lat="42.52553134225308895111083984375" lon="19.76274811662733554840087890625">
        <ele>1728</ele>
        <time>2026-06-18T08:59:44.000Z</time>
        <extensions>
          <ns3:TrackPointExtension>
            <ns3:atemp>25.0</ns3:atemp>
          </ns3:TrackPointExtension>
        </extensions>
      </trkpt>
      <trkpt lat="42.52551533281803131103515625" lon="19.7627351246774196624755859375">
        <ele>1728.199951171875</ele>
        <time>2026-06-18T08:59:45.000Z</time>
        <extensions>
          <ns3:TrackPointExtension>
            <ns3:atemp>25.0</ns3:atemp>
          </ns3:TrackPointExtension>
        </extensions>
      </trkpt>
      <trkpt lat="42.52549915574491024017333984375" lon="19.7627230547368526458740234375">
        <ele>1728.5999755859375</ele>
        <time>2026-06-18T08:59:46.000Z</time>
        <extensions>
          <ns3:TrackPointExtension>
            <ns3:atemp>25.0</ns3:atemp>
          </ns3:TrackPointExtension>
        </extensions>
      </trkpt>
      <trkpt lat="42.52548373304307460784912109375" lon="19.7627093084156513214111328125">
        <ele>1728.800048828125</ele>
        <time>2026-06-18T08:59:47.000Z</time>
        <extensions>
          <ns3:TrackPointExtension>
            <ns3:atemp>25.0</ns3:atemp>
          </ns3:TrackPointExtension>
        </extensions>
      </trkpt>
      <trkpt lat="42.5254702381789684295654296875" lon="19.7626965679228305816650390625">
        <ele>1729.199951171875</ele>
        <time>2026-06-18T08:59:48.000Z</time>
        <extensions>
          <ns3:TrackPointExtension>
            <ns3:atemp>25.0</ns3:atemp>
          </ns3:TrackPointExtension>
        </extensions>
      </trkpt>
      <trkpt lat="42.52545858733355998992919921875" lon="19.76268273778259754180908203125">
        <ele>1729.4000244140625</ele>
        <time>2026-06-18T08:59:49.000Z</time>
        <extensions>
          <ns3:TrackPointExtension>
            <ns3:atemp>25.0</ns3:atemp>
          </ns3:TrackPointExtension>
        </extensions>
      </trkpt>
      <trkpt lat="42.52544601447880268096923828125" lon="19.76267033256590366363525390625">
        <ele>1729.5999755859375</ele>
        <time>2026-06-18T08:59:50.000Z</time>
        <extensions>
          <ns3:TrackPointExtension>
            <ns3:atemp>25.0</ns3:atemp>
          </ns3:TrackPointExtension>
        </extensions>
      </trkpt>
      <trkpt lat="42.52543075941503047943115234375" lon="19.76266077719628810882568359375">
        <ele>1730</ele>
        <time>2026-06-18T08:59:51.000Z</time>
        <extensions>
          <ns3:TrackPointExtension>
            <ns3:atemp>25.0</ns3:atemp>
          </ns3:TrackPointExtension>
        </extensions>
      </trkpt>
      <trkpt lat="42.52541315741837024688720703125" lon="19.7626519761979579925537109375">
        <ele>1730.199951171875</ele>
        <time>2026-06-18T08:59:52.000Z</time>
        <extensions>
          <ns3:TrackPointExtension>
            <ns3:atemp>25.0</ns3:atemp>
          </ns3:TrackPointExtension>
        </extensions>
      </trkpt>
      <trkpt lat="42.52539865672588348388671875" lon="19.7626425884664058685302734375">
        <ele>1730.4000244140625</ele>
        <time>2026-06-18T08:59:53.000Z</time>
        <extensions>
          <ns3:TrackPointExtension>
            <ns3:atemp>25.0</ns3:atemp>
          </ns3:TrackPointExtension>
        </extensions>
      </trkpt>
      <trkpt lat="42.5253864191472530364990234375" lon="19.7626315243542194366455078125">
        <ele>1730.5999755859375</ele>
        <time>2026-06-18T08:59:54.000Z</time>
        <extensions>
          <ns3:TrackPointExtension>
            <ns3:atemp>25.0</ns3:atemp>
          </ns3:TrackPointExtension>
        </extensions>
      </trkpt>
      <trkpt lat="42.52537694759666919708251953125" lon="19.76261593401432037353515625">
        <ele>1730.800048828125</ele>
        <time>2026-06-18T08:59:55.000Z</time>
        <extensions>
          <ns3:TrackPointExtension>
            <ns3:atemp>25.0</ns3:atemp>
          </ns3:TrackPointExtension>
        </extensions>
      </trkpt>
      <trkpt lat="42.52536714076995849609375" lon="19.76260378025472164154052734375">
        <ele>1731</ele>
        <time>2026-06-18T08:59:56.000Z</time>
        <extensions>
          <ns3:TrackPointExtension>
            <ns3:atemp>25.0</ns3:atemp>
          </ns3:TrackPointExtension>
        </extensions>
      </trkpt>
      <trkpt lat="42.5253549031913280487060546875" lon="19.76259405724704265594482421875">
        <ele>1731.199951171875</ele>
        <time>2026-06-18T08:59:57.000Z</time>
        <extensions>
          <ns3:TrackPointExtension>
            <ns3:atemp>25.0</ns3:atemp>
          </ns3:TrackPointExtension>
        </extensions>
      </trkpt>
      <trkpt lat="42.52534107305109500885009765625" lon="19.76258601061999797821044921875">
        <ele>1731.4000244140625</ele>
        <time>2026-06-18T08:59:58.000Z</time>
        <extensions>
          <ns3:TrackPointExtension>
            <ns3:atemp>25.0</ns3:atemp>
          </ns3:TrackPointExtension>
        </extensions>
      </trkpt>
      <trkpt lat="42.52532816492021083831787109375" lon="19.76257528178393840789794921875">
        <ele>1731.5999755859375</ele>
        <time>2026-06-18T08:59:59.000Z</time>
        <extensions>
          <ns3:TrackPointExtension>
            <ns3:atemp>25.0</ns3:atemp>
          </ns3:TrackPointExtension>
        </extensions>
      </trkpt>
      <trkpt lat="42.5253160111606121063232421875" lon="19.7625607810914516448974609375">
        <ele>1731.800048828125</ele>
        <time>2026-06-18T09:00:00.000Z</time>
        <extensions>
          <ns3:TrackPointExtension>
            <ns3:atemp>25.0</ns3:atemp>
          </ns3:TrackPointExtension>
        </extensions>
      </trkpt>
      <trkpt lat="42.525300085544586181640625" lon="19.76254812441766262054443359375">
        <ele>1731.800048828125</ele>
        <time>2026-06-18T09:00:01.000Z</time>
        <extensions>
          <ns3:TrackPointExtension>
            <ns3:atemp>25.0</ns3:atemp>
          </ns3:TrackPointExtension>
        </extensions>
      </trkpt>
      <trkpt lat="42.5252878479659557342529296875" lon="19.7625342942774295806884765625">
        <ele>1732</ele>
        <time>2026-06-18T09:00:02.000Z</time>
        <extensions>
          <ns3:TrackPointExtension>
            <ns3:atemp>25.0</ns3:atemp>
          </ns3:TrackPointExtension>
        </extensions>
      </trkpt>
      <trkpt lat="42.52527871169149875640869140625" lon="19.76251803338527679443359375">
        <ele>1732.199951171875</ele>
        <time>2026-06-18T09:00:03.000Z</time>
        <extensions>
          <ns3:TrackPointExtension>
            <ns3:atemp>25.0</ns3:atemp>
          </ns3:TrackPointExtension>
        </extensions>
      </trkpt>
      <trkpt lat="42.52527083270251750946044921875" lon="19.7625064663589000701904296875">
        <ele>1732.4000244140625</ele>
        <time>2026-06-18T09:00:04.000Z</time>
        <extensions>
          <ns3:TrackPointExtension>
            <ns3:atemp>25.0</ns3:atemp>
          </ns3:TrackPointExtension>
        </extensions>
      </trkpt>
      <trkpt lat="42.52526479773223400115966796875" lon="19.7624907083809375762939453125">
        <ele>1732.5999755859375</ele>
        <time>2026-06-18T09:00:05.000Z</time>
        <extensions>
          <ns3:TrackPointExtension>
            <ns3:atemp>25.0</ns3:atemp>
          </ns3:TrackPointExtension>
        </extensions>
      </trkpt>
      <trkpt lat="42.5252576731145381927490234375" lon="19.76247084327042102813720703125">
        <ele>1733</ele>
        <time>2026-06-18T09:00:06.000Z</time>
        <extensions>
          <ns3:TrackPointExtension>
            <ns3:atemp>25.0</ns3:atemp>
          </ns3:TrackPointExtension>
        </extensions>
      </trkpt>
      <trkpt lat="42.52524401061236858367919921875" lon="19.7624575160443782806396484375">
        <ele>1733.199951171875</ele>
        <time>2026-06-18T09:00:07.000Z</time>
        <extensions>
          <ns3:TrackPointExtension>
            <ns3:atemp>25.0</ns3:atemp>
          </ns3:TrackPointExtension>
        </extensions>
      </trkpt>
      <trkpt lat="42.5252278335392475128173828125" lon="19.76244837976992130279541015625">
        <ele>1733.5999755859375</ele>
        <time>2026-06-18T09:00:08.000Z</time>
        <extensions>
          <ns3:TrackPointExtension>
            <ns3:atemp>25.0</ns3:atemp>
          </ns3:TrackPointExtension>
        </extensions>
      </trkpt>
      <trkpt lat="42.52521350048482418060302734375" lon="19.76243949495255947113037109375">
        <ele>1733.800048828125</ele>
        <time>2026-06-18T09:00:09.000Z</time>
        <extensions>
          <ns3:TrackPointExtension>
            <ns3:atemp>25.0</ns3:atemp>
          </ns3:TrackPointExtension>
        </extensions>
      </trkpt>
      <trkpt lat="42.52519874833524227142333984375" lon="19.762427844107151031494140625">
        <ele>1734.199951171875</ele>
        <time>2026-06-18T09:00:10.000Z</time>
        <extensions>
          <ns3:TrackPointExtension>
            <ns3:atemp>25.0</ns3:atemp>
          </ns3:TrackPointExtension>
        </extensions>
      </trkpt>
      <trkpt lat="42.5251902826130390167236328125" lon="19.762411415576934814453125">
        <ele>1734.5999755859375</ele>
        <time>2026-06-18T09:00:11.000Z</time>
        <extensions>
          <ns3:TrackPointExtension>
            <ns3:atemp>25.0</ns3:atemp>
          </ns3:TrackPointExtension>
        </extensions>
      </trkpt>
      <trkpt lat="42.52517997287213802337646484375" lon="19.76239792071282863616943359375">
        <ele>1734.800048828125</ele>
        <time>2026-06-18T09:00:12.000Z</time>
        <extensions>
          <ns3:TrackPointExtension>
            <ns3:atemp>25.0</ns3:atemp>
          </ns3:TrackPointExtension>
        </extensions>
      </trkpt>
      <trkpt lat="42.52516790293157100677490234375" lon="19.76238585077226161956787109375">
        <ele>1735.199951171875</ele>
        <time>2026-06-18T09:00:13.000Z</time>
        <extensions>
          <ns3:TrackPointExtension>
            <ns3:atemp>25.0</ns3:atemp>
          </ns3:TrackPointExtension>
        </extensions>
      </trkpt>
      <trkpt lat="42.52515516243875026702880859375" lon="19.76237185299396514892578125">
        <ele>1735.4000244140625</ele>
        <time>2026-06-18T09:00:14.000Z</time>
        <extensions>
          <ns3:TrackPointExtension>
            <ns3:atemp>25.0</ns3:atemp>
          </ns3:TrackPointExtension>
        </extensions>
      </trkpt>
      <trkpt lat="42.52514376305043697357177734375" lon="19.76235819049179553985595703125">
        <ele>1735.800048828125</ele>
        <time>2026-06-18T09:00:15.000Z</time>
        <extensions>
          <ns3:TrackPointExtension>
            <ns3:atemp>25.0</ns3:atemp>
          </ns3:TrackPointExtension>
        </extensions>
      </trkpt>
      <trkpt lat="42.525134123861789703369140625" lon="19.76233991794288158416748046875">
        <ele>1736</ele>
        <time>2026-06-18T09:00:16.000Z</time>
        <extensions>
          <ns3:TrackPointExtension>
            <ns3:atemp>25.0</ns3:atemp>
          </ns3:TrackPointExtension>
        </extensions>
      </trkpt>
      <trkpt lat="42.5251289270818233489990234375" lon="19.76232550106942653656005859375">
        <ele>1736.4000244140625</ele>
        <time>2026-06-18T09:00:17.000Z</time>
        <extensions>
          <ns3:TrackPointExtension>
            <ns3:atemp>25.0</ns3:atemp>
          </ns3:TrackPointExtension>
        </extensions>
      </trkpt>
      <trkpt lat="42.5251218862831592559814453125" lon="19.7623113356530666351318359375">
        <ele>1736.800048828125</ele>
        <time>2026-06-18T09:00:18.000Z</time>
        <extensions>
          <ns3:TrackPointExtension>
            <ns3:atemp>25.0</ns3:atemp>
          </ns3:TrackPointExtension>
        </extensions>
      </trkpt>
      <trkpt lat="42.5251101516187191009521484375" lon="19.76229750551283359527587890625">
        <ele>1737.199951171875</ele>
        <time>2026-06-18T09:00:19.000Z</time>
        <extensions>
          <ns3:TrackPointExtension>
            <ns3:atemp>25.0</ns3:atemp>
          </ns3:TrackPointExtension>
        </extensions>
      </trkpt>
      <trkpt lat="42.5251002609729766845703125" lon="19.7622781433165073394775390625">
        <ele>1737.5999755859375</ele>
        <time>2026-06-18T09:00:20.000Z</time>
        <extensions>
          <ns3:TrackPointExtension>
            <ns3:atemp>25.0</ns3:atemp>
          </ns3:TrackPointExtension>
        </extensions>
      </trkpt>
      <trkpt lat="42.5250917114317417144775390625" lon="19.76225878112018108367919921875">
        <ele>1737.800048828125</ele>
        <time>2026-06-18T09:00:21.000Z</time>
        <extensions>
          <ns3:TrackPointExtension>
            <ns3:atemp>25.0</ns3:atemp>
          </ns3:TrackPointExtension>
        </extensions>
      </trkpt>
      <trkpt lat="42.52508324570953845977783203125" lon="19.76224268786609172821044921875">
        <ele>1738.199951171875</ele>
        <time>2026-06-18T09:00:22.000Z</time>
        <extensions>
          <ns3:TrackPointExtension>
            <ns3:atemp>25.0</ns3:atemp>
          </ns3:TrackPointExtension>
        </extensions>
      </trkpt>
      <trkpt lat="42.5250759534537792205810546875" lon="19.76222299039363861083984375">
        <ele>1738.800048828125</ele>
        <time>2026-06-18T09:00:23.000Z</time>
        <extensions>
          <ns3:TrackPointExtension>
            <ns3:atemp>25.0</ns3:atemp>
          </ns3:TrackPointExtension>
        </extensions>
      </trkpt>
      <trkpt lat="42.52506874501705169677734375" lon="19.7622097469866275787353515625">
        <ele>1739</ele>
        <time>2026-06-18T09:00:24.000Z</time>
        <extensions>
          <ns3:TrackPointExtension>
            <ns3:atemp>25.0</ns3:atemp>
          </ns3:TrackPointExtension>
        </extensions>
      </trkpt>
      <trkpt lat="42.5250625424087047576904296875" lon="19.76219189353287220001220703125">
        <ele>1739.4000244140625</ele>
        <time>2026-06-18T09:00:25.000Z</time>
        <extensions>
          <ns3:TrackPointExtension>
            <ns3:atemp>25.0</ns3:atemp>
          </ns3:TrackPointExtension>
        </extensions>
      </trkpt>
      <trkpt lat="42.52505290322005748748779296875" lon="19.76217965595424175262451171875">
        <ele>1739.5999755859375</ele>
        <time>2026-06-18T09:00:26.000Z</time>
        <extensions>
          <ns3:TrackPointExtension>
            <ns3:atemp>25.0</ns3:atemp>
          </ns3:TrackPointExtension>
        </extensions>
      </trkpt>
      <trkpt lat="42.52504468895494937896728515625" lon="19.762167669832706451416015625">
        <ele>1740</ele>
        <time>2026-06-18T09:00:27.000Z</time>
        <extensions>
          <ns3:TrackPointExtension>
            <ns3:atemp>25.0</ns3:atemp>
          </ns3:TrackPointExtension>
        </extensions>
      </trkpt>
      <trkpt lat="42.5250397436320781707763671875" lon="19.76215249858796596527099609375">
        <ele>1740.4000244140625</ele>
        <time>2026-06-18T09:00:28.000Z</time>
        <extensions>
          <ns3:TrackPointExtension>
            <ns3:atemp>25.0</ns3:atemp>
          </ns3:TrackPointExtension>
        </extensions>
      </trkpt>
      <trkpt lat="42.52502960152924060821533203125" lon="19.76214093156158924102783203125">
        <ele>1740.5999755859375</ele>
        <time>2026-06-18T09:00:29.000Z</time>
        <extensions>
          <ns3:TrackPointExtension>
            <ns3:atemp>25.0</ns3:atemp>
          </ns3:TrackPointExtension>
        </extensions>
      </trkpt>
      <trkpt lat="42.52501669339835643768310546875" lon="19.76212835870683193206787109375">
        <ele>1741</ele>
        <time>2026-06-18T09:00:30.000Z</time>
        <extensions>
          <ns3:TrackPointExtension>
            <ns3:atemp>25.0</ns3:atemp>
          </ns3:TrackPointExtension>
        </extensions>
      </trkpt>
      <trkpt lat="42.52500303089618682861328125" lon="19.76212198846042156219482421875">
        <ele>1741.4000244140625</ele>
        <time>2026-06-18T09:00:31.000Z</time>
        <extensions>
          <ns3:TrackPointExtension>
            <ns3:atemp>25.0</ns3:atemp>
          </ns3:TrackPointExtension>
        </extensions>
      </trkpt>
      <trkpt lat="42.524994648993015289306640625" lon="19.76210656575858592987060546875">
        <ele>1742</ele>
        <time>2026-06-18T09:00:32.000Z</time>
        <extensions>
          <ns3:TrackPointExtension>
            <ns3:atemp>25.0</ns3:atemp>
          </ns3:TrackPointExtension>
        </extensions>
      </trkpt>
      <trkpt lat="42.52498953603208065032958984375" lon="19.7620897181332111358642578125">
        <ele>1742.5999755859375</ele>
        <time>2026-06-18T09:00:33.000Z</time>
        <extensions>
          <ns3:TrackPointExtension>
            <ns3:atemp>25.0</ns3:atemp>
          </ns3:TrackPointExtension>
        </extensions>
      </trkpt>
      <trkpt lat="42.52498048357665538787841796875" lon="19.76207002066075801849365234375">
        <ele>1743</ele>
        <time>2026-06-18T09:00:34.000Z</time>
        <extensions>
          <ns3:TrackPointExtension>
            <ns3:atemp>25.0</ns3:atemp>
          </ns3:TrackPointExtension>
        </extensions>
      </trkpt>
      <trkpt lat="42.524967156350612640380859375" lon="19.762055017054080963134765625">
        <ele>1743.4000244140625</ele>
        <time>2026-06-18T09:00:35.000Z</time>
        <extensions>
          <ns3:TrackPointExtension>
            <ns3:atemp>25.0</ns3:atemp>
          </ns3:TrackPointExtension>
        </extensions>
      </trkpt>
      <trkpt lat="42.52495366148650646209716796875" lon="19.76204168982803821563720703125">
        <ele>1744</ele>
        <time>2026-06-18T09:00:36.000Z</time>
        <extensions>
          <ns3:TrackPointExtension>
            <ns3:atemp>25.0</ns3:atemp>
          </ns3:TrackPointExtension>
        </extensions>
      </trkpt>
      <trkpt lat="42.52494175918400287628173828125" lon="19.76202785968780517578125">
        <ele>1744.5999755859375</ele>
        <time>2026-06-18T09:00:37.000Z</time>
        <extensions>
          <ns3:TrackPointExtension>
            <ns3:atemp>25.0</ns3:atemp>
          </ns3:TrackPointExtension>
        </extensions>
      </trkpt>
      <trkpt lat="42.5249334610998630523681640625" lon="19.7620112635195255279541015625">
        <ele>1745.199951171875</ele>
        <time>2026-06-18T09:00:38.000Z</time>
        <extensions>
          <ns3:TrackPointExtension>
            <ns3:atemp>25.0</ns3:atemp>
          </ns3:TrackPointExtension>
        </extensions>
      </trkpt>
      <trkpt lat="42.52492583356797695159912109375" lon="19.76199324242770671844482421875">
        <ele>1745.800048828125</ele>
        <time>2026-06-18T09:00:39.000Z</time>
        <extensions>
          <ns3:TrackPointExtension>
            <ns3:atemp>25.0</ns3:atemp>
          </ns3:TrackPointExtension>
        </extensions>
      </trkpt>
      <trkpt lat="42.5249180383980274200439453125" lon="19.761973880231380462646484375">
        <ele>1746.199951171875</ele>
        <time>2026-06-18T09:00:40.000Z</time>
        <extensions>
          <ns3:TrackPointExtension>
            <ns3:atemp>25.0</ns3:atemp>
          </ns3:TrackPointExtension>
        </extensions>
      </trkpt>
      <trkpt lat="42.52490940503776073455810546875" lon="19.7619569487869739532470703125">
        <ele>1746.4000244140625</ele>
        <time>2026-06-18T09:00:41.000Z</time>
        <extensions>
          <ns3:TrackPointExtension>
            <ns3:atemp>25.0</ns3:atemp>
          </ns3:TrackPointExtension>
        </extensions>
      </trkpt>
      <trkpt lat="42.52489800564944744110107421875" lon="19.76194077171385288238525390625">
        <ele>1746.800048828125</ele>
        <time>2026-06-18T09:00:42.000Z</time>
        <extensions>
          <ns3:TrackPointExtension>
            <ns3:atemp>25.0</ns3:atemp>
          </ns3:TrackPointExtension>
        </extensions>
      </trkpt>
      <trkpt lat="42.52488912083208560943603515625" lon="19.76192182861268520355224609375">
        <ele>1747.199951171875</ele>
        <time>2026-06-18T09:00:43.000Z</time>
        <extensions>
          <ns3:TrackPointExtension>
            <ns3:atemp>25.0</ns3:atemp>
          </ns3:TrackPointExtension>
        </extensions>
      </trkpt>
      <trkpt lat="42.52487889491021633148193359375" lon="19.7619026340544223785400390625">
        <ele>1747.5999755859375</ele>
        <time>2026-06-18T09:00:44.000Z</time>
        <extensions>
          <ns3:TrackPointExtension>
            <ns3:atemp>25.0</ns3:atemp>
          </ns3:TrackPointExtension>
        </extensions>
      </trkpt>
      <trkpt lat="42.5248664058744907379150390625" lon="19.7618831880390644073486328125">
        <ele>1748</ele>
        <time>2026-06-18T09:00:45.000Z</time>
        <extensions>
          <ns3:TrackPointExtension>
            <ns3:atemp>25.0</ns3:atemp>
          </ns3:TrackPointExtension>
        </extensions>
      </trkpt>
      <trkpt lat="42.52485576085746288299560546875" lon="19.76186231710016727447509765625">
        <ele>1748.4000244140625</ele>
        <time>2026-06-18T09:00:46.000Z</time>
        <extensions>
          <ns3:TrackPointExtension>
            <ns3:atemp>25.0</ns3:atemp>
          </ns3:TrackPointExtension>
        </extensions>
      </trkpt>
      <trkpt lat="42.52484754659235477447509765625" lon="19.7618510015308856964111328125">
        <ele>1749</ele>
        <time>2026-06-18T09:00:47.000Z</time>
        <extensions>
          <ns3:TrackPointExtension>
            <ns3:atemp>25.0</ns3:atemp>
          </ns3:TrackPointExtension>
        </extensions>
      </trkpt>
      <trkpt lat="42.5248385779559612274169921875" lon="19.7618396021425724029541015625">
        <ele>1749.4000244140625</ele>
        <time>2026-06-18T09:00:48.000Z</time>
        <extensions>
          <ns3:TrackPointExtension>
            <ns3:atemp>25.0</ns3:atemp>
          </ns3:TrackPointExtension>
        </extensions>
      </trkpt>
      <trkpt lat="42.52483061514794826507568359375" lon="19.76182736456394195556640625">
        <ele>1750</ele>
        <time>2026-06-18T09:00:49.000Z</time>
        <extensions>
          <ns3:TrackPointExtension>
            <ns3:atemp>25.0</ns3:atemp>
          </ns3:TrackPointExtension>
        </extensions>
      </trkpt>
      <trkpt lat="42.52482022158801555633544921875" lon="19.7618173062801361083984375">
        <ele>1750.4000244140625</ele>
        <time>2026-06-18T09:00:50.000Z</time>
        <extensions>
          <ns3:TrackPointExtension>
            <ns3:atemp>25.0</ns3:atemp>
          </ns3:TrackPointExtension>
        </extensions>
      </trkpt>
      <trkpt lat="42.52480831928551197052001953125" lon="19.76180515252053737640380859375">
        <ele>1750.5999755859375</ele>
        <time>2026-06-18T09:00:51.000Z</time>
        <extensions>
          <ns3:TrackPointExtension>
            <ns3:atemp>25.0</ns3:atemp>
          </ns3:TrackPointExtension>
        </extensions>
      </trkpt>
      <trkpt lat="42.524795830249786376953125" lon="19.76179182529449462890625">
        <ele>1751</ele>
        <time>2026-06-18T09:00:52.000Z</time>
        <extensions>
          <ns3:TrackPointExtension>
            <ns3:atemp>25.0</ns3:atemp>
          </ns3:TrackPointExtension>
        </extensions>
      </trkpt>
      <trkpt lat="42.52478300593793392181396484375" lon="19.7617775760591030120849609375">
        <ele>1751.4000244140625</ele>
        <time>2026-06-18T09:00:53.000Z</time>
        <extensions>
          <ns3:TrackPointExtension>
            <ns3:atemp>25.0</ns3:atemp>
          </ns3:TrackPointExtension>
        </extensions>
      </trkpt>
      <trkpt lat="42.5247681699693202972412109375" lon="19.7617618180811405181884765625">
        <ele>1751.800048828125</ele>
        <time>2026-06-18T09:00:54.000Z</time>
        <extensions>
          <ns3:TrackPointExtension>
            <ns3:atemp>25.0</ns3:atemp>
          </ns3:TrackPointExtension>
        </extensions>
      </trkpt>
      <trkpt lat="42.52475182525813579559326171875" lon="19.76175301708281040191650390625">
        <ele>1752.199951171875</ele>
        <time>2026-06-18T09:00:55.000Z</time>
        <extensions>
          <ns3:TrackPointExtension>
            <ns3:atemp>25.0</ns3:atemp>
          </ns3:TrackPointExtension>
        </extensions>
      </trkpt>
      <trkpt lat="42.52473942004144191741943359375" lon="19.76174513809382915496826171875">
        <ele>1752.5999755859375</ele>
        <time>2026-06-18T09:00:56.000Z</time>
        <extensions>
          <ns3:TrackPointExtension>
            <ns3:atemp>25.0</ns3:atemp>
          </ns3:TrackPointExtension>
        </extensions>
      </trkpt>
      <trkpt lat="42.52473187632858753204345703125" lon="19.76173357106745243072509765625">
        <ele>1752.800048828125</ele>
        <time>2026-06-18T09:00:57.000Z</time>
        <extensions>
          <ns3:TrackPointExtension>
            <ns3:atemp>25.0</ns3:atemp>
          </ns3:TrackPointExtension>
        </extensions>
      </trkpt>
      <trkpt lat="42.52472433261573314666748046875" lon="19.76172007620334625244140625">
        <ele>1753.4000244140625</ele>
        <time>2026-06-18T09:00:58.000Z</time>
        <extensions>
          <ns3:TrackPointExtension>
            <ns3:atemp>25.0</ns3:atemp>
          </ns3:TrackPointExtension>
        </extensions>
      </trkpt>
      <trkpt lat="42.52471511252224445343017578125" lon="19.76170674897730350494384765625">
        <ele>1753.5999755859375</ele>
        <time>2026-06-18T09:00:59.000Z</time>
        <extensions>
          <ns3:TrackPointExtension>
            <ns3:atemp>25.0</ns3:atemp>
          </ns3:TrackPointExtension>
        </extensions>
      </trkpt>
      <trkpt lat="42.52470371313393115997314453125" lon="19.7616991214454174041748046875">
        <ele>1754</ele>
        <time>2026-06-18T09:01:00.000Z</time>
        <extensions>
          <ns3:TrackPointExtension>
            <ns3:atemp>25.0</ns3:atemp>
          </ns3:TrackPointExtension>
        </extensions>
      </trkpt>
      <trkpt lat="42.524691559374332427978515625" lon="19.7616914100944995880126953125">
        <ele>1754.199951171875</ele>
        <time>2026-06-18T09:01:01.000Z</time>
        <extensions>
          <ns3:TrackPointExtension>
            <ns3:atemp>25.0</ns3:atemp>
          </ns3:TrackPointExtension>
        </extensions>
      </trkpt>
      <trkpt lat="42.5246823392808437347412109375" lon="19.7616863809525966644287109375">
        <ele>1754.4000244140625</ele>
        <time>2026-06-18T09:01:02.000Z</time>
        <extensions>
          <ns3:TrackPointExtension>
            <ns3:atemp>25.0</ns3:atemp>
          </ns3:TrackPointExtension>
        </extensions>
      </trkpt>
      <trkpt lat="42.524673454463481903076171875" lon="19.7616722993552684783935546875">
        <ele>1754.800048828125</ele>
        <time>2026-06-18T09:01:03.000Z</time>
        <extensions>
          <ns3:TrackPointExtension>
            <ns3:atemp>25.0</ns3:atemp>
          </ns3:TrackPointExtension>
        </extensions>
      </trkpt>
      <trkpt lat="42.52466616220772266387939453125" lon="19.761654697358608245849609375">
        <ele>1755.199951171875</ele>
        <time>2026-06-18T09:01:04.000Z</time>
        <extensions>
          <ns3:TrackPointExtension>
            <ns3:atemp>25.0</ns3:atemp>
          </ns3:TrackPointExtension>
        </extensions>
      </trkpt>
      <trkpt lat="42.52465568482875823974609375" lon="19.76164229214191436767578125">
        <ele>1755.4000244140625</ele>
        <time>2026-06-18T09:01:05.000Z</time>
        <extensions>
          <ns3:TrackPointExtension>
            <ns3:atemp>25.0</ns3:atemp>
          </ns3:TrackPointExtension>
        </extensions>
      </trkpt>
      <trkpt lat="42.52464738674461841583251953125" lon="19.76162577979266643524169921875">
        <ele>1755.800048828125</ele>
        <time>2026-06-18T09:01:06.000Z</time>
        <extensions>
          <ns3:TrackPointExtension>
            <ns3:atemp>25.0</ns3:atemp>
          </ns3:TrackPointExtension>
        </extensions>
      </trkpt>
      <trkpt lat="42.52463984303176403045654296875" lon="19.76160935126245021820068359375">
        <ele>1756</ele>
        <time>2026-06-18T09:01:07.000Z</time>
        <extensions>
          <ns3:TrackPointExtension>
            <ns3:atemp>25.0</ns3:atemp>
          </ns3:TrackPointExtension>
        </extensions>
      </trkpt>
      <trkpt lat="42.524628527462482452392578125" lon="19.76159845478832721710205078125">
        <ele>1756.199951171875</ele>
        <time>2026-06-18T09:01:08.000Z</time>
        <extensions>
          <ns3:TrackPointExtension>
            <ns3:atemp>25.0</ns3:atemp>
          </ns3:TrackPointExtension>
        </extensions>
      </trkpt>
      <trkpt lat="42.52461972646415233612060546875" lon="19.761584959924221038818359375">
        <ele>1756.4000244140625</ele>
        <time>2026-06-18T09:01:09.000Z</time>
        <extensions>
          <ns3:TrackPointExtension>
            <ns3:atemp>25.0</ns3:atemp>
          </ns3:TrackPointExtension>
        </extensions>
      </trkpt>
      <trkpt lat="42.5246132723987102508544921875" lon="19.7615660168230533599853515625">
        <ele>1756.800048828125</ele>
        <time>2026-06-18T09:01:10.000Z</time>
        <extensions>
          <ns3:TrackPointExtension>
            <ns3:atemp>25.0</ns3:atemp>
          </ns3:TrackPointExtension>
        </extensions>
      </trkpt>
      <trkpt lat="42.52459676004946231842041015625" lon="19.76156224496662616729736328125">
        <ele>1757</ele>
        <time>2026-06-18T09:01:11.000Z</time>
        <extensions>
          <ns3:TrackPointExtension>
            <ns3:atemp>25.0</ns3:atemp>
          </ns3:TrackPointExtension>
        </extensions>
      </trkpt>
      <trkpt lat="42.52459156326949596405029296875" lon="19.76157733239233493804931640625">
        <ele>1757.4000244140625</ele>
        <time>2026-06-18T09:01:12.000Z</time>
        <extensions>
          <ns3:TrackPointExtension>
            <ns3:atemp>25.0</ns3:atemp>
          </ns3:TrackPointExtension>
        </extensions>
      </trkpt>
      <trkpt lat="42.52459340728819370269775390625" lon="19.7615733928978443145751953125">
        <ele>1758</ele>
        <time>2026-06-18T09:01:13.000Z</time>
        <extensions>
          <ns3:TrackPointExtension>
            <ns3:atemp>25.0</ns3:atemp>
          </ns3:TrackPointExtension>
        </extensions>
      </trkpt>
      <trkpt lat="42.524599693715572357177734375" lon="19.7615710459649562835693359375">
        <ele>1758.4000244140625</ele>
        <time>2026-06-18T09:01:14.000Z</time>
        <extensions>
          <ns3:TrackPointExtension>
            <ns3:atemp>25.0</ns3:atemp>
          </ns3:TrackPointExtension>
        </extensions>
      </trkpt>
      <trkpt lat="42.52460061572492122650146484375" lon="19.761566184461116790771484375">
        <ele>1758.5999755859375</ele>
        <time>2026-06-18T09:01:15.000Z</time>
        <extensions>
          <ns3:TrackPointExtension>
            <ns3:atemp>25.0</ns3:atemp>
          </ns3:TrackPointExtension>
        </extensions>
      </trkpt>
      <trkpt lat="42.52460061572492122650146484375" lon="19.76156626828014850616455078125">
        <ele>1758.5999755859375</ele>
        <time>2026-06-18T09:01:16.000Z</time>
        <extensions>
          <ns3:TrackPointExtension>
            <ns3:atemp>25.0</ns3:atemp>
          </ns3:TrackPointExtension>
        </extensions>
      </trkpt>
      <trkpt lat="42.52460061572492122650146484375" lon="19.76156626828014850616455078125">
        <ele>1758.800048828125</ele>
        <time>2026-06-18T09:01:17.000Z</time>
        <extensions>
          <ns3:TrackPointExtension>
            <ns3:atemp>25.0</ns3:atemp>
          </ns3:TrackPointExtension>
        </extensions>
      </trkpt>
      <trkpt lat="42.52460061572492122650146484375" lon="19.76156626828014850616455078125">
        <ele>1758.5999755859375</ele>
        <time>2026-06-18T09:01:18.000Z</time>
        <extensions>
          <ns3:TrackPointExtension>
            <ns3:atemp>25.0</ns3:atemp>
          </ns3:TrackPointExtension>
        </extensions>
      </trkpt>
      <trkpt lat="42.52460061572492122650146484375" lon="19.76156626828014850616455078125">
        <ele>1758.4000244140625</ele>
        <time>2026-06-18T09:01:19.000Z</time>
        <extensions>
          <ns3:TrackPointExtension>
            <ns3:atemp>25.0</ns3:atemp>
          </ns3:TrackPointExtension>
        </extensions>
      </trkpt>
      <trkpt lat="42.52460061572492122650146484375" lon="19.76156626828014850616455078125">
        <ele>1758.199951171875</ele>
        <time>2026-06-18T09:01:20.000Z</time>
        <extensions>
          <ns3:TrackPointExtension>
            <ns3:atemp>25.0</ns3:atemp>
          </ns3:TrackPointExtension>
        </extensions>
      </trkpt>
      <trkpt lat="42.5246005319058895111083984375" lon="19.76156651973724365234375">
        <ele>1758</ele>
        <time>2026-06-18T09:01:21.000Z</time>
        <extensions>
          <ns3:TrackPointExtension>
            <ns3:atemp>25.0</ns3:atemp>
          </ns3:TrackPointExtension>
        </extensions>
      </trkpt>
      <trkpt lat="42.524594999849796295166015625" lon="19.76158034987747669219970703125">
        <ele>1758</ele>
        <time>2026-06-18T09:01:22.000Z</time>
        <extensions>
          <ns3:TrackPointExtension>
            <ns3:atemp>25.0</ns3:atemp>
          </ns3:TrackPointExtension>
        </extensions>
      </trkpt>
      <trkpt lat="42.524587623775005340576171875" lon="19.761597029864788055419921875">
        <ele>1758</ele>
        <time>2026-06-18T09:01:23.000Z</time>
        <extensions>
          <ns3:TrackPointExtension>
            <ns3:atemp>25.0</ns3:atemp>
          </ns3:TrackPointExtension>
        </extensions>
      </trkpt>
      <trkpt lat="42.524585612118244171142578125" lon="19.76161538623273372650146484375">
        <ele>1758.4000244140625</ele>
        <time>2026-06-18T09:01:24.000Z</time>
        <extensions>
          <ns3:TrackPointExtension>
            <ns3:atemp>25.0</ns3:atemp>
          </ns3:TrackPointExtension>
        </extensions>
      </trkpt>
      <trkpt lat="42.52458728849887847900390625" lon="19.76162997074425220489501953125">
        <ele>1758.800048828125</ele>
        <time>2026-06-18T09:01:25.000Z</time>
        <extensions>
          <ns3:TrackPointExtension>
            <ns3:atemp>25.0</ns3:atemp>
          </ns3:TrackPointExtension>
        </extensions>
      </trkpt>
      <trkpt lat="42.524580247700214385986328125" lon="19.761654026806354522705078125">
        <ele>1759.199951171875</ele>
        <time>2026-06-18T09:01:26.000Z</time>
        <extensions>
          <ns3:TrackPointExtension>
            <ns3:atemp>25.0</ns3:atemp>
          </ns3:TrackPointExtension>
        </extensions>
      </trkpt>
      <trkpt lat="42.5245716981589794158935546875" lon="19.76167908869683742523193359375">
        <ele>1759.5999755859375</ele>
        <time>2026-06-18T09:01:27.000Z</time>
        <extensions>
          <ns3:TrackPointExtension>
            <ns3:atemp>25.0</ns3:atemp>
          </ns3:TrackPointExtension>
        </extensions>
      </trkpt>
      <trkpt lat="42.5245673395693302154541015625" lon="19.76170373149216175079345703125">
        <ele>1760</ele>
        <time>2026-06-18T09:01:28.000Z</time>
        <extensions>
          <ns3:TrackPointExtension>
            <ns3:atemp>25.0</ns3:atemp>
          </ns3:TrackPointExtension>
        </extensions>
      </trkpt>
      <trkpt lat="42.524562813341617584228515625" lon="19.7617287933826446533203125">
        <ele>1760.4000244140625</ele>
        <time>2026-06-18T09:01:29.000Z</time>
        <extensions>
          <ns3:TrackPointExtension>
            <ns3:atemp>25.0</ns3:atemp>
          </ns3:TrackPointExtension>
        </extensions>
      </trkpt>
      <trkpt lat="42.52456055022776126861572265625" lon="19.76175092160701751708984375">
        <ele>1760.800048828125</ele>
        <time>2026-06-18T09:01:30.000Z</time>
        <extensions>
          <ns3:TrackPointExtension>
            <ns3:atemp>25.0</ns3:atemp>
          </ns3:TrackPointExtension>
        </extensions>
      </trkpt>
      <trkpt lat="42.524552084505558013916015625" lon="19.7617718763649463653564453125">
        <ele>1761.199951171875</ele>
        <time>2026-06-18T09:01:31.000Z</time>
        <extensions>
          <ns3:TrackPointExtension>
            <ns3:atemp>25.0</ns3:atemp>
          </ns3:TrackPointExtension>
        </extensions>
      </trkpt>
      <trkpt lat="42.52454831264913082122802734375" lon="19.761794507503509521484375">
        <ele>1761.5999755859375</ele>
        <time>2026-06-18T09:01:32.000Z</time>
        <extensions>
          <ns3:TrackPointExtension>
            <ns3:atemp>25.0</ns3:atemp>
          </ns3:TrackPointExtension>
        </extensions>
      </trkpt>
      <trkpt lat="42.52454563044011592864990234375" lon="19.76181906647980213165283203125">
        <ele>1762.199951171875</ele>
        <time>2026-06-18T09:01:33.000Z</time>
        <extensions>
          <ns3:TrackPointExtension>
            <ns3:atemp>25.0</ns3:atemp>
          </ns3:TrackPointExtension>
        </extensions>
      </trkpt>
      <trkpt lat="42.52454244531691074371337890625" lon="19.761842787265777587890625">
        <ele>1762.5999755859375</ele>
        <time>2026-06-18T09:01:34.000Z</time>
        <extensions>
          <ns3:TrackPointExtension>
            <ns3:atemp>25.0</ns3:atemp>
          </ns3:TrackPointExtension>
        </extensions>
      </trkpt>
      <trkpt lat="42.5245398469269275665283203125" lon="19.761864580214023590087890625">
        <ele>1763</ele>
        <time>2026-06-18T09:01:35.000Z</time>
        <extensions>
          <ns3:TrackPointExtension>
            <ns3:atemp>25.0</ns3:atemp>
          </ns3:TrackPointExtension>
        </extensions>
      </trkpt>
      <trkpt lat="42.5245388410985469818115234375" lon="19.76188997738063335418701171875">
        <ele>1763.4000244140625</ele>
        <time>2026-06-18T09:01:36.000Z</time>
        <extensions>
          <ns3:TrackPointExtension>
            <ns3:atemp>25.0</ns3:atemp>
          </ns3:TrackPointExtension>
        </extensions>
      </trkpt>
      <trkpt lat="42.5245418585836887359619140625" lon="19.76191411726176738739013671875">
        <ele>1763.800048828125</ele>
        <time>2026-06-18T09:01:37.000Z</time>
        <extensions>
          <ns3:TrackPointExtension>
            <ns3:atemp>25.0</ns3:atemp>
          </ns3:TrackPointExtension>
        </extensions>
      </trkpt>
      <trkpt lat="42.52454303205013275146484375" lon="19.76194110698997974395751953125">
        <ele>1764.4000244140625</ele>
        <time>2026-06-18T09:01:38.000Z</time>
        <extensions>
          <ns3:TrackPointExtension>
            <ns3:atemp>25.0</ns3:atemp>
          </ns3:TrackPointExtension>
        </extensions>
      </trkpt>
      <trkpt lat="42.5245458818972110748291015625" lon="19.761964492499828338623046875">
        <ele>1764.800048828125</ele>
        <time>2026-06-18T09:01:39.000Z</time>
        <extensions>
          <ns3:TrackPointExtension>
            <ns3:atemp>25.0</ns3:atemp>
          </ns3:TrackPointExtension>
        </extensions>
      </trkpt>
      <trkpt lat="42.52455015666782855987548828125" lon="19.761987291276454925537109375">
        <ele>1765.199951171875</ele>
        <time>2026-06-18T09:01:40.000Z</time>
        <extensions>
          <ns3:TrackPointExtension>
            <ns3:atemp>25.0</ns3:atemp>
          </ns3:TrackPointExtension>
        </extensions>
      </trkpt>
      <trkpt lat="42.52455099485814571380615234375" lon="19.7620149515569210052490234375">
        <ele>1765.800048828125</ele>
        <time>2026-06-18T09:01:41.000Z</time>
        <extensions>
          <ns3:TrackPointExtension>
            <ns3:atemp>25.0</ns3:atemp>
          </ns3:TrackPointExtension>
        </extensions>
      </trkpt>
      <trkpt lat="42.52454143948853015899658203125" lon="19.76203498430550098419189453125">
        <ele>1766.199951171875</ele>
        <time>2026-06-18T09:01:42.000Z</time>
        <extensions>
          <ns3:TrackPointExtension>
            <ns3:atemp>25.0</ns3:atemp>
          </ns3:TrackPointExtension>
        </extensions>
      </trkpt>
      <trkpt lat="42.52452601678669452667236328125" lon="19.76204621605575084686279296875">
        <ele>1766.5999755859375</ele>
        <time>2026-06-18T09:01:43.000Z</time>
        <extensions>
          <ns3:TrackPointExtension>
            <ns3:atemp>25.0</ns3:atemp>
          </ns3:TrackPointExtension>
        </extensions>
      </trkpt>
      <trkpt lat="42.5245150364935398101806640625" lon="19.762038923799991607666015625">
        <ele>1766.800048828125</ele>
        <time>2026-06-18T09:01:44.000Z</time>
        <extensions>
          <ns3:TrackPointExtension>
            <ns3:atemp>25.0</ns3:atemp>
          </ns3:TrackPointExtension>
        </extensions>
      </trkpt>
      <trkpt lat="42.524509839713573455810546875" lon="19.7620240040123462677001953125">
        <ele>1767</ele>
        <time>2026-06-18T09:01:45.000Z</time>
        <extensions>
          <ns3:TrackPointExtension>
            <ns3:atemp>25.0</ns3:atemp>
          </ns3:TrackPointExtension>
        </extensions>
      </trkpt>
      <trkpt lat="42.5245046429336071014404296875" lon="19.7620077431201934814453125">
        <ele>1767.199951171875</ele>
        <time>2026-06-18T09:01:46.000Z</time>
        <extensions>
          <ns3:TrackPointExtension>
            <ns3:atemp>25.0</ns3:atemp>
          </ns3:TrackPointExtension>
        </extensions>
      </trkpt>
      <trkpt lat="42.5245006196200847625732421875" lon="19.7619874589145183563232421875">
        <ele>1767.199951171875</ele>
        <time>2026-06-18T09:01:47.000Z</time>
        <extensions>
          <ns3:TrackPointExtension>
            <ns3:atemp>24.0</ns3:atemp>
          </ns3:TrackPointExtension>
        </extensions>
      </trkpt>
      <trkpt lat="42.52449416555464267730712890625" lon="19.7619626484811305999755859375">
        <ele>1767.4000244140625</ele>
        <time>2026-06-18T09:01:48.000Z</time>
        <extensions>
          <ns3:TrackPointExtension>
            <ns3:atemp>24.0</ns3:atemp>
          </ns3:TrackPointExtension>
        </extensions>
      </trkpt>
      <trkpt lat="42.524485699832439422607421875" lon="19.76194026879966259002685546875">
        <ele>1767.5999755859375</ele>
        <time>2026-06-18T09:01:49.000Z</time>
        <extensions>
          <ns3:TrackPointExtension>
            <ns3:atemp>24.0</ns3:atemp>
          </ns3:TrackPointExtension>
        </extensions>
      </trkpt>
      <trkpt lat="42.5244779884815216064453125" lon="19.76192082278430461883544921875">
        <ele>1767.800048828125</ele>
        <time>2026-06-18T09:01:50.000Z</time>
        <extensions>
          <ns3:TrackPointExtension>
            <ns3:atemp>24.0</ns3:atemp>
          </ns3:TrackPointExtension>
        </extensions>
      </trkpt>
      <trkpt lat="42.52447170205414295196533203125" lon="19.7618977725505828857421875">
        <ele>1768</ele>
        <time>2026-06-18T09:01:51.000Z</time>
        <extensions>
          <ns3:TrackPointExtension>
            <ns3:atemp>24.0</ns3:atemp>
          </ns3:TrackPointExtension>
        </extensions>
      </trkpt>
      <trkpt lat="42.5244623981416225433349609375" lon="19.761879332363605499267578125">
        <ele>1768.199951171875</ele>
        <time>2026-06-18T09:01:52.000Z</time>
        <extensions>
          <ns3:TrackPointExtension>
            <ns3:atemp>24.0</ns3:atemp>
          </ns3:TrackPointExtension>
        </extensions>
      </trkpt>
      <trkpt lat="42.52445192076265811920166015625" lon="19.761860556900501251220703125">
        <ele>1768.5999755859375</ele>
        <time>2026-06-18T09:01:53.000Z</time>
        <extensions>
          <ns3:TrackPointExtension>
            <ns3:atemp>24.0</ns3:atemp>
          </ns3:TrackPointExtension>
        </extensions>
      </trkpt>
      <trkpt lat="42.52444135956466197967529296875" lon="19.76184287108480930328369140625">
        <ele>1768.800048828125</ele>
        <time>2026-06-18T09:01:54.000Z</time>
        <extensions>
          <ns3:TrackPointExtension>
            <ns3:atemp>24.0</ns3:atemp>
          </ns3:TrackPointExtension>
        </extensions>
      </trkpt>
      <trkpt lat="42.5244335643947124481201171875" lon="19.76182342506945133209228515625">
        <ele>1769.199951171875</ele>
        <time>2026-06-18T09:01:55.000Z</time>
        <extensions>
          <ns3:TrackPointExtension>
            <ns3:atemp>24.0</ns3:atemp>
          </ns3:TrackPointExtension>
        </extensions>
      </trkpt>
      <trkpt lat="42.524425350129604339599609375" lon="19.76180129684507846832275390625">
        <ele>1769.4000244140625</ele>
        <time>2026-06-18T09:01:56.000Z</time>
        <extensions>
          <ns3:TrackPointExtension>
            <ns3:atemp>24.0</ns3:atemp>
          </ns3:TrackPointExtension>
        </extensions>
      </trkpt>
      <trkpt lat="42.5244157947599887847900390625" lon="19.76178335957229137420654296875">
        <ele>1769.5999755859375</ele>
        <time>2026-06-18T09:01:57.000Z</time>
        <extensions>
          <ns3:TrackPointExtension>
            <ns3:atemp>24.0</ns3:atemp>
          </ns3:TrackPointExtension>
        </extensions>
      </trkpt>
      <trkpt lat="42.52441017888486385345458984375" lon="19.76176290772855281829833984375">
        <ele>1770</ele>
        <time>2026-06-18T09:01:58.000Z</time>
        <extensions>
          <ns3:TrackPointExtension>
            <ns3:atemp>24.0</ns3:atemp>
          </ns3:TrackPointExtension>
        </extensions>
      </trkpt>
      <trkpt lat="42.52440213225781917572021484375" lon="19.7617460601031780242919921875">
        <ele>1770.4000244140625</ele>
        <time>2026-06-18T09:01:59.000Z</time>
        <extensions>
          <ns3:TrackPointExtension>
            <ns3:atemp>24.0</ns3:atemp>
          </ns3:TrackPointExtension>
        </extensions>
      </trkpt>
      <trkpt lat="42.5243913196027278900146484375" lon="19.761731810867786407470703125">
        <ele>1770.5999755859375</ele>
        <time>2026-06-18T09:02:00.000Z</time>
        <extensions>
          <ns3:TrackPointExtension>
            <ns3:atemp>24.0</ns3:atemp>
          </ns3:TrackPointExtension>
        </extensions>
      </trkpt>
      <trkpt lat="42.52438302151858806610107421875" lon="19.7617115266621112823486328125">
        <ele>1770.800048828125</ele>
        <time>2026-06-18T09:02:01.000Z</time>
        <extensions>
          <ns3:TrackPointExtension>
            <ns3:atemp>24.0</ns3:atemp>
          </ns3:TrackPointExtension>
        </extensions>
      </trkpt>
      <trkpt lat="42.52437329851090908050537109375" lon="19.76169459521770477294921875">
        <ele>1771</ele>
        <time>2026-06-18T09:02:02.000Z</time>
        <extensions>
          <ns3:TrackPointExtension>
            <ns3:atemp>24.0</ns3:atemp>
          </ns3:TrackPointExtension>
        </extensions>
      </trkpt>
      <trkpt lat="42.52436357550323009490966796875" lon="19.76168126799166202545166015625">
        <ele>1771.199951171875</ele>
        <time>2026-06-18T09:02:03.000Z</time>
        <extensions>
          <ns3:TrackPointExtension>
            <ns3:atemp>24.0</ns3:atemp>
          </ns3:TrackPointExtension>
        </extensions>
      </trkpt>
      <trkpt lat="42.52435234375298023223876953125" lon="19.76167322136461734771728515625">
        <ele>1771.4000244140625</ele>
        <time>2026-06-18T09:02:04.000Z</time>
        <extensions>
          <ns3:TrackPointExtension>
            <ns3:atemp>24.0</ns3:atemp>
          </ns3:TrackPointExtension>
        </extensions>
      </trkpt>
      <trkpt lat="42.52433708868920803070068359375" lon="19.76166735403239727020263671875">
        <ele>1771.800048828125</ele>
        <time>2026-06-18T09:02:05.000Z</time>
        <extensions>
          <ns3:TrackPointExtension>
            <ns3:atemp>24.0</ns3:atemp>
          </ns3:TrackPointExtension>
        </extensions>
      </trkpt>
      <trkpt lat="42.52432384528219699859619140625" lon="19.761654697358608245849609375">
        <ele>1772</ele>
        <time>2026-06-18T09:02:06.000Z</time>
        <extensions>
          <ns3:TrackPointExtension>
            <ns3:atemp>24.0</ns3:atemp>
          </ns3:TrackPointExtension>
        </extensions>
      </trkpt>
      <trkpt lat="42.524308003485202789306640625" lon="19.7616434656083583831787109375">
        <ele>1772.4000244140625</ele>
        <time>2026-06-18T09:02:07.000Z</time>
        <extensions>
          <ns3:TrackPointExtension>
            <ns3:atemp>24.0</ns3:atemp>
          </ns3:TrackPointExtension>
        </extensions>
      </trkpt>
      <trkpt lat="42.52429450862109661102294921875" lon="19.76163667626678943634033203125">
        <ele>1772.800048828125</ele>
        <time>2026-06-18T09:02:08.000Z</time>
        <extensions>
          <ns3:TrackPointExtension>
            <ns3:atemp>24.0</ns3:atemp>
          </ns3:TrackPointExtension>
        </extensions>
      </trkpt>
      <trkpt lat="42.52427841536700725555419921875" lon="19.76162879727780818939208984375">
        <ele>1773.199951171875</ele>
        <time>2026-06-18T09:02:09.000Z</time>
        <extensions>
          <ns3:TrackPointExtension>
            <ns3:atemp>24.0</ns3:atemp>
          </ns3:TrackPointExtension>
        </extensions>
      </trkpt>
      <trkpt lat="42.52426148392260074615478515625" lon="19.7616210021078586578369140625">
        <ele>1773.4000244140625</ele>
        <time>2026-06-18T09:02:10.000Z</time>
        <extensions>
          <ns3:TrackPointExtension>
            <ns3:atemp>24.0</ns3:atemp>
          </ns3:TrackPointExtension>
        </extensions>
      </trkpt>
      <trkpt lat="42.5242461450397968292236328125" lon="19.7616116143763065338134765625">
        <ele>1773.5999755859375</ele>
        <time>2026-06-18T09:02:11.000Z</time>
        <extensions>
          <ns3:TrackPointExtension>
            <ns3:atemp>24.0</ns3:atemp>
          </ns3:TrackPointExtension>
        </extensions>
      </trkpt>
      <trkpt lat="42.52423055469989776611328125" lon="19.7616015560925006866455078125">
        <ele>1773.800048828125</ele>
        <time>2026-06-18T09:02:12.000Z</time>
        <extensions>
          <ns3:TrackPointExtension>
            <ns3:atemp>24.0</ns3:atemp>
          </ns3:TrackPointExtension>
        </extensions>
      </trkpt>
      <trkpt lat="42.5242159701883792877197265625" lon="19.761593677103519439697265625">
        <ele>1774</ele>
        <time>2026-06-18T09:02:13.000Z</time>
        <extensions>
          <ns3:TrackPointExtension>
            <ns3:atemp>24.0</ns3:atemp>
          </ns3:TrackPointExtension>
        </extensions>
      </trkpt>
      <trkpt lat="42.524202056229114532470703125" lon="19.76158638484776020050048828125">
        <ele>1774.199951171875</ele>
        <time>2026-06-18T09:02:14.000Z</time>
        <extensions>
          <ns3:TrackPointExtension>
            <ns3:atemp>24.0</ns3:atemp>
          </ns3:TrackPointExtension>
        </extensions>
      </trkpt>
      <trkpt lat="42.524186633527278900146484375" lon="19.76157917641103267669677734375">
        <ele>1774.199951171875</ele>
        <time>2026-06-18T09:02:15.000Z</time>
        <extensions>
          <ns3:TrackPointExtension>
            <ns3:atemp>24.0</ns3:atemp>
          </ns3:TrackPointExtension>
        </extensions>
      </trkpt>
      <trkpt lat="42.5241723842918872833251953125" lon="19.76157230325043201446533203125">
        <ele>1774.4000244140625</ele>
        <time>2026-06-18T09:02:16.000Z</time>
        <extensions>
          <ns3:TrackPointExtension>
            <ns3:atemp>24.0</ns3:atemp>
          </ns3:TrackPointExtension>
        </extensions>
      </trkpt>
      <trkpt lat="42.5241606496274471282958984375" lon="19.761562831699848175048828125">
        <ele>1774.5999755859375</ele>
        <time>2026-06-18T09:02:17.000Z</time>
        <extensions>
          <ns3:TrackPointExtension>
            <ns3:atemp>24.0</ns3:atemp>
          </ns3:TrackPointExtension>
        </extensions>
      </trkpt>
      <trkpt lat="42.5241469033062458038330078125" lon="19.761553108692169189453125">
        <ele>1774.800048828125</ele>
        <time>2026-06-18T09:02:18.000Z</time>
        <extensions>
          <ns3:TrackPointExtension>
            <ns3:atemp>24.0</ns3:atemp>
          </ns3:TrackPointExtension>
        </extensions>
      </trkpt>
      <trkpt lat="42.52413290552794933319091796875" lon="19.76154447533190250396728515625">
        <ele>1775</ele>
        <time>2026-06-18T09:02:19.000Z</time>
        <extensions>
          <ns3:TrackPointExtension>
            <ns3:atemp>24.0</ns3:atemp>
          </ns3:TrackPointExtension>
        </extensions>
      </trkpt>
      <trkpt lat="42.52411966212093830108642578125" lon="19.76153776980936527252197265625">
        <ele>1775.199951171875</ele>
        <time>2026-06-18T09:02:20.000Z</time>
        <extensions>
          <ns3:TrackPointExtension>
            <ns3:atemp>24.0</ns3:atemp>
          </ns3:TrackPointExtension>
        </extensions>
      </trkpt>
      <trkpt lat="42.524106502532958984375" lon="19.7615294717252254486083984375">
        <ele>1775.4000244140625</ele>
        <time>2026-06-18T09:02:21.000Z</time>
        <extensions>
          <ns3:TrackPointExtension>
            <ns3:atemp>24.0</ns3:atemp>
          </ns3:TrackPointExtension>
        </extensions>
      </trkpt>
      <trkpt lat="42.52409367822110652923583984375" lon="19.76152352057397365570068359375">
        <ele>1775.5999755859375</ele>
        <time>2026-06-18T09:02:22.000Z</time>
        <extensions>
          <ns3:TrackPointExtension>
            <ns3:atemp>24.0</ns3:atemp>
          </ns3:TrackPointExtension>
        </extensions>
      </trkpt>
      <trkpt lat="42.52408093772828578948974609375" lon="19.76151815615594387054443359375">
        <ele>1776</ele>
        <time>2026-06-18T09:02:23.000Z</time>
        <extensions>
          <ns3:TrackPointExtension>
            <ns3:atemp>24.0</ns3:atemp>
          </ns3:TrackPointExtension>
        </extensions>
      </trkpt>
      <trkpt lat="42.524065934121608734130859375" lon="19.76150994189083576202392578125">
        <ele>1776.199951171875</ele>
        <time>2026-06-18T09:02:24.000Z</time>
        <extensions>
          <ns3:TrackPointExtension>
            <ns3:atemp>24.0</ns3:atemp>
          </ns3:TrackPointExtension>
        </extensions>
      </trkpt>
      <trkpt lat="42.5240526907145977020263671875" lon="19.76150256581604480743408203125">
        <ele>1776.4000244140625</ele>
        <time>2026-06-18T09:02:25.000Z</time>
        <extensions>
          <ns3:TrackPointExtension>
            <ns3:atemp>24.0</ns3:atemp>
          </ns3:TrackPointExtension>
        </extensions>
      </trkpt>
      <trkpt lat="42.52403886057436466217041015625" lon="19.761493094265460968017578125">
        <ele>1776.5999755859375</ele>
        <time>2026-06-18T09:02:26.000Z</time>
        <extensions>
          <ns3:TrackPointExtension>
            <ns3:atemp>24.0</ns3:atemp>
          </ns3:TrackPointExtension>
        </extensions>
      </trkpt>
      <trkpt lat="42.5240251980721950531005859375" lon="19.7614885680377483367919921875">
        <ele>1776.800048828125</ele>
        <time>2026-06-18T09:02:27.000Z</time>
        <extensions>
          <ns3:TrackPointExtension>
            <ns3:atemp>24.0</ns3:atemp>
          </ns3:TrackPointExtension>
        </extensions>
      </trkpt>
      <trkpt lat="42.524012625217437744140625" lon="19.7614868916571140289306640625">
        <ele>1777.199951171875</ele>
        <time>2026-06-18T09:02:28.000Z</time>
        <extensions>
          <ns3:TrackPointExtension>
            <ns3:atemp>24.0</ns3:atemp>
          </ns3:TrackPointExtension>
        </extensions>
      </trkpt>
      <trkpt lat="42.52400256693363189697265625" lon="19.761479012668132781982421875">
        <ele>1777.5999755859375</ele>
        <time>2026-06-18T09:02:29.000Z</time>
        <extensions>
          <ns3:TrackPointExtension>
            <ns3:atemp>24.0</ns3:atemp>
          </ns3:TrackPointExtension>
        </extensions>
      </trkpt>
      <trkpt lat="42.52399192191660404205322265625" lon="19.7614753246307373046875">
        <ele>1777.800048828125</ele>
        <time>2026-06-18T09:02:30.000Z</time>
        <extensions>
          <ns3:TrackPointExtension>
            <ns3:atemp>24.0</ns3:atemp>
          </ns3:TrackPointExtension>
        </extensions>
      </trkpt>
      <trkpt lat="42.52397918142378330230712890625" lon="19.76147742010653018951416015625">
        <ele>1778.199951171875</ele>
        <time>2026-06-18T09:02:31.000Z</time>
        <extensions>
          <ns3:TrackPointExtension>
            <ns3:atemp>24.0</ns3:atemp>
          </ns3:TrackPointExtension>
        </extensions>
      </trkpt>
      <trkpt lat="42.52396292053163051605224609375" lon="19.76147733628749847412109375">
        <ele>1778.800048828125</ele>
        <time>2026-06-18T09:02:32.000Z</time>
        <extensions>
          <ns3:TrackPointExtension>
            <ns3:atemp>24.0</ns3:atemp>
          </ns3:TrackPointExtension>
        </extensions>
      </trkpt>
      <trkpt lat="42.52394682727754116058349609375" lon="19.76147540844976902008056640625">
        <ele>1779.199951171875</ele>
        <time>2026-06-18T09:02:33.000Z</time>
        <extensions>
          <ns3:TrackPointExtension>
            <ns3:atemp>24.0</ns3:atemp>
          </ns3:TrackPointExtension>
        </extensions>
      </trkpt>
      <trkpt lat="42.52393241040408611297607421875" lon="19.76147440262138843536376953125">
        <ele>1779.800048828125</ele>
        <time>2026-06-18T09:02:34.000Z</time>
        <extensions>
          <ns3:TrackPointExtension>
            <ns3:atemp>24.0</ns3:atemp>
          </ns3:TrackPointExtension>
        </extensions>
      </trkpt>
      <trkpt lat="42.523921094834804534912109375" lon="19.76147406734526157379150390625">
        <ele>1780.199951171875</ele>
        <time>2026-06-18T09:02:35.000Z</time>
        <extensions>
          <ns3:TrackPointExtension>
            <ns3:atemp>24.0</ns3:atemp>
          </ns3:TrackPointExtension>
        </extensions>
      </trkpt>
      <trkpt lat="42.523905336856842041015625" lon="19.7614771686494350433349609375">
        <ele>1780.5999755859375</ele>
        <time>2026-06-18T09:02:36.000Z</time>
        <extensions>
          <ns3:TrackPointExtension>
            <ns3:atemp>24.0</ns3:atemp>
          </ns3:TrackPointExtension>
        </extensions>
      </trkpt>
      <trkpt lat="42.52388999797403812408447265625" lon="19.7614832036197185516357421875">
        <ele>1781</ele>
        <time>2026-06-18T09:02:37.000Z</time>
        <extensions>
          <ns3:TrackPointExtension>
            <ns3:atemp>24.0</ns3:atemp>
          </ns3:TrackPointExtension>
        </extensions>
      </trkpt>
      <trkpt lat="42.5238793529570102691650390625" lon="19.76149099878966808319091796875">
        <ele>1781.4000244140625</ele>
        <time>2026-06-18T09:02:38.000Z</time>
        <extensions>
          <ns3:TrackPointExtension>
            <ns3:atemp>24.0</ns3:atemp>
          </ns3:TrackPointExtension>
        </extensions>
      </trkpt>
      <trkpt lat="42.52386786974966526031494140625" lon="19.7614972852170467376708984375">
        <ele>1781.800048828125</ele>
        <time>2026-06-18T09:02:39.000Z</time>
        <extensions>
          <ns3:TrackPointExtension>
            <ns3:atemp>24.0</ns3:atemp>
          </ns3:TrackPointExtension>
        </extensions>
      </trkpt>
      <trkpt lat="42.52385797910392284393310546875" lon="19.76150843314826488494873046875">
        <ele>1782</ele>
        <time>2026-06-18T09:02:40.000Z</time>
        <extensions>
          <ns3:TrackPointExtension>
            <ns3:atemp>24.0</ns3:atemp>
          </ns3:TrackPointExtension>
        </extensions>
      </trkpt>
      <trkpt lat="42.52384406514465808868408203125" lon="19.76151815615594387054443359375">
        <ele>1782.4000244140625</ele>
        <time>2026-06-18T09:02:41.000Z</time>
        <extensions>
          <ns3:TrackPointExtension>
            <ns3:atemp>24.0</ns3:atemp>
          </ns3:TrackPointExtension>
        </extensions>
      </trkpt>
      <trkpt lat="42.5238330848515033721923828125" lon="19.76152804680168628692626953125">
        <ele>1782.800048828125</ele>
        <time>2026-06-18T09:02:42.000Z</time>
        <extensions>
          <ns3:TrackPointExtension>
            <ns3:atemp>24.0</ns3:atemp>
          </ns3:TrackPointExtension>
        </extensions>
      </trkpt>
      <trkpt lat="42.52382143400609493255615234375" lon="19.7615391947329044342041015625">
        <ele>1783</ele>
        <time>2026-06-18T09:02:43.000Z</time>
        <extensions>
          <ns3:TrackPointExtension>
            <ns3:atemp>24.0</ns3:atemp>
          </ns3:TrackPointExtension>
        </extensions>
      </trkpt>
      <trkpt lat="42.52380701713263988494873046875" lon="19.76154573261737823486328125">
        <ele>1783.4000244140625</ele>
        <time>2026-06-18T09:02:44.000Z</time>
        <extensions>
          <ns3:TrackPointExtension>
            <ns3:atemp>24.0</ns3:atemp>
          </ns3:TrackPointExtension>
        </extensions>
      </trkpt>
      <trkpt lat="42.523791678249835968017578125" lon="19.76155302487313747406005859375">
        <ele>1783.800048828125</ele>
        <time>2026-06-18T09:02:45.000Z</time>
        <extensions>
          <ns3:TrackPointExtension>
            <ns3:atemp>24.0</ns3:atemp>
          </ns3:TrackPointExtension>
        </extensions>
      </trkpt>
      <trkpt lat="42.52377784810960292816162109375" lon="19.7615651786327362060546875">
        <ele>1784.199951171875</ele>
        <time>2026-06-18T09:02:46.000Z</time>
        <extensions>
          <ns3:TrackPointExtension>
            <ns3:atemp>24.0</ns3:atemp>
          </ns3:TrackPointExtension>
        </extensions>
      </trkpt>
      <trkpt lat="42.52376711927354335784912109375" lon="19.76158252917230129241943359375">
        <ele>1784.5999755859375</ele>
        <time>2026-06-18T09:02:47.000Z</time>
        <extensions>
          <ns3:TrackPointExtension>
            <ns3:atemp>24.0</ns3:atemp>
          </ns3:TrackPointExtension>
        </extensions>
      </trkpt>
      <trkpt lat="42.52374934963881969451904296875" lon="19.7615961916744709014892578125">
        <ele>1785</ele>
        <time>2026-06-18T09:02:48.000Z</time>
        <extensions>
          <ns3:TrackPointExtension>
            <ns3:atemp>24.0</ns3:atemp>
          </ns3:TrackPointExtension>
        </extensions>
      </trkpt>
      <trkpt lat="42.52373459748923778533935546875" lon="19.76161002181470394134521484375">
        <ele>1785.4000244140625</ele>
        <time>2026-06-18T09:02:49.000Z</time>
        <extensions>
          <ns3:TrackPointExtension>
            <ns3:atemp>24.0</ns3:atemp>
          </ns3:TrackPointExtension>
        </extensions>
      </trkpt>
      <trkpt lat="42.5237194262444972991943359375" lon="19.7616267018020153045654296875">
        <ele>1785.800048828125</ele>
        <time>2026-06-18T09:02:50.000Z</time>
        <extensions>
          <ns3:TrackPointExtension>
            <ns3:atemp>24.0</ns3:atemp>
          </ns3:TrackPointExtension>
        </extensions>
      </trkpt>
      <trkpt lat="42.52370727248489856719970703125" lon="19.76163952611386775970458984375">
        <ele>1786</ele>
        <time>2026-06-18T09:02:51.000Z</time>
        <extensions>
          <ns3:TrackPointExtension>
            <ns3:atemp>24.0</ns3:atemp>
          </ns3:TrackPointExtension>
        </extensions>
      </trkpt>
      <trkpt lat="42.5236996449530124664306640625" lon="19.76166106760501861572265625">
        <ele>1786.5999755859375</ele>
        <time>2026-06-18T09:02:52.000Z</time>
        <extensions>
          <ns3:TrackPointExtension>
            <ns3:atemp>24.0</ns3:atemp>
          </ns3:TrackPointExtension>
        </extensions>
      </trkpt>
      <trkpt lat="42.52369352616369724273681640625" lon="19.76168294437229633331298828125">
        <ele>1786.800048828125</ele>
        <time>2026-06-18T09:02:53.000Z</time>
        <extensions>
          <ns3:TrackPointExtension>
            <ns3:atemp>24.0</ns3:atemp>
          </ns3:TrackPointExtension>
        </extensions>
      </trkpt>
      <trkpt lat="42.5236946158111095428466796875" lon="19.7617068327963352203369140625">
        <ele>1787.199951171875</ele>
        <time>2026-06-18T09:02:54.000Z</time>
        <extensions>
          <ns3:TrackPointExtension>
            <ns3:atemp>24.0</ns3:atemp>
          </ns3:TrackPointExtension>
        </extensions>
      </trkpt>
      <trkpt lat="42.52368816174566745758056640625" lon="19.7617319785058498382568359375">
        <ele>1787.5999755859375</ele>
        <time>2026-06-18T09:02:55.000Z</time>
        <extensions>
          <ns3:TrackPointExtension>
            <ns3:atemp>24.0</ns3:atemp>
          </ns3:TrackPointExtension>
        </extensions>
      </trkpt>
      <trkpt lat="42.52368397079408168792724609375" lon="19.76175385527312755584716796875">
        <ele>1787.800048828125</ele>
        <time>2026-06-18T09:02:56.000Z</time>
        <extensions>
          <ns3:TrackPointExtension>
            <ns3:atemp>24.0</ns3:atemp>
          </ns3:TrackPointExtension>
        </extensions>
      </trkpt>
      <trkpt lat="42.52367726527154445648193359375" lon="19.7617765702307224273681640625">
        <ele>1788.199951171875</ele>
        <time>2026-06-18T09:02:57.000Z</time>
        <extensions>
          <ns3:TrackPointExtension>
            <ns3:atemp>24.0</ns3:atemp>
          </ns3:TrackPointExtension>
        </extensions>
      </trkpt>
      <trkpt lat="42.52366821281611919403076171875" lon="19.7618038952350616455078125">
        <ele>1788.4000244140625</ele>
        <time>2026-06-18T09:02:58.000Z</time>
        <extensions>
          <ns3:TrackPointExtension>
            <ns3:atemp>24.0</ns3:atemp>
          </ns3:TrackPointExtension>
        </extensions>
      </trkpt>
      <trkpt lat="42.52366066910326480865478515625" lon="19.761832393705844879150390625">
        <ele>1788.800048828125</ele>
        <time>2026-06-18T09:02:59.000Z</time>
        <extensions>
          <ns3:TrackPointExtension>
            <ns3:atemp>24.0</ns3:atemp>
          </ns3:TrackPointExtension>
        </extensions>
      </trkpt>
      <trkpt lat="42.523658238351345062255859375" lon="19.761857874691486358642578125">
        <ele>1789</ele>
        <time>2026-06-18T09:03:00.000Z</time>
        <extensions>
          <ns3:TrackPointExtension>
            <ns3:atemp>24.0</ns3:atemp>
          </ns3:TrackPointExtension>
        </extensions>
      </trkpt>
      <trkpt lat="42.52366100437939167022705078125" lon="19.761884696781635284423828125">
        <ele>1789.199951171875</ele>
        <time>2026-06-18T09:03:01.000Z</time>
        <extensions>
          <ns3:TrackPointExtension>
            <ns3:atemp>24.0</ns3:atemp>
          </ns3:TrackPointExtension>
        </extensions>
      </trkpt>
      <trkpt lat="42.5236570648849010467529296875" lon="19.76191026158630847930908203125">
        <ele>1789.199951171875</ele>
        <time>2026-06-18T09:03:02.000Z</time>
        <extensions>
          <ns3:TrackPointExtension>
            <ns3:atemp>24.0</ns3:atemp>
          </ns3:TrackPointExtension>
        </extensions>
      </trkpt>
      <trkpt lat="42.523653209209442138671875" lon="19.761932305991649627685546875">
        <ele>1789.4000244140625</ele>
        <time>2026-06-18T09:03:03.000Z</time>
        <extensions>
          <ns3:TrackPointExtension>
            <ns3:atemp>24.0</ns3:atemp>
          </ns3:TrackPointExtension>
        </extensions>
      </trkpt>
      <trkpt lat="42.5236473418772220611572265625" lon="19.7619606368243694305419921875">
        <ele>1789.5999755859375</ele>
        <time>2026-06-18T09:03:04.000Z</time>
        <extensions>
          <ns3:TrackPointExtension>
            <ns3:atemp>24.0</ns3:atemp>
          </ns3:TrackPointExtension>
        </extensions>
      </trkpt>
      <trkpt lat="42.5236399658024311065673828125" lon="19.76198905147612094879150390625">
        <ele>1789.5999755859375</ele>
        <time>2026-06-18T09:03:05.000Z</time>
        <extensions>
          <ns3:TrackPointExtension>
            <ns3:atemp>24.0</ns3:atemp>
          </ns3:TrackPointExtension>
        </extensions>
      </trkpt>
      <trkpt lat="42.5236339308321475982666015625" lon="19.7620223276317119598388671875">
        <ele>1789.800048828125</ele>
        <time>2026-06-18T09:03:06.000Z</time>
        <extensions>
          <ns3:TrackPointExtension>
            <ns3:atemp>24.0</ns3:atemp>
          </ns3:TrackPointExtension>
        </extensions>
      </trkpt>
      <trkpt lat="42.5236277282238006591796875" lon="19.762055687606334686279296875">
        <ele>1789.800048828125</ele>
        <time>2026-06-18T09:03:07.000Z</time>
        <extensions>
          <ns3:TrackPointExtension>
            <ns3:atemp>24.0</ns3:atemp>
          </ns3:TrackPointExtension>
        </extensions>
      </trkpt>
      <trkpt lat="42.52362328581511974334716796875" lon="19.7620868682861328125">
        <ele>1789.800048828125</ele>
        <time>2026-06-18T09:03:08.000Z</time>
        <extensions>
          <ns3:TrackPointExtension>
            <ns3:atemp>24.0</ns3:atemp>
          </ns3:TrackPointExtension>
        </extensions>
      </trkpt>
      <trkpt lat="42.52361875958740711212158203125" lon="19.7621175460517406463623046875">
        <ele>1790</ele>
        <time>2026-06-18T09:03:09.000Z</time>
        <extensions>
          <ns3:TrackPointExtension>
            <ns3:atemp>24.0</ns3:atemp>
          </ns3:TrackPointExtension>
        </extensions>
      </trkpt>
      <trkpt lat="42.5236107967793941497802734375" lon="19.762143529951572418212890625">
        <ele>1790</ele>
        <time>2026-06-18T09:03:10.000Z</time>
        <extensions>
          <ns3:TrackPointExtension>
            <ns3:atemp>24.0</ns3:atemp>
          </ns3:TrackPointExtension>
        </extensions>
      </trkpt>
      <trkpt lat="42.52360534854233264923095703125" lon="19.76217060349881649017333984375">
        <ele>1790</ele>
        <time>2026-06-18T09:03:11.000Z</time>
        <extensions>
          <ns3:TrackPointExtension>
            <ns3:atemp>24.0</ns3:atemp>
          </ns3:TrackPointExtension>
        </extensions>
      </trkpt>
      <trkpt lat="42.5236054323613643646240234375" lon="19.76220111362636089324951171875">
        <ele>1790.199951171875</ele>
        <time>2026-06-18T09:03:12.000Z</time>
        <extensions>
          <ns3:TrackPointExtension>
            <ns3:atemp>24.0</ns3:atemp>
          </ns3:TrackPointExtension>
        </extensions>
      </trkpt>
      <trkpt lat="42.5236050970852375030517578125" lon="19.7622312046587467193603515625">
        <ele>1790.199951171875</ele>
        <time>2026-06-18T09:03:13.000Z</time>
        <extensions>
          <ns3:TrackPointExtension>
            <ns3:atemp>24.0</ns3:atemp>
          </ns3:TrackPointExtension>
        </extensions>
      </trkpt>
      <trkpt lat="42.523605264723300933837890625" lon="19.7622571885585784912109375">
        <ele>1790.4000244140625</ele>
        <time>2026-06-18T09:03:14.000Z</time>
        <extensions>
          <ns3:TrackPointExtension>
            <ns3:atemp>24.0</ns3:atemp>
          </ns3:TrackPointExtension>
        </extensions>
      </trkpt>
      <trkpt lat="42.52360853366553783416748046875" lon="19.76228476502001285552978515625">
        <ele>1790.5999755859375</ele>
        <time>2026-06-18T09:03:15.000Z</time>
        <extensions>
          <ns3:TrackPointExtension>
            <ns3:atemp>24.0</ns3:atemp>
          </ns3:TrackPointExtension>
        </extensions>
      </trkpt>
      <trkpt lat="42.52360987477004528045654296875" lon="19.76231443695724010467529296875">
        <ele>1790.800048828125</ele>
        <time>2026-06-18T09:03:16.000Z</time>
        <extensions>
          <ns3:TrackPointExtension>
            <ns3:atemp>24.0</ns3:atemp>
          </ns3:TrackPointExtension>
        </extensions>
      </trkpt>
      <trkpt lat="42.52361071296036243438720703125" lon="19.7623405046761035919189453125">
        <ele>1791</ele>
        <time>2026-06-18T09:03:17.000Z</time>
        <extensions>
          <ns3:TrackPointExtension>
            <ns3:atemp>24.0</ns3:atemp>
          </ns3:TrackPointExtension>
        </extensions>
      </trkpt>
      <trkpt lat="42.5236114673316478729248046875" lon="19.76236908696591854095458984375">
        <ele>1791.4000244140625</ele>
        <time>2026-06-18T09:03:18.000Z</time>
        <extensions>
          <ns3:TrackPointExtension>
            <ns3:atemp>24.0</ns3:atemp>
          </ns3:TrackPointExtension>
        </extensions>
      </trkpt>
      <trkpt lat="42.523615658283233642578125" lon="19.76239523850381374359130859375">
        <ele>1791.5999755859375</ele>
        <time>2026-06-18T09:03:19.000Z</time>
        <extensions>
          <ns3:TrackPointExtension>
            <ns3:atemp>24.0</ns3:atemp>
          </ns3:TrackPointExtension>
        </extensions>
      </trkpt>
      <trkpt lat="42.523615993559360504150390625" lon="19.76242423988878726959228515625">
        <ele>1791.800048828125</ele>
        <time>2026-06-18T09:03:20.000Z</time>
        <extensions>
          <ns3:TrackPointExtension>
            <ns3:atemp>24.0</ns3:atemp>
          </ns3:TrackPointExtension>
        </extensions>
      </trkpt>
      <trkpt lat="42.5236195139586925506591796875" lon="19.7624508105218410491943359375">
        <ele>1792.199951171875</ele>
        <time>2026-06-18T09:03:21.000Z</time>
        <extensions>
          <ns3:TrackPointExtension>
            <ns3:atemp>24.0</ns3:atemp>
          </ns3:TrackPointExtension>
        </extensions>
      </trkpt>
      <trkpt lat="42.5236221961677074432373046875" lon="19.76246841251850128173828125">
        <ele>1792.4000244140625</ele>
        <time>2026-06-18T09:03:22.000Z</time>
        <extensions>
          <ns3:TrackPointExtension>
            <ns3:atemp>24.0</ns3:atemp>
          </ns3:TrackPointExtension>
        </extensions>
      </trkpt>
      <trkpt lat="42.52362730912864208221435546875" lon="19.762485511600971221923828125">
        <ele>1792.5999755859375</ele>
        <time>2026-06-18T09:03:23.000Z</time>
        <extensions>
          <ns3:TrackPointExtension>
            <ns3:atemp>24.0</ns3:atemp>
          </ns3:TrackPointExtension>
        </extensions>
      </trkpt>
      <trkpt lat="42.52363434992730617523193359375" lon="19.76250655017793178558349609375">
        <ele>1792.800048828125</ele>
        <time>2026-06-18T09:03:24.000Z</time>
        <extensions>
          <ns3:TrackPointExtension>
            <ns3:atemp>24.0</ns3:atemp>
          </ns3:TrackPointExtension>
        </extensions>
      </trkpt>
      <trkpt lat="42.5236411392688751220703125" lon="19.76252876222133636474609375">
        <ele>1793</ele>
        <time>2026-06-18T09:03:25.000Z</time>
        <extensions>
          <ns3:TrackPointExtension>
            <ns3:atemp>24.0</ns3:atemp>
          </ns3:TrackPointExtension>
        </extensions>
      </trkpt>
      <trkpt lat="42.52364139072597026824951171875" lon="19.76255198009312152862548828125">
        <ele>1793.199951171875</ele>
        <time>2026-06-18T09:03:26.000Z</time>
        <extensions>
          <ns3:TrackPointExtension>
            <ns3:atemp>24.0</ns3:atemp>
          </ns3:TrackPointExtension>
        </extensions>
      </trkpt>
      <trkpt lat="42.52364893443882465362548828125" lon="19.7625705040991306304931640625">
        <ele>1793.4000244140625</ele>
        <time>2026-06-18T09:03:27.000Z</time>
        <extensions>
          <ns3:TrackPointExtension>
            <ns3:atemp>24.0</ns3:atemp>
          </ns3:TrackPointExtension>
        </extensions>
      </trkpt>
      <trkpt lat="42.52365446649491786956787109375" lon="19.76258785463869571685791015625">
        <ele>1793.5999755859375</ele>
        <time>2026-06-18T09:03:28.000Z</time>
        <extensions>
          <ns3:TrackPointExtension>
            <ns3:atemp>24.0</ns3:atemp>
          </ns3:TrackPointExtension>
        </extensions>
      </trkpt>
      <trkpt lat="42.523652873933315277099609375" lon="19.76260730065405368804931640625">
        <ele>1793.800048828125</ele>
        <time>2026-06-18T09:03:29.000Z</time>
        <extensions>
          <ns3:TrackPointExtension>
            <ns3:atemp>24.0</ns3:atemp>
          </ns3:TrackPointExtension>
        </extensions>
      </trkpt>
      <trkpt lat="42.52364910207688808441162109375" lon="19.76262942887842655181884765625">
        <ele>1793.800048828125</ele>
        <time>2026-06-18T09:03:30.000Z</time>
        <extensions>
          <ns3:TrackPointExtension>
            <ns3:atemp>24.0</ns3:atemp>
          </ns3:TrackPointExtension>
        </extensions>
      </trkpt>
      <trkpt lat="42.52364859916269779205322265625" lon="19.7626554965972900390625">
        <ele>1794</ele>
        <time>2026-06-18T09:03:31.000Z</time>
        <extensions>
          <ns3:TrackPointExtension>
            <ns3:atemp>24.0</ns3:atemp>
          </ns3:TrackPointExtension>
        </extensions>
      </trkpt>
      <trkpt lat="42.52364943735301494598388671875" lon="19.76268122904002666473388671875">
        <ele>1794.199951171875</ele>
        <time>2026-06-18T09:03:32.000Z</time>
        <extensions>
          <ns3:TrackPointExtension>
            <ns3:atemp>24.0</ns3:atemp>
          </ns3:TrackPointExtension>
        </extensions>
      </trkpt>
      <trkpt lat="42.5236490182578563690185546875" lon="19.7627069614827632904052734375">
        <ele>1794.4000244140625</ele>
        <time>2026-06-18T09:03:33.000Z</time>
        <extensions>
          <ns3:TrackPointExtension>
            <ns3:atemp>24.0</ns3:atemp>
          </ns3:TrackPointExtension>
        </extensions>
      </trkpt>
      <trkpt lat="42.52365262247622013092041015625" lon="19.76273185573518276214599609375">
        <ele>1794.800048828125</ele>
        <time>2026-06-18T09:03:34.000Z</time>
        <extensions>
          <ns3:TrackPointExtension>
            <ns3:atemp>24.0</ns3:atemp>
          </ns3:TrackPointExtension>
        </extensions>
      </trkpt>
      <trkpt lat="42.5236527062952518463134765625" lon="19.76275674998760223388671875">
        <ele>1795.199951171875</ele>
        <time>2026-06-18T09:03:35.000Z</time>
        <extensions>
          <ns3:TrackPointExtension>
            <ns3:atemp>24.0</ns3:atemp>
          </ns3:TrackPointExtension>
        </extensions>
      </trkpt>
      <trkpt lat="42.523653544485569000244140625" lon="19.76278533227741718292236328125">
        <ele>1795.5999755859375</ele>
        <time>2026-06-18T09:03:36.000Z</time>
        <extensions>
          <ns3:TrackPointExtension>
            <ns3:atemp>24.0</ns3:atemp>
          </ns3:TrackPointExtension>
        </extensions>
      </trkpt>
      <trkpt lat="42.52365279011428356170654296875" lon="19.76281098090112209320068359375">
        <ele>1795.800048828125</ele>
        <time>2026-06-18T09:03:37.000Z</time>
        <extensions>
          <ns3:TrackPointExtension>
            <ns3:atemp>24.0</ns3:atemp>
          </ns3:TrackPointExtension>
        </extensions>
      </trkpt>
      <trkpt lat="42.5236523710191249847412109375" lon="19.76283143274486064910888671875">
        <ele>1796</ele>
        <time>2026-06-18T09:03:38.000Z</time>
        <extensions>
          <ns3:TrackPointExtension>
            <ns3:atemp>24.0</ns3:atemp>
          </ns3:TrackPointExtension>
        </extensions>
      </trkpt>
      <trkpt lat="42.52365262247622013092041015625" lon="19.76285221986472606658935546875">
        <ele>1796.199951171875</ele>
        <time>2026-06-18T09:03:39.000Z</time>
        <extensions>
          <ns3:TrackPointExtension>
            <ns3:atemp>24.0</ns3:atemp>
          </ns3:TrackPointExtension>
        </extensions>
      </trkpt>
      <trkpt lat="42.52365077845752239227294921875" lon="19.76287543773651123046875">
        <ele>1796.5999755859375</ele>
        <time>2026-06-18T09:03:40.000Z</time>
        <extensions>
          <ns3:TrackPointExtension>
            <ns3:atemp>24.0</ns3:atemp>
          </ns3:TrackPointExtension>
        </extensions>
      </trkpt>
      <trkpt lat="42.52364926971495151519775390625" lon="19.7628943808376789093017578125">
        <ele>1796.800048828125</ele>
        <time>2026-06-18T09:03:41.000Z</time>
        <extensions>
          <ns3:TrackPointExtension>
            <ns3:atemp>24.0</ns3:atemp>
          </ns3:TrackPointExtension>
        </extensions>
      </trkpt>
      <trkpt lat="42.5236496888101100921630859375" lon="19.76291424594819545745849609375">
        <ele>1797</ele>
        <time>2026-06-18T09:03:42.000Z</time>
        <extensions>
          <ns3:TrackPointExtension>
            <ns3:atemp>24.0</ns3:atemp>
          </ns3:TrackPointExtension>
        </extensions>
      </trkpt>
      <trkpt lat="42.52365128137171268463134765625" lon="19.76293637417256832122802734375">
        <ele>1797.199951171875</ele>
        <time>2026-06-18T09:03:43.000Z</time>
        <extensions>
          <ns3:TrackPointExtension>
            <ns3:atemp>24.0</ns3:atemp>
          </ns3:TrackPointExtension>
        </extensions>
      </trkpt>
      <trkpt lat="42.5236540473997592926025390625" lon="19.76296369917690753936767578125">
        <ele>1797.4000244140625</ele>
        <time>2026-06-18T09:03:44.000Z</time>
        <extensions>
          <ns3:TrackPointExtension>
            <ns3:atemp>24.0</ns3:atemp>
          </ns3:TrackPointExtension>
        </extensions>
      </trkpt>
      <trkpt lat="42.52365496940910816192626953125" lon="19.7629867494106292724609375">
        <ele>1797.5999755859375</ele>
        <time>2026-06-18T09:03:45.000Z</time>
        <extensions>
          <ns3:TrackPointExtension>
            <ns3:atemp>24.0</ns3:atemp>
          </ns3:TrackPointExtension>
        </extensions>
      </trkpt>
      <trkpt lat="42.52365262247622013092041015625" lon="19.76301566697657108306884765625">
        <ele>1797.800048828125</ele>
        <time>2026-06-18T09:03:46.000Z</time>
        <extensions>
          <ns3:TrackPointExtension>
            <ns3:atemp>24.0</ns3:atemp>
          </ns3:TrackPointExtension>
        </extensions>
      </trkpt>
      <trkpt lat="42.52364558167755603790283203125" lon="19.76303360424935817718505859375">
        <ele>1798.199951171875</ele>
        <time>2026-06-18T09:03:47.000Z</time>
        <extensions>
          <ns3:TrackPointExtension>
            <ns3:atemp>24.0</ns3:atemp>
          </ns3:TrackPointExtension>
        </extensions>
      </trkpt>
      <trkpt lat="42.523643486201763153076171875" lon="19.763025976717472076416015625">
        <ele>1798.4000244140625</ele>
        <time>2026-06-18T09:03:48.000Z</time>
        <extensions>
          <ns3:TrackPointExtension>
            <ns3:atemp>24.0</ns3:atemp>
          </ns3:TrackPointExtension>
        </extensions>
      </trkpt>
      <trkpt lat="42.52364072017371654510498046875" lon="19.76302622817456722259521484375">
        <ele>1798.5999755859375</ele>
        <time>2026-06-18T09:03:49.000Z</time>
        <extensions>
          <ns3:TrackPointExtension>
            <ns3:atemp>24.0</ns3:atemp>
          </ns3:TrackPointExtension>
        </extensions>
      </trkpt>
      <trkpt lat="42.52364072017371654510498046875" lon="19.76302622817456722259521484375">
        <ele>1798.800048828125</ele>
        <time>2026-06-18T09:03:50.000Z</time>
        <extensions>
          <ns3:TrackPointExtension>
            <ns3:atemp>24.0</ns3:atemp>
          </ns3:TrackPointExtension>
        </extensions>
      </trkpt>
      <trkpt lat="42.52364072017371654510498046875" lon="19.76302622817456722259521484375">
        <ele>1798.800048828125</ele>
        <time>2026-06-18T09:03:51.000Z</time>
        <extensions>
          <ns3:TrackPointExtension>
            <ns3:atemp>24.0</ns3:atemp>
          </ns3:TrackPointExtension>
        </extensions>
      </trkpt>
      <trkpt lat="42.52364072017371654510498046875" lon="19.76302622817456722259521484375">
        <ele>1798.800048828125</ele>
        <time>2026-06-18T09:03:52.000Z</time>
        <extensions>
          <ns3:TrackPointExtension>
            <ns3:atemp>24.0</ns3:atemp>
          </ns3:TrackPointExtension>
        </extensions>
      </trkpt>
      <trkpt lat="42.52364072017371654510498046875" lon="19.76302622817456722259521484375">
        <ele>1798.800048828125</ele>
        <time>2026-06-18T09:03:53.000Z</time>
        <extensions>
          <ns3:TrackPointExtension>
            <ns3:atemp>24.0</ns3:atemp>
          </ns3:TrackPointExtension>
        </extensions>
      </trkpt>
      <trkpt lat="42.52364072017371654510498046875" lon="19.76302622817456722259521484375">
        <ele>1798.800048828125</ele>
        <time>2026-06-18T09:03:54.000Z</time>
        <extensions>
          <ns3:TrackPointExtension>
            <ns3:atemp>24.0</ns3:atemp>
          </ns3:TrackPointExtension>
        </extensions>
      </trkpt>
      <trkpt lat="42.52364072017371654510498046875" lon="19.76302622817456722259521484375">
        <ele>1798.5999755859375</ele>
        <time>2026-06-18T09:03:55.000Z</time>
        <extensions>
          <ns3:TrackPointExtension>
            <ns3:atemp>24.0</ns3:atemp>
          </ns3:TrackPointExtension>
        </extensions>
      </trkpt>
      <trkpt lat="42.52364072017371654510498046875" lon="19.76302622817456722259521484375">
        <ele>1798.5999755859375</ele>
        <time>2026-06-18T09:03:56.000Z</time>
        <extensions>
          <ns3:TrackPointExtension>
            <ns3:atemp>24.0</ns3:atemp>
          </ns3:TrackPointExtension>
        </extensions>
      </trkpt>
      <trkpt lat="42.52364072017371654510498046875" lon="19.76302622817456722259521484375">
        <ele>1798.5999755859375</ele>
        <time>2026-06-18T09:03:57.000Z</time>
        <extensions>
          <ns3:TrackPointExtension>
            <ns3:atemp>24.0</ns3:atemp>
          </ns3:TrackPointExtension>
        </extensions>
      </trkpt>
      <trkpt lat="42.52364072017371654510498046875" lon="19.76302622817456722259521484375">
        <ele>1798.5999755859375</ele>
        <time>2026-06-18T09:03:58.000Z</time>
        <extensions>
          <ns3:TrackPointExtension>
            <ns3:atemp>24.0</ns3:atemp>
          </ns3:TrackPointExtension>
        </extensions>
      </trkpt>
      <trkpt lat="42.52364072017371654510498046875" lon="19.76302622817456722259521484375">
        <ele>1798.5999755859375</ele>
        <time>2026-06-18T09:03:59.000Z</time>
        <extensions>
          <ns3:TrackPointExtension>
            <ns3:atemp>24.0</ns3:atemp>
          </ns3:TrackPointExtension>
        </extensions>
      </trkpt>
      <trkpt lat="42.52364072017371654510498046875" lon="19.76302622817456722259521484375">
        <ele>1798.5999755859375</ele>
        <time>2026-06-18T09:04:00.000Z</time>
        <extensions>
          <ns3:TrackPointExtension>
            <ns3:atemp>24.0</ns3:atemp>
          </ns3:TrackPointExtension>
        </extensions>
      </trkpt>
      <trkpt lat="42.52364072017371654510498046875" lon="19.76302622817456722259521484375">
        <ele>1798.5999755859375</ele>
        <time>2026-06-18T09:04:01.000Z</time>
        <extensions>
          <ns3:TrackPointExtension>
            <ns3:atemp>24.0</ns3:atemp>
          </ns3:TrackPointExtension>
        </extensions>
      </trkpt>
      <trkpt lat="42.52364072017371654510498046875" lon="19.76302622817456722259521484375">
        <ele>1798.5999755859375</ele>
        <time>2026-06-18T09:04:02.000Z</time>
        <extensions>
          <ns3:TrackPointExtension>
            <ns3:atemp>24.0</ns3:atemp>
          </ns3:TrackPointExtension>
        </extensions>
      </trkpt>
      <trkpt lat="42.52364072017371654510498046875" lon="19.76302622817456722259521484375">
        <ele>1798.4000244140625</ele>
        <time>2026-06-18T09:04:03.000Z</time>
        <extensions>
          <ns3:TrackPointExtension>
            <ns3:atemp>24.0</ns3:atemp>
          </ns3:TrackPointExtension>
        </extensions>
      </trkpt>
      <trkpt lat="42.52364072017371654510498046875" lon="19.76302622817456722259521484375">
        <ele>1798.4000244140625</ele>
        <time>2026-06-18T09:04:04.000Z</time>
        <extensions>
          <ns3:TrackPointExtension>
            <ns3:atemp>24.0</ns3:atemp>
          </ns3:TrackPointExtension>
        </extensions>
      </trkpt>
      <trkpt lat="42.52364072017371654510498046875" lon="19.76302622817456722259521484375">
        <ele>1798.4000244140625</ele>
        <time>2026-06-18T09:04:05.000Z</time>
        <extensions>
          <ns3:TrackPointExtension>
            <ns3:atemp>24.0</ns3:atemp>
          </ns3:TrackPointExtension>
        </extensions>
      </trkpt>
      <trkpt lat="42.5236419774591922760009765625" lon="19.7630264796316623687744140625">
        <ele>1798.4000244140625</ele>
        <time>2026-06-18T09:04:06.000Z</time>
        <extensions>
          <ns3:TrackPointExtension>
            <ns3:atemp>24.0</ns3:atemp>
          </ns3:TrackPointExtension>
        </extensions>
      </trkpt>
      <trkpt lat="42.52364172600209712982177734375" lon="19.76303561590611934661865234375">
        <ele>1798.4000244140625</ele>
        <time>2026-06-18T09:04:07.000Z</time>
        <extensions>
          <ns3:TrackPointExtension>
            <ns3:atemp>24.0</ns3:atemp>
          </ns3:TrackPointExtension>
        </extensions>
      </trkpt>
      <trkpt lat="42.52363971434533596038818359375" lon="19.7630511224269866943359375">
        <ele>1798.199951171875</ele>
        <time>2026-06-18T09:04:08.000Z</time>
        <extensions>
          <ns3:TrackPointExtension>
            <ns3:atemp>24.0</ns3:atemp>
          </ns3:TrackPointExtension>
        </extensions>
      </trkpt>
      <trkpt lat="42.52363619394600391387939453125" lon="19.763065874576568603515625">
        <ele>1798.199951171875</ele>
        <time>2026-06-18T09:04:09.000Z</time>
        <extensions>
          <ns3:TrackPointExtension>
            <ns3:atemp>24.0</ns3:atemp>
          </ns3:TrackPointExtension>
        </extensions>
      </trkpt>
      <trkpt lat="42.5236299075186252593994140625" lon="19.763089008629322052001953125">
        <ele>1798</ele>
        <time>2026-06-18T09:04:10.000Z</time>
        <extensions>
          <ns3:TrackPointExtension>
            <ns3:atemp>24.0</ns3:atemp>
          </ns3:TrackPointExtension>
        </extensions>
      </trkpt>
      <trkpt lat="42.5236223638057708740234375" lon="19.7631119750440120697021484375">
        <ele>1797.800048828125</ele>
        <time>2026-06-18T09:04:11.000Z</time>
        <extensions>
          <ns3:TrackPointExtension>
            <ns3:atemp>24.0</ns3:atemp>
          </ns3:TrackPointExtension>
        </extensions>
      </trkpt>
      <trkpt lat="42.52361590974032878875732421875" lon="19.7631330974400043487548828125">
        <ele>1797.5999755859375</ele>
        <time>2026-06-18T09:04:12.000Z</time>
        <extensions>
          <ns3:TrackPointExtension>
            <ns3:atemp>24.0</ns3:atemp>
          </ns3:TrackPointExtension>
        </extensions>
      </trkpt>
      <trkpt lat="42.52360635437071323394775390625" lon="19.76315438747406005859375">
        <ele>1797.4000244140625</ele>
        <time>2026-06-18T09:04:13.000Z</time>
        <extensions>
          <ns3:TrackPointExtension>
            <ns3:atemp>24.0</ns3:atemp>
          </ns3:TrackPointExtension>
        </extensions>
      </trkpt>
      <trkpt lat="42.52359679900109767913818359375" lon="19.76317525841295719146728515625">
        <ele>1797.199951171875</ele>
        <time>2026-06-18T09:04:14.000Z</time>
        <extensions>
          <ns3:TrackPointExtension>
            <ns3:atemp>24.0</ns3:atemp>
          </ns3:TrackPointExtension>
        </extensions>
      </trkpt>
      <trkpt lat="42.523589842021465301513671875" lon="19.7631957940757274627685546875">
        <ele>1797</ele>
        <time>2026-06-18T09:04:15.000Z</time>
        <extensions>
          <ns3:TrackPointExtension>
            <ns3:atemp>24.0</ns3:atemp>
          </ns3:TrackPointExtension>
        </extensions>
      </trkpt>
      <trkpt lat="42.52357785589993000030517578125" lon="19.76320979185402393341064453125">
        <ele>1797</ele>
        <time>2026-06-18T09:04:16.000Z</time>
        <extensions>
          <ns3:TrackPointExtension>
            <ns3:atemp>24.0</ns3:atemp>
          </ns3:TrackPointExtension>
        </extensions>
      </trkpt>
      <trkpt lat="42.5235651992261409759521484375" lon="19.76321331225335597991943359375">
        <ele>1797.4000244140625</ele>
        <time>2026-06-18T09:04:17.000Z</time>
        <extensions>
          <ns3:TrackPointExtension>
            <ns3:atemp>24.0</ns3:atemp>
          </ns3:TrackPointExtension>
        </extensions>
      </trkpt>
      <trkpt lat="42.52355371601879596710205078125" lon="19.76321004331111907958984375">
        <ele>1797.800048828125</ele>
        <time>2026-06-18T09:04:18.000Z</time>
        <extensions>
          <ns3:TrackPointExtension>
            <ns3:atemp>24.0</ns3:atemp>
          </ns3:TrackPointExtension>
        </extensions>
      </trkpt>
      <trkpt lat="42.523542232811450958251953125" lon="19.763197638094425201416015625">
        <ele>1798.199951171875</ele>
        <time>2026-06-18T09:04:19.000Z</time>
        <extensions>
          <ns3:TrackPointExtension>
            <ns3:atemp>24.0</ns3:atemp>
          </ns3:TrackPointExtension>
        </extensions>
      </trkpt>
      <trkpt lat="42.52353259362280368804931640625" lon="19.7631827183067798614501953125">
        <ele>1798.5999755859375</ele>
        <time>2026-06-18T09:04:20.000Z</time>
        <extensions>
          <ns3:TrackPointExtension>
            <ns3:atemp>24.0</ns3:atemp>
          </ns3:TrackPointExtension>
        </extensions>
      </trkpt>
      <trkpt lat="42.523522786796092987060546875" lon="19.76316955871880054473876953125">
        <ele>1799</ele>
        <time>2026-06-18T09:04:21.000Z</time>
        <extensions>
          <ns3:TrackPointExtension>
            <ns3:atemp>24.0</ns3:atemp>
          </ns3:TrackPointExtension>
        </extensions>
      </trkpt>
      <trkpt lat="42.52351046539843082427978515625" lon="19.7631505317986011505126953125">
        <ele>1799.199951171875</ele>
        <time>2026-06-18T09:04:22.000Z</time>
        <extensions>
          <ns3:TrackPointExtension>
            <ns3:atemp>24.0</ns3:atemp>
          </ns3:TrackPointExtension>
        </extensions>
      </trkpt>
      <trkpt lat="42.52349738962948322296142578125" lon="19.7631334327161312103271484375">
        <ele>1799.5999755859375</ele>
        <time>2026-06-18T09:04:23.000Z</time>
        <extensions>
          <ns3:TrackPointExtension>
            <ns3:atemp>24.0</ns3:atemp>
          </ns3:TrackPointExtension>
        </extensions>
      </trkpt>
      <trkpt lat="42.52348129637539386749267578125" lon="19.763116501271724700927734375">
        <ele>1799.800048828125</ele>
        <time>2026-06-18T09:04:24.000Z</time>
        <extensions>
          <ns3:TrackPointExtension>
            <ns3:atemp>24.0</ns3:atemp>
          </ns3:TrackPointExtension>
        </extensions>
      </trkpt>
      <trkpt lat="42.52347107045352458953857421875" lon="19.7630988992750644683837890625">
        <ele>1800.199951171875</ele>
        <time>2026-06-18T09:04:25.000Z</time>
        <extensions>
          <ns3:TrackPointExtension>
            <ns3:atemp>24.0</ns3:atemp>
          </ns3:TrackPointExtension>
        </extensions>
      </trkpt>
      <trkpt lat="42.5234552286565303802490234375" lon="19.7630806267261505126953125">
        <ele>1800.5999755859375</ele>
        <time>2026-06-18T09:04:26.000Z</time>
        <extensions>
          <ns3:TrackPointExtension>
            <ns3:atemp>24.0</ns3:atemp>
          </ns3:TrackPointExtension>
        </extensions>
      </trkpt>
      <trkpt lat="42.52343737520277500152587890625" lon="19.7630623541772365570068359375">
        <ele>1801</ele>
        <time>2026-06-18T09:04:27.000Z</time>
        <extensions>
          <ns3:TrackPointExtension>
            <ns3:atemp>24.0</ns3:atemp>
          </ns3:TrackPointExtension>
        </extensions>
      </trkpt>
      <trkpt lat="42.52342329360544681549072265625" lon="19.76305020041763782501220703125">
        <ele>1801.4000244140625</ele>
        <time>2026-06-18T09:04:28.000Z</time>
        <extensions>
          <ns3:TrackPointExtension>
            <ns3:atemp>24.0</ns3:atemp>
          </ns3:TrackPointExtension>
        </extensions>
      </trkpt>
      <trkpt lat="42.5234042666852474212646484375" lon="19.76303628645837306976318359375">
        <ele>1802</ele>
        <time>2026-06-18T09:04:29.000Z</time>
        <extensions>
          <ns3:TrackPointExtension>
            <ns3:atemp>24.0</ns3:atemp>
          </ns3:TrackPointExtension>
        </extensions>
      </trkpt>
      <trkpt lat="42.52338876016438007354736328125" lon="19.7630325146019458770751953125">
        <ele>1802.199951171875</ele>
        <time>2026-06-18T09:04:30.000Z</time>
        <extensions>
          <ns3:TrackPointExtension>
            <ns3:atemp>24.0</ns3:atemp>
          </ns3:TrackPointExtension>
        </extensions>
      </trkpt>
      <trkpt lat="42.5233771093189716339111328125" lon="19.76302639581263065338134765625">
        <ele>1802.5999755859375</ele>
        <time>2026-06-18T09:04:31.000Z</time>
        <extensions>
          <ns3:TrackPointExtension>
            <ns3:atemp>24.0</ns3:atemp>
          </ns3:TrackPointExtension>
        </extensions>
      </trkpt>
      <trkpt lat="42.52336093224585056304931640625" lon="19.7630150802433490753173828125">
        <ele>1803</ele>
        <time>2026-06-18T09:04:32.000Z</time>
        <extensions>
          <ns3:TrackPointExtension>
            <ns3:atemp>24.0</ns3:atemp>
          </ns3:TrackPointExtension>
        </extensions>
      </trkpt>
      <trkpt lat="42.52334383316338062286376953125" lon="19.76300577633082866668701171875">
        <ele>1803.199951171875</ele>
        <time>2026-06-18T09:04:33.000Z</time>
        <extensions>
          <ns3:TrackPointExtension>
            <ns3:atemp>24.0</ns3:atemp>
          </ns3:TrackPointExtension>
        </extensions>
      </trkpt>
      <trkpt lat="42.52332807518541812896728515625" lon="19.76299622096121311187744140625">
        <ele>1803.5999755859375</ele>
        <time>2026-06-18T09:04:34.000Z</time>
        <extensions>
          <ns3:TrackPointExtension>
            <ns3:atemp>23.0</ns3:atemp>
          </ns3:TrackPointExtension>
        </extensions>
      </trkpt>
      <trkpt lat="42.52331365831196308135986328125" lon="19.76297778077423572540283203125">
        <ele>1804</ele>
        <time>2026-06-18T09:04:35.000Z</time>
        <extensions>
          <ns3:TrackPointExtension>
            <ns3:atemp>23.0</ns3:atemp>
          </ns3:TrackPointExtension>
        </extensions>
      </trkpt>
      <trkpt lat="42.52329655922949314117431640625" lon="19.762964285910129547119140625">
        <ele>1804.4000244140625</ele>
        <time>2026-06-18T09:04:36.000Z</time>
        <extensions>
          <ns3:TrackPointExtension>
            <ns3:atemp>23.0</ns3:atemp>
          </ns3:TrackPointExtension>
        </extensions>
      </trkpt>
      <trkpt lat="42.52328105270862579345703125" lon="19.7629554010927677154541015625">
        <ele>1804.5999755859375</ele>
        <time>2026-06-18T09:04:37.000Z</time>
        <extensions>
          <ns3:TrackPointExtension>
            <ns3:atemp>23.0</ns3:atemp>
          </ns3:TrackPointExtension>
        </extensions>
      </trkpt>
      <trkpt lat="42.523266635835170745849609375" lon="19.76295112632215023040771484375">
        <ele>1805.199951171875</ele>
        <time>2026-06-18T09:04:38.000Z</time>
        <extensions>
          <ns3:TrackPointExtension>
            <ns3:atemp>23.0</ns3:atemp>
          </ns3:TrackPointExtension>
        </extensions>
      </trkpt>
      <trkpt lat="42.52325029112398624420166015625" lon="19.76294324733316898345947265625">
        <ele>1805.5999755859375</ele>
        <time>2026-06-18T09:04:39.000Z</time>
        <extensions>
          <ns3:TrackPointExtension>
            <ns3:atemp>23.0</ns3:atemp>
          </ns3:TrackPointExtension>
        </extensions>
      </trkpt>
      <trkpt lat="42.52323838882148265838623046875" lon="19.76292841136455535888671875">
        <ele>1806.199951171875</ele>
        <time>2026-06-18T09:04:40.000Z</time>
        <extensions>
          <ns3:TrackPointExtension>
            <ns3:atemp>23.0</ns3:atemp>
          </ns3:TrackPointExtension>
        </extensions>
      </trkpt>
      <trkpt lat="42.5232235528528690338134765625" lon="19.76291676051914691925048828125">
        <ele>1806.800048828125</ele>
        <time>2026-06-18T09:04:41.000Z</time>
        <extensions>
          <ns3:TrackPointExtension>
            <ns3:atemp>23.0</ns3:atemp>
          </ns3:TrackPointExtension>
        </extensions>
      </trkpt>
      <trkpt lat="42.52320871688425540924072265625" lon="19.76290552876889705657958984375">
        <ele>1807.199951171875</ele>
        <time>2026-06-18T09:04:42.000Z</time>
        <extensions>
          <ns3:TrackPointExtension>
            <ns3:atemp>24.0</ns3:atemp>
          </ns3:TrackPointExtension>
        </extensions>
      </trkpt>
      <trkpt lat="42.52319664694368839263916015625" lon="19.76289354264736175537109375">
        <ele>1808</ele>
        <time>2026-06-18T09:04:43.000Z</time>
        <extensions>
          <ns3:TrackPointExtension>
            <ns3:atemp>23.0</ns3:atemp>
          </ns3:TrackPointExtension>
        </extensions>
      </trkpt>
      <trkpt lat="42.52318357117474079132080078125" lon="19.762877114117145538330078125">
        <ele>1808.4000244140625</ele>
        <time>2026-06-18T09:04:44.000Z</time>
        <extensions>
          <ns3:TrackPointExtension>
            <ns3:atemp>24.0</ns3:atemp>
          </ns3:TrackPointExtension>
        </extensions>
      </trkpt>
      <trkpt lat="42.52316839993000030517578125" lon="19.76286537945270538330078125">
        <ele>1808.800048828125</ele>
        <time>2026-06-18T09:04:45.000Z</time>
        <extensions>
          <ns3:TrackPointExtension>
            <ns3:atemp>23.0</ns3:atemp>
          </ns3:TrackPointExtension>
        </extensions>
      </trkpt>
      <trkpt lat="42.523155994713306427001953125" lon="19.76285221986472606658935546875">
        <ele>1809.199951171875</ele>
        <time>2026-06-18T09:04:46.000Z</time>
        <extensions>
          <ns3:TrackPointExtension>
            <ns3:atemp>23.0</ns3:atemp>
          </ns3:TrackPointExtension>
        </extensions>
      </trkpt>
      <trkpt lat="42.5231422483921051025390625" lon="19.7628390602767467498779296875">
        <ele>1809.5999755859375</ele>
        <time>2026-06-18T09:04:47.000Z</time>
        <extensions>
          <ns3:TrackPointExtension>
            <ns3:atemp>23.0</ns3:atemp>
          </ns3:TrackPointExtension>
        </extensions>
      </trkpt>
      <trkpt lat="42.52312674187123775482177734375" lon="19.76282673887908458709716796875">
        <ele>1810.199951171875</ele>
        <time>2026-06-18T09:04:48.000Z</time>
        <extensions>
          <ns3:TrackPointExtension>
            <ns3:atemp>23.0</ns3:atemp>
          </ns3:TrackPointExtension>
        </extensions>
      </trkpt>
      <trkpt lat="42.52311148680746555328369140625" lon="19.762817434966564178466796875">
        <ele>1810.5999755859375</ele>
        <time>2026-06-18T09:04:49.000Z</time>
        <extensions>
          <ns3:TrackPointExtension>
            <ns3:atemp>23.0</ns3:atemp>
          </ns3:TrackPointExtension>
        </extensions>
      </trkpt>
      <trkpt lat="42.5230968184769153594970703125" lon="19.76280746050179004669189453125">
        <ele>1811</ele>
        <time>2026-06-18T09:04:50.000Z</time>
        <extensions>
          <ns3:TrackPointExtension>
            <ns3:atemp>23.0</ns3:atemp>
          </ns3:TrackPointExtension>
        </extensions>
      </trkpt>
      <trkpt lat="42.52308432944118976593017578125" lon="19.7628016769886016845703125">
        <ele>1811.199951171875</ele>
        <time>2026-06-18T09:04:51.000Z</time>
        <extensions>
          <ns3:TrackPointExtension>
            <ns3:atemp>23.0</ns3:atemp>
          </ns3:TrackPointExtension>
        </extensions>
      </trkpt>
      <trkpt lat="42.52307259477674961090087890625" lon="19.76279857568442821502685546875">
        <ele>1811.5999755859375</ele>
        <time>2026-06-18T09:04:52.000Z</time>
        <extensions>
          <ns3:TrackPointExtension>
            <ns3:atemp>23.0</ns3:atemp>
          </ns3:TrackPointExtension>
        </extensions>
      </trkpt>
      <trkpt lat="42.52306018956005573272705078125" lon="19.7627974860370159149169921875">
        <ele>1812.199951171875</ele>
        <time>2026-06-18T09:04:53.000Z</time>
        <extensions>
          <ns3:TrackPointExtension>
            <ns3:atemp>23.0</ns3:atemp>
          </ns3:TrackPointExtension>
        </extensions>
      </trkpt>
      <trkpt lat="42.5230465270578861236572265625" lon="19.7627978213131427764892578125">
        <ele>1812.4000244140625</ele>
        <time>2026-06-18T09:04:54.000Z</time>
        <extensions>
          <ns3:TrackPointExtension>
            <ns3:atemp>23.0</ns3:atemp>
          </ns3:TrackPointExtension>
        </extensions>
      </trkpt>
      <trkpt lat="42.52303118817508220672607421875" lon="19.76279824040830135345458984375">
        <ele>1812.800048828125</ele>
        <time>2026-06-18T09:04:55.000Z</time>
        <extensions>
          <ns3:TrackPointExtension>
            <ns3:atemp>23.0</ns3:atemp>
          </ns3:TrackPointExtension>
        </extensions>
      </trkpt>
      <trkpt lat="42.52301777713000774383544921875" lon="19.762797988951206207275390625">
        <ele>1813</ele>
        <time>2026-06-18T09:04:56.000Z</time>
        <extensions>
          <ns3:TrackPointExtension>
            <ns3:atemp>23.0</ns3:atemp>
          </ns3:TrackPointExtension>
        </extensions>
      </trkpt>
      <trkpt lat="42.5230022706091403961181640625" lon="19.76279740221798419952392578125">
        <ele>1813.4000244140625</ele>
        <time>2026-06-18T09:04:57.000Z</time>
        <extensions>
          <ns3:TrackPointExtension>
            <ns3:atemp>23.0</ns3:atemp>
          </ns3:TrackPointExtension>
        </extensions>
      </trkpt>
      <trkpt lat="42.52298533916473388671875" lon="19.762798659503459930419921875">
        <ele>1813.5999755859375</ele>
        <time>2026-06-18T09:04:58.000Z</time>
        <extensions>
          <ns3:TrackPointExtension>
            <ns3:atemp>23.0</ns3:atemp>
          </ns3:TrackPointExtension>
        </extensions>
      </trkpt>
      <trkpt lat="42.522981651127338409423828125" lon="19.762813411653041839599609375">
        <ele>1814</ele>
        <time>2026-06-18T09:04:59.000Z</time>
        <extensions>
          <ns3:TrackPointExtension>
            <ns3:atemp>23.0</ns3:atemp>
          </ns3:TrackPointExtension>
        </extensions>
      </trkpt>
      <trkpt lat="42.5229801423847675323486328125" lon="19.7628306783735752105712890625">
        <ele>1814.4000244140625</ele>
        <time>2026-06-18T09:05:00.000Z</time>
        <extensions>
          <ns3:TrackPointExtension>
            <ns3:atemp>23.0</ns3:atemp>
          </ns3:TrackPointExtension>
        </extensions>
      </trkpt>
      <trkpt lat="42.52297737635672092437744140625" lon="19.7628310136497020721435546875">
        <ele>1814.800048828125</ele>
        <time>2026-06-18T09:05:01.000Z</time>
        <extensions>
          <ns3:TrackPointExtension>
            <ns3:atemp>23.0</ns3:atemp>
          </ns3:TrackPointExtension>
        </extensions>
      </trkpt>
      <trkpt lat="42.522977292537689208984375" lon="19.7628310136497020721435546875">
        <ele>1815.199951171875</ele>
        <time>2026-06-18T09:05:02.000Z</time>
        <extensions>
          <ns3:TrackPointExtension>
            <ns3:atemp>23.0</ns3:atemp>
          </ns3:TrackPointExtension>
        </extensions>
      </trkpt>
      <trkpt lat="42.522977292537689208984375" lon="19.7628310136497020721435546875">
        <ele>1815.4000244140625</ele>
        <time>2026-06-18T09:05:03.000Z</time>
        <extensions>
          <ns3:TrackPointExtension>
            <ns3:atemp>23.0</ns3:atemp>
          </ns3:TrackPointExtension>
        </extensions>
      </trkpt>
      <trkpt lat="42.522977292537689208984375" lon="19.7628310136497020721435546875">
        <ele>1815.5999755859375</ele>
        <time>2026-06-18T09:05:04.000Z</time>
        <extensions>
          <ns3:TrackPointExtension>
            <ns3:atemp>23.0</ns3:atemp>
          </ns3:TrackPointExtension>
        </extensions>
      </trkpt>
      <trkpt lat="42.522977292537689208984375" lon="19.7628310136497020721435546875">
        <ele>1815.5999755859375</ele>
        <time>2026-06-18T09:05:05.000Z</time>
        <extensions>
          <ns3:TrackPointExtension>
            <ns3:atemp>23.0</ns3:atemp>
          </ns3:TrackPointExtension>
        </extensions>
      </trkpt>
      <trkpt lat="42.52297720871865749359130859375" lon="19.76283092983067035675048828125">
        <ele>1815.5999755859375</ele>
        <time>2026-06-18T09:05:06.000Z</time>
        <extensions>
          <ns3:TrackPointExtension>
            <ns3:atemp>23.0</ns3:atemp>
          </ns3:TrackPointExtension>
        </extensions>
      </trkpt>
      <trkpt lat="42.52298056147992610931396484375" lon="19.76283964700996875762939453125">
        <ele>1815.5999755859375</ele>
        <time>2026-06-18T09:05:07.000Z</time>
        <extensions>
          <ns3:TrackPointExtension>
            <ns3:atemp>23.0</ns3:atemp>
          </ns3:TrackPointExtension>
        </extensions>
      </trkpt>
      <trkpt lat="42.52298575825989246368408203125" lon="19.76284534670412540435791015625">
        <ele>1815.800048828125</ele>
        <time>2026-06-18T09:05:08.000Z</time>
        <extensions>
          <ns3:TrackPointExtension>
            <ns3:atemp>23.0</ns3:atemp>
          </ns3:TrackPointExtension>
        </extensions>
      </trkpt>
      <trkpt lat="42.52299749292433261871337890625" lon="19.7628553211688995361328125">
        <ele>1816.199951171875</ele>
        <time>2026-06-18T09:05:09.000Z</time>
        <extensions>
          <ns3:TrackPointExtension>
            <ns3:atemp>23.0</ns3:atemp>
          </ns3:TrackPointExtension>
        </extensions>
      </trkpt>
      <trkpt lat="42.52300403080880641937255859375" lon="19.76286713965237140655517578125">
        <ele>1816.4000244140625</ele>
        <time>2026-06-18T09:05:10.000Z</time>
        <extensions>
          <ns3:TrackPointExtension>
            <ns3:atemp>23.0</ns3:atemp>
          </ns3:TrackPointExtension>
        </extensions>
      </trkpt>
      <trkpt lat="42.523005791008472442626953125" lon="19.76287568919360637664794921875">
        <ele>1816.5999755859375</ele>
        <time>2026-06-18T09:05:11.000Z</time>
        <extensions>
          <ns3:TrackPointExtension>
            <ns3:atemp>23.0</ns3:atemp>
          </ns3:TrackPointExtension>
        </extensions>
      </trkpt>
      <trkpt lat="42.5230032764375209808349609375" lon="19.76288549602031707763671875">
        <ele>1816.800048828125</ele>
        <time>2026-06-18T09:05:12.000Z</time>
        <extensions>
          <ns3:TrackPointExtension>
            <ns3:atemp>23.0</ns3:atemp>
          </ns3:TrackPointExtension>
        </extensions>
      </trkpt>
      <trkpt lat="42.523000426590442657470703125" lon="19.76289932616055011749267578125">
        <ele>1817</ele>
        <time>2026-06-18T09:05:13.000Z</time>
        <extensions>
          <ns3:TrackPointExtension>
            <ns3:atemp>23.0</ns3:atemp>
          </ns3:TrackPointExtension>
        </extensions>
      </trkpt>
      <trkpt lat="42.52300076186656951904296875" lon="19.76291676051914691925048828125">
        <ele>1817.199951171875</ele>
        <time>2026-06-18T09:05:14.000Z</time>
        <extensions>
          <ns3:TrackPointExtension>
            <ns3:atemp>23.0</ns3:atemp>
          </ns3:TrackPointExtension>
        </extensions>
      </trkpt>
      <trkpt lat="42.52300570718944072723388671875" lon="19.76294375024735927581787109375">
        <ele>1817.4000244140625</ele>
        <time>2026-06-18T09:05:15.000Z</time>
        <extensions>
          <ns3:TrackPointExtension>
            <ns3:atemp>23.0</ns3:atemp>
          </ns3:TrackPointExtension>
        </extensions>
      </trkpt>
      <trkpt lat="42.52300084568560123443603515625" lon="19.76296596229076385498046875">
        <ele>1817.4000244140625</ele>
        <time>2026-06-18T09:05:16.000Z</time>
        <extensions>
          <ns3:TrackPointExtension>
            <ns3:atemp>23.0</ns3:atemp>
          </ns3:TrackPointExtension>
        </extensions>
      </trkpt>
      <trkpt lat="42.522997073829174041748046875" lon="19.7629895992577075958251953125">
        <ele>1817.5999755859375</ele>
        <time>2026-06-18T09:05:17.000Z</time>
        <extensions>
          <ns3:TrackPointExtension>
            <ns3:atemp>23.0</ns3:atemp>
          </ns3:TrackPointExtension>
        </extensions>
      </trkpt>
      <trkpt lat="42.522993050515651702880859375" lon="19.76301164366304874420166015625">
        <ele>1817.800048828125</ele>
        <time>2026-06-18T09:05:18.000Z</time>
        <extensions>
          <ns3:TrackPointExtension>
            <ns3:atemp>23.0</ns3:atemp>
          </ns3:TrackPointExtension>
        </extensions>
      </trkpt>
      <trkpt lat="42.5229918770492076873779296875" lon="19.76303176023066043853759765625">
        <ele>1818</ele>
        <time>2026-06-18T09:05:19.000Z</time>
        <extensions>
          <ns3:TrackPointExtension>
            <ns3:atemp>23.0</ns3:atemp>
          </ns3:TrackPointExtension>
        </extensions>
      </trkpt>
      <trkpt lat="42.5229948945343494415283203125" lon="19.763049446046352386474609375">
        <ele>1818.199951171875</ele>
        <time>2026-06-18T09:05:20.000Z</time>
        <extensions>
          <ns3:TrackPointExtension>
            <ns3:atemp>23.0</ns3:atemp>
          </ns3:TrackPointExtension>
        </extensions>
      </trkpt>
      <trkpt lat="42.52299464307725429534912109375" lon="19.76306629367172718048095703125">
        <ele>1818.5999755859375</ele>
        <time>2026-06-18T09:05:21.000Z</time>
        <extensions>
          <ns3:TrackPointExtension>
            <ns3:atemp>23.0</ns3:atemp>
          </ns3:TrackPointExtension>
        </extensions>
      </trkpt>
      <trkpt lat="42.52299883402884006500244140625" lon="19.76308406330645084381103515625">
        <ele>1818.800048828125</ele>
        <time>2026-06-18T09:05:22.000Z</time>
        <extensions>
          <ns3:TrackPointExtension>
            <ns3:atemp>23.0</ns3:atemp>
          </ns3:TrackPointExtension>
        </extensions>
      </trkpt>
      <trkpt lat="42.52300084568560123443603515625" lon="19.763104431331157684326171875">
        <ele>1819</ele>
        <time>2026-06-18T09:05:23.000Z</time>
        <extensions>
          <ns3:TrackPointExtension>
            <ns3:atemp>23.0</ns3:atemp>
          </ns3:TrackPointExtension>
        </extensions>
      </trkpt>
      <trkpt lat="42.52299816347658634185791015625" lon="19.76312563754618167877197265625">
        <ele>1819.199951171875</ele>
        <time>2026-06-18T09:05:24.000Z</time>
        <extensions>
          <ns3:TrackPointExtension>
            <ns3:atemp>23.0</ns3:atemp>
          </ns3:TrackPointExtension>
        </extensions>
      </trkpt>
      <trkpt lat="42.52299615181982517242431640625" lon="19.76314030587673187255859375">
        <ele>1819.4000244140625</ele>
        <time>2026-06-18T09:05:25.000Z</time>
        <extensions>
          <ns3:TrackPointExtension>
            <ns3:atemp>23.0</ns3:atemp>
          </ns3:TrackPointExtension>
        </extensions>
      </trkpt>
      <trkpt lat="42.5229942239820957183837890625" lon="19.76315698586404323577880859375">
        <ele>1819.800048828125</ele>
        <time>2026-06-18T09:05:26.000Z</time>
        <extensions>
          <ns3:TrackPointExtension>
            <ns3:atemp>23.0</ns3:atemp>
          </ns3:TrackPointExtension>
        </extensions>
      </trkpt>
      <trkpt lat="42.52298894338309764862060546875" lon="19.76317115128040313720703125">
        <ele>1820.199951171875</ele>
        <time>2026-06-18T09:05:27.000Z</time>
        <extensions>
          <ns3:TrackPointExtension>
            <ns3:atemp>23.0</ns3:atemp>
          </ns3:TrackPointExtension>
        </extensions>
      </trkpt>
      <trkpt lat="42.52298508770763874053955078125" lon="19.763186909258365631103515625">
        <ele>1820.4000244140625</ele>
        <time>2026-06-18T09:05:28.000Z</time>
        <extensions>
          <ns3:TrackPointExtension>
            <ns3:atemp>23.0</ns3:atemp>
          </ns3:TrackPointExtension>
        </extensions>
      </trkpt>
      <trkpt lat="42.52297720871865749359130859375" lon="19.76320601999759674072265625">
        <ele>1820.800048828125</ele>
        <time>2026-06-18T09:05:29.000Z</time>
        <extensions>
          <ns3:TrackPointExtension>
            <ns3:atemp>23.0</ns3:atemp>
          </ns3:TrackPointExtension>
        </extensions>
      </trkpt>
      <trkpt lat="42.52297100611031055450439453125" lon="19.763232171535491943359375">
        <ele>1821.199951171875</ele>
        <time>2026-06-18T09:05:30.000Z</time>
        <extensions>
          <ns3:TrackPointExtension>
            <ns3:atemp>23.0</ns3:atemp>
          </ns3:TrackPointExtension>
        </extensions>
      </trkpt>
      <trkpt lat="42.52297234721481800079345703125" lon="19.76325689814984798431396484375">
        <ele>1821.5999755859375</ele>
        <time>2026-06-18T09:05:31.000Z</time>
        <extensions>
          <ns3:TrackPointExtension>
            <ns3:atemp>23.0</ns3:atemp>
          </ns3:TrackPointExtension>
        </extensions>
      </trkpt>
      <trkpt lat="42.5229761190712451934814453125" lon="19.7632809542119503021240234375">
        <ele>1821.800048828125</ele>
        <time>2026-06-18T09:05:32.000Z</time>
        <extensions>
          <ns3:TrackPointExtension>
            <ns3:atemp>23.0</ns3:atemp>
          </ns3:TrackPointExtension>
        </extensions>
      </trkpt>
      <trkpt lat="42.52297787927091121673583984375" lon="19.76329981349408626556396484375">
        <ele>1822</ele>
        <time>2026-06-18T09:05:33.000Z</time>
        <extensions>
          <ns3:TrackPointExtension>
            <ns3:atemp>23.0</ns3:atemp>
          </ns3:TrackPointExtension>
        </extensions>
      </trkpt>
      <trkpt lat="42.522972263395786285400390625" lon="19.763318337500095367431640625">
        <ele>1822.199951171875</ele>
        <time>2026-06-18T09:05:34.000Z</time>
        <extensions>
          <ns3:TrackPointExtension>
            <ns3:atemp>23.0</ns3:atemp>
          </ns3:TrackPointExtension>
        </extensions>
      </trkpt>
      <trkpt lat="42.52296262420713901519775390625" lon="19.7633315809071063995361328125">
        <ele>1822.5999755859375</ele>
        <time>2026-06-18T09:05:35.000Z</time>
        <extensions>
          <ns3:TrackPointExtension>
            <ns3:atemp>23.0</ns3:atemp>
          </ns3:TrackPointExtension>
        </extensions>
      </trkpt>
      <trkpt lat="42.5229462794959545135498046875" lon="19.76333417929708957672119140625">
        <ele>1823</ele>
        <time>2026-06-18T09:05:36.000Z</time>
        <extensions>
          <ns3:TrackPointExtension>
            <ns3:atemp>23.0</ns3:atemp>
          </ns3:TrackPointExtension>
        </extensions>
      </trkpt>
      <trkpt lat="42.522936053574085235595703125" lon="19.76332747377455234527587890625">
        <ele>1823.4000244140625</ele>
        <time>2026-06-18T09:05:37.000Z</time>
        <extensions>
          <ns3:TrackPointExtension>
            <ns3:atemp>23.0</ns3:atemp>
          </ns3:TrackPointExtension>
        </extensions>
      </trkpt>
      <trkpt lat="42.5229223072528839111328125" lon="19.7633154876530170440673828125">
        <ele>1823.800048828125</ele>
        <time>2026-06-18T09:05:38.000Z</time>
        <extensions>
          <ns3:TrackPointExtension>
            <ns3:atemp>23.0</ns3:atemp>
          </ns3:TrackPointExtension>
        </extensions>
      </trkpt>
      <trkpt lat="42.52290730364620685577392578125" lon="19.76330148987472057342529296875">
        <ele>1824.199951171875</ele>
        <time>2026-06-18T09:05:39.000Z</time>
        <extensions>
          <ns3:TrackPointExtension>
            <ns3:atemp>23.0</ns3:atemp>
          </ns3:TrackPointExtension>
        </extensions>
      </trkpt>
      <trkpt lat="42.52289288677275180816650390625" lon="19.76328388787806034088134765625">
        <ele>1824.5999755859375</ele>
        <time>2026-06-18T09:05:40.000Z</time>
        <extensions>
          <ns3:TrackPointExtension>
            <ns3:atemp>23.0</ns3:atemp>
          </ns3:TrackPointExtension>
        </extensions>
      </trkpt>
      <trkpt lat="42.52287830226123332977294921875" lon="19.76327030919492244720458984375">
        <ele>1825</ele>
        <time>2026-06-18T09:05:41.000Z</time>
        <extensions>
          <ns3:TrackPointExtension>
            <ns3:atemp>23.0</ns3:atemp>
          </ns3:TrackPointExtension>
        </extensions>
      </trkpt>
      <trkpt lat="42.52286589704453945159912109375" lon="19.7632558085024356842041015625">
        <ele>1825.199951171875</ele>
        <time>2026-06-18T09:05:42.000Z</time>
        <extensions>
          <ns3:TrackPointExtension>
            <ns3:atemp>23.0</ns3:atemp>
          </ns3:TrackPointExtension>
        </extensions>
      </trkpt>
      <trkpt lat="42.52285466529428958892822265625" lon="19.76323879323899745941162109375">
        <ele>1825.5999755859375</ele>
        <time>2026-06-18T09:05:43.000Z</time>
        <extensions>
          <ns3:TrackPointExtension>
            <ns3:atemp>23.0</ns3:atemp>
          </ns3:TrackPointExtension>
        </extensions>
      </trkpt>
      <trkpt lat="42.5228426791727542877197265625" lon="19.7632256336510181427001953125">
        <ele>1826</ele>
        <time>2026-06-18T09:05:44.000Z</time>
        <extensions>
          <ns3:TrackPointExtension>
            <ns3:atemp>23.0</ns3:atemp>
          </ns3:TrackPointExtension>
        </extensions>
      </trkpt>
      <trkpt lat="42.52283186651766300201416015625" lon="19.76320870220661163330078125">
        <ele>1826.4000244140625</ele>
        <time>2026-06-18T09:05:45.000Z</time>
        <extensions>
          <ns3:TrackPointExtension>
            <ns3:atemp>23.0</ns3:atemp>
          </ns3:TrackPointExtension>
        </extensions>
      </trkpt>
      <trkpt lat="42.52282113768160343170166015625" lon="19.76319286040961742401123046875">
        <ele>1826.800048828125</ele>
        <time>2026-06-18T09:05:46.000Z</time>
        <extensions>
          <ns3:TrackPointExtension>
            <ns3:atemp>23.0</ns3:atemp>
          </ns3:TrackPointExtension>
        </extensions>
      </trkpt>
      <trkpt lat="42.522810995578765869140625" lon="19.7631771862506866455078125">
        <ele>1827.199951171875</ele>
        <time>2026-06-18T09:05:47.000Z</time>
        <extensions>
          <ns3:TrackPointExtension>
            <ns3:atemp>23.0</ns3:atemp>
          </ns3:TrackPointExtension>
        </extensions>
      </trkpt>
      <trkpt lat="42.52279968000948429107666015625" lon="19.7631632722914218902587890625">
        <ele>1827.5999755859375</ele>
        <time>2026-06-18T09:05:48.000Z</time>
        <extensions>
          <ns3:TrackPointExtension>
            <ns3:atemp>23.0</ns3:atemp>
          </ns3:TrackPointExtension>
        </extensions>
      </trkpt>
      <trkpt lat="42.52278828062117099761962890625" lon="19.763148017227649688720703125">
        <ele>1828</ele>
        <time>2026-06-18T09:05:49.000Z</time>
        <extensions>
          <ns3:TrackPointExtension>
            <ns3:atemp>23.0</ns3:atemp>
          </ns3:TrackPointExtension>
        </extensions>
      </trkpt>
      <trkpt lat="42.52277554012835025787353515625" lon="19.76312949322164058685302734375">
        <ele>1828.4000244140625</ele>
        <time>2026-06-18T09:05:50.000Z</time>
        <extensions>
          <ns3:TrackPointExtension>
            <ns3:atemp>23.0</ns3:atemp>
          </ns3:TrackPointExtension>
        </extensions>
      </trkpt>
      <trkpt lat="42.522763051092624664306640625" lon="19.7631139867007732391357421875">
        <ele>1829</ele>
        <time>2026-06-18T09:05:51.000Z</time>
        <extensions>
          <ns3:TrackPointExtension>
            <ns3:atemp>23.0</ns3:atemp>
          </ns3:TrackPointExtension>
        </extensions>
      </trkpt>
      <trkpt lat="42.52274771220982074737548828125" lon="19.76310233585536479949951171875">
        <ele>1829.5999755859375</ele>
        <time>2026-06-18T09:05:52.000Z</time>
        <extensions>
          <ns3:TrackPointExtension>
            <ns3:atemp>23.0</ns3:atemp>
          </ns3:TrackPointExtension>
        </extensions>
      </trkpt>
      <trkpt lat="42.5227333791553974151611328125" lon="19.7630911879241466522216796875">
        <ele>1830</ele>
        <time>2026-06-18T09:05:53.000Z</time>
        <extensions>
          <ns3:TrackPointExtension>
            <ns3:atemp>23.0</ns3:atemp>
          </ns3:TrackPointExtension>
        </extensions>
      </trkpt>
      <trkpt lat="42.52272038720548152923583984375" lon="19.76307283155620098114013671875">
        <ele>1830.4000244140625</ele>
        <time>2026-06-18T09:05:54.000Z</time>
        <extensions>
          <ns3:TrackPointExtension>
            <ns3:atemp>23.0</ns3:atemp>
          </ns3:TrackPointExtension>
        </extensions>
      </trkpt>
      <trkpt lat="42.522704713046550750732421875" lon="19.76305673830211162567138671875">
        <ele>1830.800048828125</ele>
        <time>2026-06-18T09:05:55.000Z</time>
        <extensions>
          <ns3:TrackPointExtension>
            <ns3:atemp>23.0</ns3:atemp>
          </ns3:TrackPointExtension>
        </extensions>
      </trkpt>
      <trkpt lat="42.5226904638111591339111328125" lon="19.76304114796221256256103515625">
        <ele>1831.199951171875</ele>
        <time>2026-06-18T09:05:56.000Z</time>
        <extensions>
          <ns3:TrackPointExtension>
            <ns3:atemp>23.0</ns3:atemp>
          </ns3:TrackPointExtension>
        </extensions>
      </trkpt>
      <trkpt lat="42.522678561508655548095703125" lon="19.763023965060710906982421875">
        <ele>1831.4000244140625</ele>
        <time>2026-06-18T09:05:57.000Z</time>
        <extensions>
          <ns3:TrackPointExtension>
            <ns3:atemp>23.0</ns3:atemp>
          </ns3:TrackPointExtension>
        </extensions>
      </trkpt>
      <trkpt lat="42.522666491568088531494140625" lon="19.76300619542598724365234375">
        <ele>1831.5999755859375</ele>
        <time>2026-06-18T09:05:58.000Z</time>
        <extensions>
          <ns3:TrackPointExtension>
            <ns3:atemp>23.0</ns3:atemp>
          </ns3:TrackPointExtension>
        </extensions>
      </trkpt>
      <trkpt lat="42.5226540863513946533203125" lon="19.76299010217189788818359375">
        <ele>1832</ele>
        <time>2026-06-18T09:05:59.000Z</time>
        <extensions>
          <ns3:TrackPointExtension>
            <ns3:atemp>23.0</ns3:atemp>
          </ns3:TrackPointExtension>
        </extensions>
      </trkpt>
      <trkpt lat="42.5226415134966373443603515625" lon="19.7629755176603794097900390625">
        <ele>1832.199951171875</ele>
        <time>2026-06-18T09:06:00.000Z</time>
        <extensions>
          <ns3:TrackPointExtension>
            <ns3:atemp>23.0</ns3:atemp>
          </ns3:TrackPointExtension>
        </extensions>
      </trkpt>
      <trkpt lat="42.52262919209897518157958984375" lon="19.76296001113951206207275390625">
        <ele>1832.5999755859375</ele>
        <time>2026-06-18T09:06:01.000Z</time>
        <extensions>
          <ns3:TrackPointExtension>
            <ns3:atemp>23.0</ns3:atemp>
          </ns3:TrackPointExtension>
        </extensions>
      </trkpt>
      <trkpt lat="42.52261779271066188812255859375" lon="19.76294458843767642974853515625">
        <ele>1833.199951171875</ele>
        <time>2026-06-18T09:06:02.000Z</time>
        <extensions>
          <ns3:TrackPointExtension>
            <ns3:atemp>23.0</ns3:atemp>
          </ns3:TrackPointExtension>
        </extensions>
      </trkpt>
      <trkpt lat="42.522606141865253448486328125" lon="19.76293201558291912078857421875">
        <ele>1833.5999755859375</ele>
        <time>2026-06-18T09:06:03.000Z</time>
        <extensions>
          <ns3:TrackPointExtension>
            <ns3:atemp>23.0</ns3:atemp>
          </ns3:TrackPointExtension>
        </extensions>
      </trkpt>
      <trkpt lat="42.52259440720081329345703125" lon="19.76291835308074951171875">
        <ele>1834.199951171875</ele>
        <time>2026-06-18T09:06:04.000Z</time>
        <extensions>
          <ns3:TrackPointExtension>
            <ns3:atemp>23.0</ns3:atemp>
          </ns3:TrackPointExtension>
        </extensions>
      </trkpt>
      <trkpt lat="42.52258778549730777740478515625" lon="19.76290033198893070220947265625">
        <ele>1834.5999755859375</ele>
        <time>2026-06-18T09:06:05.000Z</time>
        <extensions>
          <ns3:TrackPointExtension>
            <ns3:atemp>23.0</ns3:atemp>
          </ns3:TrackPointExtension>
        </extensions>
      </trkpt>
      <trkpt lat="42.52258233726024627685546875" lon="19.7628823108971118927001953125">
        <ele>1835.199951171875</ele>
        <time>2026-06-18T09:06:06.000Z</time>
        <extensions>
          <ns3:TrackPointExtension>
            <ns3:atemp>23.0</ns3:atemp>
          </ns3:TrackPointExtension>
        </extensions>
      </trkpt>
      <trkpt lat="42.522575967013835906982421875" lon="19.76286361925303936004638671875">
        <ele>1835.5999755859375</ele>
        <time>2026-06-18T09:06:07.000Z</time>
        <extensions>
          <ns3:TrackPointExtension>
            <ns3:atemp>23.0</ns3:atemp>
          </ns3:TrackPointExtension>
        </extensions>
      </trkpt>
      <trkpt lat="42.52256850712001323699951171875" lon="19.7628511302173137664794921875">
        <ele>1836</ele>
        <time>2026-06-18T09:06:08.000Z</time>
        <extensions>
          <ns3:TrackPointExtension>
            <ns3:atemp>23.0</ns3:atemp>
          </ns3:TrackPointExtension>
        </extensions>
      </trkpt>
      <trkpt lat="42.52255442552268505096435546875" lon="19.7628414072096347808837890625">
        <ele>1836.4000244140625</ele>
        <time>2026-06-18T09:06:09.000Z</time>
        <extensions>
          <ns3:TrackPointExtension>
            <ns3:atemp>23.0</ns3:atemp>
          </ns3:TrackPointExtension>
        </extensions>
      </trkpt>
      <trkpt lat="42.52254034392535686492919921875" lon="19.76284769363701343536376953125">
        <ele>1836.5999755859375</ele>
        <time>2026-06-18T09:06:10.000Z</time>
        <extensions>
          <ns3:TrackPointExtension>
            <ns3:atemp>23.0</ns3:atemp>
          </ns3:TrackPointExtension>
        </extensions>
      </trkpt>
      <trkpt lat="42.52254118211567401885986328125" lon="19.7628571651875972747802734375">
        <ele>1836.800048828125</ele>
        <time>2026-06-18T09:06:11.000Z</time>
        <extensions>
          <ns3:TrackPointExtension>
            <ns3:atemp>23.0</ns3:atemp>
          </ns3:TrackPointExtension>
        </extensions>
      </trkpt>
      <trkpt lat="42.52254453487694263458251953125" lon="19.76285054348409175872802734375">
        <ele>1837.199951171875</ele>
        <time>2026-06-18T09:06:12.000Z</time>
        <extensions>
          <ns3:TrackPointExtension>
            <ns3:atemp>23.0</ns3:atemp>
          </ns3:TrackPointExtension>
        </extensions>
      </trkpt>
      <trkpt lat="42.522540427744388580322265625" lon="19.76285054348409175872802734375">
        <ele>1837.4000244140625</ele>
        <time>2026-06-18T09:06:13.000Z</time>
        <extensions>
          <ns3:TrackPointExtension>
            <ns3:atemp>23.0</ns3:atemp>
          </ns3:TrackPointExtension>
        </extensions>
      </trkpt>
      <trkpt lat="42.52254000864923000335693359375" lon="19.7628499567508697509765625">
        <ele>1837.5999755859375</ele>
        <time>2026-06-18T09:06:14.000Z</time>
        <extensions>
          <ns3:TrackPointExtension>
            <ns3:atemp>23.0</ns3:atemp>
          </ns3:TrackPointExtension>
        </extensions>
      </trkpt>
      <trkpt lat="42.5225426070392131805419921875" lon="19.76285305805504322052001953125">
        <ele>1837.5999755859375</ele>
        <time>2026-06-18T09:06:15.000Z</time>
        <extensions>
          <ns3:TrackPointExtension>
            <ns3:atemp>23.0</ns3:atemp>
          </ns3:TrackPointExtension>
        </extensions>
      </trkpt>
      <trkpt lat="42.5225375778973102569580078125" lon="19.762866385281085968017578125">
        <ele>1837.800048828125</ele>
        <time>2026-06-18T09:06:16.000Z</time>
        <extensions>
          <ns3:TrackPointExtension>
            <ns3:atemp>23.0</ns3:atemp>
          </ns3:TrackPointExtension>
        </extensions>
      </trkpt>
      <trkpt lat="42.52253447659313678741455078125" lon="19.76287619210779666900634765625">
        <ele>1837.800048828125</ele>
        <time>2026-06-18T09:06:17.000Z</time>
        <extensions>
          <ns3:TrackPointExtension>
            <ns3:atemp>23.0</ns3:atemp>
          </ns3:TrackPointExtension>
        </extensions>
      </trkpt>
      <trkpt lat="42.52253246493637561798095703125" lon="19.76288692094385623931884765625">
        <ele>1837.800048828125</ele>
        <time>2026-06-18T09:06:18.000Z</time>
        <extensions>
          <ns3:TrackPointExtension>
            <ns3:atemp>23.0</ns3:atemp>
          </ns3:TrackPointExtension>
        </extensions>
      </trkpt>
      <trkpt lat="42.52252869307994842529296875" lon="19.76289748214185237884521484375">
        <ele>1838</ele>
        <time>2026-06-18T09:06:19.000Z</time>
        <extensions>
          <ns3:TrackPointExtension>
            <ns3:atemp>23.0</ns3:atemp>
          </ns3:TrackPointExtension>
        </extensions>
      </trkpt>
      <trkpt lat="42.52252726815640926361083984375" lon="19.76289714686572551727294921875">
        <ele>1838</ele>
        <time>2026-06-18T09:06:20.000Z</time>
        <extensions>
          <ns3:TrackPointExtension>
            <ns3:atemp>23.0</ns3:atemp>
          </ns3:TrackPointExtension>
        </extensions>
      </trkpt>
      <trkpt lat="42.5225312076508998870849609375" lon="19.76289714686572551727294921875">
        <ele>1838.199951171875</ele>
        <time>2026-06-18T09:06:21.000Z</time>
        <extensions>
          <ns3:TrackPointExtension>
            <ns3:atemp>23.0</ns3:atemp>
          </ns3:TrackPointExtension>
        </extensions>
      </trkpt>
      <trkpt lat="42.52253129146993160247802734375" lon="19.762897230684757232666015625">
        <ele>1838.199951171875</ele>
        <time>2026-06-18T09:06:22.000Z</time>
        <extensions>
          <ns3:TrackPointExtension>
            <ns3:atemp>23.0</ns3:atemp>
          </ns3:TrackPointExtension>
        </extensions>
      </trkpt>
      <trkpt lat="42.52253129146993160247802734375" lon="19.762897230684757232666015625">
        <ele>1838.4000244140625</ele>
        <time>2026-06-18T09:06:23.000Z</time>
        <extensions>
          <ns3:TrackPointExtension>
            <ns3:atemp>23.0</ns3:atemp>
          </ns3:TrackPointExtension>
        </extensions>
      </trkpt>
      <trkpt lat="42.5225315429270267486572265625" lon="19.76289748214185237884521484375">
        <ele>1838.4000244140625</ele>
        <time>2026-06-18T09:06:24.000Z</time>
        <extensions>
          <ns3:TrackPointExtension>
            <ns3:atemp>23.0</ns3:atemp>
          </ns3:TrackPointExtension>
        </extensions>
      </trkpt>
      <trkpt lat="42.522530369460582733154296875" lon="19.762921035289764404296875">
        <ele>1838.4000244140625</ele>
        <time>2026-06-18T09:06:25.000Z</time>
        <extensions>
          <ns3:TrackPointExtension>
            <ns3:atemp>23.0</ns3:atemp>
          </ns3:TrackPointExtension>
        </extensions>
      </trkpt>
      <trkpt lat="42.522524334490299224853515625" lon="19.7629393078386783599853515625">
        <ele>1838.5999755859375</ele>
        <time>2026-06-18T09:06:26.000Z</time>
        <extensions>
          <ns3:TrackPointExtension>
            <ns3:atemp>23.0</ns3:atemp>
          </ns3:TrackPointExtension>
        </extensions>
      </trkpt>
      <trkpt lat="42.52251620404422283172607421875" lon="19.7629594244062900543212890625">
        <ele>1838.5999755859375</ele>
        <time>2026-06-18T09:06:27.000Z</time>
        <extensions>
          <ns3:TrackPointExtension>
            <ns3:atemp>23.0</ns3:atemp>
          </ns3:TrackPointExtension>
        </extensions>
      </trkpt>
      <trkpt lat="42.522510923445224761962890625" lon="19.76297442801296710968017578125">
        <ele>1839</ele>
        <time>2026-06-18T09:06:28.000Z</time>
        <extensions>
          <ns3:TrackPointExtension>
            <ns3:atemp>23.0</ns3:atemp>
          </ns3:TrackPointExtension>
        </extensions>
      </trkpt>
      <trkpt lat="42.522502206265926361083984375" lon="19.762989766895771026611328125">
        <ele>1839.199951171875</ele>
        <time>2026-06-18T09:06:29.000Z</time>
        <extensions>
          <ns3:TrackPointExtension>
            <ns3:atemp>23.0</ns3:atemp>
          </ns3:TrackPointExtension>
        </extensions>
      </trkpt>
      <trkpt lat="42.52249273471534252166748046875" lon="19.76300208829343318939208984375">
        <ele>1839.800048828125</ele>
        <time>2026-06-18T09:06:30.000Z</time>
        <extensions>
          <ns3:TrackPointExtension>
            <ns3:atemp>23.0</ns3:atemp>
          </ns3:TrackPointExtension>
        </extensions>
      </trkpt>
      <trkpt lat="42.5224849395453929901123046875" lon="19.763013236224651336669921875">
        <ele>1840.199951171875</ele>
        <time>2026-06-18T09:06:31.000Z</time>
        <extensions>
          <ns3:TrackPointExtension>
            <ns3:atemp>23.0</ns3:atemp>
          </ns3:TrackPointExtension>
        </extensions>
      </trkpt>
      <trkpt lat="42.52247848547995090484619140625" lon="19.76302773691713809967041015625">
        <ele>1840.800048828125</ele>
        <time>2026-06-18T09:06:32.000Z</time>
        <extensions>
          <ns3:TrackPointExtension>
            <ns3:atemp>23.0</ns3:atemp>
          </ns3:TrackPointExtension>
        </extensions>
      </trkpt>
      <trkpt lat="42.52247546799480915069580078125" lon="19.76304030977189540863037109375">
        <ele>1841.199951171875</ele>
        <time>2026-06-18T09:06:33.000Z</time>
        <extensions>
          <ns3:TrackPointExtension>
            <ns3:atemp>23.0</ns3:atemp>
          </ns3:TrackPointExtension>
        </extensions>
      </trkpt>
      <trkpt lat="42.52247060649096965789794921875" lon="19.763055145740509033203125">
        <ele>1841.5999755859375</ele>
        <time>2026-06-18T09:06:34.000Z</time>
        <extensions>
          <ns3:TrackPointExtension>
            <ns3:atemp>23.0</ns3:atemp>
          </ns3:TrackPointExtension>
        </extensions>
      </trkpt>
      <trkpt lat="42.52245853655040264129638671875" lon="19.76306495256721973419189453125">
        <ele>1841.800048828125</ele>
        <time>2026-06-18T09:06:35.000Z</time>
        <extensions>
          <ns3:TrackPointExtension>
            <ns3:atemp>23.0</ns3:atemp>
          </ns3:TrackPointExtension>
        </extensions>
      </trkpt>
      <trkpt lat="42.52244864590466022491455078125" lon="19.76306662894785404205322265625">
        <ele>1842</ele>
        <time>2026-06-18T09:06:36.000Z</time>
        <extensions>
          <ns3:TrackPointExtension>
            <ns3:atemp>23.0</ns3:atemp>
          </ns3:TrackPointExtension>
        </extensions>
      </trkpt>
      <trkpt lat="42.52243707887828350067138671875" lon="19.76306386291980743408203125">
        <ele>1842.4000244140625</ele>
        <time>2026-06-18T09:06:37.000Z</time>
        <extensions>
          <ns3:TrackPointExtension>
            <ns3:atemp>23.0</ns3:atemp>
          </ns3:TrackPointExtension>
        </extensions>
      </trkpt>
      <trkpt lat="42.5224287807941436767578125" lon="19.76305388845503330230712890625">
        <ele>1842.5999755859375</ele>
        <time>2026-06-18T09:06:38.000Z</time>
        <extensions>
          <ns3:TrackPointExtension>
            <ns3:atemp>23.0</ns3:atemp>
          </ns3:TrackPointExtension>
        </extensions>
      </trkpt>
      <trkpt lat="42.5224215723574161529541015625" lon="19.76303360424935817718505859375">
        <ele>1843</ele>
        <time>2026-06-18T09:06:39.000Z</time>
        <extensions>
          <ns3:TrackPointExtension>
            <ns3:atemp>23.0</ns3:atemp>
          </ns3:TrackPointExtension>
        </extensions>
      </trkpt>
      <trkpt lat="42.5224152021110057830810546875" lon="19.7630110569298267364501953125">
        <ele>1843.4000244140625</ele>
        <time>2026-06-18T09:06:40.000Z</time>
        <extensions>
          <ns3:TrackPointExtension>
            <ns3:atemp>23.0</ns3:atemp>
          </ns3:TrackPointExtension>
        </extensions>
      </trkpt>
      <trkpt lat="42.52240539528429508209228515625" lon="19.76298901252448558807373046875">
        <ele>1843.800048828125</ele>
        <time>2026-06-18T09:06:41.000Z</time>
        <extensions>
          <ns3:TrackPointExtension>
            <ns3:atemp>22.0</ns3:atemp>
          </ns3:TrackPointExtension>
        </extensions>
      </trkpt>
      <trkpt lat="42.52239860594272613525390625" lon="19.7629652917385101318359375">
        <ele>1844.4000244140625</ele>
        <time>2026-06-18T09:06:42.000Z</time>
        <extensions>
          <ns3:TrackPointExtension>
            <ns3:atemp>22.0</ns3:atemp>
          </ns3:TrackPointExtension>
        </extensions>
      </trkpt>
      <trkpt lat="42.52238963730633258819580078125" lon="19.76294810883700847625732421875">
        <ele>1844.800048828125</ele>
        <time>2026-06-18T09:06:43.000Z</time>
        <extensions>
          <ns3:TrackPointExtension>
            <ns3:atemp>22.0</ns3:atemp>
          </ns3:TrackPointExtension>
        </extensions>
      </trkpt>
      <trkpt lat="42.522382847964763641357421875" lon="19.762929417192935943603515625">
        <ele>1845.199951171875</ele>
        <time>2026-06-18T09:06:44.000Z</time>
        <extensions>
          <ns3:TrackPointExtension>
            <ns3:atemp>22.0</ns3:atemp>
          </ns3:TrackPointExtension>
        </extensions>
      </trkpt>
      <trkpt lat="42.5223742984235286712646484375" lon="19.7629081271588802337646484375">
        <ele>1845.800048828125</ele>
        <time>2026-06-18T09:06:45.000Z</time>
        <extensions>
          <ns3:TrackPointExtension>
            <ns3:atemp>22.0</ns3:atemp>
          </ns3:TrackPointExtension>
        </extensions>
      </trkpt>
      <trkpt lat="42.522362060844898223876953125" lon="19.76288507692515850067138671875">
        <ele>1846.199951171875</ele>
        <time>2026-06-18T09:06:46.000Z</time>
        <extensions>
          <ns3:TrackPointExtension>
            <ns3:atemp>22.0</ns3:atemp>
          </ns3:TrackPointExtension>
        </extensions>
      </trkpt>
      <trkpt lat="42.5223501585423946380615234375" lon="19.76286428980529308319091796875">
        <ele>1846.5999755859375</ele>
        <time>2026-06-18T09:06:47.000Z</time>
        <extensions>
          <ns3:TrackPointExtension>
            <ns3:atemp>22.0</ns3:atemp>
          </ns3:TrackPointExtension>
        </extensions>
      </trkpt>
      <trkpt lat="42.5223421119153499603271484375" lon="19.76285674609243869781494140625">
        <ele>1847</ele>
        <time>2026-06-18T09:06:48.000Z</time>
        <extensions>
          <ns3:TrackPointExtension>
            <ns3:atemp>22.0</ns3:atemp>
          </ns3:TrackPointExtension>
        </extensions>
      </trkpt>
      <trkpt lat="42.52232794649899005889892578125" lon="19.76284769363701343536376953125">
        <ele>1847.4000244140625</ele>
        <time>2026-06-18T09:06:49.000Z</time>
        <extensions>
          <ns3:TrackPointExtension>
            <ns3:atemp>22.0</ns3:atemp>
          </ns3:TrackPointExtension>
        </extensions>
      </trkpt>
      <trkpt lat="42.5223105959594249725341796875" lon="19.762839563190937042236328125">
        <ele>1847.800048828125</ele>
        <time>2026-06-18T09:06:50.000Z</time>
        <extensions>
          <ns3:TrackPointExtension>
            <ns3:atemp>22.0</ns3:atemp>
          </ns3:TrackPointExtension>
        </extensions>
      </trkpt>
      <trkpt lat="42.52229492180049419403076171875" lon="19.7628279961645603179931640625">
        <ele>1848</ele>
        <time>2026-06-18T09:06:51.000Z</time>
        <extensions>
          <ns3:TrackPointExtension>
            <ns3:atemp>22.0</ns3:atemp>
          </ns3:TrackPointExtension>
        </extensions>
      </trkpt>
      <trkpt lat="42.52227631397545337677001953125" lon="19.76281014271080493927001953125">
        <ele>1848.4000244140625</ele>
        <time>2026-06-18T09:06:52.000Z</time>
        <extensions>
          <ns3:TrackPointExtension>
            <ns3:atemp>22.0</ns3:atemp>
          </ns3:TrackPointExtension>
        </extensions>
      </trkpt>
      <trkpt lat="42.52225854434072971343994140625" lon="19.76279295980930328369140625">
        <ele>1848.4000244140625</ele>
        <time>2026-06-18T09:06:53.000Z</time>
        <extensions>
          <ns3:TrackPointExtension>
            <ns3:atemp>22.0</ns3:atemp>
          </ns3:TrackPointExtension>
        </extensions>
      </trkpt>
      <trkpt lat="42.52224278636276721954345703125" lon="19.762785919010639190673828125">
        <ele>1848.4000244140625</ele>
        <time>2026-06-18T09:06:54.000Z</time>
        <extensions>
          <ns3:TrackPointExtension>
            <ns3:atemp>22.0</ns3:atemp>
          </ns3:TrackPointExtension>
        </extensions>
      </trkpt>
      <trkpt lat="42.52222719602286815643310546875" lon="19.76277954876422882080078125">
        <ele>1848.4000244140625</ele>
        <time>2026-06-18T09:06:55.000Z</time>
        <extensions>
          <ns3:TrackPointExtension>
            <ns3:atemp>22.0</ns3:atemp>
          </ns3:TrackPointExtension>
        </extensions>
      </trkpt>
      <trkpt lat="42.5222120247781276702880859375" lon="19.762770831584930419921875">
        <ele>1848.4000244140625</ele>
        <time>2026-06-18T09:06:56.000Z</time>
        <extensions>
          <ns3:TrackPointExtension>
            <ns3:atemp>22.0</ns3:atemp>
          </ns3:TrackPointExtension>
        </extensions>
      </trkpt>
      <trkpt lat="42.52219417132437229156494140625" lon="19.762765131890773773193359375">
        <ele>1848.4000244140625</ele>
        <time>2026-06-18T09:06:57.000Z</time>
        <extensions>
          <ns3:TrackPointExtension>
            <ns3:atemp>22.0</ns3:atemp>
          </ns3:TrackPointExtension>
        </extensions>
      </trkpt>
      <trkpt lat="42.52217656932771205902099609375" lon="19.7627612762153148651123046875">
        <ele>1848.5999755859375</ele>
        <time>2026-06-18T09:06:58.000Z</time>
        <extensions>
          <ns3:TrackPointExtension>
            <ns3:atemp>22.0</ns3:atemp>
          </ns3:TrackPointExtension>
        </extensions>
      </trkpt>
      <trkpt lat="42.52215896733105182647705078125" lon="19.7627606056630611419677734375">
        <ele>1848.800048828125</ele>
        <time>2026-06-18T09:06:59.000Z</time>
        <extensions>
          <ns3:TrackPointExtension>
            <ns3:atemp>22.0</ns3:atemp>
          </ns3:TrackPointExtension>
        </extensions>
      </trkpt>
      <trkpt lat="42.52214647829532623291015625" lon="19.76275934837758541107177734375">
        <ele>1849</ele>
        <time>2026-06-18T09:07:00.000Z</time>
        <extensions>
          <ns3:TrackPointExtension>
            <ns3:atemp>22.0</ns3:atemp>
          </ns3:TrackPointExtension>
        </extensions>
      </trkpt>
      <trkpt lat="42.52213348634541034698486328125" lon="19.7627552412450313568115234375">
        <ele>1849.4000244140625</ele>
        <time>2026-06-18T09:07:01.000Z</time>
        <extensions>
          <ns3:TrackPointExtension>
            <ns3:atemp>22.0</ns3:atemp>
          </ns3:TrackPointExtension>
        </extensions>
      </trkpt>
      <trkpt lat="42.52211789600551128387451171875" lon="19.76274736225605010986328125">
        <ele>1849.5999755859375</ele>
        <time>2026-06-18T09:07:02.000Z</time>
        <extensions>
          <ns3:TrackPointExtension>
            <ns3:atemp>22.0</ns3:atemp>
          </ns3:TrackPointExtension>
        </extensions>
      </trkpt>
      <trkpt lat="42.5221087597310543060302734375" lon="19.76274199783802032470703125">
        <ele>1850</ele>
        <time>2026-06-18T09:07:03.000Z</time>
        <extensions>
          <ns3:TrackPointExtension>
            <ns3:atemp>22.0</ns3:atemp>
          </ns3:TrackPointExtension>
        </extensions>
      </trkpt>
      <trkpt lat="42.52210557460784912109375" lon="19.76273671723902225494384765625">
        <ele>1850.4000244140625</ele>
        <time>2026-06-18T09:07:04.000Z</time>
        <extensions>
          <ns3:TrackPointExtension>
            <ns3:atemp>22.0</ns3:atemp>
          </ns3:TrackPointExtension>
        </extensions>
      </trkpt>
      <trkpt lat="42.5220976956188678741455078125" lon="19.76273906417191028594970703125">
        <ele>1850.800048828125</ele>
        <time>2026-06-18T09:07:05.000Z</time>
        <extensions>
          <ns3:TrackPointExtension>
            <ns3:atemp>22.0</ns3:atemp>
          </ns3:TrackPointExtension>
        </extensions>
      </trkpt>
      <trkpt lat="42.52209677360951900482177734375" lon="19.762739650905132293701171875">
        <ele>1851.199951171875</ele>
        <time>2026-06-18T09:07:06.000Z</time>
        <extensions>
          <ns3:TrackPointExtension>
            <ns3:atemp>22.0</ns3:atemp>
          </ns3:TrackPointExtension>
        </extensions>
      </trkpt>
      <trkpt lat="42.5220966897904872894287109375" lon="19.762739650905132293701171875">
        <ele>1851.4000244140625</ele>
        <time>2026-06-18T09:07:07.000Z</time>
        <extensions>
          <ns3:TrackPointExtension>
            <ns3:atemp>22.0</ns3:atemp>
          </ns3:TrackPointExtension>
        </extensions>
      </trkpt>
      <trkpt lat="42.5220966897904872894287109375" lon="19.762739650905132293701171875">
        <ele>1851.5999755859375</ele>
        <time>2026-06-18T09:07:08.000Z</time>
        <extensions>
          <ns3:TrackPointExtension>
            <ns3:atemp>22.0</ns3:atemp>
          </ns3:TrackPointExtension>
        </extensions>
      </trkpt>
      <trkpt lat="42.5220966897904872894287109375" lon="19.76273973472416400909423828125">
        <ele>1851.5999755859375</ele>
        <time>2026-06-18T09:07:09.000Z</time>
        <extensions>
          <ns3:TrackPointExtension>
            <ns3:atemp>22.0</ns3:atemp>
          </ns3:TrackPointExtension>
        </extensions>
      </trkpt>
      <trkpt lat="42.52209090627729892730712890625" lon="19.76274157874286174774169921875">
        <ele>1851.5999755859375</ele>
        <time>2026-06-18T09:07:10.000Z</time>
        <extensions>
          <ns3:TrackPointExtension>
            <ns3:atemp>22.0</ns3:atemp>
          </ns3:TrackPointExtension>
        </extensions>
      </trkpt>
      <trkpt lat="42.52208235673606395721435546875" lon="19.7627453505992889404296875">
        <ele>1851.4000244140625</ele>
        <time>2026-06-18T09:07:11.000Z</time>
        <extensions>
          <ns3:TrackPointExtension>
            <ns3:atemp>22.0</ns3:atemp>
          </ns3:TrackPointExtension>
        </extensions>
      </trkpt>
      <trkpt lat="42.5220795907080173492431640625" lon="19.76274761371314525604248046875">
        <ele>1851.4000244140625</ele>
        <time>2026-06-18T09:07:12.000Z</time>
        <extensions>
          <ns3:TrackPointExtension>
            <ns3:atemp>22.0</ns3:atemp>
          </ns3:TrackPointExtension>
        </extensions>
      </trkpt>
      <trkpt lat="42.5220718793570995330810546875" lon="19.76274895481765270233154296875">
        <ele>1851.4000244140625</ele>
        <time>2026-06-18T09:07:13.000Z</time>
        <extensions>
          <ns3:TrackPointExtension>
            <ns3:atemp>22.0</ns3:atemp>
          </ns3:TrackPointExtension>
        </extensions>
      </trkpt>
      <trkpt lat="42.52206877805292606353759765625" lon="19.76274979300796985626220703125">
        <ele>1851.4000244140625</ele>
        <time>2026-06-18T09:07:14.000Z</time>
        <extensions>
          <ns3:TrackPointExtension>
            <ns3:atemp>22.0</ns3:atemp>
          </ns3:TrackPointExtension>
        </extensions>
      </trkpt>
      <trkpt lat="42.52206869423389434814453125" lon="19.7627498768270015716552734375">
        <ele>1851.5999755859375</ele>
        <time>2026-06-18T09:07:15.000Z</time>
        <extensions>
          <ns3:TrackPointExtension>
            <ns3:atemp>22.0</ns3:atemp>
          </ns3:TrackPointExtension>
        </extensions>
      </trkpt>
      <trkpt lat="42.5220621563494205474853515625" lon="19.7627471946179866790771484375">
        <ele>1851.800048828125</ele>
        <time>2026-06-18T09:07:16.000Z</time>
        <extensions>
          <ns3:TrackPointExtension>
            <ns3:atemp>22.0</ns3:atemp>
          </ns3:TrackPointExtension>
        </extensions>
      </trkpt>
      <trkpt lat="42.522061653435230255126953125" lon="19.76274727843701839447021484375">
        <ele>1852</ele>
        <time>2026-06-18T09:07:17.000Z</time>
        <extensions>
          <ns3:TrackPointExtension>
            <ns3:atemp>22.0</ns3:atemp>
          </ns3:TrackPointExtension>
        </extensions>
      </trkpt>
      <trkpt lat="42.522061653435230255126953125" lon="19.76274727843701839447021484375">
        <ele>1852</ele>
        <time>2026-06-18T09:07:18.000Z</time>
        <extensions>
          <ns3:TrackPointExtension>
            <ns3:atemp>22.0</ns3:atemp>
          </ns3:TrackPointExtension>
        </extensions>
      </trkpt>
      <trkpt lat="42.522061653435230255126953125" lon="19.76274727843701839447021484375">
        <ele>1852.199951171875</ele>
        <time>2026-06-18T09:07:19.000Z</time>
        <extensions>
          <ns3:TrackPointExtension>
            <ns3:atemp>22.0</ns3:atemp>
          </ns3:TrackPointExtension>
        </extensions>
      </trkpt>
      <trkpt lat="42.5220611505210399627685546875" lon="19.7627471946179866790771484375">
        <ele>1852.199951171875</ele>
        <time>2026-06-18T09:07:20.000Z</time>
        <extensions>
          <ns3:TrackPointExtension>
            <ns3:atemp>22.0</ns3:atemp>
          </ns3:TrackPointExtension>
        </extensions>
      </trkpt>
      <trkpt lat="42.52204991877079010009765625" lon="19.76274291984736919403076171875">
        <ele>1852.4000244140625</ele>
        <time>2026-06-18T09:07:21.000Z</time>
        <extensions>
          <ns3:TrackPointExtension>
            <ns3:atemp>22.0</ns3:atemp>
          </ns3:TrackPointExtension>
        </extensions>
      </trkpt>
      <trkpt lat="42.52204463817179203033447265625" lon="19.76274074055254459381103515625">
        <ele>1852.5999755859375</ele>
        <time>2026-06-18T09:07:22.000Z</time>
        <extensions>
          <ns3:TrackPointExtension>
            <ns3:atemp>22.0</ns3:atemp>
          </ns3:TrackPointExtension>
        </extensions>
      </trkpt>
      <trkpt lat="42.52204162068665027618408203125" lon="19.76274074055254459381103515625">
        <ele>1852.800048828125</ele>
        <time>2026-06-18T09:07:23.000Z</time>
        <extensions>
          <ns3:TrackPointExtension>
            <ns3:atemp>22.0</ns3:atemp>
          </ns3:TrackPointExtension>
        </extensions>
      </trkpt>
      <trkpt lat="42.52204162068665027618408203125" lon="19.76274065673351287841796875">
        <ele>1853</ele>
        <time>2026-06-18T09:07:24.000Z</time>
        <extensions>
          <ns3:TrackPointExtension>
            <ns3:atemp>22.0</ns3:atemp>
          </ns3:TrackPointExtension>
        </extensions>
      </trkpt>
      <trkpt lat="42.52202854491770267486572265625" lon="19.7627347894012928009033203125">
        <ele>1853</ele>
        <time>2026-06-18T09:07:25.000Z</time>
        <extensions>
          <ns3:TrackPointExtension>
            <ns3:atemp>22.0</ns3:atemp>
          </ns3:TrackPointExtension>
        </extensions>
      </trkpt>
      <trkpt lat="42.52201882191002368927001953125" lon="19.7627324424684047698974609375">
        <ele>1853.199951171875</ele>
        <time>2026-06-18T09:07:26.000Z</time>
        <extensions>
          <ns3:TrackPointExtension>
            <ns3:atemp>22.0</ns3:atemp>
          </ns3:TrackPointExtension>
        </extensions>
      </trkpt>
      <trkpt lat="42.5220091827213764190673828125" lon="19.76272598840296268463134765625">
        <ele>1853.199951171875</ele>
        <time>2026-06-18T09:07:27.000Z</time>
        <extensions>
          <ns3:TrackPointExtension>
            <ns3:atemp>22.0</ns3:atemp>
          </ns3:TrackPointExtension>
        </extensions>
      </trkpt>
      <trkpt lat="42.52199853770434856414794921875" lon="19.76271827705204486846923828125">
        <ele>1853.4000244140625</ele>
        <time>2026-06-18T09:07:28.000Z</time>
        <extensions>
          <ns3:TrackPointExtension>
            <ns3:atemp>22.0</ns3:atemp>
          </ns3:TrackPointExtension>
        </extensions>
      </trkpt>
      <trkpt lat="42.5219890661537647247314453125" lon="19.76270872168242931365966796875">
        <ele>1853.4000244140625</ele>
        <time>2026-06-18T09:07:29.000Z</time>
        <extensions>
          <ns3:TrackPointExtension>
            <ns3:atemp>22.0</ns3:atemp>
          </ns3:TrackPointExtension>
        </extensions>
      </trkpt>
      <trkpt lat="42.52197724767029285430908203125" lon="19.76269916631281375885009765625">
        <ele>1853.5999755859375</ele>
        <time>2026-06-18T09:07:30.000Z</time>
        <extensions>
          <ns3:TrackPointExtension>
            <ns3:atemp>22.0</ns3:atemp>
          </ns3:TrackPointExtension>
        </extensions>
      </trkpt>
      <trkpt lat="42.5219682790338993072509765625" lon="19.76269279606640338897705078125">
        <ele>1853.800048828125</ele>
        <time>2026-06-18T09:07:31.000Z</time>
        <extensions>
          <ns3:TrackPointExtension>
            <ns3:atemp>22.0</ns3:atemp>
          </ns3:TrackPointExtension>
        </extensions>
      </trkpt>
      <trkpt lat="42.52195796929299831390380859375" lon="19.76268826983869075775146484375">
        <ele>1854</ele>
        <time>2026-06-18T09:07:32.000Z</time>
        <extensions>
          <ns3:TrackPointExtension>
            <ns3:atemp>22.0</ns3:atemp>
          </ns3:TrackPointExtension>
        </extensions>
      </trkpt>
      <trkpt lat="42.52195059321820735931396484375" lon="19.76268726401031017303466796875">
        <ele>1854.4000244140625</ele>
        <time>2026-06-18T09:07:33.000Z</time>
        <extensions>
          <ns3:TrackPointExtension>
            <ns3:atemp>22.0</ns3:atemp>
          </ns3:TrackPointExtension>
        </extensions>
      </trkpt>
      <trkpt lat="42.52193994820117950439453125" lon="19.76268525235354900360107421875">
        <ele>1854.5999755859375</ele>
        <time>2026-06-18T09:07:34.000Z</time>
        <extensions>
          <ns3:TrackPointExtension>
            <ns3:atemp>22.0</ns3:atemp>
          </ns3:TrackPointExtension>
        </extensions>
      </trkpt>
      <trkpt lat="42.52192829735577106475830078125" lon="19.76267804391682147979736328125">
        <ele>1855</ele>
        <time>2026-06-18T09:07:35.000Z</time>
        <extensions>
          <ns3:TrackPointExtension>
            <ns3:atemp>22.0</ns3:atemp>
          </ns3:TrackPointExtension>
        </extensions>
      </trkpt>
      <trkpt lat="42.52191840671002864837646484375" lon="19.76267284713685512542724609375">
        <ele>1855.5999755859375</ele>
        <time>2026-06-18T09:07:36.000Z</time>
        <extensions>
          <ns3:TrackPointExtension>
            <ns3:atemp>22.0</ns3:atemp>
          </ns3:TrackPointExtension>
        </extensions>
      </trkpt>
      <trkpt lat="42.52191605977714061737060546875" lon="19.7626687400043010711669921875">
        <ele>1856</ele>
        <time>2026-06-18T09:07:37.000Z</time>
        <extensions>
          <ns3:TrackPointExtension>
            <ns3:atemp>22.0</ns3:atemp>
          </ns3:TrackPointExtension>
        </extensions>
      </trkpt>
      <trkpt lat="42.52191807143390178680419921875" lon="19.762670584022998809814453125">
        <ele>1856.4000244140625</ele>
        <time>2026-06-18T09:07:38.000Z</time>
        <extensions>
          <ns3:TrackPointExtension>
            <ns3:atemp>22.0</ns3:atemp>
          </ns3:TrackPointExtension>
        </extensions>
      </trkpt>
      <trkpt lat="42.52191807143390178680419921875" lon="19.7626707516610622406005859375">
        <ele>1856.800048828125</ele>
        <time>2026-06-18T09:07:39.000Z</time>
        <extensions>
          <ns3:TrackPointExtension>
            <ns3:atemp>22.0</ns3:atemp>
          </ns3:TrackPointExtension>
        </extensions>
      </trkpt>
      <trkpt lat="42.52191807143390178680419921875" lon="19.762670584022998809814453125">
        <ele>1857</ele>
        <time>2026-06-18T09:07:40.000Z</time>
        <extensions>
          <ns3:TrackPointExtension>
            <ns3:atemp>22.0</ns3:atemp>
          </ns3:TrackPointExtension>
        </extensions>
      </trkpt>
      <trkpt lat="42.52191807143390178680419921875" lon="19.762670584022998809814453125">
        <ele>1857.199951171875</ele>
        <time>2026-06-18T09:07:41.000Z</time>
        <extensions>
          <ns3:TrackPointExtension>
            <ns3:atemp>22.0</ns3:atemp>
          </ns3:TrackPointExtension>
        </extensions>
      </trkpt>
      <trkpt lat="42.521920502185821533203125" lon="19.76267636753618717193603515625">
        <ele>1857.199951171875</ele>
        <time>2026-06-18T09:07:42.000Z</time>
        <extensions>
          <ns3:TrackPointExtension>
            <ns3:atemp>22.0</ns3:atemp>
          </ns3:TrackPointExtension>
        </extensions>
      </trkpt>
      <trkpt lat="42.52191538922488689422607421875" lon="19.762663543224334716796875">
        <ele>1857.199951171875</ele>
        <time>2026-06-18T09:07:43.000Z</time>
        <extensions>
          <ns3:TrackPointExtension>
            <ns3:atemp>22.0</ns3:atemp>
          </ns3:TrackPointExtension>
        </extensions>
      </trkpt>
      <trkpt lat="42.52191044390201568603515625" lon="19.762645103037357330322265625">
        <ele>1857</ele>
        <time>2026-06-18T09:07:44.000Z</time>
        <extensions>
          <ns3:TrackPointExtension>
            <ns3:atemp>22.0</ns3:atemp>
          </ns3:TrackPointExtension>
        </extensions>
      </trkpt>
      <trkpt lat="42.5219062529504299163818359375" lon="19.76262724958360195159912109375">
        <ele>1857</ele>
        <time>2026-06-18T09:07:45.000Z</time>
        <extensions>
          <ns3:TrackPointExtension>
            <ns3:atemp>22.0</ns3:atemp>
          </ns3:TrackPointExtension>
        </extensions>
      </trkpt>
      <trkpt lat="42.521901391446590423583984375" lon="19.76261031813919544219970703125">
        <ele>1857</ele>
        <time>2026-06-18T09:07:46.000Z</time>
        <extensions>
          <ns3:TrackPointExtension>
            <ns3:atemp>22.0</ns3:atemp>
          </ns3:TrackPointExtension>
        </extensions>
      </trkpt>
      <trkpt lat="42.5218915008008480072021484375" lon="19.762590788304805755615234375">
        <ele>1857.199951171875</ele>
        <time>2026-06-18T09:07:47.000Z</time>
        <extensions>
          <ns3:TrackPointExtension>
            <ns3:atemp>22.0</ns3:atemp>
          </ns3:TrackPointExtension>
        </extensions>
      </trkpt>
      <trkpt lat="42.52188001759350299835205078125" lon="19.76257444359362125396728515625">
        <ele>1857.5999755859375</ele>
        <time>2026-06-18T09:07:48.000Z</time>
        <extensions>
          <ns3:TrackPointExtension>
            <ns3:atemp>22.0</ns3:atemp>
          </ns3:TrackPointExtension>
        </extensions>
      </trkpt>
      <trkpt lat="42.52187062986195087432861328125" lon="19.7625651396811008453369140625">
        <ele>1858</ele>
        <time>2026-06-18T09:07:49.000Z</time>
        <extensions>
          <ns3:TrackPointExtension>
            <ns3:atemp>22.0</ns3:atemp>
          </ns3:TrackPointExtension>
        </extensions>
      </trkpt>
      <trkpt lat="42.52186425961554050445556640625" lon="19.76254812441766262054443359375">
        <ele>1858.4000244140625</ele>
        <time>2026-06-18T09:07:50.000Z</time>
        <extensions>
          <ns3:TrackPointExtension>
            <ns3:atemp>22.0</ns3:atemp>
          </ns3:TrackPointExtension>
        </extensions>
      </trkpt>
      <trkpt lat="42.521859817206859588623046875" lon="19.7625292651355266571044921875">
        <ele>1858.800048828125</ele>
        <time>2026-06-18T09:07:51.000Z</time>
        <extensions>
          <ns3:TrackPointExtension>
            <ns3:atemp>22.0</ns3:atemp>
          </ns3:TrackPointExtension>
        </extensions>
      </trkpt>
      <trkpt lat="42.5218495912849903106689453125" lon="19.76250864565372467041015625">
        <ele>1859.199951171875</ele>
        <time>2026-06-18T09:07:52.000Z</time>
        <extensions>
          <ns3:TrackPointExtension>
            <ns3:atemp>22.0</ns3:atemp>
          </ns3:TrackPointExtension>
        </extensions>
      </trkpt>
      <trkpt lat="42.52184313721954822540283203125" lon="19.76248861290514469146728515625">
        <ele>1859.5999755859375</ele>
        <time>2026-06-18T09:07:53.000Z</time>
        <extensions>
          <ns3:TrackPointExtension>
            <ns3:atemp>22.0</ns3:atemp>
          </ns3:TrackPointExtension>
        </extensions>
      </trkpt>
      <trkpt lat="42.5218360126018524169921875" lon="19.7624685801565647125244140625">
        <ele>1860</ele>
        <time>2026-06-18T09:07:54.000Z</time>
        <extensions>
          <ns3:TrackPointExtension>
            <ns3:atemp>22.0</ns3:atemp>
          </ns3:TrackPointExtension>
        </extensions>
      </trkpt>
      <trkpt lat="42.521826289594173431396484375" lon="19.7624467872083187103271484375">
        <ele>1860.5999755859375</ele>
        <time>2026-06-18T09:07:55.000Z</time>
        <extensions>
          <ns3:TrackPointExtension>
            <ns3:atemp>22.0</ns3:atemp>
          </ns3:TrackPointExtension>
        </extensions>
      </trkpt>
      <trkpt lat="42.5218190811574459075927734375" lon="19.7624303586781024932861328125">
        <ele>1861</ele>
        <time>2026-06-18T09:07:56.000Z</time>
        <extensions>
          <ns3:TrackPointExtension>
            <ns3:atemp>22.0</ns3:atemp>
          </ns3:TrackPointExtension>
        </extensions>
      </trkpt>
      <trkpt lat="42.521814219653606414794921875" lon="19.7624115832149982452392578125">
        <ele>1861.4000244140625</ele>
        <time>2026-06-18T09:07:57.000Z</time>
        <extensions>
          <ns3:TrackPointExtension>
            <ns3:atemp>22.0</ns3:atemp>
          </ns3:TrackPointExtension>
        </extensions>
      </trkpt>
      <trkpt lat="42.52180910669267177581787109375" lon="19.76238987408578395843505859375">
        <ele>1861.800048828125</ele>
        <time>2026-06-18T09:07:58.000Z</time>
        <extensions>
          <ns3:TrackPointExtension>
            <ns3:atemp>22.0</ns3:atemp>
          </ns3:TrackPointExtension>
        </extensions>
      </trkpt>
      <trkpt lat="42.5218029879033565521240234375" lon="19.76237009279429912567138671875">
        <ele>1862.199951171875</ele>
        <time>2026-06-18T09:07:59.000Z</time>
        <extensions>
          <ns3:TrackPointExtension>
            <ns3:atemp>22.0</ns3:atemp>
          </ns3:TrackPointExtension>
        </extensions>
      </trkpt>
      <trkpt lat="42.52179435454308986663818359375" lon="19.7623495571315288543701171875">
        <ele>1862.800048828125</ele>
        <time>2026-06-18T09:08:00.000Z</time>
        <extensions>
          <ns3:TrackPointExtension>
            <ns3:atemp>22.0</ns3:atemp>
          </ns3:TrackPointExtension>
        </extensions>
      </trkpt>
      <trkpt lat="42.52178899012506008148193359375" lon="19.76232650689780712127685546875">
        <ele>1863.4000244140625</ele>
        <time>2026-06-18T09:08:01.000Z</time>
        <extensions>
          <ns3:TrackPointExtension>
            <ns3:atemp>22.0</ns3:atemp>
          </ns3:TrackPointExtension>
        </extensions>
      </trkpt>
      <trkpt lat="42.52178496681153774261474609375" lon="19.762300439178943634033203125">
        <ele>1863.800048828125</ele>
        <time>2026-06-18T09:08:02.000Z</time>
        <extensions>
          <ns3:TrackPointExtension>
            <ns3:atemp>22.0</ns3:atemp>
          </ns3:TrackPointExtension>
        </extensions>
      </trkpt>
      <trkpt lat="42.52178278751671314239501953125" lon="19.7622778080403804779052734375">
        <ele>1864.199951171875</ele>
        <time>2026-06-18T09:08:03.000Z</time>
        <extensions>
          <ns3:TrackPointExtension>
            <ns3:atemp>22.0</ns3:atemp>
          </ns3:TrackPointExtension>
        </extensions>
      </trkpt>
      <trkpt lat="42.5217825360596179962158203125" lon="19.76225643418729305267333984375">
        <ele>1864.5999755859375</ele>
        <time>2026-06-18T09:08:04.000Z</time>
        <extensions>
          <ns3:TrackPointExtension>
            <ns3:atemp>22.0</ns3:atemp>
          </ns3:TrackPointExtension>
        </extensions>
      </trkpt>
      <trkpt lat="42.52178781665861606597900390625" lon="19.76223480887711048126220703125">
        <ele>1864.800048828125</ele>
        <time>2026-06-18T09:08:05.000Z</time>
        <extensions>
          <ns3:TrackPointExtension>
            <ns3:atemp>22.0</ns3:atemp>
          </ns3:TrackPointExtension>
        </extensions>
      </trkpt>
      <trkpt lat="42.5217919237911701202392578125" lon="19.76221502758562564849853515625">
        <ele>1865.199951171875</ele>
        <time>2026-06-18T09:08:06.000Z</time>
        <extensions>
          <ns3:TrackPointExtension>
            <ns3:atemp>22.0</ns3:atemp>
          </ns3:TrackPointExtension>
        </extensions>
      </trkpt>
      <trkpt lat="42.5217919237911701202392578125" lon="19.762193150818347930908203125">
        <ele>1865.4000244140625</ele>
        <time>2026-06-18T09:08:07.000Z</time>
        <extensions>
          <ns3:TrackPointExtension>
            <ns3:atemp>22.0</ns3:atemp>
          </ns3:TrackPointExtension>
        </extensions>
      </trkpt>
      <trkpt lat="42.52178974449634552001953125" lon="19.7621721960604190826416015625">
        <ele>1865.800048828125</ele>
        <time>2026-06-18T09:08:08.000Z</time>
        <extensions>
          <ns3:TrackPointExtension>
            <ns3:atemp>22.0</ns3:atemp>
          </ns3:TrackPointExtension>
        </extensions>
      </trkpt>
      <trkpt lat="42.5217828713357448577880859375" lon="19.76215635426342487335205078125">
        <ele>1866.199951171875</ele>
        <time>2026-06-18T09:08:09.000Z</time>
        <extensions>
          <ns3:TrackPointExtension>
            <ns3:atemp>22.0</ns3:atemp>
          </ns3:TrackPointExtension>
        </extensions>
      </trkpt>
      <trkpt lat="42.521770633757114410400390625" lon="19.76214210502803325653076171875">
        <ele>1866.5999755859375</ele>
        <time>2026-06-18T09:08:10.000Z</time>
        <extensions>
          <ns3:TrackPointExtension>
            <ns3:atemp>22.0</ns3:atemp>
          </ns3:TrackPointExtension>
        </extensions>
      </trkpt>
      <trkpt lat="42.521764934062957763671875" lon="19.76215518079698085784912109375">
        <ele>1867.199951171875</ele>
        <time>2026-06-18T09:08:11.000Z</time>
        <extensions>
          <ns3:TrackPointExtension>
            <ns3:atemp>22.0</ns3:atemp>
          </ns3:TrackPointExtension>
        </extensions>
      </trkpt>
      <trkpt lat="42.52176828682422637939453125" lon="19.7621606290340423583984375">
        <ele>1867.800048828125</ele>
        <time>2026-06-18T09:08:12.000Z</time>
        <extensions>
          <ns3:TrackPointExtension>
            <ns3:atemp>22.0</ns3:atemp>
          </ns3:TrackPointExtension>
        </extensions>
      </trkpt>
      <trkpt lat="42.52176828682422637939453125" lon="19.7621604613959789276123046875">
        <ele>1868.199951171875</ele>
        <time>2026-06-18T09:08:13.000Z</time>
        <extensions>
          <ns3:TrackPointExtension>
            <ns3:atemp>22.0</ns3:atemp>
          </ns3:TrackPointExtension>
        </extensions>
      </trkpt>
      <trkpt lat="42.52176828682422637939453125" lon="19.7621604613959789276123046875">
        <ele>1868.800048828125</ele>
        <time>2026-06-18T09:08:14.000Z</time>
        <extensions>
          <ns3:TrackPointExtension>
            <ns3:atemp>22.0</ns3:atemp>
          </ns3:TrackPointExtension>
        </extensions>
      </trkpt>
      <trkpt lat="42.52176828682422637939453125" lon="19.7621604613959789276123046875">
        <ele>1869.199951171875</ele>
        <time>2026-06-18T09:08:15.000Z</time>
        <extensions>
          <ns3:TrackPointExtension>
            <ns3:atemp>22.0</ns3:atemp>
          </ns3:TrackPointExtension>
        </extensions>
      </trkpt>
      <trkpt lat="42.52176828682422637939453125" lon="19.7621604613959789276123046875">
        <ele>1869.4000244140625</ele>
        <time>2026-06-18T09:08:16.000Z</time>
        <extensions>
          <ns3:TrackPointExtension>
            <ns3:atemp>22.0</ns3:atemp>
          </ns3:TrackPointExtension>
        </extensions>
      </trkpt>
      <trkpt lat="42.52176853828132152557373046875" lon="19.76215870119631290435791015625">
        <ele>1869.199951171875</ele>
        <time>2026-06-18T09:08:17.000Z</time>
        <extensions>
          <ns3:TrackPointExtension>
            <ns3:atemp>22.0</ns3:atemp>
          </ns3:TrackPointExtension>
        </extensions>
      </trkpt>
      <trkpt lat="42.52176434732973575592041015625" lon="19.76215115748345851898193359375">
        <ele>1868.800048828125</ele>
        <time>2026-06-18T09:08:18.000Z</time>
        <extensions>
          <ns3:TrackPointExtension>
            <ns3:atemp>22.0</ns3:atemp>
          </ns3:TrackPointExtension>
        </extensions>
      </trkpt>
      <trkpt lat="42.5217563845217227935791015625" lon="19.76215870119631290435791015625">
        <ele>1868.4000244140625</ele>
        <time>2026-06-18T09:08:19.000Z</time>
        <extensions>
          <ns3:TrackPointExtension>
            <ns3:atemp>22.0</ns3:atemp>
          </ns3:TrackPointExtension>
        </extensions>
      </trkpt>
      <trkpt lat="42.521748840808868408203125" lon="19.76216473616659641265869140625">
        <ele>1867.800048828125</ele>
        <time>2026-06-18T09:08:20.000Z</time>
        <extensions>
          <ns3:TrackPointExtension>
            <ns3:atemp>22.0</ns3:atemp>
          </ns3:TrackPointExtension>
        </extensions>
      </trkpt>
      <trkpt lat="42.52174641005694866180419921875" lon="19.76216574199497699737548828125">
        <ele>1867.5999755859375</ele>
        <time>2026-06-18T09:08:21.000Z</time>
        <extensions>
          <ns3:TrackPointExtension>
            <ns3:atemp>22.0</ns3:atemp>
          </ns3:TrackPointExtension>
        </extensions>
      </trkpt>
      <trkpt lat="42.521746493875980377197265625" lon="19.76216574199497699737548828125">
        <ele>1867.4000244140625</ele>
        <time>2026-06-18T09:08:22.000Z</time>
        <extensions>
          <ns3:TrackPointExtension>
            <ns3:atemp>22.0</ns3:atemp>
          </ns3:TrackPointExtension>
        </extensions>
      </trkpt>
      <trkpt lat="42.521746493875980377197265625" lon="19.76216574199497699737548828125">
        <ele>1867.5999755859375</ele>
        <time>2026-06-18T09:08:23.000Z</time>
        <extensions>
          <ns3:TrackPointExtension>
            <ns3:atemp>22.0</ns3:atemp>
          </ns3:TrackPointExtension>
        </extensions>
      </trkpt>
      <trkpt lat="42.52174674533307552337646484375" lon="19.7621658258140087127685546875">
        <ele>1867.800048828125</ele>
        <time>2026-06-18T09:08:24.000Z</time>
        <extensions>
          <ns3:TrackPointExtension>
            <ns3:atemp>22.0</ns3:atemp>
          </ns3:TrackPointExtension>
        </extensions>
      </trkpt>
      <trkpt lat="42.5217449851334095001220703125" lon="19.76217999123036861419677734375">
        <ele>1868</ele>
        <time>2026-06-18T09:08:25.000Z</time>
        <extensions>
          <ns3:TrackPointExtension>
            <ns3:atemp>22.0</ns3:atemp>
          </ns3:TrackPointExtension>
        </extensions>
      </trkpt>
      <trkpt lat="42.52174104563891887664794921875" lon="19.76219474337995052337646484375">
        <ele>1868</ele>
        <time>2026-06-18T09:08:26.000Z</time>
        <extensions>
          <ns3:TrackPointExtension>
            <ns3:atemp>22.0</ns3:atemp>
          </ns3:TrackPointExtension>
        </extensions>
      </trkpt>
      <trkpt lat="42.52173501066863536834716796875" lon="19.7622104175388813018798828125">
        <ele>1868</ele>
        <time>2026-06-18T09:08:27.000Z</time>
        <extensions>
          <ns3:TrackPointExtension>
            <ns3:atemp>22.0</ns3:atemp>
          </ns3:TrackPointExtension>
        </extensions>
      </trkpt>
      <trkpt lat="42.5217285566031932830810546875" lon="19.76222542114555835723876953125">
        <ele>1868</ele>
        <time>2026-06-18T09:08:28.000Z</time>
        <extensions>
          <ns3:TrackPointExtension>
            <ns3:atemp>22.0</ns3:atemp>
          </ns3:TrackPointExtension>
        </extensions>
      </trkpt>
      <trkpt lat="42.52172243781387805938720703125" lon="19.76224738173186779022216796875">
        <ele>1867.800048828125</ele>
        <time>2026-06-18T09:08:29.000Z</time>
        <extensions>
          <ns3:TrackPointExtension>
            <ns3:atemp>22.0</ns3:atemp>
          </ns3:TrackPointExtension>
        </extensions>
      </trkpt>
      <trkpt lat="42.52171874977648258209228515625" lon="19.762274958193302154541015625">
        <ele>1867.800048828125</ele>
        <time>2026-06-18T09:08:30.000Z</time>
        <extensions>
          <ns3:TrackPointExtension>
            <ns3:atemp>22.0</ns3:atemp>
          </ns3:TrackPointExtension>
        </extensions>
      </trkpt>
      <trkpt lat="42.521716654300689697265625" lon="19.76230253465473651885986328125">
        <ele>1867.800048828125</ele>
        <time>2026-06-18T09:08:31.000Z</time>
        <extensions>
          <ns3:TrackPointExtension>
            <ns3:atemp>22.0</ns3:atemp>
          </ns3:TrackPointExtension>
        </extensions>
      </trkpt>
      <trkpt lat="42.5217153131961822509765625" lon="19.7623270936310291290283203125">
        <ele>1868</ele>
        <time>2026-06-18T09:08:32.000Z</time>
        <extensions>
          <ns3:TrackPointExtension>
            <ns3:atemp>22.0</ns3:atemp>
          </ns3:TrackPointExtension>
        </extensions>
      </trkpt>
      <trkpt lat="42.52171355299651622772216796875" lon="19.76234762929379940032958984375">
        <ele>1868</ele>
        <time>2026-06-18T09:08:33.000Z</time>
        <extensions>
          <ns3:TrackPointExtension>
            <ns3:atemp>22.0</ns3:atemp>
          </ns3:TrackPointExtension>
        </extensions>
      </trkpt>
      <trkpt lat="42.52171606756746768951416015625" lon="19.762370176613330841064453125">
        <ele>1868.199951171875</ele>
        <time>2026-06-18T09:08:34.000Z</time>
        <extensions>
          <ns3:TrackPointExtension>
            <ns3:atemp>22.0</ns3:atemp>
          </ns3:TrackPointExtension>
        </extensions>
      </trkpt>
      <trkpt lat="42.5217198394238948822021484375" lon="19.76238836534321308135986328125">
        <ele>1868.199951171875</ele>
        <time>2026-06-18T09:08:35.000Z</time>
        <extensions>
          <ns3:TrackPointExtension>
            <ns3:atemp>22.0</ns3:atemp>
          </ns3:TrackPointExtension>
        </extensions>
      </trkpt>
      <trkpt lat="42.52172897569835186004638671875" lon="19.7624038718640804290771484375">
        <ele>1868.199951171875</ele>
        <time>2026-06-18T09:08:36.000Z</time>
        <extensions>
          <ns3:TrackPointExtension>
            <ns3:atemp>22.0</ns3:atemp>
          </ns3:TrackPointExtension>
        </extensions>
      </trkpt>
      <trkpt lat="42.52173073589801788330078125" lon="19.76242876611649990081787109375">
        <ele>1868.199951171875</ele>
        <time>2026-06-18T09:08:37.000Z</time>
        <extensions>
          <ns3:TrackPointExtension>
            <ns3:atemp>22.0</ns3:atemp>
          </ns3:TrackPointExtension>
        </extensions>
      </trkpt>
      <trkpt lat="42.52173207700252532958984375" lon="19.76244905032217502593994140625">
        <ele>1868.199951171875</ele>
        <time>2026-06-18T09:08:38.000Z</time>
        <extensions>
          <ns3:TrackPointExtension>
            <ns3:atemp>22.0</ns3:atemp>
          </ns3:TrackPointExtension>
        </extensions>
      </trkpt>
      <trkpt lat="42.5217292271554470062255859375" lon="19.7624732740223407745361328125">
        <ele>1868.199951171875</ele>
        <time>2026-06-18T09:08:39.000Z</time>
        <extensions>
          <ns3:TrackPointExtension>
            <ns3:atemp>22.0</ns3:atemp>
          </ns3:TrackPointExtension>
        </extensions>
      </trkpt>
      <trkpt lat="42.52172830514609813690185546875" lon="19.76250235922634601593017578125">
        <ele>1868.199951171875</ele>
        <time>2026-06-18T09:08:40.000Z</time>
        <extensions>
          <ns3:TrackPointExtension>
            <ns3:atemp>22.0</ns3:atemp>
          </ns3:TrackPointExtension>
        </extensions>
      </trkpt>
      <trkpt lat="42.5217278860509395599365234375" lon="19.76252968423068523406982421875">
        <ele>1868.199951171875</ele>
        <time>2026-06-18T09:08:41.000Z</time>
        <extensions>
          <ns3:TrackPointExtension>
            <ns3:atemp>22.0</ns3:atemp>
          </ns3:TrackPointExtension>
        </extensions>
      </trkpt>
      <trkpt lat="42.52172763459384441375732421875" lon="19.76255667395889759063720703125">
        <ele>1868.199951171875</ele>
        <time>2026-06-18T09:08:42.000Z</time>
        <extensions>
          <ns3:TrackPointExtension>
            <ns3:atemp>22.0</ns3:atemp>
          </ns3:TrackPointExtension>
        </extensions>
      </trkpt>
      <trkpt lat="42.52173014916479587554931640625" lon="19.762583412230014801025390625">
        <ele>1868.4000244140625</ele>
        <time>2026-06-18T09:08:43.000Z</time>
        <extensions>
          <ns3:TrackPointExtension>
            <ns3:atemp>22.0</ns3:atemp>
          </ns3:TrackPointExtension>
        </extensions>
      </trkpt>
      <trkpt lat="42.52173207700252532958984375" lon="19.7626157663762569427490234375">
        <ele>1868.4000244140625</ele>
        <time>2026-06-18T09:08:44.000Z</time>
        <extensions>
          <ns3:TrackPointExtension>
            <ns3:atemp>22.0</ns3:atemp>
          </ns3:TrackPointExtension>
        </extensions>
      </trkpt>
      <trkpt lat="42.521731071174144744873046875" lon="19.76264334283769130706787109375">
        <ele>1868.4000244140625</ele>
        <time>2026-06-18T09:08:45.000Z</time>
        <extensions>
          <ns3:TrackPointExtension>
            <ns3:atemp>22.0</ns3:atemp>
          </ns3:TrackPointExtension>
        </extensions>
      </trkpt>
      <trkpt lat="42.5217312388122081756591796875" lon="19.76266957819461822509765625">
        <ele>1868.4000244140625</ele>
        <time>2026-06-18T09:08:46.000Z</time>
        <extensions>
          <ns3:TrackPointExtension>
            <ns3:atemp>22.0</ns3:atemp>
          </ns3:TrackPointExtension>
        </extensions>
      </trkpt>
      <trkpt lat="42.52172847278416156768798828125" lon="19.7626979090273380279541015625">
        <ele>1868.5999755859375</ele>
        <time>2026-06-18T09:08:47.000Z</time>
        <extensions>
          <ns3:TrackPointExtension>
            <ns3:atemp>22.0</ns3:atemp>
          </ns3:TrackPointExtension>
        </extensions>
      </trkpt>
      <trkpt lat="42.5217312388122081756591796875" lon="19.76272464729845523834228515625">
        <ele>1868.800048828125</ele>
        <time>2026-06-18T09:08:48.000Z</time>
        <extensions>
          <ns3:TrackPointExtension>
            <ns3:atemp>22.0</ns3:atemp>
          </ns3:TrackPointExtension>
        </extensions>
      </trkpt>
      <trkpt lat="42.52173249609768390655517578125" lon="19.76274677552282810211181640625">
        <ele>1869.199951171875</ele>
        <time>2026-06-18T09:08:49.000Z</time>
        <extensions>
          <ns3:TrackPointExtension>
            <ns3:atemp>22.0</ns3:atemp>
          </ns3:TrackPointExtension>
        </extensions>
      </trkpt>
      <trkpt lat="42.52173132263123989105224609375" lon="19.76276814937591552734375">
        <ele>1869.5999755859375</ele>
        <time>2026-06-18T09:08:50.000Z</time>
        <extensions>
          <ns3:TrackPointExtension>
            <ns3:atemp>22.0</ns3:atemp>
          </ns3:TrackPointExtension>
        </extensions>
      </trkpt>
      <trkpt lat="42.52172813750803470611572265625" lon="19.762788601219654083251953125">
        <ele>1870</ele>
        <time>2026-06-18T09:08:51.000Z</time>
        <extensions>
          <ns3:TrackPointExtension>
            <ns3:atemp>22.0</ns3:atemp>
          </ns3:TrackPointExtension>
        </extensions>
      </trkpt>
      <trkpt lat="42.5217225216329097747802734375" lon="19.76280695758759975433349609375">
        <ele>1870.4000244140625</ele>
        <time>2026-06-18T09:08:52.000Z</time>
        <extensions>
          <ns3:TrackPointExtension>
            <ns3:atemp>22.0</ns3:atemp>
          </ns3:TrackPointExtension>
        </extensions>
      </trkpt>
      <trkpt lat="42.52171522937715053558349609375" lon="19.76282472722232341766357421875">
        <ele>1870.800048828125</ele>
        <time>2026-06-18T09:08:53.000Z</time>
        <extensions>
          <ns3:TrackPointExtension>
            <ns3:atemp>22.0</ns3:atemp>
          </ns3:TrackPointExtension>
        </extensions>
      </trkpt>
      <trkpt lat="42.52170701511204242706298828125" lon="19.762848280370235443115234375">
        <ele>1871.199951171875</ele>
        <time>2026-06-18T09:08:54.000Z</time>
        <extensions>
          <ns3:TrackPointExtension>
            <ns3:atemp>22.0</ns3:atemp>
          </ns3:TrackPointExtension>
        </extensions>
      </trkpt>
      <trkpt lat="42.52169880084693431854248046875" lon="19.7628719173371791839599609375">
        <ele>1871.5999755859375</ele>
        <time>2026-06-18T09:08:55.000Z</time>
        <extensions>
          <ns3:TrackPointExtension>
            <ns3:atemp>22.0</ns3:atemp>
          </ns3:TrackPointExtension>
        </extensions>
      </trkpt>
      <trkpt lat="42.5216950289905071258544921875" lon="19.76289144717156887054443359375">
        <ele>1872</ele>
        <time>2026-06-18T09:08:56.000Z</time>
        <extensions>
          <ns3:TrackPointExtension>
            <ns3:atemp>22.0</ns3:atemp>
          </ns3:TrackPointExtension>
        </extensions>
      </trkpt>
      <trkpt lat="42.52169209532439708709716796875" lon="19.76291206665337085723876953125">
        <ele>1872.4000244140625</ele>
        <time>2026-06-18T09:08:57.000Z</time>
        <extensions>
          <ns3:TrackPointExtension>
            <ns3:atemp>22.0</ns3:atemp>
          </ns3:TrackPointExtension>
        </extensions>
      </trkpt>
      <trkpt lat="42.5216930173337459564208984375" lon="19.7629195265471935272216796875">
        <ele>1872.800048828125</ele>
        <time>2026-06-18T09:08:58.000Z</time>
        <extensions>
          <ns3:TrackPointExtension>
            <ns3:atemp>22.0</ns3:atemp>
          </ns3:TrackPointExtension>
        </extensions>
      </trkpt>
      <trkpt lat="42.5216963700950145721435546875" lon="19.762924723327159881591796875">
        <ele>1873.4000244140625</ele>
        <time>2026-06-18T09:08:59.000Z</time>
        <extensions>
          <ns3:TrackPointExtension>
            <ns3:atemp>22.0</ns3:atemp>
          </ns3:TrackPointExtension>
        </extensions>
      </trkpt>
      <trkpt lat="42.5216980464756488800048828125" lon="19.76292438805103302001953125">
        <ele>1874</ele>
        <time>2026-06-18T09:09:00.000Z</time>
        <extensions>
          <ns3:TrackPointExtension>
            <ns3:atemp>22.0</ns3:atemp>
          </ns3:TrackPointExtension>
        </extensions>
      </trkpt>
      <trkpt lat="42.5216980464756488800048828125" lon="19.76292438805103302001953125">
        <ele>1874.4000244140625</ele>
        <time>2026-06-18T09:09:01.000Z</time>
        <extensions>
          <ns3:TrackPointExtension>
            <ns3:atemp>22.0</ns3:atemp>
          </ns3:TrackPointExtension>
        </extensions>
      </trkpt>
      <trkpt lat="42.5216980464756488800048828125" lon="19.76292438805103302001953125">
        <ele>1874.800048828125</ele>
        <time>2026-06-18T09:09:02.000Z</time>
        <extensions>
          <ns3:TrackPointExtension>
            <ns3:atemp>22.0</ns3:atemp>
          </ns3:TrackPointExtension>
        </extensions>
      </trkpt>
      <trkpt lat="42.5216980464756488800048828125" lon="19.76292438805103302001953125">
        <ele>1875.199951171875</ele>
        <time>2026-06-18T09:09:03.000Z</time>
        <extensions>
          <ns3:TrackPointExtension>
            <ns3:atemp>22.0</ns3:atemp>
          </ns3:TrackPointExtension>
        </extensions>
      </trkpt>
      <trkpt lat="42.5216980464756488800048828125" lon="19.76292438805103302001953125">
        <ele>1875.199951171875</ele>
        <time>2026-06-18T09:09:04.000Z</time>
        <extensions>
          <ns3:TrackPointExtension>
            <ns3:atemp>22.0</ns3:atemp>
          </ns3:TrackPointExtension>
        </extensions>
      </trkpt>
      <trkpt lat="42.5216980464756488800048828125" lon="19.76292438805103302001953125">
        <ele>1875.199951171875</ele>
        <time>2026-06-18T09:09:05.000Z</time>
        <extensions>
          <ns3:TrackPointExtension>
            <ns3:atemp>22.0</ns3:atemp>
          </ns3:TrackPointExtension>
        </extensions>
      </trkpt>
      <trkpt lat="42.5216980464756488800048828125" lon="19.76292438805103302001953125">
        <ele>1875.199951171875</ele>
        <time>2026-06-18T09:09:06.000Z</time>
        <extensions>
          <ns3:TrackPointExtension>
            <ns3:atemp>22.0</ns3:atemp>
          </ns3:TrackPointExtension>
        </extensions>
      </trkpt>
      <trkpt lat="42.5216980464756488800048828125" lon="19.76292438805103302001953125">
        <ele>1875</ele>
        <time>2026-06-18T09:09:07.000Z</time>
        <extensions>
          <ns3:TrackPointExtension>
            <ns3:atemp>22.0</ns3:atemp>
          </ns3:TrackPointExtension>
        </extensions>
      </trkpt>
      <trkpt lat="42.5216980464756488800048828125" lon="19.76292438805103302001953125">
        <ele>1875</ele>
        <time>2026-06-18T09:09:08.000Z</time>
        <extensions>
          <ns3:TrackPointExtension>
            <ns3:atemp>22.0</ns3:atemp>
          </ns3:TrackPointExtension>
        </extensions>
      </trkpt>
      <trkpt lat="42.5216980464756488800048828125" lon="19.76292438805103302001953125">
        <ele>1875</ele>
        <time>2026-06-18T09:09:09.000Z</time>
        <extensions>
          <ns3:TrackPointExtension>
            <ns3:atemp>22.0</ns3:atemp>
          </ns3:TrackPointExtension>
        </extensions>
      </trkpt>
      <trkpt lat="42.5216980464756488800048828125" lon="19.76292438805103302001953125">
        <ele>1875</ele>
        <time>2026-06-18T09:09:10.000Z</time>
        <extensions>
          <ns3:TrackPointExtension>
            <ns3:atemp>22.0</ns3:atemp>
          </ns3:TrackPointExtension>
        </extensions>
      </trkpt>
      <trkpt lat="42.5216980464756488800048828125" lon="19.76292438805103302001953125">
        <ele>1875</ele>
        <time>2026-06-18T09:09:11.000Z</time>
        <extensions>
          <ns3:TrackPointExtension>
            <ns3:atemp>22.0</ns3:atemp>
          </ns3:TrackPointExtension>
        </extensions>
      </trkpt>
      <trkpt lat="42.5216980464756488800048828125" lon="19.76292438805103302001953125">
        <ele>1875</ele>
        <time>2026-06-18T09:09:12.000Z</time>
        <extensions>
          <ns3:TrackPointExtension>
            <ns3:atemp>22.0</ns3:atemp>
          </ns3:TrackPointExtension>
        </extensions>
      </trkpt>
      <trkpt lat="42.5216980464756488800048828125" lon="19.76292438805103302001953125">
        <ele>1874.800048828125</ele>
        <time>2026-06-18T09:09:13.000Z</time>
        <extensions>
          <ns3:TrackPointExtension>
            <ns3:atemp>22.0</ns3:atemp>
          </ns3:TrackPointExtension>
        </extensions>
      </trkpt>
      <trkpt lat="42.5216980464756488800048828125" lon="19.76292438805103302001953125">
        <ele>1874.800048828125</ele>
        <time>2026-06-18T09:09:14.000Z</time>
        <extensions>
          <ns3:TrackPointExtension>
            <ns3:atemp>22.0</ns3:atemp>
          </ns3:TrackPointExtension>
        </extensions>
      </trkpt>
      <trkpt lat="42.5216980464756488800048828125" lon="19.76292438805103302001953125">
        <ele>1874.800048828125</ele>
        <time>2026-06-18T09:09:15.000Z</time>
        <extensions>
          <ns3:TrackPointExtension>
            <ns3:atemp>22.0</ns3:atemp>
          </ns3:TrackPointExtension>
        </extensions>
      </trkpt>
      <trkpt lat="42.5216980464756488800048828125" lon="19.76292438805103302001953125">
        <ele>1874.5999755859375</ele>
        <time>2026-06-18T09:09:16.000Z</time>
        <extensions>
          <ns3:TrackPointExtension>
            <ns3:atemp>22.0</ns3:atemp>
          </ns3:TrackPointExtension>
        </extensions>
      </trkpt>
      <trkpt lat="42.5216980464756488800048828125" lon="19.76292438805103302001953125">
        <ele>1874.5999755859375</ele>
        <time>2026-06-18T09:09:17.000Z</time>
        <extensions>
          <ns3:TrackPointExtension>
            <ns3:atemp>22.0</ns3:atemp>
          </ns3:TrackPointExtension>
        </extensions>
      </trkpt>
      <trkpt lat="42.5216980464756488800048828125" lon="19.76292438805103302001953125">
        <ele>1874.5999755859375</ele>
        <time>2026-06-18T09:09:18.000Z</time>
        <extensions>
          <ns3:TrackPointExtension>
            <ns3:atemp>22.0</ns3:atemp>
          </ns3:TrackPointExtension>
        </extensions>
      </trkpt>
      <trkpt lat="42.5216980464756488800048828125" lon="19.76292438805103302001953125">
        <ele>1874.4000244140625</ele>
        <time>2026-06-18T09:09:19.000Z</time>
        <extensions>
          <ns3:TrackPointExtension>
            <ns3:atemp>22.0</ns3:atemp>
          </ns3:TrackPointExtension>
        </extensions>
      </trkpt>
      <trkpt lat="42.5216980464756488800048828125" lon="19.76292438805103302001953125">
        <ele>1874.4000244140625</ele>
        <time>2026-06-18T09:09:20.000Z</time>
        <extensions>
          <ns3:TrackPointExtension>
            <ns3:atemp>22.0</ns3:atemp>
          </ns3:TrackPointExtension>
        </extensions>
      </trkpt>
      <trkpt lat="42.5216980464756488800048828125" lon="19.76292438805103302001953125">
        <ele>1874.4000244140625</ele>
        <time>2026-06-18T09:09:21.000Z</time>
        <extensions>
          <ns3:TrackPointExtension>
            <ns3:atemp>22.0</ns3:atemp>
          </ns3:TrackPointExtension>
        </extensions>
      </trkpt>
      <trkpt lat="42.5216980464756488800048828125" lon="19.76292438805103302001953125">
        <ele>1874.199951171875</ele>
        <time>2026-06-18T09:09:22.000Z</time>
        <extensions>
          <ns3:TrackPointExtension>
            <ns3:atemp>22.0</ns3:atemp>
          </ns3:TrackPointExtension>
        </extensions>
      </trkpt>
      <trkpt lat="42.5216980464756488800048828125" lon="19.76292438805103302001953125">
        <ele>1874.199951171875</ele>
        <time>2026-06-18T09:09:23.000Z</time>
        <extensions>
          <ns3:TrackPointExtension>
            <ns3:atemp>22.0</ns3:atemp>
          </ns3:TrackPointExtension>
        </extensions>
      </trkpt>
      <trkpt lat="42.5216980464756488800048828125" lon="19.76292438805103302001953125">
        <ele>1874.199951171875</ele>
        <time>2026-06-18T09:09:24.000Z</time>
        <extensions>
          <ns3:TrackPointExtension>
            <ns3:atemp>22.0</ns3:atemp>
          </ns3:TrackPointExtension>
        </extensions>
      </trkpt>
      <trkpt lat="42.5216980464756488800048828125" lon="19.76292438805103302001953125">
        <ele>1874.199951171875</ele>
        <time>2026-06-18T09:09:25.000Z</time>
        <extensions>
          <ns3:TrackPointExtension>
            <ns3:atemp>22.0</ns3:atemp>
          </ns3:TrackPointExtension>
        </extensions>
      </trkpt>
      <trkpt lat="42.5216980464756488800048828125" lon="19.76292438805103302001953125">
        <ele>1874</ele>
        <time>2026-06-18T09:09:26.000Z</time>
        <extensions>
          <ns3:TrackPointExtension>
            <ns3:atemp>22.0</ns3:atemp>
          </ns3:TrackPointExtension>
        </extensions>
      </trkpt>
      <trkpt lat="42.5216980464756488800048828125" lon="19.76292438805103302001953125">
        <ele>1874</ele>
        <time>2026-06-18T09:09:27.000Z</time>
        <extensions>
          <ns3:TrackPointExtension>
            <ns3:atemp>22.0</ns3:atemp>
          </ns3:TrackPointExtension>
        </extensions>
      </trkpt>
      <trkpt lat="42.5216980464756488800048828125" lon="19.76292438805103302001953125">
        <ele>1874</ele>
        <time>2026-06-18T09:09:28.000Z</time>
        <extensions>
          <ns3:TrackPointExtension>
            <ns3:atemp>22.0</ns3:atemp>
          </ns3:TrackPointExtension>
        </extensions>
      </trkpt>
      <trkpt lat="42.5216980464756488800048828125" lon="19.76292438805103302001953125">
        <ele>1874</ele>
        <time>2026-06-18T09:09:29.000Z</time>
        <extensions>
          <ns3:TrackPointExtension>
            <ns3:atemp>22.0</ns3:atemp>
          </ns3:TrackPointExtension>
        </extensions>
      </trkpt>
      <trkpt lat="42.5216980464756488800048828125" lon="19.76292438805103302001953125">
        <ele>1874</ele>
        <time>2026-06-18T09:09:30.000Z</time>
        <extensions>
          <ns3:TrackPointExtension>
            <ns3:atemp>22.0</ns3:atemp>
          </ns3:TrackPointExtension>
        </extensions>
      </trkpt>
      <trkpt lat="42.5216980464756488800048828125" lon="19.76292438805103302001953125">
        <ele>1874</ele>
        <time>2026-06-18T09:09:31.000Z</time>
        <extensions>
          <ns3:TrackPointExtension>
            <ns3:atemp>22.0</ns3:atemp>
          </ns3:TrackPointExtension>
        </extensions>
      </trkpt>
      <trkpt lat="42.5216980464756488800048828125" lon="19.76292438805103302001953125">
        <ele>1874</ele>
        <time>2026-06-18T09:09:32.000Z</time>
        <extensions>
          <ns3:TrackPointExtension>
            <ns3:atemp>22.0</ns3:atemp>
          </ns3:TrackPointExtension>
        </extensions>
      </trkpt>
      <trkpt lat="42.5216980464756488800048828125" lon="19.76292438805103302001953125">
        <ele>1873.800048828125</ele>
        <time>2026-06-18T09:09:33.000Z</time>
        <extensions>
          <ns3:TrackPointExtension>
            <ns3:atemp>22.0</ns3:atemp>
          </ns3:TrackPointExtension>
        </extensions>
      </trkpt>
      <trkpt lat="42.5216980464756488800048828125" lon="19.76292438805103302001953125">
        <ele>1873.800048828125</ele>
        <time>2026-06-18T09:09:34.000Z</time>
        <extensions>
          <ns3:TrackPointExtension>
            <ns3:atemp>22.0</ns3:atemp>
          </ns3:TrackPointExtension>
        </extensions>
      </trkpt>
      <trkpt lat="42.5216980464756488800048828125" lon="19.76292438805103302001953125">
        <ele>1873.800048828125</ele>
        <time>2026-06-18T09:09:35.000Z</time>
        <extensions>
          <ns3:TrackPointExtension>
            <ns3:atemp>22.0</ns3:atemp>
          </ns3:TrackPointExtension>
        </extensions>
      </trkpt>
      <trkpt lat="42.5216980464756488800048828125" lon="19.76292438805103302001953125">
        <ele>1873.800048828125</ele>
        <time>2026-06-18T09:09:36.000Z</time>
        <extensions>
          <ns3:TrackPointExtension>
            <ns3:atemp>22.0</ns3:atemp>
          </ns3:TrackPointExtension>
        </extensions>
      </trkpt>
      <trkpt lat="42.5216980464756488800048828125" lon="19.76292438805103302001953125">
        <ele>1873.800048828125</ele>
        <time>2026-06-18T09:09:37.000Z</time>
        <extensions>
          <ns3:TrackPointExtension>
            <ns3:atemp>22.0</ns3:atemp>
          </ns3:TrackPointExtension>
        </extensions>
      </trkpt>
      <trkpt lat="42.5216980464756488800048828125" lon="19.76292438805103302001953125">
        <ele>1873.800048828125</ele>
        <time>2026-06-18T09:09:38.000Z</time>
        <extensions>
          <ns3:TrackPointExtension>
            <ns3:atemp>22.0</ns3:atemp>
          </ns3:TrackPointExtension>
        </extensions>
      </trkpt>
      <trkpt lat="42.5216980464756488800048828125" lon="19.76292438805103302001953125">
        <ele>1873.800048828125</ele>
        <time>2026-06-18T09:09:39.000Z</time>
        <extensions>
          <ns3:TrackPointExtension>
            <ns3:atemp>22.0</ns3:atemp>
          </ns3:TrackPointExtension>
        </extensions>
      </trkpt>
      <trkpt lat="42.5216980464756488800048828125" lon="19.76292438805103302001953125">
        <ele>1873.800048828125</ele>
        <time>2026-06-18T09:09:40.000Z</time>
        <extensions>
          <ns3:TrackPointExtension>
            <ns3:atemp>22.0</ns3:atemp>
          </ns3:TrackPointExtension>
        </extensions>
      </trkpt>
      <trkpt lat="42.5216980464756488800048828125" lon="19.76292438805103302001953125">
        <ele>1873.800048828125</ele>
        <time>2026-06-18T09:09:41.000Z</time>
        <extensions>
          <ns3:TrackPointExtension>
            <ns3:atemp>22.0</ns3:atemp>
          </ns3:TrackPointExtension>
        </extensions>
      </trkpt>
      <trkpt lat="42.5216980464756488800048828125" lon="19.76292438805103302001953125">
        <ele>1873.800048828125</ele>
        <time>2026-06-18T09:09:42.000Z</time>
        <extensions>
          <ns3:TrackPointExtension>
            <ns3:atemp>22.0</ns3:atemp>
          </ns3:TrackPointExtension>
        </extensions>
      </trkpt>
      <trkpt lat="42.5216980464756488800048828125" lon="19.76292438805103302001953125">
        <ele>1873.800048828125</ele>
        <time>2026-06-18T09:09:43.000Z</time>
        <extensions>
          <ns3:TrackPointExtension>
            <ns3:atemp>22.0</ns3:atemp>
          </ns3:TrackPointExtension>
        </extensions>
      </trkpt>
      <trkpt lat="42.5216980464756488800048828125" lon="19.76292438805103302001953125">
        <ele>1873.800048828125</ele>
        <time>2026-06-18T09:09:44.000Z</time>
        <extensions>
          <ns3:TrackPointExtension>
            <ns3:atemp>22.0</ns3:atemp>
          </ns3:TrackPointExtension>
        </extensions>
      </trkpt>
      <trkpt lat="42.5216980464756488800048828125" lon="19.76292438805103302001953125">
        <ele>1873.800048828125</ele>
        <time>2026-06-18T09:09:45.000Z</time>
        <extensions>
          <ns3:TrackPointExtension>
            <ns3:atemp>22.0</ns3:atemp>
          </ns3:TrackPointExtension>
        </extensions>
      </trkpt>
      <trkpt lat="42.5216980464756488800048828125" lon="19.76292438805103302001953125">
        <ele>1873.800048828125</ele>
        <time>2026-06-18T09:09:46.000Z</time>
        <extensions>
          <ns3:TrackPointExtension>
            <ns3:atemp>22.0</ns3:atemp>
          </ns3:TrackPointExtension>
        </extensions>
      </trkpt>
      <trkpt lat="42.5216980464756488800048828125" lon="19.76292438805103302001953125">
        <ele>1874</ele>
        <time>2026-06-18T09:09:47.000Z</time>
        <extensions>
          <ns3:TrackPointExtension>
            <ns3:atemp>22.0</ns3:atemp>
          </ns3:TrackPointExtension>
        </extensions>
      </trkpt>
      <trkpt lat="42.5216980464756488800048828125" lon="19.76292438805103302001953125">
        <ele>1874</ele>
        <time>2026-06-18T09:09:48.000Z</time>
        <extensions>
          <ns3:TrackPointExtension>
            <ns3:atemp>22.0</ns3:atemp>
          </ns3:TrackPointExtension>
        </extensions>
      </trkpt>
      <trkpt lat="42.5216980464756488800048828125" lon="19.76292438805103302001953125">
        <ele>1874</ele>
        <time>2026-06-18T09:09:49.000Z</time>
        <extensions>
          <ns3:TrackPointExtension>
            <ns3:atemp>22.0</ns3:atemp>
          </ns3:TrackPointExtension>
        </extensions>
      </trkpt>
      <trkpt lat="42.5216980464756488800048828125" lon="19.76292438805103302001953125">
        <ele>1874</ele>
        <time>2026-06-18T09:09:50.000Z</time>
        <extensions>
          <ns3:TrackPointExtension>
            <ns3:atemp>22.0</ns3:atemp>
          </ns3:TrackPointExtension>
        </extensions>
      </trkpt>
      <trkpt lat="42.5216980464756488800048828125" lon="19.76292438805103302001953125">
        <ele>1874.199951171875</ele>
        <time>2026-06-18T09:09:51.000Z</time>
        <extensions>
          <ns3:TrackPointExtension>
            <ns3:atemp>22.0</ns3:atemp>
          </ns3:TrackPointExtension>
        </extensions>
      </trkpt>
      <trkpt lat="42.5216980464756488800048828125" lon="19.76292438805103302001953125">
        <ele>1874.199951171875</ele>
        <time>2026-06-18T09:09:52.000Z</time>
        <extensions>
          <ns3:TrackPointExtension>
            <ns3:atemp>22.0</ns3:atemp>
          </ns3:TrackPointExtension>
        </extensions>
      </trkpt>
      <trkpt lat="42.5216980464756488800048828125" lon="19.76292438805103302001953125">
        <ele>1874</ele>
        <time>2026-06-18T09:09:53.000Z</time>
        <extensions>
          <ns3:TrackPointExtension>
            <ns3:atemp>22.0</ns3:atemp>
          </ns3:TrackPointExtension>
        </extensions>
      </trkpt>
      <trkpt lat="42.5216980464756488800048828125" lon="19.76292438805103302001953125">
        <ele>1874</ele>
        <time>2026-06-18T09:09:54.000Z</time>
        <extensions>
          <ns3:TrackPointExtension>
            <ns3:atemp>22.0</ns3:atemp>
          </ns3:TrackPointExtension>
        </extensions>
      </trkpt>
      <trkpt lat="42.5216980464756488800048828125" lon="19.76292438805103302001953125">
        <ele>1874</ele>
        <time>2026-06-18T09:09:55.000Z</time>
        <extensions>
          <ns3:TrackPointExtension>
            <ns3:atemp>22.0</ns3:atemp>
          </ns3:TrackPointExtension>
        </extensions>
      </trkpt>
      <trkpt lat="42.5216980464756488800048828125" lon="19.76292438805103302001953125">
        <ele>1874</ele>
        <time>2026-06-18T09:09:56.000Z</time>
        <extensions>
          <ns3:TrackPointExtension>
            <ns3:atemp>22.0</ns3:atemp>
          </ns3:TrackPointExtension>
        </extensions>
      </trkpt>
      <trkpt lat="42.5216980464756488800048828125" lon="19.76292438805103302001953125">
        <ele>1873.800048828125</ele>
        <time>2026-06-18T09:09:57.000Z</time>
        <extensions>
          <ns3:TrackPointExtension>
            <ns3:atemp>22.0</ns3:atemp>
          </ns3:TrackPointExtension>
        </extensions>
      </trkpt>
      <trkpt lat="42.5216980464756488800048828125" lon="19.76292438805103302001953125">
        <ele>1873.800048828125</ele>
        <time>2026-06-18T09:09:58.000Z</time>
        <extensions>
          <ns3:TrackPointExtension>
            <ns3:atemp>22.0</ns3:atemp>
          </ns3:TrackPointExtension>
        </extensions>
      </trkpt>
      <trkpt lat="42.5216980464756488800048828125" lon="19.76292438805103302001953125">
        <ele>1873.800048828125</ele>
        <time>2026-06-18T09:09:59.000Z</time>
        <extensions>
          <ns3:TrackPointExtension>
            <ns3:atemp>22.0</ns3:atemp>
          </ns3:TrackPointExtension>
        </extensions>
      </trkpt>
      <trkpt lat="42.5216980464756488800048828125" lon="19.76292438805103302001953125">
        <ele>1873.800048828125</ele>
        <time>2026-06-18T09:10:00.000Z</time>
        <extensions>
          <ns3:TrackPointExtension>
            <ns3:atemp>22.0</ns3:atemp>
          </ns3:TrackPointExtension>
        </extensions>
      </trkpt>
      <trkpt lat="42.5216980464756488800048828125" lon="19.76292438805103302001953125">
        <ele>1873.800048828125</ele>
        <time>2026-06-18T09:10:01.000Z</time>
        <extensions>
          <ns3:TrackPointExtension>
            <ns3:atemp>22.0</ns3:atemp>
          </ns3:TrackPointExtension>
        </extensions>
      </trkpt>
      <trkpt lat="42.5216980464756488800048828125" lon="19.76292438805103302001953125">
        <ele>1873.800048828125</ele>
        <time>2026-06-18T09:10:02.000Z</time>
        <extensions>
          <ns3:TrackPointExtension>
            <ns3:atemp>22.0</ns3:atemp>
          </ns3:TrackPointExtension>
        </extensions>
      </trkpt>
      <trkpt lat="42.5216980464756488800048828125" lon="19.76292438805103302001953125">
        <ele>1873.800048828125</ele>
        <time>2026-06-18T09:10:03.000Z</time>
        <extensions>
          <ns3:TrackPointExtension>
            <ns3:atemp>22.0</ns3:atemp>
          </ns3:TrackPointExtension>
        </extensions>
      </trkpt>
      <trkpt lat="42.5216980464756488800048828125" lon="19.76292438805103302001953125">
        <ele>1873.800048828125</ele>
        <time>2026-06-18T09:10:04.000Z</time>
        <extensions>
          <ns3:TrackPointExtension>
            <ns3:atemp>22.0</ns3:atemp>
          </ns3:TrackPointExtension>
        </extensions>
      </trkpt>
      <trkpt lat="42.5216980464756488800048828125" lon="19.76292438805103302001953125">
        <ele>1874</ele>
        <time>2026-06-18T09:10:05.000Z</time>
        <extensions>
          <ns3:TrackPointExtension>
            <ns3:atemp>22.0</ns3:atemp>
          </ns3:TrackPointExtension>
        </extensions>
      </trkpt>
      <trkpt lat="42.5216980464756488800048828125" lon="19.76292438805103302001953125">
        <ele>1874</ele>
        <time>2026-06-18T09:10:06.000Z</time>
        <extensions>
          <ns3:TrackPointExtension>
            <ns3:atemp>22.0</ns3:atemp>
          </ns3:TrackPointExtension>
        </extensions>
      </trkpt>
      <trkpt lat="42.5216980464756488800048828125" lon="19.76292438805103302001953125">
        <ele>1874</ele>
        <time>2026-06-18T09:10:07.000Z</time>
        <extensions>
          <ns3:TrackPointExtension>
            <ns3:atemp>22.0</ns3:atemp>
          </ns3:TrackPointExtension>
        </extensions>
      </trkpt>
      <trkpt lat="42.5216980464756488800048828125" lon="19.76292438805103302001953125">
        <ele>1874.199951171875</ele>
        <time>2026-06-18T09:10:08.000Z</time>
        <extensions>
          <ns3:TrackPointExtension>
            <ns3:atemp>22.0</ns3:atemp>
          </ns3:TrackPointExtension>
        </extensions>
      </trkpt>
      <trkpt lat="42.5216980464756488800048828125" lon="19.76292438805103302001953125">
        <ele>1874.199951171875</ele>
        <time>2026-06-18T09:10:09.000Z</time>
        <extensions>
          <ns3:TrackPointExtension>
            <ns3:atemp>22.0</ns3:atemp>
          </ns3:TrackPointExtension>
        </extensions>
      </trkpt>
      <trkpt lat="42.5216980464756488800048828125" lon="19.76292438805103302001953125">
        <ele>1874.199951171875</ele>
        <time>2026-06-18T09:10:10.000Z</time>
        <extensions>
          <ns3:TrackPointExtension>
            <ns3:atemp>22.0</ns3:atemp>
          </ns3:TrackPointExtension>
        </extensions>
      </trkpt>
      <trkpt lat="42.5216980464756488800048828125" lon="19.76292438805103302001953125">
        <ele>1874.199951171875</ele>
        <time>2026-06-18T09:10:11.000Z</time>
        <extensions>
          <ns3:TrackPointExtension>
            <ns3:atemp>22.0</ns3:atemp>
          </ns3:TrackPointExtension>
        </extensions>
      </trkpt>
      <trkpt lat="42.5216980464756488800048828125" lon="19.76292438805103302001953125">
        <ele>1874.199951171875</ele>
        <time>2026-06-18T09:10:12.000Z</time>
        <extensions>
          <ns3:TrackPointExtension>
            <ns3:atemp>22.0</ns3:atemp>
          </ns3:TrackPointExtension>
        </extensions>
      </trkpt>
      <trkpt lat="42.5216980464756488800048828125" lon="19.76292438805103302001953125">
        <ele>1874.199951171875</ele>
        <time>2026-06-18T09:10:13.000Z</time>
        <extensions>
          <ns3:TrackPointExtension>
            <ns3:atemp>22.0</ns3:atemp>
          </ns3:TrackPointExtension>
        </extensions>
      </trkpt>
      <trkpt lat="42.5216980464756488800048828125" lon="19.76292438805103302001953125">
        <ele>1874.199951171875</ele>
        <time>2026-06-18T09:10:14.000Z</time>
        <extensions>
          <ns3:TrackPointExtension>
            <ns3:atemp>22.0</ns3:atemp>
          </ns3:TrackPointExtension>
        </extensions>
      </trkpt>
      <trkpt lat="42.5216980464756488800048828125" lon="19.76292438805103302001953125">
        <ele>1874</ele>
        <time>2026-06-18T09:10:15.000Z</time>
        <extensions>
          <ns3:TrackPointExtension>
            <ns3:atemp>22.0</ns3:atemp>
          </ns3:TrackPointExtension>
        </extensions>
      </trkpt>
      <trkpt lat="42.5216980464756488800048828125" lon="19.76292438805103302001953125">
        <ele>1874</ele>
        <time>2026-06-18T09:10:16.000Z</time>
        <extensions>
          <ns3:TrackPointExtension>
            <ns3:atemp>22.0</ns3:atemp>
          </ns3:TrackPointExtension>
        </extensions>
      </trkpt>
      <trkpt lat="42.5216980464756488800048828125" lon="19.76292438805103302001953125">
        <ele>1874</ele>
        <time>2026-06-18T09:10:17.000Z</time>
        <extensions>
          <ns3:TrackPointExtension>
            <ns3:atemp>22.0</ns3:atemp>
          </ns3:TrackPointExtension>
        </extensions>
      </trkpt>
      <trkpt lat="42.5216980464756488800048828125" lon="19.76292438805103302001953125">
        <ele>1874</ele>
        <time>2026-06-18T09:10:18.000Z</time>
        <extensions>
          <ns3:TrackPointExtension>
            <ns3:atemp>22.0</ns3:atemp>
          </ns3:TrackPointExtension>
        </extensions>
      </trkpt>
      <trkpt lat="42.5216980464756488800048828125" lon="19.76292438805103302001953125">
        <ele>1874</ele>
        <time>2026-06-18T09:10:19.000Z</time>
        <extensions>
          <ns3:TrackPointExtension>
            <ns3:atemp>22.0</ns3:atemp>
          </ns3:TrackPointExtension>
        </extensions>
      </trkpt>
      <trkpt lat="42.5216980464756488800048828125" lon="19.76292438805103302001953125">
        <ele>1874</ele>
        <time>2026-06-18T09:10:20.000Z</time>
        <extensions>
          <ns3:TrackPointExtension>
            <ns3:atemp>22.0</ns3:atemp>
          </ns3:TrackPointExtension>
        </extensions>
      </trkpt>
      <trkpt lat="42.5216980464756488800048828125" lon="19.76292438805103302001953125">
        <ele>1874</ele>
        <time>2026-06-18T09:10:21.000Z</time>
        <extensions>
          <ns3:TrackPointExtension>
            <ns3:atemp>22.0</ns3:atemp>
          </ns3:TrackPointExtension>
        </extensions>
      </trkpt>
      <trkpt lat="42.5216980464756488800048828125" lon="19.76292438805103302001953125">
        <ele>1874</ele>
        <time>2026-06-18T09:10:22.000Z</time>
        <extensions>
          <ns3:TrackPointExtension>
            <ns3:atemp>22.0</ns3:atemp>
          </ns3:TrackPointExtension>
        </extensions>
      </trkpt>
      <trkpt lat="42.5216980464756488800048828125" lon="19.76292438805103302001953125">
        <ele>1874</ele>
        <time>2026-06-18T09:10:23.000Z</time>
        <extensions>
          <ns3:TrackPointExtension>
            <ns3:atemp>22.0</ns3:atemp>
          </ns3:TrackPointExtension>
        </extensions>
      </trkpt>
      <trkpt lat="42.5216980464756488800048828125" lon="19.76292438805103302001953125">
        <ele>1874</ele>
        <time>2026-06-18T09:10:24.000Z</time>
        <extensions>
          <ns3:TrackPointExtension>
            <ns3:atemp>22.0</ns3:atemp>
          </ns3:TrackPointExtension>
        </extensions>
      </trkpt>
      <trkpt lat="42.5216980464756488800048828125" lon="19.76292438805103302001953125">
        <ele>1874</ele>
        <time>2026-06-18T09:10:25.000Z</time>
        <extensions>
          <ns3:TrackPointExtension>
            <ns3:atemp>22.0</ns3:atemp>
          </ns3:TrackPointExtension>
        </extensions>
      </trkpt>
      <trkpt lat="42.5216980464756488800048828125" lon="19.76292438805103302001953125">
        <ele>1874</ele>
        <time>2026-06-18T09:10:26.000Z</time>
        <extensions>
          <ns3:TrackPointExtension>
            <ns3:atemp>22.0</ns3:atemp>
          </ns3:TrackPointExtension>
        </extensions>
      </trkpt>
      <trkpt lat="42.5216980464756488800048828125" lon="19.76292438805103302001953125">
        <ele>1874</ele>
        <time>2026-06-18T09:10:27.000Z</time>
        <extensions>
          <ns3:TrackPointExtension>
            <ns3:atemp>22.0</ns3:atemp>
          </ns3:TrackPointExtension>
        </extensions>
      </trkpt>
      <trkpt lat="42.5216980464756488800048828125" lon="19.76292438805103302001953125">
        <ele>1874</ele>
        <time>2026-06-18T09:10:28.000Z</time>
        <extensions>
          <ns3:TrackPointExtension>
            <ns3:atemp>22.0</ns3:atemp>
          </ns3:TrackPointExtension>
        </extensions>
      </trkpt>
      <trkpt lat="42.5216980464756488800048828125" lon="19.76292438805103302001953125">
        <ele>1874</ele>
        <time>2026-06-18T09:10:29.000Z</time>
        <extensions>
          <ns3:TrackPointExtension>
            <ns3:atemp>22.0</ns3:atemp>
          </ns3:TrackPointExtension>
        </extensions>
      </trkpt>
      <trkpt lat="42.5216980464756488800048828125" lon="19.76292438805103302001953125">
        <ele>1874</ele>
        <time>2026-06-18T09:10:30.000Z</time>
        <extensions>
          <ns3:TrackPointExtension>
            <ns3:atemp>22.0</ns3:atemp>
          </ns3:TrackPointExtension>
        </extensions>
      </trkpt>
      <trkpt lat="42.5216980464756488800048828125" lon="19.76292438805103302001953125">
        <ele>1874</ele>
        <time>2026-06-18T09:10:31.000Z</time>
        <extensions>
          <ns3:TrackPointExtension>
            <ns3:atemp>22.0</ns3:atemp>
          </ns3:TrackPointExtension>
        </extensions>
      </trkpt>
      <trkpt lat="42.5216980464756488800048828125" lon="19.76292438805103302001953125">
        <ele>1874</ele>
        <time>2026-06-18T09:10:32.000Z</time>
        <extensions>
          <ns3:TrackPointExtension>
            <ns3:atemp>22.0</ns3:atemp>
          </ns3:TrackPointExtension>
        </extensions>
      </trkpt>
      <trkpt lat="42.5216980464756488800048828125" lon="19.76292438805103302001953125">
        <ele>1874</ele>
        <time>2026-06-18T09:10:33.000Z</time>
        <extensions>
          <ns3:TrackPointExtension>
            <ns3:atemp>22.0</ns3:atemp>
          </ns3:TrackPointExtension>
        </extensions>
      </trkpt>
      <trkpt lat="42.5216980464756488800048828125" lon="19.76292438805103302001953125">
        <ele>1874</ele>
        <time>2026-06-18T09:10:34.000Z</time>
        <extensions>
          <ns3:TrackPointExtension>
            <ns3:atemp>22.0</ns3:atemp>
          </ns3:TrackPointExtension>
        </extensions>
      </trkpt>
      <trkpt lat="42.5216980464756488800048828125" lon="19.76292438805103302001953125">
        <ele>1874</ele>
        <time>2026-06-18T09:10:35.000Z</time>
        <extensions>
          <ns3:TrackPointExtension>
            <ns3:atemp>22.0</ns3:atemp>
          </ns3:TrackPointExtension>
        </extensions>
      </trkpt>
      <trkpt lat="42.5216980464756488800048828125" lon="19.76292438805103302001953125">
        <ele>1874</ele>
        <time>2026-06-18T09:10:36.000Z</time>
        <extensions>
          <ns3:TrackPointExtension>
            <ns3:atemp>22.0</ns3:atemp>
          </ns3:TrackPointExtension>
        </extensions>
      </trkpt>
      <trkpt lat="42.5216980464756488800048828125" lon="19.76292438805103302001953125">
        <ele>1874</ele>
        <time>2026-06-18T09:10:37.000Z</time>
        <extensions>
          <ns3:TrackPointExtension>
            <ns3:atemp>22.0</ns3:atemp>
          </ns3:TrackPointExtension>
        </extensions>
      </trkpt>
      <trkpt lat="42.5216980464756488800048828125" lon="19.76292438805103302001953125">
        <ele>1874</ele>
        <time>2026-06-18T09:10:38.000Z</time>
        <extensions>
          <ns3:TrackPointExtension>
            <ns3:atemp>22.0</ns3:atemp>
          </ns3:TrackPointExtension>
        </extensions>
      </trkpt>
      <trkpt lat="42.5216980464756488800048828125" lon="19.76292438805103302001953125">
        <ele>1874</ele>
        <time>2026-06-18T09:10:39.000Z</time>
        <extensions>
          <ns3:TrackPointExtension>
            <ns3:atemp>22.0</ns3:atemp>
          </ns3:TrackPointExtension>
        </extensions>
      </trkpt>
      <trkpt lat="42.5216980464756488800048828125" lon="19.76292438805103302001953125">
        <ele>1874</ele>
        <time>2026-06-18T09:10:40.000Z</time>
        <extensions>
          <ns3:TrackPointExtension>
            <ns3:atemp>22.0</ns3:atemp>
          </ns3:TrackPointExtension>
        </extensions>
      </trkpt>
      <trkpt lat="42.5216980464756488800048828125" lon="19.76292438805103302001953125">
        <ele>1874</ele>
        <time>2026-06-18T09:10:41.000Z</time>
        <extensions>
          <ns3:TrackPointExtension>
            <ns3:atemp>22.0</ns3:atemp>
          </ns3:TrackPointExtension>
        </extensions>
      </trkpt>
      <trkpt lat="42.5216980464756488800048828125" lon="19.76292438805103302001953125">
        <ele>1874</ele>
        <time>2026-06-18T09:10:42.000Z</time>
        <extensions>
          <ns3:TrackPointExtension>
            <ns3:atemp>22.0</ns3:atemp>
          </ns3:TrackPointExtension>
        </extensions>
      </trkpt>
      <trkpt lat="42.5216980464756488800048828125" lon="19.76292438805103302001953125">
        <ele>1874</ele>
        <time>2026-06-18T09:10:43.000Z</time>
        <extensions>
          <ns3:TrackPointExtension>
            <ns3:atemp>22.0</ns3:atemp>
          </ns3:TrackPointExtension>
        </extensions>
      </trkpt>
      <trkpt lat="42.5216980464756488800048828125" lon="19.76292438805103302001953125">
        <ele>1874</ele>
        <time>2026-06-18T09:10:44.000Z</time>
        <extensions>
          <ns3:TrackPointExtension>
            <ns3:atemp>22.0</ns3:atemp>
          </ns3:TrackPointExtension>
        </extensions>
      </trkpt>
      <trkpt lat="42.5216980464756488800048828125" lon="19.76292438805103302001953125">
        <ele>1874</ele>
        <time>2026-06-18T09:10:45.000Z</time>
        <extensions>
          <ns3:TrackPointExtension>
            <ns3:atemp>22.0</ns3:atemp>
          </ns3:TrackPointExtension>
        </extensions>
      </trkpt>
      <trkpt lat="42.5216980464756488800048828125" lon="19.76292438805103302001953125">
        <ele>1874</ele>
        <time>2026-06-18T09:10:46.000Z</time>
        <extensions>
          <ns3:TrackPointExtension>
            <ns3:atemp>22.0</ns3:atemp>
          </ns3:TrackPointExtension>
        </extensions>
      </trkpt>
      <trkpt lat="42.5216980464756488800048828125" lon="19.76292438805103302001953125">
        <ele>1874</ele>
        <time>2026-06-18T09:10:47.000Z</time>
        <extensions>
          <ns3:TrackPointExtension>
            <ns3:atemp>22.0</ns3:atemp>
          </ns3:TrackPointExtension>
        </extensions>
      </trkpt>
      <trkpt lat="42.5216980464756488800048828125" lon="19.76292438805103302001953125">
        <ele>1874</ele>
        <time>2026-06-18T09:10:48.000Z</time>
        <extensions>
          <ns3:TrackPointExtension>
            <ns3:atemp>22.0</ns3:atemp>
          </ns3:TrackPointExtension>
        </extensions>
      </trkpt>
      <trkpt lat="42.5216980464756488800048828125" lon="19.76292438805103302001953125">
        <ele>1874</ele>
        <time>2026-06-18T09:10:49.000Z</time>
        <extensions>
          <ns3:TrackPointExtension>
            <ns3:atemp>22.0</ns3:atemp>
          </ns3:TrackPointExtension>
        </extensions>
      </trkpt>
      <trkpt lat="42.5216980464756488800048828125" lon="19.76292438805103302001953125">
        <ele>1874</ele>
        <time>2026-06-18T09:10:50.000Z</time>
        <extensions>
          <ns3:TrackPointExtension>
            <ns3:atemp>22.0</ns3:atemp>
          </ns3:TrackPointExtension>
        </extensions>
      </trkpt>
      <trkpt lat="42.5216980464756488800048828125" lon="19.76292438805103302001953125">
        <ele>1874</ele>
        <time>2026-06-18T09:10:51.000Z</time>
        <extensions>
          <ns3:TrackPointExtension>
            <ns3:atemp>22.0</ns3:atemp>
          </ns3:TrackPointExtension>
        </extensions>
      </trkpt>
      <trkpt lat="42.5216980464756488800048828125" lon="19.76292438805103302001953125">
        <ele>1874</ele>
        <time>2026-06-18T09:10:52.000Z</time>
        <extensions>
          <ns3:TrackPointExtension>
            <ns3:atemp>22.0</ns3:atemp>
          </ns3:TrackPointExtension>
        </extensions>
      </trkpt>
      <trkpt lat="42.5216980464756488800048828125" lon="19.76292438805103302001953125">
        <ele>1874</ele>
        <time>2026-06-18T09:10:53.000Z</time>
        <extensions>
          <ns3:TrackPointExtension>
            <ns3:atemp>22.0</ns3:atemp>
          </ns3:TrackPointExtension>
        </extensions>
      </trkpt>
      <trkpt lat="42.5216980464756488800048828125" lon="19.76292438805103302001953125">
        <ele>1874</ele>
        <time>2026-06-18T09:10:54.000Z</time>
        <extensions>
          <ns3:TrackPointExtension>
            <ns3:atemp>22.0</ns3:atemp>
          </ns3:TrackPointExtension>
        </extensions>
      </trkpt>
      <trkpt lat="42.5216980464756488800048828125" lon="19.76292438805103302001953125">
        <ele>1874</ele>
        <time>2026-06-18T09:10:55.000Z</time>
        <extensions>
          <ns3:TrackPointExtension>
            <ns3:atemp>22.0</ns3:atemp>
          </ns3:TrackPointExtension>
        </extensions>
      </trkpt>
      <trkpt lat="42.5216980464756488800048828125" lon="19.76292438805103302001953125">
        <ele>1874</ele>
        <time>2026-06-18T09:10:56.000Z</time>
        <extensions>
          <ns3:TrackPointExtension>
            <ns3:atemp>22.0</ns3:atemp>
          </ns3:TrackPointExtension>
        </extensions>
      </trkpt>
      <trkpt lat="42.5216980464756488800048828125" lon="19.76292438805103302001953125">
        <ele>1874</ele>
        <time>2026-06-18T09:10:57.000Z</time>
        <extensions>
          <ns3:TrackPointExtension>
            <ns3:atemp>22.0</ns3:atemp>
          </ns3:TrackPointExtension>
        </extensions>
      </trkpt>
      <trkpt lat="42.5216980464756488800048828125" lon="19.76292438805103302001953125">
        <ele>1874</ele>
        <time>2026-06-18T09:10:58.000Z</time>
        <extensions>
          <ns3:TrackPointExtension>
            <ns3:atemp>22.0</ns3:atemp>
          </ns3:TrackPointExtension>
        </extensions>
      </trkpt>
      <trkpt lat="42.5216980464756488800048828125" lon="19.76292438805103302001953125">
        <ele>1874</ele>
        <time>2026-06-18T09:10:59.000Z</time>
        <extensions>
          <ns3:TrackPointExtension>
            <ns3:atemp>22.0</ns3:atemp>
          </ns3:TrackPointExtension>
        </extensions>
      </trkpt>
      <trkpt lat="42.5216980464756488800048828125" lon="19.76292438805103302001953125">
        <ele>1874</ele>
        <time>2026-06-18T09:11:00.000Z</time>
        <extensions>
          <ns3:TrackPointExtension>
            <ns3:atemp>22.0</ns3:atemp>
          </ns3:TrackPointExtension>
        </extensions>
      </trkpt>
      <trkpt lat="42.5216980464756488800048828125" lon="19.76292438805103302001953125">
        <ele>1874</ele>
        <time>2026-06-18T09:11:01.000Z</time>
        <extensions>
          <ns3:TrackPointExtension>
            <ns3:atemp>22.0</ns3:atemp>
          </ns3:TrackPointExtension>
        </extensions>
      </trkpt>
      <trkpt lat="42.5216980464756488800048828125" lon="19.76292438805103302001953125">
        <ele>1874</ele>
        <time>2026-06-18T09:11:02.000Z</time>
        <extensions>
          <ns3:TrackPointExtension>
            <ns3:atemp>22.0</ns3:atemp>
          </ns3:TrackPointExtension>
        </extensions>
      </trkpt>
      <trkpt lat="42.5216980464756488800048828125" lon="19.76292438805103302001953125">
        <ele>1874</ele>
        <time>2026-06-18T09:11:03.000Z</time>
        <extensions>
          <ns3:TrackPointExtension>
            <ns3:atemp>22.0</ns3:atemp>
          </ns3:TrackPointExtension>
        </extensions>
      </trkpt>
      <trkpt lat="42.5216980464756488800048828125" lon="19.76292438805103302001953125">
        <ele>1874</ele>
        <time>2026-06-18T09:11:04.000Z</time>
        <extensions>
          <ns3:TrackPointExtension>
            <ns3:atemp>22.0</ns3:atemp>
          </ns3:TrackPointExtension>
        </extensions>
      </trkpt>
      <trkpt lat="42.5216980464756488800048828125" lon="19.76292438805103302001953125">
        <ele>1874</ele>
        <time>2026-06-18T09:11:05.000Z</time>
        <extensions>
          <ns3:TrackPointExtension>
            <ns3:atemp>22.0</ns3:atemp>
          </ns3:TrackPointExtension>
        </extensions>
      </trkpt>
      <trkpt lat="42.5216980464756488800048828125" lon="19.76292438805103302001953125">
        <ele>1874</ele>
        <time>2026-06-18T09:11:06.000Z</time>
        <extensions>
          <ns3:TrackPointExtension>
            <ns3:atemp>22.0</ns3:atemp>
          </ns3:TrackPointExtension>
        </extensions>
      </trkpt>
      <trkpt lat="42.5216980464756488800048828125" lon="19.76292438805103302001953125">
        <ele>1874</ele>
        <time>2026-06-18T09:11:07.000Z</time>
        <extensions>
          <ns3:TrackPointExtension>
            <ns3:atemp>22.0</ns3:atemp>
          </ns3:TrackPointExtension>
        </extensions>
      </trkpt>
      <trkpt lat="42.5216980464756488800048828125" lon="19.76292438805103302001953125">
        <ele>1874</ele>
        <time>2026-06-18T09:11:08.000Z</time>
        <extensions>
          <ns3:TrackPointExtension>
            <ns3:atemp>22.0</ns3:atemp>
          </ns3:TrackPointExtension>
        </extensions>
      </trkpt>
      <trkpt lat="42.5216980464756488800048828125" lon="19.76292438805103302001953125">
        <ele>1874</ele>
        <time>2026-06-18T09:11:09.000Z</time>
        <extensions>
          <ns3:TrackPointExtension>
            <ns3:atemp>22.0</ns3:atemp>
          </ns3:TrackPointExtension>
        </extensions>
      </trkpt>
      <trkpt lat="42.5216980464756488800048828125" lon="19.76292438805103302001953125">
        <ele>1874</ele>
        <time>2026-06-18T09:11:10.000Z</time>
        <extensions>
          <ns3:TrackPointExtension>
            <ns3:atemp>22.0</ns3:atemp>
          </ns3:TrackPointExtension>
        </extensions>
      </trkpt>
      <trkpt lat="42.5216980464756488800048828125" lon="19.76292438805103302001953125">
        <ele>1874</ele>
        <time>2026-06-18T09:11:11.000Z</time>
        <extensions>
          <ns3:TrackPointExtension>
            <ns3:atemp>22.0</ns3:atemp>
          </ns3:TrackPointExtension>
        </extensions>
      </trkpt>
      <trkpt lat="42.5216980464756488800048828125" lon="19.76292438805103302001953125">
        <ele>1874</ele>
        <time>2026-06-18T09:11:12.000Z</time>
        <extensions>
          <ns3:TrackPointExtension>
            <ns3:atemp>22.0</ns3:atemp>
          </ns3:TrackPointExtension>
        </extensions>
      </trkpt>
      <trkpt lat="42.5216980464756488800048828125" lon="19.76292438805103302001953125">
        <ele>1874</ele>
        <time>2026-06-18T09:11:13.000Z</time>
        <extensions>
          <ns3:TrackPointExtension>
            <ns3:atemp>22.0</ns3:atemp>
          </ns3:TrackPointExtension>
        </extensions>
      </trkpt>
      <trkpt lat="42.5216980464756488800048828125" lon="19.76292438805103302001953125">
        <ele>1874</ele>
        <time>2026-06-18T09:11:14.000Z</time>
        <extensions>
          <ns3:TrackPointExtension>
            <ns3:atemp>22.0</ns3:atemp>
          </ns3:TrackPointExtension>
        </extensions>
      </trkpt>
      <trkpt lat="42.5216980464756488800048828125" lon="19.76292438805103302001953125">
        <ele>1874</ele>
        <time>2026-06-18T09:11:15.000Z</time>
        <extensions>
          <ns3:TrackPointExtension>
            <ns3:atemp>22.0</ns3:atemp>
          </ns3:TrackPointExtension>
        </extensions>
      </trkpt>
      <trkpt lat="42.5216980464756488800048828125" lon="19.76292438805103302001953125">
        <ele>1874</ele>
        <time>2026-06-18T09:11:16.000Z</time>
        <extensions>
          <ns3:TrackPointExtension>
            <ns3:atemp>22.0</ns3:atemp>
          </ns3:TrackPointExtension>
        </extensions>
      </trkpt>
      <trkpt lat="42.5216980464756488800048828125" lon="19.76292438805103302001953125">
        <ele>1874</ele>
        <time>2026-06-18T09:11:17.000Z</time>
        <extensions>
          <ns3:TrackPointExtension>
            <ns3:atemp>22.0</ns3:atemp>
          </ns3:TrackPointExtension>
        </extensions>
      </trkpt>
      <trkpt lat="42.5216980464756488800048828125" lon="19.76292438805103302001953125">
        <ele>1874</ele>
        <time>2026-06-18T09:11:18.000Z</time>
        <extensions>
          <ns3:TrackPointExtension>
            <ns3:atemp>22.0</ns3:atemp>
          </ns3:TrackPointExtension>
        </extensions>
      </trkpt>
      <trkpt lat="42.5216980464756488800048828125" lon="19.76292438805103302001953125">
        <ele>1874</ele>
        <time>2026-06-18T09:11:19.000Z</time>
        <extensions>
          <ns3:TrackPointExtension>
            <ns3:atemp>22.0</ns3:atemp>
          </ns3:TrackPointExtension>
        </extensions>
      </trkpt>
      <trkpt lat="42.5216980464756488800048828125" lon="19.76292438805103302001953125">
        <ele>1874</ele>
        <time>2026-06-18T09:11:20.000Z</time>
        <extensions>
          <ns3:TrackPointExtension>
            <ns3:atemp>22.0</ns3:atemp>
          </ns3:TrackPointExtension>
        </extensions>
      </trkpt>
      <trkpt lat="42.5216980464756488800048828125" lon="19.76292438805103302001953125">
        <ele>1874</ele>
        <time>2026-06-18T09:11:21.000Z</time>
        <extensions>
          <ns3:TrackPointExtension>
            <ns3:atemp>22.0</ns3:atemp>
          </ns3:TrackPointExtension>
        </extensions>
      </trkpt>
      <trkpt lat="42.5216980464756488800048828125" lon="19.76292438805103302001953125">
        <ele>1874</ele>
        <time>2026-06-18T09:11:22.000Z</time>
        <extensions>
          <ns3:TrackPointExtension>
            <ns3:atemp>22.0</ns3:atemp>
          </ns3:TrackPointExtension>
        </extensions>
      </trkpt>
      <trkpt lat="42.5216980464756488800048828125" lon="19.76292438805103302001953125">
        <ele>1874</ele>
        <time>2026-06-18T09:11:23.000Z</time>
        <extensions>
          <ns3:TrackPointExtension>
            <ns3:atemp>22.0</ns3:atemp>
          </ns3:TrackPointExtension>
        </extensions>
      </trkpt>
      <trkpt lat="42.5216980464756488800048828125" lon="19.76292438805103302001953125">
        <ele>1874</ele>
        <time>2026-06-18T09:11:24.000Z</time>
        <extensions>
          <ns3:TrackPointExtension>
            <ns3:atemp>22.0</ns3:atemp>
          </ns3:TrackPointExtension>
        </extensions>
      </trkpt>
      <trkpt lat="42.5216980464756488800048828125" lon="19.76292438805103302001953125">
        <ele>1874</ele>
        <time>2026-06-18T09:11:25.000Z</time>
        <extensions>
          <ns3:TrackPointExtension>
            <ns3:atemp>22.0</ns3:atemp>
          </ns3:TrackPointExtension>
        </extensions>
      </trkpt>
      <trkpt lat="42.5216980464756488800048828125" lon="19.76292438805103302001953125">
        <ele>1874</ele>
        <time>2026-06-18T09:11:26.000Z</time>
        <extensions>
          <ns3:TrackPointExtension>
            <ns3:atemp>22.0</ns3:atemp>
          </ns3:TrackPointExtension>
        </extensions>
      </trkpt>
      <trkpt lat="42.5216980464756488800048828125" lon="19.76292438805103302001953125">
        <ele>1874</ele>
        <time>2026-06-18T09:11:27.000Z</time>
        <extensions>
          <ns3:TrackPointExtension>
            <ns3:atemp>22.0</ns3:atemp>
          </ns3:TrackPointExtension>
        </extensions>
      </trkpt>
      <trkpt lat="42.5216980464756488800048828125" lon="19.76292438805103302001953125">
        <ele>1874</ele>
        <time>2026-06-18T09:11:28.000Z</time>
        <extensions>
          <ns3:TrackPointExtension>
            <ns3:atemp>22.0</ns3:atemp>
          </ns3:TrackPointExtension>
        </extensions>
      </trkpt>
      <trkpt lat="42.5216980464756488800048828125" lon="19.76292438805103302001953125">
        <ele>1874</ele>
        <time>2026-06-18T09:11:29.000Z</time>
        <extensions>
          <ns3:TrackPointExtension>
            <ns3:atemp>22.0</ns3:atemp>
          </ns3:TrackPointExtension>
        </extensions>
      </trkpt>
      <trkpt lat="42.5216980464756488800048828125" lon="19.76292438805103302001953125">
        <ele>1874</ele>
        <time>2026-06-18T09:11:30.000Z</time>
        <extensions>
          <ns3:TrackPointExtension>
            <ns3:atemp>22.0</ns3:atemp>
          </ns3:TrackPointExtension>
        </extensions>
      </trkpt>
      <trkpt lat="42.5216980464756488800048828125" lon="19.76292438805103302001953125">
        <ele>1874</ele>
        <time>2026-06-18T09:11:31.000Z</time>
        <extensions>
          <ns3:TrackPointExtension>
            <ns3:atemp>22.0</ns3:atemp>
          </ns3:TrackPointExtension>
        </extensions>
      </trkpt>
      <trkpt lat="42.5216980464756488800048828125" lon="19.76292438805103302001953125">
        <ele>1874</ele>
        <time>2026-06-18T09:11:32.000Z</time>
        <extensions>
          <ns3:TrackPointExtension>
            <ns3:atemp>22.0</ns3:atemp>
          </ns3:TrackPointExtension>
        </extensions>
      </trkpt>
      <trkpt lat="42.5216980464756488800048828125" lon="19.76292438805103302001953125">
        <ele>1874</ele>
        <time>2026-06-18T09:11:33.000Z</time>
        <extensions>
          <ns3:TrackPointExtension>
            <ns3:atemp>22.0</ns3:atemp>
          </ns3:TrackPointExtension>
        </extensions>
      </trkpt>
      <trkpt lat="42.5216980464756488800048828125" lon="19.76292438805103302001953125">
        <ele>1874</ele>
        <time>2026-06-18T09:11:34.000Z</time>
        <extensions>
          <ns3:TrackPointExtension>
            <ns3:atemp>22.0</ns3:atemp>
          </ns3:TrackPointExtension>
        </extensions>
      </trkpt>
      <trkpt lat="42.5216980464756488800048828125" lon="19.76292438805103302001953125">
        <ele>1874</ele>
        <time>2026-06-18T09:11:35.000Z</time>
        <extensions>
          <ns3:TrackPointExtension>
            <ns3:atemp>22.0</ns3:atemp>
          </ns3:TrackPointExtension>
        </extensions>
      </trkpt>
      <trkpt lat="42.5216980464756488800048828125" lon="19.76292438805103302001953125">
        <ele>1874</ele>
        <time>2026-06-18T09:11:36.000Z</time>
        <extensions>
          <ns3:TrackPointExtension>
            <ns3:atemp>22.0</ns3:atemp>
          </ns3:TrackPointExtension>
        </extensions>
      </trkpt>
      <trkpt lat="42.5216980464756488800048828125" lon="19.76292438805103302001953125">
        <ele>1874</ele>
        <time>2026-06-18T09:11:37.000Z</time>
        <extensions>
          <ns3:TrackPointExtension>
            <ns3:atemp>22.0</ns3:atemp>
          </ns3:TrackPointExtension>
        </extensions>
      </trkpt>
      <trkpt lat="42.5216980464756488800048828125" lon="19.76292438805103302001953125">
        <ele>1874</ele>
        <time>2026-06-18T09:11:38.000Z</time>
        <extensions>
          <ns3:TrackPointExtension>
            <ns3:atemp>22.0</ns3:atemp>
          </ns3:TrackPointExtension>
        </extensions>
      </trkpt>
      <trkpt lat="42.5216980464756488800048828125" lon="19.76292438805103302001953125">
        <ele>1874</ele>
        <time>2026-06-18T09:11:39.000Z</time>
        <extensions>
          <ns3:TrackPointExtension>
            <ns3:atemp>22.0</ns3:atemp>
          </ns3:TrackPointExtension>
        </extensions>
      </trkpt>
      <trkpt lat="42.5216980464756488800048828125" lon="19.76292438805103302001953125">
        <ele>1874</ele>
        <time>2026-06-18T09:11:40.000Z</time>
        <extensions>
          <ns3:TrackPointExtension>
            <ns3:atemp>22.0</ns3:atemp>
          </ns3:TrackPointExtension>
        </extensions>
      </trkpt>
      <trkpt lat="42.5216980464756488800048828125" lon="19.76292438805103302001953125">
        <ele>1874</ele>
        <time>2026-06-18T09:11:41.000Z</time>
        <extensions>
          <ns3:TrackPointExtension>
            <ns3:atemp>22.0</ns3:atemp>
          </ns3:TrackPointExtension>
        </extensions>
      </trkpt>
      <trkpt lat="42.5216980464756488800048828125" lon="19.76292438805103302001953125">
        <ele>1874</ele>
        <time>2026-06-18T09:11:42.000Z</time>
        <extensions>
          <ns3:TrackPointExtension>
            <ns3:atemp>22.0</ns3:atemp>
          </ns3:TrackPointExtension>
        </extensions>
      </trkpt>
      <trkpt lat="42.5216980464756488800048828125" lon="19.76292438805103302001953125">
        <ele>1874</ele>
        <time>2026-06-18T09:11:43.000Z</time>
        <extensions>
          <ns3:TrackPointExtension>
            <ns3:atemp>22.0</ns3:atemp>
          </ns3:TrackPointExtension>
        </extensions>
      </trkpt>
      <trkpt lat="42.5216980464756488800048828125" lon="19.76292438805103302001953125">
        <ele>1874</ele>
        <time>2026-06-18T09:11:44.000Z</time>
        <extensions>
          <ns3:TrackPointExtension>
            <ns3:atemp>22.0</ns3:atemp>
          </ns3:TrackPointExtension>
        </extensions>
      </trkpt>
      <trkpt lat="42.5216980464756488800048828125" lon="19.76292438805103302001953125">
        <ele>1874</ele>
        <time>2026-06-18T09:11:45.000Z</time>
        <extensions>
          <ns3:TrackPointExtension>
            <ns3:atemp>22.0</ns3:atemp>
          </ns3:TrackPointExtension>
        </extensions>
      </trkpt>
      <trkpt lat="42.5216980464756488800048828125" lon="19.76292438805103302001953125">
        <ele>1874</ele>
        <time>2026-06-18T09:11:46.000Z</time>
        <extensions>
          <ns3:TrackPointExtension>
            <ns3:atemp>22.0</ns3:atemp>
          </ns3:TrackPointExtension>
        </extensions>
      </trkpt>
      <trkpt lat="42.5216980464756488800048828125" lon="19.76292438805103302001953125">
        <ele>1874</ele>
        <time>2026-06-18T09:11:47.000Z</time>
        <extensions>
          <ns3:TrackPointExtension>
            <ns3:atemp>22.0</ns3:atemp>
          </ns3:TrackPointExtension>
        </extensions>
      </trkpt>
      <trkpt lat="42.5216980464756488800048828125" lon="19.76292438805103302001953125">
        <ele>1874</ele>
        <time>2026-06-18T09:11:48.000Z</time>
        <extensions>
          <ns3:TrackPointExtension>
            <ns3:atemp>22.0</ns3:atemp>
          </ns3:TrackPointExtension>
        </extensions>
      </trkpt>
      <trkpt lat="42.5216980464756488800048828125" lon="19.76292438805103302001953125">
        <ele>1874</ele>
        <time>2026-06-18T09:11:49.000Z</time>
        <extensions>
          <ns3:TrackPointExtension>
            <ns3:atemp>22.0</ns3:atemp>
          </ns3:TrackPointExtension>
        </extensions>
      </trkpt>
      <trkpt lat="42.5216980464756488800048828125" lon="19.76292438805103302001953125">
        <ele>1874</ele>
        <time>2026-06-18T09:11:50.000Z</time>
        <extensions>
          <ns3:TrackPointExtension>
            <ns3:atemp>22.0</ns3:atemp>
          </ns3:TrackPointExtension>
        </extensions>
      </trkpt>
      <trkpt lat="42.5216980464756488800048828125" lon="19.76292438805103302001953125">
        <ele>1874</ele>
        <time>2026-06-18T09:11:51.000Z</time>
        <extensions>
          <ns3:TrackPointExtension>
            <ns3:atemp>22.0</ns3:atemp>
          </ns3:TrackPointExtension>
        </extensions>
      </trkpt>
      <trkpt lat="42.5216980464756488800048828125" lon="19.76292438805103302001953125">
        <ele>1874</ele>
        <time>2026-06-18T09:11:52.000Z</time>
        <extensions>
          <ns3:TrackPointExtension>
            <ns3:atemp>22.0</ns3:atemp>
          </ns3:TrackPointExtension>
        </extensions>
      </trkpt>
      <trkpt lat="42.5216980464756488800048828125" lon="19.76292438805103302001953125">
        <ele>1874</ele>
        <time>2026-06-18T09:11:53.000Z</time>
        <extensions>
          <ns3:TrackPointExtension>
            <ns3:atemp>22.0</ns3:atemp>
          </ns3:TrackPointExtension>
        </extensions>
      </trkpt>
      <trkpt lat="42.5216980464756488800048828125" lon="19.76292438805103302001953125">
        <ele>1874</ele>
        <time>2026-06-18T09:11:54.000Z</time>
        <extensions>
          <ns3:TrackPointExtension>
            <ns3:atemp>22.0</ns3:atemp>
          </ns3:TrackPointExtension>
        </extensions>
      </trkpt>
      <trkpt lat="42.5216980464756488800048828125" lon="19.76292438805103302001953125">
        <ele>1874</ele>
        <time>2026-06-18T09:11:55.000Z</time>
        <extensions>
          <ns3:TrackPointExtension>
            <ns3:atemp>22.0</ns3:atemp>
          </ns3:TrackPointExtension>
        </extensions>
      </trkpt>
      <trkpt lat="42.5216980464756488800048828125" lon="19.76292438805103302001953125">
        <ele>1874</ele>
        <time>2026-06-18T09:11:56.000Z</time>
        <extensions>
          <ns3:TrackPointExtension>
            <ns3:atemp>22.0</ns3:atemp>
          </ns3:TrackPointExtension>
        </extensions>
      </trkpt>
      <trkpt lat="42.5216980464756488800048828125" lon="19.76292438805103302001953125">
        <ele>1874</ele>
        <time>2026-06-18T09:11:57.000Z</time>
        <extensions>
          <ns3:TrackPointExtension>
            <ns3:atemp>22.0</ns3:atemp>
          </ns3:TrackPointExtension>
        </extensions>
      </trkpt>
      <trkpt lat="42.5216980464756488800048828125" lon="19.76292438805103302001953125">
        <ele>1874</ele>
        <time>2026-06-18T09:11:58.000Z</time>
        <extensions>
          <ns3:TrackPointExtension>
            <ns3:atemp>22.0</ns3:atemp>
          </ns3:TrackPointExtension>
        </extensions>
      </trkpt>
      <trkpt lat="42.5216980464756488800048828125" lon="19.76292438805103302001953125">
        <ele>1874</ele>
        <time>2026-06-18T09:11:59.000Z</time>
        <extensions>
          <ns3:TrackPointExtension>
            <ns3:atemp>22.0</ns3:atemp>
          </ns3:TrackPointExtension>
        </extensions>
      </trkpt>
      <trkpt lat="42.5216980464756488800048828125" lon="19.76292438805103302001953125">
        <ele>1874</ele>
        <time>2026-06-18T09:12:00.000Z</time>
        <extensions>
          <ns3:TrackPointExtension>
            <ns3:atemp>22.0</ns3:atemp>
          </ns3:TrackPointExtension>
        </extensions>
      </trkpt>
      <trkpt lat="42.5216980464756488800048828125" lon="19.76292438805103302001953125">
        <ele>1874</ele>
        <time>2026-06-18T09:12:01.000Z</time>
        <extensions>
          <ns3:TrackPointExtension>
            <ns3:atemp>22.0</ns3:atemp>
          </ns3:TrackPointExtension>
        </extensions>
      </trkpt>
      <trkpt lat="42.5216980464756488800048828125" lon="19.76292438805103302001953125">
        <ele>1874</ele>
        <time>2026-06-18T09:12:02.000Z</time>
        <extensions>
          <ns3:TrackPointExtension>
            <ns3:atemp>22.0</ns3:atemp>
          </ns3:TrackPointExtension>
        </extensions>
      </trkpt>
      <trkpt lat="42.5216980464756488800048828125" lon="19.76292438805103302001953125">
        <ele>1874</ele>
        <time>2026-06-18T09:12:03.000Z</time>
        <extensions>
          <ns3:TrackPointExtension>
            <ns3:atemp>22.0</ns3:atemp>
          </ns3:TrackPointExtension>
        </extensions>
      </trkpt>
      <trkpt lat="42.5216980464756488800048828125" lon="19.76292438805103302001953125">
        <ele>1874</ele>
        <time>2026-06-18T09:12:04.000Z</time>
        <extensions>
          <ns3:TrackPointExtension>
            <ns3:atemp>22.0</ns3:atemp>
          </ns3:TrackPointExtension>
        </extensions>
      </trkpt>
      <trkpt lat="42.5216980464756488800048828125" lon="19.76292438805103302001953125">
        <ele>1874</ele>
        <time>2026-06-18T09:12:05.000Z</time>
        <extensions>
          <ns3:TrackPointExtension>
            <ns3:atemp>22.0</ns3:atemp>
          </ns3:TrackPointExtension>
        </extensions>
      </trkpt>
      <trkpt lat="42.5216980464756488800048828125" lon="19.76292438805103302001953125">
        <ele>1874</ele>
        <time>2026-06-18T09:12:06.000Z</time>
        <extensions>
          <ns3:TrackPointExtension>
            <ns3:atemp>22.0</ns3:atemp>
          </ns3:TrackPointExtension>
        </extensions>
      </trkpt>
      <trkpt lat="42.5216980464756488800048828125" lon="19.76292438805103302001953125">
        <ele>1874</ele>
        <time>2026-06-18T09:12:07.000Z</time>
        <extensions>
          <ns3:TrackPointExtension>
            <ns3:atemp>22.0</ns3:atemp>
          </ns3:TrackPointExtension>
        </extensions>
      </trkpt>
      <trkpt lat="42.5216980464756488800048828125" lon="19.76292438805103302001953125">
        <ele>1874</ele>
        <time>2026-06-18T09:12:08.000Z</time>
        <extensions>
          <ns3:TrackPointExtension>
            <ns3:atemp>22.0</ns3:atemp>
          </ns3:TrackPointExtension>
        </extensions>
      </trkpt>
      <trkpt lat="42.5216980464756488800048828125" lon="19.76292438805103302001953125">
        <ele>1874</ele>
        <time>2026-06-18T09:12:09.000Z</time>
        <extensions>
          <ns3:TrackPointExtension>
            <ns3:atemp>22.0</ns3:atemp>
          </ns3:TrackPointExtension>
        </extensions>
      </trkpt>
      <trkpt lat="42.5216980464756488800048828125" lon="19.76292438805103302001953125">
        <ele>1874</ele>
        <time>2026-06-18T09:12:10.000Z</time>
        <extensions>
          <ns3:TrackPointExtension>
            <ns3:atemp>22.0</ns3:atemp>
          </ns3:TrackPointExtension>
        </extensions>
      </trkpt>
      <trkpt lat="42.5216980464756488800048828125" lon="19.76292438805103302001953125">
        <ele>1874</ele>
        <time>2026-06-18T09:12:11.000Z</time>
        <extensions>
          <ns3:TrackPointExtension>
            <ns3:atemp>22.0</ns3:atemp>
          </ns3:TrackPointExtension>
        </extensions>
      </trkpt>
      <trkpt lat="42.5216980464756488800048828125" lon="19.76292438805103302001953125">
        <ele>1874</ele>
        <time>2026-06-18T09:12:12.000Z</time>
        <extensions>
          <ns3:TrackPointExtension>
            <ns3:atemp>22.0</ns3:atemp>
          </ns3:TrackPointExtension>
        </extensions>
      </trkpt>
      <trkpt lat="42.5216980464756488800048828125" lon="19.76292438805103302001953125">
        <ele>1874</ele>
        <time>2026-06-18T09:12:13.000Z</time>
        <extensions>
          <ns3:TrackPointExtension>
            <ns3:atemp>22.0</ns3:atemp>
          </ns3:TrackPointExtension>
        </extensions>
      </trkpt>
      <trkpt lat="42.5216980464756488800048828125" lon="19.76292438805103302001953125">
        <ele>1874</ele>
        <time>2026-06-18T09:12:14.000Z</time>
        <extensions>
          <ns3:TrackPointExtension>
            <ns3:atemp>22.0</ns3:atemp>
          </ns3:TrackPointExtension>
        </extensions>
      </trkpt>
      <trkpt lat="42.5216980464756488800048828125" lon="19.76292438805103302001953125">
        <ele>1874</ele>
        <time>2026-06-18T09:12:15.000Z</time>
        <extensions>
          <ns3:TrackPointExtension>
            <ns3:atemp>22.0</ns3:atemp>
          </ns3:TrackPointExtension>
        </extensions>
      </trkpt>
      <trkpt lat="42.5216980464756488800048828125" lon="19.76292438805103302001953125">
        <ele>1874</ele>
        <time>2026-06-18T09:12:16.000Z</time>
        <extensions>
          <ns3:TrackPointExtension>
            <ns3:atemp>22.0</ns3:atemp>
          </ns3:TrackPointExtension>
        </extensions>
      </trkpt>
      <trkpt lat="42.5216980464756488800048828125" lon="19.76292438805103302001953125">
        <ele>1874</ele>
        <time>2026-06-18T09:12:17.000Z</time>
        <extensions>
          <ns3:TrackPointExtension>
            <ns3:atemp>22.0</ns3:atemp>
          </ns3:TrackPointExtension>
        </extensions>
      </trkpt>
      <trkpt lat="42.5216980464756488800048828125" lon="19.76292438805103302001953125">
        <ele>1874</ele>
        <time>2026-06-18T09:12:18.000Z</time>
        <extensions>
          <ns3:TrackPointExtension>
            <ns3:atemp>22.0</ns3:atemp>
          </ns3:TrackPointExtension>
        </extensions>
      </trkpt>
      <trkpt lat="42.5216980464756488800048828125" lon="19.76292438805103302001953125">
        <ele>1874</ele>
        <time>2026-06-18T09:12:19.000Z</time>
        <extensions>
          <ns3:TrackPointExtension>
            <ns3:atemp>22.0</ns3:atemp>
          </ns3:TrackPointExtension>
        </extensions>
      </trkpt>
      <trkpt lat="42.5216980464756488800048828125" lon="19.76292438805103302001953125">
        <ele>1874</ele>
        <time>2026-06-18T09:12:20.000Z</time>
        <extensions>
          <ns3:TrackPointExtension>
            <ns3:atemp>22.0</ns3:atemp>
          </ns3:TrackPointExtension>
        </extensions>
      </trkpt>
      <trkpt lat="42.5216980464756488800048828125" lon="19.76292438805103302001953125">
        <ele>1874</ele>
        <time>2026-06-18T09:12:21.000Z</time>
        <extensions>
          <ns3:TrackPointExtension>
            <ns3:atemp>22.0</ns3:atemp>
          </ns3:TrackPointExtension>
        </extensions>
      </trkpt>
      <trkpt lat="42.5216980464756488800048828125" lon="19.76292438805103302001953125">
        <ele>1874</ele>
        <time>2026-06-18T09:12:22.000Z</time>
        <extensions>
          <ns3:TrackPointExtension>
            <ns3:atemp>22.0</ns3:atemp>
          </ns3:TrackPointExtension>
        </extensions>
      </trkpt>
      <trkpt lat="42.5216980464756488800048828125" lon="19.76292438805103302001953125">
        <ele>1874</ele>
        <time>2026-06-18T09:12:23.000Z</time>
        <extensions>
          <ns3:TrackPointExtension>
            <ns3:atemp>22.0</ns3:atemp>
          </ns3:TrackPointExtension>
        </extensions>
      </trkpt>
      <trkpt lat="42.5216980464756488800048828125" lon="19.76292438805103302001953125">
        <ele>1874</ele>
        <time>2026-06-18T09:12:24.000Z</time>
        <extensions>
          <ns3:TrackPointExtension>
            <ns3:atemp>22.0</ns3:atemp>
          </ns3:TrackPointExtension>
        </extensions>
      </trkpt>
      <trkpt lat="42.5216980464756488800048828125" lon="19.76292438805103302001953125">
        <ele>1874</ele>
        <time>2026-06-18T09:12:25.000Z</time>
        <extensions>
          <ns3:TrackPointExtension>
            <ns3:atemp>22.0</ns3:atemp>
          </ns3:TrackPointExtension>
        </extensions>
      </trkpt>
      <trkpt lat="42.5216980464756488800048828125" lon="19.76292438805103302001953125">
        <ele>1874</ele>
        <time>2026-06-18T09:12:26.000Z</time>
        <extensions>
          <ns3:TrackPointExtension>
            <ns3:atemp>22.0</ns3:atemp>
          </ns3:TrackPointExtension>
        </extensions>
      </trkpt>
      <trkpt lat="42.5216980464756488800048828125" lon="19.76292438805103302001953125">
        <ele>1874</ele>
        <time>2026-06-18T09:12:27.000Z</time>
        <extensions>
          <ns3:TrackPointExtension>
            <ns3:atemp>22.0</ns3:atemp>
          </ns3:TrackPointExtension>
        </extensions>
      </trkpt>
      <trkpt lat="42.5216980464756488800048828125" lon="19.76292438805103302001953125">
        <ele>1874</ele>
        <time>2026-06-18T09:12:28.000Z</time>
        <extensions>
          <ns3:TrackPointExtension>
            <ns3:atemp>22.0</ns3:atemp>
          </ns3:TrackPointExtension>
        </extensions>
      </trkpt>
      <trkpt lat="42.5216980464756488800048828125" lon="19.76292438805103302001953125">
        <ele>1874</ele>
        <time>2026-06-18T09:12:29.000Z</time>
        <extensions>
          <ns3:TrackPointExtension>
            <ns3:atemp>22.0</ns3:atemp>
          </ns3:TrackPointExtension>
        </extensions>
      </trkpt>
      <trkpt lat="42.5216980464756488800048828125" lon="19.76292438805103302001953125">
        <ele>1874</ele>
        <time>2026-06-18T09:12:30.000Z</time>
        <extensions>
          <ns3:TrackPointExtension>
            <ns3:atemp>22.0</ns3:atemp>
          </ns3:TrackPointExtension>
        </extensions>
      </trkpt>
      <trkpt lat="42.5216980464756488800048828125" lon="19.76292438805103302001953125">
        <ele>1874</ele>
        <time>2026-06-18T09:12:31.000Z</time>
        <extensions>
          <ns3:TrackPointExtension>
            <ns3:atemp>22.0</ns3:atemp>
          </ns3:TrackPointExtension>
        </extensions>
      </trkpt>
      <trkpt lat="42.5216980464756488800048828125" lon="19.76292438805103302001953125">
        <ele>1874</ele>
        <time>2026-06-18T09:12:32.000Z</time>
        <extensions>
          <ns3:TrackPointExtension>
            <ns3:atemp>22.0</ns3:atemp>
          </ns3:TrackPointExtension>
        </extensions>
      </trkpt>
      <trkpt lat="42.5216980464756488800048828125" lon="19.76292438805103302001953125">
        <ele>1874</ele>
        <time>2026-06-18T09:12:33.000Z</time>
        <extensions>
          <ns3:TrackPointExtension>
            <ns3:atemp>22.0</ns3:atemp>
          </ns3:TrackPointExtension>
        </extensions>
      </trkpt>
      <trkpt lat="42.5216980464756488800048828125" lon="19.76292438805103302001953125">
        <ele>1874</ele>
        <time>2026-06-18T09:12:34.000Z</time>
        <extensions>
          <ns3:TrackPointExtension>
            <ns3:atemp>22.0</ns3:atemp>
          </ns3:TrackPointExtension>
        </extensions>
      </trkpt>
      <trkpt lat="42.5216980464756488800048828125" lon="19.76292438805103302001953125">
        <ele>1874</ele>
        <time>2026-06-18T09:12:35.000Z</time>
        <extensions>
          <ns3:TrackPointExtension>
            <ns3:atemp>22.0</ns3:atemp>
          </ns3:TrackPointExtension>
        </extensions>
      </trkpt>
      <trkpt lat="42.5216980464756488800048828125" lon="19.76292438805103302001953125">
        <ele>1874</ele>
        <time>2026-06-18T09:12:36.000Z</time>
        <extensions>
          <ns3:TrackPointExtension>
            <ns3:atemp>22.0</ns3:atemp>
          </ns3:TrackPointExtension>
        </extensions>
      </trkpt>
      <trkpt lat="42.5216980464756488800048828125" lon="19.76292438805103302001953125">
        <ele>1874</ele>
        <time>2026-06-18T09:12:37.000Z</time>
        <extensions>
          <ns3:TrackPointExtension>
            <ns3:atemp>22.0</ns3:atemp>
          </ns3:TrackPointExtension>
        </extensions>
      </trkpt>
      <trkpt lat="42.5216980464756488800048828125" lon="19.76292438805103302001953125">
        <ele>1874</ele>
        <time>2026-06-18T09:12:38.000Z</time>
        <extensions>
          <ns3:TrackPointExtension>
            <ns3:atemp>22.0</ns3:atemp>
          </ns3:TrackPointExtension>
        </extensions>
      </trkpt>
      <trkpt lat="42.5216980464756488800048828125" lon="19.76292438805103302001953125">
        <ele>1874</ele>
        <time>2026-06-18T09:12:39.000Z</time>
        <extensions>
          <ns3:TrackPointExtension>
            <ns3:atemp>22.0</ns3:atemp>
          </ns3:TrackPointExtension>
        </extensions>
      </trkpt>
      <trkpt lat="42.5216980464756488800048828125" lon="19.76292438805103302001953125">
        <ele>1874</ele>
        <time>2026-06-18T09:12:40.000Z</time>
        <extensions>
          <ns3:TrackPointExtension>
            <ns3:atemp>22.0</ns3:atemp>
          </ns3:TrackPointExtension>
        </extensions>
      </trkpt>
      <trkpt lat="42.5216980464756488800048828125" lon="19.76292438805103302001953125">
        <ele>1874</ele>
        <time>2026-06-18T09:12:41.000Z</time>
        <extensions>
          <ns3:TrackPointExtension>
            <ns3:atemp>22.0</ns3:atemp>
          </ns3:TrackPointExtension>
        </extensions>
      </trkpt>
      <trkpt lat="42.5216980464756488800048828125" lon="19.76292438805103302001953125">
        <ele>1874</ele>
        <time>2026-06-18T09:12:42.000Z</time>
        <extensions>
          <ns3:TrackPointExtension>
            <ns3:atemp>22.0</ns3:atemp>
          </ns3:TrackPointExtension>
        </extensions>
      </trkpt>
      <trkpt lat="42.5216980464756488800048828125" lon="19.76292438805103302001953125">
        <ele>1874</ele>
        <time>2026-06-18T09:12:43.000Z</time>
        <extensions>
          <ns3:TrackPointExtension>
            <ns3:atemp>22.0</ns3:atemp>
          </ns3:TrackPointExtension>
        </extensions>
      </trkpt>
      <trkpt lat="42.5216980464756488800048828125" lon="19.76292438805103302001953125">
        <ele>1874</ele>
        <time>2026-06-18T09:12:44.000Z</time>
        <extensions>
          <ns3:TrackPointExtension>
            <ns3:atemp>22.0</ns3:atemp>
          </ns3:TrackPointExtension>
        </extensions>
      </trkpt>
      <trkpt lat="42.5216980464756488800048828125" lon="19.76292438805103302001953125">
        <ele>1874</ele>
        <time>2026-06-18T09:12:45.000Z</time>
        <extensions>
          <ns3:TrackPointExtension>
            <ns3:atemp>22.0</ns3:atemp>
          </ns3:TrackPointExtension>
        </extensions>
      </trkpt>
      <trkpt lat="42.5216980464756488800048828125" lon="19.76292438805103302001953125">
        <ele>1874</ele>
        <time>2026-06-18T09:12:46.000Z</time>
        <extensions>
          <ns3:TrackPointExtension>
            <ns3:atemp>22.0</ns3:atemp>
          </ns3:TrackPointExtension>
        </extensions>
      </trkpt>
      <trkpt lat="42.5216980464756488800048828125" lon="19.76292438805103302001953125">
        <ele>1874</ele>
        <time>2026-06-18T09:12:47.000Z</time>
        <extensions>
          <ns3:TrackPointExtension>
            <ns3:atemp>22.0</ns3:atemp>
          </ns3:TrackPointExtension>
        </extensions>
      </trkpt>
      <trkpt lat="42.5216980464756488800048828125" lon="19.76292438805103302001953125">
        <ele>1874</ele>
        <time>2026-06-18T09:12:48.000Z</time>
        <extensions>
          <ns3:TrackPointExtension>
            <ns3:atemp>22.0</ns3:atemp>
          </ns3:TrackPointExtension>
        </extensions>
      </trkpt>
      <trkpt lat="42.5216980464756488800048828125" lon="19.76292438805103302001953125">
        <ele>1874</ele>
        <time>2026-06-18T09:12:49.000Z</time>
        <extensions>
          <ns3:TrackPointExtension>
            <ns3:atemp>22.0</ns3:atemp>
          </ns3:TrackPointExtension>
        </extensions>
      </trkpt>
      <trkpt lat="42.5216980464756488800048828125" lon="19.76292438805103302001953125">
        <ele>1874</ele>
        <time>2026-06-18T09:12:50.000Z</time>
        <extensions>
          <ns3:TrackPointExtension>
            <ns3:atemp>22.0</ns3:atemp>
          </ns3:TrackPointExtension>
        </extensions>
      </trkpt>
      <trkpt lat="42.5216980464756488800048828125" lon="19.76292438805103302001953125">
        <ele>1874</ele>
        <time>2026-06-18T09:12:51.000Z</time>
        <extensions>
          <ns3:TrackPointExtension>
            <ns3:atemp>22.0</ns3:atemp>
          </ns3:TrackPointExtension>
        </extensions>
      </trkpt>
      <trkpt lat="42.5216980464756488800048828125" lon="19.76292438805103302001953125">
        <ele>1874</ele>
        <time>2026-06-18T09:12:52.000Z</time>
        <extensions>
          <ns3:TrackPointExtension>
            <ns3:atemp>23.0</ns3:atemp>
          </ns3:TrackPointExtension>
        </extensions>
      </trkpt>
      <trkpt lat="42.5216980464756488800048828125" lon="19.76292438805103302001953125">
        <ele>1874</ele>
        <time>2026-06-18T09:12:53.000Z</time>
        <extensions>
          <ns3:TrackPointExtension>
            <ns3:atemp>23.0</ns3:atemp>
          </ns3:TrackPointExtension>
        </extensions>
      </trkpt>
      <trkpt lat="42.5216980464756488800048828125" lon="19.76292438805103302001953125">
        <ele>1874</ele>
        <time>2026-06-18T09:12:54.000Z</time>
        <extensions>
          <ns3:TrackPointExtension>
            <ns3:atemp>23.0</ns3:atemp>
          </ns3:TrackPointExtension>
        </extensions>
      </trkpt>
      <trkpt lat="42.5216980464756488800048828125" lon="19.76292438805103302001953125">
        <ele>1874</ele>
        <time>2026-06-18T09:12:55.000Z</time>
        <extensions>
          <ns3:TrackPointExtension>
            <ns3:atemp>23.0</ns3:atemp>
          </ns3:TrackPointExtension>
        </extensions>
      </trkpt>
      <trkpt lat="42.5216980464756488800048828125" lon="19.76292438805103302001953125">
        <ele>1874</ele>
        <time>2026-06-18T09:12:56.000Z</time>
        <extensions>
          <ns3:TrackPointExtension>
            <ns3:atemp>23.0</ns3:atemp>
          </ns3:TrackPointExtension>
        </extensions>
      </trkpt>
      <trkpt lat="42.5216980464756488800048828125" lon="19.76292438805103302001953125">
        <ele>1874</ele>
        <time>2026-06-18T09:12:57.000Z</time>
        <extensions>
          <ns3:TrackPointExtension>
            <ns3:atemp>22.0</ns3:atemp>
          </ns3:TrackPointExtension>
        </extensions>
      </trkpt>
      <trkpt lat="42.5216980464756488800048828125" lon="19.76292438805103302001953125">
        <ele>1874</ele>
        <time>2026-06-18T09:12:58.000Z</time>
        <extensions>
          <ns3:TrackPointExtension>
            <ns3:atemp>22.0</ns3:atemp>
          </ns3:TrackPointExtension>
        </extensions>
      </trkpt>
      <trkpt lat="42.5216980464756488800048828125" lon="19.76292438805103302001953125">
        <ele>1874</ele>
        <time>2026-06-18T09:12:59.000Z</time>
        <extensions>
          <ns3:TrackPointExtension>
            <ns3:atemp>22.0</ns3:atemp>
          </ns3:TrackPointExtension>
        </extensions>
      </trkpt>
      <trkpt lat="42.5216980464756488800048828125" lon="19.76292438805103302001953125">
        <ele>1874</ele>
        <time>2026-06-18T09:13:00.000Z</time>
        <extensions>
          <ns3:TrackPointExtension>
            <ns3:atemp>22.0</ns3:atemp>
          </ns3:TrackPointExtension>
        </extensions>
      </trkpt>
      <trkpt lat="42.5216980464756488800048828125" lon="19.76292438805103302001953125">
        <ele>1874</ele>
        <time>2026-06-18T09:13:01.000Z</time>
        <extensions>
          <ns3:TrackPointExtension>
            <ns3:atemp>22.0</ns3:atemp>
          </ns3:TrackPointExtension>
        </extensions>
      </trkpt>
      <trkpt lat="42.5216980464756488800048828125" lon="19.76292438805103302001953125">
        <ele>1874</ele>
        <time>2026-06-18T09:13:02.000Z</time>
        <extensions>
          <ns3:TrackPointExtension>
            <ns3:atemp>23.0</ns3:atemp>
          </ns3:TrackPointExtension>
        </extensions>
      </trkpt>
      <trkpt lat="42.5216980464756488800048828125" lon="19.76292438805103302001953125">
        <ele>1874</ele>
        <time>2026-06-18T09:13:03.000Z</time>
        <extensions>
          <ns3:TrackPointExtension>
            <ns3:atemp>23.0</ns3:atemp>
          </ns3:TrackPointExtension>
        </extensions>
      </trkpt>
      <trkpt lat="42.5216980464756488800048828125" lon="19.76292438805103302001953125">
        <ele>1874</ele>
        <time>2026-06-18T09:13:04.000Z</time>
        <extensions>
          <ns3:TrackPointExtension>
            <ns3:atemp>23.0</ns3:atemp>
          </ns3:TrackPointExtension>
        </extensions>
      </trkpt>
      <trkpt lat="42.5216980464756488800048828125" lon="19.76292438805103302001953125">
        <ele>1874</ele>
        <time>2026-06-18T09:13:05.000Z</time>
        <extensions>
          <ns3:TrackPointExtension>
            <ns3:atemp>23.0</ns3:atemp>
          </ns3:TrackPointExtension>
        </extensions>
      </trkpt>
      <trkpt lat="42.5216980464756488800048828125" lon="19.76292438805103302001953125">
        <ele>1874</ele>
        <time>2026-06-18T09:13:06.000Z</time>
        <extensions>
          <ns3:TrackPointExtension>
            <ns3:atemp>22.0</ns3:atemp>
          </ns3:TrackPointExtension>
        </extensions>
      </trkpt>
      <trkpt lat="42.5216980464756488800048828125" lon="19.76292438805103302001953125">
        <ele>1874</ele>
        <time>2026-06-18T09:13:07.000Z</time>
        <extensions>
          <ns3:TrackPointExtension>
            <ns3:atemp>23.0</ns3:atemp>
          </ns3:TrackPointExtension>
        </extensions>
      </trkpt>
      <trkpt lat="42.5216980464756488800048828125" lon="19.76292438805103302001953125">
        <ele>1874</ele>
        <time>2026-06-18T09:13:08.000Z</time>
        <extensions>
          <ns3:TrackPointExtension>
            <ns3:atemp>23.0</ns3:atemp>
          </ns3:TrackPointExtension>
        </extensions>
      </trkpt>
      <trkpt lat="42.5216980464756488800048828125" lon="19.76292438805103302001953125">
        <ele>1874</ele>
        <time>2026-06-18T09:13:09.000Z</time>
        <extensions>
          <ns3:TrackPointExtension>
            <ns3:atemp>22.0</ns3:atemp>
          </ns3:TrackPointExtension>
        </extensions>
      </trkpt>
      <trkpt lat="42.5216980464756488800048828125" lon="19.76292438805103302001953125">
        <ele>1874</ele>
        <time>2026-06-18T09:13:10.000Z</time>
        <extensions>
          <ns3:TrackPointExtension>
            <ns3:atemp>23.0</ns3:atemp>
          </ns3:TrackPointExtension>
        </extensions>
      </trkpt>
      <trkpt lat="42.5216980464756488800048828125" lon="19.76292438805103302001953125">
        <ele>1874</ele>
        <time>2026-06-18T09:13:11.000Z</time>
        <extensions>
          <ns3:TrackPointExtension>
            <ns3:atemp>23.0</ns3:atemp>
          </ns3:TrackPointExtension>
        </extensions>
      </trkpt>
      <trkpt lat="42.5216980464756488800048828125" lon="19.76292438805103302001953125">
        <ele>1874</ele>
        <time>2026-06-18T09:13:12.000Z</time>
        <extensions>
          <ns3:TrackPointExtension>
            <ns3:atemp>23.0</ns3:atemp>
          </ns3:TrackPointExtension>
        </extensions>
      </trkpt>
      <trkpt lat="42.5216980464756488800048828125" lon="19.76292438805103302001953125">
        <ele>1874</ele>
        <time>2026-06-18T09:13:13.000Z</time>
        <extensions>
          <ns3:TrackPointExtension>
            <ns3:atemp>23.0</ns3:atemp>
          </ns3:TrackPointExtension>
        </extensions>
      </trkpt>
      <trkpt lat="42.5216980464756488800048828125" lon="19.76292438805103302001953125">
        <ele>1874</ele>
        <time>2026-06-18T09:13:14.000Z</time>
        <extensions>
          <ns3:TrackPointExtension>
            <ns3:atemp>23.0</ns3:atemp>
          </ns3:TrackPointExtension>
        </extensions>
      </trkpt>
      <trkpt lat="42.5216980464756488800048828125" lon="19.76292438805103302001953125">
        <ele>1874</ele>
        <time>2026-06-18T09:13:15.000Z</time>
        <extensions>
          <ns3:TrackPointExtension>
            <ns3:atemp>22.0</ns3:atemp>
          </ns3:TrackPointExtension>
        </extensions>
      </trkpt>
      <trkpt lat="42.5216980464756488800048828125" lon="19.76292438805103302001953125">
        <ele>1874</ele>
        <time>2026-06-18T09:13:16.000Z</time>
        <extensions>
          <ns3:TrackPointExtension>
            <ns3:atemp>22.0</ns3:atemp>
          </ns3:TrackPointExtension>
        </extensions>
      </trkpt>
      <trkpt lat="42.5216980464756488800048828125" lon="19.76292438805103302001953125">
        <ele>1874</ele>
        <time>2026-06-18T09:13:17.000Z</time>
        <extensions>
          <ns3:TrackPointExtension>
            <ns3:atemp>23.0</ns3:atemp>
          </ns3:TrackPointExtension>
        </extensions>
      </trkpt>
      <trkpt lat="42.5216980464756488800048828125" lon="19.76292438805103302001953125">
        <ele>1874</ele>
        <time>2026-06-18T09:13:18.000Z</time>
        <extensions>
          <ns3:TrackPointExtension>
            <ns3:atemp>22.0</ns3:atemp>
          </ns3:TrackPointExtension>
        </extensions>
      </trkpt>
      <trkpt lat="42.5216980464756488800048828125" lon="19.76292438805103302001953125">
        <ele>1874</ele>
        <time>2026-06-18T09:13:19.000Z</time>
        <extensions>
          <ns3:TrackPointExtension>
            <ns3:atemp>22.0</ns3:atemp>
          </ns3:TrackPointExtension>
        </extensions>
      </trkpt>
      <trkpt lat="42.5216980464756488800048828125" lon="19.76292438805103302001953125">
        <ele>1874</ele>
        <time>2026-06-18T09:13:20.000Z</time>
        <extensions>
          <ns3:TrackPointExtension>
            <ns3:atemp>22.0</ns3:atemp>
          </ns3:TrackPointExtension>
        </extensions>
      </trkpt>
      <trkpt lat="42.5216980464756488800048828125" lon="19.76292438805103302001953125">
        <ele>1874</ele>
        <time>2026-06-18T09:13:21.000Z</time>
        <extensions>
          <ns3:TrackPointExtension>
            <ns3:atemp>22.0</ns3:atemp>
          </ns3:TrackPointExtension>
        </extensions>
      </trkpt>
      <trkpt lat="42.5216980464756488800048828125" lon="19.76292438805103302001953125">
        <ele>1874</ele>
        <time>2026-06-18T09:13:22.000Z</time>
        <extensions>
          <ns3:TrackPointExtension>
            <ns3:atemp>23.0</ns3:atemp>
          </ns3:TrackPointExtension>
        </extensions>
      </trkpt>
      <trkpt lat="42.5216980464756488800048828125" lon="19.76292438805103302001953125">
        <ele>1874</ele>
        <time>2026-06-18T09:13:23.000Z</time>
        <extensions>
          <ns3:TrackPointExtension>
            <ns3:atemp>23.0</ns3:atemp>
          </ns3:TrackPointExtension>
        </extensions>
      </trkpt>
      <trkpt lat="42.5216980464756488800048828125" lon="19.76292438805103302001953125">
        <ele>1874</ele>
        <time>2026-06-18T09:13:24.000Z</time>
        <extensions>
          <ns3:TrackPointExtension>
            <ns3:atemp>23.0</ns3:atemp>
          </ns3:TrackPointExtension>
        </extensions>
      </trkpt>
      <trkpt lat="42.5216980464756488800048828125" lon="19.76292438805103302001953125">
        <ele>1874</ele>
        <time>2026-06-18T09:13:25.000Z</time>
        <extensions>
          <ns3:TrackPointExtension>
            <ns3:atemp>23.0</ns3:atemp>
          </ns3:TrackPointExtension>
        </extensions>
      </trkpt>
      <trkpt lat="42.5216980464756488800048828125" lon="19.76292438805103302001953125">
        <ele>1874</ele>
        <time>2026-06-18T09:13:26.000Z</time>
        <extensions>
          <ns3:TrackPointExtension>
            <ns3:atemp>23.0</ns3:atemp>
          </ns3:TrackPointExtension>
        </extensions>
      </trkpt>
      <trkpt lat="42.5216980464756488800048828125" lon="19.76292438805103302001953125">
        <ele>1874</ele>
        <time>2026-06-18T09:13:27.000Z</time>
        <extensions>
          <ns3:TrackPointExtension>
            <ns3:atemp>23.0</ns3:atemp>
          </ns3:TrackPointExtension>
        </extensions>
      </trkpt>
      <trkpt lat="42.5216980464756488800048828125" lon="19.76292438805103302001953125">
        <ele>1874</ele>
        <time>2026-06-18T09:13:28.000Z</time>
        <extensions>
          <ns3:TrackPointExtension>
            <ns3:atemp>23.0</ns3:atemp>
          </ns3:TrackPointExtension>
        </extensions>
      </trkpt>
      <trkpt lat="42.5216980464756488800048828125" lon="19.76292438805103302001953125">
        <ele>1874</ele>
        <time>2026-06-18T09:13:29.000Z</time>
        <extensions>
          <ns3:TrackPointExtension>
            <ns3:atemp>23.0</ns3:atemp>
          </ns3:TrackPointExtension>
        </extensions>
      </trkpt>
      <trkpt lat="42.5216980464756488800048828125" lon="19.76292438805103302001953125">
        <ele>1874</ele>
        <time>2026-06-18T09:13:30.000Z</time>
        <extensions>
          <ns3:TrackPointExtension>
            <ns3:atemp>23.0</ns3:atemp>
          </ns3:TrackPointExtension>
        </extensions>
      </trkpt>
      <trkpt lat="42.5216980464756488800048828125" lon="19.76292438805103302001953125">
        <ele>1874</ele>
        <time>2026-06-18T09:13:31.000Z</time>
        <extensions>
          <ns3:TrackPointExtension>
            <ns3:atemp>23.0</ns3:atemp>
          </ns3:TrackPointExtension>
        </extensions>
      </trkpt>
      <trkpt lat="42.5216980464756488800048828125" lon="19.76292438805103302001953125">
        <ele>1874</ele>
        <time>2026-06-18T09:13:32.000Z</time>
        <extensions>
          <ns3:TrackPointExtension>
            <ns3:atemp>23.0</ns3:atemp>
          </ns3:TrackPointExtension>
        </extensions>
      </trkpt>
      <trkpt lat="42.5216980464756488800048828125" lon="19.76292438805103302001953125">
        <ele>1874</ele>
        <time>2026-06-18T09:13:33.000Z</time>
        <extensions>
          <ns3:TrackPointExtension>
            <ns3:atemp>23.0</ns3:atemp>
          </ns3:TrackPointExtension>
        </extensions>
      </trkpt>
      <trkpt lat="42.5216980464756488800048828125" lon="19.76292438805103302001953125">
        <ele>1874</ele>
        <time>2026-06-18T09:13:34.000Z</time>
        <extensions>
          <ns3:TrackPointExtension>
            <ns3:atemp>23.0</ns3:atemp>
          </ns3:TrackPointExtension>
        </extensions>
      </trkpt>
      <trkpt lat="42.5216980464756488800048828125" lon="19.76292438805103302001953125">
        <ele>1874</ele>
        <time>2026-06-18T09:13:35.000Z</time>
        <extensions>
          <ns3:TrackPointExtension>
            <ns3:atemp>23.0</ns3:atemp>
          </ns3:TrackPointExtension>
        </extensions>
      </trkpt>
      <trkpt lat="42.5216980464756488800048828125" lon="19.76292438805103302001953125">
        <ele>1874</ele>
        <time>2026-06-18T09:13:36.000Z</time>
        <extensions>
          <ns3:TrackPointExtension>
            <ns3:atemp>23.0</ns3:atemp>
          </ns3:TrackPointExtension>
        </extensions>
      </trkpt>
      <trkpt lat="42.5216980464756488800048828125" lon="19.76292438805103302001953125">
        <ele>1874</ele>
        <time>2026-06-18T09:13:37.000Z</time>
        <extensions>
          <ns3:TrackPointExtension>
            <ns3:atemp>23.0</ns3:atemp>
          </ns3:TrackPointExtension>
        </extensions>
      </trkpt>
      <trkpt lat="42.5216980464756488800048828125" lon="19.76292438805103302001953125">
        <ele>1874</ele>
        <time>2026-06-18T09:13:38.000Z</time>
        <extensions>
          <ns3:TrackPointExtension>
            <ns3:atemp>23.0</ns3:atemp>
          </ns3:TrackPointExtension>
        </extensions>
      </trkpt>
      <trkpt lat="42.5216980464756488800048828125" lon="19.76292438805103302001953125">
        <ele>1874</ele>
        <time>2026-06-18T09:13:39.000Z</time>
        <extensions>
          <ns3:TrackPointExtension>
            <ns3:atemp>23.0</ns3:atemp>
          </ns3:TrackPointExtension>
        </extensions>
      </trkpt>
      <trkpt lat="42.5216980464756488800048828125" lon="19.76292438805103302001953125">
        <ele>1874</ele>
        <time>2026-06-18T09:13:40.000Z</time>
        <extensions>
          <ns3:TrackPointExtension>
            <ns3:atemp>23.0</ns3:atemp>
          </ns3:TrackPointExtension>
        </extensions>
      </trkpt>
      <trkpt lat="42.5216980464756488800048828125" lon="19.76292438805103302001953125">
        <ele>1874</ele>
        <time>2026-06-18T09:13:41.000Z</time>
        <extensions>
          <ns3:TrackPointExtension>
            <ns3:atemp>23.0</ns3:atemp>
          </ns3:TrackPointExtension>
        </extensions>
      </trkpt>
      <trkpt lat="42.5216980464756488800048828125" lon="19.76292438805103302001953125">
        <ele>1874</ele>
        <time>2026-06-18T09:13:42.000Z</time>
        <extensions>
          <ns3:TrackPointExtension>
            <ns3:atemp>23.0</ns3:atemp>
          </ns3:TrackPointExtension>
        </extensions>
      </trkpt>
      <trkpt lat="42.5216980464756488800048828125" lon="19.76292438805103302001953125">
        <ele>1874</ele>
        <time>2026-06-18T09:13:43.000Z</time>
        <extensions>
          <ns3:TrackPointExtension>
            <ns3:atemp>23.0</ns3:atemp>
          </ns3:TrackPointExtension>
        </extensions>
      </trkpt>
      <trkpt lat="42.5216980464756488800048828125" lon="19.76292438805103302001953125">
        <ele>1874</ele>
        <time>2026-06-18T09:13:44.000Z</time>
        <extensions>
          <ns3:TrackPointExtension>
            <ns3:atemp>23.0</ns3:atemp>
          </ns3:TrackPointExtension>
        </extensions>
      </trkpt>
      <trkpt lat="42.5216980464756488800048828125" lon="19.76292438805103302001953125">
        <ele>1874</ele>
        <time>2026-06-18T09:13:45.000Z</time>
        <extensions>
          <ns3:TrackPointExtension>
            <ns3:atemp>23.0</ns3:atemp>
          </ns3:TrackPointExtension>
        </extensions>
      </trkpt>
      <trkpt lat="42.5216980464756488800048828125" lon="19.76292438805103302001953125">
        <ele>1874</ele>
        <time>2026-06-18T09:13:46.000Z</time>
        <extensions>
          <ns3:TrackPointExtension>
            <ns3:atemp>23.0</ns3:atemp>
          </ns3:TrackPointExtension>
        </extensions>
      </trkpt>
      <trkpt lat="42.5216980464756488800048828125" lon="19.76292438805103302001953125">
        <ele>1874</ele>
        <time>2026-06-18T09:13:47.000Z</time>
        <extensions>
          <ns3:TrackPointExtension>
            <ns3:atemp>23.0</ns3:atemp>
          </ns3:TrackPointExtension>
        </extensions>
      </trkpt>
      <trkpt lat="42.5216980464756488800048828125" lon="19.76292438805103302001953125">
        <ele>1874</ele>
        <time>2026-06-18T09:13:48.000Z</time>
        <extensions>
          <ns3:TrackPointExtension>
            <ns3:atemp>23.0</ns3:atemp>
          </ns3:TrackPointExtension>
        </extensions>
      </trkpt>
      <trkpt lat="42.5216980464756488800048828125" lon="19.76292438805103302001953125">
        <ele>1874</ele>
        <time>2026-06-18T09:13:49.000Z</time>
        <extensions>
          <ns3:TrackPointExtension>
            <ns3:atemp>23.0</ns3:atemp>
          </ns3:TrackPointExtension>
        </extensions>
      </trkpt>
      <trkpt lat="42.5216980464756488800048828125" lon="19.76292438805103302001953125">
        <ele>1874</ele>
        <time>2026-06-18T09:13:50.000Z</time>
        <extensions>
          <ns3:TrackPointExtension>
            <ns3:atemp>23.0</ns3:atemp>
          </ns3:TrackPointExtension>
        </extensions>
      </trkpt>
      <trkpt lat="42.5216980464756488800048828125" lon="19.76292438805103302001953125">
        <ele>1874</ele>
        <time>2026-06-18T09:13:51.000Z</time>
        <extensions>
          <ns3:TrackPointExtension>
            <ns3:atemp>23.0</ns3:atemp>
          </ns3:TrackPointExtension>
        </extensions>
      </trkpt>
      <trkpt lat="42.5216980464756488800048828125" lon="19.76292438805103302001953125">
        <ele>1874</ele>
        <time>2026-06-18T09:13:52.000Z</time>
        <extensions>
          <ns3:TrackPointExtension>
            <ns3:atemp>23.0</ns3:atemp>
          </ns3:TrackPointExtension>
        </extensions>
      </trkpt>
      <trkpt lat="42.5216980464756488800048828125" lon="19.76292438805103302001953125">
        <ele>1874</ele>
        <time>2026-06-18T09:13:53.000Z</time>
        <extensions>
          <ns3:TrackPointExtension>
            <ns3:atemp>23.0</ns3:atemp>
          </ns3:TrackPointExtension>
        </extensions>
      </trkpt>
      <trkpt lat="42.5216980464756488800048828125" lon="19.76292438805103302001953125">
        <ele>1874</ele>
        <time>2026-06-18T09:13:54.000Z</time>
        <extensions>
          <ns3:TrackPointExtension>
            <ns3:atemp>23.0</ns3:atemp>
          </ns3:TrackPointExtension>
        </extensions>
      </trkpt>
      <trkpt lat="42.5216980464756488800048828125" lon="19.76292438805103302001953125">
        <ele>1874</ele>
        <time>2026-06-18T09:13:55.000Z</time>
        <extensions>
          <ns3:TrackPointExtension>
            <ns3:atemp>23.0</ns3:atemp>
          </ns3:TrackPointExtension>
        </extensions>
      </trkpt>
      <trkpt lat="42.5216980464756488800048828125" lon="19.76292438805103302001953125">
        <ele>1874</ele>
        <time>2026-06-18T09:13:56.000Z</time>
        <extensions>
          <ns3:TrackPointExtension>
            <ns3:atemp>23.0</ns3:atemp>
          </ns3:TrackPointExtension>
        </extensions>
      </trkpt>
      <trkpt lat="42.5216980464756488800048828125" lon="19.76292438805103302001953125">
        <ele>1874</ele>
        <time>2026-06-18T09:13:57.000Z</time>
        <extensions>
          <ns3:TrackPointExtension>
            <ns3:atemp>23.0</ns3:atemp>
          </ns3:TrackPointExtension>
        </extensions>
      </trkpt>
      <trkpt lat="42.5216980464756488800048828125" lon="19.76292438805103302001953125">
        <ele>1874</ele>
        <time>2026-06-18T09:13:58.000Z</time>
        <extensions>
          <ns3:TrackPointExtension>
            <ns3:atemp>23.0</ns3:atemp>
          </ns3:TrackPointExtension>
        </extensions>
      </trkpt>
      <trkpt lat="42.5216980464756488800048828125" lon="19.76292438805103302001953125">
        <ele>1874</ele>
        <time>2026-06-18T09:13:59.000Z</time>
        <extensions>
          <ns3:TrackPointExtension>
            <ns3:atemp>23.0</ns3:atemp>
          </ns3:TrackPointExtension>
        </extensions>
      </trkpt>
      <trkpt lat="42.5216980464756488800048828125" lon="19.76292438805103302001953125">
        <ele>1874</ele>
        <time>2026-06-18T09:14:00.000Z</time>
        <extensions>
          <ns3:TrackPointExtension>
            <ns3:atemp>23.0</ns3:atemp>
          </ns3:TrackPointExtension>
        </extensions>
      </trkpt>
      <trkpt lat="42.5216980464756488800048828125" lon="19.76292438805103302001953125">
        <ele>1874</ele>
        <time>2026-06-18T09:14:01.000Z</time>
        <extensions>
          <ns3:TrackPointExtension>
            <ns3:atemp>23.0</ns3:atemp>
          </ns3:TrackPointExtension>
        </extensions>
      </trkpt>
      <trkpt lat="42.5216980464756488800048828125" lon="19.76292438805103302001953125">
        <ele>1874</ele>
        <time>2026-06-18T09:14:02.000Z</time>
        <extensions>
          <ns3:TrackPointExtension>
            <ns3:atemp>23.0</ns3:atemp>
          </ns3:TrackPointExtension>
        </extensions>
      </trkpt>
      <trkpt lat="42.5216980464756488800048828125" lon="19.76292438805103302001953125">
        <ele>1874</ele>
        <time>2026-06-18T09:14:03.000Z</time>
        <extensions>
          <ns3:TrackPointExtension>
            <ns3:atemp>23.0</ns3:atemp>
          </ns3:TrackPointExtension>
        </extensions>
      </trkpt>
      <trkpt lat="42.5216980464756488800048828125" lon="19.76292438805103302001953125">
        <ele>1874</ele>
        <time>2026-06-18T09:14:04.000Z</time>
        <extensions>
          <ns3:TrackPointExtension>
            <ns3:atemp>23.0</ns3:atemp>
          </ns3:TrackPointExtension>
        </extensions>
      </trkpt>
      <trkpt lat="42.5216980464756488800048828125" lon="19.76292438805103302001953125">
        <ele>1874</ele>
        <time>2026-06-18T09:14:05.000Z</time>
        <extensions>
          <ns3:TrackPointExtension>
            <ns3:atemp>23.0</ns3:atemp>
          </ns3:TrackPointExtension>
        </extensions>
      </trkpt>
      <trkpt lat="42.5216980464756488800048828125" lon="19.76292438805103302001953125">
        <ele>1874</ele>
        <time>2026-06-18T09:14:06.000Z</time>
        <extensions>
          <ns3:TrackPointExtension>
            <ns3:atemp>23.0</ns3:atemp>
          </ns3:TrackPointExtension>
        </extensions>
      </trkpt>
      <trkpt lat="42.5216980464756488800048828125" lon="19.76292438805103302001953125">
        <ele>1874</ele>
        <time>2026-06-18T09:14:07.000Z</time>
        <extensions>
          <ns3:TrackPointExtension>
            <ns3:atemp>23.0</ns3:atemp>
          </ns3:TrackPointExtension>
        </extensions>
      </trkpt>
      <trkpt lat="42.5216980464756488800048828125" lon="19.76292438805103302001953125">
        <ele>1874</ele>
        <time>2026-06-18T09:14:08.000Z</time>
        <extensions>
          <ns3:TrackPointExtension>
            <ns3:atemp>23.0</ns3:atemp>
          </ns3:TrackPointExtension>
        </extensions>
      </trkpt>
      <trkpt lat="42.5216980464756488800048828125" lon="19.76292438805103302001953125">
        <ele>1874</ele>
        <time>2026-06-18T09:14:09.000Z</time>
        <extensions>
          <ns3:TrackPointExtension>
            <ns3:atemp>23.0</ns3:atemp>
          </ns3:TrackPointExtension>
        </extensions>
      </trkpt>
      <trkpt lat="42.5216980464756488800048828125" lon="19.76292438805103302001953125">
        <ele>1874</ele>
        <time>2026-06-18T09:14:10.000Z</time>
        <extensions>
          <ns3:TrackPointExtension>
            <ns3:atemp>23.0</ns3:atemp>
          </ns3:TrackPointExtension>
        </extensions>
      </trkpt>
      <trkpt lat="42.5216980464756488800048828125" lon="19.76292438805103302001953125">
        <ele>1874</ele>
        <time>2026-06-18T09:14:11.000Z</time>
        <extensions>
          <ns3:TrackPointExtension>
            <ns3:atemp>23.0</ns3:atemp>
          </ns3:TrackPointExtension>
        </extensions>
      </trkpt>
      <trkpt lat="42.5216980464756488800048828125" lon="19.76292438805103302001953125">
        <ele>1874</ele>
        <time>2026-06-18T09:14:12.000Z</time>
        <extensions>
          <ns3:TrackPointExtension>
            <ns3:atemp>23.0</ns3:atemp>
          </ns3:TrackPointExtension>
        </extensions>
      </trkpt>
      <trkpt lat="42.5216980464756488800048828125" lon="19.76292438805103302001953125">
        <ele>1874</ele>
        <time>2026-06-18T09:14:13.000Z</time>
        <extensions>
          <ns3:TrackPointExtension>
            <ns3:atemp>23.0</ns3:atemp>
          </ns3:TrackPointExtension>
        </extensions>
      </trkpt>
      <trkpt lat="42.5216980464756488800048828125" lon="19.76292438805103302001953125">
        <ele>1874</ele>
        <time>2026-06-18T09:14:14.000Z</time>
        <extensions>
          <ns3:TrackPointExtension>
            <ns3:atemp>23.0</ns3:atemp>
          </ns3:TrackPointExtension>
        </extensions>
      </trkpt>
      <trkpt lat="42.5216980464756488800048828125" lon="19.76292438805103302001953125">
        <ele>1874</ele>
        <time>2026-06-18T09:14:15.000Z</time>
        <extensions>
          <ns3:TrackPointExtension>
            <ns3:atemp>23.0</ns3:atemp>
          </ns3:TrackPointExtension>
        </extensions>
      </trkpt>
      <trkpt lat="42.5216980464756488800048828125" lon="19.76292438805103302001953125">
        <ele>1874</ele>
        <time>2026-06-18T09:14:16.000Z</time>
        <extensions>
          <ns3:TrackPointExtension>
            <ns3:atemp>23.0</ns3:atemp>
          </ns3:TrackPointExtension>
        </extensions>
      </trkpt>
      <trkpt lat="42.5216980464756488800048828125" lon="19.76292438805103302001953125">
        <ele>1874</ele>
        <time>2026-06-18T09:14:17.000Z</time>
        <extensions>
          <ns3:TrackPointExtension>
            <ns3:atemp>23.0</ns3:atemp>
          </ns3:TrackPointExtension>
        </extensions>
      </trkpt>
      <trkpt lat="42.5216980464756488800048828125" lon="19.76292438805103302001953125">
        <ele>1874</ele>
        <time>2026-06-18T09:14:18.000Z</time>
        <extensions>
          <ns3:TrackPointExtension>
            <ns3:atemp>23.0</ns3:atemp>
          </ns3:TrackPointExtension>
        </extensions>
      </trkpt>
      <trkpt lat="42.5216980464756488800048828125" lon="19.76292438805103302001953125">
        <ele>1874</ele>
        <time>2026-06-18T09:14:19.000Z</time>
        <extensions>
          <ns3:TrackPointExtension>
            <ns3:atemp>23.0</ns3:atemp>
          </ns3:TrackPointExtension>
        </extensions>
      </trkpt>
      <trkpt lat="42.5216980464756488800048828125" lon="19.76292438805103302001953125">
        <ele>1874</ele>
        <time>2026-06-18T09:14:20.000Z</time>
        <extensions>
          <ns3:TrackPointExtension>
            <ns3:atemp>23.0</ns3:atemp>
          </ns3:TrackPointExtension>
        </extensions>
      </trkpt>
      <trkpt lat="42.5216980464756488800048828125" lon="19.76292438805103302001953125">
        <ele>1874</ele>
        <time>2026-06-18T09:14:21.000Z</time>
        <extensions>
          <ns3:TrackPointExtension>
            <ns3:atemp>23.0</ns3:atemp>
          </ns3:TrackPointExtension>
        </extensions>
      </trkpt>
      <trkpt lat="42.5216980464756488800048828125" lon="19.76292438805103302001953125">
        <ele>1874</ele>
        <time>2026-06-18T09:14:22.000Z</time>
        <extensions>
          <ns3:TrackPointExtension>
            <ns3:atemp>23.0</ns3:atemp>
          </ns3:TrackPointExtension>
        </extensions>
      </trkpt>
      <trkpt lat="42.5216980464756488800048828125" lon="19.76292438805103302001953125">
        <ele>1874</ele>
        <time>2026-06-18T09:14:23.000Z</time>
        <extensions>
          <ns3:TrackPointExtension>
            <ns3:atemp>23.0</ns3:atemp>
          </ns3:TrackPointExtension>
        </extensions>
      </trkpt>
      <trkpt lat="42.5216980464756488800048828125" lon="19.76292438805103302001953125">
        <ele>1874</ele>
        <time>2026-06-18T09:14:24.000Z</time>
        <extensions>
          <ns3:TrackPointExtension>
            <ns3:atemp>23.0</ns3:atemp>
          </ns3:TrackPointExtension>
        </extensions>
      </trkpt>
      <trkpt lat="42.5216980464756488800048828125" lon="19.76292438805103302001953125">
        <ele>1874</ele>
        <time>2026-06-18T09:14:25.000Z</time>
        <extensions>
          <ns3:TrackPointExtension>
            <ns3:atemp>23.0</ns3:atemp>
          </ns3:TrackPointExtension>
        </extensions>
      </trkpt>
      <trkpt lat="42.5216980464756488800048828125" lon="19.76292438805103302001953125">
        <ele>1874</ele>
        <time>2026-06-18T09:14:26.000Z</time>
        <extensions>
          <ns3:TrackPointExtension>
            <ns3:atemp>23.0</ns3:atemp>
          </ns3:TrackPointExtension>
        </extensions>
      </trkpt>
      <trkpt lat="42.5216980464756488800048828125" lon="19.76292438805103302001953125">
        <ele>1874</ele>
        <time>2026-06-18T09:14:27.000Z</time>
        <extensions>
          <ns3:TrackPointExtension>
            <ns3:atemp>23.0</ns3:atemp>
          </ns3:TrackPointExtension>
        </extensions>
      </trkpt>
      <trkpt lat="42.5216980464756488800048828125" lon="19.76292438805103302001953125">
        <ele>1874</ele>
        <time>2026-06-18T09:14:28.000Z</time>
        <extensions>
          <ns3:TrackPointExtension>
            <ns3:atemp>23.0</ns3:atemp>
          </ns3:TrackPointExtension>
        </extensions>
      </trkpt>
      <trkpt lat="42.5216980464756488800048828125" lon="19.76292438805103302001953125">
        <ele>1874</ele>
        <time>2026-06-18T09:14:29.000Z</time>
        <extensions>
          <ns3:TrackPointExtension>
            <ns3:atemp>23.0</ns3:atemp>
          </ns3:TrackPointExtension>
        </extensions>
      </trkpt>
      <trkpt lat="42.5216980464756488800048828125" lon="19.76292438805103302001953125">
        <ele>1874</ele>
        <time>2026-06-18T09:14:30.000Z</time>
        <extensions>
          <ns3:TrackPointExtension>
            <ns3:atemp>23.0</ns3:atemp>
          </ns3:TrackPointExtension>
        </extensions>
      </trkpt>
      <trkpt lat="42.5216980464756488800048828125" lon="19.76292438805103302001953125">
        <ele>1874</ele>
        <time>2026-06-18T09:14:31.000Z</time>
        <extensions>
          <ns3:TrackPointExtension>
            <ns3:atemp>23.0</ns3:atemp>
          </ns3:TrackPointExtension>
        </extensions>
      </trkpt>
      <trkpt lat="42.5216980464756488800048828125" lon="19.76292438805103302001953125">
        <ele>1874</ele>
        <time>2026-06-18T09:14:32.000Z</time>
        <extensions>
          <ns3:TrackPointExtension>
            <ns3:atemp>23.0</ns3:atemp>
          </ns3:TrackPointExtension>
        </extensions>
      </trkpt>
      <trkpt lat="42.5216980464756488800048828125" lon="19.76292438805103302001953125">
        <ele>1874</ele>
        <time>2026-06-18T09:14:33.000Z</time>
        <extensions>
          <ns3:TrackPointExtension>
            <ns3:atemp>23.0</ns3:atemp>
          </ns3:TrackPointExtension>
        </extensions>
      </trkpt>
      <trkpt lat="42.5216980464756488800048828125" lon="19.76292438805103302001953125">
        <ele>1874</ele>
        <time>2026-06-18T09:14:34.000Z</time>
        <extensions>
          <ns3:TrackPointExtension>
            <ns3:atemp>23.0</ns3:atemp>
          </ns3:TrackPointExtension>
        </extensions>
      </trkpt>
      <trkpt lat="42.5216980464756488800048828125" lon="19.76292438805103302001953125">
        <ele>1874</ele>
        <time>2026-06-18T09:14:35.000Z</time>
        <extensions>
          <ns3:TrackPointExtension>
            <ns3:atemp>23.0</ns3:atemp>
          </ns3:TrackPointExtension>
        </extensions>
      </trkpt>
      <trkpt lat="42.5216980464756488800048828125" lon="19.76292438805103302001953125">
        <ele>1874</ele>
        <time>2026-06-18T09:14:36.000Z</time>
        <extensions>
          <ns3:TrackPointExtension>
            <ns3:atemp>23.0</ns3:atemp>
          </ns3:TrackPointExtension>
        </extensions>
      </trkpt>
      <trkpt lat="42.5216980464756488800048828125" lon="19.76292438805103302001953125">
        <ele>1874</ele>
        <time>2026-06-18T09:14:37.000Z</time>
        <extensions>
          <ns3:TrackPointExtension>
            <ns3:atemp>23.0</ns3:atemp>
          </ns3:TrackPointExtension>
        </extensions>
      </trkpt>
      <trkpt lat="42.5216980464756488800048828125" lon="19.76292438805103302001953125">
        <ele>1874</ele>
        <time>2026-06-18T09:14:38.000Z</time>
        <extensions>
          <ns3:TrackPointExtension>
            <ns3:atemp>23.0</ns3:atemp>
          </ns3:TrackPointExtension>
        </extensions>
      </trkpt>
      <trkpt lat="42.5216980464756488800048828125" lon="19.76292438805103302001953125">
        <ele>1874</ele>
        <time>2026-06-18T09:14:39.000Z</time>
        <extensions>
          <ns3:TrackPointExtension>
            <ns3:atemp>23.0</ns3:atemp>
          </ns3:TrackPointExtension>
        </extensions>
      </trkpt>
      <trkpt lat="42.5216980464756488800048828125" lon="19.76292438805103302001953125">
        <ele>1874</ele>
        <time>2026-06-18T09:14:40.000Z</time>
        <extensions>
          <ns3:TrackPointExtension>
            <ns3:atemp>23.0</ns3:atemp>
          </ns3:TrackPointExtension>
        </extensions>
      </trkpt>
      <trkpt lat="42.5216980464756488800048828125" lon="19.76292438805103302001953125">
        <ele>1874</ele>
        <time>2026-06-18T09:14:41.000Z</time>
        <extensions>
          <ns3:TrackPointExtension>
            <ns3:atemp>23.0</ns3:atemp>
          </ns3:TrackPointExtension>
        </extensions>
      </trkpt>
      <trkpt lat="42.5216980464756488800048828125" lon="19.76292438805103302001953125">
        <ele>1874</ele>
        <time>2026-06-18T09:14:42.000Z</time>
        <extensions>
          <ns3:TrackPointExtension>
            <ns3:atemp>23.0</ns3:atemp>
          </ns3:TrackPointExtension>
        </extensions>
      </trkpt>
      <trkpt lat="42.5216980464756488800048828125" lon="19.76292438805103302001953125">
        <ele>1874</ele>
        <time>2026-06-18T09:14:43.000Z</time>
        <extensions>
          <ns3:TrackPointExtension>
            <ns3:atemp>23.0</ns3:atemp>
          </ns3:TrackPointExtension>
        </extensions>
      </trkpt>
      <trkpt lat="42.5216980464756488800048828125" lon="19.76292438805103302001953125">
        <ele>1874</ele>
        <time>2026-06-18T09:14:44.000Z</time>
        <extensions>
          <ns3:TrackPointExtension>
            <ns3:atemp>23.0</ns3:atemp>
          </ns3:TrackPointExtension>
        </extensions>
      </trkpt>
      <trkpt lat="42.5216980464756488800048828125" lon="19.76292438805103302001953125">
        <ele>1874</ele>
        <time>2026-06-18T09:14:45.000Z</time>
        <extensions>
          <ns3:TrackPointExtension>
            <ns3:atemp>23.0</ns3:atemp>
          </ns3:TrackPointExtension>
        </extensions>
      </trkpt>
      <trkpt lat="42.5216980464756488800048828125" lon="19.76292438805103302001953125">
        <ele>1874</ele>
        <time>2026-06-18T09:14:46.000Z</time>
        <extensions>
          <ns3:TrackPointExtension>
            <ns3:atemp>23.0</ns3:atemp>
          </ns3:TrackPointExtension>
        </extensions>
      </trkpt>
      <trkpt lat="42.5216980464756488800048828125" lon="19.76292438805103302001953125">
        <ele>1874</ele>
        <time>2026-06-18T09:14:47.000Z</time>
        <extensions>
          <ns3:TrackPointExtension>
            <ns3:atemp>23.0</ns3:atemp>
          </ns3:TrackPointExtension>
        </extensions>
      </trkpt>
      <trkpt lat="42.5216980464756488800048828125" lon="19.76292438805103302001953125">
        <ele>1874</ele>
        <time>2026-06-18T09:14:48.000Z</time>
        <extensions>
          <ns3:TrackPointExtension>
            <ns3:atemp>23.0</ns3:atemp>
          </ns3:TrackPointExtension>
        </extensions>
      </trkpt>
      <trkpt lat="42.5216980464756488800048828125" lon="19.76292438805103302001953125">
        <ele>1874</ele>
        <time>2026-06-18T09:14:49.000Z</time>
        <extensions>
          <ns3:TrackPointExtension>
            <ns3:atemp>23.0</ns3:atemp>
          </ns3:TrackPointExtension>
        </extensions>
      </trkpt>
      <trkpt lat="42.5216980464756488800048828125" lon="19.76292438805103302001953125">
        <ele>1874</ele>
        <time>2026-06-18T09:14:50.000Z</time>
        <extensions>
          <ns3:TrackPointExtension>
            <ns3:atemp>23.0</ns3:atemp>
          </ns3:TrackPointExtension>
        </extensions>
      </trkpt>
      <trkpt lat="42.5216980464756488800048828125" lon="19.76292438805103302001953125">
        <ele>1874</ele>
        <time>2026-06-18T09:14:51.000Z</time>
        <extensions>
          <ns3:TrackPointExtension>
            <ns3:atemp>23.0</ns3:atemp>
          </ns3:TrackPointExtension>
        </extensions>
      </trkpt>
      <trkpt lat="42.5216980464756488800048828125" lon="19.76292438805103302001953125">
        <ele>1874</ele>
        <time>2026-06-18T09:14:52.000Z</time>
        <extensions>
          <ns3:TrackPointExtension>
            <ns3:atemp>23.0</ns3:atemp>
          </ns3:TrackPointExtension>
        </extensions>
      </trkpt>
      <trkpt lat="42.5216980464756488800048828125" lon="19.76292438805103302001953125">
        <ele>1874</ele>
        <time>2026-06-18T09:14:53.000Z</time>
        <extensions>
          <ns3:TrackPointExtension>
            <ns3:atemp>23.0</ns3:atemp>
          </ns3:TrackPointExtension>
        </extensions>
      </trkpt>
      <trkpt lat="42.5216980464756488800048828125" lon="19.76292438805103302001953125">
        <ele>1874</ele>
        <time>2026-06-18T09:14:54.000Z</time>
        <extensions>
          <ns3:TrackPointExtension>
            <ns3:atemp>23.0</ns3:atemp>
          </ns3:TrackPointExtension>
        </extensions>
      </trkpt>
      <trkpt lat="42.5216980464756488800048828125" lon="19.76292438805103302001953125">
        <ele>1874</ele>
        <time>2026-06-18T09:14:55.000Z</time>
        <extensions>
          <ns3:TrackPointExtension>
            <ns3:atemp>23.0</ns3:atemp>
          </ns3:TrackPointExtension>
        </extensions>
      </trkpt>
      <trkpt lat="42.5216980464756488800048828125" lon="19.76292438805103302001953125">
        <ele>1874</ele>
        <time>2026-06-18T09:14:56.000Z</time>
        <extensions>
          <ns3:TrackPointExtension>
            <ns3:atemp>23.0</ns3:atemp>
          </ns3:TrackPointExtension>
        </extensions>
      </trkpt>
      <trkpt lat="42.5216980464756488800048828125" lon="19.76292438805103302001953125">
        <ele>1874</ele>
        <time>2026-06-18T09:14:57.000Z</time>
        <extensions>
          <ns3:TrackPointExtension>
            <ns3:atemp>23.0</ns3:atemp>
          </ns3:TrackPointExtension>
        </extensions>
      </trkpt>
      <trkpt lat="42.5216980464756488800048828125" lon="19.76292438805103302001953125">
        <ele>1874</ele>
        <time>2026-06-18T09:14:58.000Z</time>
        <extensions>
          <ns3:TrackPointExtension>
            <ns3:atemp>23.0</ns3:atemp>
          </ns3:TrackPointExtension>
        </extensions>
      </trkpt>
      <trkpt lat="42.5216980464756488800048828125" lon="19.76292438805103302001953125">
        <ele>1874</ele>
        <time>2026-06-18T09:14:59.000Z</time>
        <extensions>
          <ns3:TrackPointExtension>
            <ns3:atemp>23.0</ns3:atemp>
          </ns3:TrackPointExtension>
        </extensions>
      </trkpt>
      <trkpt lat="42.5216980464756488800048828125" lon="19.76292438805103302001953125">
        <ele>1874</ele>
        <time>2026-06-18T09:15:00.000Z</time>
        <extensions>
          <ns3:TrackPointExtension>
            <ns3:atemp>23.0</ns3:atemp>
          </ns3:TrackPointExtension>
        </extensions>
      </trkpt>
      <trkpt lat="42.5216980464756488800048828125" lon="19.76292438805103302001953125">
        <ele>1874</ele>
        <time>2026-06-18T09:15:01.000Z</time>
        <extensions>
          <ns3:TrackPointExtension>
            <ns3:atemp>23.0</ns3:atemp>
          </ns3:TrackPointExtension>
        </extensions>
      </trkpt>
      <trkpt lat="42.5216980464756488800048828125" lon="19.76292438805103302001953125">
        <ele>1874</ele>
        <time>2026-06-18T09:15:02.000Z</time>
        <extensions>
          <ns3:TrackPointExtension>
            <ns3:atemp>23.0</ns3:atemp>
          </ns3:TrackPointExtension>
        </extensions>
      </trkpt>
      <trkpt lat="42.5216980464756488800048828125" lon="19.76292438805103302001953125">
        <ele>1874</ele>
        <time>2026-06-18T09:15:03.000Z</time>
        <extensions>
          <ns3:TrackPointExtension>
            <ns3:atemp>23.0</ns3:atemp>
          </ns3:TrackPointExtension>
        </extensions>
      </trkpt>
      <trkpt lat="42.5216980464756488800048828125" lon="19.76292438805103302001953125">
        <ele>1874</ele>
        <time>2026-06-18T09:15:04.000Z</time>
        <extensions>
          <ns3:TrackPointExtension>
            <ns3:atemp>23.0</ns3:atemp>
          </ns3:TrackPointExtension>
        </extensions>
      </trkpt>
      <trkpt lat="42.5216980464756488800048828125" lon="19.76292438805103302001953125">
        <ele>1874</ele>
        <time>2026-06-18T09:15:05.000Z</time>
        <extensions>
          <ns3:TrackPointExtension>
            <ns3:atemp>23.0</ns3:atemp>
          </ns3:TrackPointExtension>
        </extensions>
      </trkpt>
      <trkpt lat="42.5216980464756488800048828125" lon="19.76292438805103302001953125">
        <ele>1874</ele>
        <time>2026-06-18T09:15:06.000Z</time>
        <extensions>
          <ns3:TrackPointExtension>
            <ns3:atemp>23.0</ns3:atemp>
          </ns3:TrackPointExtension>
        </extensions>
      </trkpt>
      <trkpt lat="42.5216980464756488800048828125" lon="19.76292438805103302001953125">
        <ele>1874</ele>
        <time>2026-06-18T09:15:07.000Z</time>
        <extensions>
          <ns3:TrackPointExtension>
            <ns3:atemp>23.0</ns3:atemp>
          </ns3:TrackPointExtension>
        </extensions>
      </trkpt>
      <trkpt lat="42.5216980464756488800048828125" lon="19.76292438805103302001953125">
        <ele>1874</ele>
        <time>2026-06-18T09:15:08.000Z</time>
        <extensions>
          <ns3:TrackPointExtension>
            <ns3:atemp>23.0</ns3:atemp>
          </ns3:TrackPointExtension>
        </extensions>
      </trkpt>
      <trkpt lat="42.5216980464756488800048828125" lon="19.76292438805103302001953125">
        <ele>1874</ele>
        <time>2026-06-18T09:15:09.000Z</time>
        <extensions>
          <ns3:TrackPointExtension>
            <ns3:atemp>23.0</ns3:atemp>
          </ns3:TrackPointExtension>
        </extensions>
      </trkpt>
      <trkpt lat="42.5216980464756488800048828125" lon="19.76292438805103302001953125">
        <ele>1874</ele>
        <time>2026-06-18T09:15:10.000Z</time>
        <extensions>
          <ns3:TrackPointExtension>
            <ns3:atemp>23.0</ns3:atemp>
          </ns3:TrackPointExtension>
        </extensions>
      </trkpt>
      <trkpt lat="42.5216980464756488800048828125" lon="19.76292438805103302001953125">
        <ele>1874</ele>
        <time>2026-06-18T09:15:11.000Z</time>
        <extensions>
          <ns3:TrackPointExtension>
            <ns3:atemp>23.0</ns3:atemp>
          </ns3:TrackPointExtension>
        </extensions>
      </trkpt>
      <trkpt lat="42.5216980464756488800048828125" lon="19.76292438805103302001953125">
        <ele>1874</ele>
        <time>2026-06-18T09:15:12.000Z</time>
        <extensions>
          <ns3:TrackPointExtension>
            <ns3:atemp>23.0</ns3:atemp>
          </ns3:TrackPointExtension>
        </extensions>
      </trkpt>
      <trkpt lat="42.5216980464756488800048828125" lon="19.76292438805103302001953125">
        <ele>1874</ele>
        <time>2026-06-18T09:15:13.000Z</time>
        <extensions>
          <ns3:TrackPointExtension>
            <ns3:atemp>23.0</ns3:atemp>
          </ns3:TrackPointExtension>
        </extensions>
      </trkpt>
      <trkpt lat="42.5216980464756488800048828125" lon="19.76292438805103302001953125">
        <ele>1874</ele>
        <time>2026-06-18T09:15:14.000Z</time>
        <extensions>
          <ns3:TrackPointExtension>
            <ns3:atemp>23.0</ns3:atemp>
          </ns3:TrackPointExtension>
        </extensions>
      </trkpt>
      <trkpt lat="42.5216980464756488800048828125" lon="19.76292438805103302001953125">
        <ele>1874</ele>
        <time>2026-06-18T09:15:15.000Z</time>
        <extensions>
          <ns3:TrackPointExtension>
            <ns3:atemp>23.0</ns3:atemp>
          </ns3:TrackPointExtension>
        </extensions>
      </trkpt>
      <trkpt lat="42.5216980464756488800048828125" lon="19.76292438805103302001953125">
        <ele>1874</ele>
        <time>2026-06-18T09:15:16.000Z</time>
        <extensions>
          <ns3:TrackPointExtension>
            <ns3:atemp>23.0</ns3:atemp>
          </ns3:TrackPointExtension>
        </extensions>
      </trkpt>
      <trkpt lat="42.5216980464756488800048828125" lon="19.76292438805103302001953125">
        <ele>1874</ele>
        <time>2026-06-18T09:15:17.000Z</time>
        <extensions>
          <ns3:TrackPointExtension>
            <ns3:atemp>23.0</ns3:atemp>
          </ns3:TrackPointExtension>
        </extensions>
      </trkpt>
      <trkpt lat="42.5216980464756488800048828125" lon="19.76292438805103302001953125">
        <ele>1874</ele>
        <time>2026-06-18T09:15:18.000Z</time>
        <extensions>
          <ns3:TrackPointExtension>
            <ns3:atemp>23.0</ns3:atemp>
          </ns3:TrackPointExtension>
        </extensions>
      </trkpt>
      <trkpt lat="42.5216980464756488800048828125" lon="19.76292438805103302001953125">
        <ele>1874</ele>
        <time>2026-06-18T09:15:19.000Z</time>
        <extensions>
          <ns3:TrackPointExtension>
            <ns3:atemp>23.0</ns3:atemp>
          </ns3:TrackPointExtension>
        </extensions>
      </trkpt>
      <trkpt lat="42.5216980464756488800048828125" lon="19.76292438805103302001953125">
        <ele>1874</ele>
        <time>2026-06-18T09:15:20.000Z</time>
        <extensions>
          <ns3:TrackPointExtension>
            <ns3:atemp>23.0</ns3:atemp>
          </ns3:TrackPointExtension>
        </extensions>
      </trkpt>
      <trkpt lat="42.5216980464756488800048828125" lon="19.76292438805103302001953125">
        <ele>1874</ele>
        <time>2026-06-18T09:15:21.000Z</time>
        <extensions>
          <ns3:TrackPointExtension>
            <ns3:atemp>23.0</ns3:atemp>
          </ns3:TrackPointExtension>
        </extensions>
      </trkpt>
      <trkpt lat="42.5216980464756488800048828125" lon="19.76292438805103302001953125">
        <ele>1874</ele>
        <time>2026-06-18T09:15:22.000Z</time>
        <extensions>
          <ns3:TrackPointExtension>
            <ns3:atemp>23.0</ns3:atemp>
          </ns3:TrackPointExtension>
        </extensions>
      </trkpt>
      <trkpt lat="42.5216980464756488800048828125" lon="19.76292438805103302001953125">
        <ele>1874</ele>
        <time>2026-06-18T09:15:23.000Z</time>
        <extensions>
          <ns3:TrackPointExtension>
            <ns3:atemp>23.0</ns3:atemp>
          </ns3:TrackPointExtension>
        </extensions>
      </trkpt>
      <trkpt lat="42.5216980464756488800048828125" lon="19.76292438805103302001953125">
        <ele>1874</ele>
        <time>2026-06-18T09:15:24.000Z</time>
        <extensions>
          <ns3:TrackPointExtension>
            <ns3:atemp>23.0</ns3:atemp>
          </ns3:TrackPointExtension>
        </extensions>
      </trkpt>
      <trkpt lat="42.5216980464756488800048828125" lon="19.76292438805103302001953125">
        <ele>1874</ele>
        <time>2026-06-18T09:15:25.000Z</time>
        <extensions>
          <ns3:TrackPointExtension>
            <ns3:atemp>23.0</ns3:atemp>
          </ns3:TrackPointExtension>
        </extensions>
      </trkpt>
      <trkpt lat="42.5216980464756488800048828125" lon="19.76292438805103302001953125">
        <ele>1874</ele>
        <time>2026-06-18T09:15:26.000Z</time>
        <extensions>
          <ns3:TrackPointExtension>
            <ns3:atemp>23.0</ns3:atemp>
          </ns3:TrackPointExtension>
        </extensions>
      </trkpt>
      <trkpt lat="42.5216980464756488800048828125" lon="19.76292438805103302001953125">
        <ele>1874</ele>
        <time>2026-06-18T09:15:27.000Z</time>
        <extensions>
          <ns3:TrackPointExtension>
            <ns3:atemp>23.0</ns3:atemp>
          </ns3:TrackPointExtension>
        </extensions>
      </trkpt>
      <trkpt lat="42.5216980464756488800048828125" lon="19.76292438805103302001953125">
        <ele>1874</ele>
        <time>2026-06-18T09:15:28.000Z</time>
        <extensions>
          <ns3:TrackPointExtension>
            <ns3:atemp>23.0</ns3:atemp>
          </ns3:TrackPointExtension>
        </extensions>
      </trkpt>
      <trkpt lat="42.5216980464756488800048828125" lon="19.76292438805103302001953125">
        <ele>1874</ele>
        <time>2026-06-18T09:15:29.000Z</time>
        <extensions>
          <ns3:TrackPointExtension>
            <ns3:atemp>23.0</ns3:atemp>
          </ns3:TrackPointExtension>
        </extensions>
      </trkpt>
      <trkpt lat="42.5216980464756488800048828125" lon="19.76292438805103302001953125">
        <ele>1874</ele>
        <time>2026-06-18T09:15:30.000Z</time>
        <extensions>
          <ns3:TrackPointExtension>
            <ns3:atemp>23.0</ns3:atemp>
          </ns3:TrackPointExtension>
        </extensions>
      </trkpt>
      <trkpt lat="42.5216980464756488800048828125" lon="19.76292438805103302001953125">
        <ele>1874</ele>
        <time>2026-06-18T09:15:31.000Z</time>
        <extensions>
          <ns3:TrackPointExtension>
            <ns3:atemp>23.0</ns3:atemp>
          </ns3:TrackPointExtension>
        </extensions>
      </trkpt>
      <trkpt lat="42.5216980464756488800048828125" lon="19.76292438805103302001953125">
        <ele>1874</ele>
        <time>2026-06-18T09:15:32.000Z</time>
        <extensions>
          <ns3:TrackPointExtension>
            <ns3:atemp>23.0</ns3:atemp>
          </ns3:TrackPointExtension>
        </extensions>
      </trkpt>
      <trkpt lat="42.5216980464756488800048828125" lon="19.76292438805103302001953125">
        <ele>1874</ele>
        <time>2026-06-18T09:15:33.000Z</time>
        <extensions>
          <ns3:TrackPointExtension>
            <ns3:atemp>23.0</ns3:atemp>
          </ns3:TrackPointExtension>
        </extensions>
      </trkpt>
      <trkpt lat="42.5216980464756488800048828125" lon="19.76292438805103302001953125">
        <ele>1874</ele>
        <time>2026-06-18T09:15:34.000Z</time>
        <extensions>
          <ns3:TrackPointExtension>
            <ns3:atemp>23.0</ns3:atemp>
          </ns3:TrackPointExtension>
        </extensions>
      </trkpt>
      <trkpt lat="42.5216980464756488800048828125" lon="19.76292438805103302001953125">
        <ele>1874</ele>
        <time>2026-06-18T09:15:35.000Z</time>
        <extensions>
          <ns3:TrackPointExtension>
            <ns3:atemp>23.0</ns3:atemp>
          </ns3:TrackPointExtension>
        </extensions>
      </trkpt>
      <trkpt lat="42.5216980464756488800048828125" lon="19.76292438805103302001953125">
        <ele>1874</ele>
        <time>2026-06-18T09:15:36.000Z</time>
        <extensions>
          <ns3:TrackPointExtension>
            <ns3:atemp>23.0</ns3:atemp>
          </ns3:TrackPointExtension>
        </extensions>
      </trkpt>
      <trkpt lat="42.5216980464756488800048828125" lon="19.76292438805103302001953125">
        <ele>1874</ele>
        <time>2026-06-18T09:15:37.000Z</time>
        <extensions>
          <ns3:TrackPointExtension>
            <ns3:atemp>23.0</ns3:atemp>
          </ns3:TrackPointExtension>
        </extensions>
      </trkpt>
      <trkpt lat="42.5216980464756488800048828125" lon="19.76292438805103302001953125">
        <ele>1874</ele>
        <time>2026-06-18T09:15:38.000Z</time>
        <extensions>
          <ns3:TrackPointExtension>
            <ns3:atemp>23.0</ns3:atemp>
          </ns3:TrackPointExtension>
        </extensions>
      </trkpt>
      <trkpt lat="42.5216980464756488800048828125" lon="19.76292438805103302001953125">
        <ele>1874</ele>
        <time>2026-06-18T09:15:39.000Z</time>
        <extensions>
          <ns3:TrackPointExtension>
            <ns3:atemp>23.0</ns3:atemp>
          </ns3:TrackPointExtension>
        </extensions>
      </trkpt>
      <trkpt lat="42.5216980464756488800048828125" lon="19.76292438805103302001953125">
        <ele>1874</ele>
        <time>2026-06-18T09:15:40.000Z</time>
        <extensions>
          <ns3:TrackPointExtension>
            <ns3:atemp>23.0</ns3:atemp>
          </ns3:TrackPointExtension>
        </extensions>
      </trkpt>
      <trkpt lat="42.5216980464756488800048828125" lon="19.76292438805103302001953125">
        <ele>1874</ele>
        <time>2026-06-18T09:15:41.000Z</time>
        <extensions>
          <ns3:TrackPointExtension>
            <ns3:atemp>23.0</ns3:atemp>
          </ns3:TrackPointExtension>
        </extensions>
      </trkpt>
      <trkpt lat="42.5216980464756488800048828125" lon="19.76292438805103302001953125">
        <ele>1874</ele>
        <time>2026-06-18T09:15:42.000Z</time>
        <extensions>
          <ns3:TrackPointExtension>
            <ns3:atemp>23.0</ns3:atemp>
          </ns3:TrackPointExtension>
        </extensions>
      </trkpt>
      <trkpt lat="42.5216980464756488800048828125" lon="19.76292438805103302001953125">
        <ele>1874</ele>
        <time>2026-06-18T09:15:43.000Z</time>
        <extensions>
          <ns3:TrackPointExtension>
            <ns3:atemp>23.0</ns3:atemp>
          </ns3:TrackPointExtension>
        </extensions>
      </trkpt>
      <trkpt lat="42.5216980464756488800048828125" lon="19.76292438805103302001953125">
        <ele>1874</ele>
        <time>2026-06-18T09:15:44.000Z</time>
        <extensions>
          <ns3:TrackPointExtension>
            <ns3:atemp>22.0</ns3:atemp>
          </ns3:TrackPointExtension>
        </extensions>
      </trkpt>
      <trkpt lat="42.5216980464756488800048828125" lon="19.76292438805103302001953125">
        <ele>1874</ele>
        <time>2026-06-18T09:15:45.000Z</time>
        <extensions>
          <ns3:TrackPointExtension>
            <ns3:atemp>22.0</ns3:atemp>
          </ns3:TrackPointExtension>
        </extensions>
      </trkpt>
      <trkpt lat="42.5216980464756488800048828125" lon="19.76292438805103302001953125">
        <ele>1874</ele>
        <time>2026-06-18T09:15:46.000Z</time>
        <extensions>
          <ns3:TrackPointExtension>
            <ns3:atemp>22.0</ns3:atemp>
          </ns3:TrackPointExtension>
        </extensions>
      </trkpt>
      <trkpt lat="42.5216980464756488800048828125" lon="19.76292438805103302001953125">
        <ele>1874</ele>
        <time>2026-06-18T09:15:47.000Z</time>
        <extensions>
          <ns3:TrackPointExtension>
            <ns3:atemp>22.0</ns3:atemp>
          </ns3:TrackPointExtension>
        </extensions>
      </trkpt>
      <trkpt lat="42.5216980464756488800048828125" lon="19.76292438805103302001953125">
        <ele>1874</ele>
        <time>2026-06-18T09:15:48.000Z</time>
        <extensions>
          <ns3:TrackPointExtension>
            <ns3:atemp>22.0</ns3:atemp>
          </ns3:TrackPointExtension>
        </extensions>
      </trkpt>
      <trkpt lat="42.5216980464756488800048828125" lon="19.76292438805103302001953125">
        <ele>1874</ele>
        <time>2026-06-18T09:15:49.000Z</time>
        <extensions>
          <ns3:TrackPointExtension>
            <ns3:atemp>22.0</ns3:atemp>
          </ns3:TrackPointExtension>
        </extensions>
      </trkpt>
      <trkpt lat="42.5216980464756488800048828125" lon="19.76292438805103302001953125">
        <ele>1874</ele>
        <time>2026-06-18T09:15:50.000Z</time>
        <extensions>
          <ns3:TrackPointExtension>
            <ns3:atemp>22.0</ns3:atemp>
          </ns3:TrackPointExtension>
        </extensions>
      </trkpt>
      <trkpt lat="42.5216980464756488800048828125" lon="19.76292438805103302001953125">
        <ele>1874</ele>
        <time>2026-06-18T09:15:51.000Z</time>
        <extensions>
          <ns3:TrackPointExtension>
            <ns3:atemp>22.0</ns3:atemp>
          </ns3:TrackPointExtension>
        </extensions>
      </trkpt>
      <trkpt lat="42.5216980464756488800048828125" lon="19.76292438805103302001953125">
        <ele>1874</ele>
        <time>2026-06-18T09:15:52.000Z</time>
        <extensions>
          <ns3:TrackPointExtension>
            <ns3:atemp>22.0</ns3:atemp>
          </ns3:TrackPointExtension>
        </extensions>
      </trkpt>
      <trkpt lat="42.5216980464756488800048828125" lon="19.76292438805103302001953125">
        <ele>1874</ele>
        <time>2026-06-18T09:15:53.000Z</time>
        <extensions>
          <ns3:TrackPointExtension>
            <ns3:atemp>22.0</ns3:atemp>
          </ns3:TrackPointExtension>
        </extensions>
      </trkpt>
      <trkpt lat="42.5216980464756488800048828125" lon="19.76292438805103302001953125">
        <ele>1874</ele>
        <time>2026-06-18T09:15:54.000Z</time>
        <extensions>
          <ns3:TrackPointExtension>
            <ns3:atemp>22.0</ns3:atemp>
          </ns3:TrackPointExtension>
        </extensions>
      </trkpt>
      <trkpt lat="42.5216980464756488800048828125" lon="19.76292438805103302001953125">
        <ele>1874</ele>
        <time>2026-06-18T09:15:55.000Z</time>
        <extensions>
          <ns3:TrackPointExtension>
            <ns3:atemp>22.0</ns3:atemp>
          </ns3:TrackPointExtension>
        </extensions>
      </trkpt>
      <trkpt lat="42.5216980464756488800048828125" lon="19.76292438805103302001953125">
        <ele>1874</ele>
        <time>2026-06-18T09:15:56.000Z</time>
        <extensions>
          <ns3:TrackPointExtension>
            <ns3:atemp>22.0</ns3:atemp>
          </ns3:TrackPointExtension>
        </extensions>
      </trkpt>
      <trkpt lat="42.5216980464756488800048828125" lon="19.76292438805103302001953125">
        <ele>1874</ele>
        <time>2026-06-18T09:15:57.000Z</time>
        <extensions>
          <ns3:TrackPointExtension>
            <ns3:atemp>22.0</ns3:atemp>
          </ns3:TrackPointExtension>
        </extensions>
      </trkpt>
      <trkpt lat="42.5216980464756488800048828125" lon="19.76292438805103302001953125">
        <ele>1874</ele>
        <time>2026-06-18T09:15:58.000Z</time>
        <extensions>
          <ns3:TrackPointExtension>
            <ns3:atemp>22.0</ns3:atemp>
          </ns3:TrackPointExtension>
        </extensions>
      </trkpt>
      <trkpt lat="42.5216980464756488800048828125" lon="19.76292438805103302001953125">
        <ele>1874</ele>
        <time>2026-06-18T09:15:59.000Z</time>
        <extensions>
          <ns3:TrackPointExtension>
            <ns3:atemp>22.0</ns3:atemp>
          </ns3:TrackPointExtension>
        </extensions>
      </trkpt>
      <trkpt lat="42.5216980464756488800048828125" lon="19.76292438805103302001953125">
        <ele>1874</ele>
        <time>2026-06-18T09:16:00.000Z</time>
        <extensions>
          <ns3:TrackPointExtension>
            <ns3:atemp>22.0</ns3:atemp>
          </ns3:TrackPointExtension>
        </extensions>
      </trkpt>
      <trkpt lat="42.5216980464756488800048828125" lon="19.76292438805103302001953125">
        <ele>1874</ele>
        <time>2026-06-18T09:16:01.000Z</time>
        <extensions>
          <ns3:TrackPointExtension>
            <ns3:atemp>22.0</ns3:atemp>
          </ns3:TrackPointExtension>
        </extensions>
      </trkpt>
      <trkpt lat="42.5216980464756488800048828125" lon="19.76292438805103302001953125">
        <ele>1874</ele>
        <time>2026-06-18T09:16:02.000Z</time>
        <extensions>
          <ns3:TrackPointExtension>
            <ns3:atemp>22.0</ns3:atemp>
          </ns3:TrackPointExtension>
        </extensions>
      </trkpt>
      <trkpt lat="42.5216980464756488800048828125" lon="19.76292438805103302001953125">
        <ele>1874</ele>
        <time>2026-06-18T09:16:03.000Z</time>
        <extensions>
          <ns3:TrackPointExtension>
            <ns3:atemp>22.0</ns3:atemp>
          </ns3:TrackPointExtension>
        </extensions>
      </trkpt>
      <trkpt lat="42.5216980464756488800048828125" lon="19.76292438805103302001953125">
        <ele>1874</ele>
        <time>2026-06-18T09:16:04.000Z</time>
        <extensions>
          <ns3:TrackPointExtension>
            <ns3:atemp>22.0</ns3:atemp>
          </ns3:TrackPointExtension>
        </extensions>
      </trkpt>
      <trkpt lat="42.5216980464756488800048828125" lon="19.76292438805103302001953125">
        <ele>1874</ele>
        <time>2026-06-18T09:16:05.000Z</time>
        <extensions>
          <ns3:TrackPointExtension>
            <ns3:atemp>22.0</ns3:atemp>
          </ns3:TrackPointExtension>
        </extensions>
      </trkpt>
      <trkpt lat="42.5216980464756488800048828125" lon="19.76292438805103302001953125">
        <ele>1874</ele>
        <time>2026-06-18T09:16:06.000Z</time>
        <extensions>
          <ns3:TrackPointExtension>
            <ns3:atemp>22.0</ns3:atemp>
          </ns3:TrackPointExtension>
        </extensions>
      </trkpt>
      <trkpt lat="42.5216980464756488800048828125" lon="19.76292438805103302001953125">
        <ele>1874</ele>
        <time>2026-06-18T09:16:07.000Z</time>
        <extensions>
          <ns3:TrackPointExtension>
            <ns3:atemp>22.0</ns3:atemp>
          </ns3:TrackPointExtension>
        </extensions>
      </trkpt>
      <trkpt lat="42.5216980464756488800048828125" lon="19.76292438805103302001953125">
        <ele>1874</ele>
        <time>2026-06-18T09:16:08.000Z</time>
        <extensions>
          <ns3:TrackPointExtension>
            <ns3:atemp>22.0</ns3:atemp>
          </ns3:TrackPointExtension>
        </extensions>
      </trkpt>
      <trkpt lat="42.5216980464756488800048828125" lon="19.76292438805103302001953125">
        <ele>1874</ele>
        <time>2026-06-18T09:16:09.000Z</time>
        <extensions>
          <ns3:TrackPointExtension>
            <ns3:atemp>22.0</ns3:atemp>
          </ns3:TrackPointExtension>
        </extensions>
      </trkpt>
      <trkpt lat="42.5216980464756488800048828125" lon="19.76292438805103302001953125">
        <ele>1874</ele>
        <time>2026-06-18T09:16:10.000Z</time>
        <extensions>
          <ns3:TrackPointExtension>
            <ns3:atemp>22.0</ns3:atemp>
          </ns3:TrackPointExtension>
        </extensions>
      </trkpt>
      <trkpt lat="42.5216980464756488800048828125" lon="19.76292438805103302001953125">
        <ele>1874</ele>
        <time>2026-06-18T09:16:11.000Z</time>
        <extensions>
          <ns3:TrackPointExtension>
            <ns3:atemp>22.0</ns3:atemp>
          </ns3:TrackPointExtension>
        </extensions>
      </trkpt>
      <trkpt lat="42.5216980464756488800048828125" lon="19.76292438805103302001953125">
        <ele>1874</ele>
        <time>2026-06-18T09:16:12.000Z</time>
        <extensions>
          <ns3:TrackPointExtension>
            <ns3:atemp>22.0</ns3:atemp>
          </ns3:TrackPointExtension>
        </extensions>
      </trkpt>
      <trkpt lat="42.5216980464756488800048828125" lon="19.76292438805103302001953125">
        <ele>1874</ele>
        <time>2026-06-18T09:16:13.000Z</time>
        <extensions>
          <ns3:TrackPointExtension>
            <ns3:atemp>22.0</ns3:atemp>
          </ns3:TrackPointExtension>
        </extensions>
      </trkpt>
      <trkpt lat="42.5216980464756488800048828125" lon="19.76292438805103302001953125">
        <ele>1874</ele>
        <time>2026-06-18T09:16:14.000Z</time>
        <extensions>
          <ns3:TrackPointExtension>
            <ns3:atemp>22.0</ns3:atemp>
          </ns3:TrackPointExtension>
        </extensions>
      </trkpt>
      <trkpt lat="42.5216980464756488800048828125" lon="19.76292438805103302001953125">
        <ele>1874</ele>
        <time>2026-06-18T09:16:15.000Z</time>
        <extensions>
          <ns3:TrackPointExtension>
            <ns3:atemp>22.0</ns3:atemp>
          </ns3:TrackPointExtension>
        </extensions>
      </trkpt>
      <trkpt lat="42.5216980464756488800048828125" lon="19.76292438805103302001953125">
        <ele>1874</ele>
        <time>2026-06-18T09:16:16.000Z</time>
        <extensions>
          <ns3:TrackPointExtension>
            <ns3:atemp>22.0</ns3:atemp>
          </ns3:TrackPointExtension>
        </extensions>
      </trkpt>
      <trkpt lat="42.5216980464756488800048828125" lon="19.76292438805103302001953125">
        <ele>1874</ele>
        <time>2026-06-18T09:16:17.000Z</time>
        <extensions>
          <ns3:TrackPointExtension>
            <ns3:atemp>22.0</ns3:atemp>
          </ns3:TrackPointExtension>
        </extensions>
      </trkpt>
      <trkpt lat="42.5216980464756488800048828125" lon="19.76292438805103302001953125">
        <ele>1874</ele>
        <time>2026-06-18T09:16:18.000Z</time>
        <extensions>
          <ns3:TrackPointExtension>
            <ns3:atemp>22.0</ns3:atemp>
          </ns3:TrackPointExtension>
        </extensions>
      </trkpt>
      <trkpt lat="42.5216980464756488800048828125" lon="19.76292438805103302001953125">
        <ele>1874</ele>
        <time>2026-06-18T09:16:19.000Z</time>
        <extensions>
          <ns3:TrackPointExtension>
            <ns3:atemp>22.0</ns3:atemp>
          </ns3:TrackPointExtension>
        </extensions>
      </trkpt>
      <trkpt lat="42.5216980464756488800048828125" lon="19.76292438805103302001953125">
        <ele>1874</ele>
        <time>2026-06-18T09:16:20.000Z</time>
        <extensions>
          <ns3:TrackPointExtension>
            <ns3:atemp>22.0</ns3:atemp>
          </ns3:TrackPointExtension>
        </extensions>
      </trkpt>
      <trkpt lat="42.5216980464756488800048828125" lon="19.76292438805103302001953125">
        <ele>1874</ele>
        <time>2026-06-18T09:16:21.000Z</time>
        <extensions>
          <ns3:TrackPointExtension>
            <ns3:atemp>22.0</ns3:atemp>
          </ns3:TrackPointExtension>
        </extensions>
      </trkpt>
      <trkpt lat="42.5216980464756488800048828125" lon="19.76292438805103302001953125">
        <ele>1874</ele>
        <time>2026-06-18T09:16:22.000Z</time>
        <extensions>
          <ns3:TrackPointExtension>
            <ns3:atemp>22.0</ns3:atemp>
          </ns3:TrackPointExtension>
        </extensions>
      </trkpt>
      <trkpt lat="42.5216980464756488800048828125" lon="19.76292438805103302001953125">
        <ele>1874</ele>
        <time>2026-06-18T09:16:23.000Z</time>
        <extensions>
          <ns3:TrackPointExtension>
            <ns3:atemp>22.0</ns3:atemp>
          </ns3:TrackPointExtension>
        </extensions>
      </trkpt>
      <trkpt lat="42.5216980464756488800048828125" lon="19.76292438805103302001953125">
        <ele>1874</ele>
        <time>2026-06-18T09:16:24.000Z</time>
        <extensions>
          <ns3:TrackPointExtension>
            <ns3:atemp>22.0</ns3:atemp>
          </ns3:TrackPointExtension>
        </extensions>
      </trkpt>
      <trkpt lat="42.5216980464756488800048828125" lon="19.76292438805103302001953125">
        <ele>1874</ele>
        <time>2026-06-18T09:16:25.000Z</time>
        <extensions>
          <ns3:TrackPointExtension>
            <ns3:atemp>22.0</ns3:atemp>
          </ns3:TrackPointExtension>
        </extensions>
      </trkpt>
      <trkpt lat="42.5216980464756488800048828125" lon="19.76292438805103302001953125">
        <ele>1874</ele>
        <time>2026-06-18T09:16:26.000Z</time>
        <extensions>
          <ns3:TrackPointExtension>
            <ns3:atemp>22.0</ns3:atemp>
          </ns3:TrackPointExtension>
        </extensions>
      </trkpt>
      <trkpt lat="42.5216980464756488800048828125" lon="19.76292438805103302001953125">
        <ele>1874</ele>
        <time>2026-06-18T09:16:27.000Z</time>
        <extensions>
          <ns3:TrackPointExtension>
            <ns3:atemp>22.0</ns3:atemp>
          </ns3:TrackPointExtension>
        </extensions>
      </trkpt>
      <trkpt lat="42.5216980464756488800048828125" lon="19.76292438805103302001953125">
        <ele>1874</ele>
        <time>2026-06-18T09:16:28.000Z</time>
        <extensions>
          <ns3:TrackPointExtension>
            <ns3:atemp>22.0</ns3:atemp>
          </ns3:TrackPointExtension>
        </extensions>
      </trkpt>
      <trkpt lat="42.5216980464756488800048828125" lon="19.76292438805103302001953125">
        <ele>1874</ele>
        <time>2026-06-18T09:16:29.000Z</time>
        <extensions>
          <ns3:TrackPointExtension>
            <ns3:atemp>22.0</ns3:atemp>
          </ns3:TrackPointExtension>
        </extensions>
      </trkpt>
      <trkpt lat="42.5216980464756488800048828125" lon="19.76292438805103302001953125">
        <ele>1874</ele>
        <time>2026-06-18T09:16:30.000Z</time>
        <extensions>
          <ns3:TrackPointExtension>
            <ns3:atemp>22.0</ns3:atemp>
          </ns3:TrackPointExtension>
        </extensions>
      </trkpt>
      <trkpt lat="42.5216980464756488800048828125" lon="19.76292438805103302001953125">
        <ele>1874</ele>
        <time>2026-06-18T09:16:31.000Z</time>
        <extensions>
          <ns3:TrackPointExtension>
            <ns3:atemp>22.0</ns3:atemp>
          </ns3:TrackPointExtension>
        </extensions>
      </trkpt>
      <trkpt lat="42.5216980464756488800048828125" lon="19.76292438805103302001953125">
        <ele>1874</ele>
        <time>2026-06-18T09:16:32.000Z</time>
        <extensions>
          <ns3:TrackPointExtension>
            <ns3:atemp>22.0</ns3:atemp>
          </ns3:TrackPointExtension>
        </extensions>
      </trkpt>
      <trkpt lat="42.5216980464756488800048828125" lon="19.76292438805103302001953125">
        <ele>1874</ele>
        <time>2026-06-18T09:16:33.000Z</time>
        <extensions>
          <ns3:TrackPointExtension>
            <ns3:atemp>22.0</ns3:atemp>
          </ns3:TrackPointExtension>
        </extensions>
      </trkpt>
      <trkpt lat="42.5216980464756488800048828125" lon="19.76292438805103302001953125">
        <ele>1874</ele>
        <time>2026-06-18T09:16:34.000Z</time>
        <extensions>
          <ns3:TrackPointExtension>
            <ns3:atemp>22.0</ns3:atemp>
          </ns3:TrackPointExtension>
        </extensions>
      </trkpt>
      <trkpt lat="42.5216980464756488800048828125" lon="19.76292438805103302001953125">
        <ele>1874</ele>
        <time>2026-06-18T09:16:35.000Z</time>
        <extensions>
          <ns3:TrackPointExtension>
            <ns3:atemp>22.0</ns3:atemp>
          </ns3:TrackPointExtension>
        </extensions>
      </trkpt>
      <trkpt lat="42.5216980464756488800048828125" lon="19.76292438805103302001953125">
        <ele>1874</ele>
        <time>2026-06-18T09:16:36.000Z</time>
        <extensions>
          <ns3:TrackPointExtension>
            <ns3:atemp>22.0</ns3:atemp>
          </ns3:TrackPointExtension>
        </extensions>
      </trkpt>
      <trkpt lat="42.5216980464756488800048828125" lon="19.76292438805103302001953125">
        <ele>1874</ele>
        <time>2026-06-18T09:16:37.000Z</time>
        <extensions>
          <ns3:TrackPointExtension>
            <ns3:atemp>22.0</ns3:atemp>
          </ns3:TrackPointExtension>
        </extensions>
      </trkpt>
      <trkpt lat="42.5216980464756488800048828125" lon="19.76292438805103302001953125">
        <ele>1874</ele>
        <time>2026-06-18T09:16:38.000Z</time>
        <extensions>
          <ns3:TrackPointExtension>
            <ns3:atemp>22.0</ns3:atemp>
          </ns3:TrackPointExtension>
        </extensions>
      </trkpt>
      <trkpt lat="42.5216980464756488800048828125" lon="19.76292438805103302001953125">
        <ele>1874</ele>
        <time>2026-06-18T09:16:39.000Z</time>
        <extensions>
          <ns3:TrackPointExtension>
            <ns3:atemp>22.0</ns3:atemp>
          </ns3:TrackPointExtension>
        </extensions>
      </trkpt>
      <trkpt lat="42.5216980464756488800048828125" lon="19.76292438805103302001953125">
        <ele>1874</ele>
        <time>2026-06-18T09:16:40.000Z</time>
        <extensions>
          <ns3:TrackPointExtension>
            <ns3:atemp>22.0</ns3:atemp>
          </ns3:TrackPointExtension>
        </extensions>
      </trkpt>
      <trkpt lat="42.5216980464756488800048828125" lon="19.76292438805103302001953125">
        <ele>1874</ele>
        <time>2026-06-18T09:16:41.000Z</time>
        <extensions>
          <ns3:TrackPointExtension>
            <ns3:atemp>22.0</ns3:atemp>
          </ns3:TrackPointExtension>
        </extensions>
      </trkpt>
      <trkpt lat="42.5216980464756488800048828125" lon="19.76292438805103302001953125">
        <ele>1874</ele>
        <time>2026-06-18T09:16:42.000Z</time>
        <extensions>
          <ns3:TrackPointExtension>
            <ns3:atemp>22.0</ns3:atemp>
          </ns3:TrackPointExtension>
        </extensions>
      </trkpt>
      <trkpt lat="42.5216980464756488800048828125" lon="19.76292438805103302001953125">
        <ele>1874</ele>
        <time>2026-06-18T09:16:43.000Z</time>
        <extensions>
          <ns3:TrackPointExtension>
            <ns3:atemp>22.0</ns3:atemp>
          </ns3:TrackPointExtension>
        </extensions>
      </trkpt>
      <trkpt lat="42.5216980464756488800048828125" lon="19.76292438805103302001953125">
        <ele>1874</ele>
        <time>2026-06-18T09:16:44.000Z</time>
        <extensions>
          <ns3:TrackPointExtension>
            <ns3:atemp>22.0</ns3:atemp>
          </ns3:TrackPointExtension>
        </extensions>
      </trkpt>
      <trkpt lat="42.5216980464756488800048828125" lon="19.76292438805103302001953125">
        <ele>1874</ele>
        <time>2026-06-18T09:16:45.000Z</time>
        <extensions>
          <ns3:TrackPointExtension>
            <ns3:atemp>22.0</ns3:atemp>
          </ns3:TrackPointExtension>
        </extensions>
      </trkpt>
      <trkpt lat="42.5216980464756488800048828125" lon="19.76292438805103302001953125">
        <ele>1874</ele>
        <time>2026-06-18T09:16:46.000Z</time>
        <extensions>
          <ns3:TrackPointExtension>
            <ns3:atemp>22.0</ns3:atemp>
          </ns3:TrackPointExtension>
        </extensions>
      </trkpt>
      <trkpt lat="42.5216980464756488800048828125" lon="19.76292438805103302001953125">
        <ele>1874</ele>
        <time>2026-06-18T09:16:47.000Z</time>
        <extensions>
          <ns3:TrackPointExtension>
            <ns3:atemp>22.0</ns3:atemp>
          </ns3:TrackPointExtension>
        </extensions>
      </trkpt>
      <trkpt lat="42.5216980464756488800048828125" lon="19.76292438805103302001953125">
        <ele>1874</ele>
        <time>2026-06-18T09:16:48.000Z</time>
        <extensions>
          <ns3:TrackPointExtension>
            <ns3:atemp>22.0</ns3:atemp>
          </ns3:TrackPointExtension>
        </extensions>
      </trkpt>
      <trkpt lat="42.5216980464756488800048828125" lon="19.76292438805103302001953125">
        <ele>1874</ele>
        <time>2026-06-18T09:16:49.000Z</time>
        <extensions>
          <ns3:TrackPointExtension>
            <ns3:atemp>22.0</ns3:atemp>
          </ns3:TrackPointExtension>
        </extensions>
      </trkpt>
      <trkpt lat="42.5216980464756488800048828125" lon="19.76292438805103302001953125">
        <ele>1874</ele>
        <time>2026-06-18T09:16:50.000Z</time>
        <extensions>
          <ns3:TrackPointExtension>
            <ns3:atemp>22.0</ns3:atemp>
          </ns3:TrackPointExtension>
        </extensions>
      </trkpt>
      <trkpt lat="42.5216980464756488800048828125" lon="19.76292438805103302001953125">
        <ele>1874</ele>
        <time>2026-06-18T09:16:51.000Z</time>
        <extensions>
          <ns3:TrackPointExtension>
            <ns3:atemp>22.0</ns3:atemp>
          </ns3:TrackPointExtension>
        </extensions>
      </trkpt>
      <trkpt lat="42.5216980464756488800048828125" lon="19.76292438805103302001953125">
        <ele>1874</ele>
        <time>2026-06-18T09:16:52.000Z</time>
        <extensions>
          <ns3:TrackPointExtension>
            <ns3:atemp>22.0</ns3:atemp>
          </ns3:TrackPointExtension>
        </extensions>
      </trkpt>
      <trkpt lat="42.5216980464756488800048828125" lon="19.76292438805103302001953125">
        <ele>1874</ele>
        <time>2026-06-18T09:16:53.000Z</time>
        <extensions>
          <ns3:TrackPointExtension>
            <ns3:atemp>22.0</ns3:atemp>
          </ns3:TrackPointExtension>
        </extensions>
      </trkpt>
      <trkpt lat="42.5216980464756488800048828125" lon="19.76292438805103302001953125">
        <ele>1874</ele>
        <time>2026-06-18T09:16:54.000Z</time>
        <extensions>
          <ns3:TrackPointExtension>
            <ns3:atemp>22.0</ns3:atemp>
          </ns3:TrackPointExtension>
        </extensions>
      </trkpt>
      <trkpt lat="42.5216980464756488800048828125" lon="19.76292438805103302001953125">
        <ele>1874</ele>
        <time>2026-06-18T09:16:55.000Z</time>
        <extensions>
          <ns3:TrackPointExtension>
            <ns3:atemp>22.0</ns3:atemp>
          </ns3:TrackPointExtension>
        </extensions>
      </trkpt>
      <trkpt lat="42.5216980464756488800048828125" lon="19.76292438805103302001953125">
        <ele>1874</ele>
        <time>2026-06-18T09:16:56.000Z</time>
        <extensions>
          <ns3:TrackPointExtension>
            <ns3:atemp>22.0</ns3:atemp>
          </ns3:TrackPointExtension>
        </extensions>
      </trkpt>
      <trkpt lat="42.5216980464756488800048828125" lon="19.76292438805103302001953125">
        <ele>1874</ele>
        <time>2026-06-18T09:16:57.000Z</time>
        <extensions>
          <ns3:TrackPointExtension>
            <ns3:atemp>22.0</ns3:atemp>
          </ns3:TrackPointExtension>
        </extensions>
      </trkpt>
      <trkpt lat="42.5216980464756488800048828125" lon="19.76292438805103302001953125">
        <ele>1874</ele>
        <time>2026-06-18T09:16:58.000Z</time>
        <extensions>
          <ns3:TrackPointExtension>
            <ns3:atemp>22.0</ns3:atemp>
          </ns3:TrackPointExtension>
        </extensions>
      </trkpt>
      <trkpt lat="42.5216980464756488800048828125" lon="19.76292438805103302001953125">
        <ele>1874</ele>
        <time>2026-06-18T09:16:59.000Z</time>
        <extensions>
          <ns3:TrackPointExtension>
            <ns3:atemp>22.0</ns3:atemp>
          </ns3:TrackPointExtension>
        </extensions>
      </trkpt>
      <trkpt lat="42.5216980464756488800048828125" lon="19.76292438805103302001953125">
        <ele>1874</ele>
        <time>2026-06-18T09:17:00.000Z</time>
        <extensions>
          <ns3:TrackPointExtension>
            <ns3:atemp>22.0</ns3:atemp>
          </ns3:TrackPointExtension>
        </extensions>
      </trkpt>
      <trkpt lat="42.5216980464756488800048828125" lon="19.76292438805103302001953125">
        <ele>1874</ele>
        <time>2026-06-18T09:17:01.000Z</time>
        <extensions>
          <ns3:TrackPointExtension>
            <ns3:atemp>22.0</ns3:atemp>
          </ns3:TrackPointExtension>
        </extensions>
      </trkpt>
      <trkpt lat="42.5216980464756488800048828125" lon="19.76292438805103302001953125">
        <ele>1874</ele>
        <time>2026-06-18T09:17:02.000Z</time>
        <extensions>
          <ns3:TrackPointExtension>
            <ns3:atemp>22.0</ns3:atemp>
          </ns3:TrackPointExtension>
        </extensions>
      </trkpt>
      <trkpt lat="42.5216980464756488800048828125" lon="19.76292438805103302001953125">
        <ele>1874</ele>
        <time>2026-06-18T09:17:03.000Z</time>
        <extensions>
          <ns3:TrackPointExtension>
            <ns3:atemp>22.0</ns3:atemp>
          </ns3:TrackPointExtension>
        </extensions>
      </trkpt>
      <trkpt lat="42.5216980464756488800048828125" lon="19.76292438805103302001953125">
        <ele>1874</ele>
        <time>2026-06-18T09:17:04.000Z</time>
        <extensions>
          <ns3:TrackPointExtension>
            <ns3:atemp>22.0</ns3:atemp>
          </ns3:TrackPointExtension>
        </extensions>
      </trkpt>
      <trkpt lat="42.5216980464756488800048828125" lon="19.76292438805103302001953125">
        <ele>1874</ele>
        <time>2026-06-18T09:17:05.000Z</time>
        <extensions>
          <ns3:TrackPointExtension>
            <ns3:atemp>22.0</ns3:atemp>
          </ns3:TrackPointExtension>
        </extensions>
      </trkpt>
      <trkpt lat="42.5216980464756488800048828125" lon="19.76292438805103302001953125">
        <ele>1874</ele>
        <time>2026-06-18T09:17:06.000Z</time>
        <extensions>
          <ns3:TrackPointExtension>
            <ns3:atemp>22.0</ns3:atemp>
          </ns3:TrackPointExtension>
        </extensions>
      </trkpt>
      <trkpt lat="42.5216980464756488800048828125" lon="19.76292438805103302001953125">
        <ele>1874</ele>
        <time>2026-06-18T09:17:07.000Z</time>
        <extensions>
          <ns3:TrackPointExtension>
            <ns3:atemp>22.0</ns3:atemp>
          </ns3:TrackPointExtension>
        </extensions>
      </trkpt>
      <trkpt lat="42.5216980464756488800048828125" lon="19.76292438805103302001953125">
        <ele>1874</ele>
        <time>2026-06-18T09:17:08.000Z</time>
        <extensions>
          <ns3:TrackPointExtension>
            <ns3:atemp>22.0</ns3:atemp>
          </ns3:TrackPointExtension>
        </extensions>
      </trkpt>
      <trkpt lat="42.5216980464756488800048828125" lon="19.76292438805103302001953125">
        <ele>1874</ele>
        <time>2026-06-18T09:17:09.000Z</time>
        <extensions>
          <ns3:TrackPointExtension>
            <ns3:atemp>22.0</ns3:atemp>
          </ns3:TrackPointExtension>
        </extensions>
      </trkpt>
      <trkpt lat="42.5216980464756488800048828125" lon="19.76292438805103302001953125">
        <ele>1874</ele>
        <time>2026-06-18T09:17:10.000Z</time>
        <extensions>
          <ns3:TrackPointExtension>
            <ns3:atemp>22.0</ns3:atemp>
          </ns3:TrackPointExtension>
        </extensions>
      </trkpt>
      <trkpt lat="42.5216980464756488800048828125" lon="19.76292438805103302001953125">
        <ele>1874</ele>
        <time>2026-06-18T09:17:11.000Z</time>
        <extensions>
          <ns3:TrackPointExtension>
            <ns3:atemp>22.0</ns3:atemp>
          </ns3:TrackPointExtension>
        </extensions>
      </trkpt>
      <trkpt lat="42.5216980464756488800048828125" lon="19.76292438805103302001953125">
        <ele>1874</ele>
        <time>2026-06-18T09:17:12.000Z</time>
        <extensions>
          <ns3:TrackPointExtension>
            <ns3:atemp>22.0</ns3:atemp>
          </ns3:TrackPointExtension>
        </extensions>
      </trkpt>
      <trkpt lat="42.5216980464756488800048828125" lon="19.76292438805103302001953125">
        <ele>1874</ele>
        <time>2026-06-18T09:17:13.000Z</time>
        <extensions>
          <ns3:TrackPointExtension>
            <ns3:atemp>22.0</ns3:atemp>
          </ns3:TrackPointExtension>
        </extensions>
      </trkpt>
      <trkpt lat="42.5216980464756488800048828125" lon="19.76292438805103302001953125">
        <ele>1874</ele>
        <time>2026-06-18T09:17:14.000Z</time>
        <extensions>
          <ns3:TrackPointExtension>
            <ns3:atemp>22.0</ns3:atemp>
          </ns3:TrackPointExtension>
        </extensions>
      </trkpt>
      <trkpt lat="42.5216980464756488800048828125" lon="19.76292438805103302001953125">
        <ele>1874</ele>
        <time>2026-06-18T09:17:15.000Z</time>
        <extensions>
          <ns3:TrackPointExtension>
            <ns3:atemp>22.0</ns3:atemp>
          </ns3:TrackPointExtension>
        </extensions>
      </trkpt>
      <trkpt lat="42.5216980464756488800048828125" lon="19.76292438805103302001953125">
        <ele>1874</ele>
        <time>2026-06-18T09:17:16.000Z</time>
        <extensions>
          <ns3:TrackPointExtension>
            <ns3:atemp>22.0</ns3:atemp>
          </ns3:TrackPointExtension>
        </extensions>
      </trkpt>
      <trkpt lat="42.5216980464756488800048828125" lon="19.76292438805103302001953125">
        <ele>1874</ele>
        <time>2026-06-18T09:17:17.000Z</time>
        <extensions>
          <ns3:TrackPointExtension>
            <ns3:atemp>22.0</ns3:atemp>
          </ns3:TrackPointExtension>
        </extensions>
      </trkpt>
      <trkpt lat="42.5216980464756488800048828125" lon="19.76292438805103302001953125">
        <ele>1874</ele>
        <time>2026-06-18T09:17:18.000Z</time>
        <extensions>
          <ns3:TrackPointExtension>
            <ns3:atemp>22.0</ns3:atemp>
          </ns3:TrackPointExtension>
        </extensions>
      </trkpt>
      <trkpt lat="42.5216980464756488800048828125" lon="19.76292438805103302001953125">
        <ele>1874</ele>
        <time>2026-06-18T09:17:19.000Z</time>
        <extensions>
          <ns3:TrackPointExtension>
            <ns3:atemp>22.0</ns3:atemp>
          </ns3:TrackPointExtension>
        </extensions>
      </trkpt>
      <trkpt lat="42.5216980464756488800048828125" lon="19.76292438805103302001953125">
        <ele>1874</ele>
        <time>2026-06-18T09:17:20.000Z</time>
        <extensions>
          <ns3:TrackPointExtension>
            <ns3:atemp>22.0</ns3:atemp>
          </ns3:TrackPointExtension>
        </extensions>
      </trkpt>
      <trkpt lat="42.5216980464756488800048828125" lon="19.76292438805103302001953125">
        <ele>1874</ele>
        <time>2026-06-18T09:17:21.000Z</time>
        <extensions>
          <ns3:TrackPointExtension>
            <ns3:atemp>22.0</ns3:atemp>
          </ns3:TrackPointExtension>
        </extensions>
      </trkpt>
      <trkpt lat="42.5216980464756488800048828125" lon="19.76292438805103302001953125">
        <ele>1874</ele>
        <time>2026-06-18T09:17:22.000Z</time>
        <extensions>
          <ns3:TrackPointExtension>
            <ns3:atemp>22.0</ns3:atemp>
          </ns3:TrackPointExtension>
        </extensions>
      </trkpt>
      <trkpt lat="42.5216980464756488800048828125" lon="19.76292438805103302001953125">
        <ele>1874</ele>
        <time>2026-06-18T09:17:23.000Z</time>
        <extensions>
          <ns3:TrackPointExtension>
            <ns3:atemp>22.0</ns3:atemp>
          </ns3:TrackPointExtension>
        </extensions>
      </trkpt>
      <trkpt lat="42.5216980464756488800048828125" lon="19.76292438805103302001953125">
        <ele>1874</ele>
        <time>2026-06-18T09:17:24.000Z</time>
        <extensions>
          <ns3:TrackPointExtension>
            <ns3:atemp>22.0</ns3:atemp>
          </ns3:TrackPointExtension>
        </extensions>
      </trkpt>
      <trkpt lat="42.5216980464756488800048828125" lon="19.76292438805103302001953125">
        <ele>1874</ele>
        <time>2026-06-18T09:17:25.000Z</time>
        <extensions>
          <ns3:TrackPointExtension>
            <ns3:atemp>22.0</ns3:atemp>
          </ns3:TrackPointExtension>
        </extensions>
      </trkpt>
      <trkpt lat="42.5216980464756488800048828125" lon="19.76292438805103302001953125">
        <ele>1874</ele>
        <time>2026-06-18T09:17:26.000Z</time>
        <extensions>
          <ns3:TrackPointExtension>
            <ns3:atemp>22.0</ns3:atemp>
          </ns3:TrackPointExtension>
        </extensions>
      </trkpt>
      <trkpt lat="42.5216980464756488800048828125" lon="19.76292438805103302001953125">
        <ele>1874</ele>
        <time>2026-06-18T09:17:27.000Z</time>
        <extensions>
          <ns3:TrackPointExtension>
            <ns3:atemp>22.0</ns3:atemp>
          </ns3:TrackPointExtension>
        </extensions>
      </trkpt>
      <trkpt lat="42.5216980464756488800048828125" lon="19.76292438805103302001953125">
        <ele>1874</ele>
        <time>2026-06-18T09:17:28.000Z</time>
        <extensions>
          <ns3:TrackPointExtension>
            <ns3:atemp>22.0</ns3:atemp>
          </ns3:TrackPointExtension>
        </extensions>
      </trkpt>
      <trkpt lat="42.5216980464756488800048828125" lon="19.76292438805103302001953125">
        <ele>1874</ele>
        <time>2026-06-18T09:17:29.000Z</time>
        <extensions>
          <ns3:TrackPointExtension>
            <ns3:atemp>22.0</ns3:atemp>
          </ns3:TrackPointExtension>
        </extensions>
      </trkpt>
      <trkpt lat="42.5216980464756488800048828125" lon="19.76292438805103302001953125">
        <ele>1874</ele>
        <time>2026-06-18T09:17:30.000Z</time>
        <extensions>
          <ns3:TrackPointExtension>
            <ns3:atemp>22.0</ns3:atemp>
          </ns3:TrackPointExtension>
        </extensions>
      </trkpt>
      <trkpt lat="42.5216980464756488800048828125" lon="19.76292438805103302001953125">
        <ele>1874</ele>
        <time>2026-06-18T09:17:31.000Z</time>
        <extensions>
          <ns3:TrackPointExtension>
            <ns3:atemp>22.0</ns3:atemp>
          </ns3:TrackPointExtension>
        </extensions>
      </trkpt>
      <trkpt lat="42.5216980464756488800048828125" lon="19.76292438805103302001953125">
        <ele>1874</ele>
        <time>2026-06-18T09:17:32.000Z</time>
        <extensions>
          <ns3:TrackPointExtension>
            <ns3:atemp>22.0</ns3:atemp>
          </ns3:TrackPointExtension>
        </extensions>
      </trkpt>
      <trkpt lat="42.5216980464756488800048828125" lon="19.76292438805103302001953125">
        <ele>1874</ele>
        <time>2026-06-18T09:17:33.000Z</time>
        <extensions>
          <ns3:TrackPointExtension>
            <ns3:atemp>22.0</ns3:atemp>
          </ns3:TrackPointExtension>
        </extensions>
      </trkpt>
      <trkpt lat="42.5216980464756488800048828125" lon="19.76292438805103302001953125">
        <ele>1874</ele>
        <time>2026-06-18T09:17:34.000Z</time>
        <extensions>
          <ns3:TrackPointExtension>
            <ns3:atemp>22.0</ns3:atemp>
          </ns3:TrackPointExtension>
        </extensions>
      </trkpt>
      <trkpt lat="42.5216980464756488800048828125" lon="19.76292438805103302001953125">
        <ele>1874</ele>
        <time>2026-06-18T09:17:35.000Z</time>
        <extensions>
          <ns3:TrackPointExtension>
            <ns3:atemp>22.0</ns3:atemp>
          </ns3:TrackPointExtension>
        </extensions>
      </trkpt>
      <trkpt lat="42.5216980464756488800048828125" lon="19.76292438805103302001953125">
        <ele>1874</ele>
        <time>2026-06-18T09:17:36.000Z</time>
        <extensions>
          <ns3:TrackPointExtension>
            <ns3:atemp>22.0</ns3:atemp>
          </ns3:TrackPointExtension>
        </extensions>
      </trkpt>
      <trkpt lat="42.5216980464756488800048828125" lon="19.76292438805103302001953125">
        <ele>1874</ele>
        <time>2026-06-18T09:17:37.000Z</time>
        <extensions>
          <ns3:TrackPointExtension>
            <ns3:atemp>22.0</ns3:atemp>
          </ns3:TrackPointExtension>
        </extensions>
      </trkpt>
      <trkpt lat="42.5216980464756488800048828125" lon="19.76292438805103302001953125">
        <ele>1874</ele>
        <time>2026-06-18T09:17:38.000Z</time>
        <extensions>
          <ns3:TrackPointExtension>
            <ns3:atemp>22.0</ns3:atemp>
          </ns3:TrackPointExtension>
        </extensions>
      </trkpt>
      <trkpt lat="42.5216980464756488800048828125" lon="19.76292438805103302001953125">
        <ele>1874</ele>
        <time>2026-06-18T09:17:39.000Z</time>
        <extensions>
          <ns3:TrackPointExtension>
            <ns3:atemp>22.0</ns3:atemp>
          </ns3:TrackPointExtension>
        </extensions>
      </trkpt>
      <trkpt lat="42.5216980464756488800048828125" lon="19.76292438805103302001953125">
        <ele>1874</ele>
        <time>2026-06-18T09:17:40.000Z</time>
        <extensions>
          <ns3:TrackPointExtension>
            <ns3:atemp>22.0</ns3:atemp>
          </ns3:TrackPointExtension>
        </extensions>
      </trkpt>
      <trkpt lat="42.5216980464756488800048828125" lon="19.76292438805103302001953125">
        <ele>1874</ele>
        <time>2026-06-18T09:17:41.000Z</time>
        <extensions>
          <ns3:TrackPointExtension>
            <ns3:atemp>22.0</ns3:atemp>
          </ns3:TrackPointExtension>
        </extensions>
      </trkpt>
      <trkpt lat="42.5216980464756488800048828125" lon="19.76292438805103302001953125">
        <ele>1874</ele>
        <time>2026-06-18T09:17:42.000Z</time>
        <extensions>
          <ns3:TrackPointExtension>
            <ns3:atemp>22.0</ns3:atemp>
          </ns3:TrackPointExtension>
        </extensions>
      </trkpt>
      <trkpt lat="42.5216980464756488800048828125" lon="19.76292438805103302001953125">
        <ele>1874</ele>
        <time>2026-06-18T09:17:43.000Z</time>
        <extensions>
          <ns3:TrackPointExtension>
            <ns3:atemp>22.0</ns3:atemp>
          </ns3:TrackPointExtension>
        </extensions>
      </trkpt>
      <trkpt lat="42.5216980464756488800048828125" lon="19.76292438805103302001953125">
        <ele>1874</ele>
        <time>2026-06-18T09:17:44.000Z</time>
        <extensions>
          <ns3:TrackPointExtension>
            <ns3:atemp>22.0</ns3:atemp>
          </ns3:TrackPointExtension>
        </extensions>
      </trkpt>
      <trkpt lat="42.5216980464756488800048828125" lon="19.76292438805103302001953125">
        <ele>1874</ele>
        <time>2026-06-18T09:17:45.000Z</time>
        <extensions>
          <ns3:TrackPointExtension>
            <ns3:atemp>22.0</ns3:atemp>
          </ns3:TrackPointExtension>
        </extensions>
      </trkpt>
      <trkpt lat="42.5216980464756488800048828125" lon="19.76292438805103302001953125">
        <ele>1874</ele>
        <time>2026-06-18T09:17:46.000Z</time>
        <extensions>
          <ns3:TrackPointExtension>
            <ns3:atemp>22.0</ns3:atemp>
          </ns3:TrackPointExtension>
        </extensions>
      </trkpt>
      <trkpt lat="42.5216980464756488800048828125" lon="19.76292438805103302001953125">
        <ele>1874</ele>
        <time>2026-06-18T09:17:47.000Z</time>
        <extensions>
          <ns3:TrackPointExtension>
            <ns3:atemp>22.0</ns3:atemp>
          </ns3:TrackPointExtension>
        </extensions>
      </trkpt>
      <trkpt lat="42.5216980464756488800048828125" lon="19.76292438805103302001953125">
        <ele>1874</ele>
        <time>2026-06-18T09:17:48.000Z</time>
        <extensions>
          <ns3:TrackPointExtension>
            <ns3:atemp>22.0</ns3:atemp>
          </ns3:TrackPointExtension>
        </extensions>
      </trkpt>
      <trkpt lat="42.5216980464756488800048828125" lon="19.76292438805103302001953125">
        <ele>1874</ele>
        <time>2026-06-18T09:17:49.000Z</time>
        <extensions>
          <ns3:TrackPointExtension>
            <ns3:atemp>22.0</ns3:atemp>
          </ns3:TrackPointExtension>
        </extensions>
      </trkpt>
      <trkpt lat="42.5216980464756488800048828125" lon="19.76292438805103302001953125">
        <ele>1874</ele>
        <time>2026-06-18T09:17:50.000Z</time>
        <extensions>
          <ns3:TrackPointExtension>
            <ns3:atemp>22.0</ns3:atemp>
          </ns3:TrackPointExtension>
        </extensions>
      </trkpt>
      <trkpt lat="42.5216980464756488800048828125" lon="19.76292438805103302001953125">
        <ele>1874</ele>
        <time>2026-06-18T09:17:51.000Z</time>
        <extensions>
          <ns3:TrackPointExtension>
            <ns3:atemp>22.0</ns3:atemp>
          </ns3:TrackPointExtension>
        </extensions>
      </trkpt>
      <trkpt lat="42.5216980464756488800048828125" lon="19.76292438805103302001953125">
        <ele>1874</ele>
        <time>2026-06-18T09:17:52.000Z</time>
        <extensions>
          <ns3:TrackPointExtension>
            <ns3:atemp>22.0</ns3:atemp>
          </ns3:TrackPointExtension>
        </extensions>
      </trkpt>
      <trkpt lat="42.52169829793274402618408203125" lon="19.7629232145845890045166015625">
        <ele>1874</ele>
        <time>2026-06-18T09:17:53.000Z</time>
        <extensions>
          <ns3:TrackPointExtension>
            <ns3:atemp>22.0</ns3:atemp>
          </ns3:TrackPointExtension>
        </extensions>
      </trkpt>
      <trkpt lat="42.52169125713407993316650390625" lon="19.76292296312749385833740234375">
        <ele>1874</ele>
        <time>2026-06-18T09:17:54.000Z</time>
        <extensions>
          <ns3:TrackPointExtension>
            <ns3:atemp>22.0</ns3:atemp>
          </ns3:TrackPointExtension>
        </extensions>
      </trkpt>
      <trkpt lat="42.52168807201087474822998046875" lon="19.76292430423200130462646484375">
        <ele>1874</ele>
        <time>2026-06-18T09:17:55.000Z</time>
        <extensions>
          <ns3:TrackPointExtension>
            <ns3:atemp>22.0</ns3:atemp>
          </ns3:TrackPointExtension>
        </extensions>
      </trkpt>
      <trkpt lat="42.5216980464756488800048828125" lon="19.76292438805103302001953125">
        <ele>1874</ele>
        <time>2026-06-18T09:17:56.000Z</time>
        <extensions>
          <ns3:TrackPointExtension>
            <ns3:atemp>22.0</ns3:atemp>
          </ns3:TrackPointExtension>
        </extensions>
      </trkpt>
      <trkpt lat="42.5216980464756488800048828125" lon="19.76292438805103302001953125">
        <ele>1874</ele>
        <time>2026-06-18T09:17:57.000Z</time>
        <extensions>
          <ns3:TrackPointExtension>
            <ns3:atemp>22.0</ns3:atemp>
          </ns3:TrackPointExtension>
        </extensions>
      </trkpt>
      <trkpt lat="42.5216980464756488800048828125" lon="19.76292438805103302001953125">
        <ele>1874</ele>
        <time>2026-06-18T09:17:58.000Z</time>
        <extensions>
          <ns3:TrackPointExtension>
            <ns3:atemp>22.0</ns3:atemp>
          </ns3:TrackPointExtension>
        </extensions>
      </trkpt>
      <trkpt lat="42.5216980464756488800048828125" lon="19.76292438805103302001953125">
        <ele>1874</ele>
        <time>2026-06-18T09:17:59.000Z</time>
        <extensions>
          <ns3:TrackPointExtension>
            <ns3:atemp>22.0</ns3:atemp>
          </ns3:TrackPointExtension>
        </extensions>
      </trkpt>
      <trkpt lat="42.5216980464756488800048828125" lon="19.76292438805103302001953125">
        <ele>1874</ele>
        <time>2026-06-18T09:18:00.000Z</time>
        <extensions>
          <ns3:TrackPointExtension>
            <ns3:atemp>22.0</ns3:atemp>
          </ns3:TrackPointExtension>
        </extensions>
      </trkpt>
      <trkpt lat="42.5216980464756488800048828125" lon="19.76292438805103302001953125">
        <ele>1874</ele>
        <time>2026-06-18T09:18:01.000Z</time>
        <extensions>
          <ns3:TrackPointExtension>
            <ns3:atemp>22.0</ns3:atemp>
          </ns3:TrackPointExtension>
        </extensions>
      </trkpt>
      <trkpt lat="42.5216980464756488800048828125" lon="19.76292438805103302001953125">
        <ele>1874</ele>
        <time>2026-06-18T09:18:02.000Z</time>
        <extensions>
          <ns3:TrackPointExtension>
            <ns3:atemp>22.0</ns3:atemp>
          </ns3:TrackPointExtension>
        </extensions>
      </trkpt>
      <trkpt lat="42.5216980464756488800048828125" lon="19.76292438805103302001953125">
        <ele>1874</ele>
        <time>2026-06-18T09:18:03.000Z</time>
        <extensions>
          <ns3:TrackPointExtension>
            <ns3:atemp>22.0</ns3:atemp>
          </ns3:TrackPointExtension>
        </extensions>
      </trkpt>
      <trkpt lat="42.5216980464756488800048828125" lon="19.76292438805103302001953125">
        <ele>1874</ele>
        <time>2026-06-18T09:18:04.000Z</time>
        <extensions>
          <ns3:TrackPointExtension>
            <ns3:atemp>22.0</ns3:atemp>
          </ns3:TrackPointExtension>
        </extensions>
      </trkpt>
      <trkpt lat="42.5216980464756488800048828125" lon="19.76292438805103302001953125">
        <ele>1874</ele>
        <time>2026-06-18T09:18:05.000Z</time>
        <extensions>
          <ns3:TrackPointExtension>
            <ns3:atemp>22.0</ns3:atemp>
          </ns3:TrackPointExtension>
        </extensions>
      </trkpt>
      <trkpt lat="42.5216980464756488800048828125" lon="19.76292438805103302001953125">
        <ele>1874</ele>
        <time>2026-06-18T09:18:06.000Z</time>
        <extensions>
          <ns3:TrackPointExtension>
            <ns3:atemp>22.0</ns3:atemp>
          </ns3:TrackPointExtension>
        </extensions>
      </trkpt>
      <trkpt lat="42.5216980464756488800048828125" lon="19.76292438805103302001953125">
        <ele>1874</ele>
        <time>2026-06-18T09:18:07.000Z</time>
        <extensions>
          <ns3:TrackPointExtension>
            <ns3:atemp>22.0</ns3:atemp>
          </ns3:TrackPointExtension>
        </extensions>
      </trkpt>
      <trkpt lat="42.5216980464756488800048828125" lon="19.76292438805103302001953125">
        <ele>1874</ele>
        <time>2026-06-18T09:18:08.000Z</time>
        <extensions>
          <ns3:TrackPointExtension>
            <ns3:atemp>22.0</ns3:atemp>
          </ns3:TrackPointExtension>
        </extensions>
      </trkpt>
      <trkpt lat="42.5216980464756488800048828125" lon="19.76292438805103302001953125">
        <ele>1874</ele>
        <time>2026-06-18T09:18:09.000Z</time>
        <extensions>
          <ns3:TrackPointExtension>
            <ns3:atemp>22.0</ns3:atemp>
          </ns3:TrackPointExtension>
        </extensions>
      </trkpt>
      <trkpt lat="42.5216980464756488800048828125" lon="19.76292438805103302001953125">
        <ele>1874</ele>
        <time>2026-06-18T09:18:10.000Z</time>
        <extensions>
          <ns3:TrackPointExtension>
            <ns3:atemp>22.0</ns3:atemp>
          </ns3:TrackPointExtension>
        </extensions>
      </trkpt>
      <trkpt lat="42.5216980464756488800048828125" lon="19.76292438805103302001953125">
        <ele>1874</ele>
        <time>2026-06-18T09:18:11.000Z</time>
        <extensions>
          <ns3:TrackPointExtension>
            <ns3:atemp>22.0</ns3:atemp>
          </ns3:TrackPointExtension>
        </extensions>
      </trkpt>
      <trkpt lat="42.5216980464756488800048828125" lon="19.76292438805103302001953125">
        <ele>1874</ele>
        <time>2026-06-18T09:18:12.000Z</time>
        <extensions>
          <ns3:TrackPointExtension>
            <ns3:atemp>22.0</ns3:atemp>
          </ns3:TrackPointExtension>
        </extensions>
      </trkpt>
      <trkpt lat="42.5216980464756488800048828125" lon="19.76292438805103302001953125">
        <ele>1874</ele>
        <time>2026-06-18T09:18:13.000Z</time>
        <extensions>
          <ns3:TrackPointExtension>
            <ns3:atemp>22.0</ns3:atemp>
          </ns3:TrackPointExtension>
        </extensions>
      </trkpt>
      <trkpt lat="42.5216980464756488800048828125" lon="19.76292438805103302001953125">
        <ele>1874</ele>
        <time>2026-06-18T09:18:14.000Z</time>
        <extensions>
          <ns3:TrackPointExtension>
            <ns3:atemp>22.0</ns3:atemp>
          </ns3:TrackPointExtension>
        </extensions>
      </trkpt>
      <trkpt lat="42.5216980464756488800048828125" lon="19.76292438805103302001953125">
        <ele>1874</ele>
        <time>2026-06-18T09:18:15.000Z</time>
        <extensions>
          <ns3:TrackPointExtension>
            <ns3:atemp>22.0</ns3:atemp>
          </ns3:TrackPointExtension>
        </extensions>
      </trkpt>
      <trkpt lat="42.5216980464756488800048828125" lon="19.76292438805103302001953125">
        <ele>1874</ele>
        <time>2026-06-18T09:18:16.000Z</time>
        <extensions>
          <ns3:TrackPointExtension>
            <ns3:atemp>22.0</ns3:atemp>
          </ns3:TrackPointExtension>
        </extensions>
      </trkpt>
      <trkpt lat="42.5216980464756488800048828125" lon="19.76292438805103302001953125">
        <ele>1874</ele>
        <time>2026-06-18T09:18:17.000Z</time>
        <extensions>
          <ns3:TrackPointExtension>
            <ns3:atemp>22.0</ns3:atemp>
          </ns3:TrackPointExtension>
        </extensions>
      </trkpt>
      <trkpt lat="42.5216980464756488800048828125" lon="19.76292438805103302001953125">
        <ele>1874</ele>
        <time>2026-06-18T09:18:18.000Z</time>
        <extensions>
          <ns3:TrackPointExtension>
            <ns3:atemp>22.0</ns3:atemp>
          </ns3:TrackPointExtension>
        </extensions>
      </trkpt>
      <trkpt lat="42.5216980464756488800048828125" lon="19.76292438805103302001953125">
        <ele>1874</ele>
        <time>2026-06-18T09:18:19.000Z</time>
        <extensions>
          <ns3:TrackPointExtension>
            <ns3:atemp>22.0</ns3:atemp>
          </ns3:TrackPointExtension>
        </extensions>
      </trkpt>
      <trkpt lat="42.5216980464756488800048828125" lon="19.76292438805103302001953125">
        <ele>1874</ele>
        <time>2026-06-18T09:18:20.000Z</time>
        <extensions>
          <ns3:TrackPointExtension>
            <ns3:atemp>22.0</ns3:atemp>
          </ns3:TrackPointExtension>
        </extensions>
      </trkpt>
      <trkpt lat="42.5216980464756488800048828125" lon="19.76292438805103302001953125">
        <ele>1874</ele>
        <time>2026-06-18T09:18:21.000Z</time>
        <extensions>
          <ns3:TrackPointExtension>
            <ns3:atemp>22.0</ns3:atemp>
          </ns3:TrackPointExtension>
        </extensions>
      </trkpt>
      <trkpt lat="42.5216980464756488800048828125" lon="19.76292438805103302001953125">
        <ele>1874</ele>
        <time>2026-06-18T09:18:22.000Z</time>
        <extensions>
          <ns3:TrackPointExtension>
            <ns3:atemp>22.0</ns3:atemp>
          </ns3:TrackPointExtension>
        </extensions>
      </trkpt>
      <trkpt lat="42.5216980464756488800048828125" lon="19.76292438805103302001953125">
        <ele>1874</ele>
        <time>2026-06-18T09:18:23.000Z</time>
        <extensions>
          <ns3:TrackPointExtension>
            <ns3:atemp>22.0</ns3:atemp>
          </ns3:TrackPointExtension>
        </extensions>
      </trkpt>
      <trkpt lat="42.5216980464756488800048828125" lon="19.76292438805103302001953125">
        <ele>1874</ele>
        <time>2026-06-18T09:18:24.000Z</time>
        <extensions>
          <ns3:TrackPointExtension>
            <ns3:atemp>22.0</ns3:atemp>
          </ns3:TrackPointExtension>
        </extensions>
      </trkpt>
      <trkpt lat="42.5216980464756488800048828125" lon="19.76292438805103302001953125">
        <ele>1874</ele>
        <time>2026-06-18T09:18:25.000Z</time>
        <extensions>
          <ns3:TrackPointExtension>
            <ns3:atemp>22.0</ns3:atemp>
          </ns3:TrackPointExtension>
        </extensions>
      </trkpt>
      <trkpt lat="42.5216980464756488800048828125" lon="19.76292438805103302001953125">
        <ele>1874</ele>
        <time>2026-06-18T09:18:26.000Z</time>
        <extensions>
          <ns3:TrackPointExtension>
            <ns3:atemp>22.0</ns3:atemp>
          </ns3:TrackPointExtension>
        </extensions>
      </trkpt>
      <trkpt lat="42.5216980464756488800048828125" lon="19.76292438805103302001953125">
        <ele>1874</ele>
        <time>2026-06-18T09:18:27.000Z</time>
        <extensions>
          <ns3:TrackPointExtension>
            <ns3:atemp>22.0</ns3:atemp>
          </ns3:TrackPointExtension>
        </extensions>
      </trkpt>
      <trkpt lat="42.5216980464756488800048828125" lon="19.76292438805103302001953125">
        <ele>1874</ele>
        <time>2026-06-18T09:18:28.000Z</time>
        <extensions>
          <ns3:TrackPointExtension>
            <ns3:atemp>22.0</ns3:atemp>
          </ns3:TrackPointExtension>
        </extensions>
      </trkpt>
      <trkpt lat="42.5216980464756488800048828125" lon="19.76292438805103302001953125">
        <ele>1874</ele>
        <time>2026-06-18T09:18:29.000Z</time>
        <extensions>
          <ns3:TrackPointExtension>
            <ns3:atemp>22.0</ns3:atemp>
          </ns3:TrackPointExtension>
        </extensions>
      </trkpt>
      <trkpt lat="42.5216980464756488800048828125" lon="19.76292438805103302001953125">
        <ele>1874</ele>
        <time>2026-06-18T09:18:30.000Z</time>
        <extensions>
          <ns3:TrackPointExtension>
            <ns3:atemp>22.0</ns3:atemp>
          </ns3:TrackPointExtension>
        </extensions>
      </trkpt>
      <trkpt lat="42.5216980464756488800048828125" lon="19.76292438805103302001953125">
        <ele>1874</ele>
        <time>2026-06-18T09:18:31.000Z</time>
        <extensions>
          <ns3:TrackPointExtension>
            <ns3:atemp>22.0</ns3:atemp>
          </ns3:TrackPointExtension>
        </extensions>
      </trkpt>
      <trkpt lat="42.5216980464756488800048828125" lon="19.76292438805103302001953125">
        <ele>1874</ele>
        <time>2026-06-18T09:18:32.000Z</time>
        <extensions>
          <ns3:TrackPointExtension>
            <ns3:atemp>22.0</ns3:atemp>
          </ns3:TrackPointExtension>
        </extensions>
      </trkpt>
      <trkpt lat="42.5216980464756488800048828125" lon="19.76292438805103302001953125">
        <ele>1874</ele>
        <time>2026-06-18T09:18:33.000Z</time>
        <extensions>
          <ns3:TrackPointExtension>
            <ns3:atemp>22.0</ns3:atemp>
          </ns3:TrackPointExtension>
        </extensions>
      </trkpt>
      <trkpt lat="42.5216980464756488800048828125" lon="19.76292438805103302001953125">
        <ele>1874</ele>
        <time>2026-06-18T09:18:34.000Z</time>
        <extensions>
          <ns3:TrackPointExtension>
            <ns3:atemp>22.0</ns3:atemp>
          </ns3:TrackPointExtension>
        </extensions>
      </trkpt>
      <trkpt lat="42.5216980464756488800048828125" lon="19.76292438805103302001953125">
        <ele>1874</ele>
        <time>2026-06-18T09:18:35.000Z</time>
        <extensions>
          <ns3:TrackPointExtension>
            <ns3:atemp>22.0</ns3:atemp>
          </ns3:TrackPointExtension>
        </extensions>
      </trkpt>
      <trkpt lat="42.5216980464756488800048828125" lon="19.76292438805103302001953125">
        <ele>1874</ele>
        <time>2026-06-18T09:18:36.000Z</time>
        <extensions>
          <ns3:TrackPointExtension>
            <ns3:atemp>22.0</ns3:atemp>
          </ns3:TrackPointExtension>
        </extensions>
      </trkpt>
      <trkpt lat="42.5216980464756488800048828125" lon="19.76292438805103302001953125">
        <ele>1874</ele>
        <time>2026-06-18T09:18:37.000Z</time>
        <extensions>
          <ns3:TrackPointExtension>
            <ns3:atemp>22.0</ns3:atemp>
          </ns3:TrackPointExtension>
        </extensions>
      </trkpt>
      <trkpt lat="42.5216980464756488800048828125" lon="19.76292438805103302001953125">
        <ele>1874</ele>
        <time>2026-06-18T09:18:38.000Z</time>
        <extensions>
          <ns3:TrackPointExtension>
            <ns3:atemp>22.0</ns3:atemp>
          </ns3:TrackPointExtension>
        </extensions>
      </trkpt>
      <trkpt lat="42.5216980464756488800048828125" lon="19.76292438805103302001953125">
        <ele>1874</ele>
        <time>2026-06-18T09:18:39.000Z</time>
        <extensions>
          <ns3:TrackPointExtension>
            <ns3:atemp>22.0</ns3:atemp>
          </ns3:TrackPointExtension>
        </extensions>
      </trkpt>
      <trkpt lat="42.5216980464756488800048828125" lon="19.76292438805103302001953125">
        <ele>1874</ele>
        <time>2026-06-18T09:18:40.000Z</time>
        <extensions>
          <ns3:TrackPointExtension>
            <ns3:atemp>22.0</ns3:atemp>
          </ns3:TrackPointExtension>
        </extensions>
      </trkpt>
      <trkpt lat="42.5216980464756488800048828125" lon="19.76292438805103302001953125">
        <ele>1874</ele>
        <time>2026-06-18T09:18:41.000Z</time>
        <extensions>
          <ns3:TrackPointExtension>
            <ns3:atemp>22.0</ns3:atemp>
          </ns3:TrackPointExtension>
        </extensions>
      </trkpt>
      <trkpt lat="42.5216980464756488800048828125" lon="19.76292438805103302001953125">
        <ele>1874</ele>
        <time>2026-06-18T09:18:42.000Z</time>
        <extensions>
          <ns3:TrackPointExtension>
            <ns3:atemp>22.0</ns3:atemp>
          </ns3:TrackPointExtension>
        </extensions>
      </trkpt>
      <trkpt lat="42.5216980464756488800048828125" lon="19.76292438805103302001953125">
        <ele>1874</ele>
        <time>2026-06-18T09:18:43.000Z</time>
        <extensions>
          <ns3:TrackPointExtension>
            <ns3:atemp>22.0</ns3:atemp>
          </ns3:TrackPointExtension>
        </extensions>
      </trkpt>
      <trkpt lat="42.5216980464756488800048828125" lon="19.76292438805103302001953125">
        <ele>1874</ele>
        <time>2026-06-18T09:18:44.000Z</time>
        <extensions>
          <ns3:TrackPointExtension>
            <ns3:atemp>22.0</ns3:atemp>
          </ns3:TrackPointExtension>
        </extensions>
      </trkpt>
      <trkpt lat="42.5216980464756488800048828125" lon="19.76292438805103302001953125">
        <ele>1874</ele>
        <time>2026-06-18T09:18:45.000Z</time>
        <extensions>
          <ns3:TrackPointExtension>
            <ns3:atemp>22.0</ns3:atemp>
          </ns3:TrackPointExtension>
        </extensions>
      </trkpt>
      <trkpt lat="42.5216980464756488800048828125" lon="19.76292438805103302001953125">
        <ele>1874</ele>
        <time>2026-06-18T09:18:46.000Z</time>
        <extensions>
          <ns3:TrackPointExtension>
            <ns3:atemp>22.0</ns3:atemp>
          </ns3:TrackPointExtension>
        </extensions>
      </trkpt>
      <trkpt lat="42.5216980464756488800048828125" lon="19.76292438805103302001953125">
        <ele>1874</ele>
        <time>2026-06-18T09:18:47.000Z</time>
        <extensions>
          <ns3:TrackPointExtension>
            <ns3:atemp>22.0</ns3:atemp>
          </ns3:TrackPointExtension>
        </extensions>
      </trkpt>
      <trkpt lat="42.5216980464756488800048828125" lon="19.76292438805103302001953125">
        <ele>1874</ele>
        <time>2026-06-18T09:18:48.000Z</time>
        <extensions>
          <ns3:TrackPointExtension>
            <ns3:atemp>22.0</ns3:atemp>
          </ns3:TrackPointExtension>
        </extensions>
      </trkpt>
      <trkpt lat="42.5216980464756488800048828125" lon="19.76292438805103302001953125">
        <ele>1874</ele>
        <time>2026-06-18T09:18:49.000Z</time>
        <extensions>
          <ns3:TrackPointExtension>
            <ns3:atemp>22.0</ns3:atemp>
          </ns3:TrackPointExtension>
        </extensions>
      </trkpt>
      <trkpt lat="42.5216980464756488800048828125" lon="19.76292438805103302001953125">
        <ele>1874</ele>
        <time>2026-06-18T09:18:50.000Z</time>
        <extensions>
          <ns3:TrackPointExtension>
            <ns3:atemp>22.0</ns3:atemp>
          </ns3:TrackPointExtension>
        </extensions>
      </trkpt>
      <trkpt lat="42.5216980464756488800048828125" lon="19.76292438805103302001953125">
        <ele>1874</ele>
        <time>2026-06-18T09:18:51.000Z</time>
        <extensions>
          <ns3:TrackPointExtension>
            <ns3:atemp>22.0</ns3:atemp>
          </ns3:TrackPointExtension>
        </extensions>
      </trkpt>
      <trkpt lat="42.5216980464756488800048828125" lon="19.76292438805103302001953125">
        <ele>1874</ele>
        <time>2026-06-18T09:18:52.000Z</time>
        <extensions>
          <ns3:TrackPointExtension>
            <ns3:atemp>21.0</ns3:atemp>
          </ns3:TrackPointExtension>
        </extensions>
      </trkpt>
      <trkpt lat="42.5216980464756488800048828125" lon="19.76292438805103302001953125">
        <ele>1874</ele>
        <time>2026-06-18T09:18:53.000Z</time>
        <extensions>
          <ns3:TrackPointExtension>
            <ns3:atemp>22.0</ns3:atemp>
          </ns3:TrackPointExtension>
        </extensions>
      </trkpt>
      <trkpt lat="42.5216980464756488800048828125" lon="19.76292438805103302001953125">
        <ele>1874</ele>
        <time>2026-06-18T09:18:54.000Z</time>
        <extensions>
          <ns3:TrackPointExtension>
            <ns3:atemp>22.0</ns3:atemp>
          </ns3:TrackPointExtension>
        </extensions>
      </trkpt>
      <trkpt lat="42.5216980464756488800048828125" lon="19.76292438805103302001953125">
        <ele>1874</ele>
        <time>2026-06-18T09:18:55.000Z</time>
        <extensions>
          <ns3:TrackPointExtension>
            <ns3:atemp>21.0</ns3:atemp>
          </ns3:TrackPointExtension>
        </extensions>
      </trkpt>
      <trkpt lat="42.52168790437281131744384765625" lon="19.76292296312749385833740234375">
        <ele>1874</ele>
        <time>2026-06-18T09:18:56.000Z</time>
        <extensions>
          <ns3:TrackPointExtension>
            <ns3:atemp>21.0</ns3:atemp>
          </ns3:TrackPointExtension>
        </extensions>
      </trkpt>
      <trkpt lat="42.521685473620891571044921875" lon="19.76292128674685955047607421875">
        <ele>1874</ele>
        <time>2026-06-18T09:18:57.000Z</time>
        <extensions>
          <ns3:TrackPointExtension>
            <ns3:atemp>21.0</ns3:atemp>
          </ns3:TrackPointExtension>
        </extensions>
      </trkpt>
      <trkpt lat="42.52167734317481517791748046875" lon="19.76292514242231845855712890625">
        <ele>1874</ele>
        <time>2026-06-18T09:18:58.000Z</time>
        <extensions>
          <ns3:TrackPointExtension>
            <ns3:atemp>21.0</ns3:atemp>
          </ns3:TrackPointExtension>
        </extensions>
      </trkpt>
      <trkpt lat="42.52167575061321258544921875" lon="19.7629252262413501739501953125">
        <ele>1874</ele>
        <time>2026-06-18T09:18:59.000Z</time>
        <extensions>
          <ns3:TrackPointExtension>
            <ns3:atemp>21.0</ns3:atemp>
          </ns3:TrackPointExtension>
        </extensions>
      </trkpt>
      <trkpt lat="42.52167575061321258544921875" lon="19.7629252262413501739501953125">
        <ele>1874</ele>
        <time>2026-06-18T09:19:00.000Z</time>
        <extensions>
          <ns3:TrackPointExtension>
            <ns3:atemp>21.0</ns3:atemp>
          </ns3:TrackPointExtension>
        </extensions>
      </trkpt>
      <trkpt lat="42.52167575061321258544921875" lon="19.7629252262413501739501953125">
        <ele>1874</ele>
        <time>2026-06-18T09:19:01.000Z</time>
        <extensions>
          <ns3:TrackPointExtension>
            <ns3:atemp>21.0</ns3:atemp>
          </ns3:TrackPointExtension>
        </extensions>
      </trkpt>
      <trkpt lat="42.52167575061321258544921875" lon="19.7629252262413501739501953125">
        <ele>1874</ele>
        <time>2026-06-18T09:19:02.000Z</time>
        <extensions>
          <ns3:TrackPointExtension>
            <ns3:atemp>21.0</ns3:atemp>
          </ns3:TrackPointExtension>
        </extensions>
      </trkpt>
      <trkpt lat="42.52167575061321258544921875" lon="19.7629252262413501739501953125">
        <ele>1874</ele>
        <time>2026-06-18T09:19:03.000Z</time>
        <extensions>
          <ns3:TrackPointExtension>
            <ns3:atemp>21.0</ns3:atemp>
          </ns3:TrackPointExtension>
        </extensions>
      </trkpt>
      <trkpt lat="42.52167575061321258544921875" lon="19.7629252262413501739501953125">
        <ele>1874</ele>
        <time>2026-06-18T09:19:04.000Z</time>
        <extensions>
          <ns3:TrackPointExtension>
            <ns3:atemp>21.0</ns3:atemp>
          </ns3:TrackPointExtension>
        </extensions>
      </trkpt>
      <trkpt lat="42.52167575061321258544921875" lon="19.7629252262413501739501953125">
        <ele>1874</ele>
        <time>2026-06-18T09:19:05.000Z</time>
        <extensions>
          <ns3:TrackPointExtension>
            <ns3:atemp>21.0</ns3:atemp>
          </ns3:TrackPointExtension>
        </extensions>
      </trkpt>
      <trkpt lat="42.52167575061321258544921875" lon="19.7629252262413501739501953125">
        <ele>1874</ele>
        <time>2026-06-18T09:19:06.000Z</time>
        <extensions>
          <ns3:TrackPointExtension>
            <ns3:atemp>21.0</ns3:atemp>
          </ns3:TrackPointExtension>
        </extensions>
      </trkpt>
      <trkpt lat="42.52167575061321258544921875" lon="19.7629252262413501739501953125">
        <ele>1874</ele>
        <time>2026-06-18T09:19:07.000Z</time>
        <extensions>
          <ns3:TrackPointExtension>
            <ns3:atemp>21.0</ns3:atemp>
          </ns3:TrackPointExtension>
        </extensions>
      </trkpt>
      <trkpt lat="42.52167575061321258544921875" lon="19.7629252262413501739501953125">
        <ele>1874</ele>
        <time>2026-06-18T09:19:08.000Z</time>
        <extensions>
          <ns3:TrackPointExtension>
            <ns3:atemp>21.0</ns3:atemp>
          </ns3:TrackPointExtension>
        </extensions>
      </trkpt>
      <trkpt lat="42.52167575061321258544921875" lon="19.7629252262413501739501953125">
        <ele>1874</ele>
        <time>2026-06-18T09:19:09.000Z</time>
        <extensions>
          <ns3:TrackPointExtension>
            <ns3:atemp>21.0</ns3:atemp>
          </ns3:TrackPointExtension>
        </extensions>
      </trkpt>
      <trkpt lat="42.52167575061321258544921875" lon="19.7629252262413501739501953125">
        <ele>1874</ele>
        <time>2026-06-18T09:19:10.000Z</time>
        <extensions>
          <ns3:TrackPointExtension>
            <ns3:atemp>21.0</ns3:atemp>
          </ns3:TrackPointExtension>
        </extensions>
      </trkpt>
      <trkpt lat="42.52167575061321258544921875" lon="19.7629252262413501739501953125">
        <ele>1874</ele>
        <time>2026-06-18T09:19:11.000Z</time>
        <extensions>
          <ns3:TrackPointExtension>
            <ns3:atemp>21.0</ns3:atemp>
          </ns3:TrackPointExtension>
        </extensions>
      </trkpt>
      <trkpt lat="42.52167575061321258544921875" lon="19.7629252262413501739501953125">
        <ele>1874</ele>
        <time>2026-06-18T09:19:12.000Z</time>
        <extensions>
          <ns3:TrackPointExtension>
            <ns3:atemp>21.0</ns3:atemp>
          </ns3:TrackPointExtension>
        </extensions>
      </trkpt>
      <trkpt lat="42.52167575061321258544921875" lon="19.7629252262413501739501953125">
        <ele>1874</ele>
        <time>2026-06-18T09:19:13.000Z</time>
        <extensions>
          <ns3:TrackPointExtension>
            <ns3:atemp>21.0</ns3:atemp>
          </ns3:TrackPointExtension>
        </extensions>
      </trkpt>
      <trkpt lat="42.52167575061321258544921875" lon="19.7629252262413501739501953125">
        <ele>1874</ele>
        <time>2026-06-18T09:19:14.000Z</time>
        <extensions>
          <ns3:TrackPointExtension>
            <ns3:atemp>21.0</ns3:atemp>
          </ns3:TrackPointExtension>
        </extensions>
      </trkpt>
      <trkpt lat="42.52167575061321258544921875" lon="19.7629252262413501739501953125">
        <ele>1874</ele>
        <time>2026-06-18T09:19:15.000Z</time>
        <extensions>
          <ns3:TrackPointExtension>
            <ns3:atemp>21.0</ns3:atemp>
          </ns3:TrackPointExtension>
        </extensions>
      </trkpt>
      <trkpt lat="42.52167575061321258544921875" lon="19.7629252262413501739501953125">
        <ele>1874</ele>
        <time>2026-06-18T09:19:16.000Z</time>
        <extensions>
          <ns3:TrackPointExtension>
            <ns3:atemp>21.0</ns3:atemp>
          </ns3:TrackPointExtension>
        </extensions>
      </trkpt>
      <trkpt lat="42.52167575061321258544921875" lon="19.7629252262413501739501953125">
        <ele>1874</ele>
        <time>2026-06-18T09:19:17.000Z</time>
        <extensions>
          <ns3:TrackPointExtension>
            <ns3:atemp>21.0</ns3:atemp>
          </ns3:TrackPointExtension>
        </extensions>
      </trkpt>
      <trkpt lat="42.52167575061321258544921875" lon="19.7629252262413501739501953125">
        <ele>1874</ele>
        <time>2026-06-18T09:19:18.000Z</time>
        <extensions>
          <ns3:TrackPointExtension>
            <ns3:atemp>21.0</ns3:atemp>
          </ns3:TrackPointExtension>
        </extensions>
      </trkpt>
      <trkpt lat="42.52167575061321258544921875" lon="19.7629252262413501739501953125">
        <ele>1874</ele>
        <time>2026-06-18T09:19:19.000Z</time>
        <extensions>
          <ns3:TrackPointExtension>
            <ns3:atemp>21.0</ns3:atemp>
          </ns3:TrackPointExtension>
        </extensions>
      </trkpt>
      <trkpt lat="42.52167575061321258544921875" lon="19.7629252262413501739501953125">
        <ele>1874</ele>
        <time>2026-06-18T09:19:20.000Z</time>
        <extensions>
          <ns3:TrackPointExtension>
            <ns3:atemp>21.0</ns3:atemp>
          </ns3:TrackPointExtension>
        </extensions>
      </trkpt>
      <trkpt lat="42.52167575061321258544921875" lon="19.7629252262413501739501953125">
        <ele>1874</ele>
        <time>2026-06-18T09:19:21.000Z</time>
        <extensions>
          <ns3:TrackPointExtension>
            <ns3:atemp>21.0</ns3:atemp>
          </ns3:TrackPointExtension>
        </extensions>
      </trkpt>
      <trkpt lat="42.52167575061321258544921875" lon="19.7629252262413501739501953125">
        <ele>1874</ele>
        <time>2026-06-18T09:19:22.000Z</time>
        <extensions>
          <ns3:TrackPointExtension>
            <ns3:atemp>21.0</ns3:atemp>
          </ns3:TrackPointExtension>
        </extensions>
      </trkpt>
      <trkpt lat="42.52167575061321258544921875" lon="19.7629252262413501739501953125">
        <ele>1874</ele>
        <time>2026-06-18T09:19:23.000Z</time>
        <extensions>
          <ns3:TrackPointExtension>
            <ns3:atemp>21.0</ns3:atemp>
          </ns3:TrackPointExtension>
        </extensions>
      </trkpt>
      <trkpt lat="42.52167575061321258544921875" lon="19.7629252262413501739501953125">
        <ele>1874</ele>
        <time>2026-06-18T09:19:24.000Z</time>
        <extensions>
          <ns3:TrackPointExtension>
            <ns3:atemp>21.0</ns3:atemp>
          </ns3:TrackPointExtension>
        </extensions>
      </trkpt>
      <trkpt lat="42.521674074232578277587890625" lon="19.76292480714619159698486328125">
        <ele>1874</ele>
        <time>2026-06-18T09:19:25.000Z</time>
        <extensions>
          <ns3:TrackPointExtension>
            <ns3:atemp>21.0</ns3:atemp>
          </ns3:TrackPointExtension>
        </extensions>
      </trkpt>
      <trkpt lat="42.52165337093174457550048828125" lon="19.7629349492490291595458984375">
        <ele>1871.800048828125</ele>
        <time>2026-06-18T09:19:26.000Z</time>
        <extensions>
          <ns3:TrackPointExtension>
            <ns3:atemp>21.0</ns3:atemp>
          </ns3:TrackPointExtension>
        </extensions>
      </trkpt>
      <trkpt lat="42.52163610421121120452880859375" lon="19.76295347325503826141357421875">
        <ele>1871.800048828125</ele>
        <time>2026-06-18T09:19:27.000Z</time>
        <extensions>
          <ns3:TrackPointExtension>
            <ns3:atemp>21.0</ns3:atemp>
          </ns3:TrackPointExtension>
        </extensions>
      </trkpt>
      <trkpt lat="42.52161649055778980255126953125" lon="19.7629652917385101318359375">
        <ele>1871.5999755859375</ele>
        <time>2026-06-18T09:19:28.000Z</time>
        <extensions>
          <ns3:TrackPointExtension>
            <ns3:atemp>21.0</ns3:atemp>
          </ns3:TrackPointExtension>
        </extensions>
      </trkpt>
      <trkpt lat="42.5215991400182247161865234375" lon="19.76296596229076385498046875">
        <ele>1871.199951171875</ele>
        <time>2026-06-18T09:19:29.000Z</time>
        <extensions>
          <ns3:TrackPointExtension>
            <ns3:atemp>21.0</ns3:atemp>
          </ns3:TrackPointExtension>
        </extensions>
      </trkpt>
      <trkpt lat="42.52158950082957744598388671875" lon="19.7629651241004467010498046875">
        <ele>1870.800048828125</ele>
        <time>2026-06-18T09:19:30.000Z</time>
        <extensions>
          <ns3:TrackPointExtension>
            <ns3:atemp>21.0</ns3:atemp>
          </ns3:TrackPointExtension>
        </extensions>
      </trkpt>
      <trkpt lat="42.52159000374376773834228515625" lon="19.76296235807240009307861328125">
        <ele>1870.5999755859375</ele>
        <time>2026-06-18T09:19:31.000Z</time>
        <extensions>
          <ns3:TrackPointExtension>
            <ns3:atemp>21.0</ns3:atemp>
          </ns3:TrackPointExtension>
        </extensions>
      </trkpt>
      <trkpt lat="42.52158966846764087677001953125" lon="19.76296571083366870880126953125">
        <ele>1870.4000244140625</ele>
        <time>2026-06-18T09:19:32.000Z</time>
        <extensions>
          <ns3:TrackPointExtension>
            <ns3:atemp>21.0</ns3:atemp>
          </ns3:TrackPointExtension>
        </extensions>
      </trkpt>
      <trkpt lat="42.521589584648609161376953125" lon="19.76296587847173213958740234375">
        <ele>1870.199951171875</ele>
        <time>2026-06-18T09:19:33.000Z</time>
        <extensions>
          <ns3:TrackPointExtension>
            <ns3:atemp>21.0</ns3:atemp>
          </ns3:TrackPointExtension>
        </extensions>
      </trkpt>
      <trkpt lat="42.52158950082957744598388671875" lon="19.76296604610979557037353515625">
        <ele>1870.199951171875</ele>
        <time>2026-06-18T09:19:34.000Z</time>
        <extensions>
          <ns3:TrackPointExtension>
            <ns3:atemp>21.0</ns3:atemp>
          </ns3:TrackPointExtension>
        </extensions>
      </trkpt>
      <trkpt lat="42.521582543849945068359375" lon="19.7629574127495288848876953125">
        <ele>1870</ele>
        <time>2026-06-18T09:19:35.000Z</time>
        <extensions>
          <ns3:TrackPointExtension>
            <ns3:atemp>21.0</ns3:atemp>
          </ns3:TrackPointExtension>
        </extensions>
      </trkpt>
      <trkpt lat="42.521589584648609161376953125" lon="19.76296587847173213958740234375">
        <ele>1870</ele>
        <time>2026-06-18T09:19:36.000Z</time>
        <extensions>
          <ns3:TrackPointExtension>
            <ns3:atemp>21.0</ns3:atemp>
          </ns3:TrackPointExtension>
        </extensions>
      </trkpt>
      <trkpt lat="42.521589584648609161376953125" lon="19.76296587847173213958740234375">
        <ele>1869.800048828125</ele>
        <time>2026-06-18T09:19:37.000Z</time>
        <extensions>
          <ns3:TrackPointExtension>
            <ns3:atemp>21.0</ns3:atemp>
          </ns3:TrackPointExtension>
        </extensions>
      </trkpt>
      <trkpt lat="42.521589584648609161376953125" lon="19.76296587847173213958740234375">
        <ele>1869.800048828125</ele>
        <time>2026-06-18T09:19:38.000Z</time>
        <extensions>
          <ns3:TrackPointExtension>
            <ns3:atemp>21.0</ns3:atemp>
          </ns3:TrackPointExtension>
        </extensions>
      </trkpt>
      <trkpt lat="42.521589584648609161376953125" lon="19.76296587847173213958740234375">
        <ele>1869.5999755859375</ele>
        <time>2026-06-18T09:19:39.000Z</time>
        <extensions>
          <ns3:TrackPointExtension>
            <ns3:atemp>21.0</ns3:atemp>
          </ns3:TrackPointExtension>
        </extensions>
      </trkpt>
      <trkpt lat="42.521589584648609161376953125" lon="19.76296587847173213958740234375">
        <ele>1869.5999755859375</ele>
        <time>2026-06-18T09:19:40.000Z</time>
        <extensions>
          <ns3:TrackPointExtension>
            <ns3:atemp>21.0</ns3:atemp>
          </ns3:TrackPointExtension>
        </extensions>
      </trkpt>
      <trkpt lat="42.521589584648609161376953125" lon="19.76296587847173213958740234375">
        <ele>1869.5999755859375</ele>
        <time>2026-06-18T09:19:41.000Z</time>
        <extensions>
          <ns3:TrackPointExtension>
            <ns3:atemp>21.0</ns3:atemp>
          </ns3:TrackPointExtension>
        </extensions>
      </trkpt>
      <trkpt lat="42.521589584648609161376953125" lon="19.76296587847173213958740234375">
        <ele>1869.5999755859375</ele>
        <time>2026-06-18T09:19:42.000Z</time>
        <extensions>
          <ns3:TrackPointExtension>
            <ns3:atemp>21.0</ns3:atemp>
          </ns3:TrackPointExtension>
        </extensions>
      </trkpt>
      <trkpt lat="42.521589584648609161376953125" lon="19.76296587847173213958740234375">
        <ele>1869.5999755859375</ele>
        <time>2026-06-18T09:19:43.000Z</time>
        <extensions>
          <ns3:TrackPointExtension>
            <ns3:atemp>21.0</ns3:atemp>
          </ns3:TrackPointExtension>
        </extensions>
      </trkpt>
      <trkpt lat="42.521589584648609161376953125" lon="19.76296587847173213958740234375">
        <ele>1869.5999755859375</ele>
        <time>2026-06-18T09:19:44.000Z</time>
        <extensions>
          <ns3:TrackPointExtension>
            <ns3:atemp>21.0</ns3:atemp>
          </ns3:TrackPointExtension>
        </extensions>
      </trkpt>
      <trkpt lat="42.521589584648609161376953125" lon="19.76296587847173213958740234375">
        <ele>1869.4000244140625</ele>
        <time>2026-06-18T09:19:45.000Z</time>
        <extensions>
          <ns3:TrackPointExtension>
            <ns3:atemp>21.0</ns3:atemp>
          </ns3:TrackPointExtension>
        </extensions>
      </trkpt>
      <trkpt lat="42.521589584648609161376953125" lon="19.76296587847173213958740234375">
        <ele>1869.4000244140625</ele>
        <time>2026-06-18T09:19:46.000Z</time>
        <extensions>
          <ns3:TrackPointExtension>
            <ns3:atemp>21.0</ns3:atemp>
          </ns3:TrackPointExtension>
        </extensions>
      </trkpt>
      <trkpt lat="42.521589584648609161376953125" lon="19.76296587847173213958740234375">
        <ele>1869.4000244140625</ele>
        <time>2026-06-18T09:19:47.000Z</time>
        <extensions>
          <ns3:TrackPointExtension>
            <ns3:atemp>21.0</ns3:atemp>
          </ns3:TrackPointExtension>
        </extensions>
      </trkpt>
      <trkpt lat="42.521589584648609161376953125" lon="19.76296587847173213958740234375">
        <ele>1869.4000244140625</ele>
        <time>2026-06-18T09:19:48.000Z</time>
        <extensions>
          <ns3:TrackPointExtension>
            <ns3:atemp>21.0</ns3:atemp>
          </ns3:TrackPointExtension>
        </extensions>
      </trkpt>
      <trkpt lat="42.521589584648609161376953125" lon="19.76296587847173213958740234375">
        <ele>1869.199951171875</ele>
        <time>2026-06-18T09:19:49.000Z</time>
        <extensions>
          <ns3:TrackPointExtension>
            <ns3:atemp>21.0</ns3:atemp>
          </ns3:TrackPointExtension>
        </extensions>
      </trkpt>
      <trkpt lat="42.521589584648609161376953125" lon="19.76296587847173213958740234375">
        <ele>1869.199951171875</ele>
        <time>2026-06-18T09:19:50.000Z</time>
        <extensions>
          <ns3:TrackPointExtension>
            <ns3:atemp>21.0</ns3:atemp>
          </ns3:TrackPointExtension>
        </extensions>
      </trkpt>
      <trkpt lat="42.521589584648609161376953125" lon="19.76296587847173213958740234375">
        <ele>1869.199951171875</ele>
        <time>2026-06-18T09:19:51.000Z</time>
        <extensions>
          <ns3:TrackPointExtension>
            <ns3:atemp>21.0</ns3:atemp>
          </ns3:TrackPointExtension>
        </extensions>
      </trkpt>
      <trkpt lat="42.521589584648609161376953125" lon="19.76296587847173213958740234375">
        <ele>1869.199951171875</ele>
        <time>2026-06-18T09:19:52.000Z</time>
        <extensions>
          <ns3:TrackPointExtension>
            <ns3:atemp>21.0</ns3:atemp>
          </ns3:TrackPointExtension>
        </extensions>
      </trkpt>
      <trkpt lat="42.5215793587267398834228515625" lon="19.76295531727373600006103515625">
        <ele>1869.199951171875</ele>
        <time>2026-06-18T09:19:53.000Z</time>
        <extensions>
          <ns3:TrackPointExtension>
            <ns3:atemp>21.0</ns3:atemp>
          </ns3:TrackPointExtension>
        </extensions>
      </trkpt>
      <trkpt lat="42.52156418748199939727783203125" lon="19.762954898178577423095703125">
        <ele>1869</ele>
        <time>2026-06-18T09:19:54.000Z</time>
        <extensions>
          <ns3:TrackPointExtension>
            <ns3:atemp>21.0</ns3:atemp>
          </ns3:TrackPointExtension>
        </extensions>
      </trkpt>
      <trkpt lat="42.5215511955320835113525390625" lon="19.76295263506472110748291015625">
        <ele>1869</ele>
        <time>2026-06-18T09:19:55.000Z</time>
        <extensions>
          <ns3:TrackPointExtension>
            <ns3:atemp>21.0</ns3:atemp>
          </ns3:TrackPointExtension>
        </extensions>
      </trkpt>
      <trkpt lat="42.52153635956346988677978515625" lon="19.76295121014118194580078125">
        <ele>1868.800048828125</ele>
        <time>2026-06-18T09:19:56.000Z</time>
        <extensions>
          <ns3:TrackPointExtension>
            <ns3:atemp>21.0</ns3:atemp>
          </ns3:TrackPointExtension>
        </extensions>
      </trkpt>
      <trkpt lat="42.52151213586330413818359375" lon="19.76294425316154956817626953125">
        <ele>1868.4000244140625</ele>
        <time>2026-06-18T09:19:57.000Z</time>
        <extensions>
          <ns3:TrackPointExtension>
            <ns3:atemp>21.0</ns3:atemp>
          </ns3:TrackPointExtension>
        </extensions>
      </trkpt>
      <trkpt lat="42.52148204483091831207275390625" lon="19.76293872110545635223388671875">
        <ele>1868</ele>
        <time>2026-06-18T09:19:58.000Z</time>
        <extensions>
          <ns3:TrackPointExtension>
            <ns3:atemp>21.0</ns3:atemp>
          </ns3:TrackPointExtension>
        </extensions>
      </trkpt>
      <trkpt lat="42.521453797817230224609375" lon="19.76293000392615795135498046875">
        <ele>1867.5999755859375</ele>
        <time>2026-06-18T09:19:59.000Z</time>
        <extensions>
          <ns3:TrackPointExtension>
            <ns3:atemp>21.0</ns3:atemp>
          </ns3:TrackPointExtension>
        </extensions>
      </trkpt>
      <trkpt lat="42.52142856828868389129638671875" lon="19.7629222087562084197998046875">
        <ele>1867.4000244140625</ele>
        <time>2026-06-18T09:20:00.000Z</time>
        <extensions>
          <ns3:TrackPointExtension>
            <ns3:atemp>21.0</ns3:atemp>
          </ns3:TrackPointExtension>
        </extensions>
      </trkpt>
      <trkpt lat="42.521395795047283172607421875" lon="19.76291072554886341094970703125">
        <ele>1867</ele>
        <time>2026-06-18T09:20:01.000Z</time>
        <extensions>
          <ns3:TrackPointExtension>
            <ns3:atemp>21.0</ns3:atemp>
          </ns3:TrackPointExtension>
        </extensions>
      </trkpt>
      <trkpt lat="42.5213654525578022003173828125" lon="19.76289479993283748626708984375">
        <ele>1866.4000244140625</ele>
        <time>2026-06-18T09:20:02.000Z</time>
        <extensions>
          <ns3:TrackPointExtension>
            <ns3:atemp>21.0</ns3:atemp>
          </ns3:TrackPointExtension>
        </extensions>
      </trkpt>
      <trkpt lat="42.5213403068482875823974609375" lon="19.76287334226071834564208984375">
        <ele>1865.800048828125</ele>
        <time>2026-06-18T09:20:03.000Z</time>
        <extensions>
          <ns3:TrackPointExtension>
            <ns3:atemp>21.0</ns3:atemp>
          </ns3:TrackPointExtension>
        </extensions>
      </trkpt>
      <trkpt lat="42.52131591551005840301513671875" lon="19.7628445923328399658203125">
        <ele>1865.4000244140625</ele>
        <time>2026-06-18T09:20:04.000Z</time>
        <extensions>
          <ns3:TrackPointExtension>
            <ns3:atemp>21.0</ns3:atemp>
          </ns3:TrackPointExtension>
        </extensions>
      </trkpt>
      <trkpt lat="42.521288506686687469482421875" lon="19.762818105518817901611328125">
        <ele>1865</ele>
        <time>2026-06-18T09:20:05.000Z</time>
        <extensions>
          <ns3:TrackPointExtension>
            <ns3:atemp>21.0</ns3:atemp>
          </ns3:TrackPointExtension>
        </extensions>
      </trkpt>
      <trkpt lat="42.5212615169584751129150390625" lon="19.762802012264728546142578125">
        <ele>1864.5999755859375</ele>
        <time>2026-06-18T09:20:06.000Z</time>
        <extensions>
          <ns3:TrackPointExtension>
            <ns3:atemp>21.0</ns3:atemp>
          </ns3:TrackPointExtension>
        </extensions>
      </trkpt>
      <trkpt lat="42.52123444341123104095458984375" lon="19.76278918795287609100341796875">
        <ele>1864.4000244140625</ele>
        <time>2026-06-18T09:20:07.000Z</time>
        <extensions>
          <ns3:TrackPointExtension>
            <ns3:atemp>21.0</ns3:atemp>
          </ns3:TrackPointExtension>
        </extensions>
      </trkpt>
      <trkpt lat="42.52120879478752613067626953125" lon="19.76278231479227542877197265625">
        <ele>1864.199951171875</ele>
        <time>2026-06-18T09:20:08.000Z</time>
        <extensions>
          <ns3:TrackPointExtension>
            <ns3:atemp>21.0</ns3:atemp>
          </ns3:TrackPointExtension>
        </extensions>
      </trkpt>
      <trkpt lat="42.521185912191867828369140625" lon="19.76277024485170841217041015625">
        <ele>1864</ele>
        <time>2026-06-18T09:20:09.000Z</time>
        <extensions>
          <ns3:TrackPointExtension>
            <ns3:atemp>21.0</ns3:atemp>
          </ns3:TrackPointExtension>
        </extensions>
      </trkpt>
      <trkpt lat="42.5211683101952075958251953125" lon="19.762756414711475372314453125">
        <ele>1863.800048828125</ele>
        <time>2026-06-18T09:20:10.000Z</time>
        <extensions>
          <ns3:TrackPointExtension>
            <ns3:atemp>21.0</ns3:atemp>
          </ns3:TrackPointExtension>
        </extensions>
      </trkpt>
      <trkpt lat="42.52115347422659397125244140625" lon="19.7627431713044643402099609375">
        <ele>1864</ele>
        <time>2026-06-18T09:20:11.000Z</time>
        <extensions>
          <ns3:TrackPointExtension>
            <ns3:atemp>21.0</ns3:atemp>
          </ns3:TrackPointExtension>
        </extensions>
      </trkpt>
      <trkpt lat="42.52113771624863147735595703125" lon="19.76273252628743648529052734375">
        <ele>1864</ele>
        <time>2026-06-18T09:20:12.000Z</time>
        <extensions>
          <ns3:TrackPointExtension>
            <ns3:atemp>21.0</ns3:atemp>
          </ns3:TrackPointExtension>
        </extensions>
      </trkpt>
      <trkpt lat="42.5211196951568126678466796875" lon="19.76272347383201122283935546875">
        <ele>1864</ele>
        <time>2026-06-18T09:20:13.000Z</time>
        <extensions>
          <ns3:TrackPointExtension>
            <ns3:atemp>21.0</ns3:atemp>
          </ns3:TrackPointExtension>
        </extensions>
      </trkpt>
      <trkpt lat="42.5211005844175815582275390625" lon="19.76271123625338077545166015625">
        <ele>1864</ele>
        <time>2026-06-18T09:20:14.000Z</time>
        <extensions>
          <ns3:TrackPointExtension>
            <ns3:atemp>21.0</ns3:atemp>
          </ns3:TrackPointExtension>
        </extensions>
      </trkpt>
      <trkpt lat="42.52107954584062099456787109375" lon="19.76269883103668689727783203125">
        <ele>1864</ele>
        <time>2026-06-18T09:20:15.000Z</time>
        <extensions>
          <ns3:TrackPointExtension>
            <ns3:atemp>21.0</ns3:atemp>
          </ns3:TrackPointExtension>
        </extensions>
      </trkpt>
      <trkpt lat="42.52105926163494586944580078125" lon="19.7626858390867710113525390625">
        <ele>1864</ele>
        <time>2026-06-18T09:20:16.000Z</time>
        <extensions>
          <ns3:TrackPointExtension>
            <ns3:atemp>21.0</ns3:atemp>
          </ns3:TrackPointExtension>
        </extensions>
      </trkpt>
      <trkpt lat="42.52103813923895359039306640625" lon="19.76267653517425060272216796875">
        <ele>1864</ele>
        <time>2026-06-18T09:20:17.000Z</time>
        <extensions>
          <ns3:TrackPointExtension>
            <ns3:atemp>21.0</ns3:atemp>
          </ns3:TrackPointExtension>
        </extensions>
      </trkpt>
      <trkpt lat="42.521024644374847412109375" lon="19.762674607336521148681640625">
        <ele>1864</ele>
        <time>2026-06-18T09:20:18.000Z</time>
        <extensions>
          <ns3:TrackPointExtension>
            <ns3:atemp>21.0</ns3:atemp>
          </ns3:TrackPointExtension>
        </extensions>
      </trkpt>
      <trkpt lat="42.5210184417665004730224609375" lon="19.7626730985939502716064453125">
        <ele>1864.199951171875</ele>
        <time>2026-06-18T09:20:19.000Z</time>
        <extensions>
          <ns3:TrackPointExtension>
            <ns3:atemp>21.0</ns3:atemp>
          </ns3:TrackPointExtension>
        </extensions>
      </trkpt>
      <trkpt lat="42.52101324498653411865234375" lon="19.76267033256590366363525390625">
        <ele>1864.199951171875</ele>
        <time>2026-06-18T09:20:20.000Z</time>
        <extensions>
          <ns3:TrackPointExtension>
            <ns3:atemp>21.0</ns3:atemp>
          </ns3:TrackPointExtension>
        </extensions>
      </trkpt>
      <trkpt lat="42.52101299352943897247314453125" lon="19.76266832090914249420166015625">
        <ele>1864.4000244140625</ele>
        <time>2026-06-18T09:20:21.000Z</time>
        <extensions>
          <ns3:TrackPointExtension>
            <ns3:atemp>21.0</ns3:atemp>
          </ns3:TrackPointExtension>
        </extensions>
      </trkpt>
      <trkpt lat="42.52101483754813671112060546875" lon="19.7626702487468719482421875">
        <ele>1864.800048828125</ele>
        <time>2026-06-18T09:20:22.000Z</time>
        <extensions>
          <ns3:TrackPointExtension>
            <ns3:atemp>21.0</ns3:atemp>
          </ns3:TrackPointExtension>
        </extensions>
      </trkpt>
      <trkpt lat="42.5210147537291049957275390625" lon="19.7626702487468719482421875">
        <ele>1865</ele>
        <time>2026-06-18T09:20:23.000Z</time>
        <extensions>
          <ns3:TrackPointExtension>
            <ns3:atemp>21.0</ns3:atemp>
          </ns3:TrackPointExtension>
        </extensions>
      </trkpt>
      <trkpt lat="42.5210147537291049957275390625" lon="19.7626702487468719482421875">
        <ele>1865.199951171875</ele>
        <time>2026-06-18T09:20:24.000Z</time>
        <extensions>
          <ns3:TrackPointExtension>
            <ns3:atemp>21.0</ns3:atemp>
          </ns3:TrackPointExtension>
        </extensions>
      </trkpt>
      <trkpt lat="42.52101450227200984954833984375" lon="19.7626700811088085174560546875">
        <ele>1865.4000244140625</ele>
        <time>2026-06-18T09:20:25.000Z</time>
        <extensions>
          <ns3:TrackPointExtension>
            <ns3:atemp>21.0</ns3:atemp>
          </ns3:TrackPointExtension>
        </extensions>
      </trkpt>
      <trkpt lat="42.52100997604429721832275390625" lon="19.76266429759562015533447265625">
        <ele>1865.5999755859375</ele>
        <time>2026-06-18T09:20:26.000Z</time>
        <extensions>
          <ns3:TrackPointExtension>
            <ns3:atemp>21.0</ns3:atemp>
          </ns3:TrackPointExtension>
        </extensions>
      </trkpt>
      <trkpt lat="42.521001510322093963623046875" lon="19.76266530342400074005126953125">
        <ele>1865.5999755859375</ele>
        <time>2026-06-18T09:20:27.000Z</time>
        <extensions>
          <ns3:TrackPointExtension>
            <ns3:atemp>21.0</ns3:atemp>
          </ns3:TrackPointExtension>
        </extensions>
      </trkpt>
      <trkpt lat="42.52099706791341304779052734375" lon="19.7626663930714130401611328125">
        <ele>1865.5999755859375</ele>
        <time>2026-06-18T09:20:28.000Z</time>
        <extensions>
          <ns3:TrackPointExtension>
            <ns3:atemp>21.0</ns3:atemp>
          </ns3:TrackPointExtension>
        </extensions>
      </trkpt>
      <trkpt lat="42.52099706791341304779052734375" lon="19.76266630925238132476806640625">
        <ele>1865.4000244140625</ele>
        <time>2026-06-18T09:20:29.000Z</time>
        <extensions>
          <ns3:TrackPointExtension>
            <ns3:atemp>21.0</ns3:atemp>
          </ns3:TrackPointExtension>
        </extensions>
      </trkpt>
      <trkpt lat="42.5209911167621612548828125" lon="19.76266597397625446319580078125">
        <ele>1865.199951171875</ele>
        <time>2026-06-18T09:20:30.000Z</time>
        <extensions>
          <ns3:TrackPointExtension>
            <ns3:atemp>21.0</ns3:atemp>
          </ns3:TrackPointExtension>
        </extensions>
      </trkpt>
      <trkpt lat="42.52097904682159423828125" lon="19.7626630403101444244384765625">
        <ele>1865.199951171875</ele>
        <time>2026-06-18T09:20:31.000Z</time>
        <extensions>
          <ns3:TrackPointExtension>
            <ns3:atemp>21.0</ns3:atemp>
          </ns3:TrackPointExtension>
        </extensions>
      </trkpt>
      <trkpt lat="42.5209684856235980987548828125" lon="19.76265809498727321624755859375">
        <ele>1865.199951171875</ele>
        <time>2026-06-18T09:20:32.000Z</time>
        <extensions>
          <ns3:TrackPointExtension>
            <ns3:atemp>21.0</ns3:atemp>
          </ns3:TrackPointExtension>
        </extensions>
      </trkpt>
      <trkpt lat="42.52095499075949192047119140625" lon="19.762658514082431793212890625">
        <ele>1865</ele>
        <time>2026-06-18T09:20:33.000Z</time>
        <extensions>
          <ns3:TrackPointExtension>
            <ns3:atemp>21.0</ns3:atemp>
          </ns3:TrackPointExtension>
        </extensions>
      </trkpt>
      <trkpt lat="42.52093772403895854949951171875" lon="19.7626509703695774078369140625">
        <ele>1865</ele>
        <time>2026-06-18T09:20:34.000Z</time>
        <extensions>
          <ns3:TrackPointExtension>
            <ns3:atemp>21.0</ns3:atemp>
          </ns3:TrackPointExtension>
        </extensions>
      </trkpt>
      <trkpt lat="42.52091777510941028594970703125" lon="19.76264216937124729156494140625">
        <ele>1864.800048828125</ele>
        <time>2026-06-18T09:20:35.000Z</time>
        <extensions>
          <ns3:TrackPointExtension>
            <ns3:atemp>21.0</ns3:atemp>
          </ns3:TrackPointExtension>
        </extensions>
      </trkpt>
      <trkpt lat="42.5208972394466400146484375" lon="19.7626342065632343292236328125">
        <ele>1864.5999755859375</ele>
        <time>2026-06-18T09:20:36.000Z</time>
        <extensions>
          <ns3:TrackPointExtension>
            <ns3:atemp>21.0</ns3:atemp>
          </ns3:TrackPointExtension>
        </extensions>
      </trkpt>
      <trkpt lat="42.52086346037685871124267578125" lon="19.76263898424804210662841796875">
        <ele>1864.5999755859375</ele>
        <time>2026-06-18T09:20:37.000Z</time>
        <extensions>
          <ns3:TrackPointExtension>
            <ns3:atemp>21.0</ns3:atemp>
          </ns3:TrackPointExtension>
        </extensions>
      </trkpt>
      <trkpt lat="42.52082440070807933807373046875" lon="19.7626596875488758087158203125">
        <ele>1864.199951171875</ele>
        <time>2026-06-18T09:20:38.000Z</time>
        <extensions>
          <ns3:TrackPointExtension>
            <ns3:atemp>21.0</ns3:atemp>
          </ns3:TrackPointExtension>
        </extensions>
      </trkpt>
      <trkpt lat="42.5207877717912197113037109375" lon="19.7626818157732486724853515625">
        <ele>1863.800048828125</ele>
        <time>2026-06-18T09:20:39.000Z</time>
        <extensions>
          <ns3:TrackPointExtension>
            <ns3:atemp>21.0</ns3:atemp>
          </ns3:TrackPointExtension>
        </extensions>
      </trkpt>
      <trkpt lat="42.520763464272022247314453125" lon="19.7626965679228305816650390625">
        <ele>1863.800048828125</ele>
        <time>2026-06-18T09:20:40.000Z</time>
        <extensions>
          <ns3:TrackPointExtension>
            <ns3:atemp>21.0</ns3:atemp>
          </ns3:TrackPointExtension>
        </extensions>
      </trkpt>
      <trkpt lat="42.52074879594147205352783203125" lon="19.762707464396953582763671875">
        <ele>1863.5999755859375</ele>
        <time>2026-06-18T09:20:41.000Z</time>
        <extensions>
          <ns3:TrackPointExtension>
            <ns3:atemp>21.0</ns3:atemp>
          </ns3:TrackPointExtension>
        </extensions>
      </trkpt>
      <trkpt lat="42.5207358039915561676025390625" lon="19.76271173916757106781005859375">
        <ele>1863.4000244140625</ele>
        <time>2026-06-18T09:20:42.000Z</time>
        <extensions>
          <ns3:TrackPointExtension>
            <ns3:atemp>21.0</ns3:atemp>
          </ns3:TrackPointExtension>
        </extensions>
      </trkpt>
      <trkpt lat="42.52072893083095550537109375" lon="19.76270520128309726715087890625">
        <ele>1863.4000244140625</ele>
        <time>2026-06-18T09:20:43.000Z</time>
        <extensions>
          <ns3:TrackPointExtension>
            <ns3:atemp>21.0</ns3:atemp>
          </ns3:TrackPointExtension>
        </extensions>
      </trkpt>
      <trkpt lat="42.52071409486234188079833984375" lon="19.762698747217655181884765625">
        <ele>1863.5999755859375</ele>
        <time>2026-06-18T09:20:44.000Z</time>
        <extensions>
          <ns3:TrackPointExtension>
            <ns3:atemp>21.0</ns3:atemp>
          </ns3:TrackPointExtension>
        </extensions>
      </trkpt>
      <trkpt lat="42.5206959061324596405029296875" lon="19.7626908682286739349365234375">
        <ele>1863.4000244140625</ele>
        <time>2026-06-18T09:20:45.000Z</time>
        <extensions>
          <ns3:TrackPointExtension>
            <ns3:atemp>21.0</ns3:atemp>
          </ns3:TrackPointExtension>
        </extensions>
      </trkpt>
      <trkpt lat="42.52067989669740200042724609375" lon="19.76268969476222991943359375">
        <ele>1863.199951171875</ele>
        <time>2026-06-18T09:20:46.000Z</time>
        <extensions>
          <ns3:TrackPointExtension>
            <ns3:atemp>21.0</ns3:atemp>
          </ns3:TrackPointExtension>
        </extensions>
      </trkpt>
      <trkpt lat="42.52066514454782009124755859375" lon="19.76269229315221309661865234375">
        <ele>1863</ele>
        <time>2026-06-18T09:20:47.000Z</time>
        <extensions>
          <ns3:TrackPointExtension>
            <ns3:atemp>21.0</ns3:atemp>
          </ns3:TrackPointExtension>
        </extensions>
      </trkpt>
      <trkpt lat="42.52065651118755340576171875" lon="19.76269346661865711212158203125">
        <ele>1862.800048828125</ele>
        <time>2026-06-18T09:20:48.000Z</time>
        <extensions>
          <ns3:TrackPointExtension>
            <ns3:atemp>21.0</ns3:atemp>
          </ns3:TrackPointExtension>
        </extensions>
      </trkpt>
      <trkpt lat="42.52065190114080905914306640625" lon="19.7626938857138156890869140625">
        <ele>1862.5999755859375</ele>
        <time>2026-06-18T09:20:49.000Z</time>
        <extensions>
          <ns3:TrackPointExtension>
            <ns3:atemp>21.0</ns3:atemp>
          </ns3:TrackPointExtension>
        </extensions>
      </trkpt>
      <trkpt lat="42.52064645290374755859375" lon="19.7626908682286739349365234375">
        <ele>1862.4000244140625</ele>
        <time>2026-06-18T09:20:50.000Z</time>
        <extensions>
          <ns3:TrackPointExtension>
            <ns3:atemp>21.0</ns3:atemp>
          </ns3:TrackPointExtension>
        </extensions>
      </trkpt>
      <trkpt lat="42.520638741552829742431640625" lon="19.76268843747675418853759765625">
        <ele>1862.4000244140625</ele>
        <time>2026-06-18T09:20:51.000Z</time>
        <extensions>
          <ns3:TrackPointExtension>
            <ns3:atemp>21.0</ns3:atemp>
          </ns3:TrackPointExtension>
        </extensions>
      </trkpt>
      <trkpt lat="42.52063128165900707244873046875" lon="19.76269111968576908111572265625">
        <ele>1862.4000244140625</ele>
        <time>2026-06-18T09:20:52.000Z</time>
        <extensions>
          <ns3:TrackPointExtension>
            <ns3:atemp>21.0</ns3:atemp>
          </ns3:TrackPointExtension>
        </extensions>
      </trkpt>
      <trkpt lat="42.52062591724097728729248046875" lon="19.76269581355154514312744140625">
        <ele>1862.5999755859375</ele>
        <time>2026-06-18T09:20:53.000Z</time>
        <extensions>
          <ns3:TrackPointExtension>
            <ns3:atemp>21.0</ns3:atemp>
          </ns3:TrackPointExtension>
        </extensions>
      </trkpt>
      <trkpt lat="42.520611919462680816650390625" lon="19.76269430480897426605224609375">
        <ele>1862.5999755859375</ele>
        <time>2026-06-18T09:20:54.000Z</time>
        <extensions>
          <ns3:TrackPointExtension>
            <ns3:atemp>21.0</ns3:atemp>
          </ns3:TrackPointExtension>
        </extensions>
      </trkpt>
      <trkpt lat="42.5205949880182743072509765625" lon="19.7626979090273380279541015625">
        <ele>1862.5999755859375</ele>
        <time>2026-06-18T09:20:55.000Z</time>
        <extensions>
          <ns3:TrackPointExtension>
            <ns3:atemp>21.0</ns3:atemp>
          </ns3:TrackPointExtension>
        </extensions>
      </trkpt>
      <trkpt lat="42.520577721297740936279296875" lon="19.76269866339862346649169921875">
        <ele>1862.4000244140625</ele>
        <time>2026-06-18T09:20:56.000Z</time>
        <extensions>
          <ns3:TrackPointExtension>
            <ns3:atemp>21.0</ns3:atemp>
          </ns3:TrackPointExtension>
        </extensions>
      </trkpt>
      <trkpt lat="42.52055802382528781890869140625" lon="19.76269547827541828155517578125">
        <ele>1862.4000244140625</ele>
        <time>2026-06-18T09:20:57.000Z</time>
        <extensions>
          <ns3:TrackPointExtension>
            <ns3:atemp>21.0</ns3:atemp>
          </ns3:TrackPointExtension>
        </extensions>
      </trkpt>
      <trkpt lat="42.5205322913825511932373046875" lon="19.76268910802900791168212890625">
        <ele>1862.199951171875</ele>
        <time>2026-06-18T09:20:58.000Z</time>
        <extensions>
          <ns3:TrackPointExtension>
            <ns3:atemp>21.0</ns3:atemp>
          </ns3:TrackPointExtension>
        </extensions>
      </trkpt>
      <trkpt lat="42.5205071456730365753173828125" lon="19.76268407888710498809814453125">
        <ele>1862.199951171875</ele>
        <time>2026-06-18T09:20:59.000Z</time>
        <extensions>
          <ns3:TrackPointExtension>
            <ns3:atemp>21.0</ns3:atemp>
          </ns3:TrackPointExtension>
        </extensions>
      </trkpt>
      <trkpt lat="42.52048459835350513458251953125" lon="19.76267938502132892608642578125">
        <ele>1862.199951171875</ele>
        <time>2026-06-18T09:21:00.000Z</time>
        <extensions>
          <ns3:TrackPointExtension>
            <ns3:atemp>21.0</ns3:atemp>
          </ns3:TrackPointExtension>
        </extensions>
      </trkpt>
      <trkpt lat="42.5204649008810520172119140625" lon="19.76267234422266483306884765625">
        <ele>1862.199951171875</ele>
        <time>2026-06-18T09:21:01.000Z</time>
        <extensions>
          <ns3:TrackPointExtension>
            <ns3:atemp>21.0</ns3:atemp>
          </ns3:TrackPointExtension>
        </extensions>
      </trkpt>
      <trkpt lat="42.520444281399250030517578125" lon="19.76267167367041110992431640625">
        <ele>1862.4000244140625</ele>
        <time>2026-06-18T09:21:02.000Z</time>
        <extensions>
          <ns3:TrackPointExtension>
            <ns3:atemp>21.0</ns3:atemp>
          </ns3:TrackPointExtension>
        </extensions>
      </trkpt>
      <trkpt lat="42.520425505936145782470703125" lon="19.76267586462199687957763671875">
        <ele>1862.4000244140625</ele>
        <time>2026-06-18T09:21:03.000Z</time>
        <extensions>
          <ns3:TrackPointExtension>
            <ns3:atemp>21.0</ns3:atemp>
          </ns3:TrackPointExtension>
        </extensions>
      </trkpt>
      <trkpt lat="42.520400695502758026123046875" lon="19.762678630650043487548828125">
        <ele>1862.5999755859375</ele>
        <time>2026-06-18T09:21:04.000Z</time>
        <extensions>
          <ns3:TrackPointExtension>
            <ns3:atemp>21.0</ns3:atemp>
          </ns3:TrackPointExtension>
        </extensions>
      </trkpt>
      <trkpt lat="42.5203715264797210693359375" lon="19.76267418824136257171630859375">
        <ele>1862.5999755859375</ele>
        <time>2026-06-18T09:21:05.000Z</time>
        <extensions>
          <ns3:TrackPointExtension>
            <ns3:atemp>21.0</ns3:atemp>
          </ns3:TrackPointExtension>
        </extensions>
      </trkpt>
      <trkpt lat="42.5203368254005908966064453125" lon="19.76266781799495220184326171875">
        <ele>1862.5999755859375</ele>
        <time>2026-06-18T09:21:06.000Z</time>
        <extensions>
          <ns3:TrackPointExtension>
            <ns3:atemp>21.0</ns3:atemp>
          </ns3:TrackPointExtension>
        </extensions>
      </trkpt>
      <trkpt lat="42.520302794873714447021484375" lon="19.7626704163849353790283203125">
        <ele>1862.4000244140625</ele>
        <time>2026-06-18T09:21:07.000Z</time>
        <extensions>
          <ns3:TrackPointExtension>
            <ns3:atemp>20.0</ns3:atemp>
          </ns3:TrackPointExtension>
        </extensions>
      </trkpt>
      <trkpt lat="42.52026893198490142822265625" lon="19.76267016492784023284912109375">
        <ele>1862.4000244140625</ele>
        <time>2026-06-18T09:21:08.000Z</time>
        <extensions>
          <ns3:TrackPointExtension>
            <ns3:atemp>20.0</ns3:atemp>
          </ns3:TrackPointExtension>
        </extensions>
      </trkpt>
      <trkpt lat="42.520239762961864471435546875" lon="19.76267200894653797149658203125">
        <ele>1862.199951171875</ele>
        <time>2026-06-18T09:21:09.000Z</time>
        <extensions>
          <ns3:TrackPointExtension>
            <ns3:atemp>20.0</ns3:atemp>
          </ns3:TrackPointExtension>
        </extensions>
      </trkpt>
      <trkpt lat="42.52021369524300098419189453125" lon="19.76267351768910884857177734375">
        <ele>1862</ele>
        <time>2026-06-18T09:21:10.000Z</time>
        <extensions>
          <ns3:TrackPointExtension>
            <ns3:atemp>21.0</ns3:atemp>
          </ns3:TrackPointExtension>
        </extensions>
      </trkpt>
      <trkpt lat="42.52019290812313556671142578125" lon="19.76266915909945964813232421875">
        <ele>1862</ele>
        <time>2026-06-18T09:21:11.000Z</time>
        <extensions>
          <ns3:TrackPointExtension>
            <ns3:atemp>20.0</ns3:atemp>
          </ns3:TrackPointExtension>
        </extensions>
      </trkpt>
      <trkpt lat="42.520178072154521942138671875" lon="19.7626633755862712860107421875">
        <ele>1862</ele>
        <time>2026-06-18T09:21:12.000Z</time>
        <extensions>
          <ns3:TrackPointExtension>
            <ns3:atemp>20.0</ns3:atemp>
          </ns3:TrackPointExtension>
        </extensions>
      </trkpt>
      <trkpt lat="42.52016558311879634857177734375" lon="19.762659184634685516357421875">
        <ele>1862.199951171875</ele>
        <time>2026-06-18T09:21:13.000Z</time>
        <extensions>
          <ns3:TrackPointExtension>
            <ns3:atemp>20.0</ns3:atemp>
          </ns3:TrackPointExtension>
        </extensions>
      </trkpt>
      <trkpt lat="42.52015166915953159332275390625" lon="19.76265943609178066253662109375">
        <ele>1862.4000244140625</ele>
        <time>2026-06-18T09:21:14.000Z</time>
        <extensions>
          <ns3:TrackPointExtension>
            <ns3:atemp>20.0</ns3:atemp>
          </ns3:TrackPointExtension>
        </extensions>
      </trkpt>
      <trkpt lat="42.52014077268540859222412109375" lon="19.76265574805438518524169921875">
        <ele>1862.5999755859375</ele>
        <time>2026-06-18T09:21:15.000Z</time>
        <extensions>
          <ns3:TrackPointExtension>
            <ns3:atemp>20.0</ns3:atemp>
          </ns3:TrackPointExtension>
        </extensions>
      </trkpt>
      <trkpt lat="42.52013792283833026885986328125" lon="19.7626543231308460235595703125">
        <ele>1862.800048828125</ele>
        <time>2026-06-18T09:21:16.000Z</time>
        <extensions>
          <ns3:TrackPointExtension>
            <ns3:atemp>20.0</ns3:atemp>
          </ns3:TrackPointExtension>
        </extensions>
      </trkpt>
      <trkpt lat="42.52013750374317169189453125" lon="19.76265423931181430816650390625">
        <ele>1862.800048828125</ele>
        <time>2026-06-18T09:21:17.000Z</time>
        <extensions>
          <ns3:TrackPointExtension>
            <ns3:atemp>20.0</ns3:atemp>
          </ns3:TrackPointExtension>
        </extensions>
      </trkpt>
      <trkpt lat="42.52013750374317169189453125" lon="19.76265423931181430816650390625">
        <ele>1863</ele>
        <time>2026-06-18T09:21:18.000Z</time>
        <extensions>
          <ns3:TrackPointExtension>
            <ns3:atemp>20.0</ns3:atemp>
          </ns3:TrackPointExtension>
        </extensions>
      </trkpt>
      <trkpt lat="42.52013750374317169189453125" lon="19.76265423931181430816650390625">
        <ele>1863</ele>
        <time>2026-06-18T09:21:19.000Z</time>
        <extensions>
          <ns3:TrackPointExtension>
            <ns3:atemp>20.0</ns3:atemp>
          </ns3:TrackPointExtension>
        </extensions>
      </trkpt>
      <trkpt lat="42.52013750374317169189453125" lon="19.76265423931181430816650390625">
        <ele>1863</ele>
        <time>2026-06-18T09:21:20.000Z</time>
        <extensions>
          <ns3:TrackPointExtension>
            <ns3:atemp>20.0</ns3:atemp>
          </ns3:TrackPointExtension>
        </extensions>
      </trkpt>
      <trkpt lat="42.52013750374317169189453125" lon="19.76265423931181430816650390625">
        <ele>1863</ele>
        <time>2026-06-18T09:21:21.000Z</time>
        <extensions>
          <ns3:TrackPointExtension>
            <ns3:atemp>20.0</ns3:atemp>
          </ns3:TrackPointExtension>
        </extensions>
      </trkpt>
      <trkpt lat="42.52013750374317169189453125" lon="19.76265423931181430816650390625">
        <ele>1863</ele>
        <time>2026-06-18T09:21:22.000Z</time>
        <extensions>
          <ns3:TrackPointExtension>
            <ns3:atemp>20.0</ns3:atemp>
          </ns3:TrackPointExtension>
        </extensions>
      </trkpt>
      <trkpt lat="42.52013624645769596099853515625" lon="19.76265407167375087738037109375">
        <ele>1863.199951171875</ele>
        <time>2026-06-18T09:21:23.000Z</time>
        <extensions>
          <ns3:TrackPointExtension>
            <ns3:atemp>20.0</ns3:atemp>
          </ns3:TrackPointExtension>
        </extensions>
      </trkpt>
      <trkpt lat="42.52011872828006744384765625" lon="19.76265189237892627716064453125">
        <ele>1863.199951171875</ele>
        <time>2026-06-18T09:21:24.000Z</time>
        <extensions>
          <ns3:TrackPointExtension>
            <ns3:atemp>20.0</ns3:atemp>
          </ns3:TrackPointExtension>
        </extensions>
      </trkpt>
      <trkpt lat="42.52011529169976711273193359375" lon="19.762646444141864776611328125">
        <ele>1863.199951171875</ele>
        <time>2026-06-18T09:21:25.000Z</time>
        <extensions>
          <ns3:TrackPointExtension>
            <ns3:atemp>20.0</ns3:atemp>
          </ns3:TrackPointExtension>
        </extensions>
      </trkpt>
      <trkpt lat="42.52011604607105255126953125" lon="19.76264535449445247650146484375">
        <ele>1863.199951171875</ele>
        <time>2026-06-18T09:21:26.000Z</time>
        <extensions>
          <ns3:TrackPointExtension>
            <ns3:atemp>20.0</ns3:atemp>
          </ns3:TrackPointExtension>
        </extensions>
      </trkpt>
      <trkpt lat="42.52011596225202083587646484375" lon="19.7626452706754207611083984375">
        <ele>1863.199951171875</ele>
        <time>2026-06-18T09:21:27.000Z</time>
        <extensions>
          <ns3:TrackPointExtension>
            <ns3:atemp>20.0</ns3:atemp>
          </ns3:TrackPointExtension>
        </extensions>
      </trkpt>
      <trkpt lat="42.52011579461395740509033203125" lon="19.76264518685638904571533203125">
        <ele>1863.4000244140625</ele>
        <time>2026-06-18T09:21:28.000Z</time>
        <extensions>
          <ns3:TrackPointExtension>
            <ns3:atemp>20.0</ns3:atemp>
          </ns3:TrackPointExtension>
        </extensions>
      </trkpt>
      <trkpt lat="42.52010129392147064208984375" lon="19.76263663731515407562255859375">
        <ele>1863.5999755859375</ele>
        <time>2026-06-18T09:21:29.000Z</time>
        <extensions>
          <ns3:TrackPointExtension>
            <ns3:atemp>20.0</ns3:atemp>
          </ns3:TrackPointExtension>
        </extensions>
      </trkpt>
      <trkpt lat="42.52009081654250621795654296875" lon="19.7626264952123165130615234375">
        <ele>1863.800048828125</ele>
        <time>2026-06-18T09:21:30.000Z</time>
        <extensions>
          <ns3:TrackPointExtension>
            <ns3:atemp>20.0</ns3:atemp>
          </ns3:TrackPointExtension>
        </extensions>
      </trkpt>
      <trkpt lat="42.52008159644901752471923828125" lon="19.76262356154620647430419921875">
        <ele>1864</ele>
        <time>2026-06-18T09:21:31.000Z</time>
        <extensions>
          <ns3:TrackPointExtension>
            <ns3:atemp>20.0</ns3:atemp>
          </ns3:TrackPointExtension>
        </extensions>
      </trkpt>
      <trkpt lat="42.52007002942264080047607421875" lon="19.76261995732784271240234375">
        <ele>1864.199951171875</ele>
        <time>2026-06-18T09:21:32.000Z</time>
        <extensions>
          <ns3:TrackPointExtension>
            <ns3:atemp>20.0</ns3:atemp>
          </ns3:TrackPointExtension>
        </extensions>
      </trkpt>
      <trkpt lat="42.52005075104534626007080078125" lon="19.7626134194433689117431640625">
        <ele>1864.4000244140625</ele>
        <time>2026-06-18T09:21:33.000Z</time>
        <extensions>
          <ns3:TrackPointExtension>
            <ns3:atemp>20.0</ns3:atemp>
          </ns3:TrackPointExtension>
        </extensions>
      </trkpt>
      <trkpt lat="42.5200354121625423431396484375" lon="19.76261191070079803466796875">
        <ele>1864.4000244140625</ele>
        <time>2026-06-18T09:21:34.000Z</time>
        <extensions>
          <ns3:TrackPointExtension>
            <ns3:atemp>20.0</ns3:atemp>
          </ns3:TrackPointExtension>
        </extensions>
      </trkpt>
      <trkpt lat="42.5200203247368335723876953125" lon="19.76260788738727569580078125">
        <ele>1864.5999755859375</ele>
        <time>2026-06-18T09:21:35.000Z</time>
        <extensions>
          <ns3:TrackPointExtension>
            <ns3:atemp>20.0</ns3:atemp>
          </ns3:TrackPointExtension>
        </extensions>
      </trkpt>
      <trkpt lat="42.5200129486620426177978515625" lon="19.76260797120630741119384765625">
        <ele>1864.5999755859375</ele>
        <time>2026-06-18T09:21:36.000Z</time>
        <extensions>
          <ns3:TrackPointExtension>
            <ns3:atemp>20.0</ns3:atemp>
          </ns3:TrackPointExtension>
        </extensions>
      </trkpt>
      <trkpt lat="42.52000817097723484039306640625" lon="19.76260947994887828826904296875">
        <ele>1864.800048828125</ele>
        <time>2026-06-18T09:21:37.000Z</time>
        <extensions>
          <ns3:TrackPointExtension>
            <ns3:atemp>20.0</ns3:atemp>
          </ns3:TrackPointExtension>
        </extensions>
      </trkpt>
      <trkpt lat="42.5200018845498561859130859375" lon="19.762613587081432342529296875">
        <ele>1865</ele>
        <time>2026-06-18T09:21:38.000Z</time>
        <extensions>
          <ns3:TrackPointExtension>
            <ns3:atemp>20.0</ns3:atemp>
          </ns3:TrackPointExtension>
        </extensions>
      </trkpt>
      <trkpt lat="42.51999199390411376953125" lon="19.76262741722166538238525390625">
        <ele>1865</ele>
        <time>2026-06-18T09:21:39.000Z</time>
        <extensions>
          <ns3:TrackPointExtension>
            <ns3:atemp>20.0</ns3:atemp>
          </ns3:TrackPointExtension>
        </extensions>
      </trkpt>
      <trkpt lat="42.51997346989810466766357421875" lon="19.76264133118093013763427734375">
        <ele>1865</ele>
        <time>2026-06-18T09:21:40.000Z</time>
        <extensions>
          <ns3:TrackPointExtension>
            <ns3:atemp>20.0</ns3:atemp>
          </ns3:TrackPointExtension>
        </extensions>
      </trkpt>
      <trkpt lat="42.51995318569242954254150390625" lon="19.76265071891248226165771484375">
        <ele>1864.800048828125</ele>
        <time>2026-06-18T09:21:41.000Z</time>
        <extensions>
          <ns3:TrackPointExtension>
            <ns3:atemp>20.0</ns3:atemp>
          </ns3:TrackPointExtension>
        </extensions>
      </trkpt>
      <trkpt lat="42.51993340440094470977783203125" lon="19.762655161321163177490234375">
        <ele>1864.800048828125</ele>
        <time>2026-06-18T09:21:42.000Z</time>
        <extensions>
          <ns3:TrackPointExtension>
            <ns3:atemp>20.0</ns3:atemp>
          </ns3:TrackPointExtension>
        </extensions>
      </trkpt>
      <trkpt lat="42.5199110247194766998291015625" lon="19.76265926845371723175048828125">
        <ele>1864.5999755859375</ele>
        <time>2026-06-18T09:21:43.000Z</time>
        <extensions>
          <ns3:TrackPointExtension>
            <ns3:atemp>20.0</ns3:atemp>
          </ns3:TrackPointExtension>
        </extensions>
      </trkpt>
      <trkpt lat="42.51988680101931095123291015625" lon="19.7626541554927825927734375">
        <ele>1864.5999755859375</ele>
        <time>2026-06-18T09:21:44.000Z</time>
        <extensions>
          <ns3:TrackPointExtension>
            <ns3:atemp>20.0</ns3:atemp>
          </ns3:TrackPointExtension>
        </extensions>
      </trkpt>
      <trkpt lat="42.519863583147525787353515625" lon="19.76265541277825832366943359375">
        <ele>1864.5999755859375</ele>
        <time>2026-06-18T09:21:45.000Z</time>
        <extensions>
          <ns3:TrackPointExtension>
            <ns3:atemp>20.0</ns3:atemp>
          </ns3:TrackPointExtension>
        </extensions>
      </trkpt>
      <trkpt lat="42.51984111964702606201171875" lon="19.762653149664402008056640625">
        <ele>1864.5999755859375</ele>
        <time>2026-06-18T09:21:46.000Z</time>
        <extensions>
          <ns3:TrackPointExtension>
            <ns3:atemp>20.0</ns3:atemp>
          </ns3:TrackPointExtension>
        </extensions>
      </trkpt>
      <trkpt lat="42.519818656146526336669921875" lon="19.762651138007640838623046875">
        <ele>1864.4000244140625</ele>
        <time>2026-06-18T09:21:47.000Z</time>
        <extensions>
          <ns3:TrackPointExtension>
            <ns3:atemp>20.0</ns3:atemp>
          </ns3:TrackPointExtension>
        </extensions>
      </trkpt>
      <trkpt lat="42.51979594118893146514892578125" lon="19.7626462765038013458251953125">
        <ele>1864.199951171875</ele>
        <time>2026-06-18T09:21:48.000Z</time>
        <extensions>
          <ns3:TrackPointExtension>
            <ns3:atemp>20.0</ns3:atemp>
          </ns3:TrackPointExtension>
        </extensions>
      </trkpt>
      <trkpt lat="42.51977582462131977081298828125" lon="19.762645773589611053466796875">
        <ele>1864.199951171875</ele>
        <time>2026-06-18T09:21:49.000Z</time>
        <extensions>
          <ns3:TrackPointExtension>
            <ns3:atemp>20.0</ns3:atemp>
          </ns3:TrackPointExtension>
        </extensions>
      </trkpt>
      <trkpt lat="42.5197594799101352691650390625" lon="19.76264317519962787628173828125">
        <ele>1864.199951171875</ele>
        <time>2026-06-18T09:21:50.000Z</time>
        <extensions>
          <ns3:TrackPointExtension>
            <ns3:atemp>20.0</ns3:atemp>
          </ns3:TrackPointExtension>
        </extensions>
      </trkpt>
      <trkpt lat="42.51974279992282390594482421875" lon="19.76263747550547122955322265625">
        <ele>1864.199951171875</ele>
        <time>2026-06-18T09:21:51.000Z</time>
        <extensions>
          <ns3:TrackPointExtension>
            <ns3:atemp>20.0</ns3:atemp>
          </ns3:TrackPointExtension>
        </extensions>
      </trkpt>
      <trkpt lat="42.51972620375454425811767578125" lon="19.76262808777391910552978515625">
        <ele>1864.199951171875</ele>
        <time>2026-06-18T09:21:52.000Z</time>
        <extensions>
          <ns3:TrackPointExtension>
            <ns3:atemp>20.0</ns3:atemp>
          </ns3:TrackPointExtension>
        </extensions>
      </trkpt>
      <trkpt lat="42.5197091884911060333251953125" lon="19.7626219689846038818359375">
        <ele>1864.4000244140625</ele>
        <time>2026-06-18T09:21:53.000Z</time>
        <extensions>
          <ns3:TrackPointExtension>
            <ns3:atemp>20.0</ns3:atemp>
          </ns3:TrackPointExtension>
        </extensions>
      </trkpt>
      <trkpt lat="42.5196927599608898162841796875" lon="19.76261719129979610443115234375">
        <ele>1864.5999755859375</ele>
        <time>2026-06-18T09:21:54.000Z</time>
        <extensions>
          <ns3:TrackPointExtension>
            <ns3:atemp>20.0</ns3:atemp>
          </ns3:TrackPointExtension>
        </extensions>
      </trkpt>
      <trkpt lat="42.51967859454452991485595703125" lon="19.7626154311001300811767578125">
        <ele>1864.800048828125</ele>
        <time>2026-06-18T09:21:55.000Z</time>
        <extensions>
          <ns3:TrackPointExtension>
            <ns3:atemp>20.0</ns3:atemp>
          </ns3:TrackPointExtension>
        </extensions>
      </trkpt>
      <trkpt lat="42.519662417471408843994140625" lon="19.762608893215656280517578125">
        <ele>1865</ele>
        <time>2026-06-18T09:21:56.000Z</time>
        <extensions>
          <ns3:TrackPointExtension>
            <ns3:atemp>20.0</ns3:atemp>
          </ns3:TrackPointExtension>
        </extensions>
      </trkpt>
      <trkpt lat="42.519651353359222412109375" lon="19.76260260678827762603759765625">
        <ele>1865.199951171875</ele>
        <time>2026-06-18T09:21:57.000Z</time>
        <extensions>
          <ns3:TrackPointExtension>
            <ns3:atemp>20.0</ns3:atemp>
          </ns3:TrackPointExtension>
        </extensions>
      </trkpt>
      <trkpt lat="42.5196325778961181640625" lon="19.76259657181799411773681640625">
        <ele>1865.4000244140625</ele>
        <time>2026-06-18T09:21:58.000Z</time>
        <extensions>
          <ns3:TrackPointExtension>
            <ns3:atemp>20.0</ns3:atemp>
          </ns3:TrackPointExtension>
        </extensions>
      </trkpt>
      <trkpt lat="42.519613802433013916015625" lon="19.76259942166507244110107421875">
        <ele>1865.5999755859375</ele>
        <time>2026-06-18T09:21:59.000Z</time>
        <extensions>
          <ns3:TrackPointExtension>
            <ns3:atemp>20.0</ns3:atemp>
          </ns3:TrackPointExtension>
        </extensions>
      </trkpt>
      <trkpt lat="42.51959796063601970672607421875" lon="19.76259757764637470245361328125">
        <ele>1865.800048828125</ele>
        <time>2026-06-18T09:22:00.000Z</time>
        <extensions>
          <ns3:TrackPointExtension>
            <ns3:atemp>20.0</ns3:atemp>
          </ns3:TrackPointExtension>
        </extensions>
      </trkpt>
      <trkpt lat="42.51958522014319896697998046875" lon="19.762601517140865325927734375">
        <ele>1865.800048828125</ele>
        <time>2026-06-18T09:22:01.000Z</time>
        <extensions>
          <ns3:TrackPointExtension>
            <ns3:atemp>20.0</ns3:atemp>
          </ns3:TrackPointExtension>
        </extensions>
      </trkpt>
      <trkpt lat="42.51957415603101253509521484375" lon="19.7626013495028018951416015625">
        <ele>1866</ele>
        <time>2026-06-18T09:22:02.000Z</time>
        <extensions>
          <ns3:TrackPointExtension>
            <ns3:atemp>20.0</ns3:atemp>
          </ns3:TrackPointExtension>
        </extensions>
      </trkpt>
      <trkpt lat="42.51956124790012836456298828125" lon="19.76260260678827762603759765625">
        <ele>1866</ele>
        <time>2026-06-18T09:22:03.000Z</time>
        <extensions>
          <ns3:TrackPointExtension>
            <ns3:atemp>20.0</ns3:atemp>
          </ns3:TrackPointExtension>
        </extensions>
      </trkpt>
      <trkpt lat="42.51954649575054645538330078125" lon="19.762605540454387664794921875">
        <ele>1866.199951171875</ele>
        <time>2026-06-18T09:22:04.000Z</time>
        <extensions>
          <ns3:TrackPointExtension>
            <ns3:atemp>20.0</ns3:atemp>
          </ns3:TrackPointExtension>
        </extensions>
      </trkpt>
      <trkpt lat="42.51953392289578914642333984375" lon="19.76261249743402004241943359375">
        <ele>1866.199951171875</ele>
        <time>2026-06-18T09:22:05.000Z</time>
        <extensions>
          <ns3:TrackPointExtension>
            <ns3:atemp>20.0</ns3:atemp>
          </ns3:TrackPointExtension>
        </extensions>
      </trkpt>
      <trkpt lat="42.51952252350747585296630859375" lon="19.7626161016523838043212890625">
        <ele>1866.4000244140625</ele>
        <time>2026-06-18T09:22:06.000Z</time>
        <extensions>
          <ns3:TrackPointExtension>
            <ns3:atemp>20.0</ns3:atemp>
          </ns3:TrackPointExtension>
        </extensions>
      </trkpt>
      <trkpt lat="42.51951062120497226715087890625" lon="19.76261870004236698150634765625">
        <ele>1866.4000244140625</ele>
        <time>2026-06-18T09:22:07.000Z</time>
        <extensions>
          <ns3:TrackPointExtension>
            <ns3:atemp>20.0</ns3:atemp>
          </ns3:TrackPointExtension>
        </extensions>
      </trkpt>
      <trkpt lat="42.5194966234266757965087890625" lon="19.7626207955181598663330078125">
        <ele>1866.5999755859375</ele>
        <time>2026-06-18T09:22:08.000Z</time>
        <extensions>
          <ns3:TrackPointExtension>
            <ns3:atemp>20.0</ns3:atemp>
          </ns3:TrackPointExtension>
        </extensions>
      </trkpt>
      <trkpt lat="42.5194939412176609039306640625" lon="19.76261886768043041229248046875">
        <ele>1866.5999755859375</ele>
        <time>2026-06-18T09:22:09.000Z</time>
        <extensions>
          <ns3:TrackPointExtension>
            <ns3:atemp>20.0</ns3:atemp>
          </ns3:TrackPointExtension>
        </extensions>
      </trkpt>
      <trkpt lat="42.51949553377926349639892578125" lon="19.762616939842700958251953125">
        <ele>1866.5999755859375</ele>
        <time>2026-06-18T09:22:10.000Z</time>
        <extensions>
          <ns3:TrackPointExtension>
            <ns3:atemp>20.0</ns3:atemp>
          </ns3:TrackPointExtension>
        </extensions>
      </trkpt>
      <trkpt lat="42.51949553377926349639892578125" lon="19.762616939842700958251953125">
        <ele>1866.800048828125</ele>
        <time>2026-06-18T09:22:11.000Z</time>
        <extensions>
          <ns3:TrackPointExtension>
            <ns3:atemp>20.0</ns3:atemp>
          </ns3:TrackPointExtension>
        </extensions>
      </trkpt>
      <trkpt lat="42.51949553377926349639892578125" lon="19.762616939842700958251953125">
        <ele>1866.800048828125</ele>
        <time>2026-06-18T09:22:12.000Z</time>
        <extensions>
          <ns3:TrackPointExtension>
            <ns3:atemp>20.0</ns3:atemp>
          </ns3:TrackPointExtension>
        </extensions>
      </trkpt>
      <trkpt lat="42.51949553377926349639892578125" lon="19.762616939842700958251953125">
        <ele>1866.800048828125</ele>
        <time>2026-06-18T09:22:13.000Z</time>
        <extensions>
          <ns3:TrackPointExtension>
            <ns3:atemp>20.0</ns3:atemp>
          </ns3:TrackPointExtension>
        </extensions>
      </trkpt>
      <trkpt lat="42.51949553377926349639892578125" lon="19.762616939842700958251953125">
        <ele>1866.800048828125</ele>
        <time>2026-06-18T09:22:14.000Z</time>
        <extensions>
          <ns3:TrackPointExtension>
            <ns3:atemp>20.0</ns3:atemp>
          </ns3:TrackPointExtension>
        </extensions>
      </trkpt>
      <trkpt lat="42.51949553377926349639892578125" lon="19.762616939842700958251953125">
        <ele>1867</ele>
        <time>2026-06-18T09:22:15.000Z</time>
        <extensions>
          <ns3:TrackPointExtension>
            <ns3:atemp>20.0</ns3:atemp>
          </ns3:TrackPointExtension>
        </extensions>
      </trkpt>
      <trkpt lat="42.51949553377926349639892578125" lon="19.762616939842700958251953125">
        <ele>1866.800048828125</ele>
        <time>2026-06-18T09:22:16.000Z</time>
        <extensions>
          <ns3:TrackPointExtension>
            <ns3:atemp>20.0</ns3:atemp>
          </ns3:TrackPointExtension>
        </extensions>
      </trkpt>
      <trkpt lat="42.51949553377926349639892578125" lon="19.762616939842700958251953125">
        <ele>1866.800048828125</ele>
        <time>2026-06-18T09:22:17.000Z</time>
        <extensions>
          <ns3:TrackPointExtension>
            <ns3:atemp>20.0</ns3:atemp>
          </ns3:TrackPointExtension>
        </extensions>
      </trkpt>
      <trkpt lat="42.519495785236358642578125" lon="19.762616939842700958251953125">
        <ele>1866.800048828125</ele>
        <time>2026-06-18T09:22:18.000Z</time>
        <extensions>
          <ns3:TrackPointExtension>
            <ns3:atemp>20.0</ns3:atemp>
          </ns3:TrackPointExtension>
        </extensions>
      </trkpt>
      <trkpt lat="42.5194989703595638275146484375" lon="19.76261484436690807342529296875">
        <ele>1866.800048828125</ele>
        <time>2026-06-18T09:22:19.000Z</time>
        <extensions>
          <ns3:TrackPointExtension>
            <ns3:atemp>20.0</ns3:atemp>
          </ns3:TrackPointExtension>
        </extensions>
      </trkpt>
      <trkpt lat="42.5194917619228363037109375" lon="19.76261517964303493499755859375">
        <ele>1866.800048828125</ele>
        <time>2026-06-18T09:22:20.000Z</time>
        <extensions>
          <ns3:TrackPointExtension>
            <ns3:atemp>20.0</ns3:atemp>
          </ns3:TrackPointExtension>
        </extensions>
      </trkpt>
      <trkpt lat="42.5194818712770938873291015625" lon="19.7626137547194957733154296875">
        <ele>1866.800048828125</ele>
        <time>2026-06-18T09:22:21.000Z</time>
        <extensions>
          <ns3:TrackPointExtension>
            <ns3:atemp>20.0</ns3:atemp>
          </ns3:TrackPointExtension>
        </extensions>
      </trkpt>
      <trkpt lat="42.51947390846908092498779296875" lon="19.76261333562433719635009765625">
        <ele>1866.800048828125</ele>
        <time>2026-06-18T09:22:22.000Z</time>
        <extensions>
          <ns3:TrackPointExtension>
            <ns3:atemp>20.0</ns3:atemp>
          </ns3:TrackPointExtension>
        </extensions>
      </trkpt>
      <trkpt lat="42.51946234144270420074462890625" lon="19.7626137547194957733154296875">
        <ele>1866.800048828125</ele>
        <time>2026-06-18T09:22:23.000Z</time>
        <extensions>
          <ns3:TrackPointExtension>
            <ns3:atemp>20.0</ns3:atemp>
          </ns3:TrackPointExtension>
        </extensions>
      </trkpt>
      <trkpt lat="42.51945228315889835357666015625" lon="19.76261601783335208892822265625">
        <ele>1866.5999755859375</ele>
        <time>2026-06-18T09:22:24.000Z</time>
        <extensions>
          <ns3:TrackPointExtension>
            <ns3:atemp>20.0</ns3:atemp>
          </ns3:TrackPointExtension>
        </extensions>
      </trkpt>
      <trkpt lat="42.51943736337125301361083984375" lon="19.76261568255722522735595703125">
        <ele>1866.5999755859375</ele>
        <time>2026-06-18T09:22:25.000Z</time>
        <extensions>
          <ns3:TrackPointExtension>
            <ns3:atemp>20.0</ns3:atemp>
          </ns3:TrackPointExtension>
        </extensions>
      </trkpt>
      <trkpt lat="42.51941925846040248870849609375" lon="19.7626120783388614654541015625">
        <ele>1866.5999755859375</ele>
        <time>2026-06-18T09:22:26.000Z</time>
        <extensions>
          <ns3:TrackPointExtension>
            <ns3:atemp>20.0</ns3:atemp>
          </ns3:TrackPointExtension>
        </extensions>
      </trkpt>
      <trkpt lat="42.51939914189279079437255859375" lon="19.7626093961298465728759765625">
        <ele>1866.5999755859375</ele>
        <time>2026-06-18T09:22:27.000Z</time>
        <extensions>
          <ns3:TrackPointExtension>
            <ns3:atemp>20.0</ns3:atemp>
          </ns3:TrackPointExtension>
        </extensions>
      </trkpt>
      <trkpt lat="42.51937919296324253082275390625" lon="19.76261920295655727386474609375">
        <ele>1866.4000244140625</ele>
        <time>2026-06-18T09:22:28.000Z</time>
        <extensions>
          <ns3:TrackPointExtension>
            <ns3:atemp>20.0</ns3:atemp>
          </ns3:TrackPointExtension>
        </extensions>
      </trkpt>
      <trkpt lat="42.5193611718714237213134765625" lon="19.76263127289712429046630859375">
        <ele>1866.199951171875</ele>
        <time>2026-06-18T09:22:29.000Z</time>
        <extensions>
          <ns3:TrackPointExtension>
            <ns3:atemp>20.0</ns3:atemp>
          </ns3:TrackPointExtension>
        </extensions>
      </trkpt>
      <trkpt lat="42.5193484313786029815673828125" lon="19.7626352123916149139404296875">
        <ele>1866.199951171875</ele>
        <time>2026-06-18T09:22:30.000Z</time>
        <extensions>
          <ns3:TrackPointExtension>
            <ns3:atemp>20.0</ns3:atemp>
          </ns3:TrackPointExtension>
        </extensions>
      </trkpt>
      <trkpt lat="42.5193360261619091033935546875" lon="19.7626328654587268829345703125">
        <ele>1866.4000244140625</ele>
        <time>2026-06-18T09:22:31.000Z</time>
        <extensions>
          <ns3:TrackPointExtension>
            <ns3:atemp>20.0</ns3:atemp>
          </ns3:TrackPointExtension>
        </extensions>
      </trkpt>
      <trkpt lat="42.51931607723236083984375" lon="19.7626315243542194366455078125">
        <ele>1866.4000244140625</ele>
        <time>2026-06-18T09:22:32.000Z</time>
        <extensions>
          <ns3:TrackPointExtension>
            <ns3:atemp>20.0</ns3:atemp>
          </ns3:TrackPointExtension>
        </extensions>
      </trkpt>
      <trkpt lat="42.51929637975990772247314453125" lon="19.7626348771154880523681640625">
        <ele>1866.5999755859375</ele>
        <time>2026-06-18T09:22:33.000Z</time>
        <extensions>
          <ns3:TrackPointExtension>
            <ns3:atemp>20.0</ns3:atemp>
          </ns3:TrackPointExtension>
        </extensions>
      </trkpt>
      <trkpt lat="42.51928313635289669036865234375" lon="19.7626395709812641143798828125">
        <ele>1866.800048828125</ele>
        <time>2026-06-18T09:22:34.000Z</time>
        <extensions>
          <ns3:TrackPointExtension>
            <ns3:atemp>20.0</ns3:atemp>
          </ns3:TrackPointExtension>
        </extensions>
      </trkpt>
      <trkpt lat="42.51926980912685394287109375" lon="19.76264677941799163818359375">
        <ele>1866.800048828125</ele>
        <time>2026-06-18T09:22:35.000Z</time>
        <extensions>
          <ns3:TrackPointExtension>
            <ns3:atemp>20.0</ns3:atemp>
          </ns3:TrackPointExtension>
        </extensions>
      </trkpt>
      <trkpt lat="42.5192572362720966339111328125" lon="19.7626533173024654388427734375">
        <ele>1866.800048828125</ele>
        <time>2026-06-18T09:22:36.000Z</time>
        <extensions>
          <ns3:TrackPointExtension>
            <ns3:atemp>20.0</ns3:atemp>
          </ns3:TrackPointExtension>
        </extensions>
      </trkpt>
      <trkpt lat="42.51924105919897556304931640625" lon="19.7626580111682415008544921875">
        <ele>1866.800048828125</ele>
        <time>2026-06-18T09:22:37.000Z</time>
        <extensions>
          <ns3:TrackPointExtension>
            <ns3:atemp>20.0</ns3:atemp>
          </ns3:TrackPointExtension>
        </extensions>
      </trkpt>
      <trkpt lat="42.5192220322787761688232421875" lon="19.76265641860663890838623046875">
        <ele>1866.800048828125</ele>
        <time>2026-06-18T09:22:38.000Z</time>
        <extensions>
          <ns3:TrackPointExtension>
            <ns3:atemp>20.0</ns3:atemp>
          </ns3:TrackPointExtension>
        </extensions>
      </trkpt>
      <trkpt lat="42.5192183442413806915283203125" lon="19.76265323348343372344970703125">
        <ele>1866.800048828125</ele>
        <time>2026-06-18T09:22:39.000Z</time>
        <extensions>
          <ns3:TrackPointExtension>
            <ns3:atemp>20.0</ns3:atemp>
          </ns3:TrackPointExtension>
        </extensions>
      </trkpt>
      <trkpt lat="42.519221864640712738037109375" lon="19.762655161321163177490234375">
        <ele>1866.800048828125</ele>
        <time>2026-06-18T09:22:40.000Z</time>
        <extensions>
          <ns3:TrackPointExtension>
            <ns3:atemp>20.0</ns3:atemp>
          </ns3:TrackPointExtension>
        </extensions>
      </trkpt>
      <trkpt lat="42.519221864640712738037109375" lon="19.762655161321163177490234375">
        <ele>1866.800048828125</ele>
        <time>2026-06-18T09:22:41.000Z</time>
        <extensions>
          <ns3:TrackPointExtension>
            <ns3:atemp>20.0</ns3:atemp>
          </ns3:TrackPointExtension>
        </extensions>
      </trkpt>
      <trkpt lat="42.519221864640712738037109375" lon="19.762655161321163177490234375">
        <ele>1866.800048828125</ele>
        <time>2026-06-18T09:22:42.000Z</time>
        <extensions>
          <ns3:TrackPointExtension>
            <ns3:atemp>20.0</ns3:atemp>
          </ns3:TrackPointExtension>
        </extensions>
      </trkpt>
      <trkpt lat="42.519221864640712738037109375" lon="19.762655161321163177490234375">
        <ele>1867</ele>
        <time>2026-06-18T09:22:43.000Z</time>
        <extensions>
          <ns3:TrackPointExtension>
            <ns3:atemp>20.0</ns3:atemp>
          </ns3:TrackPointExtension>
        </extensions>
      </trkpt>
      <trkpt lat="42.519221864640712738037109375" lon="19.762655161321163177490234375">
        <ele>1867</ele>
        <time>2026-06-18T09:22:44.000Z</time>
        <extensions>
          <ns3:TrackPointExtension>
            <ns3:atemp>20.0</ns3:atemp>
          </ns3:TrackPointExtension>
        </extensions>
      </trkpt>
      <trkpt lat="42.519221864640712738037109375" lon="19.762655161321163177490234375">
        <ele>1867</ele>
        <time>2026-06-18T09:22:45.000Z</time>
        <extensions>
          <ns3:TrackPointExtension>
            <ns3:atemp>20.0</ns3:atemp>
          </ns3:TrackPointExtension>
        </extensions>
      </trkpt>
      <trkpt lat="42.519221864640712738037109375" lon="19.762655161321163177490234375">
        <ele>1867.199951171875</ele>
        <time>2026-06-18T09:22:46.000Z</time>
        <extensions>
          <ns3:TrackPointExtension>
            <ns3:atemp>20.0</ns3:atemp>
          </ns3:TrackPointExtension>
        </extensions>
      </trkpt>
      <trkpt lat="42.519221864640712738037109375" lon="19.762655161321163177490234375">
        <ele>1867.199951171875</ele>
        <time>2026-06-18T09:22:47.000Z</time>
        <extensions>
          <ns3:TrackPointExtension>
            <ns3:atemp>20.0</ns3:atemp>
          </ns3:TrackPointExtension>
        </extensions>
      </trkpt>
      <trkpt lat="42.519221864640712738037109375" lon="19.762655161321163177490234375">
        <ele>1867.199951171875</ele>
        <time>2026-06-18T09:22:48.000Z</time>
        <extensions>
          <ns3:TrackPointExtension>
            <ns3:atemp>20.0</ns3:atemp>
          </ns3:TrackPointExtension>
        </extensions>
      </trkpt>
      <trkpt lat="42.519221864640712738037109375" lon="19.762655161321163177490234375">
        <ele>1867.199951171875</ele>
        <time>2026-06-18T09:22:49.000Z</time>
        <extensions>
          <ns3:TrackPointExtension>
            <ns3:atemp>20.0</ns3:atemp>
          </ns3:TrackPointExtension>
        </extensions>
      </trkpt>
      <trkpt lat="42.519221864640712738037109375" lon="19.762655161321163177490234375">
        <ele>1867.199951171875</ele>
        <time>2026-06-18T09:22:50.000Z</time>
        <extensions>
          <ns3:TrackPointExtension>
            <ns3:atemp>20.0</ns3:atemp>
          </ns3:TrackPointExtension>
        </extensions>
      </trkpt>
      <trkpt lat="42.519221864640712738037109375" lon="19.762655161321163177490234375">
        <ele>1867.199951171875</ele>
        <time>2026-06-18T09:22:51.000Z</time>
        <extensions>
          <ns3:TrackPointExtension>
            <ns3:atemp>20.0</ns3:atemp>
          </ns3:TrackPointExtension>
        </extensions>
      </trkpt>
      <trkpt lat="42.519221864640712738037109375" lon="19.762655161321163177490234375">
        <ele>1867.199951171875</ele>
        <time>2026-06-18T09:22:52.000Z</time>
        <extensions>
          <ns3:TrackPointExtension>
            <ns3:atemp>20.0</ns3:atemp>
          </ns3:TrackPointExtension>
        </extensions>
      </trkpt>
      <trkpt lat="42.519221864640712738037109375" lon="19.762655161321163177490234375">
        <ele>1867.4000244140625</ele>
        <time>2026-06-18T09:22:53.000Z</time>
        <extensions>
          <ns3:TrackPointExtension>
            <ns3:atemp>20.0</ns3:atemp>
          </ns3:TrackPointExtension>
        </extensions>
      </trkpt>
      <trkpt lat="42.519221864640712738037109375" lon="19.762655161321163177490234375">
        <ele>1867.4000244140625</ele>
        <time>2026-06-18T09:22:54.000Z</time>
        <extensions>
          <ns3:TrackPointExtension>
            <ns3:atemp>20.0</ns3:atemp>
          </ns3:TrackPointExtension>
        </extensions>
      </trkpt>
      <trkpt lat="42.519221864640712738037109375" lon="19.762655161321163177490234375">
        <ele>1867.5999755859375</ele>
        <time>2026-06-18T09:22:55.000Z</time>
        <extensions>
          <ns3:TrackPointExtension>
            <ns3:atemp>20.0</ns3:atemp>
          </ns3:TrackPointExtension>
        </extensions>
      </trkpt>
      <trkpt lat="42.519221864640712738037109375" lon="19.762655161321163177490234375">
        <ele>1867.5999755859375</ele>
        <time>2026-06-18T09:22:56.000Z</time>
        <extensions>
          <ns3:TrackPointExtension>
            <ns3:atemp>20.0</ns3:atemp>
          </ns3:TrackPointExtension>
        </extensions>
      </trkpt>
      <trkpt lat="42.519221864640712738037109375" lon="19.762655161321163177490234375">
        <ele>1867.800048828125</ele>
        <time>2026-06-18T09:22:57.000Z</time>
        <extensions>
          <ns3:TrackPointExtension>
            <ns3:atemp>20.0</ns3:atemp>
          </ns3:TrackPointExtension>
        </extensions>
      </trkpt>
      <trkpt lat="42.519221864640712738037109375" lon="19.762655161321163177490234375">
        <ele>1867.800048828125</ele>
        <time>2026-06-18T09:22:58.000Z</time>
        <extensions>
          <ns3:TrackPointExtension>
            <ns3:atemp>20.0</ns3:atemp>
          </ns3:TrackPointExtension>
        </extensions>
      </trkpt>
      <trkpt lat="42.519221864640712738037109375" lon="19.762655161321163177490234375">
        <ele>1867.800048828125</ele>
        <time>2026-06-18T09:22:59.000Z</time>
        <extensions>
          <ns3:TrackPointExtension>
            <ns3:atemp>20.0</ns3:atemp>
          </ns3:TrackPointExtension>
        </extensions>
      </trkpt>
      <trkpt lat="42.519221864640712738037109375" lon="19.762655161321163177490234375">
        <ele>1867.800048828125</ele>
        <time>2026-06-18T09:23:00.000Z</time>
        <extensions>
          <ns3:TrackPointExtension>
            <ns3:atemp>20.0</ns3:atemp>
          </ns3:TrackPointExtension>
        </extensions>
      </trkpt>
      <trkpt lat="42.519221864640712738037109375" lon="19.762655161321163177490234375">
        <ele>1867.5999755859375</ele>
        <time>2026-06-18T09:23:01.000Z</time>
        <extensions>
          <ns3:TrackPointExtension>
            <ns3:atemp>20.0</ns3:atemp>
          </ns3:TrackPointExtension>
        </extensions>
      </trkpt>
      <trkpt lat="42.519221864640712738037109375" lon="19.762655161321163177490234375">
        <ele>1867.5999755859375</ele>
        <time>2026-06-18T09:23:02.000Z</time>
        <extensions>
          <ns3:TrackPointExtension>
            <ns3:atemp>20.0</ns3:atemp>
          </ns3:TrackPointExtension>
        </extensions>
      </trkpt>
      <trkpt lat="42.519221864640712738037109375" lon="19.762655161321163177490234375">
        <ele>1867.4000244140625</ele>
        <time>2026-06-18T09:23:03.000Z</time>
        <extensions>
          <ns3:TrackPointExtension>
            <ns3:atemp>20.0</ns3:atemp>
          </ns3:TrackPointExtension>
        </extensions>
      </trkpt>
      <trkpt lat="42.519221864640712738037109375" lon="19.762655161321163177490234375">
        <ele>1867.4000244140625</ele>
        <time>2026-06-18T09:23:04.000Z</time>
        <extensions>
          <ns3:TrackPointExtension>
            <ns3:atemp>20.0</ns3:atemp>
          </ns3:TrackPointExtension>
        </extensions>
      </trkpt>
      <trkpt lat="42.519221864640712738037109375" lon="19.762655161321163177490234375">
        <ele>1867.4000244140625</ele>
        <time>2026-06-18T09:23:05.000Z</time>
        <extensions>
          <ns3:TrackPointExtension>
            <ns3:atemp>20.0</ns3:atemp>
          </ns3:TrackPointExtension>
        </extensions>
      </trkpt>
      <trkpt lat="42.519221864640712738037109375" lon="19.762655161321163177490234375">
        <ele>1867.4000244140625</ele>
        <time>2026-06-18T09:23:06.000Z</time>
        <extensions>
          <ns3:TrackPointExtension>
            <ns3:atemp>19.0</ns3:atemp>
          </ns3:TrackPointExtension>
        </extensions>
      </trkpt>
      <trkpt lat="42.519221864640712738037109375" lon="19.762655161321163177490234375">
        <ele>1867.4000244140625</ele>
        <time>2026-06-18T09:23:07.000Z</time>
        <extensions>
          <ns3:TrackPointExtension>
            <ns3:atemp>19.0</ns3:atemp>
          </ns3:TrackPointExtension>
        </extensions>
      </trkpt>
      <trkpt lat="42.519221864640712738037109375" lon="19.762655161321163177490234375">
        <ele>1867.4000244140625</ele>
        <time>2026-06-18T09:23:08.000Z</time>
        <extensions>
          <ns3:TrackPointExtension>
            <ns3:atemp>19.0</ns3:atemp>
          </ns3:TrackPointExtension>
        </extensions>
      </trkpt>
      <trkpt lat="42.519221864640712738037109375" lon="19.762655161321163177490234375">
        <ele>1867.4000244140625</ele>
        <time>2026-06-18T09:23:09.000Z</time>
        <extensions>
          <ns3:TrackPointExtension>
            <ns3:atemp>19.0</ns3:atemp>
          </ns3:TrackPointExtension>
        </extensions>
      </trkpt>
      <trkpt lat="42.519221864640712738037109375" lon="19.762655161321163177490234375">
        <ele>1867.4000244140625</ele>
        <time>2026-06-18T09:23:10.000Z</time>
        <extensions>
          <ns3:TrackPointExtension>
            <ns3:atemp>19.0</ns3:atemp>
          </ns3:TrackPointExtension>
        </extensions>
      </trkpt>
      <trkpt lat="42.519221864640712738037109375" lon="19.762655161321163177490234375">
        <ele>1867.4000244140625</ele>
        <time>2026-06-18T09:23:11.000Z</time>
        <extensions>
          <ns3:TrackPointExtension>
            <ns3:atemp>19.0</ns3:atemp>
          </ns3:TrackPointExtension>
        </extensions>
      </trkpt>
      <trkpt lat="42.519221864640712738037109375" lon="19.762655161321163177490234375">
        <ele>1867.4000244140625</ele>
        <time>2026-06-18T09:23:12.000Z</time>
        <extensions>
          <ns3:TrackPointExtension>
            <ns3:atemp>19.0</ns3:atemp>
          </ns3:TrackPointExtension>
        </extensions>
      </trkpt>
      <trkpt lat="42.519221864640712738037109375" lon="19.762655161321163177490234375">
        <ele>1867.4000244140625</ele>
        <time>2026-06-18T09:23:13.000Z</time>
        <extensions>
          <ns3:TrackPointExtension>
            <ns3:atemp>19.0</ns3:atemp>
          </ns3:TrackPointExtension>
        </extensions>
      </trkpt>
      <trkpt lat="42.519221864640712738037109375" lon="19.762655161321163177490234375">
        <ele>1867.5999755859375</ele>
        <time>2026-06-18T09:23:14.000Z</time>
        <extensions>
          <ns3:TrackPointExtension>
            <ns3:atemp>20.0</ns3:atemp>
          </ns3:TrackPointExtension>
        </extensions>
      </trkpt>
      <trkpt lat="42.519221864640712738037109375" lon="19.762655161321163177490234375">
        <ele>1867.5999755859375</ele>
        <time>2026-06-18T09:23:15.000Z</time>
        <extensions>
          <ns3:TrackPointExtension>
            <ns3:atemp>19.0</ns3:atemp>
          </ns3:TrackPointExtension>
        </extensions>
      </trkpt>
      <trkpt lat="42.519221864640712738037109375" lon="19.762655161321163177490234375">
        <ele>1867.5999755859375</ele>
        <time>2026-06-18T09:23:16.000Z</time>
        <extensions>
          <ns3:TrackPointExtension>
            <ns3:atemp>19.0</ns3:atemp>
          </ns3:TrackPointExtension>
        </extensions>
      </trkpt>
      <trkpt lat="42.519221864640712738037109375" lon="19.762655161321163177490234375">
        <ele>1867.5999755859375</ele>
        <time>2026-06-18T09:23:17.000Z</time>
        <extensions>
          <ns3:TrackPointExtension>
            <ns3:atemp>19.0</ns3:atemp>
          </ns3:TrackPointExtension>
        </extensions>
      </trkpt>
      <trkpt lat="42.5192203558981418609619140625" lon="19.76265373639762401580810546875">
        <ele>1867.5999755859375</ele>
        <time>2026-06-18T09:23:18.000Z</time>
        <extensions>
          <ns3:TrackPointExtension>
            <ns3:atemp>19.0</ns3:atemp>
          </ns3:TrackPointExtension>
        </extensions>
      </trkpt>
      <trkpt lat="42.519203759729862213134765625" lon="19.76264602504670619964599609375">
        <ele>1867.5999755859375</ele>
        <time>2026-06-18T09:23:19.000Z</time>
        <extensions>
          <ns3:TrackPointExtension>
            <ns3:atemp>19.0</ns3:atemp>
          </ns3:TrackPointExtension>
        </extensions>
      </trkpt>
      <trkpt lat="42.51918842084705829620361328125" lon="19.76263797841966152191162109375">
        <ele>1867.5999755859375</ele>
        <time>2026-06-18T09:23:20.000Z</time>
        <extensions>
          <ns3:TrackPointExtension>
            <ns3:atemp>19.0</ns3:atemp>
          </ns3:TrackPointExtension>
        </extensions>
      </trkpt>
      <trkpt lat="42.51917215995490550994873046875" lon="19.76263278163969516754150390625">
        <ele>1867.4000244140625</ele>
        <time>2026-06-18T09:23:21.000Z</time>
        <extensions>
          <ns3:TrackPointExtension>
            <ns3:atemp>19.0</ns3:atemp>
          </ns3:TrackPointExtension>
        </extensions>
      </trkpt>
      <trkpt lat="42.5191576592624187469482421875" lon="19.76262959651648998260498046875">
        <ele>1867.5999755859375</ele>
        <time>2026-06-18T09:23:22.000Z</time>
        <extensions>
          <ns3:TrackPointExtension>
            <ns3:atemp>19.0</ns3:atemp>
          </ns3:TrackPointExtension>
        </extensions>
      </trkpt>
      <trkpt lat="42.51914734952151775360107421875" lon="19.762618951499462127685546875">
        <ele>1867.5999755859375</ele>
        <time>2026-06-18T09:23:23.000Z</time>
        <extensions>
          <ns3:TrackPointExtension>
            <ns3:atemp>19.0</ns3:atemp>
          </ns3:TrackPointExtension>
        </extensions>
      </trkpt>
      <trkpt lat="42.51914215274155139923095703125" lon="19.76261132396757602691650390625">
        <ele>1867.800048828125</ele>
        <time>2026-06-18T09:23:24.000Z</time>
        <extensions>
          <ns3:TrackPointExtension>
            <ns3:atemp>19.0</ns3:atemp>
          </ns3:TrackPointExtension>
        </extensions>
      </trkpt>
      <trkpt lat="42.51913863234221935272216796875" lon="19.76260042749345302581787109375">
        <ele>1867.800048828125</ele>
        <time>2026-06-18T09:23:25.000Z</time>
        <extensions>
          <ns3:TrackPointExtension>
            <ns3:atemp>19.0</ns3:atemp>
          </ns3:TrackPointExtension>
        </extensions>
      </trkpt>
      <trkpt lat="42.5191375426948070526123046875" lon="19.76259992457926273345947265625">
        <ele>1868</ele>
        <time>2026-06-18T09:23:26.000Z</time>
        <extensions>
          <ns3:TrackPointExtension>
            <ns3:atemp>19.0</ns3:atemp>
          </ns3:TrackPointExtension>
        </extensions>
      </trkpt>
      <trkpt lat="42.519136369228363037109375" lon="19.76260059513151645660400390625">
        <ele>1868</ele>
        <time>2026-06-18T09:23:27.000Z</time>
        <extensions>
          <ns3:TrackPointExtension>
            <ns3:atemp>19.0</ns3:atemp>
          </ns3:TrackPointExtension>
        </extensions>
      </trkpt>
      <trkpt lat="42.51913628540933132171630859375" lon="19.76260042749345302581787109375">
        <ele>1868</ele>
        <time>2026-06-18T09:23:28.000Z</time>
        <extensions>
          <ns3:TrackPointExtension>
            <ns3:atemp>19.0</ns3:atemp>
          </ns3:TrackPointExtension>
        </extensions>
      </trkpt>
      <trkpt lat="42.51913628540933132171630859375" lon="19.76260042749345302581787109375">
        <ele>1868</ele>
        <time>2026-06-18T09:23:29.000Z</time>
        <extensions>
          <ns3:TrackPointExtension>
            <ns3:atemp>19.0</ns3:atemp>
          </ns3:TrackPointExtension>
        </extensions>
      </trkpt>
      <trkpt lat="42.51913628540933132171630859375" lon="19.76260042749345302581787109375">
        <ele>1868.199951171875</ele>
        <time>2026-06-18T09:23:30.000Z</time>
        <extensions>
          <ns3:TrackPointExtension>
            <ns3:atemp>19.0</ns3:atemp>
          </ns3:TrackPointExtension>
        </extensions>
      </trkpt>
      <trkpt lat="42.519136033952236175537109375" lon="19.76259958930313587188720703125">
        <ele>1868.199951171875</ele>
        <time>2026-06-18T09:23:31.000Z</time>
        <extensions>
          <ns3:TrackPointExtension>
            <ns3:atemp>19.0</ns3:atemp>
          </ns3:TrackPointExtension>
        </extensions>
      </trkpt>
      <trkpt lat="42.51912270672619342803955078125" lon="19.76258802227675914764404296875">
        <ele>1868.199951171875</ele>
        <time>2026-06-18T09:23:32.000Z</time>
        <extensions>
          <ns3:TrackPointExtension>
            <ns3:atemp>19.0</ns3:atemp>
          </ns3:TrackPointExtension>
        </extensions>
      </trkpt>
      <trkpt lat="42.51911818049848079681396484375" lon="19.76258081384003162384033203125">
        <ele>1868.199951171875</ele>
        <time>2026-06-18T09:23:33.000Z</time>
        <extensions>
          <ns3:TrackPointExtension>
            <ns3:atemp>19.0</ns3:atemp>
          </ns3:TrackPointExtension>
        </extensions>
      </trkpt>
      <trkpt lat="42.5191103853285312652587890625" lon="19.76257394067943096160888671875">
        <ele>1868.4000244140625</ele>
        <time>2026-06-18T09:23:34.000Z</time>
        <extensions>
          <ns3:TrackPointExtension>
            <ns3:atemp>19.0</ns3:atemp>
          </ns3:TrackPointExtension>
        </extensions>
      </trkpt>
      <trkpt lat="42.51910124905407428741455078125" lon="19.7625710070133209228515625">
        <ele>1868.4000244140625</ele>
        <time>2026-06-18T09:23:35.000Z</time>
        <extensions>
          <ns3:TrackPointExtension>
            <ns3:atemp>19.0</ns3:atemp>
          </ns3:TrackPointExtension>
        </extensions>
      </trkpt>
      <trkpt lat="42.51909286715090274810791015625" lon="19.76256941445171833038330078125">
        <ele>1868.4000244140625</ele>
        <time>2026-06-18T09:23:36.000Z</time>
        <extensions>
          <ns3:TrackPointExtension>
            <ns3:atemp>19.0</ns3:atemp>
          </ns3:TrackPointExtension>
        </extensions>
      </trkpt>
      <trkpt lat="42.51908482052385807037353515625" lon="19.76257695816457271575927734375">
        <ele>1868.199951171875</ele>
        <time>2026-06-18T09:23:37.000Z</time>
        <extensions>
          <ns3:TrackPointExtension>
            <ns3:atemp>19.0</ns3:atemp>
          </ns3:TrackPointExtension>
        </extensions>
      </trkpt>
      <trkpt lat="42.51908364705741405487060546875" lon="19.76258416660130023956298828125">
        <ele>1868</ele>
        <time>2026-06-18T09:23:38.000Z</time>
        <extensions>
          <ns3:TrackPointExtension>
            <ns3:atemp>19.0</ns3:atemp>
          </ns3:TrackPointExtension>
        </extensions>
      </trkpt>
      <trkpt lat="42.51908364705741405487060546875" lon="19.76258416660130023956298828125">
        <ele>1867.800048828125</ele>
        <time>2026-06-18T09:23:39.000Z</time>
        <extensions>
          <ns3:TrackPointExtension>
            <ns3:atemp>19.0</ns3:atemp>
          </ns3:TrackPointExtension>
        </extensions>
      </trkpt>
      <trkpt lat="42.51908364705741405487060546875" lon="19.76258416660130023956298828125">
        <ele>1867.199951171875</ele>
        <time>2026-06-18T09:23:40.000Z</time>
        <extensions>
          <ns3:TrackPointExtension>
            <ns3:atemp>19.0</ns3:atemp>
          </ns3:TrackPointExtension>
        </extensions>
      </trkpt>
      <trkpt lat="42.51908364705741405487060546875" lon="19.76258433423936367034912109375">
        <ele>1867.199951171875</ele>
        <time>2026-06-18T09:23:41.000Z</time>
        <extensions>
          <ns3:TrackPointExtension>
            <ns3:atemp>19.0</ns3:atemp>
          </ns3:TrackPointExtension>
        </extensions>
      </trkpt>
      <trkpt lat="42.5190751813352108001708984375" lon="19.76259606890380382537841796875">
        <ele>1867.199951171875</ele>
        <time>2026-06-18T09:23:42.000Z</time>
        <extensions>
          <ns3:TrackPointExtension>
            <ns3:atemp>19.0</ns3:atemp>
          </ns3:TrackPointExtension>
        </extensions>
      </trkpt>
      <trkpt lat="42.51906788907945156097412109375" lon="19.7626097314059734344482421875">
        <ele>1867.199951171875</ele>
        <time>2026-06-18T09:23:43.000Z</time>
        <extensions>
          <ns3:TrackPointExtension>
            <ns3:atemp>19.0</ns3:atemp>
          </ns3:TrackPointExtension>
        </extensions>
      </trkpt>
      <trkpt lat="42.51905967481434345245361328125" lon="19.76262054406106472015380859375">
        <ele>1867.199951171875</ele>
        <time>2026-06-18T09:23:44.000Z</time>
        <extensions>
          <ns3:TrackPointExtension>
            <ns3:atemp>19.0</ns3:atemp>
          </ns3:TrackPointExtension>
        </extensions>
      </trkpt>
      <trkpt lat="42.519056908786296844482421875" lon="19.76262942887842655181884765625">
        <ele>1867.199951171875</ele>
        <time>2026-06-18T09:23:45.000Z</time>
        <extensions>
          <ns3:TrackPointExtension>
            <ns3:atemp>19.0</ns3:atemp>
          </ns3:TrackPointExtension>
        </extensions>
      </trkpt>
      <trkpt lat="42.5190518796443939208984375" lon="19.76263747550547122955322265625">
        <ele>1867.199951171875</ele>
        <time>2026-06-18T09:23:46.000Z</time>
        <extensions>
          <ns3:TrackPointExtension>
            <ns3:atemp>19.0</ns3:atemp>
          </ns3:TrackPointExtension>
        </extensions>
      </trkpt>
      <trkpt lat="42.51904559321701526641845703125" lon="19.76264619268476963043212890625">
        <ele>1867.4000244140625</ele>
        <time>2026-06-18T09:23:47.000Z</time>
        <extensions>
          <ns3:TrackPointExtension>
            <ns3:atemp>19.0</ns3:atemp>
          </ns3:TrackPointExtension>
        </extensions>
      </trkpt>
      <trkpt lat="42.51903737895190715789794921875" lon="19.7626519761979579925537109375">
        <ele>1867.4000244140625</ele>
        <time>2026-06-18T09:23:48.000Z</time>
        <extensions>
          <ns3:TrackPointExtension>
            <ns3:atemp>19.0</ns3:atemp>
          </ns3:TrackPointExtension>
        </extensions>
      </trkpt>
      <trkpt lat="42.5190305896103382110595703125" lon="19.7626570053398609161376953125">
        <ele>1867.4000244140625</ele>
        <time>2026-06-18T09:23:49.000Z</time>
        <extensions>
          <ns3:TrackPointExtension>
            <ns3:atemp>19.0</ns3:atemp>
          </ns3:TrackPointExtension>
        </extensions>
      </trkpt>
      <trkpt lat="42.51902396790683269500732421875" lon="19.762666225433349609375">
        <ele>1867.4000244140625</ele>
        <time>2026-06-18T09:23:50.000Z</time>
        <extensions>
          <ns3:TrackPointExtension>
            <ns3:atemp>19.0</ns3:atemp>
          </ns3:TrackPointExtension>
        </extensions>
      </trkpt>
      <trkpt lat="42.51901944167912006378173828125" lon="19.76266999728977680206298828125">
        <ele>1867.4000244140625</ele>
        <time>2026-06-18T09:23:51.000Z</time>
        <extensions>
          <ns3:TrackPointExtension>
            <ns3:atemp>19.0</ns3:atemp>
          </ns3:TrackPointExtension>
        </extensions>
      </trkpt>
      <trkpt lat="42.5190161727368831634521484375" lon="19.76267703808844089508056640625">
        <ele>1867.4000244140625</ele>
        <time>2026-06-18T09:23:52.000Z</time>
        <extensions>
          <ns3:TrackPointExtension>
            <ns3:atemp>19.0</ns3:atemp>
          </ns3:TrackPointExtension>
        </extensions>
      </trkpt>
      <trkpt lat="42.51900552771985530853271484375" lon="19.7626878507435321807861328125">
        <ele>1867.4000244140625</ele>
        <time>2026-06-18T09:23:53.000Z</time>
        <extensions>
          <ns3:TrackPointExtension>
            <ns3:atemp>19.0</ns3:atemp>
          </ns3:TrackPointExtension>
        </extensions>
      </trkpt>
      <trkpt lat="42.5189957208931446075439453125" lon="19.76270184852182865142822265625">
        <ele>1867.4000244140625</ele>
        <time>2026-06-18T09:23:54.000Z</time>
        <extensions>
          <ns3:TrackPointExtension>
            <ns3:atemp>19.0</ns3:atemp>
          </ns3:TrackPointExtension>
        </extensions>
      </trkpt>
      <trkpt lat="42.518989183008670806884765625" lon="19.76271408610045909881591796875">
        <ele>1867.199951171875</ele>
        <time>2026-06-18T09:23:55.000Z</time>
        <extensions>
          <ns3:TrackPointExtension>
            <ns3:atemp>19.0</ns3:atemp>
          </ns3:TrackPointExtension>
        </extensions>
      </trkpt>
      <trkpt lat="42.5189896859228610992431640625" lon="19.76271249353885650634765625">
        <ele>1867.199951171875</ele>
        <time>2026-06-18T09:23:56.000Z</time>
        <extensions>
          <ns3:TrackPointExtension>
            <ns3:atemp>19.0</ns3:atemp>
          </ns3:TrackPointExtension>
        </extensions>
      </trkpt>
      <trkpt lat="42.5189896859228610992431640625" lon="19.76271249353885650634765625">
        <ele>1867</ele>
        <time>2026-06-18T09:23:57.000Z</time>
        <extensions>
          <ns3:TrackPointExtension>
            <ns3:atemp>19.0</ns3:atemp>
          </ns3:TrackPointExtension>
        </extensions>
      </trkpt>
      <trkpt lat="42.5189896859228610992431640625" lon="19.76271249353885650634765625">
        <ele>1867</ele>
        <time>2026-06-18T09:23:58.000Z</time>
        <extensions>
          <ns3:TrackPointExtension>
            <ns3:atemp>19.0</ns3:atemp>
          </ns3:TrackPointExtension>
        </extensions>
      </trkpt>
      <trkpt lat="42.5189896859228610992431640625" lon="19.76271249353885650634765625">
        <ele>1867.199951171875</ele>
        <time>2026-06-18T09:23:59.000Z</time>
        <extensions>
          <ns3:TrackPointExtension>
            <ns3:atemp>19.0</ns3:atemp>
          </ns3:TrackPointExtension>
        </extensions>
      </trkpt>
      <trkpt lat="42.5189896859228610992431640625" lon="19.76271249353885650634765625">
        <ele>1867.4000244140625</ele>
        <time>2026-06-18T09:24:00.000Z</time>
        <extensions>
          <ns3:TrackPointExtension>
            <ns3:atemp>19.0</ns3:atemp>
          </ns3:TrackPointExtension>
        </extensions>
      </trkpt>
      <trkpt lat="42.5189896859228610992431640625" lon="19.76271249353885650634765625">
        <ele>1867.5999755859375</ele>
        <time>2026-06-18T09:24:01.000Z</time>
        <extensions>
          <ns3:TrackPointExtension>
            <ns3:atemp>19.0</ns3:atemp>
          </ns3:TrackPointExtension>
        </extensions>
      </trkpt>
      <trkpt lat="42.5189896859228610992431640625" lon="19.76271249353885650634765625">
        <ele>1867.800048828125</ele>
        <time>2026-06-18T09:24:02.000Z</time>
        <extensions>
          <ns3:TrackPointExtension>
            <ns3:atemp>19.0</ns3:atemp>
          </ns3:TrackPointExtension>
        </extensions>
      </trkpt>
      <trkpt lat="42.5189896859228610992431640625" lon="19.76271249353885650634765625">
        <ele>1868</ele>
        <time>2026-06-18T09:24:03.000Z</time>
        <extensions>
          <ns3:TrackPointExtension>
            <ns3:atemp>19.0</ns3:atemp>
          </ns3:TrackPointExtension>
        </extensions>
      </trkpt>
      <trkpt lat="42.5189896859228610992431640625" lon="19.76271249353885650634765625">
        <ele>1868</ele>
        <time>2026-06-18T09:24:04.000Z</time>
        <extensions>
          <ns3:TrackPointExtension>
            <ns3:atemp>19.0</ns3:atemp>
          </ns3:TrackPointExtension>
        </extensions>
      </trkpt>
      <trkpt lat="42.5189896859228610992431640625" lon="19.76271249353885650634765625">
        <ele>1868</ele>
        <time>2026-06-18T09:24:05.000Z</time>
        <extensions>
          <ns3:TrackPointExtension>
            <ns3:atemp>19.0</ns3:atemp>
          </ns3:TrackPointExtension>
        </extensions>
      </trkpt>
      <trkpt lat="42.5189896859228610992431640625" lon="19.76271249353885650634765625">
        <ele>1868</ele>
        <time>2026-06-18T09:24:06.000Z</time>
        <extensions>
          <ns3:TrackPointExtension>
            <ns3:atemp>19.0</ns3:atemp>
          </ns3:TrackPointExtension>
        </extensions>
      </trkpt>
      <trkpt lat="42.5189896859228610992431640625" lon="19.76271249353885650634765625">
        <ele>1868</ele>
        <time>2026-06-18T09:24:07.000Z</time>
        <extensions>
          <ns3:TrackPointExtension>
            <ns3:atemp>19.0</ns3:atemp>
          </ns3:TrackPointExtension>
        </extensions>
      </trkpt>
      <trkpt lat="42.5189896859228610992431640625" lon="19.76271249353885650634765625">
        <ele>1867.800048828125</ele>
        <time>2026-06-18T09:24:08.000Z</time>
        <extensions>
          <ns3:TrackPointExtension>
            <ns3:atemp>19.0</ns3:atemp>
          </ns3:TrackPointExtension>
        </extensions>
      </trkpt>
      <trkpt lat="42.5189896859228610992431640625" lon="19.76271249353885650634765625">
        <ele>1867.800048828125</ele>
        <time>2026-06-18T09:24:09.000Z</time>
        <extensions>
          <ns3:TrackPointExtension>
            <ns3:atemp>19.0</ns3:atemp>
          </ns3:TrackPointExtension>
        </extensions>
      </trkpt>
      <trkpt lat="42.5189896859228610992431640625" lon="19.76271249353885650634765625">
        <ele>1867.800048828125</ele>
        <time>2026-06-18T09:24:10.000Z</time>
        <extensions>
          <ns3:TrackPointExtension>
            <ns3:atemp>19.0</ns3:atemp>
          </ns3:TrackPointExtension>
        </extensions>
      </trkpt>
      <trkpt lat="42.5189896859228610992431640625" lon="19.76271249353885650634765625">
        <ele>1867.800048828125</ele>
        <time>2026-06-18T09:24:11.000Z</time>
        <extensions>
          <ns3:TrackPointExtension>
            <ns3:atemp>19.0</ns3:atemp>
          </ns3:TrackPointExtension>
        </extensions>
      </trkpt>
      <trkpt lat="42.5189896859228610992431640625" lon="19.76271249353885650634765625">
        <ele>1867.800048828125</ele>
        <time>2026-06-18T09:24:12.000Z</time>
        <extensions>
          <ns3:TrackPointExtension>
            <ns3:atemp>19.0</ns3:atemp>
          </ns3:TrackPointExtension>
        </extensions>
      </trkpt>
      <trkpt lat="42.5189896859228610992431640625" lon="19.76271249353885650634765625">
        <ele>1868</ele>
        <time>2026-06-18T09:24:13.000Z</time>
        <extensions>
          <ns3:TrackPointExtension>
            <ns3:atemp>19.0</ns3:atemp>
          </ns3:TrackPointExtension>
        </extensions>
      </trkpt>
      <trkpt lat="42.5189896859228610992431640625" lon="19.76271249353885650634765625">
        <ele>1868</ele>
        <time>2026-06-18T09:24:14.000Z</time>
        <extensions>
          <ns3:TrackPointExtension>
            <ns3:atemp>19.0</ns3:atemp>
          </ns3:TrackPointExtension>
        </extensions>
      </trkpt>
      <trkpt lat="42.5189896859228610992431640625" lon="19.76271249353885650634765625">
        <ele>1868.199951171875</ele>
        <time>2026-06-18T09:24:15.000Z</time>
        <extensions>
          <ns3:TrackPointExtension>
            <ns3:atemp>19.0</ns3:atemp>
          </ns3:TrackPointExtension>
        </extensions>
      </trkpt>
      <trkpt lat="42.5189896859228610992431640625" lon="19.76271249353885650634765625">
        <ele>1868.4000244140625</ele>
        <time>2026-06-18T09:24:16.000Z</time>
        <extensions>
          <ns3:TrackPointExtension>
            <ns3:atemp>19.0</ns3:atemp>
          </ns3:TrackPointExtension>
        </extensions>
      </trkpt>
      <trkpt lat="42.5189896859228610992431640625" lon="19.76271249353885650634765625">
        <ele>1868.4000244140625</ele>
        <time>2026-06-18T09:24:17.000Z</time>
        <extensions>
          <ns3:TrackPointExtension>
            <ns3:atemp>19.0</ns3:atemp>
          </ns3:TrackPointExtension>
        </extensions>
      </trkpt>
      <trkpt lat="42.5189896859228610992431640625" lon="19.76271249353885650634765625">
        <ele>1868.4000244140625</ele>
        <time>2026-06-18T09:24:18.000Z</time>
        <extensions>
          <ns3:TrackPointExtension>
            <ns3:atemp>19.0</ns3:atemp>
          </ns3:TrackPointExtension>
        </extensions>
      </trkpt>
      <trkpt lat="42.5189896859228610992431640625" lon="19.76271249353885650634765625">
        <ele>1868.199951171875</ele>
        <time>2026-06-18T09:24:19.000Z</time>
        <extensions>
          <ns3:TrackPointExtension>
            <ns3:atemp>19.0</ns3:atemp>
          </ns3:TrackPointExtension>
        </extensions>
      </trkpt>
      <trkpt lat="42.5189896859228610992431640625" lon="19.76271249353885650634765625">
        <ele>1868</ele>
        <time>2026-06-18T09:24:20.000Z</time>
        <extensions>
          <ns3:TrackPointExtension>
            <ns3:atemp>19.0</ns3:atemp>
          </ns3:TrackPointExtension>
        </extensions>
      </trkpt>
      <trkpt lat="42.5189896859228610992431640625" lon="19.76271249353885650634765625">
        <ele>1867.800048828125</ele>
        <time>2026-06-18T09:24:21.000Z</time>
        <extensions>
          <ns3:TrackPointExtension>
            <ns3:atemp>19.0</ns3:atemp>
          </ns3:TrackPointExtension>
        </extensions>
      </trkpt>
      <trkpt lat="42.5189866684377193450927734375" lon="19.7627129964530467987060546875">
        <ele>1867.4000244140625</ele>
        <time>2026-06-18T09:24:22.000Z</time>
        <extensions>
          <ns3:TrackPointExtension>
            <ns3:atemp>19.0</ns3:atemp>
          </ns3:TrackPointExtension>
        </extensions>
      </trkpt>
      <trkpt lat="42.51896512694656848907470703125" lon="19.7627413272857666015625">
        <ele>1867.199951171875</ele>
        <time>2026-06-18T09:24:23.000Z</time>
        <extensions>
          <ns3:TrackPointExtension>
            <ns3:atemp>19.0</ns3:atemp>
          </ns3:TrackPointExtension>
        </extensions>
      </trkpt>
      <trkpt lat="42.51895456574857234954833984375" lon="19.76276923902332782745361328125">
        <ele>1867</ele>
        <time>2026-06-18T09:24:24.000Z</time>
        <extensions>
          <ns3:TrackPointExtension>
            <ns3:atemp>19.0</ns3:atemp>
          </ns3:TrackPointExtension>
        </extensions>
      </trkpt>
      <trkpt lat="42.5189417414367198944091796875" lon="19.76280025206506252288818359375">
        <ele>1867</ele>
        <time>2026-06-18T09:24:25.000Z</time>
        <extensions>
          <ns3:TrackPointExtension>
            <ns3:atemp>19.0</ns3:atemp>
          </ns3:TrackPointExtension>
        </extensions>
      </trkpt>
      <trkpt lat="42.51892757602035999298095703125" lon="19.762830175459384918212890625">
        <ele>1867</ele>
        <time>2026-06-18T09:24:26.000Z</time>
        <extensions>
          <ns3:TrackPointExtension>
            <ns3:atemp>19.0</ns3:atemp>
          </ns3:TrackPointExtension>
        </extensions>
      </trkpt>
      <trkpt lat="42.518909387290477752685546875" lon="19.762854315340518951416015625">
        <ele>1867</ele>
        <time>2026-06-18T09:24:27.000Z</time>
        <extensions>
          <ns3:TrackPointExtension>
            <ns3:atemp>19.0</ns3:atemp>
          </ns3:TrackPointExtension>
        </extensions>
      </trkpt>
      <trkpt lat="42.518893294036388397216796875" lon="19.76287518627941608428955078125">
        <ele>1867.199951171875</ele>
        <time>2026-06-18T09:24:28.000Z</time>
        <extensions>
          <ns3:TrackPointExtension>
            <ns3:atemp>19.0</ns3:atemp>
          </ns3:TrackPointExtension>
        </extensions>
      </trkpt>
      <trkpt lat="42.51888851635158061981201171875" lon="19.7628699056804180145263671875">
        <ele>1867.4000244140625</ele>
        <time>2026-06-18T09:24:29.000Z</time>
        <extensions>
          <ns3:TrackPointExtension>
            <ns3:atemp>19.0</ns3:atemp>
          </ns3:TrackPointExtension>
        </extensions>
      </trkpt>
      <trkpt lat="42.518889605998992919921875" lon="19.762863703072071075439453125">
        <ele>1867.800048828125</ele>
        <time>2026-06-18T09:24:30.000Z</time>
        <extensions>
          <ns3:TrackPointExtension>
            <ns3:atemp>19.0</ns3:atemp>
          </ns3:TrackPointExtension>
        </extensions>
      </trkpt>
      <trkpt lat="42.518889605998992919921875" lon="19.762863703072071075439453125">
        <ele>1868.199951171875</ele>
        <time>2026-06-18T09:24:31.000Z</time>
        <extensions>
          <ns3:TrackPointExtension>
            <ns3:atemp>19.0</ns3:atemp>
          </ns3:TrackPointExtension>
        </extensions>
      </trkpt>
      <trkpt lat="42.518889605998992919921875" lon="19.762863703072071075439453125">
        <ele>1868.4000244140625</ele>
        <time>2026-06-18T09:24:32.000Z</time>
        <extensions>
          <ns3:TrackPointExtension>
            <ns3:atemp>19.0</ns3:atemp>
          </ns3:TrackPointExtension>
        </extensions>
      </trkpt>
      <trkpt lat="42.518889605998992919921875" lon="19.762863703072071075439453125">
        <ele>1868.5999755859375</ele>
        <time>2026-06-18T09:24:33.000Z</time>
        <extensions>
          <ns3:TrackPointExtension>
            <ns3:atemp>19.0</ns3:atemp>
          </ns3:TrackPointExtension>
        </extensions>
      </trkpt>
      <trkpt lat="42.518889605998992919921875" lon="19.762863703072071075439453125">
        <ele>1868.5999755859375</ele>
        <time>2026-06-18T09:24:34.000Z</time>
        <extensions>
          <ns3:TrackPointExtension>
            <ns3:atemp>19.0</ns3:atemp>
          </ns3:TrackPointExtension>
        </extensions>
      </trkpt>
      <trkpt lat="42.518889605998992919921875" lon="19.762863703072071075439453125">
        <ele>1868.5999755859375</ele>
        <time>2026-06-18T09:24:35.000Z</time>
        <extensions>
          <ns3:TrackPointExtension>
            <ns3:atemp>19.0</ns3:atemp>
          </ns3:TrackPointExtension>
        </extensions>
      </trkpt>
      <trkpt lat="42.518889605998992919921875" lon="19.762863703072071075439453125">
        <ele>1868.5999755859375</ele>
        <time>2026-06-18T09:24:36.000Z</time>
        <extensions>
          <ns3:TrackPointExtension>
            <ns3:atemp>19.0</ns3:atemp>
          </ns3:TrackPointExtension>
        </extensions>
      </trkpt>
      <trkpt lat="42.518889605998992919921875" lon="19.762863703072071075439453125">
        <ele>1868.5999755859375</ele>
        <time>2026-06-18T09:24:37.000Z</time>
        <extensions>
          <ns3:TrackPointExtension>
            <ns3:atemp>19.0</ns3:atemp>
          </ns3:TrackPointExtension>
        </extensions>
      </trkpt>
      <trkpt lat="42.518889605998992919921875" lon="19.762863703072071075439453125">
        <ele>1868.5999755859375</ele>
        <time>2026-06-18T09:24:38.000Z</time>
        <extensions>
          <ns3:TrackPointExtension>
            <ns3:atemp>19.0</ns3:atemp>
          </ns3:TrackPointExtension>
        </extensions>
      </trkpt>
      <trkpt lat="42.518889605998992919921875" lon="19.762863703072071075439453125">
        <ele>1868.4000244140625</ele>
        <time>2026-06-18T09:24:39.000Z</time>
        <extensions>
          <ns3:TrackPointExtension>
            <ns3:atemp>19.0</ns3:atemp>
          </ns3:TrackPointExtension>
        </extensions>
      </trkpt>
      <trkpt lat="42.518889605998992919921875" lon="19.762863703072071075439453125">
        <ele>1868.4000244140625</ele>
        <time>2026-06-18T09:24:40.000Z</time>
        <extensions>
          <ns3:TrackPointExtension>
            <ns3:atemp>19.0</ns3:atemp>
          </ns3:TrackPointExtension>
        </extensions>
      </trkpt>
      <trkpt lat="42.518889605998992919921875" lon="19.762863703072071075439453125">
        <ele>1868.4000244140625</ele>
        <time>2026-06-18T09:24:41.000Z</time>
        <extensions>
          <ns3:TrackPointExtension>
            <ns3:atemp>19.0</ns3:atemp>
          </ns3:TrackPointExtension>
        </extensions>
      </trkpt>
      <trkpt lat="42.518889605998992919921875" lon="19.762863703072071075439453125">
        <ele>1868.4000244140625</ele>
        <time>2026-06-18T09:24:42.000Z</time>
        <extensions>
          <ns3:TrackPointExtension>
            <ns3:atemp>19.0</ns3:atemp>
          </ns3:TrackPointExtension>
        </extensions>
      </trkpt>
      <trkpt lat="42.518889605998992919921875" lon="19.762863703072071075439453125">
        <ele>1868.4000244140625</ele>
        <time>2026-06-18T09:24:43.000Z</time>
        <extensions>
          <ns3:TrackPointExtension>
            <ns3:atemp>19.0</ns3:atemp>
          </ns3:TrackPointExtension>
        </extensions>
      </trkpt>
      <trkpt lat="42.518889605998992919921875" lon="19.762863703072071075439453125">
        <ele>1868.4000244140625</ele>
        <time>2026-06-18T09:24:44.000Z</time>
        <extensions>
          <ns3:TrackPointExtension>
            <ns3:atemp>19.0</ns3:atemp>
          </ns3:TrackPointExtension>
        </extensions>
      </trkpt>
      <trkpt lat="42.518889605998992919921875" lon="19.762863703072071075439453125">
        <ele>1868.199951171875</ele>
        <time>2026-06-18T09:24:45.000Z</time>
        <extensions>
          <ns3:TrackPointExtension>
            <ns3:atemp>19.0</ns3:atemp>
          </ns3:TrackPointExtension>
        </extensions>
      </trkpt>
      <trkpt lat="42.518889605998992919921875" lon="19.762863703072071075439453125">
        <ele>1868.199951171875</ele>
        <time>2026-06-18T09:24:46.000Z</time>
        <extensions>
          <ns3:TrackPointExtension>
            <ns3:atemp>19.0</ns3:atemp>
          </ns3:TrackPointExtension>
        </extensions>
      </trkpt>
      <trkpt lat="42.518889605998992919921875" lon="19.762863703072071075439453125">
        <ele>1868.199951171875</ele>
        <time>2026-06-18T09:24:47.000Z</time>
        <extensions>
          <ns3:TrackPointExtension>
            <ns3:atemp>19.0</ns3:atemp>
          </ns3:TrackPointExtension>
        </extensions>
      </trkpt>
      <trkpt lat="42.518889605998992919921875" lon="19.762863703072071075439453125">
        <ele>1868.199951171875</ele>
        <time>2026-06-18T09:24:48.000Z</time>
        <extensions>
          <ns3:TrackPointExtension>
            <ns3:atemp>19.0</ns3:atemp>
          </ns3:TrackPointExtension>
        </extensions>
      </trkpt>
      <trkpt lat="42.518889605998992919921875" lon="19.762863703072071075439453125">
        <ele>1868.199951171875</ele>
        <time>2026-06-18T09:24:49.000Z</time>
        <extensions>
          <ns3:TrackPointExtension>
            <ns3:atemp>19.0</ns3:atemp>
          </ns3:TrackPointExtension>
        </extensions>
      </trkpt>
      <trkpt lat="42.518889605998992919921875" lon="19.762863703072071075439453125">
        <ele>1868.199951171875</ele>
        <time>2026-06-18T09:24:50.000Z</time>
        <extensions>
          <ns3:TrackPointExtension>
            <ns3:atemp>19.0</ns3:atemp>
          </ns3:TrackPointExtension>
        </extensions>
      </trkpt>
      <trkpt lat="42.518889605998992919921875" lon="19.762863703072071075439453125">
        <ele>1868.199951171875</ele>
        <time>2026-06-18T09:24:51.000Z</time>
        <extensions>
          <ns3:TrackPointExtension>
            <ns3:atemp>19.0</ns3:atemp>
          </ns3:TrackPointExtension>
        </extensions>
      </trkpt>
      <trkpt lat="42.518889605998992919921875" lon="19.762863703072071075439453125">
        <ele>1868.199951171875</ele>
        <time>2026-06-18T09:24:52.000Z</time>
        <extensions>
          <ns3:TrackPointExtension>
            <ns3:atemp>19.0</ns3:atemp>
          </ns3:TrackPointExtension>
        </extensions>
      </trkpt>
      <trkpt lat="42.518889605998992919921875" lon="19.762863703072071075439453125">
        <ele>1868</ele>
        <time>2026-06-18T09:24:53.000Z</time>
        <extensions>
          <ns3:TrackPointExtension>
            <ns3:atemp>19.0</ns3:atemp>
          </ns3:TrackPointExtension>
        </extensions>
      </trkpt>
      <trkpt lat="42.518889605998992919921875" lon="19.762863703072071075439453125">
        <ele>1868</ele>
        <time>2026-06-18T09:24:54.000Z</time>
        <extensions>
          <ns3:TrackPointExtension>
            <ns3:atemp>19.0</ns3:atemp>
          </ns3:TrackPointExtension>
        </extensions>
      </trkpt>
      <trkpt lat="42.518889605998992919921875" lon="19.762863703072071075439453125">
        <ele>1867.800048828125</ele>
        <time>2026-06-18T09:24:55.000Z</time>
        <extensions>
          <ns3:TrackPointExtension>
            <ns3:atemp>19.0</ns3:atemp>
          </ns3:TrackPointExtension>
        </extensions>
      </trkpt>
      <trkpt lat="42.518889605998992919921875" lon="19.762863703072071075439453125">
        <ele>1867.800048828125</ele>
        <time>2026-06-18T09:24:56.000Z</time>
        <extensions>
          <ns3:TrackPointExtension>
            <ns3:atemp>19.0</ns3:atemp>
          </ns3:TrackPointExtension>
        </extensions>
      </trkpt>
      <trkpt lat="42.518889605998992919921875" lon="19.762863703072071075439453125">
        <ele>1867.800048828125</ele>
        <time>2026-06-18T09:24:57.000Z</time>
        <extensions>
          <ns3:TrackPointExtension>
            <ns3:atemp>19.0</ns3:atemp>
          </ns3:TrackPointExtension>
        </extensions>
      </trkpt>
      <trkpt lat="42.518889605998992919921875" lon="19.762863703072071075439453125">
        <ele>1867.800048828125</ele>
        <time>2026-06-18T09:24:58.000Z</time>
        <extensions>
          <ns3:TrackPointExtension>
            <ns3:atemp>19.0</ns3:atemp>
          </ns3:TrackPointExtension>
        </extensions>
      </trkpt>
      <trkpt lat="42.518889605998992919921875" lon="19.762863703072071075439453125">
        <ele>1867.800048828125</ele>
        <time>2026-06-18T09:24:59.000Z</time>
        <extensions>
          <ns3:TrackPointExtension>
            <ns3:atemp>19.0</ns3:atemp>
          </ns3:TrackPointExtension>
        </extensions>
      </trkpt>
      <trkpt lat="42.518889605998992919921875" lon="19.762863703072071075439453125">
        <ele>1868</ele>
        <time>2026-06-18T09:25:00.000Z</time>
        <extensions>
          <ns3:TrackPointExtension>
            <ns3:atemp>19.0</ns3:atemp>
          </ns3:TrackPointExtension>
        </extensions>
      </trkpt>
      <trkpt lat="42.518889605998992919921875" lon="19.762863703072071075439453125">
        <ele>1868</ele>
        <time>2026-06-18T09:25:01.000Z</time>
        <extensions>
          <ns3:TrackPointExtension>
            <ns3:atemp>19.0</ns3:atemp>
          </ns3:TrackPointExtension>
        </extensions>
      </trkpt>
      <trkpt lat="42.518889605998992919921875" lon="19.762863703072071075439453125">
        <ele>1868</ele>
        <time>2026-06-18T09:25:02.000Z</time>
        <extensions>
          <ns3:TrackPointExtension>
            <ns3:atemp>19.0</ns3:atemp>
          </ns3:TrackPointExtension>
        </extensions>
      </trkpt>
      <trkpt lat="42.518889605998992919921875" lon="19.762863703072071075439453125">
        <ele>1868</ele>
        <time>2026-06-18T09:25:03.000Z</time>
        <extensions>
          <ns3:TrackPointExtension>
            <ns3:atemp>19.0</ns3:atemp>
          </ns3:TrackPointExtension>
        </extensions>
      </trkpt>
      <trkpt lat="42.518889605998992919921875" lon="19.762863703072071075439453125">
        <ele>1868.199951171875</ele>
        <time>2026-06-18T09:25:04.000Z</time>
        <extensions>
          <ns3:TrackPointExtension>
            <ns3:atemp>19.0</ns3:atemp>
          </ns3:TrackPointExtension>
        </extensions>
      </trkpt>
      <trkpt lat="42.518889605998992919921875" lon="19.762863703072071075439453125">
        <ele>1868.199951171875</ele>
        <time>2026-06-18T09:25:05.000Z</time>
        <extensions>
          <ns3:TrackPointExtension>
            <ns3:atemp>19.0</ns3:atemp>
          </ns3:TrackPointExtension>
        </extensions>
      </trkpt>
      <trkpt lat="42.518889605998992919921875" lon="19.762863703072071075439453125">
        <ele>1868.199951171875</ele>
        <time>2026-06-18T09:25:06.000Z</time>
        <extensions>
          <ns3:TrackPointExtension>
            <ns3:atemp>19.0</ns3:atemp>
          </ns3:TrackPointExtension>
        </extensions>
      </trkpt>
      <trkpt lat="42.518889605998992919921875" lon="19.762863703072071075439453125">
        <ele>1868.4000244140625</ele>
        <time>2026-06-18T09:25:07.000Z</time>
        <extensions>
          <ns3:TrackPointExtension>
            <ns3:atemp>19.0</ns3:atemp>
          </ns3:TrackPointExtension>
        </extensions>
      </trkpt>
      <trkpt lat="42.518889605998992919921875" lon="19.762863703072071075439453125">
        <ele>1868.4000244140625</ele>
        <time>2026-06-18T09:25:08.000Z</time>
        <extensions>
          <ns3:TrackPointExtension>
            <ns3:atemp>19.0</ns3:atemp>
          </ns3:TrackPointExtension>
        </extensions>
      </trkpt>
      <trkpt lat="42.518889605998992919921875" lon="19.762863703072071075439453125">
        <ele>1868.4000244140625</ele>
        <time>2026-06-18T09:25:09.000Z</time>
        <extensions>
          <ns3:TrackPointExtension>
            <ns3:atemp>19.0</ns3:atemp>
          </ns3:TrackPointExtension>
        </extensions>
      </trkpt>
      <trkpt lat="42.518889605998992919921875" lon="19.762863703072071075439453125">
        <ele>1868.4000244140625</ele>
        <time>2026-06-18T09:25:10.000Z</time>
        <extensions>
          <ns3:TrackPointExtension>
            <ns3:atemp>19.0</ns3:atemp>
          </ns3:TrackPointExtension>
        </extensions>
      </trkpt>
      <trkpt lat="42.518889605998992919921875" lon="19.762863703072071075439453125">
        <ele>1868.4000244140625</ele>
        <time>2026-06-18T09:25:11.000Z</time>
        <extensions>
          <ns3:TrackPointExtension>
            <ns3:atemp>19.0</ns3:atemp>
          </ns3:TrackPointExtension>
        </extensions>
      </trkpt>
      <trkpt lat="42.518889605998992919921875" lon="19.762863703072071075439453125">
        <ele>1868.199951171875</ele>
        <time>2026-06-18T09:25:12.000Z</time>
        <extensions>
          <ns3:TrackPointExtension>
            <ns3:atemp>19.0</ns3:atemp>
          </ns3:TrackPointExtension>
        </extensions>
      </trkpt>
      <trkpt lat="42.518889605998992919921875" lon="19.762863703072071075439453125">
        <ele>1868.199951171875</ele>
        <time>2026-06-18T09:25:13.000Z</time>
        <extensions>
          <ns3:TrackPointExtension>
            <ns3:atemp>19.0</ns3:atemp>
          </ns3:TrackPointExtension>
        </extensions>
      </trkpt>
      <trkpt lat="42.518889605998992919921875" lon="19.762863703072071075439453125">
        <ele>1868.199951171875</ele>
        <time>2026-06-18T09:25:14.000Z</time>
        <extensions>
          <ns3:TrackPointExtension>
            <ns3:atemp>19.0</ns3:atemp>
          </ns3:TrackPointExtension>
        </extensions>
      </trkpt>
      <trkpt lat="42.518889605998992919921875" lon="19.762863703072071075439453125">
        <ele>1868.199951171875</ele>
        <time>2026-06-18T09:25:15.000Z</time>
        <extensions>
          <ns3:TrackPointExtension>
            <ns3:atemp>19.0</ns3:atemp>
          </ns3:TrackPointExtension>
        </extensions>
      </trkpt>
      <trkpt lat="42.518889605998992919921875" lon="19.762863703072071075439453125">
        <ele>1868.199951171875</ele>
        <time>2026-06-18T09:25:16.000Z</time>
        <extensions>
          <ns3:TrackPointExtension>
            <ns3:atemp>19.0</ns3:atemp>
          </ns3:TrackPointExtension>
        </extensions>
      </trkpt>
      <trkpt lat="42.518889605998992919921875" lon="19.762863703072071075439453125">
        <ele>1868.199951171875</ele>
        <time>2026-06-18T09:25:17.000Z</time>
        <extensions>
          <ns3:TrackPointExtension>
            <ns3:atemp>19.0</ns3:atemp>
          </ns3:TrackPointExtension>
        </extensions>
      </trkpt>
      <trkpt lat="42.518889605998992919921875" lon="19.762863703072071075439453125">
        <ele>1868.199951171875</ele>
        <time>2026-06-18T09:25:18.000Z</time>
        <extensions>
          <ns3:TrackPointExtension>
            <ns3:atemp>19.0</ns3:atemp>
          </ns3:TrackPointExtension>
        </extensions>
      </trkpt>
      <trkpt lat="42.518889605998992919921875" lon="19.762863703072071075439453125">
        <ele>1868.199951171875</ele>
        <time>2026-06-18T09:25:19.000Z</time>
        <extensions>
          <ns3:TrackPointExtension>
            <ns3:atemp>19.0</ns3:atemp>
          </ns3:TrackPointExtension>
        </extensions>
      </trkpt>
      <trkpt lat="42.518889605998992919921875" lon="19.762863703072071075439453125">
        <ele>1868.199951171875</ele>
        <time>2026-06-18T09:25:20.000Z</time>
        <extensions>
          <ns3:TrackPointExtension>
            <ns3:atemp>19.0</ns3:atemp>
          </ns3:TrackPointExtension>
        </extensions>
      </trkpt>
      <trkpt lat="42.518889605998992919921875" lon="19.762863703072071075439453125">
        <ele>1868.199951171875</ele>
        <time>2026-06-18T09:25:21.000Z</time>
        <extensions>
          <ns3:TrackPointExtension>
            <ns3:atemp>19.0</ns3:atemp>
          </ns3:TrackPointExtension>
        </extensions>
      </trkpt>
      <trkpt lat="42.518889605998992919921875" lon="19.762863703072071075439453125">
        <ele>1868.199951171875</ele>
        <time>2026-06-18T09:25:22.000Z</time>
        <extensions>
          <ns3:TrackPointExtension>
            <ns3:atemp>19.0</ns3:atemp>
          </ns3:TrackPointExtension>
        </extensions>
      </trkpt>
      <trkpt lat="42.518889605998992919921875" lon="19.762863703072071075439453125">
        <ele>1868.199951171875</ele>
        <time>2026-06-18T09:25:23.000Z</time>
        <extensions>
          <ns3:TrackPointExtension>
            <ns3:atemp>19.0</ns3:atemp>
          </ns3:TrackPointExtension>
        </extensions>
      </trkpt>
      <trkpt lat="42.518889605998992919921875" lon="19.762863703072071075439453125">
        <ele>1868.199951171875</ele>
        <time>2026-06-18T09:25:24.000Z</time>
        <extensions>
          <ns3:TrackPointExtension>
            <ns3:atemp>19.0</ns3:atemp>
          </ns3:TrackPointExtension>
        </extensions>
      </trkpt>
      <trkpt lat="42.518889605998992919921875" lon="19.762863703072071075439453125">
        <ele>1868.199951171875</ele>
        <time>2026-06-18T09:25:25.000Z</time>
        <extensions>
          <ns3:TrackPointExtension>
            <ns3:atemp>19.0</ns3:atemp>
          </ns3:TrackPointExtension>
        </extensions>
      </trkpt>
      <trkpt lat="42.518889605998992919921875" lon="19.762863703072071075439453125">
        <ele>1868.199951171875</ele>
        <time>2026-06-18T09:25:26.000Z</time>
        <extensions>
          <ns3:TrackPointExtension>
            <ns3:atemp>19.0</ns3:atemp>
          </ns3:TrackPointExtension>
        </extensions>
      </trkpt>
      <trkpt lat="42.518889605998992919921875" lon="19.762863703072071075439453125">
        <ele>1868</ele>
        <time>2026-06-18T09:25:27.000Z</time>
        <extensions>
          <ns3:TrackPointExtension>
            <ns3:atemp>19.0</ns3:atemp>
          </ns3:TrackPointExtension>
        </extensions>
      </trkpt>
      <trkpt lat="42.518889605998992919921875" lon="19.762863703072071075439453125">
        <ele>1867.800048828125</ele>
        <time>2026-06-18T09:25:28.000Z</time>
        <extensions>
          <ns3:TrackPointExtension>
            <ns3:atemp>19.0</ns3:atemp>
          </ns3:TrackPointExtension>
        </extensions>
      </trkpt>
      <trkpt lat="42.518889605998992919921875" lon="19.762863703072071075439453125">
        <ele>1867.800048828125</ele>
        <time>2026-06-18T09:25:29.000Z</time>
        <extensions>
          <ns3:TrackPointExtension>
            <ns3:atemp>19.0</ns3:atemp>
          </ns3:TrackPointExtension>
        </extensions>
      </trkpt>
      <trkpt lat="42.518889605998992919921875" lon="19.762863703072071075439453125">
        <ele>1867.5999755859375</ele>
        <time>2026-06-18T09:25:30.000Z</time>
        <extensions>
          <ns3:TrackPointExtension>
            <ns3:atemp>19.0</ns3:atemp>
          </ns3:TrackPointExtension>
        </extensions>
      </trkpt>
      <trkpt lat="42.518889605998992919921875" lon="19.762863703072071075439453125">
        <ele>1867.5999755859375</ele>
        <time>2026-06-18T09:25:31.000Z</time>
        <extensions>
          <ns3:TrackPointExtension>
            <ns3:atemp>19.0</ns3:atemp>
          </ns3:TrackPointExtension>
        </extensions>
      </trkpt>
      <trkpt lat="42.518889605998992919921875" lon="19.762863703072071075439453125">
        <ele>1867.5999755859375</ele>
        <time>2026-06-18T09:25:32.000Z</time>
        <extensions>
          <ns3:TrackPointExtension>
            <ns3:atemp>19.0</ns3:atemp>
          </ns3:TrackPointExtension>
        </extensions>
      </trkpt>
      <trkpt lat="42.518889605998992919921875" lon="19.762863703072071075439453125">
        <ele>1867.800048828125</ele>
        <time>2026-06-18T09:25:33.000Z</time>
        <extensions>
          <ns3:TrackPointExtension>
            <ns3:atemp>19.0</ns3:atemp>
          </ns3:TrackPointExtension>
        </extensions>
      </trkpt>
      <trkpt lat="42.518889605998992919921875" lon="19.762863703072071075439453125">
        <ele>1867.800048828125</ele>
        <time>2026-06-18T09:25:34.000Z</time>
        <extensions>
          <ns3:TrackPointExtension>
            <ns3:atemp>19.0</ns3:atemp>
          </ns3:TrackPointExtension>
        </extensions>
      </trkpt>
      <trkpt lat="42.518889605998992919921875" lon="19.762863703072071075439453125">
        <ele>1868</ele>
        <time>2026-06-18T09:25:35.000Z</time>
        <extensions>
          <ns3:TrackPointExtension>
            <ns3:atemp>19.0</ns3:atemp>
          </ns3:TrackPointExtension>
        </extensions>
      </trkpt>
      <trkpt lat="42.518889605998992919921875" lon="19.762863703072071075439453125">
        <ele>1868</ele>
        <time>2026-06-18T09:25:36.000Z</time>
        <extensions>
          <ns3:TrackPointExtension>
            <ns3:atemp>19.0</ns3:atemp>
          </ns3:TrackPointExtension>
        </extensions>
      </trkpt>
      <trkpt lat="42.518889605998992919921875" lon="19.762863703072071075439453125">
        <ele>1868</ele>
        <time>2026-06-18T09:25:37.000Z</time>
        <extensions>
          <ns3:TrackPointExtension>
            <ns3:atemp>19.0</ns3:atemp>
          </ns3:TrackPointExtension>
        </extensions>
      </trkpt>
      <trkpt lat="42.518889605998992919921875" lon="19.762863703072071075439453125">
        <ele>1868.199951171875</ele>
        <time>2026-06-18T09:25:38.000Z</time>
        <extensions>
          <ns3:TrackPointExtension>
            <ns3:atemp>19.0</ns3:atemp>
          </ns3:TrackPointExtension>
        </extensions>
      </trkpt>
      <trkpt lat="42.518889605998992919921875" lon="19.762863703072071075439453125">
        <ele>1868.199951171875</ele>
        <time>2026-06-18T09:25:39.000Z</time>
        <extensions>
          <ns3:TrackPointExtension>
            <ns3:atemp>19.0</ns3:atemp>
          </ns3:TrackPointExtension>
        </extensions>
      </trkpt>
      <trkpt lat="42.518889605998992919921875" lon="19.762863703072071075439453125">
        <ele>1868.199951171875</ele>
        <time>2026-06-18T09:25:40.000Z</time>
        <extensions>
          <ns3:TrackPointExtension>
            <ns3:atemp>19.0</ns3:atemp>
          </ns3:TrackPointExtension>
        </extensions>
      </trkpt>
      <trkpt lat="42.518889605998992919921875" lon="19.762863703072071075439453125">
        <ele>1868.4000244140625</ele>
        <time>2026-06-18T09:25:41.000Z</time>
        <extensions>
          <ns3:TrackPointExtension>
            <ns3:atemp>19.0</ns3:atemp>
          </ns3:TrackPointExtension>
        </extensions>
      </trkpt>
      <trkpt lat="42.518889605998992919921875" lon="19.762863703072071075439453125">
        <ele>1868.4000244140625</ele>
        <time>2026-06-18T09:25:42.000Z</time>
        <extensions>
          <ns3:TrackPointExtension>
            <ns3:atemp>19.0</ns3:atemp>
          </ns3:TrackPointExtension>
        </extensions>
      </trkpt>
      <trkpt lat="42.518889605998992919921875" lon="19.762863703072071075439453125">
        <ele>1868.5999755859375</ele>
        <time>2026-06-18T09:25:43.000Z</time>
        <extensions>
          <ns3:TrackPointExtension>
            <ns3:atemp>19.0</ns3:atemp>
          </ns3:TrackPointExtension>
        </extensions>
      </trkpt>
      <trkpt lat="42.518889605998992919921875" lon="19.762863703072071075439453125">
        <ele>1868.5999755859375</ele>
        <time>2026-06-18T09:25:44.000Z</time>
        <extensions>
          <ns3:TrackPointExtension>
            <ns3:atemp>19.0</ns3:atemp>
          </ns3:TrackPointExtension>
        </extensions>
      </trkpt>
      <trkpt lat="42.518889605998992919921875" lon="19.762863703072071075439453125">
        <ele>1868.5999755859375</ele>
        <time>2026-06-18T09:25:45.000Z</time>
        <extensions>
          <ns3:TrackPointExtension>
            <ns3:atemp>19.0</ns3:atemp>
          </ns3:TrackPointExtension>
        </extensions>
      </trkpt>
      <trkpt lat="42.518889605998992919921875" lon="19.762863703072071075439453125">
        <ele>1868.800048828125</ele>
        <time>2026-06-18T09:25:46.000Z</time>
        <extensions>
          <ns3:TrackPointExtension>
            <ns3:atemp>19.0</ns3:atemp>
          </ns3:TrackPointExtension>
        </extensions>
      </trkpt>
      <trkpt lat="42.518889605998992919921875" lon="19.762863703072071075439453125">
        <ele>1868.800048828125</ele>
        <time>2026-06-18T09:25:47.000Z</time>
        <extensions>
          <ns3:TrackPointExtension>
            <ns3:atemp>19.0</ns3:atemp>
          </ns3:TrackPointExtension>
        </extensions>
      </trkpt>
      <trkpt lat="42.518889605998992919921875" lon="19.762863703072071075439453125">
        <ele>1868.800048828125</ele>
        <time>2026-06-18T09:25:48.000Z</time>
        <extensions>
          <ns3:TrackPointExtension>
            <ns3:atemp>19.0</ns3:atemp>
          </ns3:TrackPointExtension>
        </extensions>
      </trkpt>
      <trkpt lat="42.518889605998992919921875" lon="19.762863703072071075439453125">
        <ele>1868.5999755859375</ele>
        <time>2026-06-18T09:25:49.000Z</time>
        <extensions>
          <ns3:TrackPointExtension>
            <ns3:atemp>19.0</ns3:atemp>
          </ns3:TrackPointExtension>
        </extensions>
      </trkpt>
      <trkpt lat="42.518889605998992919921875" lon="19.762863703072071075439453125">
        <ele>1868.5999755859375</ele>
        <time>2026-06-18T09:25:50.000Z</time>
        <extensions>
          <ns3:TrackPointExtension>
            <ns3:atemp>19.0</ns3:atemp>
          </ns3:TrackPointExtension>
        </extensions>
      </trkpt>
      <trkpt lat="42.518889605998992919921875" lon="19.762863703072071075439453125">
        <ele>1868.5999755859375</ele>
        <time>2026-06-18T09:25:51.000Z</time>
        <extensions>
          <ns3:TrackPointExtension>
            <ns3:atemp>19.0</ns3:atemp>
          </ns3:TrackPointExtension>
        </extensions>
      </trkpt>
      <trkpt lat="42.518889605998992919921875" lon="19.762863703072071075439453125">
        <ele>1868.4000244140625</ele>
        <time>2026-06-18T09:25:52.000Z</time>
        <extensions>
          <ns3:TrackPointExtension>
            <ns3:atemp>19.0</ns3:atemp>
          </ns3:TrackPointExtension>
        </extensions>
      </trkpt>
      <trkpt lat="42.518889605998992919921875" lon="19.762863703072071075439453125">
        <ele>1868.4000244140625</ele>
        <time>2026-06-18T09:25:53.000Z</time>
        <extensions>
          <ns3:TrackPointExtension>
            <ns3:atemp>19.0</ns3:atemp>
          </ns3:TrackPointExtension>
        </extensions>
      </trkpt>
      <trkpt lat="42.518889605998992919921875" lon="19.762863703072071075439453125">
        <ele>1868.199951171875</ele>
        <time>2026-06-18T09:25:54.000Z</time>
        <extensions>
          <ns3:TrackPointExtension>
            <ns3:atemp>19.0</ns3:atemp>
          </ns3:TrackPointExtension>
        </extensions>
      </trkpt>
      <trkpt lat="42.518889605998992919921875" lon="19.762863703072071075439453125">
        <ele>1868</ele>
        <time>2026-06-18T09:25:55.000Z</time>
        <extensions>
          <ns3:TrackPointExtension>
            <ns3:atemp>19.0</ns3:atemp>
          </ns3:TrackPointExtension>
        </extensions>
      </trkpt>
      <trkpt lat="42.518889605998992919921875" lon="19.762863703072071075439453125">
        <ele>1868</ele>
        <time>2026-06-18T09:25:56.000Z</time>
        <extensions>
          <ns3:TrackPointExtension>
            <ns3:atemp>19.0</ns3:atemp>
          </ns3:TrackPointExtension>
        </extensions>
      </trkpt>
      <trkpt lat="42.518889605998992919921875" lon="19.762863703072071075439453125">
        <ele>1868</ele>
        <time>2026-06-18T09:25:57.000Z</time>
        <extensions>
          <ns3:TrackPointExtension>
            <ns3:atemp>19.0</ns3:atemp>
          </ns3:TrackPointExtension>
        </extensions>
      </trkpt>
      <trkpt lat="42.518889605998992919921875" lon="19.762863703072071075439453125">
        <ele>1868</ele>
        <time>2026-06-18T09:25:58.000Z</time>
        <extensions>
          <ns3:TrackPointExtension>
            <ns3:atemp>19.0</ns3:atemp>
          </ns3:TrackPointExtension>
        </extensions>
      </trkpt>
      <trkpt lat="42.518889605998992919921875" lon="19.762863703072071075439453125">
        <ele>1868</ele>
        <time>2026-06-18T09:25:59.000Z</time>
        <extensions>
          <ns3:TrackPointExtension>
            <ns3:atemp>19.0</ns3:atemp>
          </ns3:TrackPointExtension>
        </extensions>
      </trkpt>
      <trkpt lat="42.518889605998992919921875" lon="19.762863703072071075439453125">
        <ele>1868</ele>
        <time>2026-06-18T09:26:00.000Z</time>
        <extensions>
          <ns3:TrackPointExtension>
            <ns3:atemp>19.0</ns3:atemp>
          </ns3:TrackPointExtension>
        </extensions>
      </trkpt>
      <trkpt lat="42.518889605998992919921875" lon="19.762863703072071075439453125">
        <ele>1868</ele>
        <time>2026-06-18T09:26:01.000Z</time>
        <extensions>
          <ns3:TrackPointExtension>
            <ns3:atemp>19.0</ns3:atemp>
          </ns3:TrackPointExtension>
        </extensions>
      </trkpt>
      <trkpt lat="42.518889605998992919921875" lon="19.762863703072071075439453125">
        <ele>1868</ele>
        <time>2026-06-18T09:26:02.000Z</time>
        <extensions>
          <ns3:TrackPointExtension>
            <ns3:atemp>19.0</ns3:atemp>
          </ns3:TrackPointExtension>
        </extensions>
      </trkpt>
      <trkpt lat="42.518889605998992919921875" lon="19.762863703072071075439453125">
        <ele>1868</ele>
        <time>2026-06-18T09:26:03.000Z</time>
        <extensions>
          <ns3:TrackPointExtension>
            <ns3:atemp>19.0</ns3:atemp>
          </ns3:TrackPointExtension>
        </extensions>
      </trkpt>
      <trkpt lat="42.518889605998992919921875" lon="19.762863703072071075439453125">
        <ele>1868</ele>
        <time>2026-06-18T09:26:04.000Z</time>
        <extensions>
          <ns3:TrackPointExtension>
            <ns3:atemp>19.0</ns3:atemp>
          </ns3:TrackPointExtension>
        </extensions>
      </trkpt>
      <trkpt lat="42.518889605998992919921875" lon="19.762863703072071075439453125">
        <ele>1868</ele>
        <time>2026-06-18T09:26:05.000Z</time>
        <extensions>
          <ns3:TrackPointExtension>
            <ns3:atemp>19.0</ns3:atemp>
          </ns3:TrackPointExtension>
        </extensions>
      </trkpt>
      <trkpt lat="42.518889605998992919921875" lon="19.762863703072071075439453125">
        <ele>1868</ele>
        <time>2026-06-18T09:26:06.000Z</time>
        <extensions>
          <ns3:TrackPointExtension>
            <ns3:atemp>19.0</ns3:atemp>
          </ns3:TrackPointExtension>
        </extensions>
      </trkpt>
      <trkpt lat="42.518889605998992919921875" lon="19.762863703072071075439453125">
        <ele>1868</ele>
        <time>2026-06-18T09:26:07.000Z</time>
        <extensions>
          <ns3:TrackPointExtension>
            <ns3:atemp>19.0</ns3:atemp>
          </ns3:TrackPointExtension>
        </extensions>
      </trkpt>
      <trkpt lat="42.518889605998992919921875" lon="19.762863703072071075439453125">
        <ele>1868</ele>
        <time>2026-06-18T09:26:08.000Z</time>
        <extensions>
          <ns3:TrackPointExtension>
            <ns3:atemp>19.0</ns3:atemp>
          </ns3:TrackPointExtension>
        </extensions>
      </trkpt>
      <trkpt lat="42.518889605998992919921875" lon="19.762863703072071075439453125">
        <ele>1868</ele>
        <time>2026-06-18T09:26:09.000Z</time>
        <extensions>
          <ns3:TrackPointExtension>
            <ns3:atemp>19.0</ns3:atemp>
          </ns3:TrackPointExtension>
        </extensions>
      </trkpt>
      <trkpt lat="42.5188901089131832122802734375" lon="19.76286613382399082183837890625">
        <ele>1868</ele>
        <time>2026-06-18T09:26:10.000Z</time>
        <extensions>
          <ns3:TrackPointExtension>
            <ns3:atemp>19.0</ns3:atemp>
          </ns3:TrackPointExtension>
        </extensions>
      </trkpt>
      <trkpt lat="42.51888231374323368072509765625" lon="19.7628725878894329071044921875">
        <ele>1868</ele>
        <time>2026-06-18T09:26:11.000Z</time>
        <extensions>
          <ns3:TrackPointExtension>
            <ns3:atemp>19.0</ns3:atemp>
          </ns3:TrackPointExtension>
        </extensions>
      </trkpt>
      <trkpt lat="42.5188736803829669952392578125" lon="19.7628792934119701385498046875">
        <ele>1868</ele>
        <time>2026-06-18T09:26:12.000Z</time>
        <extensions>
          <ns3:TrackPointExtension>
            <ns3:atemp>19.0</ns3:atemp>
          </ns3:TrackPointExtension>
        </extensions>
      </trkpt>
      <trkpt lat="42.51886772923171520233154296875" lon="19.76288524456322193145751953125">
        <ele>1868</ele>
        <time>2026-06-18T09:26:13.000Z</time>
        <extensions>
          <ns3:TrackPointExtension>
            <ns3:atemp>19.0</ns3:atemp>
          </ns3:TrackPointExtension>
        </extensions>
      </trkpt>
      <trkpt lat="42.518868483603000640869140625" lon="19.76288105361163616180419921875">
        <ele>1868</ele>
        <time>2026-06-18T09:26:14.000Z</time>
        <extensions>
          <ns3:TrackPointExtension>
            <ns3:atemp>19.0</ns3:atemp>
          </ns3:TrackPointExtension>
        </extensions>
      </trkpt>
      <trkpt lat="42.5188706628978252410888671875" lon="19.76288122124969959259033203125">
        <ele>1868</ele>
        <time>2026-06-18T09:26:15.000Z</time>
        <extensions>
          <ns3:TrackPointExtension>
            <ns3:atemp>19.0</ns3:atemp>
          </ns3:TrackPointExtension>
        </extensions>
      </trkpt>
      <trkpt lat="42.51887057907879352569580078125" lon="19.76288122124969959259033203125">
        <ele>1868</ele>
        <time>2026-06-18T09:26:16.000Z</time>
        <extensions>
          <ns3:TrackPointExtension>
            <ns3:atemp>19.0</ns3:atemp>
          </ns3:TrackPointExtension>
        </extensions>
      </trkpt>
      <trkpt lat="42.51887057907879352569580078125" lon="19.76288122124969959259033203125">
        <ele>1868</ele>
        <time>2026-06-18T09:26:17.000Z</time>
        <extensions>
          <ns3:TrackPointExtension>
            <ns3:atemp>19.0</ns3:atemp>
          </ns3:TrackPointExtension>
        </extensions>
      </trkpt>
      <trkpt lat="42.51887057907879352569580078125" lon="19.76288122124969959259033203125">
        <ele>1868</ele>
        <time>2026-06-18T09:26:18.000Z</time>
        <extensions>
          <ns3:TrackPointExtension>
            <ns3:atemp>19.0</ns3:atemp>
          </ns3:TrackPointExtension>
        </extensions>
      </trkpt>
      <trkpt lat="42.51887057907879352569580078125" lon="19.76288122124969959259033203125">
        <ele>1868</ele>
        <time>2026-06-18T09:26:19.000Z</time>
        <extensions>
          <ns3:TrackPointExtension>
            <ns3:atemp>19.0</ns3:atemp>
          </ns3:TrackPointExtension>
        </extensions>
      </trkpt>
      <trkpt lat="42.51887057907879352569580078125" lon="19.76288122124969959259033203125">
        <ele>1868</ele>
        <time>2026-06-18T09:26:20.000Z</time>
        <extensions>
          <ns3:TrackPointExtension>
            <ns3:atemp>19.0</ns3:atemp>
          </ns3:TrackPointExtension>
        </extensions>
      </trkpt>
      <trkpt lat="42.51887057907879352569580078125" lon="19.76288122124969959259033203125">
        <ele>1868</ele>
        <time>2026-06-18T09:26:21.000Z</time>
        <extensions>
          <ns3:TrackPointExtension>
            <ns3:atemp>19.0</ns3:atemp>
          </ns3:TrackPointExtension>
        </extensions>
      </trkpt>
      <trkpt lat="42.51887057907879352569580078125" lon="19.76288122124969959259033203125">
        <ele>1868</ele>
        <time>2026-06-18T09:26:22.000Z</time>
        <extensions>
          <ns3:TrackPointExtension>
            <ns3:atemp>19.0</ns3:atemp>
          </ns3:TrackPointExtension>
        </extensions>
      </trkpt>
      <trkpt lat="42.51887057907879352569580078125" lon="19.76288122124969959259033203125">
        <ele>1868</ele>
        <time>2026-06-18T09:26:23.000Z</time>
        <extensions>
          <ns3:TrackPointExtension>
            <ns3:atemp>19.0</ns3:atemp>
          </ns3:TrackPointExtension>
        </extensions>
      </trkpt>
      <trkpt lat="42.51887057907879352569580078125" lon="19.76288122124969959259033203125">
        <ele>1868</ele>
        <time>2026-06-18T09:26:24.000Z</time>
        <extensions>
          <ns3:TrackPointExtension>
            <ns3:atemp>19.0</ns3:atemp>
          </ns3:TrackPointExtension>
        </extensions>
      </trkpt>
      <trkpt lat="42.51887057907879352569580078125" lon="19.76288122124969959259033203125">
        <ele>1868</ele>
        <time>2026-06-18T09:26:25.000Z</time>
        <extensions>
          <ns3:TrackPointExtension>
            <ns3:atemp>19.0</ns3:atemp>
          </ns3:TrackPointExtension>
        </extensions>
      </trkpt>
      <trkpt lat="42.51887057907879352569580078125" lon="19.76288122124969959259033203125">
        <ele>1868</ele>
        <time>2026-06-18T09:26:26.000Z</time>
        <extensions>
          <ns3:TrackPointExtension>
            <ns3:atemp>19.0</ns3:atemp>
          </ns3:TrackPointExtension>
        </extensions>
      </trkpt>
      <trkpt lat="42.51887057907879352569580078125" lon="19.76288122124969959259033203125">
        <ele>1868</ele>
        <time>2026-06-18T09:26:27.000Z</time>
        <extensions>
          <ns3:TrackPointExtension>
            <ns3:atemp>19.0</ns3:atemp>
          </ns3:TrackPointExtension>
        </extensions>
      </trkpt>
      <trkpt lat="42.51887057907879352569580078125" lon="19.76288122124969959259033203125">
        <ele>1868</ele>
        <time>2026-06-18T09:26:28.000Z</time>
        <extensions>
          <ns3:TrackPointExtension>
            <ns3:atemp>19.0</ns3:atemp>
          </ns3:TrackPointExtension>
        </extensions>
      </trkpt>
      <trkpt lat="42.51887057907879352569580078125" lon="19.76288122124969959259033203125">
        <ele>1868</ele>
        <time>2026-06-18T09:26:29.000Z</time>
        <extensions>
          <ns3:TrackPointExtension>
            <ns3:atemp>19.0</ns3:atemp>
          </ns3:TrackPointExtension>
        </extensions>
      </trkpt>
      <trkpt lat="42.51887057907879352569580078125" lon="19.76288122124969959259033203125">
        <ele>1868</ele>
        <time>2026-06-18T09:26:30.000Z</time>
        <extensions>
          <ns3:TrackPointExtension>
            <ns3:atemp>19.0</ns3:atemp>
          </ns3:TrackPointExtension>
        </extensions>
      </trkpt>
      <trkpt lat="42.51887057907879352569580078125" lon="19.76288122124969959259033203125">
        <ele>1868</ele>
        <time>2026-06-18T09:26:31.000Z</time>
        <extensions>
          <ns3:TrackPointExtension>
            <ns3:atemp>19.0</ns3:atemp>
          </ns3:TrackPointExtension>
        </extensions>
      </trkpt>
      <trkpt lat="42.51887057907879352569580078125" lon="19.76288122124969959259033203125">
        <ele>1868</ele>
        <time>2026-06-18T09:26:32.000Z</time>
        <extensions>
          <ns3:TrackPointExtension>
            <ns3:atemp>19.0</ns3:atemp>
          </ns3:TrackPointExtension>
        </extensions>
      </trkpt>
      <trkpt lat="42.51887057907879352569580078125" lon="19.76288122124969959259033203125">
        <ele>1868</ele>
        <time>2026-06-18T09:26:33.000Z</time>
        <extensions>
          <ns3:TrackPointExtension>
            <ns3:atemp>19.0</ns3:atemp>
          </ns3:TrackPointExtension>
        </extensions>
      </trkpt>
      <trkpt lat="42.51887057907879352569580078125" lon="19.76288122124969959259033203125">
        <ele>1868</ele>
        <time>2026-06-18T09:26:34.000Z</time>
        <extensions>
          <ns3:TrackPointExtension>
            <ns3:atemp>19.0</ns3:atemp>
          </ns3:TrackPointExtension>
        </extensions>
      </trkpt>
      <trkpt lat="42.51887057907879352569580078125" lon="19.76288122124969959259033203125">
        <ele>1868</ele>
        <time>2026-06-18T09:26:35.000Z</time>
        <extensions>
          <ns3:TrackPointExtension>
            <ns3:atemp>19.0</ns3:atemp>
          </ns3:TrackPointExtension>
        </extensions>
      </trkpt>
      <trkpt lat="42.51887057907879352569580078125" lon="19.76288122124969959259033203125">
        <ele>1868</ele>
        <time>2026-06-18T09:26:36.000Z</time>
        <extensions>
          <ns3:TrackPointExtension>
            <ns3:atemp>19.0</ns3:atemp>
          </ns3:TrackPointExtension>
        </extensions>
      </trkpt>
      <trkpt lat="42.51887057907879352569580078125" lon="19.76288122124969959259033203125">
        <ele>1868</ele>
        <time>2026-06-18T09:26:37.000Z</time>
        <extensions>
          <ns3:TrackPointExtension>
            <ns3:atemp>19.0</ns3:atemp>
          </ns3:TrackPointExtension>
        </extensions>
      </trkpt>
      <trkpt lat="42.51887057907879352569580078125" lon="19.76288122124969959259033203125">
        <ele>1868</ele>
        <time>2026-06-18T09:26:38.000Z</time>
        <extensions>
          <ns3:TrackPointExtension>
            <ns3:atemp>19.0</ns3:atemp>
          </ns3:TrackPointExtension>
        </extensions>
      </trkpt>
      <trkpt lat="42.51887057907879352569580078125" lon="19.76288122124969959259033203125">
        <ele>1868</ele>
        <time>2026-06-18T09:26:39.000Z</time>
        <extensions>
          <ns3:TrackPointExtension>
            <ns3:atemp>19.0</ns3:atemp>
          </ns3:TrackPointExtension>
        </extensions>
      </trkpt>
      <trkpt lat="42.51887057907879352569580078125" lon="19.76288122124969959259033203125">
        <ele>1868</ele>
        <time>2026-06-18T09:26:40.000Z</time>
        <extensions>
          <ns3:TrackPointExtension>
            <ns3:atemp>19.0</ns3:atemp>
          </ns3:TrackPointExtension>
        </extensions>
      </trkpt>
      <trkpt lat="42.51887057907879352569580078125" lon="19.76288122124969959259033203125">
        <ele>1868</ele>
        <time>2026-06-18T09:26:41.000Z</time>
        <extensions>
          <ns3:TrackPointExtension>
            <ns3:atemp>19.0</ns3:atemp>
          </ns3:TrackPointExtension>
        </extensions>
      </trkpt>
      <trkpt lat="42.51887057907879352569580078125" lon="19.76288122124969959259033203125">
        <ele>1868</ele>
        <time>2026-06-18T09:26:42.000Z</time>
        <extensions>
          <ns3:TrackPointExtension>
            <ns3:atemp>19.0</ns3:atemp>
          </ns3:TrackPointExtension>
        </extensions>
      </trkpt>
      <trkpt lat="42.51887057907879352569580078125" lon="19.76288122124969959259033203125">
        <ele>1868</ele>
        <time>2026-06-18T09:26:43.000Z</time>
        <extensions>
          <ns3:TrackPointExtension>
            <ns3:atemp>19.0</ns3:atemp>
          </ns3:TrackPointExtension>
        </extensions>
      </trkpt>
      <trkpt lat="42.51887057907879352569580078125" lon="19.76288122124969959259033203125">
        <ele>1868</ele>
        <time>2026-06-18T09:26:44.000Z</time>
        <extensions>
          <ns3:TrackPointExtension>
            <ns3:atemp>19.0</ns3:atemp>
          </ns3:TrackPointExtension>
        </extensions>
      </trkpt>
      <trkpt lat="42.51887057907879352569580078125" lon="19.76288122124969959259033203125">
        <ele>1868</ele>
        <time>2026-06-18T09:26:45.000Z</time>
        <extensions>
          <ns3:TrackPointExtension>
            <ns3:atemp>19.0</ns3:atemp>
          </ns3:TrackPointExtension>
        </extensions>
      </trkpt>
      <trkpt lat="42.51887057907879352569580078125" lon="19.76288122124969959259033203125">
        <ele>1868</ele>
        <time>2026-06-18T09:26:46.000Z</time>
        <extensions>
          <ns3:TrackPointExtension>
            <ns3:atemp>19.0</ns3:atemp>
          </ns3:TrackPointExtension>
        </extensions>
      </trkpt>
      <trkpt lat="42.51887057907879352569580078125" lon="19.76288122124969959259033203125">
        <ele>1868</ele>
        <time>2026-06-18T09:26:47.000Z</time>
        <extensions>
          <ns3:TrackPointExtension>
            <ns3:atemp>19.0</ns3:atemp>
          </ns3:TrackPointExtension>
        </extensions>
      </trkpt>
      <trkpt lat="42.51887057907879352569580078125" lon="19.76288122124969959259033203125">
        <ele>1868</ele>
        <time>2026-06-18T09:26:48.000Z</time>
        <extensions>
          <ns3:TrackPointExtension>
            <ns3:atemp>19.0</ns3:atemp>
          </ns3:TrackPointExtension>
        </extensions>
      </trkpt>
      <trkpt lat="42.51887057907879352569580078125" lon="19.76288122124969959259033203125">
        <ele>1868</ele>
        <time>2026-06-18T09:26:49.000Z</time>
        <extensions>
          <ns3:TrackPointExtension>
            <ns3:atemp>19.0</ns3:atemp>
          </ns3:TrackPointExtension>
        </extensions>
      </trkpt>
      <trkpt lat="42.51887057907879352569580078125" lon="19.76288122124969959259033203125">
        <ele>1868</ele>
        <time>2026-06-18T09:26:50.000Z</time>
        <extensions>
          <ns3:TrackPointExtension>
            <ns3:atemp>19.0</ns3:atemp>
          </ns3:TrackPointExtension>
        </extensions>
      </trkpt>
      <trkpt lat="42.51887057907879352569580078125" lon="19.76288122124969959259033203125">
        <ele>1868</ele>
        <time>2026-06-18T09:26:51.000Z</time>
        <extensions>
          <ns3:TrackPointExtension>
            <ns3:atemp>19.0</ns3:atemp>
          </ns3:TrackPointExtension>
        </extensions>
      </trkpt>
      <trkpt lat="42.51887057907879352569580078125" lon="19.76288122124969959259033203125">
        <ele>1868</ele>
        <time>2026-06-18T09:26:52.000Z</time>
        <extensions>
          <ns3:TrackPointExtension>
            <ns3:atemp>19.0</ns3:atemp>
          </ns3:TrackPointExtension>
        </extensions>
      </trkpt>
      <trkpt lat="42.51887057907879352569580078125" lon="19.76288122124969959259033203125">
        <ele>1868</ele>
        <time>2026-06-18T09:26:53.000Z</time>
        <extensions>
          <ns3:TrackPointExtension>
            <ns3:atemp>19.0</ns3:atemp>
          </ns3:TrackPointExtension>
        </extensions>
      </trkpt>
      <trkpt lat="42.51887057907879352569580078125" lon="19.76288122124969959259033203125">
        <ele>1868</ele>
        <time>2026-06-18T09:26:54.000Z</time>
        <extensions>
          <ns3:TrackPointExtension>
            <ns3:atemp>19.0</ns3:atemp>
          </ns3:TrackPointExtension>
        </extensions>
      </trkpt>
      <trkpt lat="42.51887057907879352569580078125" lon="19.76288122124969959259033203125">
        <ele>1868</ele>
        <time>2026-06-18T09:26:55.000Z</time>
        <extensions>
          <ns3:TrackPointExtension>
            <ns3:atemp>19.0</ns3:atemp>
          </ns3:TrackPointExtension>
        </extensions>
      </trkpt>
      <trkpt lat="42.51887057907879352569580078125" lon="19.76288122124969959259033203125">
        <ele>1868</ele>
        <time>2026-06-18T09:26:56.000Z</time>
        <extensions>
          <ns3:TrackPointExtension>
            <ns3:atemp>19.0</ns3:atemp>
          </ns3:TrackPointExtension>
        </extensions>
      </trkpt>
      <trkpt lat="42.51887057907879352569580078125" lon="19.76288122124969959259033203125">
        <ele>1868</ele>
        <time>2026-06-18T09:26:57.000Z</time>
        <extensions>
          <ns3:TrackPointExtension>
            <ns3:atemp>19.0</ns3:atemp>
          </ns3:TrackPointExtension>
        </extensions>
      </trkpt>
      <trkpt lat="42.51887057907879352569580078125" lon="19.76288122124969959259033203125">
        <ele>1868</ele>
        <time>2026-06-18T09:26:58.000Z</time>
        <extensions>
          <ns3:TrackPointExtension>
            <ns3:atemp>19.0</ns3:atemp>
          </ns3:TrackPointExtension>
        </extensions>
      </trkpt>
      <trkpt lat="42.51887057907879352569580078125" lon="19.76288122124969959259033203125">
        <ele>1868</ele>
        <time>2026-06-18T09:26:59.000Z</time>
        <extensions>
          <ns3:TrackPointExtension>
            <ns3:atemp>19.0</ns3:atemp>
          </ns3:TrackPointExtension>
        </extensions>
      </trkpt>
      <trkpt lat="42.51887057907879352569580078125" lon="19.76288122124969959259033203125">
        <ele>1868</ele>
        <time>2026-06-18T09:27:00.000Z</time>
        <extensions>
          <ns3:TrackPointExtension>
            <ns3:atemp>19.0</ns3:atemp>
          </ns3:TrackPointExtension>
        </extensions>
      </trkpt>
      <trkpt lat="42.51887057907879352569580078125" lon="19.76288122124969959259033203125">
        <ele>1868</ele>
        <time>2026-06-18T09:27:01.000Z</time>
        <extensions>
          <ns3:TrackPointExtension>
            <ns3:atemp>19.0</ns3:atemp>
          </ns3:TrackPointExtension>
        </extensions>
      </trkpt>
      <trkpt lat="42.51887057907879352569580078125" lon="19.76288122124969959259033203125">
        <ele>1868</ele>
        <time>2026-06-18T09:27:02.000Z</time>
        <extensions>
          <ns3:TrackPointExtension>
            <ns3:atemp>19.0</ns3:atemp>
          </ns3:TrackPointExtension>
        </extensions>
      </trkpt>
      <trkpt lat="42.51887057907879352569580078125" lon="19.76288122124969959259033203125">
        <ele>1868</ele>
        <time>2026-06-18T09:27:03.000Z</time>
        <extensions>
          <ns3:TrackPointExtension>
            <ns3:atemp>19.0</ns3:atemp>
          </ns3:TrackPointExtension>
        </extensions>
      </trkpt>
      <trkpt lat="42.51887057907879352569580078125" lon="19.76288122124969959259033203125">
        <ele>1868</ele>
        <time>2026-06-18T09:27:04.000Z</time>
        <extensions>
          <ns3:TrackPointExtension>
            <ns3:atemp>19.0</ns3:atemp>
          </ns3:TrackPointExtension>
        </extensions>
      </trkpt>
      <trkpt lat="42.51886881887912750244140625" lon="19.76288390345871448516845703125">
        <ele>1868</ele>
        <time>2026-06-18T09:27:05.000Z</time>
        <extensions>
          <ns3:TrackPointExtension>
            <ns3:atemp>19.0</ns3:atemp>
          </ns3:TrackPointExtension>
        </extensions>
      </trkpt>
      <trkpt lat="42.51884912140667438507080078125" lon="19.76290334947407245635986328125">
        <ele>1868.199951171875</ele>
        <time>2026-06-18T09:27:06.000Z</time>
        <extensions>
          <ns3:TrackPointExtension>
            <ns3:atemp>19.0</ns3:atemp>
          </ns3:TrackPointExtension>
        </extensions>
      </trkpt>
      <trkpt lat="42.5188344530761241912841796875" lon="19.76291726343333721160888671875">
        <ele>1868.199951171875</ele>
        <time>2026-06-18T09:27:07.000Z</time>
        <extensions>
          <ns3:TrackPointExtension>
            <ns3:atemp>19.0</ns3:atemp>
          </ns3:TrackPointExtension>
        </extensions>
      </trkpt>
      <trkpt lat="42.51881307922303676605224609375" lon="19.762932099401950836181640625">
        <ele>1868</ele>
        <time>2026-06-18T09:27:08.000Z</time>
        <extensions>
          <ns3:TrackPointExtension>
            <ns3:atemp>19.0</ns3:atemp>
          </ns3:TrackPointExtension>
        </extensions>
      </trkpt>
      <trkpt lat="42.518791370093822479248046875" lon="19.76294844411313533782958984375">
        <ele>1867.800048828125</ele>
        <time>2026-06-18T09:27:09.000Z</time>
        <extensions>
          <ns3:TrackPointExtension>
            <ns3:atemp>19.0</ns3:atemp>
          </ns3:TrackPointExtension>
        </extensions>
      </trkpt>
      <trkpt lat="42.5187697447836399078369140625" lon="19.76296654902398586273193359375">
        <ele>1867.800048828125</ele>
        <time>2026-06-18T09:27:10.000Z</time>
        <extensions>
          <ns3:TrackPointExtension>
            <ns3:atemp>19.0</ns3:atemp>
          </ns3:TrackPointExtension>
        </extensions>
      </trkpt>
      <trkpt lat="42.51874535344541072845458984375" lon="19.76298197172582149505615234375">
        <ele>1867.5999755859375</ele>
        <time>2026-06-18T09:27:11.000Z</time>
        <extensions>
          <ns3:TrackPointExtension>
            <ns3:atemp>19.0</ns3:atemp>
          </ns3:TrackPointExtension>
        </extensions>
      </trkpt>
      <trkpt lat="42.51871819607913494110107421875" lon="19.76299907080829143524169921875">
        <ele>1867.5999755859375</ele>
        <time>2026-06-18T09:27:12.000Z</time>
        <extensions>
          <ns3:TrackPointExtension>
            <ns3:atemp>19.0</ns3:atemp>
          </ns3:TrackPointExtension>
        </extensions>
      </trkpt>
      <trkpt lat="42.51869321800768375396728515625" lon="19.7630251385271549224853515625">
        <ele>1867.4000244140625</ele>
        <time>2026-06-18T09:27:13.000Z</time>
        <extensions>
          <ns3:TrackPointExtension>
            <ns3:atemp>19.0</ns3:atemp>
          </ns3:TrackPointExtension>
        </extensions>
      </trkpt>
      <trkpt lat="42.51866404898464679718017578125" lon="19.7630511224269866943359375">
        <ele>1867.199951171875</ele>
        <time>2026-06-18T09:27:14.000Z</time>
        <extensions>
          <ns3:TrackPointExtension>
            <ns3:atemp>19.0</ns3:atemp>
          </ns3:TrackPointExtension>
        </extensions>
      </trkpt>
      <trkpt lat="42.51863353885710239410400390625" lon="19.76307031698524951934814453125">
        <ele>1867</ele>
        <time>2026-06-18T09:27:15.000Z</time>
        <extensions>
          <ns3:TrackPointExtension>
            <ns3:atemp>19.0</ns3:atemp>
          </ns3:TrackPointExtension>
        </extensions>
      </trkpt>
      <trkpt lat="42.518613673746585845947265625" lon="19.76309680379927158355712890625">
        <ele>1866.800048828125</ele>
        <time>2026-06-18T09:27:16.000Z</time>
        <extensions>
          <ns3:TrackPointExtension>
            <ns3:atemp>19.0</ns3:atemp>
          </ns3:TrackPointExtension>
        </extensions>
      </trkpt>
      <trkpt lat="42.5186098180711269378662109375" lon="19.76314038969576358795166015625">
        <ele>1866.5999755859375</ele>
        <time>2026-06-18T09:27:17.000Z</time>
        <extensions>
          <ns3:TrackPointExtension>
            <ns3:atemp>19.0</ns3:atemp>
          </ns3:TrackPointExtension>
        </extensions>
      </trkpt>
      <trkpt lat="42.5186118297278881072998046875" lon="19.7631884180009365081787109375">
        <ele>1866.4000244140625</ele>
        <time>2026-06-18T09:27:18.000Z</time>
        <extensions>
          <ns3:TrackPointExtension>
            <ns3:atemp>19.0</ns3:atemp>
          </ns3:TrackPointExtension>
        </extensions>
      </trkpt>
      <trkpt lat="42.51861677505075931549072265625" lon="19.76323896087706089019775390625">
        <ele>1866.199951171875</ele>
        <time>2026-06-18T09:27:19.000Z</time>
        <extensions>
          <ns3:TrackPointExtension>
            <ns3:atemp>19.0</ns3:atemp>
          </ns3:TrackPointExtension>
        </extensions>
      </trkpt>
      <trkpt lat="42.51861677505075931549072265625" lon="19.763295538723468780517578125">
        <ele>1865.5999755859375</ele>
        <time>2026-06-18T09:27:20.000Z</time>
        <extensions>
          <ns3:TrackPointExtension>
            <ns3:atemp>19.0</ns3:atemp>
          </ns3:TrackPointExtension>
        </extensions>
      </trkpt>
      <trkpt lat="42.5186178646981716156005859375" lon="19.76335748098790645599365234375">
        <ele>1864.800048828125</ele>
        <time>2026-06-18T09:27:21.000Z</time>
        <extensions>
          <ns3:TrackPointExtension>
            <ns3:atemp>19.0</ns3:atemp>
          </ns3:TrackPointExtension>
        </extensions>
      </trkpt>
      <trkpt lat="42.51859984360635280609130859375" lon="19.7634086944162845611572265625">
        <ele>1864.199951171875</ele>
        <time>2026-06-18T09:27:22.000Z</time>
        <extensions>
          <ns3:TrackPointExtension>
            <ns3:atemp>19.0</ns3:atemp>
          </ns3:TrackPointExtension>
        </extensions>
      </trkpt>
      <trkpt lat="42.51859179697930812835693359375" lon="19.7634623385965824127197265625">
        <ele>1863.4000244140625</ele>
        <time>2026-06-18T09:27:23.000Z</time>
        <extensions>
          <ns3:TrackPointExtension>
            <ns3:atemp>19.0</ns3:atemp>
          </ns3:TrackPointExtension>
        </extensions>
      </trkpt>
      <trkpt lat="42.518592886626720428466796875" lon="19.76352310739457607269287109375">
        <ele>1862.5999755859375</ele>
        <time>2026-06-18T09:27:24.000Z</time>
        <extensions>
          <ns3:TrackPointExtension>
            <ns3:atemp>19.0</ns3:atemp>
          </ns3:TrackPointExtension>
        </extensions>
      </trkpt>
      <trkpt lat="42.518604956567287445068359375" lon="19.7635833732783794403076171875">
        <ele>1862</ele>
        <time>2026-06-18T09:27:25.000Z</time>
        <extensions>
          <ns3:TrackPointExtension>
            <ns3:atemp>19.0</ns3:atemp>
          </ns3:TrackPointExtension>
        </extensions>
      </trkpt>
      <trkpt lat="42.51861576922237873077392578125" lon="19.7636358439922332763671875">
        <ele>1861.5999755859375</ele>
        <time>2026-06-18T09:27:26.000Z</time>
        <extensions>
          <ns3:TrackPointExtension>
            <ns3:atemp>19.0</ns3:atemp>
          </ns3:TrackPointExtension>
        </extensions>
      </trkpt>
      <trkpt lat="42.51862113364040851593017578125" lon="19.76367180235683917999267578125">
        <ele>1861.199951171875</ele>
        <time>2026-06-18T09:27:27.000Z</time>
        <extensions>
          <ns3:TrackPointExtension>
            <ns3:atemp>19.0</ns3:atemp>
          </ns3:TrackPointExtension>
        </extensions>
      </trkpt>
      <trkpt lat="42.51862331293523311614990234375" lon="19.76370449177920818328857421875">
        <ele>1860.800048828125</ele>
        <time>2026-06-18T09:27:28.000Z</time>
        <extensions>
          <ns3:TrackPointExtension>
            <ns3:atemp>19.0</ns3:atemp>
          </ns3:TrackPointExtension>
        </extensions>
      </trkpt>
      <trkpt lat="42.51862096600234508514404296875" lon="19.7637350857257843017578125">
        <ele>1860.800048828125</ele>
        <time>2026-06-18T09:27:29.000Z</time>
        <extensions>
          <ns3:TrackPointExtension>
            <ns3:atemp>19.0</ns3:atemp>
          </ns3:TrackPointExtension>
        </extensions>
      </trkpt>
      <trkpt lat="42.5186148472130298614501953125" lon="19.7637620754539966583251953125">
        <ele>1860.5999755859375</ele>
        <time>2026-06-18T09:27:30.000Z</time>
        <extensions>
          <ns3:TrackPointExtension>
            <ns3:atemp>19.0</ns3:atemp>
          </ns3:TrackPointExtension>
        </extensions>
      </trkpt>
      <trkpt lat="42.518611662089824676513671875" lon="19.76378160528838634490966796875">
        <ele>1860.4000244140625</ele>
        <time>2026-06-18T09:27:31.000Z</time>
        <extensions>
          <ns3:TrackPointExtension>
            <ns3:atemp>19.0</ns3:atemp>
          </ns3:TrackPointExtension>
        </extensions>
      </trkpt>
      <trkpt lat="42.5186078064143657684326171875" lon="19.76379853673279285430908203125">
        <ele>1860.199951171875</ele>
        <time>2026-06-18T09:27:32.000Z</time>
        <extensions>
          <ns3:TrackPointExtension>
            <ns3:atemp>19.0</ns3:atemp>
          </ns3:TrackPointExtension>
        </extensions>
      </trkpt>
      <trkpt lat="42.5186007656157016754150390625" lon="19.76382016204297542572021484375">
        <ele>1860</ele>
        <time>2026-06-18T09:27:33.000Z</time>
        <extensions>
          <ns3:TrackPointExtension>
            <ns3:atemp>19.0</ns3:atemp>
          </ns3:TrackPointExtension>
        </extensions>
      </trkpt>
      <trkpt lat="42.518592216074466705322265625" lon="19.7638462297618389129638671875">
        <ele>1859.5999755859375</ele>
        <time>2026-06-18T09:27:34.000Z</time>
        <extensions>
          <ns3:TrackPointExtension>
            <ns3:atemp>19.0</ns3:atemp>
          </ns3:TrackPointExtension>
        </extensions>
      </trkpt>
      <trkpt lat="42.518584169447422027587890625" lon="19.7638691961765289306640625">
        <ele>1859.199951171875</ele>
        <time>2026-06-18T09:27:35.000Z</time>
        <extensions>
          <ns3:TrackPointExtension>
            <ns3:atemp>19.0</ns3:atemp>
          </ns3:TrackPointExtension>
        </extensions>
      </trkpt>
      <trkpt lat="42.51856732182204723358154296875" lon="19.76389543153345584869384765625">
        <ele>1858.800048828125</ele>
        <time>2026-06-18T09:27:36.000Z</time>
        <extensions>
          <ns3:TrackPointExtension>
            <ns3:atemp>19.0</ns3:atemp>
          </ns3:TrackPointExtension>
        </extensions>
      </trkpt>
      <trkpt lat="42.5185417570173740386962890625" lon="19.76392074488103389739990234375">
        <ele>1858.4000244140625</ele>
        <time>2026-06-18T09:27:37.000Z</time>
        <extensions>
          <ns3:TrackPointExtension>
            <ns3:atemp>19.0</ns3:atemp>
          </ns3:TrackPointExtension>
        </extensions>
      </trkpt>
      <trkpt lat="42.51851300708949565887451171875" lon="19.76394589059054851531982421875">
        <ele>1857.800048828125</ele>
        <time>2026-06-18T09:27:38.000Z</time>
        <extensions>
          <ns3:TrackPointExtension>
            <ns3:atemp>19.0</ns3:atemp>
          </ns3:TrackPointExtension>
        </extensions>
      </trkpt>
      <trkpt lat="42.5184951536357402801513671875" lon="19.7639890573918819427490234375">
        <ele>1857.4000244140625</ele>
        <time>2026-06-18T09:27:39.000Z</time>
        <extensions>
          <ns3:TrackPointExtension>
            <ns3:atemp>19.0</ns3:atemp>
          </ns3:TrackPointExtension>
        </extensions>
      </trkpt>
      <trkpt lat="42.51849557273089885711669921875" lon="19.7640400193631649017333984375">
        <ele>1857.199951171875</ele>
        <time>2026-06-18T09:27:40.000Z</time>
        <extensions>
          <ns3:TrackPointExtension>
            <ns3:atemp>19.0</ns3:atemp>
          </ns3:TrackPointExtension>
        </extensions>
      </trkpt>
      <trkpt lat="42.51849741674959659576416015625" lon="19.76406122557818889617919921875">
        <ele>1857</ele>
        <time>2026-06-18T09:27:41.000Z</time>
        <extensions>
          <ns3:TrackPointExtension>
            <ns3:atemp>19.0</ns3:atemp>
          </ns3:TrackPointExtension>
        </extensions>
      </trkpt>
      <trkpt lat="42.51849674619734287261962890625" lon="19.76405519060790538787841796875">
        <ele>1856.800048828125</ele>
        <time>2026-06-18T09:27:42.000Z</time>
        <extensions>
          <ns3:TrackPointExtension>
            <ns3:atemp>19.0</ns3:atemp>
          </ns3:TrackPointExtension>
        </extensions>
      </trkpt>
      <trkpt lat="42.51849674619734287261962890625" lon="19.76405519060790538787841796875">
        <ele>1856.5999755859375</ele>
        <time>2026-06-18T09:27:43.000Z</time>
        <extensions>
          <ns3:TrackPointExtension>
            <ns3:atemp>19.0</ns3:atemp>
          </ns3:TrackPointExtension>
        </extensions>
      </trkpt>
      <trkpt lat="42.51849674619734287261962890625" lon="19.76405519060790538787841796875">
        <ele>1856.5999755859375</ele>
        <time>2026-06-18T09:27:44.000Z</time>
        <extensions>
          <ns3:TrackPointExtension>
            <ns3:atemp>19.0</ns3:atemp>
          </ns3:TrackPointExtension>
        </extensions>
      </trkpt>
      <trkpt lat="42.51849674619734287261962890625" lon="19.76405519060790538787841796875">
        <ele>1856.4000244140625</ele>
        <time>2026-06-18T09:27:45.000Z</time>
        <extensions>
          <ns3:TrackPointExtension>
            <ns3:atemp>19.0</ns3:atemp>
          </ns3:TrackPointExtension>
        </extensions>
      </trkpt>
      <trkpt lat="42.51849674619734287261962890625" lon="19.76405519060790538787841796875">
        <ele>1856</ele>
        <time>2026-06-18T09:27:46.000Z</time>
        <extensions>
          <ns3:TrackPointExtension>
            <ns3:atemp>19.0</ns3:atemp>
          </ns3:TrackPointExtension>
        </extensions>
      </trkpt>
      <trkpt lat="42.51849674619734287261962890625" lon="19.76405519060790538787841796875">
        <ele>1855.800048828125</ele>
        <time>2026-06-18T09:27:47.000Z</time>
        <extensions>
          <ns3:TrackPointExtension>
            <ns3:atemp>19.0</ns3:atemp>
          </ns3:TrackPointExtension>
        </extensions>
      </trkpt>
      <trkpt lat="42.51849674619734287261962890625" lon="19.76405519060790538787841796875">
        <ele>1855.5999755859375</ele>
        <time>2026-06-18T09:27:48.000Z</time>
        <extensions>
          <ns3:TrackPointExtension>
            <ns3:atemp>19.0</ns3:atemp>
          </ns3:TrackPointExtension>
        </extensions>
      </trkpt>
      <trkpt lat="42.51849674619734287261962890625" lon="19.76405519060790538787841796875">
        <ele>1855.199951171875</ele>
        <time>2026-06-18T09:27:49.000Z</time>
        <extensions>
          <ns3:TrackPointExtension>
            <ns3:atemp>19.0</ns3:atemp>
          </ns3:TrackPointExtension>
        </extensions>
      </trkpt>
      <trkpt lat="42.51849674619734287261962890625" lon="19.76405519060790538787841796875">
        <ele>1855</ele>
        <time>2026-06-18T09:27:50.000Z</time>
        <extensions>
          <ns3:TrackPointExtension>
            <ns3:atemp>19.0</ns3:atemp>
          </ns3:TrackPointExtension>
        </extensions>
      </trkpt>
      <trkpt lat="42.51849674619734287261962890625" lon="19.76405519060790538787841796875">
        <ele>1855</ele>
        <time>2026-06-18T09:27:51.000Z</time>
        <extensions>
          <ns3:TrackPointExtension>
            <ns3:atemp>19.0</ns3:atemp>
          </ns3:TrackPointExtension>
        </extensions>
      </trkpt>
      <trkpt lat="42.51849674619734287261962890625" lon="19.76405519060790538787841796875">
        <ele>1854.800048828125</ele>
        <time>2026-06-18T09:27:52.000Z</time>
        <extensions>
          <ns3:TrackPointExtension>
            <ns3:atemp>19.0</ns3:atemp>
          </ns3:TrackPointExtension>
        </extensions>
      </trkpt>
      <trkpt lat="42.51849674619734287261962890625" lon="19.76405519060790538787841796875">
        <ele>1854.800048828125</ele>
        <time>2026-06-18T09:27:53.000Z</time>
        <extensions>
          <ns3:TrackPointExtension>
            <ns3:atemp>19.0</ns3:atemp>
          </ns3:TrackPointExtension>
        </extensions>
      </trkpt>
      <trkpt lat="42.51849674619734287261962890625" lon="19.76405519060790538787841796875">
        <ele>1854.5999755859375</ele>
        <time>2026-06-18T09:27:54.000Z</time>
        <extensions>
          <ns3:TrackPointExtension>
            <ns3:atemp>19.0</ns3:atemp>
          </ns3:TrackPointExtension>
        </extensions>
      </trkpt>
      <trkpt lat="42.51849674619734287261962890625" lon="19.76405519060790538787841796875">
        <ele>1854.4000244140625</ele>
        <time>2026-06-18T09:27:55.000Z</time>
        <extensions>
          <ns3:TrackPointExtension>
            <ns3:atemp>19.0</ns3:atemp>
          </ns3:TrackPointExtension>
        </extensions>
      </trkpt>
      <trkpt lat="42.51849674619734287261962890625" lon="19.76405519060790538787841796875">
        <ele>1854.4000244140625</ele>
        <time>2026-06-18T09:27:56.000Z</time>
        <extensions>
          <ns3:TrackPointExtension>
            <ns3:atemp>19.0</ns3:atemp>
          </ns3:TrackPointExtension>
        </extensions>
      </trkpt>
      <trkpt lat="42.51849674619734287261962890625" lon="19.76405519060790538787841796875">
        <ele>1854.4000244140625</ele>
        <time>2026-06-18T09:27:57.000Z</time>
        <extensions>
          <ns3:TrackPointExtension>
            <ns3:atemp>19.0</ns3:atemp>
          </ns3:TrackPointExtension>
        </extensions>
      </trkpt>
      <trkpt lat="42.51849674619734287261962890625" lon="19.76405519060790538787841796875">
        <ele>1854.199951171875</ele>
        <time>2026-06-18T09:27:58.000Z</time>
        <extensions>
          <ns3:TrackPointExtension>
            <ns3:atemp>19.0</ns3:atemp>
          </ns3:TrackPointExtension>
        </extensions>
      </trkpt>
      <trkpt lat="42.51849674619734287261962890625" lon="19.76405519060790538787841796875">
        <ele>1854.199951171875</ele>
        <time>2026-06-18T09:27:59.000Z</time>
        <extensions>
          <ns3:TrackPointExtension>
            <ns3:atemp>19.0</ns3:atemp>
          </ns3:TrackPointExtension>
        </extensions>
      </trkpt>
      <trkpt lat="42.51849674619734287261962890625" lon="19.76405519060790538787841796875">
        <ele>1854.4000244140625</ele>
        <time>2026-06-18T09:28:00.000Z</time>
        <extensions>
          <ns3:TrackPointExtension>
            <ns3:atemp>19.0</ns3:atemp>
          </ns3:TrackPointExtension>
        </extensions>
      </trkpt>
      <trkpt lat="42.51849674619734287261962890625" lon="19.76405519060790538787841796875">
        <ele>1854.5999755859375</ele>
        <time>2026-06-18T09:28:01.000Z</time>
        <extensions>
          <ns3:TrackPointExtension>
            <ns3:atemp>19.0</ns3:atemp>
          </ns3:TrackPointExtension>
        </extensions>
      </trkpt>
      <trkpt lat="42.51849674619734287261962890625" lon="19.76405519060790538787841796875">
        <ele>1854.5999755859375</ele>
        <time>2026-06-18T09:28:02.000Z</time>
        <extensions>
          <ns3:TrackPointExtension>
            <ns3:atemp>19.0</ns3:atemp>
          </ns3:TrackPointExtension>
        </extensions>
      </trkpt>
      <trkpt lat="42.51849674619734287261962890625" lon="19.76405519060790538787841796875">
        <ele>1854.800048828125</ele>
        <time>2026-06-18T09:28:03.000Z</time>
        <extensions>
          <ns3:TrackPointExtension>
            <ns3:atemp>19.0</ns3:atemp>
          </ns3:TrackPointExtension>
        </extensions>
      </trkpt>
      <trkpt lat="42.51849674619734287261962890625" lon="19.76405519060790538787841796875">
        <ele>1854.5999755859375</ele>
        <time>2026-06-18T09:28:04.000Z</time>
        <extensions>
          <ns3:TrackPointExtension>
            <ns3:atemp>19.0</ns3:atemp>
          </ns3:TrackPointExtension>
        </extensions>
      </trkpt>
      <trkpt lat="42.51849674619734287261962890625" lon="19.76405519060790538787841796875">
        <ele>1854.5999755859375</ele>
        <time>2026-06-18T09:28:05.000Z</time>
        <extensions>
          <ns3:TrackPointExtension>
            <ns3:atemp>19.0</ns3:atemp>
          </ns3:TrackPointExtension>
        </extensions>
      </trkpt>
      <trkpt lat="42.51849674619734287261962890625" lon="19.76405519060790538787841796875">
        <ele>1854.4000244140625</ele>
        <time>2026-06-18T09:28:06.000Z</time>
        <extensions>
          <ns3:TrackPointExtension>
            <ns3:atemp>19.0</ns3:atemp>
          </ns3:TrackPointExtension>
        </extensions>
      </trkpt>
      <trkpt lat="42.51849674619734287261962890625" lon="19.76405519060790538787841796875">
        <ele>1854.4000244140625</ele>
        <time>2026-06-18T09:28:07.000Z</time>
        <extensions>
          <ns3:TrackPointExtension>
            <ns3:atemp>19.0</ns3:atemp>
          </ns3:TrackPointExtension>
        </extensions>
      </trkpt>
      <trkpt lat="42.51849674619734287261962890625" lon="19.76405519060790538787841796875">
        <ele>1854.199951171875</ele>
        <time>2026-06-18T09:28:08.000Z</time>
        <extensions>
          <ns3:TrackPointExtension>
            <ns3:atemp>19.0</ns3:atemp>
          </ns3:TrackPointExtension>
        </extensions>
      </trkpt>
      <trkpt lat="42.51849674619734287261962890625" lon="19.76405519060790538787841796875">
        <ele>1854.199951171875</ele>
        <time>2026-06-18T09:28:09.000Z</time>
        <extensions>
          <ns3:TrackPointExtension>
            <ns3:atemp>19.0</ns3:atemp>
          </ns3:TrackPointExtension>
        </extensions>
      </trkpt>
      <trkpt lat="42.51849674619734287261962890625" lon="19.76405519060790538787841796875">
        <ele>1854.199951171875</ele>
        <time>2026-06-18T09:28:10.000Z</time>
        <extensions>
          <ns3:TrackPointExtension>
            <ns3:atemp>19.0</ns3:atemp>
          </ns3:TrackPointExtension>
        </extensions>
      </trkpt>
      <trkpt lat="42.51849674619734287261962890625" lon="19.76405519060790538787841796875">
        <ele>1854.199951171875</ele>
        <time>2026-06-18T09:28:11.000Z</time>
        <extensions>
          <ns3:TrackPointExtension>
            <ns3:atemp>19.0</ns3:atemp>
          </ns3:TrackPointExtension>
        </extensions>
      </trkpt>
      <trkpt lat="42.51849674619734287261962890625" lon="19.76405519060790538787841796875">
        <ele>1854</ele>
        <time>2026-06-18T09:28:12.000Z</time>
        <extensions>
          <ns3:TrackPointExtension>
            <ns3:atemp>19.0</ns3:atemp>
          </ns3:TrackPointExtension>
        </extensions>
      </trkpt>
      <trkpt lat="42.51849674619734287261962890625" lon="19.76405519060790538787841796875">
        <ele>1853.800048828125</ele>
        <time>2026-06-18T09:28:13.000Z</time>
        <extensions>
          <ns3:TrackPointExtension>
            <ns3:atemp>19.0</ns3:atemp>
          </ns3:TrackPointExtension>
        </extensions>
      </trkpt>
      <trkpt lat="42.51849674619734287261962890625" lon="19.76405519060790538787841796875">
        <ele>1853.800048828125</ele>
        <time>2026-06-18T09:28:14.000Z</time>
        <extensions>
          <ns3:TrackPointExtension>
            <ns3:atemp>19.0</ns3:atemp>
          </ns3:TrackPointExtension>
        </extensions>
      </trkpt>
      <trkpt lat="42.51849674619734287261962890625" lon="19.76405519060790538787841796875">
        <ele>1853.800048828125</ele>
        <time>2026-06-18T09:28:15.000Z</time>
        <extensions>
          <ns3:TrackPointExtension>
            <ns3:atemp>19.0</ns3:atemp>
          </ns3:TrackPointExtension>
        </extensions>
      </trkpt>
      <trkpt lat="42.51849674619734287261962890625" lon="19.76405519060790538787841796875">
        <ele>1854</ele>
        <time>2026-06-18T09:28:16.000Z</time>
        <extensions>
          <ns3:TrackPointExtension>
            <ns3:atemp>19.0</ns3:atemp>
          </ns3:TrackPointExtension>
        </extensions>
      </trkpt>
      <trkpt lat="42.51849674619734287261962890625" lon="19.76405519060790538787841796875">
        <ele>1854</ele>
        <time>2026-06-18T09:28:17.000Z</time>
        <extensions>
          <ns3:TrackPointExtension>
            <ns3:atemp>19.0</ns3:atemp>
          </ns3:TrackPointExtension>
        </extensions>
      </trkpt>
      <trkpt lat="42.51849674619734287261962890625" lon="19.76405519060790538787841796875">
        <ele>1854.199951171875</ele>
        <time>2026-06-18T09:28:18.000Z</time>
        <extensions>
          <ns3:TrackPointExtension>
            <ns3:atemp>19.0</ns3:atemp>
          </ns3:TrackPointExtension>
        </extensions>
      </trkpt>
      <trkpt lat="42.51849674619734287261962890625" lon="19.76405519060790538787841796875">
        <ele>1854.199951171875</ele>
        <time>2026-06-18T09:28:19.000Z</time>
        <extensions>
          <ns3:TrackPointExtension>
            <ns3:atemp>19.0</ns3:atemp>
          </ns3:TrackPointExtension>
        </extensions>
      </trkpt>
      <trkpt lat="42.51849674619734287261962890625" lon="19.76405519060790538787841796875">
        <ele>1854.199951171875</ele>
        <time>2026-06-18T09:28:20.000Z</time>
        <extensions>
          <ns3:TrackPointExtension>
            <ns3:atemp>19.0</ns3:atemp>
          </ns3:TrackPointExtension>
        </extensions>
      </trkpt>
      <trkpt lat="42.51849674619734287261962890625" lon="19.76405519060790538787841796875">
        <ele>1854</ele>
        <time>2026-06-18T09:28:21.000Z</time>
        <extensions>
          <ns3:TrackPointExtension>
            <ns3:atemp>19.0</ns3:atemp>
          </ns3:TrackPointExtension>
        </extensions>
      </trkpt>
      <trkpt lat="42.51849674619734287261962890625" lon="19.76405519060790538787841796875">
        <ele>1854</ele>
        <time>2026-06-18T09:28:22.000Z</time>
        <extensions>
          <ns3:TrackPointExtension>
            <ns3:atemp>19.0</ns3:atemp>
          </ns3:TrackPointExtension>
        </extensions>
      </trkpt>
      <trkpt lat="42.51849674619734287261962890625" lon="19.76405519060790538787841796875">
        <ele>1853.800048828125</ele>
        <time>2026-06-18T09:28:23.000Z</time>
        <extensions>
          <ns3:TrackPointExtension>
            <ns3:atemp>19.0</ns3:atemp>
          </ns3:TrackPointExtension>
        </extensions>
      </trkpt>
      <trkpt lat="42.51849674619734287261962890625" lon="19.76405519060790538787841796875">
        <ele>1853.800048828125</ele>
        <time>2026-06-18T09:28:24.000Z</time>
        <extensions>
          <ns3:TrackPointExtension>
            <ns3:atemp>19.0</ns3:atemp>
          </ns3:TrackPointExtension>
        </extensions>
      </trkpt>
      <trkpt lat="42.51849674619734287261962890625" lon="19.76405519060790538787841796875">
        <ele>1853.800048828125</ele>
        <time>2026-06-18T09:28:25.000Z</time>
        <extensions>
          <ns3:TrackPointExtension>
            <ns3:atemp>19.0</ns3:atemp>
          </ns3:TrackPointExtension>
        </extensions>
      </trkpt>
      <trkpt lat="42.51849674619734287261962890625" lon="19.76405519060790538787841796875">
        <ele>1854</ele>
        <time>2026-06-18T09:28:26.000Z</time>
        <extensions>
          <ns3:TrackPointExtension>
            <ns3:atemp>19.0</ns3:atemp>
          </ns3:TrackPointExtension>
        </extensions>
      </trkpt>
      <trkpt lat="42.51849674619734287261962890625" lon="19.76405519060790538787841796875">
        <ele>1854</ele>
        <time>2026-06-18T09:28:27.000Z</time>
        <extensions>
          <ns3:TrackPointExtension>
            <ns3:atemp>19.0</ns3:atemp>
          </ns3:TrackPointExtension>
        </extensions>
      </trkpt>
      <trkpt lat="42.51849674619734287261962890625" lon="19.76405519060790538787841796875">
        <ele>1854.199951171875</ele>
        <time>2026-06-18T09:28:28.000Z</time>
        <extensions>
          <ns3:TrackPointExtension>
            <ns3:atemp>19.0</ns3:atemp>
          </ns3:TrackPointExtension>
        </extensions>
      </trkpt>
      <trkpt lat="42.51849674619734287261962890625" lon="19.76405519060790538787841796875">
        <ele>1854.199951171875</ele>
        <time>2026-06-18T09:28:29.000Z</time>
        <extensions>
          <ns3:TrackPointExtension>
            <ns3:atemp>19.0</ns3:atemp>
          </ns3:TrackPointExtension>
        </extensions>
      </trkpt>
      <trkpt lat="42.51849674619734287261962890625" lon="19.76405519060790538787841796875">
        <ele>1854.199951171875</ele>
        <time>2026-06-18T09:28:30.000Z</time>
        <extensions>
          <ns3:TrackPointExtension>
            <ns3:atemp>19.0</ns3:atemp>
          </ns3:TrackPointExtension>
        </extensions>
      </trkpt>
      <trkpt lat="42.51849674619734287261962890625" lon="19.76405519060790538787841796875">
        <ele>1854</ele>
        <time>2026-06-18T09:28:31.000Z</time>
        <extensions>
          <ns3:TrackPointExtension>
            <ns3:atemp>19.0</ns3:atemp>
          </ns3:TrackPointExtension>
        </extensions>
      </trkpt>
      <trkpt lat="42.51849674619734287261962890625" lon="19.76405519060790538787841796875">
        <ele>1854.199951171875</ele>
        <time>2026-06-18T09:28:32.000Z</time>
        <extensions>
          <ns3:TrackPointExtension>
            <ns3:atemp>19.0</ns3:atemp>
          </ns3:TrackPointExtension>
        </extensions>
      </trkpt>
      <trkpt lat="42.51849674619734287261962890625" lon="19.76405519060790538787841796875">
        <ele>1854.199951171875</ele>
        <time>2026-06-18T09:28:33.000Z</time>
        <extensions>
          <ns3:TrackPointExtension>
            <ns3:atemp>19.0</ns3:atemp>
          </ns3:TrackPointExtension>
        </extensions>
      </trkpt>
      <trkpt lat="42.51849674619734287261962890625" lon="19.76405519060790538787841796875">
        <ele>1854.199951171875</ele>
        <time>2026-06-18T09:28:34.000Z</time>
        <extensions>
          <ns3:TrackPointExtension>
            <ns3:atemp>19.0</ns3:atemp>
          </ns3:TrackPointExtension>
        </extensions>
      </trkpt>
      <trkpt lat="42.51849674619734287261962890625" lon="19.76405519060790538787841796875">
        <ele>1854.199951171875</ele>
        <time>2026-06-18T09:28:35.000Z</time>
        <extensions>
          <ns3:TrackPointExtension>
            <ns3:atemp>19.0</ns3:atemp>
          </ns3:TrackPointExtension>
        </extensions>
      </trkpt>
      <trkpt lat="42.51849674619734287261962890625" lon="19.76405519060790538787841796875">
        <ele>1854.4000244140625</ele>
        <time>2026-06-18T09:28:36.000Z</time>
        <extensions>
          <ns3:TrackPointExtension>
            <ns3:atemp>19.0</ns3:atemp>
          </ns3:TrackPointExtension>
        </extensions>
      </trkpt>
      <trkpt lat="42.51849674619734287261962890625" lon="19.76405519060790538787841796875">
        <ele>1854.4000244140625</ele>
        <time>2026-06-18T09:28:37.000Z</time>
        <extensions>
          <ns3:TrackPointExtension>
            <ns3:atemp>19.0</ns3:atemp>
          </ns3:TrackPointExtension>
        </extensions>
      </trkpt>
      <trkpt lat="42.51849674619734287261962890625" lon="19.76405519060790538787841796875">
        <ele>1854.199951171875</ele>
        <time>2026-06-18T09:28:38.000Z</time>
        <extensions>
          <ns3:TrackPointExtension>
            <ns3:atemp>19.0</ns3:atemp>
          </ns3:TrackPointExtension>
        </extensions>
      </trkpt>
      <trkpt lat="42.51849674619734287261962890625" lon="19.76405519060790538787841796875">
        <ele>1854.199951171875</ele>
        <time>2026-06-18T09:28:39.000Z</time>
        <extensions>
          <ns3:TrackPointExtension>
            <ns3:atemp>19.0</ns3:atemp>
          </ns3:TrackPointExtension>
        </extensions>
      </trkpt>
      <trkpt lat="42.51849674619734287261962890625" lon="19.76405519060790538787841796875">
        <ele>1854.199951171875</ele>
        <time>2026-06-18T09:28:40.000Z</time>
        <extensions>
          <ns3:TrackPointExtension>
            <ns3:atemp>19.0</ns3:atemp>
          </ns3:TrackPointExtension>
        </extensions>
      </trkpt>
      <trkpt lat="42.51849674619734287261962890625" lon="19.76405519060790538787841796875">
        <ele>1854.199951171875</ele>
        <time>2026-06-18T09:28:41.000Z</time>
        <extensions>
          <ns3:TrackPointExtension>
            <ns3:atemp>19.0</ns3:atemp>
          </ns3:TrackPointExtension>
        </extensions>
      </trkpt>
      <trkpt lat="42.51849674619734287261962890625" lon="19.76405519060790538787841796875">
        <ele>1854.199951171875</ele>
        <time>2026-06-18T09:28:42.000Z</time>
        <extensions>
          <ns3:TrackPointExtension>
            <ns3:atemp>19.0</ns3:atemp>
          </ns3:TrackPointExtension>
        </extensions>
      </trkpt>
      <trkpt lat="42.51849674619734287261962890625" lon="19.76405519060790538787841796875">
        <ele>1854.199951171875</ele>
        <time>2026-06-18T09:28:43.000Z</time>
        <extensions>
          <ns3:TrackPointExtension>
            <ns3:atemp>19.0</ns3:atemp>
          </ns3:TrackPointExtension>
        </extensions>
      </trkpt>
      <trkpt lat="42.51849674619734287261962890625" lon="19.76405519060790538787841796875">
        <ele>1854.199951171875</ele>
        <time>2026-06-18T09:28:44.000Z</time>
        <extensions>
          <ns3:TrackPointExtension>
            <ns3:atemp>19.0</ns3:atemp>
          </ns3:TrackPointExtension>
        </extensions>
      </trkpt>
      <trkpt lat="42.51849674619734287261962890625" lon="19.76405519060790538787841796875">
        <ele>1854.199951171875</ele>
        <time>2026-06-18T09:28:45.000Z</time>
        <extensions>
          <ns3:TrackPointExtension>
            <ns3:atemp>19.0</ns3:atemp>
          </ns3:TrackPointExtension>
        </extensions>
      </trkpt>
      <trkpt lat="42.51849674619734287261962890625" lon="19.76405519060790538787841796875">
        <ele>1854.199951171875</ele>
        <time>2026-06-18T09:28:46.000Z</time>
        <extensions>
          <ns3:TrackPointExtension>
            <ns3:atemp>19.0</ns3:atemp>
          </ns3:TrackPointExtension>
        </extensions>
      </trkpt>
      <trkpt lat="42.51849674619734287261962890625" lon="19.76405519060790538787841796875">
        <ele>1854.199951171875</ele>
        <time>2026-06-18T09:28:47.000Z</time>
        <extensions>
          <ns3:TrackPointExtension>
            <ns3:atemp>19.0</ns3:atemp>
          </ns3:TrackPointExtension>
        </extensions>
      </trkpt>
      <trkpt lat="42.51849674619734287261962890625" lon="19.76405519060790538787841796875">
        <ele>1854.199951171875</ele>
        <time>2026-06-18T09:28:48.000Z</time>
        <extensions>
          <ns3:TrackPointExtension>
            <ns3:atemp>19.0</ns3:atemp>
          </ns3:TrackPointExtension>
        </extensions>
      </trkpt>
      <trkpt lat="42.51849674619734287261962890625" lon="19.76405519060790538787841796875">
        <ele>1854.199951171875</ele>
        <time>2026-06-18T09:28:49.000Z</time>
        <extensions>
          <ns3:TrackPointExtension>
            <ns3:atemp>19.0</ns3:atemp>
          </ns3:TrackPointExtension>
        </extensions>
      </trkpt>
      <trkpt lat="42.51849674619734287261962890625" lon="19.76405519060790538787841796875">
        <ele>1854.4000244140625</ele>
        <time>2026-06-18T09:28:50.000Z</time>
        <extensions>
          <ns3:TrackPointExtension>
            <ns3:atemp>19.0</ns3:atemp>
          </ns3:TrackPointExtension>
        </extensions>
      </trkpt>
      <trkpt lat="42.51849674619734287261962890625" lon="19.76405519060790538787841796875">
        <ele>1854.4000244140625</ele>
        <time>2026-06-18T09:28:51.000Z</time>
        <extensions>
          <ns3:TrackPointExtension>
            <ns3:atemp>19.0</ns3:atemp>
          </ns3:TrackPointExtension>
        </extensions>
      </trkpt>
      <trkpt lat="42.51849674619734287261962890625" lon="19.76405519060790538787841796875">
        <ele>1854.4000244140625</ele>
        <time>2026-06-18T09:28:52.000Z</time>
        <extensions>
          <ns3:TrackPointExtension>
            <ns3:atemp>19.0</ns3:atemp>
          </ns3:TrackPointExtension>
        </extensions>
      </trkpt>
      <trkpt lat="42.51849674619734287261962890625" lon="19.76405519060790538787841796875">
        <ele>1854.4000244140625</ele>
        <time>2026-06-18T09:28:53.000Z</time>
        <extensions>
          <ns3:TrackPointExtension>
            <ns3:atemp>19.0</ns3:atemp>
          </ns3:TrackPointExtension>
        </extensions>
      </trkpt>
      <trkpt lat="42.51849674619734287261962890625" lon="19.76405519060790538787841796875">
        <ele>1854.5999755859375</ele>
        <time>2026-06-18T09:28:54.000Z</time>
        <extensions>
          <ns3:TrackPointExtension>
            <ns3:atemp>19.0</ns3:atemp>
          </ns3:TrackPointExtension>
        </extensions>
      </trkpt>
      <trkpt lat="42.51849674619734287261962890625" lon="19.76405519060790538787841796875">
        <ele>1854.5999755859375</ele>
        <time>2026-06-18T09:28:55.000Z</time>
        <extensions>
          <ns3:TrackPointExtension>
            <ns3:atemp>19.0</ns3:atemp>
          </ns3:TrackPointExtension>
        </extensions>
      </trkpt>
      <trkpt lat="42.51849674619734287261962890625" lon="19.76405519060790538787841796875">
        <ele>1854.5999755859375</ele>
        <time>2026-06-18T09:28:56.000Z</time>
        <extensions>
          <ns3:TrackPointExtension>
            <ns3:atemp>19.0</ns3:atemp>
          </ns3:TrackPointExtension>
        </extensions>
      </trkpt>
      <trkpt lat="42.51849674619734287261962890625" lon="19.76405519060790538787841796875">
        <ele>1854.4000244140625</ele>
        <time>2026-06-18T09:28:57.000Z</time>
        <extensions>
          <ns3:TrackPointExtension>
            <ns3:atemp>19.0</ns3:atemp>
          </ns3:TrackPointExtension>
        </extensions>
      </trkpt>
      <trkpt lat="42.51849674619734287261962890625" lon="19.76405519060790538787841796875">
        <ele>1854.4000244140625</ele>
        <time>2026-06-18T09:28:58.000Z</time>
        <extensions>
          <ns3:TrackPointExtension>
            <ns3:atemp>19.0</ns3:atemp>
          </ns3:TrackPointExtension>
        </extensions>
      </trkpt>
      <trkpt lat="42.51849791966378688812255859375" lon="19.76405401714146137237548828125">
        <ele>1854.4000244140625</ele>
        <time>2026-06-18T09:28:59.000Z</time>
        <extensions>
          <ns3:TrackPointExtension>
            <ns3:atemp>19.0</ns3:atemp>
          </ns3:TrackPointExtension>
        </extensions>
      </trkpt>
      <trkpt lat="42.5185078941285610198974609375" lon="19.76406164467334747314453125">
        <ele>1854.4000244140625</ele>
        <time>2026-06-18T09:29:00.000Z</time>
        <extensions>
          <ns3:TrackPointExtension>
            <ns3:atemp>19.0</ns3:atemp>
          </ns3:TrackPointExtension>
        </extensions>
      </trkpt>
      <trkpt lat="42.518518455326557159423828125" lon="19.7640792466700077056884765625">
        <ele>1854.4000244140625</ele>
        <time>2026-06-18T09:29:01.000Z</time>
        <extensions>
          <ns3:TrackPointExtension>
            <ns3:atemp>19.0</ns3:atemp>
          </ns3:TrackPointExtension>
        </extensions>
      </trkpt>
      <trkpt lat="42.5185333751142024993896484375" lon="19.76410380564630031585693359375">
        <ele>1854.199951171875</ele>
        <time>2026-06-18T09:29:02.000Z</time>
        <extensions>
          <ns3:TrackPointExtension>
            <ns3:atemp>19.0</ns3:atemp>
          </ns3:TrackPointExtension>
        </extensions>
      </trkpt>
      <trkpt lat="42.5185481272637844085693359375" lon="19.76412978954613208770751953125">
        <ele>1854</ele>
        <time>2026-06-18T09:29:03.000Z</time>
        <extensions>
          <ns3:TrackPointExtension>
            <ns3:atemp>19.0</ns3:atemp>
          </ns3:TrackPointExtension>
        </extensions>
      </trkpt>
      <trkpt lat="42.518570423126220703125" lon="19.76415661163628101348876953125">
        <ele>1854</ele>
        <time>2026-06-18T09:29:04.000Z</time>
        <extensions>
          <ns3:TrackPointExtension>
            <ns3:atemp>19.0</ns3:atemp>
          </ns3:TrackPointExtension>
        </extensions>
      </trkpt>
      <trkpt lat="42.5185959041118621826171875" lon="19.76418435573577880859375">
        <ele>1853.800048828125</ele>
        <time>2026-06-18T09:29:05.000Z</time>
        <extensions>
          <ns3:TrackPointExtension>
            <ns3:atemp>19.0</ns3:atemp>
          </ns3:TrackPointExtension>
        </extensions>
      </trkpt>
      <trkpt lat="42.51862197183072566986083984375" lon="19.76421494968235492706298828125">
        <ele>1853.5999755859375</ele>
        <time>2026-06-18T09:29:06.000Z</time>
        <extensions>
          <ns3:TrackPointExtension>
            <ns3:atemp>19.0</ns3:atemp>
          </ns3:TrackPointExtension>
        </extensions>
      </trkpt>
      <trkpt lat="42.51865088939666748046875" lon="19.76424965076148509979248046875">
        <ele>1853.5999755859375</ele>
        <time>2026-06-18T09:29:07.000Z</time>
        <extensions>
          <ns3:TrackPointExtension>
            <ns3:atemp>19.0</ns3:atemp>
          </ns3:TrackPointExtension>
        </extensions>
      </trkpt>
      <trkpt lat="42.518675029277801513671875" lon="19.7642861120402812957763671875">
        <ele>1853.199951171875</ele>
        <time>2026-06-18T09:29:08.000Z</time>
        <extensions>
          <ns3:TrackPointExtension>
            <ns3:atemp>19.0</ns3:atemp>
          </ns3:TrackPointExtension>
        </extensions>
      </trkpt>
      <trkpt lat="42.5186976604163646697998046875" lon="19.76431653834879398345947265625">
        <ele>1853</ele>
        <time>2026-06-18T09:29:09.000Z</time>
        <extensions>
          <ns3:TrackPointExtension>
            <ns3:atemp>19.0</ns3:atemp>
          </ns3:TrackPointExtension>
        </extensions>
      </trkpt>
      <trkpt lat="42.51872263848781585693359375" lon="19.76434185169637203216552734375">
        <ele>1853</ele>
        <time>2026-06-18T09:29:10.000Z</time>
        <extensions>
          <ns3:TrackPointExtension>
            <ns3:atemp>19.0</ns3:atemp>
          </ns3:TrackPointExtension>
        </extensions>
      </trkpt>
      <trkpt lat="42.51874367706477642059326171875" lon="19.76436884142458438873291015625">
        <ele>1852.800048828125</ele>
        <time>2026-06-18T09:29:11.000Z</time>
        <extensions>
          <ns3:TrackPointExtension>
            <ns3:atemp>19.0</ns3:atemp>
          </ns3:TrackPointExtension>
        </extensions>
      </trkpt>
      <trkpt lat="42.5187657214701175689697265625" lon="19.7643980942666530609130859375">
        <ele>1852.5999755859375</ele>
        <time>2026-06-18T09:29:12.000Z</time>
        <extensions>
          <ns3:TrackPointExtension>
            <ns3:atemp>19.0</ns3:atemp>
          </ns3:TrackPointExtension>
        </extensions>
      </trkpt>
      <trkpt lat="42.518784999847412109375" lon="19.76442650891840457916259765625">
        <ele>1852.4000244140625</ele>
        <time>2026-06-18T09:29:13.000Z</time>
        <extensions>
          <ns3:TrackPointExtension>
            <ns3:atemp>19.0</ns3:atemp>
          </ns3:TrackPointExtension>
        </extensions>
      </trkpt>
      <trkpt lat="42.518802769482135772705078125" lon="19.76444997824728488922119140625">
        <ele>1852.4000244140625</ele>
        <time>2026-06-18T09:29:14.000Z</time>
        <extensions>
          <ns3:TrackPointExtension>
            <ns3:atemp>19.0</ns3:atemp>
          </ns3:TrackPointExtension>
        </extensions>
      </trkpt>
      <trkpt lat="42.518815509974956512451171875" lon="19.76447478868067264556884765625">
        <ele>1852.199951171875</ele>
        <time>2026-06-18T09:29:15.000Z</time>
        <extensions>
          <ns3:TrackPointExtension>
            <ns3:atemp>19.0</ns3:atemp>
          </ns3:TrackPointExtension>
        </extensions>
      </trkpt>
      <trkpt lat="42.518823556602001190185546875" lon="19.76449775509536266326904296875">
        <ele>1852</ele>
        <time>2026-06-18T09:29:16.000Z</time>
        <extensions>
          <ns3:TrackPointExtension>
            <ns3:atemp>19.0</ns3:atemp>
          </ns3:TrackPointExtension>
        </extensions>
      </trkpt>
      <trkpt lat="42.51882263459265232086181640625" lon="19.76451552473008632659912109375">
        <ele>1851.5999755859375</ele>
        <time>2026-06-18T09:29:17.000Z</time>
        <extensions>
          <ns3:TrackPointExtension>
            <ns3:atemp>19.0</ns3:atemp>
          </ns3:TrackPointExtension>
        </extensions>
      </trkpt>
      <trkpt lat="42.51882179640233516693115234375" lon="19.7645295225083827972412109375">
        <ele>1851.4000244140625</ele>
        <time>2026-06-18T09:29:18.000Z</time>
        <extensions>
          <ns3:TrackPointExtension>
            <ns3:atemp>19.0</ns3:atemp>
          </ns3:TrackPointExtension>
        </extensions>
      </trkpt>
      <trkpt lat="42.518820203840732574462890625" lon="19.7645503096282482147216796875">
        <ele>1850.800048828125</ele>
        <time>2026-06-18T09:29:19.000Z</time>
        <extensions>
          <ns3:TrackPointExtension>
            <ns3:atemp>19.0</ns3:atemp>
          </ns3:TrackPointExtension>
        </extensions>
      </trkpt>
      <trkpt lat="42.51881911419332027435302734375" lon="19.764571599662303924560546875">
        <ele>1850.4000244140625</ele>
        <time>2026-06-18T09:29:20.000Z</time>
        <extensions>
          <ns3:TrackPointExtension>
            <ns3:atemp>19.0</ns3:atemp>
          </ns3:TrackPointExtension>
        </extensions>
      </trkpt>
      <trkpt lat="42.51881710253655910491943359375" lon="19.7645881958305835723876953125">
        <ele>1849.800048828125</ele>
        <time>2026-06-18T09:29:21.000Z</time>
        <extensions>
          <ns3:TrackPointExtension>
            <ns3:atemp>19.0</ns3:atemp>
          </ns3:TrackPointExtension>
        </extensions>
      </trkpt>
      <trkpt lat="42.51881391741335391998291015625" lon="19.7646046243607997894287109375">
        <ele>1849.5999755859375</ele>
        <time>2026-06-18T09:29:22.000Z</time>
        <extensions>
          <ns3:TrackPointExtension>
            <ns3:atemp>19.0</ns3:atemp>
          </ns3:TrackPointExtension>
        </extensions>
      </trkpt>
      <trkpt lat="42.5188136659562587738037109375" lon="19.76461996324360370635986328125">
        <ele>1849.199951171875</ele>
        <time>2026-06-18T09:29:23.000Z</time>
        <extensions>
          <ns3:TrackPointExtension>
            <ns3:atemp>19.0</ns3:atemp>
          </ns3:TrackPointExtension>
        </extensions>
      </trkpt>
      <trkpt lat="42.51881743781268596649169921875" lon="19.76464075036346912384033203125">
        <ele>1848.800048828125</ele>
        <time>2026-06-18T09:29:24.000Z</time>
        <extensions>
          <ns3:TrackPointExtension>
            <ns3:atemp>19.0</ns3:atemp>
          </ns3:TrackPointExtension>
        </extensions>
      </trkpt>
      <trkpt lat="42.51882213167846202850341796875" lon="19.76465835236012935638427734375">
        <ele>1848.5999755859375</ele>
        <time>2026-06-18T09:29:25.000Z</time>
        <extensions>
          <ns3:TrackPointExtension>
            <ns3:atemp>19.0</ns3:atemp>
          </ns3:TrackPointExtension>
        </extensions>
      </trkpt>
      <trkpt lat="42.5188265740871429443359375" lon="19.76467050611972808837890625">
        <ele>1848.199951171875</ele>
        <time>2026-06-18T09:29:26.000Z</time>
        <extensions>
          <ns3:TrackPointExtension>
            <ns3:atemp>19.0</ns3:atemp>
          </ns3:TrackPointExtension>
        </extensions>
      </trkpt>
      <trkpt lat="42.5188267417252063751220703125" lon="19.764686934649944305419921875">
        <ele>1847.800048828125</ele>
        <time>2026-06-18T09:29:27.000Z</time>
        <extensions>
          <ns3:TrackPointExtension>
            <ns3:atemp>19.0</ns3:atemp>
          </ns3:TrackPointExtension>
        </extensions>
      </trkpt>
      <trkpt lat="42.51882431097328662872314453125" lon="19.764699675142765045166015625">
        <ele>1847.4000244140625</ele>
        <time>2026-06-18T09:29:28.000Z</time>
        <extensions>
          <ns3:TrackPointExtension>
            <ns3:atemp>19.0</ns3:atemp>
          </ns3:TrackPointExtension>
        </extensions>
      </trkpt>
      <trkpt lat="42.5188233889639377593994140625" lon="19.76470394991338253021240234375">
        <ele>1847</ele>
        <time>2026-06-18T09:29:29.000Z</time>
        <extensions>
          <ns3:TrackPointExtension>
            <ns3:atemp>19.0</ns3:atemp>
          </ns3:TrackPointExtension>
        </extensions>
      </trkpt>
      <trkpt lat="42.5188233889639377593994140625" lon="19.76470394991338253021240234375">
        <ele>1846.5999755859375</ele>
        <time>2026-06-18T09:29:30.000Z</time>
        <extensions>
          <ns3:TrackPointExtension>
            <ns3:atemp>19.0</ns3:atemp>
          </ns3:TrackPointExtension>
        </extensions>
      </trkpt>
      <trkpt lat="42.5188233889639377593994140625" lon="19.76470394991338253021240234375">
        <ele>1846.199951171875</ele>
        <time>2026-06-18T09:29:31.000Z</time>
        <extensions>
          <ns3:TrackPointExtension>
            <ns3:atemp>19.0</ns3:atemp>
          </ns3:TrackPointExtension>
        </extensions>
      </trkpt>
      <trkpt lat="42.5188233889639377593994140625" lon="19.76470394991338253021240234375">
        <ele>1846</ele>
        <time>2026-06-18T09:29:32.000Z</time>
        <extensions>
          <ns3:TrackPointExtension>
            <ns3:atemp>19.0</ns3:atemp>
          </ns3:TrackPointExtension>
        </extensions>
      </trkpt>
      <trkpt lat="42.518823556602001190185546875" lon="19.7647042013704776763916015625">
        <ele>1845.5999755859375</ele>
        <time>2026-06-18T09:29:33.000Z</time>
        <extensions>
          <ns3:TrackPointExtension>
            <ns3:atemp>19.0</ns3:atemp>
          </ns3:TrackPointExtension>
        </extensions>
      </trkpt>
      <trkpt lat="42.51882330514490604400634765625" lon="19.7647142596542835235595703125">
        <ele>1845.4000244140625</ele>
        <time>2026-06-18T09:29:34.000Z</time>
        <extensions>
          <ns3:TrackPointExtension>
            <ns3:atemp>19.0</ns3:atemp>
          </ns3:TrackPointExtension>
        </extensions>
      </trkpt>
      <trkpt lat="42.5188233889639377593994140625" lon="19.76470394991338253021240234375">
        <ele>1845.4000244140625</ele>
        <time>2026-06-18T09:29:35.000Z</time>
        <extensions>
          <ns3:TrackPointExtension>
            <ns3:atemp>19.0</ns3:atemp>
          </ns3:TrackPointExtension>
        </extensions>
      </trkpt>
      <trkpt lat="42.5188233889639377593994140625" lon="19.76470394991338253021240234375">
        <ele>1845.4000244140625</ele>
        <time>2026-06-18T09:29:36.000Z</time>
        <extensions>
          <ns3:TrackPointExtension>
            <ns3:atemp>19.0</ns3:atemp>
          </ns3:TrackPointExtension>
        </extensions>
      </trkpt>
      <trkpt lat="42.5188233889639377593994140625" lon="19.76470394991338253021240234375">
        <ele>1845.4000244140625</ele>
        <time>2026-06-18T09:29:37.000Z</time>
        <extensions>
          <ns3:TrackPointExtension>
            <ns3:atemp>19.0</ns3:atemp>
          </ns3:TrackPointExtension>
        </extensions>
      </trkpt>
      <trkpt lat="42.5188233889639377593994140625" lon="19.76470394991338253021240234375">
        <ele>1845.5999755859375</ele>
        <time>2026-06-18T09:29:38.000Z</time>
        <extensions>
          <ns3:TrackPointExtension>
            <ns3:atemp>19.0</ns3:atemp>
          </ns3:TrackPointExtension>
        </extensions>
      </trkpt>
      <trkpt lat="42.5188233889639377593994140625" lon="19.76470394991338253021240234375">
        <ele>1845.5999755859375</ele>
        <time>2026-06-18T09:29:39.000Z</time>
        <extensions>
          <ns3:TrackPointExtension>
            <ns3:atemp>19.0</ns3:atemp>
          </ns3:TrackPointExtension>
        </extensions>
      </trkpt>
      <trkpt lat="42.5188233889639377593994140625" lon="19.76470394991338253021240234375">
        <ele>1845.5999755859375</ele>
        <time>2026-06-18T09:29:40.000Z</time>
        <extensions>
          <ns3:TrackPointExtension>
            <ns3:atemp>19.0</ns3:atemp>
          </ns3:TrackPointExtension>
        </extensions>
      </trkpt>
      <trkpt lat="42.5188233889639377593994140625" lon="19.76470394991338253021240234375">
        <ele>1845.5999755859375</ele>
        <time>2026-06-18T09:29:41.000Z</time>
        <extensions>
          <ns3:TrackPointExtension>
            <ns3:atemp>19.0</ns3:atemp>
          </ns3:TrackPointExtension>
        </extensions>
      </trkpt>
      <trkpt lat="42.5188233889639377593994140625" lon="19.76470394991338253021240234375">
        <ele>1845.4000244140625</ele>
        <time>2026-06-18T09:29:42.000Z</time>
        <extensions>
          <ns3:TrackPointExtension>
            <ns3:atemp>19.0</ns3:atemp>
          </ns3:TrackPointExtension>
        </extensions>
      </trkpt>
      <trkpt lat="42.51882095821201801300048828125" lon="19.76471417583525180816650390625">
        <ele>1845.4000244140625</ele>
        <time>2026-06-18T09:29:43.000Z</time>
        <extensions>
          <ns3:TrackPointExtension>
            <ns3:atemp>19.0</ns3:atemp>
          </ns3:TrackPointExtension>
        </extensions>
      </trkpt>
      <trkpt lat="42.51881358213722705841064453125" lon="19.76472205482423305511474609375">
        <ele>1845.4000244140625</ele>
        <time>2026-06-18T09:29:44.000Z</time>
        <extensions>
          <ns3:TrackPointExtension>
            <ns3:atemp>19.0</ns3:atemp>
          </ns3:TrackPointExtension>
        </extensions>
      </trkpt>
      <trkpt lat="42.518809139728546142578125" lon="19.76473345421254634857177734375">
        <ele>1845.4000244140625</ele>
        <time>2026-06-18T09:29:45.000Z</time>
        <extensions>
          <ns3:TrackPointExtension>
            <ns3:atemp>19.0</ns3:atemp>
          </ns3:TrackPointExtension>
        </extensions>
      </trkpt>
      <trkpt lat="42.5188089720904827117919921875" lon="19.7647474519908428192138671875">
        <ele>1845.4000244140625</ele>
        <time>2026-06-18T09:29:46.000Z</time>
        <extensions>
          <ns3:TrackPointExtension>
            <ns3:atemp>19.0</ns3:atemp>
          </ns3:TrackPointExtension>
        </extensions>
      </trkpt>
      <trkpt lat="42.5187999196350574493408203125" lon="19.7647702507674694061279296875">
        <ele>1845.199951171875</ele>
        <time>2026-06-18T09:29:47.000Z</time>
        <extensions>
          <ns3:TrackPointExtension>
            <ns3:atemp>19.0</ns3:atemp>
          </ns3:TrackPointExtension>
        </extensions>
      </trkpt>
      <trkpt lat="42.51879128627479076385498046875" lon="19.76480805315077304840087890625">
        <ele>1845</ele>
        <time>2026-06-18T09:29:48.000Z</time>
        <extensions>
          <ns3:TrackPointExtension>
            <ns3:atemp>19.0</ns3:atemp>
          </ns3:TrackPointExtension>
        </extensions>
      </trkpt>
      <trkpt lat="42.518779970705509185791015625" lon="19.76485331542789936065673828125">
        <ele>1844.4000244140625</ele>
        <time>2026-06-18T09:29:49.000Z</time>
        <extensions>
          <ns3:TrackPointExtension>
            <ns3:atemp>19.0</ns3:atemp>
          </ns3:TrackPointExtension>
        </extensions>
      </trkpt>
      <trkpt lat="42.5187680684030055999755859375" lon="19.76490385830402374267578125">
        <ele>1844.199951171875</ele>
        <time>2026-06-18T09:29:50.000Z</time>
        <extensions>
          <ns3:TrackPointExtension>
            <ns3:atemp>19.0</ns3:atemp>
          </ns3:TrackPointExtension>
        </extensions>
      </trkpt>
      <trkpt lat="42.51875356771051883697509765625" lon="19.76494752801954746246337890625">
        <ele>1843.5999755859375</ele>
        <time>2026-06-18T09:29:51.000Z</time>
        <extensions>
          <ns3:TrackPointExtension>
            <ns3:atemp>19.0</ns3:atemp>
          </ns3:TrackPointExtension>
        </extensions>
      </trkpt>
      <trkpt lat="42.5187399052083492279052734375" lon="19.7649796307086944580078125">
        <ele>1842.800048828125</ele>
        <time>2026-06-18T09:29:52.000Z</time>
        <extensions>
          <ns3:TrackPointExtension>
            <ns3:atemp>19.0</ns3:atemp>
          </ns3:TrackPointExtension>
        </extensions>
      </trkpt>
      <trkpt lat="42.5187338702380657196044921875" lon="19.76500838063657283782958984375">
        <ele>1842.199951171875</ele>
        <time>2026-06-18T09:29:53.000Z</time>
        <extensions>
          <ns3:TrackPointExtension>
            <ns3:atemp>19.0</ns3:atemp>
          </ns3:TrackPointExtension>
        </extensions>
      </trkpt>
      <trkpt lat="42.51872540451586246490478515625" lon="19.765026904642581939697265625">
        <ele>1841.800048828125</ele>
        <time>2026-06-18T09:29:54.000Z</time>
        <extensions>
          <ns3:TrackPointExtension>
            <ns3:atemp>19.0</ns3:atemp>
          </ns3:TrackPointExtension>
        </extensions>
      </trkpt>
      <trkpt lat="42.5187127478420734405517578125" lon="19.76505179889500141143798828125">
        <ele>1841.5999755859375</ele>
        <time>2026-06-18T09:29:55.000Z</time>
        <extensions>
          <ns3:TrackPointExtension>
            <ns3:atemp>19.0</ns3:atemp>
          </ns3:TrackPointExtension>
        </extensions>
      </trkpt>
      <trkpt lat="42.51870662905275821685791015625" lon="19.7650884278118610382080078125">
        <ele>1841</ele>
        <time>2026-06-18T09:29:56.000Z</time>
        <extensions>
          <ns3:TrackPointExtension>
            <ns3:atemp>19.0</ns3:atemp>
          </ns3:TrackPointExtension>
        </extensions>
      </trkpt>
      <trkpt lat="42.51870914362370967864990234375" lon="19.765140227973461151123046875">
        <ele>1840.4000244140625</ele>
        <time>2026-06-18T09:29:57.000Z</time>
        <extensions>
          <ns3:TrackPointExtension>
            <ns3:atemp>19.0</ns3:atemp>
          </ns3:TrackPointExtension>
        </extensions>
      </trkpt>
      <trkpt lat="42.51871802844107151031494140625" lon="19.76518926210701465606689453125">
        <ele>1839.800048828125</ele>
        <time>2026-06-18T09:29:58.000Z</time>
        <extensions>
          <ns3:TrackPointExtension>
            <ns3:atemp>19.0</ns3:atemp>
          </ns3:TrackPointExtension>
        </extensions>
      </trkpt>
      <trkpt lat="42.51873412169516086578369140625" lon="19.7652359493076801300048828125">
        <ele>1839</ele>
        <time>2026-06-18T09:29:59.000Z</time>
        <extensions>
          <ns3:TrackPointExtension>
            <ns3:atemp>19.0</ns3:atemp>
          </ns3:TrackPointExtension>
        </extensions>
      </trkpt>
      <trkpt lat="42.51874987967312335968017578125" lon="19.76527693681418895721435546875">
        <ele>1838.199951171875</ele>
        <time>2026-06-18T09:30:00.000Z</time>
        <extensions>
          <ns3:TrackPointExtension>
            <ns3:atemp>19.0</ns3:atemp>
          </ns3:TrackPointExtension>
        </extensions>
      </trkpt>
      <trkpt lat="42.5187680684030055999755859375" lon="19.76531934924423694610595703125">
        <ele>1837.4000244140625</ele>
        <time>2026-06-18T09:30:01.000Z</time>
        <extensions>
          <ns3:TrackPointExtension>
            <ns3:atemp>19.0</ns3:atemp>
          </ns3:TrackPointExtension>
        </extensions>
      </trkpt>
      <trkpt lat="42.51878307200968265533447265625" lon="19.76535991765558719635009765625">
        <ele>1836.800048828125</ele>
        <time>2026-06-18T09:30:02.000Z</time>
        <extensions>
          <ns3:TrackPointExtension>
            <ns3:atemp>19.0</ns3:atemp>
          </ns3:TrackPointExtension>
        </extensions>
      </trkpt>
      <trkpt lat="42.51879036426544189453125" lon="19.76540400646626949310302734375">
        <ele>1836.199951171875</ele>
        <time>2026-06-18T09:30:03.000Z</time>
        <extensions>
          <ns3:TrackPointExtension>
            <ns3:atemp>19.0</ns3:atemp>
          </ns3:TrackPointExtension>
        </extensions>
      </trkpt>
      <trkpt lat="42.51879916526377201080322265625" lon="19.7654438205063343048095703125">
        <ele>1835.5999755859375</ele>
        <time>2026-06-18T09:30:04.000Z</time>
        <extensions>
          <ns3:TrackPointExtension>
            <ns3:atemp>19.0</ns3:atemp>
          </ns3:TrackPointExtension>
        </extensions>
      </trkpt>
      <trkpt lat="42.51880587078630924224853515625" lon="19.76547458209097385406494140625">
        <ele>1835.199951171875</ele>
        <time>2026-06-18T09:30:05.000Z</time>
        <extensions>
          <ns3:TrackPointExtension>
            <ns3:atemp>19.0</ns3:atemp>
          </ns3:TrackPointExtension>
        </extensions>
      </trkpt>
      <trkpt lat="42.5188116542994976043701171875" lon="19.76548321545124053955078125">
        <ele>1835</ele>
        <time>2026-06-18T09:30:06.000Z</time>
        <extensions>
          <ns3:TrackPointExtension>
            <ns3:atemp>19.0</ns3:atemp>
          </ns3:TrackPointExtension>
        </extensions>
      </trkpt>
      <trkpt lat="42.51881140284240245819091796875" lon="19.76548329927027225494384765625">
        <ele>1834.800048828125</ele>
        <time>2026-06-18T09:30:07.000Z</time>
        <extensions>
          <ns3:TrackPointExtension>
            <ns3:atemp>19.0</ns3:atemp>
          </ns3:TrackPointExtension>
        </extensions>
      </trkpt>
      <trkpt lat="42.51881140284240245819091796875" lon="19.76548346690833568572998046875">
        <ele>1834.4000244140625</ele>
        <time>2026-06-18T09:30:08.000Z</time>
        <extensions>
          <ns3:TrackPointExtension>
            <ns3:atemp>19.0</ns3:atemp>
          </ns3:TrackPointExtension>
        </extensions>
      </trkpt>
      <trkpt lat="42.51881140284240245819091796875" lon="19.76548346690833568572998046875">
        <ele>1834.4000244140625</ele>
        <time>2026-06-18T09:30:09.000Z</time>
        <extensions>
          <ns3:TrackPointExtension>
            <ns3:atemp>19.0</ns3:atemp>
          </ns3:TrackPointExtension>
        </extensions>
      </trkpt>
      <trkpt lat="42.51881140284240245819091796875" lon="19.76548363454639911651611328125">
        <ele>1834.4000244140625</ele>
        <time>2026-06-18T09:30:10.000Z</time>
        <extensions>
          <ns3:TrackPointExtension>
            <ns3:atemp>19.0</ns3:atemp>
          </ns3:TrackPointExtension>
        </extensions>
      </trkpt>
      <trkpt lat="42.51881140284240245819091796875" lon="19.76548346690833568572998046875">
        <ele>1834.4000244140625</ele>
        <time>2026-06-18T09:30:11.000Z</time>
        <extensions>
          <ns3:TrackPointExtension>
            <ns3:atemp>19.0</ns3:atemp>
          </ns3:TrackPointExtension>
        </extensions>
      </trkpt>
      <trkpt lat="42.51881140284240245819091796875" lon="19.76548346690833568572998046875">
        <ele>1834.199951171875</ele>
        <time>2026-06-18T09:30:12.000Z</time>
        <extensions>
          <ns3:TrackPointExtension>
            <ns3:atemp>19.0</ns3:atemp>
          </ns3:TrackPointExtension>
        </extensions>
      </trkpt>
      <trkpt lat="42.51881140284240245819091796875" lon="19.76548346690833568572998046875">
        <ele>1834</ele>
        <time>2026-06-18T09:30:13.000Z</time>
        <extensions>
          <ns3:TrackPointExtension>
            <ns3:atemp>19.0</ns3:atemp>
          </ns3:TrackPointExtension>
        </extensions>
      </trkpt>
      <trkpt lat="42.51881140284240245819091796875" lon="19.76548346690833568572998046875">
        <ele>1834</ele>
        <time>2026-06-18T09:30:14.000Z</time>
        <extensions>
          <ns3:TrackPointExtension>
            <ns3:atemp>19.0</ns3:atemp>
          </ns3:TrackPointExtension>
        </extensions>
      </trkpt>
      <trkpt lat="42.51881140284240245819091796875" lon="19.76548346690833568572998046875">
        <ele>1833.800048828125</ele>
        <time>2026-06-18T09:30:15.000Z</time>
        <extensions>
          <ns3:TrackPointExtension>
            <ns3:atemp>19.0</ns3:atemp>
          </ns3:TrackPointExtension>
        </extensions>
      </trkpt>
      <trkpt lat="42.51881140284240245819091796875" lon="19.76548346690833568572998046875">
        <ele>1833.5999755859375</ele>
        <time>2026-06-18T09:30:16.000Z</time>
        <extensions>
          <ns3:TrackPointExtension>
            <ns3:atemp>19.0</ns3:atemp>
          </ns3:TrackPointExtension>
        </extensions>
      </trkpt>
      <trkpt lat="42.51881140284240245819091796875" lon="19.76548346690833568572998046875">
        <ele>1833.5999755859375</ele>
        <time>2026-06-18T09:30:17.000Z</time>
        <extensions>
          <ns3:TrackPointExtension>
            <ns3:atemp>19.0</ns3:atemp>
          </ns3:TrackPointExtension>
        </extensions>
      </trkpt>
      <trkpt lat="42.51881140284240245819091796875" lon="19.76548346690833568572998046875">
        <ele>1833.5999755859375</ele>
        <time>2026-06-18T09:30:18.000Z</time>
        <extensions>
          <ns3:TrackPointExtension>
            <ns3:atemp>19.0</ns3:atemp>
          </ns3:TrackPointExtension>
        </extensions>
      </trkpt>
      <trkpt lat="42.51881140284240245819091796875" lon="19.76548346690833568572998046875">
        <ele>1833.5999755859375</ele>
        <time>2026-06-18T09:30:19.000Z</time>
        <extensions>
          <ns3:TrackPointExtension>
            <ns3:atemp>19.0</ns3:atemp>
          </ns3:TrackPointExtension>
        </extensions>
      </trkpt>
      <trkpt lat="42.51881140284240245819091796875" lon="19.76548346690833568572998046875">
        <ele>1833.4000244140625</ele>
        <time>2026-06-18T09:30:20.000Z</time>
        <extensions>
          <ns3:TrackPointExtension>
            <ns3:atemp>19.0</ns3:atemp>
          </ns3:TrackPointExtension>
        </extensions>
      </trkpt>
      <trkpt lat="42.51881140284240245819091796875" lon="19.76548346690833568572998046875">
        <ele>1833.4000244140625</ele>
        <time>2026-06-18T09:30:21.000Z</time>
        <extensions>
          <ns3:TrackPointExtension>
            <ns3:atemp>19.0</ns3:atemp>
          </ns3:TrackPointExtension>
        </extensions>
      </trkpt>
      <trkpt lat="42.51881140284240245819091796875" lon="19.76548346690833568572998046875">
        <ele>1833.4000244140625</ele>
        <time>2026-06-18T09:30:22.000Z</time>
        <extensions>
          <ns3:TrackPointExtension>
            <ns3:atemp>19.0</ns3:atemp>
          </ns3:TrackPointExtension>
        </extensions>
      </trkpt>
      <trkpt lat="42.51881140284240245819091796875" lon="19.76548346690833568572998046875">
        <ele>1833.199951171875</ele>
        <time>2026-06-18T09:30:23.000Z</time>
        <extensions>
          <ns3:TrackPointExtension>
            <ns3:atemp>19.0</ns3:atemp>
          </ns3:TrackPointExtension>
        </extensions>
      </trkpt>
      <trkpt lat="42.51881140284240245819091796875" lon="19.76548346690833568572998046875">
        <ele>1833</ele>
        <time>2026-06-18T09:30:24.000Z</time>
        <extensions>
          <ns3:TrackPointExtension>
            <ns3:atemp>19.0</ns3:atemp>
          </ns3:TrackPointExtension>
        </extensions>
      </trkpt>
      <trkpt lat="42.51881140284240245819091796875" lon="19.76548346690833568572998046875">
        <ele>1833</ele>
        <time>2026-06-18T09:30:25.000Z</time>
        <extensions>
          <ns3:TrackPointExtension>
            <ns3:atemp>19.0</ns3:atemp>
          </ns3:TrackPointExtension>
        </extensions>
      </trkpt>
      <trkpt lat="42.51881140284240245819091796875" lon="19.76548346690833568572998046875">
        <ele>1833</ele>
        <time>2026-06-18T09:30:26.000Z</time>
        <extensions>
          <ns3:TrackPointExtension>
            <ns3:atemp>19.0</ns3:atemp>
          </ns3:TrackPointExtension>
        </extensions>
      </trkpt>
      <trkpt lat="42.51881140284240245819091796875" lon="19.76548346690833568572998046875">
        <ele>1833</ele>
        <time>2026-06-18T09:30:27.000Z</time>
        <extensions>
          <ns3:TrackPointExtension>
            <ns3:atemp>19.0</ns3:atemp>
          </ns3:TrackPointExtension>
        </extensions>
      </trkpt>
      <trkpt lat="42.51881140284240245819091796875" lon="19.76548346690833568572998046875">
        <ele>1832.800048828125</ele>
        <time>2026-06-18T09:30:28.000Z</time>
        <extensions>
          <ns3:TrackPointExtension>
            <ns3:atemp>19.0</ns3:atemp>
          </ns3:TrackPointExtension>
        </extensions>
      </trkpt>
      <trkpt lat="42.51881140284240245819091796875" lon="19.76548346690833568572998046875">
        <ele>1833</ele>
        <time>2026-06-18T09:30:29.000Z</time>
        <extensions>
          <ns3:TrackPointExtension>
            <ns3:atemp>19.0</ns3:atemp>
          </ns3:TrackPointExtension>
        </extensions>
      </trkpt>
      <trkpt lat="42.51881140284240245819091796875" lon="19.76548346690833568572998046875">
        <ele>1833</ele>
        <time>2026-06-18T09:30:30.000Z</time>
        <extensions>
          <ns3:TrackPointExtension>
            <ns3:atemp>19.0</ns3:atemp>
          </ns3:TrackPointExtension>
        </extensions>
      </trkpt>
      <trkpt lat="42.51881140284240245819091796875" lon="19.76548346690833568572998046875">
        <ele>1833</ele>
        <time>2026-06-18T09:30:31.000Z</time>
        <extensions>
          <ns3:TrackPointExtension>
            <ns3:atemp>19.0</ns3:atemp>
          </ns3:TrackPointExtension>
        </extensions>
      </trkpt>
      <trkpt lat="42.51881140284240245819091796875" lon="19.76548346690833568572998046875">
        <ele>1833</ele>
        <time>2026-06-18T09:30:32.000Z</time>
        <extensions>
          <ns3:TrackPointExtension>
            <ns3:atemp>19.0</ns3:atemp>
          </ns3:TrackPointExtension>
        </extensions>
      </trkpt>
      <trkpt lat="42.51881140284240245819091796875" lon="19.76548346690833568572998046875">
        <ele>1833</ele>
        <time>2026-06-18T09:30:33.000Z</time>
        <extensions>
          <ns3:TrackPointExtension>
            <ns3:atemp>19.0</ns3:atemp>
          </ns3:TrackPointExtension>
        </extensions>
      </trkpt>
      <trkpt lat="42.51881140284240245819091796875" lon="19.76548346690833568572998046875">
        <ele>1833</ele>
        <time>2026-06-18T09:30:34.000Z</time>
        <extensions>
          <ns3:TrackPointExtension>
            <ns3:atemp>19.0</ns3:atemp>
          </ns3:TrackPointExtension>
        </extensions>
      </trkpt>
      <trkpt lat="42.51881140284240245819091796875" lon="19.76548346690833568572998046875">
        <ele>1833</ele>
        <time>2026-06-18T09:30:35.000Z</time>
        <extensions>
          <ns3:TrackPointExtension>
            <ns3:atemp>19.0</ns3:atemp>
          </ns3:TrackPointExtension>
        </extensions>
      </trkpt>
      <trkpt lat="42.51881140284240245819091796875" lon="19.76548346690833568572998046875">
        <ele>1833</ele>
        <time>2026-06-18T09:30:36.000Z</time>
        <extensions>
          <ns3:TrackPointExtension>
            <ns3:atemp>19.0</ns3:atemp>
          </ns3:TrackPointExtension>
        </extensions>
      </trkpt>
      <trkpt lat="42.51881140284240245819091796875" lon="19.76548346690833568572998046875">
        <ele>1833</ele>
        <time>2026-06-18T09:30:37.000Z</time>
        <extensions>
          <ns3:TrackPointExtension>
            <ns3:atemp>19.0</ns3:atemp>
          </ns3:TrackPointExtension>
        </extensions>
      </trkpt>
      <trkpt lat="42.51881140284240245819091796875" lon="19.76548346690833568572998046875">
        <ele>1833</ele>
        <time>2026-06-18T09:30:38.000Z</time>
        <extensions>
          <ns3:TrackPointExtension>
            <ns3:atemp>19.0</ns3:atemp>
          </ns3:TrackPointExtension>
        </extensions>
      </trkpt>
      <trkpt lat="42.51881140284240245819091796875" lon="19.76548346690833568572998046875">
        <ele>1833</ele>
        <time>2026-06-18T09:30:39.000Z</time>
        <extensions>
          <ns3:TrackPointExtension>
            <ns3:atemp>19.0</ns3:atemp>
          </ns3:TrackPointExtension>
        </extensions>
      </trkpt>
      <trkpt lat="42.51881140284240245819091796875" lon="19.76548346690833568572998046875">
        <ele>1833</ele>
        <time>2026-06-18T09:30:40.000Z</time>
        <extensions>
          <ns3:TrackPointExtension>
            <ns3:atemp>19.0</ns3:atemp>
          </ns3:TrackPointExtension>
        </extensions>
      </trkpt>
      <trkpt lat="42.51881140284240245819091796875" lon="19.76548346690833568572998046875">
        <ele>1833</ele>
        <time>2026-06-18T09:30:41.000Z</time>
        <extensions>
          <ns3:TrackPointExtension>
            <ns3:atemp>19.0</ns3:atemp>
          </ns3:TrackPointExtension>
        </extensions>
      </trkpt>
      <trkpt lat="42.51881140284240245819091796875" lon="19.76548346690833568572998046875">
        <ele>1833</ele>
        <time>2026-06-18T09:30:42.000Z</time>
        <extensions>
          <ns3:TrackPointExtension>
            <ns3:atemp>19.0</ns3:atemp>
          </ns3:TrackPointExtension>
        </extensions>
      </trkpt>
      <trkpt lat="42.51881140284240245819091796875" lon="19.76548346690833568572998046875">
        <ele>1832.800048828125</ele>
        <time>2026-06-18T09:30:43.000Z</time>
        <extensions>
          <ns3:TrackPointExtension>
            <ns3:atemp>19.0</ns3:atemp>
          </ns3:TrackPointExtension>
        </extensions>
      </trkpt>
      <trkpt lat="42.51881140284240245819091796875" lon="19.76548346690833568572998046875">
        <ele>1832.800048828125</ele>
        <time>2026-06-18T09:30:44.000Z</time>
        <extensions>
          <ns3:TrackPointExtension>
            <ns3:atemp>19.0</ns3:atemp>
          </ns3:TrackPointExtension>
        </extensions>
      </trkpt>
      <trkpt lat="42.51881140284240245819091796875" lon="19.76548346690833568572998046875">
        <ele>1832.800048828125</ele>
        <time>2026-06-18T09:30:45.000Z</time>
        <extensions>
          <ns3:TrackPointExtension>
            <ns3:atemp>19.0</ns3:atemp>
          </ns3:TrackPointExtension>
        </extensions>
      </trkpt>
      <trkpt lat="42.51881140284240245819091796875" lon="19.76548346690833568572998046875">
        <ele>1832.5999755859375</ele>
        <time>2026-06-18T09:30:46.000Z</time>
        <extensions>
          <ns3:TrackPointExtension>
            <ns3:atemp>19.0</ns3:atemp>
          </ns3:TrackPointExtension>
        </extensions>
      </trkpt>
      <trkpt lat="42.51881140284240245819091796875" lon="19.76548346690833568572998046875">
        <ele>1832.5999755859375</ele>
        <time>2026-06-18T09:30:47.000Z</time>
        <extensions>
          <ns3:TrackPointExtension>
            <ns3:atemp>19.0</ns3:atemp>
          </ns3:TrackPointExtension>
        </extensions>
      </trkpt>
      <trkpt lat="42.51881140284240245819091796875" lon="19.76548346690833568572998046875">
        <ele>1832.5999755859375</ele>
        <time>2026-06-18T09:30:48.000Z</time>
        <extensions>
          <ns3:TrackPointExtension>
            <ns3:atemp>19.0</ns3:atemp>
          </ns3:TrackPointExtension>
        </extensions>
      </trkpt>
      <trkpt lat="42.51881140284240245819091796875" lon="19.76548346690833568572998046875">
        <ele>1832.5999755859375</ele>
        <time>2026-06-18T09:30:49.000Z</time>
        <extensions>
          <ns3:TrackPointExtension>
            <ns3:atemp>19.0</ns3:atemp>
          </ns3:TrackPointExtension>
        </extensions>
      </trkpt>
      <trkpt lat="42.51881140284240245819091796875" lon="19.76548346690833568572998046875">
        <ele>1832.5999755859375</ele>
        <time>2026-06-18T09:30:50.000Z</time>
        <extensions>
          <ns3:TrackPointExtension>
            <ns3:atemp>19.0</ns3:atemp>
          </ns3:TrackPointExtension>
        </extensions>
      </trkpt>
      <trkpt lat="42.51881140284240245819091796875" lon="19.76548346690833568572998046875">
        <ele>1832.5999755859375</ele>
        <time>2026-06-18T09:30:51.000Z</time>
        <extensions>
          <ns3:TrackPointExtension>
            <ns3:atemp>19.0</ns3:atemp>
          </ns3:TrackPointExtension>
        </extensions>
      </trkpt>
      <trkpt lat="42.51881140284240245819091796875" lon="19.76548346690833568572998046875">
        <ele>1832.800048828125</ele>
        <time>2026-06-18T09:30:52.000Z</time>
        <extensions>
          <ns3:TrackPointExtension>
            <ns3:atemp>19.0</ns3:atemp>
          </ns3:TrackPointExtension>
        </extensions>
      </trkpt>
      <trkpt lat="42.51881140284240245819091796875" lon="19.76548346690833568572998046875">
        <ele>1832.800048828125</ele>
        <time>2026-06-18T09:30:53.000Z</time>
        <extensions>
          <ns3:TrackPointExtension>
            <ns3:atemp>19.0</ns3:atemp>
          </ns3:TrackPointExtension>
        </extensions>
      </trkpt>
      <trkpt lat="42.51881140284240245819091796875" lon="19.76548346690833568572998046875">
        <ele>1832.800048828125</ele>
        <time>2026-06-18T09:30:54.000Z</time>
        <extensions>
          <ns3:TrackPointExtension>
            <ns3:atemp>19.0</ns3:atemp>
          </ns3:TrackPointExtension>
        </extensions>
      </trkpt>
      <trkpt lat="42.51881140284240245819091796875" lon="19.76548346690833568572998046875">
        <ele>1832.5999755859375</ele>
        <time>2026-06-18T09:30:55.000Z</time>
        <extensions>
          <ns3:TrackPointExtension>
            <ns3:atemp>20.0</ns3:atemp>
          </ns3:TrackPointExtension>
        </extensions>
      </trkpt>
      <trkpt lat="42.51881140284240245819091796875" lon="19.76548346690833568572998046875">
        <ele>1832.5999755859375</ele>
        <time>2026-06-18T09:30:56.000Z</time>
        <extensions>
          <ns3:TrackPointExtension>
            <ns3:atemp>20.0</ns3:atemp>
          </ns3:TrackPointExtension>
        </extensions>
      </trkpt>
      <trkpt lat="42.51881140284240245819091796875" lon="19.76548346690833568572998046875">
        <ele>1832.5999755859375</ele>
        <time>2026-06-18T09:30:57.000Z</time>
        <extensions>
          <ns3:TrackPointExtension>
            <ns3:atemp>20.0</ns3:atemp>
          </ns3:TrackPointExtension>
        </extensions>
      </trkpt>
      <trkpt lat="42.51881140284240245819091796875" lon="19.76548346690833568572998046875">
        <ele>1832.5999755859375</ele>
        <time>2026-06-18T09:30:58.000Z</time>
        <extensions>
          <ns3:TrackPointExtension>
            <ns3:atemp>20.0</ns3:atemp>
          </ns3:TrackPointExtension>
        </extensions>
      </trkpt>
      <trkpt lat="42.51881140284240245819091796875" lon="19.76548346690833568572998046875">
        <ele>1832.5999755859375</ele>
        <time>2026-06-18T09:30:59.000Z</time>
        <extensions>
          <ns3:TrackPointExtension>
            <ns3:atemp>20.0</ns3:atemp>
          </ns3:TrackPointExtension>
        </extensions>
      </trkpt>
      <trkpt lat="42.51881140284240245819091796875" lon="19.76548346690833568572998046875">
        <ele>1832.5999755859375</ele>
        <time>2026-06-18T09:31:00.000Z</time>
        <extensions>
          <ns3:TrackPointExtension>
            <ns3:atemp>20.0</ns3:atemp>
          </ns3:TrackPointExtension>
        </extensions>
      </trkpt>
      <trkpt lat="42.51881140284240245819091796875" lon="19.76548346690833568572998046875">
        <ele>1832.5999755859375</ele>
        <time>2026-06-18T09:31:01.000Z</time>
        <extensions>
          <ns3:TrackPointExtension>
            <ns3:atemp>20.0</ns3:atemp>
          </ns3:TrackPointExtension>
        </extensions>
      </trkpt>
      <trkpt lat="42.51881140284240245819091796875" lon="19.76548346690833568572998046875">
        <ele>1832.5999755859375</ele>
        <time>2026-06-18T09:31:02.000Z</time>
        <extensions>
          <ns3:TrackPointExtension>
            <ns3:atemp>20.0</ns3:atemp>
          </ns3:TrackPointExtension>
        </extensions>
      </trkpt>
      <trkpt lat="42.51881140284240245819091796875" lon="19.76548346690833568572998046875">
        <ele>1832.800048828125</ele>
        <time>2026-06-18T09:31:03.000Z</time>
        <extensions>
          <ns3:TrackPointExtension>
            <ns3:atemp>20.0</ns3:atemp>
          </ns3:TrackPointExtension>
        </extensions>
      </trkpt>
      <trkpt lat="42.51881140284240245819091796875" lon="19.76548346690833568572998046875">
        <ele>1832.800048828125</ele>
        <time>2026-06-18T09:31:04.000Z</time>
        <extensions>
          <ns3:TrackPointExtension>
            <ns3:atemp>20.0</ns3:atemp>
          </ns3:TrackPointExtension>
        </extensions>
      </trkpt>
      <trkpt lat="42.51881140284240245819091796875" lon="19.76548346690833568572998046875">
        <ele>1832.800048828125</ele>
        <time>2026-06-18T09:31:05.000Z</time>
        <extensions>
          <ns3:TrackPointExtension>
            <ns3:atemp>20.0</ns3:atemp>
          </ns3:TrackPointExtension>
        </extensions>
      </trkpt>
      <trkpt lat="42.51881140284240245819091796875" lon="19.76548346690833568572998046875">
        <ele>1833</ele>
        <time>2026-06-18T09:31:06.000Z</time>
        <extensions>
          <ns3:TrackPointExtension>
            <ns3:atemp>20.0</ns3:atemp>
          </ns3:TrackPointExtension>
        </extensions>
      </trkpt>
      <trkpt lat="42.51881140284240245819091796875" lon="19.76548346690833568572998046875">
        <ele>1833</ele>
        <time>2026-06-18T09:31:07.000Z</time>
        <extensions>
          <ns3:TrackPointExtension>
            <ns3:atemp>20.0</ns3:atemp>
          </ns3:TrackPointExtension>
        </extensions>
      </trkpt>
      <trkpt lat="42.51881140284240245819091796875" lon="19.76548346690833568572998046875">
        <ele>1833</ele>
        <time>2026-06-18T09:31:08.000Z</time>
        <extensions>
          <ns3:TrackPointExtension>
            <ns3:atemp>20.0</ns3:atemp>
          </ns3:TrackPointExtension>
        </extensions>
      </trkpt>
      <trkpt lat="42.51881140284240245819091796875" lon="19.76548346690833568572998046875">
        <ele>1832.800048828125</ele>
        <time>2026-06-18T09:31:09.000Z</time>
        <extensions>
          <ns3:TrackPointExtension>
            <ns3:atemp>20.0</ns3:atemp>
          </ns3:TrackPointExtension>
        </extensions>
      </trkpt>
      <trkpt lat="42.51881140284240245819091796875" lon="19.76548346690833568572998046875">
        <ele>1832.800048828125</ele>
        <time>2026-06-18T09:31:10.000Z</time>
        <extensions>
          <ns3:TrackPointExtension>
            <ns3:atemp>20.0</ns3:atemp>
          </ns3:TrackPointExtension>
        </extensions>
      </trkpt>
      <trkpt lat="42.51881140284240245819091796875" lon="19.76548346690833568572998046875">
        <ele>1832.800048828125</ele>
        <time>2026-06-18T09:31:11.000Z</time>
        <extensions>
          <ns3:TrackPointExtension>
            <ns3:atemp>20.0</ns3:atemp>
          </ns3:TrackPointExtension>
        </extensions>
      </trkpt>
      <trkpt lat="42.51881140284240245819091796875" lon="19.76548346690833568572998046875">
        <ele>1832.800048828125</ele>
        <time>2026-06-18T09:31:12.000Z</time>
        <extensions>
          <ns3:TrackPointExtension>
            <ns3:atemp>20.0</ns3:atemp>
          </ns3:TrackPointExtension>
        </extensions>
      </trkpt>
      <trkpt lat="42.51881140284240245819091796875" lon="19.76548346690833568572998046875">
        <ele>1832.800048828125</ele>
        <time>2026-06-18T09:31:13.000Z</time>
        <extensions>
          <ns3:TrackPointExtension>
            <ns3:atemp>20.0</ns3:atemp>
          </ns3:TrackPointExtension>
        </extensions>
      </trkpt>
      <trkpt lat="42.51881140284240245819091796875" lon="19.76548346690833568572998046875">
        <ele>1832.800048828125</ele>
        <time>2026-06-18T09:31:14.000Z</time>
        <extensions>
          <ns3:TrackPointExtension>
            <ns3:atemp>20.0</ns3:atemp>
          </ns3:TrackPointExtension>
        </extensions>
      </trkpt>
      <trkpt lat="42.51881140284240245819091796875" lon="19.76548346690833568572998046875">
        <ele>1832.800048828125</ele>
        <time>2026-06-18T09:31:15.000Z</time>
        <extensions>
          <ns3:TrackPointExtension>
            <ns3:atemp>20.0</ns3:atemp>
          </ns3:TrackPointExtension>
        </extensions>
      </trkpt>
      <trkpt lat="42.51881140284240245819091796875" lon="19.76548346690833568572998046875">
        <ele>1832.800048828125</ele>
        <time>2026-06-18T09:31:16.000Z</time>
        <extensions>
          <ns3:TrackPointExtension>
            <ns3:atemp>20.0</ns3:atemp>
          </ns3:TrackPointExtension>
        </extensions>
      </trkpt>
      <trkpt lat="42.51881140284240245819091796875" lon="19.76548346690833568572998046875">
        <ele>1832.800048828125</ele>
        <time>2026-06-18T09:31:17.000Z</time>
        <extensions>
          <ns3:TrackPointExtension>
            <ns3:atemp>20.0</ns3:atemp>
          </ns3:TrackPointExtension>
        </extensions>
      </trkpt>
      <trkpt lat="42.51881140284240245819091796875" lon="19.76548346690833568572998046875">
        <ele>1832.800048828125</ele>
        <time>2026-06-18T09:31:18.000Z</time>
        <extensions>
          <ns3:TrackPointExtension>
            <ns3:atemp>20.0</ns3:atemp>
          </ns3:TrackPointExtension>
        </extensions>
      </trkpt>
      <trkpt lat="42.51881140284240245819091796875" lon="19.76548346690833568572998046875">
        <ele>1833</ele>
        <time>2026-06-18T09:31:19.000Z</time>
        <extensions>
          <ns3:TrackPointExtension>
            <ns3:atemp>20.0</ns3:atemp>
          </ns3:TrackPointExtension>
        </extensions>
      </trkpt>
      <trkpt lat="42.51881140284240245819091796875" lon="19.76548346690833568572998046875">
        <ele>1833</ele>
        <time>2026-06-18T09:31:20.000Z</time>
        <extensions>
          <ns3:TrackPointExtension>
            <ns3:atemp>20.0</ns3:atemp>
          </ns3:TrackPointExtension>
        </extensions>
      </trkpt>
      <trkpt lat="42.51881140284240245819091796875" lon="19.76548346690833568572998046875">
        <ele>1833</ele>
        <time>2026-06-18T09:31:21.000Z</time>
        <extensions>
          <ns3:TrackPointExtension>
            <ns3:atemp>20.0</ns3:atemp>
          </ns3:TrackPointExtension>
        </extensions>
      </trkpt>
      <trkpt lat="42.51881140284240245819091796875" lon="19.76548346690833568572998046875">
        <ele>1833</ele>
        <time>2026-06-18T09:31:22.000Z</time>
        <extensions>
          <ns3:TrackPointExtension>
            <ns3:atemp>20.0</ns3:atemp>
          </ns3:TrackPointExtension>
        </extensions>
      </trkpt>
      <trkpt lat="42.51881140284240245819091796875" lon="19.76548346690833568572998046875">
        <ele>1833</ele>
        <time>2026-06-18T09:31:23.000Z</time>
        <extensions>
          <ns3:TrackPointExtension>
            <ns3:atemp>20.0</ns3:atemp>
          </ns3:TrackPointExtension>
        </extensions>
      </trkpt>
      <trkpt lat="42.51881140284240245819091796875" lon="19.76548346690833568572998046875">
        <ele>1833</ele>
        <time>2026-06-18T09:31:24.000Z</time>
        <extensions>
          <ns3:TrackPointExtension>
            <ns3:atemp>20.0</ns3:atemp>
          </ns3:TrackPointExtension>
        </extensions>
      </trkpt>
      <trkpt lat="42.51881140284240245819091796875" lon="19.76548346690833568572998046875">
        <ele>1833</ele>
        <time>2026-06-18T09:31:25.000Z</time>
        <extensions>
          <ns3:TrackPointExtension>
            <ns3:atemp>20.0</ns3:atemp>
          </ns3:TrackPointExtension>
        </extensions>
      </trkpt>
      <trkpt lat="42.51881140284240245819091796875" lon="19.76548346690833568572998046875">
        <ele>1833</ele>
        <time>2026-06-18T09:31:26.000Z</time>
        <extensions>
          <ns3:TrackPointExtension>
            <ns3:atemp>20.0</ns3:atemp>
          </ns3:TrackPointExtension>
        </extensions>
      </trkpt>
      <trkpt lat="42.51881140284240245819091796875" lon="19.76548346690833568572998046875">
        <ele>1833</ele>
        <time>2026-06-18T09:31:27.000Z</time>
        <extensions>
          <ns3:TrackPointExtension>
            <ns3:atemp>20.0</ns3:atemp>
          </ns3:TrackPointExtension>
        </extensions>
      </trkpt>
      <trkpt lat="42.51881140284240245819091796875" lon="19.76548346690833568572998046875">
        <ele>1832.800048828125</ele>
        <time>2026-06-18T09:31:28.000Z</time>
        <extensions>
          <ns3:TrackPointExtension>
            <ns3:atemp>20.0</ns3:atemp>
          </ns3:TrackPointExtension>
        </extensions>
      </trkpt>
      <trkpt lat="42.51881140284240245819091796875" lon="19.76548346690833568572998046875">
        <ele>1832.800048828125</ele>
        <time>2026-06-18T09:31:29.000Z</time>
        <extensions>
          <ns3:TrackPointExtension>
            <ns3:atemp>20.0</ns3:atemp>
          </ns3:TrackPointExtension>
        </extensions>
      </trkpt>
      <trkpt lat="42.51881140284240245819091796875" lon="19.76548346690833568572998046875">
        <ele>1832.800048828125</ele>
        <time>2026-06-18T09:31:30.000Z</time>
        <extensions>
          <ns3:TrackPointExtension>
            <ns3:atemp>20.0</ns3:atemp>
          </ns3:TrackPointExtension>
        </extensions>
      </trkpt>
      <trkpt lat="42.51881140284240245819091796875" lon="19.76548346690833568572998046875">
        <ele>1832.800048828125</ele>
        <time>2026-06-18T09:31:31.000Z</time>
        <extensions>
          <ns3:TrackPointExtension>
            <ns3:atemp>20.0</ns3:atemp>
          </ns3:TrackPointExtension>
        </extensions>
      </trkpt>
      <trkpt lat="42.51881140284240245819091796875" lon="19.76548346690833568572998046875">
        <ele>1832.800048828125</ele>
        <time>2026-06-18T09:31:32.000Z</time>
        <extensions>
          <ns3:TrackPointExtension>
            <ns3:atemp>20.0</ns3:atemp>
          </ns3:TrackPointExtension>
        </extensions>
      </trkpt>
      <trkpt lat="42.51881140284240245819091796875" lon="19.76548346690833568572998046875">
        <ele>1832.800048828125</ele>
        <time>2026-06-18T09:31:33.000Z</time>
        <extensions>
          <ns3:TrackPointExtension>
            <ns3:atemp>20.0</ns3:atemp>
          </ns3:TrackPointExtension>
        </extensions>
      </trkpt>
      <trkpt lat="42.51881140284240245819091796875" lon="19.76548346690833568572998046875">
        <ele>1832.800048828125</ele>
        <time>2026-06-18T09:31:34.000Z</time>
        <extensions>
          <ns3:TrackPointExtension>
            <ns3:atemp>20.0</ns3:atemp>
          </ns3:TrackPointExtension>
        </extensions>
      </trkpt>
      <trkpt lat="42.51881140284240245819091796875" lon="19.76548346690833568572998046875">
        <ele>1832.5999755859375</ele>
        <time>2026-06-18T09:31:35.000Z</time>
        <extensions>
          <ns3:TrackPointExtension>
            <ns3:atemp>20.0</ns3:atemp>
          </ns3:TrackPointExtension>
        </extensions>
      </trkpt>
      <trkpt lat="42.51881140284240245819091796875" lon="19.76548346690833568572998046875">
        <ele>1832.5999755859375</ele>
        <time>2026-06-18T09:31:36.000Z</time>
        <extensions>
          <ns3:TrackPointExtension>
            <ns3:atemp>20.0</ns3:atemp>
          </ns3:TrackPointExtension>
        </extensions>
      </trkpt>
      <trkpt lat="42.51881140284240245819091796875" lon="19.76548346690833568572998046875">
        <ele>1832.5999755859375</ele>
        <time>2026-06-18T09:31:37.000Z</time>
        <extensions>
          <ns3:TrackPointExtension>
            <ns3:atemp>20.0</ns3:atemp>
          </ns3:TrackPointExtension>
        </extensions>
      </trkpt>
      <trkpt lat="42.51881140284240245819091796875" lon="19.76548346690833568572998046875">
        <ele>1832.4000244140625</ele>
        <time>2026-06-18T09:31:38.000Z</time>
        <extensions>
          <ns3:TrackPointExtension>
            <ns3:atemp>20.0</ns3:atemp>
          </ns3:TrackPointExtension>
        </extensions>
      </trkpt>
      <trkpt lat="42.51881140284240245819091796875" lon="19.76548346690833568572998046875">
        <ele>1832.5999755859375</ele>
        <time>2026-06-18T09:31:39.000Z</time>
        <extensions>
          <ns3:TrackPointExtension>
            <ns3:atemp>20.0</ns3:atemp>
          </ns3:TrackPointExtension>
        </extensions>
      </trkpt>
      <trkpt lat="42.51881140284240245819091796875" lon="19.76548346690833568572998046875">
        <ele>1832.5999755859375</ele>
        <time>2026-06-18T09:31:40.000Z</time>
        <extensions>
          <ns3:TrackPointExtension>
            <ns3:atemp>20.0</ns3:atemp>
          </ns3:TrackPointExtension>
        </extensions>
      </trkpt>
      <trkpt lat="42.51881140284240245819091796875" lon="19.76548346690833568572998046875">
        <ele>1832.5999755859375</ele>
        <time>2026-06-18T09:31:41.000Z</time>
        <extensions>
          <ns3:TrackPointExtension>
            <ns3:atemp>20.0</ns3:atemp>
          </ns3:TrackPointExtension>
        </extensions>
      </trkpt>
      <trkpt lat="42.51881140284240245819091796875" lon="19.76548346690833568572998046875">
        <ele>1832.5999755859375</ele>
        <time>2026-06-18T09:31:42.000Z</time>
        <extensions>
          <ns3:TrackPointExtension>
            <ns3:atemp>20.0</ns3:atemp>
          </ns3:TrackPointExtension>
        </extensions>
      </trkpt>
      <trkpt lat="42.51881140284240245819091796875" lon="19.76548346690833568572998046875">
        <ele>1832.5999755859375</ele>
        <time>2026-06-18T09:31:43.000Z</time>
        <extensions>
          <ns3:TrackPointExtension>
            <ns3:atemp>20.0</ns3:atemp>
          </ns3:TrackPointExtension>
        </extensions>
      </trkpt>
      <trkpt lat="42.51881140284240245819091796875" lon="19.76548346690833568572998046875">
        <ele>1832.5999755859375</ele>
        <time>2026-06-18T09:31:44.000Z</time>
        <extensions>
          <ns3:TrackPointExtension>
            <ns3:atemp>20.0</ns3:atemp>
          </ns3:TrackPointExtension>
        </extensions>
      </trkpt>
      <trkpt lat="42.51881140284240245819091796875" lon="19.76548346690833568572998046875">
        <ele>1832.5999755859375</ele>
        <time>2026-06-18T09:31:45.000Z</time>
        <extensions>
          <ns3:TrackPointExtension>
            <ns3:atemp>20.0</ns3:atemp>
          </ns3:TrackPointExtension>
        </extensions>
      </trkpt>
      <trkpt lat="42.51881140284240245819091796875" lon="19.76548346690833568572998046875">
        <ele>1832.5999755859375</ele>
        <time>2026-06-18T09:31:46.000Z</time>
        <extensions>
          <ns3:TrackPointExtension>
            <ns3:atemp>20.0</ns3:atemp>
          </ns3:TrackPointExtension>
        </extensions>
      </trkpt>
      <trkpt lat="42.51881140284240245819091796875" lon="19.76548346690833568572998046875">
        <ele>1832.5999755859375</ele>
        <time>2026-06-18T09:31:47.000Z</time>
        <extensions>
          <ns3:TrackPointExtension>
            <ns3:atemp>20.0</ns3:atemp>
          </ns3:TrackPointExtension>
        </extensions>
      </trkpt>
      <trkpt lat="42.51881140284240245819091796875" lon="19.76548346690833568572998046875">
        <ele>1832.5999755859375</ele>
        <time>2026-06-18T09:31:48.000Z</time>
        <extensions>
          <ns3:TrackPointExtension>
            <ns3:atemp>20.0</ns3:atemp>
          </ns3:TrackPointExtension>
        </extensions>
      </trkpt>
      <trkpt lat="42.51881140284240245819091796875" lon="19.76548346690833568572998046875">
        <ele>1832.5999755859375</ele>
        <time>2026-06-18T09:31:49.000Z</time>
        <extensions>
          <ns3:TrackPointExtension>
            <ns3:atemp>20.0</ns3:atemp>
          </ns3:TrackPointExtension>
        </extensions>
      </trkpt>
      <trkpt lat="42.51881140284240245819091796875" lon="19.76548346690833568572998046875">
        <ele>1832.5999755859375</ele>
        <time>2026-06-18T09:31:50.000Z</time>
        <extensions>
          <ns3:TrackPointExtension>
            <ns3:atemp>20.0</ns3:atemp>
          </ns3:TrackPointExtension>
        </extensions>
      </trkpt>
      <trkpt lat="42.51881140284240245819091796875" lon="19.76548346690833568572998046875">
        <ele>1832.5999755859375</ele>
        <time>2026-06-18T09:31:51.000Z</time>
        <extensions>
          <ns3:TrackPointExtension>
            <ns3:atemp>20.0</ns3:atemp>
          </ns3:TrackPointExtension>
        </extensions>
      </trkpt>
      <trkpt lat="42.51881140284240245819091796875" lon="19.76548346690833568572998046875">
        <ele>1832.5999755859375</ele>
        <time>2026-06-18T09:31:52.000Z</time>
        <extensions>
          <ns3:TrackPointExtension>
            <ns3:atemp>20.0</ns3:atemp>
          </ns3:TrackPointExtension>
        </extensions>
      </trkpt>
      <trkpt lat="42.51881140284240245819091796875" lon="19.76548346690833568572998046875">
        <ele>1832.5999755859375</ele>
        <time>2026-06-18T09:31:53.000Z</time>
        <extensions>
          <ns3:TrackPointExtension>
            <ns3:atemp>20.0</ns3:atemp>
          </ns3:TrackPointExtension>
        </extensions>
      </trkpt>
      <trkpt lat="42.51881140284240245819091796875" lon="19.76548346690833568572998046875">
        <ele>1832.5999755859375</ele>
        <time>2026-06-18T09:31:54.000Z</time>
        <extensions>
          <ns3:TrackPointExtension>
            <ns3:atemp>20.0</ns3:atemp>
          </ns3:TrackPointExtension>
        </extensions>
      </trkpt>
      <trkpt lat="42.51881140284240245819091796875" lon="19.76548346690833568572998046875">
        <ele>1832.5999755859375</ele>
        <time>2026-06-18T09:31:55.000Z</time>
        <extensions>
          <ns3:TrackPointExtension>
            <ns3:atemp>20.0</ns3:atemp>
          </ns3:TrackPointExtension>
        </extensions>
      </trkpt>
      <trkpt lat="42.51881140284240245819091796875" lon="19.76548346690833568572998046875">
        <ele>1832.5999755859375</ele>
        <time>2026-06-18T09:31:56.000Z</time>
        <extensions>
          <ns3:TrackPointExtension>
            <ns3:atemp>20.0</ns3:atemp>
          </ns3:TrackPointExtension>
        </extensions>
      </trkpt>
      <trkpt lat="42.51881140284240245819091796875" lon="19.76548346690833568572998046875">
        <ele>1832.5999755859375</ele>
        <time>2026-06-18T09:31:57.000Z</time>
        <extensions>
          <ns3:TrackPointExtension>
            <ns3:atemp>20.0</ns3:atemp>
          </ns3:TrackPointExtension>
        </extensions>
      </trkpt>
      <trkpt lat="42.51881140284240245819091796875" lon="19.76548346690833568572998046875">
        <ele>1832.5999755859375</ele>
        <time>2026-06-18T09:31:58.000Z</time>
        <extensions>
          <ns3:TrackPointExtension>
            <ns3:atemp>20.0</ns3:atemp>
          </ns3:TrackPointExtension>
        </extensions>
      </trkpt>
      <trkpt lat="42.51881140284240245819091796875" lon="19.76548346690833568572998046875">
        <ele>1832.5999755859375</ele>
        <time>2026-06-18T09:31:59.000Z</time>
        <extensions>
          <ns3:TrackPointExtension>
            <ns3:atemp>20.0</ns3:atemp>
          </ns3:TrackPointExtension>
        </extensions>
      </trkpt>
      <trkpt lat="42.51881140284240245819091796875" lon="19.76548346690833568572998046875">
        <ele>1832.5999755859375</ele>
        <time>2026-06-18T09:32:00.000Z</time>
        <extensions>
          <ns3:TrackPointExtension>
            <ns3:atemp>20.0</ns3:atemp>
          </ns3:TrackPointExtension>
        </extensions>
      </trkpt>
      <trkpt lat="42.51881140284240245819091796875" lon="19.76548346690833568572998046875">
        <ele>1832.5999755859375</ele>
        <time>2026-06-18T09:32:01.000Z</time>
        <extensions>
          <ns3:TrackPointExtension>
            <ns3:atemp>20.0</ns3:atemp>
          </ns3:TrackPointExtension>
        </extensions>
      </trkpt>
      <trkpt lat="42.51881140284240245819091796875" lon="19.76548346690833568572998046875">
        <ele>1832.5999755859375</ele>
        <time>2026-06-18T09:32:02.000Z</time>
        <extensions>
          <ns3:TrackPointExtension>
            <ns3:atemp>20.0</ns3:atemp>
          </ns3:TrackPointExtension>
        </extensions>
      </trkpt>
      <trkpt lat="42.51881140284240245819091796875" lon="19.76548346690833568572998046875">
        <ele>1832.5999755859375</ele>
        <time>2026-06-18T09:32:03.000Z</time>
        <extensions>
          <ns3:TrackPointExtension>
            <ns3:atemp>20.0</ns3:atemp>
          </ns3:TrackPointExtension>
        </extensions>
      </trkpt>
      <trkpt lat="42.51881140284240245819091796875" lon="19.76548346690833568572998046875">
        <ele>1832.5999755859375</ele>
        <time>2026-06-18T09:32:04.000Z</time>
        <extensions>
          <ns3:TrackPointExtension>
            <ns3:atemp>20.0</ns3:atemp>
          </ns3:TrackPointExtension>
        </extensions>
      </trkpt>
      <trkpt lat="42.51881140284240245819091796875" lon="19.76548346690833568572998046875">
        <ele>1832.5999755859375</ele>
        <time>2026-06-18T09:32:05.000Z</time>
        <extensions>
          <ns3:TrackPointExtension>
            <ns3:atemp>20.0</ns3:atemp>
          </ns3:TrackPointExtension>
        </extensions>
      </trkpt>
      <trkpt lat="42.51881140284240245819091796875" lon="19.76548346690833568572998046875">
        <ele>1832.5999755859375</ele>
        <time>2026-06-18T09:32:06.000Z</time>
        <extensions>
          <ns3:TrackPointExtension>
            <ns3:atemp>20.0</ns3:atemp>
          </ns3:TrackPointExtension>
        </extensions>
      </trkpt>
      <trkpt lat="42.51881140284240245819091796875" lon="19.76548346690833568572998046875">
        <ele>1832.5999755859375</ele>
        <time>2026-06-18T09:32:07.000Z</time>
        <extensions>
          <ns3:TrackPointExtension>
            <ns3:atemp>20.0</ns3:atemp>
          </ns3:TrackPointExtension>
        </extensions>
      </trkpt>
      <trkpt lat="42.51881140284240245819091796875" lon="19.76548346690833568572998046875">
        <ele>1832.5999755859375</ele>
        <time>2026-06-18T09:32:08.000Z</time>
        <extensions>
          <ns3:TrackPointExtension>
            <ns3:atemp>20.0</ns3:atemp>
          </ns3:TrackPointExtension>
        </extensions>
      </trkpt>
      <trkpt lat="42.51881140284240245819091796875" lon="19.76548346690833568572998046875">
        <ele>1832.5999755859375</ele>
        <time>2026-06-18T09:32:09.000Z</time>
        <extensions>
          <ns3:TrackPointExtension>
            <ns3:atemp>20.0</ns3:atemp>
          </ns3:TrackPointExtension>
        </extensions>
      </trkpt>
      <trkpt lat="42.51881140284240245819091796875" lon="19.76548346690833568572998046875">
        <ele>1832.5999755859375</ele>
        <time>2026-06-18T09:32:10.000Z</time>
        <extensions>
          <ns3:TrackPointExtension>
            <ns3:atemp>20.0</ns3:atemp>
          </ns3:TrackPointExtension>
        </extensions>
      </trkpt>
      <trkpt lat="42.51881140284240245819091796875" lon="19.76548346690833568572998046875">
        <ele>1832.5999755859375</ele>
        <time>2026-06-18T09:32:11.000Z</time>
        <extensions>
          <ns3:TrackPointExtension>
            <ns3:atemp>20.0</ns3:atemp>
          </ns3:TrackPointExtension>
        </extensions>
      </trkpt>
      <trkpt lat="42.51881140284240245819091796875" lon="19.76548346690833568572998046875">
        <ele>1832.5999755859375</ele>
        <time>2026-06-18T09:32:12.000Z</time>
        <extensions>
          <ns3:TrackPointExtension>
            <ns3:atemp>20.0</ns3:atemp>
          </ns3:TrackPointExtension>
        </extensions>
      </trkpt>
      <trkpt lat="42.51881140284240245819091796875" lon="19.76548346690833568572998046875">
        <ele>1832.5999755859375</ele>
        <time>2026-06-18T09:32:13.000Z</time>
        <extensions>
          <ns3:TrackPointExtension>
            <ns3:atemp>20.0</ns3:atemp>
          </ns3:TrackPointExtension>
        </extensions>
      </trkpt>
      <trkpt lat="42.51881140284240245819091796875" lon="19.76548346690833568572998046875">
        <ele>1832.5999755859375</ele>
        <time>2026-06-18T09:32:14.000Z</time>
        <extensions>
          <ns3:TrackPointExtension>
            <ns3:atemp>20.0</ns3:atemp>
          </ns3:TrackPointExtension>
        </extensions>
      </trkpt>
      <trkpt lat="42.51881140284240245819091796875" lon="19.76548346690833568572998046875">
        <ele>1832.5999755859375</ele>
        <time>2026-06-18T09:32:15.000Z</time>
        <extensions>
          <ns3:TrackPointExtension>
            <ns3:atemp>20.0</ns3:atemp>
          </ns3:TrackPointExtension>
        </extensions>
      </trkpt>
      <trkpt lat="42.51881140284240245819091796875" lon="19.76548346690833568572998046875">
        <ele>1832.5999755859375</ele>
        <time>2026-06-18T09:32:16.000Z</time>
        <extensions>
          <ns3:TrackPointExtension>
            <ns3:atemp>20.0</ns3:atemp>
          </ns3:TrackPointExtension>
        </extensions>
      </trkpt>
      <trkpt lat="42.51881140284240245819091796875" lon="19.76548346690833568572998046875">
        <ele>1832.5999755859375</ele>
        <time>2026-06-18T09:32:17.000Z</time>
        <extensions>
          <ns3:TrackPointExtension>
            <ns3:atemp>20.0</ns3:atemp>
          </ns3:TrackPointExtension>
        </extensions>
      </trkpt>
      <trkpt lat="42.51881140284240245819091796875" lon="19.76548346690833568572998046875">
        <ele>1832.5999755859375</ele>
        <time>2026-06-18T09:32:18.000Z</time>
        <extensions>
          <ns3:TrackPointExtension>
            <ns3:atemp>20.0</ns3:atemp>
          </ns3:TrackPointExtension>
        </extensions>
      </trkpt>
      <trkpt lat="42.51881140284240245819091796875" lon="19.76548346690833568572998046875">
        <ele>1832.5999755859375</ele>
        <time>2026-06-18T09:32:19.000Z</time>
        <extensions>
          <ns3:TrackPointExtension>
            <ns3:atemp>20.0</ns3:atemp>
          </ns3:TrackPointExtension>
        </extensions>
      </trkpt>
      <trkpt lat="42.51881140284240245819091796875" lon="19.76548346690833568572998046875">
        <ele>1832.5999755859375</ele>
        <time>2026-06-18T09:32:20.000Z</time>
        <extensions>
          <ns3:TrackPointExtension>
            <ns3:atemp>20.0</ns3:atemp>
          </ns3:TrackPointExtension>
        </extensions>
      </trkpt>
      <trkpt lat="42.51881140284240245819091796875" lon="19.76548346690833568572998046875">
        <ele>1832.5999755859375</ele>
        <time>2026-06-18T09:32:21.000Z</time>
        <extensions>
          <ns3:TrackPointExtension>
            <ns3:atemp>20.0</ns3:atemp>
          </ns3:TrackPointExtension>
        </extensions>
      </trkpt>
      <trkpt lat="42.51881140284240245819091796875" lon="19.76548346690833568572998046875">
        <ele>1832.5999755859375</ele>
        <time>2026-06-18T09:32:22.000Z</time>
        <extensions>
          <ns3:TrackPointExtension>
            <ns3:atemp>20.0</ns3:atemp>
          </ns3:TrackPointExtension>
        </extensions>
      </trkpt>
      <trkpt lat="42.51881140284240245819091796875" lon="19.76548346690833568572998046875">
        <ele>1832.5999755859375</ele>
        <time>2026-06-18T09:32:23.000Z</time>
        <extensions>
          <ns3:TrackPointExtension>
            <ns3:atemp>20.0</ns3:atemp>
          </ns3:TrackPointExtension>
        </extensions>
      </trkpt>
      <trkpt lat="42.51881140284240245819091796875" lon="19.76548346690833568572998046875">
        <ele>1832.5999755859375</ele>
        <time>2026-06-18T09:32:24.000Z</time>
        <extensions>
          <ns3:TrackPointExtension>
            <ns3:atemp>20.0</ns3:atemp>
          </ns3:TrackPointExtension>
        </extensions>
      </trkpt>
      <trkpt lat="42.51881140284240245819091796875" lon="19.76548346690833568572998046875">
        <ele>1832.5999755859375</ele>
        <time>2026-06-18T09:32:25.000Z</time>
        <extensions>
          <ns3:TrackPointExtension>
            <ns3:atemp>20.0</ns3:atemp>
          </ns3:TrackPointExtension>
        </extensions>
      </trkpt>
      <trkpt lat="42.51881140284240245819091796875" lon="19.76548346690833568572998046875">
        <ele>1832.5999755859375</ele>
        <time>2026-06-18T09:32:26.000Z</time>
        <extensions>
          <ns3:TrackPointExtension>
            <ns3:atemp>20.0</ns3:atemp>
          </ns3:TrackPointExtension>
        </extensions>
      </trkpt>
      <trkpt lat="42.51881140284240245819091796875" lon="19.76548346690833568572998046875">
        <ele>1832.5999755859375</ele>
        <time>2026-06-18T09:32:27.000Z</time>
        <extensions>
          <ns3:TrackPointExtension>
            <ns3:atemp>20.0</ns3:atemp>
          </ns3:TrackPointExtension>
        </extensions>
      </trkpt>
      <trkpt lat="42.51881140284240245819091796875" lon="19.76548346690833568572998046875">
        <ele>1832.5999755859375</ele>
        <time>2026-06-18T09:32:28.000Z</time>
        <extensions>
          <ns3:TrackPointExtension>
            <ns3:atemp>20.0</ns3:atemp>
          </ns3:TrackPointExtension>
        </extensions>
      </trkpt>
      <trkpt lat="42.51881140284240245819091796875" lon="19.76548346690833568572998046875">
        <ele>1832.5999755859375</ele>
        <time>2026-06-18T09:32:29.000Z</time>
        <extensions>
          <ns3:TrackPointExtension>
            <ns3:atemp>20.0</ns3:atemp>
          </ns3:TrackPointExtension>
        </extensions>
      </trkpt>
      <trkpt lat="42.51881140284240245819091796875" lon="19.76548346690833568572998046875">
        <ele>1832.5999755859375</ele>
        <time>2026-06-18T09:32:30.000Z</time>
        <extensions>
          <ns3:TrackPointExtension>
            <ns3:atemp>20.0</ns3:atemp>
          </ns3:TrackPointExtension>
        </extensions>
      </trkpt>
      <trkpt lat="42.51881140284240245819091796875" lon="19.76548346690833568572998046875">
        <ele>1832.5999755859375</ele>
        <time>2026-06-18T09:32:31.000Z</time>
        <extensions>
          <ns3:TrackPointExtension>
            <ns3:atemp>20.0</ns3:atemp>
          </ns3:TrackPointExtension>
        </extensions>
      </trkpt>
      <trkpt lat="42.51881140284240245819091796875" lon="19.76548346690833568572998046875">
        <ele>1832.5999755859375</ele>
        <time>2026-06-18T09:32:32.000Z</time>
        <extensions>
          <ns3:TrackPointExtension>
            <ns3:atemp>20.0</ns3:atemp>
          </ns3:TrackPointExtension>
        </extensions>
      </trkpt>
      <trkpt lat="42.51881140284240245819091796875" lon="19.76548346690833568572998046875">
        <ele>1832.5999755859375</ele>
        <time>2026-06-18T09:32:33.000Z</time>
        <extensions>
          <ns3:TrackPointExtension>
            <ns3:atemp>20.0</ns3:atemp>
          </ns3:TrackPointExtension>
        </extensions>
      </trkpt>
      <trkpt lat="42.51881140284240245819091796875" lon="19.76548346690833568572998046875">
        <ele>1832.5999755859375</ele>
        <time>2026-06-18T09:32:34.000Z</time>
        <extensions>
          <ns3:TrackPointExtension>
            <ns3:atemp>20.0</ns3:atemp>
          </ns3:TrackPointExtension>
        </extensions>
      </trkpt>
      <trkpt lat="42.51881140284240245819091796875" lon="19.76548346690833568572998046875">
        <ele>1832.5999755859375</ele>
        <time>2026-06-18T09:32:35.000Z</time>
        <extensions>
          <ns3:TrackPointExtension>
            <ns3:atemp>20.0</ns3:atemp>
          </ns3:TrackPointExtension>
        </extensions>
      </trkpt>
      <trkpt lat="42.51881140284240245819091796875" lon="19.76548346690833568572998046875">
        <ele>1832.5999755859375</ele>
        <time>2026-06-18T09:32:36.000Z</time>
        <extensions>
          <ns3:TrackPointExtension>
            <ns3:atemp>20.0</ns3:atemp>
          </ns3:TrackPointExtension>
        </extensions>
      </trkpt>
      <trkpt lat="42.51881140284240245819091796875" lon="19.76548346690833568572998046875">
        <ele>1832.5999755859375</ele>
        <time>2026-06-18T09:32:37.000Z</time>
        <extensions>
          <ns3:TrackPointExtension>
            <ns3:atemp>20.0</ns3:atemp>
          </ns3:TrackPointExtension>
        </extensions>
      </trkpt>
      <trkpt lat="42.51881140284240245819091796875" lon="19.76548346690833568572998046875">
        <ele>1832.5999755859375</ele>
        <time>2026-06-18T09:32:38.000Z</time>
        <extensions>
          <ns3:TrackPointExtension>
            <ns3:atemp>20.0</ns3:atemp>
          </ns3:TrackPointExtension>
        </extensions>
      </trkpt>
      <trkpt lat="42.51881140284240245819091796875" lon="19.76548346690833568572998046875">
        <ele>1832.5999755859375</ele>
        <time>2026-06-18T09:32:39.000Z</time>
        <extensions>
          <ns3:TrackPointExtension>
            <ns3:atemp>20.0</ns3:atemp>
          </ns3:TrackPointExtension>
        </extensions>
      </trkpt>
      <trkpt lat="42.51881140284240245819091796875" lon="19.76548346690833568572998046875">
        <ele>1832.5999755859375</ele>
        <time>2026-06-18T09:32:40.000Z</time>
        <extensions>
          <ns3:TrackPointExtension>
            <ns3:atemp>20.0</ns3:atemp>
          </ns3:TrackPointExtension>
        </extensions>
      </trkpt>
      <trkpt lat="42.51881140284240245819091796875" lon="19.76548346690833568572998046875">
        <ele>1832.5999755859375</ele>
        <time>2026-06-18T09:32:41.000Z</time>
        <extensions>
          <ns3:TrackPointExtension>
            <ns3:atemp>20.0</ns3:atemp>
          </ns3:TrackPointExtension>
        </extensions>
      </trkpt>
      <trkpt lat="42.51881140284240245819091796875" lon="19.76548346690833568572998046875">
        <ele>1832.5999755859375</ele>
        <time>2026-06-18T09:32:42.000Z</time>
        <extensions>
          <ns3:TrackPointExtension>
            <ns3:atemp>20.0</ns3:atemp>
          </ns3:TrackPointExtension>
        </extensions>
      </trkpt>
      <trkpt lat="42.51881140284240245819091796875" lon="19.76548346690833568572998046875">
        <ele>1832.5999755859375</ele>
        <time>2026-06-18T09:32:43.000Z</time>
        <extensions>
          <ns3:TrackPointExtension>
            <ns3:atemp>20.0</ns3:atemp>
          </ns3:TrackPointExtension>
        </extensions>
      </trkpt>
      <trkpt lat="42.51881140284240245819091796875" lon="19.76548346690833568572998046875">
        <ele>1832.5999755859375</ele>
        <time>2026-06-18T09:32:44.000Z</time>
        <extensions>
          <ns3:TrackPointExtension>
            <ns3:atemp>20.0</ns3:atemp>
          </ns3:TrackPointExtension>
        </extensions>
      </trkpt>
      <trkpt lat="42.51881140284240245819091796875" lon="19.76548346690833568572998046875">
        <ele>1832.5999755859375</ele>
        <time>2026-06-18T09:32:45.000Z</time>
        <extensions>
          <ns3:TrackPointExtension>
            <ns3:atemp>20.0</ns3:atemp>
          </ns3:TrackPointExtension>
        </extensions>
      </trkpt>
      <trkpt lat="42.51881140284240245819091796875" lon="19.76548346690833568572998046875">
        <ele>1832.5999755859375</ele>
        <time>2026-06-18T09:32:46.000Z</time>
        <extensions>
          <ns3:TrackPointExtension>
            <ns3:atemp>20.0</ns3:atemp>
          </ns3:TrackPointExtension>
        </extensions>
      </trkpt>
      <trkpt lat="42.51881140284240245819091796875" lon="19.76548346690833568572998046875">
        <ele>1832.5999755859375</ele>
        <time>2026-06-18T09:32:47.000Z</time>
        <extensions>
          <ns3:TrackPointExtension>
            <ns3:atemp>20.0</ns3:atemp>
          </ns3:TrackPointExtension>
        </extensions>
      </trkpt>
      <trkpt lat="42.51881140284240245819091796875" lon="19.76548346690833568572998046875">
        <ele>1832.5999755859375</ele>
        <time>2026-06-18T09:32:48.000Z</time>
        <extensions>
          <ns3:TrackPointExtension>
            <ns3:atemp>21.0</ns3:atemp>
          </ns3:TrackPointExtension>
        </extensions>
      </trkpt>
      <trkpt lat="42.51881140284240245819091796875" lon="19.76548346690833568572998046875">
        <ele>1832.5999755859375</ele>
        <time>2026-06-18T09:32:49.000Z</time>
        <extensions>
          <ns3:TrackPointExtension>
            <ns3:atemp>21.0</ns3:atemp>
          </ns3:TrackPointExtension>
        </extensions>
      </trkpt>
      <trkpt lat="42.51881140284240245819091796875" lon="19.76548346690833568572998046875">
        <ele>1832.5999755859375</ele>
        <time>2026-06-18T09:32:50.000Z</time>
        <extensions>
          <ns3:TrackPointExtension>
            <ns3:atemp>21.0</ns3:atemp>
          </ns3:TrackPointExtension>
        </extensions>
      </trkpt>
      <trkpt lat="42.51881140284240245819091796875" lon="19.76548346690833568572998046875">
        <ele>1832.5999755859375</ele>
        <time>2026-06-18T09:32:51.000Z</time>
        <extensions>
          <ns3:TrackPointExtension>
            <ns3:atemp>21.0</ns3:atemp>
          </ns3:TrackPointExtension>
        </extensions>
      </trkpt>
      <trkpt lat="42.51881140284240245819091796875" lon="19.76548346690833568572998046875">
        <ele>1832.5999755859375</ele>
        <time>2026-06-18T09:32:52.000Z</time>
        <extensions>
          <ns3:TrackPointExtension>
            <ns3:atemp>21.0</ns3:atemp>
          </ns3:TrackPointExtension>
        </extensions>
      </trkpt>
      <trkpt lat="42.51881140284240245819091796875" lon="19.76548346690833568572998046875">
        <ele>1832.5999755859375</ele>
        <time>2026-06-18T09:32:53.000Z</time>
        <extensions>
          <ns3:TrackPointExtension>
            <ns3:atemp>21.0</ns3:atemp>
          </ns3:TrackPointExtension>
        </extensions>
      </trkpt>
      <trkpt lat="42.51881140284240245819091796875" lon="19.76548346690833568572998046875">
        <ele>1832.5999755859375</ele>
        <time>2026-06-18T09:32:54.000Z</time>
        <extensions>
          <ns3:TrackPointExtension>
            <ns3:atemp>21.0</ns3:atemp>
          </ns3:TrackPointExtension>
        </extensions>
      </trkpt>
      <trkpt lat="42.51881140284240245819091796875" lon="19.76548346690833568572998046875">
        <ele>1832.5999755859375</ele>
        <time>2026-06-18T09:32:55.000Z</time>
        <extensions>
          <ns3:TrackPointExtension>
            <ns3:atemp>21.0</ns3:atemp>
          </ns3:TrackPointExtension>
        </extensions>
      </trkpt>
      <trkpt lat="42.51881140284240245819091796875" lon="19.76548346690833568572998046875">
        <ele>1832.5999755859375</ele>
        <time>2026-06-18T09:32:56.000Z</time>
        <extensions>
          <ns3:TrackPointExtension>
            <ns3:atemp>21.0</ns3:atemp>
          </ns3:TrackPointExtension>
        </extensions>
      </trkpt>
      <trkpt lat="42.51881140284240245819091796875" lon="19.76548346690833568572998046875">
        <ele>1832.5999755859375</ele>
        <time>2026-06-18T09:32:57.000Z</time>
        <extensions>
          <ns3:TrackPointExtension>
            <ns3:atemp>21.0</ns3:atemp>
          </ns3:TrackPointExtension>
        </extensions>
      </trkpt>
      <trkpt lat="42.51881140284240245819091796875" lon="19.76548346690833568572998046875">
        <ele>1832.5999755859375</ele>
        <time>2026-06-18T09:32:58.000Z</time>
        <extensions>
          <ns3:TrackPointExtension>
            <ns3:atemp>21.0</ns3:atemp>
          </ns3:TrackPointExtension>
        </extensions>
      </trkpt>
      <trkpt lat="42.51881140284240245819091796875" lon="19.76548346690833568572998046875">
        <ele>1832.5999755859375</ele>
        <time>2026-06-18T09:32:59.000Z</time>
        <extensions>
          <ns3:TrackPointExtension>
            <ns3:atemp>21.0</ns3:atemp>
          </ns3:TrackPointExtension>
        </extensions>
      </trkpt>
      <trkpt lat="42.51881140284240245819091796875" lon="19.76548346690833568572998046875">
        <ele>1832.5999755859375</ele>
        <time>2026-06-18T09:33:00.000Z</time>
        <extensions>
          <ns3:TrackPointExtension>
            <ns3:atemp>21.0</ns3:atemp>
          </ns3:TrackPointExtension>
        </extensions>
      </trkpt>
      <trkpt lat="42.51881140284240245819091796875" lon="19.76548346690833568572998046875">
        <ele>1832.5999755859375</ele>
        <time>2026-06-18T09:33:01.000Z</time>
        <extensions>
          <ns3:TrackPointExtension>
            <ns3:atemp>21.0</ns3:atemp>
          </ns3:TrackPointExtension>
        </extensions>
      </trkpt>
      <trkpt lat="42.51881140284240245819091796875" lon="19.76548346690833568572998046875">
        <ele>1832.5999755859375</ele>
        <time>2026-06-18T09:33:02.000Z</time>
        <extensions>
          <ns3:TrackPointExtension>
            <ns3:atemp>21.0</ns3:atemp>
          </ns3:TrackPointExtension>
        </extensions>
      </trkpt>
      <trkpt lat="42.51881140284240245819091796875" lon="19.76548346690833568572998046875">
        <ele>1832.5999755859375</ele>
        <time>2026-06-18T09:33:03.000Z</time>
        <extensions>
          <ns3:TrackPointExtension>
            <ns3:atemp>21.0</ns3:atemp>
          </ns3:TrackPointExtension>
        </extensions>
      </trkpt>
      <trkpt lat="42.51881140284240245819091796875" lon="19.76548346690833568572998046875">
        <ele>1832.5999755859375</ele>
        <time>2026-06-18T09:33:04.000Z</time>
        <extensions>
          <ns3:TrackPointExtension>
            <ns3:atemp>21.0</ns3:atemp>
          </ns3:TrackPointExtension>
        </extensions>
      </trkpt>
      <trkpt lat="42.51881140284240245819091796875" lon="19.76548346690833568572998046875">
        <ele>1832.5999755859375</ele>
        <time>2026-06-18T09:33:05.000Z</time>
        <extensions>
          <ns3:TrackPointExtension>
            <ns3:atemp>21.0</ns3:atemp>
          </ns3:TrackPointExtension>
        </extensions>
      </trkpt>
      <trkpt lat="42.51881140284240245819091796875" lon="19.76548346690833568572998046875">
        <ele>1832.5999755859375</ele>
        <time>2026-06-18T09:33:06.000Z</time>
        <extensions>
          <ns3:TrackPointExtension>
            <ns3:atemp>21.0</ns3:atemp>
          </ns3:TrackPointExtension>
        </extensions>
      </trkpt>
      <trkpt lat="42.51881140284240245819091796875" lon="19.76548346690833568572998046875">
        <ele>1832.5999755859375</ele>
        <time>2026-06-18T09:33:07.000Z</time>
        <extensions>
          <ns3:TrackPointExtension>
            <ns3:atemp>21.0</ns3:atemp>
          </ns3:TrackPointExtension>
        </extensions>
      </trkpt>
      <trkpt lat="42.51881140284240245819091796875" lon="19.76548346690833568572998046875">
        <ele>1832.5999755859375</ele>
        <time>2026-06-18T09:33:08.000Z</time>
        <extensions>
          <ns3:TrackPointExtension>
            <ns3:atemp>21.0</ns3:atemp>
          </ns3:TrackPointExtension>
        </extensions>
      </trkpt>
      <trkpt lat="42.51881140284240245819091796875" lon="19.76548346690833568572998046875">
        <ele>1832.5999755859375</ele>
        <time>2026-06-18T09:33:09.000Z</time>
        <extensions>
          <ns3:TrackPointExtension>
            <ns3:atemp>21.0</ns3:atemp>
          </ns3:TrackPointExtension>
        </extensions>
      </trkpt>
      <trkpt lat="42.51881140284240245819091796875" lon="19.76548346690833568572998046875">
        <ele>1832.5999755859375</ele>
        <time>2026-06-18T09:33:10.000Z</time>
        <extensions>
          <ns3:TrackPointExtension>
            <ns3:atemp>21.0</ns3:atemp>
          </ns3:TrackPointExtension>
        </extensions>
      </trkpt>
      <trkpt lat="42.51881140284240245819091796875" lon="19.76548346690833568572998046875">
        <ele>1832.5999755859375</ele>
        <time>2026-06-18T09:33:11.000Z</time>
        <extensions>
          <ns3:TrackPointExtension>
            <ns3:atemp>21.0</ns3:atemp>
          </ns3:TrackPointExtension>
        </extensions>
      </trkpt>
      <trkpt lat="42.51881140284240245819091796875" lon="19.76548346690833568572998046875">
        <ele>1832.5999755859375</ele>
        <time>2026-06-18T09:33:12.000Z</time>
        <extensions>
          <ns3:TrackPointExtension>
            <ns3:atemp>21.0</ns3:atemp>
          </ns3:TrackPointExtension>
        </extensions>
      </trkpt>
      <trkpt lat="42.51881140284240245819091796875" lon="19.76548346690833568572998046875">
        <ele>1832.5999755859375</ele>
        <time>2026-06-18T09:33:13.000Z</time>
        <extensions>
          <ns3:TrackPointExtension>
            <ns3:atemp>21.0</ns3:atemp>
          </ns3:TrackPointExtension>
        </extensions>
      </trkpt>
      <trkpt lat="42.51881140284240245819091796875" lon="19.76548346690833568572998046875">
        <ele>1832.5999755859375</ele>
        <time>2026-06-18T09:33:14.000Z</time>
        <extensions>
          <ns3:TrackPointExtension>
            <ns3:atemp>21.0</ns3:atemp>
          </ns3:TrackPointExtension>
        </extensions>
      </trkpt>
      <trkpt lat="42.51881140284240245819091796875" lon="19.76548346690833568572998046875">
        <ele>1832.5999755859375</ele>
        <time>2026-06-18T09:33:15.000Z</time>
        <extensions>
          <ns3:TrackPointExtension>
            <ns3:atemp>21.0</ns3:atemp>
          </ns3:TrackPointExtension>
        </extensions>
      </trkpt>
      <trkpt lat="42.51881140284240245819091796875" lon="19.76548346690833568572998046875">
        <ele>1832.5999755859375</ele>
        <time>2026-06-18T09:33:16.000Z</time>
        <extensions>
          <ns3:TrackPointExtension>
            <ns3:atemp>21.0</ns3:atemp>
          </ns3:TrackPointExtension>
        </extensions>
      </trkpt>
      <trkpt lat="42.51881140284240245819091796875" lon="19.76548346690833568572998046875">
        <ele>1832.5999755859375</ele>
        <time>2026-06-18T09:33:17.000Z</time>
        <extensions>
          <ns3:TrackPointExtension>
            <ns3:atemp>21.0</ns3:atemp>
          </ns3:TrackPointExtension>
        </extensions>
      </trkpt>
      <trkpt lat="42.51881140284240245819091796875" lon="19.76548346690833568572998046875">
        <ele>1832.5999755859375</ele>
        <time>2026-06-18T09:33:18.000Z</time>
        <extensions>
          <ns3:TrackPointExtension>
            <ns3:atemp>21.0</ns3:atemp>
          </ns3:TrackPointExtension>
        </extensions>
      </trkpt>
      <trkpt lat="42.51881140284240245819091796875" lon="19.76548346690833568572998046875">
        <ele>1832.5999755859375</ele>
        <time>2026-06-18T09:33:19.000Z</time>
        <extensions>
          <ns3:TrackPointExtension>
            <ns3:atemp>21.0</ns3:atemp>
          </ns3:TrackPointExtension>
        </extensions>
      </trkpt>
      <trkpt lat="42.51880855299532413482666015625" lon="19.7654917649924755096435546875">
        <ele>1832.5999755859375</ele>
        <time>2026-06-18T09:33:20.000Z</time>
        <extensions>
          <ns3:TrackPointExtension>
            <ns3:atemp>21.0</ns3:atemp>
          </ns3:TrackPointExtension>
        </extensions>
      </trkpt>
      <trkpt lat="42.5187943875789642333984375" lon="19.7655041702091693878173828125">
        <ele>1832.5999755859375</ele>
        <time>2026-06-18T09:33:21.000Z</time>
        <extensions>
          <ns3:TrackPointExtension>
            <ns3:atemp>21.0</ns3:atemp>
          </ns3:TrackPointExtension>
        </extensions>
      </trkpt>
      <trkpt lat="42.5187729299068450927734375" lon="19.7655216045677661895751953125">
        <ele>1832.5999755859375</ele>
        <time>2026-06-18T09:33:22.000Z</time>
        <extensions>
          <ns3:TrackPointExtension>
            <ns3:atemp>21.0</ns3:atemp>
          </ns3:TrackPointExtension>
        </extensions>
      </trkpt>
      <trkpt lat="42.51874267123639583587646484375" lon="19.76554264314472675323486328125">
        <ele>1832.5999755859375</ele>
        <time>2026-06-18T09:33:23.000Z</time>
        <extensions>
          <ns3:TrackPointExtension>
            <ns3:atemp>21.0</ns3:atemp>
          </ns3:TrackPointExtension>
        </extensions>
      </trkpt>
      <trkpt lat="42.51871132291853427886962890625" lon="19.76556695066392421722412109375">
        <ele>1832.4000244140625</ele>
        <time>2026-06-18T09:33:24.000Z</time>
        <extensions>
          <ns3:TrackPointExtension>
            <ns3:atemp>21.0</ns3:atemp>
          </ns3:TrackPointExtension>
        </extensions>
      </trkpt>
      <trkpt lat="42.51868299208581447601318359375" lon="19.76559729315340518951416015625">
        <ele>1832.199951171875</ele>
        <time>2026-06-18T09:33:25.000Z</time>
        <extensions>
          <ns3:TrackPointExtension>
            <ns3:atemp>21.0</ns3:atemp>
          </ns3:TrackPointExtension>
        </extensions>
      </trkpt>
      <trkpt lat="42.51866170205175876617431640625" lon="19.7656298987567424774169921875">
        <ele>1831.800048828125</ele>
        <time>2026-06-18T09:33:26.000Z</time>
        <extensions>
          <ns3:TrackPointExtension>
            <ns3:atemp>21.0</ns3:atemp>
          </ns3:TrackPointExtension>
        </extensions>
      </trkpt>
      <trkpt lat="42.51864057965576648712158203125" lon="19.765655212104320526123046875">
        <ele>1831.199951171875</ele>
        <time>2026-06-18T09:33:27.000Z</time>
        <extensions>
          <ns3:TrackPointExtension>
            <ns3:atemp>21.0</ns3:atemp>
          </ns3:TrackPointExtension>
        </extensions>
      </trkpt>
      <trkpt lat="42.51863689161837100982666015625" lon="19.7656850516796112060546875">
        <ele>1830.800048828125</ele>
        <time>2026-06-18T09:33:28.000Z</time>
        <extensions>
          <ns3:TrackPointExtension>
            <ns3:atemp>21.0</ns3:atemp>
          </ns3:TrackPointExtension>
        </extensions>
      </trkpt>
      <trkpt lat="42.518623732030391693115234375" lon="19.76572201587259769439697265625">
        <ele>1830.199951171875</ele>
        <time>2026-06-18T09:33:29.000Z</time>
        <extensions>
          <ns3:TrackPointExtension>
            <ns3:atemp>21.0</ns3:atemp>
          </ns3:TrackPointExtension>
        </extensions>
      </trkpt>
      <trkpt lat="42.5186094827950000762939453125" lon="19.76576157845556735992431640625">
        <ele>1829.4000244140625</ele>
        <time>2026-06-18T09:33:30.000Z</time>
        <extensions>
          <ns3:TrackPointExtension>
            <ns3:atemp>21.0</ns3:atemp>
          </ns3:TrackPointExtension>
        </extensions>
      </trkpt>
      <trkpt lat="42.518593557178974151611328125" lon="19.76580751128494739532470703125">
        <ele>1828.5999755859375</ele>
        <time>2026-06-18T09:33:31.000Z</time>
        <extensions>
          <ns3:TrackPointExtension>
            <ns3:atemp>21.0</ns3:atemp>
          </ns3:TrackPointExtension>
        </extensions>
      </trkpt>
      <trkpt lat="42.51858022995293140411376953125" lon="19.7658528573811054229736328125">
        <ele>1827.800048828125</ele>
        <time>2026-06-18T09:33:32.000Z</time>
        <extensions>
          <ns3:TrackPointExtension>
            <ns3:atemp>21.0</ns3:atemp>
          </ns3:TrackPointExtension>
        </extensions>
      </trkpt>
      <trkpt lat="42.5185658968985080718994140625" lon="19.765899293124675750732421875">
        <ele>1827</ele>
        <time>2026-06-18T09:33:33.000Z</time>
        <extensions>
          <ns3:TrackPointExtension>
            <ns3:atemp>21.0</ns3:atemp>
          </ns3:TrackPointExtension>
        </extensions>
      </trkpt>
      <trkpt lat="42.5185514800250530242919921875" lon="19.76594363339245319366455078125">
        <ele>1826.199951171875</ele>
        <time>2026-06-18T09:33:34.000Z</time>
        <extensions>
          <ns3:TrackPointExtension>
            <ns3:atemp>21.0</ns3:atemp>
          </ns3:TrackPointExtension>
        </extensions>
      </trkpt>
      <trkpt lat="42.51853832043707370758056640625" lon="19.7659899853169918060302734375">
        <ele>1825.5999755859375</ele>
        <time>2026-06-18T09:33:35.000Z</time>
        <extensions>
          <ns3:TrackPointExtension>
            <ns3:atemp>21.0</ns3:atemp>
          </ns3:TrackPointExtension>
        </extensions>
      </trkpt>
      <trkpt lat="42.51852993853390216827392578125" lon="19.7660288773477077484130859375">
        <ele>1825.199951171875</ele>
        <time>2026-06-18T09:33:36.000Z</time>
        <extensions>
          <ns3:TrackPointExtension>
            <ns3:atemp>21.0</ns3:atemp>
          </ns3:TrackPointExtension>
        </extensions>
      </trkpt>
      <trkpt lat="42.51851133070886135101318359375" lon="19.76605050265789031982421875">
        <ele>1824.5999755859375</ele>
        <time>2026-06-18T09:33:37.000Z</time>
        <extensions>
          <ns3:TrackPointExtension>
            <ns3:atemp>21.0</ns3:atemp>
          </ns3:TrackPointExtension>
        </extensions>
      </trkpt>
      <trkpt lat="42.51849423162639141082763671875" lon="19.7660712897777557373046875">
        <ele>1824.4000244140625</ele>
        <time>2026-06-18T09:33:38.000Z</time>
        <extensions>
          <ns3:TrackPointExtension>
            <ns3:atemp>21.0</ns3:atemp>
          </ns3:TrackPointExtension>
        </extensions>
      </trkpt>
      <trkpt lat="42.5184827484190464019775390625" lon="19.76609216071665287017822265625">
        <ele>1824</ele>
        <time>2026-06-18T09:33:39.000Z</time>
        <extensions>
          <ns3:TrackPointExtension>
            <ns3:atemp>21.0</ns3:atemp>
          </ns3:TrackPointExtension>
        </extensions>
      </trkpt>
      <trkpt lat="42.51846891827881336212158203125" lon="19.76611219346523284912109375">
        <ele>1823.5999755859375</ele>
        <time>2026-06-18T09:33:40.000Z</time>
        <extensions>
          <ns3:TrackPointExtension>
            <ns3:atemp>21.0</ns3:atemp>
          </ns3:TrackPointExtension>
        </extensions>
      </trkpt>
      <trkpt lat="42.5184569321572780609130859375" lon="19.7661220841109752655029296875">
        <ele>1823.199951171875</ele>
        <time>2026-06-18T09:33:41.000Z</time>
        <extensions>
          <ns3:TrackPointExtension>
            <ns3:atemp>21.0</ns3:atemp>
          </ns3:TrackPointExtension>
        </extensions>
      </trkpt>
      <trkpt lat="42.518451400101184844970703125" lon="19.76611898280680179595947265625">
        <ele>1822.5999755859375</ele>
        <time>2026-06-18T09:33:42.000Z</time>
        <extensions>
          <ns3:TrackPointExtension>
            <ns3:atemp>21.0</ns3:atemp>
          </ns3:TrackPointExtension>
        </extensions>
      </trkpt>
      <trkpt lat="42.51844645477831363677978515625" lon="19.76612065918743610382080078125">
        <ele>1822.199951171875</ele>
        <time>2026-06-18T09:33:43.000Z</time>
        <extensions>
          <ns3:TrackPointExtension>
            <ns3:atemp>21.0</ns3:atemp>
          </ns3:TrackPointExtension>
        </extensions>
      </trkpt>
      <trkpt lat="42.51844645477831363677978515625" lon="19.76612082682549953460693359375">
        <ele>1822</ele>
        <time>2026-06-18T09:33:44.000Z</time>
        <extensions>
          <ns3:TrackPointExtension>
            <ns3:atemp>21.0</ns3:atemp>
          </ns3:TrackPointExtension>
        </extensions>
      </trkpt>
      <trkpt lat="42.51844645477831363677978515625" lon="19.76612082682549953460693359375">
        <ele>1821.800048828125</ele>
        <time>2026-06-18T09:33:45.000Z</time>
        <extensions>
          <ns3:TrackPointExtension>
            <ns3:atemp>21.0</ns3:atemp>
          </ns3:TrackPointExtension>
        </extensions>
      </trkpt>
      <trkpt lat="42.51844645477831363677978515625" lon="19.76612082682549953460693359375">
        <ele>1821.5999755859375</ele>
        <time>2026-06-18T09:33:46.000Z</time>
        <extensions>
          <ns3:TrackPointExtension>
            <ns3:atemp>21.0</ns3:atemp>
          </ns3:TrackPointExtension>
        </extensions>
      </trkpt>
      <trkpt lat="42.51844637095928192138671875" lon="19.7661214135587215423583984375">
        <ele>1821.4000244140625</ele>
        <time>2026-06-18T09:33:47.000Z</time>
        <extensions>
          <ns3:TrackPointExtension>
            <ns3:atemp>21.0</ns3:atemp>
          </ns3:TrackPointExtension>
        </extensions>
      </trkpt>
      <trkpt lat="42.5184309482574462890625" lon="19.7661383450031280517578125">
        <ele>1821</ele>
        <time>2026-06-18T09:33:48.000Z</time>
        <extensions>
          <ns3:TrackPointExtension>
            <ns3:atemp>21.0</ns3:atemp>
          </ns3:TrackPointExtension>
        </extensions>
      </trkpt>
      <trkpt lat="42.51841879449784755706787109375" lon="19.7661398537456989288330078125">
        <ele>1820.800048828125</ele>
        <time>2026-06-18T09:33:49.000Z</time>
        <extensions>
          <ns3:TrackPointExtension>
            <ns3:atemp>21.0</ns3:atemp>
          </ns3:TrackPointExtension>
        </extensions>
      </trkpt>
      <trkpt lat="42.51841074787080287933349609375" lon="19.7661356627941131591796875">
        <ele>1820.5999755859375</ele>
        <time>2026-06-18T09:33:50.000Z</time>
        <extensions>
          <ns3:TrackPointExtension>
            <ns3:atemp>21.0</ns3:atemp>
          </ns3:TrackPointExtension>
        </extensions>
      </trkpt>
      <trkpt lat="42.518397755920886993408203125" lon="19.76611831225454807281494140625">
        <ele>1820.199951171875</ele>
        <time>2026-06-18T09:33:51.000Z</time>
        <extensions>
          <ns3:TrackPointExtension>
            <ns3:atemp>21.0</ns3:atemp>
          </ns3:TrackPointExtension>
        </extensions>
      </trkpt>
      <trkpt lat="42.51838560216128826141357421875" lon="19.766103141009807586669921875">
        <ele>1819.5999755859375</ele>
        <time>2026-06-18T09:33:52.000Z</time>
        <extensions>
          <ns3:TrackPointExtension>
            <ns3:atemp>21.0</ns3:atemp>
          </ns3:TrackPointExtension>
        </extensions>
      </trkpt>
      <trkpt lat="42.51838157884776592254638671875" lon="19.766086377203464508056640625">
        <ele>1819</ele>
        <time>2026-06-18T09:33:53.000Z</time>
        <extensions>
          <ns3:TrackPointExtension>
            <ns3:atemp>21.0</ns3:atemp>
          </ns3:TrackPointExtension>
        </extensions>
      </trkpt>
      <trkpt lat="42.51838007010519504547119140625" lon="19.76607472635805606842041015625">
        <ele>1818.5999755859375</ele>
        <time>2026-06-18T09:33:54.000Z</time>
        <extensions>
          <ns3:TrackPointExtension>
            <ns3:atemp>21.0</ns3:atemp>
          </ns3:TrackPointExtension>
        </extensions>
      </trkpt>
      <trkpt lat="42.5183813273906707763671875" lon="19.7660739719867706298828125">
        <ele>1818</ele>
        <time>2026-06-18T09:33:55.000Z</time>
        <extensions>
          <ns3:TrackPointExtension>
            <ns3:atemp>21.0</ns3:atemp>
          </ns3:TrackPointExtension>
        </extensions>
      </trkpt>
      <trkpt lat="42.5183813273906707763671875" lon="19.76607388816773891448974609375">
        <ele>1817.5999755859375</ele>
        <time>2026-06-18T09:33:56.000Z</time>
        <extensions>
          <ns3:TrackPointExtension>
            <ns3:atemp>21.0</ns3:atemp>
          </ns3:TrackPointExtension>
        </extensions>
      </trkpt>
      <trkpt lat="42.5183813273906707763671875" lon="19.7660738043487071990966796875">
        <ele>1817.199951171875</ele>
        <time>2026-06-18T09:33:57.000Z</time>
        <extensions>
          <ns3:TrackPointExtension>
            <ns3:atemp>21.0</ns3:atemp>
          </ns3:TrackPointExtension>
        </extensions>
      </trkpt>
      <trkpt lat="42.51837571151554584503173828125" lon="19.7660580463707447052001953125">
        <ele>1816.800048828125</ele>
        <time>2026-06-18T09:33:58.000Z</time>
        <extensions>
          <ns3:TrackPointExtension>
            <ns3:atemp>21.0</ns3:atemp>
          </ns3:TrackPointExtension>
        </extensions>
      </trkpt>
      <trkpt lat="42.518371604382991790771484375" lon="19.76604421623051166534423828125">
        <ele>1816.5999755859375</ele>
        <time>2026-06-18T09:33:59.000Z</time>
        <extensions>
          <ns3:TrackPointExtension>
            <ns3:atemp>21.0</ns3:atemp>
          </ns3:TrackPointExtension>
        </extensions>
      </trkpt>
      <trkpt lat="42.518368922173976898193359375" lon="19.76603575050830841064453125">
        <ele>1816.4000244140625</ele>
        <time>2026-06-18T09:34:00.000Z</time>
        <extensions>
          <ns3:TrackPointExtension>
            <ns3:atemp>21.0</ns3:atemp>
          </ns3:TrackPointExtension>
        </extensions>
      </trkpt>
      <trkpt lat="42.51836515031754970550537109375" lon="19.766032062470912933349609375">
        <ele>1816</ele>
        <time>2026-06-18T09:34:01.000Z</time>
        <extensions>
          <ns3:TrackPointExtension>
            <ns3:atemp>21.0</ns3:atemp>
          </ns3:TrackPointExtension>
        </extensions>
      </trkpt>
      <trkpt lat="42.5183647312223911285400390625" lon="19.76602912880480289459228515625">
        <ele>1816</ele>
        <time>2026-06-18T09:34:02.000Z</time>
        <extensions>
          <ns3:TrackPointExtension>
            <ns3:atemp>21.0</ns3:atemp>
          </ns3:TrackPointExtension>
        </extensions>
      </trkpt>
      <trkpt lat="42.518366239964962005615234375" lon="19.76602845825254917144775390625">
        <ele>1816</ele>
        <time>2026-06-18T09:34:03.000Z</time>
        <extensions>
          <ns3:TrackPointExtension>
            <ns3:atemp>21.0</ns3:atemp>
          </ns3:TrackPointExtension>
        </extensions>
      </trkpt>
      <trkpt lat="42.51836632378399372100830078125" lon="19.76602845825254917144775390625">
        <ele>1816</ele>
        <time>2026-06-18T09:34:04.000Z</time>
        <extensions>
          <ns3:TrackPointExtension>
            <ns3:atemp>21.0</ns3:atemp>
          </ns3:TrackPointExtension>
        </extensions>
      </trkpt>
      <trkpt lat="42.51836632378399372100830078125" lon="19.76602845825254917144775390625">
        <ele>1816</ele>
        <time>2026-06-18T09:34:05.000Z</time>
        <extensions>
          <ns3:TrackPointExtension>
            <ns3:atemp>21.0</ns3:atemp>
          </ns3:TrackPointExtension>
        </extensions>
      </trkpt>
      <trkpt lat="42.51836632378399372100830078125" lon="19.76602845825254917144775390625">
        <ele>1816.199951171875</ele>
        <time>2026-06-18T09:34:06.000Z</time>
        <extensions>
          <ns3:TrackPointExtension>
            <ns3:atemp>21.0</ns3:atemp>
          </ns3:TrackPointExtension>
        </extensions>
      </trkpt>
      <trkpt lat="42.51836632378399372100830078125" lon="19.76602845825254917144775390625">
        <ele>1816.199951171875</ele>
        <time>2026-06-18T09:34:07.000Z</time>
        <extensions>
          <ns3:TrackPointExtension>
            <ns3:atemp>21.0</ns3:atemp>
          </ns3:TrackPointExtension>
        </extensions>
      </trkpt>
      <trkpt lat="42.51836632378399372100830078125" lon="19.76602845825254917144775390625">
        <ele>1816</ele>
        <time>2026-06-18T09:34:08.000Z</time>
        <extensions>
          <ns3:TrackPointExtension>
            <ns3:atemp>21.0</ns3:atemp>
          </ns3:TrackPointExtension>
        </extensions>
      </trkpt>
      <trkpt lat="42.51836632378399372100830078125" lon="19.76602845825254917144775390625">
        <ele>1816</ele>
        <time>2026-06-18T09:34:09.000Z</time>
        <extensions>
          <ns3:TrackPointExtension>
            <ns3:atemp>21.0</ns3:atemp>
          </ns3:TrackPointExtension>
        </extensions>
      </trkpt>
      <trkpt lat="42.51836632378399372100830078125" lon="19.76602845825254917144775390625">
        <ele>1816</ele>
        <time>2026-06-18T09:34:10.000Z</time>
        <extensions>
          <ns3:TrackPointExtension>
            <ns3:atemp>21.0</ns3:atemp>
          </ns3:TrackPointExtension>
        </extensions>
      </trkpt>
      <trkpt lat="42.51836632378399372100830078125" lon="19.76602845825254917144775390625">
        <ele>1816</ele>
        <time>2026-06-18T09:34:11.000Z</time>
        <extensions>
          <ns3:TrackPointExtension>
            <ns3:atemp>21.0</ns3:atemp>
          </ns3:TrackPointExtension>
        </extensions>
      </trkpt>
      <trkpt lat="42.51836632378399372100830078125" lon="19.76602845825254917144775390625">
        <ele>1815.800048828125</ele>
        <time>2026-06-18T09:34:12.000Z</time>
        <extensions>
          <ns3:TrackPointExtension>
            <ns3:atemp>21.0</ns3:atemp>
          </ns3:TrackPointExtension>
        </extensions>
      </trkpt>
      <trkpt lat="42.51836632378399372100830078125" lon="19.76602845825254917144775390625">
        <ele>1815.800048828125</ele>
        <time>2026-06-18T09:34:13.000Z</time>
        <extensions>
          <ns3:TrackPointExtension>
            <ns3:atemp>21.0</ns3:atemp>
          </ns3:TrackPointExtension>
        </extensions>
      </trkpt>
      <trkpt lat="42.51836632378399372100830078125" lon="19.76602845825254917144775390625">
        <ele>1815.800048828125</ele>
        <time>2026-06-18T09:34:14.000Z</time>
        <extensions>
          <ns3:TrackPointExtension>
            <ns3:atemp>21.0</ns3:atemp>
          </ns3:TrackPointExtension>
        </extensions>
      </trkpt>
      <trkpt lat="42.51836632378399372100830078125" lon="19.76602845825254917144775390625">
        <ele>1815.800048828125</ele>
        <time>2026-06-18T09:34:15.000Z</time>
        <extensions>
          <ns3:TrackPointExtension>
            <ns3:atemp>21.0</ns3:atemp>
          </ns3:TrackPointExtension>
        </extensions>
      </trkpt>
      <trkpt lat="42.51836632378399372100830078125" lon="19.76602845825254917144775390625">
        <ele>1815.800048828125</ele>
        <time>2026-06-18T09:34:16.000Z</time>
        <extensions>
          <ns3:TrackPointExtension>
            <ns3:atemp>21.0</ns3:atemp>
          </ns3:TrackPointExtension>
        </extensions>
      </trkpt>
      <trkpt lat="42.518366239964962005615234375" lon="19.7660292126238346099853515625">
        <ele>1815.5999755859375</ele>
        <time>2026-06-18T09:34:17.000Z</time>
        <extensions>
          <ns3:TrackPointExtension>
            <ns3:atemp>21.0</ns3:atemp>
          </ns3:TrackPointExtension>
        </extensions>
      </trkpt>
      <trkpt lat="42.51836632378399372100830078125" lon="19.76602845825254917144775390625">
        <ele>1815.4000244140625</ele>
        <time>2026-06-18T09:34:18.000Z</time>
        <extensions>
          <ns3:TrackPointExtension>
            <ns3:atemp>21.0</ns3:atemp>
          </ns3:TrackPointExtension>
        </extensions>
      </trkpt>
      <trkpt lat="42.51836615614593029022216796875" lon="19.7660305537283420562744140625">
        <ele>1815.4000244140625</ele>
        <time>2026-06-18T09:34:19.000Z</time>
        <extensions>
          <ns3:TrackPointExtension>
            <ns3:atemp>21.0</ns3:atemp>
          </ns3:TrackPointExtension>
        </extensions>
      </trkpt>
      <trkpt lat="42.51836682669818401336669921875" lon="19.76603466086089611053466796875">
        <ele>1815.4000244140625</ele>
        <time>2026-06-18T09:34:20.000Z</time>
        <extensions>
          <ns3:TrackPointExtension>
            <ns3:atemp>21.0</ns3:atemp>
          </ns3:TrackPointExtension>
        </extensions>
      </trkpt>
      <trkpt lat="42.51836632378399372100830078125" lon="19.76602845825254917144775390625">
        <ele>1815.5999755859375</ele>
        <time>2026-06-18T09:34:21.000Z</time>
        <extensions>
          <ns3:TrackPointExtension>
            <ns3:atemp>21.0</ns3:atemp>
          </ns3:TrackPointExtension>
        </extensions>
      </trkpt>
      <trkpt lat="42.51836632378399372100830078125" lon="19.76602845825254917144775390625">
        <ele>1815.5999755859375</ele>
        <time>2026-06-18T09:34:22.000Z</time>
        <extensions>
          <ns3:TrackPointExtension>
            <ns3:atemp>21.0</ns3:atemp>
          </ns3:TrackPointExtension>
        </extensions>
      </trkpt>
      <trkpt lat="42.51836632378399372100830078125" lon="19.76602845825254917144775390625">
        <ele>1815.800048828125</ele>
        <time>2026-06-18T09:34:23.000Z</time>
        <extensions>
          <ns3:TrackPointExtension>
            <ns3:atemp>21.0</ns3:atemp>
          </ns3:TrackPointExtension>
        </extensions>
      </trkpt>
      <trkpt lat="42.51836632378399372100830078125" lon="19.76602845825254917144775390625">
        <ele>1815.800048828125</ele>
        <time>2026-06-18T09:34:24.000Z</time>
        <extensions>
          <ns3:TrackPointExtension>
            <ns3:atemp>21.0</ns3:atemp>
          </ns3:TrackPointExtension>
        </extensions>
      </trkpt>
      <trkpt lat="42.51836632378399372100830078125" lon="19.76602845825254917144775390625">
        <ele>1815.800048828125</ele>
        <time>2026-06-18T09:34:25.000Z</time>
        <extensions>
          <ns3:TrackPointExtension>
            <ns3:atemp>21.0</ns3:atemp>
          </ns3:TrackPointExtension>
        </extensions>
      </trkpt>
      <trkpt lat="42.51836632378399372100830078125" lon="19.76602845825254917144775390625">
        <ele>1815.800048828125</ele>
        <time>2026-06-18T09:34:26.000Z</time>
        <extensions>
          <ns3:TrackPointExtension>
            <ns3:atemp>21.0</ns3:atemp>
          </ns3:TrackPointExtension>
        </extensions>
      </trkpt>
      <trkpt lat="42.518364898860454559326171875" lon="19.7660359181463718414306640625">
        <ele>1815.5999755859375</ele>
        <time>2026-06-18T09:34:27.000Z</time>
        <extensions>
          <ns3:TrackPointExtension>
            <ns3:atemp>21.0</ns3:atemp>
          </ns3:TrackPointExtension>
        </extensions>
      </trkpt>
      <trkpt lat="42.5183553434908390045166015625" lon="19.766035415232181549072265625">
        <ele>1815.5999755859375</ele>
        <time>2026-06-18T09:34:28.000Z</time>
        <extensions>
          <ns3:TrackPointExtension>
            <ns3:atemp>21.0</ns3:atemp>
          </ns3:TrackPointExtension>
        </extensions>
      </trkpt>
      <trkpt lat="42.51834335736930370330810546875" lon="19.76604740135371685028076171875">
        <ele>1815.4000244140625</ele>
        <time>2026-06-18T09:34:29.000Z</time>
        <extensions>
          <ns3:TrackPointExtension>
            <ns3:atemp>21.0</ns3:atemp>
          </ns3:TrackPointExtension>
        </extensions>
      </trkpt>
      <trkpt lat="42.51832810230553150177001953125" lon="19.76605997420847415924072265625">
        <ele>1815.199951171875</ele>
        <time>2026-06-18T09:34:30.000Z</time>
        <extensions>
          <ns3:TrackPointExtension>
            <ns3:atemp>21.0</ns3:atemp>
          </ns3:TrackPointExtension>
        </extensions>
      </trkpt>
      <trkpt lat="42.5183171220123767852783203125" lon="19.7660670988261699676513671875">
        <ele>1815</ele>
        <time>2026-06-18T09:34:31.000Z</time>
        <extensions>
          <ns3:TrackPointExtension>
            <ns3:atemp>22.0</ns3:atemp>
          </ns3:TrackPointExtension>
        </extensions>
      </trkpt>
      <trkpt lat="42.51830957829952239990234375" lon="19.76606634445488452911376953125">
        <ele>1814.800048828125</ele>
        <time>2026-06-18T09:34:32.000Z</time>
        <extensions>
          <ns3:TrackPointExtension>
            <ns3:atemp>22.0</ns3:atemp>
          </ns3:TrackPointExtension>
        </extensions>
      </trkpt>
      <trkpt lat="42.51830278895795345306396484375" lon="19.76605813018977642059326171875">
        <ele>1814.5999755859375</ele>
        <time>2026-06-18T09:34:33.000Z</time>
        <extensions>
          <ns3:TrackPointExtension>
            <ns3:atemp>22.0</ns3:atemp>
          </ns3:TrackPointExtension>
        </extensions>
      </trkpt>
      <trkpt lat="42.51829482614994049072265625" lon="19.7660389356315135955810546875">
        <ele>1814.4000244140625</ele>
        <time>2026-06-18T09:34:34.000Z</time>
        <extensions>
          <ns3:TrackPointExtension>
            <ns3:atemp>22.0</ns3:atemp>
          </ns3:TrackPointExtension>
        </extensions>
      </trkpt>
      <trkpt lat="42.51827546395361423492431640625" lon="19.7660204954445362091064453125">
        <ele>1814</ele>
        <time>2026-06-18T09:34:35.000Z</time>
        <extensions>
          <ns3:TrackPointExtension>
            <ns3:atemp>22.0</ns3:atemp>
          </ns3:TrackPointExtension>
        </extensions>
      </trkpt>
      <trkpt lat="42.51825031824409961700439453125" lon="19.76598503999412059783935546875">
        <ele>1813.199951171875</ele>
        <time>2026-06-18T09:34:36.000Z</time>
        <extensions>
          <ns3:TrackPointExtension>
            <ns3:atemp>22.0</ns3:atemp>
          </ns3:TrackPointExtension>
        </extensions>
      </trkpt>
      <trkpt lat="42.5182311236858367919921875" lon="19.7659406997263431549072265625">
        <ele>1812.199951171875</ele>
        <time>2026-06-18T09:34:37.000Z</time>
        <extensions>
          <ns3:TrackPointExtension>
            <ns3:atemp>22.0</ns3:atemp>
          </ns3:TrackPointExtension>
        </extensions>
      </trkpt>
      <trkpt lat="42.5182108394801616668701171875" lon="19.76590423844754695892333984375">
        <ele>1811.4000244140625</ele>
        <time>2026-06-18T09:34:38.000Z</time>
        <extensions>
          <ns3:TrackPointExtension>
            <ns3:atemp>22.0</ns3:atemp>
          </ns3:TrackPointExtension>
        </extensions>
      </trkpt>
      <trkpt lat="42.5181809999048709869384765625" lon="19.765903316438198089599609375">
        <ele>1810.800048828125</ele>
        <time>2026-06-18T09:34:39.000Z</time>
        <extensions>
          <ns3:TrackPointExtension>
            <ns3:atemp>22.0</ns3:atemp>
          </ns3:TrackPointExtension>
        </extensions>
      </trkpt>
      <trkpt lat="42.51815459690988063812255859375" lon="19.7659276239573955535888671875">
        <ele>1809.800048828125</ele>
        <time>2026-06-18T09:34:40.000Z</time>
        <extensions>
          <ns3:TrackPointExtension>
            <ns3:atemp>22.0</ns3:atemp>
          </ns3:TrackPointExtension>
        </extensions>
      </trkpt>
      <trkpt lat="42.51812207512557506561279296875" lon="19.765934832394123077392578125">
        <ele>1809</ele>
        <time>2026-06-18T09:34:41.000Z</time>
        <extensions>
          <ns3:TrackPointExtension>
            <ns3:atemp>22.0</ns3:atemp>
          </ns3:TrackPointExtension>
        </extensions>
      </trkpt>
      <trkpt lat="42.51808200962841510772705078125" lon="19.7659453935921192169189453125">
        <ele>1808</ele>
        <time>2026-06-18T09:34:42.000Z</time>
        <extensions>
          <ns3:TrackPointExtension>
            <ns3:atemp>22.0</ns3:atemp>
          </ns3:TrackPointExtension>
        </extensions>
      </trkpt>
      <trkpt lat="42.51804160885512828826904296875" lon="19.76596257649362087249755859375">
        <ele>1807</ele>
        <time>2026-06-18T09:34:43.000Z</time>
        <extensions>
          <ns3:TrackPointExtension>
            <ns3:atemp>22.0</ns3:atemp>
          </ns3:TrackPointExtension>
        </extensions>
      </trkpt>
      <trkpt lat="42.5180039741098880767822265625" lon="19.7659852914512157440185546875">
        <ele>1806.199951171875</ele>
        <time>2026-06-18T09:34:44.000Z</time>
        <extensions>
          <ns3:TrackPointExtension>
            <ns3:atemp>22.0</ns3:atemp>
          </ns3:TrackPointExtension>
        </extensions>
      </trkpt>
      <trkpt lat="42.51797623001039028167724609375" lon="19.7660050727427005767822265625">
        <ele>1805.199951171875</ele>
        <time>2026-06-18T09:34:45.000Z</time>
        <extensions>
          <ns3:TrackPointExtension>
            <ns3:atemp>22.0</ns3:atemp>
          </ns3:TrackPointExtension>
        </extensions>
      </trkpt>
      <trkpt lat="42.51795225776731967926025390625" lon="19.7660241834819316864013671875">
        <ele>1804.4000244140625</ele>
        <time>2026-06-18T09:34:46.000Z</time>
        <extensions>
          <ns3:TrackPointExtension>
            <ns3:atemp>22.0</ns3:atemp>
          </ns3:TrackPointExtension>
        </extensions>
      </trkpt>
      <trkpt lat="42.517924010753631591796875" lon="19.766039438545703887939453125">
        <ele>1803.4000244140625</ele>
        <time>2026-06-18T09:34:47.000Z</time>
        <extensions>
          <ns3:TrackPointExtension>
            <ns3:atemp>22.0</ns3:atemp>
          </ns3:TrackPointExtension>
        </extensions>
      </trkpt>
      <trkpt lat="42.51789039932191371917724609375" lon="19.7660382650792598724365234375">
        <ele>1802.4000244140625</ele>
        <time>2026-06-18T09:34:48.000Z</time>
        <extensions>
          <ns3:TrackPointExtension>
            <ns3:atemp>22.0</ns3:atemp>
          </ns3:TrackPointExtension>
        </extensions>
      </trkpt>
      <trkpt lat="42.51785368658602237701416015625" lon="19.76605058647692203521728515625">
        <ele>1801.199951171875</ele>
        <time>2026-06-18T09:34:49.000Z</time>
        <extensions>
          <ns3:TrackPointExtension>
            <ns3:atemp>22.0</ns3:atemp>
          </ns3:TrackPointExtension>
        </extensions>
      </trkpt>
      <trkpt lat="42.51783021725714206695556640625" lon="19.76607187651097774505615234375">
        <ele>1800.199951171875</ele>
        <time>2026-06-18T09:34:50.000Z</time>
        <extensions>
          <ns3:TrackPointExtension>
            <ns3:atemp>22.0</ns3:atemp>
          </ns3:TrackPointExtension>
        </extensions>
      </trkpt>
      <trkpt lat="42.5178148783743381500244140625" lon="19.76609081961214542388916015625">
        <ele>1799.4000244140625</ele>
        <time>2026-06-18T09:34:51.000Z</time>
        <extensions>
          <ns3:TrackPointExtension>
            <ns3:atemp>22.0</ns3:atemp>
          </ns3:TrackPointExtension>
        </extensions>
      </trkpt>
      <trkpt lat="42.5177992880344390869140625" lon="19.76611613295972347259521484375">
        <ele>1798.199951171875</ele>
        <time>2026-06-18T09:34:52.000Z</time>
        <extensions>
          <ns3:TrackPointExtension>
            <ns3:atemp>22.0</ns3:atemp>
          </ns3:TrackPointExtension>
        </extensions>
      </trkpt>
      <trkpt lat="42.517789565026760101318359375" lon="19.7661410272121429443359375">
        <ele>1797.4000244140625</ele>
        <time>2026-06-18T09:34:53.000Z</time>
        <extensions>
          <ns3:TrackPointExtension>
            <ns3:atemp>22.0</ns3:atemp>
          </ns3:TrackPointExtension>
        </extensions>
      </trkpt>
      <trkpt lat="42.51777984201908111572265625" lon="19.76616047322750091552734375">
        <ele>1796.800048828125</ele>
        <time>2026-06-18T09:34:54.000Z</time>
        <extensions>
          <ns3:TrackPointExtension>
            <ns3:atemp>22.0</ns3:atemp>
          </ns3:TrackPointExtension>
        </extensions>
      </trkpt>
      <trkpt lat="42.51776299439370632171630859375" lon="19.76618318818509578704833984375">
        <ele>1796.199951171875</ele>
        <time>2026-06-18T09:34:55.000Z</time>
        <extensions>
          <ns3:TrackPointExtension>
            <ns3:atemp>22.0</ns3:atemp>
          </ns3:TrackPointExtension>
        </extensions>
      </trkpt>
      <trkpt lat="42.5177491642534732818603515625" lon="19.7662027180194854736328125">
        <ele>1795.5999755859375</ele>
        <time>2026-06-18T09:34:56.000Z</time>
        <extensions>
          <ns3:TrackPointExtension>
            <ns3:atemp>22.0</ns3:atemp>
          </ns3:TrackPointExtension>
        </extensions>
      </trkpt>
      <trkpt lat="42.51773826777935028076171875" lon="19.76622358895838260650634765625">
        <ele>1794.800048828125</ele>
        <time>2026-06-18T09:34:57.000Z</time>
        <extensions>
          <ns3:TrackPointExtension>
            <ns3:atemp>22.0</ns3:atemp>
          </ns3:TrackPointExtension>
        </extensions>
      </trkpt>
      <trkpt lat="42.5177268683910369873046875" lon="19.76623700000345706939697265625">
        <ele>1794.199951171875</ele>
        <time>2026-06-18T09:34:58.000Z</time>
        <extensions>
          <ns3:TrackPointExtension>
            <ns3:atemp>22.0</ns3:atemp>
          </ns3:TrackPointExtension>
        </extensions>
      </trkpt>
      <trkpt lat="42.51771136187016963958740234375" lon="19.76624906994402408599853515625">
        <ele>1793.5999755859375</ele>
        <time>2026-06-18T09:34:59.000Z</time>
        <extensions>
          <ns3:TrackPointExtension>
            <ns3:atemp>22.0</ns3:atemp>
          </ns3:TrackPointExtension>
        </extensions>
      </trkpt>
      <trkpt lat="42.5176971964538097381591796875" lon="19.76625661365687847137451171875">
        <ele>1793</ele>
        <time>2026-06-18T09:35:00.000Z</time>
        <extensions>
          <ns3:TrackPointExtension>
            <ns3:atemp>22.0</ns3:atemp>
          </ns3:TrackPointExtension>
        </extensions>
      </trkpt>
      <trkpt lat="42.5176844559609889984130859375" lon="19.76626264862716197967529296875">
        <ele>1792.4000244140625</ele>
        <time>2026-06-18T09:35:01.000Z</time>
        <extensions>
          <ns3:TrackPointExtension>
            <ns3:atemp>22.0</ns3:atemp>
          </ns3:TrackPointExtension>
        </extensions>
      </trkpt>
      <trkpt lat="42.51767381094396114349365234375" lon="19.76626885123550891876220703125">
        <ele>1791.5999755859375</ele>
        <time>2026-06-18T09:35:02.000Z</time>
        <extensions>
          <ns3:TrackPointExtension>
            <ns3:atemp>22.0</ns3:atemp>
          </ns3:TrackPointExtension>
        </extensions>
      </trkpt>
      <trkpt lat="42.51766048371791839599609375" lon="19.76626642048358917236328125">
        <ele>1791</ele>
        <time>2026-06-18T09:35:03.000Z</time>
        <extensions>
          <ns3:TrackPointExtension>
            <ns3:atemp>22.0</ns3:atemp>
          </ns3:TrackPointExtension>
        </extensions>
      </trkpt>
      <trkpt lat="42.51763542182743549346923828125" lon="19.7662451304495334625244140625">
        <ele>1790.4000244140625</ele>
        <time>2026-06-18T09:35:04.000Z</time>
        <extensions>
          <ns3:TrackPointExtension>
            <ns3:atemp>22.0</ns3:atemp>
          </ns3:TrackPointExtension>
        </extensions>
      </trkpt>
      <trkpt lat="42.51759384758770465850830078125" lon="19.76622777990996837615966796875">
        <ele>1789.5999755859375</ele>
        <time>2026-06-18T09:35:05.000Z</time>
        <extensions>
          <ns3:TrackPointExtension>
            <ns3:atemp>22.0</ns3:atemp>
          </ns3:TrackPointExtension>
        </extensions>
      </trkpt>
      <trkpt lat="42.51754975877702236175537109375" lon="19.7662189789116382598876953125">
        <ele>1788.800048828125</ele>
        <time>2026-06-18T09:35:06.000Z</time>
        <extensions>
          <ns3:TrackPointExtension>
            <ns3:atemp>22.0</ns3:atemp>
          </ns3:TrackPointExtension>
        </extensions>
      </trkpt>
      <trkpt lat="42.5175122916698455810546875" lon="19.7662054002285003662109375">
        <ele>1787.800048828125</ele>
        <time>2026-06-18T09:35:07.000Z</time>
        <extensions>
          <ns3:TrackPointExtension>
            <ns3:atemp>22.0</ns3:atemp>
          </ns3:TrackPointExtension>
        </extensions>
      </trkpt>
      <trkpt lat="42.51748588867485523223876953125" lon="19.76619425229728221893310546875">
        <ele>1787</ele>
        <time>2026-06-18T09:35:08.000Z</time>
        <extensions>
          <ns3:TrackPointExtension>
            <ns3:atemp>22.0</ns3:atemp>
          </ns3:TrackPointExtension>
        </extensions>
      </trkpt>
      <trkpt lat="42.517467699944972991943359375" lon="19.76618017069995403289794921875">
        <ele>1786</ele>
        <time>2026-06-18T09:35:09.000Z</time>
        <extensions>
          <ns3:TrackPointExtension>
            <ns3:atemp>22.0</ns3:atemp>
          </ns3:TrackPointExtension>
        </extensions>
      </trkpt>
      <trkpt lat="42.5174479186534881591796875" lon="19.7661624848842620849609375">
        <ele>1785.5999755859375</ele>
        <time>2026-06-18T09:35:10.000Z</time>
        <extensions>
          <ns3:TrackPointExtension>
            <ns3:atemp>22.0</ns3:atemp>
          </ns3:TrackPointExtension>
        </extensions>
      </trkpt>
      <trkpt lat="42.5174179114401340484619140625" lon="19.7661619819700717926025390625">
        <ele>1785</ele>
        <time>2026-06-18T09:35:11.000Z</time>
        <extensions>
          <ns3:TrackPointExtension>
            <ns3:atemp>22.0</ns3:atemp>
          </ns3:TrackPointExtension>
        </extensions>
      </trkpt>
      <trkpt lat="42.5173915922641754150390625" lon="19.76618184708058834075927734375">
        <ele>1784.4000244140625</ele>
        <time>2026-06-18T09:35:12.000Z</time>
        <extensions>
          <ns3:TrackPointExtension>
            <ns3:atemp>22.0</ns3:atemp>
          </ns3:TrackPointExtension>
        </extensions>
      </trkpt>
      <trkpt lat="42.51736720092594623565673828125" lon="19.7662072442471981048583984375">
        <ele>1783.800048828125</ele>
        <time>2026-06-18T09:35:13.000Z</time>
        <extensions>
          <ns3:TrackPointExtension>
            <ns3:atemp>22.0</ns3:atemp>
          </ns3:TrackPointExtension>
        </extensions>
      </trkpt>
      <trkpt lat="42.517340295016765594482421875" lon="19.76621587760746479034423828125">
        <ele>1783.4000244140625</ele>
        <time>2026-06-18T09:35:14.000Z</time>
        <extensions>
          <ns3:TrackPointExtension>
            <ns3:atemp>22.0</ns3:atemp>
          </ns3:TrackPointExtension>
        </extensions>
      </trkpt>
      <trkpt lat="42.51731690950691699981689453125" lon="19.76622275076806545257568359375">
        <ele>1783</ele>
        <time>2026-06-18T09:35:15.000Z</time>
        <extensions>
          <ns3:TrackPointExtension>
            <ns3:atemp>22.0</ns3:atemp>
          </ns3:TrackPointExtension>
        </extensions>
      </trkpt>
      <trkpt lat="42.5172936916351318359375" lon="19.7662293724715709686279296875">
        <ele>1782.4000244140625</ele>
        <time>2026-06-18T09:35:16.000Z</time>
        <extensions>
          <ns3:TrackPointExtension>
            <ns3:atemp>22.0</ns3:atemp>
          </ns3:TrackPointExtension>
        </extensions>
      </trkpt>
      <trkpt lat="42.51728422008454799652099609375" lon="19.76624093949794769287109375">
        <ele>1782.199951171875</ele>
        <time>2026-06-18T09:35:17.000Z</time>
        <extensions>
          <ns3:TrackPointExtension>
            <ns3:atemp>22.0</ns3:atemp>
          </ns3:TrackPointExtension>
        </extensions>
      </trkpt>
      <trkpt lat="42.5172834657132625579833984375" lon="19.76625342853367328643798828125">
        <ele>1782</ele>
        <time>2026-06-18T09:35:18.000Z</time>
        <extensions>
          <ns3:TrackPointExtension>
            <ns3:atemp>22.0</ns3:atemp>
          </ns3:TrackPointExtension>
        </extensions>
      </trkpt>
      <trkpt lat="42.51727231778204441070556640625" lon="19.7662739641964435577392578125">
        <ele>1781.800048828125</ele>
        <time>2026-06-18T09:35:19.000Z</time>
        <extensions>
          <ns3:TrackPointExtension>
            <ns3:atemp>22.0</ns3:atemp>
          </ns3:TrackPointExtension>
        </extensions>
      </trkpt>
      <trkpt lat="42.51725404523313045501708984375" lon="19.76628863252699375152587890625">
        <ele>1781.800048828125</ele>
        <time>2026-06-18T09:35:20.000Z</time>
        <extensions>
          <ns3:TrackPointExtension>
            <ns3:atemp>22.0</ns3:atemp>
          </ns3:TrackPointExtension>
        </extensions>
      </trkpt>
      <trkpt lat="42.517236359417438507080078125" lon="19.766300618648529052734375">
        <ele>1781.800048828125</ele>
        <time>2026-06-18T09:35:21.000Z</time>
        <extensions>
          <ns3:TrackPointExtension>
            <ns3:atemp>22.0</ns3:atemp>
          </ns3:TrackPointExtension>
        </extensions>
      </trkpt>
      <trkpt lat="42.51722688786685466766357421875" lon="19.76631042547523975372314453125">
        <ele>1781.5999755859375</ele>
        <time>2026-06-18T09:35:22.000Z</time>
        <extensions>
          <ns3:TrackPointExtension>
            <ns3:atemp>22.0</ns3:atemp>
          </ns3:TrackPointExtension>
        </extensions>
      </trkpt>
      <trkpt lat="42.5172157399356365203857421875" lon="19.7663276083767414093017578125">
        <ele>1781.5999755859375</ele>
        <time>2026-06-18T09:35:23.000Z</time>
        <extensions>
          <ns3:TrackPointExtension>
            <ns3:atemp>22.0</ns3:atemp>
          </ns3:TrackPointExtension>
        </extensions>
      </trkpt>
      <trkpt lat="42.51721766777336597442626953125" lon="19.76632769219577312469482421875">
        <ele>1781.4000244140625</ele>
        <time>2026-06-18T09:35:24.000Z</time>
        <extensions>
          <ns3:TrackPointExtension>
            <ns3:atemp>22.0</ns3:atemp>
          </ns3:TrackPointExtension>
        </extensions>
      </trkpt>
      <trkpt lat="42.517217583954334259033203125" lon="19.7663276083767414093017578125">
        <ele>1781.4000244140625</ele>
        <time>2026-06-18T09:35:25.000Z</time>
        <extensions>
          <ns3:TrackPointExtension>
            <ns3:atemp>22.0</ns3:atemp>
          </ns3:TrackPointExtension>
        </extensions>
      </trkpt>
      <trkpt lat="42.517217583954334259033203125" lon="19.76632752455770969390869140625">
        <ele>1781.199951171875</ele>
        <time>2026-06-18T09:35:26.000Z</time>
        <extensions>
          <ns3:TrackPointExtension>
            <ns3:atemp>22.0</ns3:atemp>
          </ns3:TrackPointExtension>
        </extensions>
      </trkpt>
      <trkpt lat="42.51721364445984363555908203125" lon="19.76634428836405277252197265625">
        <ele>1781</ele>
        <time>2026-06-18T09:35:27.000Z</time>
        <extensions>
          <ns3:TrackPointExtension>
            <ns3:atemp>22.0</ns3:atemp>
          </ns3:TrackPointExtension>
        </extensions>
      </trkpt>
      <trkpt lat="42.51720811240375041961669921875" lon="19.76635954342782497406005859375">
        <ele>1780.5999755859375</ele>
        <time>2026-06-18T09:35:28.000Z</time>
        <extensions>
          <ns3:TrackPointExtension>
            <ns3:atemp>22.0</ns3:atemp>
          </ns3:TrackPointExtension>
        </extensions>
      </trkpt>
      <trkpt lat="42.517198808491230010986328125" lon="19.766382090747356414794921875">
        <ele>1780.4000244140625</ele>
        <time>2026-06-18T09:35:29.000Z</time>
        <extensions>
          <ns3:TrackPointExtension>
            <ns3:atemp>22.0</ns3:atemp>
          </ns3:TrackPointExtension>
        </extensions>
      </trkpt>
      <trkpt lat="42.5172003172338008880615234375" lon="19.766413606703281402587890625">
        <ele>1780</ele>
        <time>2026-06-18T09:35:30.000Z</time>
        <extensions>
          <ns3:TrackPointExtension>
            <ns3:atemp>22.0</ns3:atemp>
          </ns3:TrackPointExtension>
        </extensions>
      </trkpt>
      <trkpt lat="42.51720408909022808074951171875" lon="19.7664355672895908355712890625">
        <ele>1779.5999755859375</ele>
        <time>2026-06-18T09:35:31.000Z</time>
        <extensions>
          <ns3:TrackPointExtension>
            <ns3:atemp>22.0</ns3:atemp>
          </ns3:TrackPointExtension>
        </extensions>
      </trkpt>
      <trkpt lat="42.51720258034765720367431640625" lon="19.76644612848758697509765625">
        <ele>1779.199951171875</ele>
        <time>2026-06-18T09:35:32.000Z</time>
        <extensions>
          <ns3:TrackPointExtension>
            <ns3:atemp>22.0</ns3:atemp>
          </ns3:TrackPointExtension>
        </extensions>
      </trkpt>
      <trkpt lat="42.51720425672829151153564453125" lon="19.76645090617239475250244140625">
        <ele>1779</ele>
        <time>2026-06-18T09:35:33.000Z</time>
        <extensions>
          <ns3:TrackPointExtension>
            <ns3:atemp>22.0</ns3:atemp>
          </ns3:TrackPointExtension>
        </extensions>
      </trkpt>
      <trkpt lat="42.51720425672829151153564453125" lon="19.76645090617239475250244140625">
        <ele>1779</ele>
        <time>2026-06-18T09:35:34.000Z</time>
        <extensions>
          <ns3:TrackPointExtension>
            <ns3:atemp>22.0</ns3:atemp>
          </ns3:TrackPointExtension>
        </extensions>
      </trkpt>
      <trkpt lat="42.51720425672829151153564453125" lon="19.76645090617239475250244140625">
        <ele>1778.800048828125</ele>
        <time>2026-06-18T09:35:35.000Z</time>
        <extensions>
          <ns3:TrackPointExtension>
            <ns3:atemp>22.0</ns3:atemp>
          </ns3:TrackPointExtension>
        </extensions>
      </trkpt>
      <trkpt lat="42.51720425672829151153564453125" lon="19.76645090617239475250244140625">
        <ele>1778.800048828125</ele>
        <time>2026-06-18T09:35:36.000Z</time>
        <extensions>
          <ns3:TrackPointExtension>
            <ns3:atemp>22.0</ns3:atemp>
          </ns3:TrackPointExtension>
        </extensions>
      </trkpt>
      <trkpt lat="42.51720425672829151153564453125" lon="19.76645090617239475250244140625">
        <ele>1778.800048828125</ele>
        <time>2026-06-18T09:35:37.000Z</time>
        <extensions>
          <ns3:TrackPointExtension>
            <ns3:atemp>22.0</ns3:atemp>
          </ns3:TrackPointExtension>
        </extensions>
      </trkpt>
      <trkpt lat="42.51720425672829151153564453125" lon="19.76645090617239475250244140625">
        <ele>1778.800048828125</ele>
        <time>2026-06-18T09:35:38.000Z</time>
        <extensions>
          <ns3:TrackPointExtension>
            <ns3:atemp>22.0</ns3:atemp>
          </ns3:TrackPointExtension>
        </extensions>
      </trkpt>
      <trkpt lat="42.51720425672829151153564453125" lon="19.76645090617239475250244140625">
        <ele>1778.5999755859375</ele>
        <time>2026-06-18T09:35:39.000Z</time>
        <extensions>
          <ns3:TrackPointExtension>
            <ns3:atemp>22.0</ns3:atemp>
          </ns3:TrackPointExtension>
        </extensions>
      </trkpt>
      <trkpt lat="42.51720425672829151153564453125" lon="19.76645090617239475250244140625">
        <ele>1778.4000244140625</ele>
        <time>2026-06-18T09:35:40.000Z</time>
        <extensions>
          <ns3:TrackPointExtension>
            <ns3:atemp>22.0</ns3:atemp>
          </ns3:TrackPointExtension>
        </extensions>
      </trkpt>
      <trkpt lat="42.51720425672829151153564453125" lon="19.76645090617239475250244140625">
        <ele>1778.4000244140625</ele>
        <time>2026-06-18T09:35:41.000Z</time>
        <extensions>
          <ns3:TrackPointExtension>
            <ns3:atemp>22.0</ns3:atemp>
          </ns3:TrackPointExtension>
        </extensions>
      </trkpt>
      <trkpt lat="42.51720425672829151153564453125" lon="19.76645090617239475250244140625">
        <ele>1778.199951171875</ele>
        <time>2026-06-18T09:35:42.000Z</time>
        <extensions>
          <ns3:TrackPointExtension>
            <ns3:atemp>22.0</ns3:atemp>
          </ns3:TrackPointExtension>
        </extensions>
      </trkpt>
      <trkpt lat="42.51720459200441837310791015625" lon="19.76644973270595073699951171875">
        <ele>1778.199951171875</ele>
        <time>2026-06-18T09:35:43.000Z</time>
        <extensions>
          <ns3:TrackPointExtension>
            <ns3:atemp>22.0</ns3:atemp>
          </ns3:TrackPointExtension>
        </extensions>
      </trkpt>
      <trkpt lat="42.51720392145216464996337890625" lon="19.7664630599319934844970703125">
        <ele>1778.199951171875</ele>
        <time>2026-06-18T09:35:44.000Z</time>
        <extensions>
          <ns3:TrackPointExtension>
            <ns3:atemp>22.0</ns3:atemp>
          </ns3:TrackPointExtension>
        </extensions>
      </trkpt>
      <trkpt lat="42.51719822175800800323486328125" lon="19.76648175157606601715087890625">
        <ele>1778</ele>
        <time>2026-06-18T09:35:45.000Z</time>
        <extensions>
          <ns3:TrackPointExtension>
            <ns3:atemp>22.0</ns3:atemp>
          </ns3:TrackPointExtension>
        </extensions>
      </trkpt>
      <trkpt lat="42.51719268970191478729248046875" lon="19.76650069467723369598388671875">
        <ele>1778</ele>
        <time>2026-06-18T09:35:46.000Z</time>
        <extensions>
          <ns3:TrackPointExtension>
            <ns3:atemp>22.0</ns3:atemp>
          </ns3:TrackPointExtension>
        </extensions>
      </trkpt>
      <trkpt lat="42.51717693172395229339599609375" lon="19.7665227390825748443603515625">
        <ele>1777.800048828125</ele>
        <time>2026-06-18T09:35:47.000Z</time>
        <extensions>
          <ns3:TrackPointExtension>
            <ns3:atemp>22.0</ns3:atemp>
          </ns3:TrackPointExtension>
        </extensions>
      </trkpt>
      <trkpt lat="42.51717031002044677734375" lon="19.766525924205780029296875">
        <ele>1777.5999755859375</ele>
        <time>2026-06-18T09:35:48.000Z</time>
        <extensions>
          <ns3:TrackPointExtension>
            <ns3:atemp>22.0</ns3:atemp>
          </ns3:TrackPointExtension>
        </extensions>
      </trkpt>
      <trkpt lat="42.5171701423823833465576171875" lon="19.766525924205780029296875">
        <ele>1777.5999755859375</ele>
        <time>2026-06-18T09:35:49.000Z</time>
        <extensions>
          <ns3:TrackPointExtension>
            <ns3:atemp>22.0</ns3:atemp>
          </ns3:TrackPointExtension>
        </extensions>
      </trkpt>
      <trkpt lat="42.5171701423823833465576171875" lon="19.766525924205780029296875">
        <ele>1777.5999755859375</ele>
        <time>2026-06-18T09:35:50.000Z</time>
        <extensions>
          <ns3:TrackPointExtension>
            <ns3:atemp>22.0</ns3:atemp>
          </ns3:TrackPointExtension>
        </extensions>
      </trkpt>
      <trkpt lat="42.5171698071062564849853515625" lon="19.76652617566287517547607421875">
        <ele>1777.5999755859375</ele>
        <time>2026-06-18T09:35:51.000Z</time>
        <extensions>
          <ns3:TrackPointExtension>
            <ns3:atemp>22.0</ns3:atemp>
          </ns3:TrackPointExtension>
        </extensions>
      </trkpt>
      <trkpt lat="42.51715882681310176849365234375" lon="19.766528606414794921875">
        <ele>1777.5999755859375</ele>
        <time>2026-06-18T09:35:52.000Z</time>
        <extensions>
          <ns3:TrackPointExtension>
            <ns3:atemp>22.0</ns3:atemp>
          </ns3:TrackPointExtension>
        </extensions>
      </trkpt>
      <trkpt lat="42.5171543844044208526611328125" lon="19.766529612243175506591796875">
        <ele>1777.5999755859375</ele>
        <time>2026-06-18T09:35:53.000Z</time>
        <extensions>
          <ns3:TrackPointExtension>
            <ns3:atemp>22.0</ns3:atemp>
          </ns3:TrackPointExtension>
        </extensions>
      </trkpt>
      <trkpt lat="42.51715312711894512176513671875" lon="19.7665287740528583526611328125">
        <ele>1777.5999755859375</ele>
        <time>2026-06-18T09:35:54.000Z</time>
        <extensions>
          <ns3:TrackPointExtension>
            <ns3:atemp>22.0</ns3:atemp>
          </ns3:TrackPointExtension>
        </extensions>
      </trkpt>
      <trkpt lat="42.51715312711894512176513671875" lon="19.76652869023382663726806640625">
        <ele>1777.5999755859375</ele>
        <time>2026-06-18T09:35:55.000Z</time>
        <extensions>
          <ns3:TrackPointExtension>
            <ns3:atemp>22.0</ns3:atemp>
          </ns3:TrackPointExtension>
        </extensions>
      </trkpt>
      <trkpt lat="42.51715312711894512176513671875" lon="19.76652869023382663726806640625">
        <ele>1777.4000244140625</ele>
        <time>2026-06-18T09:35:56.000Z</time>
        <extensions>
          <ns3:TrackPointExtension>
            <ns3:atemp>22.0</ns3:atemp>
          </ns3:TrackPointExtension>
        </extensions>
      </trkpt>
      <trkpt lat="42.51715312711894512176513671875" lon="19.76652869023382663726806640625">
        <ele>1777.4000244140625</ele>
        <time>2026-06-18T09:35:57.000Z</time>
        <extensions>
          <ns3:TrackPointExtension>
            <ns3:atemp>22.0</ns3:atemp>
          </ns3:TrackPointExtension>
        </extensions>
      </trkpt>
      <trkpt lat="42.51715312711894512176513671875" lon="19.76652869023382663726806640625">
        <ele>1777.5999755859375</ele>
        <time>2026-06-18T09:35:58.000Z</time>
        <extensions>
          <ns3:TrackPointExtension>
            <ns3:atemp>22.0</ns3:atemp>
          </ns3:TrackPointExtension>
        </extensions>
      </trkpt>
      <trkpt lat="42.51715312711894512176513671875" lon="19.76652869023382663726806640625">
        <ele>1777.5999755859375</ele>
        <time>2026-06-18T09:35:59.000Z</time>
        <extensions>
          <ns3:TrackPointExtension>
            <ns3:atemp>22.0</ns3:atemp>
          </ns3:TrackPointExtension>
        </extensions>
      </trkpt>
      <trkpt lat="42.51715312711894512176513671875" lon="19.76652869023382663726806640625">
        <ele>1777.5999755859375</ele>
        <time>2026-06-18T09:36:00.000Z</time>
        <extensions>
          <ns3:TrackPointExtension>
            <ns3:atemp>22.0</ns3:atemp>
          </ns3:TrackPointExtension>
        </extensions>
      </trkpt>
      <trkpt lat="42.51715312711894512176513671875" lon="19.76652869023382663726806640625">
        <ele>1777.800048828125</ele>
        <time>2026-06-18T09:36:01.000Z</time>
        <extensions>
          <ns3:TrackPointExtension>
            <ns3:atemp>22.0</ns3:atemp>
          </ns3:TrackPointExtension>
        </extensions>
      </trkpt>
      <trkpt lat="42.5171527080237865447998046875" lon="19.7665277682244777679443359375">
        <ele>1778</ele>
        <time>2026-06-18T09:36:02.000Z</time>
        <extensions>
          <ns3:TrackPointExtension>
            <ns3:atemp>22.0</ns3:atemp>
          </ns3:TrackPointExtension>
        </extensions>
      </trkpt>
      <trkpt lat="42.51715312711894512176513671875" lon="19.76652869023382663726806640625">
        <ele>1778</ele>
        <time>2026-06-18T09:36:03.000Z</time>
        <extensions>
          <ns3:TrackPointExtension>
            <ns3:atemp>22.0</ns3:atemp>
          </ns3:TrackPointExtension>
        </extensions>
      </trkpt>
      <trkpt lat="42.51715312711894512176513671875" lon="19.76652869023382663726806640625">
        <ele>1778</ele>
        <time>2026-06-18T09:36:04.000Z</time>
        <extensions>
          <ns3:TrackPointExtension>
            <ns3:atemp>22.0</ns3:atemp>
          </ns3:TrackPointExtension>
        </extensions>
      </trkpt>
      <trkpt lat="42.5171510316431522369384765625" lon="19.7665197215974330902099609375">
        <ele>1778</ele>
        <time>2026-06-18T09:36:05.000Z</time>
        <extensions>
          <ns3:TrackPointExtension>
            <ns3:atemp>22.0</ns3:atemp>
          </ns3:TrackPointExtension>
        </extensions>
      </trkpt>
      <trkpt lat="42.517139799892902374267578125" lon="19.76652701385319232940673828125">
        <ele>1778</ele>
        <time>2026-06-18T09:36:06.000Z</time>
        <extensions>
          <ns3:TrackPointExtension>
            <ns3:atemp>22.0</ns3:atemp>
          </ns3:TrackPointExtension>
        </extensions>
      </trkpt>
      <trkpt lat="42.51713074743747711181640625" lon="19.76652818731963634490966796875">
        <ele>1778</ele>
        <time>2026-06-18T09:36:07.000Z</time>
        <extensions>
          <ns3:TrackPointExtension>
            <ns3:atemp>22.0</ns3:atemp>
          </ns3:TrackPointExtension>
        </extensions>
      </trkpt>
      <trkpt lat="42.517122365534305572509765625" lon="19.766526259481906890869140625">
        <ele>1777.800048828125</ele>
        <time>2026-06-18T09:36:08.000Z</time>
        <extensions>
          <ns3:TrackPointExtension>
            <ns3:atemp>22.0</ns3:atemp>
          </ns3:TrackPointExtension>
        </extensions>
      </trkpt>
      <trkpt lat="42.517110295593738555908203125" lon="19.76653154008090496063232421875">
        <ele>1777.800048828125</ele>
        <time>2026-06-18T09:36:09.000Z</time>
        <extensions>
          <ns3:TrackPointExtension>
            <ns3:atemp>22.0</ns3:atemp>
          </ns3:TrackPointExtension>
        </extensions>
      </trkpt>
      <trkpt lat="42.51709076575934886932373046875" lon="19.7665341384708881378173828125">
        <ele>1777.800048828125</ele>
        <time>2026-06-18T09:36:10.000Z</time>
        <extensions>
          <ns3:TrackPointExtension>
            <ns3:atemp>22.0</ns3:atemp>
          </ns3:TrackPointExtension>
        </extensions>
      </trkpt>
      <trkpt lat="42.517072744667530059814453125" lon="19.76653237827122211456298828125">
        <ele>1777.800048828125</ele>
        <time>2026-06-18T09:36:11.000Z</time>
        <extensions>
          <ns3:TrackPointExtension>
            <ns3:atemp>22.0</ns3:atemp>
          </ns3:TrackPointExtension>
        </extensions>
      </trkpt>
      <trkpt lat="42.51706176437437534332275390625" lon="19.76652299053966999053955078125">
        <ele>1778</ele>
        <time>2026-06-18T09:36:12.000Z</time>
        <extensions>
          <ns3:TrackPointExtension>
            <ns3:atemp>22.0</ns3:atemp>
          </ns3:TrackPointExtension>
        </extensions>
      </trkpt>
      <trkpt lat="42.51704986207187175750732421875" lon="19.766507484018802642822265625">
        <ele>1778.199951171875</ele>
        <time>2026-06-18T09:36:13.000Z</time>
        <extensions>
          <ns3:TrackPointExtension>
            <ns3:atemp>22.0</ns3:atemp>
          </ns3:TrackPointExtension>
        </extensions>
      </trkpt>
      <trkpt lat="42.51703443937003612518310546875" lon="19.766496084630489349365234375">
        <ele>1778.4000244140625</ele>
        <time>2026-06-18T09:36:14.000Z</time>
        <extensions>
          <ns3:TrackPointExtension>
            <ns3:atemp>22.0</ns3:atemp>
          </ns3:TrackPointExtension>
        </extensions>
      </trkpt>
      <trkpt lat="42.5170209445059299468994140625" lon="19.7664816677570343017578125">
        <ele>1778.800048828125</ele>
        <time>2026-06-18T09:36:15.000Z</time>
        <extensions>
          <ns3:TrackPointExtension>
            <ns3:atemp>22.0</ns3:atemp>
          </ns3:TrackPointExtension>
        </extensions>
      </trkpt>
      <trkpt lat="42.517013736069202423095703125" lon="19.76646498776972293853759765625">
        <ele>1779</ele>
        <time>2026-06-18T09:36:16.000Z</time>
        <extensions>
          <ns3:TrackPointExtension>
            <ns3:atemp>22.0</ns3:atemp>
          </ns3:TrackPointExtension>
        </extensions>
      </trkpt>
      <trkpt lat="42.51700510270893573760986328125" lon="19.76645610295236110687255859375">
        <ele>1779.199951171875</ele>
        <time>2026-06-18T09:36:17.000Z</time>
        <extensions>
          <ns3:TrackPointExtension>
            <ns3:atemp>22.0</ns3:atemp>
          </ns3:TrackPointExtension>
        </extensions>
      </trkpt>
      <trkpt lat="42.51698984764516353607177734375" lon="19.76644872687757015228271484375">
        <ele>1779.4000244140625</ele>
        <time>2026-06-18T09:36:18.000Z</time>
        <extensions>
          <ns3:TrackPointExtension>
            <ns3:atemp>22.0</ns3:atemp>
          </ns3:TrackPointExtension>
        </extensions>
      </trkpt>
      <trkpt lat="42.51697459258139133453369140625" lon="19.76644034497439861297607421875">
        <ele>1779.4000244140625</ele>
        <time>2026-06-18T09:36:19.000Z</time>
        <extensions>
          <ns3:TrackPointExtension>
            <ns3:atemp>22.0</ns3:atemp>
          </ns3:TrackPointExtension>
        </extensions>
      </trkpt>
      <trkpt lat="42.516962103545665740966796875" lon="19.7664288617670536041259765625">
        <ele>1779.5999755859375</ele>
        <time>2026-06-18T09:36:20.000Z</time>
        <extensions>
          <ns3:TrackPointExtension>
            <ns3:atemp>22.0</ns3:atemp>
          </ns3:TrackPointExtension>
        </extensions>
      </trkpt>
      <trkpt lat="42.516947686672210693359375" lon="19.76641955785453319549560546875">
        <ele>1779.5999755859375</ele>
        <time>2026-06-18T09:36:21.000Z</time>
        <extensions>
          <ns3:TrackPointExtension>
            <ns3:atemp>22.0</ns3:atemp>
          </ns3:TrackPointExtension>
        </extensions>
      </trkpt>
      <trkpt lat="42.516934610903263092041015625" lon="19.76641469635069370269775390625">
        <ele>1779.800048828125</ele>
        <time>2026-06-18T09:36:22.000Z</time>
        <extensions>
          <ns3:TrackPointExtension>
            <ns3:atemp>22.0</ns3:atemp>
          </ns3:TrackPointExtension>
        </extensions>
      </trkpt>
      <trkpt lat="42.5169250555336475372314453125" lon="19.7664087451994419097900390625">
        <ele>1780</ele>
        <time>2026-06-18T09:36:23.000Z</time>
        <extensions>
          <ns3:TrackPointExtension>
            <ns3:atemp>22.0</ns3:atemp>
          </ns3:TrackPointExtension>
        </extensions>
      </trkpt>
      <trkpt lat="42.51691876910626888275146484375" lon="19.7663980163633823394775390625">
        <ele>1780.199951171875</ele>
        <time>2026-06-18T09:36:24.000Z</time>
        <extensions>
          <ns3:TrackPointExtension>
            <ns3:atemp>22.0</ns3:atemp>
          </ns3:TrackPointExtension>
        </extensions>
      </trkpt>
      <trkpt lat="42.5169106386601924896240234375" lon="19.7663877904415130615234375">
        <ele>1780.4000244140625</ele>
        <time>2026-06-18T09:36:25.000Z</time>
        <extensions>
          <ns3:TrackPointExtension>
            <ns3:atemp>22.0</ns3:atemp>
          </ns3:TrackPointExtension>
        </extensions>
      </trkpt>
      <trkpt lat="42.51690208911895751953125" lon="19.76637915708124637603759765625">
        <ele>1780.5999755859375</ele>
        <time>2026-06-18T09:36:26.000Z</time>
        <extensions>
          <ns3:TrackPointExtension>
            <ns3:atemp>22.0</ns3:atemp>
          </ns3:TrackPointExtension>
        </extensions>
      </trkpt>
      <trkpt lat="42.5168925337493419647216796875" lon="19.766366668045520782470703125">
        <ele>1781</ele>
        <time>2026-06-18T09:36:27.000Z</time>
        <extensions>
          <ns3:TrackPointExtension>
            <ns3:atemp>22.0</ns3:atemp>
          </ns3:TrackPointExtension>
        </extensions>
      </trkpt>
      <trkpt lat="42.5168801285326480865478515625" lon="19.76635350845754146575927734375">
        <ele>1781.4000244140625</ele>
        <time>2026-06-18T09:36:28.000Z</time>
        <extensions>
          <ns3:TrackPointExtension>
            <ns3:atemp>22.0</ns3:atemp>
          </ns3:TrackPointExtension>
        </extensions>
      </trkpt>
      <trkpt lat="42.51687032170593738555908203125" lon="19.7663403488695621490478515625">
        <ele>1781.800048828125</ele>
        <time>2026-06-18T09:36:29.000Z</time>
        <extensions>
          <ns3:TrackPointExtension>
            <ns3:atemp>22.0</ns3:atemp>
          </ns3:TrackPointExtension>
        </extensions>
      </trkpt>
      <trkpt lat="42.51685841940343379974365234375" lon="19.76632819510996341705322265625">
        <ele>1782.199951171875</ele>
        <time>2026-06-18T09:36:30.000Z</time>
        <extensions>
          <ns3:TrackPointExtension>
            <ns3:atemp>22.0</ns3:atemp>
          </ns3:TrackPointExtension>
        </extensions>
      </trkpt>
      <trkpt lat="42.51684634946286678314208984375" lon="19.7663141973316669464111328125">
        <ele>1782.5999755859375</ele>
        <time>2026-06-18T09:36:31.000Z</time>
        <extensions>
          <ns3:TrackPointExtension>
            <ns3:atemp>22.0</ns3:atemp>
          </ns3:TrackPointExtension>
        </extensions>
      </trkpt>
      <trkpt lat="42.516836039721965789794921875" lon="19.76630128920078277587890625">
        <ele>1783.199951171875</ele>
        <time>2026-06-18T09:36:32.000Z</time>
        <extensions>
          <ns3:TrackPointExtension>
            <ns3:atemp>22.0</ns3:atemp>
          </ns3:TrackPointExtension>
        </extensions>
      </trkpt>
      <trkpt lat="42.51682405360043048858642578125" lon="19.76628519594669342041015625">
        <ele>1783.5999755859375</ele>
        <time>2026-06-18T09:36:33.000Z</time>
        <extensions>
          <ns3:TrackPointExtension>
            <ns3:atemp>22.0</ns3:atemp>
          </ns3:TrackPointExtension>
        </extensions>
      </trkpt>
      <trkpt lat="42.516806535422801971435546875" lon="19.7662779875099658966064453125">
        <ele>1784</ele>
        <time>2026-06-18T09:36:34.000Z</time>
        <extensions>
          <ns3:TrackPointExtension>
            <ns3:atemp>22.0</ns3:atemp>
          </ns3:TrackPointExtension>
        </extensions>
      </trkpt>
      <trkpt lat="42.51678599976003170013427734375" lon="19.76627673022449016571044921875">
        <ele>1784.199951171875</ele>
        <time>2026-06-18T09:36:35.000Z</time>
        <extensions>
          <ns3:TrackPointExtension>
            <ns3:atemp>22.0</ns3:atemp>
          </ns3:TrackPointExtension>
        </extensions>
      </trkpt>
      <trkpt lat="42.51677309162914752960205078125" lon="19.7662712819874286651611328125">
        <ele>1784.5999755859375</ele>
        <time>2026-06-18T09:36:36.000Z</time>
        <extensions>
          <ns3:TrackPointExtension>
            <ns3:atemp>22.0</ns3:atemp>
          </ns3:TrackPointExtension>
        </extensions>
      </trkpt>
      <trkpt lat="42.51676001586019992828369140625" lon="19.766269437968730926513671875">
        <ele>1784.5999755859375</ele>
        <time>2026-06-18T09:36:37.000Z</time>
        <extensions>
          <ns3:TrackPointExtension>
            <ns3:atemp>22.0</ns3:atemp>
          </ns3:TrackPointExtension>
        </extensions>
      </trkpt>
      <trkpt lat="42.51673721708357334136962890625" lon="19.76626214571297168731689453125">
        <ele>1784.800048828125</ele>
        <time>2026-06-18T09:36:38.000Z</time>
        <extensions>
          <ns3:TrackPointExtension>
            <ns3:atemp>22.0</ns3:atemp>
          </ns3:TrackPointExtension>
        </extensions>
      </trkpt>
      <trkpt lat="42.51671768724918365478515625" lon="19.76625611074268817901611328125">
        <ele>1784.800048828125</ele>
        <time>2026-06-18T09:36:39.000Z</time>
        <extensions>
          <ns3:TrackPointExtension>
            <ns3:atemp>22.0</ns3:atemp>
          </ns3:TrackPointExtension>
        </extensions>
      </trkpt>
      <trkpt lat="42.516703940927982330322265625" lon="19.76624630391597747802734375">
        <ele>1784.800048828125</ele>
        <time>2026-06-18T09:36:40.000Z</time>
        <extensions>
          <ns3:TrackPointExtension>
            <ns3:atemp>22.0</ns3:atemp>
          </ns3:TrackPointExtension>
        </extensions>
      </trkpt>
      <trkpt lat="42.5166910327970981597900390625" lon="19.76623565889894962310791015625">
        <ele>1785</ele>
        <time>2026-06-18T09:36:41.000Z</time>
        <extensions>
          <ns3:TrackPointExtension>
            <ns3:atemp>22.0</ns3:atemp>
          </ns3:TrackPointExtension>
        </extensions>
      </trkpt>
      <trkpt lat="42.5166808068752288818359375" lon="19.76621939800679683685302734375">
        <ele>1785.199951171875</ele>
        <time>2026-06-18T09:36:42.000Z</time>
        <extensions>
          <ns3:TrackPointExtension>
            <ns3:atemp>22.0</ns3:atemp>
          </ns3:TrackPointExtension>
        </extensions>
      </trkpt>
      <trkpt lat="42.51667435280978679656982421875" lon="19.7662027180194854736328125">
        <ele>1785.4000244140625</ele>
        <time>2026-06-18T09:36:43.000Z</time>
        <extensions>
          <ns3:TrackPointExtension>
            <ns3:atemp>22.0</ns3:atemp>
          </ns3:TrackPointExtension>
        </extensions>
      </trkpt>
      <trkpt lat="42.51666379161179065704345703125" lon="19.76618117652833461761474609375">
        <ele>1785.5999755859375</ele>
        <time>2026-06-18T09:36:44.000Z</time>
        <extensions>
          <ns3:TrackPointExtension>
            <ns3:atemp>22.0</ns3:atemp>
          </ns3:TrackPointExtension>
        </extensions>
      </trkpt>
      <trkpt lat="42.51664836890995502471923828125" lon="19.76616206578910350799560546875">
        <ele>1785.800048828125</ele>
        <time>2026-06-18T09:36:45.000Z</time>
        <extensions>
          <ns3:TrackPointExtension>
            <ns3:atemp>22.0</ns3:atemp>
          </ns3:TrackPointExtension>
        </extensions>
      </trkpt>
      <trkpt lat="42.51662841998040676116943359375" lon="19.76614731363952159881591796875">
        <ele>1786</ele>
        <time>2026-06-18T09:36:46.000Z</time>
        <extensions>
          <ns3:TrackPointExtension>
            <ns3:atemp>22.0</ns3:atemp>
          </ns3:TrackPointExtension>
        </extensions>
      </trkpt>
      <trkpt lat="42.51660780049860477447509765625" lon="19.76614295504987239837646484375">
        <ele>1786.4000244140625</ele>
        <time>2026-06-18T09:36:47.000Z</time>
        <extensions>
          <ns3:TrackPointExtension>
            <ns3:atemp>22.0</ns3:atemp>
          </ns3:TrackPointExtension>
        </extensions>
      </trkpt>
      <trkpt lat="42.5165884383022785186767578125" lon="19.76614530198276042938232421875">
        <ele>1786.800048828125</ele>
        <time>2026-06-18T09:36:48.000Z</time>
        <extensions>
          <ns3:TrackPointExtension>
            <ns3:atemp>22.0</ns3:atemp>
          </ns3:TrackPointExtension>
        </extensions>
      </trkpt>
      <trkpt lat="42.51657041721045970916748046875" lon="19.766146726906299591064453125">
        <ele>1787.199951171875</ele>
        <time>2026-06-18T09:36:49.000Z</time>
        <extensions>
          <ns3:TrackPointExtension>
            <ns3:atemp>22.0</ns3:atemp>
          </ns3:TrackPointExtension>
        </extensions>
      </trkpt>
      <trkpt lat="42.51655549742281436920166015625" lon="19.76615971885621547698974609375">
        <ele>1787.5999755859375</ele>
        <time>2026-06-18T09:36:50.000Z</time>
        <extensions>
          <ns3:TrackPointExtension>
            <ns3:atemp>22.0</ns3:atemp>
          </ns3:TrackPointExtension>
        </extensions>
      </trkpt>
      <trkpt lat="42.51653789542615413665771484375" lon="19.7661753930151462554931640625">
        <ele>1788</ele>
        <time>2026-06-18T09:36:51.000Z</time>
        <extensions>
          <ns3:TrackPointExtension>
            <ns3:atemp>22.0</ns3:atemp>
          </ns3:TrackPointExtension>
        </extensions>
      </trkpt>
      <trkpt lat="42.5165247358381748199462890625" lon="19.76619240827858448028564453125">
        <ele>1788.4000244140625</ele>
        <time>2026-06-18T09:36:52.000Z</time>
        <extensions>
          <ns3:TrackPointExtension>
            <ns3:atemp>22.0</ns3:atemp>
          </ns3:TrackPointExtension>
        </extensions>
      </trkpt>
      <trkpt lat="42.51650847494602203369140625" lon="19.76621051318943500518798828125">
        <ele>1788.800048828125</ele>
        <time>2026-06-18T09:36:53.000Z</time>
        <extensions>
          <ns3:TrackPointExtension>
            <ns3:atemp>22.0</ns3:atemp>
          </ns3:TrackPointExtension>
        </extensions>
      </trkpt>
      <trkpt lat="42.5164922140538692474365234375" lon="19.76622476242482662200927734375">
        <ele>1789.4000244140625</ele>
        <time>2026-06-18T09:36:54.000Z</time>
        <extensions>
          <ns3:TrackPointExtension>
            <ns3:atemp>22.0</ns3:atemp>
          </ns3:TrackPointExtension>
        </extensions>
      </trkpt>
      <trkpt lat="42.5164774619042873382568359375" lon="19.7662402689456939697265625">
        <ele>1789.800048828125</ele>
        <time>2026-06-18T09:36:55.000Z</time>
        <extensions>
          <ns3:TrackPointExtension>
            <ns3:atemp>22.0</ns3:atemp>
          </ns3:TrackPointExtension>
        </extensions>
      </trkpt>
      <trkpt lat="42.5164635479450225830078125" lon="19.7662588767707347869873046875">
        <ele>1790.199951171875</ele>
        <time>2026-06-18T09:36:56.000Z</time>
        <extensions>
          <ns3:TrackPointExtension>
            <ns3:atemp>22.0</ns3:atemp>
          </ns3:TrackPointExtension>
        </extensions>
      </trkpt>
      <trkpt lat="42.51644921489059925079345703125" lon="19.766274802386760711669921875">
        <ele>1790.5999755859375</ele>
        <time>2026-06-18T09:36:57.000Z</time>
        <extensions>
          <ns3:TrackPointExtension>
            <ns3:atemp>22.0</ns3:atemp>
          </ns3:TrackPointExtension>
        </extensions>
      </trkpt>
      <trkpt lat="42.516435049474239349365234375" lon="19.7662853635847568511962890625">
        <ele>1791</ele>
        <time>2026-06-18T09:36:58.000Z</time>
        <extensions>
          <ns3:TrackPointExtension>
            <ns3:atemp>22.0</ns3:atemp>
          </ns3:TrackPointExtension>
        </extensions>
      </trkpt>
      <trkpt lat="42.51641602255403995513916015625" lon="19.76629332639276981353759765625">
        <ele>1791.199951171875</ele>
        <time>2026-06-18T09:36:59.000Z</time>
        <extensions>
          <ns3:TrackPointExtension>
            <ns3:atemp>22.0</ns3:atemp>
          </ns3:TrackPointExtension>
        </extensions>
      </trkpt>
      <trkpt lat="42.51639842055737972259521484375" lon="19.76630036719143390655517578125">
        <ele>1791.4000244140625</ele>
        <time>2026-06-18T09:37:00.000Z</time>
        <extensions>
          <ns3:TrackPointExtension>
            <ns3:atemp>22.0</ns3:atemp>
          </ns3:TrackPointExtension>
        </extensions>
      </trkpt>
      <trkpt lat="42.51638400368392467498779296875" lon="19.76630355231463909149169921875">
        <ele>1791.800048828125</ele>
        <time>2026-06-18T09:37:01.000Z</time>
        <extensions>
          <ns3:TrackPointExtension>
            <ns3:atemp>22.0</ns3:atemp>
          </ns3:TrackPointExtension>
        </extensions>
      </trkpt>
      <trkpt lat="42.51637302339076995849609375" lon="19.76631201803684234619140625">
        <ele>1792.199951171875</ele>
        <time>2026-06-18T09:37:02.000Z</time>
        <extensions>
          <ns3:TrackPointExtension>
            <ns3:atemp>22.0</ns3:atemp>
          </ns3:TrackPointExtension>
        </extensions>
      </trkpt>
      <trkpt lat="42.5163567624986171722412109375" lon="19.76631964556872844696044921875">
        <ele>1792.5999755859375</ele>
        <time>2026-06-18T09:37:03.000Z</time>
        <extensions>
          <ns3:TrackPointExtension>
            <ns3:atemp>22.0</ns3:atemp>
          </ns3:TrackPointExtension>
        </extensions>
      </trkpt>
      <trkpt lat="42.5163416750729084014892578125" lon="19.76632148958742618560791015625">
        <ele>1793.199951171875</ele>
        <time>2026-06-18T09:37:04.000Z</time>
        <extensions>
          <ns3:TrackPointExtension>
            <ns3:atemp>22.0</ns3:atemp>
          </ns3:TrackPointExtension>
        </extensions>
      </trkpt>
      <trkpt lat="42.5163242407143115997314453125" lon="19.7663219086825847625732421875">
        <ele>1793.5999755859375</ele>
        <time>2026-06-18T09:37:05.000Z</time>
        <extensions>
          <ns3:TrackPointExtension>
            <ns3:atemp>22.0</ns3:atemp>
          </ns3:TrackPointExtension>
        </extensions>
      </trkpt>
      <trkpt lat="42.5163081474602222442626953125" lon="19.766319729387760162353515625">
        <ele>1794.199951171875</ele>
        <time>2026-06-18T09:37:06.000Z</time>
        <extensions>
          <ns3:TrackPointExtension>
            <ns3:atemp>22.0</ns3:atemp>
          </ns3:TrackPointExtension>
        </extensions>
      </trkpt>
      <trkpt lat="42.5162903778254985809326171875" lon="19.76631604135036468505859375">
        <ele>1794.5999755859375</ele>
        <time>2026-06-18T09:37:07.000Z</time>
        <extensions>
          <ns3:TrackPointExtension>
            <ns3:atemp>22.0</ns3:atemp>
          </ns3:TrackPointExtension>
        </extensions>
      </trkpt>
      <trkpt lat="42.51627604477107524871826171875" lon="19.766309671103954315185546875">
        <ele>1795.199951171875</ele>
        <time>2026-06-18T09:37:08.000Z</time>
        <extensions>
          <ns3:TrackPointExtension>
            <ns3:atemp>22.0</ns3:atemp>
          </ns3:TrackPointExtension>
        </extensions>
      </trkpt>
      <trkpt lat="42.51626330427825450897216796875" lon="19.76630271412432193756103515625">
        <ele>1795.5999755859375</ele>
        <time>2026-06-18T09:37:09.000Z</time>
        <extensions>
          <ns3:TrackPointExtension>
            <ns3:atemp>22.0</ns3:atemp>
          </ns3:TrackPointExtension>
        </extensions>
      </trkpt>
      <trkpt lat="42.5162481330335140228271484375" lon="19.76629382930696010589599609375">
        <ele>1795.800048828125</ele>
        <time>2026-06-18T09:37:10.000Z</time>
        <extensions>
          <ns3:TrackPointExtension>
            <ns3:atemp>22.0</ns3:atemp>
          </ns3:TrackPointExtension>
        </extensions>
      </trkpt>
      <trkpt lat="42.51623145304620265960693359375" lon="19.7662867046892642974853515625">
        <ele>1796.199951171875</ele>
        <time>2026-06-18T09:37:11.000Z</time>
        <extensions>
          <ns3:TrackPointExtension>
            <ns3:atemp>22.0</ns3:atemp>
          </ns3:TrackPointExtension>
        </extensions>
      </trkpt>
      <trkpt lat="42.51621435396373271942138671875" lon="19.76628259755671024322509765625">
        <ele>1796.5999755859375</ele>
        <time>2026-06-18T09:37:12.000Z</time>
        <extensions>
          <ns3:TrackPointExtension>
            <ns3:atemp>22.0</ns3:atemp>
          </ns3:TrackPointExtension>
        </extensions>
      </trkpt>
      <trkpt lat="42.51619960181415081024169921875" lon="19.766275472939014434814453125">
        <ele>1796.800048828125</ele>
        <time>2026-06-18T09:37:13.000Z</time>
        <extensions>
          <ns3:TrackPointExtension>
            <ns3:atemp>22.0</ns3:atemp>
          </ns3:TrackPointExtension>
        </extensions>
      </trkpt>
      <trkpt lat="42.5161851011216640472412109375" lon="19.7662670910358428955078125">
        <ele>1797.199951171875</ele>
        <time>2026-06-18T09:37:14.000Z</time>
        <extensions>
          <ns3:TrackPointExtension>
            <ns3:atemp>22.0</ns3:atemp>
          </ns3:TrackPointExtension>
        </extensions>
      </trkpt>
      <trkpt lat="42.51617780886590480804443359375" lon="19.76626013405621051788330078125">
        <ele>1797.4000244140625</ele>
        <time>2026-06-18T09:37:15.000Z</time>
        <extensions>
          <ns3:TrackPointExtension>
            <ns3:atemp>22.0</ns3:atemp>
          </ns3:TrackPointExtension>
        </extensions>
      </trkpt>
      <trkpt lat="42.51617412082850933074951171875" lon="19.766254015266895294189453125">
        <ele>1797.800048828125</ele>
        <time>2026-06-18T09:37:16.000Z</time>
        <extensions>
          <ns3:TrackPointExtension>
            <ns3:atemp>22.0</ns3:atemp>
          </ns3:TrackPointExtension>
        </extensions>
      </trkpt>
      <trkpt lat="42.51617412082850933074951171875" lon="19.76625393144786357879638671875">
        <ele>1798.199951171875</ele>
        <time>2026-06-18T09:37:17.000Z</time>
        <extensions>
          <ns3:TrackPointExtension>
            <ns3:atemp>22.0</ns3:atemp>
          </ns3:TrackPointExtension>
        </extensions>
      </trkpt>
      <trkpt lat="42.5161740370094776153564453125" lon="19.7662538476288318634033203125">
        <ele>1798.4000244140625</ele>
        <time>2026-06-18T09:37:18.000Z</time>
        <extensions>
          <ns3:TrackPointExtension>
            <ns3:atemp>22.0</ns3:atemp>
          </ns3:TrackPointExtension>
        </extensions>
      </trkpt>
      <trkpt lat="42.5161653198301792144775390625" lon="19.7662491537630558013916015625">
        <ele>1798.5999755859375</ele>
        <time>2026-06-18T09:37:19.000Z</time>
        <extensions>
          <ns3:TrackPointExtension>
            <ns3:atemp>22.0</ns3:atemp>
          </ns3:TrackPointExtension>
        </extensions>
      </trkpt>
      <trkpt lat="42.51616255380213260650634765625" lon="19.766246639192104339599609375">
        <ele>1798.5999755859375</ele>
        <time>2026-06-18T09:37:20.000Z</time>
        <extensions>
          <ns3:TrackPointExtension>
            <ns3:atemp>22.0</ns3:atemp>
          </ns3:TrackPointExtension>
        </extensions>
      </trkpt>
      <trkpt lat="42.5161532498896121978759765625" lon="19.76624772883951663970947265625">
        <ele>1798.5999755859375</ele>
        <time>2026-06-18T09:37:21.000Z</time>
        <extensions>
          <ns3:TrackPointExtension>
            <ns3:atemp>22.0</ns3:atemp>
          </ns3:TrackPointExtension>
        </extensions>
      </trkpt>
      <trkpt lat="42.516142018139362335205078125" lon="19.76625191979110240936279296875">
        <ele>1798.4000244140625</ele>
        <time>2026-06-18T09:37:22.000Z</time>
        <extensions>
          <ns3:TrackPointExtension>
            <ns3:atemp>22.0</ns3:atemp>
          </ns3:TrackPointExtension>
        </extensions>
      </trkpt>
      <trkpt lat="42.51612869091331958770751953125" lon="19.76625527255237102508544921875">
        <ele>1798.5999755859375</ele>
        <time>2026-06-18T09:37:23.000Z</time>
        <extensions>
          <ns3:TrackPointExtension>
            <ns3:atemp>22.0</ns3:atemp>
          </ns3:TrackPointExtension>
        </extensions>
      </trkpt>
      <trkpt lat="42.51611955463886260986328125" lon="19.7662582062184810638427734375">
        <ele>1798.800048828125</ele>
        <time>2026-06-18T09:37:24.000Z</time>
        <extensions>
          <ns3:TrackPointExtension>
            <ns3:atemp>22.0</ns3:atemp>
          </ns3:TrackPointExtension>
        </extensions>
      </trkpt>
      <trkpt lat="42.51611947081983089447021484375" lon="19.76625761948525905609130859375">
        <ele>1799</ele>
        <time>2026-06-18T09:37:25.000Z</time>
        <extensions>
          <ns3:TrackPointExtension>
            <ns3:atemp>22.0</ns3:atemp>
          </ns3:TrackPointExtension>
        </extensions>
      </trkpt>
      <trkpt lat="42.5161193870007991790771484375" lon="19.76625761948525905609130859375">
        <ele>1799.199951171875</ele>
        <time>2026-06-18T09:37:26.000Z</time>
        <extensions>
          <ns3:TrackPointExtension>
            <ns3:atemp>22.0</ns3:atemp>
          </ns3:TrackPointExtension>
        </extensions>
      </trkpt>
      <trkpt lat="42.5161193870007991790771484375" lon="19.76625761948525905609130859375">
        <ele>1799.4000244140625</ele>
        <time>2026-06-18T09:37:27.000Z</time>
        <extensions>
          <ns3:TrackPointExtension>
            <ns3:atemp>22.0</ns3:atemp>
          </ns3:TrackPointExtension>
        </extensions>
      </trkpt>
      <trkpt lat="42.5161193870007991790771484375" lon="19.76625761948525905609130859375">
        <ele>1799.5999755859375</ele>
        <time>2026-06-18T09:37:28.000Z</time>
        <extensions>
          <ns3:TrackPointExtension>
            <ns3:atemp>22.0</ns3:atemp>
          </ns3:TrackPointExtension>
        </extensions>
      </trkpt>
      <trkpt lat="42.5161193870007991790771484375" lon="19.76625761948525905609130859375">
        <ele>1799.800048828125</ele>
        <time>2026-06-18T09:37:29.000Z</time>
        <extensions>
          <ns3:TrackPointExtension>
            <ns3:atemp>22.0</ns3:atemp>
          </ns3:TrackPointExtension>
        </extensions>
      </trkpt>
      <trkpt lat="42.5161193870007991790771484375" lon="19.76625761948525905609130859375">
        <ele>1799.800048828125</ele>
        <time>2026-06-18T09:37:30.000Z</time>
        <extensions>
          <ns3:TrackPointExtension>
            <ns3:atemp>22.0</ns3:atemp>
          </ns3:TrackPointExtension>
        </extensions>
      </trkpt>
      <trkpt lat="42.5161193870007991790771484375" lon="19.76625761948525905609130859375">
        <ele>1800</ele>
        <time>2026-06-18T09:37:31.000Z</time>
        <extensions>
          <ns3:TrackPointExtension>
            <ns3:atemp>22.0</ns3:atemp>
          </ns3:TrackPointExtension>
        </extensions>
      </trkpt>
      <trkpt lat="42.5161193870007991790771484375" lon="19.76625761948525905609130859375">
        <ele>1800</ele>
        <time>2026-06-18T09:37:32.000Z</time>
        <extensions>
          <ns3:TrackPointExtension>
            <ns3:atemp>22.0</ns3:atemp>
          </ns3:TrackPointExtension>
        </extensions>
      </trkpt>
      <trkpt lat="42.5161193870007991790771484375" lon="19.76625761948525905609130859375">
        <ele>1800</ele>
        <time>2026-06-18T09:37:33.000Z</time>
        <extensions>
          <ns3:TrackPointExtension>
            <ns3:atemp>22.0</ns3:atemp>
          </ns3:TrackPointExtension>
        </extensions>
      </trkpt>
      <trkpt lat="42.5161193870007991790771484375" lon="19.76625761948525905609130859375">
        <ele>1800</ele>
        <time>2026-06-18T09:37:34.000Z</time>
        <extensions>
          <ns3:TrackPointExtension>
            <ns3:atemp>22.0</ns3:atemp>
          </ns3:TrackPointExtension>
        </extensions>
      </trkpt>
      <trkpt lat="42.5161193870007991790771484375" lon="19.76625761948525905609130859375">
        <ele>1800</ele>
        <time>2026-06-18T09:37:35.000Z</time>
        <extensions>
          <ns3:TrackPointExtension>
            <ns3:atemp>22.0</ns3:atemp>
          </ns3:TrackPointExtension>
        </extensions>
      </trkpt>
      <trkpt lat="42.5161193870007991790771484375" lon="19.76625761948525905609130859375">
        <ele>1799.800048828125</ele>
        <time>2026-06-18T09:37:36.000Z</time>
        <extensions>
          <ns3:TrackPointExtension>
            <ns3:atemp>22.0</ns3:atemp>
          </ns3:TrackPointExtension>
        </extensions>
      </trkpt>
      <trkpt lat="42.5161193870007991790771484375" lon="19.76625761948525905609130859375">
        <ele>1799.800048828125</ele>
        <time>2026-06-18T09:37:37.000Z</time>
        <extensions>
          <ns3:TrackPointExtension>
            <ns3:atemp>22.0</ns3:atemp>
          </ns3:TrackPointExtension>
        </extensions>
      </trkpt>
      <trkpt lat="42.5161193870007991790771484375" lon="19.76625761948525905609130859375">
        <ele>1799.5999755859375</ele>
        <time>2026-06-18T09:37:38.000Z</time>
        <extensions>
          <ns3:TrackPointExtension>
            <ns3:atemp>22.0</ns3:atemp>
          </ns3:TrackPointExtension>
        </extensions>
      </trkpt>
      <trkpt lat="42.5161193870007991790771484375" lon="19.76625761948525905609130859375">
        <ele>1799.5999755859375</ele>
        <time>2026-06-18T09:37:39.000Z</time>
        <extensions>
          <ns3:TrackPointExtension>
            <ns3:atemp>22.0</ns3:atemp>
          </ns3:TrackPointExtension>
        </extensions>
      </trkpt>
      <trkpt lat="42.5161193870007991790771484375" lon="19.76625761948525905609130859375">
        <ele>1799.5999755859375</ele>
        <time>2026-06-18T09:37:40.000Z</time>
        <extensions>
          <ns3:TrackPointExtension>
            <ns3:atemp>22.0</ns3:atemp>
          </ns3:TrackPointExtension>
        </extensions>
      </trkpt>
      <trkpt lat="42.5161193870007991790771484375" lon="19.76625761948525905609130859375">
        <ele>1799.4000244140625</ele>
        <time>2026-06-18T09:37:41.000Z</time>
        <extensions>
          <ns3:TrackPointExtension>
            <ns3:atemp>22.0</ns3:atemp>
          </ns3:TrackPointExtension>
        </extensions>
      </trkpt>
      <trkpt lat="42.5161193870007991790771484375" lon="19.76625761948525905609130859375">
        <ele>1799.4000244140625</ele>
        <time>2026-06-18T09:37:42.000Z</time>
        <extensions>
          <ns3:TrackPointExtension>
            <ns3:atemp>22.0</ns3:atemp>
          </ns3:TrackPointExtension>
        </extensions>
      </trkpt>
      <trkpt lat="42.5161193870007991790771484375" lon="19.76625761948525905609130859375">
        <ele>1799.4000244140625</ele>
        <time>2026-06-18T09:37:43.000Z</time>
        <extensions>
          <ns3:TrackPointExtension>
            <ns3:atemp>22.0</ns3:atemp>
          </ns3:TrackPointExtension>
        </extensions>
      </trkpt>
      <trkpt lat="42.5161193870007991790771484375" lon="19.76625761948525905609130859375">
        <ele>1799.4000244140625</ele>
        <time>2026-06-18T09:37:44.000Z</time>
        <extensions>
          <ns3:TrackPointExtension>
            <ns3:atemp>22.0</ns3:atemp>
          </ns3:TrackPointExtension>
        </extensions>
      </trkpt>
      <trkpt lat="42.5161193870007991790771484375" lon="19.76625761948525905609130859375">
        <ele>1799.5999755859375</ele>
        <time>2026-06-18T09:37:45.000Z</time>
        <extensions>
          <ns3:TrackPointExtension>
            <ns3:atemp>22.0</ns3:atemp>
          </ns3:TrackPointExtension>
        </extensions>
      </trkpt>
      <trkpt lat="42.5161193870007991790771484375" lon="19.76625761948525905609130859375">
        <ele>1799.5999755859375</ele>
        <time>2026-06-18T09:37:46.000Z</time>
        <extensions>
          <ns3:TrackPointExtension>
            <ns3:atemp>22.0</ns3:atemp>
          </ns3:TrackPointExtension>
        </extensions>
      </trkpt>
      <trkpt lat="42.51611888408660888671875" lon="19.7662585414946079254150390625">
        <ele>1799.5999755859375</ele>
        <time>2026-06-18T09:37:47.000Z</time>
        <extensions>
          <ns3:TrackPointExtension>
            <ns3:atemp>22.0</ns3:atemp>
          </ns3:TrackPointExtension>
        </extensions>
      </trkpt>
      <trkpt lat="42.51611125655472278594970703125" lon="19.7662712819874286651611328125">
        <ele>1799.5999755859375</ele>
        <time>2026-06-18T09:37:48.000Z</time>
        <extensions>
          <ns3:TrackPointExtension>
            <ns3:atemp>22.0</ns3:atemp>
          </ns3:TrackPointExtension>
        </extensions>
      </trkpt>
      <trkpt lat="42.5161073170602321624755859375" lon="19.7662779875099658966064453125">
        <ele>1799.5999755859375</ele>
        <time>2026-06-18T09:37:49.000Z</time>
        <extensions>
          <ns3:TrackPointExtension>
            <ns3:atemp>22.0</ns3:atemp>
          </ns3:TrackPointExtension>
        </extensions>
      </trkpt>
      <trkpt lat="42.51610304228961467742919921875" lon="19.7662818431854248046875">
        <ele>1799.800048828125</ele>
        <time>2026-06-18T09:37:50.000Z</time>
        <extensions>
          <ns3:TrackPointExtension>
            <ns3:atemp>22.0</ns3:atemp>
          </ns3:TrackPointExtension>
        </extensions>
      </trkpt>
      <trkpt lat="42.51609734259545803070068359375" lon="19.76628427393734455108642578125">
        <ele>1799.800048828125</ele>
        <time>2026-06-18T09:37:51.000Z</time>
        <extensions>
          <ns3:TrackPointExtension>
            <ns3:atemp>22.0</ns3:atemp>
          </ns3:TrackPointExtension>
        </extensions>
      </trkpt>
      <trkpt lat="42.516100108623504638671875" lon="19.76628385484218597412109375">
        <ele>1799.800048828125</ele>
        <time>2026-06-18T09:37:52.000Z</time>
        <extensions>
          <ns3:TrackPointExtension>
            <ns3:atemp>22.0</ns3:atemp>
          </ns3:TrackPointExtension>
        </extensions>
      </trkpt>
      <trkpt lat="42.516100108623504638671875" lon="19.76628393866121768951416015625">
        <ele>1799.800048828125</ele>
        <time>2026-06-18T09:37:53.000Z</time>
        <extensions>
          <ns3:TrackPointExtension>
            <ns3:atemp>22.0</ns3:atemp>
          </ns3:TrackPointExtension>
        </extensions>
      </trkpt>
      <trkpt lat="42.516100108623504638671875" lon="19.76628393866121768951416015625">
        <ele>1799.800048828125</ele>
        <time>2026-06-18T09:37:54.000Z</time>
        <extensions>
          <ns3:TrackPointExtension>
            <ns3:atemp>22.0</ns3:atemp>
          </ns3:TrackPointExtension>
        </extensions>
      </trkpt>
      <trkpt lat="42.516100108623504638671875" lon="19.76628393866121768951416015625">
        <ele>1800</ele>
        <time>2026-06-18T09:37:55.000Z</time>
        <extensions>
          <ns3:TrackPointExtension>
            <ns3:atemp>22.0</ns3:atemp>
          </ns3:TrackPointExtension>
        </extensions>
      </trkpt>
      <trkpt lat="42.51610002480447292327880859375" lon="19.7662840224802494049072265625">
        <ele>1800</ele>
        <time>2026-06-18T09:37:56.000Z</time>
        <extensions>
          <ns3:TrackPointExtension>
            <ns3:atemp>22.0</ns3:atemp>
          </ns3:TrackPointExtension>
        </extensions>
      </trkpt>
      <trkpt lat="42.5160905532538890838623046875" lon="19.7662867046892642974853515625">
        <ele>1800.199951171875</ele>
        <time>2026-06-18T09:37:57.000Z</time>
        <extensions>
          <ns3:TrackPointExtension>
            <ns3:atemp>22.0</ns3:atemp>
          </ns3:TrackPointExtension>
        </extensions>
      </trkpt>
      <trkpt lat="42.51608376391232013702392578125" lon="19.7662853635847568511962890625">
        <ele>1800.199951171875</ele>
        <time>2026-06-18T09:37:58.000Z</time>
        <extensions>
          <ns3:TrackPointExtension>
            <ns3:atemp>22.0</ns3:atemp>
          </ns3:TrackPointExtension>
        </extensions>
      </trkpt>
      <trkpt lat="42.5160701014101505279541015625" lon="19.76628578267991542816162109375">
        <ele>1800.4000244140625</ele>
        <time>2026-06-18T09:37:59.000Z</time>
        <extensions>
          <ns3:TrackPointExtension>
            <ns3:atemp>22.0</ns3:atemp>
          </ns3:TrackPointExtension>
        </extensions>
      </trkpt>
      <trkpt lat="42.516062557697296142578125" lon="19.76628863252699375152587890625">
        <ele>1800.4000244140625</ele>
        <time>2026-06-18T09:38:00.000Z</time>
        <extensions>
          <ns3:TrackPointExtension>
            <ns3:atemp>22.0</ns3:atemp>
          </ns3:TrackPointExtension>
        </extensions>
      </trkpt>
      <trkpt lat="42.5160566903650760650634765625" lon="19.76628662087023258209228515625">
        <ele>1800.5999755859375</ele>
        <time>2026-06-18T09:38:01.000Z</time>
        <extensions>
          <ns3:TrackPointExtension>
            <ns3:atemp>22.0</ns3:atemp>
          </ns3:TrackPointExtension>
        </extensions>
      </trkpt>
      <trkpt lat="42.51605652272701263427734375" lon="19.76628662087023258209228515625">
        <ele>1800.5999755859375</ele>
        <time>2026-06-18T09:38:02.000Z</time>
        <extensions>
          <ns3:TrackPointExtension>
            <ns3:atemp>22.0</ns3:atemp>
          </ns3:TrackPointExtension>
        </extensions>
      </trkpt>
      <trkpt lat="42.51605652272701263427734375" lon="19.76628662087023258209228515625">
        <ele>1800.800048828125</ele>
        <time>2026-06-18T09:38:03.000Z</time>
        <extensions>
          <ns3:TrackPointExtension>
            <ns3:atemp>22.0</ns3:atemp>
          </ns3:TrackPointExtension>
        </extensions>
      </trkpt>
      <trkpt lat="42.516056187450885772705078125" lon="19.76628662087023258209228515625">
        <ele>1801</ele>
        <time>2026-06-18T09:38:04.000Z</time>
        <extensions>
          <ns3:TrackPointExtension>
            <ns3:atemp>22.0</ns3:atemp>
          </ns3:TrackPointExtension>
        </extensions>
      </trkpt>
      <trkpt lat="42.5160439498722553253173828125" lon="19.766290895640850067138671875">
        <ele>1801.199951171875</ele>
        <time>2026-06-18T09:38:05.000Z</time>
        <extensions>
          <ns3:TrackPointExtension>
            <ns3:atemp>22.0</ns3:atemp>
          </ns3:TrackPointExtension>
        </extensions>
      </trkpt>
      <trkpt lat="42.51603917218744754791259765625" lon="19.76629818789660930633544921875">
        <ele>1801.4000244140625</ele>
        <time>2026-06-18T09:38:06.000Z</time>
        <extensions>
          <ns3:TrackPointExtension>
            <ns3:atemp>22.0</ns3:atemp>
          </ns3:TrackPointExtension>
        </extensions>
      </trkpt>
      <trkpt lat="42.516033388674259185791015625" lon="19.76630263030529022216796875">
        <ele>1801.5999755859375</ele>
        <time>2026-06-18T09:38:07.000Z</time>
        <extensions>
          <ns3:TrackPointExtension>
            <ns3:atemp>22.0</ns3:atemp>
          </ns3:TrackPointExtension>
        </extensions>
      </trkpt>
      <trkpt lat="42.5160315446555614471435546875" lon="19.7663024626672267913818359375">
        <ele>1801.800048828125</ele>
        <time>2026-06-18T09:38:08.000Z</time>
        <extensions>
          <ns3:TrackPointExtension>
            <ns3:atemp>22.0</ns3:atemp>
          </ns3:TrackPointExtension>
        </extensions>
      </trkpt>
      <trkpt lat="42.5160315446555614471435546875" lon="19.7663024626672267913818359375">
        <ele>1802</ele>
        <time>2026-06-18T09:38:09.000Z</time>
        <extensions>
          <ns3:TrackPointExtension>
            <ns3:atemp>22.0</ns3:atemp>
          </ns3:TrackPointExtension>
        </extensions>
      </trkpt>
      <trkpt lat="42.5160315446555614471435546875" lon="19.7663024626672267913818359375">
        <ele>1802</ele>
        <time>2026-06-18T09:38:10.000Z</time>
        <extensions>
          <ns3:TrackPointExtension>
            <ns3:atemp>22.0</ns3:atemp>
          </ns3:TrackPointExtension>
        </extensions>
      </trkpt>
      <trkpt lat="42.5160315446555614471435546875" lon="19.7663024626672267913818359375">
        <ele>1802.199951171875</ele>
        <time>2026-06-18T09:38:11.000Z</time>
        <extensions>
          <ns3:TrackPointExtension>
            <ns3:atemp>22.0</ns3:atemp>
          </ns3:TrackPointExtension>
        </extensions>
      </trkpt>
      <trkpt lat="42.5160315446555614471435546875" lon="19.7663024626672267913818359375">
        <ele>1802.199951171875</ele>
        <time>2026-06-18T09:38:12.000Z</time>
        <extensions>
          <ns3:TrackPointExtension>
            <ns3:atemp>22.0</ns3:atemp>
          </ns3:TrackPointExtension>
        </extensions>
      </trkpt>
      <trkpt lat="42.5160315446555614471435546875" lon="19.7663024626672267913818359375">
        <ele>1802.199951171875</ele>
        <time>2026-06-18T09:38:13.000Z</time>
        <extensions>
          <ns3:TrackPointExtension>
            <ns3:atemp>22.0</ns3:atemp>
          </ns3:TrackPointExtension>
        </extensions>
      </trkpt>
      <trkpt lat="42.5160315446555614471435546875" lon="19.7663024626672267913818359375">
        <ele>1802.4000244140625</ele>
        <time>2026-06-18T09:38:14.000Z</time>
        <extensions>
          <ns3:TrackPointExtension>
            <ns3:atemp>22.0</ns3:atemp>
          </ns3:TrackPointExtension>
        </extensions>
      </trkpt>
      <trkpt lat="42.5160315446555614471435546875" lon="19.7663024626672267913818359375">
        <ele>1802.199951171875</ele>
        <time>2026-06-18T09:38:15.000Z</time>
        <extensions>
          <ns3:TrackPointExtension>
            <ns3:atemp>22.0</ns3:atemp>
          </ns3:TrackPointExtension>
        </extensions>
      </trkpt>
      <trkpt lat="42.5160315446555614471435546875" lon="19.7663024626672267913818359375">
        <ele>1802.199951171875</ele>
        <time>2026-06-18T09:38:16.000Z</time>
        <extensions>
          <ns3:TrackPointExtension>
            <ns3:atemp>22.0</ns3:atemp>
          </ns3:TrackPointExtension>
        </extensions>
      </trkpt>
      <trkpt lat="42.5160315446555614471435546875" lon="19.7663024626672267913818359375">
        <ele>1802.199951171875</ele>
        <time>2026-06-18T09:38:17.000Z</time>
        <extensions>
          <ns3:TrackPointExtension>
            <ns3:atemp>22.0</ns3:atemp>
          </ns3:TrackPointExtension>
        </extensions>
      </trkpt>
      <trkpt lat="42.51603179611265659332275390625" lon="19.76630288176238536834716796875">
        <ele>1802.199951171875</ele>
        <time>2026-06-18T09:38:18.000Z</time>
        <extensions>
          <ns3:TrackPointExtension>
            <ns3:atemp>22.0</ns3:atemp>
          </ns3:TrackPointExtension>
        </extensions>
      </trkpt>
      <trkpt lat="42.51602827571332454681396484375" lon="19.766309000551700592041015625">
        <ele>1802.199951171875</ele>
        <time>2026-06-18T09:38:19.000Z</time>
        <extensions>
          <ns3:TrackPointExtension>
            <ns3:atemp>22.0</ns3:atemp>
          </ns3:TrackPointExtension>
        </extensions>
      </trkpt>
      <trkpt lat="42.5160224922001361846923828125" lon="19.76631226949393749237060546875">
        <ele>1802.199951171875</ele>
        <time>2026-06-18T09:38:20.000Z</time>
        <extensions>
          <ns3:TrackPointExtension>
            <ns3:atemp>22.0</ns3:atemp>
          </ns3:TrackPointExtension>
        </extensions>
      </trkpt>
      <trkpt lat="42.5160198099911212921142578125" lon="19.766314029693603515625">
        <ele>1802.4000244140625</ele>
        <time>2026-06-18T09:38:21.000Z</time>
        <extensions>
          <ns3:TrackPointExtension>
            <ns3:atemp>22.0</ns3:atemp>
          </ns3:TrackPointExtension>
        </extensions>
      </trkpt>
      <trkpt lat="42.516018636524677276611328125" lon="19.7663125209510326385498046875">
        <ele>1802.4000244140625</ele>
        <time>2026-06-18T09:38:22.000Z</time>
        <extensions>
          <ns3:TrackPointExtension>
            <ns3:atemp>22.0</ns3:atemp>
          </ns3:TrackPointExtension>
        </extensions>
      </trkpt>
      <trkpt lat="42.516016624867916107177734375" lon="19.76631335914134979248046875">
        <ele>1802.4000244140625</ele>
        <time>2026-06-18T09:38:23.000Z</time>
        <extensions>
          <ns3:TrackPointExtension>
            <ns3:atemp>22.0</ns3:atemp>
          </ns3:TrackPointExtension>
        </extensions>
      </trkpt>
      <trkpt lat="42.51601654104888439178466796875" lon="19.76631335914134979248046875">
        <ele>1802.4000244140625</ele>
        <time>2026-06-18T09:38:24.000Z</time>
        <extensions>
          <ns3:TrackPointExtension>
            <ns3:atemp>22.0</ns3:atemp>
          </ns3:TrackPointExtension>
        </extensions>
      </trkpt>
      <trkpt lat="42.51601654104888439178466796875" lon="19.76631335914134979248046875">
        <ele>1802.5999755859375</ele>
        <time>2026-06-18T09:38:25.000Z</time>
        <extensions>
          <ns3:TrackPointExtension>
            <ns3:atemp>22.0</ns3:atemp>
          </ns3:TrackPointExtension>
        </extensions>
      </trkpt>
      <trkpt lat="42.51601654104888439178466796875" lon="19.76631335914134979248046875">
        <ele>1802.5999755859375</ele>
        <time>2026-06-18T09:38:26.000Z</time>
        <extensions>
          <ns3:TrackPointExtension>
            <ns3:atemp>22.0</ns3:atemp>
          </ns3:TrackPointExtension>
        </extensions>
      </trkpt>
      <trkpt lat="42.51601654104888439178466796875" lon="19.76631335914134979248046875">
        <ele>1802.5999755859375</ele>
        <time>2026-06-18T09:38:27.000Z</time>
        <extensions>
          <ns3:TrackPointExtension>
            <ns3:atemp>22.0</ns3:atemp>
          </ns3:TrackPointExtension>
        </extensions>
      </trkpt>
      <trkpt lat="42.51601654104888439178466796875" lon="19.76631335914134979248046875">
        <ele>1802.5999755859375</ele>
        <time>2026-06-18T09:38:28.000Z</time>
        <extensions>
          <ns3:TrackPointExtension>
            <ns3:atemp>22.0</ns3:atemp>
          </ns3:TrackPointExtension>
        </extensions>
      </trkpt>
      <trkpt lat="42.51601654104888439178466796875" lon="19.76631335914134979248046875">
        <ele>1802.5999755859375</ele>
        <time>2026-06-18T09:38:29.000Z</time>
        <extensions>
          <ns3:TrackPointExtension>
            <ns3:atemp>22.0</ns3:atemp>
          </ns3:TrackPointExtension>
        </extensions>
      </trkpt>
      <trkpt lat="42.51601587049663066864013671875" lon="19.7663131915032863616943359375">
        <ele>1802.5999755859375</ele>
        <time>2026-06-18T09:38:30.000Z</time>
        <extensions>
          <ns3:TrackPointExtension>
            <ns3:atemp>22.0</ns3:atemp>
          </ns3:TrackPointExtension>
        </extensions>
      </trkpt>
      <trkpt lat="42.51600514166057109832763671875" lon="19.7663095034658908843994140625">
        <ele>1802.5999755859375</ele>
        <time>2026-06-18T09:38:31.000Z</time>
        <extensions>
          <ns3:TrackPointExtension>
            <ns3:atemp>22.0</ns3:atemp>
          </ns3:TrackPointExtension>
        </extensions>
      </trkpt>
      <trkpt lat="42.5160010345280170440673828125" lon="19.7663021273910999298095703125">
        <ele>1802.800048828125</ele>
        <time>2026-06-18T09:38:32.000Z</time>
        <extensions>
          <ns3:TrackPointExtension>
            <ns3:atemp>22.0</ns3:atemp>
          </ns3:TrackPointExtension>
        </extensions>
      </trkpt>
      <trkpt lat="42.515995502471923828125" lon="19.76629651151597499847412109375">
        <ele>1803</ele>
        <time>2026-06-18T09:38:33.000Z</time>
        <extensions>
          <ns3:TrackPointExtension>
            <ns3:atemp>22.0</ns3:atemp>
          </ns3:TrackPointExtension>
        </extensions>
      </trkpt>
      <trkpt lat="42.5159919820725917816162109375" lon="19.76629190146923065185546875">
        <ele>1803</ele>
        <time>2026-06-18T09:38:34.000Z</time>
        <extensions>
          <ns3:TrackPointExtension>
            <ns3:atemp>22.0</ns3:atemp>
          </ns3:TrackPointExtension>
        </extensions>
      </trkpt>
      <trkpt lat="42.5159889645874500274658203125" lon="19.76629064418375492095947265625">
        <ele>1803.199951171875</ele>
        <time>2026-06-18T09:38:35.000Z</time>
        <extensions>
          <ns3:TrackPointExtension>
            <ns3:atemp>22.0</ns3:atemp>
          </ns3:TrackPointExtension>
        </extensions>
      </trkpt>
      <trkpt lat="42.51598904840648174285888671875" lon="19.76628846488893032073974609375">
        <ele>1803.4000244140625</ele>
        <time>2026-06-18T09:38:36.000Z</time>
        <extensions>
          <ns3:TrackPointExtension>
            <ns3:atemp>22.0</ns3:atemp>
          </ns3:TrackPointExtension>
        </extensions>
      </trkpt>
      <trkpt lat="42.51598946750164031982421875" lon="19.76628653705120086669921875">
        <ele>1803.5999755859375</ele>
        <time>2026-06-18T09:38:37.000Z</time>
        <extensions>
          <ns3:TrackPointExtension>
            <ns3:atemp>22.0</ns3:atemp>
          </ns3:TrackPointExtension>
        </extensions>
      </trkpt>
      <trkpt lat="42.51598821021616458892822265625" lon="19.76628192700445652008056640625">
        <ele>1803.800048828125</ele>
        <time>2026-06-18T09:38:38.000Z</time>
        <extensions>
          <ns3:TrackPointExtension>
            <ns3:atemp>22.0</ns3:atemp>
          </ns3:TrackPointExtension>
        </extensions>
      </trkpt>
      <trkpt lat="42.515985779464244842529296875" lon="19.76627388037741184234619140625">
        <ele>1804</ele>
        <time>2026-06-18T09:38:39.000Z</time>
        <extensions>
          <ns3:TrackPointExtension>
            <ns3:atemp>22.0</ns3:atemp>
          </ns3:TrackPointExtension>
        </extensions>
      </trkpt>
      <trkpt lat="42.5159822590649127960205078125" lon="19.766268767416477203369140625">
        <ele>1804.199951171875</ele>
        <time>2026-06-18T09:38:40.000Z</time>
        <extensions>
          <ns3:TrackPointExtension>
            <ns3:atemp>22.0</ns3:atemp>
          </ns3:TrackPointExtension>
        </extensions>
      </trkpt>
      <trkpt lat="42.51597940921783447265625" lon="19.766268096864223480224609375">
        <ele>1804.4000244140625</ele>
        <time>2026-06-18T09:38:41.000Z</time>
        <extensions>
          <ns3:TrackPointExtension>
            <ns3:atemp>22.0</ns3:atemp>
          </ns3:TrackPointExtension>
        </extensions>
      </trkpt>
      <trkpt lat="42.51597873866558074951171875" lon="19.76626516319811344146728515625">
        <ele>1804.5999755859375</ele>
        <time>2026-06-18T09:38:42.000Z</time>
        <extensions>
          <ns3:TrackPointExtension>
            <ns3:atemp>22.0</ns3:atemp>
          </ns3:TrackPointExtension>
        </extensions>
      </trkpt>
      <trkpt lat="42.51597546972334384918212890625" lon="19.76626600138843059539794921875">
        <ele>1804.800048828125</ele>
        <time>2026-06-18T09:38:43.000Z</time>
        <extensions>
          <ns3:TrackPointExtension>
            <ns3:atemp>22.0</ns3:atemp>
          </ns3:TrackPointExtension>
        </extensions>
      </trkpt>
      <trkpt lat="42.51596960239112377166748046875" lon="19.76626952178776264190673828125">
        <ele>1805</ele>
        <time>2026-06-18T09:38:44.000Z</time>
        <extensions>
          <ns3:TrackPointExtension>
            <ns3:atemp>22.0</ns3:atemp>
          </ns3:TrackPointExtension>
        </extensions>
      </trkpt>
      <trkpt lat="42.51596323214471340179443359375" lon="19.766274802386760711669921875">
        <ele>1805</ele>
        <time>2026-06-18T09:38:45.000Z</time>
        <extensions>
          <ns3:TrackPointExtension>
            <ns3:atemp>22.0</ns3:atemp>
          </ns3:TrackPointExtension>
        </extensions>
      </trkpt>
      <trkpt lat="42.51595501787960529327392578125" lon="19.7662806697189807891845703125">
        <ele>1805.199951171875</ele>
        <time>2026-06-18T09:38:46.000Z</time>
        <extensions>
          <ns3:TrackPointExtension>
            <ns3:atemp>22.0</ns3:atemp>
          </ns3:TrackPointExtension>
        </extensions>
      </trkpt>
      <trkpt lat="42.51595183275640010833740234375" lon="19.76628678850829601287841796875">
        <ele>1805.4000244140625</ele>
        <time>2026-06-18T09:38:47.000Z</time>
        <extensions>
          <ns3:TrackPointExtension>
            <ns3:atemp>22.0</ns3:atemp>
          </ns3:TrackPointExtension>
        </extensions>
      </trkpt>
      <trkpt lat="42.51595132984220981597900390625" lon="19.766290225088596343994140625">
        <ele>1805.4000244140625</ele>
        <time>2026-06-18T09:38:48.000Z</time>
        <extensions>
          <ns3:TrackPointExtension>
            <ns3:atemp>22.0</ns3:atemp>
          </ns3:TrackPointExtension>
        </extensions>
      </trkpt>
      <trkpt lat="42.5159494020044803619384765625" lon="19.76629198528826236724853515625">
        <ele>1805.5999755859375</ele>
        <time>2026-06-18T09:38:49.000Z</time>
        <extensions>
          <ns3:TrackPointExtension>
            <ns3:atemp>22.0</ns3:atemp>
          </ns3:TrackPointExtension>
        </extensions>
      </trkpt>
      <trkpt lat="42.51594655215740203857421875" lon="19.76630137301981449127197265625">
        <ele>1805.5999755859375</ele>
        <time>2026-06-18T09:38:50.000Z</time>
        <extensions>
          <ns3:TrackPointExtension>
            <ns3:atemp>22.0</ns3:atemp>
          </ns3:TrackPointExtension>
        </extensions>
      </trkpt>
      <trkpt lat="42.5159437023103237152099609375" lon="19.7663100063800811767578125">
        <ele>1805.5999755859375</ele>
        <time>2026-06-18T09:38:51.000Z</time>
        <extensions>
          <ns3:TrackPointExtension>
            <ns3:atemp>22.0</ns3:atemp>
          </ns3:TrackPointExtension>
        </extensions>
      </trkpt>
      <trkpt lat="42.5159433670341968536376953125" lon="19.76631394587457180023193359375">
        <ele>1805.5999755859375</ele>
        <time>2026-06-18T09:38:52.000Z</time>
        <extensions>
          <ns3:TrackPointExtension>
            <ns3:atemp>22.0</ns3:atemp>
          </ns3:TrackPointExtension>
        </extensions>
      </trkpt>
      <trkpt lat="42.51594479195773601531982421875" lon="19.76631595753133296966552734375">
        <ele>1805.4000244140625</ele>
        <time>2026-06-18T09:38:53.000Z</time>
        <extensions>
          <ns3:TrackPointExtension>
            <ns3:atemp>22.0</ns3:atemp>
          </ns3:TrackPointExtension>
        </extensions>
      </trkpt>
      <trkpt lat="42.51594529487192630767822265625" lon="19.76632517762482166290283203125">
        <ele>1805.4000244140625</ele>
        <time>2026-06-18T09:38:54.000Z</time>
        <extensions>
          <ns3:TrackPointExtension>
            <ns3:atemp>22.0</ns3:atemp>
          </ns3:TrackPointExtension>
        </extensions>
      </trkpt>
      <trkpt lat="42.51594479195773601531982421875" lon="19.766333140432834625244140625">
        <ele>1805.4000244140625</ele>
        <time>2026-06-18T09:38:55.000Z</time>
        <extensions>
          <ns3:TrackPointExtension>
            <ns3:atemp>22.0</ns3:atemp>
          </ns3:TrackPointExtension>
        </extensions>
      </trkpt>
      <trkpt lat="42.51594563014805316925048828125" lon="19.76633540354669094085693359375">
        <ele>1805.5999755859375</ele>
        <time>2026-06-18T09:38:56.000Z</time>
        <extensions>
          <ns3:TrackPointExtension>
            <ns3:atemp>22.0</ns3:atemp>
          </ns3:TrackPointExtension>
        </extensions>
      </trkpt>
      <trkpt lat="42.51594563014805316925048828125" lon="19.76633540354669094085693359375">
        <ele>1805.5999755859375</ele>
        <time>2026-06-18T09:38:57.000Z</time>
        <extensions>
          <ns3:TrackPointExtension>
            <ns3:atemp>22.0</ns3:atemp>
          </ns3:TrackPointExtension>
        </extensions>
      </trkpt>
      <trkpt lat="42.51594563014805316925048828125" lon="19.76633540354669094085693359375">
        <ele>1805.800048828125</ele>
        <time>2026-06-18T09:38:58.000Z</time>
        <extensions>
          <ns3:TrackPointExtension>
            <ns3:atemp>22.0</ns3:atemp>
          </ns3:TrackPointExtension>
        </extensions>
      </trkpt>
      <trkpt lat="42.51594563014805316925048828125" lon="19.76633540354669094085693359375">
        <ele>1806</ele>
        <time>2026-06-18T09:38:59.000Z</time>
        <extensions>
          <ns3:TrackPointExtension>
            <ns3:atemp>22.0</ns3:atemp>
          </ns3:TrackPointExtension>
        </extensions>
      </trkpt>
      <trkpt lat="42.51594563014805316925048828125" lon="19.76633540354669094085693359375">
        <ele>1806</ele>
        <time>2026-06-18T09:39:00.000Z</time>
        <extensions>
          <ns3:TrackPointExtension>
            <ns3:atemp>22.0</ns3:atemp>
          </ns3:TrackPointExtension>
        </extensions>
      </trkpt>
      <trkpt lat="42.51594563014805316925048828125" lon="19.76633540354669094085693359375">
        <ele>1806.199951171875</ele>
        <time>2026-06-18T09:39:01.000Z</time>
        <extensions>
          <ns3:TrackPointExtension>
            <ns3:atemp>22.0</ns3:atemp>
          </ns3:TrackPointExtension>
        </extensions>
      </trkpt>
      <trkpt lat="42.51594563014805316925048828125" lon="19.76633540354669094085693359375">
        <ele>1806.199951171875</ele>
        <time>2026-06-18T09:39:02.000Z</time>
        <extensions>
          <ns3:TrackPointExtension>
            <ns3:atemp>22.0</ns3:atemp>
          </ns3:TrackPointExtension>
        </extensions>
      </trkpt>
      <trkpt lat="42.51594563014805316925048828125" lon="19.76633540354669094085693359375">
        <ele>1806.4000244140625</ele>
        <time>2026-06-18T09:39:03.000Z</time>
        <extensions>
          <ns3:TrackPointExtension>
            <ns3:atemp>22.0</ns3:atemp>
          </ns3:TrackPointExtension>
        </extensions>
      </trkpt>
      <trkpt lat="42.51594563014805316925048828125" lon="19.76633540354669094085693359375">
        <ele>1806.4000244140625</ele>
        <time>2026-06-18T09:39:04.000Z</time>
        <extensions>
          <ns3:TrackPointExtension>
            <ns3:atemp>22.0</ns3:atemp>
          </ns3:TrackPointExtension>
        </extensions>
      </trkpt>
      <trkpt lat="42.51594563014805316925048828125" lon="19.76633540354669094085693359375">
        <ele>1806.4000244140625</ele>
        <time>2026-06-18T09:39:05.000Z</time>
        <extensions>
          <ns3:TrackPointExtension>
            <ns3:atemp>22.0</ns3:atemp>
          </ns3:TrackPointExtension>
        </extensions>
      </trkpt>
      <trkpt lat="42.51594563014805316925048828125" lon="19.76633540354669094085693359375">
        <ele>1806.4000244140625</ele>
        <time>2026-06-18T09:39:06.000Z</time>
        <extensions>
          <ns3:TrackPointExtension>
            <ns3:atemp>22.0</ns3:atemp>
          </ns3:TrackPointExtension>
        </extensions>
      </trkpt>
      <trkpt lat="42.51594563014805316925048828125" lon="19.76633540354669094085693359375">
        <ele>1806.5999755859375</ele>
        <time>2026-06-18T09:39:07.000Z</time>
        <extensions>
          <ns3:TrackPointExtension>
            <ns3:atemp>22.0</ns3:atemp>
          </ns3:TrackPointExtension>
        </extensions>
      </trkpt>
      <trkpt lat="42.51594563014805316925048828125" lon="19.76633540354669094085693359375">
        <ele>1806.5999755859375</ele>
        <time>2026-06-18T09:39:08.000Z</time>
        <extensions>
          <ns3:TrackPointExtension>
            <ns3:atemp>22.0</ns3:atemp>
          </ns3:TrackPointExtension>
        </extensions>
      </trkpt>
      <trkpt lat="42.51594563014805316925048828125" lon="19.76633540354669094085693359375">
        <ele>1806.5999755859375</ele>
        <time>2026-06-18T09:39:09.000Z</time>
        <extensions>
          <ns3:TrackPointExtension>
            <ns3:atemp>22.0</ns3:atemp>
          </ns3:TrackPointExtension>
        </extensions>
      </trkpt>
      <trkpt lat="42.51594563014805316925048828125" lon="19.76633540354669094085693359375">
        <ele>1806.5999755859375</ele>
        <time>2026-06-18T09:39:10.000Z</time>
        <extensions>
          <ns3:TrackPointExtension>
            <ns3:atemp>22.0</ns3:atemp>
          </ns3:TrackPointExtension>
        </extensions>
      </trkpt>
      <trkpt lat="42.51594563014805316925048828125" lon="19.76633540354669094085693359375">
        <ele>1806.5999755859375</ele>
        <time>2026-06-18T09:39:11.000Z</time>
        <extensions>
          <ns3:TrackPointExtension>
            <ns3:atemp>22.0</ns3:atemp>
          </ns3:TrackPointExtension>
        </extensions>
      </trkpt>
      <trkpt lat="42.51594563014805316925048828125" lon="19.76633540354669094085693359375">
        <ele>1806.5999755859375</ele>
        <time>2026-06-18T09:39:12.000Z</time>
        <extensions>
          <ns3:TrackPointExtension>
            <ns3:atemp>22.0</ns3:atemp>
          </ns3:TrackPointExtension>
        </extensions>
      </trkpt>
      <trkpt lat="42.51594563014805316925048828125" lon="19.76633540354669094085693359375">
        <ele>1806.5999755859375</ele>
        <time>2026-06-18T09:39:13.000Z</time>
        <extensions>
          <ns3:TrackPointExtension>
            <ns3:atemp>22.0</ns3:atemp>
          </ns3:TrackPointExtension>
        </extensions>
      </trkpt>
      <trkpt lat="42.51594563014805316925048828125" lon="19.76633540354669094085693359375">
        <ele>1806.5999755859375</ele>
        <time>2026-06-18T09:39:14.000Z</time>
        <extensions>
          <ns3:TrackPointExtension>
            <ns3:atemp>22.0</ns3:atemp>
          </ns3:TrackPointExtension>
        </extensions>
      </trkpt>
      <trkpt lat="42.51594563014805316925048828125" lon="19.76633540354669094085693359375">
        <ele>1806.5999755859375</ele>
        <time>2026-06-18T09:39:15.000Z</time>
        <extensions>
          <ns3:TrackPointExtension>
            <ns3:atemp>22.0</ns3:atemp>
          </ns3:TrackPointExtension>
        </extensions>
      </trkpt>
      <trkpt lat="42.51594563014805316925048828125" lon="19.76633540354669094085693359375">
        <ele>1806.5999755859375</ele>
        <time>2026-06-18T09:39:16.000Z</time>
        <extensions>
          <ns3:TrackPointExtension>
            <ns3:atemp>22.0</ns3:atemp>
          </ns3:TrackPointExtension>
        </extensions>
      </trkpt>
      <trkpt lat="42.51594563014805316925048828125" lon="19.76633540354669094085693359375">
        <ele>1806.4000244140625</ele>
        <time>2026-06-18T09:39:17.000Z</time>
        <extensions>
          <ns3:TrackPointExtension>
            <ns3:atemp>22.0</ns3:atemp>
          </ns3:TrackPointExtension>
        </extensions>
      </trkpt>
      <trkpt lat="42.51594563014805316925048828125" lon="19.76633540354669094085693359375">
        <ele>1806.4000244140625</ele>
        <time>2026-06-18T09:39:18.000Z</time>
        <extensions>
          <ns3:TrackPointExtension>
            <ns3:atemp>22.0</ns3:atemp>
          </ns3:TrackPointExtension>
        </extensions>
      </trkpt>
      <trkpt lat="42.51594563014805316925048828125" lon="19.76633540354669094085693359375">
        <ele>1806.4000244140625</ele>
        <time>2026-06-18T09:39:19.000Z</time>
        <extensions>
          <ns3:TrackPointExtension>
            <ns3:atemp>22.0</ns3:atemp>
          </ns3:TrackPointExtension>
        </extensions>
      </trkpt>
      <trkpt lat="42.51594563014805316925048828125" lon="19.76633540354669094085693359375">
        <ele>1806.199951171875</ele>
        <time>2026-06-18T09:39:20.000Z</time>
        <extensions>
          <ns3:TrackPointExtension>
            <ns3:atemp>22.0</ns3:atemp>
          </ns3:TrackPointExtension>
        </extensions>
      </trkpt>
      <trkpt lat="42.51594563014805316925048828125" lon="19.76633540354669094085693359375">
        <ele>1806.199951171875</ele>
        <time>2026-06-18T09:39:21.000Z</time>
        <extensions>
          <ns3:TrackPointExtension>
            <ns3:atemp>22.0</ns3:atemp>
          </ns3:TrackPointExtension>
        </extensions>
      </trkpt>
      <trkpt lat="42.51594546250998973846435546875" lon="19.7663383372128009796142578125">
        <ele>1806.4000244140625</ele>
        <time>2026-06-18T09:39:22.000Z</time>
        <extensions>
          <ns3:TrackPointExtension>
            <ns3:atemp>22.0</ns3:atemp>
          </ns3:TrackPointExtension>
        </extensions>
      </trkpt>
      <trkpt lat="42.51594646833837032318115234375" lon="19.7663651593029499053955078125">
        <ele>1806.4000244140625</ele>
        <time>2026-06-18T09:39:23.000Z</time>
        <extensions>
          <ns3:TrackPointExtension>
            <ns3:atemp>22.0</ns3:atemp>
          </ns3:TrackPointExtension>
        </extensions>
      </trkpt>
      <trkpt lat="42.51594495959579944610595703125" lon="19.7663690149784088134765625">
        <ele>1806.4000244140625</ele>
        <time>2026-06-18T09:39:24.000Z</time>
        <extensions>
          <ns3:TrackPointExtension>
            <ns3:atemp>22.0</ns3:atemp>
          </ns3:TrackPointExtension>
        </extensions>
      </trkpt>
      <trkpt lat="42.51594613306224346160888671875" lon="19.766374714672565460205078125">
        <ele>1806.5999755859375</ele>
        <time>2026-06-18T09:39:25.000Z</time>
        <extensions>
          <ns3:TrackPointExtension>
            <ns3:atemp>22.0</ns3:atemp>
          </ns3:TrackPointExtension>
        </extensions>
      </trkpt>
      <trkpt lat="42.5159500725567340850830078125" lon="19.76639072410762310028076171875">
        <ele>1806.800048828125</ele>
        <time>2026-06-18T09:39:26.000Z</time>
        <extensions>
          <ns3:TrackPointExtension>
            <ns3:atemp>22.0</ns3:atemp>
          </ns3:TrackPointExtension>
        </extensions>
      </trkpt>
      <trkpt lat="42.51595887355506420135498046875" lon="19.76641033776104450225830078125">
        <ele>1806.800048828125</ele>
        <time>2026-06-18T09:39:27.000Z</time>
        <extensions>
          <ns3:TrackPointExtension>
            <ns3:atemp>22.0</ns3:atemp>
          </ns3:TrackPointExtension>
        </extensions>
      </trkpt>
      <trkpt lat="42.515969015657901763916015625" lon="19.7664352320134639739990234375">
        <ele>1807</ele>
        <time>2026-06-18T09:39:28.000Z</time>
        <extensions>
          <ns3:TrackPointExtension>
            <ns3:atemp>22.0</ns3:atemp>
          </ns3:TrackPointExtension>
        </extensions>
      </trkpt>
      <trkpt lat="42.5159772299230098724365234375" lon="19.76646632887423038482666015625">
        <ele>1807.199951171875</ele>
        <time>2026-06-18T09:39:29.000Z</time>
        <extensions>
          <ns3:TrackPointExtension>
            <ns3:atemp>22.0</ns3:atemp>
          </ns3:TrackPointExtension>
        </extensions>
      </trkpt>
      <trkpt lat="42.515983767807483673095703125" lon="19.76649398915469646453857421875">
        <ele>1807.5999755859375</ele>
        <time>2026-06-18T09:39:30.000Z</time>
        <extensions>
          <ns3:TrackPointExtension>
            <ns3:atemp>22.0</ns3:atemp>
          </ns3:TrackPointExtension>
        </extensions>
      </trkpt>
      <trkpt lat="42.51599323935806751251220703125" lon="19.7665160335600376129150390625">
        <ele>1807.800048828125</ele>
        <time>2026-06-18T09:39:31.000Z</time>
        <extensions>
          <ns3:TrackPointExtension>
            <ns3:atemp>22.0</ns3:atemp>
          </ns3:TrackPointExtension>
        </extensions>
      </trkpt>
      <trkpt lat="42.51600597985088825225830078125" lon="19.766536653041839599609375">
        <ele>1808</ele>
        <time>2026-06-18T09:39:32.000Z</time>
        <extensions>
          <ns3:TrackPointExtension>
            <ns3:atemp>22.0</ns3:atemp>
          </ns3:TrackPointExtension>
        </extensions>
      </trkpt>
      <trkpt lat="42.51601637341082096099853515625" lon="19.76656104438006877899169921875">
        <ele>1808.199951171875</ele>
        <time>2026-06-18T09:39:33.000Z</time>
        <extensions>
          <ns3:TrackPointExtension>
            <ns3:atemp>22.0</ns3:atemp>
          </ns3:TrackPointExtension>
        </extensions>
      </trkpt>
      <trkpt lat="42.5160271860659122467041015625" lon="19.76658158004283905029296875">
        <ele>1808.4000244140625</ele>
        <time>2026-06-18T09:39:34.000Z</time>
        <extensions>
          <ns3:TrackPointExtension>
            <ns3:atemp>22.0</ns3:atemp>
          </ns3:TrackPointExtension>
        </extensions>
      </trkpt>
      <trkpt lat="42.516035400331020355224609375" lon="19.766605384647846221923828125">
        <ele>1808.4000244140625</ele>
        <time>2026-06-18T09:39:35.000Z</time>
        <extensions>
          <ns3:TrackPointExtension>
            <ns3:atemp>22.0</ns3:atemp>
          </ns3:TrackPointExtension>
        </extensions>
      </trkpt>
      <trkpt lat="42.51604042947292327880859375" lon="19.7666226513683795928955078125">
        <ele>1808.5999755859375</ele>
        <time>2026-06-18T09:39:36.000Z</time>
        <extensions>
          <ns3:TrackPointExtension>
            <ns3:atemp>22.0</ns3:atemp>
          </ns3:TrackPointExtension>
        </extensions>
      </trkpt>
      <trkpt lat="42.51604520715773105621337890625" lon="19.766636900603771209716796875">
        <ele>1808.5999755859375</ele>
        <time>2026-06-18T09:39:37.000Z</time>
        <extensions>
          <ns3:TrackPointExtension>
            <ns3:atemp>22.0</ns3:atemp>
          </ns3:TrackPointExtension>
        </extensions>
      </trkpt>
      <trkpt lat="42.51604923047125339508056640625" lon="19.76665391586720943450927734375">
        <ele>1808.800048828125</ele>
        <time>2026-06-18T09:39:38.000Z</time>
        <extensions>
          <ns3:TrackPointExtension>
            <ns3:atemp>22.0</ns3:atemp>
          </ns3:TrackPointExtension>
        </extensions>
      </trkpt>
      <trkpt lat="42.51605140976607799530029296875" lon="19.76666833274066448211669921875">
        <ele>1809</ele>
        <time>2026-06-18T09:39:39.000Z</time>
        <extensions>
          <ns3:TrackPointExtension>
            <ns3:atemp>22.0</ns3:atemp>
          </ns3:TrackPointExtension>
        </extensions>
      </trkpt>
      <trkpt lat="42.51605140976607799530029296875" lon="19.76666531525552272796630859375">
        <ele>1809.4000244140625</ele>
        <time>2026-06-18T09:39:40.000Z</time>
        <extensions>
          <ns3:TrackPointExtension>
            <ns3:atemp>22.0</ns3:atemp>
          </ns3:TrackPointExtension>
        </extensions>
      </trkpt>
      <trkpt lat="42.51605140976607799530029296875" lon="19.76666531525552272796630859375">
        <ele>1809.5999755859375</ele>
        <time>2026-06-18T09:39:41.000Z</time>
        <extensions>
          <ns3:TrackPointExtension>
            <ns3:atemp>22.0</ns3:atemp>
          </ns3:TrackPointExtension>
        </extensions>
      </trkpt>
      <trkpt lat="42.51605140976607799530029296875" lon="19.76666531525552272796630859375">
        <ele>1809.800048828125</ele>
        <time>2026-06-18T09:39:42.000Z</time>
        <extensions>
          <ns3:TrackPointExtension>
            <ns3:atemp>22.0</ns3:atemp>
          </ns3:TrackPointExtension>
        </extensions>
      </trkpt>
      <trkpt lat="42.51605140976607799530029296875" lon="19.76666531525552272796630859375">
        <ele>1810</ele>
        <time>2026-06-18T09:39:43.000Z</time>
        <extensions>
          <ns3:TrackPointExtension>
            <ns3:atemp>22.0</ns3:atemp>
          </ns3:TrackPointExtension>
        </extensions>
      </trkpt>
      <trkpt lat="42.51605140976607799530029296875" lon="19.76666531525552272796630859375">
        <ele>1810</ele>
        <time>2026-06-18T09:39:44.000Z</time>
        <extensions>
          <ns3:TrackPointExtension>
            <ns3:atemp>22.0</ns3:atemp>
          </ns3:TrackPointExtension>
        </extensions>
      </trkpt>
      <trkpt lat="42.51605140976607799530029296875" lon="19.76666531525552272796630859375">
        <ele>1810</ele>
        <time>2026-06-18T09:39:45.000Z</time>
        <extensions>
          <ns3:TrackPointExtension>
            <ns3:atemp>22.0</ns3:atemp>
          </ns3:TrackPointExtension>
        </extensions>
      </trkpt>
      <trkpt lat="42.5160516612231731414794921875" lon="19.76666514761745929718017578125">
        <ele>1810.199951171875</ele>
        <time>2026-06-18T09:39:46.000Z</time>
        <extensions>
          <ns3:TrackPointExtension>
            <ns3:atemp>22.0</ns3:atemp>
          </ns3:TrackPointExtension>
        </extensions>
      </trkpt>
      <trkpt lat="42.51605660654604434967041015625" lon="19.76668509654700756072998046875">
        <ele>1810.199951171875</ele>
        <time>2026-06-18T09:39:47.000Z</time>
        <extensions>
          <ns3:TrackPointExtension>
            <ns3:atemp>22.0</ns3:atemp>
          </ns3:TrackPointExtension>
        </extensions>
      </trkpt>
      <trkpt lat="42.5160613842308521270751953125" lon="19.7667069733142852783203125">
        <ele>1810.199951171875</ele>
        <time>2026-06-18T09:39:48.000Z</time>
        <extensions>
          <ns3:TrackPointExtension>
            <ns3:atemp>22.0</ns3:atemp>
          </ns3:TrackPointExtension>
        </extensions>
      </trkpt>
      <trkpt lat="42.51606993377208709716796875" lon="19.7667326219379901885986328125">
        <ele>1810.4000244140625</ele>
        <time>2026-06-18T09:39:49.000Z</time>
        <extensions>
          <ns3:TrackPointExtension>
            <ns3:atemp>22.0</ns3:atemp>
          </ns3:TrackPointExtension>
        </extensions>
      </trkpt>
      <trkpt lat="42.516081668436527252197265625" lon="19.76675550453364849090576171875">
        <ele>1810.5999755859375</ele>
        <time>2026-06-18T09:39:50.000Z</time>
        <extensions>
          <ns3:TrackPointExtension>
            <ns3:atemp>22.0</ns3:atemp>
          </ns3:TrackPointExtension>
        </extensions>
      </trkpt>
      <trkpt lat="42.51608979888260364532470703125" lon="19.7667731903493404388427734375">
        <ele>1811</ele>
        <time>2026-06-18T09:39:51.000Z</time>
        <extensions>
          <ns3:TrackPointExtension>
            <ns3:atemp>22.0</ns3:atemp>
          </ns3:TrackPointExtension>
        </extensions>
      </trkpt>
      <trkpt lat="42.51608862541615962982177734375" lon="19.76677629165351390838623046875">
        <ele>1811.4000244140625</ele>
        <time>2026-06-18T09:39:52.000Z</time>
        <extensions>
          <ns3:TrackPointExtension>
            <ns3:atemp>22.0</ns3:atemp>
          </ns3:TrackPointExtension>
        </extensions>
      </trkpt>
      <trkpt lat="42.51608870923519134521484375" lon="19.766776375472545623779296875">
        <ele>1812</ele>
        <time>2026-06-18T09:39:53.000Z</time>
        <extensions>
          <ns3:TrackPointExtension>
            <ns3:atemp>22.0</ns3:atemp>
          </ns3:TrackPointExtension>
        </extensions>
      </trkpt>
      <trkpt lat="42.51608870923519134521484375" lon="19.766776375472545623779296875">
        <ele>1812.4000244140625</ele>
        <time>2026-06-18T09:39:54.000Z</time>
        <extensions>
          <ns3:TrackPointExtension>
            <ns3:atemp>22.0</ns3:atemp>
          </ns3:TrackPointExtension>
        </extensions>
      </trkpt>
      <trkpt lat="42.51608870923519134521484375" lon="19.766776375472545623779296875">
        <ele>1812.5999755859375</ele>
        <time>2026-06-18T09:39:55.000Z</time>
        <extensions>
          <ns3:TrackPointExtension>
            <ns3:atemp>22.0</ns3:atemp>
          </ns3:TrackPointExtension>
        </extensions>
      </trkpt>
      <trkpt lat="42.51608912833034992218017578125" lon="19.76677712984383106231689453125">
        <ele>1812.800048828125</ele>
        <time>2026-06-18T09:39:56.000Z</time>
        <extensions>
          <ns3:TrackPointExtension>
            <ns3:atemp>22.0</ns3:atemp>
          </ns3:TrackPointExtension>
        </extensions>
      </trkpt>
      <trkpt lat="42.51610019244253635406494140625" lon="19.76681233383715152740478515625">
        <ele>1813</ele>
        <time>2026-06-18T09:39:57.000Z</time>
        <extensions>
          <ns3:TrackPointExtension>
            <ns3:atemp>22.0</ns3:atemp>
          </ns3:TrackPointExtension>
        </extensions>
      </trkpt>
      <trkpt lat="42.51610958017408847808837890625" lon="19.7668432630598545074462890625">
        <ele>1813</ele>
        <time>2026-06-18T09:39:58.000Z</time>
        <extensions>
          <ns3:TrackPointExtension>
            <ns3:atemp>22.0</ns3:atemp>
          </ns3:TrackPointExtension>
        </extensions>
      </trkpt>
      <trkpt lat="42.516116537153720855712890625" lon="19.76687452755868434906005859375">
        <ele>1813.199951171875</ele>
        <time>2026-06-18T09:39:59.000Z</time>
        <extensions>
          <ns3:TrackPointExtension>
            <ns3:atemp>22.0</ns3:atemp>
          </ns3:TrackPointExtension>
        </extensions>
      </trkpt>
      <trkpt lat="42.51612248830497264862060546875" lon="19.76691040210425853729248046875">
        <ele>1813.199951171875</ele>
        <time>2026-06-18T09:40:00.000Z</time>
        <extensions>
          <ns3:TrackPointExtension>
            <ns3:atemp>22.0</ns3:atemp>
          </ns3:TrackPointExtension>
        </extensions>
      </trkpt>
      <trkpt lat="42.516126595437526702880859375" lon="19.76694367825984954833984375">
        <ele>1813.199951171875</ele>
        <time>2026-06-18T09:40:01.000Z</time>
        <extensions>
          <ns3:TrackPointExtension>
            <ns3:atemp>22.0</ns3:atemp>
          </ns3:TrackPointExtension>
        </extensions>
      </trkpt>
      <trkpt lat="42.51612701453268527984619140625" lon="19.766972176730632781982421875">
        <ele>1813.4000244140625</ele>
        <time>2026-06-18T09:40:02.000Z</time>
        <extensions>
          <ns3:TrackPointExtension>
            <ns3:atemp>22.0</ns3:atemp>
          </ns3:TrackPointExtension>
        </extensions>
      </trkpt>
      <trkpt lat="42.51612634398043155670166015625" lon="19.7669971548020839691162109375">
        <ele>1813.800048828125</ele>
        <time>2026-06-18T09:40:03.000Z</time>
        <extensions>
          <ns3:TrackPointExtension>
            <ns3:atemp>22.0</ns3:atemp>
          </ns3:TrackPointExtension>
        </extensions>
      </trkpt>
      <trkpt lat="42.5161250866949558258056640625" lon="19.76702146232128143310546875">
        <ele>1814.199951171875</ele>
        <time>2026-06-18T09:40:04.000Z</time>
        <extensions>
          <ns3:TrackPointExtension>
            <ns3:atemp>22.0</ns3:atemp>
          </ns3:TrackPointExtension>
        </extensions>
      </trkpt>
      <trkpt lat="42.5161254219710826873779296875" lon="19.76704769767820835113525390625">
        <ele>1814.4000244140625</ele>
        <time>2026-06-18T09:40:05.000Z</time>
        <extensions>
          <ns3:TrackPointExtension>
            <ns3:atemp>22.0</ns3:atemp>
          </ns3:TrackPointExtension>
        </extensions>
      </trkpt>
      <trkpt lat="42.5161282718181610107421875" lon="19.76707150228321552276611328125">
        <ele>1815</ele>
        <time>2026-06-18T09:40:06.000Z</time>
        <extensions>
          <ns3:TrackPointExtension>
            <ns3:atemp>22.0</ns3:atemp>
          </ns3:TrackPointExtension>
        </extensions>
      </trkpt>
      <trkpt lat="42.51612894237041473388671875" lon="19.76709329523146152496337890625">
        <ele>1815.4000244140625</ele>
        <time>2026-06-18T09:40:07.000Z</time>
        <extensions>
          <ns3:TrackPointExtension>
            <ns3:atemp>22.0</ns3:atemp>
          </ns3:TrackPointExtension>
        </extensions>
      </trkpt>
      <trkpt lat="42.51612835563719272613525390625" lon="19.767117016017436981201171875">
        <ele>1815.800048828125</ele>
        <time>2026-06-18T09:40:08.000Z</time>
        <extensions>
          <ns3:TrackPointExtension>
            <ns3:atemp>22.0</ns3:atemp>
          </ns3:TrackPointExtension>
        </extensions>
      </trkpt>
      <trkpt lat="42.5161267630755901336669921875" lon="19.76713637821376323699951171875">
        <ele>1816</ele>
        <time>2026-06-18T09:40:09.000Z</time>
        <extensions>
          <ns3:TrackPointExtension>
            <ns3:atemp>22.0</ns3:atemp>
          </ns3:TrackPointExtension>
        </extensions>
      </trkpt>
      <trkpt lat="42.5161255896091461181640625" lon="19.7671577520668506622314453125">
        <ele>1816.4000244140625</ele>
        <time>2026-06-18T09:40:10.000Z</time>
        <extensions>
          <ns3:TrackPointExtension>
            <ns3:atemp>22.0</ns3:atemp>
          </ns3:TrackPointExtension>
        </extensions>
      </trkpt>
      <trkpt lat="42.51612449996173381805419921875" lon="19.7671795450150966644287109375">
        <ele>1816.5999755859375</ele>
        <time>2026-06-18T09:40:11.000Z</time>
        <extensions>
          <ns3:TrackPointExtension>
            <ns3:atemp>22.0</ns3:atemp>
          </ns3:TrackPointExtension>
        </extensions>
      </trkpt>
      <trkpt lat="42.51612131483852863311767578125" lon="19.767198152840137481689453125">
        <ele>1817</ele>
        <time>2026-06-18T09:40:12.000Z</time>
        <extensions>
          <ns3:TrackPointExtension>
            <ns3:atemp>22.0</ns3:atemp>
          </ns3:TrackPointExtension>
        </extensions>
      </trkpt>
      <trkpt lat="42.516116537153720855712890625" lon="19.7672127373516559600830078125">
        <ele>1817.199951171875</ele>
        <time>2026-06-18T09:40:13.000Z</time>
        <extensions>
          <ns3:TrackPointExtension>
            <ns3:atemp>22.0</ns3:atemp>
          </ns3:TrackPointExtension>
        </extensions>
      </trkpt>
      <trkpt lat="42.51611595042049884796142578125" lon="19.76722556166350841522216796875">
        <ele>1817.4000244140625</ele>
        <time>2026-06-18T09:40:14.000Z</time>
        <extensions>
          <ns3:TrackPointExtension>
            <ns3:atemp>22.0</ns3:atemp>
          </ns3:TrackPointExtension>
        </extensions>
      </trkpt>
      <trkpt lat="42.5161146931350231170654296875" lon="19.76724215783178806304931640625">
        <ele>1817.800048828125</ele>
        <time>2026-06-18T09:40:15.000Z</time>
        <extensions>
          <ns3:TrackPointExtension>
            <ns3:atemp>22.0</ns3:atemp>
          </ns3:TrackPointExtension>
        </extensions>
      </trkpt>
      <trkpt lat="42.51611175946891307830810546875" lon="19.767258167266845703125">
        <ele>1818</ele>
        <time>2026-06-18T09:40:16.000Z</time>
        <extensions>
          <ns3:TrackPointExtension>
            <ns3:atemp>22.0</ns3:atemp>
          </ns3:TrackPointExtension>
        </extensions>
      </trkpt>
      <trkpt lat="42.51610807143151760101318359375" lon="19.7672673873603343963623046875">
        <ele>1818.199951171875</ele>
        <time>2026-06-18T09:40:17.000Z</time>
        <extensions>
          <ns3:TrackPointExtension>
            <ns3:atemp>22.0</ns3:atemp>
          </ns3:TrackPointExtension>
        </extensions>
      </trkpt>
      <trkpt lat="42.51610656268894672393798828125" lon="19.76726897992193698883056640625">
        <ele>1818.5999755859375</ele>
        <time>2026-06-18T09:40:18.000Z</time>
        <extensions>
          <ns3:TrackPointExtension>
            <ns3:atemp>22.0</ns3:atemp>
          </ns3:TrackPointExtension>
        </extensions>
      </trkpt>
      <trkpt lat="42.51610656268894672393798828125" lon="19.7672688961029052734375">
        <ele>1818.800048828125</ele>
        <time>2026-06-18T09:40:19.000Z</time>
        <extensions>
          <ns3:TrackPointExtension>
            <ns3:atemp>22.0</ns3:atemp>
          </ns3:TrackPointExtension>
        </extensions>
      </trkpt>
      <trkpt lat="42.51610656268894672393798828125" lon="19.7672688961029052734375">
        <ele>1819</ele>
        <time>2026-06-18T09:40:20.000Z</time>
        <extensions>
          <ns3:TrackPointExtension>
            <ns3:atemp>22.0</ns3:atemp>
          </ns3:TrackPointExtension>
        </extensions>
      </trkpt>
      <trkpt lat="42.51610656268894672393798828125" lon="19.7672688961029052734375">
        <ele>1819</ele>
        <time>2026-06-18T09:40:21.000Z</time>
        <extensions>
          <ns3:TrackPointExtension>
            <ns3:atemp>22.0</ns3:atemp>
          </ns3:TrackPointExtension>
        </extensions>
      </trkpt>
      <trkpt lat="42.51610656268894672393798828125" lon="19.7672688961029052734375">
        <ele>1819.199951171875</ele>
        <time>2026-06-18T09:40:22.000Z</time>
        <extensions>
          <ns3:TrackPointExtension>
            <ns3:atemp>22.0</ns3:atemp>
          </ns3:TrackPointExtension>
        </extensions>
      </trkpt>
      <trkpt lat="42.51610656268894672393798828125" lon="19.7672688961029052734375">
        <ele>1819</ele>
        <time>2026-06-18T09:40:23.000Z</time>
        <extensions>
          <ns3:TrackPointExtension>
            <ns3:atemp>22.0</ns3:atemp>
          </ns3:TrackPointExtension>
        </extensions>
      </trkpt>
      <trkpt lat="42.51610689796507358551025390625" lon="19.76726881228387355804443359375">
        <ele>1819</ele>
        <time>2026-06-18T09:40:24.000Z</time>
        <extensions>
          <ns3:TrackPointExtension>
            <ns3:atemp>22.0</ns3:atemp>
          </ns3:TrackPointExtension>
        </extensions>
      </trkpt>
      <trkpt lat="42.51609901897609233856201171875" lon="19.76728473789989948272705078125">
        <ele>1819</ele>
        <time>2026-06-18T09:40:25.000Z</time>
        <extensions>
          <ns3:TrackPointExtension>
            <ns3:atemp>22.0</ns3:atemp>
          </ns3:TrackPointExtension>
        </extensions>
      </trkpt>
      <trkpt lat="42.51608426682651042938232421875" lon="19.767304100096225738525390625">
        <ele>1818.800048828125</ele>
        <time>2026-06-18T09:40:26.000Z</time>
        <extensions>
          <ns3:TrackPointExtension>
            <ns3:atemp>22.0</ns3:atemp>
          </ns3:TrackPointExtension>
        </extensions>
      </trkpt>
      <trkpt lat="42.51606515608727931976318359375" lon="19.76732279174029827117919921875">
        <ele>1818.800048828125</ele>
        <time>2026-06-18T09:40:27.000Z</time>
        <extensions>
          <ns3:TrackPointExtension>
            <ns3:atemp>22.0</ns3:atemp>
          </ns3:TrackPointExtension>
        </extensions>
      </trkpt>
      <trkpt lat="42.51604336313903331756591796875" lon="19.7673384658992290496826171875">
        <ele>1818.800048828125</ele>
        <time>2026-06-18T09:40:28.000Z</time>
        <extensions>
          <ns3:TrackPointExtension>
            <ns3:atemp>22.0</ns3:atemp>
          </ns3:TrackPointExtension>
        </extensions>
      </trkpt>
      <trkpt lat="42.5160255096852779388427734375" lon="19.76735548116266727447509765625">
        <ele>1818.800048828125</ele>
        <time>2026-06-18T09:40:29.000Z</time>
        <extensions>
          <ns3:TrackPointExtension>
            <ns3:atemp>22.0</ns3:atemp>
          </ns3:TrackPointExtension>
        </extensions>
      </trkpt>
      <trkpt lat="42.51600732095539569854736328125" lon="19.767369814217090606689453125">
        <ele>1819</ele>
        <time>2026-06-18T09:40:30.000Z</time>
        <extensions>
          <ns3:TrackPointExtension>
            <ns3:atemp>22.0</ns3:atemp>
          </ns3:TrackPointExtension>
        </extensions>
      </trkpt>
      <trkpt lat="42.51599139533936977386474609375" lon="19.7673847340047359466552734375">
        <ele>1819.199951171875</ele>
        <time>2026-06-18T09:40:31.000Z</time>
        <extensions>
          <ns3:TrackPointExtension>
            <ns3:atemp>22.0</ns3:atemp>
          </ns3:TrackPointExtension>
        </extensions>
      </trkpt>
      <trkpt lat="42.51597580499947071075439453125" lon="19.7673989832401275634765625">
        <ele>1819.4000244140625</ele>
        <time>2026-06-18T09:40:32.000Z</time>
        <extensions>
          <ns3:TrackPointExtension>
            <ns3:atemp>22.0</ns3:atemp>
          </ns3:TrackPointExtension>
        </extensions>
      </trkpt>
      <trkpt lat="42.5159601308405399322509765625" lon="19.76741231046617031097412109375">
        <ele>1819.5999755859375</ele>
        <time>2026-06-18T09:40:33.000Z</time>
        <extensions>
          <ns3:TrackPointExtension>
            <ns3:atemp>22.0</ns3:atemp>
          </ns3:TrackPointExtension>
        </extensions>
      </trkpt>
      <trkpt lat="42.51594722270965576171875" lon="19.76742572151124477386474609375">
        <ele>1819.800048828125</ele>
        <time>2026-06-18T09:40:34.000Z</time>
        <extensions>
          <ns3:TrackPointExtension>
            <ns3:atemp>22.0</ns3:atemp>
          </ns3:TrackPointExtension>
        </extensions>
      </trkpt>
      <trkpt lat="42.51593657769262790679931640625" lon="19.7674360312521457672119140625">
        <ele>1820.199951171875</ele>
        <time>2026-06-18T09:40:35.000Z</time>
        <extensions>
          <ns3:TrackPointExtension>
            <ns3:atemp>22.0</ns3:atemp>
          </ns3:TrackPointExtension>
        </extensions>
      </trkpt>
      <trkpt lat="42.5159242562949657440185546875" lon="19.76744365878403186798095703125">
        <ele>1820.4000244140625</ele>
        <time>2026-06-18T09:40:36.000Z</time>
        <extensions>
          <ns3:TrackPointExtension>
            <ns3:atemp>22.0</ns3:atemp>
          </ns3:TrackPointExtension>
        </extensions>
      </trkpt>
      <trkpt lat="42.5159111805260181427001953125" lon="19.7674521245062351226806640625">
        <ele>1820.5999755859375</ele>
        <time>2026-06-18T09:40:37.000Z</time>
        <extensions>
          <ns3:TrackPointExtension>
            <ns3:atemp>22.0</ns3:atemp>
          </ns3:TrackPointExtension>
        </extensions>
      </trkpt>
      <trkpt lat="42.515899278223514556884765625" lon="19.7674608416855335235595703125">
        <ele>1820.800048828125</ele>
        <time>2026-06-18T09:40:38.000Z</time>
        <extensions>
          <ns3:TrackPointExtension>
            <ns3:atemp>22.0</ns3:atemp>
          </ns3:TrackPointExtension>
        </extensions>
      </trkpt>
      <trkpt lat="42.5158893875777721405029296875" lon="19.767469055950641632080078125">
        <ele>1821</ele>
        <time>2026-06-18T09:40:39.000Z</time>
        <extensions>
          <ns3:TrackPointExtension>
            <ns3:atemp>22.0</ns3:atemp>
          </ns3:TrackPointExtension>
        </extensions>
      </trkpt>
      <trkpt lat="42.51588662154972553253173828125" lon="19.76746670901775360107421875">
        <ele>1821</ele>
        <time>2026-06-18T09:40:40.000Z</time>
        <extensions>
          <ns3:TrackPointExtension>
            <ns3:atemp>22.0</ns3:atemp>
          </ns3:TrackPointExtension>
        </extensions>
      </trkpt>
      <trkpt lat="42.51588662154972553253173828125" lon="19.76746670901775360107421875">
        <ele>1821.199951171875</ele>
        <time>2026-06-18T09:40:41.000Z</time>
        <extensions>
          <ns3:TrackPointExtension>
            <ns3:atemp>22.0</ns3:atemp>
          </ns3:TrackPointExtension>
        </extensions>
      </trkpt>
      <trkpt lat="42.51588662154972553253173828125" lon="19.76746670901775360107421875">
        <ele>1821.4000244140625</ele>
        <time>2026-06-18T09:40:42.000Z</time>
        <extensions>
          <ns3:TrackPointExtension>
            <ns3:atemp>22.0</ns3:atemp>
          </ns3:TrackPointExtension>
        </extensions>
      </trkpt>
      <trkpt lat="42.51588662154972553253173828125" lon="19.76746670901775360107421875">
        <ele>1821.5999755859375</ele>
        <time>2026-06-18T09:40:43.000Z</time>
        <extensions>
          <ns3:TrackPointExtension>
            <ns3:atemp>22.0</ns3:atemp>
          </ns3:TrackPointExtension>
        </extensions>
      </trkpt>
      <trkpt lat="42.51588662154972553253173828125" lon="19.76746670901775360107421875">
        <ele>1821.5999755859375</ele>
        <time>2026-06-18T09:40:44.000Z</time>
        <extensions>
          <ns3:TrackPointExtension>
            <ns3:atemp>22.0</ns3:atemp>
          </ns3:TrackPointExtension>
        </extensions>
      </trkpt>
      <trkpt lat="42.51588662154972553253173828125" lon="19.76746670901775360107421875">
        <ele>1821.5999755859375</ele>
        <time>2026-06-18T09:40:45.000Z</time>
        <extensions>
          <ns3:TrackPointExtension>
            <ns3:atemp>22.0</ns3:atemp>
          </ns3:TrackPointExtension>
        </extensions>
      </trkpt>
      <trkpt lat="42.51588662154972553253173828125" lon="19.76746670901775360107421875">
        <ele>1821.5999755859375</ele>
        <time>2026-06-18T09:40:46.000Z</time>
        <extensions>
          <ns3:TrackPointExtension>
            <ns3:atemp>22.0</ns3:atemp>
          </ns3:TrackPointExtension>
        </extensions>
      </trkpt>
      <trkpt lat="42.51588662154972553253173828125" lon="19.76746670901775360107421875">
        <ele>1821.5999755859375</ele>
        <time>2026-06-18T09:40:47.000Z</time>
        <extensions>
          <ns3:TrackPointExtension>
            <ns3:atemp>22.0</ns3:atemp>
          </ns3:TrackPointExtension>
        </extensions>
      </trkpt>
      <trkpt lat="42.51588662154972553253173828125" lon="19.76746670901775360107421875">
        <ele>1821.5999755859375</ele>
        <time>2026-06-18T09:40:48.000Z</time>
        <extensions>
          <ns3:TrackPointExtension>
            <ns3:atemp>22.0</ns3:atemp>
          </ns3:TrackPointExtension>
        </extensions>
      </trkpt>
      <trkpt lat="42.51588662154972553253173828125" lon="19.76746670901775360107421875">
        <ele>1821.4000244140625</ele>
        <time>2026-06-18T09:40:49.000Z</time>
        <extensions>
          <ns3:TrackPointExtension>
            <ns3:atemp>22.0</ns3:atemp>
          </ns3:TrackPointExtension>
        </extensions>
      </trkpt>
      <trkpt lat="42.51588662154972553253173828125" lon="19.76746670901775360107421875">
        <ele>1821.4000244140625</ele>
        <time>2026-06-18T09:40:50.000Z</time>
        <extensions>
          <ns3:TrackPointExtension>
            <ns3:atemp>22.0</ns3:atemp>
          </ns3:TrackPointExtension>
        </extensions>
      </trkpt>
      <trkpt lat="42.51588662154972553253173828125" lon="19.76746670901775360107421875">
        <ele>1821.4000244140625</ele>
        <time>2026-06-18T09:40:51.000Z</time>
        <extensions>
          <ns3:TrackPointExtension>
            <ns3:atemp>22.0</ns3:atemp>
          </ns3:TrackPointExtension>
        </extensions>
      </trkpt>
      <trkpt lat="42.51588662154972553253173828125" lon="19.76746670901775360107421875">
        <ele>1821.4000244140625</ele>
        <time>2026-06-18T09:40:52.000Z</time>
        <extensions>
          <ns3:TrackPointExtension>
            <ns3:atemp>22.0</ns3:atemp>
          </ns3:TrackPointExtension>
        </extensions>
      </trkpt>
      <trkpt lat="42.51588662154972553253173828125" lon="19.76746670901775360107421875">
        <ele>1821.4000244140625</ele>
        <time>2026-06-18T09:40:53.000Z</time>
        <extensions>
          <ns3:TrackPointExtension>
            <ns3:atemp>22.0</ns3:atemp>
          </ns3:TrackPointExtension>
        </extensions>
      </trkpt>
      <trkpt lat="42.51588662154972553253173828125" lon="19.76746670901775360107421875">
        <ele>1821.4000244140625</ele>
        <time>2026-06-18T09:40:54.000Z</time>
        <extensions>
          <ns3:TrackPointExtension>
            <ns3:atemp>22.0</ns3:atemp>
          </ns3:TrackPointExtension>
        </extensions>
      </trkpt>
      <trkpt lat="42.51588662154972553253173828125" lon="19.76746670901775360107421875">
        <ele>1821.4000244140625</ele>
        <time>2026-06-18T09:40:55.000Z</time>
        <extensions>
          <ns3:TrackPointExtension>
            <ns3:atemp>22.0</ns3:atemp>
          </ns3:TrackPointExtension>
        </extensions>
      </trkpt>
      <trkpt lat="42.51588662154972553253173828125" lon="19.76746670901775360107421875">
        <ele>1821.4000244140625</ele>
        <time>2026-06-18T09:40:56.000Z</time>
        <extensions>
          <ns3:TrackPointExtension>
            <ns3:atemp>22.0</ns3:atemp>
          </ns3:TrackPointExtension>
        </extensions>
      </trkpt>
      <trkpt lat="42.51588662154972553253173828125" lon="19.76746670901775360107421875">
        <ele>1821.4000244140625</ele>
        <time>2026-06-18T09:40:57.000Z</time>
        <extensions>
          <ns3:TrackPointExtension>
            <ns3:atemp>22.0</ns3:atemp>
          </ns3:TrackPointExtension>
        </extensions>
      </trkpt>
      <trkpt lat="42.51588662154972553253173828125" lon="19.76746670901775360107421875">
        <ele>1821.4000244140625</ele>
        <time>2026-06-18T09:40:58.000Z</time>
        <extensions>
          <ns3:TrackPointExtension>
            <ns3:atemp>22.0</ns3:atemp>
          </ns3:TrackPointExtension>
        </extensions>
      </trkpt>
      <trkpt lat="42.51588662154972553253173828125" lon="19.76746670901775360107421875">
        <ele>1821.4000244140625</ele>
        <time>2026-06-18T09:40:59.000Z</time>
        <extensions>
          <ns3:TrackPointExtension>
            <ns3:atemp>22.0</ns3:atemp>
          </ns3:TrackPointExtension>
        </extensions>
      </trkpt>
      <trkpt lat="42.51588662154972553253173828125" lon="19.76746670901775360107421875">
        <ele>1821.4000244140625</ele>
        <time>2026-06-18T09:41:00.000Z</time>
        <extensions>
          <ns3:TrackPointExtension>
            <ns3:atemp>22.0</ns3:atemp>
          </ns3:TrackPointExtension>
        </extensions>
      </trkpt>
      <trkpt lat="42.51588662154972553253173828125" lon="19.76746670901775360107421875">
        <ele>1821.4000244140625</ele>
        <time>2026-06-18T09:41:01.000Z</time>
        <extensions>
          <ns3:TrackPointExtension>
            <ns3:atemp>22.0</ns3:atemp>
          </ns3:TrackPointExtension>
        </extensions>
      </trkpt>
      <trkpt lat="42.51588662154972553253173828125" lon="19.76746670901775360107421875">
        <ele>1821.4000244140625</ele>
        <time>2026-06-18T09:41:02.000Z</time>
        <extensions>
          <ns3:TrackPointExtension>
            <ns3:atemp>22.0</ns3:atemp>
          </ns3:TrackPointExtension>
        </extensions>
      </trkpt>
      <trkpt lat="42.51588662154972553253173828125" lon="19.76746670901775360107421875">
        <ele>1821.4000244140625</ele>
        <time>2026-06-18T09:41:03.000Z</time>
        <extensions>
          <ns3:TrackPointExtension>
            <ns3:atemp>22.0</ns3:atemp>
          </ns3:TrackPointExtension>
        </extensions>
      </trkpt>
      <trkpt lat="42.51588662154972553253173828125" lon="19.76746670901775360107421875">
        <ele>1821.4000244140625</ele>
        <time>2026-06-18T09:41:04.000Z</time>
        <extensions>
          <ns3:TrackPointExtension>
            <ns3:atemp>22.0</ns3:atemp>
          </ns3:TrackPointExtension>
        </extensions>
      </trkpt>
      <trkpt lat="42.51588662154972553253173828125" lon="19.76746670901775360107421875">
        <ele>1821.4000244140625</ele>
        <time>2026-06-18T09:41:05.000Z</time>
        <extensions>
          <ns3:TrackPointExtension>
            <ns3:atemp>22.0</ns3:atemp>
          </ns3:TrackPointExtension>
        </extensions>
      </trkpt>
      <trkpt lat="42.51588662154972553253173828125" lon="19.76746670901775360107421875">
        <ele>1821.4000244140625</ele>
        <time>2026-06-18T09:41:06.000Z</time>
        <extensions>
          <ns3:TrackPointExtension>
            <ns3:atemp>22.0</ns3:atemp>
          </ns3:TrackPointExtension>
        </extensions>
      </trkpt>
      <trkpt lat="42.51588662154972553253173828125" lon="19.76746670901775360107421875">
        <ele>1821.199951171875</ele>
        <time>2026-06-18T09:41:07.000Z</time>
        <extensions>
          <ns3:TrackPointExtension>
            <ns3:atemp>22.0</ns3:atemp>
          </ns3:TrackPointExtension>
        </extensions>
      </trkpt>
      <trkpt lat="42.51588662154972553253173828125" lon="19.76746670901775360107421875">
        <ele>1821.199951171875</ele>
        <time>2026-06-18T09:41:08.000Z</time>
        <extensions>
          <ns3:TrackPointExtension>
            <ns3:atemp>22.0</ns3:atemp>
          </ns3:TrackPointExtension>
        </extensions>
      </trkpt>
      <trkpt lat="42.51588662154972553253173828125" lon="19.76746670901775360107421875">
        <ele>1821</ele>
        <time>2026-06-18T09:41:09.000Z</time>
        <extensions>
          <ns3:TrackPointExtension>
            <ns3:atemp>22.0</ns3:atemp>
          </ns3:TrackPointExtension>
        </extensions>
      </trkpt>
      <trkpt lat="42.51588662154972553253173828125" lon="19.76746670901775360107421875">
        <ele>1821</ele>
        <time>2026-06-18T09:41:10.000Z</time>
        <extensions>
          <ns3:TrackPointExtension>
            <ns3:atemp>22.0</ns3:atemp>
          </ns3:TrackPointExtension>
        </extensions>
      </trkpt>
      <trkpt lat="42.51588662154972553253173828125" lon="19.76746670901775360107421875">
        <ele>1821</ele>
        <time>2026-06-18T09:41:11.000Z</time>
        <extensions>
          <ns3:TrackPointExtension>
            <ns3:atemp>22.0</ns3:atemp>
          </ns3:TrackPointExtension>
        </extensions>
      </trkpt>
      <trkpt lat="42.51588662154972553253173828125" lon="19.76746670901775360107421875">
        <ele>1821</ele>
        <time>2026-06-18T09:41:12.000Z</time>
        <extensions>
          <ns3:TrackPointExtension>
            <ns3:atemp>22.0</ns3:atemp>
          </ns3:TrackPointExtension>
        </extensions>
      </trkpt>
      <trkpt lat="42.51588662154972553253173828125" lon="19.76746670901775360107421875">
        <ele>1821</ele>
        <time>2026-06-18T09:41:13.000Z</time>
        <extensions>
          <ns3:TrackPointExtension>
            <ns3:atemp>22.0</ns3:atemp>
          </ns3:TrackPointExtension>
        </extensions>
      </trkpt>
      <trkpt lat="42.51588662154972553253173828125" lon="19.76746670901775360107421875">
        <ele>1821</ele>
        <time>2026-06-18T09:41:14.000Z</time>
        <extensions>
          <ns3:TrackPointExtension>
            <ns3:atemp>22.0</ns3:atemp>
          </ns3:TrackPointExtension>
        </extensions>
      </trkpt>
      <trkpt lat="42.51588662154972553253173828125" lon="19.76746670901775360107421875">
        <ele>1821</ele>
        <time>2026-06-18T09:41:15.000Z</time>
        <extensions>
          <ns3:TrackPointExtension>
            <ns3:atemp>22.0</ns3:atemp>
          </ns3:TrackPointExtension>
        </extensions>
      </trkpt>
      <trkpt lat="42.51588662154972553253173828125" lon="19.76746670901775360107421875">
        <ele>1821</ele>
        <time>2026-06-18T09:41:16.000Z</time>
        <extensions>
          <ns3:TrackPointExtension>
            <ns3:atemp>22.0</ns3:atemp>
          </ns3:TrackPointExtension>
        </extensions>
      </trkpt>
      <trkpt lat="42.51588662154972553253173828125" lon="19.76746670901775360107421875">
        <ele>1821</ele>
        <time>2026-06-18T09:41:17.000Z</time>
        <extensions>
          <ns3:TrackPointExtension>
            <ns3:atemp>22.0</ns3:atemp>
          </ns3:TrackPointExtension>
        </extensions>
      </trkpt>
      <trkpt lat="42.51588662154972553253173828125" lon="19.76746670901775360107421875">
        <ele>1821</ele>
        <time>2026-06-18T09:41:18.000Z</time>
        <extensions>
          <ns3:TrackPointExtension>
            <ns3:atemp>22.0</ns3:atemp>
          </ns3:TrackPointExtension>
        </extensions>
      </trkpt>
      <trkpt lat="42.51588662154972553253173828125" lon="19.76746670901775360107421875">
        <ele>1821</ele>
        <time>2026-06-18T09:41:19.000Z</time>
        <extensions>
          <ns3:TrackPointExtension>
            <ns3:atemp>21.0</ns3:atemp>
          </ns3:TrackPointExtension>
        </extensions>
      </trkpt>
      <trkpt lat="42.51588662154972553253173828125" lon="19.76746670901775360107421875">
        <ele>1821</ele>
        <time>2026-06-18T09:41:20.000Z</time>
        <extensions>
          <ns3:TrackPointExtension>
            <ns3:atemp>21.0</ns3:atemp>
          </ns3:TrackPointExtension>
        </extensions>
      </trkpt>
      <trkpt lat="42.51588662154972553253173828125" lon="19.76746670901775360107421875">
        <ele>1821</ele>
        <time>2026-06-18T09:41:21.000Z</time>
        <extensions>
          <ns3:TrackPointExtension>
            <ns3:atemp>21.0</ns3:atemp>
          </ns3:TrackPointExtension>
        </extensions>
      </trkpt>
      <trkpt lat="42.51588662154972553253173828125" lon="19.76746670901775360107421875">
        <ele>1821</ele>
        <time>2026-06-18T09:41:22.000Z</time>
        <extensions>
          <ns3:TrackPointExtension>
            <ns3:atemp>21.0</ns3:atemp>
          </ns3:TrackPointExtension>
        </extensions>
      </trkpt>
      <trkpt lat="42.51588662154972553253173828125" lon="19.76746670901775360107421875">
        <ele>1821</ele>
        <time>2026-06-18T09:41:23.000Z</time>
        <extensions>
          <ns3:TrackPointExtension>
            <ns3:atemp>21.0</ns3:atemp>
          </ns3:TrackPointExtension>
        </extensions>
      </trkpt>
      <trkpt lat="42.51588662154972553253173828125" lon="19.76746670901775360107421875">
        <ele>1821</ele>
        <time>2026-06-18T09:41:24.000Z</time>
        <extensions>
          <ns3:TrackPointExtension>
            <ns3:atemp>21.0</ns3:atemp>
          </ns3:TrackPointExtension>
        </extensions>
      </trkpt>
      <trkpt lat="42.51588662154972553253173828125" lon="19.76746670901775360107421875">
        <ele>1821</ele>
        <time>2026-06-18T09:41:25.000Z</time>
        <extensions>
          <ns3:TrackPointExtension>
            <ns3:atemp>21.0</ns3:atemp>
          </ns3:TrackPointExtension>
        </extensions>
      </trkpt>
      <trkpt lat="42.51588662154972553253173828125" lon="19.76746670901775360107421875">
        <ele>1821</ele>
        <time>2026-06-18T09:41:26.000Z</time>
        <extensions>
          <ns3:TrackPointExtension>
            <ns3:atemp>21.0</ns3:atemp>
          </ns3:TrackPointExtension>
        </extensions>
      </trkpt>
      <trkpt lat="42.51588662154972553253173828125" lon="19.76746670901775360107421875">
        <ele>1821</ele>
        <time>2026-06-18T09:41:27.000Z</time>
        <extensions>
          <ns3:TrackPointExtension>
            <ns3:atemp>21.0</ns3:atemp>
          </ns3:TrackPointExtension>
        </extensions>
      </trkpt>
      <trkpt lat="42.51588662154972553253173828125" lon="19.76746670901775360107421875">
        <ele>1821</ele>
        <time>2026-06-18T09:41:28.000Z</time>
        <extensions>
          <ns3:TrackPointExtension>
            <ns3:atemp>21.0</ns3:atemp>
          </ns3:TrackPointExtension>
        </extensions>
      </trkpt>
      <trkpt lat="42.51588662154972553253173828125" lon="19.76746670901775360107421875">
        <ele>1821</ele>
        <time>2026-06-18T09:41:29.000Z</time>
        <extensions>
          <ns3:TrackPointExtension>
            <ns3:atemp>21.0</ns3:atemp>
          </ns3:TrackPointExtension>
        </extensions>
      </trkpt>
      <trkpt lat="42.51588662154972553253173828125" lon="19.76746670901775360107421875">
        <ele>1821</ele>
        <time>2026-06-18T09:41:30.000Z</time>
        <extensions>
          <ns3:TrackPointExtension>
            <ns3:atemp>21.0</ns3:atemp>
          </ns3:TrackPointExtension>
        </extensions>
      </trkpt>
      <trkpt lat="42.51588662154972553253173828125" lon="19.76746670901775360107421875">
        <ele>1821</ele>
        <time>2026-06-18T09:41:31.000Z</time>
        <extensions>
          <ns3:TrackPointExtension>
            <ns3:atemp>21.0</ns3:atemp>
          </ns3:TrackPointExtension>
        </extensions>
      </trkpt>
      <trkpt lat="42.51588662154972553253173828125" lon="19.76746670901775360107421875">
        <ele>1821</ele>
        <time>2026-06-18T09:41:32.000Z</time>
        <extensions>
          <ns3:TrackPointExtension>
            <ns3:atemp>21.0</ns3:atemp>
          </ns3:TrackPointExtension>
        </extensions>
      </trkpt>
      <trkpt lat="42.51588662154972553253173828125" lon="19.76746670901775360107421875">
        <ele>1821</ele>
        <time>2026-06-18T09:41:33.000Z</time>
        <extensions>
          <ns3:TrackPointExtension>
            <ns3:atemp>21.0</ns3:atemp>
          </ns3:TrackPointExtension>
        </extensions>
      </trkpt>
      <trkpt lat="42.51588662154972553253173828125" lon="19.76746670901775360107421875">
        <ele>1821</ele>
        <time>2026-06-18T09:41:34.000Z</time>
        <extensions>
          <ns3:TrackPointExtension>
            <ns3:atemp>21.0</ns3:atemp>
          </ns3:TrackPointExtension>
        </extensions>
      </trkpt>
      <trkpt lat="42.51588662154972553253173828125" lon="19.76746670901775360107421875">
        <ele>1821</ele>
        <time>2026-06-18T09:41:35.000Z</time>
        <extensions>
          <ns3:TrackPointExtension>
            <ns3:atemp>21.0</ns3:atemp>
          </ns3:TrackPointExtension>
        </extensions>
      </trkpt>
      <trkpt lat="42.51588662154972553253173828125" lon="19.76746670901775360107421875">
        <ele>1821</ele>
        <time>2026-06-18T09:41:36.000Z</time>
        <extensions>
          <ns3:TrackPointExtension>
            <ns3:atemp>21.0</ns3:atemp>
          </ns3:TrackPointExtension>
        </extensions>
      </trkpt>
      <trkpt lat="42.51588662154972553253173828125" lon="19.76746670901775360107421875">
        <ele>1821.199951171875</ele>
        <time>2026-06-18T09:41:37.000Z</time>
        <extensions>
          <ns3:TrackPointExtension>
            <ns3:atemp>21.0</ns3:atemp>
          </ns3:TrackPointExtension>
        </extensions>
      </trkpt>
      <trkpt lat="42.51588662154972553253173828125" lon="19.76746670901775360107421875">
        <ele>1821.199951171875</ele>
        <time>2026-06-18T09:41:38.000Z</time>
        <extensions>
          <ns3:TrackPointExtension>
            <ns3:atemp>21.0</ns3:atemp>
          </ns3:TrackPointExtension>
        </extensions>
      </trkpt>
      <trkpt lat="42.51588662154972553253173828125" lon="19.76746670901775360107421875">
        <ele>1821.199951171875</ele>
        <time>2026-06-18T09:41:39.000Z</time>
        <extensions>
          <ns3:TrackPointExtension>
            <ns3:atemp>21.0</ns3:atemp>
          </ns3:TrackPointExtension>
        </extensions>
      </trkpt>
      <trkpt lat="42.51588662154972553253173828125" lon="19.76746670901775360107421875">
        <ele>1821</ele>
        <time>2026-06-18T09:41:40.000Z</time>
        <extensions>
          <ns3:TrackPointExtension>
            <ns3:atemp>21.0</ns3:atemp>
          </ns3:TrackPointExtension>
        </extensions>
      </trkpt>
      <trkpt lat="42.51588662154972553253173828125" lon="19.76746670901775360107421875">
        <ele>1821</ele>
        <time>2026-06-18T09:41:41.000Z</time>
        <extensions>
          <ns3:TrackPointExtension>
            <ns3:atemp>21.0</ns3:atemp>
          </ns3:TrackPointExtension>
        </extensions>
      </trkpt>
      <trkpt lat="42.51588662154972553253173828125" lon="19.76746670901775360107421875">
        <ele>1821</ele>
        <time>2026-06-18T09:41:42.000Z</time>
        <extensions>
          <ns3:TrackPointExtension>
            <ns3:atemp>21.0</ns3:atemp>
          </ns3:TrackPointExtension>
        </extensions>
      </trkpt>
      <trkpt lat="42.51588662154972553253173828125" lon="19.76746670901775360107421875">
        <ele>1821</ele>
        <time>2026-06-18T09:41:43.000Z</time>
        <extensions>
          <ns3:TrackPointExtension>
            <ns3:atemp>21.0</ns3:atemp>
          </ns3:TrackPointExtension>
        </extensions>
      </trkpt>
      <trkpt lat="42.51588662154972553253173828125" lon="19.76746670901775360107421875">
        <ele>1821</ele>
        <time>2026-06-18T09:41:44.000Z</time>
        <extensions>
          <ns3:TrackPointExtension>
            <ns3:atemp>21.0</ns3:atemp>
          </ns3:TrackPointExtension>
        </extensions>
      </trkpt>
      <trkpt lat="42.51588662154972553253173828125" lon="19.76746670901775360107421875">
        <ele>1821</ele>
        <time>2026-06-18T09:41:45.000Z</time>
        <extensions>
          <ns3:TrackPointExtension>
            <ns3:atemp>21.0</ns3:atemp>
          </ns3:TrackPointExtension>
        </extensions>
      </trkpt>
      <trkpt lat="42.51588662154972553253173828125" lon="19.76746670901775360107421875">
        <ele>1821</ele>
        <time>2026-06-18T09:41:46.000Z</time>
        <extensions>
          <ns3:TrackPointExtension>
            <ns3:atemp>21.0</ns3:atemp>
          </ns3:TrackPointExtension>
        </extensions>
      </trkpt>
      <trkpt lat="42.51588662154972553253173828125" lon="19.76746670901775360107421875">
        <ele>1821</ele>
        <time>2026-06-18T09:41:47.000Z</time>
        <extensions>
          <ns3:TrackPointExtension>
            <ns3:atemp>21.0</ns3:atemp>
          </ns3:TrackPointExtension>
        </extensions>
      </trkpt>
      <trkpt lat="42.51588662154972553253173828125" lon="19.76746670901775360107421875">
        <ele>1821</ele>
        <time>2026-06-18T09:41:48.000Z</time>
        <extensions>
          <ns3:TrackPointExtension>
            <ns3:atemp>21.0</ns3:atemp>
          </ns3:TrackPointExtension>
        </extensions>
      </trkpt>
      <trkpt lat="42.51588662154972553253173828125" lon="19.76746670901775360107421875">
        <ele>1821</ele>
        <time>2026-06-18T09:41:49.000Z</time>
        <extensions>
          <ns3:TrackPointExtension>
            <ns3:atemp>21.0</ns3:atemp>
          </ns3:TrackPointExtension>
        </extensions>
      </trkpt>
      <trkpt lat="42.51588662154972553253173828125" lon="19.76746670901775360107421875">
        <ele>1821</ele>
        <time>2026-06-18T09:41:50.000Z</time>
        <extensions>
          <ns3:TrackPointExtension>
            <ns3:atemp>21.0</ns3:atemp>
          </ns3:TrackPointExtension>
        </extensions>
      </trkpt>
      <trkpt lat="42.51588662154972553253173828125" lon="19.76746670901775360107421875">
        <ele>1821</ele>
        <time>2026-06-18T09:41:51.000Z</time>
        <extensions>
          <ns3:TrackPointExtension>
            <ns3:atemp>21.0</ns3:atemp>
          </ns3:TrackPointExtension>
        </extensions>
      </trkpt>
      <trkpt lat="42.51588662154972553253173828125" lon="19.76746670901775360107421875">
        <ele>1821</ele>
        <time>2026-06-18T09:41:52.000Z</time>
        <extensions>
          <ns3:TrackPointExtension>
            <ns3:atemp>21.0</ns3:atemp>
          </ns3:TrackPointExtension>
        </extensions>
      </trkpt>
      <trkpt lat="42.51588662154972553253173828125" lon="19.76746670901775360107421875">
        <ele>1821</ele>
        <time>2026-06-18T09:41:53.000Z</time>
        <extensions>
          <ns3:TrackPointExtension>
            <ns3:atemp>21.0</ns3:atemp>
          </ns3:TrackPointExtension>
        </extensions>
      </trkpt>
      <trkpt lat="42.51588662154972553253173828125" lon="19.76746670901775360107421875">
        <ele>1821</ele>
        <time>2026-06-18T09:41:54.000Z</time>
        <extensions>
          <ns3:TrackPointExtension>
            <ns3:atemp>21.0</ns3:atemp>
          </ns3:TrackPointExtension>
        </extensions>
      </trkpt>
      <trkpt lat="42.51588662154972553253173828125" lon="19.76746670901775360107421875">
        <ele>1820.800048828125</ele>
        <time>2026-06-18T09:41:55.000Z</time>
        <extensions>
          <ns3:TrackPointExtension>
            <ns3:atemp>21.0</ns3:atemp>
          </ns3:TrackPointExtension>
        </extensions>
      </trkpt>
      <trkpt lat="42.51588662154972553253173828125" lon="19.76746670901775360107421875">
        <ele>1820.5999755859375</ele>
        <time>2026-06-18T09:41:56.000Z</time>
        <extensions>
          <ns3:TrackPointExtension>
            <ns3:atemp>21.0</ns3:atemp>
          </ns3:TrackPointExtension>
        </extensions>
      </trkpt>
      <trkpt lat="42.51588662154972553253173828125" lon="19.76746670901775360107421875">
        <ele>1820.5999755859375</ele>
        <time>2026-06-18T09:41:57.000Z</time>
        <extensions>
          <ns3:TrackPointExtension>
            <ns3:atemp>21.0</ns3:atemp>
          </ns3:TrackPointExtension>
        </extensions>
      </trkpt>
      <trkpt lat="42.51588662154972553253173828125" lon="19.76746670901775360107421875">
        <ele>1820.5999755859375</ele>
        <time>2026-06-18T09:41:58.000Z</time>
        <extensions>
          <ns3:TrackPointExtension>
            <ns3:atemp>21.0</ns3:atemp>
          </ns3:TrackPointExtension>
        </extensions>
      </trkpt>
      <trkpt lat="42.51588662154972553253173828125" lon="19.76746670901775360107421875">
        <ele>1820.4000244140625</ele>
        <time>2026-06-18T09:41:59.000Z</time>
        <extensions>
          <ns3:TrackPointExtension>
            <ns3:atemp>21.0</ns3:atemp>
          </ns3:TrackPointExtension>
        </extensions>
      </trkpt>
      <trkpt lat="42.51588662154972553253173828125" lon="19.76746670901775360107421875">
        <ele>1820.4000244140625</ele>
        <time>2026-06-18T09:42:00.000Z</time>
        <extensions>
          <ns3:TrackPointExtension>
            <ns3:atemp>21.0</ns3:atemp>
          </ns3:TrackPointExtension>
        </extensions>
      </trkpt>
      <trkpt lat="42.51588662154972553253173828125" lon="19.76746670901775360107421875">
        <ele>1820.4000244140625</ele>
        <time>2026-06-18T09:42:01.000Z</time>
        <extensions>
          <ns3:TrackPointExtension>
            <ns3:atemp>21.0</ns3:atemp>
          </ns3:TrackPointExtension>
        </extensions>
      </trkpt>
      <trkpt lat="42.51588662154972553253173828125" lon="19.76746670901775360107421875">
        <ele>1820.4000244140625</ele>
        <time>2026-06-18T09:42:02.000Z</time>
        <extensions>
          <ns3:TrackPointExtension>
            <ns3:atemp>21.0</ns3:atemp>
          </ns3:TrackPointExtension>
        </extensions>
      </trkpt>
      <trkpt lat="42.51588662154972553253173828125" lon="19.76746670901775360107421875">
        <ele>1820.199951171875</ele>
        <time>2026-06-18T09:42:03.000Z</time>
        <extensions>
          <ns3:TrackPointExtension>
            <ns3:atemp>21.0</ns3:atemp>
          </ns3:TrackPointExtension>
        </extensions>
      </trkpt>
      <trkpt lat="42.51588662154972553253173828125" lon="19.76746670901775360107421875">
        <ele>1820</ele>
        <time>2026-06-18T09:42:04.000Z</time>
        <extensions>
          <ns3:TrackPointExtension>
            <ns3:atemp>21.0</ns3:atemp>
          </ns3:TrackPointExtension>
        </extensions>
      </trkpt>
      <trkpt lat="42.51588662154972553253173828125" lon="19.76746670901775360107421875">
        <ele>1820</ele>
        <time>2026-06-18T09:42:05.000Z</time>
        <extensions>
          <ns3:TrackPointExtension>
            <ns3:atemp>21.0</ns3:atemp>
          </ns3:TrackPointExtension>
        </extensions>
      </trkpt>
      <trkpt lat="42.51588662154972553253173828125" lon="19.76746670901775360107421875">
        <ele>1820</ele>
        <time>2026-06-18T09:42:06.000Z</time>
        <extensions>
          <ns3:TrackPointExtension>
            <ns3:atemp>21.0</ns3:atemp>
          </ns3:TrackPointExtension>
        </extensions>
      </trkpt>
      <trkpt lat="42.51588662154972553253173828125" lon="19.76746670901775360107421875">
        <ele>1819.800048828125</ele>
        <time>2026-06-18T09:42:07.000Z</time>
        <extensions>
          <ns3:TrackPointExtension>
            <ns3:atemp>21.0</ns3:atemp>
          </ns3:TrackPointExtension>
        </extensions>
      </trkpt>
      <trkpt lat="42.51588662154972553253173828125" lon="19.76746670901775360107421875">
        <ele>1819.800048828125</ele>
        <time>2026-06-18T09:42:08.000Z</time>
        <extensions>
          <ns3:TrackPointExtension>
            <ns3:atemp>21.0</ns3:atemp>
          </ns3:TrackPointExtension>
        </extensions>
      </trkpt>
      <trkpt lat="42.51588662154972553253173828125" lon="19.76746670901775360107421875">
        <ele>1819.5999755859375</ele>
        <time>2026-06-18T09:42:09.000Z</time>
        <extensions>
          <ns3:TrackPointExtension>
            <ns3:atemp>21.0</ns3:atemp>
          </ns3:TrackPointExtension>
        </extensions>
      </trkpt>
      <trkpt lat="42.51588662154972553253173828125" lon="19.76746670901775360107421875">
        <ele>1819.5999755859375</ele>
        <time>2026-06-18T09:42:10.000Z</time>
        <extensions>
          <ns3:TrackPointExtension>
            <ns3:atemp>21.0</ns3:atemp>
          </ns3:TrackPointExtension>
        </extensions>
      </trkpt>
      <trkpt lat="42.51588662154972553253173828125" lon="19.76746670901775360107421875">
        <ele>1819.4000244140625</ele>
        <time>2026-06-18T09:42:11.000Z</time>
        <extensions>
          <ns3:TrackPointExtension>
            <ns3:atemp>21.0</ns3:atemp>
          </ns3:TrackPointExtension>
        </extensions>
      </trkpt>
      <trkpt lat="42.51588662154972553253173828125" lon="19.76746670901775360107421875">
        <ele>1819.199951171875</ele>
        <time>2026-06-18T09:42:12.000Z</time>
        <extensions>
          <ns3:TrackPointExtension>
            <ns3:atemp>21.0</ns3:atemp>
          </ns3:TrackPointExtension>
        </extensions>
      </trkpt>
      <trkpt lat="42.51588662154972553253173828125" lon="19.76746670901775360107421875">
        <ele>1819</ele>
        <time>2026-06-18T09:42:13.000Z</time>
        <extensions>
          <ns3:TrackPointExtension>
            <ns3:atemp>21.0</ns3:atemp>
          </ns3:TrackPointExtension>
        </extensions>
      </trkpt>
      <trkpt lat="42.5158867053687572479248046875" lon="19.7674678824841976165771484375">
        <ele>1818.800048828125</ele>
        <time>2026-06-18T09:42:14.000Z</time>
        <extensions>
          <ns3:TrackPointExtension>
            <ns3:atemp>21.0</ns3:atemp>
          </ns3:TrackPointExtension>
        </extensions>
      </trkpt>
      <trkpt lat="42.5158826820552349090576171875" lon="19.7674755938351154327392578125">
        <ele>1818.800048828125</ele>
        <time>2026-06-18T09:42:15.000Z</time>
        <extensions>
          <ns3:TrackPointExtension>
            <ns3:atemp>21.0</ns3:atemp>
          </ns3:TrackPointExtension>
        </extensions>
      </trkpt>
      <trkpt lat="42.5158732943236827850341796875" lon="19.76748037151992321014404296875">
        <ele>1818.800048828125</ele>
        <time>2026-06-18T09:42:16.000Z</time>
        <extensions>
          <ns3:TrackPointExtension>
            <ns3:atemp>21.0</ns3:atemp>
          </ns3:TrackPointExtension>
        </extensions>
      </trkpt>
      <trkpt lat="42.5158568657934665679931640625" lon="19.7674853168427944183349609375">
        <ele>1818.800048828125</ele>
        <time>2026-06-18T09:42:17.000Z</time>
        <extensions>
          <ns3:TrackPointExtension>
            <ns3:atemp>21.0</ns3:atemp>
          </ns3:TrackPointExtension>
        </extensions>
      </trkpt>
      <trkpt lat="42.515838928520679473876953125" lon="19.76748816668987274169921875">
        <ele>1819</ele>
        <time>2026-06-18T09:42:18.000Z</time>
        <extensions>
          <ns3:TrackPointExtension>
            <ns3:atemp>21.0</ns3:atemp>
          </ns3:TrackPointExtension>
        </extensions>
      </trkpt>
      <trkpt lat="42.51582048833370208740234375" lon="19.7674936987459659576416015625">
        <ele>1819</ele>
        <time>2026-06-18T09:42:19.000Z</time>
        <extensions>
          <ns3:TrackPointExtension>
            <ns3:atemp>21.0</ns3:atemp>
          </ns3:TrackPointExtension>
        </extensions>
      </trkpt>
      <trkpt lat="42.51580364070832729339599609375" lon="19.767500571906566619873046875">
        <ele>1819</ele>
        <time>2026-06-18T09:42:20.000Z</time>
        <extensions>
          <ns3:TrackPointExtension>
            <ns3:atemp>21.0</ns3:atemp>
          </ns3:TrackPointExtension>
        </extensions>
      </trkpt>
      <trkpt lat="42.51578561961650848388671875" lon="19.76751155219972133636474609375">
        <ele>1818.800048828125</ele>
        <time>2026-06-18T09:42:21.000Z</time>
        <extensions>
          <ns3:TrackPointExtension>
            <ns3:atemp>21.0</ns3:atemp>
          </ns3:TrackPointExtension>
        </extensions>
      </trkpt>
      <trkpt lat="42.51576743088662624359130859375" lon="19.7675225324928760528564453125">
        <ele>1818.800048828125</ele>
        <time>2026-06-18T09:42:22.000Z</time>
        <extensions>
          <ns3:TrackPointExtension>
            <ns3:atemp>21.0</ns3:atemp>
          </ns3:TrackPointExtension>
        </extensions>
      </trkpt>
      <trkpt lat="42.51574899069964885711669921875" lon="19.7675330936908721923828125">
        <ele>1818.800048828125</ele>
        <time>2026-06-18T09:42:23.000Z</time>
        <extensions>
          <ns3:TrackPointExtension>
            <ns3:atemp>21.0</ns3:atemp>
          </ns3:TrackPointExtension>
        </extensions>
      </trkpt>
      <trkpt lat="42.51573306508362293243408203125" lon="19.76754440926015377044677734375">
        <ele>1818.800048828125</ele>
        <time>2026-06-18T09:42:24.000Z</time>
        <extensions>
          <ns3:TrackPointExtension>
            <ns3:atemp>21.0</ns3:atemp>
          </ns3:TrackPointExtension>
        </extensions>
      </trkpt>
      <trkpt lat="42.51571848057210445404052734375" lon="19.76755798794329166412353515625">
        <ele>1818.5999755859375</ele>
        <time>2026-06-18T09:42:25.000Z</time>
        <extensions>
          <ns3:TrackPointExtension>
            <ns3:atemp>21.0</ns3:atemp>
          </ns3:TrackPointExtension>
        </extensions>
      </trkpt>
      <trkpt lat="42.51569844782352447509765625" lon="19.76757072843611240386962890625">
        <ele>1818.5999755859375</ele>
        <time>2026-06-18T09:42:26.000Z</time>
        <extensions>
          <ns3:TrackPointExtension>
            <ns3:atemp>21.0</ns3:atemp>
          </ns3:TrackPointExtension>
        </extensions>
      </trkpt>
      <trkpt lat="42.51567875035107135772705078125" lon="19.76758564822375774383544921875">
        <ele>1818.4000244140625</ele>
        <time>2026-06-18T09:42:27.000Z</time>
        <extensions>
          <ns3:TrackPointExtension>
            <ns3:atemp>21.0</ns3:atemp>
          </ns3:TrackPointExtension>
        </extensions>
      </trkpt>
      <trkpt lat="42.515661902725696563720703125" lon="19.767602495849132537841796875">
        <ele>1818.4000244140625</ele>
        <time>2026-06-18T09:42:28.000Z</time>
        <extensions>
          <ns3:TrackPointExtension>
            <ns3:atemp>21.0</ns3:atemp>
          </ns3:TrackPointExtension>
        </extensions>
      </trkpt>
      <trkpt lat="42.51564756967127323150634765625" lon="19.76761817000806331634521484375">
        <ele>1818.199951171875</ele>
        <time>2026-06-18T09:42:29.000Z</time>
        <extensions>
          <ns3:TrackPointExtension>
            <ns3:atemp>21.0</ns3:atemp>
          </ns3:TrackPointExtension>
        </extensions>
      </trkpt>
      <trkpt lat="42.5156293809413909912109375" lon="19.76763300597667694091796875">
        <ele>1818.199951171875</ele>
        <time>2026-06-18T09:42:30.000Z</time>
        <extensions>
          <ns3:TrackPointExtension>
            <ns3:atemp>21.0</ns3:atemp>
          </ns3:TrackPointExtension>
        </extensions>
      </trkpt>
      <trkpt lat="42.515612281858921051025390625" lon="19.7676482610404491424560546875">
        <ele>1818.199951171875</ele>
        <time>2026-06-18T09:42:31.000Z</time>
        <extensions>
          <ns3:TrackPointExtension>
            <ns3:atemp>21.0</ns3:atemp>
          </ns3:TrackPointExtension>
        </extensions>
      </trkpt>
      <trkpt lat="42.5155973620712757110595703125" lon="19.76766946725547313690185546875">
        <ele>1818.4000244140625</ele>
        <time>2026-06-18T09:42:32.000Z</time>
        <extensions>
          <ns3:TrackPointExtension>
            <ns3:atemp>21.0</ns3:atemp>
          </ns3:TrackPointExtension>
        </extensions>
      </trkpt>
      <trkpt lat="42.5155836157500743865966796875" lon="19.76769528351724147796630859375">
        <ele>1818.4000244140625</ele>
        <time>2026-06-18T09:42:33.000Z</time>
        <extensions>
          <ns3:TrackPointExtension>
            <ns3:atemp>21.0</ns3:atemp>
          </ns3:TrackPointExtension>
        </extensions>
      </trkpt>
      <trkpt lat="42.51556961797177791595458984375" lon="19.7677196748554706573486328125">
        <ele>1818.4000244140625</ele>
        <time>2026-06-18T09:42:34.000Z</time>
        <extensions>
          <ns3:TrackPointExtension>
            <ns3:atemp>21.0</ns3:atemp>
          </ns3:TrackPointExtension>
        </extensions>
      </trkpt>
      <trkpt lat="42.5155577994883060455322265625" lon="19.7677364386618137359619140625">
        <ele>1818.4000244140625</ele>
        <time>2026-06-18T09:42:35.000Z</time>
        <extensions>
          <ns3:TrackPointExtension>
            <ns3:atemp>21.0</ns3:atemp>
          </ns3:TrackPointExtension>
        </extensions>
      </trkpt>
      <trkpt lat="42.51555134542286396026611328125" lon="19.76774322800338268280029296875">
        <ele>1818.5999755859375</ele>
        <time>2026-06-18T09:42:36.000Z</time>
        <extensions>
          <ns3:TrackPointExtension>
            <ns3:atemp>21.0</ns3:atemp>
          </ns3:TrackPointExtension>
        </extensions>
      </trkpt>
      <trkpt lat="42.5155520997941493988037109375" lon="19.76774507202208042144775390625">
        <ele>1818.800048828125</ele>
        <time>2026-06-18T09:42:37.000Z</time>
        <extensions>
          <ns3:TrackPointExtension>
            <ns3:atemp>21.0</ns3:atemp>
          </ns3:TrackPointExtension>
        </extensions>
      </trkpt>
      <trkpt lat="42.51555201597511768341064453125" lon="19.7677451558411121368408203125">
        <ele>1819.199951171875</ele>
        <time>2026-06-18T09:42:38.000Z</time>
        <extensions>
          <ns3:TrackPointExtension>
            <ns3:atemp>21.0</ns3:atemp>
          </ns3:TrackPointExtension>
        </extensions>
      </trkpt>
      <trkpt lat="42.515547238290309906005859375" lon="19.76774699985980987548828125">
        <ele>1819.5999755859375</ele>
        <time>2026-06-18T09:42:39.000Z</time>
        <extensions>
          <ns3:TrackPointExtension>
            <ns3:atemp>21.0</ns3:atemp>
          </ns3:TrackPointExtension>
        </extensions>
      </trkpt>
      <trkpt lat="42.51554715447127819061279296875" lon="19.76774708367884159088134765625">
        <ele>1820</ele>
        <time>2026-06-18T09:42:40.000Z</time>
        <extensions>
          <ns3:TrackPointExtension>
            <ns3:atemp>21.0</ns3:atemp>
          </ns3:TrackPointExtension>
        </extensions>
      </trkpt>
      <trkpt lat="42.515547238290309906005859375" lon="19.76774699985980987548828125">
        <ele>1820.199951171875</ele>
        <time>2026-06-18T09:42:41.000Z</time>
        <extensions>
          <ns3:TrackPointExtension>
            <ns3:atemp>21.0</ns3:atemp>
          </ns3:TrackPointExtension>
        </extensions>
      </trkpt>
      <trkpt lat="42.515547238290309906005859375" lon="19.76774699985980987548828125">
        <ele>1820.5999755859375</ele>
        <time>2026-06-18T09:42:42.000Z</time>
        <extensions>
          <ns3:TrackPointExtension>
            <ns3:atemp>21.0</ns3:atemp>
          </ns3:TrackPointExtension>
        </extensions>
      </trkpt>
      <trkpt lat="42.515544891357421875" lon="19.767748676240444183349609375">
        <ele>1820.5999755859375</ele>
        <time>2026-06-18T09:42:43.000Z</time>
        <extensions>
          <ns3:TrackPointExtension>
            <ns3:atemp>21.0</ns3:atemp>
          </ns3:TrackPointExtension>
        </extensions>
      </trkpt>
      <trkpt lat="42.515547238290309906005859375" lon="19.76774699985980987548828125">
        <ele>1820.5999755859375</ele>
        <time>2026-06-18T09:42:44.000Z</time>
        <extensions>
          <ns3:TrackPointExtension>
            <ns3:atemp>21.0</ns3:atemp>
          </ns3:TrackPointExtension>
        </extensions>
      </trkpt>
      <trkpt lat="42.51553977839648723602294921875" lon="19.76775429211556911468505859375">
        <ele>1820.5999755859375</ele>
        <time>2026-06-18T09:42:45.000Z</time>
        <extensions>
          <ns3:TrackPointExtension>
            <ns3:atemp>21.0</ns3:atemp>
          </ns3:TrackPointExtension>
        </extensions>
      </trkpt>
      <trkpt lat="42.51553173176944255828857421875" lon="19.7677624225616455078125">
        <ele>1820.5999755859375</ele>
        <time>2026-06-18T09:42:46.000Z</time>
        <extensions>
          <ns3:TrackPointExtension>
            <ns3:atemp>21.0</ns3:atemp>
          </ns3:TrackPointExtension>
        </extensions>
      </trkpt>
      <trkpt lat="42.5155222602188587188720703125" lon="19.7677743248641490936279296875">
        <ele>1820.4000244140625</ele>
        <time>2026-06-18T09:42:47.000Z</time>
        <extensions>
          <ns3:TrackPointExtension>
            <ns3:atemp>21.0</ns3:atemp>
          </ns3:TrackPointExtension>
        </extensions>
      </trkpt>
      <trkpt lat="42.51551463268697261810302734375" lon="19.76779083721339702606201171875">
        <ele>1820.4000244140625</ele>
        <time>2026-06-18T09:42:48.000Z</time>
        <extensions>
          <ns3:TrackPointExtension>
            <ns3:atemp>21.0</ns3:atemp>
          </ns3:TrackPointExtension>
        </extensions>
      </trkpt>
      <trkpt lat="42.5155086815357208251953125" lon="19.76781128905713558197021484375">
        <ele>1820.5999755859375</ele>
        <time>2026-06-18T09:42:49.000Z</time>
        <extensions>
          <ns3:TrackPointExtension>
            <ns3:atemp>21.0</ns3:atemp>
          </ns3:TrackPointExtension>
        </extensions>
      </trkpt>
      <trkpt lat="42.51549568958580493927001953125" lon="19.767830483615398406982421875">
        <ele>1820.5999755859375</ele>
        <time>2026-06-18T09:42:50.000Z</time>
        <extensions>
          <ns3:TrackPointExtension>
            <ns3:atemp>21.0</ns3:atemp>
          </ns3:TrackPointExtension>
        </extensions>
      </trkpt>
      <trkpt lat="42.51548211090266704559326171875" lon="19.76784112863242626190185546875">
        <ele>1820.800048828125</ele>
        <time>2026-06-18T09:42:51.000Z</time>
        <extensions>
          <ns3:TrackPointExtension>
            <ns3:atemp>20.0</ns3:atemp>
          </ns3:TrackPointExtension>
        </extensions>
      </trkpt>
      <trkpt lat="42.5154709629714488983154296875" lon="19.76784850470721721649169921875">
        <ele>1821</ele>
        <time>2026-06-18T09:42:52.000Z</time>
        <extensions>
          <ns3:TrackPointExtension>
            <ns3:atemp>20.0</ns3:atemp>
          </ns3:TrackPointExtension>
        </extensions>
      </trkpt>
      <trkpt lat="42.515462748706340789794921875" lon="19.76785806007683277130126953125">
        <ele>1821.199951171875</ele>
        <time>2026-06-18T09:42:53.000Z</time>
        <extensions>
          <ns3:TrackPointExtension>
            <ns3:atemp>20.0</ns3:atemp>
          </ns3:TrackPointExtension>
        </extensions>
      </trkpt>
      <trkpt lat="42.5154496729373931884765625" lon="19.76787574589252471923828125">
        <ele>1821.4000244140625</ele>
        <time>2026-06-18T09:42:54.000Z</time>
        <extensions>
          <ns3:TrackPointExtension>
            <ns3:atemp>20.0</ns3:atemp>
          </ns3:TrackPointExtension>
        </extensions>
      </trkpt>
      <trkpt lat="42.5154314003884792327880859375" lon="19.767896197736263275146484375">
        <ele>1821.800048828125</ele>
        <time>2026-06-18T09:42:55.000Z</time>
        <extensions>
          <ns3:TrackPointExtension>
            <ns3:atemp>20.0</ns3:atemp>
          </ns3:TrackPointExtension>
        </extensions>
      </trkpt>
      <trkpt lat="42.51541790552437305450439453125" lon="19.7679181583225727081298828125">
        <ele>1821.800048828125</ele>
        <time>2026-06-18T09:42:56.000Z</time>
        <extensions>
          <ns3:TrackPointExtension>
            <ns3:atemp>21.0</ns3:atemp>
          </ns3:TrackPointExtension>
        </extensions>
      </trkpt>
      <trkpt lat="42.51540382392704486846923828125" lon="19.76794070564210414886474609375">
        <ele>1821.800048828125</ele>
        <time>2026-06-18T09:42:57.000Z</time>
        <extensions>
          <ns3:TrackPointExtension>
            <ns3:atemp>21.0</ns3:atemp>
          </ns3:TrackPointExtension>
        </extensions>
      </trkpt>
      <trkpt lat="42.51539074815809726715087890625" lon="19.76796333678066730499267578125">
        <ele>1821.800048828125</ele>
        <time>2026-06-18T09:42:58.000Z</time>
        <extensions>
          <ns3:TrackPointExtension>
            <ns3:atemp>20.0</ns3:atemp>
          </ns3:TrackPointExtension>
        </extensions>
      </trkpt>
      <trkpt lat="42.5153760798275470733642578125" lon="19.76798194460570812225341796875">
        <ele>1821.800048828125</ele>
        <time>2026-06-18T09:42:59.000Z</time>
        <extensions>
          <ns3:TrackPointExtension>
            <ns3:atemp>20.0</ns3:atemp>
          </ns3:TrackPointExtension>
        </extensions>
      </trkpt>
      <trkpt lat="42.51536560244858264923095703125" lon="19.7680003009736537933349609375">
        <ele>1821.800048828125</ele>
        <time>2026-06-18T09:43:00.000Z</time>
        <extensions>
          <ns3:TrackPointExtension>
            <ns3:atemp>20.0</ns3:atemp>
          </ns3:TrackPointExtension>
        </extensions>
      </trkpt>
      <trkpt lat="42.51535336486995220184326171875" lon="19.76802335120737552642822265625">
        <ele>1822</ele>
        <time>2026-06-18T09:43:01.000Z</time>
        <extensions>
          <ns3:TrackPointExtension>
            <ns3:atemp>20.0</ns3:atemp>
          </ns3:TrackPointExtension>
        </extensions>
      </trkpt>
      <trkpt lat="42.5153361819684505462646484375" lon="19.76804514415562152862548828125">
        <ele>1822.4000244140625</ele>
        <time>2026-06-18T09:43:02.000Z</time>
        <extensions>
          <ns3:TrackPointExtension>
            <ns3:atemp>20.0</ns3:atemp>
          </ns3:TrackPointExtension>
        </extensions>
      </trkpt>
      <trkpt lat="42.51532302238047122955322265625" lon="19.76806081831455230712890625">
        <ele>1822.800048828125</ele>
        <time>2026-06-18T09:43:03.000Z</time>
        <extensions>
          <ns3:TrackPointExtension>
            <ns3:atemp>20.0</ns3:atemp>
          </ns3:TrackPointExtension>
        </extensions>
      </trkpt>
      <trkpt lat="42.51530709676444530487060546875" lon="19.76807481609284877777099609375">
        <ele>1823.199951171875</ele>
        <time>2026-06-18T09:43:04.000Z</time>
        <extensions>
          <ns3:TrackPointExtension>
            <ns3:atemp>20.0</ns3:atemp>
          </ns3:TrackPointExtension>
        </extensions>
      </trkpt>
      <trkpt lat="42.515287734568119049072265625" lon="19.7680908255279064178466796875">
        <ele>1823.5999755859375</ele>
        <time>2026-06-18T09:43:05.000Z</time>
        <extensions>
          <ns3:TrackPointExtension>
            <ns3:atemp>20.0</ns3:atemp>
          </ns3:TrackPointExtension>
        </extensions>
      </trkpt>
      <trkpt lat="42.51526837237179279327392578125" lon="19.7681042365729808807373046875">
        <ele>1824</ele>
        <time>2026-06-18T09:43:06.000Z</time>
        <extensions>
          <ns3:TrackPointExtension>
            <ns3:atemp>20.0</ns3:atemp>
          </ns3:TrackPointExtension>
        </extensions>
      </trkpt>
      <trkpt lat="42.51525227911770343780517578125" lon="19.76811957545578479766845703125">
        <ele>1824.5999755859375</ele>
        <time>2026-06-18T09:43:07.000Z</time>
        <extensions>
          <ns3:TrackPointExtension>
            <ns3:atemp>20.0</ns3:atemp>
          </ns3:TrackPointExtension>
        </extensions>
      </trkpt>
      <trkpt lat="42.51523920334875583648681640625" lon="19.7681339085102081298828125">
        <ele>1825.199951171875</ele>
        <time>2026-06-18T09:43:08.000Z</time>
        <extensions>
          <ns3:TrackPointExtension>
            <ns3:atemp>20.0</ns3:atemp>
          </ns3:TrackPointExtension>
        </extensions>
      </trkpt>
      <trkpt lat="42.51522378064692020416259765625" lon="19.76814740337431430816650390625">
        <ele>1825.800048828125</ele>
        <time>2026-06-18T09:43:09.000Z</time>
        <extensions>
          <ns3:TrackPointExtension>
            <ns3:atemp>20.0</ns3:atemp>
          </ns3:TrackPointExtension>
        </extensions>
      </trkpt>
      <trkpt lat="42.515207268297672271728515625" lon="19.7681676037609577178955078125">
        <ele>1826.4000244140625</ele>
        <time>2026-06-18T09:43:10.000Z</time>
        <extensions>
          <ns3:TrackPointExtension>
            <ns3:atemp>20.0</ns3:atemp>
          </ns3:TrackPointExtension>
        </extensions>
      </trkpt>
      <trkpt lat="42.51519209705293178558349609375" lon="19.76819065399467945098876953125">
        <ele>1827</ele>
        <time>2026-06-18T09:43:11.000Z</time>
        <extensions>
          <ns3:TrackPointExtension>
            <ns3:atemp>20.0</ns3:atemp>
          </ns3:TrackPointExtension>
        </extensions>
      </trkpt>
      <trkpt lat="42.515182793140411376953125" lon="19.768213368952274322509765625">
        <ele>1827.5999755859375</ele>
        <time>2026-06-18T09:43:12.000Z</time>
        <extensions>
          <ns3:TrackPointExtension>
            <ns3:atemp>20.0</ns3:atemp>
          </ns3:TrackPointExtension>
        </extensions>
      </trkpt>
      <trkpt lat="42.5151806138455867767333984375" lon="19.768236167728900909423828125">
        <ele>1828.199951171875</ele>
        <time>2026-06-18T09:43:13.000Z</time>
        <extensions>
          <ns3:TrackPointExtension>
            <ns3:atemp>20.0</ns3:atemp>
          </ns3:TrackPointExtension>
        </extensions>
      </trkpt>
      <trkpt lat="42.51518371514976024627685546875" lon="19.768259637057781219482421875">
        <ele>1828.5999755859375</ele>
        <time>2026-06-18T09:43:14.000Z</time>
        <extensions>
          <ns3:TrackPointExtension>
            <ns3:atemp>20.0</ns3:atemp>
          </ns3:TrackPointExtension>
        </extensions>
      </trkpt>
      <trkpt lat="42.51518773846328258514404296875" lon="19.768271036446094512939453125">
        <ele>1829</ele>
        <time>2026-06-18T09:43:15.000Z</time>
        <extensions>
          <ns3:TrackPointExtension>
            <ns3:atemp>20.0</ns3:atemp>
          </ns3:TrackPointExtension>
        </extensions>
      </trkpt>
      <trkpt lat="42.51519008539617061614990234375" lon="19.76828168146312236785888671875">
        <ele>1829</ele>
        <time>2026-06-18T09:43:16.000Z</time>
        <extensions>
          <ns3:TrackPointExtension>
            <ns3:atemp>20.0</ns3:atemp>
          </ns3:TrackPointExtension>
        </extensions>
      </trkpt>
      <trkpt lat="42.5151910074055194854736328125" lon="19.76829257793724536895751953125">
        <ele>1829.199951171875</ele>
        <time>2026-06-18T09:43:17.000Z</time>
        <extensions>
          <ns3:TrackPointExtension>
            <ns3:atemp>20.0</ns3:atemp>
          </ns3:TrackPointExtension>
        </extensions>
      </trkpt>
      <trkpt lat="42.51519159413874149322509765625" lon="19.76828805170953273773193359375">
        <ele>1829.199951171875</ele>
        <time>2026-06-18T09:43:18.000Z</time>
        <extensions>
          <ns3:TrackPointExtension>
            <ns3:atemp>20.0</ns3:atemp>
          </ns3:TrackPointExtension>
        </extensions>
      </trkpt>
      <trkpt lat="42.51519159413874149322509765625" lon="19.76828805170953273773193359375">
        <ele>1829.199951171875</ele>
        <time>2026-06-18T09:43:19.000Z</time>
        <extensions>
          <ns3:TrackPointExtension>
            <ns3:atemp>20.0</ns3:atemp>
          </ns3:TrackPointExtension>
        </extensions>
      </trkpt>
      <trkpt lat="42.51519159413874149322509765625" lon="19.76828805170953273773193359375">
        <ele>1829.199951171875</ele>
        <time>2026-06-18T09:43:20.000Z</time>
        <extensions>
          <ns3:TrackPointExtension>
            <ns3:atemp>20.0</ns3:atemp>
          </ns3:TrackPointExtension>
        </extensions>
      </trkpt>
      <trkpt lat="42.51519159413874149322509765625" lon="19.76828805170953273773193359375">
        <ele>1829.199951171875</ele>
        <time>2026-06-18T09:43:21.000Z</time>
        <extensions>
          <ns3:TrackPointExtension>
            <ns3:atemp>20.0</ns3:atemp>
          </ns3:TrackPointExtension>
        </extensions>
      </trkpt>
      <trkpt lat="42.51519159413874149322509765625" lon="19.76828805170953273773193359375">
        <ele>1829.199951171875</ele>
        <time>2026-06-18T09:43:22.000Z</time>
        <extensions>
          <ns3:TrackPointExtension>
            <ns3:atemp>20.0</ns3:atemp>
          </ns3:TrackPointExtension>
        </extensions>
      </trkpt>
      <trkpt lat="42.51519159413874149322509765625" lon="19.768288135528564453125">
        <ele>1829.199951171875</ele>
        <time>2026-06-18T09:43:23.000Z</time>
        <extensions>
          <ns3:TrackPointExtension>
            <ns3:atemp>20.0</ns3:atemp>
          </ns3:TrackPointExtension>
        </extensions>
      </trkpt>
      <trkpt lat="42.515188157558441162109375" lon="19.768301546573638916015625">
        <ele>1829.199951171875</ele>
        <time>2026-06-18T09:43:24.000Z</time>
        <extensions>
          <ns3:TrackPointExtension>
            <ns3:atemp>20.0</ns3:atemp>
          </ns3:TrackPointExtension>
        </extensions>
      </trkpt>
      <trkpt lat="42.51518748700618743896484375" lon="19.7683121077716350555419921875">
        <ele>1829.199951171875</ele>
        <time>2026-06-18T09:43:25.000Z</time>
        <extensions>
          <ns3:TrackPointExtension>
            <ns3:atemp>20.0</ns3:atemp>
          </ns3:TrackPointExtension>
        </extensions>
      </trkpt>
      <trkpt lat="42.51518840901553630828857421875" lon="19.7683221660554409027099609375">
        <ele>1829.199951171875</ele>
        <time>2026-06-18T09:43:26.000Z</time>
        <extensions>
          <ns3:TrackPointExtension>
            <ns3:atemp>20.0</ns3:atemp>
          </ns3:TrackPointExtension>
        </extensions>
      </trkpt>
      <trkpt lat="42.515188157558441162109375" lon="19.76833063177764415740966796875">
        <ele>1829.4000244140625</ele>
        <time>2026-06-18T09:43:27.000Z</time>
        <extensions>
          <ns3:TrackPointExtension>
            <ns3:atemp>20.0</ns3:atemp>
          </ns3:TrackPointExtension>
        </extensions>
      </trkpt>
      <trkpt lat="42.51518891192972660064697265625" lon="19.76833599619567394256591796875">
        <ele>1829.4000244140625</ele>
        <time>2026-06-18T09:43:28.000Z</time>
        <extensions>
          <ns3:TrackPointExtension>
            <ns3:atemp>20.0</ns3:atemp>
          </ns3:TrackPointExtension>
        </extensions>
      </trkpt>
      <trkpt lat="42.51518857665359973907470703125" lon="19.7683365829288959503173828125">
        <ele>1829.4000244140625</ele>
        <time>2026-06-18T09:43:29.000Z</time>
        <extensions>
          <ns3:TrackPointExtension>
            <ns3:atemp>20.0</ns3:atemp>
          </ns3:TrackPointExtension>
        </extensions>
      </trkpt>
      <trkpt lat="42.515188492834568023681640625" lon="19.76833666674792766571044921875">
        <ele>1829.5999755859375</ele>
        <time>2026-06-18T09:43:30.000Z</time>
        <extensions>
          <ns3:TrackPointExtension>
            <ns3:atemp>20.0</ns3:atemp>
          </ns3:TrackPointExtension>
        </extensions>
      </trkpt>
      <trkpt lat="42.515188492834568023681640625" lon="19.76833666674792766571044921875">
        <ele>1829.5999755859375</ele>
        <time>2026-06-18T09:43:31.000Z</time>
        <extensions>
          <ns3:TrackPointExtension>
            <ns3:atemp>20.0</ns3:atemp>
          </ns3:TrackPointExtension>
        </extensions>
      </trkpt>
      <trkpt lat="42.515188492834568023681640625" lon="19.76833666674792766571044921875">
        <ele>1829.5999755859375</ele>
        <time>2026-06-18T09:43:32.000Z</time>
        <extensions>
          <ns3:TrackPointExtension>
            <ns3:atemp>20.0</ns3:atemp>
          </ns3:TrackPointExtension>
        </extensions>
      </trkpt>
      <trkpt lat="42.515188492834568023681640625" lon="19.76833666674792766571044921875">
        <ele>1829.800048828125</ele>
        <time>2026-06-18T09:43:33.000Z</time>
        <extensions>
          <ns3:TrackPointExtension>
            <ns3:atemp>20.0</ns3:atemp>
          </ns3:TrackPointExtension>
        </extensions>
      </trkpt>
      <trkpt lat="42.515188492834568023681640625" lon="19.76833666674792766571044921875">
        <ele>1829.800048828125</ele>
        <time>2026-06-18T09:43:34.000Z</time>
        <extensions>
          <ns3:TrackPointExtension>
            <ns3:atemp>20.0</ns3:atemp>
          </ns3:TrackPointExtension>
        </extensions>
      </trkpt>
      <trkpt lat="42.515188492834568023681640625" lon="19.76833666674792766571044921875">
        <ele>1830</ele>
        <time>2026-06-18T09:43:35.000Z</time>
        <extensions>
          <ns3:TrackPointExtension>
            <ns3:atemp>20.0</ns3:atemp>
          </ns3:TrackPointExtension>
        </extensions>
      </trkpt>
      <trkpt lat="42.51518807373940944671630859375" lon="19.768338091671466827392578125">
        <ele>1830</ele>
        <time>2026-06-18T09:43:36.000Z</time>
        <extensions>
          <ns3:TrackPointExtension>
            <ns3:atemp>20.0</ns3:atemp>
          </ns3:TrackPointExtension>
        </extensions>
      </trkpt>
      <trkpt lat="42.51518572680652141571044921875" lon="19.76834337227046489715576171875">
        <ele>1830.199951171875</ele>
        <time>2026-06-18T09:43:37.000Z</time>
        <extensions>
          <ns3:TrackPointExtension>
            <ns3:atemp>20.0</ns3:atemp>
          </ns3:TrackPointExtension>
        </extensions>
      </trkpt>
      <trkpt lat="42.515188492834568023681640625" lon="19.76833666674792766571044921875">
        <ele>1830.199951171875</ele>
        <time>2026-06-18T09:43:38.000Z</time>
        <extensions>
          <ns3:TrackPointExtension>
            <ns3:atemp>20.0</ns3:atemp>
          </ns3:TrackPointExtension>
        </extensions>
      </trkpt>
      <trkpt lat="42.515188492834568023681640625" lon="19.76833666674792766571044921875">
        <ele>1830.4000244140625</ele>
        <time>2026-06-18T09:43:39.000Z</time>
        <extensions>
          <ns3:TrackPointExtension>
            <ns3:atemp>20.0</ns3:atemp>
          </ns3:TrackPointExtension>
        </extensions>
      </trkpt>
      <trkpt lat="42.515188492834568023681640625" lon="19.76833666674792766571044921875">
        <ele>1830.5999755859375</ele>
        <time>2026-06-18T09:43:40.000Z</time>
        <extensions>
          <ns3:TrackPointExtension>
            <ns3:atemp>20.0</ns3:atemp>
          </ns3:TrackPointExtension>
        </extensions>
      </trkpt>
      <trkpt lat="42.515188492834568023681640625" lon="19.76833666674792766571044921875">
        <ele>1830.5999755859375</ele>
        <time>2026-06-18T09:43:41.000Z</time>
        <extensions>
          <ns3:TrackPointExtension>
            <ns3:atemp>20.0</ns3:atemp>
          </ns3:TrackPointExtension>
        </extensions>
      </trkpt>
      <trkpt lat="42.51518522389233112335205078125" lon="19.76834638975560665130615234375">
        <ele>1830.800048828125</ele>
        <time>2026-06-18T09:43:42.000Z</time>
        <extensions>
          <ns3:TrackPointExtension>
            <ns3:atemp>20.0</ns3:atemp>
          </ns3:TrackPointExtension>
        </extensions>
      </trkpt>
      <trkpt lat="42.51518480479717254638671875" lon="19.7683680988848209381103515625">
        <ele>1830.5999755859375</ele>
        <time>2026-06-18T09:43:43.000Z</time>
        <extensions>
          <ns3:TrackPointExtension>
            <ns3:atemp>20.0</ns3:atemp>
          </ns3:TrackPointExtension>
        </extensions>
      </trkpt>
      <trkpt lat="42.51518480479717254638671875" lon="19.76838125847280025482177734375">
        <ele>1830.5999755859375</ele>
        <time>2026-06-18T09:43:44.000Z</time>
        <extensions>
          <ns3:TrackPointExtension>
            <ns3:atemp>20.0</ns3:atemp>
          </ns3:TrackPointExtension>
        </extensions>
      </trkpt>
      <trkpt lat="42.5151853077113628387451171875" lon="19.7683922387659549713134765625">
        <ele>1830.4000244140625</ele>
        <time>2026-06-18T09:43:45.000Z</time>
        <extensions>
          <ns3:TrackPointExtension>
            <ns3:atemp>20.0</ns3:atemp>
          </ns3:TrackPointExtension>
        </extensions>
      </trkpt>
      <trkpt lat="42.51518438570201396942138671875" lon="19.7683994472026824951171875">
        <ele>1830.4000244140625</ele>
        <time>2026-06-18T09:43:46.000Z</time>
        <extensions>
          <ns3:TrackPointExtension>
            <ns3:atemp>20.0</ns3:atemp>
          </ns3:TrackPointExtension>
        </extensions>
      </trkpt>
      <trkpt lat="42.5151829607784748077392578125" lon="19.76840372197329998016357421875">
        <ele>1830.5999755859375</ele>
        <time>2026-06-18T09:43:47.000Z</time>
        <extensions>
          <ns3:TrackPointExtension>
            <ns3:atemp>20.0</ns3:atemp>
          </ns3:TrackPointExtension>
        </extensions>
      </trkpt>
      <trkpt lat="42.51518103294074535369873046875" lon="19.76841210387647151947021484375">
        <ele>1830.800048828125</ele>
        <time>2026-06-18T09:43:48.000Z</time>
        <extensions>
          <ns3:TrackPointExtension>
            <ns3:atemp>20.0</ns3:atemp>
          </ns3:TrackPointExtension>
        </extensions>
      </trkpt>
      <trkpt lat="42.5151792727410793304443359375" lon="19.768413864076137542724609375">
        <ele>1831</ele>
        <time>2026-06-18T09:43:49.000Z</time>
        <extensions>
          <ns3:TrackPointExtension>
            <ns3:atemp>20.0</ns3:atemp>
          </ns3:TrackPointExtension>
        </extensions>
      </trkpt>
      <trkpt lat="42.51517818309366703033447265625" lon="19.7684244252741336822509765625">
        <ele>1831.199951171875</ele>
        <time>2026-06-18T09:43:50.000Z</time>
        <extensions>
          <ns3:TrackPointExtension>
            <ns3:atemp>20.0</ns3:atemp>
          </ns3:TrackPointExtension>
        </extensions>
      </trkpt>
      <trkpt lat="42.51517684198915958404541015625" lon="19.76843071170151233673095703125">
        <ele>1831.199951171875</ele>
        <time>2026-06-18T09:43:51.000Z</time>
        <extensions>
          <ns3:TrackPointExtension>
            <ns3:atemp>20.0</ns3:atemp>
          </ns3:TrackPointExtension>
        </extensions>
      </trkpt>
      <trkpt lat="42.5151786021888256072998046875" lon="19.768436662852764129638671875">
        <ele>1831.4000244140625</ele>
        <time>2026-06-18T09:43:52.000Z</time>
        <extensions>
          <ns3:TrackPointExtension>
            <ns3:atemp>20.0</ns3:atemp>
          </ns3:TrackPointExtension>
        </extensions>
      </trkpt>
      <trkpt lat="42.515177763998508453369140625" lon="19.76844227872788906097412109375">
        <ele>1831.4000244140625</ele>
        <time>2026-06-18T09:43:53.000Z</time>
        <extensions>
          <ns3:TrackPointExtension>
            <ns3:atemp>20.0</ns3:atemp>
          </ns3:TrackPointExtension>
        </extensions>
      </trkpt>
      <trkpt lat="42.5151772610843181610107421875" lon="19.7684515826404094696044921875">
        <ele>1831.4000244140625</ele>
        <time>2026-06-18T09:43:54.000Z</time>
        <extensions>
          <ns3:TrackPointExtension>
            <ns3:atemp>20.0</ns3:atemp>
          </ns3:TrackPointExtension>
        </extensions>
      </trkpt>
      <trkpt lat="42.515177428722381591796875" lon="19.768462814390659332275390625">
        <ele>1831.4000244140625</ele>
        <time>2026-06-18T09:43:55.000Z</time>
        <extensions>
          <ns3:TrackPointExtension>
            <ns3:atemp>20.0</ns3:atemp>
          </ns3:TrackPointExtension>
        </extensions>
      </trkpt>
      <trkpt lat="42.5151769258081912994384765625" lon="19.76847010664641857147216796875">
        <ele>1831.5999755859375</ele>
        <time>2026-06-18T09:43:56.000Z</time>
        <extensions>
          <ns3:TrackPointExtension>
            <ns3:atemp>20.0</ns3:atemp>
          </ns3:TrackPointExtension>
        </extensions>
      </trkpt>
      <trkpt lat="42.51517734490334987640380859375" lon="19.7684745490550994873046875">
        <ele>1831.5999755859375</ele>
        <time>2026-06-18T09:43:57.000Z</time>
        <extensions>
          <ns3:TrackPointExtension>
            <ns3:atemp>20.0</ns3:atemp>
          </ns3:TrackPointExtension>
        </extensions>
      </trkpt>
      <trkpt lat="42.5151786021888256072998046875" lon="19.768480248749256134033203125">
        <ele>1831.800048828125</ele>
        <time>2026-06-18T09:43:58.000Z</time>
        <extensions>
          <ns3:TrackPointExtension>
            <ns3:atemp>20.0</ns3:atemp>
          </ns3:TrackPointExtension>
        </extensions>
      </trkpt>
      <trkpt lat="42.5151787698268890380859375" lon="19.76848502643406391143798828125">
        <ele>1832</ele>
        <time>2026-06-18T09:43:59.000Z</time>
        <extensions>
          <ns3:TrackPointExtension>
            <ns3:atemp>20.0</ns3:atemp>
          </ns3:TrackPointExtension>
        </extensions>
      </trkpt>
      <trkpt lat="42.51517818309366703033447265625" lon="19.76849240250885486602783203125">
        <ele>1832.199951171875</ele>
        <time>2026-06-18T09:44:00.000Z</time>
        <extensions>
          <ns3:TrackPointExtension>
            <ns3:atemp>20.0</ns3:atemp>
          </ns3:TrackPointExtension>
        </extensions>
      </trkpt>
      <trkpt lat="42.51517751254141330718994140625" lon="19.76849776692688465118408203125">
        <ele>1832.4000244140625</ele>
        <time>2026-06-18T09:44:01.000Z</time>
        <extensions>
          <ns3:TrackPointExtension>
            <ns3:atemp>20.0</ns3:atemp>
          </ns3:TrackPointExtension>
        </extensions>
      </trkpt>
      <trkpt lat="42.51517667435109615325927734375" lon="19.76850514300167560577392578125">
        <ele>1832.5999755859375</ele>
        <time>2026-06-18T09:44:02.000Z</time>
        <extensions>
          <ns3:TrackPointExtension>
            <ns3:atemp>20.0</ns3:atemp>
          </ns3:TrackPointExtension>
        </extensions>
      </trkpt>
      <trkpt lat="42.51517550088465213775634765625" lon="19.76851142942905426025390625">
        <ele>1832.800048828125</ele>
        <time>2026-06-18T09:44:03.000Z</time>
        <extensions>
          <ns3:TrackPointExtension>
            <ns3:atemp>20.0</ns3:atemp>
          </ns3:TrackPointExtension>
        </extensions>
      </trkpt>
      <trkpt lat="42.51517583616077899932861328125" lon="19.76851679384708404541015625">
        <ele>1833</ele>
        <time>2026-06-18T09:44:04.000Z</time>
        <extensions>
          <ns3:TrackPointExtension>
            <ns3:atemp>20.0</ns3:atemp>
          </ns3:TrackPointExtension>
        </extensions>
      </trkpt>
      <trkpt lat="42.51517617143690586090087890625" lon="19.768519140779972076416015625">
        <ele>1833.199951171875</ele>
        <time>2026-06-18T09:44:05.000Z</time>
        <extensions>
          <ns3:TrackPointExtension>
            <ns3:atemp>20.0</ns3:atemp>
          </ns3:TrackPointExtension>
        </extensions>
      </trkpt>
      <trkpt lat="42.515177428722381591796875" lon="19.76852349936962127685546875">
        <ele>1833.4000244140625</ele>
        <time>2026-06-18T09:44:06.000Z</time>
        <extensions>
          <ns3:TrackPointExtension>
            <ns3:atemp>20.0</ns3:atemp>
          </ns3:TrackPointExtension>
        </extensions>
      </trkpt>
      <trkpt lat="42.51518002711236476898193359375" lon="19.768529199063777923583984375">
        <ele>1833.5999755859375</ele>
        <time>2026-06-18T09:44:07.000Z</time>
        <extensions>
          <ns3:TrackPointExtension>
            <ns3:atemp>20.0</ns3:atemp>
          </ns3:TrackPointExtension>
        </extensions>
      </trkpt>
      <trkpt lat="42.51518069766461849212646484375" lon="19.76853691041469573974609375">
        <ele>1833.5999755859375</ele>
        <time>2026-06-18T09:44:08.000Z</time>
        <extensions>
          <ns3:TrackPointExtension>
            <ns3:atemp>20.0</ns3:atemp>
          </ns3:TrackPointExtension>
        </extensions>
      </trkpt>
      <trkpt lat="42.5151829607784748077392578125" lon="19.768544621765613555908203125">
        <ele>1833.800048828125</ele>
        <time>2026-06-18T09:44:09.000Z</time>
        <extensions>
          <ns3:TrackPointExtension>
            <ns3:atemp>20.0</ns3:atemp>
          </ns3:TrackPointExtension>
        </extensions>
      </trkpt>
      <trkpt lat="42.51518480479717254638671875" lon="19.76855610497295856475830078125">
        <ele>1834</ele>
        <time>2026-06-18T09:44:10.000Z</time>
        <extensions>
          <ns3:TrackPointExtension>
            <ns3:atemp>20.0</ns3:atemp>
          </ns3:TrackPointExtension>
        </extensions>
      </trkpt>
      <trkpt lat="42.515188157558441162109375" lon="19.7685684263706207275390625">
        <ele>1834</ele>
        <time>2026-06-18T09:44:11.000Z</time>
        <extensions>
          <ns3:TrackPointExtension>
            <ns3:atemp>20.0</ns3:atemp>
          </ns3:TrackPointExtension>
        </extensions>
      </trkpt>
      <trkpt lat="42.5151863135397434234619140625" lon="19.76856985129415988922119140625">
        <ele>1834.199951171875</ele>
        <time>2026-06-18T09:44:12.000Z</time>
        <extensions>
          <ns3:TrackPointExtension>
            <ns3:atemp>20.0</ns3:atemp>
          </ns3:TrackPointExtension>
        </extensions>
      </trkpt>
      <trkpt lat="42.5151863135397434234619140625" lon="19.7685699351131916046142578125">
        <ele>1834.199951171875</ele>
        <time>2026-06-18T09:44:13.000Z</time>
        <extensions>
          <ns3:TrackPointExtension>
            <ns3:atemp>20.0</ns3:atemp>
          </ns3:TrackPointExtension>
        </extensions>
      </trkpt>
      <trkpt lat="42.5151863135397434234619140625" lon="19.7685699351131916046142578125">
        <ele>1834.4000244140625</ele>
        <time>2026-06-18T09:44:14.000Z</time>
        <extensions>
          <ns3:TrackPointExtension>
            <ns3:atemp>20.0</ns3:atemp>
          </ns3:TrackPointExtension>
        </extensions>
      </trkpt>
      <trkpt lat="42.5151863135397434234619140625" lon="19.7685699351131916046142578125">
        <ele>1834.5999755859375</ele>
        <time>2026-06-18T09:44:15.000Z</time>
        <extensions>
          <ns3:TrackPointExtension>
            <ns3:atemp>20.0</ns3:atemp>
          </ns3:TrackPointExtension>
        </extensions>
      </trkpt>
      <trkpt lat="42.5151863135397434234619140625" lon="19.7685699351131916046142578125">
        <ele>1834.800048828125</ele>
        <time>2026-06-18T09:44:16.000Z</time>
        <extensions>
          <ns3:TrackPointExtension>
            <ns3:atemp>20.0</ns3:atemp>
          </ns3:TrackPointExtension>
        </extensions>
      </trkpt>
      <trkpt lat="42.515186481177806854248046875" lon="19.76857043802738189697265625">
        <ele>1835</ele>
        <time>2026-06-18T09:44:17.000Z</time>
        <extensions>
          <ns3:TrackPointExtension>
            <ns3:atemp>20.0</ns3:atemp>
          </ns3:TrackPointExtension>
        </extensions>
      </trkpt>
      <trkpt lat="42.5151876546442508697509765625" lon="19.76858192123472690582275390625">
        <ele>1835.199951171875</ele>
        <time>2026-06-18T09:44:18.000Z</time>
        <extensions>
          <ns3:TrackPointExtension>
            <ns3:atemp>20.0</ns3:atemp>
          </ns3:TrackPointExtension>
        </extensions>
      </trkpt>
      <trkpt lat="42.5151896663010120391845703125" lon="19.76858896203339099884033203125">
        <ele>1835.4000244140625</ele>
        <time>2026-06-18T09:44:19.000Z</time>
        <extensions>
          <ns3:TrackPointExtension>
            <ns3:atemp>20.0</ns3:atemp>
          </ns3:TrackPointExtension>
        </extensions>
      </trkpt>
      <trkpt lat="42.51519427634775638580322265625" lon="19.76859818212687969207763671875">
        <ele>1835.4000244140625</ele>
        <time>2026-06-18T09:44:20.000Z</time>
        <extensions>
          <ns3:TrackPointExtension>
            <ns3:atemp>20.0</ns3:atemp>
          </ns3:TrackPointExtension>
        </extensions>
      </trkpt>
      <trkpt lat="42.515197880566120147705078125" lon="19.7686091624200344085693359375">
        <ele>1835.4000244140625</ele>
        <time>2026-06-18T09:44:21.000Z</time>
        <extensions>
          <ns3:TrackPointExtension>
            <ns3:atemp>20.0</ns3:atemp>
          </ns3:TrackPointExtension>
        </extensions>
      </trkpt>
      <trkpt lat="42.51520223915576934814453125" lon="19.76862466894090175628662109375">
        <ele>1835.4000244140625</ele>
        <time>2026-06-18T09:44:22.000Z</time>
        <extensions>
          <ns3:TrackPointExtension>
            <ns3:atemp>20.0</ns3:atemp>
          </ns3:TrackPointExtension>
        </extensions>
      </trkpt>
      <trkpt lat="42.51520358026027679443359375" lon="19.76863321848213672637939453125">
        <ele>1835.5999755859375</ele>
        <time>2026-06-18T09:44:23.000Z</time>
        <extensions>
          <ns3:TrackPointExtension>
            <ns3:atemp>20.0</ns3:atemp>
          </ns3:TrackPointExtension>
        </extensions>
      </trkpt>
      <trkpt lat="42.51520047895610332489013671875" lon="19.7686356492340564727783203125">
        <ele>1835.5999755859375</ele>
        <time>2026-06-18T09:44:24.000Z</time>
        <extensions>
          <ns3:TrackPointExtension>
            <ns3:atemp>20.0</ns3:atemp>
          </ns3:TrackPointExtension>
        </extensions>
      </trkpt>
      <trkpt lat="42.5152002274990081787109375" lon="19.76863590069115161895751953125">
        <ele>1835.5999755859375</ele>
        <time>2026-06-18T09:44:25.000Z</time>
        <extensions>
          <ns3:TrackPointExtension>
            <ns3:atemp>20.0</ns3:atemp>
          </ns3:TrackPointExtension>
        </extensions>
      </trkpt>
      <trkpt lat="42.5152002274990081787109375" lon="19.76863590069115161895751953125">
        <ele>1835.800048828125</ele>
        <time>2026-06-18T09:44:26.000Z</time>
        <extensions>
          <ns3:TrackPointExtension>
            <ns3:atemp>20.0</ns3:atemp>
          </ns3:TrackPointExtension>
        </extensions>
      </trkpt>
      <trkpt lat="42.5152002274990081787109375" lon="19.76863590069115161895751953125">
        <ele>1835.800048828125</ele>
        <time>2026-06-18T09:44:27.000Z</time>
        <extensions>
          <ns3:TrackPointExtension>
            <ns3:atemp>20.0</ns3:atemp>
          </ns3:TrackPointExtension>
        </extensions>
      </trkpt>
      <trkpt lat="42.5152002274990081787109375" lon="19.76863590069115161895751953125">
        <ele>1836</ele>
        <time>2026-06-18T09:44:28.000Z</time>
        <extensions>
          <ns3:TrackPointExtension>
            <ns3:atemp>20.0</ns3:atemp>
          </ns3:TrackPointExtension>
        </extensions>
      </trkpt>
      <trkpt lat="42.5152002274990081787109375" lon="19.76863590069115161895751953125">
        <ele>1836</ele>
        <time>2026-06-18T09:44:29.000Z</time>
        <extensions>
          <ns3:TrackPointExtension>
            <ns3:atemp>20.0</ns3:atemp>
          </ns3:TrackPointExtension>
        </extensions>
      </trkpt>
      <trkpt lat="42.5152002274990081787109375" lon="19.76863590069115161895751953125">
        <ele>1836</ele>
        <time>2026-06-18T09:44:30.000Z</time>
        <extensions>
          <ns3:TrackPointExtension>
            <ns3:atemp>20.0</ns3:atemp>
          </ns3:TrackPointExtension>
        </extensions>
      </trkpt>
      <trkpt lat="42.5152002274990081787109375" lon="19.76863590069115161895751953125">
        <ele>1836</ele>
        <time>2026-06-18T09:44:31.000Z</time>
        <extensions>
          <ns3:TrackPointExtension>
            <ns3:atemp>20.0</ns3:atemp>
          </ns3:TrackPointExtension>
        </extensions>
      </trkpt>
      <trkpt lat="42.5152002274990081787109375" lon="19.76863590069115161895751953125">
        <ele>1836.199951171875</ele>
        <time>2026-06-18T09:44:32.000Z</time>
        <extensions>
          <ns3:TrackPointExtension>
            <ns3:atemp>20.0</ns3:atemp>
          </ns3:TrackPointExtension>
        </extensions>
      </trkpt>
      <trkpt lat="42.5152002274990081787109375" lon="19.76863590069115161895751953125">
        <ele>1836.199951171875</ele>
        <time>2026-06-18T09:44:33.000Z</time>
        <extensions>
          <ns3:TrackPointExtension>
            <ns3:atemp>20.0</ns3:atemp>
          </ns3:TrackPointExtension>
        </extensions>
      </trkpt>
      <trkpt lat="42.5152002274990081787109375" lon="19.76863590069115161895751953125">
        <ele>1836.199951171875</ele>
        <time>2026-06-18T09:44:34.000Z</time>
        <extensions>
          <ns3:TrackPointExtension>
            <ns3:atemp>20.0</ns3:atemp>
          </ns3:TrackPointExtension>
        </extensions>
      </trkpt>
      <trkpt lat="42.5152002274990081787109375" lon="19.76863590069115161895751953125">
        <ele>1836.199951171875</ele>
        <time>2026-06-18T09:44:35.000Z</time>
        <extensions>
          <ns3:TrackPointExtension>
            <ns3:atemp>20.0</ns3:atemp>
          </ns3:TrackPointExtension>
        </extensions>
      </trkpt>
      <trkpt lat="42.5152002274990081787109375" lon="19.76863590069115161895751953125">
        <ele>1836</ele>
        <time>2026-06-18T09:44:36.000Z</time>
        <extensions>
          <ns3:TrackPointExtension>
            <ns3:atemp>20.0</ns3:atemp>
          </ns3:TrackPointExtension>
        </extensions>
      </trkpt>
      <trkpt lat="42.5152002274990081787109375" lon="19.76863590069115161895751953125">
        <ele>1836</ele>
        <time>2026-06-18T09:44:37.000Z</time>
        <extensions>
          <ns3:TrackPointExtension>
            <ns3:atemp>20.0</ns3:atemp>
          </ns3:TrackPointExtension>
        </extensions>
      </trkpt>
      <trkpt lat="42.51520089805126190185546875" lon="19.7686366550624370574951171875">
        <ele>1836</ele>
        <time>2026-06-18T09:44:38.000Z</time>
        <extensions>
          <ns3:TrackPointExtension>
            <ns3:atemp>20.0</ns3:atemp>
          </ns3:TrackPointExtension>
        </extensions>
      </trkpt>
      <trkpt lat="42.5152002274990081787109375" lon="19.76863590069115161895751953125">
        <ele>1836</ele>
        <time>2026-06-18T09:44:39.000Z</time>
        <extensions>
          <ns3:TrackPointExtension>
            <ns3:atemp>20.0</ns3:atemp>
          </ns3:TrackPointExtension>
        </extensions>
      </trkpt>
      <trkpt lat="42.5152002274990081787109375" lon="19.76863590069115161895751953125">
        <ele>1835.800048828125</ele>
        <time>2026-06-18T09:44:40.000Z</time>
        <extensions>
          <ns3:TrackPointExtension>
            <ns3:atemp>20.0</ns3:atemp>
          </ns3:TrackPointExtension>
        </extensions>
      </trkpt>
      <trkpt lat="42.5152002274990081787109375" lon="19.76863590069115161895751953125">
        <ele>1835.800048828125</ele>
        <time>2026-06-18T09:44:41.000Z</time>
        <extensions>
          <ns3:TrackPointExtension>
            <ns3:atemp>20.0</ns3:atemp>
          </ns3:TrackPointExtension>
        </extensions>
      </trkpt>
      <trkpt lat="42.5152002274990081787109375" lon="19.76863590069115161895751953125">
        <ele>1835.800048828125</ele>
        <time>2026-06-18T09:44:42.000Z</time>
        <extensions>
          <ns3:TrackPointExtension>
            <ns3:atemp>20.0</ns3:atemp>
          </ns3:TrackPointExtension>
        </extensions>
      </trkpt>
      <trkpt lat="42.51520114950835704803466796875" lon="19.76864151656627655029296875">
        <ele>1835.800048828125</ele>
        <time>2026-06-18T09:44:43.000Z</time>
        <extensions>
          <ns3:TrackPointExtension>
            <ns3:atemp>20.0</ns3:atemp>
          </ns3:TrackPointExtension>
        </extensions>
      </trkpt>
      <trkpt lat="42.5152064301073551177978515625" lon="19.7686473838984966278076171875">
        <ele>1835.800048828125</ele>
        <time>2026-06-18T09:44:44.000Z</time>
        <extensions>
          <ns3:TrackPointExtension>
            <ns3:atemp>20.0</ns3:atemp>
          </ns3:TrackPointExtension>
        </extensions>
      </trkpt>
      <trkpt lat="42.5152002274990081787109375" lon="19.76863590069115161895751953125">
        <ele>1835.800048828125</ele>
        <time>2026-06-18T09:44:45.000Z</time>
        <extensions>
          <ns3:TrackPointExtension>
            <ns3:atemp>20.0</ns3:atemp>
          </ns3:TrackPointExtension>
        </extensions>
      </trkpt>
      <trkpt lat="42.51520902849733829498291015625" lon="19.76864897646009922027587890625">
        <ele>1835.800048828125</ele>
        <time>2026-06-18T09:44:46.000Z</time>
        <extensions>
          <ns3:TrackPointExtension>
            <ns3:atemp>20.0</ns3:atemp>
          </ns3:TrackPointExtension>
        </extensions>
      </trkpt>
      <trkpt lat="42.51521430909633636474609375" lon="19.76866557262837886810302734375">
        <ele>1835.5999755859375</ele>
        <time>2026-06-18T09:44:47.000Z</time>
        <extensions>
          <ns3:TrackPointExtension>
            <ns3:atemp>20.0</ns3:atemp>
          </ns3:TrackPointExtension>
        </extensions>
      </trkpt>
      <trkpt lat="42.5152191706001758575439453125" lon="19.7686757147312164306640625">
        <ele>1835.5999755859375</ele>
        <time>2026-06-18T09:44:48.000Z</time>
        <extensions>
          <ns3:TrackPointExtension>
            <ns3:atemp>20.0</ns3:atemp>
          </ns3:TrackPointExtension>
        </extensions>
      </trkpt>
      <trkpt lat="42.5152221880853176116943359375" lon="19.768686108291149139404296875">
        <ele>1835.5999755859375</ele>
        <time>2026-06-18T09:44:49.000Z</time>
        <extensions>
          <ns3:TrackPointExtension>
            <ns3:atemp>20.0</ns3:atemp>
          </ns3:TrackPointExtension>
        </extensions>
      </trkpt>
      <trkpt lat="42.51522445119917392730712890625" lon="19.7686970047652721405029296875">
        <ele>1835.5999755859375</ele>
        <time>2026-06-18T09:44:50.000Z</time>
        <extensions>
          <ns3:TrackPointExtension>
            <ns3:atemp>20.0</ns3:atemp>
          </ns3:TrackPointExtension>
        </extensions>
      </trkpt>
      <trkpt lat="42.51522864215075969696044921875" lon="19.76871100254356861114501953125">
        <ele>1835.5999755859375</ele>
        <time>2026-06-18T09:44:51.000Z</time>
        <extensions>
          <ns3:TrackPointExtension>
            <ns3:atemp>20.0</ns3:atemp>
          </ns3:TrackPointExtension>
        </extensions>
      </trkpt>
      <trkpt lat="42.5152339227497577667236328125" lon="19.76872525177896022796630859375">
        <ele>1835.5999755859375</ele>
        <time>2026-06-18T09:44:52.000Z</time>
        <extensions>
          <ns3:TrackPointExtension>
            <ns3:atemp>20.0</ns3:atemp>
          </ns3:TrackPointExtension>
        </extensions>
      </trkpt>
      <trkpt lat="42.5152342580258846282958984375" lon="19.76873413659632205963134765625">
        <ele>1835.5999755859375</ele>
        <time>2026-06-18T09:44:53.000Z</time>
        <extensions>
          <ns3:TrackPointExtension>
            <ns3:atemp>20.0</ns3:atemp>
          </ns3:TrackPointExtension>
        </extensions>
      </trkpt>
      <trkpt lat="42.51523568294942378997802734375" lon="19.76874989457428455352783203125">
        <ele>1835.800048828125</ele>
        <time>2026-06-18T09:44:54.000Z</time>
        <extensions>
          <ns3:TrackPointExtension>
            <ns3:atemp>20.0</ns3:atemp>
          </ns3:TrackPointExtension>
        </extensions>
      </trkpt>
      <trkpt lat="42.515236772596836090087890625" lon="19.7687657363712787628173828125">
        <ele>1836</ele>
        <time>2026-06-18T09:44:55.000Z</time>
        <extensions>
          <ns3:TrackPointExtension>
            <ns3:atemp>20.0</ns3:atemp>
          </ns3:TrackPointExtension>
        </extensions>
      </trkpt>
      <trkpt lat="42.51523702405393123626708984375" lon="19.76878375746309757232666015625">
        <ele>1836</ele>
        <time>2026-06-18T09:44:56.000Z</time>
        <extensions>
          <ns3:TrackPointExtension>
            <ns3:atemp>20.0</ns3:atemp>
          </ns3:TrackPointExtension>
        </extensions>
      </trkpt>
      <trkpt lat="42.51523786224424839019775390625" lon="19.7687992639839649200439453125">
        <ele>1836.199951171875</ele>
        <time>2026-06-18T09:44:57.000Z</time>
        <extensions>
          <ns3:TrackPointExtension>
            <ns3:atemp>20.0</ns3:atemp>
          </ns3:TrackPointExtension>
        </extensions>
      </trkpt>
      <trkpt lat="42.515239454805850982666015625" lon="19.76881049573421478271484375">
        <ele>1836.4000244140625</ele>
        <time>2026-06-18T09:44:58.000Z</time>
        <extensions>
          <ns3:TrackPointExtension>
            <ns3:atemp>20.0</ns3:atemp>
          </ns3:TrackPointExtension>
        </extensions>
      </trkpt>
      <trkpt lat="42.51523903571069240570068359375" lon="19.7688217274844646453857421875">
        <ele>1836.4000244140625</ele>
        <time>2026-06-18T09:44:59.000Z</time>
        <extensions>
          <ns3:TrackPointExtension>
            <ns3:atemp>20.0</ns3:atemp>
          </ns3:TrackPointExtension>
        </extensions>
      </trkpt>
      <trkpt lat="42.51523585058748722076416015625" lon="19.768834970891475677490234375">
        <ele>1836.5999755859375</ele>
        <time>2026-06-18T09:45:00.000Z</time>
        <extensions>
          <ns3:TrackPointExtension>
            <ns3:atemp>20.0</ns3:atemp>
          </ns3:TrackPointExtension>
        </extensions>
      </trkpt>
      <trkpt lat="42.5152349285781383514404296875" lon="19.76884561590850353240966796875">
        <ele>1836.800048828125</ele>
        <time>2026-06-18T09:45:01.000Z</time>
        <extensions>
          <ns3:TrackPointExtension>
            <ns3:atemp>20.0</ns3:atemp>
          </ns3:TrackPointExtension>
        </extensions>
      </trkpt>
      <trkpt lat="42.5152366049587726593017578125" lon="19.768847711384296417236328125">
        <ele>1836.800048828125</ele>
        <time>2026-06-18T09:45:02.000Z</time>
        <extensions>
          <ns3:TrackPointExtension>
            <ns3:atemp>20.0</ns3:atemp>
          </ns3:TrackPointExtension>
        </extensions>
      </trkpt>
      <trkpt lat="42.5152366049587726593017578125" lon="19.768847711384296417236328125">
        <ele>1837</ele>
        <time>2026-06-18T09:45:03.000Z</time>
        <extensions>
          <ns3:TrackPointExtension>
            <ns3:atemp>20.0</ns3:atemp>
          </ns3:TrackPointExtension>
        </extensions>
      </trkpt>
      <trkpt lat="42.5152366049587726593017578125" lon="19.768847711384296417236328125">
        <ele>1837</ele>
        <time>2026-06-18T09:45:04.000Z</time>
        <extensions>
          <ns3:TrackPointExtension>
            <ns3:atemp>20.0</ns3:atemp>
          </ns3:TrackPointExtension>
        </extensions>
      </trkpt>
      <trkpt lat="42.5152366049587726593017578125" lon="19.768847711384296417236328125">
        <ele>1837</ele>
        <time>2026-06-18T09:45:05.000Z</time>
        <extensions>
          <ns3:TrackPointExtension>
            <ns3:atemp>20.0</ns3:atemp>
          </ns3:TrackPointExtension>
        </extensions>
      </trkpt>
      <trkpt lat="42.5152366049587726593017578125" lon="19.768847711384296417236328125">
        <ele>1837.199951171875</ele>
        <time>2026-06-18T09:45:06.000Z</time>
        <extensions>
          <ns3:TrackPointExtension>
            <ns3:atemp>20.0</ns3:atemp>
          </ns3:TrackPointExtension>
        </extensions>
      </trkpt>
      <trkpt lat="42.515236437320709228515625" lon="19.76884796284139156341552734375">
        <ele>1837.199951171875</ele>
        <time>2026-06-18T09:45:07.000Z</time>
        <extensions>
          <ns3:TrackPointExtension>
            <ns3:atemp>20.0</ns3:atemp>
          </ns3:TrackPointExtension>
        </extensions>
      </trkpt>
      <trkpt lat="42.515233419835567474365234375" lon="19.768859781324863433837890625">
        <ele>1837.199951171875</ele>
        <time>2026-06-18T09:45:08.000Z</time>
        <extensions>
          <ns3:TrackPointExtension>
            <ns3:atemp>20.0</ns3:atemp>
          </ns3:TrackPointExtension>
        </extensions>
      </trkpt>
      <trkpt lat="42.515232078731060028076171875" lon="19.76886992342770099639892578125">
        <ele>1837.199951171875</ele>
        <time>2026-06-18T09:45:09.000Z</time>
        <extensions>
          <ns3:TrackPointExtension>
            <ns3:atemp>20.0</ns3:atemp>
          </ns3:TrackPointExtension>
        </extensions>
      </trkpt>
      <trkpt lat="42.51523065380752086639404296875" lon="19.768879227340221405029296875">
        <ele>1837.199951171875</ele>
        <time>2026-06-18T09:45:10.000Z</time>
        <extensions>
          <ns3:TrackPointExtension>
            <ns3:atemp>20.0</ns3:atemp>
          </ns3:TrackPointExtension>
        </extensions>
      </trkpt>
      <trkpt lat="42.515229396522045135498046875" lon="19.76888232864439487457275390625">
        <ele>1837.4000244140625</ele>
        <time>2026-06-18T09:45:11.000Z</time>
        <extensions>
          <ns3:TrackPointExtension>
            <ns3:atemp>20.0</ns3:atemp>
          </ns3:TrackPointExtension>
        </extensions>
      </trkpt>
      <trkpt lat="42.515229396522045135498046875" lon="19.7688824124634265899658203125">
        <ele>1837.4000244140625</ele>
        <time>2026-06-18T09:45:12.000Z</time>
        <extensions>
          <ns3:TrackPointExtension>
            <ns3:atemp>20.0</ns3:atemp>
          </ns3:TrackPointExtension>
        </extensions>
      </trkpt>
      <trkpt lat="42.51522948034107685089111328125" lon="19.76888249628245830535888671875">
        <ele>1837.5999755859375</ele>
        <time>2026-06-18T09:45:13.000Z</time>
        <extensions>
          <ns3:TrackPointExtension>
            <ns3:atemp>20.0</ns3:atemp>
          </ns3:TrackPointExtension>
        </extensions>
      </trkpt>
      <trkpt lat="42.5152288936078548431396484375" lon="19.7688985057175159454345703125">
        <ele>1837.5999755859375</ele>
        <time>2026-06-18T09:45:14.000Z</time>
        <extensions>
          <ns3:TrackPointExtension>
            <ns3:atemp>20.0</ns3:atemp>
          </ns3:TrackPointExtension>
        </extensions>
      </trkpt>
      <trkpt lat="42.51522713340818881988525390625" lon="19.7689105756580829620361328125">
        <ele>1837.800048828125</ele>
        <time>2026-06-18T09:45:15.000Z</time>
        <extensions>
          <ns3:TrackPointExtension>
            <ns3:atemp>20.0</ns3:atemp>
          </ns3:TrackPointExtension>
        </extensions>
      </trkpt>
      <trkpt lat="42.515224702656269073486328125" lon="19.768924154341220855712890625">
        <ele>1837.800048828125</ele>
        <time>2026-06-18T09:45:16.000Z</time>
        <extensions>
          <ns3:TrackPointExtension>
            <ns3:atemp>20.0</ns3:atemp>
          </ns3:TrackPointExtension>
        </extensions>
      </trkpt>
      <trkpt lat="42.5152218528091907501220703125" lon="19.76894368417561054229736328125">
        <ele>1838</ele>
        <time>2026-06-18T09:45:17.000Z</time>
        <extensions>
          <ns3:TrackPointExtension>
            <ns3:atemp>20.0</ns3:atemp>
          </ns3:TrackPointExtension>
        </extensions>
      </trkpt>
      <trkpt lat="42.5152164883911609649658203125" lon="19.768966734409332275390625">
        <ele>1838.199951171875</ele>
        <time>2026-06-18T09:45:18.000Z</time>
        <extensions>
          <ns3:TrackPointExtension>
            <ns3:atemp>19.0</ns3:atemp>
          </ns3:TrackPointExtension>
        </extensions>
      </trkpt>
      <trkpt lat="42.51520626246929168701171875" lon="19.7689813189208507537841796875">
        <ele>1838.4000244140625</ele>
        <time>2026-06-18T09:45:19.000Z</time>
        <extensions>
          <ns3:TrackPointExtension>
            <ns3:atemp>20.0</ns3:atemp>
          </ns3:TrackPointExtension>
        </extensions>
      </trkpt>
      <trkpt lat="42.51519796438515186309814453125" lon="19.768993221223354339599609375">
        <ele>1838.800048828125</ele>
        <time>2026-06-18T09:45:20.000Z</time>
        <extensions>
          <ns3:TrackPointExtension>
            <ns3:atemp>20.0</ns3:atemp>
          </ns3:TrackPointExtension>
        </extensions>
      </trkpt>
      <trkpt lat="42.51519477926194667816162109375" lon="19.768999926745891571044921875">
        <ele>1839</ele>
        <time>2026-06-18T09:45:21.000Z</time>
        <extensions>
          <ns3:TrackPointExtension>
            <ns3:atemp>20.0</ns3:atemp>
          </ns3:TrackPointExtension>
        </extensions>
      </trkpt>
      <trkpt lat="42.51519477926194667816162109375" lon="19.768999926745891571044921875">
        <ele>1839.4000244140625</ele>
        <time>2026-06-18T09:45:22.000Z</time>
        <extensions>
          <ns3:TrackPointExtension>
            <ns3:atemp>19.0</ns3:atemp>
          </ns3:TrackPointExtension>
        </extensions>
      </trkpt>
      <trkpt lat="42.51519477926194667816162109375" lon="19.768999926745891571044921875">
        <ele>1839.800048828125</ele>
        <time>2026-06-18T09:45:23.000Z</time>
        <extensions>
          <ns3:TrackPointExtension>
            <ns3:atemp>19.0</ns3:atemp>
          </ns3:TrackPointExtension>
        </extensions>
      </trkpt>
      <trkpt lat="42.51519477926194667816162109375" lon="19.768999926745891571044921875">
        <ele>1840.4000244140625</ele>
        <time>2026-06-18T09:45:24.000Z</time>
        <extensions>
          <ns3:TrackPointExtension>
            <ns3:atemp>19.0</ns3:atemp>
          </ns3:TrackPointExtension>
        </extensions>
      </trkpt>
      <trkpt lat="42.51519477926194667816162109375" lon="19.768999926745891571044921875">
        <ele>1840.5999755859375</ele>
        <time>2026-06-18T09:45:25.000Z</time>
        <extensions>
          <ns3:TrackPointExtension>
            <ns3:atemp>19.0</ns3:atemp>
          </ns3:TrackPointExtension>
        </extensions>
      </trkpt>
      <trkpt lat="42.51519477926194667816162109375" lon="19.768999926745891571044921875">
        <ele>1840.800048828125</ele>
        <time>2026-06-18T09:45:26.000Z</time>
        <extensions>
          <ns3:TrackPointExtension>
            <ns3:atemp>19.0</ns3:atemp>
          </ns3:TrackPointExtension>
        </extensions>
      </trkpt>
      <trkpt lat="42.51519477926194667816162109375" lon="19.768999926745891571044921875">
        <ele>1840.800048828125</ele>
        <time>2026-06-18T09:45:27.000Z</time>
        <extensions>
          <ns3:TrackPointExtension>
            <ns3:atemp>19.0</ns3:atemp>
          </ns3:TrackPointExtension>
        </extensions>
      </trkpt>
      <trkpt lat="42.51519477926194667816162109375" lon="19.768999926745891571044921875">
        <ele>1840.800048828125</ele>
        <time>2026-06-18T09:45:28.000Z</time>
        <extensions>
          <ns3:TrackPointExtension>
            <ns3:atemp>19.0</ns3:atemp>
          </ns3:TrackPointExtension>
        </extensions>
      </trkpt>
      <trkpt lat="42.51519477926194667816162109375" lon="19.768999926745891571044921875">
        <ele>1840.800048828125</ele>
        <time>2026-06-18T09:45:29.000Z</time>
        <extensions>
          <ns3:TrackPointExtension>
            <ns3:atemp>19.0</ns3:atemp>
          </ns3:TrackPointExtension>
        </extensions>
      </trkpt>
      <trkpt lat="42.51519477926194667816162109375" lon="19.768999926745891571044921875">
        <ele>1840.800048828125</ele>
        <time>2026-06-18T09:45:30.000Z</time>
        <extensions>
          <ns3:TrackPointExtension>
            <ns3:atemp>19.0</ns3:atemp>
          </ns3:TrackPointExtension>
        </extensions>
      </trkpt>
      <trkpt lat="42.51519477926194667816162109375" lon="19.768999926745891571044921875">
        <ele>1840.800048828125</ele>
        <time>2026-06-18T09:45:31.000Z</time>
        <extensions>
          <ns3:TrackPointExtension>
            <ns3:atemp>19.0</ns3:atemp>
          </ns3:TrackPointExtension>
        </extensions>
      </trkpt>
      <trkpt lat="42.51519477926194667816162109375" lon="19.768999926745891571044921875">
        <ele>1840.800048828125</ele>
        <time>2026-06-18T09:45:32.000Z</time>
        <extensions>
          <ns3:TrackPointExtension>
            <ns3:atemp>19.0</ns3:atemp>
          </ns3:TrackPointExtension>
        </extensions>
      </trkpt>
      <trkpt lat="42.51519477926194667816162109375" lon="19.768999926745891571044921875">
        <ele>1840.800048828125</ele>
        <time>2026-06-18T09:45:33.000Z</time>
        <extensions>
          <ns3:TrackPointExtension>
            <ns3:atemp>19.0</ns3:atemp>
          </ns3:TrackPointExtension>
        </extensions>
      </trkpt>
      <trkpt lat="42.51519477926194667816162109375" lon="19.768999926745891571044921875">
        <ele>1840.800048828125</ele>
        <time>2026-06-18T09:45:34.000Z</time>
        <extensions>
          <ns3:TrackPointExtension>
            <ns3:atemp>19.0</ns3:atemp>
          </ns3:TrackPointExtension>
        </extensions>
      </trkpt>
      <trkpt lat="42.51519477926194667816162109375" lon="19.768999926745891571044921875">
        <ele>1841</ele>
        <time>2026-06-18T09:45:35.000Z</time>
        <extensions>
          <ns3:TrackPointExtension>
            <ns3:atemp>19.0</ns3:atemp>
          </ns3:TrackPointExtension>
        </extensions>
      </trkpt>
      <trkpt lat="42.51519477926194667816162109375" lon="19.768999926745891571044921875">
        <ele>1841</ele>
        <time>2026-06-18T09:45:36.000Z</time>
        <extensions>
          <ns3:TrackPointExtension>
            <ns3:atemp>19.0</ns3:atemp>
          </ns3:TrackPointExtension>
        </extensions>
      </trkpt>
      <trkpt lat="42.51519477926194667816162109375" lon="19.768999926745891571044921875">
        <ele>1840.800048828125</ele>
        <time>2026-06-18T09:45:37.000Z</time>
        <extensions>
          <ns3:TrackPointExtension>
            <ns3:atemp>19.0</ns3:atemp>
          </ns3:TrackPointExtension>
        </extensions>
      </trkpt>
      <trkpt lat="42.51519477926194667816162109375" lon="19.768999926745891571044921875">
        <ele>1840.800048828125</ele>
        <time>2026-06-18T09:45:38.000Z</time>
        <extensions>
          <ns3:TrackPointExtension>
            <ns3:atemp>19.0</ns3:atemp>
          </ns3:TrackPointExtension>
        </extensions>
      </trkpt>
      <trkpt lat="42.51519477926194667816162109375" lon="19.768999926745891571044921875">
        <ele>1840.800048828125</ele>
        <time>2026-06-18T09:45:39.000Z</time>
        <extensions>
          <ns3:TrackPointExtension>
            <ns3:atemp>19.0</ns3:atemp>
          </ns3:TrackPointExtension>
        </extensions>
      </trkpt>
      <trkpt lat="42.51519477926194667816162109375" lon="19.768999926745891571044921875">
        <ele>1840.800048828125</ele>
        <time>2026-06-18T09:45:40.000Z</time>
        <extensions>
          <ns3:TrackPointExtension>
            <ns3:atemp>19.0</ns3:atemp>
          </ns3:TrackPointExtension>
        </extensions>
      </trkpt>
      <trkpt lat="42.51519477926194667816162109375" lon="19.768999926745891571044921875">
        <ele>1840.800048828125</ele>
        <time>2026-06-18T09:45:41.000Z</time>
        <extensions>
          <ns3:TrackPointExtension>
            <ns3:atemp>19.0</ns3:atemp>
          </ns3:TrackPointExtension>
        </extensions>
      </trkpt>
      <trkpt lat="42.51519477926194667816162109375" lon="19.768999926745891571044921875">
        <ele>1840.5999755859375</ele>
        <time>2026-06-18T09:45:42.000Z</time>
        <extensions>
          <ns3:TrackPointExtension>
            <ns3:atemp>19.0</ns3:atemp>
          </ns3:TrackPointExtension>
        </extensions>
      </trkpt>
      <trkpt lat="42.51519477926194667816162109375" lon="19.768999926745891571044921875">
        <ele>1840.5999755859375</ele>
        <time>2026-06-18T09:45:43.000Z</time>
        <extensions>
          <ns3:TrackPointExtension>
            <ns3:atemp>19.0</ns3:atemp>
          </ns3:TrackPointExtension>
        </extensions>
      </trkpt>
      <trkpt lat="42.51519477926194667816162109375" lon="19.768999926745891571044921875">
        <ele>1840.5999755859375</ele>
        <time>2026-06-18T09:45:44.000Z</time>
        <extensions>
          <ns3:TrackPointExtension>
            <ns3:atemp>19.0</ns3:atemp>
          </ns3:TrackPointExtension>
        </extensions>
      </trkpt>
      <trkpt lat="42.51519477926194667816162109375" lon="19.768999926745891571044921875">
        <ele>1840.4000244140625</ele>
        <time>2026-06-18T09:45:45.000Z</time>
        <extensions>
          <ns3:TrackPointExtension>
            <ns3:atemp>19.0</ns3:atemp>
          </ns3:TrackPointExtension>
        </extensions>
      </trkpt>
      <trkpt lat="42.51519477926194667816162109375" lon="19.768999926745891571044921875">
        <ele>1840.4000244140625</ele>
        <time>2026-06-18T09:45:46.000Z</time>
        <extensions>
          <ns3:TrackPointExtension>
            <ns3:atemp>19.0</ns3:atemp>
          </ns3:TrackPointExtension>
        </extensions>
      </trkpt>
      <trkpt lat="42.51519477926194667816162109375" lon="19.768999926745891571044921875">
        <ele>1840.199951171875</ele>
        <time>2026-06-18T09:45:47.000Z</time>
        <extensions>
          <ns3:TrackPointExtension>
            <ns3:atemp>19.0</ns3:atemp>
          </ns3:TrackPointExtension>
        </extensions>
      </trkpt>
      <trkpt lat="42.51519477926194667816162109375" lon="19.768999926745891571044921875">
        <ele>1840.199951171875</ele>
        <time>2026-06-18T09:45:48.000Z</time>
        <extensions>
          <ns3:TrackPointExtension>
            <ns3:atemp>19.0</ns3:atemp>
          </ns3:TrackPointExtension>
        </extensions>
      </trkpt>
      <trkpt lat="42.51519477926194667816162109375" lon="19.768999926745891571044921875">
        <ele>1840.199951171875</ele>
        <time>2026-06-18T09:45:49.000Z</time>
        <extensions>
          <ns3:TrackPointExtension>
            <ns3:atemp>19.0</ns3:atemp>
          </ns3:TrackPointExtension>
        </extensions>
      </trkpt>
      <trkpt lat="42.51519477926194667816162109375" lon="19.768999926745891571044921875">
        <ele>1840</ele>
        <time>2026-06-18T09:45:50.000Z</time>
        <extensions>
          <ns3:TrackPointExtension>
            <ns3:atemp>19.0</ns3:atemp>
          </ns3:TrackPointExtension>
        </extensions>
      </trkpt>
      <trkpt lat="42.51519477926194667816162109375" lon="19.768999926745891571044921875">
        <ele>1840</ele>
        <time>2026-06-18T09:45:51.000Z</time>
        <extensions>
          <ns3:TrackPointExtension>
            <ns3:atemp>19.0</ns3:atemp>
          </ns3:TrackPointExtension>
        </extensions>
      </trkpt>
      <trkpt lat="42.51519477926194667816162109375" lon="19.768999926745891571044921875">
        <ele>1840</ele>
        <time>2026-06-18T09:45:52.000Z</time>
        <extensions>
          <ns3:TrackPointExtension>
            <ns3:atemp>19.0</ns3:atemp>
          </ns3:TrackPointExtension>
        </extensions>
      </trkpt>
      <trkpt lat="42.51519477926194667816162109375" lon="19.768999926745891571044921875">
        <ele>1840</ele>
        <time>2026-06-18T09:45:53.000Z</time>
        <extensions>
          <ns3:TrackPointExtension>
            <ns3:atemp>19.0</ns3:atemp>
          </ns3:TrackPointExtension>
        </extensions>
      </trkpt>
      <trkpt lat="42.51519477926194667816162109375" lon="19.768999926745891571044921875">
        <ele>1840</ele>
        <time>2026-06-18T09:45:54.000Z</time>
        <extensions>
          <ns3:TrackPointExtension>
            <ns3:atemp>19.0</ns3:atemp>
          </ns3:TrackPointExtension>
        </extensions>
      </trkpt>
      <trkpt lat="42.51519477926194667816162109375" lon="19.768999926745891571044921875">
        <ele>1839.800048828125</ele>
        <time>2026-06-18T09:45:55.000Z</time>
        <extensions>
          <ns3:TrackPointExtension>
            <ns3:atemp>19.0</ns3:atemp>
          </ns3:TrackPointExtension>
        </extensions>
      </trkpt>
      <trkpt lat="42.51519477926194667816162109375" lon="19.768999926745891571044921875">
        <ele>1839.800048828125</ele>
        <time>2026-06-18T09:45:56.000Z</time>
        <extensions>
          <ns3:TrackPointExtension>
            <ns3:atemp>19.0</ns3:atemp>
          </ns3:TrackPointExtension>
        </extensions>
      </trkpt>
      <trkpt lat="42.51519477926194667816162109375" lon="19.768999926745891571044921875">
        <ele>1839.800048828125</ele>
        <time>2026-06-18T09:45:57.000Z</time>
        <extensions>
          <ns3:TrackPointExtension>
            <ns3:atemp>19.0</ns3:atemp>
          </ns3:TrackPointExtension>
        </extensions>
      </trkpt>
      <trkpt lat="42.51519477926194667816162109375" lon="19.768999926745891571044921875">
        <ele>1839.5999755859375</ele>
        <time>2026-06-18T09:45:58.000Z</time>
        <extensions>
          <ns3:TrackPointExtension>
            <ns3:atemp>19.0</ns3:atemp>
          </ns3:TrackPointExtension>
        </extensions>
      </trkpt>
      <trkpt lat="42.51519477926194667816162109375" lon="19.768999926745891571044921875">
        <ele>1839.4000244140625</ele>
        <time>2026-06-18T09:45:59.000Z</time>
        <extensions>
          <ns3:TrackPointExtension>
            <ns3:atemp>19.0</ns3:atemp>
          </ns3:TrackPointExtension>
        </extensions>
      </trkpt>
      <trkpt lat="42.51519477926194667816162109375" lon="19.768999926745891571044921875">
        <ele>1839.4000244140625</ele>
        <time>2026-06-18T09:46:00.000Z</time>
        <extensions>
          <ns3:TrackPointExtension>
            <ns3:atemp>19.0</ns3:atemp>
          </ns3:TrackPointExtension>
        </extensions>
      </trkpt>
      <trkpt lat="42.51519477926194667816162109375" lon="19.768999926745891571044921875">
        <ele>1839.199951171875</ele>
        <time>2026-06-18T09:46:01.000Z</time>
        <extensions>
          <ns3:TrackPointExtension>
            <ns3:atemp>19.0</ns3:atemp>
          </ns3:TrackPointExtension>
        </extensions>
      </trkpt>
      <trkpt lat="42.51519477926194667816162109375" lon="19.768999926745891571044921875">
        <ele>1839</ele>
        <time>2026-06-18T09:46:02.000Z</time>
        <extensions>
          <ns3:TrackPointExtension>
            <ns3:atemp>19.0</ns3:atemp>
          </ns3:TrackPointExtension>
        </extensions>
      </trkpt>
      <trkpt lat="42.51519477926194667816162109375" lon="19.768999926745891571044921875">
        <ele>1839</ele>
        <time>2026-06-18T09:46:03.000Z</time>
        <extensions>
          <ns3:TrackPointExtension>
            <ns3:atemp>19.0</ns3:atemp>
          </ns3:TrackPointExtension>
        </extensions>
      </trkpt>
      <trkpt lat="42.51519477926194667816162109375" lon="19.768999926745891571044921875">
        <ele>1838.800048828125</ele>
        <time>2026-06-18T09:46:04.000Z</time>
        <extensions>
          <ns3:TrackPointExtension>
            <ns3:atemp>19.0</ns3:atemp>
          </ns3:TrackPointExtension>
        </extensions>
      </trkpt>
      <trkpt lat="42.51519477926194667816162109375" lon="19.768999926745891571044921875">
        <ele>1838.800048828125</ele>
        <time>2026-06-18T09:46:05.000Z</time>
        <extensions>
          <ns3:TrackPointExtension>
            <ns3:atemp>19.0</ns3:atemp>
          </ns3:TrackPointExtension>
        </extensions>
      </trkpt>
      <trkpt lat="42.51519477926194667816162109375" lon="19.768999926745891571044921875">
        <ele>1838.5999755859375</ele>
        <time>2026-06-18T09:46:06.000Z</time>
        <extensions>
          <ns3:TrackPointExtension>
            <ns3:atemp>19.0</ns3:atemp>
          </ns3:TrackPointExtension>
        </extensions>
      </trkpt>
      <trkpt lat="42.51519477926194667816162109375" lon="19.768999926745891571044921875">
        <ele>1838.5999755859375</ele>
        <time>2026-06-18T09:46:07.000Z</time>
        <extensions>
          <ns3:TrackPointExtension>
            <ns3:atemp>19.0</ns3:atemp>
          </ns3:TrackPointExtension>
        </extensions>
      </trkpt>
      <trkpt lat="42.51519477926194667816162109375" lon="19.768999926745891571044921875">
        <ele>1838.4000244140625</ele>
        <time>2026-06-18T09:46:08.000Z</time>
        <extensions>
          <ns3:TrackPointExtension>
            <ns3:atemp>19.0</ns3:atemp>
          </ns3:TrackPointExtension>
        </extensions>
      </trkpt>
      <trkpt lat="42.51519477926194667816162109375" lon="19.768999926745891571044921875">
        <ele>1838.4000244140625</ele>
        <time>2026-06-18T09:46:09.000Z</time>
        <extensions>
          <ns3:TrackPointExtension>
            <ns3:atemp>19.0</ns3:atemp>
          </ns3:TrackPointExtension>
        </extensions>
      </trkpt>
      <trkpt lat="42.51519477926194667816162109375" lon="19.768999926745891571044921875">
        <ele>1838.199951171875</ele>
        <time>2026-06-18T09:46:10.000Z</time>
        <extensions>
          <ns3:TrackPointExtension>
            <ns3:atemp>19.0</ns3:atemp>
          </ns3:TrackPointExtension>
        </extensions>
      </trkpt>
      <trkpt lat="42.51519477926194667816162109375" lon="19.768999926745891571044921875">
        <ele>1838.199951171875</ele>
        <time>2026-06-18T09:46:11.000Z</time>
        <extensions>
          <ns3:TrackPointExtension>
            <ns3:atemp>19.0</ns3:atemp>
          </ns3:TrackPointExtension>
        </extensions>
      </trkpt>
      <trkpt lat="42.51519477926194667816162109375" lon="19.768999926745891571044921875">
        <ele>1838</ele>
        <time>2026-06-18T09:46:12.000Z</time>
        <extensions>
          <ns3:TrackPointExtension>
            <ns3:atemp>19.0</ns3:atemp>
          </ns3:TrackPointExtension>
        </extensions>
      </trkpt>
      <trkpt lat="42.51519477926194667816162109375" lon="19.768999926745891571044921875">
        <ele>1838</ele>
        <time>2026-06-18T09:46:13.000Z</time>
        <extensions>
          <ns3:TrackPointExtension>
            <ns3:atemp>19.0</ns3:atemp>
          </ns3:TrackPointExtension>
        </extensions>
      </trkpt>
      <trkpt lat="42.51519477926194667816162109375" lon="19.768999926745891571044921875">
        <ele>1838</ele>
        <time>2026-06-18T09:46:14.000Z</time>
        <extensions>
          <ns3:TrackPointExtension>
            <ns3:atemp>19.0</ns3:atemp>
          </ns3:TrackPointExtension>
        </extensions>
      </trkpt>
      <trkpt lat="42.51519477926194667816162109375" lon="19.768999926745891571044921875">
        <ele>1838</ele>
        <time>2026-06-18T09:46:15.000Z</time>
        <extensions>
          <ns3:TrackPointExtension>
            <ns3:atemp>19.0</ns3:atemp>
          </ns3:TrackPointExtension>
        </extensions>
      </trkpt>
      <trkpt lat="42.51519477926194667816162109375" lon="19.768999926745891571044921875">
        <ele>1838.199951171875</ele>
        <time>2026-06-18T09:46:16.000Z</time>
        <extensions>
          <ns3:TrackPointExtension>
            <ns3:atemp>19.0</ns3:atemp>
          </ns3:TrackPointExtension>
        </extensions>
      </trkpt>
      <trkpt lat="42.51519477926194667816162109375" lon="19.768999926745891571044921875">
        <ele>1838.199951171875</ele>
        <time>2026-06-18T09:46:17.000Z</time>
        <extensions>
          <ns3:TrackPointExtension>
            <ns3:atemp>19.0</ns3:atemp>
          </ns3:TrackPointExtension>
        </extensions>
      </trkpt>
      <trkpt lat="42.51519477926194667816162109375" lon="19.768999926745891571044921875">
        <ele>1838.199951171875</ele>
        <time>2026-06-18T09:46:18.000Z</time>
        <extensions>
          <ns3:TrackPointExtension>
            <ns3:atemp>19.0</ns3:atemp>
          </ns3:TrackPointExtension>
        </extensions>
      </trkpt>
      <trkpt lat="42.51519477926194667816162109375" lon="19.768999926745891571044921875">
        <ele>1838.199951171875</ele>
        <time>2026-06-18T09:46:19.000Z</time>
        <extensions>
          <ns3:TrackPointExtension>
            <ns3:atemp>19.0</ns3:atemp>
          </ns3:TrackPointExtension>
        </extensions>
      </trkpt>
      <trkpt lat="42.51519477926194667816162109375" lon="19.768999926745891571044921875">
        <ele>1838.199951171875</ele>
        <time>2026-06-18T09:46:20.000Z</time>
        <extensions>
          <ns3:TrackPointExtension>
            <ns3:atemp>19.0</ns3:atemp>
          </ns3:TrackPointExtension>
        </extensions>
      </trkpt>
      <trkpt lat="42.51519477926194667816162109375" lon="19.768999926745891571044921875">
        <ele>1838.199951171875</ele>
        <time>2026-06-18T09:46:21.000Z</time>
        <extensions>
          <ns3:TrackPointExtension>
            <ns3:atemp>19.0</ns3:atemp>
          </ns3:TrackPointExtension>
        </extensions>
      </trkpt>
      <trkpt lat="42.51519477926194667816162109375" lon="19.768999926745891571044921875">
        <ele>1838.199951171875</ele>
        <time>2026-06-18T09:46:22.000Z</time>
        <extensions>
          <ns3:TrackPointExtension>
            <ns3:atemp>19.0</ns3:atemp>
          </ns3:TrackPointExtension>
        </extensions>
      </trkpt>
      <trkpt lat="42.51519477926194667816162109375" lon="19.768999926745891571044921875">
        <ele>1838.199951171875</ele>
        <time>2026-06-18T09:46:23.000Z</time>
        <extensions>
          <ns3:TrackPointExtension>
            <ns3:atemp>19.0</ns3:atemp>
          </ns3:TrackPointExtension>
        </extensions>
      </trkpt>
      <trkpt lat="42.51519477926194667816162109375" lon="19.768999926745891571044921875">
        <ele>1838.199951171875</ele>
        <time>2026-06-18T09:46:24.000Z</time>
        <extensions>
          <ns3:TrackPointExtension>
            <ns3:atemp>19.0</ns3:atemp>
          </ns3:TrackPointExtension>
        </extensions>
      </trkpt>
      <trkpt lat="42.51519477926194667816162109375" lon="19.768999926745891571044921875">
        <ele>1838.199951171875</ele>
        <time>2026-06-18T09:46:25.000Z</time>
        <extensions>
          <ns3:TrackPointExtension>
            <ns3:atemp>19.0</ns3:atemp>
          </ns3:TrackPointExtension>
        </extensions>
      </trkpt>
      <trkpt lat="42.51519477926194667816162109375" lon="19.768999926745891571044921875">
        <ele>1838.199951171875</ele>
        <time>2026-06-18T09:46:26.000Z</time>
        <extensions>
          <ns3:TrackPointExtension>
            <ns3:atemp>19.0</ns3:atemp>
          </ns3:TrackPointExtension>
        </extensions>
      </trkpt>
      <trkpt lat="42.51519477926194667816162109375" lon="19.768999926745891571044921875">
        <ele>1838.199951171875</ele>
        <time>2026-06-18T09:46:27.000Z</time>
        <extensions>
          <ns3:TrackPointExtension>
            <ns3:atemp>19.0</ns3:atemp>
          </ns3:TrackPointExtension>
        </extensions>
      </trkpt>
      <trkpt lat="42.51519477926194667816162109375" lon="19.768999926745891571044921875">
        <ele>1838.199951171875</ele>
        <time>2026-06-18T09:46:28.000Z</time>
        <extensions>
          <ns3:TrackPointExtension>
            <ns3:atemp>19.0</ns3:atemp>
          </ns3:TrackPointExtension>
        </extensions>
      </trkpt>
      <trkpt lat="42.51519477926194667816162109375" lon="19.768999926745891571044921875">
        <ele>1838.199951171875</ele>
        <time>2026-06-18T09:46:29.000Z</time>
        <extensions>
          <ns3:TrackPointExtension>
            <ns3:atemp>19.0</ns3:atemp>
          </ns3:TrackPointExtension>
        </extensions>
      </trkpt>
      <trkpt lat="42.51519477926194667816162109375" lon="19.768999926745891571044921875">
        <ele>1838.199951171875</ele>
        <time>2026-06-18T09:46:30.000Z</time>
        <extensions>
          <ns3:TrackPointExtension>
            <ns3:atemp>19.0</ns3:atemp>
          </ns3:TrackPointExtension>
        </extensions>
      </trkpt>
      <trkpt lat="42.51519477926194667816162109375" lon="19.768999926745891571044921875">
        <ele>1838</ele>
        <time>2026-06-18T09:46:31.000Z</time>
        <extensions>
          <ns3:TrackPointExtension>
            <ns3:atemp>19.0</ns3:atemp>
          </ns3:TrackPointExtension>
        </extensions>
      </trkpt>
      <trkpt lat="42.51519477926194667816162109375" lon="19.768999926745891571044921875">
        <ele>1838</ele>
        <time>2026-06-18T09:46:32.000Z</time>
        <extensions>
          <ns3:TrackPointExtension>
            <ns3:atemp>19.0</ns3:atemp>
          </ns3:TrackPointExtension>
        </extensions>
      </trkpt>
      <trkpt lat="42.51519477926194667816162109375" lon="19.768999926745891571044921875">
        <ele>1838</ele>
        <time>2026-06-18T09:46:33.000Z</time>
        <extensions>
          <ns3:TrackPointExtension>
            <ns3:atemp>19.0</ns3:atemp>
          </ns3:TrackPointExtension>
        </extensions>
      </trkpt>
      <trkpt lat="42.51519477926194667816162109375" lon="19.768999926745891571044921875">
        <ele>1837.800048828125</ele>
        <time>2026-06-18T09:46:34.000Z</time>
        <extensions>
          <ns3:TrackPointExtension>
            <ns3:atemp>19.0</ns3:atemp>
          </ns3:TrackPointExtension>
        </extensions>
      </trkpt>
      <trkpt lat="42.51519477926194667816162109375" lon="19.768999926745891571044921875">
        <ele>1837.800048828125</ele>
        <time>2026-06-18T09:46:35.000Z</time>
        <extensions>
          <ns3:TrackPointExtension>
            <ns3:atemp>19.0</ns3:atemp>
          </ns3:TrackPointExtension>
        </extensions>
      </trkpt>
      <trkpt lat="42.51519477926194667816162109375" lon="19.768999926745891571044921875">
        <ele>1837.800048828125</ele>
        <time>2026-06-18T09:46:36.000Z</time>
        <extensions>
          <ns3:TrackPointExtension>
            <ns3:atemp>19.0</ns3:atemp>
          </ns3:TrackPointExtension>
        </extensions>
      </trkpt>
      <trkpt lat="42.51519477926194667816162109375" lon="19.768999926745891571044921875">
        <ele>1837.800048828125</ele>
        <time>2026-06-18T09:46:37.000Z</time>
        <extensions>
          <ns3:TrackPointExtension>
            <ns3:atemp>19.0</ns3:atemp>
          </ns3:TrackPointExtension>
        </extensions>
      </trkpt>
      <trkpt lat="42.51519477926194667816162109375" lon="19.768999926745891571044921875">
        <ele>1837.800048828125</ele>
        <time>2026-06-18T09:46:38.000Z</time>
        <extensions>
          <ns3:TrackPointExtension>
            <ns3:atemp>19.0</ns3:atemp>
          </ns3:TrackPointExtension>
        </extensions>
      </trkpt>
      <trkpt lat="42.51519477926194667816162109375" lon="19.768999926745891571044921875">
        <ele>1837.5999755859375</ele>
        <time>2026-06-18T09:46:39.000Z</time>
        <extensions>
          <ns3:TrackPointExtension>
            <ns3:atemp>19.0</ns3:atemp>
          </ns3:TrackPointExtension>
        </extensions>
      </trkpt>
      <trkpt lat="42.51519477926194667816162109375" lon="19.768999926745891571044921875">
        <ele>1837.5999755859375</ele>
        <time>2026-06-18T09:46:40.000Z</time>
        <extensions>
          <ns3:TrackPointExtension>
            <ns3:atemp>19.0</ns3:atemp>
          </ns3:TrackPointExtension>
        </extensions>
      </trkpt>
      <trkpt lat="42.51519477926194667816162109375" lon="19.768999926745891571044921875">
        <ele>1837.5999755859375</ele>
        <time>2026-06-18T09:46:41.000Z</time>
        <extensions>
          <ns3:TrackPointExtension>
            <ns3:atemp>19.0</ns3:atemp>
          </ns3:TrackPointExtension>
        </extensions>
      </trkpt>
      <trkpt lat="42.51519477926194667816162109375" lon="19.768999926745891571044921875">
        <ele>1837.5999755859375</ele>
        <time>2026-06-18T09:46:42.000Z</time>
        <extensions>
          <ns3:TrackPointExtension>
            <ns3:atemp>19.0</ns3:atemp>
          </ns3:TrackPointExtension>
        </extensions>
      </trkpt>
      <trkpt lat="42.51519477926194667816162109375" lon="19.768999926745891571044921875">
        <ele>1837.5999755859375</ele>
        <time>2026-06-18T09:46:43.000Z</time>
        <extensions>
          <ns3:TrackPointExtension>
            <ns3:atemp>19.0</ns3:atemp>
          </ns3:TrackPointExtension>
        </extensions>
      </trkpt>
      <trkpt lat="42.51519477926194667816162109375" lon="19.768999926745891571044921875">
        <ele>1837.5999755859375</ele>
        <time>2026-06-18T09:46:44.000Z</time>
        <extensions>
          <ns3:TrackPointExtension>
            <ns3:atemp>19.0</ns3:atemp>
          </ns3:TrackPointExtension>
        </extensions>
      </trkpt>
      <trkpt lat="42.51519477926194667816162109375" lon="19.768999926745891571044921875">
        <ele>1837.5999755859375</ele>
        <time>2026-06-18T09:46:45.000Z</time>
        <extensions>
          <ns3:TrackPointExtension>
            <ns3:atemp>19.0</ns3:atemp>
          </ns3:TrackPointExtension>
        </extensions>
      </trkpt>
      <trkpt lat="42.51519477926194667816162109375" lon="19.768999926745891571044921875">
        <ele>1837.5999755859375</ele>
        <time>2026-06-18T09:46:46.000Z</time>
        <extensions>
          <ns3:TrackPointExtension>
            <ns3:atemp>19.0</ns3:atemp>
          </ns3:TrackPointExtension>
        </extensions>
      </trkpt>
      <trkpt lat="42.51519477926194667816162109375" lon="19.768999926745891571044921875">
        <ele>1837.5999755859375</ele>
        <time>2026-06-18T09:46:47.000Z</time>
        <extensions>
          <ns3:TrackPointExtension>
            <ns3:atemp>19.0</ns3:atemp>
          </ns3:TrackPointExtension>
        </extensions>
      </trkpt>
      <trkpt lat="42.51519477926194667816162109375" lon="19.768999926745891571044921875">
        <ele>1837.5999755859375</ele>
        <time>2026-06-18T09:46:48.000Z</time>
        <extensions>
          <ns3:TrackPointExtension>
            <ns3:atemp>19.0</ns3:atemp>
          </ns3:TrackPointExtension>
        </extensions>
      </trkpt>
      <trkpt lat="42.51519477926194667816162109375" lon="19.768999926745891571044921875">
        <ele>1837.5999755859375</ele>
        <time>2026-06-18T09:46:49.000Z</time>
        <extensions>
          <ns3:TrackPointExtension>
            <ns3:atemp>19.0</ns3:atemp>
          </ns3:TrackPointExtension>
        </extensions>
      </trkpt>
      <trkpt lat="42.51519477926194667816162109375" lon="19.768999926745891571044921875">
        <ele>1837.5999755859375</ele>
        <time>2026-06-18T09:46:50.000Z</time>
        <extensions>
          <ns3:TrackPointExtension>
            <ns3:atemp>19.0</ns3:atemp>
          </ns3:TrackPointExtension>
        </extensions>
      </trkpt>
      <trkpt lat="42.51519477926194667816162109375" lon="19.768999926745891571044921875">
        <ele>1837.5999755859375</ele>
        <time>2026-06-18T09:46:51.000Z</time>
        <extensions>
          <ns3:TrackPointExtension>
            <ns3:atemp>19.0</ns3:atemp>
          </ns3:TrackPointExtension>
        </extensions>
      </trkpt>
      <trkpt lat="42.51519477926194667816162109375" lon="19.768999926745891571044921875">
        <ele>1837.5999755859375</ele>
        <time>2026-06-18T09:46:52.000Z</time>
        <extensions>
          <ns3:TrackPointExtension>
            <ns3:atemp>19.0</ns3:atemp>
          </ns3:TrackPointExtension>
        </extensions>
      </trkpt>
      <trkpt lat="42.51519477926194667816162109375" lon="19.768999926745891571044921875">
        <ele>1837.4000244140625</ele>
        <time>2026-06-18T09:46:53.000Z</time>
        <extensions>
          <ns3:TrackPointExtension>
            <ns3:atemp>19.0</ns3:atemp>
          </ns3:TrackPointExtension>
        </extensions>
      </trkpt>
      <trkpt lat="42.51519477926194667816162109375" lon="19.768999926745891571044921875">
        <ele>1837.4000244140625</ele>
        <time>2026-06-18T09:46:54.000Z</time>
        <extensions>
          <ns3:TrackPointExtension>
            <ns3:atemp>19.0</ns3:atemp>
          </ns3:TrackPointExtension>
        </extensions>
      </trkpt>
      <trkpt lat="42.51519477926194667816162109375" lon="19.768999926745891571044921875">
        <ele>1837.4000244140625</ele>
        <time>2026-06-18T09:46:55.000Z</time>
        <extensions>
          <ns3:TrackPointExtension>
            <ns3:atemp>19.0</ns3:atemp>
          </ns3:TrackPointExtension>
        </extensions>
      </trkpt>
      <trkpt lat="42.51519477926194667816162109375" lon="19.768999926745891571044921875">
        <ele>1837.4000244140625</ele>
        <time>2026-06-18T09:46:56.000Z</time>
        <extensions>
          <ns3:TrackPointExtension>
            <ns3:atemp>19.0</ns3:atemp>
          </ns3:TrackPointExtension>
        </extensions>
      </trkpt>
      <trkpt lat="42.515193521976470947265625" lon="19.76900034584105014801025390625">
        <ele>1837.4000244140625</ele>
        <time>2026-06-18T09:46:57.000Z</time>
        <extensions>
          <ns3:TrackPointExtension>
            <ns3:atemp>19.0</ns3:atemp>
          </ns3:TrackPointExtension>
        </extensions>
      </trkpt>
      <trkpt lat="42.51519477926194667816162109375" lon="19.768999926745891571044921875">
        <ele>1837.4000244140625</ele>
        <time>2026-06-18T09:46:58.000Z</time>
        <extensions>
          <ns3:TrackPointExtension>
            <ns3:atemp>19.0</ns3:atemp>
          </ns3:TrackPointExtension>
        </extensions>
      </trkpt>
      <trkpt lat="42.51519477926194667816162109375" lon="19.768999926745891571044921875">
        <ele>1837.4000244140625</ele>
        <time>2026-06-18T09:46:59.000Z</time>
        <extensions>
          <ns3:TrackPointExtension>
            <ns3:atemp>19.0</ns3:atemp>
          </ns3:TrackPointExtension>
        </extensions>
      </trkpt>
      <trkpt lat="42.51519477926194667816162109375" lon="19.768999926745891571044921875">
        <ele>1837.4000244140625</ele>
        <time>2026-06-18T09:47:00.000Z</time>
        <extensions>
          <ns3:TrackPointExtension>
            <ns3:atemp>19.0</ns3:atemp>
          </ns3:TrackPointExtension>
        </extensions>
      </trkpt>
      <trkpt lat="42.51519477926194667816162109375" lon="19.768999926745891571044921875">
        <ele>1837.199951171875</ele>
        <time>2026-06-18T09:47:01.000Z</time>
        <extensions>
          <ns3:TrackPointExtension>
            <ns3:atemp>19.0</ns3:atemp>
          </ns3:TrackPointExtension>
        </extensions>
      </trkpt>
      <trkpt lat="42.51519477926194667816162109375" lon="19.768999926745891571044921875">
        <ele>1837.199951171875</ele>
        <time>2026-06-18T09:47:02.000Z</time>
        <extensions>
          <ns3:TrackPointExtension>
            <ns3:atemp>19.0</ns3:atemp>
          </ns3:TrackPointExtension>
        </extensions>
      </trkpt>
      <trkpt lat="42.51519477926194667816162109375" lon="19.768999926745891571044921875">
        <ele>1837</ele>
        <time>2026-06-18T09:47:03.000Z</time>
        <extensions>
          <ns3:TrackPointExtension>
            <ns3:atemp>19.0</ns3:atemp>
          </ns3:TrackPointExtension>
        </extensions>
      </trkpt>
      <trkpt lat="42.51519477926194667816162109375" lon="19.768999926745891571044921875">
        <ele>1836.800048828125</ele>
        <time>2026-06-18T09:47:04.000Z</time>
        <extensions>
          <ns3:TrackPointExtension>
            <ns3:atemp>19.0</ns3:atemp>
          </ns3:TrackPointExtension>
        </extensions>
      </trkpt>
      <trkpt lat="42.51519477926194667816162109375" lon="19.768999926745891571044921875">
        <ele>1836.800048828125</ele>
        <time>2026-06-18T09:47:05.000Z</time>
        <extensions>
          <ns3:TrackPointExtension>
            <ns3:atemp>19.0</ns3:atemp>
          </ns3:TrackPointExtension>
        </extensions>
      </trkpt>
      <trkpt lat="42.51519477926194667816162109375" lon="19.768999926745891571044921875">
        <ele>1836.5999755859375</ele>
        <time>2026-06-18T09:47:06.000Z</time>
        <extensions>
          <ns3:TrackPointExtension>
            <ns3:atemp>19.0</ns3:atemp>
          </ns3:TrackPointExtension>
        </extensions>
      </trkpt>
      <trkpt lat="42.51519477926194667816162109375" lon="19.768999926745891571044921875">
        <ele>1836.4000244140625</ele>
        <time>2026-06-18T09:47:07.000Z</time>
        <extensions>
          <ns3:TrackPointExtension>
            <ns3:atemp>19.0</ns3:atemp>
          </ns3:TrackPointExtension>
        </extensions>
      </trkpt>
      <trkpt lat="42.51519477926194667816162109375" lon="19.768999926745891571044921875">
        <ele>1836.4000244140625</ele>
        <time>2026-06-18T09:47:08.000Z</time>
        <extensions>
          <ns3:TrackPointExtension>
            <ns3:atemp>19.0</ns3:atemp>
          </ns3:TrackPointExtension>
        </extensions>
      </trkpt>
      <trkpt lat="42.51519477926194667816162109375" lon="19.768999926745891571044921875">
        <ele>1836.4000244140625</ele>
        <time>2026-06-18T09:47:09.000Z</time>
        <extensions>
          <ns3:TrackPointExtension>
            <ns3:atemp>19.0</ns3:atemp>
          </ns3:TrackPointExtension>
        </extensions>
      </trkpt>
      <trkpt lat="42.51519477926194667816162109375" lon="19.768999926745891571044921875">
        <ele>1836.4000244140625</ele>
        <time>2026-06-18T09:47:10.000Z</time>
        <extensions>
          <ns3:TrackPointExtension>
            <ns3:atemp>19.0</ns3:atemp>
          </ns3:TrackPointExtension>
        </extensions>
      </trkpt>
      <trkpt lat="42.51519477926194667816162109375" lon="19.768999926745891571044921875">
        <ele>1836.4000244140625</ele>
        <time>2026-06-18T09:47:11.000Z</time>
        <extensions>
          <ns3:TrackPointExtension>
            <ns3:atemp>19.0</ns3:atemp>
          </ns3:TrackPointExtension>
        </extensions>
      </trkpt>
      <trkpt lat="42.51519477926194667816162109375" lon="19.768999926745891571044921875">
        <ele>1836.4000244140625</ele>
        <time>2026-06-18T09:47:12.000Z</time>
        <extensions>
          <ns3:TrackPointExtension>
            <ns3:atemp>19.0</ns3:atemp>
          </ns3:TrackPointExtension>
        </extensions>
      </trkpt>
      <trkpt lat="42.51519477926194667816162109375" lon="19.768999926745891571044921875">
        <ele>1836.4000244140625</ele>
        <time>2026-06-18T09:47:13.000Z</time>
        <extensions>
          <ns3:TrackPointExtension>
            <ns3:atemp>19.0</ns3:atemp>
          </ns3:TrackPointExtension>
        </extensions>
      </trkpt>
      <trkpt lat="42.51519477926194667816162109375" lon="19.768999926745891571044921875">
        <ele>1836.4000244140625</ele>
        <time>2026-06-18T09:47:14.000Z</time>
        <extensions>
          <ns3:TrackPointExtension>
            <ns3:atemp>19.0</ns3:atemp>
          </ns3:TrackPointExtension>
        </extensions>
      </trkpt>
      <trkpt lat="42.51519477926194667816162109375" lon="19.768999926745891571044921875">
        <ele>1836.4000244140625</ele>
        <time>2026-06-18T09:47:15.000Z</time>
        <extensions>
          <ns3:TrackPointExtension>
            <ns3:atemp>19.0</ns3:atemp>
          </ns3:TrackPointExtension>
        </extensions>
      </trkpt>
      <trkpt lat="42.51519477926194667816162109375" lon="19.768999926745891571044921875">
        <ele>1836.4000244140625</ele>
        <time>2026-06-18T09:47:16.000Z</time>
        <extensions>
          <ns3:TrackPointExtension>
            <ns3:atemp>19.0</ns3:atemp>
          </ns3:TrackPointExtension>
        </extensions>
      </trkpt>
      <trkpt lat="42.51519477926194667816162109375" lon="19.768999926745891571044921875">
        <ele>1836.4000244140625</ele>
        <time>2026-06-18T09:47:17.000Z</time>
        <extensions>
          <ns3:TrackPointExtension>
            <ns3:atemp>19.0</ns3:atemp>
          </ns3:TrackPointExtension>
        </extensions>
      </trkpt>
      <trkpt lat="42.51519477926194667816162109375" lon="19.768999926745891571044921875">
        <ele>1836.199951171875</ele>
        <time>2026-06-18T09:47:18.000Z</time>
        <extensions>
          <ns3:TrackPointExtension>
            <ns3:atemp>19.0</ns3:atemp>
          </ns3:TrackPointExtension>
        </extensions>
      </trkpt>
      <trkpt lat="42.51519477926194667816162109375" lon="19.768999926745891571044921875">
        <ele>1836.199951171875</ele>
        <time>2026-06-18T09:47:19.000Z</time>
        <extensions>
          <ns3:TrackPointExtension>
            <ns3:atemp>19.0</ns3:atemp>
          </ns3:TrackPointExtension>
        </extensions>
      </trkpt>
      <trkpt lat="42.51519477926194667816162109375" lon="19.768999926745891571044921875">
        <ele>1836.199951171875</ele>
        <time>2026-06-18T09:47:20.000Z</time>
        <extensions>
          <ns3:TrackPointExtension>
            <ns3:atemp>19.0</ns3:atemp>
          </ns3:TrackPointExtension>
        </extensions>
      </trkpt>
      <trkpt lat="42.51519477926194667816162109375" lon="19.768999926745891571044921875">
        <ele>1836.199951171875</ele>
        <time>2026-06-18T09:47:21.000Z</time>
        <extensions>
          <ns3:TrackPointExtension>
            <ns3:atemp>19.0</ns3:atemp>
          </ns3:TrackPointExtension>
        </extensions>
      </trkpt>
      <trkpt lat="42.51519477926194667816162109375" lon="19.768999926745891571044921875">
        <ele>1836.199951171875</ele>
        <time>2026-06-18T09:47:22.000Z</time>
        <extensions>
          <ns3:TrackPointExtension>
            <ns3:atemp>19.0</ns3:atemp>
          </ns3:TrackPointExtension>
        </extensions>
      </trkpt>
      <trkpt lat="42.51519477926194667816162109375" lon="19.768999926745891571044921875">
        <ele>1836.199951171875</ele>
        <time>2026-06-18T09:47:23.000Z</time>
        <extensions>
          <ns3:TrackPointExtension>
            <ns3:atemp>19.0</ns3:atemp>
          </ns3:TrackPointExtension>
        </extensions>
      </trkpt>
      <trkpt lat="42.51519477926194667816162109375" lon="19.768999926745891571044921875">
        <ele>1836.199951171875</ele>
        <time>2026-06-18T09:47:24.000Z</time>
        <extensions>
          <ns3:TrackPointExtension>
            <ns3:atemp>19.0</ns3:atemp>
          </ns3:TrackPointExtension>
        </extensions>
      </trkpt>
      <trkpt lat="42.51519477926194667816162109375" lon="19.768999926745891571044921875">
        <ele>1836.199951171875</ele>
        <time>2026-06-18T09:47:25.000Z</time>
        <extensions>
          <ns3:TrackPointExtension>
            <ns3:atemp>19.0</ns3:atemp>
          </ns3:TrackPointExtension>
        </extensions>
      </trkpt>
      <trkpt lat="42.51519477926194667816162109375" lon="19.768999926745891571044921875">
        <ele>1836.199951171875</ele>
        <time>2026-06-18T09:47:26.000Z</time>
        <extensions>
          <ns3:TrackPointExtension>
            <ns3:atemp>19.0</ns3:atemp>
          </ns3:TrackPointExtension>
        </extensions>
      </trkpt>
      <trkpt lat="42.51519477926194667816162109375" lon="19.768999926745891571044921875">
        <ele>1836.199951171875</ele>
        <time>2026-06-18T09:47:27.000Z</time>
        <extensions>
          <ns3:TrackPointExtension>
            <ns3:atemp>19.0</ns3:atemp>
          </ns3:TrackPointExtension>
        </extensions>
      </trkpt>
      <trkpt lat="42.51519477926194667816162109375" lon="19.768999926745891571044921875">
        <ele>1836.199951171875</ele>
        <time>2026-06-18T09:47:28.000Z</time>
        <extensions>
          <ns3:TrackPointExtension>
            <ns3:atemp>19.0</ns3:atemp>
          </ns3:TrackPointExtension>
        </extensions>
      </trkpt>
      <trkpt lat="42.51519477926194667816162109375" lon="19.768999926745891571044921875">
        <ele>1836.199951171875</ele>
        <time>2026-06-18T09:47:29.000Z</time>
        <extensions>
          <ns3:TrackPointExtension>
            <ns3:atemp>19.0</ns3:atemp>
          </ns3:TrackPointExtension>
        </extensions>
      </trkpt>
      <trkpt lat="42.51519477926194667816162109375" lon="19.768999926745891571044921875">
        <ele>1836.4000244140625</ele>
        <time>2026-06-18T09:47:30.000Z</time>
        <extensions>
          <ns3:TrackPointExtension>
            <ns3:atemp>19.0</ns3:atemp>
          </ns3:TrackPointExtension>
        </extensions>
      </trkpt>
      <trkpt lat="42.51519477926194667816162109375" lon="19.768999926745891571044921875">
        <ele>1836.4000244140625</ele>
        <time>2026-06-18T09:47:31.000Z</time>
        <extensions>
          <ns3:TrackPointExtension>
            <ns3:atemp>19.0</ns3:atemp>
          </ns3:TrackPointExtension>
        </extensions>
      </trkpt>
      <trkpt lat="42.51519477926194667816162109375" lon="19.768999926745891571044921875">
        <ele>1836.4000244140625</ele>
        <time>2026-06-18T09:47:32.000Z</time>
        <extensions>
          <ns3:TrackPointExtension>
            <ns3:atemp>19.0</ns3:atemp>
          </ns3:TrackPointExtension>
        </extensions>
      </trkpt>
      <trkpt lat="42.51519477926194667816162109375" lon="19.768999926745891571044921875">
        <ele>1836.4000244140625</ele>
        <time>2026-06-18T09:47:33.000Z</time>
        <extensions>
          <ns3:TrackPointExtension>
            <ns3:atemp>19.0</ns3:atemp>
          </ns3:TrackPointExtension>
        </extensions>
      </trkpt>
      <trkpt lat="42.51519477926194667816162109375" lon="19.768999926745891571044921875">
        <ele>1836.4000244140625</ele>
        <time>2026-06-18T09:47:34.000Z</time>
        <extensions>
          <ns3:TrackPointExtension>
            <ns3:atemp>19.0</ns3:atemp>
          </ns3:TrackPointExtension>
        </extensions>
      </trkpt>
      <trkpt lat="42.51519477926194667816162109375" lon="19.768999926745891571044921875">
        <ele>1836.4000244140625</ele>
        <time>2026-06-18T09:47:35.000Z</time>
        <extensions>
          <ns3:TrackPointExtension>
            <ns3:atemp>19.0</ns3:atemp>
          </ns3:TrackPointExtension>
        </extensions>
      </trkpt>
      <trkpt lat="42.51519477926194667816162109375" lon="19.768999926745891571044921875">
        <ele>1836.199951171875</ele>
        <time>2026-06-18T09:47:36.000Z</time>
        <extensions>
          <ns3:TrackPointExtension>
            <ns3:atemp>19.0</ns3:atemp>
          </ns3:TrackPointExtension>
        </extensions>
      </trkpt>
      <trkpt lat="42.51519477926194667816162109375" lon="19.768999926745891571044921875">
        <ele>1836.4000244140625</ele>
        <time>2026-06-18T09:47:37.000Z</time>
        <extensions>
          <ns3:TrackPointExtension>
            <ns3:atemp>19.0</ns3:atemp>
          </ns3:TrackPointExtension>
        </extensions>
      </trkpt>
      <trkpt lat="42.51519477926194667816162109375" lon="19.768999926745891571044921875">
        <ele>1836.4000244140625</ele>
        <time>2026-06-18T09:47:38.000Z</time>
        <extensions>
          <ns3:TrackPointExtension>
            <ns3:atemp>19.0</ns3:atemp>
          </ns3:TrackPointExtension>
        </extensions>
      </trkpt>
      <trkpt lat="42.51519477926194667816162109375" lon="19.768999926745891571044921875">
        <ele>1836.4000244140625</ele>
        <time>2026-06-18T09:47:39.000Z</time>
        <extensions>
          <ns3:TrackPointExtension>
            <ns3:atemp>19.0</ns3:atemp>
          </ns3:TrackPointExtension>
        </extensions>
      </trkpt>
      <trkpt lat="42.51519477926194667816162109375" lon="19.768999926745891571044921875">
        <ele>1836.4000244140625</ele>
        <time>2026-06-18T09:47:40.000Z</time>
        <extensions>
          <ns3:TrackPointExtension>
            <ns3:atemp>19.0</ns3:atemp>
          </ns3:TrackPointExtension>
        </extensions>
      </trkpt>
      <trkpt lat="42.51519477926194667816162109375" lon="19.768999926745891571044921875">
        <ele>1836.4000244140625</ele>
        <time>2026-06-18T09:47:41.000Z</time>
        <extensions>
          <ns3:TrackPointExtension>
            <ns3:atemp>19.0</ns3:atemp>
          </ns3:TrackPointExtension>
        </extensions>
      </trkpt>
      <trkpt lat="42.51519477926194667816162109375" lon="19.768999926745891571044921875">
        <ele>1836.4000244140625</ele>
        <time>2026-06-18T09:47:42.000Z</time>
        <extensions>
          <ns3:TrackPointExtension>
            <ns3:atemp>19.0</ns3:atemp>
          </ns3:TrackPointExtension>
        </extensions>
      </trkpt>
      <trkpt lat="42.51519477926194667816162109375" lon="19.768999926745891571044921875">
        <ele>1836.199951171875</ele>
        <time>2026-06-18T09:47:43.000Z</time>
        <extensions>
          <ns3:TrackPointExtension>
            <ns3:atemp>19.0</ns3:atemp>
          </ns3:TrackPointExtension>
        </extensions>
      </trkpt>
      <trkpt lat="42.51519477926194667816162109375" lon="19.768999926745891571044921875">
        <ele>1836.199951171875</ele>
        <time>2026-06-18T09:47:44.000Z</time>
        <extensions>
          <ns3:TrackPointExtension>
            <ns3:atemp>19.0</ns3:atemp>
          </ns3:TrackPointExtension>
        </extensions>
      </trkpt>
      <trkpt lat="42.51519477926194667816162109375" lon="19.768999926745891571044921875">
        <ele>1836.199951171875</ele>
        <time>2026-06-18T09:47:45.000Z</time>
        <extensions>
          <ns3:TrackPointExtension>
            <ns3:atemp>19.0</ns3:atemp>
          </ns3:TrackPointExtension>
        </extensions>
      </trkpt>
      <trkpt lat="42.51519477926194667816162109375" lon="19.768999926745891571044921875">
        <ele>1836.199951171875</ele>
        <time>2026-06-18T09:47:46.000Z</time>
        <extensions>
          <ns3:TrackPointExtension>
            <ns3:atemp>19.0</ns3:atemp>
          </ns3:TrackPointExtension>
        </extensions>
      </trkpt>
      <trkpt lat="42.51519477926194667816162109375" lon="19.768999926745891571044921875">
        <ele>1836.199951171875</ele>
        <time>2026-06-18T09:47:47.000Z</time>
        <extensions>
          <ns3:TrackPointExtension>
            <ns3:atemp>19.0</ns3:atemp>
          </ns3:TrackPointExtension>
        </extensions>
      </trkpt>
      <trkpt lat="42.51519477926194667816162109375" lon="19.768999926745891571044921875">
        <ele>1836.199951171875</ele>
        <time>2026-06-18T09:47:48.000Z</time>
        <extensions>
          <ns3:TrackPointExtension>
            <ns3:atemp>19.0</ns3:atemp>
          </ns3:TrackPointExtension>
        </extensions>
      </trkpt>
      <trkpt lat="42.51519477926194667816162109375" lon="19.768999926745891571044921875">
        <ele>1836</ele>
        <time>2026-06-18T09:47:49.000Z</time>
        <extensions>
          <ns3:TrackPointExtension>
            <ns3:atemp>19.0</ns3:atemp>
          </ns3:TrackPointExtension>
        </extensions>
      </trkpt>
      <trkpt lat="42.51519477926194667816162109375" lon="19.768999926745891571044921875">
        <ele>1836</ele>
        <time>2026-06-18T09:47:50.000Z</time>
        <extensions>
          <ns3:TrackPointExtension>
            <ns3:atemp>19.0</ns3:atemp>
          </ns3:TrackPointExtension>
        </extensions>
      </trkpt>
      <trkpt lat="42.51519477926194667816162109375" lon="19.768999926745891571044921875">
        <ele>1836</ele>
        <time>2026-06-18T09:47:51.000Z</time>
        <extensions>
          <ns3:TrackPointExtension>
            <ns3:atemp>19.0</ns3:atemp>
          </ns3:TrackPointExtension>
        </extensions>
      </trkpt>
      <trkpt lat="42.51519477926194667816162109375" lon="19.768999926745891571044921875">
        <ele>1835.800048828125</ele>
        <time>2026-06-18T09:47:52.000Z</time>
        <extensions>
          <ns3:TrackPointExtension>
            <ns3:atemp>19.0</ns3:atemp>
          </ns3:TrackPointExtension>
        </extensions>
      </trkpt>
      <trkpt lat="42.51519477926194667816162109375" lon="19.768999926745891571044921875">
        <ele>1835.800048828125</ele>
        <time>2026-06-18T09:47:53.000Z</time>
        <extensions>
          <ns3:TrackPointExtension>
            <ns3:atemp>19.0</ns3:atemp>
          </ns3:TrackPointExtension>
        </extensions>
      </trkpt>
      <trkpt lat="42.51519477926194667816162109375" lon="19.768999926745891571044921875">
        <ele>1835.800048828125</ele>
        <time>2026-06-18T09:47:54.000Z</time>
        <extensions>
          <ns3:TrackPointExtension>
            <ns3:atemp>19.0</ns3:atemp>
          </ns3:TrackPointExtension>
        </extensions>
      </trkpt>
      <trkpt lat="42.51519477926194667816162109375" lon="19.768999926745891571044921875">
        <ele>1835.800048828125</ele>
        <time>2026-06-18T09:47:55.000Z</time>
        <extensions>
          <ns3:TrackPointExtension>
            <ns3:atemp>19.0</ns3:atemp>
          </ns3:TrackPointExtension>
        </extensions>
      </trkpt>
      <trkpt lat="42.51519477926194667816162109375" lon="19.768999926745891571044921875">
        <ele>1835.800048828125</ele>
        <time>2026-06-18T09:47:56.000Z</time>
        <extensions>
          <ns3:TrackPointExtension>
            <ns3:atemp>19.0</ns3:atemp>
          </ns3:TrackPointExtension>
        </extensions>
      </trkpt>
      <trkpt lat="42.51519477926194667816162109375" lon="19.768999926745891571044921875">
        <ele>1835.5999755859375</ele>
        <time>2026-06-18T09:47:57.000Z</time>
        <extensions>
          <ns3:TrackPointExtension>
            <ns3:atemp>19.0</ns3:atemp>
          </ns3:TrackPointExtension>
        </extensions>
      </trkpt>
      <trkpt lat="42.51519477926194667816162109375" lon="19.768999926745891571044921875">
        <ele>1835.5999755859375</ele>
        <time>2026-06-18T09:47:58.000Z</time>
        <extensions>
          <ns3:TrackPointExtension>
            <ns3:atemp>19.0</ns3:atemp>
          </ns3:TrackPointExtension>
        </extensions>
      </trkpt>
      <trkpt lat="42.51519477926194667816162109375" lon="19.768999926745891571044921875">
        <ele>1835.5999755859375</ele>
        <time>2026-06-18T09:47:59.000Z</time>
        <extensions>
          <ns3:TrackPointExtension>
            <ns3:atemp>19.0</ns3:atemp>
          </ns3:TrackPointExtension>
        </extensions>
      </trkpt>
      <trkpt lat="42.51519477926194667816162109375" lon="19.768999926745891571044921875">
        <ele>1835.4000244140625</ele>
        <time>2026-06-18T09:48:00.000Z</time>
        <extensions>
          <ns3:TrackPointExtension>
            <ns3:atemp>19.0</ns3:atemp>
          </ns3:TrackPointExtension>
        </extensions>
      </trkpt>
      <trkpt lat="42.51519477926194667816162109375" lon="19.768999926745891571044921875">
        <ele>1835.4000244140625</ele>
        <time>2026-06-18T09:48:01.000Z</time>
        <extensions>
          <ns3:TrackPointExtension>
            <ns3:atemp>19.0</ns3:atemp>
          </ns3:TrackPointExtension>
        </extensions>
      </trkpt>
      <trkpt lat="42.51519477926194667816162109375" lon="19.768999926745891571044921875">
        <ele>1835.4000244140625</ele>
        <time>2026-06-18T09:48:02.000Z</time>
        <extensions>
          <ns3:TrackPointExtension>
            <ns3:atemp>19.0</ns3:atemp>
          </ns3:TrackPointExtension>
        </extensions>
      </trkpt>
      <trkpt lat="42.51519477926194667816162109375" lon="19.768999926745891571044921875">
        <ele>1835.4000244140625</ele>
        <time>2026-06-18T09:48:03.000Z</time>
        <extensions>
          <ns3:TrackPointExtension>
            <ns3:atemp>19.0</ns3:atemp>
          </ns3:TrackPointExtension>
        </extensions>
      </trkpt>
      <trkpt lat="42.51519477926194667816162109375" lon="19.768999926745891571044921875">
        <ele>1835.4000244140625</ele>
        <time>2026-06-18T09:48:04.000Z</time>
        <extensions>
          <ns3:TrackPointExtension>
            <ns3:atemp>19.0</ns3:atemp>
          </ns3:TrackPointExtension>
        </extensions>
      </trkpt>
      <trkpt lat="42.51519477926194667816162109375" lon="19.768999926745891571044921875">
        <ele>1835.199951171875</ele>
        <time>2026-06-18T09:48:05.000Z</time>
        <extensions>
          <ns3:TrackPointExtension>
            <ns3:atemp>19.0</ns3:atemp>
          </ns3:TrackPointExtension>
        </extensions>
      </trkpt>
      <trkpt lat="42.51519477926194667816162109375" lon="19.768999926745891571044921875">
        <ele>1835.199951171875</ele>
        <time>2026-06-18T09:48:06.000Z</time>
        <extensions>
          <ns3:TrackPointExtension>
            <ns3:atemp>19.0</ns3:atemp>
          </ns3:TrackPointExtension>
        </extensions>
      </trkpt>
      <trkpt lat="42.51519477926194667816162109375" lon="19.768999926745891571044921875">
        <ele>1835.199951171875</ele>
        <time>2026-06-18T09:48:07.000Z</time>
        <extensions>
          <ns3:TrackPointExtension>
            <ns3:atemp>19.0</ns3:atemp>
          </ns3:TrackPointExtension>
        </extensions>
      </trkpt>
      <trkpt lat="42.51519477926194667816162109375" lon="19.768999926745891571044921875">
        <ele>1835.199951171875</ele>
        <time>2026-06-18T09:48:08.000Z</time>
        <extensions>
          <ns3:TrackPointExtension>
            <ns3:atemp>19.0</ns3:atemp>
          </ns3:TrackPointExtension>
        </extensions>
      </trkpt>
      <trkpt lat="42.51519477926194667816162109375" lon="19.768999926745891571044921875">
        <ele>1835.199951171875</ele>
        <time>2026-06-18T09:48:09.000Z</time>
        <extensions>
          <ns3:TrackPointExtension>
            <ns3:atemp>19.0</ns3:atemp>
          </ns3:TrackPointExtension>
        </extensions>
      </trkpt>
      <trkpt lat="42.51519477926194667816162109375" lon="19.768999926745891571044921875">
        <ele>1835</ele>
        <time>2026-06-18T09:48:10.000Z</time>
        <extensions>
          <ns3:TrackPointExtension>
            <ns3:atemp>19.0</ns3:atemp>
          </ns3:TrackPointExtension>
        </extensions>
      </trkpt>
      <trkpt lat="42.51519477926194667816162109375" lon="19.768999926745891571044921875">
        <ele>1835</ele>
        <time>2026-06-18T09:48:11.000Z</time>
        <extensions>
          <ns3:TrackPointExtension>
            <ns3:atemp>19.0</ns3:atemp>
          </ns3:TrackPointExtension>
        </extensions>
      </trkpt>
      <trkpt lat="42.51519477926194667816162109375" lon="19.768999926745891571044921875">
        <ele>1835</ele>
        <time>2026-06-18T09:48:12.000Z</time>
        <extensions>
          <ns3:TrackPointExtension>
            <ns3:atemp>19.0</ns3:atemp>
          </ns3:TrackPointExtension>
        </extensions>
      </trkpt>
      <trkpt lat="42.51519477926194667816162109375" lon="19.768999926745891571044921875">
        <ele>1835</ele>
        <time>2026-06-18T09:48:13.000Z</time>
        <extensions>
          <ns3:TrackPointExtension>
            <ns3:atemp>19.0</ns3:atemp>
          </ns3:TrackPointExtension>
        </extensions>
      </trkpt>
      <trkpt lat="42.51519477926194667816162109375" lon="19.768999926745891571044921875">
        <ele>1835</ele>
        <time>2026-06-18T09:48:14.000Z</time>
        <extensions>
          <ns3:TrackPointExtension>
            <ns3:atemp>19.0</ns3:atemp>
          </ns3:TrackPointExtension>
        </extensions>
      </trkpt>
      <trkpt lat="42.51519477926194667816162109375" lon="19.768999926745891571044921875">
        <ele>1835</ele>
        <time>2026-06-18T09:48:15.000Z</time>
        <extensions>
          <ns3:TrackPointExtension>
            <ns3:atemp>19.0</ns3:atemp>
          </ns3:TrackPointExtension>
        </extensions>
      </trkpt>
      <trkpt lat="42.51519477926194667816162109375" lon="19.768999926745891571044921875">
        <ele>1835</ele>
        <time>2026-06-18T09:48:16.000Z</time>
        <extensions>
          <ns3:TrackPointExtension>
            <ns3:atemp>19.0</ns3:atemp>
          </ns3:TrackPointExtension>
        </extensions>
      </trkpt>
      <trkpt lat="42.51519477926194667816162109375" lon="19.768999926745891571044921875">
        <ele>1835</ele>
        <time>2026-06-18T09:48:17.000Z</time>
        <extensions>
          <ns3:TrackPointExtension>
            <ns3:atemp>19.0</ns3:atemp>
          </ns3:TrackPointExtension>
        </extensions>
      </trkpt>
      <trkpt lat="42.51519477926194667816162109375" lon="19.768999926745891571044921875">
        <ele>1834.800048828125</ele>
        <time>2026-06-18T09:48:18.000Z</time>
        <extensions>
          <ns3:TrackPointExtension>
            <ns3:atemp>19.0</ns3:atemp>
          </ns3:TrackPointExtension>
        </extensions>
      </trkpt>
      <trkpt lat="42.51519477926194667816162109375" lon="19.768999926745891571044921875">
        <ele>1834.800048828125</ele>
        <time>2026-06-18T09:48:19.000Z</time>
        <extensions>
          <ns3:TrackPointExtension>
            <ns3:atemp>19.0</ns3:atemp>
          </ns3:TrackPointExtension>
        </extensions>
      </trkpt>
      <trkpt lat="42.51519477926194667816162109375" lon="19.768999926745891571044921875">
        <ele>1834.800048828125</ele>
        <time>2026-06-18T09:48:20.000Z</time>
        <extensions>
          <ns3:TrackPointExtension>
            <ns3:atemp>19.0</ns3:atemp>
          </ns3:TrackPointExtension>
        </extensions>
      </trkpt>
      <trkpt lat="42.51519477926194667816162109375" lon="19.768999926745891571044921875">
        <ele>1834.800048828125</ele>
        <time>2026-06-18T09:48:21.000Z</time>
        <extensions>
          <ns3:TrackPointExtension>
            <ns3:atemp>19.0</ns3:atemp>
          </ns3:TrackPointExtension>
        </extensions>
      </trkpt>
      <trkpt lat="42.51519477926194667816162109375" lon="19.768999926745891571044921875">
        <ele>1835</ele>
        <time>2026-06-18T09:48:22.000Z</time>
        <extensions>
          <ns3:TrackPointExtension>
            <ns3:atemp>19.0</ns3:atemp>
          </ns3:TrackPointExtension>
        </extensions>
      </trkpt>
      <trkpt lat="42.51519477926194667816162109375" lon="19.768999926745891571044921875">
        <ele>1835</ele>
        <time>2026-06-18T09:48:23.000Z</time>
        <extensions>
          <ns3:TrackPointExtension>
            <ns3:atemp>19.0</ns3:atemp>
          </ns3:TrackPointExtension>
        </extensions>
      </trkpt>
      <trkpt lat="42.51519477926194667816162109375" lon="19.768999926745891571044921875">
        <ele>1835</ele>
        <time>2026-06-18T09:48:24.000Z</time>
        <extensions>
          <ns3:TrackPointExtension>
            <ns3:atemp>19.0</ns3:atemp>
          </ns3:TrackPointExtension>
        </extensions>
      </trkpt>
      <trkpt lat="42.51519477926194667816162109375" lon="19.768999926745891571044921875">
        <ele>1834.800048828125</ele>
        <time>2026-06-18T09:48:25.000Z</time>
        <extensions>
          <ns3:TrackPointExtension>
            <ns3:atemp>19.0</ns3:atemp>
          </ns3:TrackPointExtension>
        </extensions>
      </trkpt>
      <trkpt lat="42.51519477926194667816162109375" lon="19.768999926745891571044921875">
        <ele>1834.800048828125</ele>
        <time>2026-06-18T09:48:26.000Z</time>
        <extensions>
          <ns3:TrackPointExtension>
            <ns3:atemp>19.0</ns3:atemp>
          </ns3:TrackPointExtension>
        </extensions>
      </trkpt>
      <trkpt lat="42.51519477926194667816162109375" lon="19.768999926745891571044921875">
        <ele>1834.800048828125</ele>
        <time>2026-06-18T09:48:27.000Z</time>
        <extensions>
          <ns3:TrackPointExtension>
            <ns3:atemp>19.0</ns3:atemp>
          </ns3:TrackPointExtension>
        </extensions>
      </trkpt>
      <trkpt lat="42.51519477926194667816162109375" lon="19.768999926745891571044921875">
        <ele>1834.800048828125</ele>
        <time>2026-06-18T09:48:28.000Z</time>
        <extensions>
          <ns3:TrackPointExtension>
            <ns3:atemp>19.0</ns3:atemp>
          </ns3:TrackPointExtension>
        </extensions>
      </trkpt>
      <trkpt lat="42.51519477926194667816162109375" lon="19.768999926745891571044921875">
        <ele>1834.800048828125</ele>
        <time>2026-06-18T09:48:29.000Z</time>
        <extensions>
          <ns3:TrackPointExtension>
            <ns3:atemp>19.0</ns3:atemp>
          </ns3:TrackPointExtension>
        </extensions>
      </trkpt>
      <trkpt lat="42.51519477926194667816162109375" lon="19.768999926745891571044921875">
        <ele>1834.5999755859375</ele>
        <time>2026-06-18T09:48:30.000Z</time>
        <extensions>
          <ns3:TrackPointExtension>
            <ns3:atemp>19.0</ns3:atemp>
          </ns3:TrackPointExtension>
        </extensions>
      </trkpt>
      <trkpt lat="42.51519477926194667816162109375" lon="19.768999926745891571044921875">
        <ele>1834.5999755859375</ele>
        <time>2026-06-18T09:48:31.000Z</time>
        <extensions>
          <ns3:TrackPointExtension>
            <ns3:atemp>19.0</ns3:atemp>
          </ns3:TrackPointExtension>
        </extensions>
      </trkpt>
      <trkpt lat="42.51519477926194667816162109375" lon="19.768999926745891571044921875">
        <ele>1834.4000244140625</ele>
        <time>2026-06-18T09:48:32.000Z</time>
        <extensions>
          <ns3:TrackPointExtension>
            <ns3:atemp>19.0</ns3:atemp>
          </ns3:TrackPointExtension>
        </extensions>
      </trkpt>
      <trkpt lat="42.51519477926194667816162109375" lon="19.768999926745891571044921875">
        <ele>1834.199951171875</ele>
        <time>2026-06-18T09:48:33.000Z</time>
        <extensions>
          <ns3:TrackPointExtension>
            <ns3:atemp>19.0</ns3:atemp>
          </ns3:TrackPointExtension>
        </extensions>
      </trkpt>
      <trkpt lat="42.51519477926194667816162109375" lon="19.768999926745891571044921875">
        <ele>1834.199951171875</ele>
        <time>2026-06-18T09:48:34.000Z</time>
        <extensions>
          <ns3:TrackPointExtension>
            <ns3:atemp>19.0</ns3:atemp>
          </ns3:TrackPointExtension>
        </extensions>
      </trkpt>
      <trkpt lat="42.51519477926194667816162109375" lon="19.768999926745891571044921875">
        <ele>1834</ele>
        <time>2026-06-18T09:48:35.000Z</time>
        <extensions>
          <ns3:TrackPointExtension>
            <ns3:atemp>19.0</ns3:atemp>
          </ns3:TrackPointExtension>
        </extensions>
      </trkpt>
      <trkpt lat="42.51519477926194667816162109375" lon="19.768999926745891571044921875">
        <ele>1834</ele>
        <time>2026-06-18T09:48:36.000Z</time>
        <extensions>
          <ns3:TrackPointExtension>
            <ns3:atemp>19.0</ns3:atemp>
          </ns3:TrackPointExtension>
        </extensions>
      </trkpt>
      <trkpt lat="42.51519477926194667816162109375" lon="19.768999926745891571044921875">
        <ele>1833.800048828125</ele>
        <time>2026-06-18T09:48:37.000Z</time>
        <extensions>
          <ns3:TrackPointExtension>
            <ns3:atemp>19.0</ns3:atemp>
          </ns3:TrackPointExtension>
        </extensions>
      </trkpt>
      <trkpt lat="42.51519477926194667816162109375" lon="19.768999926745891571044921875">
        <ele>1833.800048828125</ele>
        <time>2026-06-18T09:48:38.000Z</time>
        <extensions>
          <ns3:TrackPointExtension>
            <ns3:atemp>19.0</ns3:atemp>
          </ns3:TrackPointExtension>
        </extensions>
      </trkpt>
      <trkpt lat="42.51519477926194667816162109375" lon="19.768999926745891571044921875">
        <ele>1833.800048828125</ele>
        <time>2026-06-18T09:48:39.000Z</time>
        <extensions>
          <ns3:TrackPointExtension>
            <ns3:atemp>19.0</ns3:atemp>
          </ns3:TrackPointExtension>
        </extensions>
      </trkpt>
      <trkpt lat="42.51519477926194667816162109375" lon="19.768999926745891571044921875">
        <ele>1833.5999755859375</ele>
        <time>2026-06-18T09:48:40.000Z</time>
        <extensions>
          <ns3:TrackPointExtension>
            <ns3:atemp>19.0</ns3:atemp>
          </ns3:TrackPointExtension>
        </extensions>
      </trkpt>
      <trkpt lat="42.51519477926194667816162109375" lon="19.768999926745891571044921875">
        <ele>1833.4000244140625</ele>
        <time>2026-06-18T09:48:41.000Z</time>
        <extensions>
          <ns3:TrackPointExtension>
            <ns3:atemp>19.0</ns3:atemp>
          </ns3:TrackPointExtension>
        </extensions>
      </trkpt>
      <trkpt lat="42.51519477926194667816162109375" lon="19.768999926745891571044921875">
        <ele>1833.4000244140625</ele>
        <time>2026-06-18T09:48:42.000Z</time>
        <extensions>
          <ns3:TrackPointExtension>
            <ns3:atemp>19.0</ns3:atemp>
          </ns3:TrackPointExtension>
        </extensions>
      </trkpt>
      <trkpt lat="42.51519477926194667816162109375" lon="19.768999926745891571044921875">
        <ele>1833.199951171875</ele>
        <time>2026-06-18T09:48:43.000Z</time>
        <extensions>
          <ns3:TrackPointExtension>
            <ns3:atemp>19.0</ns3:atemp>
          </ns3:TrackPointExtension>
        </extensions>
      </trkpt>
      <trkpt lat="42.51519477926194667816162109375" lon="19.768999926745891571044921875">
        <ele>1833</ele>
        <time>2026-06-18T09:48:44.000Z</time>
        <extensions>
          <ns3:TrackPointExtension>
            <ns3:atemp>19.0</ns3:atemp>
          </ns3:TrackPointExtension>
        </extensions>
      </trkpt>
      <trkpt lat="42.51519477926194667816162109375" lon="19.768999926745891571044921875">
        <ele>1833</ele>
        <time>2026-06-18T09:48:45.000Z</time>
        <extensions>
          <ns3:TrackPointExtension>
            <ns3:atemp>19.0</ns3:atemp>
          </ns3:TrackPointExtension>
        </extensions>
      </trkpt>
      <trkpt lat="42.51519477926194667816162109375" lon="19.768999926745891571044921875">
        <ele>1833</ele>
        <time>2026-06-18T09:48:46.000Z</time>
        <extensions>
          <ns3:TrackPointExtension>
            <ns3:atemp>19.0</ns3:atemp>
          </ns3:TrackPointExtension>
        </extensions>
      </trkpt>
      <trkpt lat="42.51519477926194667816162109375" lon="19.768999926745891571044921875">
        <ele>1832.800048828125</ele>
        <time>2026-06-18T09:48:47.000Z</time>
        <extensions>
          <ns3:TrackPointExtension>
            <ns3:atemp>19.0</ns3:atemp>
          </ns3:TrackPointExtension>
        </extensions>
      </trkpt>
      <trkpt lat="42.51519477926194667816162109375" lon="19.768999926745891571044921875">
        <ele>1832.800048828125</ele>
        <time>2026-06-18T09:48:48.000Z</time>
        <extensions>
          <ns3:TrackPointExtension>
            <ns3:atemp>19.0</ns3:atemp>
          </ns3:TrackPointExtension>
        </extensions>
      </trkpt>
      <trkpt lat="42.51519477926194667816162109375" lon="19.768999926745891571044921875">
        <ele>1832.5999755859375</ele>
        <time>2026-06-18T09:48:49.000Z</time>
        <extensions>
          <ns3:TrackPointExtension>
            <ns3:atemp>19.0</ns3:atemp>
          </ns3:TrackPointExtension>
        </extensions>
      </trkpt>
      <trkpt lat="42.51519477926194667816162109375" lon="19.768999926745891571044921875">
        <ele>1832.5999755859375</ele>
        <time>2026-06-18T09:48:50.000Z</time>
        <extensions>
          <ns3:TrackPointExtension>
            <ns3:atemp>19.0</ns3:atemp>
          </ns3:TrackPointExtension>
        </extensions>
      </trkpt>
      <trkpt lat="42.51519477926194667816162109375" lon="19.768999926745891571044921875">
        <ele>1832.5999755859375</ele>
        <time>2026-06-18T09:48:51.000Z</time>
        <extensions>
          <ns3:TrackPointExtension>
            <ns3:atemp>19.0</ns3:atemp>
          </ns3:TrackPointExtension>
        </extensions>
      </trkpt>
      <trkpt lat="42.51519477926194667816162109375" lon="19.768999926745891571044921875">
        <ele>1832.5999755859375</ele>
        <time>2026-06-18T09:48:52.000Z</time>
        <extensions>
          <ns3:TrackPointExtension>
            <ns3:atemp>19.0</ns3:atemp>
          </ns3:TrackPointExtension>
        </extensions>
      </trkpt>
      <trkpt lat="42.51519477926194667816162109375" lon="19.768999926745891571044921875">
        <ele>1832.5999755859375</ele>
        <time>2026-06-18T09:48:53.000Z</time>
        <extensions>
          <ns3:TrackPointExtension>
            <ns3:atemp>19.0</ns3:atemp>
          </ns3:TrackPointExtension>
        </extensions>
      </trkpt>
      <trkpt lat="42.51519477926194667816162109375" lon="19.768999926745891571044921875">
        <ele>1832.800048828125</ele>
        <time>2026-06-18T09:48:54.000Z</time>
        <extensions>
          <ns3:TrackPointExtension>
            <ns3:atemp>19.0</ns3:atemp>
          </ns3:TrackPointExtension>
        </extensions>
      </trkpt>
      <trkpt lat="42.51519477926194667816162109375" lon="19.768999926745891571044921875">
        <ele>1832.800048828125</ele>
        <time>2026-06-18T09:48:55.000Z</time>
        <extensions>
          <ns3:TrackPointExtension>
            <ns3:atemp>19.0</ns3:atemp>
          </ns3:TrackPointExtension>
        </extensions>
      </trkpt>
      <trkpt lat="42.51519477926194667816162109375" lon="19.768999926745891571044921875">
        <ele>1833</ele>
        <time>2026-06-18T09:48:56.000Z</time>
        <extensions>
          <ns3:TrackPointExtension>
            <ns3:atemp>19.0</ns3:atemp>
          </ns3:TrackPointExtension>
        </extensions>
      </trkpt>
      <trkpt lat="42.51519477926194667816162109375" lon="19.768999926745891571044921875">
        <ele>1833</ele>
        <time>2026-06-18T09:48:57.000Z</time>
        <extensions>
          <ns3:TrackPointExtension>
            <ns3:atemp>19.0</ns3:atemp>
          </ns3:TrackPointExtension>
        </extensions>
      </trkpt>
      <trkpt lat="42.51519477926194667816162109375" lon="19.768999926745891571044921875">
        <ele>1833</ele>
        <time>2026-06-18T09:48:58.000Z</time>
        <extensions>
          <ns3:TrackPointExtension>
            <ns3:atemp>19.0</ns3:atemp>
          </ns3:TrackPointExtension>
        </extensions>
      </trkpt>
      <trkpt lat="42.51519477926194667816162109375" lon="19.768999926745891571044921875">
        <ele>1833</ele>
        <time>2026-06-18T09:48:59.000Z</time>
        <extensions>
          <ns3:TrackPointExtension>
            <ns3:atemp>19.0</ns3:atemp>
          </ns3:TrackPointExtension>
        </extensions>
      </trkpt>
      <trkpt lat="42.51519477926194667816162109375" lon="19.768999926745891571044921875">
        <ele>1833</ele>
        <time>2026-06-18T09:49:00.000Z</time>
        <extensions>
          <ns3:TrackPointExtension>
            <ns3:atemp>19.0</ns3:atemp>
          </ns3:TrackPointExtension>
        </extensions>
      </trkpt>
      <trkpt lat="42.51519477926194667816162109375" lon="19.768999926745891571044921875">
        <ele>1833.199951171875</ele>
        <time>2026-06-18T09:49:01.000Z</time>
        <extensions>
          <ns3:TrackPointExtension>
            <ns3:atemp>19.0</ns3:atemp>
          </ns3:TrackPointExtension>
        </extensions>
      </trkpt>
      <trkpt lat="42.51519477926194667816162109375" lon="19.768999926745891571044921875">
        <ele>1833</ele>
        <time>2026-06-18T09:49:02.000Z</time>
        <extensions>
          <ns3:TrackPointExtension>
            <ns3:atemp>19.0</ns3:atemp>
          </ns3:TrackPointExtension>
        </extensions>
      </trkpt>
      <trkpt lat="42.51519477926194667816162109375" lon="19.768999926745891571044921875">
        <ele>1833</ele>
        <time>2026-06-18T09:49:03.000Z</time>
        <extensions>
          <ns3:TrackPointExtension>
            <ns3:atemp>19.0</ns3:atemp>
          </ns3:TrackPointExtension>
        </extensions>
      </trkpt>
      <trkpt lat="42.51519477926194667816162109375" lon="19.768999926745891571044921875">
        <ele>1832.800048828125</ele>
        <time>2026-06-18T09:49:04.000Z</time>
        <extensions>
          <ns3:TrackPointExtension>
            <ns3:atemp>19.0</ns3:atemp>
          </ns3:TrackPointExtension>
        </extensions>
      </trkpt>
      <trkpt lat="42.51519477926194667816162109375" lon="19.768999926745891571044921875">
        <ele>1832.800048828125</ele>
        <time>2026-06-18T09:49:05.000Z</time>
        <extensions>
          <ns3:TrackPointExtension>
            <ns3:atemp>19.0</ns3:atemp>
          </ns3:TrackPointExtension>
        </extensions>
      </trkpt>
      <trkpt lat="42.51519477926194667816162109375" lon="19.768999926745891571044921875">
        <ele>1832.5999755859375</ele>
        <time>2026-06-18T09:49:06.000Z</time>
        <extensions>
          <ns3:TrackPointExtension>
            <ns3:atemp>19.0</ns3:atemp>
          </ns3:TrackPointExtension>
        </extensions>
      </trkpt>
      <trkpt lat="42.51519477926194667816162109375" lon="19.768999926745891571044921875">
        <ele>1832.4000244140625</ele>
        <time>2026-06-18T09:49:07.000Z</time>
        <extensions>
          <ns3:TrackPointExtension>
            <ns3:atemp>19.0</ns3:atemp>
          </ns3:TrackPointExtension>
        </extensions>
      </trkpt>
      <trkpt lat="42.51519477926194667816162109375" lon="19.768999926745891571044921875">
        <ele>1832.4000244140625</ele>
        <time>2026-06-18T09:49:08.000Z</time>
        <extensions>
          <ns3:TrackPointExtension>
            <ns3:atemp>19.0</ns3:atemp>
          </ns3:TrackPointExtension>
        </extensions>
      </trkpt>
      <trkpt lat="42.51519477926194667816162109375" lon="19.768999926745891571044921875">
        <ele>1832.4000244140625</ele>
        <time>2026-06-18T09:49:09.000Z</time>
        <extensions>
          <ns3:TrackPointExtension>
            <ns3:atemp>19.0</ns3:atemp>
          </ns3:TrackPointExtension>
        </extensions>
      </trkpt>
      <trkpt lat="42.51519477926194667816162109375" lon="19.768999926745891571044921875">
        <ele>1832.4000244140625</ele>
        <time>2026-06-18T09:49:10.000Z</time>
        <extensions>
          <ns3:TrackPointExtension>
            <ns3:atemp>19.0</ns3:atemp>
          </ns3:TrackPointExtension>
        </extensions>
      </trkpt>
      <trkpt lat="42.51519477926194667816162109375" lon="19.768999926745891571044921875">
        <ele>1832.4000244140625</ele>
        <time>2026-06-18T09:49:11.000Z</time>
        <extensions>
          <ns3:TrackPointExtension>
            <ns3:atemp>19.0</ns3:atemp>
          </ns3:TrackPointExtension>
        </extensions>
      </trkpt>
      <trkpt lat="42.51519477926194667816162109375" lon="19.768999926745891571044921875">
        <ele>1832.4000244140625</ele>
        <time>2026-06-18T09:49:12.000Z</time>
        <extensions>
          <ns3:TrackPointExtension>
            <ns3:atemp>19.0</ns3:atemp>
          </ns3:TrackPointExtension>
        </extensions>
      </trkpt>
      <trkpt lat="42.51519477926194667816162109375" lon="19.768999926745891571044921875">
        <ele>1832.4000244140625</ele>
        <time>2026-06-18T09:49:13.000Z</time>
        <extensions>
          <ns3:TrackPointExtension>
            <ns3:atemp>19.0</ns3:atemp>
          </ns3:TrackPointExtension>
        </extensions>
      </trkpt>
      <trkpt lat="42.51519477926194667816162109375" lon="19.768999926745891571044921875">
        <ele>1832.4000244140625</ele>
        <time>2026-06-18T09:49:14.000Z</time>
        <extensions>
          <ns3:TrackPointExtension>
            <ns3:atemp>19.0</ns3:atemp>
          </ns3:TrackPointExtension>
        </extensions>
      </trkpt>
      <trkpt lat="42.51519477926194667816162109375" lon="19.768999926745891571044921875">
        <ele>1832.4000244140625</ele>
        <time>2026-06-18T09:49:15.000Z</time>
        <extensions>
          <ns3:TrackPointExtension>
            <ns3:atemp>19.0</ns3:atemp>
          </ns3:TrackPointExtension>
        </extensions>
      </trkpt>
      <trkpt lat="42.51519477926194667816162109375" lon="19.768999926745891571044921875">
        <ele>1832.4000244140625</ele>
        <time>2026-06-18T09:49:16.000Z</time>
        <extensions>
          <ns3:TrackPointExtension>
            <ns3:atemp>19.0</ns3:atemp>
          </ns3:TrackPointExtension>
        </extensions>
      </trkpt>
      <trkpt lat="42.51519477926194667816162109375" lon="19.768999926745891571044921875">
        <ele>1832.4000244140625</ele>
        <time>2026-06-18T09:49:17.000Z</time>
        <extensions>
          <ns3:TrackPointExtension>
            <ns3:atemp>19.0</ns3:atemp>
          </ns3:TrackPointExtension>
        </extensions>
      </trkpt>
      <trkpt lat="42.51519477926194667816162109375" lon="19.768999926745891571044921875">
        <ele>1832.4000244140625</ele>
        <time>2026-06-18T09:49:18.000Z</time>
        <extensions>
          <ns3:TrackPointExtension>
            <ns3:atemp>19.0</ns3:atemp>
          </ns3:TrackPointExtension>
        </extensions>
      </trkpt>
      <trkpt lat="42.51519477926194667816162109375" lon="19.768999926745891571044921875">
        <ele>1832.4000244140625</ele>
        <time>2026-06-18T09:49:19.000Z</time>
        <extensions>
          <ns3:TrackPointExtension>
            <ns3:atemp>19.0</ns3:atemp>
          </ns3:TrackPointExtension>
        </extensions>
      </trkpt>
      <trkpt lat="42.51519477926194667816162109375" lon="19.768999926745891571044921875">
        <ele>1832.4000244140625</ele>
        <time>2026-06-18T09:49:20.000Z</time>
        <extensions>
          <ns3:TrackPointExtension>
            <ns3:atemp>19.0</ns3:atemp>
          </ns3:TrackPointExtension>
        </extensions>
      </trkpt>
      <trkpt lat="42.51519477926194667816162109375" lon="19.768999926745891571044921875">
        <ele>1832.4000244140625</ele>
        <time>2026-06-18T09:49:21.000Z</time>
        <extensions>
          <ns3:TrackPointExtension>
            <ns3:atemp>19.0</ns3:atemp>
          </ns3:TrackPointExtension>
        </extensions>
      </trkpt>
      <trkpt lat="42.51519477926194667816162109375" lon="19.768999926745891571044921875">
        <ele>1832.199951171875</ele>
        <time>2026-06-18T09:49:22.000Z</time>
        <extensions>
          <ns3:TrackPointExtension>
            <ns3:atemp>19.0</ns3:atemp>
          </ns3:TrackPointExtension>
        </extensions>
      </trkpt>
      <trkpt lat="42.51519477926194667816162109375" lon="19.768999926745891571044921875">
        <ele>1832.199951171875</ele>
        <time>2026-06-18T09:49:23.000Z</time>
        <extensions>
          <ns3:TrackPointExtension>
            <ns3:atemp>20.0</ns3:atemp>
          </ns3:TrackPointExtension>
        </extensions>
      </trkpt>
      <trkpt lat="42.51519477926194667816162109375" lon="19.768999926745891571044921875">
        <ele>1832.199951171875</ele>
        <time>2026-06-18T09:49:24.000Z</time>
        <extensions>
          <ns3:TrackPointExtension>
            <ns3:atemp>20.0</ns3:atemp>
          </ns3:TrackPointExtension>
        </extensions>
      </trkpt>
      <trkpt lat="42.51519477926194667816162109375" lon="19.768999926745891571044921875">
        <ele>1832.199951171875</ele>
        <time>2026-06-18T09:49:25.000Z</time>
        <extensions>
          <ns3:TrackPointExtension>
            <ns3:atemp>20.0</ns3:atemp>
          </ns3:TrackPointExtension>
        </extensions>
      </trkpt>
      <trkpt lat="42.51519477926194667816162109375" lon="19.768999926745891571044921875">
        <ele>1832.4000244140625</ele>
        <time>2026-06-18T09:49:26.000Z</time>
        <extensions>
          <ns3:TrackPointExtension>
            <ns3:atemp>19.0</ns3:atemp>
          </ns3:TrackPointExtension>
        </extensions>
      </trkpt>
      <trkpt lat="42.51519477926194667816162109375" lon="19.768999926745891571044921875">
        <ele>1832.4000244140625</ele>
        <time>2026-06-18T09:49:27.000Z</time>
        <extensions>
          <ns3:TrackPointExtension>
            <ns3:atemp>20.0</ns3:atemp>
          </ns3:TrackPointExtension>
        </extensions>
      </trkpt>
      <trkpt lat="42.51519477926194667816162109375" lon="19.768999926745891571044921875">
        <ele>1832.199951171875</ele>
        <time>2026-06-18T09:49:28.000Z</time>
        <extensions>
          <ns3:TrackPointExtension>
            <ns3:atemp>19.0</ns3:atemp>
          </ns3:TrackPointExtension>
        </extensions>
      </trkpt>
      <trkpt lat="42.51519477926194667816162109375" lon="19.768999926745891571044921875">
        <ele>1832.199951171875</ele>
        <time>2026-06-18T09:49:29.000Z</time>
        <extensions>
          <ns3:TrackPointExtension>
            <ns3:atemp>20.0</ns3:atemp>
          </ns3:TrackPointExtension>
        </extensions>
      </trkpt>
      <trkpt lat="42.51519477926194667816162109375" lon="19.768999926745891571044921875">
        <ele>1832</ele>
        <time>2026-06-18T09:49:30.000Z</time>
        <extensions>
          <ns3:TrackPointExtension>
            <ns3:atemp>20.0</ns3:atemp>
          </ns3:TrackPointExtension>
        </extensions>
      </trkpt>
      <trkpt lat="42.51519477926194667816162109375" lon="19.768999926745891571044921875">
        <ele>1832</ele>
        <time>2026-06-18T09:49:31.000Z</time>
        <extensions>
          <ns3:TrackPointExtension>
            <ns3:atemp>20.0</ns3:atemp>
          </ns3:TrackPointExtension>
        </extensions>
      </trkpt>
      <trkpt lat="42.51519477926194667816162109375" lon="19.768999926745891571044921875">
        <ele>1832</ele>
        <time>2026-06-18T09:49:32.000Z</time>
        <extensions>
          <ns3:TrackPointExtension>
            <ns3:atemp>20.0</ns3:atemp>
          </ns3:TrackPointExtension>
        </extensions>
      </trkpt>
      <trkpt lat="42.51519477926194667816162109375" lon="19.768999926745891571044921875">
        <ele>1831.800048828125</ele>
        <time>2026-06-18T09:49:33.000Z</time>
        <extensions>
          <ns3:TrackPointExtension>
            <ns3:atemp>20.0</ns3:atemp>
          </ns3:TrackPointExtension>
        </extensions>
      </trkpt>
      <trkpt lat="42.51519477926194667816162109375" lon="19.768999926745891571044921875">
        <ele>1831.800048828125</ele>
        <time>2026-06-18T09:49:34.000Z</time>
        <extensions>
          <ns3:TrackPointExtension>
            <ns3:atemp>20.0</ns3:atemp>
          </ns3:TrackPointExtension>
        </extensions>
      </trkpt>
      <trkpt lat="42.51519477926194667816162109375" lon="19.768999926745891571044921875">
        <ele>1831.800048828125</ele>
        <time>2026-06-18T09:49:35.000Z</time>
        <extensions>
          <ns3:TrackPointExtension>
            <ns3:atemp>19.0</ns3:atemp>
          </ns3:TrackPointExtension>
        </extensions>
      </trkpt>
      <trkpt lat="42.51519477926194667816162109375" lon="19.768999926745891571044921875">
        <ele>1831.800048828125</ele>
        <time>2026-06-18T09:49:36.000Z</time>
        <extensions>
          <ns3:TrackPointExtension>
            <ns3:atemp>20.0</ns3:atemp>
          </ns3:TrackPointExtension>
        </extensions>
      </trkpt>
      <trkpt lat="42.51519477926194667816162109375" lon="19.768999926745891571044921875">
        <ele>1831.5999755859375</ele>
        <time>2026-06-18T09:49:37.000Z</time>
        <extensions>
          <ns3:TrackPointExtension>
            <ns3:atemp>19.0</ns3:atemp>
          </ns3:TrackPointExtension>
        </extensions>
      </trkpt>
      <trkpt lat="42.51519477926194667816162109375" lon="19.768999926745891571044921875">
        <ele>1831.5999755859375</ele>
        <time>2026-06-18T09:49:38.000Z</time>
        <extensions>
          <ns3:TrackPointExtension>
            <ns3:atemp>19.0</ns3:atemp>
          </ns3:TrackPointExtension>
        </extensions>
      </trkpt>
      <trkpt lat="42.51519477926194667816162109375" lon="19.768999926745891571044921875">
        <ele>1831.5999755859375</ele>
        <time>2026-06-18T09:49:39.000Z</time>
        <extensions>
          <ns3:TrackPointExtension>
            <ns3:atemp>19.0</ns3:atemp>
          </ns3:TrackPointExtension>
        </extensions>
      </trkpt>
      <trkpt lat="42.51519477926194667816162109375" lon="19.768999926745891571044921875">
        <ele>1831.5999755859375</ele>
        <time>2026-06-18T09:49:40.000Z</time>
        <extensions>
          <ns3:TrackPointExtension>
            <ns3:atemp>19.0</ns3:atemp>
          </ns3:TrackPointExtension>
        </extensions>
      </trkpt>
      <trkpt lat="42.51519477926194667816162109375" lon="19.768999926745891571044921875">
        <ele>1831.5999755859375</ele>
        <time>2026-06-18T09:49:41.000Z</time>
        <extensions>
          <ns3:TrackPointExtension>
            <ns3:atemp>19.0</ns3:atemp>
          </ns3:TrackPointExtension>
        </extensions>
      </trkpt>
      <trkpt lat="42.51519477926194667816162109375" lon="19.768999926745891571044921875">
        <ele>1831.5999755859375</ele>
        <time>2026-06-18T09:49:42.000Z</time>
        <extensions>
          <ns3:TrackPointExtension>
            <ns3:atemp>20.0</ns3:atemp>
          </ns3:TrackPointExtension>
        </extensions>
      </trkpt>
      <trkpt lat="42.51519477926194667816162109375" lon="19.768999926745891571044921875">
        <ele>1831.5999755859375</ele>
        <time>2026-06-18T09:49:43.000Z</time>
        <extensions>
          <ns3:TrackPointExtension>
            <ns3:atemp>19.0</ns3:atemp>
          </ns3:TrackPointExtension>
        </extensions>
      </trkpt>
      <trkpt lat="42.51519477926194667816162109375" lon="19.768999926745891571044921875">
        <ele>1831.5999755859375</ele>
        <time>2026-06-18T09:49:44.000Z</time>
        <extensions>
          <ns3:TrackPointExtension>
            <ns3:atemp>19.0</ns3:atemp>
          </ns3:TrackPointExtension>
        </extensions>
      </trkpt>
      <trkpt lat="42.51519477926194667816162109375" lon="19.768999926745891571044921875">
        <ele>1831.5999755859375</ele>
        <time>2026-06-18T09:49:45.000Z</time>
        <extensions>
          <ns3:TrackPointExtension>
            <ns3:atemp>19.0</ns3:atemp>
          </ns3:TrackPointExtension>
        </extensions>
      </trkpt>
      <trkpt lat="42.51519477926194667816162109375" lon="19.768999926745891571044921875">
        <ele>1831.5999755859375</ele>
        <time>2026-06-18T09:49:46.000Z</time>
        <extensions>
          <ns3:TrackPointExtension>
            <ns3:atemp>20.0</ns3:atemp>
          </ns3:TrackPointExtension>
        </extensions>
      </trkpt>
      <trkpt lat="42.51519477926194667816162109375" lon="19.768999926745891571044921875">
        <ele>1831.5999755859375</ele>
        <time>2026-06-18T09:49:47.000Z</time>
        <extensions>
          <ns3:TrackPointExtension>
            <ns3:atemp>20.0</ns3:atemp>
          </ns3:TrackPointExtension>
        </extensions>
      </trkpt>
      <trkpt lat="42.51519477926194667816162109375" lon="19.768999926745891571044921875">
        <ele>1831.800048828125</ele>
        <time>2026-06-18T09:49:48.000Z</time>
        <extensions>
          <ns3:TrackPointExtension>
            <ns3:atemp>20.0</ns3:atemp>
          </ns3:TrackPointExtension>
        </extensions>
      </trkpt>
      <trkpt lat="42.51519477926194667816162109375" lon="19.768999926745891571044921875">
        <ele>1831.800048828125</ele>
        <time>2026-06-18T09:49:49.000Z</time>
        <extensions>
          <ns3:TrackPointExtension>
            <ns3:atemp>20.0</ns3:atemp>
          </ns3:TrackPointExtension>
        </extensions>
      </trkpt>
      <trkpt lat="42.51519477926194667816162109375" lon="19.768999926745891571044921875">
        <ele>1831.800048828125</ele>
        <time>2026-06-18T09:49:50.000Z</time>
        <extensions>
          <ns3:TrackPointExtension>
            <ns3:atemp>20.0</ns3:atemp>
          </ns3:TrackPointExtension>
        </extensions>
      </trkpt>
      <trkpt lat="42.51519477926194667816162109375" lon="19.768999926745891571044921875">
        <ele>1831.800048828125</ele>
        <time>2026-06-18T09:49:51.000Z</time>
        <extensions>
          <ns3:TrackPointExtension>
            <ns3:atemp>20.0</ns3:atemp>
          </ns3:TrackPointExtension>
        </extensions>
      </trkpt>
      <trkpt lat="42.51519477926194667816162109375" lon="19.768999926745891571044921875">
        <ele>1831.800048828125</ele>
        <time>2026-06-18T09:49:52.000Z</time>
        <extensions>
          <ns3:TrackPointExtension>
            <ns3:atemp>20.0</ns3:atemp>
          </ns3:TrackPointExtension>
        </extensions>
      </trkpt>
      <trkpt lat="42.51519477926194667816162109375" lon="19.768999926745891571044921875">
        <ele>1831.800048828125</ele>
        <time>2026-06-18T09:49:53.000Z</time>
        <extensions>
          <ns3:TrackPointExtension>
            <ns3:atemp>20.0</ns3:atemp>
          </ns3:TrackPointExtension>
        </extensions>
      </trkpt>
      <trkpt lat="42.51519477926194667816162109375" lon="19.768999926745891571044921875">
        <ele>1831.800048828125</ele>
        <time>2026-06-18T09:49:54.000Z</time>
        <extensions>
          <ns3:TrackPointExtension>
            <ns3:atemp>20.0</ns3:atemp>
          </ns3:TrackPointExtension>
        </extensions>
      </trkpt>
      <trkpt lat="42.51519477926194667816162109375" lon="19.768999926745891571044921875">
        <ele>1831.800048828125</ele>
        <time>2026-06-18T09:49:55.000Z</time>
        <extensions>
          <ns3:TrackPointExtension>
            <ns3:atemp>20.0</ns3:atemp>
          </ns3:TrackPointExtension>
        </extensions>
      </trkpt>
      <trkpt lat="42.51519477926194667816162109375" lon="19.768999926745891571044921875">
        <ele>1831.800048828125</ele>
        <time>2026-06-18T09:49:56.000Z</time>
        <extensions>
          <ns3:TrackPointExtension>
            <ns3:atemp>20.0</ns3:atemp>
          </ns3:TrackPointExtension>
        </extensions>
      </trkpt>
      <trkpt lat="42.51519477926194667816162109375" lon="19.768999926745891571044921875">
        <ele>1831.5999755859375</ele>
        <time>2026-06-18T09:49:57.000Z</time>
        <extensions>
          <ns3:TrackPointExtension>
            <ns3:atemp>20.0</ns3:atemp>
          </ns3:TrackPointExtension>
        </extensions>
      </trkpt>
      <trkpt lat="42.51519477926194667816162109375" lon="19.768999926745891571044921875">
        <ele>1831.5999755859375</ele>
        <time>2026-06-18T09:49:58.000Z</time>
        <extensions>
          <ns3:TrackPointExtension>
            <ns3:atemp>20.0</ns3:atemp>
          </ns3:TrackPointExtension>
        </extensions>
      </trkpt>
      <trkpt lat="42.51519477926194667816162109375" lon="19.768999926745891571044921875">
        <ele>1831.4000244140625</ele>
        <time>2026-06-18T09:49:59.000Z</time>
        <extensions>
          <ns3:TrackPointExtension>
            <ns3:atemp>20.0</ns3:atemp>
          </ns3:TrackPointExtension>
        </extensions>
      </trkpt>
      <trkpt lat="42.51519477926194667816162109375" lon="19.768999926745891571044921875">
        <ele>1831.4000244140625</ele>
        <time>2026-06-18T09:50:00.000Z</time>
        <extensions>
          <ns3:TrackPointExtension>
            <ns3:atemp>20.0</ns3:atemp>
          </ns3:TrackPointExtension>
        </extensions>
      </trkpt>
      <trkpt lat="42.51519477926194667816162109375" lon="19.768999926745891571044921875">
        <ele>1831.199951171875</ele>
        <time>2026-06-18T09:50:01.000Z</time>
        <extensions>
          <ns3:TrackPointExtension>
            <ns3:atemp>20.0</ns3:atemp>
          </ns3:TrackPointExtension>
        </extensions>
      </trkpt>
      <trkpt lat="42.51519477926194667816162109375" lon="19.768999926745891571044921875">
        <ele>1831.199951171875</ele>
        <time>2026-06-18T09:50:02.000Z</time>
        <extensions>
          <ns3:TrackPointExtension>
            <ns3:atemp>20.0</ns3:atemp>
          </ns3:TrackPointExtension>
        </extensions>
      </trkpt>
      <trkpt lat="42.51519477926194667816162109375" lon="19.768999926745891571044921875">
        <ele>1831.199951171875</ele>
        <time>2026-06-18T09:50:03.000Z</time>
        <extensions>
          <ns3:TrackPointExtension>
            <ns3:atemp>20.0</ns3:atemp>
          </ns3:TrackPointExtension>
        </extensions>
      </trkpt>
      <trkpt lat="42.51519477926194667816162109375" lon="19.768999926745891571044921875">
        <ele>1831.199951171875</ele>
        <time>2026-06-18T09:50:04.000Z</time>
        <extensions>
          <ns3:TrackPointExtension>
            <ns3:atemp>20.0</ns3:atemp>
          </ns3:TrackPointExtension>
        </extensions>
      </trkpt>
      <trkpt lat="42.51519477926194667816162109375" lon="19.768999926745891571044921875">
        <ele>1831</ele>
        <time>2026-06-18T09:50:05.000Z</time>
        <extensions>
          <ns3:TrackPointExtension>
            <ns3:atemp>20.0</ns3:atemp>
          </ns3:TrackPointExtension>
        </extensions>
      </trkpt>
      <trkpt lat="42.51519477926194667816162109375" lon="19.768999926745891571044921875">
        <ele>1831</ele>
        <time>2026-06-18T09:50:06.000Z</time>
        <extensions>
          <ns3:TrackPointExtension>
            <ns3:atemp>20.0</ns3:atemp>
          </ns3:TrackPointExtension>
        </extensions>
      </trkpt>
      <trkpt lat="42.51519477926194667816162109375" lon="19.768999926745891571044921875">
        <ele>1831</ele>
        <time>2026-06-18T09:50:07.000Z</time>
        <extensions>
          <ns3:TrackPointExtension>
            <ns3:atemp>20.0</ns3:atemp>
          </ns3:TrackPointExtension>
        </extensions>
      </trkpt>
      <trkpt lat="42.51519477926194667816162109375" lon="19.768999926745891571044921875">
        <ele>1831</ele>
        <time>2026-06-18T09:50:08.000Z</time>
        <extensions>
          <ns3:TrackPointExtension>
            <ns3:atemp>20.0</ns3:atemp>
          </ns3:TrackPointExtension>
        </extensions>
      </trkpt>
      <trkpt lat="42.51519477926194667816162109375" lon="19.768999926745891571044921875">
        <ele>1831</ele>
        <time>2026-06-18T09:50:09.000Z</time>
        <extensions>
          <ns3:TrackPointExtension>
            <ns3:atemp>20.0</ns3:atemp>
          </ns3:TrackPointExtension>
        </extensions>
      </trkpt>
      <trkpt lat="42.51519477926194667816162109375" lon="19.768999926745891571044921875">
        <ele>1831</ele>
        <time>2026-06-18T09:50:10.000Z</time>
        <extensions>
          <ns3:TrackPointExtension>
            <ns3:atemp>20.0</ns3:atemp>
          </ns3:TrackPointExtension>
        </extensions>
      </trkpt>
      <trkpt lat="42.51519477926194667816162109375" lon="19.768999926745891571044921875">
        <ele>1830.800048828125</ele>
        <time>2026-06-18T09:50:11.000Z</time>
        <extensions>
          <ns3:TrackPointExtension>
            <ns3:atemp>20.0</ns3:atemp>
          </ns3:TrackPointExtension>
        </extensions>
      </trkpt>
      <trkpt lat="42.51519477926194667816162109375" lon="19.768999926745891571044921875">
        <ele>1830.800048828125</ele>
        <time>2026-06-18T09:50:12.000Z</time>
        <extensions>
          <ns3:TrackPointExtension>
            <ns3:atemp>20.0</ns3:atemp>
          </ns3:TrackPointExtension>
        </extensions>
      </trkpt>
      <trkpt lat="42.51519477926194667816162109375" lon="19.768999926745891571044921875">
        <ele>1830.800048828125</ele>
        <time>2026-06-18T09:50:13.000Z</time>
        <extensions>
          <ns3:TrackPointExtension>
            <ns3:atemp>20.0</ns3:atemp>
          </ns3:TrackPointExtension>
        </extensions>
      </trkpt>
      <trkpt lat="42.51519477926194667816162109375" lon="19.768999926745891571044921875">
        <ele>1830.800048828125</ele>
        <time>2026-06-18T09:50:14.000Z</time>
        <extensions>
          <ns3:TrackPointExtension>
            <ns3:atemp>20.0</ns3:atemp>
          </ns3:TrackPointExtension>
        </extensions>
      </trkpt>
      <trkpt lat="42.51519477926194667816162109375" lon="19.768999926745891571044921875">
        <ele>1830.800048828125</ele>
        <time>2026-06-18T09:50:15.000Z</time>
        <extensions>
          <ns3:TrackPointExtension>
            <ns3:atemp>20.0</ns3:atemp>
          </ns3:TrackPointExtension>
        </extensions>
      </trkpt>
      <trkpt lat="42.51519477926194667816162109375" lon="19.768999926745891571044921875">
        <ele>1830.800048828125</ele>
        <time>2026-06-18T09:50:16.000Z</time>
        <extensions>
          <ns3:TrackPointExtension>
            <ns3:atemp>20.0</ns3:atemp>
          </ns3:TrackPointExtension>
        </extensions>
      </trkpt>
      <trkpt lat="42.51519477926194667816162109375" lon="19.768999926745891571044921875">
        <ele>1830.800048828125</ele>
        <time>2026-06-18T09:50:17.000Z</time>
        <extensions>
          <ns3:TrackPointExtension>
            <ns3:atemp>20.0</ns3:atemp>
          </ns3:TrackPointExtension>
        </extensions>
      </trkpt>
      <trkpt lat="42.51519477926194667816162109375" lon="19.768999926745891571044921875">
        <ele>1830.800048828125</ele>
        <time>2026-06-18T09:50:18.000Z</time>
        <extensions>
          <ns3:TrackPointExtension>
            <ns3:atemp>20.0</ns3:atemp>
          </ns3:TrackPointExtension>
        </extensions>
      </trkpt>
      <trkpt lat="42.51519477926194667816162109375" lon="19.768999926745891571044921875">
        <ele>1830.800048828125</ele>
        <time>2026-06-18T09:50:19.000Z</time>
        <extensions>
          <ns3:TrackPointExtension>
            <ns3:atemp>20.0</ns3:atemp>
          </ns3:TrackPointExtension>
        </extensions>
      </trkpt>
      <trkpt lat="42.51519477926194667816162109375" lon="19.768999926745891571044921875">
        <ele>1830.800048828125</ele>
        <time>2026-06-18T09:50:20.000Z</time>
        <extensions>
          <ns3:TrackPointExtension>
            <ns3:atemp>20.0</ns3:atemp>
          </ns3:TrackPointExtension>
        </extensions>
      </trkpt>
      <trkpt lat="42.51519477926194667816162109375" lon="19.768999926745891571044921875">
        <ele>1830.800048828125</ele>
        <time>2026-06-18T09:50:21.000Z</time>
        <extensions>
          <ns3:TrackPointExtension>
            <ns3:atemp>20.0</ns3:atemp>
          </ns3:TrackPointExtension>
        </extensions>
      </trkpt>
      <trkpt lat="42.51519477926194667816162109375" lon="19.768999926745891571044921875">
        <ele>1831</ele>
        <time>2026-06-18T09:50:22.000Z</time>
        <extensions>
          <ns3:TrackPointExtension>
            <ns3:atemp>20.0</ns3:atemp>
          </ns3:TrackPointExtension>
        </extensions>
      </trkpt>
      <trkpt lat="42.51519477926194667816162109375" lon="19.768999926745891571044921875">
        <ele>1831</ele>
        <time>2026-06-18T09:50:23.000Z</time>
        <extensions>
          <ns3:TrackPointExtension>
            <ns3:atemp>20.0</ns3:atemp>
          </ns3:TrackPointExtension>
        </extensions>
      </trkpt>
      <trkpt lat="42.51519477926194667816162109375" lon="19.768999926745891571044921875">
        <ele>1831</ele>
        <time>2026-06-18T09:50:24.000Z</time>
        <extensions>
          <ns3:TrackPointExtension>
            <ns3:atemp>20.0</ns3:atemp>
          </ns3:TrackPointExtension>
        </extensions>
      </trkpt>
      <trkpt lat="42.51519477926194667816162109375" lon="19.768999926745891571044921875">
        <ele>1831</ele>
        <time>2026-06-18T09:50:25.000Z</time>
        <extensions>
          <ns3:TrackPointExtension>
            <ns3:atemp>20.0</ns3:atemp>
          </ns3:TrackPointExtension>
        </extensions>
      </trkpt>
      <trkpt lat="42.51519477926194667816162109375" lon="19.768999926745891571044921875">
        <ele>1831</ele>
        <time>2026-06-18T09:50:26.000Z</time>
        <extensions>
          <ns3:TrackPointExtension>
            <ns3:atemp>20.0</ns3:atemp>
          </ns3:TrackPointExtension>
        </extensions>
      </trkpt>
      <trkpt lat="42.51519477926194667816162109375" lon="19.768999926745891571044921875">
        <ele>1831</ele>
        <time>2026-06-18T09:50:27.000Z</time>
        <extensions>
          <ns3:TrackPointExtension>
            <ns3:atemp>20.0</ns3:atemp>
          </ns3:TrackPointExtension>
        </extensions>
      </trkpt>
      <trkpt lat="42.51519477926194667816162109375" lon="19.768999926745891571044921875">
        <ele>1831</ele>
        <time>2026-06-18T09:50:28.000Z</time>
        <extensions>
          <ns3:TrackPointExtension>
            <ns3:atemp>20.0</ns3:atemp>
          </ns3:TrackPointExtension>
        </extensions>
      </trkpt>
      <trkpt lat="42.51519477926194667816162109375" lon="19.768999926745891571044921875">
        <ele>1831</ele>
        <time>2026-06-18T09:50:29.000Z</time>
        <extensions>
          <ns3:TrackPointExtension>
            <ns3:atemp>20.0</ns3:atemp>
          </ns3:TrackPointExtension>
        </extensions>
      </trkpt>
      <trkpt lat="42.51519477926194667816162109375" lon="19.768999926745891571044921875">
        <ele>1831</ele>
        <time>2026-06-18T09:50:30.000Z</time>
        <extensions>
          <ns3:TrackPointExtension>
            <ns3:atemp>20.0</ns3:atemp>
          </ns3:TrackPointExtension>
        </extensions>
      </trkpt>
      <trkpt lat="42.51519477926194667816162109375" lon="19.768999926745891571044921875">
        <ele>1831</ele>
        <time>2026-06-18T09:50:31.000Z</time>
        <extensions>
          <ns3:TrackPointExtension>
            <ns3:atemp>20.0</ns3:atemp>
          </ns3:TrackPointExtension>
        </extensions>
      </trkpt>
      <trkpt lat="42.51519477926194667816162109375" lon="19.768999926745891571044921875">
        <ele>1831</ele>
        <time>2026-06-18T09:50:32.000Z</time>
        <extensions>
          <ns3:TrackPointExtension>
            <ns3:atemp>20.0</ns3:atemp>
          </ns3:TrackPointExtension>
        </extensions>
      </trkpt>
      <trkpt lat="42.51519477926194667816162109375" lon="19.768999926745891571044921875">
        <ele>1831</ele>
        <time>2026-06-18T09:50:33.000Z</time>
        <extensions>
          <ns3:TrackPointExtension>
            <ns3:atemp>20.0</ns3:atemp>
          </ns3:TrackPointExtension>
        </extensions>
      </trkpt>
      <trkpt lat="42.51519477926194667816162109375" lon="19.768999926745891571044921875">
        <ele>1831</ele>
        <time>2026-06-18T09:50:34.000Z</time>
        <extensions>
          <ns3:TrackPointExtension>
            <ns3:atemp>20.0</ns3:atemp>
          </ns3:TrackPointExtension>
        </extensions>
      </trkpt>
      <trkpt lat="42.51519477926194667816162109375" lon="19.768999926745891571044921875">
        <ele>1831</ele>
        <time>2026-06-18T09:50:35.000Z</time>
        <extensions>
          <ns3:TrackPointExtension>
            <ns3:atemp>20.0</ns3:atemp>
          </ns3:TrackPointExtension>
        </extensions>
      </trkpt>
      <trkpt lat="42.51519477926194667816162109375" lon="19.768999926745891571044921875">
        <ele>1831</ele>
        <time>2026-06-18T09:50:36.000Z</time>
        <extensions>
          <ns3:TrackPointExtension>
            <ns3:atemp>20.0</ns3:atemp>
          </ns3:TrackPointExtension>
        </extensions>
      </trkpt>
      <trkpt lat="42.51519477926194667816162109375" lon="19.768999926745891571044921875">
        <ele>1830.800048828125</ele>
        <time>2026-06-18T09:50:37.000Z</time>
        <extensions>
          <ns3:TrackPointExtension>
            <ns3:atemp>20.0</ns3:atemp>
          </ns3:TrackPointExtension>
        </extensions>
      </trkpt>
      <trkpt lat="42.51519477926194667816162109375" lon="19.768999926745891571044921875">
        <ele>1830.800048828125</ele>
        <time>2026-06-18T09:50:38.000Z</time>
        <extensions>
          <ns3:TrackPointExtension>
            <ns3:atemp>20.0</ns3:atemp>
          </ns3:TrackPointExtension>
        </extensions>
      </trkpt>
      <trkpt lat="42.51519477926194667816162109375" lon="19.768999926745891571044921875">
        <ele>1830.800048828125</ele>
        <time>2026-06-18T09:50:39.000Z</time>
        <extensions>
          <ns3:TrackPointExtension>
            <ns3:atemp>20.0</ns3:atemp>
          </ns3:TrackPointExtension>
        </extensions>
      </trkpt>
      <trkpt lat="42.51519477926194667816162109375" lon="19.768999926745891571044921875">
        <ele>1830.800048828125</ele>
        <time>2026-06-18T09:50:40.000Z</time>
        <extensions>
          <ns3:TrackPointExtension>
            <ns3:atemp>20.0</ns3:atemp>
          </ns3:TrackPointExtension>
        </extensions>
      </trkpt>
      <trkpt lat="42.51519477926194667816162109375" lon="19.768999926745891571044921875">
        <ele>1830.800048828125</ele>
        <time>2026-06-18T09:50:41.000Z</time>
        <extensions>
          <ns3:TrackPointExtension>
            <ns3:atemp>20.0</ns3:atemp>
          </ns3:TrackPointExtension>
        </extensions>
      </trkpt>
      <trkpt lat="42.51519477926194667816162109375" lon="19.768999926745891571044921875">
        <ele>1830.800048828125</ele>
        <time>2026-06-18T09:50:42.000Z</time>
        <extensions>
          <ns3:TrackPointExtension>
            <ns3:atemp>20.0</ns3:atemp>
          </ns3:TrackPointExtension>
        </extensions>
      </trkpt>
      <trkpt lat="42.51519477926194667816162109375" lon="19.768999926745891571044921875">
        <ele>1830.800048828125</ele>
        <time>2026-06-18T09:50:43.000Z</time>
        <extensions>
          <ns3:TrackPointExtension>
            <ns3:atemp>20.0</ns3:atemp>
          </ns3:TrackPointExtension>
        </extensions>
      </trkpt>
      <trkpt lat="42.51519477926194667816162109375" lon="19.768999926745891571044921875">
        <ele>1830.800048828125</ele>
        <time>2026-06-18T09:50:44.000Z</time>
        <extensions>
          <ns3:TrackPointExtension>
            <ns3:atemp>20.0</ns3:atemp>
          </ns3:TrackPointExtension>
        </extensions>
      </trkpt>
      <trkpt lat="42.51519477926194667816162109375" lon="19.768999926745891571044921875">
        <ele>1830.800048828125</ele>
        <time>2026-06-18T09:50:45.000Z</time>
        <extensions>
          <ns3:TrackPointExtension>
            <ns3:atemp>20.0</ns3:atemp>
          </ns3:TrackPointExtension>
        </extensions>
      </trkpt>
      <trkpt lat="42.51519477926194667816162109375" lon="19.768999926745891571044921875">
        <ele>1830.800048828125</ele>
        <time>2026-06-18T09:50:46.000Z</time>
        <extensions>
          <ns3:TrackPointExtension>
            <ns3:atemp>20.0</ns3:atemp>
          </ns3:TrackPointExtension>
        </extensions>
      </trkpt>
      <trkpt lat="42.51519477926194667816162109375" lon="19.768999926745891571044921875">
        <ele>1830.800048828125</ele>
        <time>2026-06-18T09:50:47.000Z</time>
        <extensions>
          <ns3:TrackPointExtension>
            <ns3:atemp>20.0</ns3:atemp>
          </ns3:TrackPointExtension>
        </extensions>
      </trkpt>
      <trkpt lat="42.51519477926194667816162109375" lon="19.768999926745891571044921875">
        <ele>1830.800048828125</ele>
        <time>2026-06-18T09:50:48.000Z</time>
        <extensions>
          <ns3:TrackPointExtension>
            <ns3:atemp>20.0</ns3:atemp>
          </ns3:TrackPointExtension>
        </extensions>
      </trkpt>
      <trkpt lat="42.51519477926194667816162109375" lon="19.768999926745891571044921875">
        <ele>1830.800048828125</ele>
        <time>2026-06-18T09:50:49.000Z</time>
        <extensions>
          <ns3:TrackPointExtension>
            <ns3:atemp>20.0</ns3:atemp>
          </ns3:TrackPointExtension>
        </extensions>
      </trkpt>
      <trkpt lat="42.51519477926194667816162109375" lon="19.768999926745891571044921875">
        <ele>1830.800048828125</ele>
        <time>2026-06-18T09:50:50.000Z</time>
        <extensions>
          <ns3:TrackPointExtension>
            <ns3:atemp>20.0</ns3:atemp>
          </ns3:TrackPointExtension>
        </extensions>
      </trkpt>
      <trkpt lat="42.51519477926194667816162109375" lon="19.768999926745891571044921875">
        <ele>1830.800048828125</ele>
        <time>2026-06-18T09:50:51.000Z</time>
        <extensions>
          <ns3:TrackPointExtension>
            <ns3:atemp>20.0</ns3:atemp>
          </ns3:TrackPointExtension>
        </extensions>
      </trkpt>
      <trkpt lat="42.51519477926194667816162109375" lon="19.768999926745891571044921875">
        <ele>1830.800048828125</ele>
        <time>2026-06-18T09:50:52.000Z</time>
        <extensions>
          <ns3:TrackPointExtension>
            <ns3:atemp>20.0</ns3:atemp>
          </ns3:TrackPointExtension>
        </extensions>
      </trkpt>
      <trkpt lat="42.51519477926194667816162109375" lon="19.768999926745891571044921875">
        <ele>1830.800048828125</ele>
        <time>2026-06-18T09:50:53.000Z</time>
        <extensions>
          <ns3:TrackPointExtension>
            <ns3:atemp>20.0</ns3:atemp>
          </ns3:TrackPointExtension>
        </extensions>
      </trkpt>
      <trkpt lat="42.51519477926194667816162109375" lon="19.768999926745891571044921875">
        <ele>1830.800048828125</ele>
        <time>2026-06-18T09:50:54.000Z</time>
        <extensions>
          <ns3:TrackPointExtension>
            <ns3:atemp>20.0</ns3:atemp>
          </ns3:TrackPointExtension>
        </extensions>
      </trkpt>
      <trkpt lat="42.51519477926194667816162109375" lon="19.768999926745891571044921875">
        <ele>1830.800048828125</ele>
        <time>2026-06-18T09:50:55.000Z</time>
        <extensions>
          <ns3:TrackPointExtension>
            <ns3:atemp>20.0</ns3:atemp>
          </ns3:TrackPointExtension>
        </extensions>
      </trkpt>
      <trkpt lat="42.51519477926194667816162109375" lon="19.768999926745891571044921875">
        <ele>1830.800048828125</ele>
        <time>2026-06-18T09:50:56.000Z</time>
        <extensions>
          <ns3:TrackPointExtension>
            <ns3:atemp>20.0</ns3:atemp>
          </ns3:TrackPointExtension>
        </extensions>
      </trkpt>
      <trkpt lat="42.51519477926194667816162109375" lon="19.768999926745891571044921875">
        <ele>1830.800048828125</ele>
        <time>2026-06-18T09:50:57.000Z</time>
        <extensions>
          <ns3:TrackPointExtension>
            <ns3:atemp>20.0</ns3:atemp>
          </ns3:TrackPointExtension>
        </extensions>
      </trkpt>
      <trkpt lat="42.51519477926194667816162109375" lon="19.768999926745891571044921875">
        <ele>1830.800048828125</ele>
        <time>2026-06-18T09:50:58.000Z</time>
        <extensions>
          <ns3:TrackPointExtension>
            <ns3:atemp>20.0</ns3:atemp>
          </ns3:TrackPointExtension>
        </extensions>
      </trkpt>
      <trkpt lat="42.51519477926194667816162109375" lon="19.768999926745891571044921875">
        <ele>1830.800048828125</ele>
        <time>2026-06-18T09:50:59.000Z</time>
        <extensions>
          <ns3:TrackPointExtension>
            <ns3:atemp>20.0</ns3:atemp>
          </ns3:TrackPointExtension>
        </extensions>
      </trkpt>
      <trkpt lat="42.51519477926194667816162109375" lon="19.768999926745891571044921875">
        <ele>1830.800048828125</ele>
        <time>2026-06-18T09:51:00.000Z</time>
        <extensions>
          <ns3:TrackPointExtension>
            <ns3:atemp>20.0</ns3:atemp>
          </ns3:TrackPointExtension>
        </extensions>
      </trkpt>
      <trkpt lat="42.51519477926194667816162109375" lon="19.768999926745891571044921875">
        <ele>1830.800048828125</ele>
        <time>2026-06-18T09:51:01.000Z</time>
        <extensions>
          <ns3:TrackPointExtension>
            <ns3:atemp>20.0</ns3:atemp>
          </ns3:TrackPointExtension>
        </extensions>
      </trkpt>
      <trkpt lat="42.51519477926194667816162109375" lon="19.768999926745891571044921875">
        <ele>1831</ele>
        <time>2026-06-18T09:51:02.000Z</time>
        <extensions>
          <ns3:TrackPointExtension>
            <ns3:atemp>20.0</ns3:atemp>
          </ns3:TrackPointExtension>
        </extensions>
      </trkpt>
      <trkpt lat="42.51519477926194667816162109375" lon="19.768999926745891571044921875">
        <ele>1831</ele>
        <time>2026-06-18T09:51:03.000Z</time>
        <extensions>
          <ns3:TrackPointExtension>
            <ns3:atemp>20.0</ns3:atemp>
          </ns3:TrackPointExtension>
        </extensions>
      </trkpt>
      <trkpt lat="42.51519477926194667816162109375" lon="19.768999926745891571044921875">
        <ele>1831</ele>
        <time>2026-06-18T09:51:04.000Z</time>
        <extensions>
          <ns3:TrackPointExtension>
            <ns3:atemp>20.0</ns3:atemp>
          </ns3:TrackPointExtension>
        </extensions>
      </trkpt>
      <trkpt lat="42.51519477926194667816162109375" lon="19.768999926745891571044921875">
        <ele>1831</ele>
        <time>2026-06-18T09:51:05.000Z</time>
        <extensions>
          <ns3:TrackPointExtension>
            <ns3:atemp>20.0</ns3:atemp>
          </ns3:TrackPointExtension>
        </extensions>
      </trkpt>
      <trkpt lat="42.51519477926194667816162109375" lon="19.768999926745891571044921875">
        <ele>1831</ele>
        <time>2026-06-18T09:51:06.000Z</time>
        <extensions>
          <ns3:TrackPointExtension>
            <ns3:atemp>20.0</ns3:atemp>
          </ns3:TrackPointExtension>
        </extensions>
      </trkpt>
      <trkpt lat="42.51519477926194667816162109375" lon="19.768999926745891571044921875">
        <ele>1831.199951171875</ele>
        <time>2026-06-18T09:51:07.000Z</time>
        <extensions>
          <ns3:TrackPointExtension>
            <ns3:atemp>20.0</ns3:atemp>
          </ns3:TrackPointExtension>
        </extensions>
      </trkpt>
      <trkpt lat="42.51519477926194667816162109375" lon="19.768999926745891571044921875">
        <ele>1831.199951171875</ele>
        <time>2026-06-18T09:51:08.000Z</time>
        <extensions>
          <ns3:TrackPointExtension>
            <ns3:atemp>20.0</ns3:atemp>
          </ns3:TrackPointExtension>
        </extensions>
      </trkpt>
      <trkpt lat="42.51519477926194667816162109375" lon="19.768999926745891571044921875">
        <ele>1831.199951171875</ele>
        <time>2026-06-18T09:51:09.000Z</time>
        <extensions>
          <ns3:TrackPointExtension>
            <ns3:atemp>20.0</ns3:atemp>
          </ns3:TrackPointExtension>
        </extensions>
      </trkpt>
      <trkpt lat="42.51519477926194667816162109375" lon="19.768999926745891571044921875">
        <ele>1831.199951171875</ele>
        <time>2026-06-18T09:51:10.000Z</time>
        <extensions>
          <ns3:TrackPointExtension>
            <ns3:atemp>20.0</ns3:atemp>
          </ns3:TrackPointExtension>
        </extensions>
      </trkpt>
      <trkpt lat="42.51519477926194667816162109375" lon="19.768999926745891571044921875">
        <ele>1831.199951171875</ele>
        <time>2026-06-18T09:51:11.000Z</time>
        <extensions>
          <ns3:TrackPointExtension>
            <ns3:atemp>20.0</ns3:atemp>
          </ns3:TrackPointExtension>
        </extensions>
      </trkpt>
      <trkpt lat="42.51519477926194667816162109375" lon="19.768999926745891571044921875">
        <ele>1831.199951171875</ele>
        <time>2026-06-18T09:51:12.000Z</time>
        <extensions>
          <ns3:TrackPointExtension>
            <ns3:atemp>20.0</ns3:atemp>
          </ns3:TrackPointExtension>
        </extensions>
      </trkpt>
      <trkpt lat="42.51519477926194667816162109375" lon="19.768999926745891571044921875">
        <ele>1831</ele>
        <time>2026-06-18T09:51:13.000Z</time>
        <extensions>
          <ns3:TrackPointExtension>
            <ns3:atemp>20.0</ns3:atemp>
          </ns3:TrackPointExtension>
        </extensions>
      </trkpt>
      <trkpt lat="42.51519477926194667816162109375" lon="19.768999926745891571044921875">
        <ele>1831</ele>
        <time>2026-06-18T09:51:14.000Z</time>
        <extensions>
          <ns3:TrackPointExtension>
            <ns3:atemp>20.0</ns3:atemp>
          </ns3:TrackPointExtension>
        </extensions>
      </trkpt>
      <trkpt lat="42.51519477926194667816162109375" lon="19.768999926745891571044921875">
        <ele>1831</ele>
        <time>2026-06-18T09:51:15.000Z</time>
        <extensions>
          <ns3:TrackPointExtension>
            <ns3:atemp>20.0</ns3:atemp>
          </ns3:TrackPointExtension>
        </extensions>
      </trkpt>
      <trkpt lat="42.51519477926194667816162109375" lon="19.768999926745891571044921875">
        <ele>1831</ele>
        <time>2026-06-18T09:51:16.000Z</time>
        <extensions>
          <ns3:TrackPointExtension>
            <ns3:atemp>20.0</ns3:atemp>
          </ns3:TrackPointExtension>
        </extensions>
      </trkpt>
      <trkpt lat="42.51519477926194667816162109375" lon="19.768999926745891571044921875">
        <ele>1831</ele>
        <time>2026-06-18T09:51:17.000Z</time>
        <extensions>
          <ns3:TrackPointExtension>
            <ns3:atemp>20.0</ns3:atemp>
          </ns3:TrackPointExtension>
        </extensions>
      </trkpt>
      <trkpt lat="42.51519477926194667816162109375" lon="19.768999926745891571044921875">
        <ele>1831</ele>
        <time>2026-06-18T09:51:18.000Z</time>
        <extensions>
          <ns3:TrackPointExtension>
            <ns3:atemp>20.0</ns3:atemp>
          </ns3:TrackPointExtension>
        </extensions>
      </trkpt>
      <trkpt lat="42.51519477926194667816162109375" lon="19.768999926745891571044921875">
        <ele>1831</ele>
        <time>2026-06-18T09:51:19.000Z</time>
        <extensions>
          <ns3:TrackPointExtension>
            <ns3:atemp>20.0</ns3:atemp>
          </ns3:TrackPointExtension>
        </extensions>
      </trkpt>
      <trkpt lat="42.51519477926194667816162109375" lon="19.768999926745891571044921875">
        <ele>1831</ele>
        <time>2026-06-18T09:51:20.000Z</time>
        <extensions>
          <ns3:TrackPointExtension>
            <ns3:atemp>20.0</ns3:atemp>
          </ns3:TrackPointExtension>
        </extensions>
      </trkpt>
      <trkpt lat="42.51519477926194667816162109375" lon="19.768999926745891571044921875">
        <ele>1831.199951171875</ele>
        <time>2026-06-18T09:51:21.000Z</time>
        <extensions>
          <ns3:TrackPointExtension>
            <ns3:atemp>20.0</ns3:atemp>
          </ns3:TrackPointExtension>
        </extensions>
      </trkpt>
      <trkpt lat="42.51519477926194667816162109375" lon="19.768999926745891571044921875">
        <ele>1831.199951171875</ele>
        <time>2026-06-18T09:51:22.000Z</time>
        <extensions>
          <ns3:TrackPointExtension>
            <ns3:atemp>20.0</ns3:atemp>
          </ns3:TrackPointExtension>
        </extensions>
      </trkpt>
      <trkpt lat="42.51519477926194667816162109375" lon="19.768999926745891571044921875">
        <ele>1831.4000244140625</ele>
        <time>2026-06-18T09:51:23.000Z</time>
        <extensions>
          <ns3:TrackPointExtension>
            <ns3:atemp>20.0</ns3:atemp>
          </ns3:TrackPointExtension>
        </extensions>
      </trkpt>
      <trkpt lat="42.51519477926194667816162109375" lon="19.768999926745891571044921875">
        <ele>1831.4000244140625</ele>
        <time>2026-06-18T09:51:24.000Z</time>
        <extensions>
          <ns3:TrackPointExtension>
            <ns3:atemp>20.0</ns3:atemp>
          </ns3:TrackPointExtension>
        </extensions>
      </trkpt>
      <trkpt lat="42.51519477926194667816162109375" lon="19.768999926745891571044921875">
        <ele>1831.5999755859375</ele>
        <time>2026-06-18T09:51:25.000Z</time>
        <extensions>
          <ns3:TrackPointExtension>
            <ns3:atemp>20.0</ns3:atemp>
          </ns3:TrackPointExtension>
        </extensions>
      </trkpt>
      <trkpt lat="42.51519477926194667816162109375" lon="19.768999926745891571044921875">
        <ele>1831.5999755859375</ele>
        <time>2026-06-18T09:51:26.000Z</time>
        <extensions>
          <ns3:TrackPointExtension>
            <ns3:atemp>20.0</ns3:atemp>
          </ns3:TrackPointExtension>
        </extensions>
      </trkpt>
      <trkpt lat="42.51519477926194667816162109375" lon="19.768999926745891571044921875">
        <ele>1831.5999755859375</ele>
        <time>2026-06-18T09:51:27.000Z</time>
        <extensions>
          <ns3:TrackPointExtension>
            <ns3:atemp>20.0</ns3:atemp>
          </ns3:TrackPointExtension>
        </extensions>
      </trkpt>
      <trkpt lat="42.51519477926194667816162109375" lon="19.768999926745891571044921875">
        <ele>1831.5999755859375</ele>
        <time>2026-06-18T09:51:28.000Z</time>
        <extensions>
          <ns3:TrackPointExtension>
            <ns3:atemp>20.0</ns3:atemp>
          </ns3:TrackPointExtension>
        </extensions>
      </trkpt>
      <trkpt lat="42.51519477926194667816162109375" lon="19.768999926745891571044921875">
        <ele>1831.800048828125</ele>
        <time>2026-06-18T09:51:29.000Z</time>
        <extensions>
          <ns3:TrackPointExtension>
            <ns3:atemp>20.0</ns3:atemp>
          </ns3:TrackPointExtension>
        </extensions>
      </trkpt>
      <trkpt lat="42.51519477926194667816162109375" lon="19.768999926745891571044921875">
        <ele>1831.800048828125</ele>
        <time>2026-06-18T09:51:30.000Z</time>
        <extensions>
          <ns3:TrackPointExtension>
            <ns3:atemp>20.0</ns3:atemp>
          </ns3:TrackPointExtension>
        </extensions>
      </trkpt>
      <trkpt lat="42.51519477926194667816162109375" lon="19.768999926745891571044921875">
        <ele>1831.800048828125</ele>
        <time>2026-06-18T09:51:31.000Z</time>
        <extensions>
          <ns3:TrackPointExtension>
            <ns3:atemp>20.0</ns3:atemp>
          </ns3:TrackPointExtension>
        </extensions>
      </trkpt>
      <trkpt lat="42.51519477926194667816162109375" lon="19.768999926745891571044921875">
        <ele>1832</ele>
        <time>2026-06-18T09:51:32.000Z</time>
        <extensions>
          <ns3:TrackPointExtension>
            <ns3:atemp>20.0</ns3:atemp>
          </ns3:TrackPointExtension>
        </extensions>
      </trkpt>
      <trkpt lat="42.51519477926194667816162109375" lon="19.768999926745891571044921875">
        <ele>1832</ele>
        <time>2026-06-18T09:51:33.000Z</time>
        <extensions>
          <ns3:TrackPointExtension>
            <ns3:atemp>20.0</ns3:atemp>
          </ns3:TrackPointExtension>
        </extensions>
      </trkpt>
      <trkpt lat="42.51519477926194667816162109375" lon="19.768999926745891571044921875">
        <ele>1832</ele>
        <time>2026-06-18T09:51:34.000Z</time>
        <extensions>
          <ns3:TrackPointExtension>
            <ns3:atemp>20.0</ns3:atemp>
          </ns3:TrackPointExtension>
        </extensions>
      </trkpt>
      <trkpt lat="42.51519477926194667816162109375" lon="19.768999926745891571044921875">
        <ele>1832</ele>
        <time>2026-06-18T09:51:35.000Z</time>
        <extensions>
          <ns3:TrackPointExtension>
            <ns3:atemp>20.0</ns3:atemp>
          </ns3:TrackPointExtension>
        </extensions>
      </trkpt>
      <trkpt lat="42.51519477926194667816162109375" lon="19.768999926745891571044921875">
        <ele>1832</ele>
        <time>2026-06-18T09:51:36.000Z</time>
        <extensions>
          <ns3:TrackPointExtension>
            <ns3:atemp>20.0</ns3:atemp>
          </ns3:TrackPointExtension>
        </extensions>
      </trkpt>
      <trkpt lat="42.51519477926194667816162109375" lon="19.768999926745891571044921875">
        <ele>1832</ele>
        <time>2026-06-18T09:51:37.000Z</time>
        <extensions>
          <ns3:TrackPointExtension>
            <ns3:atemp>20.0</ns3:atemp>
          </ns3:TrackPointExtension>
        </extensions>
      </trkpt>
      <trkpt lat="42.51519477926194667816162109375" lon="19.768999926745891571044921875">
        <ele>1832</ele>
        <time>2026-06-18T09:51:38.000Z</time>
        <extensions>
          <ns3:TrackPointExtension>
            <ns3:atemp>20.0</ns3:atemp>
          </ns3:TrackPointExtension>
        </extensions>
      </trkpt>
      <trkpt lat="42.51519477926194667816162109375" lon="19.768999926745891571044921875">
        <ele>1832</ele>
        <time>2026-06-18T09:51:39.000Z</time>
        <extensions>
          <ns3:TrackPointExtension>
            <ns3:atemp>21.0</ns3:atemp>
          </ns3:TrackPointExtension>
        </extensions>
      </trkpt>
      <trkpt lat="42.51519477926194667816162109375" lon="19.768999926745891571044921875">
        <ele>1832.199951171875</ele>
        <time>2026-06-18T09:51:40.000Z</time>
        <extensions>
          <ns3:TrackPointExtension>
            <ns3:atemp>21.0</ns3:atemp>
          </ns3:TrackPointExtension>
        </extensions>
      </trkpt>
      <trkpt lat="42.51519477926194667816162109375" lon="19.768999926745891571044921875">
        <ele>1832.199951171875</ele>
        <time>2026-06-18T09:51:41.000Z</time>
        <extensions>
          <ns3:TrackPointExtension>
            <ns3:atemp>21.0</ns3:atemp>
          </ns3:TrackPointExtension>
        </extensions>
      </trkpt>
      <trkpt lat="42.51519477926194667816162109375" lon="19.768999926745891571044921875">
        <ele>1832.199951171875</ele>
        <time>2026-06-18T09:51:42.000Z</time>
        <extensions>
          <ns3:TrackPointExtension>
            <ns3:atemp>21.0</ns3:atemp>
          </ns3:TrackPointExtension>
        </extensions>
      </trkpt>
      <trkpt lat="42.51519477926194667816162109375" lon="19.768999926745891571044921875">
        <ele>1832.199951171875</ele>
        <time>2026-06-18T09:51:43.000Z</time>
        <extensions>
          <ns3:TrackPointExtension>
            <ns3:atemp>21.0</ns3:atemp>
          </ns3:TrackPointExtension>
        </extensions>
      </trkpt>
      <trkpt lat="42.51519477926194667816162109375" lon="19.768999926745891571044921875">
        <ele>1832.199951171875</ele>
        <time>2026-06-18T09:51:44.000Z</time>
        <extensions>
          <ns3:TrackPointExtension>
            <ns3:atemp>21.0</ns3:atemp>
          </ns3:TrackPointExtension>
        </extensions>
      </trkpt>
      <trkpt lat="42.51519477926194667816162109375" lon="19.768999926745891571044921875">
        <ele>1832</ele>
        <time>2026-06-18T09:51:45.000Z</time>
        <extensions>
          <ns3:TrackPointExtension>
            <ns3:atemp>21.0</ns3:atemp>
          </ns3:TrackPointExtension>
        </extensions>
      </trkpt>
      <trkpt lat="42.51519477926194667816162109375" lon="19.768999926745891571044921875">
        <ele>1832</ele>
        <time>2026-06-18T09:51:46.000Z</time>
        <extensions>
          <ns3:TrackPointExtension>
            <ns3:atemp>21.0</ns3:atemp>
          </ns3:TrackPointExtension>
        </extensions>
      </trkpt>
      <trkpt lat="42.51519477926194667816162109375" lon="19.768999926745891571044921875">
        <ele>1832</ele>
        <time>2026-06-18T09:51:47.000Z</time>
        <extensions>
          <ns3:TrackPointExtension>
            <ns3:atemp>21.0</ns3:atemp>
          </ns3:TrackPointExtension>
        </extensions>
      </trkpt>
      <trkpt lat="42.51519477926194667816162109375" lon="19.768999926745891571044921875">
        <ele>1831.800048828125</ele>
        <time>2026-06-18T09:51:48.000Z</time>
        <extensions>
          <ns3:TrackPointExtension>
            <ns3:atemp>21.0</ns3:atemp>
          </ns3:TrackPointExtension>
        </extensions>
      </trkpt>
      <trkpt lat="42.51519477926194667816162109375" lon="19.768999926745891571044921875">
        <ele>1831.800048828125</ele>
        <time>2026-06-18T09:51:49.000Z</time>
        <extensions>
          <ns3:TrackPointExtension>
            <ns3:atemp>21.0</ns3:atemp>
          </ns3:TrackPointExtension>
        </extensions>
      </trkpt>
      <trkpt lat="42.51519477926194667816162109375" lon="19.768999926745891571044921875">
        <ele>1831.5999755859375</ele>
        <time>2026-06-18T09:51:50.000Z</time>
        <extensions>
          <ns3:TrackPointExtension>
            <ns3:atemp>21.0</ns3:atemp>
          </ns3:TrackPointExtension>
        </extensions>
      </trkpt>
      <trkpt lat="42.51519477926194667816162109375" lon="19.768999926745891571044921875">
        <ele>1831.5999755859375</ele>
        <time>2026-06-18T09:51:51.000Z</time>
        <extensions>
          <ns3:TrackPointExtension>
            <ns3:atemp>21.0</ns3:atemp>
          </ns3:TrackPointExtension>
        </extensions>
      </trkpt>
      <trkpt lat="42.51519477926194667816162109375" lon="19.768999926745891571044921875">
        <ele>1831.5999755859375</ele>
        <time>2026-06-18T09:51:52.000Z</time>
        <extensions>
          <ns3:TrackPointExtension>
            <ns3:atemp>21.0</ns3:atemp>
          </ns3:TrackPointExtension>
        </extensions>
      </trkpt>
      <trkpt lat="42.51519477926194667816162109375" lon="19.768999926745891571044921875">
        <ele>1831.4000244140625</ele>
        <time>2026-06-18T09:51:53.000Z</time>
        <extensions>
          <ns3:TrackPointExtension>
            <ns3:atemp>21.0</ns3:atemp>
          </ns3:TrackPointExtension>
        </extensions>
      </trkpt>
      <trkpt lat="42.51519477926194667816162109375" lon="19.768999926745891571044921875">
        <ele>1831.4000244140625</ele>
        <time>2026-06-18T09:51:54.000Z</time>
        <extensions>
          <ns3:TrackPointExtension>
            <ns3:atemp>21.0</ns3:atemp>
          </ns3:TrackPointExtension>
        </extensions>
      </trkpt>
      <trkpt lat="42.51519477926194667816162109375" lon="19.768999926745891571044921875">
        <ele>1831.4000244140625</ele>
        <time>2026-06-18T09:51:55.000Z</time>
        <extensions>
          <ns3:TrackPointExtension>
            <ns3:atemp>21.0</ns3:atemp>
          </ns3:TrackPointExtension>
        </extensions>
      </trkpt>
      <trkpt lat="42.51519477926194667816162109375" lon="19.768999926745891571044921875">
        <ele>1831.4000244140625</ele>
        <time>2026-06-18T09:51:56.000Z</time>
        <extensions>
          <ns3:TrackPointExtension>
            <ns3:atemp>21.0</ns3:atemp>
          </ns3:TrackPointExtension>
        </extensions>
      </trkpt>
      <trkpt lat="42.51519477926194667816162109375" lon="19.768999926745891571044921875">
        <ele>1831.4000244140625</ele>
        <time>2026-06-18T09:51:57.000Z</time>
        <extensions>
          <ns3:TrackPointExtension>
            <ns3:atemp>21.0</ns3:atemp>
          </ns3:TrackPointExtension>
        </extensions>
      </trkpt>
      <trkpt lat="42.51519477926194667816162109375" lon="19.768999926745891571044921875">
        <ele>1831.4000244140625</ele>
        <time>2026-06-18T09:51:58.000Z</time>
        <extensions>
          <ns3:TrackPointExtension>
            <ns3:atemp>21.0</ns3:atemp>
          </ns3:TrackPointExtension>
        </extensions>
      </trkpt>
      <trkpt lat="42.51519477926194667816162109375" lon="19.768999926745891571044921875">
        <ele>1831.199951171875</ele>
        <time>2026-06-18T09:51:59.000Z</time>
        <extensions>
          <ns3:TrackPointExtension>
            <ns3:atemp>21.0</ns3:atemp>
          </ns3:TrackPointExtension>
        </extensions>
      </trkpt>
      <trkpt lat="42.51519477926194667816162109375" lon="19.768999926745891571044921875">
        <ele>1831.199951171875</ele>
        <time>2026-06-18T09:52:00.000Z</time>
        <extensions>
          <ns3:TrackPointExtension>
            <ns3:atemp>21.0</ns3:atemp>
          </ns3:TrackPointExtension>
        </extensions>
      </trkpt>
      <trkpt lat="42.51519477926194667816162109375" lon="19.768999926745891571044921875">
        <ele>1831.199951171875</ele>
        <time>2026-06-18T09:52:01.000Z</time>
        <extensions>
          <ns3:TrackPointExtension>
            <ns3:atemp>21.0</ns3:atemp>
          </ns3:TrackPointExtension>
        </extensions>
      </trkpt>
      <trkpt lat="42.51519477926194667816162109375" lon="19.768999926745891571044921875">
        <ele>1831</ele>
        <time>2026-06-18T09:52:02.000Z</time>
        <extensions>
          <ns3:TrackPointExtension>
            <ns3:atemp>21.0</ns3:atemp>
          </ns3:TrackPointExtension>
        </extensions>
      </trkpt>
      <trkpt lat="42.51519477926194667816162109375" lon="19.768999926745891571044921875">
        <ele>1831</ele>
        <time>2026-06-18T09:52:03.000Z</time>
        <extensions>
          <ns3:TrackPointExtension>
            <ns3:atemp>21.0</ns3:atemp>
          </ns3:TrackPointExtension>
        </extensions>
      </trkpt>
      <trkpt lat="42.51519477926194667816162109375" lon="19.768999926745891571044921875">
        <ele>1831</ele>
        <time>2026-06-18T09:52:04.000Z</time>
        <extensions>
          <ns3:TrackPointExtension>
            <ns3:atemp>21.0</ns3:atemp>
          </ns3:TrackPointExtension>
        </extensions>
      </trkpt>
      <trkpt lat="42.51519477926194667816162109375" lon="19.768999926745891571044921875">
        <ele>1830.800048828125</ele>
        <time>2026-06-18T09:52:05.000Z</time>
        <extensions>
          <ns3:TrackPointExtension>
            <ns3:atemp>21.0</ns3:atemp>
          </ns3:TrackPointExtension>
        </extensions>
      </trkpt>
      <trkpt lat="42.51519477926194667816162109375" lon="19.768999926745891571044921875">
        <ele>1830.800048828125</ele>
        <time>2026-06-18T09:52:06.000Z</time>
        <extensions>
          <ns3:TrackPointExtension>
            <ns3:atemp>21.0</ns3:atemp>
          </ns3:TrackPointExtension>
        </extensions>
      </trkpt>
      <trkpt lat="42.51519477926194667816162109375" lon="19.768999926745891571044921875">
        <ele>1830.800048828125</ele>
        <time>2026-06-18T09:52:07.000Z</time>
        <extensions>
          <ns3:TrackPointExtension>
            <ns3:atemp>21.0</ns3:atemp>
          </ns3:TrackPointExtension>
        </extensions>
      </trkpt>
      <trkpt lat="42.51519477926194667816162109375" lon="19.768999926745891571044921875">
        <ele>1831</ele>
        <time>2026-06-18T09:52:08.000Z</time>
        <extensions>
          <ns3:TrackPointExtension>
            <ns3:atemp>21.0</ns3:atemp>
          </ns3:TrackPointExtension>
        </extensions>
      </trkpt>
      <trkpt lat="42.51519477926194667816162109375" lon="19.768999926745891571044921875">
        <ele>1831</ele>
        <time>2026-06-18T09:52:09.000Z</time>
        <extensions>
          <ns3:TrackPointExtension>
            <ns3:atemp>21.0</ns3:atemp>
          </ns3:TrackPointExtension>
        </extensions>
      </trkpt>
      <trkpt lat="42.51519477926194667816162109375" lon="19.768999926745891571044921875">
        <ele>1831</ele>
        <time>2026-06-18T09:52:10.000Z</time>
        <extensions>
          <ns3:TrackPointExtension>
            <ns3:atemp>21.0</ns3:atemp>
          </ns3:TrackPointExtension>
        </extensions>
      </trkpt>
      <trkpt lat="42.51519477926194667816162109375" lon="19.768999926745891571044921875">
        <ele>1831</ele>
        <time>2026-06-18T09:52:11.000Z</time>
        <extensions>
          <ns3:TrackPointExtension>
            <ns3:atemp>21.0</ns3:atemp>
          </ns3:TrackPointExtension>
        </extensions>
      </trkpt>
      <trkpt lat="42.51519477926194667816162109375" lon="19.768999926745891571044921875">
        <ele>1831</ele>
        <time>2026-06-18T09:52:12.000Z</time>
        <extensions>
          <ns3:TrackPointExtension>
            <ns3:atemp>21.0</ns3:atemp>
          </ns3:TrackPointExtension>
        </extensions>
      </trkpt>
      <trkpt lat="42.51519477926194667816162109375" lon="19.768999926745891571044921875">
        <ele>1831</ele>
        <time>2026-06-18T09:52:13.000Z</time>
        <extensions>
          <ns3:TrackPointExtension>
            <ns3:atemp>21.0</ns3:atemp>
          </ns3:TrackPointExtension>
        </extensions>
      </trkpt>
      <trkpt lat="42.51519477926194667816162109375" lon="19.768999926745891571044921875">
        <ele>1831.199951171875</ele>
        <time>2026-06-18T09:52:14.000Z</time>
        <extensions>
          <ns3:TrackPointExtension>
            <ns3:atemp>21.0</ns3:atemp>
          </ns3:TrackPointExtension>
        </extensions>
      </trkpt>
      <trkpt lat="42.51519477926194667816162109375" lon="19.768999926745891571044921875">
        <ele>1831.199951171875</ele>
        <time>2026-06-18T09:52:15.000Z</time>
        <extensions>
          <ns3:TrackPointExtension>
            <ns3:atemp>21.0</ns3:atemp>
          </ns3:TrackPointExtension>
        </extensions>
      </trkpt>
      <trkpt lat="42.51519477926194667816162109375" lon="19.768999926745891571044921875">
        <ele>1831.199951171875</ele>
        <time>2026-06-18T09:52:16.000Z</time>
        <extensions>
          <ns3:TrackPointExtension>
            <ns3:atemp>21.0</ns3:atemp>
          </ns3:TrackPointExtension>
        </extensions>
      </trkpt>
      <trkpt lat="42.51519477926194667816162109375" lon="19.768999926745891571044921875">
        <ele>1831.199951171875</ele>
        <time>2026-06-18T09:52:17.000Z</time>
        <extensions>
          <ns3:TrackPointExtension>
            <ns3:atemp>21.0</ns3:atemp>
          </ns3:TrackPointExtension>
        </extensions>
      </trkpt>
      <trkpt lat="42.51519477926194667816162109375" lon="19.768999926745891571044921875">
        <ele>1831.199951171875</ele>
        <time>2026-06-18T09:52:18.000Z</time>
        <extensions>
          <ns3:TrackPointExtension>
            <ns3:atemp>21.0</ns3:atemp>
          </ns3:TrackPointExtension>
        </extensions>
      </trkpt>
      <trkpt lat="42.51519477926194667816162109375" lon="19.768999926745891571044921875">
        <ele>1831.199951171875</ele>
        <time>2026-06-18T09:52:19.000Z</time>
        <extensions>
          <ns3:TrackPointExtension>
            <ns3:atemp>21.0</ns3:atemp>
          </ns3:TrackPointExtension>
        </extensions>
      </trkpt>
      <trkpt lat="42.51519477926194667816162109375" lon="19.768999926745891571044921875">
        <ele>1831.4000244140625</ele>
        <time>2026-06-18T09:52:20.000Z</time>
        <extensions>
          <ns3:TrackPointExtension>
            <ns3:atemp>21.0</ns3:atemp>
          </ns3:TrackPointExtension>
        </extensions>
      </trkpt>
      <trkpt lat="42.51519477926194667816162109375" lon="19.768999926745891571044921875">
        <ele>1831.4000244140625</ele>
        <time>2026-06-18T09:52:21.000Z</time>
        <extensions>
          <ns3:TrackPointExtension>
            <ns3:atemp>21.0</ns3:atemp>
          </ns3:TrackPointExtension>
        </extensions>
      </trkpt>
      <trkpt lat="42.51519477926194667816162109375" lon="19.768999926745891571044921875">
        <ele>1831.5999755859375</ele>
        <time>2026-06-18T09:52:22.000Z</time>
        <extensions>
          <ns3:TrackPointExtension>
            <ns3:atemp>21.0</ns3:atemp>
          </ns3:TrackPointExtension>
        </extensions>
      </trkpt>
      <trkpt lat="42.51519477926194667816162109375" lon="19.768999926745891571044921875">
        <ele>1831.5999755859375</ele>
        <time>2026-06-18T09:52:23.000Z</time>
        <extensions>
          <ns3:TrackPointExtension>
            <ns3:atemp>21.0</ns3:atemp>
          </ns3:TrackPointExtension>
        </extensions>
      </trkpt>
      <trkpt lat="42.51519477926194667816162109375" lon="19.768999926745891571044921875">
        <ele>1831.5999755859375</ele>
        <time>2026-06-18T09:52:24.000Z</time>
        <extensions>
          <ns3:TrackPointExtension>
            <ns3:atemp>21.0</ns3:atemp>
          </ns3:TrackPointExtension>
        </extensions>
      </trkpt>
      <trkpt lat="42.51519477926194667816162109375" lon="19.768999926745891571044921875">
        <ele>1831.5999755859375</ele>
        <time>2026-06-18T09:52:25.000Z</time>
        <extensions>
          <ns3:TrackPointExtension>
            <ns3:atemp>21.0</ns3:atemp>
          </ns3:TrackPointExtension>
        </extensions>
      </trkpt>
      <trkpt lat="42.51519477926194667816162109375" lon="19.768999926745891571044921875">
        <ele>1831.5999755859375</ele>
        <time>2026-06-18T09:52:26.000Z</time>
        <extensions>
          <ns3:TrackPointExtension>
            <ns3:atemp>21.0</ns3:atemp>
          </ns3:TrackPointExtension>
        </extensions>
      </trkpt>
      <trkpt lat="42.51519477926194667816162109375" lon="19.768999926745891571044921875">
        <ele>1831.5999755859375</ele>
        <time>2026-06-18T09:52:27.000Z</time>
        <extensions>
          <ns3:TrackPointExtension>
            <ns3:atemp>21.0</ns3:atemp>
          </ns3:TrackPointExtension>
        </extensions>
      </trkpt>
      <trkpt lat="42.51519477926194667816162109375" lon="19.768999926745891571044921875">
        <ele>1831.5999755859375</ele>
        <time>2026-06-18T09:52:28.000Z</time>
        <extensions>
          <ns3:TrackPointExtension>
            <ns3:atemp>21.0</ns3:atemp>
          </ns3:TrackPointExtension>
        </extensions>
      </trkpt>
      <trkpt lat="42.51519477926194667816162109375" lon="19.768999926745891571044921875">
        <ele>1831.5999755859375</ele>
        <time>2026-06-18T09:52:29.000Z</time>
        <extensions>
          <ns3:TrackPointExtension>
            <ns3:atemp>21.0</ns3:atemp>
          </ns3:TrackPointExtension>
        </extensions>
      </trkpt>
      <trkpt lat="42.51519477926194667816162109375" lon="19.768999926745891571044921875">
        <ele>1831.5999755859375</ele>
        <time>2026-06-18T09:52:30.000Z</time>
        <extensions>
          <ns3:TrackPointExtension>
            <ns3:atemp>21.0</ns3:atemp>
          </ns3:TrackPointExtension>
        </extensions>
      </trkpt>
      <trkpt lat="42.51519477926194667816162109375" lon="19.768999926745891571044921875">
        <ele>1831.5999755859375</ele>
        <time>2026-06-18T09:52:31.000Z</time>
        <extensions>
          <ns3:TrackPointExtension>
            <ns3:atemp>21.0</ns3:atemp>
          </ns3:TrackPointExtension>
        </extensions>
      </trkpt>
      <trkpt lat="42.51519477926194667816162109375" lon="19.768999926745891571044921875">
        <ele>1831.5999755859375</ele>
        <time>2026-06-18T09:52:32.000Z</time>
        <extensions>
          <ns3:TrackPointExtension>
            <ns3:atemp>21.0</ns3:atemp>
          </ns3:TrackPointExtension>
        </extensions>
      </trkpt>
      <trkpt lat="42.51519477926194667816162109375" lon="19.768999926745891571044921875">
        <ele>1831.5999755859375</ele>
        <time>2026-06-18T09:52:33.000Z</time>
        <extensions>
          <ns3:TrackPointExtension>
            <ns3:atemp>21.0</ns3:atemp>
          </ns3:TrackPointExtension>
        </extensions>
      </trkpt>
      <trkpt lat="42.51519477926194667816162109375" lon="19.768999926745891571044921875">
        <ele>1831.5999755859375</ele>
        <time>2026-06-18T09:52:34.000Z</time>
        <extensions>
          <ns3:TrackPointExtension>
            <ns3:atemp>21.0</ns3:atemp>
          </ns3:TrackPointExtension>
        </extensions>
      </trkpt>
      <trkpt lat="42.51519477926194667816162109375" lon="19.768999926745891571044921875">
        <ele>1831.5999755859375</ele>
        <time>2026-06-18T09:52:35.000Z</time>
        <extensions>
          <ns3:TrackPointExtension>
            <ns3:atemp>21.0</ns3:atemp>
          </ns3:TrackPointExtension>
        </extensions>
      </trkpt>
      <trkpt lat="42.51519477926194667816162109375" lon="19.768999926745891571044921875">
        <ele>1831.5999755859375</ele>
        <time>2026-06-18T09:52:36.000Z</time>
        <extensions>
          <ns3:TrackPointExtension>
            <ns3:atemp>21.0</ns3:atemp>
          </ns3:TrackPointExtension>
        </extensions>
      </trkpt>
      <trkpt lat="42.51519477926194667816162109375" lon="19.768999926745891571044921875">
        <ele>1831.5999755859375</ele>
        <time>2026-06-18T09:52:37.000Z</time>
        <extensions>
          <ns3:TrackPointExtension>
            <ns3:atemp>21.0</ns3:atemp>
          </ns3:TrackPointExtension>
        </extensions>
      </trkpt>
      <trkpt lat="42.51519477926194667816162109375" lon="19.768999926745891571044921875">
        <ele>1831.5999755859375</ele>
        <time>2026-06-18T09:52:38.000Z</time>
        <extensions>
          <ns3:TrackPointExtension>
            <ns3:atemp>21.0</ns3:atemp>
          </ns3:TrackPointExtension>
        </extensions>
      </trkpt>
      <trkpt lat="42.51519477926194667816162109375" lon="19.768999926745891571044921875">
        <ele>1831.5999755859375</ele>
        <time>2026-06-18T09:52:39.000Z</time>
        <extensions>
          <ns3:TrackPointExtension>
            <ns3:atemp>21.0</ns3:atemp>
          </ns3:TrackPointExtension>
        </extensions>
      </trkpt>
      <trkpt lat="42.51519477926194667816162109375" lon="19.768999926745891571044921875">
        <ele>1831.5999755859375</ele>
        <time>2026-06-18T09:52:40.000Z</time>
        <extensions>
          <ns3:TrackPointExtension>
            <ns3:atemp>21.0</ns3:atemp>
          </ns3:TrackPointExtension>
        </extensions>
      </trkpt>
      <trkpt lat="42.51519477926194667816162109375" lon="19.768999926745891571044921875">
        <ele>1831.5999755859375</ele>
        <time>2026-06-18T09:52:41.000Z</time>
        <extensions>
          <ns3:TrackPointExtension>
            <ns3:atemp>21.0</ns3:atemp>
          </ns3:TrackPointExtension>
        </extensions>
      </trkpt>
      <trkpt lat="42.51519477926194667816162109375" lon="19.768999926745891571044921875">
        <ele>1831.5999755859375</ele>
        <time>2026-06-18T09:52:42.000Z</time>
        <extensions>
          <ns3:TrackPointExtension>
            <ns3:atemp>21.0</ns3:atemp>
          </ns3:TrackPointExtension>
        </extensions>
      </trkpt>
      <trkpt lat="42.51519477926194667816162109375" lon="19.768999926745891571044921875">
        <ele>1831.5999755859375</ele>
        <time>2026-06-18T09:52:43.000Z</time>
        <extensions>
          <ns3:TrackPointExtension>
            <ns3:atemp>21.0</ns3:atemp>
          </ns3:TrackPointExtension>
        </extensions>
      </trkpt>
      <trkpt lat="42.51519477926194667816162109375" lon="19.768999926745891571044921875">
        <ele>1831.5999755859375</ele>
        <time>2026-06-18T09:52:44.000Z</time>
        <extensions>
          <ns3:TrackPointExtension>
            <ns3:atemp>21.0</ns3:atemp>
          </ns3:TrackPointExtension>
        </extensions>
      </trkpt>
      <trkpt lat="42.51519477926194667816162109375" lon="19.768999926745891571044921875">
        <ele>1831.5999755859375</ele>
        <time>2026-06-18T09:52:45.000Z</time>
        <extensions>
          <ns3:TrackPointExtension>
            <ns3:atemp>21.0</ns3:atemp>
          </ns3:TrackPointExtension>
        </extensions>
      </trkpt>
      <trkpt lat="42.51519477926194667816162109375" lon="19.768999926745891571044921875">
        <ele>1831.5999755859375</ele>
        <time>2026-06-18T09:52:46.000Z</time>
        <extensions>
          <ns3:TrackPointExtension>
            <ns3:atemp>21.0</ns3:atemp>
          </ns3:TrackPointExtension>
        </extensions>
      </trkpt>
      <trkpt lat="42.51519477926194667816162109375" lon="19.768999926745891571044921875">
        <ele>1831.5999755859375</ele>
        <time>2026-06-18T09:52:47.000Z</time>
        <extensions>
          <ns3:TrackPointExtension>
            <ns3:atemp>21.0</ns3:atemp>
          </ns3:TrackPointExtension>
        </extensions>
      </trkpt>
      <trkpt lat="42.51519477926194667816162109375" lon="19.768999926745891571044921875">
        <ele>1831.5999755859375</ele>
        <time>2026-06-18T09:52:48.000Z</time>
        <extensions>
          <ns3:TrackPointExtension>
            <ns3:atemp>21.0</ns3:atemp>
          </ns3:TrackPointExtension>
        </extensions>
      </trkpt>
      <trkpt lat="42.51519477926194667816162109375" lon="19.768999926745891571044921875">
        <ele>1831.5999755859375</ele>
        <time>2026-06-18T09:52:49.000Z</time>
        <extensions>
          <ns3:TrackPointExtension>
            <ns3:atemp>21.0</ns3:atemp>
          </ns3:TrackPointExtension>
        </extensions>
      </trkpt>
      <trkpt lat="42.51519477926194667816162109375" lon="19.768999926745891571044921875">
        <ele>1831.5999755859375</ele>
        <time>2026-06-18T09:52:50.000Z</time>
        <extensions>
          <ns3:TrackPointExtension>
            <ns3:atemp>21.0</ns3:atemp>
          </ns3:TrackPointExtension>
        </extensions>
      </trkpt>
      <trkpt lat="42.51519477926194667816162109375" lon="19.768999926745891571044921875">
        <ele>1831.5999755859375</ele>
        <time>2026-06-18T09:52:51.000Z</time>
        <extensions>
          <ns3:TrackPointExtension>
            <ns3:atemp>21.0</ns3:atemp>
          </ns3:TrackPointExtension>
        </extensions>
      </trkpt>
      <trkpt lat="42.51519477926194667816162109375" lon="19.768999926745891571044921875">
        <ele>1831.5999755859375</ele>
        <time>2026-06-18T09:52:52.000Z</time>
        <extensions>
          <ns3:TrackPointExtension>
            <ns3:atemp>21.0</ns3:atemp>
          </ns3:TrackPointExtension>
        </extensions>
      </trkpt>
      <trkpt lat="42.51519477926194667816162109375" lon="19.768999926745891571044921875">
        <ele>1831.5999755859375</ele>
        <time>2026-06-18T09:52:53.000Z</time>
        <extensions>
          <ns3:TrackPointExtension>
            <ns3:atemp>21.0</ns3:atemp>
          </ns3:TrackPointExtension>
        </extensions>
      </trkpt>
      <trkpt lat="42.51519477926194667816162109375" lon="19.768999926745891571044921875">
        <ele>1831.5999755859375</ele>
        <time>2026-06-18T09:52:54.000Z</time>
        <extensions>
          <ns3:TrackPointExtension>
            <ns3:atemp>21.0</ns3:atemp>
          </ns3:TrackPointExtension>
        </extensions>
      </trkpt>
      <trkpt lat="42.51519477926194667816162109375" lon="19.768999926745891571044921875">
        <ele>1831.5999755859375</ele>
        <time>2026-06-18T09:52:55.000Z</time>
        <extensions>
          <ns3:TrackPointExtension>
            <ns3:atemp>21.0</ns3:atemp>
          </ns3:TrackPointExtension>
        </extensions>
      </trkpt>
      <trkpt lat="42.51519477926194667816162109375" lon="19.768999926745891571044921875">
        <ele>1831.5999755859375</ele>
        <time>2026-06-18T09:52:56.000Z</time>
        <extensions>
          <ns3:TrackPointExtension>
            <ns3:atemp>21.0</ns3:atemp>
          </ns3:TrackPointExtension>
        </extensions>
      </trkpt>
      <trkpt lat="42.51519477926194667816162109375" lon="19.768999926745891571044921875">
        <ele>1831.5999755859375</ele>
        <time>2026-06-18T09:52:57.000Z</time>
        <extensions>
          <ns3:TrackPointExtension>
            <ns3:atemp>21.0</ns3:atemp>
          </ns3:TrackPointExtension>
        </extensions>
      </trkpt>
      <trkpt lat="42.51519477926194667816162109375" lon="19.768999926745891571044921875">
        <ele>1831.5999755859375</ele>
        <time>2026-06-18T09:52:58.000Z</time>
        <extensions>
          <ns3:TrackPointExtension>
            <ns3:atemp>21.0</ns3:atemp>
          </ns3:TrackPointExtension>
        </extensions>
      </trkpt>
      <trkpt lat="42.51519477926194667816162109375" lon="19.768999926745891571044921875">
        <ele>1831.5999755859375</ele>
        <time>2026-06-18T09:52:59.000Z</time>
        <extensions>
          <ns3:TrackPointExtension>
            <ns3:atemp>21.0</ns3:atemp>
          </ns3:TrackPointExtension>
        </extensions>
      </trkpt>
      <trkpt lat="42.51519477926194667816162109375" lon="19.768999926745891571044921875">
        <ele>1831.5999755859375</ele>
        <time>2026-06-18T09:53:00.000Z</time>
        <extensions>
          <ns3:TrackPointExtension>
            <ns3:atemp>21.0</ns3:atemp>
          </ns3:TrackPointExtension>
        </extensions>
      </trkpt>
      <trkpt lat="42.51519477926194667816162109375" lon="19.768999926745891571044921875">
        <ele>1831.5999755859375</ele>
        <time>2026-06-18T09:53:01.000Z</time>
        <extensions>
          <ns3:TrackPointExtension>
            <ns3:atemp>21.0</ns3:atemp>
          </ns3:TrackPointExtension>
        </extensions>
      </trkpt>
      <trkpt lat="42.51519477926194667816162109375" lon="19.768999926745891571044921875">
        <ele>1831.5999755859375</ele>
        <time>2026-06-18T09:53:02.000Z</time>
        <extensions>
          <ns3:TrackPointExtension>
            <ns3:atemp>21.0</ns3:atemp>
          </ns3:TrackPointExtension>
        </extensions>
      </trkpt>
      <trkpt lat="42.51519477926194667816162109375" lon="19.768999926745891571044921875">
        <ele>1831.5999755859375</ele>
        <time>2026-06-18T09:53:03.000Z</time>
        <extensions>
          <ns3:TrackPointExtension>
            <ns3:atemp>21.0</ns3:atemp>
          </ns3:TrackPointExtension>
        </extensions>
      </trkpt>
      <trkpt lat="42.51519477926194667816162109375" lon="19.768999926745891571044921875">
        <ele>1831.5999755859375</ele>
        <time>2026-06-18T09:53:04.000Z</time>
        <extensions>
          <ns3:TrackPointExtension>
            <ns3:atemp>21.0</ns3:atemp>
          </ns3:TrackPointExtension>
        </extensions>
      </trkpt>
      <trkpt lat="42.51519477926194667816162109375" lon="19.768999926745891571044921875">
        <ele>1831.5999755859375</ele>
        <time>2026-06-18T09:53:05.000Z</time>
        <extensions>
          <ns3:TrackPointExtension>
            <ns3:atemp>21.0</ns3:atemp>
          </ns3:TrackPointExtension>
        </extensions>
      </trkpt>
      <trkpt lat="42.51519477926194667816162109375" lon="19.768999926745891571044921875">
        <ele>1831.5999755859375</ele>
        <time>2026-06-18T09:53:06.000Z</time>
        <extensions>
          <ns3:TrackPointExtension>
            <ns3:atemp>21.0</ns3:atemp>
          </ns3:TrackPointExtension>
        </extensions>
      </trkpt>
      <trkpt lat="42.51519477926194667816162109375" lon="19.768999926745891571044921875">
        <ele>1831.5999755859375</ele>
        <time>2026-06-18T09:53:07.000Z</time>
        <extensions>
          <ns3:TrackPointExtension>
            <ns3:atemp>21.0</ns3:atemp>
          </ns3:TrackPointExtension>
        </extensions>
      </trkpt>
      <trkpt lat="42.51519477926194667816162109375" lon="19.768999926745891571044921875">
        <ele>1831.5999755859375</ele>
        <time>2026-06-18T09:53:08.000Z</time>
        <extensions>
          <ns3:TrackPointExtension>
            <ns3:atemp>21.0</ns3:atemp>
          </ns3:TrackPointExtension>
        </extensions>
      </trkpt>
      <trkpt lat="42.51519477926194667816162109375" lon="19.768999926745891571044921875">
        <ele>1831.5999755859375</ele>
        <time>2026-06-18T09:53:09.000Z</time>
        <extensions>
          <ns3:TrackPointExtension>
            <ns3:atemp>21.0</ns3:atemp>
          </ns3:TrackPointExtension>
        </extensions>
      </trkpt>
      <trkpt lat="42.51519477926194667816162109375" lon="19.768999926745891571044921875">
        <ele>1831.5999755859375</ele>
        <time>2026-06-18T09:53:10.000Z</time>
        <extensions>
          <ns3:TrackPointExtension>
            <ns3:atemp>21.0</ns3:atemp>
          </ns3:TrackPointExtension>
        </extensions>
      </trkpt>
      <trkpt lat="42.51519477926194667816162109375" lon="19.768999926745891571044921875">
        <ele>1831.5999755859375</ele>
        <time>2026-06-18T09:53:11.000Z</time>
        <extensions>
          <ns3:TrackPointExtension>
            <ns3:atemp>21.0</ns3:atemp>
          </ns3:TrackPointExtension>
        </extensions>
      </trkpt>
      <trkpt lat="42.51519477926194667816162109375" lon="19.768999926745891571044921875">
        <ele>1831.5999755859375</ele>
        <time>2026-06-18T09:53:12.000Z</time>
        <extensions>
          <ns3:TrackPointExtension>
            <ns3:atemp>21.0</ns3:atemp>
          </ns3:TrackPointExtension>
        </extensions>
      </trkpt>
      <trkpt lat="42.51519477926194667816162109375" lon="19.768999926745891571044921875">
        <ele>1831.5999755859375</ele>
        <time>2026-06-18T09:53:13.000Z</time>
        <extensions>
          <ns3:TrackPointExtension>
            <ns3:atemp>21.0</ns3:atemp>
          </ns3:TrackPointExtension>
        </extensions>
      </trkpt>
      <trkpt lat="42.51519477926194667816162109375" lon="19.768999926745891571044921875">
        <ele>1831.5999755859375</ele>
        <time>2026-06-18T09:53:14.000Z</time>
        <extensions>
          <ns3:TrackPointExtension>
            <ns3:atemp>21.0</ns3:atemp>
          </ns3:TrackPointExtension>
        </extensions>
      </trkpt>
      <trkpt lat="42.51519477926194667816162109375" lon="19.768999926745891571044921875">
        <ele>1831.5999755859375</ele>
        <time>2026-06-18T09:53:15.000Z</time>
        <extensions>
          <ns3:TrackPointExtension>
            <ns3:atemp>21.0</ns3:atemp>
          </ns3:TrackPointExtension>
        </extensions>
      </trkpt>
      <trkpt lat="42.51519477926194667816162109375" lon="19.768999926745891571044921875">
        <ele>1831.5999755859375</ele>
        <time>2026-06-18T09:53:16.000Z</time>
        <extensions>
          <ns3:TrackPointExtension>
            <ns3:atemp>21.0</ns3:atemp>
          </ns3:TrackPointExtension>
        </extensions>
      </trkpt>
      <trkpt lat="42.51519477926194667816162109375" lon="19.768999926745891571044921875">
        <ele>1831.5999755859375</ele>
        <time>2026-06-18T09:53:17.000Z</time>
        <extensions>
          <ns3:TrackPointExtension>
            <ns3:atemp>21.0</ns3:atemp>
          </ns3:TrackPointExtension>
        </extensions>
      </trkpt>
      <trkpt lat="42.51519477926194667816162109375" lon="19.768999926745891571044921875">
        <ele>1831.5999755859375</ele>
        <time>2026-06-18T09:53:18.000Z</time>
        <extensions>
          <ns3:TrackPointExtension>
            <ns3:atemp>21.0</ns3:atemp>
          </ns3:TrackPointExtension>
        </extensions>
      </trkpt>
      <trkpt lat="42.51519477926194667816162109375" lon="19.768999926745891571044921875">
        <ele>1831.5999755859375</ele>
        <time>2026-06-18T09:53:19.000Z</time>
        <extensions>
          <ns3:TrackPointExtension>
            <ns3:atemp>21.0</ns3:atemp>
          </ns3:TrackPointExtension>
        </extensions>
      </trkpt>
      <trkpt lat="42.51519477926194667816162109375" lon="19.768999926745891571044921875">
        <ele>1831.5999755859375</ele>
        <time>2026-06-18T09:53:20.000Z</time>
        <extensions>
          <ns3:TrackPointExtension>
            <ns3:atemp>21.0</ns3:atemp>
          </ns3:TrackPointExtension>
        </extensions>
      </trkpt>
      <trkpt lat="42.51519477926194667816162109375" lon="19.768999926745891571044921875">
        <ele>1831.5999755859375</ele>
        <time>2026-06-18T09:53:21.000Z</time>
        <extensions>
          <ns3:TrackPointExtension>
            <ns3:atemp>21.0</ns3:atemp>
          </ns3:TrackPointExtension>
        </extensions>
      </trkpt>
      <trkpt lat="42.51519477926194667816162109375" lon="19.768999926745891571044921875">
        <ele>1831.5999755859375</ele>
        <time>2026-06-18T09:53:22.000Z</time>
        <extensions>
          <ns3:TrackPointExtension>
            <ns3:atemp>22.0</ns3:atemp>
          </ns3:TrackPointExtension>
        </extensions>
      </trkpt>
      <trkpt lat="42.51519477926194667816162109375" lon="19.768999926745891571044921875">
        <ele>1831.5999755859375</ele>
        <time>2026-06-18T09:53:23.000Z</time>
        <extensions>
          <ns3:TrackPointExtension>
            <ns3:atemp>22.0</ns3:atemp>
          </ns3:TrackPointExtension>
        </extensions>
      </trkpt>
      <trkpt lat="42.51519477926194667816162109375" lon="19.768999926745891571044921875">
        <ele>1831.5999755859375</ele>
        <time>2026-06-18T09:53:24.000Z</time>
        <extensions>
          <ns3:TrackPointExtension>
            <ns3:atemp>22.0</ns3:atemp>
          </ns3:TrackPointExtension>
        </extensions>
      </trkpt>
      <trkpt lat="42.51519477926194667816162109375" lon="19.768999926745891571044921875">
        <ele>1831.5999755859375</ele>
        <time>2026-06-18T09:53:25.000Z</time>
        <extensions>
          <ns3:TrackPointExtension>
            <ns3:atemp>22.0</ns3:atemp>
          </ns3:TrackPointExtension>
        </extensions>
      </trkpt>
      <trkpt lat="42.51519477926194667816162109375" lon="19.768999926745891571044921875">
        <ele>1831.5999755859375</ele>
        <time>2026-06-18T09:53:26.000Z</time>
        <extensions>
          <ns3:TrackPointExtension>
            <ns3:atemp>22.0</ns3:atemp>
          </ns3:TrackPointExtension>
        </extensions>
      </trkpt>
      <trkpt lat="42.51519477926194667816162109375" lon="19.768999926745891571044921875">
        <ele>1831.5999755859375</ele>
        <time>2026-06-18T09:53:27.000Z</time>
        <extensions>
          <ns3:TrackPointExtension>
            <ns3:atemp>22.0</ns3:atemp>
          </ns3:TrackPointExtension>
        </extensions>
      </trkpt>
      <trkpt lat="42.51519477926194667816162109375" lon="19.768999926745891571044921875">
        <ele>1831.5999755859375</ele>
        <time>2026-06-18T09:53:28.000Z</time>
        <extensions>
          <ns3:TrackPointExtension>
            <ns3:atemp>22.0</ns3:atemp>
          </ns3:TrackPointExtension>
        </extensions>
      </trkpt>
      <trkpt lat="42.51519477926194667816162109375" lon="19.768999926745891571044921875">
        <ele>1831.5999755859375</ele>
        <time>2026-06-18T09:53:29.000Z</time>
        <extensions>
          <ns3:TrackPointExtension>
            <ns3:atemp>22.0</ns3:atemp>
          </ns3:TrackPointExtension>
        </extensions>
      </trkpt>
      <trkpt lat="42.51519477926194667816162109375" lon="19.768999926745891571044921875">
        <ele>1831.5999755859375</ele>
        <time>2026-06-18T09:53:30.000Z</time>
        <extensions>
          <ns3:TrackPointExtension>
            <ns3:atemp>22.0</ns3:atemp>
          </ns3:TrackPointExtension>
        </extensions>
      </trkpt>
      <trkpt lat="42.51519477926194667816162109375" lon="19.768999926745891571044921875">
        <ele>1831.5999755859375</ele>
        <time>2026-06-18T09:53:31.000Z</time>
        <extensions>
          <ns3:TrackPointExtension>
            <ns3:atemp>22.0</ns3:atemp>
          </ns3:TrackPointExtension>
        </extensions>
      </trkpt>
      <trkpt lat="42.51519477926194667816162109375" lon="19.768999926745891571044921875">
        <ele>1831.5999755859375</ele>
        <time>2026-06-18T09:53:32.000Z</time>
        <extensions>
          <ns3:TrackPointExtension>
            <ns3:atemp>22.0</ns3:atemp>
          </ns3:TrackPointExtension>
        </extensions>
      </trkpt>
      <trkpt lat="42.51519477926194667816162109375" lon="19.768999926745891571044921875">
        <ele>1831.5999755859375</ele>
        <time>2026-06-18T09:53:33.000Z</time>
        <extensions>
          <ns3:TrackPointExtension>
            <ns3:atemp>22.0</ns3:atemp>
          </ns3:TrackPointExtension>
        </extensions>
      </trkpt>
      <trkpt lat="42.51519477926194667816162109375" lon="19.768999926745891571044921875">
        <ele>1831.5999755859375</ele>
        <time>2026-06-18T09:53:34.000Z</time>
        <extensions>
          <ns3:TrackPointExtension>
            <ns3:atemp>22.0</ns3:atemp>
          </ns3:TrackPointExtension>
        </extensions>
      </trkpt>
      <trkpt lat="42.51519477926194667816162109375" lon="19.768999926745891571044921875">
        <ele>1831.5999755859375</ele>
        <time>2026-06-18T09:53:35.000Z</time>
        <extensions>
          <ns3:TrackPointExtension>
            <ns3:atemp>22.0</ns3:atemp>
          </ns3:TrackPointExtension>
        </extensions>
      </trkpt>
      <trkpt lat="42.51519477926194667816162109375" lon="19.768999926745891571044921875">
        <ele>1831.5999755859375</ele>
        <time>2026-06-18T09:53:36.000Z</time>
        <extensions>
          <ns3:TrackPointExtension>
            <ns3:atemp>22.0</ns3:atemp>
          </ns3:TrackPointExtension>
        </extensions>
      </trkpt>
      <trkpt lat="42.51519477926194667816162109375" lon="19.768999926745891571044921875">
        <ele>1831.5999755859375</ele>
        <time>2026-06-18T09:53:37.000Z</time>
        <extensions>
          <ns3:TrackPointExtension>
            <ns3:atemp>22.0</ns3:atemp>
          </ns3:TrackPointExtension>
        </extensions>
      </trkpt>
      <trkpt lat="42.51519477926194667816162109375" lon="19.768999926745891571044921875">
        <ele>1831.5999755859375</ele>
        <time>2026-06-18T09:53:38.000Z</time>
        <extensions>
          <ns3:TrackPointExtension>
            <ns3:atemp>22.0</ns3:atemp>
          </ns3:TrackPointExtension>
        </extensions>
      </trkpt>
      <trkpt lat="42.51519477926194667816162109375" lon="19.768999926745891571044921875">
        <ele>1831.5999755859375</ele>
        <time>2026-06-18T09:53:39.000Z</time>
        <extensions>
          <ns3:TrackPointExtension>
            <ns3:atemp>22.0</ns3:atemp>
          </ns3:TrackPointExtension>
        </extensions>
      </trkpt>
      <trkpt lat="42.51519477926194667816162109375" lon="19.768999926745891571044921875">
        <ele>1831.5999755859375</ele>
        <time>2026-06-18T09:53:40.000Z</time>
        <extensions>
          <ns3:TrackPointExtension>
            <ns3:atemp>22.0</ns3:atemp>
          </ns3:TrackPointExtension>
        </extensions>
      </trkpt>
      <trkpt lat="42.51519477926194667816162109375" lon="19.768999926745891571044921875">
        <ele>1831.5999755859375</ele>
        <time>2026-06-18T09:53:41.000Z</time>
        <extensions>
          <ns3:TrackPointExtension>
            <ns3:atemp>22.0</ns3:atemp>
          </ns3:TrackPointExtension>
        </extensions>
      </trkpt>
      <trkpt lat="42.51519477926194667816162109375" lon="19.768999926745891571044921875">
        <ele>1831.5999755859375</ele>
        <time>2026-06-18T09:53:42.000Z</time>
        <extensions>
          <ns3:TrackPointExtension>
            <ns3:atemp>22.0</ns3:atemp>
          </ns3:TrackPointExtension>
        </extensions>
      </trkpt>
      <trkpt lat="42.51519477926194667816162109375" lon="19.768999926745891571044921875">
        <ele>1831.5999755859375</ele>
        <time>2026-06-18T09:53:43.000Z</time>
        <extensions>
          <ns3:TrackPointExtension>
            <ns3:atemp>22.0</ns3:atemp>
          </ns3:TrackPointExtension>
        </extensions>
      </trkpt>
      <trkpt lat="42.51519477926194667816162109375" lon="19.768999926745891571044921875">
        <ele>1831.5999755859375</ele>
        <time>2026-06-18T09:53:44.000Z</time>
        <extensions>
          <ns3:TrackPointExtension>
            <ns3:atemp>22.0</ns3:atemp>
          </ns3:TrackPointExtension>
        </extensions>
      </trkpt>
      <trkpt lat="42.51519477926194667816162109375" lon="19.768999926745891571044921875">
        <ele>1831.5999755859375</ele>
        <time>2026-06-18T09:53:45.000Z</time>
        <extensions>
          <ns3:TrackPointExtension>
            <ns3:atemp>22.0</ns3:atemp>
          </ns3:TrackPointExtension>
        </extensions>
      </trkpt>
      <trkpt lat="42.51519477926194667816162109375" lon="19.768999926745891571044921875">
        <ele>1831.5999755859375</ele>
        <time>2026-06-18T09:53:46.000Z</time>
        <extensions>
          <ns3:TrackPointExtension>
            <ns3:atemp>22.0</ns3:atemp>
          </ns3:TrackPointExtension>
        </extensions>
      </trkpt>
      <trkpt lat="42.51519477926194667816162109375" lon="19.768999926745891571044921875">
        <ele>1831.5999755859375</ele>
        <time>2026-06-18T09:53:47.000Z</time>
        <extensions>
          <ns3:TrackPointExtension>
            <ns3:atemp>22.0</ns3:atemp>
          </ns3:TrackPointExtension>
        </extensions>
      </trkpt>
      <trkpt lat="42.51519477926194667816162109375" lon="19.768999926745891571044921875">
        <ele>1831.5999755859375</ele>
        <time>2026-06-18T09:53:48.000Z</time>
        <extensions>
          <ns3:TrackPointExtension>
            <ns3:atemp>22.0</ns3:atemp>
          </ns3:TrackPointExtension>
        </extensions>
      </trkpt>
      <trkpt lat="42.51519477926194667816162109375" lon="19.768999926745891571044921875">
        <ele>1831.5999755859375</ele>
        <time>2026-06-18T09:53:49.000Z</time>
        <extensions>
          <ns3:TrackPointExtension>
            <ns3:atemp>22.0</ns3:atemp>
          </ns3:TrackPointExtension>
        </extensions>
      </trkpt>
      <trkpt lat="42.51519477926194667816162109375" lon="19.768999926745891571044921875">
        <ele>1831.5999755859375</ele>
        <time>2026-06-18T09:53:50.000Z</time>
        <extensions>
          <ns3:TrackPointExtension>
            <ns3:atemp>22.0</ns3:atemp>
          </ns3:TrackPointExtension>
        </extensions>
      </trkpt>
      <trkpt lat="42.51519477926194667816162109375" lon="19.768999926745891571044921875">
        <ele>1831.5999755859375</ele>
        <time>2026-06-18T09:53:51.000Z</time>
        <extensions>
          <ns3:TrackPointExtension>
            <ns3:atemp>22.0</ns3:atemp>
          </ns3:TrackPointExtension>
        </extensions>
      </trkpt>
      <trkpt lat="42.51519477926194667816162109375" lon="19.768999926745891571044921875">
        <ele>1831.5999755859375</ele>
        <time>2026-06-18T09:53:52.000Z</time>
        <extensions>
          <ns3:TrackPointExtension>
            <ns3:atemp>22.0</ns3:atemp>
          </ns3:TrackPointExtension>
        </extensions>
      </trkpt>
      <trkpt lat="42.51519477926194667816162109375" lon="19.768999926745891571044921875">
        <ele>1831.5999755859375</ele>
        <time>2026-06-18T09:53:53.000Z</time>
        <extensions>
          <ns3:TrackPointExtension>
            <ns3:atemp>22.0</ns3:atemp>
          </ns3:TrackPointExtension>
        </extensions>
      </trkpt>
      <trkpt lat="42.51519477926194667816162109375" lon="19.768999926745891571044921875">
        <ele>1831.5999755859375</ele>
        <time>2026-06-18T09:53:54.000Z</time>
        <extensions>
          <ns3:TrackPointExtension>
            <ns3:atemp>22.0</ns3:atemp>
          </ns3:TrackPointExtension>
        </extensions>
      </trkpt>
      <trkpt lat="42.51519477926194667816162109375" lon="19.768999926745891571044921875">
        <ele>1831.5999755859375</ele>
        <time>2026-06-18T09:53:55.000Z</time>
        <extensions>
          <ns3:TrackPointExtension>
            <ns3:atemp>22.0</ns3:atemp>
          </ns3:TrackPointExtension>
        </extensions>
      </trkpt>
      <trkpt lat="42.51519477926194667816162109375" lon="19.768999926745891571044921875">
        <ele>1831.5999755859375</ele>
        <time>2026-06-18T09:53:56.000Z</time>
        <extensions>
          <ns3:TrackPointExtension>
            <ns3:atemp>22.0</ns3:atemp>
          </ns3:TrackPointExtension>
        </extensions>
      </trkpt>
      <trkpt lat="42.51519477926194667816162109375" lon="19.768999926745891571044921875">
        <ele>1831.5999755859375</ele>
        <time>2026-06-18T09:53:57.000Z</time>
        <extensions>
          <ns3:TrackPointExtension>
            <ns3:atemp>22.0</ns3:atemp>
          </ns3:TrackPointExtension>
        </extensions>
      </trkpt>
      <trkpt lat="42.51519477926194667816162109375" lon="19.768999926745891571044921875">
        <ele>1831.5999755859375</ele>
        <time>2026-06-18T09:53:58.000Z</time>
        <extensions>
          <ns3:TrackPointExtension>
            <ns3:atemp>22.0</ns3:atemp>
          </ns3:TrackPointExtension>
        </extensions>
      </trkpt>
      <trkpt lat="42.51519477926194667816162109375" lon="19.768999926745891571044921875">
        <ele>1831.5999755859375</ele>
        <time>2026-06-18T09:53:59.000Z</time>
        <extensions>
          <ns3:TrackPointExtension>
            <ns3:atemp>22.0</ns3:atemp>
          </ns3:TrackPointExtension>
        </extensions>
      </trkpt>
      <trkpt lat="42.51519477926194667816162109375" lon="19.768999926745891571044921875">
        <ele>1831.5999755859375</ele>
        <time>2026-06-18T09:54:00.000Z</time>
        <extensions>
          <ns3:TrackPointExtension>
            <ns3:atemp>22.0</ns3:atemp>
          </ns3:TrackPointExtension>
        </extensions>
      </trkpt>
      <trkpt lat="42.51519477926194667816162109375" lon="19.768999926745891571044921875">
        <ele>1831.5999755859375</ele>
        <time>2026-06-18T09:54:01.000Z</time>
        <extensions>
          <ns3:TrackPointExtension>
            <ns3:atemp>22.0</ns3:atemp>
          </ns3:TrackPointExtension>
        </extensions>
      </trkpt>
      <trkpt lat="42.51519477926194667816162109375" lon="19.768999926745891571044921875">
        <ele>1831.5999755859375</ele>
        <time>2026-06-18T09:54:02.000Z</time>
        <extensions>
          <ns3:TrackPointExtension>
            <ns3:atemp>22.0</ns3:atemp>
          </ns3:TrackPointExtension>
        </extensions>
      </trkpt>
      <trkpt lat="42.51519477926194667816162109375" lon="19.768999926745891571044921875">
        <ele>1831.5999755859375</ele>
        <time>2026-06-18T09:54:03.000Z</time>
        <extensions>
          <ns3:TrackPointExtension>
            <ns3:atemp>22.0</ns3:atemp>
          </ns3:TrackPointExtension>
        </extensions>
      </trkpt>
      <trkpt lat="42.515189833939075469970703125" lon="19.76900168694555759429931640625">
        <ele>1829.4000244140625</ele>
        <time>2026-06-18T09:54:04.000Z</time>
        <extensions>
          <ns3:TrackPointExtension>
            <ns3:atemp>22.0</ns3:atemp>
          </ns3:TrackPointExtension>
        </extensions>
      </trkpt>
      <trkpt lat="42.51519477926194667816162109375" lon="19.768999926745891571044921875">
        <ele>1829.4000244140625</ele>
        <time>2026-06-18T09:54:05.000Z</time>
        <extensions>
          <ns3:TrackPointExtension>
            <ns3:atemp>22.0</ns3:atemp>
          </ns3:TrackPointExtension>
        </extensions>
      </trkpt>
      <trkpt lat="42.5151886604726314544677734375" lon="19.7690011002123355865478515625">
        <ele>1829.199951171875</ele>
        <time>2026-06-18T09:54:06.000Z</time>
        <extensions>
          <ns3:TrackPointExtension>
            <ns3:atemp>22.0</ns3:atemp>
          </ns3:TrackPointExtension>
        </extensions>
      </trkpt>
      <trkpt lat="42.51519477926194667816162109375" lon="19.768999926745891571044921875">
        <ele>1829.199951171875</ele>
        <time>2026-06-18T09:54:07.000Z</time>
        <extensions>
          <ns3:TrackPointExtension>
            <ns3:atemp>22.0</ns3:atemp>
          </ns3:TrackPointExtension>
        </extensions>
      </trkpt>
      <trkpt lat="42.51519477926194667816162109375" lon="19.768999926745891571044921875">
        <ele>1829.4000244140625</ele>
        <time>2026-06-18T09:54:08.000Z</time>
        <extensions>
          <ns3:TrackPointExtension>
            <ns3:atemp>22.0</ns3:atemp>
          </ns3:TrackPointExtension>
        </extensions>
      </trkpt>
      <trkpt lat="42.51519477926194667816162109375" lon="19.768999926745891571044921875">
        <ele>1829.800048828125</ele>
        <time>2026-06-18T09:54:09.000Z</time>
        <extensions>
          <ns3:TrackPointExtension>
            <ns3:atemp>22.0</ns3:atemp>
          </ns3:TrackPointExtension>
        </extensions>
      </trkpt>
      <trkpt lat="42.51519477926194667816162109375" lon="19.768999926745891571044921875">
        <ele>1830.199951171875</ele>
        <time>2026-06-18T09:54:10.000Z</time>
        <extensions>
          <ns3:TrackPointExtension>
            <ns3:atemp>22.0</ns3:atemp>
          </ns3:TrackPointExtension>
        </extensions>
      </trkpt>
      <trkpt lat="42.51519477926194667816162109375" lon="19.768999926745891571044921875">
        <ele>1830.5999755859375</ele>
        <time>2026-06-18T09:54:11.000Z</time>
        <extensions>
          <ns3:TrackPointExtension>
            <ns3:atemp>22.0</ns3:atemp>
          </ns3:TrackPointExtension>
        </extensions>
      </trkpt>
      <trkpt lat="42.51519477926194667816162109375" lon="19.768999926745891571044921875">
        <ele>1830.800048828125</ele>
        <time>2026-06-18T09:54:12.000Z</time>
        <extensions>
          <ns3:TrackPointExtension>
            <ns3:atemp>22.0</ns3:atemp>
          </ns3:TrackPointExtension>
        </extensions>
      </trkpt>
      <trkpt lat="42.51519477926194667816162109375" lon="19.768999926745891571044921875">
        <ele>1830.800048828125</ele>
        <time>2026-06-18T09:54:13.000Z</time>
        <extensions>
          <ns3:TrackPointExtension>
            <ns3:atemp>22.0</ns3:atemp>
          </ns3:TrackPointExtension>
        </extensions>
      </trkpt>
      <trkpt lat="42.51519477926194667816162109375" lon="19.768999926745891571044921875">
        <ele>1831</ele>
        <time>2026-06-18T09:54:14.000Z</time>
        <extensions>
          <ns3:TrackPointExtension>
            <ns3:atemp>22.0</ns3:atemp>
          </ns3:TrackPointExtension>
        </extensions>
      </trkpt>
      <trkpt lat="42.51519477926194667816162109375" lon="19.768999926745891571044921875">
        <ele>1831</ele>
        <time>2026-06-18T09:54:15.000Z</time>
        <extensions>
          <ns3:TrackPointExtension>
            <ns3:atemp>22.0</ns3:atemp>
          </ns3:TrackPointExtension>
        </extensions>
      </trkpt>
      <trkpt lat="42.51519477926194667816162109375" lon="19.768999926745891571044921875">
        <ele>1831</ele>
        <time>2026-06-18T09:54:16.000Z</time>
        <extensions>
          <ns3:TrackPointExtension>
            <ns3:atemp>22.0</ns3:atemp>
          </ns3:TrackPointExtension>
        </extensions>
      </trkpt>
      <trkpt lat="42.51519477926194667816162109375" lon="19.768999926745891571044921875">
        <ele>1831</ele>
        <time>2026-06-18T09:54:17.000Z</time>
        <extensions>
          <ns3:TrackPointExtension>
            <ns3:atemp>22.0</ns3:atemp>
          </ns3:TrackPointExtension>
        </extensions>
      </trkpt>
      <trkpt lat="42.51519477926194667816162109375" lon="19.768999926745891571044921875">
        <ele>1831</ele>
        <time>2026-06-18T09:54:18.000Z</time>
        <extensions>
          <ns3:TrackPointExtension>
            <ns3:atemp>22.0</ns3:atemp>
          </ns3:TrackPointExtension>
        </extensions>
      </trkpt>
      <trkpt lat="42.51519477926194667816162109375" lon="19.768999926745891571044921875">
        <ele>1831</ele>
        <time>2026-06-18T09:54:19.000Z</time>
        <extensions>
          <ns3:TrackPointExtension>
            <ns3:atemp>22.0</ns3:atemp>
          </ns3:TrackPointExtension>
        </extensions>
      </trkpt>
      <trkpt lat="42.51519477926194667816162109375" lon="19.768999926745891571044921875">
        <ele>1831</ele>
        <time>2026-06-18T09:54:20.000Z</time>
        <extensions>
          <ns3:TrackPointExtension>
            <ns3:atemp>22.0</ns3:atemp>
          </ns3:TrackPointExtension>
        </extensions>
      </trkpt>
      <trkpt lat="42.51519477926194667816162109375" lon="19.768999926745891571044921875">
        <ele>1831.199951171875</ele>
        <time>2026-06-18T09:54:21.000Z</time>
        <extensions>
          <ns3:TrackPointExtension>
            <ns3:atemp>22.0</ns3:atemp>
          </ns3:TrackPointExtension>
        </extensions>
      </trkpt>
      <trkpt lat="42.51519477926194667816162109375" lon="19.768999926745891571044921875">
        <ele>1831</ele>
        <time>2026-06-18T09:54:22.000Z</time>
        <extensions>
          <ns3:TrackPointExtension>
            <ns3:atemp>22.0</ns3:atemp>
          </ns3:TrackPointExtension>
        </extensions>
      </trkpt>
      <trkpt lat="42.51519477926194667816162109375" lon="19.768999926745891571044921875">
        <ele>1831</ele>
        <time>2026-06-18T09:54:23.000Z</time>
        <extensions>
          <ns3:TrackPointExtension>
            <ns3:atemp>22.0</ns3:atemp>
          </ns3:TrackPointExtension>
        </extensions>
      </trkpt>
      <trkpt lat="42.51519477926194667816162109375" lon="19.768999926745891571044921875">
        <ele>1831</ele>
        <time>2026-06-18T09:54:24.000Z</time>
        <extensions>
          <ns3:TrackPointExtension>
            <ns3:atemp>22.0</ns3:atemp>
          </ns3:TrackPointExtension>
        </extensions>
      </trkpt>
      <trkpt lat="42.51519477926194667816162109375" lon="19.768999926745891571044921875">
        <ele>1831</ele>
        <time>2026-06-18T09:54:25.000Z</time>
        <extensions>
          <ns3:TrackPointExtension>
            <ns3:atemp>22.0</ns3:atemp>
          </ns3:TrackPointExtension>
        </extensions>
      </trkpt>
      <trkpt lat="42.51519477926194667816162109375" lon="19.768999926745891571044921875">
        <ele>1831.199951171875</ele>
        <time>2026-06-18T09:54:26.000Z</time>
        <extensions>
          <ns3:TrackPointExtension>
            <ns3:atemp>22.0</ns3:atemp>
          </ns3:TrackPointExtension>
        </extensions>
      </trkpt>
      <trkpt lat="42.51519477926194667816162109375" lon="19.768999926745891571044921875">
        <ele>1831.4000244140625</ele>
        <time>2026-06-18T09:54:27.000Z</time>
        <extensions>
          <ns3:TrackPointExtension>
            <ns3:atemp>22.0</ns3:atemp>
          </ns3:TrackPointExtension>
        </extensions>
      </trkpt>
      <trkpt lat="42.51519477926194667816162109375" lon="19.768999926745891571044921875">
        <ele>1831.4000244140625</ele>
        <time>2026-06-18T09:54:28.000Z</time>
        <extensions>
          <ns3:TrackPointExtension>
            <ns3:atemp>22.0</ns3:atemp>
          </ns3:TrackPointExtension>
        </extensions>
      </trkpt>
      <trkpt lat="42.51519477926194667816162109375" lon="19.768999926745891571044921875">
        <ele>1831.5999755859375</ele>
        <time>2026-06-18T09:54:29.000Z</time>
        <extensions>
          <ns3:TrackPointExtension>
            <ns3:atemp>22.0</ns3:atemp>
          </ns3:TrackPointExtension>
        </extensions>
      </trkpt>
      <trkpt lat="42.51519477926194667816162109375" lon="19.768999926745891571044921875">
        <ele>1831.5999755859375</ele>
        <time>2026-06-18T09:54:30.000Z</time>
        <extensions>
          <ns3:TrackPointExtension>
            <ns3:atemp>22.0</ns3:atemp>
          </ns3:TrackPointExtension>
        </extensions>
      </trkpt>
      <trkpt lat="42.51519477926194667816162109375" lon="19.768999926745891571044921875">
        <ele>1831.5999755859375</ele>
        <time>2026-06-18T09:54:31.000Z</time>
        <extensions>
          <ns3:TrackPointExtension>
            <ns3:atemp>22.0</ns3:atemp>
          </ns3:TrackPointExtension>
        </extensions>
      </trkpt>
      <trkpt lat="42.51519477926194667816162109375" lon="19.768999926745891571044921875">
        <ele>1831.5999755859375</ele>
        <time>2026-06-18T09:54:32.000Z</time>
        <extensions>
          <ns3:TrackPointExtension>
            <ns3:atemp>22.0</ns3:atemp>
          </ns3:TrackPointExtension>
        </extensions>
      </trkpt>
      <trkpt lat="42.51519477926194667816162109375" lon="19.768999926745891571044921875">
        <ele>1831.5999755859375</ele>
        <time>2026-06-18T09:54:33.000Z</time>
        <extensions>
          <ns3:TrackPointExtension>
            <ns3:atemp>22.0</ns3:atemp>
          </ns3:TrackPointExtension>
        </extensions>
      </trkpt>
      <trkpt lat="42.51519477926194667816162109375" lon="19.768999926745891571044921875">
        <ele>1831.5999755859375</ele>
        <time>2026-06-18T09:54:34.000Z</time>
        <extensions>
          <ns3:TrackPointExtension>
            <ns3:atemp>22.0</ns3:atemp>
          </ns3:TrackPointExtension>
        </extensions>
      </trkpt>
      <trkpt lat="42.51519477926194667816162109375" lon="19.768999926745891571044921875">
        <ele>1831.5999755859375</ele>
        <time>2026-06-18T09:54:35.000Z</time>
        <extensions>
          <ns3:TrackPointExtension>
            <ns3:atemp>22.0</ns3:atemp>
          </ns3:TrackPointExtension>
        </extensions>
      </trkpt>
      <trkpt lat="42.51519477926194667816162109375" lon="19.768999926745891571044921875">
        <ele>1831.800048828125</ele>
        <time>2026-06-18T09:54:36.000Z</time>
        <extensions>
          <ns3:TrackPointExtension>
            <ns3:atemp>22.0</ns3:atemp>
          </ns3:TrackPointExtension>
        </extensions>
      </trkpt>
      <trkpt lat="42.51519477926194667816162109375" lon="19.768999926745891571044921875">
        <ele>1831.800048828125</ele>
        <time>2026-06-18T09:54:37.000Z</time>
        <extensions>
          <ns3:TrackPointExtension>
            <ns3:atemp>22.0</ns3:atemp>
          </ns3:TrackPointExtension>
        </extensions>
      </trkpt>
      <trkpt lat="42.51519477926194667816162109375" lon="19.768999926745891571044921875">
        <ele>1831.800048828125</ele>
        <time>2026-06-18T09:54:38.000Z</time>
        <extensions>
          <ns3:TrackPointExtension>
            <ns3:atemp>22.0</ns3:atemp>
          </ns3:TrackPointExtension>
        </extensions>
      </trkpt>
      <trkpt lat="42.51519477926194667816162109375" lon="19.768999926745891571044921875">
        <ele>1831.800048828125</ele>
        <time>2026-06-18T09:54:39.000Z</time>
        <extensions>
          <ns3:TrackPointExtension>
            <ns3:atemp>22.0</ns3:atemp>
          </ns3:TrackPointExtension>
        </extensions>
      </trkpt>
      <trkpt lat="42.51519477926194667816162109375" lon="19.768999926745891571044921875">
        <ele>1832</ele>
        <time>2026-06-18T09:54:40.000Z</time>
        <extensions>
          <ns3:TrackPointExtension>
            <ns3:atemp>22.0</ns3:atemp>
          </ns3:TrackPointExtension>
        </extensions>
      </trkpt>
      <trkpt lat="42.51519477926194667816162109375" lon="19.768999926745891571044921875">
        <ele>1832</ele>
        <time>2026-06-18T09:54:41.000Z</time>
        <extensions>
          <ns3:TrackPointExtension>
            <ns3:atemp>22.0</ns3:atemp>
          </ns3:TrackPointExtension>
        </extensions>
      </trkpt>
      <trkpt lat="42.51519477926194667816162109375" lon="19.768999926745891571044921875">
        <ele>1832</ele>
        <time>2026-06-18T09:54:42.000Z</time>
        <extensions>
          <ns3:TrackPointExtension>
            <ns3:atemp>22.0</ns3:atemp>
          </ns3:TrackPointExtension>
        </extensions>
      </trkpt>
      <trkpt lat="42.51519477926194667816162109375" lon="19.768999926745891571044921875">
        <ele>1832.199951171875</ele>
        <time>2026-06-18T09:54:43.000Z</time>
        <extensions>
          <ns3:TrackPointExtension>
            <ns3:atemp>22.0</ns3:atemp>
          </ns3:TrackPointExtension>
        </extensions>
      </trkpt>
      <trkpt lat="42.51519477926194667816162109375" lon="19.768999926745891571044921875">
        <ele>1832.4000244140625</ele>
        <time>2026-06-18T09:54:44.000Z</time>
        <extensions>
          <ns3:TrackPointExtension>
            <ns3:atemp>22.0</ns3:atemp>
          </ns3:TrackPointExtension>
        </extensions>
      </trkpt>
      <trkpt lat="42.51519477926194667816162109375" lon="19.768999926745891571044921875">
        <ele>1832.4000244140625</ele>
        <time>2026-06-18T09:54:45.000Z</time>
        <extensions>
          <ns3:TrackPointExtension>
            <ns3:atemp>22.0</ns3:atemp>
          </ns3:TrackPointExtension>
        </extensions>
      </trkpt>
      <trkpt lat="42.51519477926194667816162109375" lon="19.768999926745891571044921875">
        <ele>1832.5999755859375</ele>
        <time>2026-06-18T09:54:46.000Z</time>
        <extensions>
          <ns3:TrackPointExtension>
            <ns3:atemp>22.0</ns3:atemp>
          </ns3:TrackPointExtension>
        </extensions>
      </trkpt>
      <trkpt lat="42.51519477926194667816162109375" lon="19.768999926745891571044921875">
        <ele>1832.5999755859375</ele>
        <time>2026-06-18T09:54:47.000Z</time>
        <extensions>
          <ns3:TrackPointExtension>
            <ns3:atemp>22.0</ns3:atemp>
          </ns3:TrackPointExtension>
        </extensions>
      </trkpt>
      <trkpt lat="42.51519477926194667816162109375" lon="19.768999926745891571044921875">
        <ele>1832.800048828125</ele>
        <time>2026-06-18T09:54:48.000Z</time>
        <extensions>
          <ns3:TrackPointExtension>
            <ns3:atemp>22.0</ns3:atemp>
          </ns3:TrackPointExtension>
        </extensions>
      </trkpt>
      <trkpt lat="42.51519477926194667816162109375" lon="19.768999926745891571044921875">
        <ele>1832.800048828125</ele>
        <time>2026-06-18T09:54:49.000Z</time>
        <extensions>
          <ns3:TrackPointExtension>
            <ns3:atemp>22.0</ns3:atemp>
          </ns3:TrackPointExtension>
        </extensions>
      </trkpt>
      <trkpt lat="42.51519477926194667816162109375" lon="19.768999926745891571044921875">
        <ele>1832.800048828125</ele>
        <time>2026-06-18T09:54:50.000Z</time>
        <extensions>
          <ns3:TrackPointExtension>
            <ns3:atemp>22.0</ns3:atemp>
          </ns3:TrackPointExtension>
        </extensions>
      </trkpt>
      <trkpt lat="42.51519477926194667816162109375" lon="19.768999926745891571044921875">
        <ele>1832.800048828125</ele>
        <time>2026-06-18T09:54:51.000Z</time>
        <extensions>
          <ns3:TrackPointExtension>
            <ns3:atemp>22.0</ns3:atemp>
          </ns3:TrackPointExtension>
        </extensions>
      </trkpt>
      <trkpt lat="42.51519477926194667816162109375" lon="19.768999926745891571044921875">
        <ele>1832.5999755859375</ele>
        <time>2026-06-18T09:54:52.000Z</time>
        <extensions>
          <ns3:TrackPointExtension>
            <ns3:atemp>22.0</ns3:atemp>
          </ns3:TrackPointExtension>
        </extensions>
      </trkpt>
      <trkpt lat="42.51519477926194667816162109375" lon="19.768999926745891571044921875">
        <ele>1832.5999755859375</ele>
        <time>2026-06-18T09:54:53.000Z</time>
        <extensions>
          <ns3:TrackPointExtension>
            <ns3:atemp>22.0</ns3:atemp>
          </ns3:TrackPointExtension>
        </extensions>
      </trkpt>
      <trkpt lat="42.51519477926194667816162109375" lon="19.768999926745891571044921875">
        <ele>1832.5999755859375</ele>
        <time>2026-06-18T09:54:54.000Z</time>
        <extensions>
          <ns3:TrackPointExtension>
            <ns3:atemp>22.0</ns3:atemp>
          </ns3:TrackPointExtension>
        </extensions>
      </trkpt>
      <trkpt lat="42.51519477926194667816162109375" lon="19.768999926745891571044921875">
        <ele>1832.5999755859375</ele>
        <time>2026-06-18T09:54:55.000Z</time>
        <extensions>
          <ns3:TrackPointExtension>
            <ns3:atemp>22.0</ns3:atemp>
          </ns3:TrackPointExtension>
        </extensions>
      </trkpt>
      <trkpt lat="42.51519477926194667816162109375" lon="19.768999926745891571044921875">
        <ele>1832.4000244140625</ele>
        <time>2026-06-18T09:54:56.000Z</time>
        <extensions>
          <ns3:TrackPointExtension>
            <ns3:atemp>22.0</ns3:atemp>
          </ns3:TrackPointExtension>
        </extensions>
      </trkpt>
      <trkpt lat="42.51519477926194667816162109375" lon="19.768999926745891571044921875">
        <ele>1832.4000244140625</ele>
        <time>2026-06-18T09:54:57.000Z</time>
        <extensions>
          <ns3:TrackPointExtension>
            <ns3:atemp>22.0</ns3:atemp>
          </ns3:TrackPointExtension>
        </extensions>
      </trkpt>
      <trkpt lat="42.51519477926194667816162109375" lon="19.768999926745891571044921875">
        <ele>1832.4000244140625</ele>
        <time>2026-06-18T09:54:58.000Z</time>
        <extensions>
          <ns3:TrackPointExtension>
            <ns3:atemp>22.0</ns3:atemp>
          </ns3:TrackPointExtension>
        </extensions>
      </trkpt>
      <trkpt lat="42.51519477926194667816162109375" lon="19.768999926745891571044921875">
        <ele>1832.4000244140625</ele>
        <time>2026-06-18T09:54:59.000Z</time>
        <extensions>
          <ns3:TrackPointExtension>
            <ns3:atemp>22.0</ns3:atemp>
          </ns3:TrackPointExtension>
        </extensions>
      </trkpt>
      <trkpt lat="42.51519477926194667816162109375" lon="19.768999926745891571044921875">
        <ele>1832.199951171875</ele>
        <time>2026-06-18T09:55:00.000Z</time>
        <extensions>
          <ns3:TrackPointExtension>
            <ns3:atemp>22.0</ns3:atemp>
          </ns3:TrackPointExtension>
        </extensions>
      </trkpt>
      <trkpt lat="42.51519477926194667816162109375" lon="19.768999926745891571044921875">
        <ele>1832.199951171875</ele>
        <time>2026-06-18T09:55:01.000Z</time>
        <extensions>
          <ns3:TrackPointExtension>
            <ns3:atemp>22.0</ns3:atemp>
          </ns3:TrackPointExtension>
        </extensions>
      </trkpt>
      <trkpt lat="42.51519477926194667816162109375" lon="19.768999926745891571044921875">
        <ele>1832.199951171875</ele>
        <time>2026-06-18T09:55:02.000Z</time>
        <extensions>
          <ns3:TrackPointExtension>
            <ns3:atemp>22.0</ns3:atemp>
          </ns3:TrackPointExtension>
        </extensions>
      </trkpt>
      <trkpt lat="42.51519477926194667816162109375" lon="19.768999926745891571044921875">
        <ele>1832.199951171875</ele>
        <time>2026-06-18T09:55:03.000Z</time>
        <extensions>
          <ns3:TrackPointExtension>
            <ns3:atemp>22.0</ns3:atemp>
          </ns3:TrackPointExtension>
        </extensions>
      </trkpt>
      <trkpt lat="42.51519477926194667816162109375" lon="19.768999926745891571044921875">
        <ele>1832.199951171875</ele>
        <time>2026-06-18T09:55:04.000Z</time>
        <extensions>
          <ns3:TrackPointExtension>
            <ns3:atemp>22.0</ns3:atemp>
          </ns3:TrackPointExtension>
        </extensions>
      </trkpt>
      <trkpt lat="42.51519477926194667816162109375" lon="19.768999926745891571044921875">
        <ele>1832.199951171875</ele>
        <time>2026-06-18T09:55:05.000Z</time>
        <extensions>
          <ns3:TrackPointExtension>
            <ns3:atemp>22.0</ns3:atemp>
          </ns3:TrackPointExtension>
        </extensions>
      </trkpt>
      <trkpt lat="42.51519477926194667816162109375" lon="19.768999926745891571044921875">
        <ele>1832.199951171875</ele>
        <time>2026-06-18T09:55:06.000Z</time>
        <extensions>
          <ns3:TrackPointExtension>
            <ns3:atemp>22.0</ns3:atemp>
          </ns3:TrackPointExtension>
        </extensions>
      </trkpt>
      <trkpt lat="42.51519477926194667816162109375" lon="19.768999926745891571044921875">
        <ele>1832.199951171875</ele>
        <time>2026-06-18T09:55:07.000Z</time>
        <extensions>
          <ns3:TrackPointExtension>
            <ns3:atemp>22.0</ns3:atemp>
          </ns3:TrackPointExtension>
        </extensions>
      </trkpt>
      <trkpt lat="42.51519477926194667816162109375" lon="19.768999926745891571044921875">
        <ele>1832.199951171875</ele>
        <time>2026-06-18T09:55:08.000Z</time>
        <extensions>
          <ns3:TrackPointExtension>
            <ns3:atemp>22.0</ns3:atemp>
          </ns3:TrackPointExtension>
        </extensions>
      </trkpt>
      <trkpt lat="42.51519477926194667816162109375" lon="19.768999926745891571044921875">
        <ele>1832.199951171875</ele>
        <time>2026-06-18T09:55:09.000Z</time>
        <extensions>
          <ns3:TrackPointExtension>
            <ns3:atemp>22.0</ns3:atemp>
          </ns3:TrackPointExtension>
        </extensions>
      </trkpt>
      <trkpt lat="42.51519477926194667816162109375" lon="19.768999926745891571044921875">
        <ele>1832.199951171875</ele>
        <time>2026-06-18T09:55:10.000Z</time>
        <extensions>
          <ns3:TrackPointExtension>
            <ns3:atemp>22.0</ns3:atemp>
          </ns3:TrackPointExtension>
        </extensions>
      </trkpt>
      <trkpt lat="42.51519477926194667816162109375" lon="19.768999926745891571044921875">
        <ele>1832.199951171875</ele>
        <time>2026-06-18T09:55:11.000Z</time>
        <extensions>
          <ns3:TrackPointExtension>
            <ns3:atemp>22.0</ns3:atemp>
          </ns3:TrackPointExtension>
        </extensions>
      </trkpt>
      <trkpt lat="42.51519477926194667816162109375" lon="19.768999926745891571044921875">
        <ele>1832.199951171875</ele>
        <time>2026-06-18T09:55:12.000Z</time>
        <extensions>
          <ns3:TrackPointExtension>
            <ns3:atemp>22.0</ns3:atemp>
          </ns3:TrackPointExtension>
        </extensions>
      </trkpt>
      <trkpt lat="42.51519477926194667816162109375" lon="19.768999926745891571044921875">
        <ele>1832.199951171875</ele>
        <time>2026-06-18T09:55:13.000Z</time>
        <extensions>
          <ns3:TrackPointExtension>
            <ns3:atemp>22.0</ns3:atemp>
          </ns3:TrackPointExtension>
        </extensions>
      </trkpt>
      <trkpt lat="42.51519477926194667816162109375" lon="19.768999926745891571044921875">
        <ele>1832.199951171875</ele>
        <time>2026-06-18T09:55:14.000Z</time>
        <extensions>
          <ns3:TrackPointExtension>
            <ns3:atemp>22.0</ns3:atemp>
          </ns3:TrackPointExtension>
        </extensions>
      </trkpt>
      <trkpt lat="42.51519477926194667816162109375" lon="19.768999926745891571044921875">
        <ele>1832.199951171875</ele>
        <time>2026-06-18T09:55:15.000Z</time>
        <extensions>
          <ns3:TrackPointExtension>
            <ns3:atemp>22.0</ns3:atemp>
          </ns3:TrackPointExtension>
        </extensions>
      </trkpt>
      <trkpt lat="42.51519477926194667816162109375" lon="19.768999926745891571044921875">
        <ele>1832.199951171875</ele>
        <time>2026-06-18T09:55:16.000Z</time>
        <extensions>
          <ns3:TrackPointExtension>
            <ns3:atemp>22.0</ns3:atemp>
          </ns3:TrackPointExtension>
        </extensions>
      </trkpt>
      <trkpt lat="42.51519477926194667816162109375" lon="19.768999926745891571044921875">
        <ele>1832.4000244140625</ele>
        <time>2026-06-18T09:55:17.000Z</time>
        <extensions>
          <ns3:TrackPointExtension>
            <ns3:atemp>22.0</ns3:atemp>
          </ns3:TrackPointExtension>
        </extensions>
      </trkpt>
      <trkpt lat="42.51519477926194667816162109375" lon="19.768999926745891571044921875">
        <ele>1832.4000244140625</ele>
        <time>2026-06-18T09:55:18.000Z</time>
        <extensions>
          <ns3:TrackPointExtension>
            <ns3:atemp>22.0</ns3:atemp>
          </ns3:TrackPointExtension>
        </extensions>
      </trkpt>
      <trkpt lat="42.51519477926194667816162109375" lon="19.768999926745891571044921875">
        <ele>1832.5999755859375</ele>
        <time>2026-06-18T09:55:19.000Z</time>
        <extensions>
          <ns3:TrackPointExtension>
            <ns3:atemp>22.0</ns3:atemp>
          </ns3:TrackPointExtension>
        </extensions>
      </trkpt>
      <trkpt lat="42.51519477926194667816162109375" lon="19.768999926745891571044921875">
        <ele>1832.5999755859375</ele>
        <time>2026-06-18T09:55:20.000Z</time>
        <extensions>
          <ns3:TrackPointExtension>
            <ns3:atemp>22.0</ns3:atemp>
          </ns3:TrackPointExtension>
        </extensions>
      </trkpt>
      <trkpt lat="42.51519477926194667816162109375" lon="19.768999926745891571044921875">
        <ele>1832.5999755859375</ele>
        <time>2026-06-18T09:55:21.000Z</time>
        <extensions>
          <ns3:TrackPointExtension>
            <ns3:atemp>22.0</ns3:atemp>
          </ns3:TrackPointExtension>
        </extensions>
      </trkpt>
      <trkpt lat="42.51519477926194667816162109375" lon="19.768999926745891571044921875">
        <ele>1832.5999755859375</ele>
        <time>2026-06-18T09:55:22.000Z</time>
        <extensions>
          <ns3:TrackPointExtension>
            <ns3:atemp>22.0</ns3:atemp>
          </ns3:TrackPointExtension>
        </extensions>
      </trkpt>
      <trkpt lat="42.51519477926194667816162109375" lon="19.768999926745891571044921875">
        <ele>1832.800048828125</ele>
        <time>2026-06-18T09:55:23.000Z</time>
        <extensions>
          <ns3:TrackPointExtension>
            <ns3:atemp>22.0</ns3:atemp>
          </ns3:TrackPointExtension>
        </extensions>
      </trkpt>
      <trkpt lat="42.51519477926194667816162109375" lon="19.768999926745891571044921875">
        <ele>1832.800048828125</ele>
        <time>2026-06-18T09:55:24.000Z</time>
        <extensions>
          <ns3:TrackPointExtension>
            <ns3:atemp>22.0</ns3:atemp>
          </ns3:TrackPointExtension>
        </extensions>
      </trkpt>
      <trkpt lat="42.51519477926194667816162109375" lon="19.768999926745891571044921875">
        <ele>1832.800048828125</ele>
        <time>2026-06-18T09:55:25.000Z</time>
        <extensions>
          <ns3:TrackPointExtension>
            <ns3:atemp>22.0</ns3:atemp>
          </ns3:TrackPointExtension>
        </extensions>
      </trkpt>
      <trkpt lat="42.51519477926194667816162109375" lon="19.768999926745891571044921875">
        <ele>1832.800048828125</ele>
        <time>2026-06-18T09:55:26.000Z</time>
        <extensions>
          <ns3:TrackPointExtension>
            <ns3:atemp>22.0</ns3:atemp>
          </ns3:TrackPointExtension>
        </extensions>
      </trkpt>
      <trkpt lat="42.51519477926194667816162109375" lon="19.768999926745891571044921875">
        <ele>1832.800048828125</ele>
        <time>2026-06-18T09:55:27.000Z</time>
        <extensions>
          <ns3:TrackPointExtension>
            <ns3:atemp>22.0</ns3:atemp>
          </ns3:TrackPointExtension>
        </extensions>
      </trkpt>
      <trkpt lat="42.51519477926194667816162109375" lon="19.768999926745891571044921875">
        <ele>1832.800048828125</ele>
        <time>2026-06-18T09:55:28.000Z</time>
        <extensions>
          <ns3:TrackPointExtension>
            <ns3:atemp>22.0</ns3:atemp>
          </ns3:TrackPointExtension>
        </extensions>
      </trkpt>
      <trkpt lat="42.51519477926194667816162109375" lon="19.768999926745891571044921875">
        <ele>1832.800048828125</ele>
        <time>2026-06-18T09:55:29.000Z</time>
        <extensions>
          <ns3:TrackPointExtension>
            <ns3:atemp>22.0</ns3:atemp>
          </ns3:TrackPointExtension>
        </extensions>
      </trkpt>
      <trkpt lat="42.51519477926194667816162109375" lon="19.768999926745891571044921875">
        <ele>1832.800048828125</ele>
        <time>2026-06-18T09:55:30.000Z</time>
        <extensions>
          <ns3:TrackPointExtension>
            <ns3:atemp>22.0</ns3:atemp>
          </ns3:TrackPointExtension>
        </extensions>
      </trkpt>
      <trkpt lat="42.51519477926194667816162109375" lon="19.768999926745891571044921875">
        <ele>1832.800048828125</ele>
        <time>2026-06-18T09:55:31.000Z</time>
        <extensions>
          <ns3:TrackPointExtension>
            <ns3:atemp>22.0</ns3:atemp>
          </ns3:TrackPointExtension>
        </extensions>
      </trkpt>
      <trkpt lat="42.51519477926194667816162109375" lon="19.768999926745891571044921875">
        <ele>1832.800048828125</ele>
        <time>2026-06-18T09:55:32.000Z</time>
        <extensions>
          <ns3:TrackPointExtension>
            <ns3:atemp>22.0</ns3:atemp>
          </ns3:TrackPointExtension>
        </extensions>
      </trkpt>
      <trkpt lat="42.5151936896145343780517578125" lon="19.76900269277393817901611328125">
        <ele>1832.800048828125</ele>
        <time>2026-06-18T09:55:33.000Z</time>
        <extensions>
          <ns3:TrackPointExtension>
            <ns3:atemp>22.0</ns3:atemp>
          </ns3:TrackPointExtension>
        </extensions>
      </trkpt>
      <trkpt lat="42.51519612036645412445068359375" lon="19.7690235637128353118896484375">
        <ele>1832.800048828125</ele>
        <time>2026-06-18T09:55:34.000Z</time>
        <extensions>
          <ns3:TrackPointExtension>
            <ns3:atemp>22.0</ns3:atemp>
          </ns3:TrackPointExtension>
        </extensions>
      </trkpt>
      <trkpt lat="42.51519712619483470916748046875" lon="19.769036471843719482421875">
        <ele>1832.800048828125</ele>
        <time>2026-06-18T09:55:35.000Z</time>
        <extensions>
          <ns3:TrackPointExtension>
            <ns3:atemp>22.0</ns3:atemp>
          </ns3:TrackPointExtension>
        </extensions>
      </trkpt>
      <trkpt lat="42.51519544981420040130615234375" lon="19.769036807119846343994140625">
        <ele>1832.800048828125</ele>
        <time>2026-06-18T09:55:36.000Z</time>
        <extensions>
          <ns3:TrackPointExtension>
            <ns3:atemp>22.0</ns3:atemp>
          </ns3:TrackPointExtension>
        </extensions>
      </trkpt>
      <trkpt lat="42.51519544981420040130615234375" lon="19.769036807119846343994140625">
        <ele>1832.800048828125</ele>
        <time>2026-06-18T09:55:37.000Z</time>
        <extensions>
          <ns3:TrackPointExtension>
            <ns3:atemp>22.0</ns3:atemp>
          </ns3:TrackPointExtension>
        </extensions>
      </trkpt>
      <trkpt lat="42.51519544981420040130615234375" lon="19.769036807119846343994140625">
        <ele>1832.800048828125</ele>
        <time>2026-06-18T09:55:38.000Z</time>
        <extensions>
          <ns3:TrackPointExtension>
            <ns3:atemp>22.0</ns3:atemp>
          </ns3:TrackPointExtension>
        </extensions>
      </trkpt>
      <trkpt lat="42.51519544981420040130615234375" lon="19.769036807119846343994140625">
        <ele>1832.800048828125</ele>
        <time>2026-06-18T09:55:39.000Z</time>
        <extensions>
          <ns3:TrackPointExtension>
            <ns3:atemp>22.0</ns3:atemp>
          </ns3:TrackPointExtension>
        </extensions>
      </trkpt>
      <trkpt lat="42.51519544981420040130615234375" lon="19.769036807119846343994140625">
        <ele>1832.800048828125</ele>
        <time>2026-06-18T09:55:40.000Z</time>
        <extensions>
          <ns3:TrackPointExtension>
            <ns3:atemp>22.0</ns3:atemp>
          </ns3:TrackPointExtension>
        </extensions>
      </trkpt>
      <trkpt lat="42.51519578509032726287841796875" lon="19.7690369747579097747802734375">
        <ele>1832.800048828125</ele>
        <time>2026-06-18T09:55:41.000Z</time>
        <extensions>
          <ns3:TrackPointExtension>
            <ns3:atemp>22.0</ns3:atemp>
          </ns3:TrackPointExtension>
        </extensions>
      </trkpt>
      <trkpt lat="42.51519997604191303253173828125" lon="19.76904963143169879913330078125">
        <ele>1832.5999755859375</ele>
        <time>2026-06-18T09:55:42.000Z</time>
        <extensions>
          <ns3:TrackPointExtension>
            <ns3:atemp>22.0</ns3:atemp>
          </ns3:TrackPointExtension>
        </extensions>
      </trkpt>
      <trkpt lat="42.5151990540325641632080078125" lon="19.76906823925673961639404296875">
        <ele>1832.5999755859375</ele>
        <time>2026-06-18T09:55:43.000Z</time>
        <extensions>
          <ns3:TrackPointExtension>
            <ns3:atemp>22.0</ns3:atemp>
          </ns3:TrackPointExtension>
        </extensions>
      </trkpt>
      <trkpt lat="42.51519762910902500152587890625" lon="19.7690892778337001800537109375">
        <ele>1832.5999755859375</ele>
        <time>2026-06-18T09:55:44.000Z</time>
        <extensions>
          <ns3:TrackPointExtension>
            <ns3:atemp>22.0</ns3:atemp>
          </ns3:TrackPointExtension>
        </extensions>
      </trkpt>
      <trkpt lat="42.51519327051937580108642578125" lon="19.76910864003002643585205078125">
        <ele>1832.4000244140625</ele>
        <time>2026-06-18T09:55:45.000Z</time>
        <extensions>
          <ns3:TrackPointExtension>
            <ns3:atemp>22.0</ns3:atemp>
          </ns3:TrackPointExtension>
        </extensions>
      </trkpt>
      <trkpt lat="42.51519142650067806243896484375" lon="19.76912976242601871490478515625">
        <ele>1832.5999755859375</ele>
        <time>2026-06-18T09:55:46.000Z</time>
        <extensions>
          <ns3:TrackPointExtension>
            <ns3:atemp>22.0</ns3:atemp>
          </ns3:TrackPointExtension>
        </extensions>
      </trkpt>
      <trkpt lat="42.515193186700344085693359375" lon="19.7691452689468860626220703125">
        <ele>1832.800048828125</ele>
        <time>2026-06-18T09:55:47.000Z</time>
        <extensions>
          <ns3:TrackPointExtension>
            <ns3:atemp>22.0</ns3:atemp>
          </ns3:TrackPointExtension>
        </extensions>
      </trkpt>
      <trkpt lat="42.51520265825092792510986328125" lon="19.76915608160197734832763671875">
        <ele>1833</ele>
        <time>2026-06-18T09:55:48.000Z</time>
        <extensions>
          <ns3:TrackPointExtension>
            <ns3:atemp>22.0</ns3:atemp>
          </ns3:TrackPointExtension>
        </extensions>
      </trkpt>
      <trkpt lat="42.51520718447864055633544921875" lon="19.76916949264705181121826171875">
        <ele>1833.199951171875</ele>
        <time>2026-06-18T09:55:49.000Z</time>
        <extensions>
          <ns3:TrackPointExtension>
            <ns3:atemp>22.0</ns3:atemp>
          </ns3:TrackPointExtension>
        </extensions>
      </trkpt>
      <trkpt lat="42.51520919613540172576904296875" lon="19.76918558590114116668701171875">
        <ele>1833.199951171875</ele>
        <time>2026-06-18T09:55:50.000Z</time>
        <extensions>
          <ns3:TrackPointExtension>
            <ns3:atemp>22.0</ns3:atemp>
          </ns3:TrackPointExtension>
        </extensions>
      </trkpt>
      <trkpt lat="42.51521221362054347991943359375" lon="19.76920687593519687652587890625">
        <ele>1833.4000244140625</ele>
        <time>2026-06-18T09:55:51.000Z</time>
        <extensions>
          <ns3:TrackPointExtension>
            <ns3:atemp>22.0</ns3:atemp>
          </ns3:TrackPointExtension>
        </extensions>
      </trkpt>
      <trkpt lat="42.51521338708698749542236328125" lon="19.76923772133886814117431640625">
        <ele>1833.4000244140625</ele>
        <time>2026-06-18T09:55:52.000Z</time>
        <extensions>
          <ns3:TrackPointExtension>
            <ns3:atemp>22.0</ns3:atemp>
          </ns3:TrackPointExtension>
        </extensions>
      </trkpt>
      <trkpt lat="42.51522210426628589630126953125" lon="19.76925708353519439697265625">
        <ele>1833.4000244140625</ele>
        <time>2026-06-18T09:55:53.000Z</time>
        <extensions>
          <ns3:TrackPointExtension>
            <ns3:atemp>22.0</ns3:atemp>
          </ns3:TrackPointExtension>
        </extensions>
      </trkpt>
      <trkpt lat="42.5152309052646160125732421875" lon="19.76928055286407470703125">
        <ele>1833.5999755859375</ele>
        <time>2026-06-18T09:55:54.000Z</time>
        <extensions>
          <ns3:TrackPointExtension>
            <ns3:atemp>22.0</ns3:atemp>
          </ns3:TrackPointExtension>
        </extensions>
      </trkpt>
      <trkpt lat="42.5152352638542652130126953125" lon="19.7693025134503841400146484375">
        <ele>1833.5999755859375</ele>
        <time>2026-06-18T09:55:55.000Z</time>
        <extensions>
          <ns3:TrackPointExtension>
            <ns3:atemp>22.0</ns3:atemp>
          </ns3:TrackPointExtension>
        </extensions>
      </trkpt>
      <trkpt lat="42.51523836515843868255615234375" lon="19.76931869052350521087646484375">
        <ele>1833.800048828125</ele>
        <time>2026-06-18T09:55:56.000Z</time>
        <extensions>
          <ns3:TrackPointExtension>
            <ns3:atemp>22.0</ns3:atemp>
          </ns3:TrackPointExtension>
        </extensions>
      </trkpt>
      <trkpt lat="42.5152426399290561676025390625" lon="19.769329838454723358154296875">
        <ele>1833.800048828125</ele>
        <time>2026-06-18T09:55:57.000Z</time>
        <extensions>
          <ns3:TrackPointExtension>
            <ns3:atemp>22.0</ns3:atemp>
          </ns3:TrackPointExtension>
        </extensions>
      </trkpt>
      <trkpt lat="42.5152456574141979217529296875" lon="19.76933729834854602813720703125">
        <ele>1834</ele>
        <time>2026-06-18T09:55:58.000Z</time>
        <extensions>
          <ns3:TrackPointExtension>
            <ns3:atemp>22.0</ns3:atemp>
          </ns3:TrackPointExtension>
        </extensions>
      </trkpt>
      <trkpt lat="42.515245489776134490966796875" lon="19.76934132166206836700439453125">
        <ele>1834</ele>
        <time>2026-06-18T09:55:59.000Z</time>
        <extensions>
          <ns3:TrackPointExtension>
            <ns3:atemp>22.0</ns3:atemp>
          </ns3:TrackPointExtension>
        </extensions>
      </trkpt>
      <trkpt lat="42.51524557359516620635986328125" lon="19.7693414054811000823974609375">
        <ele>1834.199951171875</ele>
        <time>2026-06-18T09:56:00.000Z</time>
        <extensions>
          <ns3:TrackPointExtension>
            <ns3:atemp>22.0</ns3:atemp>
          </ns3:TrackPointExtension>
        </extensions>
      </trkpt>
      <trkpt lat="42.51524557359516620635986328125" lon="19.7693414054811000823974609375">
        <ele>1834.4000244140625</ele>
        <time>2026-06-18T09:56:01.000Z</time>
        <extensions>
          <ns3:TrackPointExtension>
            <ns3:atemp>22.0</ns3:atemp>
          </ns3:TrackPointExtension>
        </extensions>
      </trkpt>
      <trkpt lat="42.51524574123322963714599609375" lon="19.7693417407572269439697265625">
        <ele>1834.4000244140625</ele>
        <time>2026-06-18T09:56:02.000Z</time>
        <extensions>
          <ns3:TrackPointExtension>
            <ns3:atemp>22.0</ns3:atemp>
          </ns3:TrackPointExtension>
        </extensions>
      </trkpt>
      <trkpt lat="42.51524657942354679107666015625" lon="19.76937786675989627838134765625">
        <ele>1834.5999755859375</ele>
        <time>2026-06-18T09:56:03.000Z</time>
        <extensions>
          <ns3:TrackPointExtension>
            <ns3:atemp>22.0</ns3:atemp>
          </ns3:TrackPointExtension>
        </extensions>
      </trkpt>
      <trkpt lat="42.51525051891803741455078125" lon="19.769404940307140350341796875">
        <ele>1834.800048828125</ele>
        <time>2026-06-18T09:56:04.000Z</time>
        <extensions>
          <ns3:TrackPointExtension>
            <ns3:atemp>22.0</ns3:atemp>
          </ns3:TrackPointExtension>
        </extensions>
      </trkpt>
      <trkpt lat="42.5152570568025112152099609375" lon="19.769430421292781829833984375">
        <ele>1834.800048828125</ele>
        <time>2026-06-18T09:56:05.000Z</time>
        <extensions>
          <ns3:TrackPointExtension>
            <ns3:atemp>22.0</ns3:atemp>
          </ns3:TrackPointExtension>
        </extensions>
      </trkpt>
      <trkpt lat="42.5152630917727947235107421875" lon="19.7694533877074718475341796875">
        <ele>1835.199951171875</ele>
        <time>2026-06-18T09:56:06.000Z</time>
        <extensions>
          <ns3:TrackPointExtension>
            <ns3:atemp>22.0</ns3:atemp>
          </ns3:TrackPointExtension>
        </extensions>
      </trkpt>
      <trkpt lat="42.5152694620192050933837890625" lon="19.769468642771244049072265625">
        <ele>1835.4000244140625</ele>
        <time>2026-06-18T09:56:07.000Z</time>
        <extensions>
          <ns3:TrackPointExtension>
            <ns3:atemp>22.0</ns3:atemp>
          </ns3:TrackPointExtension>
        </extensions>
      </trkpt>
      <trkpt lat="42.51527625136077404022216796875" lon="19.7694849036633968353271484375">
        <ele>1835.800048828125</ele>
        <time>2026-06-18T09:56:08.000Z</time>
        <extensions>
          <ns3:TrackPointExtension>
            <ns3:atemp>22.0</ns3:atemp>
          </ns3:TrackPointExtension>
        </extensions>
      </trkpt>
      <trkpt lat="42.51527776010334491729736328125" lon="19.76950778625905513763427734375">
        <ele>1836.199951171875</ele>
        <time>2026-06-18T09:56:09.000Z</time>
        <extensions>
          <ns3:TrackPointExtension>
            <ns3:atemp>22.0</ns3:atemp>
          </ns3:TrackPointExtension>
        </extensions>
      </trkpt>
      <trkpt lat="42.51527993939816951751708984375" lon="19.76953092031180858612060546875">
        <ele>1836.4000244140625</ele>
        <time>2026-06-18T09:56:10.000Z</time>
        <extensions>
          <ns3:TrackPointExtension>
            <ns3:atemp>22.0</ns3:atemp>
          </ns3:TrackPointExtension>
        </extensions>
      </trkpt>
      <trkpt lat="42.51528002321720123291015625" lon="19.76955070160329341888427734375">
        <ele>1836.800048828125</ele>
        <time>2026-06-18T09:56:11.000Z</time>
        <extensions>
          <ns3:TrackPointExtension>
            <ns3:atemp>22.0</ns3:atemp>
          </ns3:TrackPointExtension>
        </extensions>
      </trkpt>
      <trkpt lat="42.51527926884591579437255859375" lon="19.7695626877248287200927734375">
        <ele>1836.800048828125</ele>
        <time>2026-06-18T09:56:12.000Z</time>
        <extensions>
          <ns3:TrackPointExtension>
            <ns3:atemp>22.0</ns3:atemp>
          </ns3:TrackPointExtension>
        </extensions>
      </trkpt>
      <trkpt lat="42.51527910120785236358642578125" lon="19.76956956088542938232421875">
        <ele>1837</ele>
        <time>2026-06-18T09:56:13.000Z</time>
        <extensions>
          <ns3:TrackPointExtension>
            <ns3:atemp>22.0</ns3:atemp>
          </ns3:TrackPointExtension>
        </extensions>
      </trkpt>
      <trkpt lat="42.51528136432170867919921875" lon="19.7695760987699031829833984375">
        <ele>1837.199951171875</ele>
        <time>2026-06-18T09:56:14.000Z</time>
        <extensions>
          <ns3:TrackPointExtension>
            <ns3:atemp>22.0</ns3:atemp>
          </ns3:TrackPointExtension>
        </extensions>
      </trkpt>
      <trkpt lat="42.5152815319597721099853515625" lon="19.7695760987699031829833984375">
        <ele>1837.199951171875</ele>
        <time>2026-06-18T09:56:15.000Z</time>
        <extensions>
          <ns3:TrackPointExtension>
            <ns3:atemp>22.0</ns3:atemp>
          </ns3:TrackPointExtension>
        </extensions>
      </trkpt>
      <trkpt lat="42.51528161577880382537841796875" lon="19.76957618258893489837646484375">
        <ele>1837.4000244140625</ele>
        <time>2026-06-18T09:56:16.000Z</time>
        <extensions>
          <ns3:TrackPointExtension>
            <ns3:atemp>22.0</ns3:atemp>
          </ns3:TrackPointExtension>
        </extensions>
      </trkpt>
      <trkpt lat="42.5152868963778018951416015625" lon="19.76959663443267345428466796875">
        <ele>1837.5999755859375</ele>
        <time>2026-06-18T09:56:17.000Z</time>
        <extensions>
          <ns3:TrackPointExtension>
            <ns3:atemp>22.0</ns3:atemp>
          </ns3:TrackPointExtension>
        </extensions>
      </trkpt>
      <trkpt lat="42.51528748311102390289306640625" lon="19.76961742155253887176513671875">
        <ele>1837.800048828125</ele>
        <time>2026-06-18T09:56:18.000Z</time>
        <extensions>
          <ns3:TrackPointExtension>
            <ns3:atemp>22.0</ns3:atemp>
          </ns3:TrackPointExtension>
        </extensions>
      </trkpt>
      <trkpt lat="42.5152889080345630645751953125" lon="19.76963871158659458160400390625">
        <ele>1838.199951171875</ele>
        <time>2026-06-18T09:56:19.000Z</time>
        <extensions>
          <ns3:TrackPointExtension>
            <ns3:atemp>22.0</ns3:atemp>
          </ns3:TrackPointExtension>
        </extensions>
      </trkpt>
      <trkpt lat="42.5152909196913242340087890625" lon="19.7696506977081298828125">
        <ele>1838.4000244140625</ele>
        <time>2026-06-18T09:56:20.000Z</time>
        <extensions>
          <ns3:TrackPointExtension>
            <ns3:atemp>22.0</ns3:atemp>
          </ns3:TrackPointExtension>
        </extensions>
      </trkpt>
      <trkpt lat="42.51529351808130741119384765625" lon="19.76965614594519138336181640625">
        <ele>1838.800048828125</ele>
        <time>2026-06-18T09:56:21.000Z</time>
        <extensions>
          <ns3:TrackPointExtension>
            <ns3:atemp>22.0</ns3:atemp>
          </ns3:TrackPointExtension>
        </extensions>
      </trkpt>
      <trkpt lat="42.51529368571937084197998046875" lon="19.76967173628509044647216796875">
        <ele>1839</ele>
        <time>2026-06-18T09:56:22.000Z</time>
        <extensions>
          <ns3:TrackPointExtension>
            <ns3:atemp>22.0</ns3:atemp>
          </ns3:TrackPointExtension>
        </extensions>
      </trkpt>
      <trkpt lat="42.5152946077287197113037109375" lon="19.7696880809962749481201171875">
        <ele>1839.199951171875</ele>
        <time>2026-06-18T09:56:23.000Z</time>
        <extensions>
          <ns3:TrackPointExtension>
            <ns3:atemp>22.0</ns3:atemp>
          </ns3:TrackPointExtension>
        </extensions>
      </trkpt>
      <trkpt lat="42.51529536210000514984130859375" lon="19.76969906128942966461181640625">
        <ele>1839.199951171875</ele>
        <time>2026-06-18T09:56:24.000Z</time>
        <extensions>
          <ns3:TrackPointExtension>
            <ns3:atemp>22.0</ns3:atemp>
          </ns3:TrackPointExtension>
        </extensions>
      </trkpt>
      <trkpt lat="42.51529519446194171905517578125" lon="19.7696954570710659027099609375">
        <ele>1839.4000244140625</ele>
        <time>2026-06-18T09:56:25.000Z</time>
        <extensions>
          <ns3:TrackPointExtension>
            <ns3:atemp>22.0</ns3:atemp>
          </ns3:TrackPointExtension>
        </extensions>
      </trkpt>
      <trkpt lat="42.5152952782809734344482421875" lon="19.7696954570710659027099609375">
        <ele>1839.4000244140625</ele>
        <time>2026-06-18T09:56:26.000Z</time>
        <extensions>
          <ns3:TrackPointExtension>
            <ns3:atemp>22.0</ns3:atemp>
          </ns3:TrackPointExtension>
        </extensions>
      </trkpt>
      <trkpt lat="42.5152952782809734344482421875" lon="19.7696954570710659027099609375">
        <ele>1839.199951171875</ele>
        <time>2026-06-18T09:56:27.000Z</time>
        <extensions>
          <ns3:TrackPointExtension>
            <ns3:atemp>22.0</ns3:atemp>
          </ns3:TrackPointExtension>
        </extensions>
      </trkpt>
      <trkpt lat="42.5152952782809734344482421875" lon="19.7696954570710659027099609375">
        <ele>1839.4000244140625</ele>
        <time>2026-06-18T09:56:28.000Z</time>
        <extensions>
          <ns3:TrackPointExtension>
            <ns3:atemp>22.0</ns3:atemp>
          </ns3:TrackPointExtension>
        </extensions>
      </trkpt>
      <trkpt lat="42.5152952782809734344482421875" lon="19.7696954570710659027099609375">
        <ele>1839.4000244140625</ele>
        <time>2026-06-18T09:56:29.000Z</time>
        <extensions>
          <ns3:TrackPointExtension>
            <ns3:atemp>22.0</ns3:atemp>
          </ns3:TrackPointExtension>
        </extensions>
      </trkpt>
      <trkpt lat="42.5152952782809734344482421875" lon="19.7696954570710659027099609375">
        <ele>1839.4000244140625</ele>
        <time>2026-06-18T09:56:30.000Z</time>
        <extensions>
          <ns3:TrackPointExtension>
            <ns3:atemp>22.0</ns3:atemp>
          </ns3:TrackPointExtension>
        </extensions>
      </trkpt>
      <trkpt lat="42.5152952782809734344482421875" lon="19.7696954570710659027099609375">
        <ele>1839.4000244140625</ele>
        <time>2026-06-18T09:56:31.000Z</time>
        <extensions>
          <ns3:TrackPointExtension>
            <ns3:atemp>22.0</ns3:atemp>
          </ns3:TrackPointExtension>
        </extensions>
      </trkpt>
      <trkpt lat="42.5152952782809734344482421875" lon="19.7696954570710659027099609375">
        <ele>1839.4000244140625</ele>
        <time>2026-06-18T09:56:32.000Z</time>
        <extensions>
          <ns3:TrackPointExtension>
            <ns3:atemp>22.0</ns3:atemp>
          </ns3:TrackPointExtension>
        </extensions>
      </trkpt>
      <trkpt lat="42.5152952782809734344482421875" lon="19.7696954570710659027099609375">
        <ele>1839.4000244140625</ele>
        <time>2026-06-18T09:56:33.000Z</time>
        <extensions>
          <ns3:TrackPointExtension>
            <ns3:atemp>22.0</ns3:atemp>
          </ns3:TrackPointExtension>
        </extensions>
      </trkpt>
      <trkpt lat="42.5152952782809734344482421875" lon="19.7696954570710659027099609375">
        <ele>1839.199951171875</ele>
        <time>2026-06-18T09:56:34.000Z</time>
        <extensions>
          <ns3:TrackPointExtension>
            <ns3:atemp>22.0</ns3:atemp>
          </ns3:TrackPointExtension>
        </extensions>
      </trkpt>
      <trkpt lat="42.5152952782809734344482421875" lon="19.7696954570710659027099609375">
        <ele>1839.4000244140625</ele>
        <time>2026-06-18T09:56:35.000Z</time>
        <extensions>
          <ns3:TrackPointExtension>
            <ns3:atemp>22.0</ns3:atemp>
          </ns3:TrackPointExtension>
        </extensions>
      </trkpt>
      <trkpt lat="42.51529586501419544219970703125" lon="19.769695959985256195068359375">
        <ele>1839.4000244140625</ele>
        <time>2026-06-18T09:56:36.000Z</time>
        <extensions>
          <ns3:TrackPointExtension>
            <ns3:atemp>22.0</ns3:atemp>
          </ns3:TrackPointExtension>
        </extensions>
      </trkpt>
      <trkpt lat="42.51529737375676631927490234375" lon="19.76970844902098178863525390625">
        <ele>1839.4000244140625</ele>
        <time>2026-06-18T09:56:37.000Z</time>
        <extensions>
          <ns3:TrackPointExtension>
            <ns3:atemp>22.0</ns3:atemp>
          </ns3:TrackPointExtension>
        </extensions>
      </trkpt>
      <trkpt lat="42.51529804430902004241943359375" lon="19.76972236298024654388427734375">
        <ele>1839.5999755859375</ele>
        <time>2026-06-18T09:56:38.000Z</time>
        <extensions>
          <ns3:TrackPointExtension>
            <ns3:atemp>22.0</ns3:atemp>
          </ns3:TrackPointExtension>
        </extensions>
      </trkpt>
      <trkpt lat="42.5152979604899883270263671875" lon="19.7697390429675579071044921875">
        <ele>1839.800048828125</ele>
        <time>2026-06-18T09:56:39.000Z</time>
        <extensions>
          <ns3:TrackPointExtension>
            <ns3:atemp>22.0</ns3:atemp>
          </ns3:TrackPointExtension>
        </extensions>
      </trkpt>
      <trkpt lat="42.515299133956432342529296875" lon="19.76975706405937671661376953125">
        <ele>1840.199951171875</ele>
        <time>2026-06-18T09:56:40.000Z</time>
        <extensions>
          <ns3:TrackPointExtension>
            <ns3:atemp>22.0</ns3:atemp>
          </ns3:TrackPointExtension>
        </extensions>
      </trkpt>
      <trkpt lat="42.515298463404178619384765625" lon="19.7697708941996097564697265625">
        <ele>1840.5999755859375</ele>
        <time>2026-06-18T09:56:41.000Z</time>
        <extensions>
          <ns3:TrackPointExtension>
            <ns3:atemp>22.0</ns3:atemp>
          </ns3:TrackPointExtension>
        </extensions>
      </trkpt>
      <trkpt lat="42.51529737375676631927490234375" lon="19.7697846405208110809326171875">
        <ele>1841</ele>
        <time>2026-06-18T09:56:42.000Z</time>
        <extensions>
          <ns3:TrackPointExtension>
            <ns3:atemp>22.0</ns3:atemp>
          </ns3:TrackPointExtension>
        </extensions>
      </trkpt>
      <trkpt lat="42.5152989663183689117431640625" lon="19.76980282925069332122802734375">
        <ele>1841.199951171875</ele>
        <time>2026-06-18T09:56:43.000Z</time>
        <extensions>
          <ns3:TrackPointExtension>
            <ns3:atemp>22.0</ns3:atemp>
          </ns3:TrackPointExtension>
        </extensions>
      </trkpt>
      <trkpt lat="42.51530089415609836578369140625" lon="19.7698205150663852691650390625">
        <ele>1841.4000244140625</ele>
        <time>2026-06-18T09:56:44.000Z</time>
        <extensions>
          <ns3:TrackPointExtension>
            <ns3:atemp>22.0</ns3:atemp>
          </ns3:TrackPointExtension>
        </extensions>
      </trkpt>
      <trkpt lat="42.5153036601841449737548828125" lon="19.76982780732214450836181640625">
        <ele>1841.5999755859375</ele>
        <time>2026-06-18T09:56:45.000Z</time>
        <extensions>
          <ns3:TrackPointExtension>
            <ns3:atemp>22.0</ns3:atemp>
          </ns3:TrackPointExtension>
        </extensions>
      </trkpt>
      <trkpt lat="42.51530357636511325836181640625" lon="19.76982613094151020050048828125">
        <ele>1841.800048828125</ele>
        <time>2026-06-18T09:56:46.000Z</time>
        <extensions>
          <ns3:TrackPointExtension>
            <ns3:atemp>22.0</ns3:atemp>
          </ns3:TrackPointExtension>
        </extensions>
      </trkpt>
      <trkpt lat="42.51530357636511325836181640625" lon="19.76982613094151020050048828125">
        <ele>1842</ele>
        <time>2026-06-18T09:56:47.000Z</time>
        <extensions>
          <ns3:TrackPointExtension>
            <ns3:atemp>22.0</ns3:atemp>
          </ns3:TrackPointExtension>
        </extensions>
      </trkpt>
      <trkpt lat="42.51530357636511325836181640625" lon="19.76982613094151020050048828125">
        <ele>1842.199951171875</ele>
        <time>2026-06-18T09:56:48.000Z</time>
        <extensions>
          <ns3:TrackPointExtension>
            <ns3:atemp>22.0</ns3:atemp>
          </ns3:TrackPointExtension>
        </extensions>
      </trkpt>
      <trkpt lat="42.51530357636511325836181640625" lon="19.76982613094151020050048828125">
        <ele>1842.199951171875</ele>
        <time>2026-06-18T09:56:49.000Z</time>
        <extensions>
          <ns3:TrackPointExtension>
            <ns3:atemp>22.0</ns3:atemp>
          </ns3:TrackPointExtension>
        </extensions>
      </trkpt>
      <trkpt lat="42.51530357636511325836181640625" lon="19.76982613094151020050048828125">
        <ele>1842.4000244140625</ele>
        <time>2026-06-18T09:56:50.000Z</time>
        <extensions>
          <ns3:TrackPointExtension>
            <ns3:atemp>22.0</ns3:atemp>
          </ns3:TrackPointExtension>
        </extensions>
      </trkpt>
      <trkpt lat="42.51530357636511325836181640625" lon="19.76982613094151020050048828125">
        <ele>1842.5999755859375</ele>
        <time>2026-06-18T09:56:51.000Z</time>
        <extensions>
          <ns3:TrackPointExtension>
            <ns3:atemp>22.0</ns3:atemp>
          </ns3:TrackPointExtension>
        </extensions>
      </trkpt>
      <trkpt lat="42.51530424691736698150634765625" lon="19.76982613094151020050048828125">
        <ele>1842.5999755859375</ele>
        <time>2026-06-18T09:56:52.000Z</time>
        <extensions>
          <ns3:TrackPointExtension>
            <ns3:atemp>22.0</ns3:atemp>
          </ns3:TrackPointExtension>
        </extensions>
      </trkpt>
      <trkpt lat="42.515311874449253082275390625" lon="19.76984323002398014068603515625">
        <ele>1842.4000244140625</ele>
        <time>2026-06-18T09:56:53.000Z</time>
        <extensions>
          <ns3:TrackPointExtension>
            <ns3:atemp>22.0</ns3:atemp>
          </ns3:TrackPointExtension>
        </extensions>
      </trkpt>
      <trkpt lat="42.5153194181621074676513671875" lon="19.76986016146838665008544921875">
        <ele>1842.199951171875</ele>
        <time>2026-06-18T09:56:54.000Z</time>
        <extensions>
          <ns3:TrackPointExtension>
            <ns3:atemp>22.0</ns3:atemp>
          </ns3:TrackPointExtension>
        </extensions>
      </trkpt>
      <trkpt lat="42.51532134599983692169189453125" lon="19.76987759582698345184326171875">
        <ele>1842.199951171875</ele>
        <time>2026-06-18T09:56:55.000Z</time>
        <extensions>
          <ns3:TrackPointExtension>
            <ns3:atemp>22.0</ns3:atemp>
          </ns3:TrackPointExtension>
        </extensions>
      </trkpt>
      <trkpt lat="42.51532218419015407562255859375" lon="19.76989452727138996124267578125">
        <ele>1842.199951171875</ele>
        <time>2026-06-18T09:56:56.000Z</time>
        <extensions>
          <ns3:TrackPointExtension>
            <ns3:atemp>22.0</ns3:atemp>
          </ns3:TrackPointExtension>
        </extensions>
      </trkpt>
      <trkpt lat="42.515318579971790313720703125" lon="19.769910871982574462890625">
        <ele>1842.4000244140625</ele>
        <time>2026-06-18T09:56:57.000Z</time>
        <extensions>
          <ns3:TrackPointExtension>
            <ns3:atemp>22.0</ns3:atemp>
          </ns3:TrackPointExtension>
        </extensions>
      </trkpt>
      <trkpt lat="42.515313886106014251708984375" lon="19.76992470212280750274658203125">
        <ele>1842.5999755859375</ele>
        <time>2026-06-18T09:56:58.000Z</time>
        <extensions>
          <ns3:TrackPointExtension>
            <ns3:atemp>22.0</ns3:atemp>
          </ns3:TrackPointExtension>
        </extensions>
      </trkpt>
      <trkpt lat="42.51530927605926990509033203125" lon="19.7699392028152942657470703125">
        <ele>1843</ele>
        <time>2026-06-18T09:56:59.000Z</time>
        <extensions>
          <ns3:TrackPointExtension>
            <ns3:atemp>22.0</ns3:atemp>
          </ns3:TrackPointExtension>
        </extensions>
      </trkpt>
      <trkpt lat="42.5153060071170330047607421875" lon="19.769950769841670989990234375">
        <ele>1843.4000244140625</ele>
        <time>2026-06-18T09:57:00.000Z</time>
        <extensions>
          <ns3:TrackPointExtension>
            <ns3:atemp>22.0</ns3:atemp>
          </ns3:TrackPointExtension>
        </extensions>
      </trkpt>
      <trkpt lat="42.5153043307363986968994140625" lon="19.76995521225035190582275390625">
        <ele>1843.800048828125</ele>
        <time>2026-06-18T09:57:01.000Z</time>
        <extensions>
          <ns3:TrackPointExtension>
            <ns3:atemp>22.0</ns3:atemp>
          </ns3:TrackPointExtension>
        </extensions>
      </trkpt>
      <trkpt lat="42.5153043307363986968994140625" lon="19.7699552960693836212158203125">
        <ele>1844</ele>
        <time>2026-06-18T09:57:02.000Z</time>
        <extensions>
          <ns3:TrackPointExtension>
            <ns3:atemp>22.0</ns3:atemp>
          </ns3:TrackPointExtension>
        </extensions>
      </trkpt>
      <trkpt lat="42.51530173234641551971435546875" lon="19.76996208541095256805419921875">
        <ele>1844.199951171875</ele>
        <time>2026-06-18T09:57:03.000Z</time>
        <extensions>
          <ns3:TrackPointExtension>
            <ns3:atemp>22.0</ns3:atemp>
          </ns3:TrackPointExtension>
        </extensions>
      </trkpt>
      <trkpt lat="42.51529955305159091949462890625" lon="19.76996845565736293792724609375">
        <ele>1844.4000244140625</ele>
        <time>2026-06-18T09:57:04.000Z</time>
        <extensions>
          <ns3:TrackPointExtension>
            <ns3:atemp>22.0</ns3:atemp>
          </ns3:TrackPointExtension>
        </extensions>
      </trkpt>
      <trkpt lat="42.51529955305159091949462890625" lon="19.76997264660894870758056640625">
        <ele>1844.5999755859375</ele>
        <time>2026-06-18T09:57:05.000Z</time>
        <extensions>
          <ns3:TrackPointExtension>
            <ns3:atemp>22.0</ns3:atemp>
          </ns3:TrackPointExtension>
        </extensions>
      </trkpt>
      <trkpt lat="42.51529703848063945770263671875" lon="19.76997801102697849273681640625">
        <ele>1844.800048828125</ele>
        <time>2026-06-18T09:57:06.000Z</time>
        <extensions>
          <ns3:TrackPointExtension>
            <ns3:atemp>22.0</ns3:atemp>
          </ns3:TrackPointExtension>
        </extensions>
      </trkpt>
      <trkpt lat="42.515295110642910003662109375" lon="19.769984968006610870361328125">
        <ele>1845</ele>
        <time>2026-06-18T09:57:07.000Z</time>
        <extensions>
          <ns3:TrackPointExtension>
            <ns3:atemp>22.0</ns3:atemp>
          </ns3:TrackPointExtension>
        </extensions>
      </trkpt>
      <trkpt lat="42.515293769538402557373046875" lon="19.7699858061969280242919921875">
        <ele>1845.199951171875</ele>
        <time>2026-06-18T09:57:08.000Z</time>
        <extensions>
          <ns3:TrackPointExtension>
            <ns3:atemp>22.0</ns3:atemp>
          </ns3:TrackPointExtension>
        </extensions>
      </trkpt>
      <trkpt lat="42.515293769538402557373046875" lon="19.7699858061969280242919921875">
        <ele>1845.4000244140625</ele>
        <time>2026-06-18T09:57:09.000Z</time>
        <extensions>
          <ns3:TrackPointExtension>
            <ns3:atemp>22.0</ns3:atemp>
          </ns3:TrackPointExtension>
        </extensions>
      </trkpt>
      <trkpt lat="42.515293769538402557373046875" lon="19.7699858061969280242919921875">
        <ele>1845.5999755859375</ele>
        <time>2026-06-18T09:57:10.000Z</time>
        <extensions>
          <ns3:TrackPointExtension>
            <ns3:atemp>22.0</ns3:atemp>
          </ns3:TrackPointExtension>
        </extensions>
      </trkpt>
      <trkpt lat="42.515293769538402557373046875" lon="19.7699858061969280242919921875">
        <ele>1845.800048828125</ele>
        <time>2026-06-18T09:57:11.000Z</time>
        <extensions>
          <ns3:TrackPointExtension>
            <ns3:atemp>22.0</ns3:atemp>
          </ns3:TrackPointExtension>
        </extensions>
      </trkpt>
      <trkpt lat="42.515293769538402557373046875" lon="19.7699858061969280242919921875">
        <ele>1845.800048828125</ele>
        <time>2026-06-18T09:57:12.000Z</time>
        <extensions>
          <ns3:TrackPointExtension>
            <ns3:atemp>22.0</ns3:atemp>
          </ns3:TrackPointExtension>
        </extensions>
      </trkpt>
      <trkpt lat="42.515293769538402557373046875" lon="19.7699858061969280242919921875">
        <ele>1845.5999755859375</ele>
        <time>2026-06-18T09:57:13.000Z</time>
        <extensions>
          <ns3:TrackPointExtension>
            <ns3:atemp>22.0</ns3:atemp>
          </ns3:TrackPointExtension>
        </extensions>
      </trkpt>
      <trkpt lat="42.515293769538402557373046875" lon="19.7699858061969280242919921875">
        <ele>1845.5999755859375</ele>
        <time>2026-06-18T09:57:14.000Z</time>
        <extensions>
          <ns3:TrackPointExtension>
            <ns3:atemp>22.0</ns3:atemp>
          </ns3:TrackPointExtension>
        </extensions>
      </trkpt>
      <trkpt lat="42.515293769538402557373046875" lon="19.7699858061969280242919921875">
        <ele>1845.4000244140625</ele>
        <time>2026-06-18T09:57:15.000Z</time>
        <extensions>
          <ns3:TrackPointExtension>
            <ns3:atemp>22.0</ns3:atemp>
          </ns3:TrackPointExtension>
        </extensions>
      </trkpt>
      <trkpt lat="42.515293769538402557373046875" lon="19.7699858061969280242919921875">
        <ele>1845.4000244140625</ele>
        <time>2026-06-18T09:57:16.000Z</time>
        <extensions>
          <ns3:TrackPointExtension>
            <ns3:atemp>22.0</ns3:atemp>
          </ns3:TrackPointExtension>
        </extensions>
      </trkpt>
      <trkpt lat="42.51529385335743427276611328125" lon="19.7699873149394989013671875">
        <ele>1845.4000244140625</ele>
        <time>2026-06-18T09:57:17.000Z</time>
        <extensions>
          <ns3:TrackPointExtension>
            <ns3:atemp>22.0</ns3:atemp>
          </ns3:TrackPointExtension>
        </extensions>
      </trkpt>
      <trkpt lat="42.51529335044324398040771484375" lon="19.770004414021968841552734375">
        <ele>1845.199951171875</ele>
        <time>2026-06-18T09:57:18.000Z</time>
        <extensions>
          <ns3:TrackPointExtension>
            <ns3:atemp>22.0</ns3:atemp>
          </ns3:TrackPointExtension>
        </extensions>
      </trkpt>
      <trkpt lat="42.515295110642910003662109375" lon="19.77001606486737728118896484375">
        <ele>1845</ele>
        <time>2026-06-18T09:57:19.000Z</time>
        <extensions>
          <ns3:TrackPointExtension>
            <ns3:atemp>22.0</ns3:atemp>
          </ns3:TrackPointExtension>
        </extensions>
      </trkpt>
      <trkpt lat="42.5152942724525928497314453125" lon="19.7700196690857410430908203125">
        <ele>1844.800048828125</ele>
        <time>2026-06-18T09:57:20.000Z</time>
        <extensions>
          <ns3:TrackPointExtension>
            <ns3:atemp>22.0</ns3:atemp>
          </ns3:TrackPointExtension>
        </extensions>
      </trkpt>
      <trkpt lat="42.51529452390968799591064453125" lon="19.770021848380565643310546875">
        <ele>1844.800048828125</ele>
        <time>2026-06-18T09:57:21.000Z</time>
        <extensions>
          <ns3:TrackPointExtension>
            <ns3:atemp>22.0</ns3:atemp>
          </ns3:TrackPointExtension>
        </extensions>
      </trkpt>
      <trkpt lat="42.51529670320451259613037109375" lon="19.77003266103565692901611328125">
        <ele>1844.5999755859375</ele>
        <time>2026-06-18T09:57:22.000Z</time>
        <extensions>
          <ns3:TrackPointExtension>
            <ns3:atemp>22.0</ns3:atemp>
          </ns3:TrackPointExtension>
        </extensions>
      </trkpt>
      <trkpt lat="42.51529821194708347320556640625" lon="19.7700498439371585845947265625">
        <ele>1844.5999755859375</ele>
        <time>2026-06-18T09:57:23.000Z</time>
        <extensions>
          <ns3:TrackPointExtension>
            <ns3:atemp>22.0</ns3:atemp>
          </ns3:TrackPointExtension>
        </extensions>
      </trkpt>
      <trkpt lat="42.51529720611870288848876953125" lon="19.77007356472313404083251953125">
        <ele>1844.800048828125</ele>
        <time>2026-06-18T09:57:24.000Z</time>
        <extensions>
          <ns3:TrackPointExtension>
            <ns3:atemp>22.0</ns3:atemp>
          </ns3:TrackPointExtension>
        </extensions>
      </trkpt>
      <trkpt lat="42.51529418863356113433837890625" lon="19.77010105736553668975830078125">
        <ele>1844.800048828125</ele>
        <time>2026-06-18T09:57:25.000Z</time>
        <extensions>
          <ns3:TrackPointExtension>
            <ns3:atemp>22.0</ns3:atemp>
          </ns3:TrackPointExtension>
        </extensions>
      </trkpt>
      <trkpt lat="42.5152932666242122650146484375" lon="19.7701294720172882080078125">
        <ele>1844.800048828125</ele>
        <time>2026-06-18T09:57:26.000Z</time>
        <extensions>
          <ns3:TrackPointExtension>
            <ns3:atemp>22.0</ns3:atemp>
          </ns3:TrackPointExtension>
        </extensions>
      </trkpt>
      <trkpt lat="42.5152952782809734344482421875" lon="19.77016023360192775726318359375">
        <ele>1844.800048828125</ele>
        <time>2026-06-18T09:57:27.000Z</time>
        <extensions>
          <ns3:TrackPointExtension>
            <ns3:atemp>22.0</ns3:atemp>
          </ns3:TrackPointExtension>
        </extensions>
      </trkpt>
      <trkpt lat="42.5152979604899883270263671875" lon="19.77019443176686763763427734375">
        <ele>1844.800048828125</ele>
        <time>2026-06-18T09:57:28.000Z</time>
        <extensions>
          <ns3:TrackPointExtension>
            <ns3:atemp>22.0</ns3:atemp>
          </ns3:TrackPointExtension>
        </extensions>
      </trkpt>
      <trkpt lat="42.51529418863356113433837890625" lon="19.77022041566669940948486328125">
        <ele>1844.800048828125</ele>
        <time>2026-06-18T09:57:29.000Z</time>
        <extensions>
          <ns3:TrackPointExtension>
            <ns3:atemp>22.0</ns3:atemp>
          </ns3:TrackPointExtension>
        </extensions>
      </trkpt>
      <trkpt lat="42.5152855552732944488525390625" lon="19.7702421247959136962890625">
        <ele>1844.5999755859375</ele>
        <time>2026-06-18T09:57:30.000Z</time>
        <extensions>
          <ns3:TrackPointExtension>
            <ns3:atemp>22.0</ns3:atemp>
          </ns3:TrackPointExtension>
        </extensions>
      </trkpt>
      <trkpt lat="42.5152753293514251708984375" lon="19.77026416920125484466552734375">
        <ele>1844.5999755859375</ele>
        <time>2026-06-18T09:57:31.000Z</time>
        <extensions>
          <ns3:TrackPointExtension>
            <ns3:atemp>22.0</ns3:atemp>
          </ns3:TrackPointExtension>
        </extensions>
      </trkpt>
      <trkpt lat="42.5152620859444141387939453125" lon="19.7702798433601856231689453125">
        <ele>1844.5999755859375</ele>
        <time>2026-06-18T09:57:32.000Z</time>
        <extensions>
          <ns3:TrackPointExtension>
            <ns3:atemp>22.0</ns3:atemp>
          </ns3:TrackPointExtension>
        </extensions>
      </trkpt>
      <trkpt lat="42.515251524746417999267578125" lon="19.77029551751911640167236328125">
        <ele>1844.800048828125</ele>
        <time>2026-06-18T09:57:33.000Z</time>
        <extensions>
          <ns3:TrackPointExtension>
            <ns3:atemp>22.0</ns3:atemp>
          </ns3:TrackPointExtension>
        </extensions>
      </trkpt>
      <trkpt lat="42.51524205319583415985107421875" lon="19.7703157179057598114013671875">
        <ele>1844.800048828125</ele>
        <time>2026-06-18T09:57:34.000Z</time>
        <extensions>
          <ns3:TrackPointExtension>
            <ns3:atemp>22.0</ns3:atemp>
          </ns3:TrackPointExtension>
        </extensions>
      </trkpt>
      <trkpt lat="42.5152298994362354278564453125" lon="19.77033776231110095977783203125">
        <ele>1845</ele>
        <time>2026-06-18T09:57:35.000Z</time>
        <extensions>
          <ns3:TrackPointExtension>
            <ns3:atemp>22.0</ns3:atemp>
          </ns3:TrackPointExtension>
        </extensions>
      </trkpt>
      <trkpt lat="42.515217326581478118896484375" lon="19.77035653777420520782470703125">
        <ele>1845</ele>
        <time>2026-06-18T09:57:36.000Z</time>
        <extensions>
          <ns3:TrackPointExtension>
            <ns3:atemp>22.0</ns3:atemp>
          </ns3:TrackPointExtension>
        </extensions>
      </trkpt>
      <trkpt lat="42.51520835794508457183837890625" lon="19.7703720442950725555419921875">
        <ele>1845.199951171875</ele>
        <time>2026-06-18T09:57:37.000Z</time>
        <extensions>
          <ns3:TrackPointExtension>
            <ns3:atemp>22.0</ns3:atemp>
          </ns3:TrackPointExtension>
        </extensions>
      </trkpt>
      <trkpt lat="42.51520182006061077117919921875" lon="19.77038486860692501068115234375">
        <ele>1845.199951171875</ele>
        <time>2026-06-18T09:57:38.000Z</time>
        <extensions>
          <ns3:TrackPointExtension>
            <ns3:atemp>22.0</ns3:atemp>
          </ns3:TrackPointExtension>
        </extensions>
      </trkpt>
      <trkpt lat="42.51519595272839069366455078125" lon="19.77039576508104801177978515625">
        <ele>1845.4000244140625</ele>
        <time>2026-06-18T09:57:39.000Z</time>
        <extensions>
          <ns3:TrackPointExtension>
            <ns3:atemp>22.0</ns3:atemp>
          </ns3:TrackPointExtension>
        </extensions>
      </trkpt>
      <trkpt lat="42.51518748700618743896484375" lon="19.7704132832586765289306640625">
        <ele>1845.4000244140625</ele>
        <time>2026-06-18T09:57:40.000Z</time>
        <extensions>
          <ns3:TrackPointExtension>
            <ns3:atemp>22.0</ns3:atemp>
          </ns3:TrackPointExtension>
        </extensions>
      </trkpt>
      <trkpt lat="42.51517985947430133819580078125" lon="19.77043096907436847686767578125">
        <ele>1845.5999755859375</ele>
        <time>2026-06-18T09:57:41.000Z</time>
        <extensions>
          <ns3:TrackPointExtension>
            <ns3:atemp>22.0</ns3:atemp>
          </ns3:TrackPointExtension>
        </extensions>
      </trkpt>
      <trkpt lat="42.5151698850095272064208984375" lon="19.77045142091810703277587890625">
        <ele>1845.5999755859375</ele>
        <time>2026-06-18T09:57:42.000Z</time>
        <extensions>
          <ns3:TrackPointExtension>
            <ns3:atemp>22.0</ns3:atemp>
          </ns3:TrackPointExtension>
        </extensions>
      </trkpt>
      <trkpt lat="42.515158988535404205322265625" lon="19.77047841064631938934326171875">
        <ele>1845.800048828125</ele>
        <time>2026-06-18T09:57:43.000Z</time>
        <extensions>
          <ns3:TrackPointExtension>
            <ns3:atemp>22.0</ns3:atemp>
          </ns3:TrackPointExtension>
        </extensions>
      </trkpt>
      <trkpt lat="42.51514884643256664276123046875" lon="19.7705038078129291534423828125">
        <ele>1845.800048828125</ele>
        <time>2026-06-18T09:57:44.000Z</time>
        <extensions>
          <ns3:TrackPointExtension>
            <ns3:atemp>22.0</ns3:atemp>
          </ns3:TrackPointExtension>
        </extensions>
      </trkpt>
      <trkpt lat="42.51514532603323459625244140625" lon="19.77052870206534862518310546875">
        <ele>1846</ele>
        <time>2026-06-18T09:57:45.000Z</time>
        <extensions>
          <ns3:TrackPointExtension>
            <ns3:atemp>22.0</ns3:atemp>
          </ns3:TrackPointExtension>
        </extensions>
      </trkpt>
      <trkpt lat="42.51514482311904430389404296875" lon="19.77055485360324382781982421875">
        <ele>1846</ele>
        <time>2026-06-18T09:57:46.000Z</time>
        <extensions>
          <ns3:TrackPointExtension>
            <ns3:atemp>22.0</ns3:atemp>
          </ns3:TrackPointExtension>
        </extensions>
      </trkpt>
      <trkpt lat="42.51514197327196598052978515625" lon="19.77058016695082187652587890625">
        <ele>1846.199951171875</ele>
        <time>2026-06-18T09:57:47.000Z</time>
        <extensions>
          <ns3:TrackPointExtension>
            <ns3:atemp>22.0</ns3:atemp>
          </ns3:TrackPointExtension>
        </extensions>
      </trkpt>
      <trkpt lat="42.51513845287263393402099609375" lon="19.77060263045132160186767578125">
        <ele>1846.4000244140625</ele>
        <time>2026-06-18T09:57:48.000Z</time>
        <extensions>
          <ns3:TrackPointExtension>
            <ns3:atemp>22.0</ns3:atemp>
          </ns3:TrackPointExtension>
        </extensions>
      </trkpt>
      <trkpt lat="42.51513442955911159515380859375" lon="19.770621992647647857666015625">
        <ele>1846.4000244140625</ele>
        <time>2026-06-18T09:57:49.000Z</time>
        <extensions>
          <ns3:TrackPointExtension>
            <ns3:atemp>22.0</ns3:atemp>
          </ns3:TrackPointExtension>
        </extensions>
      </trkpt>
      <trkpt lat="42.51512981951236724853515625" lon="19.7706417739391326904296875">
        <ele>1846.5999755859375</ele>
        <time>2026-06-18T09:57:50.000Z</time>
        <extensions>
          <ns3:TrackPointExtension>
            <ns3:atemp>22.0</ns3:atemp>
          </ns3:TrackPointExtension>
        </extensions>
      </trkpt>
      <trkpt lat="42.51512688584625720977783203125" lon="19.77066381834447383880615234375">
        <ele>1846.800048828125</ele>
        <time>2026-06-18T09:57:51.000Z</time>
        <extensions>
          <ns3:TrackPointExtension>
            <ns3:atemp>22.0</ns3:atemp>
          </ns3:TrackPointExtension>
        </extensions>
      </trkpt>
      <trkpt lat="42.515124790370464324951171875" lon="19.7706878744065761566162109375">
        <ele>1847</ele>
        <time>2026-06-18T09:57:52.000Z</time>
        <extensions>
          <ns3:TrackPointExtension>
            <ns3:atemp>22.0</ns3:atemp>
          </ns3:TrackPointExtension>
        </extensions>
      </trkpt>
      <trkpt lat="42.51512638293206691741943359375" lon="19.77071427740156650543212890625">
        <ele>1847.199951171875</ele>
        <time>2026-06-18T09:57:53.000Z</time>
        <extensions>
          <ns3:TrackPointExtension>
            <ns3:atemp>22.0</ns3:atemp>
          </ns3:TrackPointExtension>
        </extensions>
      </trkpt>
      <trkpt lat="42.5151333399116992950439453125" lon="19.77073363959789276123046875">
        <ele>1847.199951171875</ele>
        <time>2026-06-18T09:57:54.000Z</time>
        <extensions>
          <ns3:TrackPointExtension>
            <ns3:atemp>22.0</ns3:atemp>
          </ns3:TrackPointExtension>
        </extensions>
      </trkpt>
      <trkpt lat="42.51514063216745853424072265625" lon="19.77075107395648956298828125">
        <ele>1847.4000244140625</ele>
        <time>2026-06-18T09:57:55.000Z</time>
        <extensions>
          <ns3:TrackPointExtension>
            <ns3:atemp>22.0</ns3:atemp>
          </ns3:TrackPointExtension>
        </extensions>
      </trkpt>
      <trkpt lat="42.5151400454342365264892578125" lon="19.77076825685799121856689453125">
        <ele>1847.5999755859375</ele>
        <time>2026-06-18T09:57:56.000Z</time>
        <extensions>
          <ns3:TrackPointExtension>
            <ns3:atemp>22.0</ns3:atemp>
          </ns3:TrackPointExtension>
        </extensions>
      </trkpt>
      <trkpt lat="42.51514197327196598052978515625" lon="19.77078317664563655853271484375">
        <ele>1847.800048828125</ele>
        <time>2026-06-18T09:57:57.000Z</time>
        <extensions>
          <ns3:TrackPointExtension>
            <ns3:atemp>22.0</ns3:atemp>
          </ns3:TrackPointExtension>
        </extensions>
      </trkpt>
      <trkpt lat="42.51514549367129802703857421875" lon="19.77078619413077831268310546875">
        <ele>1847.800048828125</ele>
        <time>2026-06-18T09:57:58.000Z</time>
        <extensions>
          <ns3:TrackPointExtension>
            <ns3:atemp>22.0</ns3:atemp>
          </ns3:TrackPointExtension>
        </extensions>
      </trkpt>
      <trkpt lat="42.51514901407063007354736328125" lon="19.7707985155284404754638671875">
        <ele>1848</ele>
        <time>2026-06-18T09:57:59.000Z</time>
        <extensions>
          <ns3:TrackPointExtension>
            <ns3:atemp>22.0</ns3:atemp>
          </ns3:TrackPointExtension>
        </extensions>
      </trkpt>
      <trkpt lat="42.51516108401119709014892578125" lon="19.77081276476383209228515625">
        <ele>1848.199951171875</ele>
        <time>2026-06-18T09:58:00.000Z</time>
        <extensions>
          <ns3:TrackPointExtension>
            <ns3:atemp>22.0</ns3:atemp>
          </ns3:TrackPointExtension>
        </extensions>
      </trkpt>
      <trkpt lat="42.51517298631370067596435546875" lon="19.77083900012075901031494140625">
        <ele>1848</ele>
        <time>2026-06-18T09:58:01.000Z</time>
        <extensions>
          <ns3:TrackPointExtension>
            <ns3:atemp>22.0</ns3:atemp>
          </ns3:TrackPointExtension>
        </extensions>
      </trkpt>
      <trkpt lat="42.51517248339951038360595703125" lon="19.7708742879331111907958984375">
        <ele>1848</ele>
        <time>2026-06-18T09:58:02.000Z</time>
        <extensions>
          <ns3:TrackPointExtension>
            <ns3:atemp>22.0</ns3:atemp>
          </ns3:TrackPointExtension>
        </extensions>
      </trkpt>
      <trkpt lat="42.51517751254141330718994140625" lon="19.77090052329003810882568359375">
        <ele>1848.199951171875</ele>
        <time>2026-06-18T09:58:03.000Z</time>
        <extensions>
          <ns3:TrackPointExtension>
            <ns3:atemp>22.0</ns3:atemp>
          </ns3:TrackPointExtension>
        </extensions>
      </trkpt>
      <trkpt lat="42.51518220640718936920166015625" lon="19.77092248387634754180908203125">
        <ele>1848.199951171875</ele>
        <time>2026-06-18T09:58:04.000Z</time>
        <extensions>
          <ns3:TrackPointExtension>
            <ns3:atemp>22.0</ns3:atemp>
          </ns3:TrackPointExtension>
        </extensions>
      </trkpt>
      <trkpt lat="42.51519159413874149322509765625" lon="19.77094545029103755950927734375">
        <ele>1848</ele>
        <time>2026-06-18T09:58:05.000Z</time>
        <extensions>
          <ns3:TrackPointExtension>
            <ns3:atemp>22.0</ns3:atemp>
          </ns3:TrackPointExtension>
        </extensions>
      </trkpt>
      <trkpt lat="42.51519947312772274017333984375" lon="19.77097176946699619293212890625">
        <ele>1848.199951171875</ele>
        <time>2026-06-18T09:58:06.000Z</time>
        <extensions>
          <ns3:TrackPointExtension>
            <ns3:atemp>22.0</ns3:atemp>
          </ns3:TrackPointExtension>
        </extensions>
      </trkpt>
      <trkpt lat="42.51520919613540172576904296875" lon="19.77099725045263767242431640625">
        <ele>1848</ele>
        <time>2026-06-18T09:58:07.000Z</time>
        <extensions>
          <ns3:TrackPointExtension>
            <ns3:atemp>22.0</ns3:atemp>
          </ns3:TrackPointExtension>
        </extensions>
      </trkpt>
      <trkpt lat="42.515221349895000457763671875" lon="19.7710238210856914520263671875">
        <ele>1847.800048828125</ele>
        <time>2026-06-18T09:58:08.000Z</time>
        <extensions>
          <ns3:TrackPointExtension>
            <ns3:atemp>22.0</ns3:atemp>
          </ns3:TrackPointExtension>
        </extensions>
      </trkpt>
      <trkpt lat="42.51523836515843868255615234375" lon="19.77105357684195041656494140625">
        <ele>1847.5999755859375</ele>
        <time>2026-06-18T09:58:09.000Z</time>
        <extensions>
          <ns3:TrackPointExtension>
            <ns3:atemp>22.0</ns3:atemp>
          </ns3:TrackPointExtension>
        </extensions>
      </trkpt>
      <trkpt lat="42.51524473540484905242919921875" lon="19.771083332598209381103515625">
        <ele>1847.5999755859375</ele>
        <time>2026-06-18T09:58:10.000Z</time>
        <extensions>
          <ns3:TrackPointExtension>
            <ns3:atemp>22.0</ns3:atemp>
          </ns3:TrackPointExtension>
        </extensions>
      </trkpt>
      <trkpt lat="42.51524087972939014434814453125" lon="19.77110445499420166015625">
        <ele>1847.5999755859375</ele>
        <time>2026-06-18T09:58:11.000Z</time>
        <extensions>
          <ns3:TrackPointExtension>
            <ns3:atemp>22.0</ns3:atemp>
          </ns3:TrackPointExtension>
        </extensions>
      </trkpt>
      <trkpt lat="42.515239454805850982666015625" lon="19.77111912332475185394287109375">
        <ele>1847.5999755859375</ele>
        <time>2026-06-18T09:58:12.000Z</time>
        <extensions>
          <ns3:TrackPointExtension>
            <ns3:atemp>22.0</ns3:atemp>
          </ns3:TrackPointExtension>
        </extensions>
      </trkpt>
      <trkpt lat="42.5152436457574367523193359375" lon="19.77113957516849040985107421875">
        <ele>1847.800048828125</ele>
        <time>2026-06-18T09:58:13.000Z</time>
        <extensions>
          <ns3:TrackPointExtension>
            <ns3:atemp>22.0</ns3:atemp>
          </ns3:TrackPointExtension>
        </extensions>
      </trkpt>
      <trkpt lat="42.51525680534541606903076171875" lon="19.7711575962603092193603515625">
        <ele>1847.800048828125</ele>
        <time>2026-06-18T09:58:14.000Z</time>
        <extensions>
          <ns3:TrackPointExtension>
            <ns3:atemp>22.0</ns3:atemp>
          </ns3:TrackPointExtension>
        </extensions>
      </trkpt>
      <trkpt lat="42.51526183448731899261474609375" lon="19.7711743600666522979736328125">
        <ele>1847.800048828125</ele>
        <time>2026-06-18T09:58:15.000Z</time>
        <extensions>
          <ns3:TrackPointExtension>
            <ns3:atemp>22.0</ns3:atemp>
          </ns3:TrackPointExtension>
        </extensions>
      </trkpt>
      <trkpt lat="42.5152640976011753082275390625" lon="19.7711914591491222381591796875">
        <ele>1847.800048828125</ele>
        <time>2026-06-18T09:58:16.000Z</time>
        <extensions>
          <ns3:TrackPointExtension>
            <ns3:atemp>22.0</ns3:atemp>
          </ns3:TrackPointExtension>
        </extensions>
      </trkpt>
      <trkpt lat="42.51526334322988986968994140625" lon="19.77121233008801937103271484375">
        <ele>1847.800048828125</ele>
        <time>2026-06-18T09:58:17.000Z</time>
        <extensions>
          <ns3:TrackPointExtension>
            <ns3:atemp>22.0</ns3:atemp>
          </ns3:TrackPointExtension>
        </extensions>
      </trkpt>
      <trkpt lat="42.51526401378214359283447265625" lon="19.77124049328267574310302734375">
        <ele>1847.800048828125</ele>
        <time>2026-06-18T09:58:18.000Z</time>
        <extensions>
          <ns3:TrackPointExtension>
            <ns3:atemp>22.0</ns3:atemp>
          </ns3:TrackPointExtension>
        </extensions>
      </trkpt>
      <trkpt lat="42.51526602543890476226806640625" lon="19.77128039114177227020263671875">
        <ele>1847.5999755859375</ele>
        <time>2026-06-18T09:58:19.000Z</time>
        <extensions>
          <ns3:TrackPointExtension>
            <ns3:atemp>22.0</ns3:atemp>
          </ns3:TrackPointExtension>
        </extensions>
      </trkpt>
      <trkpt lat="42.5152761675417423248291015625" lon="19.77132800035178661346435546875">
        <ele>1847.4000244140625</ele>
        <time>2026-06-18T09:58:20.000Z</time>
        <extensions>
          <ns3:TrackPointExtension>
            <ns3:atemp>22.0</ns3:atemp>
          </ns3:TrackPointExtension>
        </extensions>
      </trkpt>
      <trkpt lat="42.51528815366327762603759765625" lon="19.771377705037593841552734375">
        <ele>1847.199951171875</ele>
        <time>2026-06-18T09:58:21.000Z</time>
        <extensions>
          <ns3:TrackPointExtension>
            <ns3:atemp>22.0</ns3:atemp>
          </ns3:TrackPointExtension>
        </extensions>
      </trkpt>
      <trkpt lat="42.51529234461486339569091796875" lon="19.77142640389502048492431640625">
        <ele>1847</ele>
        <time>2026-06-18T09:58:22.000Z</time>
        <extensions>
          <ns3:TrackPointExtension>
            <ns3:atemp>22.0</ns3:atemp>
          </ns3:TrackPointExtension>
        </extensions>
      </trkpt>
      <trkpt lat="42.51529770903289318084716796875" lon="19.77147619239985942840576171875">
        <ele>1846.800048828125</ele>
        <time>2026-06-18T09:58:23.000Z</time>
        <extensions>
          <ns3:TrackPointExtension>
            <ns3:atemp>22.0</ns3:atemp>
          </ns3:TrackPointExtension>
        </extensions>
      </trkpt>
      <trkpt lat="42.515307851135730743408203125" lon="19.77152631618082523345947265625">
        <ele>1846.5999755859375</ele>
        <time>2026-06-18T09:58:24.000Z</time>
        <extensions>
          <ns3:TrackPointExtension>
            <ns3:atemp>22.0</ns3:atemp>
          </ns3:TrackPointExtension>
        </extensions>
      </trkpt>
      <trkpt lat="42.51531849615275859832763671875" lon="19.7715751826763153076171875">
        <ele>1846.5999755859375</ele>
        <time>2026-06-18T09:58:25.000Z</time>
        <extensions>
          <ns3:TrackPointExtension>
            <ns3:atemp>22.0</ns3:atemp>
          </ns3:TrackPointExtension>
        </extensions>
      </trkpt>
      <trkpt lat="42.51532821916043758392333984375" lon="19.7716182656586170196533203125">
        <ele>1846.5999755859375</ele>
        <time>2026-06-18T09:58:26.000Z</time>
        <extensions>
          <ns3:TrackPointExtension>
            <ns3:atemp>22.0</ns3:atemp>
          </ns3:TrackPointExtension>
        </extensions>
      </trkpt>
      <trkpt lat="42.51533643342554569244384765625" lon="19.7716578282415866851806640625">
        <ele>1846.5999755859375</ele>
        <time>2026-06-18T09:58:27.000Z</time>
        <extensions>
          <ns3:TrackPointExtension>
            <ns3:atemp>22.0</ns3:atemp>
          </ns3:TrackPointExtension>
        </extensions>
      </trkpt>
      <trkpt lat="42.515343725681304931640625" lon="19.7716913558542728424072265625">
        <ele>1846.5999755859375</ele>
        <time>2026-06-18T09:58:28.000Z</time>
        <extensions>
          <ns3:TrackPointExtension>
            <ns3:atemp>22.0</ns3:atemp>
          </ns3:TrackPointExtension>
        </extensions>
      </trkpt>
      <trkpt lat="42.515349425375461578369140625" lon="19.77172412909567356109619140625">
        <ele>1846.4000244140625</ele>
        <time>2026-06-18T09:58:29.000Z</time>
        <extensions>
          <ns3:TrackPointExtension>
            <ns3:atemp>22.0</ns3:atemp>
          </ns3:TrackPointExtension>
        </extensions>
      </trkpt>
      <trkpt lat="42.51535420306026935577392578125" lon="19.7717587463557720184326171875">
        <ele>1846.4000244140625</ele>
        <time>2026-06-18T09:58:30.000Z</time>
        <extensions>
          <ns3:TrackPointExtension>
            <ns3:atemp>22.0</ns3:atemp>
          </ns3:TrackPointExtension>
        </extensions>
      </trkpt>
      <trkpt lat="42.5153562985360622406005859375" lon="19.7717939503490924835205078125">
        <ele>1846.5999755859375</ele>
        <time>2026-06-18T09:58:31.000Z</time>
        <extensions>
          <ns3:TrackPointExtension>
            <ns3:atemp>22.0</ns3:atemp>
          </ns3:TrackPointExtension>
        </extensions>
      </trkpt>
      <trkpt lat="42.51535939984023571014404296875" lon="19.77182923816144466400146484375">
        <ele>1846.5999755859375</ele>
        <time>2026-06-18T09:58:32.000Z</time>
        <extensions>
          <ns3:TrackPointExtension>
            <ns3:atemp>22.0</ns3:atemp>
          </ns3:TrackPointExtension>
        </extensions>
      </trkpt>
      <trkpt lat="42.5153616629540920257568359375" lon="19.77186259813606739044189453125">
        <ele>1846.5999755859375</ele>
        <time>2026-06-18T09:58:33.000Z</time>
        <extensions>
          <ns3:TrackPointExtension>
            <ns3:atemp>22.0</ns3:atemp>
          </ns3:TrackPointExtension>
        </extensions>
      </trkpt>
      <trkpt lat="42.5153613276779651641845703125" lon="19.7718921862542629241943359375">
        <ele>1846.800048828125</ele>
        <time>2026-06-18T09:58:34.000Z</time>
        <extensions>
          <ns3:TrackPointExtension>
            <ns3:atemp>22.0</ns3:atemp>
          </ns3:TrackPointExtension>
        </extensions>
      </trkpt>
      <trkpt lat="42.5153611600399017333984375" lon="19.77192051708698272705078125">
        <ele>1847</ele>
        <time>2026-06-18T09:58:35.000Z</time>
        <extensions>
          <ns3:TrackPointExtension>
            <ns3:atemp>22.0</ns3:atemp>
          </ns3:TrackPointExtension>
        </extensions>
      </trkpt>
      <trkpt lat="42.51535990275442600250244140625" lon="19.7719431482255458831787109375">
        <ele>1847.199951171875</ele>
        <time>2026-06-18T09:58:36.000Z</time>
        <extensions>
          <ns3:TrackPointExtension>
            <ns3:atemp>22.0</ns3:atemp>
          </ns3:TrackPointExtension>
        </extensions>
      </trkpt>
      <trkpt lat="42.51535537652671337127685546875" lon="19.7719642706215381622314453125">
        <ele>1847.4000244140625</ele>
        <time>2026-06-18T09:58:37.000Z</time>
        <extensions>
          <ns3:TrackPointExtension>
            <ns3:atemp>22.0</ns3:atemp>
          </ns3:TrackPointExtension>
        </extensions>
      </trkpt>
      <trkpt lat="42.5153509341180324554443359375" lon="19.77198631502687931060791015625">
        <ele>1847.5999755859375</ele>
        <time>2026-06-18T09:58:38.000Z</time>
        <extensions>
          <ns3:TrackPointExtension>
            <ns3:atemp>22.0</ns3:atemp>
          </ns3:TrackPointExtension>
        </extensions>
      </trkpt>
      <trkpt lat="42.51535286195576190948486328125" lon="19.77201162837445735931396484375">
        <ele>1847.800048828125</ele>
        <time>2026-06-18T09:58:39.000Z</time>
        <extensions>
          <ns3:TrackPointExtension>
            <ns3:atemp>22.0</ns3:atemp>
          </ns3:TrackPointExtension>
        </extensions>
      </trkpt>
      <trkpt lat="42.5153569690883159637451171875" lon="19.772042222321033477783203125">
        <ele>1848.199951171875</ele>
        <time>2026-06-18T09:58:40.000Z</time>
        <extensions>
          <ns3:TrackPointExtension>
            <ns3:atemp>22.0</ns3:atemp>
          </ns3:TrackPointExtension>
        </extensions>
      </trkpt>
      <trkpt lat="42.51535738818347454071044921875" lon="19.77207231335341930389404296875">
        <ele>1848.5999755859375</ele>
        <time>2026-06-18T09:58:41.000Z</time>
        <extensions>
          <ns3:TrackPointExtension>
            <ns3:atemp>22.0</ns3:atemp>
          </ns3:TrackPointExtension>
        </extensions>
      </trkpt>
      <trkpt lat="42.51535713672637939453125" lon="19.77209930308163166046142578125">
        <ele>1848.800048828125</ele>
        <time>2026-06-18T09:58:42.000Z</time>
        <extensions>
          <ns3:TrackPointExtension>
            <ns3:atemp>22.0</ns3:atemp>
          </ns3:TrackPointExtension>
        </extensions>
      </trkpt>
      <trkpt lat="42.5153532810509204864501953125" lon="19.7721241973340511322021484375">
        <ele>1849.199951171875</ele>
        <time>2026-06-18T09:58:43.000Z</time>
        <extensions>
          <ns3:TrackPointExtension>
            <ns3:atemp>22.0</ns3:atemp>
          </ns3:TrackPointExtension>
        </extensions>
      </trkpt>
      <trkpt lat="42.515348754823207855224609375" lon="19.77214925922453403472900390625">
        <ele>1849.5999755859375</ele>
        <time>2026-06-18T09:58:44.000Z</time>
        <extensions>
          <ns3:TrackPointExtension>
            <ns3:atemp>22.0</ns3:atemp>
          </ns3:TrackPointExtension>
        </extensions>
      </trkpt>
      <trkpt lat="42.51534950919449329376220703125" lon="19.7721738182008266448974609375">
        <ele>1849.800048828125</ele>
        <time>2026-06-18T09:58:45.000Z</time>
        <extensions>
          <ns3:TrackPointExtension>
            <ns3:atemp>22.0</ns3:atemp>
          </ns3:TrackPointExtension>
        </extensions>
      </trkpt>
      <trkpt lat="42.5153499282896518707275390625" lon="19.77219871245324611663818359375">
        <ele>1850.199951171875</ele>
        <time>2026-06-18T09:58:46.000Z</time>
        <extensions>
          <ns3:TrackPointExtension>
            <ns3:atemp>22.0</ns3:atemp>
          </ns3:TrackPointExtension>
        </extensions>
      </trkpt>
      <trkpt lat="42.51535319723188877105712890625" lon="19.77222268469631671905517578125">
        <ele>1850.5999755859375</ele>
        <time>2026-06-18T09:58:47.000Z</time>
        <extensions>
          <ns3:TrackPointExtension>
            <ns3:atemp>22.0</ns3:atemp>
          </ns3:TrackPointExtension>
        </extensions>
      </trkpt>
      <trkpt lat="42.51535386778414249420166015625" lon="19.77224640548229217529296875">
        <ele>1850.800048828125</ele>
        <time>2026-06-18T09:58:48.000Z</time>
        <extensions>
          <ns3:TrackPointExtension>
            <ns3:atemp>22.0</ns3:atemp>
          </ns3:TrackPointExtension>
        </extensions>
      </trkpt>
      <trkpt lat="42.51535336486995220184326171875" lon="19.772270880639553070068359375">
        <ele>1851.199951171875</ele>
        <time>2026-06-18T09:58:49.000Z</time>
        <extensions>
          <ns3:TrackPointExtension>
            <ns3:atemp>22.0</ns3:atemp>
          </ns3:TrackPointExtension>
        </extensions>
      </trkpt>
      <trkpt lat="42.51534816808998584747314453125" lon="19.77229879237711429595947265625">
        <ele>1851.5999755859375</ele>
        <time>2026-06-18T09:58:50.000Z</time>
        <extensions>
          <ns3:TrackPointExtension>
            <ns3:atemp>22.0</ns3:atemp>
          </ns3:TrackPointExtension>
        </extensions>
      </trkpt>
      <trkpt lat="42.51534313894808292388916015625" lon="19.7723235189914703369140625">
        <ele>1852.199951171875</ele>
        <time>2026-06-18T09:58:51.000Z</time>
        <extensions>
          <ns3:TrackPointExtension>
            <ns3:atemp>22.0</ns3:atemp>
          </ns3:TrackPointExtension>
        </extensions>
      </trkpt>
      <trkpt lat="42.5153385289013385772705078125" lon="19.77235101163387298583984375">
        <ele>1852.800048828125</ele>
        <time>2026-06-18T09:58:52.000Z</time>
        <extensions>
          <ns3:TrackPointExtension>
            <ns3:atemp>22.0</ns3:atemp>
          </ns3:TrackPointExtension>
        </extensions>
      </trkpt>
      <trkpt lat="42.5153301469981670379638671875" lon="19.77237640880048274993896484375">
        <ele>1853.199951171875</ele>
        <time>2026-06-18T09:58:53.000Z</time>
        <extensions>
          <ns3:TrackPointExtension>
            <ns3:atemp>22.0</ns3:atemp>
          </ns3:TrackPointExtension>
        </extensions>
      </trkpt>
      <trkpt lat="42.5153251178562641143798828125" lon="19.77239836938679218292236328125">
        <ele>1853.800048828125</ele>
        <time>2026-06-18T09:58:54.000Z</time>
        <extensions>
          <ns3:TrackPointExtension>
            <ns3:atemp>22.0</ns3:atemp>
          </ns3:TrackPointExtension>
        </extensions>
      </trkpt>
      <trkpt lat="42.5153274647891521453857421875" lon="19.7724209167063236236572265625">
        <ele>1854.4000244140625</ele>
        <time>2026-06-18T09:58:55.000Z</time>
        <extensions>
          <ns3:TrackPointExtension>
            <ns3:atemp>22.0</ns3:atemp>
          </ns3:TrackPointExtension>
        </extensions>
      </trkpt>
      <trkpt lat="42.51533098518848419189453125" lon="19.77244614623486995697021484375">
        <ele>1854.800048828125</ele>
        <time>2026-06-18T09:58:56.000Z</time>
        <extensions>
          <ns3:TrackPointExtension>
            <ns3:atemp>22.0</ns3:atemp>
          </ns3:TrackPointExtension>
        </extensions>
      </trkpt>
      <trkpt lat="42.515334673225879669189453125" lon="19.77247213013470172882080078125">
        <ele>1855.199951171875</ele>
        <time>2026-06-18T09:58:57.000Z</time>
        <extensions>
          <ns3:TrackPointExtension>
            <ns3:atemp>22.0</ns3:atemp>
          </ns3:TrackPointExtension>
        </extensions>
      </trkpt>
      <trkpt lat="42.51533391885459423065185546875" lon="19.77249694056808948516845703125">
        <ele>1855.5999755859375</ele>
        <time>2026-06-18T09:58:58.000Z</time>
        <extensions>
          <ns3:TrackPointExtension>
            <ns3:atemp>22.0</ns3:atemp>
          </ns3:TrackPointExtension>
        </extensions>
      </trkpt>
      <trkpt lat="42.51532562077045440673828125" lon="19.77251923643052577972412109375">
        <ele>1855.800048828125</ele>
        <time>2026-06-18T09:58:59.000Z</time>
        <extensions>
          <ns3:TrackPointExtension>
            <ns3:atemp>22.0</ns3:atemp>
          </ns3:TrackPointExtension>
        </extensions>
      </trkpt>
      <trkpt lat="42.5153153948485851287841796875" lon="19.77253734134137630462646484375">
        <ele>1856.199951171875</ele>
        <time>2026-06-18T09:59:00.000Z</time>
        <extensions>
          <ns3:TrackPointExtension>
            <ns3:atemp>22.0</ns3:atemp>
          </ns3:TrackPointExtension>
        </extensions>
      </trkpt>
      <trkpt lat="42.5152966193854808807373046875" lon="19.77254941128194332122802734375">
        <ele>1856.5999755859375</ele>
        <time>2026-06-18T09:59:01.000Z</time>
        <extensions>
          <ns3:TrackPointExtension>
            <ns3:atemp>22.0</ns3:atemp>
          </ns3:TrackPointExtension>
        </extensions>
      </trkpt>
      <trkpt lat="42.5152805261313915252685546875" lon="19.7725488245487213134765625">
        <ele>1857.199951171875</ele>
        <time>2026-06-18T09:59:02.000Z</time>
        <extensions>
          <ns3:TrackPointExtension>
            <ns3:atemp>22.0</ns3:atemp>
          </ns3:TrackPointExtension>
        </extensions>
      </trkpt>
      <trkpt lat="42.5152687914669513702392578125" lon="19.7725354135036468505859375">
        <ele>1857.5999755859375</ele>
        <time>2026-06-18T09:59:03.000Z</time>
        <extensions>
          <ns3:TrackPointExtension>
            <ns3:atemp>22.0</ns3:atemp>
          </ns3:TrackPointExtension>
        </extensions>
      </trkpt>
      <trkpt lat="42.515251524746417999267578125" lon="19.77252661250531673431396484375">
        <ele>1858.199951171875</ele>
        <time>2026-06-18T09:59:04.000Z</time>
        <extensions>
          <ns3:TrackPointExtension>
            <ns3:atemp>22.0</ns3:atemp>
          </ns3:TrackPointExtension>
        </extensions>
      </trkpt>
      <trkpt lat="42.51523308455944061279296875" lon="19.7725261934101581573486328125">
        <ele>1858.5999755859375</ele>
        <time>2026-06-18T09:59:05.000Z</time>
        <extensions>
          <ns3:TrackPointExtension>
            <ns3:atemp>22.0</ns3:atemp>
          </ns3:TrackPointExtension>
        </extensions>
      </trkpt>
      <trkpt lat="42.51522042788565158843994140625" lon="19.77253667078912258148193359375">
        <ele>1859.199951171875</ele>
        <time>2026-06-18T09:59:06.000Z</time>
        <extensions>
          <ns3:TrackPointExtension>
            <ns3:atemp>22.0</ns3:atemp>
          </ns3:TrackPointExtension>
        </extensions>
      </trkpt>
      <trkpt lat="42.5152067653834819793701171875" lon="19.77255427278578281402587890625">
        <ele>1859.800048828125</ele>
        <time>2026-06-18T09:59:07.000Z</time>
        <extensions>
          <ns3:TrackPointExtension>
            <ns3:atemp>22.0</ns3:atemp>
          </ns3:TrackPointExtension>
        </extensions>
      </trkpt>
      <trkpt lat="42.51519813202321529388427734375" lon="19.77257505990564823150634765625">
        <ele>1860</ele>
        <time>2026-06-18T09:59:08.000Z</time>
        <extensions>
          <ns3:TrackPointExtension>
            <ns3:atemp>22.0</ns3:atemp>
          </ns3:TrackPointExtension>
        </extensions>
      </trkpt>
      <trkpt lat="42.51518488861620426177978515625" lon="19.7725982777774333953857421875">
        <ele>1860.199951171875</ele>
        <time>2026-06-18T09:59:09.000Z</time>
        <extensions>
          <ns3:TrackPointExtension>
            <ns3:atemp>22.0</ns3:atemp>
          </ns3:TrackPointExtension>
        </extensions>
      </trkpt>
      <trkpt lat="42.515171729028224945068359375" lon="19.77261864580214023590087890625">
        <ele>1860.4000244140625</ele>
        <time>2026-06-18T09:59:10.000Z</time>
        <extensions>
          <ns3:TrackPointExtension>
            <ns3:atemp>22.0</ns3:atemp>
          </ns3:TrackPointExtension>
        </extensions>
      </trkpt>
      <trkpt lat="42.5151626765727996826171875" lon="19.7726505808532238006591796875">
        <ele>1860.4000244140625</ele>
        <time>2026-06-18T09:59:11.000Z</time>
        <extensions>
          <ns3:TrackPointExtension>
            <ns3:atemp>22.0</ns3:atemp>
          </ns3:TrackPointExtension>
        </extensions>
      </trkpt>
      <trkpt lat="42.51516175456345081329345703125" lon="19.77268838323652744293212890625">
        <ele>1860.199951171875</ele>
        <time>2026-06-18T09:59:12.000Z</time>
        <extensions>
          <ns3:TrackPointExtension>
            <ns3:atemp>22.0</ns3:atemp>
          </ns3:TrackPointExtension>
        </extensions>
      </trkpt>
      <trkpt lat="42.51516309566795825958251953125" lon="19.772724173963069915771484375">
        <ele>1860</ele>
        <time>2026-06-18T09:59:13.000Z</time>
        <extensions>
          <ns3:TrackPointExtension>
            <ns3:atemp>22.0</ns3:atemp>
          </ns3:TrackPointExtension>
        </extensions>
      </trkpt>
      <trkpt lat="42.5151546299457550048828125" lon="19.77275946177542209625244140625">
        <ele>1859.5999755859375</ele>
        <time>2026-06-18T09:59:14.000Z</time>
        <extensions>
          <ns3:TrackPointExtension>
            <ns3:atemp>22.0</ns3:atemp>
          </ns3:TrackPointExtension>
        </extensions>
      </trkpt>
      <trkpt lat="42.51513811759650707244873046875" lon="19.7727877087891101837158203125">
        <ele>1859.4000244140625</ele>
        <time>2026-06-18T09:59:15.000Z</time>
        <extensions>
          <ns3:TrackPointExtension>
            <ns3:atemp>22.0</ns3:atemp>
          </ns3:TrackPointExtension>
        </extensions>
      </trkpt>
      <trkpt lat="42.51512018032371997833251953125" lon="19.77281830273568630218505859375">
        <ele>1859.199951171875</ele>
        <time>2026-06-18T09:59:16.000Z</time>
        <extensions>
          <ns3:TrackPointExtension>
            <ns3:atemp>22.0</ns3:atemp>
          </ns3:TrackPointExtension>
        </extensions>
      </trkpt>
      <trkpt lat="42.51509687863290309906005859375" lon="19.7728480584919452667236328125">
        <ele>1858.5999755859375</ele>
        <time>2026-06-18T09:59:17.000Z</time>
        <extensions>
          <ns3:TrackPointExtension>
            <ns3:atemp>22.0</ns3:atemp>
          </ns3:TrackPointExtension>
        </extensions>
      </trkpt>
      <trkpt lat="42.51507156528532505035400390625" lon="19.77286423556506633758544921875">
        <ele>1858.199951171875</ele>
        <time>2026-06-18T09:59:18.000Z</time>
        <extensions>
          <ns3:TrackPointExtension>
            <ns3:atemp>21.0</ns3:atemp>
          </ns3:TrackPointExtension>
        </extensions>
      </trkpt>
      <trkpt lat="42.51506100408732891082763671875" lon="19.77288753725588321685791015625">
        <ele>1857.800048828125</ele>
        <time>2026-06-18T09:59:19.000Z</time>
        <extensions>
          <ns3:TrackPointExtension>
            <ns3:atemp>22.0</ns3:atemp>
          </ns3:TrackPointExtension>
        </extensions>
      </trkpt>
      <trkpt lat="42.515044324100017547607421875" lon="19.77291720919311046600341796875">
        <ele>1857.199951171875</ele>
        <time>2026-06-18T09:59:20.000Z</time>
        <extensions>
          <ns3:TrackPointExtension>
            <ns3:atemp>22.0</ns3:atemp>
          </ns3:TrackPointExtension>
        </extensions>
      </trkpt>
      <trkpt lat="42.51502127386629581451416015625" lon="19.77292844094336032867431640625">
        <ele>1856.800048828125</ele>
        <time>2026-06-18T09:59:21.000Z</time>
        <extensions>
          <ns3:TrackPointExtension>
            <ns3:atemp>21.0</ns3:atemp>
          </ns3:TrackPointExtension>
        </extensions>
      </trkpt>
      <trkpt lat="42.51500182785093784332275390625" lon="19.7729302011430263519287109375">
        <ele>1856.4000244140625</ele>
        <time>2026-06-18T09:59:22.000Z</time>
        <extensions>
          <ns3:TrackPointExtension>
            <ns3:atemp>21.0</ns3:atemp>
          </ns3:TrackPointExtension>
        </extensions>
      </trkpt>
      <trkpt lat="42.51498439349234104156494140625" lon="19.772926010191440582275390625">
        <ele>1856</ele>
        <time>2026-06-18T09:59:23.000Z</time>
        <extensions>
          <ns3:TrackPointExtension>
            <ns3:atemp>21.0</ns3:atemp>
          </ns3:TrackPointExtension>
        </extensions>
      </trkpt>
      <trkpt lat="42.51496964134275913238525390625" lon="19.77292056195437908172607421875">
        <ele>1855.800048828125</ele>
        <time>2026-06-18T09:59:24.000Z</time>
        <extensions>
          <ns3:TrackPointExtension>
            <ns3:atemp>21.0</ns3:atemp>
          </ns3:TrackPointExtension>
        </extensions>
      </trkpt>
      <trkpt lat="42.51495623029768466949462890625" lon="19.77291787974536418914794921875">
        <ele>1855.5999755859375</ele>
        <time>2026-06-18T09:59:25.000Z</time>
        <extensions>
          <ns3:TrackPointExtension>
            <ns3:atemp>21.0</ns3:atemp>
          </ns3:TrackPointExtension>
        </extensions>
      </trkpt>
      <trkpt lat="42.5149532966315746307373046875" lon="19.77292877621948719024658203125">
        <ele>1855.5999755859375</ele>
        <time>2026-06-18T09:59:26.000Z</time>
        <extensions>
          <ns3:TrackPointExtension>
            <ns3:atemp>21.0</ns3:atemp>
          </ns3:TrackPointExtension>
        </extensions>
      </trkpt>
      <trkpt lat="42.51495270989835262298583984375" lon="19.77292659692466259002685546875">
        <ele>1855.4000244140625</ele>
        <time>2026-06-18T09:59:27.000Z</time>
        <extensions>
          <ns3:TrackPointExtension>
            <ns3:atemp>21.0</ns3:atemp>
          </ns3:TrackPointExtension>
        </extensions>
      </trkpt>
      <trkpt lat="42.5149455852806568145751953125" lon="19.772917293012142181396484375">
        <ele>1855.4000244140625</ele>
        <time>2026-06-18T09:59:28.000Z</time>
        <extensions>
          <ns3:TrackPointExtension>
            <ns3:atemp>21.0</ns3:atemp>
          </ns3:TrackPointExtension>
        </extensions>
      </trkpt>
      <trkpt lat="42.51493996940553188323974609375" lon="19.7729077376425266265869140625">
        <ele>1855.199951171875</ele>
        <time>2026-06-18T09:59:29.000Z</time>
        <extensions>
          <ns3:TrackPointExtension>
            <ns3:atemp>21.0</ns3:atemp>
          </ns3:TrackPointExtension>
        </extensions>
      </trkpt>
      <trkpt lat="42.5149368681013584136962890625" lon="19.77290363050997257232666015625">
        <ele>1855.199951171875</ele>
        <time>2026-06-18T09:59:30.000Z</time>
        <extensions>
          <ns3:TrackPointExtension>
            <ns3:atemp>21.0</ns3:atemp>
          </ns3:TrackPointExtension>
        </extensions>
      </trkpt>
      <trkpt lat="42.5149368681013584136962890625" lon="19.7729037143290042877197265625">
        <ele>1855</ele>
        <time>2026-06-18T09:59:31.000Z</time>
        <extensions>
          <ns3:TrackPointExtension>
            <ns3:atemp>21.0</ns3:atemp>
          </ns3:TrackPointExtension>
        </extensions>
      </trkpt>
      <trkpt lat="42.5149368681013584136962890625" lon="19.7729037143290042877197265625">
        <ele>1855</ele>
        <time>2026-06-18T09:59:32.000Z</time>
        <extensions>
          <ns3:TrackPointExtension>
            <ns3:atemp>21.0</ns3:atemp>
          </ns3:TrackPointExtension>
        </extensions>
      </trkpt>
      <trkpt lat="42.5149368681013584136962890625" lon="19.7729037143290042877197265625">
        <ele>1855</ele>
        <time>2026-06-18T09:59:33.000Z</time>
        <extensions>
          <ns3:TrackPointExtension>
            <ns3:atemp>21.0</ns3:atemp>
          </ns3:TrackPointExtension>
        </extensions>
      </trkpt>
      <trkpt lat="42.5149365328252315521240234375" lon="19.7729037143290042877197265625">
        <ele>1855</ele>
        <time>2026-06-18T09:59:34.000Z</time>
        <extensions>
          <ns3:TrackPointExtension>
            <ns3:atemp>21.0</ns3:atemp>
          </ns3:TrackPointExtension>
        </extensions>
      </trkpt>
      <trkpt lat="42.5149132311344146728515625" lon="19.77290354669094085693359375">
        <ele>1855</ele>
        <time>2026-06-18T09:59:35.000Z</time>
        <extensions>
          <ns3:TrackPointExtension>
            <ns3:atemp>21.0</ns3:atemp>
          </ns3:TrackPointExtension>
        </extensions>
      </trkpt>
      <trkpt lat="42.51490174792706966400146484375" lon="19.77290648035705089569091796875">
        <ele>1854.800048828125</ele>
        <time>2026-06-18T09:59:36.000Z</time>
        <extensions>
          <ns3:TrackPointExtension>
            <ns3:atemp>21.0</ns3:atemp>
          </ns3:TrackPointExtension>
        </extensions>
      </trkpt>
      <trkpt lat="42.51489001326262950897216796875" lon="19.7729074023663997650146484375">
        <ele>1854.800048828125</ele>
        <time>2026-06-18T09:59:37.000Z</time>
        <extensions>
          <ns3:TrackPointExtension>
            <ns3:atemp>21.0</ns3:atemp>
          </ns3:TrackPointExtension>
        </extensions>
      </trkpt>
      <trkpt lat="42.514890097081661224365234375" lon="19.77290949784219264984130859375">
        <ele>1854.5999755859375</ele>
        <time>2026-06-18T09:59:38.000Z</time>
        <extensions>
          <ns3:TrackPointExtension>
            <ns3:atemp>21.0</ns3:atemp>
          </ns3:TrackPointExtension>
        </extensions>
      </trkpt>
      <trkpt lat="42.514890097081661224365234375" lon="19.77290949784219264984130859375">
        <ele>1854.5999755859375</ele>
        <time>2026-06-18T09:59:39.000Z</time>
        <extensions>
          <ns3:TrackPointExtension>
            <ns3:atemp>21.0</ns3:atemp>
          </ns3:TrackPointExtension>
        </extensions>
      </trkpt>
      <trkpt lat="42.514890097081661224365234375" lon="19.77290949784219264984130859375">
        <ele>1854.4000244140625</ele>
        <time>2026-06-18T09:59:40.000Z</time>
        <extensions>
          <ns3:TrackPointExtension>
            <ns3:atemp>21.0</ns3:atemp>
          </ns3:TrackPointExtension>
        </extensions>
      </trkpt>
      <trkpt lat="42.5148838944733142852783203125" lon="19.7729082405567169189453125">
        <ele>1854.199951171875</ele>
        <time>2026-06-18T09:59:41.000Z</time>
        <extensions>
          <ns3:TrackPointExtension>
            <ns3:atemp>21.0</ns3:atemp>
          </ns3:TrackPointExtension>
        </extensions>
      </trkpt>
      <trkpt lat="42.514874674379825592041015625" lon="19.77291150949895381927490234375">
        <ele>1854</ele>
        <time>2026-06-18T09:59:42.000Z</time>
        <extensions>
          <ns3:TrackPointExtension>
            <ns3:atemp>21.0</ns3:atemp>
          </ns3:TrackPointExtension>
        </extensions>
      </trkpt>
      <trkpt lat="42.51486453227698802947998046875" lon="19.7729104198515415191650390625">
        <ele>1853.800048828125</ele>
        <time>2026-06-18T09:59:43.000Z</time>
        <extensions>
          <ns3:TrackPointExtension>
            <ns3:atemp>21.0</ns3:atemp>
          </ns3:TrackPointExtension>
        </extensions>
      </trkpt>
      <trkpt lat="42.5148553960025310516357421875" lon="19.772904552519321441650390625">
        <ele>1853.5999755859375</ele>
        <time>2026-06-18T09:59:44.000Z</time>
        <extensions>
          <ns3:TrackPointExtension>
            <ns3:atemp>21.0</ns3:atemp>
          </ns3:TrackPointExtension>
        </extensions>
      </trkpt>
      <trkpt lat="42.51485330052673816680908203125" lon="19.772903211414813995361328125">
        <ele>1853.4000244140625</ele>
        <time>2026-06-18T09:59:45.000Z</time>
        <extensions>
          <ns3:TrackPointExtension>
            <ns3:atemp>21.0</ns3:atemp>
          </ns3:TrackPointExtension>
        </extensions>
      </trkpt>
      <trkpt lat="42.51485330052673816680908203125" lon="19.77290312759578227996826171875">
        <ele>1853.199951171875</ele>
        <time>2026-06-18T09:59:46.000Z</time>
        <extensions>
          <ns3:TrackPointExtension>
            <ns3:atemp>21.0</ns3:atemp>
          </ns3:TrackPointExtension>
        </extensions>
      </trkpt>
      <trkpt lat="42.51485330052673816680908203125" lon="19.7729030437767505645751953125">
        <ele>1853</ele>
        <time>2026-06-18T09:59:47.000Z</time>
        <extensions>
          <ns3:TrackPointExtension>
            <ns3:atemp>21.0</ns3:atemp>
          </ns3:TrackPointExtension>
        </extensions>
      </trkpt>
      <trkpt lat="42.514841817319393157958984375" lon="19.7728976793587207794189453125">
        <ele>1853</ele>
        <time>2026-06-18T09:59:48.000Z</time>
        <extensions>
          <ns3:TrackPointExtension>
            <ns3:atemp>21.0</ns3:atemp>
          </ns3:TrackPointExtension>
        </extensions>
      </trkpt>
      <trkpt lat="42.51482698135077953338623046875" lon="19.7728916443884372711181640625">
        <ele>1852.800048828125</ele>
        <time>2026-06-18T09:59:49.000Z</time>
        <extensions>
          <ns3:TrackPointExtension>
            <ns3:atemp>21.0</ns3:atemp>
          </ns3:TrackPointExtension>
        </extensions>
      </trkpt>
      <trkpt lat="42.51480393111705780029296875" lon="19.7728889621794223785400390625">
        <ele>1852.800048828125</ele>
        <time>2026-06-18T09:59:50.000Z</time>
        <extensions>
          <ns3:TrackPointExtension>
            <ns3:atemp>21.0</ns3:atemp>
          </ns3:TrackPointExtension>
        </extensions>
      </trkpt>
      <trkpt lat="42.5147823058068752288818359375" lon="19.7728909738361835479736328125">
        <ele>1852.800048828125</ele>
        <time>2026-06-18T09:59:51.000Z</time>
        <extensions>
          <ns3:TrackPointExtension>
            <ns3:atemp>21.0</ns3:atemp>
          </ns3:TrackPointExtension>
        </extensions>
      </trkpt>
      <trkpt lat="42.51477576792240142822265625" lon="19.77288418449461460113525390625">
        <ele>1853</ele>
        <time>2026-06-18T09:59:52.000Z</time>
        <extensions>
          <ns3:TrackPointExtension>
            <ns3:atemp>21.0</ns3:atemp>
          </ns3:TrackPointExtension>
        </extensions>
      </trkpt>
      <trkpt lat="42.5147692300379276275634765625" lon="19.77288745343685150146484375">
        <ele>1853</ele>
        <time>2026-06-18T09:59:53.000Z</time>
        <extensions>
          <ns3:TrackPointExtension>
            <ns3:atemp>21.0</ns3:atemp>
          </ns3:TrackPointExtension>
        </extensions>
      </trkpt>
      <trkpt lat="42.5147692300379276275634765625" lon="19.77288753725588321685791015625">
        <ele>1853.199951171875</ele>
        <time>2026-06-18T09:59:54.000Z</time>
        <extensions>
          <ns3:TrackPointExtension>
            <ns3:atemp>21.0</ns3:atemp>
          </ns3:TrackPointExtension>
        </extensions>
      </trkpt>
      <trkpt lat="42.5147692300379276275634765625" lon="19.77288753725588321685791015625">
        <ele>1853.4000244140625</ele>
        <time>2026-06-18T09:59:55.000Z</time>
        <extensions>
          <ns3:TrackPointExtension>
            <ns3:atemp>21.0</ns3:atemp>
          </ns3:TrackPointExtension>
        </extensions>
      </trkpt>
      <trkpt lat="42.5147692300379276275634765625" lon="19.77288753725588321685791015625">
        <ele>1853.5999755859375</ele>
        <time>2026-06-18T09:59:56.000Z</time>
        <extensions>
          <ns3:TrackPointExtension>
            <ns3:atemp>21.0</ns3:atemp>
          </ns3:TrackPointExtension>
        </extensions>
      </trkpt>
      <trkpt lat="42.514769397675991058349609375" lon="19.7728879563510417938232421875">
        <ele>1853.5999755859375</ele>
        <time>2026-06-18T09:59:57.000Z</time>
        <extensions>
          <ns3:TrackPointExtension>
            <ns3:atemp>21.0</ns3:atemp>
          </ns3:TrackPointExtension>
        </extensions>
      </trkpt>
      <trkpt lat="42.5147692300379276275634765625" lon="19.77288753725588321685791015625">
        <ele>1853.5999755859375</ele>
        <time>2026-06-18T09:59:58.000Z</time>
        <extensions>
          <ns3:TrackPointExtension>
            <ns3:atemp>21.0</ns3:atemp>
          </ns3:TrackPointExtension>
        </extensions>
      </trkpt>
      <trkpt lat="42.5147692300379276275634765625" lon="19.77288753725588321685791015625">
        <ele>1853.5999755859375</ele>
        <time>2026-06-18T09:59:59.000Z</time>
        <extensions>
          <ns3:TrackPointExtension>
            <ns3:atemp>21.0</ns3:atemp>
          </ns3:TrackPointExtension>
        </extensions>
      </trkpt>
      <trkpt lat="42.5147692300379276275634765625" lon="19.77288753725588321685791015625">
        <ele>1853.4000244140625</ele>
        <time>2026-06-18T10:00:00.000Z</time>
        <extensions>
          <ns3:TrackPointExtension>
            <ns3:atemp>21.0</ns3:atemp>
          </ns3:TrackPointExtension>
        </extensions>
      </trkpt>
      <trkpt lat="42.5147692300379276275634765625" lon="19.77288753725588321685791015625">
        <ele>1853.4000244140625</ele>
        <time>2026-06-18T10:00:01.000Z</time>
        <extensions>
          <ns3:TrackPointExtension>
            <ns3:atemp>21.0</ns3:atemp>
          </ns3:TrackPointExtension>
        </extensions>
      </trkpt>
      <trkpt lat="42.5147692300379276275634765625" lon="19.77288753725588321685791015625">
        <ele>1853.199951171875</ele>
        <time>2026-06-18T10:00:02.000Z</time>
        <extensions>
          <ns3:TrackPointExtension>
            <ns3:atemp>21.0</ns3:atemp>
          </ns3:TrackPointExtension>
        </extensions>
      </trkpt>
      <trkpt lat="42.5147692300379276275634765625" lon="19.77288753725588321685791015625">
        <ele>1853</ele>
        <time>2026-06-18T10:00:03.000Z</time>
        <extensions>
          <ns3:TrackPointExtension>
            <ns3:atemp>21.0</ns3:atemp>
          </ns3:TrackPointExtension>
        </extensions>
      </trkpt>
      <trkpt lat="42.5147692300379276275634765625" lon="19.77288753725588321685791015625">
        <ele>1852.800048828125</ele>
        <time>2026-06-18T10:00:04.000Z</time>
        <extensions>
          <ns3:TrackPointExtension>
            <ns3:atemp>21.0</ns3:atemp>
          </ns3:TrackPointExtension>
        </extensions>
      </trkpt>
      <trkpt lat="42.5147692300379276275634765625" lon="19.77288753725588321685791015625">
        <ele>1852.5999755859375</ele>
        <time>2026-06-18T10:00:05.000Z</time>
        <extensions>
          <ns3:TrackPointExtension>
            <ns3:atemp>21.0</ns3:atemp>
          </ns3:TrackPointExtension>
        </extensions>
      </trkpt>
      <trkpt lat="42.5147692300379276275634765625" lon="19.77288753725588321685791015625">
        <ele>1852.4000244140625</ele>
        <time>2026-06-18T10:00:06.000Z</time>
        <extensions>
          <ns3:TrackPointExtension>
            <ns3:atemp>21.0</ns3:atemp>
          </ns3:TrackPointExtension>
        </extensions>
      </trkpt>
      <trkpt lat="42.5147692300379276275634765625" lon="19.77288753725588321685791015625">
        <ele>1852.199951171875</ele>
        <time>2026-06-18T10:00:07.000Z</time>
        <extensions>
          <ns3:TrackPointExtension>
            <ns3:atemp>21.0</ns3:atemp>
          </ns3:TrackPointExtension>
        </extensions>
      </trkpt>
      <trkpt lat="42.5147692300379276275634765625" lon="19.77288753725588321685791015625">
        <ele>1852.199951171875</ele>
        <time>2026-06-18T10:00:08.000Z</time>
        <extensions>
          <ns3:TrackPointExtension>
            <ns3:atemp>21.0</ns3:atemp>
          </ns3:TrackPointExtension>
        </extensions>
      </trkpt>
      <trkpt lat="42.5147692300379276275634765625" lon="19.77288753725588321685791015625">
        <ele>1852.199951171875</ele>
        <time>2026-06-18T10:00:09.000Z</time>
        <extensions>
          <ns3:TrackPointExtension>
            <ns3:atemp>21.0</ns3:atemp>
          </ns3:TrackPointExtension>
        </extensions>
      </trkpt>
      <trkpt lat="42.5147692300379276275634765625" lon="19.77288753725588321685791015625">
        <ele>1852</ele>
        <time>2026-06-18T10:00:10.000Z</time>
        <extensions>
          <ns3:TrackPointExtension>
            <ns3:atemp>21.0</ns3:atemp>
          </ns3:TrackPointExtension>
        </extensions>
      </trkpt>
      <trkpt lat="42.5147692300379276275634765625" lon="19.77288753725588321685791015625">
        <ele>1852</ele>
        <time>2026-06-18T10:00:11.000Z</time>
        <extensions>
          <ns3:TrackPointExtension>
            <ns3:atemp>21.0</ns3:atemp>
          </ns3:TrackPointExtension>
        </extensions>
      </trkpt>
      <trkpt lat="42.5147692300379276275634765625" lon="19.77288753725588321685791015625">
        <ele>1852</ele>
        <time>2026-06-18T10:00:12.000Z</time>
        <extensions>
          <ns3:TrackPointExtension>
            <ns3:atemp>21.0</ns3:atemp>
          </ns3:TrackPointExtension>
        </extensions>
      </trkpt>
      <trkpt lat="42.5147692300379276275634765625" lon="19.77288753725588321685791015625">
        <ele>1852</ele>
        <time>2026-06-18T10:00:13.000Z</time>
        <extensions>
          <ns3:TrackPointExtension>
            <ns3:atemp>21.0</ns3:atemp>
          </ns3:TrackPointExtension>
        </extensions>
      </trkpt>
      <trkpt lat="42.5147692300379276275634765625" lon="19.77288753725588321685791015625">
        <ele>1851.800048828125</ele>
        <time>2026-06-18T10:00:14.000Z</time>
        <extensions>
          <ns3:TrackPointExtension>
            <ns3:atemp>21.0</ns3:atemp>
          </ns3:TrackPointExtension>
        </extensions>
      </trkpt>
      <trkpt lat="42.5147692300379276275634765625" lon="19.77288753725588321685791015625">
        <ele>1851.800048828125</ele>
        <time>2026-06-18T10:00:15.000Z</time>
        <extensions>
          <ns3:TrackPointExtension>
            <ns3:atemp>21.0</ns3:atemp>
          </ns3:TrackPointExtension>
        </extensions>
      </trkpt>
      <trkpt lat="42.5147692300379276275634765625" lon="19.77288753725588321685791015625">
        <ele>1851.5999755859375</ele>
        <time>2026-06-18T10:00:16.000Z</time>
        <extensions>
          <ns3:TrackPointExtension>
            <ns3:atemp>21.0</ns3:atemp>
          </ns3:TrackPointExtension>
        </extensions>
      </trkpt>
      <trkpt lat="42.5147692300379276275634765625" lon="19.77288753725588321685791015625">
        <ele>1851.4000244140625</ele>
        <time>2026-06-18T10:00:17.000Z</time>
        <extensions>
          <ns3:TrackPointExtension>
            <ns3:atemp>21.0</ns3:atemp>
          </ns3:TrackPointExtension>
        </extensions>
      </trkpt>
      <trkpt lat="42.5147692300379276275634765625" lon="19.77288753725588321685791015625">
        <ele>1851.199951171875</ele>
        <time>2026-06-18T10:00:18.000Z</time>
        <extensions>
          <ns3:TrackPointExtension>
            <ns3:atemp>21.0</ns3:atemp>
          </ns3:TrackPointExtension>
        </extensions>
      </trkpt>
      <trkpt lat="42.5147692300379276275634765625" lon="19.77288753725588321685791015625">
        <ele>1851</ele>
        <time>2026-06-18T10:00:19.000Z</time>
        <extensions>
          <ns3:TrackPointExtension>
            <ns3:atemp>21.0</ns3:atemp>
          </ns3:TrackPointExtension>
        </extensions>
      </trkpt>
      <trkpt lat="42.5147692300379276275634765625" lon="19.77288753725588321685791015625">
        <ele>1851</ele>
        <time>2026-06-18T10:00:20.000Z</time>
        <extensions>
          <ns3:TrackPointExtension>
            <ns3:atemp>21.0</ns3:atemp>
          </ns3:TrackPointExtension>
        </extensions>
      </trkpt>
      <trkpt lat="42.5147692300379276275634765625" lon="19.77288753725588321685791015625">
        <ele>1851</ele>
        <time>2026-06-18T10:00:21.000Z</time>
        <extensions>
          <ns3:TrackPointExtension>
            <ns3:atemp>21.0</ns3:atemp>
          </ns3:TrackPointExtension>
        </extensions>
      </trkpt>
      <trkpt lat="42.5147692300379276275634765625" lon="19.77288753725588321685791015625">
        <ele>1851</ele>
        <time>2026-06-18T10:00:22.000Z</time>
        <extensions>
          <ns3:TrackPointExtension>
            <ns3:atemp>21.0</ns3:atemp>
          </ns3:TrackPointExtension>
        </extensions>
      </trkpt>
      <trkpt lat="42.5147692300379276275634765625" lon="19.77288753725588321685791015625">
        <ele>1851</ele>
        <time>2026-06-18T10:00:23.000Z</time>
        <extensions>
          <ns3:TrackPointExtension>
            <ns3:atemp>21.0</ns3:atemp>
          </ns3:TrackPointExtension>
        </extensions>
      </trkpt>
      <trkpt lat="42.5147692300379276275634765625" lon="19.77288753725588321685791015625">
        <ele>1850.800048828125</ele>
        <time>2026-06-18T10:00:24.000Z</time>
        <extensions>
          <ns3:TrackPointExtension>
            <ns3:atemp>21.0</ns3:atemp>
          </ns3:TrackPointExtension>
        </extensions>
      </trkpt>
      <trkpt lat="42.5147692300379276275634765625" lon="19.77288753725588321685791015625">
        <ele>1850.800048828125</ele>
        <time>2026-06-18T10:00:25.000Z</time>
        <extensions>
          <ns3:TrackPointExtension>
            <ns3:atemp>21.0</ns3:atemp>
          </ns3:TrackPointExtension>
        </extensions>
      </trkpt>
      <trkpt lat="42.5147692300379276275634765625" lon="19.77288753725588321685791015625">
        <ele>1850.5999755859375</ele>
        <time>2026-06-18T10:00:26.000Z</time>
        <extensions>
          <ns3:TrackPointExtension>
            <ns3:atemp>21.0</ns3:atemp>
          </ns3:TrackPointExtension>
        </extensions>
      </trkpt>
      <trkpt lat="42.5147692300379276275634765625" lon="19.77288753725588321685791015625">
        <ele>1850.5999755859375</ele>
        <time>2026-06-18T10:00:27.000Z</time>
        <extensions>
          <ns3:TrackPointExtension>
            <ns3:atemp>21.0</ns3:atemp>
          </ns3:TrackPointExtension>
        </extensions>
      </trkpt>
      <trkpt lat="42.5147692300379276275634765625" lon="19.77288753725588321685791015625">
        <ele>1850.4000244140625</ele>
        <time>2026-06-18T10:00:28.000Z</time>
        <extensions>
          <ns3:TrackPointExtension>
            <ns3:atemp>21.0</ns3:atemp>
          </ns3:TrackPointExtension>
        </extensions>
      </trkpt>
      <trkpt lat="42.5147692300379276275634765625" lon="19.77288753725588321685791015625">
        <ele>1850.4000244140625</ele>
        <time>2026-06-18T10:00:29.000Z</time>
        <extensions>
          <ns3:TrackPointExtension>
            <ns3:atemp>21.0</ns3:atemp>
          </ns3:TrackPointExtension>
        </extensions>
      </trkpt>
      <trkpt lat="42.5147692300379276275634765625" lon="19.77288753725588321685791015625">
        <ele>1850.4000244140625</ele>
        <time>2026-06-18T10:00:30.000Z</time>
        <extensions>
          <ns3:TrackPointExtension>
            <ns3:atemp>21.0</ns3:atemp>
          </ns3:TrackPointExtension>
        </extensions>
      </trkpt>
      <trkpt lat="42.5147692300379276275634765625" lon="19.77288753725588321685791015625">
        <ele>1850.4000244140625</ele>
        <time>2026-06-18T10:00:31.000Z</time>
        <extensions>
          <ns3:TrackPointExtension>
            <ns3:atemp>21.0</ns3:atemp>
          </ns3:TrackPointExtension>
        </extensions>
      </trkpt>
      <trkpt lat="42.5147692300379276275634765625" lon="19.77288753725588321685791015625">
        <ele>1850.4000244140625</ele>
        <time>2026-06-18T10:00:32.000Z</time>
        <extensions>
          <ns3:TrackPointExtension>
            <ns3:atemp>21.0</ns3:atemp>
          </ns3:TrackPointExtension>
        </extensions>
      </trkpt>
      <trkpt lat="42.5147692300379276275634765625" lon="19.77288753725588321685791015625">
        <ele>1850.5999755859375</ele>
        <time>2026-06-18T10:00:33.000Z</time>
        <extensions>
          <ns3:TrackPointExtension>
            <ns3:atemp>21.0</ns3:atemp>
          </ns3:TrackPointExtension>
        </extensions>
      </trkpt>
      <trkpt lat="42.5147692300379276275634765625" lon="19.77288753725588321685791015625">
        <ele>1850.5999755859375</ele>
        <time>2026-06-18T10:00:34.000Z</time>
        <extensions>
          <ns3:TrackPointExtension>
            <ns3:atemp>21.0</ns3:atemp>
          </ns3:TrackPointExtension>
        </extensions>
      </trkpt>
      <trkpt lat="42.5147692300379276275634765625" lon="19.77288753725588321685791015625">
        <ele>1850.5999755859375</ele>
        <time>2026-06-18T10:00:35.000Z</time>
        <extensions>
          <ns3:TrackPointExtension>
            <ns3:atemp>21.0</ns3:atemp>
          </ns3:TrackPointExtension>
        </extensions>
      </trkpt>
      <trkpt lat="42.5147692300379276275634765625" lon="19.77288753725588321685791015625">
        <ele>1850.5999755859375</ele>
        <time>2026-06-18T10:00:36.000Z</time>
        <extensions>
          <ns3:TrackPointExtension>
            <ns3:atemp>21.0</ns3:atemp>
          </ns3:TrackPointExtension>
        </extensions>
      </trkpt>
      <trkpt lat="42.5147692300379276275634765625" lon="19.77288753725588321685791015625">
        <ele>1850.5999755859375</ele>
        <time>2026-06-18T10:00:37.000Z</time>
        <extensions>
          <ns3:TrackPointExtension>
            <ns3:atemp>21.0</ns3:atemp>
          </ns3:TrackPointExtension>
        </extensions>
      </trkpt>
      <trkpt lat="42.5147692300379276275634765625" lon="19.77288753725588321685791015625">
        <ele>1850.5999755859375</ele>
        <time>2026-06-18T10:00:38.000Z</time>
        <extensions>
          <ns3:TrackPointExtension>
            <ns3:atemp>21.0</ns3:atemp>
          </ns3:TrackPointExtension>
        </extensions>
      </trkpt>
      <trkpt lat="42.5147692300379276275634765625" lon="19.77288753725588321685791015625">
        <ele>1850.5999755859375</ele>
        <time>2026-06-18T10:00:39.000Z</time>
        <extensions>
          <ns3:TrackPointExtension>
            <ns3:atemp>21.0</ns3:atemp>
          </ns3:TrackPointExtension>
        </extensions>
      </trkpt>
      <trkpt lat="42.5147692300379276275634765625" lon="19.77288753725588321685791015625">
        <ele>1850.4000244140625</ele>
        <time>2026-06-18T10:00:40.000Z</time>
        <extensions>
          <ns3:TrackPointExtension>
            <ns3:atemp>21.0</ns3:atemp>
          </ns3:TrackPointExtension>
        </extensions>
      </trkpt>
      <trkpt lat="42.5147692300379276275634765625" lon="19.77288753725588321685791015625">
        <ele>1850.4000244140625</ele>
        <time>2026-06-18T10:00:41.000Z</time>
        <extensions>
          <ns3:TrackPointExtension>
            <ns3:atemp>21.0</ns3:atemp>
          </ns3:TrackPointExtension>
        </extensions>
      </trkpt>
      <trkpt lat="42.5147692300379276275634765625" lon="19.77288753725588321685791015625">
        <ele>1850.4000244140625</ele>
        <time>2026-06-18T10:00:42.000Z</time>
        <extensions>
          <ns3:TrackPointExtension>
            <ns3:atemp>21.0</ns3:atemp>
          </ns3:TrackPointExtension>
        </extensions>
      </trkpt>
      <trkpt lat="42.5147692300379276275634765625" lon="19.77288753725588321685791015625">
        <ele>1850.4000244140625</ele>
        <time>2026-06-18T10:00:43.000Z</time>
        <extensions>
          <ns3:TrackPointExtension>
            <ns3:atemp>21.0</ns3:atemp>
          </ns3:TrackPointExtension>
        </extensions>
      </trkpt>
      <trkpt lat="42.5147692300379276275634765625" lon="19.77288753725588321685791015625">
        <ele>1850.4000244140625</ele>
        <time>2026-06-18T10:00:44.000Z</time>
        <extensions>
          <ns3:TrackPointExtension>
            <ns3:atemp>21.0</ns3:atemp>
          </ns3:TrackPointExtension>
        </extensions>
      </trkpt>
      <trkpt lat="42.5147692300379276275634765625" lon="19.77288753725588321685791015625">
        <ele>1850.4000244140625</ele>
        <time>2026-06-18T10:00:45.000Z</time>
        <extensions>
          <ns3:TrackPointExtension>
            <ns3:atemp>21.0</ns3:atemp>
          </ns3:TrackPointExtension>
        </extensions>
      </trkpt>
      <trkpt lat="42.5147692300379276275634765625" lon="19.77288753725588321685791015625">
        <ele>1850.4000244140625</ele>
        <time>2026-06-18T10:00:46.000Z</time>
        <extensions>
          <ns3:TrackPointExtension>
            <ns3:atemp>21.0</ns3:atemp>
          </ns3:TrackPointExtension>
        </extensions>
      </trkpt>
      <trkpt lat="42.5147692300379276275634765625" lon="19.77288753725588321685791015625">
        <ele>1850.4000244140625</ele>
        <time>2026-06-18T10:00:47.000Z</time>
        <extensions>
          <ns3:TrackPointExtension>
            <ns3:atemp>21.0</ns3:atemp>
          </ns3:TrackPointExtension>
        </extensions>
      </trkpt>
      <trkpt lat="42.5147692300379276275634765625" lon="19.77288753725588321685791015625">
        <ele>1850.4000244140625</ele>
        <time>2026-06-18T10:00:48.000Z</time>
        <extensions>
          <ns3:TrackPointExtension>
            <ns3:atemp>21.0</ns3:atemp>
          </ns3:TrackPointExtension>
        </extensions>
      </trkpt>
      <trkpt lat="42.5147692300379276275634765625" lon="19.77288753725588321685791015625">
        <ele>1850.4000244140625</ele>
        <time>2026-06-18T10:00:49.000Z</time>
        <extensions>
          <ns3:TrackPointExtension>
            <ns3:atemp>21.0</ns3:atemp>
          </ns3:TrackPointExtension>
        </extensions>
      </trkpt>
      <trkpt lat="42.5147692300379276275634765625" lon="19.77288753725588321685791015625">
        <ele>1850.4000244140625</ele>
        <time>2026-06-18T10:00:50.000Z</time>
        <extensions>
          <ns3:TrackPointExtension>
            <ns3:atemp>21.0</ns3:atemp>
          </ns3:TrackPointExtension>
        </extensions>
      </trkpt>
      <trkpt lat="42.5147692300379276275634765625" lon="19.77288753725588321685791015625">
        <ele>1850.4000244140625</ele>
        <time>2026-06-18T10:00:51.000Z</time>
        <extensions>
          <ns3:TrackPointExtension>
            <ns3:atemp>21.0</ns3:atemp>
          </ns3:TrackPointExtension>
        </extensions>
      </trkpt>
      <trkpt lat="42.5147692300379276275634765625" lon="19.77288753725588321685791015625">
        <ele>1850.4000244140625</ele>
        <time>2026-06-18T10:00:52.000Z</time>
        <extensions>
          <ns3:TrackPointExtension>
            <ns3:atemp>21.0</ns3:atemp>
          </ns3:TrackPointExtension>
        </extensions>
      </trkpt>
      <trkpt lat="42.5147692300379276275634765625" lon="19.77288753725588321685791015625">
        <ele>1850.4000244140625</ele>
        <time>2026-06-18T10:00:53.000Z</time>
        <extensions>
          <ns3:TrackPointExtension>
            <ns3:atemp>21.0</ns3:atemp>
          </ns3:TrackPointExtension>
        </extensions>
      </trkpt>
      <trkpt lat="42.5147692300379276275634765625" lon="19.77288753725588321685791015625">
        <ele>1850.4000244140625</ele>
        <time>2026-06-18T10:00:54.000Z</time>
        <extensions>
          <ns3:TrackPointExtension>
            <ns3:atemp>21.0</ns3:atemp>
          </ns3:TrackPointExtension>
        </extensions>
      </trkpt>
      <trkpt lat="42.5147692300379276275634765625" lon="19.77288753725588321685791015625">
        <ele>1850.4000244140625</ele>
        <time>2026-06-18T10:00:55.000Z</time>
        <extensions>
          <ns3:TrackPointExtension>
            <ns3:atemp>21.0</ns3:atemp>
          </ns3:TrackPointExtension>
        </extensions>
      </trkpt>
      <trkpt lat="42.5147692300379276275634765625" lon="19.77288753725588321685791015625">
        <ele>1850.4000244140625</ele>
        <time>2026-06-18T10:00:56.000Z</time>
        <extensions>
          <ns3:TrackPointExtension>
            <ns3:atemp>21.0</ns3:atemp>
          </ns3:TrackPointExtension>
        </extensions>
      </trkpt>
      <trkpt lat="42.5147692300379276275634765625" lon="19.77288753725588321685791015625">
        <ele>1850.4000244140625</ele>
        <time>2026-06-18T10:00:57.000Z</time>
        <extensions>
          <ns3:TrackPointExtension>
            <ns3:atemp>21.0</ns3:atemp>
          </ns3:TrackPointExtension>
        </extensions>
      </trkpt>
      <trkpt lat="42.5147692300379276275634765625" lon="19.77288753725588321685791015625">
        <ele>1850.4000244140625</ele>
        <time>2026-06-18T10:00:58.000Z</time>
        <extensions>
          <ns3:TrackPointExtension>
            <ns3:atemp>21.0</ns3:atemp>
          </ns3:TrackPointExtension>
        </extensions>
      </trkpt>
      <trkpt lat="42.5147692300379276275634765625" lon="19.77288753725588321685791015625">
        <ele>1850.4000244140625</ele>
        <time>2026-06-18T10:00:59.000Z</time>
        <extensions>
          <ns3:TrackPointExtension>
            <ns3:atemp>21.0</ns3:atemp>
          </ns3:TrackPointExtension>
        </extensions>
      </trkpt>
      <trkpt lat="42.5147692300379276275634765625" lon="19.77288753725588321685791015625">
        <ele>1850.199951171875</ele>
        <time>2026-06-18T10:01:00.000Z</time>
        <extensions>
          <ns3:TrackPointExtension>
            <ns3:atemp>21.0</ns3:atemp>
          </ns3:TrackPointExtension>
        </extensions>
      </trkpt>
      <trkpt lat="42.5147692300379276275634765625" lon="19.77288753725588321685791015625">
        <ele>1850.199951171875</ele>
        <time>2026-06-18T10:01:01.000Z</time>
        <extensions>
          <ns3:TrackPointExtension>
            <ns3:atemp>21.0</ns3:atemp>
          </ns3:TrackPointExtension>
        </extensions>
      </trkpt>
      <trkpt lat="42.5147692300379276275634765625" lon="19.77288753725588321685791015625">
        <ele>1850.199951171875</ele>
        <time>2026-06-18T10:01:02.000Z</time>
        <extensions>
          <ns3:TrackPointExtension>
            <ns3:atemp>21.0</ns3:atemp>
          </ns3:TrackPointExtension>
        </extensions>
      </trkpt>
      <trkpt lat="42.5147692300379276275634765625" lon="19.77288753725588321685791015625">
        <ele>1850.199951171875</ele>
        <time>2026-06-18T10:01:03.000Z</time>
        <extensions>
          <ns3:TrackPointExtension>
            <ns3:atemp>21.0</ns3:atemp>
          </ns3:TrackPointExtension>
        </extensions>
      </trkpt>
      <trkpt lat="42.5147692300379276275634765625" lon="19.77288753725588321685791015625">
        <ele>1850.199951171875</ele>
        <time>2026-06-18T10:01:04.000Z</time>
        <extensions>
          <ns3:TrackPointExtension>
            <ns3:atemp>21.0</ns3:atemp>
          </ns3:TrackPointExtension>
        </extensions>
      </trkpt>
      <trkpt lat="42.5147692300379276275634765625" lon="19.77288753725588321685791015625">
        <ele>1850.199951171875</ele>
        <time>2026-06-18T10:01:05.000Z</time>
        <extensions>
          <ns3:TrackPointExtension>
            <ns3:atemp>21.0</ns3:atemp>
          </ns3:TrackPointExtension>
        </extensions>
      </trkpt>
      <trkpt lat="42.5147692300379276275634765625" lon="19.77288753725588321685791015625">
        <ele>1850.199951171875</ele>
        <time>2026-06-18T10:01:06.000Z</time>
        <extensions>
          <ns3:TrackPointExtension>
            <ns3:atemp>21.0</ns3:atemp>
          </ns3:TrackPointExtension>
        </extensions>
      </trkpt>
      <trkpt lat="42.5147692300379276275634765625" lon="19.77288753725588321685791015625">
        <ele>1850.199951171875</ele>
        <time>2026-06-18T10:01:07.000Z</time>
        <extensions>
          <ns3:TrackPointExtension>
            <ns3:atemp>21.0</ns3:atemp>
          </ns3:TrackPointExtension>
        </extensions>
      </trkpt>
      <trkpt lat="42.5147692300379276275634765625" lon="19.77288753725588321685791015625">
        <ele>1850</ele>
        <time>2026-06-18T10:01:08.000Z</time>
        <extensions>
          <ns3:TrackPointExtension>
            <ns3:atemp>21.0</ns3:atemp>
          </ns3:TrackPointExtension>
        </extensions>
      </trkpt>
      <trkpt lat="42.5147692300379276275634765625" lon="19.77288753725588321685791015625">
        <ele>1850</ele>
        <time>2026-06-18T10:01:09.000Z</time>
        <extensions>
          <ns3:TrackPointExtension>
            <ns3:atemp>21.0</ns3:atemp>
          </ns3:TrackPointExtension>
        </extensions>
      </trkpt>
      <trkpt lat="42.5147692300379276275634765625" lon="19.77288753725588321685791015625">
        <ele>1850</ele>
        <time>2026-06-18T10:01:10.000Z</time>
        <extensions>
          <ns3:TrackPointExtension>
            <ns3:atemp>21.0</ns3:atemp>
          </ns3:TrackPointExtension>
        </extensions>
      </trkpt>
      <trkpt lat="42.5147692300379276275634765625" lon="19.77288753725588321685791015625">
        <ele>1850</ele>
        <time>2026-06-18T10:01:11.000Z</time>
        <extensions>
          <ns3:TrackPointExtension>
            <ns3:atemp>21.0</ns3:atemp>
          </ns3:TrackPointExtension>
        </extensions>
      </trkpt>
      <trkpt lat="42.5147692300379276275634765625" lon="19.77288753725588321685791015625">
        <ele>1850</ele>
        <time>2026-06-18T10:01:12.000Z</time>
        <extensions>
          <ns3:TrackPointExtension>
            <ns3:atemp>21.0</ns3:atemp>
          </ns3:TrackPointExtension>
        </extensions>
      </trkpt>
      <trkpt lat="42.5147692300379276275634765625" lon="19.77288753725588321685791015625">
        <ele>1850</ele>
        <time>2026-06-18T10:01:13.000Z</time>
        <extensions>
          <ns3:TrackPointExtension>
            <ns3:atemp>21.0</ns3:atemp>
          </ns3:TrackPointExtension>
        </extensions>
      </trkpt>
      <trkpt lat="42.5147692300379276275634765625" lon="19.77288753725588321685791015625">
        <ele>1850</ele>
        <time>2026-06-18T10:01:14.000Z</time>
        <extensions>
          <ns3:TrackPointExtension>
            <ns3:atemp>21.0</ns3:atemp>
          </ns3:TrackPointExtension>
        </extensions>
      </trkpt>
      <trkpt lat="42.5147692300379276275634765625" lon="19.77288753725588321685791015625">
        <ele>1850</ele>
        <time>2026-06-18T10:01:15.000Z</time>
        <extensions>
          <ns3:TrackPointExtension>
            <ns3:atemp>21.0</ns3:atemp>
          </ns3:TrackPointExtension>
        </extensions>
      </trkpt>
      <trkpt lat="42.5147692300379276275634765625" lon="19.77288753725588321685791015625">
        <ele>1849.800048828125</ele>
        <time>2026-06-18T10:01:16.000Z</time>
        <extensions>
          <ns3:TrackPointExtension>
            <ns3:atemp>21.0</ns3:atemp>
          </ns3:TrackPointExtension>
        </extensions>
      </trkpt>
      <trkpt lat="42.5147692300379276275634765625" lon="19.77288753725588321685791015625">
        <ele>1849.800048828125</ele>
        <time>2026-06-18T10:01:17.000Z</time>
        <extensions>
          <ns3:TrackPointExtension>
            <ns3:atemp>21.0</ns3:atemp>
          </ns3:TrackPointExtension>
        </extensions>
      </trkpt>
      <trkpt lat="42.5147692300379276275634765625" lon="19.77288753725588321685791015625">
        <ele>1849.5999755859375</ele>
        <time>2026-06-18T10:01:18.000Z</time>
        <extensions>
          <ns3:TrackPointExtension>
            <ns3:atemp>21.0</ns3:atemp>
          </ns3:TrackPointExtension>
        </extensions>
      </trkpt>
      <trkpt lat="42.5147692300379276275634765625" lon="19.77288753725588321685791015625">
        <ele>1849.5999755859375</ele>
        <time>2026-06-18T10:01:19.000Z</time>
        <extensions>
          <ns3:TrackPointExtension>
            <ns3:atemp>21.0</ns3:atemp>
          </ns3:TrackPointExtension>
        </extensions>
      </trkpt>
      <trkpt lat="42.5147692300379276275634765625" lon="19.77288753725588321685791015625">
        <ele>1849.4000244140625</ele>
        <time>2026-06-18T10:01:20.000Z</time>
        <extensions>
          <ns3:TrackPointExtension>
            <ns3:atemp>21.0</ns3:atemp>
          </ns3:TrackPointExtension>
        </extensions>
      </trkpt>
      <trkpt lat="42.5147692300379276275634765625" lon="19.77288753725588321685791015625">
        <ele>1849.4000244140625</ele>
        <time>2026-06-18T10:01:21.000Z</time>
        <extensions>
          <ns3:TrackPointExtension>
            <ns3:atemp>21.0</ns3:atemp>
          </ns3:TrackPointExtension>
        </extensions>
      </trkpt>
      <trkpt lat="42.5147692300379276275634765625" lon="19.77288753725588321685791015625">
        <ele>1849.199951171875</ele>
        <time>2026-06-18T10:01:22.000Z</time>
        <extensions>
          <ns3:TrackPointExtension>
            <ns3:atemp>21.0</ns3:atemp>
          </ns3:TrackPointExtension>
        </extensions>
      </trkpt>
      <trkpt lat="42.5147692300379276275634765625" lon="19.77288753725588321685791015625">
        <ele>1849.199951171875</ele>
        <time>2026-06-18T10:01:23.000Z</time>
        <extensions>
          <ns3:TrackPointExtension>
            <ns3:atemp>21.0</ns3:atemp>
          </ns3:TrackPointExtension>
        </extensions>
      </trkpt>
      <trkpt lat="42.5147692300379276275634765625" lon="19.77288753725588321685791015625">
        <ele>1849.199951171875</ele>
        <time>2026-06-18T10:01:24.000Z</time>
        <extensions>
          <ns3:TrackPointExtension>
            <ns3:atemp>21.0</ns3:atemp>
          </ns3:TrackPointExtension>
        </extensions>
      </trkpt>
      <trkpt lat="42.5147692300379276275634765625" lon="19.77288753725588321685791015625">
        <ele>1849.4000244140625</ele>
        <time>2026-06-18T10:01:25.000Z</time>
        <extensions>
          <ns3:TrackPointExtension>
            <ns3:atemp>21.0</ns3:atemp>
          </ns3:TrackPointExtension>
        </extensions>
      </trkpt>
      <trkpt lat="42.5147742591798305511474609375" lon="19.77289424277842044830322265625">
        <ele>1849.199951171875</ele>
        <time>2026-06-18T10:01:26.000Z</time>
        <extensions>
          <ns3:TrackPointExtension>
            <ns3:atemp>21.0</ns3:atemp>
          </ns3:TrackPointExtension>
        </extensions>
      </trkpt>
      <trkpt lat="42.5147692300379276275634765625" lon="19.77288753725588321685791015625">
        <ele>1849</ele>
        <time>2026-06-18T10:01:27.000Z</time>
        <extensions>
          <ns3:TrackPointExtension>
            <ns3:atemp>21.0</ns3:atemp>
          </ns3:TrackPointExtension>
        </extensions>
      </trkpt>
      <trkpt lat="42.5147692300379276275634765625" lon="19.77288753725588321685791015625">
        <ele>1848.800048828125</ele>
        <time>2026-06-18T10:01:28.000Z</time>
        <extensions>
          <ns3:TrackPointExtension>
            <ns3:atemp>21.0</ns3:atemp>
          </ns3:TrackPointExtension>
        </extensions>
      </trkpt>
      <trkpt lat="42.5147692300379276275634765625" lon="19.77288753725588321685791015625">
        <ele>1848.5999755859375</ele>
        <time>2026-06-18T10:01:29.000Z</time>
        <extensions>
          <ns3:TrackPointExtension>
            <ns3:atemp>21.0</ns3:atemp>
          </ns3:TrackPointExtension>
        </extensions>
      </trkpt>
      <trkpt lat="42.5147692300379276275634765625" lon="19.77288753725588321685791015625">
        <ele>1848.5999755859375</ele>
        <time>2026-06-18T10:01:30.000Z</time>
        <extensions>
          <ns3:TrackPointExtension>
            <ns3:atemp>21.0</ns3:atemp>
          </ns3:TrackPointExtension>
        </extensions>
      </trkpt>
      <trkpt lat="42.5147692300379276275634765625" lon="19.77288753725588321685791015625">
        <ele>1848.4000244140625</ele>
        <time>2026-06-18T10:01:31.000Z</time>
        <extensions>
          <ns3:TrackPointExtension>
            <ns3:atemp>21.0</ns3:atemp>
          </ns3:TrackPointExtension>
        </extensions>
      </trkpt>
      <trkpt lat="42.5147692300379276275634765625" lon="19.77288753725588321685791015625">
        <ele>1848.4000244140625</ele>
        <time>2026-06-18T10:01:32.000Z</time>
        <extensions>
          <ns3:TrackPointExtension>
            <ns3:atemp>21.0</ns3:atemp>
          </ns3:TrackPointExtension>
        </extensions>
      </trkpt>
      <trkpt lat="42.5147692300379276275634765625" lon="19.77288753725588321685791015625">
        <ele>1848.5999755859375</ele>
        <time>2026-06-18T10:01:33.000Z</time>
        <extensions>
          <ns3:TrackPointExtension>
            <ns3:atemp>21.0</ns3:atemp>
          </ns3:TrackPointExtension>
        </extensions>
      </trkpt>
      <trkpt lat="42.5147692300379276275634765625" lon="19.77288753725588321685791015625">
        <ele>1848.5999755859375</ele>
        <time>2026-06-18T10:01:34.000Z</time>
        <extensions>
          <ns3:TrackPointExtension>
            <ns3:atemp>21.0</ns3:atemp>
          </ns3:TrackPointExtension>
        </extensions>
      </trkpt>
      <trkpt lat="42.5147756002843379974365234375" lon="19.77288837544620037078857421875">
        <ele>1848.5999755859375</ele>
        <time>2026-06-18T10:01:35.000Z</time>
        <extensions>
          <ns3:TrackPointExtension>
            <ns3:atemp>21.0</ns3:atemp>
          </ns3:TrackPointExtension>
        </extensions>
      </trkpt>
      <trkpt lat="42.5147692300379276275634765625" lon="19.77288753725588321685791015625">
        <ele>1848.5999755859375</ele>
        <time>2026-06-18T10:01:36.000Z</time>
        <extensions>
          <ns3:TrackPointExtension>
            <ns3:atemp>21.0</ns3:atemp>
          </ns3:TrackPointExtension>
        </extensions>
      </trkpt>
      <trkpt lat="42.5147692300379276275634765625" lon="19.77288753725588321685791015625">
        <ele>1848.5999755859375</ele>
        <time>2026-06-18T10:01:37.000Z</time>
        <extensions>
          <ns3:TrackPointExtension>
            <ns3:atemp>21.0</ns3:atemp>
          </ns3:TrackPointExtension>
        </extensions>
      </trkpt>
      <trkpt lat="42.5147692300379276275634765625" lon="19.77288753725588321685791015625">
        <ele>1848.800048828125</ele>
        <time>2026-06-18T10:01:38.000Z</time>
        <extensions>
          <ns3:TrackPointExtension>
            <ns3:atemp>21.0</ns3:atemp>
          </ns3:TrackPointExtension>
        </extensions>
      </trkpt>
      <trkpt lat="42.5147692300379276275634765625" lon="19.77288753725588321685791015625">
        <ele>1849</ele>
        <time>2026-06-18T10:01:39.000Z</time>
        <extensions>
          <ns3:TrackPointExtension>
            <ns3:atemp>21.0</ns3:atemp>
          </ns3:TrackPointExtension>
        </extensions>
      </trkpt>
      <trkpt lat="42.5147692300379276275634765625" lon="19.77288753725588321685791015625">
        <ele>1849</ele>
        <time>2026-06-18T10:01:40.000Z</time>
        <extensions>
          <ns3:TrackPointExtension>
            <ns3:atemp>21.0</ns3:atemp>
          </ns3:TrackPointExtension>
        </extensions>
      </trkpt>
      <trkpt lat="42.5147692300379276275634765625" lon="19.77288753725588321685791015625">
        <ele>1849</ele>
        <time>2026-06-18T10:01:41.000Z</time>
        <extensions>
          <ns3:TrackPointExtension>
            <ns3:atemp>21.0</ns3:atemp>
          </ns3:TrackPointExtension>
        </extensions>
      </trkpt>
      <trkpt lat="42.5147692300379276275634765625" lon="19.77288753725588321685791015625">
        <ele>1849</ele>
        <time>2026-06-18T10:01:42.000Z</time>
        <extensions>
          <ns3:TrackPointExtension>
            <ns3:atemp>21.0</ns3:atemp>
          </ns3:TrackPointExtension>
        </extensions>
      </trkpt>
      <trkpt lat="42.514770068228244781494140625" lon="19.77289072237908840179443359375">
        <ele>1849</ele>
        <time>2026-06-18T10:01:43.000Z</time>
        <extensions>
          <ns3:TrackPointExtension>
            <ns3:atemp>21.0</ns3:atemp>
          </ns3:TrackPointExtension>
        </extensions>
      </trkpt>
      <trkpt lat="42.5147692300379276275634765625" lon="19.77288753725588321685791015625">
        <ele>1849</ele>
        <time>2026-06-18T10:01:44.000Z</time>
        <extensions>
          <ns3:TrackPointExtension>
            <ns3:atemp>21.0</ns3:atemp>
          </ns3:TrackPointExtension>
        </extensions>
      </trkpt>
      <trkpt lat="42.5147692300379276275634765625" lon="19.77288753725588321685791015625">
        <ele>1849</ele>
        <time>2026-06-18T10:01:45.000Z</time>
        <extensions>
          <ns3:TrackPointExtension>
            <ns3:atemp>21.0</ns3:atemp>
          </ns3:TrackPointExtension>
        </extensions>
      </trkpt>
      <trkpt lat="42.5147692300379276275634765625" lon="19.77288753725588321685791015625">
        <ele>1849.199951171875</ele>
        <time>2026-06-18T10:01:46.000Z</time>
        <extensions>
          <ns3:TrackPointExtension>
            <ns3:atemp>21.0</ns3:atemp>
          </ns3:TrackPointExtension>
        </extensions>
      </trkpt>
      <trkpt lat="42.5147692300379276275634765625" lon="19.77288753725588321685791015625">
        <ele>1849.199951171875</ele>
        <time>2026-06-18T10:01:47.000Z</time>
        <extensions>
          <ns3:TrackPointExtension>
            <ns3:atemp>21.0</ns3:atemp>
          </ns3:TrackPointExtension>
        </extensions>
      </trkpt>
      <trkpt lat="42.5147692300379276275634765625" lon="19.77288753725588321685791015625">
        <ele>1849.199951171875</ele>
        <time>2026-06-18T10:01:48.000Z</time>
        <extensions>
          <ns3:TrackPointExtension>
            <ns3:atemp>21.0</ns3:atemp>
          </ns3:TrackPointExtension>
        </extensions>
      </trkpt>
      <trkpt lat="42.5147692300379276275634765625" lon="19.77288753725588321685791015625">
        <ele>1849</ele>
        <time>2026-06-18T10:01:49.000Z</time>
        <extensions>
          <ns3:TrackPointExtension>
            <ns3:atemp>21.0</ns3:atemp>
          </ns3:TrackPointExtension>
        </extensions>
      </trkpt>
      <trkpt lat="42.5147692300379276275634765625" lon="19.77288753725588321685791015625">
        <ele>1848.800048828125</ele>
        <time>2026-06-18T10:01:50.000Z</time>
        <extensions>
          <ns3:TrackPointExtension>
            <ns3:atemp>21.0</ns3:atemp>
          </ns3:TrackPointExtension>
        </extensions>
      </trkpt>
      <trkpt lat="42.5147692300379276275634765625" lon="19.77288753725588321685791015625">
        <ele>1848.5999755859375</ele>
        <time>2026-06-18T10:01:51.000Z</time>
        <extensions>
          <ns3:TrackPointExtension>
            <ns3:atemp>21.0</ns3:atemp>
          </ns3:TrackPointExtension>
        </extensions>
      </trkpt>
      <trkpt lat="42.5147692300379276275634765625" lon="19.77288753725588321685791015625">
        <ele>1848.4000244140625</ele>
        <time>2026-06-18T10:01:52.000Z</time>
        <extensions>
          <ns3:TrackPointExtension>
            <ns3:atemp>21.0</ns3:atemp>
          </ns3:TrackPointExtension>
        </extensions>
      </trkpt>
      <trkpt lat="42.5147692300379276275634765625" lon="19.77288753725588321685791015625">
        <ele>1848.4000244140625</ele>
        <time>2026-06-18T10:01:53.000Z</time>
        <extensions>
          <ns3:TrackPointExtension>
            <ns3:atemp>21.0</ns3:atemp>
          </ns3:TrackPointExtension>
        </extensions>
      </trkpt>
      <trkpt lat="42.5147692300379276275634765625" lon="19.77288753725588321685791015625">
        <ele>1848.199951171875</ele>
        <time>2026-06-18T10:01:54.000Z</time>
        <extensions>
          <ns3:TrackPointExtension>
            <ns3:atemp>21.0</ns3:atemp>
          </ns3:TrackPointExtension>
        </extensions>
      </trkpt>
      <trkpt lat="42.5147692300379276275634765625" lon="19.77288753725588321685791015625">
        <ele>1848.199951171875</ele>
        <time>2026-06-18T10:01:55.000Z</time>
        <extensions>
          <ns3:TrackPointExtension>
            <ns3:atemp>21.0</ns3:atemp>
          </ns3:TrackPointExtension>
        </extensions>
      </trkpt>
      <trkpt lat="42.5147692300379276275634765625" lon="19.77288753725588321685791015625">
        <ele>1848.199951171875</ele>
        <time>2026-06-18T10:01:56.000Z</time>
        <extensions>
          <ns3:TrackPointExtension>
            <ns3:atemp>21.0</ns3:atemp>
          </ns3:TrackPointExtension>
        </extensions>
      </trkpt>
      <trkpt lat="42.5147692300379276275634765625" lon="19.77288753725588321685791015625">
        <ele>1848.199951171875</ele>
        <time>2026-06-18T10:01:57.000Z</time>
        <extensions>
          <ns3:TrackPointExtension>
            <ns3:atemp>21.0</ns3:atemp>
          </ns3:TrackPointExtension>
        </extensions>
      </trkpt>
      <trkpt lat="42.5147692300379276275634765625" lon="19.77288753725588321685791015625">
        <ele>1848</ele>
        <time>2026-06-18T10:01:58.000Z</time>
        <extensions>
          <ns3:TrackPointExtension>
            <ns3:atemp>21.0</ns3:atemp>
          </ns3:TrackPointExtension>
        </extensions>
      </trkpt>
      <trkpt lat="42.5147692300379276275634765625" lon="19.77288753725588321685791015625">
        <ele>1848</ele>
        <time>2026-06-18T10:01:59.000Z</time>
        <extensions>
          <ns3:TrackPointExtension>
            <ns3:atemp>21.0</ns3:atemp>
          </ns3:TrackPointExtension>
        </extensions>
      </trkpt>
      <trkpt lat="42.5147692300379276275634765625" lon="19.77288753725588321685791015625">
        <ele>1847.800048828125</ele>
        <time>2026-06-18T10:02:00.000Z</time>
        <extensions>
          <ns3:TrackPointExtension>
            <ns3:atemp>21.0</ns3:atemp>
          </ns3:TrackPointExtension>
        </extensions>
      </trkpt>
      <trkpt lat="42.5147692300379276275634765625" lon="19.77288753725588321685791015625">
        <ele>1847.800048828125</ele>
        <time>2026-06-18T10:02:01.000Z</time>
        <extensions>
          <ns3:TrackPointExtension>
            <ns3:atemp>21.0</ns3:atemp>
          </ns3:TrackPointExtension>
        </extensions>
      </trkpt>
      <trkpt lat="42.5147692300379276275634765625" lon="19.77288753725588321685791015625">
        <ele>1847.800048828125</ele>
        <time>2026-06-18T10:02:02.000Z</time>
        <extensions>
          <ns3:TrackPointExtension>
            <ns3:atemp>21.0</ns3:atemp>
          </ns3:TrackPointExtension>
        </extensions>
      </trkpt>
      <trkpt lat="42.5147692300379276275634765625" lon="19.77288753725588321685791015625">
        <ele>1848</ele>
        <time>2026-06-18T10:02:03.000Z</time>
        <extensions>
          <ns3:TrackPointExtension>
            <ns3:atemp>21.0</ns3:atemp>
          </ns3:TrackPointExtension>
        </extensions>
      </trkpt>
      <trkpt lat="42.5147692300379276275634765625" lon="19.77288753725588321685791015625">
        <ele>1848</ele>
        <time>2026-06-18T10:02:04.000Z</time>
        <extensions>
          <ns3:TrackPointExtension>
            <ns3:atemp>21.0</ns3:atemp>
          </ns3:TrackPointExtension>
        </extensions>
      </trkpt>
      <trkpt lat="42.5147692300379276275634765625" lon="19.77288753725588321685791015625">
        <ele>1848</ele>
        <time>2026-06-18T10:02:05.000Z</time>
        <extensions>
          <ns3:TrackPointExtension>
            <ns3:atemp>21.0</ns3:atemp>
          </ns3:TrackPointExtension>
        </extensions>
      </trkpt>
      <trkpt lat="42.5147692300379276275634765625" lon="19.77288753725588321685791015625">
        <ele>1848</ele>
        <time>2026-06-18T10:02:06.000Z</time>
        <extensions>
          <ns3:TrackPointExtension>
            <ns3:atemp>21.0</ns3:atemp>
          </ns3:TrackPointExtension>
        </extensions>
      </trkpt>
      <trkpt lat="42.5147692300379276275634765625" lon="19.77288753725588321685791015625">
        <ele>1848.199951171875</ele>
        <time>2026-06-18T10:02:07.000Z</time>
        <extensions>
          <ns3:TrackPointExtension>
            <ns3:atemp>21.0</ns3:atemp>
          </ns3:TrackPointExtension>
        </extensions>
      </trkpt>
      <trkpt lat="42.5147692300379276275634765625" lon="19.77288753725588321685791015625">
        <ele>1848.199951171875</ele>
        <time>2026-06-18T10:02:08.000Z</time>
        <extensions>
          <ns3:TrackPointExtension>
            <ns3:atemp>21.0</ns3:atemp>
          </ns3:TrackPointExtension>
        </extensions>
      </trkpt>
      <trkpt lat="42.5147692300379276275634765625" lon="19.77288753725588321685791015625">
        <ele>1848.4000244140625</ele>
        <time>2026-06-18T10:02:09.000Z</time>
        <extensions>
          <ns3:TrackPointExtension>
            <ns3:atemp>21.0</ns3:atemp>
          </ns3:TrackPointExtension>
        </extensions>
      </trkpt>
      <trkpt lat="42.5147692300379276275634765625" lon="19.77288753725588321685791015625">
        <ele>1848.4000244140625</ele>
        <time>2026-06-18T10:02:10.000Z</time>
        <extensions>
          <ns3:TrackPointExtension>
            <ns3:atemp>21.0</ns3:atemp>
          </ns3:TrackPointExtension>
        </extensions>
      </trkpt>
      <trkpt lat="42.5147692300379276275634765625" lon="19.77288753725588321685791015625">
        <ele>1848.4000244140625</ele>
        <time>2026-06-18T10:02:11.000Z</time>
        <extensions>
          <ns3:TrackPointExtension>
            <ns3:atemp>21.0</ns3:atemp>
          </ns3:TrackPointExtension>
        </extensions>
      </trkpt>
      <trkpt lat="42.5147692300379276275634765625" lon="19.77288753725588321685791015625">
        <ele>1848.4000244140625</ele>
        <time>2026-06-18T10:02:12.000Z</time>
        <extensions>
          <ns3:TrackPointExtension>
            <ns3:atemp>22.0</ns3:atemp>
          </ns3:TrackPointExtension>
        </extensions>
      </trkpt>
      <trkpt lat="42.5147692300379276275634765625" lon="19.77288753725588321685791015625">
        <ele>1848.199951171875</ele>
        <time>2026-06-18T10:02:13.000Z</time>
        <extensions>
          <ns3:TrackPointExtension>
            <ns3:atemp>22.0</ns3:atemp>
          </ns3:TrackPointExtension>
        </extensions>
      </trkpt>
      <trkpt lat="42.5147692300379276275634765625" lon="19.77288753725588321685791015625">
        <ele>1848.199951171875</ele>
        <time>2026-06-18T10:02:14.000Z</time>
        <extensions>
          <ns3:TrackPointExtension>
            <ns3:atemp>22.0</ns3:atemp>
          </ns3:TrackPointExtension>
        </extensions>
      </trkpt>
      <trkpt lat="42.5147692300379276275634765625" lon="19.77288753725588321685791015625">
        <ele>1848.199951171875</ele>
        <time>2026-06-18T10:02:15.000Z</time>
        <extensions>
          <ns3:TrackPointExtension>
            <ns3:atemp>22.0</ns3:atemp>
          </ns3:TrackPointExtension>
        </extensions>
      </trkpt>
      <trkpt lat="42.5147692300379276275634765625" lon="19.77288753725588321685791015625">
        <ele>1848.199951171875</ele>
        <time>2026-06-18T10:02:16.000Z</time>
        <extensions>
          <ns3:TrackPointExtension>
            <ns3:atemp>22.0</ns3:atemp>
          </ns3:TrackPointExtension>
        </extensions>
      </trkpt>
      <trkpt lat="42.5147692300379276275634765625" lon="19.77288753725588321685791015625">
        <ele>1848.199951171875</ele>
        <time>2026-06-18T10:02:17.000Z</time>
        <extensions>
          <ns3:TrackPointExtension>
            <ns3:atemp>22.0</ns3:atemp>
          </ns3:TrackPointExtension>
        </extensions>
      </trkpt>
      <trkpt lat="42.5147692300379276275634765625" lon="19.77288753725588321685791015625">
        <ele>1848.4000244140625</ele>
        <time>2026-06-18T10:02:18.000Z</time>
        <extensions>
          <ns3:TrackPointExtension>
            <ns3:atemp>22.0</ns3:atemp>
          </ns3:TrackPointExtension>
        </extensions>
      </trkpt>
      <trkpt lat="42.5147692300379276275634765625" lon="19.77288753725588321685791015625">
        <ele>1848.4000244140625</ele>
        <time>2026-06-18T10:02:19.000Z</time>
        <extensions>
          <ns3:TrackPointExtension>
            <ns3:atemp>22.0</ns3:atemp>
          </ns3:TrackPointExtension>
        </extensions>
      </trkpt>
      <trkpt lat="42.5147692300379276275634765625" lon="19.77288753725588321685791015625">
        <ele>1848.4000244140625</ele>
        <time>2026-06-18T10:02:20.000Z</time>
        <extensions>
          <ns3:TrackPointExtension>
            <ns3:atemp>22.0</ns3:atemp>
          </ns3:TrackPointExtension>
        </extensions>
      </trkpt>
      <trkpt lat="42.5147692300379276275634765625" lon="19.77288753725588321685791015625">
        <ele>1848.4000244140625</ele>
        <time>2026-06-18T10:02:21.000Z</time>
        <extensions>
          <ns3:TrackPointExtension>
            <ns3:atemp>22.0</ns3:atemp>
          </ns3:TrackPointExtension>
        </extensions>
      </trkpt>
      <trkpt lat="42.5147692300379276275634765625" lon="19.77288753725588321685791015625">
        <ele>1848.4000244140625</ele>
        <time>2026-06-18T10:02:22.000Z</time>
        <extensions>
          <ns3:TrackPointExtension>
            <ns3:atemp>22.0</ns3:atemp>
          </ns3:TrackPointExtension>
        </extensions>
      </trkpt>
      <trkpt lat="42.5147692300379276275634765625" lon="19.77288753725588321685791015625">
        <ele>1848.4000244140625</ele>
        <time>2026-06-18T10:02:23.000Z</time>
        <extensions>
          <ns3:TrackPointExtension>
            <ns3:atemp>22.0</ns3:atemp>
          </ns3:TrackPointExtension>
        </extensions>
      </trkpt>
      <trkpt lat="42.5147692300379276275634765625" lon="19.77288753725588321685791015625">
        <ele>1848.4000244140625</ele>
        <time>2026-06-18T10:02:24.000Z</time>
        <extensions>
          <ns3:TrackPointExtension>
            <ns3:atemp>22.0</ns3:atemp>
          </ns3:TrackPointExtension>
        </extensions>
      </trkpt>
      <trkpt lat="42.5147692300379276275634765625" lon="19.77288753725588321685791015625">
        <ele>1848.4000244140625</ele>
        <time>2026-06-18T10:02:25.000Z</time>
        <extensions>
          <ns3:TrackPointExtension>
            <ns3:atemp>22.0</ns3:atemp>
          </ns3:TrackPointExtension>
        </extensions>
      </trkpt>
      <trkpt lat="42.5147692300379276275634765625" lon="19.77288753725588321685791015625">
        <ele>1848.4000244140625</ele>
        <time>2026-06-18T10:02:26.000Z</time>
        <extensions>
          <ns3:TrackPointExtension>
            <ns3:atemp>22.0</ns3:atemp>
          </ns3:TrackPointExtension>
        </extensions>
      </trkpt>
      <trkpt lat="42.5147692300379276275634765625" lon="19.77288753725588321685791015625">
        <ele>1848.4000244140625</ele>
        <time>2026-06-18T10:02:27.000Z</time>
        <extensions>
          <ns3:TrackPointExtension>
            <ns3:atemp>22.0</ns3:atemp>
          </ns3:TrackPointExtension>
        </extensions>
      </trkpt>
      <trkpt lat="42.5147692300379276275634765625" lon="19.77288753725588321685791015625">
        <ele>1848.4000244140625</ele>
        <time>2026-06-18T10:02:28.000Z</time>
        <extensions>
          <ns3:TrackPointExtension>
            <ns3:atemp>22.0</ns3:atemp>
          </ns3:TrackPointExtension>
        </extensions>
      </trkpt>
      <trkpt lat="42.5147692300379276275634765625" lon="19.77288753725588321685791015625">
        <ele>1848.5999755859375</ele>
        <time>2026-06-18T10:02:29.000Z</time>
        <extensions>
          <ns3:TrackPointExtension>
            <ns3:atemp>22.0</ns3:atemp>
          </ns3:TrackPointExtension>
        </extensions>
      </trkpt>
      <trkpt lat="42.5147692300379276275634765625" lon="19.77288753725588321685791015625">
        <ele>1848.5999755859375</ele>
        <time>2026-06-18T10:02:30.000Z</time>
        <extensions>
          <ns3:TrackPointExtension>
            <ns3:atemp>22.0</ns3:atemp>
          </ns3:TrackPointExtension>
        </extensions>
      </trkpt>
      <trkpt lat="42.5147692300379276275634765625" lon="19.77288753725588321685791015625">
        <ele>1848.5999755859375</ele>
        <time>2026-06-18T10:02:31.000Z</time>
        <extensions>
          <ns3:TrackPointExtension>
            <ns3:atemp>22.0</ns3:atemp>
          </ns3:TrackPointExtension>
        </extensions>
      </trkpt>
      <trkpt lat="42.5147692300379276275634765625" lon="19.77288753725588321685791015625">
        <ele>1848.5999755859375</ele>
        <time>2026-06-18T10:02:32.000Z</time>
        <extensions>
          <ns3:TrackPointExtension>
            <ns3:atemp>22.0</ns3:atemp>
          </ns3:TrackPointExtension>
        </extensions>
      </trkpt>
      <trkpt lat="42.5147692300379276275634765625" lon="19.77288753725588321685791015625">
        <ele>1848.5999755859375</ele>
        <time>2026-06-18T10:02:33.000Z</time>
        <extensions>
          <ns3:TrackPointExtension>
            <ns3:atemp>22.0</ns3:atemp>
          </ns3:TrackPointExtension>
        </extensions>
      </trkpt>
      <trkpt lat="42.5147692300379276275634765625" lon="19.77288753725588321685791015625">
        <ele>1848.5999755859375</ele>
        <time>2026-06-18T10:02:34.000Z</time>
        <extensions>
          <ns3:TrackPointExtension>
            <ns3:atemp>22.0</ns3:atemp>
          </ns3:TrackPointExtension>
        </extensions>
      </trkpt>
      <trkpt lat="42.5147692300379276275634765625" lon="19.77288753725588321685791015625">
        <ele>1848.5999755859375</ele>
        <time>2026-06-18T10:02:35.000Z</time>
        <extensions>
          <ns3:TrackPointExtension>
            <ns3:atemp>22.0</ns3:atemp>
          </ns3:TrackPointExtension>
        </extensions>
      </trkpt>
      <trkpt lat="42.5147692300379276275634765625" lon="19.77288753725588321685791015625">
        <ele>1848.5999755859375</ele>
        <time>2026-06-18T10:02:36.000Z</time>
        <extensions>
          <ns3:TrackPointExtension>
            <ns3:atemp>22.0</ns3:atemp>
          </ns3:TrackPointExtension>
        </extensions>
      </trkpt>
      <trkpt lat="42.5147692300379276275634765625" lon="19.77288753725588321685791015625">
        <ele>1848.5999755859375</ele>
        <time>2026-06-18T10:02:37.000Z</time>
        <extensions>
          <ns3:TrackPointExtension>
            <ns3:atemp>22.0</ns3:atemp>
          </ns3:TrackPointExtension>
        </extensions>
      </trkpt>
      <trkpt lat="42.5147692300379276275634765625" lon="19.77288753725588321685791015625">
        <ele>1848.5999755859375</ele>
        <time>2026-06-18T10:02:38.000Z</time>
        <extensions>
          <ns3:TrackPointExtension>
            <ns3:atemp>22.0</ns3:atemp>
          </ns3:TrackPointExtension>
        </extensions>
      </trkpt>
      <trkpt lat="42.5147692300379276275634765625" lon="19.77288753725588321685791015625">
        <ele>1848.5999755859375</ele>
        <time>2026-06-18T10:02:39.000Z</time>
        <extensions>
          <ns3:TrackPointExtension>
            <ns3:atemp>22.0</ns3:atemp>
          </ns3:TrackPointExtension>
        </extensions>
      </trkpt>
      <trkpt lat="42.5147692300379276275634765625" lon="19.77288753725588321685791015625">
        <ele>1848.5999755859375</ele>
        <time>2026-06-18T10:02:40.000Z</time>
        <extensions>
          <ns3:TrackPointExtension>
            <ns3:atemp>22.0</ns3:atemp>
          </ns3:TrackPointExtension>
        </extensions>
      </trkpt>
      <trkpt lat="42.5147692300379276275634765625" lon="19.77288753725588321685791015625">
        <ele>1848.5999755859375</ele>
        <time>2026-06-18T10:02:41.000Z</time>
        <extensions>
          <ns3:TrackPointExtension>
            <ns3:atemp>22.0</ns3:atemp>
          </ns3:TrackPointExtension>
        </extensions>
      </trkpt>
      <trkpt lat="42.5147692300379276275634765625" lon="19.77288753725588321685791015625">
        <ele>1848.5999755859375</ele>
        <time>2026-06-18T10:02:42.000Z</time>
        <extensions>
          <ns3:TrackPointExtension>
            <ns3:atemp>22.0</ns3:atemp>
          </ns3:TrackPointExtension>
        </extensions>
      </trkpt>
      <trkpt lat="42.5147692300379276275634765625" lon="19.77288753725588321685791015625">
        <ele>1848.5999755859375</ele>
        <time>2026-06-18T10:02:43.000Z</time>
        <extensions>
          <ns3:TrackPointExtension>
            <ns3:atemp>22.0</ns3:atemp>
          </ns3:TrackPointExtension>
        </extensions>
      </trkpt>
      <trkpt lat="42.5147692300379276275634765625" lon="19.77288753725588321685791015625">
        <ele>1848.5999755859375</ele>
        <time>2026-06-18T10:02:44.000Z</time>
        <extensions>
          <ns3:TrackPointExtension>
            <ns3:atemp>22.0</ns3:atemp>
          </ns3:TrackPointExtension>
        </extensions>
      </trkpt>
      <trkpt lat="42.5147692300379276275634765625" lon="19.77288753725588321685791015625">
        <ele>1848.5999755859375</ele>
        <time>2026-06-18T10:02:45.000Z</time>
        <extensions>
          <ns3:TrackPointExtension>
            <ns3:atemp>22.0</ns3:atemp>
          </ns3:TrackPointExtension>
        </extensions>
      </trkpt>
      <trkpt lat="42.5147692300379276275634765625" lon="19.77288753725588321685791015625">
        <ele>1848.5999755859375</ele>
        <time>2026-06-18T10:02:46.000Z</time>
        <extensions>
          <ns3:TrackPointExtension>
            <ns3:atemp>22.0</ns3:atemp>
          </ns3:TrackPointExtension>
        </extensions>
      </trkpt>
      <trkpt lat="42.5147692300379276275634765625" lon="19.77288753725588321685791015625">
        <ele>1848.5999755859375</ele>
        <time>2026-06-18T10:02:47.000Z</time>
        <extensions>
          <ns3:TrackPointExtension>
            <ns3:atemp>22.0</ns3:atemp>
          </ns3:TrackPointExtension>
        </extensions>
      </trkpt>
      <trkpt lat="42.5147692300379276275634765625" lon="19.77288753725588321685791015625">
        <ele>1848.5999755859375</ele>
        <time>2026-06-18T10:02:48.000Z</time>
        <extensions>
          <ns3:TrackPointExtension>
            <ns3:atemp>22.0</ns3:atemp>
          </ns3:TrackPointExtension>
        </extensions>
      </trkpt>
      <trkpt lat="42.5147692300379276275634765625" lon="19.77288753725588321685791015625">
        <ele>1848.5999755859375</ele>
        <time>2026-06-18T10:02:49.000Z</time>
        <extensions>
          <ns3:TrackPointExtension>
            <ns3:atemp>22.0</ns3:atemp>
          </ns3:TrackPointExtension>
        </extensions>
      </trkpt>
      <trkpt lat="42.5147692300379276275634765625" lon="19.77288753725588321685791015625">
        <ele>1848.5999755859375</ele>
        <time>2026-06-18T10:02:50.000Z</time>
        <extensions>
          <ns3:TrackPointExtension>
            <ns3:atemp>22.0</ns3:atemp>
          </ns3:TrackPointExtension>
        </extensions>
      </trkpt>
      <trkpt lat="42.5147692300379276275634765625" lon="19.77288753725588321685791015625">
        <ele>1848.5999755859375</ele>
        <time>2026-06-18T10:02:51.000Z</time>
        <extensions>
          <ns3:TrackPointExtension>
            <ns3:atemp>22.0</ns3:atemp>
          </ns3:TrackPointExtension>
        </extensions>
      </trkpt>
      <trkpt lat="42.5147692300379276275634765625" lon="19.77288753725588321685791015625">
        <ele>1848.5999755859375</ele>
        <time>2026-06-18T10:02:52.000Z</time>
        <extensions>
          <ns3:TrackPointExtension>
            <ns3:atemp>22.0</ns3:atemp>
          </ns3:TrackPointExtension>
        </extensions>
      </trkpt>
      <trkpt lat="42.5147692300379276275634765625" lon="19.77288753725588321685791015625">
        <ele>1848.5999755859375</ele>
        <time>2026-06-18T10:02:53.000Z</time>
        <extensions>
          <ns3:TrackPointExtension>
            <ns3:atemp>22.0</ns3:atemp>
          </ns3:TrackPointExtension>
        </extensions>
      </trkpt>
      <trkpt lat="42.5147692300379276275634765625" lon="19.77288753725588321685791015625">
        <ele>1848.5999755859375</ele>
        <time>2026-06-18T10:02:54.000Z</time>
        <extensions>
          <ns3:TrackPointExtension>
            <ns3:atemp>22.0</ns3:atemp>
          </ns3:TrackPointExtension>
        </extensions>
      </trkpt>
      <trkpt lat="42.5147692300379276275634765625" lon="19.77288753725588321685791015625">
        <ele>1848.5999755859375</ele>
        <time>2026-06-18T10:02:55.000Z</time>
        <extensions>
          <ns3:TrackPointExtension>
            <ns3:atemp>22.0</ns3:atemp>
          </ns3:TrackPointExtension>
        </extensions>
      </trkpt>
      <trkpt lat="42.5147692300379276275634765625" lon="19.77288753725588321685791015625">
        <ele>1848.5999755859375</ele>
        <time>2026-06-18T10:02:56.000Z</time>
        <extensions>
          <ns3:TrackPointExtension>
            <ns3:atemp>22.0</ns3:atemp>
          </ns3:TrackPointExtension>
        </extensions>
      </trkpt>
      <trkpt lat="42.5147692300379276275634765625" lon="19.77288753725588321685791015625">
        <ele>1848.5999755859375</ele>
        <time>2026-06-18T10:02:57.000Z</time>
        <extensions>
          <ns3:TrackPointExtension>
            <ns3:atemp>22.0</ns3:atemp>
          </ns3:TrackPointExtension>
        </extensions>
      </trkpt>
      <trkpt lat="42.5147692300379276275634765625" lon="19.77288753725588321685791015625">
        <ele>1848.5999755859375</ele>
        <time>2026-06-18T10:02:58.000Z</time>
        <extensions>
          <ns3:TrackPointExtension>
            <ns3:atemp>22.0</ns3:atemp>
          </ns3:TrackPointExtension>
        </extensions>
      </trkpt>
      <trkpt lat="42.5147692300379276275634765625" lon="19.77288753725588321685791015625">
        <ele>1848.5999755859375</ele>
        <time>2026-06-18T10:02:59.000Z</time>
        <extensions>
          <ns3:TrackPointExtension>
            <ns3:atemp>22.0</ns3:atemp>
          </ns3:TrackPointExtension>
        </extensions>
      </trkpt>
      <trkpt lat="42.5147692300379276275634765625" lon="19.77288753725588321685791015625">
        <ele>1848.5999755859375</ele>
        <time>2026-06-18T10:03:00.000Z</time>
        <extensions>
          <ns3:TrackPointExtension>
            <ns3:atemp>22.0</ns3:atemp>
          </ns3:TrackPointExtension>
        </extensions>
      </trkpt>
      <trkpt lat="42.5147692300379276275634765625" lon="19.77288753725588321685791015625">
        <ele>1848.5999755859375</ele>
        <time>2026-06-18T10:03:01.000Z</time>
        <extensions>
          <ns3:TrackPointExtension>
            <ns3:atemp>22.0</ns3:atemp>
          </ns3:TrackPointExtension>
        </extensions>
      </trkpt>
      <trkpt lat="42.5147692300379276275634765625" lon="19.77288753725588321685791015625">
        <ele>1848.5999755859375</ele>
        <time>2026-06-18T10:03:02.000Z</time>
        <extensions>
          <ns3:TrackPointExtension>
            <ns3:atemp>22.0</ns3:atemp>
          </ns3:TrackPointExtension>
        </extensions>
      </trkpt>
      <trkpt lat="42.5147692300379276275634765625" lon="19.77288753725588321685791015625">
        <ele>1848.5999755859375</ele>
        <time>2026-06-18T10:03:03.000Z</time>
        <extensions>
          <ns3:TrackPointExtension>
            <ns3:atemp>22.0</ns3:atemp>
          </ns3:TrackPointExtension>
        </extensions>
      </trkpt>
      <trkpt lat="42.5147692300379276275634765625" lon="19.77288753725588321685791015625">
        <ele>1848.5999755859375</ele>
        <time>2026-06-18T10:03:04.000Z</time>
        <extensions>
          <ns3:TrackPointExtension>
            <ns3:atemp>22.0</ns3:atemp>
          </ns3:TrackPointExtension>
        </extensions>
      </trkpt>
      <trkpt lat="42.5147692300379276275634765625" lon="19.77288753725588321685791015625">
        <ele>1848.5999755859375</ele>
        <time>2026-06-18T10:03:05.000Z</time>
        <extensions>
          <ns3:TrackPointExtension>
            <ns3:atemp>22.0</ns3:atemp>
          </ns3:TrackPointExtension>
        </extensions>
      </trkpt>
      <trkpt lat="42.5147692300379276275634765625" lon="19.77288753725588321685791015625">
        <ele>1848.5999755859375</ele>
        <time>2026-06-18T10:03:06.000Z</time>
        <extensions>
          <ns3:TrackPointExtension>
            <ns3:atemp>22.0</ns3:atemp>
          </ns3:TrackPointExtension>
        </extensions>
      </trkpt>
      <trkpt lat="42.5147692300379276275634765625" lon="19.77288753725588321685791015625">
        <ele>1848.5999755859375</ele>
        <time>2026-06-18T10:03:07.000Z</time>
        <extensions>
          <ns3:TrackPointExtension>
            <ns3:atemp>22.0</ns3:atemp>
          </ns3:TrackPointExtension>
        </extensions>
      </trkpt>
      <trkpt lat="42.5147692300379276275634765625" lon="19.77288753725588321685791015625">
        <ele>1848.5999755859375</ele>
        <time>2026-06-18T10:03:08.000Z</time>
        <extensions>
          <ns3:TrackPointExtension>
            <ns3:atemp>22.0</ns3:atemp>
          </ns3:TrackPointExtension>
        </extensions>
      </trkpt>
      <trkpt lat="42.5147692300379276275634765625" lon="19.77288753725588321685791015625">
        <ele>1848.5999755859375</ele>
        <time>2026-06-18T10:03:09.000Z</time>
        <extensions>
          <ns3:TrackPointExtension>
            <ns3:atemp>22.0</ns3:atemp>
          </ns3:TrackPointExtension>
        </extensions>
      </trkpt>
      <trkpt lat="42.5147692300379276275634765625" lon="19.77288753725588321685791015625">
        <ele>1848.5999755859375</ele>
        <time>2026-06-18T10:03:10.000Z</time>
        <extensions>
          <ns3:TrackPointExtension>
            <ns3:atemp>22.0</ns3:atemp>
          </ns3:TrackPointExtension>
        </extensions>
      </trkpt>
      <trkpt lat="42.5147692300379276275634765625" lon="19.77288753725588321685791015625">
        <ele>1848.5999755859375</ele>
        <time>2026-06-18T10:03:11.000Z</time>
        <extensions>
          <ns3:TrackPointExtension>
            <ns3:atemp>22.0</ns3:atemp>
          </ns3:TrackPointExtension>
        </extensions>
      </trkpt>
      <trkpt lat="42.5147692300379276275634765625" lon="19.77288753725588321685791015625">
        <ele>1848.5999755859375</ele>
        <time>2026-06-18T10:03:12.000Z</time>
        <extensions>
          <ns3:TrackPointExtension>
            <ns3:atemp>22.0</ns3:atemp>
          </ns3:TrackPointExtension>
        </extensions>
      </trkpt>
      <trkpt lat="42.5147692300379276275634765625" lon="19.77288753725588321685791015625">
        <ele>1848.5999755859375</ele>
        <time>2026-06-18T10:03:13.000Z</time>
        <extensions>
          <ns3:TrackPointExtension>
            <ns3:atemp>22.0</ns3:atemp>
          </ns3:TrackPointExtension>
        </extensions>
      </trkpt>
      <trkpt lat="42.5147692300379276275634765625" lon="19.77288753725588321685791015625">
        <ele>1848.5999755859375</ele>
        <time>2026-06-18T10:03:14.000Z</time>
        <extensions>
          <ns3:TrackPointExtension>
            <ns3:atemp>22.0</ns3:atemp>
          </ns3:TrackPointExtension>
        </extensions>
      </trkpt>
      <trkpt lat="42.5147692300379276275634765625" lon="19.77288753725588321685791015625">
        <ele>1848.5999755859375</ele>
        <time>2026-06-18T10:03:15.000Z</time>
        <extensions>
          <ns3:TrackPointExtension>
            <ns3:atemp>22.0</ns3:atemp>
          </ns3:TrackPointExtension>
        </extensions>
      </trkpt>
      <trkpt lat="42.5147692300379276275634765625" lon="19.77288753725588321685791015625">
        <ele>1848.5999755859375</ele>
        <time>2026-06-18T10:03:16.000Z</time>
        <extensions>
          <ns3:TrackPointExtension>
            <ns3:atemp>22.0</ns3:atemp>
          </ns3:TrackPointExtension>
        </extensions>
      </trkpt>
      <trkpt lat="42.5147692300379276275634765625" lon="19.77288753725588321685791015625">
        <ele>1848.5999755859375</ele>
        <time>2026-06-18T10:03:17.000Z</time>
        <extensions>
          <ns3:TrackPointExtension>
            <ns3:atemp>22.0</ns3:atemp>
          </ns3:TrackPointExtension>
        </extensions>
      </trkpt>
      <trkpt lat="42.5147692300379276275634765625" lon="19.77288753725588321685791015625">
        <ele>1848.5999755859375</ele>
        <time>2026-06-18T10:03:18.000Z</time>
        <extensions>
          <ns3:TrackPointExtension>
            <ns3:atemp>22.0</ns3:atemp>
          </ns3:TrackPointExtension>
        </extensions>
      </trkpt>
      <trkpt lat="42.5147692300379276275634765625" lon="19.77288753725588321685791015625">
        <ele>1848.5999755859375</ele>
        <time>2026-06-18T10:03:19.000Z</time>
        <extensions>
          <ns3:TrackPointExtension>
            <ns3:atemp>22.0</ns3:atemp>
          </ns3:TrackPointExtension>
        </extensions>
      </trkpt>
      <trkpt lat="42.5147692300379276275634765625" lon="19.77288753725588321685791015625">
        <ele>1848.5999755859375</ele>
        <time>2026-06-18T10:03:20.000Z</time>
        <extensions>
          <ns3:TrackPointExtension>
            <ns3:atemp>22.0</ns3:atemp>
          </ns3:TrackPointExtension>
        </extensions>
      </trkpt>
      <trkpt lat="42.5147692300379276275634765625" lon="19.77288753725588321685791015625">
        <ele>1848.5999755859375</ele>
        <time>2026-06-18T10:03:21.000Z</time>
        <extensions>
          <ns3:TrackPointExtension>
            <ns3:atemp>22.0</ns3:atemp>
          </ns3:TrackPointExtension>
        </extensions>
      </trkpt>
      <trkpt lat="42.5147692300379276275634765625" lon="19.77288753725588321685791015625">
        <ele>1848.5999755859375</ele>
        <time>2026-06-18T10:03:22.000Z</time>
        <extensions>
          <ns3:TrackPointExtension>
            <ns3:atemp>22.0</ns3:atemp>
          </ns3:TrackPointExtension>
        </extensions>
      </trkpt>
      <trkpt lat="42.5147692300379276275634765625" lon="19.77288753725588321685791015625">
        <ele>1848.5999755859375</ele>
        <time>2026-06-18T10:03:23.000Z</time>
        <extensions>
          <ns3:TrackPointExtension>
            <ns3:atemp>22.0</ns3:atemp>
          </ns3:TrackPointExtension>
        </extensions>
      </trkpt>
      <trkpt lat="42.5147692300379276275634765625" lon="19.77288753725588321685791015625">
        <ele>1848.5999755859375</ele>
        <time>2026-06-18T10:03:24.000Z</time>
        <extensions>
          <ns3:TrackPointExtension>
            <ns3:atemp>22.0</ns3:atemp>
          </ns3:TrackPointExtension>
        </extensions>
      </trkpt>
      <trkpt lat="42.5147692300379276275634765625" lon="19.77288753725588321685791015625">
        <ele>1848.5999755859375</ele>
        <time>2026-06-18T10:03:25.000Z</time>
        <extensions>
          <ns3:TrackPointExtension>
            <ns3:atemp>22.0</ns3:atemp>
          </ns3:TrackPointExtension>
        </extensions>
      </trkpt>
      <trkpt lat="42.5147692300379276275634765625" lon="19.77288753725588321685791015625">
        <ele>1848.5999755859375</ele>
        <time>2026-06-18T10:03:26.000Z</time>
        <extensions>
          <ns3:TrackPointExtension>
            <ns3:atemp>22.0</ns3:atemp>
          </ns3:TrackPointExtension>
        </extensions>
      </trkpt>
      <trkpt lat="42.5147692300379276275634765625" lon="19.77288753725588321685791015625">
        <ele>1848.5999755859375</ele>
        <time>2026-06-18T10:03:27.000Z</time>
        <extensions>
          <ns3:TrackPointExtension>
            <ns3:atemp>22.0</ns3:atemp>
          </ns3:TrackPointExtension>
        </extensions>
      </trkpt>
      <trkpt lat="42.5147692300379276275634765625" lon="19.77288753725588321685791015625">
        <ele>1848.5999755859375</ele>
        <time>2026-06-18T10:03:28.000Z</time>
        <extensions>
          <ns3:TrackPointExtension>
            <ns3:atemp>22.0</ns3:atemp>
          </ns3:TrackPointExtension>
        </extensions>
      </trkpt>
      <trkpt lat="42.5147692300379276275634765625" lon="19.77288753725588321685791015625">
        <ele>1848.5999755859375</ele>
        <time>2026-06-18T10:03:29.000Z</time>
        <extensions>
          <ns3:TrackPointExtension>
            <ns3:atemp>22.0</ns3:atemp>
          </ns3:TrackPointExtension>
        </extensions>
      </trkpt>
      <trkpt lat="42.5147692300379276275634765625" lon="19.77288753725588321685791015625">
        <ele>1848.5999755859375</ele>
        <time>2026-06-18T10:03:30.000Z</time>
        <extensions>
          <ns3:TrackPointExtension>
            <ns3:atemp>22.0</ns3:atemp>
          </ns3:TrackPointExtension>
        </extensions>
      </trkpt>
      <trkpt lat="42.5147692300379276275634765625" lon="19.77288753725588321685791015625">
        <ele>1848.5999755859375</ele>
        <time>2026-06-18T10:03:31.000Z</time>
        <extensions>
          <ns3:TrackPointExtension>
            <ns3:atemp>22.0</ns3:atemp>
          </ns3:TrackPointExtension>
        </extensions>
      </trkpt>
      <trkpt lat="42.5147692300379276275634765625" lon="19.77288753725588321685791015625">
        <ele>1848.5999755859375</ele>
        <time>2026-06-18T10:03:32.000Z</time>
        <extensions>
          <ns3:TrackPointExtension>
            <ns3:atemp>22.0</ns3:atemp>
          </ns3:TrackPointExtension>
        </extensions>
      </trkpt>
      <trkpt lat="42.5147692300379276275634765625" lon="19.77288753725588321685791015625">
        <ele>1848.5999755859375</ele>
        <time>2026-06-18T10:03:33.000Z</time>
        <extensions>
          <ns3:TrackPointExtension>
            <ns3:atemp>22.0</ns3:atemp>
          </ns3:TrackPointExtension>
        </extensions>
      </trkpt>
      <trkpt lat="42.5147692300379276275634765625" lon="19.77288753725588321685791015625">
        <ele>1848.5999755859375</ele>
        <time>2026-06-18T10:03:34.000Z</time>
        <extensions>
          <ns3:TrackPointExtension>
            <ns3:atemp>22.0</ns3:atemp>
          </ns3:TrackPointExtension>
        </extensions>
      </trkpt>
      <trkpt lat="42.5147692300379276275634765625" lon="19.77288753725588321685791015625">
        <ele>1848.5999755859375</ele>
        <time>2026-06-18T10:03:35.000Z</time>
        <extensions>
          <ns3:TrackPointExtension>
            <ns3:atemp>22.0</ns3:atemp>
          </ns3:TrackPointExtension>
        </extensions>
      </trkpt>
      <trkpt lat="42.5147692300379276275634765625" lon="19.77288753725588321685791015625">
        <ele>1848.5999755859375</ele>
        <time>2026-06-18T10:03:36.000Z</time>
        <extensions>
          <ns3:TrackPointExtension>
            <ns3:atemp>22.0</ns3:atemp>
          </ns3:TrackPointExtension>
        </extensions>
      </trkpt>
      <trkpt lat="42.5147692300379276275634765625" lon="19.77288753725588321685791015625">
        <ele>1848.5999755859375</ele>
        <time>2026-06-18T10:03:37.000Z</time>
        <extensions>
          <ns3:TrackPointExtension>
            <ns3:atemp>22.0</ns3:atemp>
          </ns3:TrackPointExtension>
        </extensions>
      </trkpt>
      <trkpt lat="42.5147692300379276275634765625" lon="19.77288753725588321685791015625">
        <ele>1848.5999755859375</ele>
        <time>2026-06-18T10:03:38.000Z</time>
        <extensions>
          <ns3:TrackPointExtension>
            <ns3:atemp>22.0</ns3:atemp>
          </ns3:TrackPointExtension>
        </extensions>
      </trkpt>
      <trkpt lat="42.5147692300379276275634765625" lon="19.77288753725588321685791015625">
        <ele>1848.5999755859375</ele>
        <time>2026-06-18T10:03:39.000Z</time>
        <extensions>
          <ns3:TrackPointExtension>
            <ns3:atemp>22.0</ns3:atemp>
          </ns3:TrackPointExtension>
        </extensions>
      </trkpt>
      <trkpt lat="42.5147692300379276275634765625" lon="19.77288753725588321685791015625">
        <ele>1848.5999755859375</ele>
        <time>2026-06-18T10:03:40.000Z</time>
        <extensions>
          <ns3:TrackPointExtension>
            <ns3:atemp>22.0</ns3:atemp>
          </ns3:TrackPointExtension>
        </extensions>
      </trkpt>
      <trkpt lat="42.5147692300379276275634765625" lon="19.77288753725588321685791015625">
        <ele>1848.5999755859375</ele>
        <time>2026-06-18T10:03:41.000Z</time>
        <extensions>
          <ns3:TrackPointExtension>
            <ns3:atemp>22.0</ns3:atemp>
          </ns3:TrackPointExtension>
        </extensions>
      </trkpt>
      <trkpt lat="42.5147692300379276275634765625" lon="19.77288753725588321685791015625">
        <ele>1848.5999755859375</ele>
        <time>2026-06-18T10:03:42.000Z</time>
        <extensions>
          <ns3:TrackPointExtension>
            <ns3:atemp>22.0</ns3:atemp>
          </ns3:TrackPointExtension>
        </extensions>
      </trkpt>
      <trkpt lat="42.5147692300379276275634765625" lon="19.77288753725588321685791015625">
        <ele>1848.5999755859375</ele>
        <time>2026-06-18T10:03:43.000Z</time>
        <extensions>
          <ns3:TrackPointExtension>
            <ns3:atemp>22.0</ns3:atemp>
          </ns3:TrackPointExtension>
        </extensions>
      </trkpt>
      <trkpt lat="42.5147692300379276275634765625" lon="19.77288753725588321685791015625">
        <ele>1848.5999755859375</ele>
        <time>2026-06-18T10:03:44.000Z</time>
        <extensions>
          <ns3:TrackPointExtension>
            <ns3:atemp>22.0</ns3:atemp>
          </ns3:TrackPointExtension>
        </extensions>
      </trkpt>
      <trkpt lat="42.5147692300379276275634765625" lon="19.77288753725588321685791015625">
        <ele>1848.5999755859375</ele>
        <time>2026-06-18T10:03:45.000Z</time>
        <extensions>
          <ns3:TrackPointExtension>
            <ns3:atemp>22.0</ns3:atemp>
          </ns3:TrackPointExtension>
        </extensions>
      </trkpt>
      <trkpt lat="42.5147692300379276275634765625" lon="19.77288753725588321685791015625">
        <ele>1848.5999755859375</ele>
        <time>2026-06-18T10:03:46.000Z</time>
        <extensions>
          <ns3:TrackPointExtension>
            <ns3:atemp>22.0</ns3:atemp>
          </ns3:TrackPointExtension>
        </extensions>
      </trkpt>
      <trkpt lat="42.5147692300379276275634765625" lon="19.77288753725588321685791015625">
        <ele>1848.5999755859375</ele>
        <time>2026-06-18T10:03:47.000Z</time>
        <extensions>
          <ns3:TrackPointExtension>
            <ns3:atemp>22.0</ns3:atemp>
          </ns3:TrackPointExtension>
        </extensions>
      </trkpt>
      <trkpt lat="42.5147692300379276275634765625" lon="19.77288753725588321685791015625">
        <ele>1848.5999755859375</ele>
        <time>2026-06-18T10:03:48.000Z</time>
        <extensions>
          <ns3:TrackPointExtension>
            <ns3:atemp>22.0</ns3:atemp>
          </ns3:TrackPointExtension>
        </extensions>
      </trkpt>
      <trkpt lat="42.5147692300379276275634765625" lon="19.77288753725588321685791015625">
        <ele>1848.5999755859375</ele>
        <time>2026-06-18T10:03:49.000Z</time>
        <extensions>
          <ns3:TrackPointExtension>
            <ns3:atemp>22.0</ns3:atemp>
          </ns3:TrackPointExtension>
        </extensions>
      </trkpt>
      <trkpt lat="42.5147692300379276275634765625" lon="19.77288753725588321685791015625">
        <ele>1848.5999755859375</ele>
        <time>2026-06-18T10:03:50.000Z</time>
        <extensions>
          <ns3:TrackPointExtension>
            <ns3:atemp>22.0</ns3:atemp>
          </ns3:TrackPointExtension>
        </extensions>
      </trkpt>
      <trkpt lat="42.5147692300379276275634765625" lon="19.77288753725588321685791015625">
        <ele>1848.5999755859375</ele>
        <time>2026-06-18T10:03:51.000Z</time>
        <extensions>
          <ns3:TrackPointExtension>
            <ns3:atemp>22.0</ns3:atemp>
          </ns3:TrackPointExtension>
        </extensions>
      </trkpt>
      <trkpt lat="42.5147692300379276275634765625" lon="19.77288753725588321685791015625">
        <ele>1848.5999755859375</ele>
        <time>2026-06-18T10:03:52.000Z</time>
        <extensions>
          <ns3:TrackPointExtension>
            <ns3:atemp>22.0</ns3:atemp>
          </ns3:TrackPointExtension>
        </extensions>
      </trkpt>
      <trkpt lat="42.5147692300379276275634765625" lon="19.77288753725588321685791015625">
        <ele>1848.5999755859375</ele>
        <time>2026-06-18T10:03:53.000Z</time>
        <extensions>
          <ns3:TrackPointExtension>
            <ns3:atemp>22.0</ns3:atemp>
          </ns3:TrackPointExtension>
        </extensions>
      </trkpt>
      <trkpt lat="42.5147692300379276275634765625" lon="19.77288753725588321685791015625">
        <ele>1848.5999755859375</ele>
        <time>2026-06-18T10:03:54.000Z</time>
        <extensions>
          <ns3:TrackPointExtension>
            <ns3:atemp>22.0</ns3:atemp>
          </ns3:TrackPointExtension>
        </extensions>
      </trkpt>
      <trkpt lat="42.5147692300379276275634765625" lon="19.77288753725588321685791015625">
        <ele>1848.5999755859375</ele>
        <time>2026-06-18T10:03:55.000Z</time>
        <extensions>
          <ns3:TrackPointExtension>
            <ns3:atemp>22.0</ns3:atemp>
          </ns3:TrackPointExtension>
        </extensions>
      </trkpt>
      <trkpt lat="42.5147692300379276275634765625" lon="19.77288753725588321685791015625">
        <ele>1848.5999755859375</ele>
        <time>2026-06-18T10:03:56.000Z</time>
        <extensions>
          <ns3:TrackPointExtension>
            <ns3:atemp>22.0</ns3:atemp>
          </ns3:TrackPointExtension>
        </extensions>
      </trkpt>
      <trkpt lat="42.5147692300379276275634765625" lon="19.77288753725588321685791015625">
        <ele>1848.5999755859375</ele>
        <time>2026-06-18T10:03:57.000Z</time>
        <extensions>
          <ns3:TrackPointExtension>
            <ns3:atemp>22.0</ns3:atemp>
          </ns3:TrackPointExtension>
        </extensions>
      </trkpt>
      <trkpt lat="42.5147692300379276275634765625" lon="19.77288753725588321685791015625">
        <ele>1848.5999755859375</ele>
        <time>2026-06-18T10:03:58.000Z</time>
        <extensions>
          <ns3:TrackPointExtension>
            <ns3:atemp>22.0</ns3:atemp>
          </ns3:TrackPointExtension>
        </extensions>
      </trkpt>
      <trkpt lat="42.5147692300379276275634765625" lon="19.77288753725588321685791015625">
        <ele>1848.5999755859375</ele>
        <time>2026-06-18T10:03:59.000Z</time>
        <extensions>
          <ns3:TrackPointExtension>
            <ns3:atemp>22.0</ns3:atemp>
          </ns3:TrackPointExtension>
        </extensions>
      </trkpt>
      <trkpt lat="42.5147692300379276275634765625" lon="19.77288753725588321685791015625">
        <ele>1848.5999755859375</ele>
        <time>2026-06-18T10:04:00.000Z</time>
        <extensions>
          <ns3:TrackPointExtension>
            <ns3:atemp>22.0</ns3:atemp>
          </ns3:TrackPointExtension>
        </extensions>
      </trkpt>
      <trkpt lat="42.5147692300379276275634765625" lon="19.77288753725588321685791015625">
        <ele>1848.5999755859375</ele>
        <time>2026-06-18T10:04:01.000Z</time>
        <extensions>
          <ns3:TrackPointExtension>
            <ns3:atemp>22.0</ns3:atemp>
          </ns3:TrackPointExtension>
        </extensions>
      </trkpt>
      <trkpt lat="42.5147692300379276275634765625" lon="19.77288753725588321685791015625">
        <ele>1848.5999755859375</ele>
        <time>2026-06-18T10:04:02.000Z</time>
        <extensions>
          <ns3:TrackPointExtension>
            <ns3:atemp>22.0</ns3:atemp>
          </ns3:TrackPointExtension>
        </extensions>
      </trkpt>
      <trkpt lat="42.5147692300379276275634765625" lon="19.77288753725588321685791015625">
        <ele>1848.5999755859375</ele>
        <time>2026-06-18T10:04:03.000Z</time>
        <extensions>
          <ns3:TrackPointExtension>
            <ns3:atemp>22.0</ns3:atemp>
          </ns3:TrackPointExtension>
        </extensions>
      </trkpt>
      <trkpt lat="42.5147692300379276275634765625" lon="19.77288753725588321685791015625">
        <ele>1848.5999755859375</ele>
        <time>2026-06-18T10:04:04.000Z</time>
        <extensions>
          <ns3:TrackPointExtension>
            <ns3:atemp>22.0</ns3:atemp>
          </ns3:TrackPointExtension>
        </extensions>
      </trkpt>
      <trkpt lat="42.5147692300379276275634765625" lon="19.77288753725588321685791015625">
        <ele>1848.5999755859375</ele>
        <time>2026-06-18T10:04:05.000Z</time>
        <extensions>
          <ns3:TrackPointExtension>
            <ns3:atemp>22.0</ns3:atemp>
          </ns3:TrackPointExtension>
        </extensions>
      </trkpt>
      <trkpt lat="42.5147692300379276275634765625" lon="19.77288753725588321685791015625">
        <ele>1848.5999755859375</ele>
        <time>2026-06-18T10:04:06.000Z</time>
        <extensions>
          <ns3:TrackPointExtension>
            <ns3:atemp>22.0</ns3:atemp>
          </ns3:TrackPointExtension>
        </extensions>
      </trkpt>
      <trkpt lat="42.5147692300379276275634765625" lon="19.77288753725588321685791015625">
        <ele>1848.5999755859375</ele>
        <time>2026-06-18T10:04:07.000Z</time>
        <extensions>
          <ns3:TrackPointExtension>
            <ns3:atemp>22.0</ns3:atemp>
          </ns3:TrackPointExtension>
        </extensions>
      </trkpt>
      <trkpt lat="42.5147692300379276275634765625" lon="19.77288753725588321685791015625">
        <ele>1848.5999755859375</ele>
        <time>2026-06-18T10:04:08.000Z</time>
        <extensions>
          <ns3:TrackPointExtension>
            <ns3:atemp>22.0</ns3:atemp>
          </ns3:TrackPointExtension>
        </extensions>
      </trkpt>
      <trkpt lat="42.5147692300379276275634765625" lon="19.77288753725588321685791015625">
        <ele>1848.5999755859375</ele>
        <time>2026-06-18T10:04:09.000Z</time>
        <extensions>
          <ns3:TrackPointExtension>
            <ns3:atemp>22.0</ns3:atemp>
          </ns3:TrackPointExtension>
        </extensions>
      </trkpt>
      <trkpt lat="42.5147692300379276275634765625" lon="19.77288753725588321685791015625">
        <ele>1848.5999755859375</ele>
        <time>2026-06-18T10:04:10.000Z</time>
        <extensions>
          <ns3:TrackPointExtension>
            <ns3:atemp>22.0</ns3:atemp>
          </ns3:TrackPointExtension>
        </extensions>
      </trkpt>
      <trkpt lat="42.5147692300379276275634765625" lon="19.77288753725588321685791015625">
        <ele>1848.5999755859375</ele>
        <time>2026-06-18T10:04:11.000Z</time>
        <extensions>
          <ns3:TrackPointExtension>
            <ns3:atemp>22.0</ns3:atemp>
          </ns3:TrackPointExtension>
        </extensions>
      </trkpt>
      <trkpt lat="42.5147692300379276275634765625" lon="19.77288753725588321685791015625">
        <ele>1848.5999755859375</ele>
        <time>2026-06-18T10:04:12.000Z</time>
        <extensions>
          <ns3:TrackPointExtension>
            <ns3:atemp>22.0</ns3:atemp>
          </ns3:TrackPointExtension>
        </extensions>
      </trkpt>
      <trkpt lat="42.5147692300379276275634765625" lon="19.77288753725588321685791015625">
        <ele>1848.5999755859375</ele>
        <time>2026-06-18T10:04:13.000Z</time>
        <extensions>
          <ns3:TrackPointExtension>
            <ns3:atemp>22.0</ns3:atemp>
          </ns3:TrackPointExtension>
        </extensions>
      </trkpt>
      <trkpt lat="42.5147692300379276275634765625" lon="19.77288753725588321685791015625">
        <ele>1848.5999755859375</ele>
        <time>2026-06-18T10:04:14.000Z</time>
        <extensions>
          <ns3:TrackPointExtension>
            <ns3:atemp>22.0</ns3:atemp>
          </ns3:TrackPointExtension>
        </extensions>
      </trkpt>
      <trkpt lat="42.5147692300379276275634765625" lon="19.77288753725588321685791015625">
        <ele>1848.5999755859375</ele>
        <time>2026-06-18T10:04:15.000Z</time>
        <extensions>
          <ns3:TrackPointExtension>
            <ns3:atemp>22.0</ns3:atemp>
          </ns3:TrackPointExtension>
        </extensions>
      </trkpt>
      <trkpt lat="42.5147692300379276275634765625" lon="19.77288753725588321685791015625">
        <ele>1848.5999755859375</ele>
        <time>2026-06-18T10:04:16.000Z</time>
        <extensions>
          <ns3:TrackPointExtension>
            <ns3:atemp>22.0</ns3:atemp>
          </ns3:TrackPointExtension>
        </extensions>
      </trkpt>
      <trkpt lat="42.5147692300379276275634765625" lon="19.77288753725588321685791015625">
        <ele>1848.5999755859375</ele>
        <time>2026-06-18T10:04:17.000Z</time>
        <extensions>
          <ns3:TrackPointExtension>
            <ns3:atemp>22.0</ns3:atemp>
          </ns3:TrackPointExtension>
        </extensions>
      </trkpt>
      <trkpt lat="42.5147692300379276275634765625" lon="19.77288753725588321685791015625">
        <ele>1848.5999755859375</ele>
        <time>2026-06-18T10:04:18.000Z</time>
        <extensions>
          <ns3:TrackPointExtension>
            <ns3:atemp>22.0</ns3:atemp>
          </ns3:TrackPointExtension>
        </extensions>
      </trkpt>
      <trkpt lat="42.5147692300379276275634765625" lon="19.77288753725588321685791015625">
        <ele>1848.5999755859375</ele>
        <time>2026-06-18T10:04:19.000Z</time>
        <extensions>
          <ns3:TrackPointExtension>
            <ns3:atemp>22.0</ns3:atemp>
          </ns3:TrackPointExtension>
        </extensions>
      </trkpt>
      <trkpt lat="42.5147692300379276275634765625" lon="19.77288753725588321685791015625">
        <ele>1848.5999755859375</ele>
        <time>2026-06-18T10:04:20.000Z</time>
        <extensions>
          <ns3:TrackPointExtension>
            <ns3:atemp>22.0</ns3:atemp>
          </ns3:TrackPointExtension>
        </extensions>
      </trkpt>
      <trkpt lat="42.5147692300379276275634765625" lon="19.77288753725588321685791015625">
        <ele>1848.5999755859375</ele>
        <time>2026-06-18T10:04:21.000Z</time>
        <extensions>
          <ns3:TrackPointExtension>
            <ns3:atemp>22.0</ns3:atemp>
          </ns3:TrackPointExtension>
        </extensions>
      </trkpt>
      <trkpt lat="42.5147692300379276275634765625" lon="19.77288753725588321685791015625">
        <ele>1848.5999755859375</ele>
        <time>2026-06-18T10:04:22.000Z</time>
        <extensions>
          <ns3:TrackPointExtension>
            <ns3:atemp>22.0</ns3:atemp>
          </ns3:TrackPointExtension>
        </extensions>
      </trkpt>
      <trkpt lat="42.5147692300379276275634765625" lon="19.77288753725588321685791015625">
        <ele>1848.5999755859375</ele>
        <time>2026-06-18T10:04:23.000Z</time>
        <extensions>
          <ns3:TrackPointExtension>
            <ns3:atemp>22.0</ns3:atemp>
          </ns3:TrackPointExtension>
        </extensions>
      </trkpt>
      <trkpt lat="42.5147692300379276275634765625" lon="19.77288753725588321685791015625">
        <ele>1848.5999755859375</ele>
        <time>2026-06-18T10:04:24.000Z</time>
        <extensions>
          <ns3:TrackPointExtension>
            <ns3:atemp>22.0</ns3:atemp>
          </ns3:TrackPointExtension>
        </extensions>
      </trkpt>
      <trkpt lat="42.5147692300379276275634765625" lon="19.77288753725588321685791015625">
        <ele>1848.5999755859375</ele>
        <time>2026-06-18T10:04:25.000Z</time>
        <extensions>
          <ns3:TrackPointExtension>
            <ns3:atemp>22.0</ns3:atemp>
          </ns3:TrackPointExtension>
        </extensions>
      </trkpt>
      <trkpt lat="42.5147692300379276275634765625" lon="19.77288753725588321685791015625">
        <ele>1848.5999755859375</ele>
        <time>2026-06-18T10:04:26.000Z</time>
        <extensions>
          <ns3:TrackPointExtension>
            <ns3:atemp>22.0</ns3:atemp>
          </ns3:TrackPointExtension>
        </extensions>
      </trkpt>
      <trkpt lat="42.5147692300379276275634765625" lon="19.77288753725588321685791015625">
        <ele>1848.5999755859375</ele>
        <time>2026-06-18T10:04:27.000Z</time>
        <extensions>
          <ns3:TrackPointExtension>
            <ns3:atemp>22.0</ns3:atemp>
          </ns3:TrackPointExtension>
        </extensions>
      </trkpt>
      <trkpt lat="42.5147692300379276275634765625" lon="19.77288753725588321685791015625">
        <ele>1846.4000244140625</ele>
        <time>2026-06-18T10:04:28.000Z</time>
        <extensions>
          <ns3:TrackPointExtension>
            <ns3:atemp>22.0</ns3:atemp>
          </ns3:TrackPointExtension>
        </extensions>
      </trkpt>
      <trkpt lat="42.5147692300379276275634765625" lon="19.77288753725588321685791015625">
        <ele>1846.199951171875</ele>
        <time>2026-06-18T10:04:29.000Z</time>
        <extensions>
          <ns3:TrackPointExtension>
            <ns3:atemp>22.0</ns3:atemp>
          </ns3:TrackPointExtension>
        </extensions>
      </trkpt>
      <trkpt lat="42.5147692300379276275634765625" lon="19.77288753725588321685791015625">
        <ele>1846.199951171875</ele>
        <time>2026-06-18T10:04:30.000Z</time>
        <extensions>
          <ns3:TrackPointExtension>
            <ns3:atemp>22.0</ns3:atemp>
          </ns3:TrackPointExtension>
        </extensions>
      </trkpt>
      <trkpt lat="42.5147692300379276275634765625" lon="19.77288753725588321685791015625">
        <ele>1846</ele>
        <time>2026-06-18T10:04:31.000Z</time>
        <extensions>
          <ns3:TrackPointExtension>
            <ns3:atemp>22.0</ns3:atemp>
          </ns3:TrackPointExtension>
        </extensions>
      </trkpt>
      <trkpt lat="42.5147692300379276275634765625" lon="19.77288753725588321685791015625">
        <ele>1846</ele>
        <time>2026-06-18T10:04:32.000Z</time>
        <extensions>
          <ns3:TrackPointExtension>
            <ns3:atemp>22.0</ns3:atemp>
          </ns3:TrackPointExtension>
        </extensions>
      </trkpt>
      <trkpt lat="42.5147692300379276275634765625" lon="19.77288753725588321685791015625">
        <ele>1845.800048828125</ele>
        <time>2026-06-18T10:04:33.000Z</time>
        <extensions>
          <ns3:TrackPointExtension>
            <ns3:atemp>22.0</ns3:atemp>
          </ns3:TrackPointExtension>
        </extensions>
      </trkpt>
      <trkpt lat="42.5147692300379276275634765625" lon="19.77288753725588321685791015625">
        <ele>1845.800048828125</ele>
        <time>2026-06-18T10:04:34.000Z</time>
        <extensions>
          <ns3:TrackPointExtension>
            <ns3:atemp>22.0</ns3:atemp>
          </ns3:TrackPointExtension>
        </extensions>
      </trkpt>
      <trkpt lat="42.5147692300379276275634765625" lon="19.77288753725588321685791015625">
        <ele>1845.800048828125</ele>
        <time>2026-06-18T10:04:35.000Z</time>
        <extensions>
          <ns3:TrackPointExtension>
            <ns3:atemp>22.0</ns3:atemp>
          </ns3:TrackPointExtension>
        </extensions>
      </trkpt>
      <trkpt lat="42.5147692300379276275634765625" lon="19.77288753725588321685791015625">
        <ele>1845.800048828125</ele>
        <time>2026-06-18T10:04:36.000Z</time>
        <extensions>
          <ns3:TrackPointExtension>
            <ns3:atemp>22.0</ns3:atemp>
          </ns3:TrackPointExtension>
        </extensions>
      </trkpt>
      <trkpt lat="42.5147692300379276275634765625" lon="19.77288753725588321685791015625">
        <ele>1845.800048828125</ele>
        <time>2026-06-18T10:04:37.000Z</time>
        <extensions>
          <ns3:TrackPointExtension>
            <ns3:atemp>22.0</ns3:atemp>
          </ns3:TrackPointExtension>
        </extensions>
      </trkpt>
      <trkpt lat="42.5147692300379276275634765625" lon="19.77288753725588321685791015625">
        <ele>1845.800048828125</ele>
        <time>2026-06-18T10:04:38.000Z</time>
        <extensions>
          <ns3:TrackPointExtension>
            <ns3:atemp>22.0</ns3:atemp>
          </ns3:TrackPointExtension>
        </extensions>
      </trkpt>
      <trkpt lat="42.5147692300379276275634765625" lon="19.77288753725588321685791015625">
        <ele>1845.800048828125</ele>
        <time>2026-06-18T10:04:39.000Z</time>
        <extensions>
          <ns3:TrackPointExtension>
            <ns3:atemp>22.0</ns3:atemp>
          </ns3:TrackPointExtension>
        </extensions>
      </trkpt>
      <trkpt lat="42.5147692300379276275634765625" lon="19.77288753725588321685791015625">
        <ele>1845.800048828125</ele>
        <time>2026-06-18T10:04:40.000Z</time>
        <extensions>
          <ns3:TrackPointExtension>
            <ns3:atemp>22.0</ns3:atemp>
          </ns3:TrackPointExtension>
        </extensions>
      </trkpt>
      <trkpt lat="42.5147692300379276275634765625" lon="19.77288753725588321685791015625">
        <ele>1845.800048828125</ele>
        <time>2026-06-18T10:04:41.000Z</time>
        <extensions>
          <ns3:TrackPointExtension>
            <ns3:atemp>22.0</ns3:atemp>
          </ns3:TrackPointExtension>
        </extensions>
      </trkpt>
      <trkpt lat="42.5147692300379276275634765625" lon="19.77288753725588321685791015625">
        <ele>1845.800048828125</ele>
        <time>2026-06-18T10:04:42.000Z</time>
        <extensions>
          <ns3:TrackPointExtension>
            <ns3:atemp>22.0</ns3:atemp>
          </ns3:TrackPointExtension>
        </extensions>
      </trkpt>
      <trkpt lat="42.5147692300379276275634765625" lon="19.77288753725588321685791015625">
        <ele>1845.800048828125</ele>
        <time>2026-06-18T10:04:43.000Z</time>
        <extensions>
          <ns3:TrackPointExtension>
            <ns3:atemp>22.0</ns3:atemp>
          </ns3:TrackPointExtension>
        </extensions>
      </trkpt>
      <trkpt lat="42.5147692300379276275634765625" lon="19.77288753725588321685791015625">
        <ele>1845.800048828125</ele>
        <time>2026-06-18T10:04:44.000Z</time>
        <extensions>
          <ns3:TrackPointExtension>
            <ns3:atemp>22.0</ns3:atemp>
          </ns3:TrackPointExtension>
        </extensions>
      </trkpt>
      <trkpt lat="42.5147692300379276275634765625" lon="19.77288753725588321685791015625">
        <ele>1845.800048828125</ele>
        <time>2026-06-18T10:04:45.000Z</time>
        <extensions>
          <ns3:TrackPointExtension>
            <ns3:atemp>22.0</ns3:atemp>
          </ns3:TrackPointExtension>
        </extensions>
      </trkpt>
      <trkpt lat="42.5147692300379276275634765625" lon="19.77288753725588321685791015625">
        <ele>1845.800048828125</ele>
        <time>2026-06-18T10:04:46.000Z</time>
        <extensions>
          <ns3:TrackPointExtension>
            <ns3:atemp>22.0</ns3:atemp>
          </ns3:TrackPointExtension>
        </extensions>
      </trkpt>
      <trkpt lat="42.5147692300379276275634765625" lon="19.77288753725588321685791015625">
        <ele>1845.5999755859375</ele>
        <time>2026-06-18T10:04:47.000Z</time>
        <extensions>
          <ns3:TrackPointExtension>
            <ns3:atemp>22.0</ns3:atemp>
          </ns3:TrackPointExtension>
        </extensions>
      </trkpt>
      <trkpt lat="42.5147692300379276275634765625" lon="19.77288753725588321685791015625">
        <ele>1845.5999755859375</ele>
        <time>2026-06-18T10:04:48.000Z</time>
        <extensions>
          <ns3:TrackPointExtension>
            <ns3:atemp>22.0</ns3:atemp>
          </ns3:TrackPointExtension>
        </extensions>
      </trkpt>
      <trkpt lat="42.5147692300379276275634765625" lon="19.77288753725588321685791015625">
        <ele>1845.5999755859375</ele>
        <time>2026-06-18T10:04:49.000Z</time>
        <extensions>
          <ns3:TrackPointExtension>
            <ns3:atemp>22.0</ns3:atemp>
          </ns3:TrackPointExtension>
        </extensions>
      </trkpt>
      <trkpt lat="42.5147692300379276275634765625" lon="19.77288753725588321685791015625">
        <ele>1845.4000244140625</ele>
        <time>2026-06-18T10:04:50.000Z</time>
        <extensions>
          <ns3:TrackPointExtension>
            <ns3:atemp>22.0</ns3:atemp>
          </ns3:TrackPointExtension>
        </extensions>
      </trkpt>
      <trkpt lat="42.5147692300379276275634765625" lon="19.77288753725588321685791015625">
        <ele>1845.4000244140625</ele>
        <time>2026-06-18T10:04:51.000Z</time>
        <extensions>
          <ns3:TrackPointExtension>
            <ns3:atemp>22.0</ns3:atemp>
          </ns3:TrackPointExtension>
        </extensions>
      </trkpt>
      <trkpt lat="42.5147692300379276275634765625" lon="19.77288753725588321685791015625">
        <ele>1845.199951171875</ele>
        <time>2026-06-18T10:04:52.000Z</time>
        <extensions>
          <ns3:TrackPointExtension>
            <ns3:atemp>22.0</ns3:atemp>
          </ns3:TrackPointExtension>
        </extensions>
      </trkpt>
      <trkpt lat="42.5147692300379276275634765625" lon="19.77288753725588321685791015625">
        <ele>1845.199951171875</ele>
        <time>2026-06-18T10:04:53.000Z</time>
        <extensions>
          <ns3:TrackPointExtension>
            <ns3:atemp>22.0</ns3:atemp>
          </ns3:TrackPointExtension>
        </extensions>
      </trkpt>
      <trkpt lat="42.5147692300379276275634765625" lon="19.77288753725588321685791015625">
        <ele>1845</ele>
        <time>2026-06-18T10:04:54.000Z</time>
        <extensions>
          <ns3:TrackPointExtension>
            <ns3:atemp>22.0</ns3:atemp>
          </ns3:TrackPointExtension>
        </extensions>
      </trkpt>
      <trkpt lat="42.5147692300379276275634765625" lon="19.77288753725588321685791015625">
        <ele>1845</ele>
        <time>2026-06-18T10:04:55.000Z</time>
        <extensions>
          <ns3:TrackPointExtension>
            <ns3:atemp>22.0</ns3:atemp>
          </ns3:TrackPointExtension>
        </extensions>
      </trkpt>
      <trkpt lat="42.5147692300379276275634765625" lon="19.77288753725588321685791015625">
        <ele>1845</ele>
        <time>2026-06-18T10:04:56.000Z</time>
        <extensions>
          <ns3:TrackPointExtension>
            <ns3:atemp>22.0</ns3:atemp>
          </ns3:TrackPointExtension>
        </extensions>
      </trkpt>
      <trkpt lat="42.5147692300379276275634765625" lon="19.77288753725588321685791015625">
        <ele>1845</ele>
        <time>2026-06-18T10:04:57.000Z</time>
        <extensions>
          <ns3:TrackPointExtension>
            <ns3:atemp>22.0</ns3:atemp>
          </ns3:TrackPointExtension>
        </extensions>
      </trkpt>
      <trkpt lat="42.5147692300379276275634765625" lon="19.77288753725588321685791015625">
        <ele>1845</ele>
        <time>2026-06-18T10:04:58.000Z</time>
        <extensions>
          <ns3:TrackPointExtension>
            <ns3:atemp>22.0</ns3:atemp>
          </ns3:TrackPointExtension>
        </extensions>
      </trkpt>
      <trkpt lat="42.5147692300379276275634765625" lon="19.77288753725588321685791015625">
        <ele>1845</ele>
        <time>2026-06-18T10:04:59.000Z</time>
        <extensions>
          <ns3:TrackPointExtension>
            <ns3:atemp>22.0</ns3:atemp>
          </ns3:TrackPointExtension>
        </extensions>
      </trkpt>
      <trkpt lat="42.5147692300379276275634765625" lon="19.77288753725588321685791015625">
        <ele>1845</ele>
        <time>2026-06-18T10:05:00.000Z</time>
        <extensions>
          <ns3:TrackPointExtension>
            <ns3:atemp>22.0</ns3:atemp>
          </ns3:TrackPointExtension>
        </extensions>
      </trkpt>
      <trkpt lat="42.5147692300379276275634765625" lon="19.77288753725588321685791015625">
        <ele>1844.800048828125</ele>
        <time>2026-06-18T10:05:01.000Z</time>
        <extensions>
          <ns3:TrackPointExtension>
            <ns3:atemp>22.0</ns3:atemp>
          </ns3:TrackPointExtension>
        </extensions>
      </trkpt>
      <trkpt lat="42.5147692300379276275634765625" lon="19.77288753725588321685791015625">
        <ele>1844.800048828125</ele>
        <time>2026-06-18T10:05:02.000Z</time>
        <extensions>
          <ns3:TrackPointExtension>
            <ns3:atemp>22.0</ns3:atemp>
          </ns3:TrackPointExtension>
        </extensions>
      </trkpt>
      <trkpt lat="42.5147692300379276275634765625" lon="19.77288753725588321685791015625">
        <ele>1844.5999755859375</ele>
        <time>2026-06-18T10:05:03.000Z</time>
        <extensions>
          <ns3:TrackPointExtension>
            <ns3:atemp>22.0</ns3:atemp>
          </ns3:TrackPointExtension>
        </extensions>
      </trkpt>
      <trkpt lat="42.5147692300379276275634765625" lon="19.77288753725588321685791015625">
        <ele>1844.5999755859375</ele>
        <time>2026-06-18T10:05:04.000Z</time>
        <extensions>
          <ns3:TrackPointExtension>
            <ns3:atemp>22.0</ns3:atemp>
          </ns3:TrackPointExtension>
        </extensions>
      </trkpt>
      <trkpt lat="42.5147692300379276275634765625" lon="19.77288753725588321685791015625">
        <ele>1844.800048828125</ele>
        <time>2026-06-18T10:05:05.000Z</time>
        <extensions>
          <ns3:TrackPointExtension>
            <ns3:atemp>22.0</ns3:atemp>
          </ns3:TrackPointExtension>
        </extensions>
      </trkpt>
      <trkpt lat="42.5147692300379276275634765625" lon="19.77288753725588321685791015625">
        <ele>1844.800048828125</ele>
        <time>2026-06-18T10:05:06.000Z</time>
        <extensions>
          <ns3:TrackPointExtension>
            <ns3:atemp>22.0</ns3:atemp>
          </ns3:TrackPointExtension>
        </extensions>
      </trkpt>
      <trkpt lat="42.5147692300379276275634765625" lon="19.77288753725588321685791015625">
        <ele>1845</ele>
        <time>2026-06-18T10:05:07.000Z</time>
        <extensions>
          <ns3:TrackPointExtension>
            <ns3:atemp>22.0</ns3:atemp>
          </ns3:TrackPointExtension>
        </extensions>
      </trkpt>
      <trkpt lat="42.5147692300379276275634765625" lon="19.77288753725588321685791015625">
        <ele>1845</ele>
        <time>2026-06-18T10:05:08.000Z</time>
        <extensions>
          <ns3:TrackPointExtension>
            <ns3:atemp>22.0</ns3:atemp>
          </ns3:TrackPointExtension>
        </extensions>
      </trkpt>
      <trkpt lat="42.5147692300379276275634765625" lon="19.77288753725588321685791015625">
        <ele>1845</ele>
        <time>2026-06-18T10:05:09.000Z</time>
        <extensions>
          <ns3:TrackPointExtension>
            <ns3:atemp>22.0</ns3:atemp>
          </ns3:TrackPointExtension>
        </extensions>
      </trkpt>
      <trkpt lat="42.5147692300379276275634765625" lon="19.77288753725588321685791015625">
        <ele>1845</ele>
        <time>2026-06-18T10:05:10.000Z</time>
        <extensions>
          <ns3:TrackPointExtension>
            <ns3:atemp>22.0</ns3:atemp>
          </ns3:TrackPointExtension>
        </extensions>
      </trkpt>
      <trkpt lat="42.5147692300379276275634765625" lon="19.77288753725588321685791015625">
        <ele>1845</ele>
        <time>2026-06-18T10:05:11.000Z</time>
        <extensions>
          <ns3:TrackPointExtension>
            <ns3:atemp>22.0</ns3:atemp>
          </ns3:TrackPointExtension>
        </extensions>
      </trkpt>
      <trkpt lat="42.5147692300379276275634765625" lon="19.77288753725588321685791015625">
        <ele>1845</ele>
        <time>2026-06-18T10:05:12.000Z</time>
        <extensions>
          <ns3:TrackPointExtension>
            <ns3:atemp>22.0</ns3:atemp>
          </ns3:TrackPointExtension>
        </extensions>
      </trkpt>
      <trkpt lat="42.5147692300379276275634765625" lon="19.77288753725588321685791015625">
        <ele>1844.800048828125</ele>
        <time>2026-06-18T10:05:13.000Z</time>
        <extensions>
          <ns3:TrackPointExtension>
            <ns3:atemp>22.0</ns3:atemp>
          </ns3:TrackPointExtension>
        </extensions>
      </trkpt>
      <trkpt lat="42.5147692300379276275634765625" lon="19.77288753725588321685791015625">
        <ele>1844.800048828125</ele>
        <time>2026-06-18T10:05:14.000Z</time>
        <extensions>
          <ns3:TrackPointExtension>
            <ns3:atemp>22.0</ns3:atemp>
          </ns3:TrackPointExtension>
        </extensions>
      </trkpt>
      <trkpt lat="42.5147692300379276275634765625" lon="19.77288753725588321685791015625">
        <ele>1844.800048828125</ele>
        <time>2026-06-18T10:05:15.000Z</time>
        <extensions>
          <ns3:TrackPointExtension>
            <ns3:atemp>22.0</ns3:atemp>
          </ns3:TrackPointExtension>
        </extensions>
      </trkpt>
      <trkpt lat="42.5147692300379276275634765625" lon="19.77288753725588321685791015625">
        <ele>1844.800048828125</ele>
        <time>2026-06-18T10:05:16.000Z</time>
        <extensions>
          <ns3:TrackPointExtension>
            <ns3:atemp>22.0</ns3:atemp>
          </ns3:TrackPointExtension>
        </extensions>
      </trkpt>
      <trkpt lat="42.5147692300379276275634765625" lon="19.77288753725588321685791015625">
        <ele>1844.800048828125</ele>
        <time>2026-06-18T10:05:17.000Z</time>
        <extensions>
          <ns3:TrackPointExtension>
            <ns3:atemp>22.0</ns3:atemp>
          </ns3:TrackPointExtension>
        </extensions>
      </trkpt>
      <trkpt lat="42.5147692300379276275634765625" lon="19.77288753725588321685791015625">
        <ele>1844.800048828125</ele>
        <time>2026-06-18T10:05:18.000Z</time>
        <extensions>
          <ns3:TrackPointExtension>
            <ns3:atemp>22.0</ns3:atemp>
          </ns3:TrackPointExtension>
        </extensions>
      </trkpt>
      <trkpt lat="42.5147692300379276275634765625" lon="19.77288753725588321685791015625">
        <ele>1844.800048828125</ele>
        <time>2026-06-18T10:05:19.000Z</time>
        <extensions>
          <ns3:TrackPointExtension>
            <ns3:atemp>22.0</ns3:atemp>
          </ns3:TrackPointExtension>
        </extensions>
      </trkpt>
      <trkpt lat="42.5147692300379276275634765625" lon="19.77288753725588321685791015625">
        <ele>1844.800048828125</ele>
        <time>2026-06-18T10:05:20.000Z</time>
        <extensions>
          <ns3:TrackPointExtension>
            <ns3:atemp>22.0</ns3:atemp>
          </ns3:TrackPointExtension>
        </extensions>
      </trkpt>
      <trkpt lat="42.5147692300379276275634765625" lon="19.77288753725588321685791015625">
        <ele>1844.800048828125</ele>
        <time>2026-06-18T10:05:21.000Z</time>
        <extensions>
          <ns3:TrackPointExtension>
            <ns3:atemp>22.0</ns3:atemp>
          </ns3:TrackPointExtension>
        </extensions>
      </trkpt>
      <trkpt lat="42.5147692300379276275634765625" lon="19.77288753725588321685791015625">
        <ele>1844.800048828125</ele>
        <time>2026-06-18T10:05:22.000Z</time>
        <extensions>
          <ns3:TrackPointExtension>
            <ns3:atemp>22.0</ns3:atemp>
          </ns3:TrackPointExtension>
        </extensions>
      </trkpt>
      <trkpt lat="42.5147692300379276275634765625" lon="19.77288753725588321685791015625">
        <ele>1844.800048828125</ele>
        <time>2026-06-18T10:05:23.000Z</time>
        <extensions>
          <ns3:TrackPointExtension>
            <ns3:atemp>22.0</ns3:atemp>
          </ns3:TrackPointExtension>
        </extensions>
      </trkpt>
      <trkpt lat="42.5147692300379276275634765625" lon="19.77288753725588321685791015625">
        <ele>1844.800048828125</ele>
        <time>2026-06-18T10:05:24.000Z</time>
        <extensions>
          <ns3:TrackPointExtension>
            <ns3:atemp>22.0</ns3:atemp>
          </ns3:TrackPointExtension>
        </extensions>
      </trkpt>
      <trkpt lat="42.5147692300379276275634765625" lon="19.77288753725588321685791015625">
        <ele>1844.800048828125</ele>
        <time>2026-06-18T10:05:25.000Z</time>
        <extensions>
          <ns3:TrackPointExtension>
            <ns3:atemp>22.0</ns3:atemp>
          </ns3:TrackPointExtension>
        </extensions>
      </trkpt>
      <trkpt lat="42.5147692300379276275634765625" lon="19.77288753725588321685791015625">
        <ele>1844.800048828125</ele>
        <time>2026-06-18T10:05:26.000Z</time>
        <extensions>
          <ns3:TrackPointExtension>
            <ns3:atemp>22.0</ns3:atemp>
          </ns3:TrackPointExtension>
        </extensions>
      </trkpt>
      <trkpt lat="42.5147692300379276275634765625" lon="19.77288753725588321685791015625">
        <ele>1844.800048828125</ele>
        <time>2026-06-18T10:05:27.000Z</time>
        <extensions>
          <ns3:TrackPointExtension>
            <ns3:atemp>22.0</ns3:atemp>
          </ns3:TrackPointExtension>
        </extensions>
      </trkpt>
      <trkpt lat="42.5147692300379276275634765625" lon="19.77288753725588321685791015625">
        <ele>1844.800048828125</ele>
        <time>2026-06-18T10:05:28.000Z</time>
        <extensions>
          <ns3:TrackPointExtension>
            <ns3:atemp>22.0</ns3:atemp>
          </ns3:TrackPointExtension>
        </extensions>
      </trkpt>
      <trkpt lat="42.5147692300379276275634765625" lon="19.77288753725588321685791015625">
        <ele>1845</ele>
        <time>2026-06-18T10:05:29.000Z</time>
        <extensions>
          <ns3:TrackPointExtension>
            <ns3:atemp>22.0</ns3:atemp>
          </ns3:TrackPointExtension>
        </extensions>
      </trkpt>
      <trkpt lat="42.5147692300379276275634765625" lon="19.77288753725588321685791015625">
        <ele>1844.800048828125</ele>
        <time>2026-06-18T10:05:30.000Z</time>
        <extensions>
          <ns3:TrackPointExtension>
            <ns3:atemp>22.0</ns3:atemp>
          </ns3:TrackPointExtension>
        </extensions>
      </trkpt>
      <trkpt lat="42.5147692300379276275634765625" lon="19.77288753725588321685791015625">
        <ele>1844.800048828125</ele>
        <time>2026-06-18T10:05:31.000Z</time>
        <extensions>
          <ns3:TrackPointExtension>
            <ns3:atemp>22.0</ns3:atemp>
          </ns3:TrackPointExtension>
        </extensions>
      </trkpt>
      <trkpt lat="42.5147692300379276275634765625" lon="19.77288753725588321685791015625">
        <ele>1844.800048828125</ele>
        <time>2026-06-18T10:05:32.000Z</time>
        <extensions>
          <ns3:TrackPointExtension>
            <ns3:atemp>22.0</ns3:atemp>
          </ns3:TrackPointExtension>
        </extensions>
      </trkpt>
      <trkpt lat="42.5147692300379276275634765625" lon="19.77288753725588321685791015625">
        <ele>1844.800048828125</ele>
        <time>2026-06-18T10:05:33.000Z</time>
        <extensions>
          <ns3:TrackPointExtension>
            <ns3:atemp>22.0</ns3:atemp>
          </ns3:TrackPointExtension>
        </extensions>
      </trkpt>
      <trkpt lat="42.5147692300379276275634765625" lon="19.77288753725588321685791015625">
        <ele>1844.800048828125</ele>
        <time>2026-06-18T10:05:34.000Z</time>
        <extensions>
          <ns3:TrackPointExtension>
            <ns3:atemp>22.0</ns3:atemp>
          </ns3:TrackPointExtension>
        </extensions>
      </trkpt>
      <trkpt lat="42.5147692300379276275634765625" lon="19.77288753725588321685791015625">
        <ele>1844.800048828125</ele>
        <time>2026-06-18T10:05:35.000Z</time>
        <extensions>
          <ns3:TrackPointExtension>
            <ns3:atemp>22.0</ns3:atemp>
          </ns3:TrackPointExtension>
        </extensions>
      </trkpt>
      <trkpt lat="42.5147692300379276275634765625" lon="19.77288753725588321685791015625">
        <ele>1844.800048828125</ele>
        <time>2026-06-18T10:05:36.000Z</time>
        <extensions>
          <ns3:TrackPointExtension>
            <ns3:atemp>22.0</ns3:atemp>
          </ns3:TrackPointExtension>
        </extensions>
      </trkpt>
      <trkpt lat="42.5147692300379276275634765625" lon="19.77288753725588321685791015625">
        <ele>1844.800048828125</ele>
        <time>2026-06-18T10:05:37.000Z</time>
        <extensions>
          <ns3:TrackPointExtension>
            <ns3:atemp>22.0</ns3:atemp>
          </ns3:TrackPointExtension>
        </extensions>
      </trkpt>
      <trkpt lat="42.5147692300379276275634765625" lon="19.77288753725588321685791015625">
        <ele>1844.800048828125</ele>
        <time>2026-06-18T10:05:38.000Z</time>
        <extensions>
          <ns3:TrackPointExtension>
            <ns3:atemp>22.0</ns3:atemp>
          </ns3:TrackPointExtension>
        </extensions>
      </trkpt>
      <trkpt lat="42.5147692300379276275634765625" lon="19.77288753725588321685791015625">
        <ele>1844.800048828125</ele>
        <time>2026-06-18T10:05:39.000Z</time>
        <extensions>
          <ns3:TrackPointExtension>
            <ns3:atemp>22.0</ns3:atemp>
          </ns3:TrackPointExtension>
        </extensions>
      </trkpt>
      <trkpt lat="42.5147692300379276275634765625" lon="19.77288753725588321685791015625">
        <ele>1844.800048828125</ele>
        <time>2026-06-18T10:05:40.000Z</time>
        <extensions>
          <ns3:TrackPointExtension>
            <ns3:atemp>22.0</ns3:atemp>
          </ns3:TrackPointExtension>
        </extensions>
      </trkpt>
      <trkpt lat="42.5147692300379276275634765625" lon="19.77288753725588321685791015625">
        <ele>1844.5999755859375</ele>
        <time>2026-06-18T10:05:41.000Z</time>
        <extensions>
          <ns3:TrackPointExtension>
            <ns3:atemp>22.0</ns3:atemp>
          </ns3:TrackPointExtension>
        </extensions>
      </trkpt>
      <trkpt lat="42.5147692300379276275634765625" lon="19.77288753725588321685791015625">
        <ele>1844.5999755859375</ele>
        <time>2026-06-18T10:05:42.000Z</time>
        <extensions>
          <ns3:TrackPointExtension>
            <ns3:atemp>22.0</ns3:atemp>
          </ns3:TrackPointExtension>
        </extensions>
      </trkpt>
      <trkpt lat="42.5147692300379276275634765625" lon="19.77288753725588321685791015625">
        <ele>1844.5999755859375</ele>
        <time>2026-06-18T10:05:43.000Z</time>
        <extensions>
          <ns3:TrackPointExtension>
            <ns3:atemp>22.0</ns3:atemp>
          </ns3:TrackPointExtension>
        </extensions>
      </trkpt>
      <trkpt lat="42.5147692300379276275634765625" lon="19.77288753725588321685791015625">
        <ele>1844.5999755859375</ele>
        <time>2026-06-18T10:05:44.000Z</time>
        <extensions>
          <ns3:TrackPointExtension>
            <ns3:atemp>22.0</ns3:atemp>
          </ns3:TrackPointExtension>
        </extensions>
      </trkpt>
      <trkpt lat="42.5147692300379276275634765625" lon="19.77288753725588321685791015625">
        <ele>1844.5999755859375</ele>
        <time>2026-06-18T10:05:45.000Z</time>
        <extensions>
          <ns3:TrackPointExtension>
            <ns3:atemp>22.0</ns3:atemp>
          </ns3:TrackPointExtension>
        </extensions>
      </trkpt>
      <trkpt lat="42.5147692300379276275634765625" lon="19.77288753725588321685791015625">
        <ele>1844.5999755859375</ele>
        <time>2026-06-18T10:05:46.000Z</time>
        <extensions>
          <ns3:TrackPointExtension>
            <ns3:atemp>22.0</ns3:atemp>
          </ns3:TrackPointExtension>
        </extensions>
      </trkpt>
      <trkpt lat="42.5147692300379276275634765625" lon="19.77288753725588321685791015625">
        <ele>1844.5999755859375</ele>
        <time>2026-06-18T10:05:47.000Z</time>
        <extensions>
          <ns3:TrackPointExtension>
            <ns3:atemp>22.0</ns3:atemp>
          </ns3:TrackPointExtension>
        </extensions>
      </trkpt>
      <trkpt lat="42.5147692300379276275634765625" lon="19.77288753725588321685791015625">
        <ele>1844.5999755859375</ele>
        <time>2026-06-18T10:05:48.000Z</time>
        <extensions>
          <ns3:TrackPointExtension>
            <ns3:atemp>22.0</ns3:atemp>
          </ns3:TrackPointExtension>
        </extensions>
      </trkpt>
      <trkpt lat="42.5147692300379276275634765625" lon="19.77288753725588321685791015625">
        <ele>1844.5999755859375</ele>
        <time>2026-06-18T10:05:49.000Z</time>
        <extensions>
          <ns3:TrackPointExtension>
            <ns3:atemp>22.0</ns3:atemp>
          </ns3:TrackPointExtension>
        </extensions>
      </trkpt>
      <trkpt lat="42.5147692300379276275634765625" lon="19.77288753725588321685791015625">
        <ele>1844.5999755859375</ele>
        <time>2026-06-18T10:05:50.000Z</time>
        <extensions>
          <ns3:TrackPointExtension>
            <ns3:atemp>22.0</ns3:atemp>
          </ns3:TrackPointExtension>
        </extensions>
      </trkpt>
      <trkpt lat="42.5147692300379276275634765625" lon="19.77288753725588321685791015625">
        <ele>1844.5999755859375</ele>
        <time>2026-06-18T10:05:51.000Z</time>
        <extensions>
          <ns3:TrackPointExtension>
            <ns3:atemp>22.0</ns3:atemp>
          </ns3:TrackPointExtension>
        </extensions>
      </trkpt>
      <trkpt lat="42.5147692300379276275634765625" lon="19.77288753725588321685791015625">
        <ele>1844.800048828125</ele>
        <time>2026-06-18T10:05:52.000Z</time>
        <extensions>
          <ns3:TrackPointExtension>
            <ns3:atemp>22.0</ns3:atemp>
          </ns3:TrackPointExtension>
        </extensions>
      </trkpt>
      <trkpt lat="42.5147692300379276275634765625" lon="19.77288753725588321685791015625">
        <ele>1844.800048828125</ele>
        <time>2026-06-18T10:05:53.000Z</time>
        <extensions>
          <ns3:TrackPointExtension>
            <ns3:atemp>22.0</ns3:atemp>
          </ns3:TrackPointExtension>
        </extensions>
      </trkpt>
      <trkpt lat="42.5147692300379276275634765625" lon="19.77288753725588321685791015625">
        <ele>1844.800048828125</ele>
        <time>2026-06-18T10:05:54.000Z</time>
        <extensions>
          <ns3:TrackPointExtension>
            <ns3:atemp>22.0</ns3:atemp>
          </ns3:TrackPointExtension>
        </extensions>
      </trkpt>
      <trkpt lat="42.5147692300379276275634765625" lon="19.77288753725588321685791015625">
        <ele>1844.800048828125</ele>
        <time>2026-06-18T10:05:55.000Z</time>
        <extensions>
          <ns3:TrackPointExtension>
            <ns3:atemp>22.0</ns3:atemp>
          </ns3:TrackPointExtension>
        </extensions>
      </trkpt>
      <trkpt lat="42.5147692300379276275634765625" lon="19.77288753725588321685791015625">
        <ele>1844.800048828125</ele>
        <time>2026-06-18T10:05:56.000Z</time>
        <extensions>
          <ns3:TrackPointExtension>
            <ns3:atemp>22.0</ns3:atemp>
          </ns3:TrackPointExtension>
        </extensions>
      </trkpt>
      <trkpt lat="42.5147692300379276275634765625" lon="19.77288753725588321685791015625">
        <ele>1844.800048828125</ele>
        <time>2026-06-18T10:05:57.000Z</time>
        <extensions>
          <ns3:TrackPointExtension>
            <ns3:atemp>22.0</ns3:atemp>
          </ns3:TrackPointExtension>
        </extensions>
      </trkpt>
      <trkpt lat="42.5147692300379276275634765625" lon="19.77288753725588321685791015625">
        <ele>1844.800048828125</ele>
        <time>2026-06-18T10:05:58.000Z</time>
        <extensions>
          <ns3:TrackPointExtension>
            <ns3:atemp>22.0</ns3:atemp>
          </ns3:TrackPointExtension>
        </extensions>
      </trkpt>
      <trkpt lat="42.5147692300379276275634765625" lon="19.77288753725588321685791015625">
        <ele>1844.800048828125</ele>
        <time>2026-06-18T10:05:59.000Z</time>
        <extensions>
          <ns3:TrackPointExtension>
            <ns3:atemp>22.0</ns3:atemp>
          </ns3:TrackPointExtension>
        </extensions>
      </trkpt>
      <trkpt lat="42.5147692300379276275634765625" lon="19.77288753725588321685791015625">
        <ele>1844.800048828125</ele>
        <time>2026-06-18T10:06:00.000Z</time>
        <extensions>
          <ns3:TrackPointExtension>
            <ns3:atemp>22.0</ns3:atemp>
          </ns3:TrackPointExtension>
        </extensions>
      </trkpt>
      <trkpt lat="42.5147692300379276275634765625" lon="19.77288753725588321685791015625">
        <ele>1844.800048828125</ele>
        <time>2026-06-18T10:06:01.000Z</time>
        <extensions>
          <ns3:TrackPointExtension>
            <ns3:atemp>22.0</ns3:atemp>
          </ns3:TrackPointExtension>
        </extensions>
      </trkpt>
      <trkpt lat="42.5147692300379276275634765625" lon="19.77288753725588321685791015625">
        <ele>1844.800048828125</ele>
        <time>2026-06-18T10:06:02.000Z</time>
        <extensions>
          <ns3:TrackPointExtension>
            <ns3:atemp>22.0</ns3:atemp>
          </ns3:TrackPointExtension>
        </extensions>
      </trkpt>
      <trkpt lat="42.5147692300379276275634765625" lon="19.77288753725588321685791015625">
        <ele>1844.800048828125</ele>
        <time>2026-06-18T10:06:03.000Z</time>
        <extensions>
          <ns3:TrackPointExtension>
            <ns3:atemp>22.0</ns3:atemp>
          </ns3:TrackPointExtension>
        </extensions>
      </trkpt>
      <trkpt lat="42.5147692300379276275634765625" lon="19.77288753725588321685791015625">
        <ele>1844.800048828125</ele>
        <time>2026-06-18T10:06:04.000Z</time>
        <extensions>
          <ns3:TrackPointExtension>
            <ns3:atemp>22.0</ns3:atemp>
          </ns3:TrackPointExtension>
        </extensions>
      </trkpt>
      <trkpt lat="42.5147692300379276275634765625" lon="19.77288753725588321685791015625">
        <ele>1844.800048828125</ele>
        <time>2026-06-18T10:06:05.000Z</time>
        <extensions>
          <ns3:TrackPointExtension>
            <ns3:atemp>22.0</ns3:atemp>
          </ns3:TrackPointExtension>
        </extensions>
      </trkpt>
      <trkpt lat="42.5147692300379276275634765625" lon="19.77288753725588321685791015625">
        <ele>1844.800048828125</ele>
        <time>2026-06-18T10:06:06.000Z</time>
        <extensions>
          <ns3:TrackPointExtension>
            <ns3:atemp>22.0</ns3:atemp>
          </ns3:TrackPointExtension>
        </extensions>
      </trkpt>
      <trkpt lat="42.5147692300379276275634765625" lon="19.77288753725588321685791015625">
        <ele>1844.800048828125</ele>
        <time>2026-06-18T10:06:07.000Z</time>
        <extensions>
          <ns3:TrackPointExtension>
            <ns3:atemp>22.0</ns3:atemp>
          </ns3:TrackPointExtension>
        </extensions>
      </trkpt>
      <trkpt lat="42.5147692300379276275634765625" lon="19.77288753725588321685791015625">
        <ele>1844.5999755859375</ele>
        <time>2026-06-18T10:06:08.000Z</time>
        <extensions>
          <ns3:TrackPointExtension>
            <ns3:atemp>22.0</ns3:atemp>
          </ns3:TrackPointExtension>
        </extensions>
      </trkpt>
      <trkpt lat="42.5147692300379276275634765625" lon="19.77288753725588321685791015625">
        <ele>1844.5999755859375</ele>
        <time>2026-06-18T10:06:09.000Z</time>
        <extensions>
          <ns3:TrackPointExtension>
            <ns3:atemp>22.0</ns3:atemp>
          </ns3:TrackPointExtension>
        </extensions>
      </trkpt>
      <trkpt lat="42.5147692300379276275634765625" lon="19.77288753725588321685791015625">
        <ele>1844.5999755859375</ele>
        <time>2026-06-18T10:06:10.000Z</time>
        <extensions>
          <ns3:TrackPointExtension>
            <ns3:atemp>22.0</ns3:atemp>
          </ns3:TrackPointExtension>
        </extensions>
      </trkpt>
      <trkpt lat="42.5147692300379276275634765625" lon="19.77288753725588321685791015625">
        <ele>1844.4000244140625</ele>
        <time>2026-06-18T10:06:11.000Z</time>
        <extensions>
          <ns3:TrackPointExtension>
            <ns3:atemp>22.0</ns3:atemp>
          </ns3:TrackPointExtension>
        </extensions>
      </trkpt>
      <trkpt lat="42.5147692300379276275634765625" lon="19.77288753725588321685791015625">
        <ele>1844.4000244140625</ele>
        <time>2026-06-18T10:06:12.000Z</time>
        <extensions>
          <ns3:TrackPointExtension>
            <ns3:atemp>22.0</ns3:atemp>
          </ns3:TrackPointExtension>
        </extensions>
      </trkpt>
      <trkpt lat="42.5147692300379276275634765625" lon="19.77288753725588321685791015625">
        <ele>1844.4000244140625</ele>
        <time>2026-06-18T10:06:13.000Z</time>
        <extensions>
          <ns3:TrackPointExtension>
            <ns3:atemp>22.0</ns3:atemp>
          </ns3:TrackPointExtension>
        </extensions>
      </trkpt>
      <trkpt lat="42.5147692300379276275634765625" lon="19.77288753725588321685791015625">
        <ele>1844.4000244140625</ele>
        <time>2026-06-18T10:06:14.000Z</time>
        <extensions>
          <ns3:TrackPointExtension>
            <ns3:atemp>22.0</ns3:atemp>
          </ns3:TrackPointExtension>
        </extensions>
      </trkpt>
      <trkpt lat="42.5147692300379276275634765625" lon="19.77288753725588321685791015625">
        <ele>1844.4000244140625</ele>
        <time>2026-06-18T10:06:15.000Z</time>
        <extensions>
          <ns3:TrackPointExtension>
            <ns3:atemp>22.0</ns3:atemp>
          </ns3:TrackPointExtension>
        </extensions>
      </trkpt>
      <trkpt lat="42.5147692300379276275634765625" lon="19.77288753725588321685791015625">
        <ele>1844.4000244140625</ele>
        <time>2026-06-18T10:06:16.000Z</time>
        <extensions>
          <ns3:TrackPointExtension>
            <ns3:atemp>22.0</ns3:atemp>
          </ns3:TrackPointExtension>
        </extensions>
      </trkpt>
      <trkpt lat="42.5147692300379276275634765625" lon="19.77288753725588321685791015625">
        <ele>1844.4000244140625</ele>
        <time>2026-06-18T10:06:17.000Z</time>
        <extensions>
          <ns3:TrackPointExtension>
            <ns3:atemp>22.0</ns3:atemp>
          </ns3:TrackPointExtension>
        </extensions>
      </trkpt>
      <trkpt lat="42.5147692300379276275634765625" lon="19.77288753725588321685791015625">
        <ele>1844.5999755859375</ele>
        <time>2026-06-18T10:06:18.000Z</time>
        <extensions>
          <ns3:TrackPointExtension>
            <ns3:atemp>22.0</ns3:atemp>
          </ns3:TrackPointExtension>
        </extensions>
      </trkpt>
      <trkpt lat="42.5147692300379276275634765625" lon="19.77288753725588321685791015625">
        <ele>1844.5999755859375</ele>
        <time>2026-06-18T10:06:19.000Z</time>
        <extensions>
          <ns3:TrackPointExtension>
            <ns3:atemp>22.0</ns3:atemp>
          </ns3:TrackPointExtension>
        </extensions>
      </trkpt>
      <trkpt lat="42.5147692300379276275634765625" lon="19.77288753725588321685791015625">
        <ele>1844.4000244140625</ele>
        <time>2026-06-18T10:06:20.000Z</time>
        <extensions>
          <ns3:TrackPointExtension>
            <ns3:atemp>22.0</ns3:atemp>
          </ns3:TrackPointExtension>
        </extensions>
      </trkpt>
      <trkpt lat="42.5147692300379276275634765625" lon="19.77288753725588321685791015625">
        <ele>1844.4000244140625</ele>
        <time>2026-06-18T10:06:21.000Z</time>
        <extensions>
          <ns3:TrackPointExtension>
            <ns3:atemp>22.0</ns3:atemp>
          </ns3:TrackPointExtension>
        </extensions>
      </trkpt>
      <trkpt lat="42.5147692300379276275634765625" lon="19.77288753725588321685791015625">
        <ele>1844.4000244140625</ele>
        <time>2026-06-18T10:06:22.000Z</time>
        <extensions>
          <ns3:TrackPointExtension>
            <ns3:atemp>22.0</ns3:atemp>
          </ns3:TrackPointExtension>
        </extensions>
      </trkpt>
      <trkpt lat="42.5147692300379276275634765625" lon="19.77288753725588321685791015625">
        <ele>1844.199951171875</ele>
        <time>2026-06-18T10:06:23.000Z</time>
        <extensions>
          <ns3:TrackPointExtension>
            <ns3:atemp>22.0</ns3:atemp>
          </ns3:TrackPointExtension>
        </extensions>
      </trkpt>
      <trkpt lat="42.5147692300379276275634765625" lon="19.77288753725588321685791015625">
        <ele>1844.199951171875</ele>
        <time>2026-06-18T10:06:24.000Z</time>
        <extensions>
          <ns3:TrackPointExtension>
            <ns3:atemp>22.0</ns3:atemp>
          </ns3:TrackPointExtension>
        </extensions>
      </trkpt>
      <trkpt lat="42.5147692300379276275634765625" lon="19.77288753725588321685791015625">
        <ele>1844.199951171875</ele>
        <time>2026-06-18T10:06:25.000Z</time>
        <extensions>
          <ns3:TrackPointExtension>
            <ns3:atemp>22.0</ns3:atemp>
          </ns3:TrackPointExtension>
        </extensions>
      </trkpt>
      <trkpt lat="42.5147692300379276275634765625" lon="19.77288753725588321685791015625">
        <ele>1844.199951171875</ele>
        <time>2026-06-18T10:06:26.000Z</time>
        <extensions>
          <ns3:TrackPointExtension>
            <ns3:atemp>22.0</ns3:atemp>
          </ns3:TrackPointExtension>
        </extensions>
      </trkpt>
      <trkpt lat="42.5147692300379276275634765625" lon="19.77288753725588321685791015625">
        <ele>1844.4000244140625</ele>
        <time>2026-06-18T10:06:27.000Z</time>
        <extensions>
          <ns3:TrackPointExtension>
            <ns3:atemp>22.0</ns3:atemp>
          </ns3:TrackPointExtension>
        </extensions>
      </trkpt>
      <trkpt lat="42.5147692300379276275634765625" lon="19.77288753725588321685791015625">
        <ele>1844.4000244140625</ele>
        <time>2026-06-18T10:06:28.000Z</time>
        <extensions>
          <ns3:TrackPointExtension>
            <ns3:atemp>22.0</ns3:atemp>
          </ns3:TrackPointExtension>
        </extensions>
      </trkpt>
      <trkpt lat="42.5147692300379276275634765625" lon="19.77288753725588321685791015625">
        <ele>1844.5999755859375</ele>
        <time>2026-06-18T10:06:29.000Z</time>
        <extensions>
          <ns3:TrackPointExtension>
            <ns3:atemp>22.0</ns3:atemp>
          </ns3:TrackPointExtension>
        </extensions>
      </trkpt>
      <trkpt lat="42.5147692300379276275634765625" lon="19.77288753725588321685791015625">
        <ele>1844.5999755859375</ele>
        <time>2026-06-18T10:06:30.000Z</time>
        <extensions>
          <ns3:TrackPointExtension>
            <ns3:atemp>22.0</ns3:atemp>
          </ns3:TrackPointExtension>
        </extensions>
      </trkpt>
      <trkpt lat="42.5147692300379276275634765625" lon="19.77288753725588321685791015625">
        <ele>1844.5999755859375</ele>
        <time>2026-06-18T10:06:31.000Z</time>
        <extensions>
          <ns3:TrackPointExtension>
            <ns3:atemp>22.0</ns3:atemp>
          </ns3:TrackPointExtension>
        </extensions>
      </trkpt>
      <trkpt lat="42.5147692300379276275634765625" lon="19.77288753725588321685791015625">
        <ele>1844.5999755859375</ele>
        <time>2026-06-18T10:06:32.000Z</time>
        <extensions>
          <ns3:TrackPointExtension>
            <ns3:atemp>22.0</ns3:atemp>
          </ns3:TrackPointExtension>
        </extensions>
      </trkpt>
      <trkpt lat="42.5147692300379276275634765625" lon="19.77288753725588321685791015625">
        <ele>1844.5999755859375</ele>
        <time>2026-06-18T10:06:33.000Z</time>
        <extensions>
          <ns3:TrackPointExtension>
            <ns3:atemp>22.0</ns3:atemp>
          </ns3:TrackPointExtension>
        </extensions>
      </trkpt>
      <trkpt lat="42.5147692300379276275634765625" lon="19.77288753725588321685791015625">
        <ele>1844.5999755859375</ele>
        <time>2026-06-18T10:06:34.000Z</time>
        <extensions>
          <ns3:TrackPointExtension>
            <ns3:atemp>22.0</ns3:atemp>
          </ns3:TrackPointExtension>
        </extensions>
      </trkpt>
      <trkpt lat="42.5147692300379276275634765625" lon="19.77288753725588321685791015625">
        <ele>1844.5999755859375</ele>
        <time>2026-06-18T10:06:35.000Z</time>
        <extensions>
          <ns3:TrackPointExtension>
            <ns3:atemp>22.0</ns3:atemp>
          </ns3:TrackPointExtension>
        </extensions>
      </trkpt>
      <trkpt lat="42.5147692300379276275634765625" lon="19.77288753725588321685791015625">
        <ele>1844.5999755859375</ele>
        <time>2026-06-18T10:06:36.000Z</time>
        <extensions>
          <ns3:TrackPointExtension>
            <ns3:atemp>22.0</ns3:atemp>
          </ns3:TrackPointExtension>
        </extensions>
      </trkpt>
      <trkpt lat="42.5147692300379276275634765625" lon="19.77288753725588321685791015625">
        <ele>1844.5999755859375</ele>
        <time>2026-06-18T10:06:37.000Z</time>
        <extensions>
          <ns3:TrackPointExtension>
            <ns3:atemp>22.0</ns3:atemp>
          </ns3:TrackPointExtension>
        </extensions>
      </trkpt>
      <trkpt lat="42.5147692300379276275634765625" lon="19.77288753725588321685791015625">
        <ele>1844.5999755859375</ele>
        <time>2026-06-18T10:06:38.000Z</time>
        <extensions>
          <ns3:TrackPointExtension>
            <ns3:atemp>22.0</ns3:atemp>
          </ns3:TrackPointExtension>
        </extensions>
      </trkpt>
      <trkpt lat="42.5147692300379276275634765625" lon="19.77288753725588321685791015625">
        <ele>1844.5999755859375</ele>
        <time>2026-06-18T10:06:39.000Z</time>
        <extensions>
          <ns3:TrackPointExtension>
            <ns3:atemp>22.0</ns3:atemp>
          </ns3:TrackPointExtension>
        </extensions>
      </trkpt>
      <trkpt lat="42.5147692300379276275634765625" lon="19.77288753725588321685791015625">
        <ele>1844.5999755859375</ele>
        <time>2026-06-18T10:06:40.000Z</time>
        <extensions>
          <ns3:TrackPointExtension>
            <ns3:atemp>22.0</ns3:atemp>
          </ns3:TrackPointExtension>
        </extensions>
      </trkpt>
      <trkpt lat="42.5147692300379276275634765625" lon="19.77288753725588321685791015625">
        <ele>1844.5999755859375</ele>
        <time>2026-06-18T10:06:41.000Z</time>
        <extensions>
          <ns3:TrackPointExtension>
            <ns3:atemp>22.0</ns3:atemp>
          </ns3:TrackPointExtension>
        </extensions>
      </trkpt>
      <trkpt lat="42.5147692300379276275634765625" lon="19.77288753725588321685791015625">
        <ele>1844.5999755859375</ele>
        <time>2026-06-18T10:06:42.000Z</time>
        <extensions>
          <ns3:TrackPointExtension>
            <ns3:atemp>22.0</ns3:atemp>
          </ns3:TrackPointExtension>
        </extensions>
      </trkpt>
      <trkpt lat="42.5147692300379276275634765625" lon="19.77288753725588321685791015625">
        <ele>1844.5999755859375</ele>
        <time>2026-06-18T10:06:43.000Z</time>
        <extensions>
          <ns3:TrackPointExtension>
            <ns3:atemp>22.0</ns3:atemp>
          </ns3:TrackPointExtension>
        </extensions>
      </trkpt>
      <trkpt lat="42.5147692300379276275634765625" lon="19.77288753725588321685791015625">
        <ele>1844.5999755859375</ele>
        <time>2026-06-18T10:06:44.000Z</time>
        <extensions>
          <ns3:TrackPointExtension>
            <ns3:atemp>22.0</ns3:atemp>
          </ns3:TrackPointExtension>
        </extensions>
      </trkpt>
      <trkpt lat="42.5147692300379276275634765625" lon="19.77288753725588321685791015625">
        <ele>1844.5999755859375</ele>
        <time>2026-06-18T10:06:45.000Z</time>
        <extensions>
          <ns3:TrackPointExtension>
            <ns3:atemp>22.0</ns3:atemp>
          </ns3:TrackPointExtension>
        </extensions>
      </trkpt>
      <trkpt lat="42.5147692300379276275634765625" lon="19.77288753725588321685791015625">
        <ele>1844.5999755859375</ele>
        <time>2026-06-18T10:06:46.000Z</time>
        <extensions>
          <ns3:TrackPointExtension>
            <ns3:atemp>22.0</ns3:atemp>
          </ns3:TrackPointExtension>
        </extensions>
      </trkpt>
      <trkpt lat="42.5147692300379276275634765625" lon="19.77288753725588321685791015625">
        <ele>1844.5999755859375</ele>
        <time>2026-06-18T10:06:47.000Z</time>
        <extensions>
          <ns3:TrackPointExtension>
            <ns3:atemp>22.0</ns3:atemp>
          </ns3:TrackPointExtension>
        </extensions>
      </trkpt>
      <trkpt lat="42.5147692300379276275634765625" lon="19.77288753725588321685791015625">
        <ele>1844.5999755859375</ele>
        <time>2026-06-18T10:06:48.000Z</time>
        <extensions>
          <ns3:TrackPointExtension>
            <ns3:atemp>22.0</ns3:atemp>
          </ns3:TrackPointExtension>
        </extensions>
      </trkpt>
      <trkpt lat="42.5147692300379276275634765625" lon="19.77288753725588321685791015625">
        <ele>1844.5999755859375</ele>
        <time>2026-06-18T10:06:49.000Z</time>
        <extensions>
          <ns3:TrackPointExtension>
            <ns3:atemp>22.0</ns3:atemp>
          </ns3:TrackPointExtension>
        </extensions>
      </trkpt>
      <trkpt lat="42.5147692300379276275634765625" lon="19.77288753725588321685791015625">
        <ele>1844.5999755859375</ele>
        <time>2026-06-18T10:06:50.000Z</time>
        <extensions>
          <ns3:TrackPointExtension>
            <ns3:atemp>22.0</ns3:atemp>
          </ns3:TrackPointExtension>
        </extensions>
      </trkpt>
      <trkpt lat="42.5147692300379276275634765625" lon="19.77288753725588321685791015625">
        <ele>1844.5999755859375</ele>
        <time>2026-06-18T10:06:51.000Z</time>
        <extensions>
          <ns3:TrackPointExtension>
            <ns3:atemp>22.0</ns3:atemp>
          </ns3:TrackPointExtension>
        </extensions>
      </trkpt>
      <trkpt lat="42.5147692300379276275634765625" lon="19.77288753725588321685791015625">
        <ele>1844.5999755859375</ele>
        <time>2026-06-18T10:06:52.000Z</time>
        <extensions>
          <ns3:TrackPointExtension>
            <ns3:atemp>22.0</ns3:atemp>
          </ns3:TrackPointExtension>
        </extensions>
      </trkpt>
      <trkpt lat="42.5147692300379276275634765625" lon="19.77288753725588321685791015625">
        <ele>1844.5999755859375</ele>
        <time>2026-06-18T10:06:53.000Z</time>
        <extensions>
          <ns3:TrackPointExtension>
            <ns3:atemp>22.0</ns3:atemp>
          </ns3:TrackPointExtension>
        </extensions>
      </trkpt>
      <trkpt lat="42.5147692300379276275634765625" lon="19.77288753725588321685791015625">
        <ele>1844.5999755859375</ele>
        <time>2026-06-18T10:06:54.000Z</time>
        <extensions>
          <ns3:TrackPointExtension>
            <ns3:atemp>22.0</ns3:atemp>
          </ns3:TrackPointExtension>
        </extensions>
      </trkpt>
      <trkpt lat="42.5147692300379276275634765625" lon="19.77288753725588321685791015625">
        <ele>1844.5999755859375</ele>
        <time>2026-06-18T10:06:55.000Z</time>
        <extensions>
          <ns3:TrackPointExtension>
            <ns3:atemp>22.0</ns3:atemp>
          </ns3:TrackPointExtension>
        </extensions>
      </trkpt>
      <trkpt lat="42.5147692300379276275634765625" lon="19.77288753725588321685791015625">
        <ele>1844.5999755859375</ele>
        <time>2026-06-18T10:06:56.000Z</time>
        <extensions>
          <ns3:TrackPointExtension>
            <ns3:atemp>22.0</ns3:atemp>
          </ns3:TrackPointExtension>
        </extensions>
      </trkpt>
      <trkpt lat="42.5147692300379276275634765625" lon="19.77288753725588321685791015625">
        <ele>1844.5999755859375</ele>
        <time>2026-06-18T10:06:57.000Z</time>
        <extensions>
          <ns3:TrackPointExtension>
            <ns3:atemp>22.0</ns3:atemp>
          </ns3:TrackPointExtension>
        </extensions>
      </trkpt>
      <trkpt lat="42.5147692300379276275634765625" lon="19.77288753725588321685791015625">
        <ele>1844.5999755859375</ele>
        <time>2026-06-18T10:06:58.000Z</time>
        <extensions>
          <ns3:TrackPointExtension>
            <ns3:atemp>22.0</ns3:atemp>
          </ns3:TrackPointExtension>
        </extensions>
      </trkpt>
      <trkpt lat="42.5147692300379276275634765625" lon="19.77288753725588321685791015625">
        <ele>1844.5999755859375</ele>
        <time>2026-06-18T10:06:59.000Z</time>
        <extensions>
          <ns3:TrackPointExtension>
            <ns3:atemp>22.0</ns3:atemp>
          </ns3:TrackPointExtension>
        </extensions>
      </trkpt>
      <trkpt lat="42.5147692300379276275634765625" lon="19.77288753725588321685791015625">
        <ele>1844.5999755859375</ele>
        <time>2026-06-18T10:07:00.000Z</time>
        <extensions>
          <ns3:TrackPointExtension>
            <ns3:atemp>22.0</ns3:atemp>
          </ns3:TrackPointExtension>
        </extensions>
      </trkpt>
      <trkpt lat="42.5147692300379276275634765625" lon="19.77288753725588321685791015625">
        <ele>1844.5999755859375</ele>
        <time>2026-06-18T10:07:01.000Z</time>
        <extensions>
          <ns3:TrackPointExtension>
            <ns3:atemp>22.0</ns3:atemp>
          </ns3:TrackPointExtension>
        </extensions>
      </trkpt>
      <trkpt lat="42.5147692300379276275634765625" lon="19.77288753725588321685791015625">
        <ele>1844.5999755859375</ele>
        <time>2026-06-18T10:07:02.000Z</time>
        <extensions>
          <ns3:TrackPointExtension>
            <ns3:atemp>22.0</ns3:atemp>
          </ns3:TrackPointExtension>
        </extensions>
      </trkpt>
      <trkpt lat="42.5147692300379276275634765625" lon="19.77288753725588321685791015625">
        <ele>1844.5999755859375</ele>
        <time>2026-06-18T10:07:03.000Z</time>
        <extensions>
          <ns3:TrackPointExtension>
            <ns3:atemp>22.0</ns3:atemp>
          </ns3:TrackPointExtension>
        </extensions>
      </trkpt>
      <trkpt lat="42.5147692300379276275634765625" lon="19.77288753725588321685791015625">
        <ele>1844.5999755859375</ele>
        <time>2026-06-18T10:07:04.000Z</time>
        <extensions>
          <ns3:TrackPointExtension>
            <ns3:atemp>22.0</ns3:atemp>
          </ns3:TrackPointExtension>
        </extensions>
      </trkpt>
      <trkpt lat="42.5147692300379276275634765625" lon="19.77288753725588321685791015625">
        <ele>1844.5999755859375</ele>
        <time>2026-06-18T10:07:05.000Z</time>
        <extensions>
          <ns3:TrackPointExtension>
            <ns3:atemp>22.0</ns3:atemp>
          </ns3:TrackPointExtension>
        </extensions>
      </trkpt>
      <trkpt lat="42.5147692300379276275634765625" lon="19.77288753725588321685791015625">
        <ele>1844.5999755859375</ele>
        <time>2026-06-18T10:07:06.000Z</time>
        <extensions>
          <ns3:TrackPointExtension>
            <ns3:atemp>22.0</ns3:atemp>
          </ns3:TrackPointExtension>
        </extensions>
      </trkpt>
      <trkpt lat="42.5147692300379276275634765625" lon="19.77288753725588321685791015625">
        <ele>1844.5999755859375</ele>
        <time>2026-06-18T10:07:07.000Z</time>
        <extensions>
          <ns3:TrackPointExtension>
            <ns3:atemp>22.0</ns3:atemp>
          </ns3:TrackPointExtension>
        </extensions>
      </trkpt>
      <trkpt lat="42.5147692300379276275634765625" lon="19.77288753725588321685791015625">
        <ele>1844.5999755859375</ele>
        <time>2026-06-18T10:07:08.000Z</time>
        <extensions>
          <ns3:TrackPointExtension>
            <ns3:atemp>22.0</ns3:atemp>
          </ns3:TrackPointExtension>
        </extensions>
      </trkpt>
      <trkpt lat="42.5147692300379276275634765625" lon="19.77288753725588321685791015625">
        <ele>1844.5999755859375</ele>
        <time>2026-06-18T10:07:09.000Z</time>
        <extensions>
          <ns3:TrackPointExtension>
            <ns3:atemp>22.0</ns3:atemp>
          </ns3:TrackPointExtension>
        </extensions>
      </trkpt>
      <trkpt lat="42.5147692300379276275634765625" lon="19.77288753725588321685791015625">
        <ele>1844.5999755859375</ele>
        <time>2026-06-18T10:07:10.000Z</time>
        <extensions>
          <ns3:TrackPointExtension>
            <ns3:atemp>22.0</ns3:atemp>
          </ns3:TrackPointExtension>
        </extensions>
      </trkpt>
      <trkpt lat="42.5147692300379276275634765625" lon="19.77288753725588321685791015625">
        <ele>1844.5999755859375</ele>
        <time>2026-06-18T10:07:11.000Z</time>
        <extensions>
          <ns3:TrackPointExtension>
            <ns3:atemp>22.0</ns3:atemp>
          </ns3:TrackPointExtension>
        </extensions>
      </trkpt>
      <trkpt lat="42.5147692300379276275634765625" lon="19.77288753725588321685791015625">
        <ele>1844.5999755859375</ele>
        <time>2026-06-18T10:07:12.000Z</time>
        <extensions>
          <ns3:TrackPointExtension>
            <ns3:atemp>22.0</ns3:atemp>
          </ns3:TrackPointExtension>
        </extensions>
      </trkpt>
      <trkpt lat="42.5147692300379276275634765625" lon="19.77288753725588321685791015625">
        <ele>1844.5999755859375</ele>
        <time>2026-06-18T10:07:13.000Z</time>
        <extensions>
          <ns3:TrackPointExtension>
            <ns3:atemp>22.0</ns3:atemp>
          </ns3:TrackPointExtension>
        </extensions>
      </trkpt>
      <trkpt lat="42.5147692300379276275634765625" lon="19.77288753725588321685791015625">
        <ele>1844.5999755859375</ele>
        <time>2026-06-18T10:07:14.000Z</time>
        <extensions>
          <ns3:TrackPointExtension>
            <ns3:atemp>22.0</ns3:atemp>
          </ns3:TrackPointExtension>
        </extensions>
      </trkpt>
      <trkpt lat="42.5147692300379276275634765625" lon="19.77288753725588321685791015625">
        <ele>1844.5999755859375</ele>
        <time>2026-06-18T10:07:15.000Z</time>
        <extensions>
          <ns3:TrackPointExtension>
            <ns3:atemp>22.0</ns3:atemp>
          </ns3:TrackPointExtension>
        </extensions>
      </trkpt>
      <trkpt lat="42.5147692300379276275634765625" lon="19.77288753725588321685791015625">
        <ele>1844.5999755859375</ele>
        <time>2026-06-18T10:07:16.000Z</time>
        <extensions>
          <ns3:TrackPointExtension>
            <ns3:atemp>22.0</ns3:atemp>
          </ns3:TrackPointExtension>
        </extensions>
      </trkpt>
      <trkpt lat="42.5147692300379276275634765625" lon="19.77288753725588321685791015625">
        <ele>1844.5999755859375</ele>
        <time>2026-06-18T10:07:17.000Z</time>
        <extensions>
          <ns3:TrackPointExtension>
            <ns3:atemp>22.0</ns3:atemp>
          </ns3:TrackPointExtension>
        </extensions>
      </trkpt>
      <trkpt lat="42.5147692300379276275634765625" lon="19.77288753725588321685791015625">
        <ele>1844.5999755859375</ele>
        <time>2026-06-18T10:07:18.000Z</time>
        <extensions>
          <ns3:TrackPointExtension>
            <ns3:atemp>22.0</ns3:atemp>
          </ns3:TrackPointExtension>
        </extensions>
      </trkpt>
      <trkpt lat="42.5147692300379276275634765625" lon="19.77288753725588321685791015625">
        <ele>1844.5999755859375</ele>
        <time>2026-06-18T10:07:19.000Z</time>
        <extensions>
          <ns3:TrackPointExtension>
            <ns3:atemp>22.0</ns3:atemp>
          </ns3:TrackPointExtension>
        </extensions>
      </trkpt>
      <trkpt lat="42.5147692300379276275634765625" lon="19.77288753725588321685791015625">
        <ele>1844.5999755859375</ele>
        <time>2026-06-18T10:07:20.000Z</time>
        <extensions>
          <ns3:TrackPointExtension>
            <ns3:atemp>22.0</ns3:atemp>
          </ns3:TrackPointExtension>
        </extensions>
      </trkpt>
      <trkpt lat="42.5147692300379276275634765625" lon="19.77288753725588321685791015625">
        <ele>1844.5999755859375</ele>
        <time>2026-06-18T10:07:21.000Z</time>
        <extensions>
          <ns3:TrackPointExtension>
            <ns3:atemp>22.0</ns3:atemp>
          </ns3:TrackPointExtension>
        </extensions>
      </trkpt>
      <trkpt lat="42.5147692300379276275634765625" lon="19.77288753725588321685791015625">
        <ele>1844.5999755859375</ele>
        <time>2026-06-18T10:07:22.000Z</time>
        <extensions>
          <ns3:TrackPointExtension>
            <ns3:atemp>22.0</ns3:atemp>
          </ns3:TrackPointExtension>
        </extensions>
      </trkpt>
      <trkpt lat="42.5147692300379276275634765625" lon="19.77288753725588321685791015625">
        <ele>1844.5999755859375</ele>
        <time>2026-06-18T10:07:23.000Z</time>
        <extensions>
          <ns3:TrackPointExtension>
            <ns3:atemp>22.0</ns3:atemp>
          </ns3:TrackPointExtension>
        </extensions>
      </trkpt>
      <trkpt lat="42.5147692300379276275634765625" lon="19.77288753725588321685791015625">
        <ele>1844.5999755859375</ele>
        <time>2026-06-18T10:07:24.000Z</time>
        <extensions>
          <ns3:TrackPointExtension>
            <ns3:atemp>22.0</ns3:atemp>
          </ns3:TrackPointExtension>
        </extensions>
      </trkpt>
      <trkpt lat="42.5147692300379276275634765625" lon="19.77288753725588321685791015625">
        <ele>1844.5999755859375</ele>
        <time>2026-06-18T10:07:25.000Z</time>
        <extensions>
          <ns3:TrackPointExtension>
            <ns3:atemp>22.0</ns3:atemp>
          </ns3:TrackPointExtension>
        </extensions>
      </trkpt>
      <trkpt lat="42.5147692300379276275634765625" lon="19.77288753725588321685791015625">
        <ele>1844.5999755859375</ele>
        <time>2026-06-18T10:07:26.000Z</time>
        <extensions>
          <ns3:TrackPointExtension>
            <ns3:atemp>22.0</ns3:atemp>
          </ns3:TrackPointExtension>
        </extensions>
      </trkpt>
      <trkpt lat="42.5147692300379276275634765625" lon="19.77288753725588321685791015625">
        <ele>1844.5999755859375</ele>
        <time>2026-06-18T10:07:27.000Z</time>
        <extensions>
          <ns3:TrackPointExtension>
            <ns3:atemp>22.0</ns3:atemp>
          </ns3:TrackPointExtension>
        </extensions>
      </trkpt>
      <trkpt lat="42.5147692300379276275634765625" lon="19.77288753725588321685791015625">
        <ele>1844.5999755859375</ele>
        <time>2026-06-18T10:07:28.000Z</time>
        <extensions>
          <ns3:TrackPointExtension>
            <ns3:atemp>22.0</ns3:atemp>
          </ns3:TrackPointExtension>
        </extensions>
      </trkpt>
      <trkpt lat="42.5147692300379276275634765625" lon="19.77288753725588321685791015625">
        <ele>1844.5999755859375</ele>
        <time>2026-06-18T10:07:29.000Z</time>
        <extensions>
          <ns3:TrackPointExtension>
            <ns3:atemp>22.0</ns3:atemp>
          </ns3:TrackPointExtension>
        </extensions>
      </trkpt>
      <trkpt lat="42.5147692300379276275634765625" lon="19.77288753725588321685791015625">
        <ele>1844.5999755859375</ele>
        <time>2026-06-18T10:07:30.000Z</time>
        <extensions>
          <ns3:TrackPointExtension>
            <ns3:atemp>22.0</ns3:atemp>
          </ns3:TrackPointExtension>
        </extensions>
      </trkpt>
      <trkpt lat="42.5147692300379276275634765625" lon="19.77288753725588321685791015625">
        <ele>1844.5999755859375</ele>
        <time>2026-06-18T10:07:31.000Z</time>
        <extensions>
          <ns3:TrackPointExtension>
            <ns3:atemp>22.0</ns3:atemp>
          </ns3:TrackPointExtension>
        </extensions>
      </trkpt>
      <trkpt lat="42.5147692300379276275634765625" lon="19.77288753725588321685791015625">
        <ele>1842.4000244140625</ele>
        <time>2026-06-18T10:07:32.000Z</time>
        <extensions>
          <ns3:TrackPointExtension>
            <ns3:atemp>22.0</ns3:atemp>
          </ns3:TrackPointExtension>
        </extensions>
      </trkpt>
      <trkpt lat="42.5147692300379276275634765625" lon="19.77288753725588321685791015625">
        <ele>1842.199951171875</ele>
        <time>2026-06-18T10:07:33.000Z</time>
        <extensions>
          <ns3:TrackPointExtension>
            <ns3:atemp>22.0</ns3:atemp>
          </ns3:TrackPointExtension>
        </extensions>
      </trkpt>
      <trkpt lat="42.5147692300379276275634765625" lon="19.77288753725588321685791015625">
        <ele>1842.199951171875</ele>
        <time>2026-06-18T10:07:34.000Z</time>
        <extensions>
          <ns3:TrackPointExtension>
            <ns3:atemp>22.0</ns3:atemp>
          </ns3:TrackPointExtension>
        </extensions>
      </trkpt>
      <trkpt lat="42.5147692300379276275634765625" lon="19.77288753725588321685791015625">
        <ele>1842</ele>
        <time>2026-06-18T10:07:35.000Z</time>
        <extensions>
          <ns3:TrackPointExtension>
            <ns3:atemp>22.0</ns3:atemp>
          </ns3:TrackPointExtension>
        </extensions>
      </trkpt>
      <trkpt lat="42.5147692300379276275634765625" lon="19.77288753725588321685791015625">
        <ele>1842</ele>
        <time>2026-06-18T10:07:36.000Z</time>
        <extensions>
          <ns3:TrackPointExtension>
            <ns3:atemp>22.0</ns3:atemp>
          </ns3:TrackPointExtension>
        </extensions>
      </trkpt>
      <trkpt lat="42.5147692300379276275634765625" lon="19.77288753725588321685791015625">
        <ele>1842</ele>
        <time>2026-06-18T10:07:37.000Z</time>
        <extensions>
          <ns3:TrackPointExtension>
            <ns3:atemp>22.0</ns3:atemp>
          </ns3:TrackPointExtension>
        </extensions>
      </trkpt>
      <trkpt lat="42.5147692300379276275634765625" lon="19.77288753725588321685791015625">
        <ele>1841.800048828125</ele>
        <time>2026-06-18T10:07:38.000Z</time>
        <extensions>
          <ns3:TrackPointExtension>
            <ns3:atemp>22.0</ns3:atemp>
          </ns3:TrackPointExtension>
        </extensions>
      </trkpt>
      <trkpt lat="42.5147692300379276275634765625" lon="19.77288753725588321685791015625">
        <ele>1841.800048828125</ele>
        <time>2026-06-18T10:07:39.000Z</time>
        <extensions>
          <ns3:TrackPointExtension>
            <ns3:atemp>22.0</ns3:atemp>
          </ns3:TrackPointExtension>
        </extensions>
      </trkpt>
      <trkpt lat="42.5147692300379276275634765625" lon="19.77288753725588321685791015625">
        <ele>1841.800048828125</ele>
        <time>2026-06-18T10:07:40.000Z</time>
        <extensions>
          <ns3:TrackPointExtension>
            <ns3:atemp>22.0</ns3:atemp>
          </ns3:TrackPointExtension>
        </extensions>
      </trkpt>
      <trkpt lat="42.5147692300379276275634765625" lon="19.77288753725588321685791015625">
        <ele>1841.800048828125</ele>
        <time>2026-06-18T10:07:41.000Z</time>
        <extensions>
          <ns3:TrackPointExtension>
            <ns3:atemp>22.0</ns3:atemp>
          </ns3:TrackPointExtension>
        </extensions>
      </trkpt>
      <trkpt lat="42.5147692300379276275634765625" lon="19.77288753725588321685791015625">
        <ele>1841.800048828125</ele>
        <time>2026-06-18T10:07:42.000Z</time>
        <extensions>
          <ns3:TrackPointExtension>
            <ns3:atemp>22.0</ns3:atemp>
          </ns3:TrackPointExtension>
        </extensions>
      </trkpt>
      <trkpt lat="42.5147692300379276275634765625" lon="19.77288753725588321685791015625">
        <ele>1841.5999755859375</ele>
        <time>2026-06-18T10:07:43.000Z</time>
        <extensions>
          <ns3:TrackPointExtension>
            <ns3:atemp>22.0</ns3:atemp>
          </ns3:TrackPointExtension>
        </extensions>
      </trkpt>
      <trkpt lat="42.5147692300379276275634765625" lon="19.77288753725588321685791015625">
        <ele>1841.5999755859375</ele>
        <time>2026-06-18T10:07:44.000Z</time>
        <extensions>
          <ns3:TrackPointExtension>
            <ns3:atemp>22.0</ns3:atemp>
          </ns3:TrackPointExtension>
        </extensions>
      </trkpt>
      <trkpt lat="42.5147692300379276275634765625" lon="19.77288753725588321685791015625">
        <ele>1841.5999755859375</ele>
        <time>2026-06-18T10:07:45.000Z</time>
        <extensions>
          <ns3:TrackPointExtension>
            <ns3:atemp>22.0</ns3:atemp>
          </ns3:TrackPointExtension>
        </extensions>
      </trkpt>
      <trkpt lat="42.5147692300379276275634765625" lon="19.77288753725588321685791015625">
        <ele>1841.5999755859375</ele>
        <time>2026-06-18T10:07:46.000Z</time>
        <extensions>
          <ns3:TrackPointExtension>
            <ns3:atemp>22.0</ns3:atemp>
          </ns3:TrackPointExtension>
        </extensions>
      </trkpt>
      <trkpt lat="42.5147692300379276275634765625" lon="19.77288753725588321685791015625">
        <ele>1841.5999755859375</ele>
        <time>2026-06-18T10:07:47.000Z</time>
        <extensions>
          <ns3:TrackPointExtension>
            <ns3:atemp>22.0</ns3:atemp>
          </ns3:TrackPointExtension>
        </extensions>
      </trkpt>
      <trkpt lat="42.5147692300379276275634765625" lon="19.77288753725588321685791015625">
        <ele>1841.5999755859375</ele>
        <time>2026-06-18T10:07:48.000Z</time>
        <extensions>
          <ns3:TrackPointExtension>
            <ns3:atemp>22.0</ns3:atemp>
          </ns3:TrackPointExtension>
        </extensions>
      </trkpt>
      <trkpt lat="42.5147692300379276275634765625" lon="19.77288753725588321685791015625">
        <ele>1841.800048828125</ele>
        <time>2026-06-18T10:07:49.000Z</time>
        <extensions>
          <ns3:TrackPointExtension>
            <ns3:atemp>22.0</ns3:atemp>
          </ns3:TrackPointExtension>
        </extensions>
      </trkpt>
      <trkpt lat="42.5147692300379276275634765625" lon="19.77288753725588321685791015625">
        <ele>1841.800048828125</ele>
        <time>2026-06-18T10:07:50.000Z</time>
        <extensions>
          <ns3:TrackPointExtension>
            <ns3:atemp>22.0</ns3:atemp>
          </ns3:TrackPointExtension>
        </extensions>
      </trkpt>
      <trkpt lat="42.5147692300379276275634765625" lon="19.77288753725588321685791015625">
        <ele>1841.800048828125</ele>
        <time>2026-06-18T10:07:51.000Z</time>
        <extensions>
          <ns3:TrackPointExtension>
            <ns3:atemp>22.0</ns3:atemp>
          </ns3:TrackPointExtension>
        </extensions>
      </trkpt>
      <trkpt lat="42.5147692300379276275634765625" lon="19.77288753725588321685791015625">
        <ele>1841.800048828125</ele>
        <time>2026-06-18T10:07:52.000Z</time>
        <extensions>
          <ns3:TrackPointExtension>
            <ns3:atemp>22.0</ns3:atemp>
          </ns3:TrackPointExtension>
        </extensions>
      </trkpt>
      <trkpt lat="42.5147692300379276275634765625" lon="19.77288753725588321685791015625">
        <ele>1841.800048828125</ele>
        <time>2026-06-18T10:07:53.000Z</time>
        <extensions>
          <ns3:TrackPointExtension>
            <ns3:atemp>22.0</ns3:atemp>
          </ns3:TrackPointExtension>
        </extensions>
      </trkpt>
      <trkpt lat="42.5147692300379276275634765625" lon="19.77288753725588321685791015625">
        <ele>1841.800048828125</ele>
        <time>2026-06-18T10:07:54.000Z</time>
        <extensions>
          <ns3:TrackPointExtension>
            <ns3:atemp>22.0</ns3:atemp>
          </ns3:TrackPointExtension>
        </extensions>
      </trkpt>
      <trkpt lat="42.5147692300379276275634765625" lon="19.77288753725588321685791015625">
        <ele>1841.800048828125</ele>
        <time>2026-06-18T10:07:55.000Z</time>
        <extensions>
          <ns3:TrackPointExtension>
            <ns3:atemp>22.0</ns3:atemp>
          </ns3:TrackPointExtension>
        </extensions>
      </trkpt>
      <trkpt lat="42.5147692300379276275634765625" lon="19.77288753725588321685791015625">
        <ele>1841.800048828125</ele>
        <time>2026-06-18T10:07:56.000Z</time>
        <extensions>
          <ns3:TrackPointExtension>
            <ns3:atemp>22.0</ns3:atemp>
          </ns3:TrackPointExtension>
        </extensions>
      </trkpt>
      <trkpt lat="42.5147692300379276275634765625" lon="19.77288753725588321685791015625">
        <ele>1841.800048828125</ele>
        <time>2026-06-18T10:07:57.000Z</time>
        <extensions>
          <ns3:TrackPointExtension>
            <ns3:atemp>22.0</ns3:atemp>
          </ns3:TrackPointExtension>
        </extensions>
      </trkpt>
      <trkpt lat="42.5147692300379276275634765625" lon="19.77288753725588321685791015625">
        <ele>1841.800048828125</ele>
        <time>2026-06-18T10:07:58.000Z</time>
        <extensions>
          <ns3:TrackPointExtension>
            <ns3:atemp>22.0</ns3:atemp>
          </ns3:TrackPointExtension>
        </extensions>
      </trkpt>
      <trkpt lat="42.5147692300379276275634765625" lon="19.77288753725588321685791015625">
        <ele>1841.800048828125</ele>
        <time>2026-06-18T10:07:59.000Z</time>
        <extensions>
          <ns3:TrackPointExtension>
            <ns3:atemp>22.0</ns3:atemp>
          </ns3:TrackPointExtension>
        </extensions>
      </trkpt>
      <trkpt lat="42.5147692300379276275634765625" lon="19.77288753725588321685791015625">
        <ele>1841.800048828125</ele>
        <time>2026-06-18T10:08:00.000Z</time>
        <extensions>
          <ns3:TrackPointExtension>
            <ns3:atemp>22.0</ns3:atemp>
          </ns3:TrackPointExtension>
        </extensions>
      </trkpt>
      <trkpt lat="42.5147692300379276275634765625" lon="19.77288753725588321685791015625">
        <ele>1842</ele>
        <time>2026-06-18T10:08:01.000Z</time>
        <extensions>
          <ns3:TrackPointExtension>
            <ns3:atemp>22.0</ns3:atemp>
          </ns3:TrackPointExtension>
        </extensions>
      </trkpt>
      <trkpt lat="42.5147692300379276275634765625" lon="19.77288753725588321685791015625">
        <ele>1842</ele>
        <time>2026-06-18T10:08:02.000Z</time>
        <extensions>
          <ns3:TrackPointExtension>
            <ns3:atemp>22.0</ns3:atemp>
          </ns3:TrackPointExtension>
        </extensions>
      </trkpt>
      <trkpt lat="42.5147692300379276275634765625" lon="19.77288753725588321685791015625">
        <ele>1842</ele>
        <time>2026-06-18T10:08:03.000Z</time>
        <extensions>
          <ns3:TrackPointExtension>
            <ns3:atemp>22.0</ns3:atemp>
          </ns3:TrackPointExtension>
        </extensions>
      </trkpt>
      <trkpt lat="42.5147692300379276275634765625" lon="19.77288753725588321685791015625">
        <ele>1842</ele>
        <time>2026-06-18T10:08:04.000Z</time>
        <extensions>
          <ns3:TrackPointExtension>
            <ns3:atemp>22.0</ns3:atemp>
          </ns3:TrackPointExtension>
        </extensions>
      </trkpt>
      <trkpt lat="42.5147692300379276275634765625" lon="19.77288753725588321685791015625">
        <ele>1842</ele>
        <time>2026-06-18T10:08:05.000Z</time>
        <extensions>
          <ns3:TrackPointExtension>
            <ns3:atemp>22.0</ns3:atemp>
          </ns3:TrackPointExtension>
        </extensions>
      </trkpt>
      <trkpt lat="42.5147692300379276275634765625" lon="19.77288753725588321685791015625">
        <ele>1842</ele>
        <time>2026-06-18T10:08:06.000Z</time>
        <extensions>
          <ns3:TrackPointExtension>
            <ns3:atemp>22.0</ns3:atemp>
          </ns3:TrackPointExtension>
        </extensions>
      </trkpt>
      <trkpt lat="42.5147692300379276275634765625" lon="19.77288753725588321685791015625">
        <ele>1842</ele>
        <time>2026-06-18T10:08:07.000Z</time>
        <extensions>
          <ns3:TrackPointExtension>
            <ns3:atemp>22.0</ns3:atemp>
          </ns3:TrackPointExtension>
        </extensions>
      </trkpt>
      <trkpt lat="42.5147692300379276275634765625" lon="19.77288753725588321685791015625">
        <ele>1842</ele>
        <time>2026-06-18T10:08:08.000Z</time>
        <extensions>
          <ns3:TrackPointExtension>
            <ns3:atemp>22.0</ns3:atemp>
          </ns3:TrackPointExtension>
        </extensions>
      </trkpt>
      <trkpt lat="42.5147692300379276275634765625" lon="19.77288753725588321685791015625">
        <ele>1842</ele>
        <time>2026-06-18T10:08:09.000Z</time>
        <extensions>
          <ns3:TrackPointExtension>
            <ns3:atemp>22.0</ns3:atemp>
          </ns3:TrackPointExtension>
        </extensions>
      </trkpt>
      <trkpt lat="42.5147692300379276275634765625" lon="19.77288753725588321685791015625">
        <ele>1842</ele>
        <time>2026-06-18T10:08:10.000Z</time>
        <extensions>
          <ns3:TrackPointExtension>
            <ns3:atemp>22.0</ns3:atemp>
          </ns3:TrackPointExtension>
        </extensions>
      </trkpt>
      <trkpt lat="42.5147692300379276275634765625" lon="19.77288753725588321685791015625">
        <ele>1842</ele>
        <time>2026-06-18T10:08:11.000Z</time>
        <extensions>
          <ns3:TrackPointExtension>
            <ns3:atemp>22.0</ns3:atemp>
          </ns3:TrackPointExtension>
        </extensions>
      </trkpt>
      <trkpt lat="42.5147692300379276275634765625" lon="19.77288753725588321685791015625">
        <ele>1842</ele>
        <time>2026-06-18T10:08:12.000Z</time>
        <extensions>
          <ns3:TrackPointExtension>
            <ns3:atemp>22.0</ns3:atemp>
          </ns3:TrackPointExtension>
        </extensions>
      </trkpt>
      <trkpt lat="42.5147692300379276275634765625" lon="19.77288753725588321685791015625">
        <ele>1842</ele>
        <time>2026-06-18T10:08:13.000Z</time>
        <extensions>
          <ns3:TrackPointExtension>
            <ns3:atemp>22.0</ns3:atemp>
          </ns3:TrackPointExtension>
        </extensions>
      </trkpt>
      <trkpt lat="42.5147692300379276275634765625" lon="19.77288753725588321685791015625">
        <ele>1842</ele>
        <time>2026-06-18T10:08:14.000Z</time>
        <extensions>
          <ns3:TrackPointExtension>
            <ns3:atemp>22.0</ns3:atemp>
          </ns3:TrackPointExtension>
        </extensions>
      </trkpt>
      <trkpt lat="42.5147692300379276275634765625" lon="19.77288753725588321685791015625">
        <ele>1842</ele>
        <time>2026-06-18T10:08:15.000Z</time>
        <extensions>
          <ns3:TrackPointExtension>
            <ns3:atemp>22.0</ns3:atemp>
          </ns3:TrackPointExtension>
        </extensions>
      </trkpt>
      <trkpt lat="42.5147692300379276275634765625" lon="19.77288753725588321685791015625">
        <ele>1842</ele>
        <time>2026-06-18T10:08:16.000Z</time>
        <extensions>
          <ns3:TrackPointExtension>
            <ns3:atemp>22.0</ns3:atemp>
          </ns3:TrackPointExtension>
        </extensions>
      </trkpt>
      <trkpt lat="42.5147692300379276275634765625" lon="19.77288753725588321685791015625">
        <ele>1842</ele>
        <time>2026-06-18T10:08:17.000Z</time>
        <extensions>
          <ns3:TrackPointExtension>
            <ns3:atemp>22.0</ns3:atemp>
          </ns3:TrackPointExtension>
        </extensions>
      </trkpt>
      <trkpt lat="42.5147692300379276275634765625" lon="19.77288753725588321685791015625">
        <ele>1842</ele>
        <time>2026-06-18T10:08:18.000Z</time>
        <extensions>
          <ns3:TrackPointExtension>
            <ns3:atemp>22.0</ns3:atemp>
          </ns3:TrackPointExtension>
        </extensions>
      </trkpt>
      <trkpt lat="42.5147692300379276275634765625" lon="19.77288753725588321685791015625">
        <ele>1842</ele>
        <time>2026-06-18T10:08:19.000Z</time>
        <extensions>
          <ns3:TrackPointExtension>
            <ns3:atemp>22.0</ns3:atemp>
          </ns3:TrackPointExtension>
        </extensions>
      </trkpt>
      <trkpt lat="42.5147692300379276275634765625" lon="19.77288753725588321685791015625">
        <ele>1842</ele>
        <time>2026-06-18T10:08:20.000Z</time>
        <extensions>
          <ns3:TrackPointExtension>
            <ns3:atemp>22.0</ns3:atemp>
          </ns3:TrackPointExtension>
        </extensions>
      </trkpt>
      <trkpt lat="42.5147692300379276275634765625" lon="19.77288753725588321685791015625">
        <ele>1842</ele>
        <time>2026-06-18T10:08:21.000Z</time>
        <extensions>
          <ns3:TrackPointExtension>
            <ns3:atemp>22.0</ns3:atemp>
          </ns3:TrackPointExtension>
        </extensions>
      </trkpt>
      <trkpt lat="42.5147692300379276275634765625" lon="19.77288753725588321685791015625">
        <ele>1842</ele>
        <time>2026-06-18T10:08:22.000Z</time>
        <extensions>
          <ns3:TrackPointExtension>
            <ns3:atemp>22.0</ns3:atemp>
          </ns3:TrackPointExtension>
        </extensions>
      </trkpt>
      <trkpt lat="42.5147692300379276275634765625" lon="19.77288753725588321685791015625">
        <ele>1842</ele>
        <time>2026-06-18T10:08:23.000Z</time>
        <extensions>
          <ns3:TrackPointExtension>
            <ns3:atemp>23.0</ns3:atemp>
          </ns3:TrackPointExtension>
        </extensions>
      </trkpt>
      <trkpt lat="42.5147692300379276275634765625" lon="19.77288753725588321685791015625">
        <ele>1842</ele>
        <time>2026-06-18T10:08:24.000Z</time>
        <extensions>
          <ns3:TrackPointExtension>
            <ns3:atemp>23.0</ns3:atemp>
          </ns3:TrackPointExtension>
        </extensions>
      </trkpt>
      <trkpt lat="42.5147692300379276275634765625" lon="19.77288753725588321685791015625">
        <ele>1842</ele>
        <time>2026-06-18T10:08:25.000Z</time>
        <extensions>
          <ns3:TrackPointExtension>
            <ns3:atemp>23.0</ns3:atemp>
          </ns3:TrackPointExtension>
        </extensions>
      </trkpt>
      <trkpt lat="42.5147692300379276275634765625" lon="19.77288753725588321685791015625">
        <ele>1842</ele>
        <time>2026-06-18T10:08:26.000Z</time>
        <extensions>
          <ns3:TrackPointExtension>
            <ns3:atemp>23.0</ns3:atemp>
          </ns3:TrackPointExtension>
        </extensions>
      </trkpt>
      <trkpt lat="42.5147692300379276275634765625" lon="19.77288753725588321685791015625">
        <ele>1842</ele>
        <time>2026-06-18T10:08:27.000Z</time>
        <extensions>
          <ns3:TrackPointExtension>
            <ns3:atemp>23.0</ns3:atemp>
          </ns3:TrackPointExtension>
        </extensions>
      </trkpt>
      <trkpt lat="42.5147692300379276275634765625" lon="19.77288753725588321685791015625">
        <ele>1842</ele>
        <time>2026-06-18T10:08:28.000Z</time>
        <extensions>
          <ns3:TrackPointExtension>
            <ns3:atemp>23.0</ns3:atemp>
          </ns3:TrackPointExtension>
        </extensions>
      </trkpt>
      <trkpt lat="42.5147692300379276275634765625" lon="19.77288753725588321685791015625">
        <ele>1842</ele>
        <time>2026-06-18T10:08:29.000Z</time>
        <extensions>
          <ns3:TrackPointExtension>
            <ns3:atemp>23.0</ns3:atemp>
          </ns3:TrackPointExtension>
        </extensions>
      </trkpt>
      <trkpt lat="42.5147692300379276275634765625" lon="19.77288753725588321685791015625">
        <ele>1842</ele>
        <time>2026-06-18T10:08:30.000Z</time>
        <extensions>
          <ns3:TrackPointExtension>
            <ns3:atemp>23.0</ns3:atemp>
          </ns3:TrackPointExtension>
        </extensions>
      </trkpt>
      <trkpt lat="42.5147692300379276275634765625" lon="19.77288753725588321685791015625">
        <ele>1842</ele>
        <time>2026-06-18T10:08:31.000Z</time>
        <extensions>
          <ns3:TrackPointExtension>
            <ns3:atemp>23.0</ns3:atemp>
          </ns3:TrackPointExtension>
        </extensions>
      </trkpt>
      <trkpt lat="42.5147692300379276275634765625" lon="19.77288753725588321685791015625">
        <ele>1842</ele>
        <time>2026-06-18T10:08:32.000Z</time>
        <extensions>
          <ns3:TrackPointExtension>
            <ns3:atemp>23.0</ns3:atemp>
          </ns3:TrackPointExtension>
        </extensions>
      </trkpt>
      <trkpt lat="42.5147692300379276275634765625" lon="19.77288753725588321685791015625">
        <ele>1842</ele>
        <time>2026-06-18T10:08:33.000Z</time>
        <extensions>
          <ns3:TrackPointExtension>
            <ns3:atemp>23.0</ns3:atemp>
          </ns3:TrackPointExtension>
        </extensions>
      </trkpt>
      <trkpt lat="42.5147692300379276275634765625" lon="19.77288753725588321685791015625">
        <ele>1842</ele>
        <time>2026-06-18T10:08:34.000Z</time>
        <extensions>
          <ns3:TrackPointExtension>
            <ns3:atemp>23.0</ns3:atemp>
          </ns3:TrackPointExtension>
        </extensions>
      </trkpt>
      <trkpt lat="42.5147692300379276275634765625" lon="19.77288753725588321685791015625">
        <ele>1842</ele>
        <time>2026-06-18T10:08:35.000Z</time>
        <extensions>
          <ns3:TrackPointExtension>
            <ns3:atemp>23.0</ns3:atemp>
          </ns3:TrackPointExtension>
        </extensions>
      </trkpt>
      <trkpt lat="42.5147692300379276275634765625" lon="19.77288753725588321685791015625">
        <ele>1842</ele>
        <time>2026-06-18T10:08:36.000Z</time>
        <extensions>
          <ns3:TrackPointExtension>
            <ns3:atemp>23.0</ns3:atemp>
          </ns3:TrackPointExtension>
        </extensions>
      </trkpt>
      <trkpt lat="42.5147692300379276275634765625" lon="19.77288753725588321685791015625">
        <ele>1842</ele>
        <time>2026-06-18T10:08:37.000Z</time>
        <extensions>
          <ns3:TrackPointExtension>
            <ns3:atemp>23.0</ns3:atemp>
          </ns3:TrackPointExtension>
        </extensions>
      </trkpt>
      <trkpt lat="42.5147692300379276275634765625" lon="19.77288753725588321685791015625">
        <ele>1842</ele>
        <time>2026-06-18T10:08:38.000Z</time>
        <extensions>
          <ns3:TrackPointExtension>
            <ns3:atemp>23.0</ns3:atemp>
          </ns3:TrackPointExtension>
        </extensions>
      </trkpt>
      <trkpt lat="42.5147692300379276275634765625" lon="19.77288753725588321685791015625">
        <ele>1842</ele>
        <time>2026-06-18T10:08:39.000Z</time>
        <extensions>
          <ns3:TrackPointExtension>
            <ns3:atemp>23.0</ns3:atemp>
          </ns3:TrackPointExtension>
        </extensions>
      </trkpt>
      <trkpt lat="42.5147692300379276275634765625" lon="19.77288753725588321685791015625">
        <ele>1842</ele>
        <time>2026-06-18T10:08:40.000Z</time>
        <extensions>
          <ns3:TrackPointExtension>
            <ns3:atemp>23.0</ns3:atemp>
          </ns3:TrackPointExtension>
        </extensions>
      </trkpt>
      <trkpt lat="42.5147692300379276275634765625" lon="19.77288753725588321685791015625">
        <ele>1842</ele>
        <time>2026-06-18T10:08:41.000Z</time>
        <extensions>
          <ns3:TrackPointExtension>
            <ns3:atemp>23.0</ns3:atemp>
          </ns3:TrackPointExtension>
        </extensions>
      </trkpt>
      <trkpt lat="42.5147692300379276275634765625" lon="19.77288753725588321685791015625">
        <ele>1842</ele>
        <time>2026-06-18T10:08:42.000Z</time>
        <extensions>
          <ns3:TrackPointExtension>
            <ns3:atemp>23.0</ns3:atemp>
          </ns3:TrackPointExtension>
        </extensions>
      </trkpt>
      <trkpt lat="42.5147692300379276275634765625" lon="19.77288753725588321685791015625">
        <ele>1842</ele>
        <time>2026-06-18T10:08:43.000Z</time>
        <extensions>
          <ns3:TrackPointExtension>
            <ns3:atemp>23.0</ns3:atemp>
          </ns3:TrackPointExtension>
        </extensions>
      </trkpt>
      <trkpt lat="42.5147692300379276275634765625" lon="19.77288753725588321685791015625">
        <ele>1842</ele>
        <time>2026-06-18T10:08:44.000Z</time>
        <extensions>
          <ns3:TrackPointExtension>
            <ns3:atemp>23.0</ns3:atemp>
          </ns3:TrackPointExtension>
        </extensions>
      </trkpt>
      <trkpt lat="42.5147692300379276275634765625" lon="19.77288753725588321685791015625">
        <ele>1842</ele>
        <time>2026-06-18T10:08:45.000Z</time>
        <extensions>
          <ns3:TrackPointExtension>
            <ns3:atemp>23.0</ns3:atemp>
          </ns3:TrackPointExtension>
        </extensions>
      </trkpt>
      <trkpt lat="42.5147692300379276275634765625" lon="19.77288753725588321685791015625">
        <ele>1842</ele>
        <time>2026-06-18T10:08:46.000Z</time>
        <extensions>
          <ns3:TrackPointExtension>
            <ns3:atemp>23.0</ns3:atemp>
          </ns3:TrackPointExtension>
        </extensions>
      </trkpt>
      <trkpt lat="42.5147692300379276275634765625" lon="19.77288753725588321685791015625">
        <ele>1842</ele>
        <time>2026-06-18T10:08:47.000Z</time>
        <extensions>
          <ns3:TrackPointExtension>
            <ns3:atemp>23.0</ns3:atemp>
          </ns3:TrackPointExtension>
        </extensions>
      </trkpt>
      <trkpt lat="42.5147692300379276275634765625" lon="19.77288753725588321685791015625">
        <ele>1842</ele>
        <time>2026-06-18T10:08:48.000Z</time>
        <extensions>
          <ns3:TrackPointExtension>
            <ns3:atemp>23.0</ns3:atemp>
          </ns3:TrackPointExtension>
        </extensions>
      </trkpt>
      <trkpt lat="42.5147692300379276275634765625" lon="19.77288753725588321685791015625">
        <ele>1842</ele>
        <time>2026-06-18T10:08:49.000Z</time>
        <extensions>
          <ns3:TrackPointExtension>
            <ns3:atemp>23.0</ns3:atemp>
          </ns3:TrackPointExtension>
        </extensions>
      </trkpt>
      <trkpt lat="42.5147692300379276275634765625" lon="19.77288753725588321685791015625">
        <ele>1842</ele>
        <time>2026-06-18T10:08:50.000Z</time>
        <extensions>
          <ns3:TrackPointExtension>
            <ns3:atemp>23.0</ns3:atemp>
          </ns3:TrackPointExtension>
        </extensions>
      </trkpt>
      <trkpt lat="42.5147692300379276275634765625" lon="19.77288753725588321685791015625">
        <ele>1842</ele>
        <time>2026-06-18T10:08:51.000Z</time>
        <extensions>
          <ns3:TrackPointExtension>
            <ns3:atemp>23.0</ns3:atemp>
          </ns3:TrackPointExtension>
        </extensions>
      </trkpt>
      <trkpt lat="42.5147692300379276275634765625" lon="19.77288753725588321685791015625">
        <ele>1842</ele>
        <time>2026-06-18T10:08:52.000Z</time>
        <extensions>
          <ns3:TrackPointExtension>
            <ns3:atemp>23.0</ns3:atemp>
          </ns3:TrackPointExtension>
        </extensions>
      </trkpt>
      <trkpt lat="42.5147692300379276275634765625" lon="19.77288753725588321685791015625">
        <ele>1842</ele>
        <time>2026-06-18T10:08:53.000Z</time>
        <extensions>
          <ns3:TrackPointExtension>
            <ns3:atemp>23.0</ns3:atemp>
          </ns3:TrackPointExtension>
        </extensions>
      </trkpt>
      <trkpt lat="42.5147692300379276275634765625" lon="19.77288753725588321685791015625">
        <ele>1842</ele>
        <time>2026-06-18T10:08:54.000Z</time>
        <extensions>
          <ns3:TrackPointExtension>
            <ns3:atemp>23.0</ns3:atemp>
          </ns3:TrackPointExtension>
        </extensions>
      </trkpt>
      <trkpt lat="42.5147692300379276275634765625" lon="19.77288753725588321685791015625">
        <ele>1842</ele>
        <time>2026-06-18T10:08:55.000Z</time>
        <extensions>
          <ns3:TrackPointExtension>
            <ns3:atemp>23.0</ns3:atemp>
          </ns3:TrackPointExtension>
        </extensions>
      </trkpt>
      <trkpt lat="42.5147692300379276275634765625" lon="19.77288753725588321685791015625">
        <ele>1842</ele>
        <time>2026-06-18T10:08:56.000Z</time>
        <extensions>
          <ns3:TrackPointExtension>
            <ns3:atemp>23.0</ns3:atemp>
          </ns3:TrackPointExtension>
        </extensions>
      </trkpt>
      <trkpt lat="42.5147692300379276275634765625" lon="19.77288753725588321685791015625">
        <ele>1842</ele>
        <time>2026-06-18T10:08:57.000Z</time>
        <extensions>
          <ns3:TrackPointExtension>
            <ns3:atemp>23.0</ns3:atemp>
          </ns3:TrackPointExtension>
        </extensions>
      </trkpt>
      <trkpt lat="42.5147692300379276275634765625" lon="19.77288753725588321685791015625">
        <ele>1842</ele>
        <time>2026-06-18T10:08:58.000Z</time>
        <extensions>
          <ns3:TrackPointExtension>
            <ns3:atemp>23.0</ns3:atemp>
          </ns3:TrackPointExtension>
        </extensions>
      </trkpt>
      <trkpt lat="42.5147692300379276275634765625" lon="19.77288753725588321685791015625">
        <ele>1842</ele>
        <time>2026-06-18T10:08:59.000Z</time>
        <extensions>
          <ns3:TrackPointExtension>
            <ns3:atemp>23.0</ns3:atemp>
          </ns3:TrackPointExtension>
        </extensions>
      </trkpt>
      <trkpt lat="42.5147692300379276275634765625" lon="19.77288753725588321685791015625">
        <ele>1842</ele>
        <time>2026-06-18T10:09:00.000Z</time>
        <extensions>
          <ns3:TrackPointExtension>
            <ns3:atemp>23.0</ns3:atemp>
          </ns3:TrackPointExtension>
        </extensions>
      </trkpt>
      <trkpt lat="42.5147692300379276275634765625" lon="19.77288753725588321685791015625">
        <ele>1842</ele>
        <time>2026-06-18T10:09:01.000Z</time>
        <extensions>
          <ns3:TrackPointExtension>
            <ns3:atemp>23.0</ns3:atemp>
          </ns3:TrackPointExtension>
        </extensions>
      </trkpt>
      <trkpt lat="42.5147692300379276275634765625" lon="19.77288753725588321685791015625">
        <ele>1842</ele>
        <time>2026-06-18T10:09:02.000Z</time>
        <extensions>
          <ns3:TrackPointExtension>
            <ns3:atemp>23.0</ns3:atemp>
          </ns3:TrackPointExtension>
        </extensions>
      </trkpt>
      <trkpt lat="42.5147692300379276275634765625" lon="19.77288753725588321685791015625">
        <ele>1842</ele>
        <time>2026-06-18T10:09:03.000Z</time>
        <extensions>
          <ns3:TrackPointExtension>
            <ns3:atemp>23.0</ns3:atemp>
          </ns3:TrackPointExtension>
        </extensions>
      </trkpt>
      <trkpt lat="42.5147692300379276275634765625" lon="19.77288753725588321685791015625">
        <ele>1842</ele>
        <time>2026-06-18T10:09:04.000Z</time>
        <extensions>
          <ns3:TrackPointExtension>
            <ns3:atemp>23.0</ns3:atemp>
          </ns3:TrackPointExtension>
        </extensions>
      </trkpt>
      <trkpt lat="42.5147692300379276275634765625" lon="19.77288753725588321685791015625">
        <ele>1842</ele>
        <time>2026-06-18T10:09:05.000Z</time>
        <extensions>
          <ns3:TrackPointExtension>
            <ns3:atemp>23.0</ns3:atemp>
          </ns3:TrackPointExtension>
        </extensions>
      </trkpt>
      <trkpt lat="42.5147692300379276275634765625" lon="19.77288753725588321685791015625">
        <ele>1842</ele>
        <time>2026-06-18T10:09:06.000Z</time>
        <extensions>
          <ns3:TrackPointExtension>
            <ns3:atemp>23.0</ns3:atemp>
          </ns3:TrackPointExtension>
        </extensions>
      </trkpt>
      <trkpt lat="42.5147692300379276275634765625" lon="19.77288753725588321685791015625">
        <ele>1842</ele>
        <time>2026-06-18T10:09:07.000Z</time>
        <extensions>
          <ns3:TrackPointExtension>
            <ns3:atemp>23.0</ns3:atemp>
          </ns3:TrackPointExtension>
        </extensions>
      </trkpt>
      <trkpt lat="42.5147692300379276275634765625" lon="19.77288753725588321685791015625">
        <ele>1842</ele>
        <time>2026-06-18T10:09:08.000Z</time>
        <extensions>
          <ns3:TrackPointExtension>
            <ns3:atemp>23.0</ns3:atemp>
          </ns3:TrackPointExtension>
        </extensions>
      </trkpt>
      <trkpt lat="42.5147692300379276275634765625" lon="19.77288753725588321685791015625">
        <ele>1842</ele>
        <time>2026-06-18T10:09:09.000Z</time>
        <extensions>
          <ns3:TrackPointExtension>
            <ns3:atemp>23.0</ns3:atemp>
          </ns3:TrackPointExtension>
        </extensions>
      </trkpt>
      <trkpt lat="42.5147692300379276275634765625" lon="19.77288753725588321685791015625">
        <ele>1842</ele>
        <time>2026-06-18T10:09:10.000Z</time>
        <extensions>
          <ns3:TrackPointExtension>
            <ns3:atemp>23.0</ns3:atemp>
          </ns3:TrackPointExtension>
        </extensions>
      </trkpt>
      <trkpt lat="42.5147692300379276275634765625" lon="19.77288753725588321685791015625">
        <ele>1842</ele>
        <time>2026-06-18T10:09:11.000Z</time>
        <extensions>
          <ns3:TrackPointExtension>
            <ns3:atemp>23.0</ns3:atemp>
          </ns3:TrackPointExtension>
        </extensions>
      </trkpt>
      <trkpt lat="42.5147692300379276275634765625" lon="19.77288753725588321685791015625">
        <ele>1842</ele>
        <time>2026-06-18T10:09:12.000Z</time>
        <extensions>
          <ns3:TrackPointExtension>
            <ns3:atemp>23.0</ns3:atemp>
          </ns3:TrackPointExtension>
        </extensions>
      </trkpt>
      <trkpt lat="42.5147692300379276275634765625" lon="19.77288753725588321685791015625">
        <ele>1842</ele>
        <time>2026-06-18T10:09:13.000Z</time>
        <extensions>
          <ns3:TrackPointExtension>
            <ns3:atemp>23.0</ns3:atemp>
          </ns3:TrackPointExtension>
        </extensions>
      </trkpt>
      <trkpt lat="42.5147692300379276275634765625" lon="19.77288753725588321685791015625">
        <ele>1842</ele>
        <time>2026-06-18T10:09:14.000Z</time>
        <extensions>
          <ns3:TrackPointExtension>
            <ns3:atemp>23.0</ns3:atemp>
          </ns3:TrackPointExtension>
        </extensions>
      </trkpt>
      <trkpt lat="42.5147692300379276275634765625" lon="19.77288753725588321685791015625">
        <ele>1842</ele>
        <time>2026-06-18T10:09:15.000Z</time>
        <extensions>
          <ns3:TrackPointExtension>
            <ns3:atemp>23.0</ns3:atemp>
          </ns3:TrackPointExtension>
        </extensions>
      </trkpt>
      <trkpt lat="42.5147692300379276275634765625" lon="19.77288753725588321685791015625">
        <ele>1842</ele>
        <time>2026-06-18T10:09:16.000Z</time>
        <extensions>
          <ns3:TrackPointExtension>
            <ns3:atemp>23.0</ns3:atemp>
          </ns3:TrackPointExtension>
        </extensions>
      </trkpt>
      <trkpt lat="42.5147692300379276275634765625" lon="19.77288753725588321685791015625">
        <ele>1842</ele>
        <time>2026-06-18T10:09:17.000Z</time>
        <extensions>
          <ns3:TrackPointExtension>
            <ns3:atemp>23.0</ns3:atemp>
          </ns3:TrackPointExtension>
        </extensions>
      </trkpt>
      <trkpt lat="42.5147692300379276275634765625" lon="19.77288753725588321685791015625">
        <ele>1842</ele>
        <time>2026-06-18T10:09:18.000Z</time>
        <extensions>
          <ns3:TrackPointExtension>
            <ns3:atemp>23.0</ns3:atemp>
          </ns3:TrackPointExtension>
        </extensions>
      </trkpt>
      <trkpt lat="42.5147692300379276275634765625" lon="19.77288753725588321685791015625">
        <ele>1842</ele>
        <time>2026-06-18T10:09:19.000Z</time>
        <extensions>
          <ns3:TrackPointExtension>
            <ns3:atemp>23.0</ns3:atemp>
          </ns3:TrackPointExtension>
        </extensions>
      </trkpt>
      <trkpt lat="42.5147692300379276275634765625" lon="19.77288753725588321685791015625">
        <ele>1842</ele>
        <time>2026-06-18T10:09:20.000Z</time>
        <extensions>
          <ns3:TrackPointExtension>
            <ns3:atemp>23.0</ns3:atemp>
          </ns3:TrackPointExtension>
        </extensions>
      </trkpt>
      <trkpt lat="42.5147692300379276275634765625" lon="19.77288753725588321685791015625">
        <ele>1842</ele>
        <time>2026-06-18T10:09:21.000Z</time>
        <extensions>
          <ns3:TrackPointExtension>
            <ns3:atemp>23.0</ns3:atemp>
          </ns3:TrackPointExtension>
        </extensions>
      </trkpt>
      <trkpt lat="42.5147692300379276275634765625" lon="19.77288753725588321685791015625">
        <ele>1842</ele>
        <time>2026-06-18T10:09:22.000Z</time>
        <extensions>
          <ns3:TrackPointExtension>
            <ns3:atemp>23.0</ns3:atemp>
          </ns3:TrackPointExtension>
        </extensions>
      </trkpt>
      <trkpt lat="42.5147692300379276275634765625" lon="19.77288753725588321685791015625">
        <ele>1842</ele>
        <time>2026-06-18T10:09:23.000Z</time>
        <extensions>
          <ns3:TrackPointExtension>
            <ns3:atemp>23.0</ns3:atemp>
          </ns3:TrackPointExtension>
        </extensions>
      </trkpt>
      <trkpt lat="42.5147692300379276275634765625" lon="19.77288753725588321685791015625">
        <ele>1842</ele>
        <time>2026-06-18T10:09:24.000Z</time>
        <extensions>
          <ns3:TrackPointExtension>
            <ns3:atemp>23.0</ns3:atemp>
          </ns3:TrackPointExtension>
        </extensions>
      </trkpt>
      <trkpt lat="42.5147692300379276275634765625" lon="19.77288753725588321685791015625">
        <ele>1842</ele>
        <time>2026-06-18T10:09:25.000Z</time>
        <extensions>
          <ns3:TrackPointExtension>
            <ns3:atemp>23.0</ns3:atemp>
          </ns3:TrackPointExtension>
        </extensions>
      </trkpt>
      <trkpt lat="42.5147692300379276275634765625" lon="19.77288753725588321685791015625">
        <ele>1842</ele>
        <time>2026-06-18T10:09:26.000Z</time>
        <extensions>
          <ns3:TrackPointExtension>
            <ns3:atemp>23.0</ns3:atemp>
          </ns3:TrackPointExtension>
        </extensions>
      </trkpt>
      <trkpt lat="42.5147692300379276275634765625" lon="19.77288753725588321685791015625">
        <ele>1842</ele>
        <time>2026-06-18T10:09:27.000Z</time>
        <extensions>
          <ns3:TrackPointExtension>
            <ns3:atemp>23.0</ns3:atemp>
          </ns3:TrackPointExtension>
        </extensions>
      </trkpt>
      <trkpt lat="42.5147692300379276275634765625" lon="19.77288753725588321685791015625">
        <ele>1842</ele>
        <time>2026-06-18T10:09:28.000Z</time>
        <extensions>
          <ns3:TrackPointExtension>
            <ns3:atemp>23.0</ns3:atemp>
          </ns3:TrackPointExtension>
        </extensions>
      </trkpt>
      <trkpt lat="42.5147692300379276275634765625" lon="19.77288753725588321685791015625">
        <ele>1842</ele>
        <time>2026-06-18T10:09:29.000Z</time>
        <extensions>
          <ns3:TrackPointExtension>
            <ns3:atemp>23.0</ns3:atemp>
          </ns3:TrackPointExtension>
        </extensions>
      </trkpt>
      <trkpt lat="42.5147692300379276275634765625" lon="19.77288753725588321685791015625">
        <ele>1842</ele>
        <time>2026-06-18T10:09:30.000Z</time>
        <extensions>
          <ns3:TrackPointExtension>
            <ns3:atemp>23.0</ns3:atemp>
          </ns3:TrackPointExtension>
        </extensions>
      </trkpt>
      <trkpt lat="42.5147692300379276275634765625" lon="19.77288753725588321685791015625">
        <ele>1842</ele>
        <time>2026-06-18T10:09:31.000Z</time>
        <extensions>
          <ns3:TrackPointExtension>
            <ns3:atemp>23.0</ns3:atemp>
          </ns3:TrackPointExtension>
        </extensions>
      </trkpt>
      <trkpt lat="42.5147692300379276275634765625" lon="19.77288753725588321685791015625">
        <ele>1842</ele>
        <time>2026-06-18T10:09:32.000Z</time>
        <extensions>
          <ns3:TrackPointExtension>
            <ns3:atemp>23.0</ns3:atemp>
          </ns3:TrackPointExtension>
        </extensions>
      </trkpt>
      <trkpt lat="42.5147692300379276275634765625" lon="19.77288753725588321685791015625">
        <ele>1842</ele>
        <time>2026-06-18T10:09:33.000Z</time>
        <extensions>
          <ns3:TrackPointExtension>
            <ns3:atemp>23.0</ns3:atemp>
          </ns3:TrackPointExtension>
        </extensions>
      </trkpt>
      <trkpt lat="42.5147692300379276275634765625" lon="19.77288753725588321685791015625">
        <ele>1842</ele>
        <time>2026-06-18T10:09:34.000Z</time>
        <extensions>
          <ns3:TrackPointExtension>
            <ns3:atemp>23.0</ns3:atemp>
          </ns3:TrackPointExtension>
        </extensions>
      </trkpt>
      <trkpt lat="42.5147692300379276275634765625" lon="19.77288753725588321685791015625">
        <ele>1842</ele>
        <time>2026-06-18T10:09:35.000Z</time>
        <extensions>
          <ns3:TrackPointExtension>
            <ns3:atemp>23.0</ns3:atemp>
          </ns3:TrackPointExtension>
        </extensions>
      </trkpt>
      <trkpt lat="42.5147692300379276275634765625" lon="19.77288753725588321685791015625">
        <ele>1842</ele>
        <time>2026-06-18T10:09:36.000Z</time>
        <extensions>
          <ns3:TrackPointExtension>
            <ns3:atemp>23.0</ns3:atemp>
          </ns3:TrackPointExtension>
        </extensions>
      </trkpt>
      <trkpt lat="42.5147692300379276275634765625" lon="19.77288753725588321685791015625">
        <ele>1842</ele>
        <time>2026-06-18T10:09:37.000Z</time>
        <extensions>
          <ns3:TrackPointExtension>
            <ns3:atemp>23.0</ns3:atemp>
          </ns3:TrackPointExtension>
        </extensions>
      </trkpt>
      <trkpt lat="42.5147692300379276275634765625" lon="19.77288753725588321685791015625">
        <ele>1842</ele>
        <time>2026-06-18T10:09:38.000Z</time>
        <extensions>
          <ns3:TrackPointExtension>
            <ns3:atemp>23.0</ns3:atemp>
          </ns3:TrackPointExtension>
        </extensions>
      </trkpt>
      <trkpt lat="42.5147692300379276275634765625" lon="19.77288753725588321685791015625">
        <ele>1842</ele>
        <time>2026-06-18T10:09:39.000Z</time>
        <extensions>
          <ns3:TrackPointExtension>
            <ns3:atemp>23.0</ns3:atemp>
          </ns3:TrackPointExtension>
        </extensions>
      </trkpt>
      <trkpt lat="42.5147692300379276275634765625" lon="19.77288753725588321685791015625">
        <ele>1842</ele>
        <time>2026-06-18T10:09:40.000Z</time>
        <extensions>
          <ns3:TrackPointExtension>
            <ns3:atemp>23.0</ns3:atemp>
          </ns3:TrackPointExtension>
        </extensions>
      </trkpt>
      <trkpt lat="42.5147692300379276275634765625" lon="19.77288753725588321685791015625">
        <ele>1842</ele>
        <time>2026-06-18T10:09:41.000Z</time>
        <extensions>
          <ns3:TrackPointExtension>
            <ns3:atemp>23.0</ns3:atemp>
          </ns3:TrackPointExtension>
        </extensions>
      </trkpt>
      <trkpt lat="42.5147692300379276275634765625" lon="19.77288753725588321685791015625">
        <ele>1842</ele>
        <time>2026-06-18T10:09:42.000Z</time>
        <extensions>
          <ns3:TrackPointExtension>
            <ns3:atemp>23.0</ns3:atemp>
          </ns3:TrackPointExtension>
        </extensions>
      </trkpt>
      <trkpt lat="42.5147692300379276275634765625" lon="19.77288753725588321685791015625">
        <ele>1842</ele>
        <time>2026-06-18T10:09:43.000Z</time>
        <extensions>
          <ns3:TrackPointExtension>
            <ns3:atemp>23.0</ns3:atemp>
          </ns3:TrackPointExtension>
        </extensions>
      </trkpt>
      <trkpt lat="42.5147692300379276275634765625" lon="19.77288753725588321685791015625">
        <ele>1842</ele>
        <time>2026-06-18T10:09:44.000Z</time>
        <extensions>
          <ns3:TrackPointExtension>
            <ns3:atemp>23.0</ns3:atemp>
          </ns3:TrackPointExtension>
        </extensions>
      </trkpt>
      <trkpt lat="42.5147692300379276275634765625" lon="19.77288753725588321685791015625">
        <ele>1842</ele>
        <time>2026-06-18T10:09:45.000Z</time>
        <extensions>
          <ns3:TrackPointExtension>
            <ns3:atemp>23.0</ns3:atemp>
          </ns3:TrackPointExtension>
        </extensions>
      </trkpt>
      <trkpt lat="42.5147692300379276275634765625" lon="19.77288753725588321685791015625">
        <ele>1842</ele>
        <time>2026-06-18T10:09:46.000Z</time>
        <extensions>
          <ns3:TrackPointExtension>
            <ns3:atemp>23.0</ns3:atemp>
          </ns3:TrackPointExtension>
        </extensions>
      </trkpt>
      <trkpt lat="42.5147692300379276275634765625" lon="19.77288753725588321685791015625">
        <ele>1842</ele>
        <time>2026-06-18T10:09:47.000Z</time>
        <extensions>
          <ns3:TrackPointExtension>
            <ns3:atemp>23.0</ns3:atemp>
          </ns3:TrackPointExtension>
        </extensions>
      </trkpt>
      <trkpt lat="42.5147692300379276275634765625" lon="19.77288753725588321685791015625">
        <ele>1842</ele>
        <time>2026-06-18T10:09:48.000Z</time>
        <extensions>
          <ns3:TrackPointExtension>
            <ns3:atemp>23.0</ns3:atemp>
          </ns3:TrackPointExtension>
        </extensions>
      </trkpt>
      <trkpt lat="42.5147692300379276275634765625" lon="19.77288753725588321685791015625">
        <ele>1842</ele>
        <time>2026-06-18T10:09:49.000Z</time>
        <extensions>
          <ns3:TrackPointExtension>
            <ns3:atemp>23.0</ns3:atemp>
          </ns3:TrackPointExtension>
        </extensions>
      </trkpt>
      <trkpt lat="42.5147692300379276275634765625" lon="19.77288753725588321685791015625">
        <ele>1842</ele>
        <time>2026-06-18T10:09:50.000Z</time>
        <extensions>
          <ns3:TrackPointExtension>
            <ns3:atemp>23.0</ns3:atemp>
          </ns3:TrackPointExtension>
        </extensions>
      </trkpt>
      <trkpt lat="42.5147692300379276275634765625" lon="19.77288753725588321685791015625">
        <ele>1842</ele>
        <time>2026-06-18T10:09:51.000Z</time>
        <extensions>
          <ns3:TrackPointExtension>
            <ns3:atemp>23.0</ns3:atemp>
          </ns3:TrackPointExtension>
        </extensions>
      </trkpt>
      <trkpt lat="42.5147692300379276275634765625" lon="19.77288753725588321685791015625">
        <ele>1842</ele>
        <time>2026-06-18T10:09:52.000Z</time>
        <extensions>
          <ns3:TrackPointExtension>
            <ns3:atemp>23.0</ns3:atemp>
          </ns3:TrackPointExtension>
        </extensions>
      </trkpt>
      <trkpt lat="42.5147692300379276275634765625" lon="19.77288753725588321685791015625">
        <ele>1842</ele>
        <time>2026-06-18T10:09:53.000Z</time>
        <extensions>
          <ns3:TrackPointExtension>
            <ns3:atemp>23.0</ns3:atemp>
          </ns3:TrackPointExtension>
        </extensions>
      </trkpt>
      <trkpt lat="42.5147692300379276275634765625" lon="19.77288753725588321685791015625">
        <ele>1842</ele>
        <time>2026-06-18T10:09:54.000Z</time>
        <extensions>
          <ns3:TrackPointExtension>
            <ns3:atemp>23.0</ns3:atemp>
          </ns3:TrackPointExtension>
        </extensions>
      </trkpt>
      <trkpt lat="42.5147692300379276275634765625" lon="19.77288753725588321685791015625">
        <ele>1842</ele>
        <time>2026-06-18T10:09:55.000Z</time>
        <extensions>
          <ns3:TrackPointExtension>
            <ns3:atemp>23.0</ns3:atemp>
          </ns3:TrackPointExtension>
        </extensions>
      </trkpt>
      <trkpt lat="42.5147692300379276275634765625" lon="19.77288753725588321685791015625">
        <ele>1842</ele>
        <time>2026-06-18T10:09:56.000Z</time>
        <extensions>
          <ns3:TrackPointExtension>
            <ns3:atemp>23.0</ns3:atemp>
          </ns3:TrackPointExtension>
        </extensions>
      </trkpt>
      <trkpt lat="42.5147692300379276275634765625" lon="19.77288753725588321685791015625">
        <ele>1842</ele>
        <time>2026-06-18T10:09:57.000Z</time>
        <extensions>
          <ns3:TrackPointExtension>
            <ns3:atemp>23.0</ns3:atemp>
          </ns3:TrackPointExtension>
        </extensions>
      </trkpt>
      <trkpt lat="42.5147692300379276275634765625" lon="19.77288753725588321685791015625">
        <ele>1842</ele>
        <time>2026-06-18T10:09:58.000Z</time>
        <extensions>
          <ns3:TrackPointExtension>
            <ns3:atemp>23.0</ns3:atemp>
          </ns3:TrackPointExtension>
        </extensions>
      </trkpt>
      <trkpt lat="42.5147692300379276275634765625" lon="19.77288753725588321685791015625">
        <ele>1842</ele>
        <time>2026-06-18T10:09:59.000Z</time>
        <extensions>
          <ns3:TrackPointExtension>
            <ns3:atemp>23.0</ns3:atemp>
          </ns3:TrackPointExtension>
        </extensions>
      </trkpt>
      <trkpt lat="42.5147692300379276275634765625" lon="19.77288753725588321685791015625">
        <ele>1842</ele>
        <time>2026-06-18T10:10:00.000Z</time>
        <extensions>
          <ns3:TrackPointExtension>
            <ns3:atemp>23.0</ns3:atemp>
          </ns3:TrackPointExtension>
        </extensions>
      </trkpt>
      <trkpt lat="42.5147692300379276275634765625" lon="19.77288753725588321685791015625">
        <ele>1842</ele>
        <time>2026-06-18T10:10:01.000Z</time>
        <extensions>
          <ns3:TrackPointExtension>
            <ns3:atemp>23.0</ns3:atemp>
          </ns3:TrackPointExtension>
        </extensions>
      </trkpt>
      <trkpt lat="42.5147692300379276275634765625" lon="19.77288753725588321685791015625">
        <ele>1842</ele>
        <time>2026-06-18T10:10:02.000Z</time>
        <extensions>
          <ns3:TrackPointExtension>
            <ns3:atemp>23.0</ns3:atemp>
          </ns3:TrackPointExtension>
        </extensions>
      </trkpt>
      <trkpt lat="42.5147692300379276275634765625" lon="19.77288753725588321685791015625">
        <ele>1842</ele>
        <time>2026-06-18T10:10:03.000Z</time>
        <extensions>
          <ns3:TrackPointExtension>
            <ns3:atemp>23.0</ns3:atemp>
          </ns3:TrackPointExtension>
        </extensions>
      </trkpt>
      <trkpt lat="42.5147692300379276275634765625" lon="19.77288753725588321685791015625">
        <ele>1842</ele>
        <time>2026-06-18T10:10:04.000Z</time>
        <extensions>
          <ns3:TrackPointExtension>
            <ns3:atemp>23.0</ns3:atemp>
          </ns3:TrackPointExtension>
        </extensions>
      </trkpt>
      <trkpt lat="42.5147692300379276275634765625" lon="19.77288753725588321685791015625">
        <ele>1842</ele>
        <time>2026-06-18T10:10:05.000Z</time>
        <extensions>
          <ns3:TrackPointExtension>
            <ns3:atemp>23.0</ns3:atemp>
          </ns3:TrackPointExtension>
        </extensions>
      </trkpt>
      <trkpt lat="42.5147692300379276275634765625" lon="19.77288753725588321685791015625">
        <ele>1842</ele>
        <time>2026-06-18T10:10:06.000Z</time>
        <extensions>
          <ns3:TrackPointExtension>
            <ns3:atemp>23.0</ns3:atemp>
          </ns3:TrackPointExtension>
        </extensions>
      </trkpt>
      <trkpt lat="42.5147692300379276275634765625" lon="19.77288753725588321685791015625">
        <ele>1842</ele>
        <time>2026-06-18T10:10:07.000Z</time>
        <extensions>
          <ns3:TrackPointExtension>
            <ns3:atemp>23.0</ns3:atemp>
          </ns3:TrackPointExtension>
        </extensions>
      </trkpt>
      <trkpt lat="42.5147692300379276275634765625" lon="19.77288753725588321685791015625">
        <ele>1842</ele>
        <time>2026-06-18T10:10:08.000Z</time>
        <extensions>
          <ns3:TrackPointExtension>
            <ns3:atemp>23.0</ns3:atemp>
          </ns3:TrackPointExtension>
        </extensions>
      </trkpt>
      <trkpt lat="42.5147692300379276275634765625" lon="19.77288753725588321685791015625">
        <ele>1842</ele>
        <time>2026-06-18T10:10:09.000Z</time>
        <extensions>
          <ns3:TrackPointExtension>
            <ns3:atemp>23.0</ns3:atemp>
          </ns3:TrackPointExtension>
        </extensions>
      </trkpt>
      <trkpt lat="42.5147692300379276275634765625" lon="19.77288753725588321685791015625">
        <ele>1842</ele>
        <time>2026-06-18T10:10:10.000Z</time>
        <extensions>
          <ns3:TrackPointExtension>
            <ns3:atemp>23.0</ns3:atemp>
          </ns3:TrackPointExtension>
        </extensions>
      </trkpt>
      <trkpt lat="42.5147692300379276275634765625" lon="19.77288753725588321685791015625">
        <ele>1842</ele>
        <time>2026-06-18T10:10:11.000Z</time>
        <extensions>
          <ns3:TrackPointExtension>
            <ns3:atemp>23.0</ns3:atemp>
          </ns3:TrackPointExtension>
        </extensions>
      </trkpt>
      <trkpt lat="42.5147692300379276275634765625" lon="19.77288753725588321685791015625">
        <ele>1842</ele>
        <time>2026-06-18T10:10:12.000Z</time>
        <extensions>
          <ns3:TrackPointExtension>
            <ns3:atemp>23.0</ns3:atemp>
          </ns3:TrackPointExtension>
        </extensions>
      </trkpt>
      <trkpt lat="42.5147692300379276275634765625" lon="19.77288753725588321685791015625">
        <ele>1842</ele>
        <time>2026-06-18T10:10:13.000Z</time>
        <extensions>
          <ns3:TrackPointExtension>
            <ns3:atemp>23.0</ns3:atemp>
          </ns3:TrackPointExtension>
        </extensions>
      </trkpt>
      <trkpt lat="42.5147692300379276275634765625" lon="19.77288753725588321685791015625">
        <ele>1842</ele>
        <time>2026-06-18T10:10:14.000Z</time>
        <extensions>
          <ns3:TrackPointExtension>
            <ns3:atemp>23.0</ns3:atemp>
          </ns3:TrackPointExtension>
        </extensions>
      </trkpt>
      <trkpt lat="42.5147692300379276275634765625" lon="19.77288753725588321685791015625">
        <ele>1842</ele>
        <time>2026-06-18T10:10:15.000Z</time>
        <extensions>
          <ns3:TrackPointExtension>
            <ns3:atemp>23.0</ns3:atemp>
          </ns3:TrackPointExtension>
        </extensions>
      </trkpt>
      <trkpt lat="42.5147692300379276275634765625" lon="19.77288753725588321685791015625">
        <ele>1842</ele>
        <time>2026-06-18T10:10:16.000Z</time>
        <extensions>
          <ns3:TrackPointExtension>
            <ns3:atemp>23.0</ns3:atemp>
          </ns3:TrackPointExtension>
        </extensions>
      </trkpt>
      <trkpt lat="42.5147692300379276275634765625" lon="19.77288753725588321685791015625">
        <ele>1842</ele>
        <time>2026-06-18T10:10:17.000Z</time>
        <extensions>
          <ns3:TrackPointExtension>
            <ns3:atemp>23.0</ns3:atemp>
          </ns3:TrackPointExtension>
        </extensions>
      </trkpt>
      <trkpt lat="42.5147692300379276275634765625" lon="19.77288753725588321685791015625">
        <ele>1842</ele>
        <time>2026-06-18T10:10:18.000Z</time>
        <extensions>
          <ns3:TrackPointExtension>
            <ns3:atemp>23.0</ns3:atemp>
          </ns3:TrackPointExtension>
        </extensions>
      </trkpt>
      <trkpt lat="42.5147692300379276275634765625" lon="19.77288753725588321685791015625">
        <ele>1842</ele>
        <time>2026-06-18T10:10:19.000Z</time>
        <extensions>
          <ns3:TrackPointExtension>
            <ns3:atemp>23.0</ns3:atemp>
          </ns3:TrackPointExtension>
        </extensions>
      </trkpt>
      <trkpt lat="42.5147692300379276275634765625" lon="19.77288753725588321685791015625">
        <ele>1842</ele>
        <time>2026-06-18T10:10:20.000Z</time>
        <extensions>
          <ns3:TrackPointExtension>
            <ns3:atemp>23.0</ns3:atemp>
          </ns3:TrackPointExtension>
        </extensions>
      </trkpt>
      <trkpt lat="42.5147692300379276275634765625" lon="19.77288753725588321685791015625">
        <ele>1842</ele>
        <time>2026-06-18T10:10:21.000Z</time>
        <extensions>
          <ns3:TrackPointExtension>
            <ns3:atemp>23.0</ns3:atemp>
          </ns3:TrackPointExtension>
        </extensions>
      </trkpt>
      <trkpt lat="42.5147692300379276275634765625" lon="19.77288753725588321685791015625">
        <ele>1842</ele>
        <time>2026-06-18T10:10:22.000Z</time>
        <extensions>
          <ns3:TrackPointExtension>
            <ns3:atemp>23.0</ns3:atemp>
          </ns3:TrackPointExtension>
        </extensions>
      </trkpt>
      <trkpt lat="42.5147692300379276275634765625" lon="19.77288753725588321685791015625">
        <ele>1842</ele>
        <time>2026-06-18T10:10:23.000Z</time>
        <extensions>
          <ns3:TrackPointExtension>
            <ns3:atemp>23.0</ns3:atemp>
          </ns3:TrackPointExtension>
        </extensions>
      </trkpt>
      <trkpt lat="42.5147692300379276275634765625" lon="19.77288753725588321685791015625">
        <ele>1842</ele>
        <time>2026-06-18T10:10:24.000Z</time>
        <extensions>
          <ns3:TrackPointExtension>
            <ns3:atemp>23.0</ns3:atemp>
          </ns3:TrackPointExtension>
        </extensions>
      </trkpt>
      <trkpt lat="42.5147692300379276275634765625" lon="19.77288753725588321685791015625">
        <ele>1842</ele>
        <time>2026-06-18T10:10:25.000Z</time>
        <extensions>
          <ns3:TrackPointExtension>
            <ns3:atemp>23.0</ns3:atemp>
          </ns3:TrackPointExtension>
        </extensions>
      </trkpt>
      <trkpt lat="42.5147692300379276275634765625" lon="19.77288753725588321685791015625">
        <ele>1842</ele>
        <time>2026-06-18T10:10:26.000Z</time>
        <extensions>
          <ns3:TrackPointExtension>
            <ns3:atemp>23.0</ns3:atemp>
          </ns3:TrackPointExtension>
        </extensions>
      </trkpt>
      <trkpt lat="42.5147692300379276275634765625" lon="19.77288753725588321685791015625">
        <ele>1842</ele>
        <time>2026-06-18T10:10:27.000Z</time>
        <extensions>
          <ns3:TrackPointExtension>
            <ns3:atemp>23.0</ns3:atemp>
          </ns3:TrackPointExtension>
        </extensions>
      </trkpt>
      <trkpt lat="42.5147692300379276275634765625" lon="19.77288753725588321685791015625">
        <ele>1842</ele>
        <time>2026-06-18T10:10:28.000Z</time>
        <extensions>
          <ns3:TrackPointExtension>
            <ns3:atemp>23.0</ns3:atemp>
          </ns3:TrackPointExtension>
        </extensions>
      </trkpt>
      <trkpt lat="42.5147692300379276275634765625" lon="19.77288753725588321685791015625">
        <ele>1842</ele>
        <time>2026-06-18T10:10:29.000Z</time>
        <extensions>
          <ns3:TrackPointExtension>
            <ns3:atemp>23.0</ns3:atemp>
          </ns3:TrackPointExtension>
        </extensions>
      </trkpt>
      <trkpt lat="42.5147692300379276275634765625" lon="19.77288753725588321685791015625">
        <ele>1842</ele>
        <time>2026-06-18T10:10:30.000Z</time>
        <extensions>
          <ns3:TrackPointExtension>
            <ns3:atemp>23.0</ns3:atemp>
          </ns3:TrackPointExtension>
        </extensions>
      </trkpt>
      <trkpt lat="42.5147692300379276275634765625" lon="19.77288753725588321685791015625">
        <ele>1842</ele>
        <time>2026-06-18T10:10:31.000Z</time>
        <extensions>
          <ns3:TrackPointExtension>
            <ns3:atemp>23.0</ns3:atemp>
          </ns3:TrackPointExtension>
        </extensions>
      </trkpt>
      <trkpt lat="42.5147692300379276275634765625" lon="19.77288753725588321685791015625">
        <ele>1842</ele>
        <time>2026-06-18T10:10:32.000Z</time>
        <extensions>
          <ns3:TrackPointExtension>
            <ns3:atemp>23.0</ns3:atemp>
          </ns3:TrackPointExtension>
        </extensions>
      </trkpt>
      <trkpt lat="42.5147692300379276275634765625" lon="19.77288753725588321685791015625">
        <ele>1842</ele>
        <time>2026-06-18T10:10:33.000Z</time>
        <extensions>
          <ns3:TrackPointExtension>
            <ns3:atemp>23.0</ns3:atemp>
          </ns3:TrackPointExtension>
        </extensions>
      </trkpt>
      <trkpt lat="42.5147692300379276275634765625" lon="19.77288753725588321685791015625">
        <ele>1842</ele>
        <time>2026-06-18T10:10:34.000Z</time>
        <extensions>
          <ns3:TrackPointExtension>
            <ns3:atemp>23.0</ns3:atemp>
          </ns3:TrackPointExtension>
        </extensions>
      </trkpt>
      <trkpt lat="42.5147692300379276275634765625" lon="19.77288753725588321685791015625">
        <ele>1842</ele>
        <time>2026-06-18T10:10:35.000Z</time>
        <extensions>
          <ns3:TrackPointExtension>
            <ns3:atemp>23.0</ns3:atemp>
          </ns3:TrackPointExtension>
        </extensions>
      </trkpt>
      <trkpt lat="42.5147692300379276275634765625" lon="19.77288753725588321685791015625">
        <ele>1842</ele>
        <time>2026-06-18T10:10:36.000Z</time>
        <extensions>
          <ns3:TrackPointExtension>
            <ns3:atemp>23.0</ns3:atemp>
          </ns3:TrackPointExtension>
        </extensions>
      </trkpt>
      <trkpt lat="42.5147692300379276275634765625" lon="19.77288753725588321685791015625">
        <ele>1842</ele>
        <time>2026-06-18T10:10:37.000Z</time>
        <extensions>
          <ns3:TrackPointExtension>
            <ns3:atemp>23.0</ns3:atemp>
          </ns3:TrackPointExtension>
        </extensions>
      </trkpt>
      <trkpt lat="42.5147692300379276275634765625" lon="19.77288753725588321685791015625">
        <ele>1842</ele>
        <time>2026-06-18T10:10:38.000Z</time>
        <extensions>
          <ns3:TrackPointExtension>
            <ns3:atemp>23.0</ns3:atemp>
          </ns3:TrackPointExtension>
        </extensions>
      </trkpt>
      <trkpt lat="42.5147692300379276275634765625" lon="19.77288753725588321685791015625">
        <ele>1842</ele>
        <time>2026-06-18T10:10:39.000Z</time>
        <extensions>
          <ns3:TrackPointExtension>
            <ns3:atemp>23.0</ns3:atemp>
          </ns3:TrackPointExtension>
        </extensions>
      </trkpt>
      <trkpt lat="42.5147692300379276275634765625" lon="19.77288753725588321685791015625">
        <ele>1842</ele>
        <time>2026-06-18T10:10:40.000Z</time>
        <extensions>
          <ns3:TrackPointExtension>
            <ns3:atemp>23.0</ns3:atemp>
          </ns3:TrackPointExtension>
        </extensions>
      </trkpt>
      <trkpt lat="42.5147692300379276275634765625" lon="19.77288753725588321685791015625">
        <ele>1842</ele>
        <time>2026-06-18T10:10:41.000Z</time>
        <extensions>
          <ns3:TrackPointExtension>
            <ns3:atemp>23.0</ns3:atemp>
          </ns3:TrackPointExtension>
        </extensions>
      </trkpt>
      <trkpt lat="42.5147692300379276275634765625" lon="19.77288753725588321685791015625">
        <ele>1842</ele>
        <time>2026-06-18T10:10:42.000Z</time>
        <extensions>
          <ns3:TrackPointExtension>
            <ns3:atemp>23.0</ns3:atemp>
          </ns3:TrackPointExtension>
        </extensions>
      </trkpt>
      <trkpt lat="42.5147692300379276275634765625" lon="19.77288753725588321685791015625">
        <ele>1842</ele>
        <time>2026-06-18T10:10:43.000Z</time>
        <extensions>
          <ns3:TrackPointExtension>
            <ns3:atemp>23.0</ns3:atemp>
          </ns3:TrackPointExtension>
        </extensions>
      </trkpt>
      <trkpt lat="42.5147692300379276275634765625" lon="19.77288753725588321685791015625">
        <ele>1842</ele>
        <time>2026-06-18T10:10:44.000Z</time>
        <extensions>
          <ns3:TrackPointExtension>
            <ns3:atemp>23.0</ns3:atemp>
          </ns3:TrackPointExtension>
        </extensions>
      </trkpt>
      <trkpt lat="42.5147692300379276275634765625" lon="19.77288753725588321685791015625">
        <ele>1842</ele>
        <time>2026-06-18T10:10:45.000Z</time>
        <extensions>
          <ns3:TrackPointExtension>
            <ns3:atemp>23.0</ns3:atemp>
          </ns3:TrackPointExtension>
        </extensions>
      </trkpt>
      <trkpt lat="42.5147692300379276275634765625" lon="19.77288753725588321685791015625">
        <ele>1842</ele>
        <time>2026-06-18T10:10:46.000Z</time>
        <extensions>
          <ns3:TrackPointExtension>
            <ns3:atemp>23.0</ns3:atemp>
          </ns3:TrackPointExtension>
        </extensions>
      </trkpt>
      <trkpt lat="42.5147692300379276275634765625" lon="19.77288753725588321685791015625">
        <ele>1842</ele>
        <time>2026-06-18T10:10:47.000Z</time>
        <extensions>
          <ns3:TrackPointExtension>
            <ns3:atemp>23.0</ns3:atemp>
          </ns3:TrackPointExtension>
        </extensions>
      </trkpt>
      <trkpt lat="42.5147692300379276275634765625" lon="19.77288753725588321685791015625">
        <ele>1842</ele>
        <time>2026-06-18T10:10:48.000Z</time>
        <extensions>
          <ns3:TrackPointExtension>
            <ns3:atemp>23.0</ns3:atemp>
          </ns3:TrackPointExtension>
        </extensions>
      </trkpt>
      <trkpt lat="42.5147692300379276275634765625" lon="19.77288753725588321685791015625">
        <ele>1842</ele>
        <time>2026-06-18T10:10:49.000Z</time>
        <extensions>
          <ns3:TrackPointExtension>
            <ns3:atemp>23.0</ns3:atemp>
          </ns3:TrackPointExtension>
        </extensions>
      </trkpt>
      <trkpt lat="42.5147692300379276275634765625" lon="19.77288753725588321685791015625">
        <ele>1842</ele>
        <time>2026-06-18T10:10:50.000Z</time>
        <extensions>
          <ns3:TrackPointExtension>
            <ns3:atemp>23.0</ns3:atemp>
          </ns3:TrackPointExtension>
        </extensions>
      </trkpt>
      <trkpt lat="42.5147692300379276275634765625" lon="19.77288753725588321685791015625">
        <ele>1842</ele>
        <time>2026-06-18T10:10:51.000Z</time>
        <extensions>
          <ns3:TrackPointExtension>
            <ns3:atemp>23.0</ns3:atemp>
          </ns3:TrackPointExtension>
        </extensions>
      </trkpt>
      <trkpt lat="42.5147692300379276275634765625" lon="19.77288753725588321685791015625">
        <ele>1842</ele>
        <time>2026-06-18T10:10:52.000Z</time>
        <extensions>
          <ns3:TrackPointExtension>
            <ns3:atemp>23.0</ns3:atemp>
          </ns3:TrackPointExtension>
        </extensions>
      </trkpt>
      <trkpt lat="42.5147692300379276275634765625" lon="19.77288753725588321685791015625">
        <ele>1842</ele>
        <time>2026-06-18T10:10:53.000Z</time>
        <extensions>
          <ns3:TrackPointExtension>
            <ns3:atemp>23.0</ns3:atemp>
          </ns3:TrackPointExtension>
        </extensions>
      </trkpt>
      <trkpt lat="42.5147692300379276275634765625" lon="19.77288753725588321685791015625">
        <ele>1842</ele>
        <time>2026-06-18T10:10:54.000Z</time>
        <extensions>
          <ns3:TrackPointExtension>
            <ns3:atemp>23.0</ns3:atemp>
          </ns3:TrackPointExtension>
        </extensions>
      </trkpt>
      <trkpt lat="42.5147692300379276275634765625" lon="19.77288753725588321685791015625">
        <ele>1842</ele>
        <time>2026-06-18T10:10:55.000Z</time>
        <extensions>
          <ns3:TrackPointExtension>
            <ns3:atemp>23.0</ns3:atemp>
          </ns3:TrackPointExtension>
        </extensions>
      </trkpt>
      <trkpt lat="42.5147692300379276275634765625" lon="19.77288753725588321685791015625">
        <ele>1842</ele>
        <time>2026-06-18T10:10:56.000Z</time>
        <extensions>
          <ns3:TrackPointExtension>
            <ns3:atemp>23.0</ns3:atemp>
          </ns3:TrackPointExtension>
        </extensions>
      </trkpt>
      <trkpt lat="42.5147692300379276275634765625" lon="19.77288753725588321685791015625">
        <ele>1842</ele>
        <time>2026-06-18T10:10:57.000Z</time>
        <extensions>
          <ns3:TrackPointExtension>
            <ns3:atemp>23.0</ns3:atemp>
          </ns3:TrackPointExtension>
        </extensions>
      </trkpt>
      <trkpt lat="42.5147692300379276275634765625" lon="19.77288753725588321685791015625">
        <ele>1842</ele>
        <time>2026-06-18T10:10:58.000Z</time>
        <extensions>
          <ns3:TrackPointExtension>
            <ns3:atemp>23.0</ns3:atemp>
          </ns3:TrackPointExtension>
        </extensions>
      </trkpt>
      <trkpt lat="42.5147692300379276275634765625" lon="19.77288753725588321685791015625">
        <ele>1842</ele>
        <time>2026-06-18T10:10:59.000Z</time>
        <extensions>
          <ns3:TrackPointExtension>
            <ns3:atemp>23.0</ns3:atemp>
          </ns3:TrackPointExtension>
        </extensions>
      </trkpt>
      <trkpt lat="42.5147692300379276275634765625" lon="19.77288753725588321685791015625">
        <ele>1842</ele>
        <time>2026-06-18T10:11:00.000Z</time>
        <extensions>
          <ns3:TrackPointExtension>
            <ns3:atemp>23.0</ns3:atemp>
          </ns3:TrackPointExtension>
        </extensions>
      </trkpt>
      <trkpt lat="42.5147692300379276275634765625" lon="19.77288753725588321685791015625">
        <ele>1842</ele>
        <time>2026-06-18T10:11:01.000Z</time>
        <extensions>
          <ns3:TrackPointExtension>
            <ns3:atemp>23.0</ns3:atemp>
          </ns3:TrackPointExtension>
        </extensions>
      </trkpt>
      <trkpt lat="42.5147692300379276275634765625" lon="19.77288753725588321685791015625">
        <ele>1842</ele>
        <time>2026-06-18T10:11:02.000Z</time>
        <extensions>
          <ns3:TrackPointExtension>
            <ns3:atemp>23.0</ns3:atemp>
          </ns3:TrackPointExtension>
        </extensions>
      </trkpt>
      <trkpt lat="42.5147692300379276275634765625" lon="19.77288753725588321685791015625">
        <ele>1842</ele>
        <time>2026-06-18T10:11:03.000Z</time>
        <extensions>
          <ns3:TrackPointExtension>
            <ns3:atemp>23.0</ns3:atemp>
          </ns3:TrackPointExtension>
        </extensions>
      </trkpt>
      <trkpt lat="42.5147692300379276275634765625" lon="19.77288753725588321685791015625">
        <ele>1842</ele>
        <time>2026-06-18T10:11:04.000Z</time>
        <extensions>
          <ns3:TrackPointExtension>
            <ns3:atemp>23.0</ns3:atemp>
          </ns3:TrackPointExtension>
        </extensions>
      </trkpt>
      <trkpt lat="42.5147692300379276275634765625" lon="19.77288753725588321685791015625">
        <ele>1842</ele>
        <time>2026-06-18T10:11:05.000Z</time>
        <extensions>
          <ns3:TrackPointExtension>
            <ns3:atemp>23.0</ns3:atemp>
          </ns3:TrackPointExtension>
        </extensions>
      </trkpt>
      <trkpt lat="42.5147692300379276275634765625" lon="19.77288753725588321685791015625">
        <ele>1842</ele>
        <time>2026-06-18T10:11:06.000Z</time>
        <extensions>
          <ns3:TrackPointExtension>
            <ns3:atemp>23.0</ns3:atemp>
          </ns3:TrackPointExtension>
        </extensions>
      </trkpt>
      <trkpt lat="42.5147692300379276275634765625" lon="19.77288753725588321685791015625">
        <ele>1842</ele>
        <time>2026-06-18T10:11:07.000Z</time>
        <extensions>
          <ns3:TrackPointExtension>
            <ns3:atemp>23.0</ns3:atemp>
          </ns3:TrackPointExtension>
        </extensions>
      </trkpt>
      <trkpt lat="42.5147692300379276275634765625" lon="19.77288753725588321685791015625">
        <ele>1842</ele>
        <time>2026-06-18T10:11:08.000Z</time>
        <extensions>
          <ns3:TrackPointExtension>
            <ns3:atemp>23.0</ns3:atemp>
          </ns3:TrackPointExtension>
        </extensions>
      </trkpt>
      <trkpt lat="42.5147692300379276275634765625" lon="19.77288753725588321685791015625">
        <ele>1842</ele>
        <time>2026-06-18T10:11:09.000Z</time>
        <extensions>
          <ns3:TrackPointExtension>
            <ns3:atemp>23.0</ns3:atemp>
          </ns3:TrackPointExtension>
        </extensions>
      </trkpt>
      <trkpt lat="42.5147692300379276275634765625" lon="19.77288753725588321685791015625">
        <ele>1842</ele>
        <time>2026-06-18T10:11:10.000Z</time>
        <extensions>
          <ns3:TrackPointExtension>
            <ns3:atemp>23.0</ns3:atemp>
          </ns3:TrackPointExtension>
        </extensions>
      </trkpt>
      <trkpt lat="42.5147692300379276275634765625" lon="19.77288753725588321685791015625">
        <ele>1842</ele>
        <time>2026-06-18T10:11:11.000Z</time>
        <extensions>
          <ns3:TrackPointExtension>
            <ns3:atemp>23.0</ns3:atemp>
          </ns3:TrackPointExtension>
        </extensions>
      </trkpt>
      <trkpt lat="42.5147692300379276275634765625" lon="19.77288753725588321685791015625">
        <ele>1842</ele>
        <time>2026-06-18T10:11:12.000Z</time>
        <extensions>
          <ns3:TrackPointExtension>
            <ns3:atemp>23.0</ns3:atemp>
          </ns3:TrackPointExtension>
        </extensions>
      </trkpt>
      <trkpt lat="42.5147692300379276275634765625" lon="19.77288753725588321685791015625">
        <ele>1842</ele>
        <time>2026-06-18T10:11:13.000Z</time>
        <extensions>
          <ns3:TrackPointExtension>
            <ns3:atemp>23.0</ns3:atemp>
          </ns3:TrackPointExtension>
        </extensions>
      </trkpt>
      <trkpt lat="42.5147692300379276275634765625" lon="19.77288753725588321685791015625">
        <ele>1842</ele>
        <time>2026-06-18T10:11:14.000Z</time>
        <extensions>
          <ns3:TrackPointExtension>
            <ns3:atemp>23.0</ns3:atemp>
          </ns3:TrackPointExtension>
        </extensions>
      </trkpt>
      <trkpt lat="42.5147692300379276275634765625" lon="19.77288753725588321685791015625">
        <ele>1842</ele>
        <time>2026-06-18T10:11:15.000Z</time>
        <extensions>
          <ns3:TrackPointExtension>
            <ns3:atemp>23.0</ns3:atemp>
          </ns3:TrackPointExtension>
        </extensions>
      </trkpt>
      <trkpt lat="42.5147692300379276275634765625" lon="19.77288753725588321685791015625">
        <ele>1842</ele>
        <time>2026-06-18T10:11:16.000Z</time>
        <extensions>
          <ns3:TrackPointExtension>
            <ns3:atemp>23.0</ns3:atemp>
          </ns3:TrackPointExtension>
        </extensions>
      </trkpt>
      <trkpt lat="42.5147692300379276275634765625" lon="19.77288753725588321685791015625">
        <ele>1842</ele>
        <time>2026-06-18T10:11:17.000Z</time>
        <extensions>
          <ns3:TrackPointExtension>
            <ns3:atemp>23.0</ns3:atemp>
          </ns3:TrackPointExtension>
        </extensions>
      </trkpt>
      <trkpt lat="42.5147692300379276275634765625" lon="19.77288753725588321685791015625">
        <ele>1842</ele>
        <time>2026-06-18T10:11:18.000Z</time>
        <extensions>
          <ns3:TrackPointExtension>
            <ns3:atemp>23.0</ns3:atemp>
          </ns3:TrackPointExtension>
        </extensions>
      </trkpt>
      <trkpt lat="42.5147692300379276275634765625" lon="19.77288753725588321685791015625">
        <ele>1842</ele>
        <time>2026-06-18T10:11:19.000Z</time>
        <extensions>
          <ns3:TrackPointExtension>
            <ns3:atemp>23.0</ns3:atemp>
          </ns3:TrackPointExtension>
        </extensions>
      </trkpt>
      <trkpt lat="42.5147692300379276275634765625" lon="19.77288753725588321685791015625">
        <ele>1842</ele>
        <time>2026-06-18T10:11:20.000Z</time>
        <extensions>
          <ns3:TrackPointExtension>
            <ns3:atemp>23.0</ns3:atemp>
          </ns3:TrackPointExtension>
        </extensions>
      </trkpt>
      <trkpt lat="42.5147692300379276275634765625" lon="19.77288753725588321685791015625">
        <ele>1842</ele>
        <time>2026-06-18T10:11:21.000Z</time>
        <extensions>
          <ns3:TrackPointExtension>
            <ns3:atemp>23.0</ns3:atemp>
          </ns3:TrackPointExtension>
        </extensions>
      </trkpt>
      <trkpt lat="42.5147692300379276275634765625" lon="19.77288753725588321685791015625">
        <ele>1842</ele>
        <time>2026-06-18T10:11:22.000Z</time>
        <extensions>
          <ns3:TrackPointExtension>
            <ns3:atemp>23.0</ns3:atemp>
          </ns3:TrackPointExtension>
        </extensions>
      </trkpt>
      <trkpt lat="42.5147692300379276275634765625" lon="19.77288753725588321685791015625">
        <ele>1842</ele>
        <time>2026-06-18T10:11:23.000Z</time>
        <extensions>
          <ns3:TrackPointExtension>
            <ns3:atemp>23.0</ns3:atemp>
          </ns3:TrackPointExtension>
        </extensions>
      </trkpt>
      <trkpt lat="42.5147692300379276275634765625" lon="19.77288753725588321685791015625">
        <ele>1842</ele>
        <time>2026-06-18T10:11:24.000Z</time>
        <extensions>
          <ns3:TrackPointExtension>
            <ns3:atemp>23.0</ns3:atemp>
          </ns3:TrackPointExtension>
        </extensions>
      </trkpt>
      <trkpt lat="42.5147692300379276275634765625" lon="19.77288753725588321685791015625">
        <ele>1842</ele>
        <time>2026-06-18T10:11:25.000Z</time>
        <extensions>
          <ns3:TrackPointExtension>
            <ns3:atemp>23.0</ns3:atemp>
          </ns3:TrackPointExtension>
        </extensions>
      </trkpt>
      <trkpt lat="42.5147692300379276275634765625" lon="19.77288753725588321685791015625">
        <ele>1842</ele>
        <time>2026-06-18T10:11:26.000Z</time>
        <extensions>
          <ns3:TrackPointExtension>
            <ns3:atemp>23.0</ns3:atemp>
          </ns3:TrackPointExtension>
        </extensions>
      </trkpt>
      <trkpt lat="42.5147692300379276275634765625" lon="19.77288753725588321685791015625">
        <ele>1842</ele>
        <time>2026-06-18T10:11:27.000Z</time>
        <extensions>
          <ns3:TrackPointExtension>
            <ns3:atemp>23.0</ns3:atemp>
          </ns3:TrackPointExtension>
        </extensions>
      </trkpt>
      <trkpt lat="42.5147692300379276275634765625" lon="19.77288753725588321685791015625">
        <ele>1842</ele>
        <time>2026-06-18T10:11:28.000Z</time>
        <extensions>
          <ns3:TrackPointExtension>
            <ns3:atemp>23.0</ns3:atemp>
          </ns3:TrackPointExtension>
        </extensions>
      </trkpt>
      <trkpt lat="42.5147692300379276275634765625" lon="19.77288753725588321685791015625">
        <ele>1842</ele>
        <time>2026-06-18T10:11:29.000Z</time>
        <extensions>
          <ns3:TrackPointExtension>
            <ns3:atemp>23.0</ns3:atemp>
          </ns3:TrackPointExtension>
        </extensions>
      </trkpt>
      <trkpt lat="42.5147692300379276275634765625" lon="19.77288753725588321685791015625">
        <ele>1842</ele>
        <time>2026-06-18T10:11:30.000Z</time>
        <extensions>
          <ns3:TrackPointExtension>
            <ns3:atemp>23.0</ns3:atemp>
          </ns3:TrackPointExtension>
        </extensions>
      </trkpt>
      <trkpt lat="42.5147692300379276275634765625" lon="19.77288753725588321685791015625">
        <ele>1842</ele>
        <time>2026-06-18T10:11:31.000Z</time>
        <extensions>
          <ns3:TrackPointExtension>
            <ns3:atemp>23.0</ns3:atemp>
          </ns3:TrackPointExtension>
        </extensions>
      </trkpt>
      <trkpt lat="42.5147692300379276275634765625" lon="19.77288753725588321685791015625">
        <ele>1842</ele>
        <time>2026-06-18T10:11:32.000Z</time>
        <extensions>
          <ns3:TrackPointExtension>
            <ns3:atemp>23.0</ns3:atemp>
          </ns3:TrackPointExtension>
        </extensions>
      </trkpt>
      <trkpt lat="42.5147692300379276275634765625" lon="19.77288753725588321685791015625">
        <ele>1842</ele>
        <time>2026-06-18T10:11:33.000Z</time>
        <extensions>
          <ns3:TrackPointExtension>
            <ns3:atemp>23.0</ns3:atemp>
          </ns3:TrackPointExtension>
        </extensions>
      </trkpt>
      <trkpt lat="42.5147692300379276275634765625" lon="19.77288753725588321685791015625">
        <ele>1842</ele>
        <time>2026-06-18T10:11:34.000Z</time>
        <extensions>
          <ns3:TrackPointExtension>
            <ns3:atemp>23.0</ns3:atemp>
          </ns3:TrackPointExtension>
        </extensions>
      </trkpt>
      <trkpt lat="42.5147692300379276275634765625" lon="19.77288753725588321685791015625">
        <ele>1842</ele>
        <time>2026-06-18T10:11:35.000Z</time>
        <extensions>
          <ns3:TrackPointExtension>
            <ns3:atemp>23.0</ns3:atemp>
          </ns3:TrackPointExtension>
        </extensions>
      </trkpt>
      <trkpt lat="42.5147692300379276275634765625" lon="19.77288753725588321685791015625">
        <ele>1842</ele>
        <time>2026-06-18T10:11:36.000Z</time>
        <extensions>
          <ns3:TrackPointExtension>
            <ns3:atemp>23.0</ns3:atemp>
          </ns3:TrackPointExtension>
        </extensions>
      </trkpt>
      <trkpt lat="42.5147692300379276275634765625" lon="19.77288753725588321685791015625">
        <ele>1842</ele>
        <time>2026-06-18T10:11:37.000Z</time>
        <extensions>
          <ns3:TrackPointExtension>
            <ns3:atemp>23.0</ns3:atemp>
          </ns3:TrackPointExtension>
        </extensions>
      </trkpt>
      <trkpt lat="42.5147692300379276275634765625" lon="19.77288753725588321685791015625">
        <ele>1842</ele>
        <time>2026-06-18T10:11:38.000Z</time>
        <extensions>
          <ns3:TrackPointExtension>
            <ns3:atemp>23.0</ns3:atemp>
          </ns3:TrackPointExtension>
        </extensions>
      </trkpt>
      <trkpt lat="42.5147692300379276275634765625" lon="19.77288753725588321685791015625">
        <ele>1842</ele>
        <time>2026-06-18T10:11:39.000Z</time>
        <extensions>
          <ns3:TrackPointExtension>
            <ns3:atemp>23.0</ns3:atemp>
          </ns3:TrackPointExtension>
        </extensions>
      </trkpt>
      <trkpt lat="42.5147692300379276275634765625" lon="19.77288753725588321685791015625">
        <ele>1842</ele>
        <time>2026-06-18T10:11:40.000Z</time>
        <extensions>
          <ns3:TrackPointExtension>
            <ns3:atemp>23.0</ns3:atemp>
          </ns3:TrackPointExtension>
        </extensions>
      </trkpt>
      <trkpt lat="42.5147692300379276275634765625" lon="19.77288753725588321685791015625">
        <ele>1842</ele>
        <time>2026-06-18T10:11:41.000Z</time>
        <extensions>
          <ns3:TrackPointExtension>
            <ns3:atemp>23.0</ns3:atemp>
          </ns3:TrackPointExtension>
        </extensions>
      </trkpt>
      <trkpt lat="42.5147692300379276275634765625" lon="19.77288753725588321685791015625">
        <ele>1842</ele>
        <time>2026-06-18T10:11:42.000Z</time>
        <extensions>
          <ns3:TrackPointExtension>
            <ns3:atemp>23.0</ns3:atemp>
          </ns3:TrackPointExtension>
        </extensions>
      </trkpt>
      <trkpt lat="42.5147692300379276275634765625" lon="19.77288753725588321685791015625">
        <ele>1842</ele>
        <time>2026-06-18T10:11:43.000Z</time>
        <extensions>
          <ns3:TrackPointExtension>
            <ns3:atemp>23.0</ns3:atemp>
          </ns3:TrackPointExtension>
        </extensions>
      </trkpt>
      <trkpt lat="42.5147692300379276275634765625" lon="19.77288753725588321685791015625">
        <ele>1842</ele>
        <time>2026-06-18T10:11:44.000Z</time>
        <extensions>
          <ns3:TrackPointExtension>
            <ns3:atemp>23.0</ns3:atemp>
          </ns3:TrackPointExtension>
        </extensions>
      </trkpt>
      <trkpt lat="42.5147692300379276275634765625" lon="19.77288753725588321685791015625">
        <ele>1842</ele>
        <time>2026-06-18T10:11:45.000Z</time>
        <extensions>
          <ns3:TrackPointExtension>
            <ns3:atemp>23.0</ns3:atemp>
          </ns3:TrackPointExtension>
        </extensions>
      </trkpt>
      <trkpt lat="42.5147692300379276275634765625" lon="19.77288753725588321685791015625">
        <ele>1842</ele>
        <time>2026-06-18T10:11:46.000Z</time>
        <extensions>
          <ns3:TrackPointExtension>
            <ns3:atemp>23.0</ns3:atemp>
          </ns3:TrackPointExtension>
        </extensions>
      </trkpt>
      <trkpt lat="42.5147692300379276275634765625" lon="19.77288753725588321685791015625">
        <ele>1842</ele>
        <time>2026-06-18T10:11:47.000Z</time>
        <extensions>
          <ns3:TrackPointExtension>
            <ns3:atemp>23.0</ns3:atemp>
          </ns3:TrackPointExtension>
        </extensions>
      </trkpt>
      <trkpt lat="42.5147692300379276275634765625" lon="19.77288753725588321685791015625">
        <ele>1842</ele>
        <time>2026-06-18T10:11:48.000Z</time>
        <extensions>
          <ns3:TrackPointExtension>
            <ns3:atemp>23.0</ns3:atemp>
          </ns3:TrackPointExtension>
        </extensions>
      </trkpt>
      <trkpt lat="42.5147692300379276275634765625" lon="19.77288753725588321685791015625">
        <ele>1842</ele>
        <time>2026-06-18T10:11:49.000Z</time>
        <extensions>
          <ns3:TrackPointExtension>
            <ns3:atemp>23.0</ns3:atemp>
          </ns3:TrackPointExtension>
        </extensions>
      </trkpt>
      <trkpt lat="42.5147692300379276275634765625" lon="19.77288753725588321685791015625">
        <ele>1842</ele>
        <time>2026-06-18T10:11:50.000Z</time>
        <extensions>
          <ns3:TrackPointExtension>
            <ns3:atemp>23.0</ns3:atemp>
          </ns3:TrackPointExtension>
        </extensions>
      </trkpt>
      <trkpt lat="42.5147692300379276275634765625" lon="19.77288753725588321685791015625">
        <ele>1842</ele>
        <time>2026-06-18T10:11:51.000Z</time>
        <extensions>
          <ns3:TrackPointExtension>
            <ns3:atemp>23.0</ns3:atemp>
          </ns3:TrackPointExtension>
        </extensions>
      </trkpt>
      <trkpt lat="42.5147692300379276275634765625" lon="19.77288753725588321685791015625">
        <ele>1842</ele>
        <time>2026-06-18T10:11:52.000Z</time>
        <extensions>
          <ns3:TrackPointExtension>
            <ns3:atemp>23.0</ns3:atemp>
          </ns3:TrackPointExtension>
        </extensions>
      </trkpt>
      <trkpt lat="42.5147692300379276275634765625" lon="19.77288753725588321685791015625">
        <ele>1842</ele>
        <time>2026-06-18T10:11:53.000Z</time>
        <extensions>
          <ns3:TrackPointExtension>
            <ns3:atemp>23.0</ns3:atemp>
          </ns3:TrackPointExtension>
        </extensions>
      </trkpt>
      <trkpt lat="42.5147692300379276275634765625" lon="19.77288753725588321685791015625">
        <ele>1842</ele>
        <time>2026-06-18T10:11:54.000Z</time>
        <extensions>
          <ns3:TrackPointExtension>
            <ns3:atemp>23.0</ns3:atemp>
          </ns3:TrackPointExtension>
        </extensions>
      </trkpt>
      <trkpt lat="42.5147692300379276275634765625" lon="19.77288753725588321685791015625">
        <ele>1842</ele>
        <time>2026-06-18T10:11:55.000Z</time>
        <extensions>
          <ns3:TrackPointExtension>
            <ns3:atemp>23.0</ns3:atemp>
          </ns3:TrackPointExtension>
        </extensions>
      </trkpt>
      <trkpt lat="42.5147692300379276275634765625" lon="19.77288753725588321685791015625">
        <ele>1842</ele>
        <time>2026-06-18T10:11:56.000Z</time>
        <extensions>
          <ns3:TrackPointExtension>
            <ns3:atemp>23.0</ns3:atemp>
          </ns3:TrackPointExtension>
        </extensions>
      </trkpt>
      <trkpt lat="42.5147692300379276275634765625" lon="19.77288753725588321685791015625">
        <ele>1842</ele>
        <time>2026-06-18T10:11:57.000Z</time>
        <extensions>
          <ns3:TrackPointExtension>
            <ns3:atemp>23.0</ns3:atemp>
          </ns3:TrackPointExtension>
        </extensions>
      </trkpt>
      <trkpt lat="42.5147692300379276275634765625" lon="19.77288753725588321685791015625">
        <ele>1842</ele>
        <time>2026-06-18T10:11:58.000Z</time>
        <extensions>
          <ns3:TrackPointExtension>
            <ns3:atemp>23.0</ns3:atemp>
          </ns3:TrackPointExtension>
        </extensions>
      </trkpt>
      <trkpt lat="42.5147692300379276275634765625" lon="19.77288753725588321685791015625">
        <ele>1842</ele>
        <time>2026-06-18T10:11:59.000Z</time>
        <extensions>
          <ns3:TrackPointExtension>
            <ns3:atemp>23.0</ns3:atemp>
          </ns3:TrackPointExtension>
        </extensions>
      </trkpt>
      <trkpt lat="42.5147692300379276275634765625" lon="19.77288753725588321685791015625">
        <ele>1842</ele>
        <time>2026-06-18T10:12:00.000Z</time>
        <extensions>
          <ns3:TrackPointExtension>
            <ns3:atemp>23.0</ns3:atemp>
          </ns3:TrackPointExtension>
        </extensions>
      </trkpt>
      <trkpt lat="42.5147692300379276275634765625" lon="19.77288753725588321685791015625">
        <ele>1842</ele>
        <time>2026-06-18T10:12:01.000Z</time>
        <extensions>
          <ns3:TrackPointExtension>
            <ns3:atemp>23.0</ns3:atemp>
          </ns3:TrackPointExtension>
        </extensions>
      </trkpt>
      <trkpt lat="42.5147692300379276275634765625" lon="19.77288753725588321685791015625">
        <ele>1842</ele>
        <time>2026-06-18T10:12:02.000Z</time>
        <extensions>
          <ns3:TrackPointExtension>
            <ns3:atemp>23.0</ns3:atemp>
          </ns3:TrackPointExtension>
        </extensions>
      </trkpt>
      <trkpt lat="42.5147692300379276275634765625" lon="19.77288753725588321685791015625">
        <ele>1842</ele>
        <time>2026-06-18T10:12:03.000Z</time>
        <extensions>
          <ns3:TrackPointExtension>
            <ns3:atemp>23.0</ns3:atemp>
          </ns3:TrackPointExtension>
        </extensions>
      </trkpt>
      <trkpt lat="42.5147692300379276275634765625" lon="19.77288753725588321685791015625">
        <ele>1842</ele>
        <time>2026-06-18T10:12:04.000Z</time>
        <extensions>
          <ns3:TrackPointExtension>
            <ns3:atemp>23.0</ns3:atemp>
          </ns3:TrackPointExtension>
        </extensions>
      </trkpt>
      <trkpt lat="42.5147692300379276275634765625" lon="19.77288753725588321685791015625">
        <ele>1842</ele>
        <time>2026-06-18T10:12:05.000Z</time>
        <extensions>
          <ns3:TrackPointExtension>
            <ns3:atemp>23.0</ns3:atemp>
          </ns3:TrackPointExtension>
        </extensions>
      </trkpt>
      <trkpt lat="42.5147692300379276275634765625" lon="19.77288753725588321685791015625">
        <ele>1842</ele>
        <time>2026-06-18T10:12:06.000Z</time>
        <extensions>
          <ns3:TrackPointExtension>
            <ns3:atemp>23.0</ns3:atemp>
          </ns3:TrackPointExtension>
        </extensions>
      </trkpt>
      <trkpt lat="42.5147692300379276275634765625" lon="19.77288753725588321685791015625">
        <ele>1842</ele>
        <time>2026-06-18T10:12:07.000Z</time>
        <extensions>
          <ns3:TrackPointExtension>
            <ns3:atemp>23.0</ns3:atemp>
          </ns3:TrackPointExtension>
        </extensions>
      </trkpt>
      <trkpt lat="42.5147692300379276275634765625" lon="19.77288753725588321685791015625">
        <ele>1842</ele>
        <time>2026-06-18T10:12:08.000Z</time>
        <extensions>
          <ns3:TrackPointExtension>
            <ns3:atemp>23.0</ns3:atemp>
          </ns3:TrackPointExtension>
        </extensions>
      </trkpt>
      <trkpt lat="42.5147692300379276275634765625" lon="19.77288753725588321685791015625">
        <ele>1842</ele>
        <time>2026-06-18T10:12:09.000Z</time>
        <extensions>
          <ns3:TrackPointExtension>
            <ns3:atemp>23.0</ns3:atemp>
          </ns3:TrackPointExtension>
        </extensions>
      </trkpt>
      <trkpt lat="42.5147692300379276275634765625" lon="19.77288753725588321685791015625">
        <ele>1842</ele>
        <time>2026-06-18T10:12:10.000Z</time>
        <extensions>
          <ns3:TrackPointExtension>
            <ns3:atemp>23.0</ns3:atemp>
          </ns3:TrackPointExtension>
        </extensions>
      </trkpt>
      <trkpt lat="42.5147692300379276275634765625" lon="19.77288753725588321685791015625">
        <ele>1842</ele>
        <time>2026-06-18T10:12:11.000Z</time>
        <extensions>
          <ns3:TrackPointExtension>
            <ns3:atemp>23.0</ns3:atemp>
          </ns3:TrackPointExtension>
        </extensions>
      </trkpt>
      <trkpt lat="42.5147692300379276275634765625" lon="19.77288753725588321685791015625">
        <ele>1842</ele>
        <time>2026-06-18T10:12:12.000Z</time>
        <extensions>
          <ns3:TrackPointExtension>
            <ns3:atemp>23.0</ns3:atemp>
          </ns3:TrackPointExtension>
        </extensions>
      </trkpt>
      <trkpt lat="42.5147692300379276275634765625" lon="19.77288753725588321685791015625">
        <ele>1842</ele>
        <time>2026-06-18T10:12:13.000Z</time>
        <extensions>
          <ns3:TrackPointExtension>
            <ns3:atemp>23.0</ns3:atemp>
          </ns3:TrackPointExtension>
        </extensions>
      </trkpt>
      <trkpt lat="42.5147692300379276275634765625" lon="19.77288753725588321685791015625">
        <ele>1842</ele>
        <time>2026-06-18T10:12:14.000Z</time>
        <extensions>
          <ns3:TrackPointExtension>
            <ns3:atemp>23.0</ns3:atemp>
          </ns3:TrackPointExtension>
        </extensions>
      </trkpt>
      <trkpt lat="42.5147692300379276275634765625" lon="19.77288753725588321685791015625">
        <ele>1842</ele>
        <time>2026-06-18T10:12:15.000Z</time>
        <extensions>
          <ns3:TrackPointExtension>
            <ns3:atemp>23.0</ns3:atemp>
          </ns3:TrackPointExtension>
        </extensions>
      </trkpt>
      <trkpt lat="42.5147692300379276275634765625" lon="19.77288753725588321685791015625">
        <ele>1842</ele>
        <time>2026-06-18T10:12:16.000Z</time>
        <extensions>
          <ns3:TrackPointExtension>
            <ns3:atemp>23.0</ns3:atemp>
          </ns3:TrackPointExtension>
        </extensions>
      </trkpt>
      <trkpt lat="42.5147692300379276275634765625" lon="19.77288753725588321685791015625">
        <ele>1842</ele>
        <time>2026-06-18T10:12:17.000Z</time>
        <extensions>
          <ns3:TrackPointExtension>
            <ns3:atemp>23.0</ns3:atemp>
          </ns3:TrackPointExtension>
        </extensions>
      </trkpt>
      <trkpt lat="42.5147692300379276275634765625" lon="19.77288753725588321685791015625">
        <ele>1842</ele>
        <time>2026-06-18T10:12:18.000Z</time>
        <extensions>
          <ns3:TrackPointExtension>
            <ns3:atemp>23.0</ns3:atemp>
          </ns3:TrackPointExtension>
        </extensions>
      </trkpt>
      <trkpt lat="42.5147692300379276275634765625" lon="19.77288753725588321685791015625">
        <ele>1842</ele>
        <time>2026-06-18T10:12:19.000Z</time>
        <extensions>
          <ns3:TrackPointExtension>
            <ns3:atemp>23.0</ns3:atemp>
          </ns3:TrackPointExtension>
        </extensions>
      </trkpt>
      <trkpt lat="42.5147692300379276275634765625" lon="19.77288753725588321685791015625">
        <ele>1842</ele>
        <time>2026-06-18T10:12:20.000Z</time>
        <extensions>
          <ns3:TrackPointExtension>
            <ns3:atemp>23.0</ns3:atemp>
          </ns3:TrackPointExtension>
        </extensions>
      </trkpt>
      <trkpt lat="42.5147692300379276275634765625" lon="19.77288753725588321685791015625">
        <ele>1842</ele>
        <time>2026-06-18T10:12:21.000Z</time>
        <extensions>
          <ns3:TrackPointExtension>
            <ns3:atemp>23.0</ns3:atemp>
          </ns3:TrackPointExtension>
        </extensions>
      </trkpt>
      <trkpt lat="42.5147692300379276275634765625" lon="19.77288753725588321685791015625">
        <ele>1842</ele>
        <time>2026-06-18T10:12:22.000Z</time>
        <extensions>
          <ns3:TrackPointExtension>
            <ns3:atemp>23.0</ns3:atemp>
          </ns3:TrackPointExtension>
        </extensions>
      </trkpt>
      <trkpt lat="42.5147692300379276275634765625" lon="19.77288753725588321685791015625">
        <ele>1842</ele>
        <time>2026-06-18T10:12:23.000Z</time>
        <extensions>
          <ns3:TrackPointExtension>
            <ns3:atemp>23.0</ns3:atemp>
          </ns3:TrackPointExtension>
        </extensions>
      </trkpt>
      <trkpt lat="42.5147692300379276275634765625" lon="19.77288753725588321685791015625">
        <ele>1842</ele>
        <time>2026-06-18T10:12:24.000Z</time>
        <extensions>
          <ns3:TrackPointExtension>
            <ns3:atemp>23.0</ns3:atemp>
          </ns3:TrackPointExtension>
        </extensions>
      </trkpt>
      <trkpt lat="42.5147692300379276275634765625" lon="19.77288753725588321685791015625">
        <ele>1842</ele>
        <time>2026-06-18T10:12:25.000Z</time>
        <extensions>
          <ns3:TrackPointExtension>
            <ns3:atemp>23.0</ns3:atemp>
          </ns3:TrackPointExtension>
        </extensions>
      </trkpt>
      <trkpt lat="42.5147692300379276275634765625" lon="19.77288753725588321685791015625">
        <ele>1842</ele>
        <time>2026-06-18T10:12:26.000Z</time>
        <extensions>
          <ns3:TrackPointExtension>
            <ns3:atemp>23.0</ns3:atemp>
          </ns3:TrackPointExtension>
        </extensions>
      </trkpt>
      <trkpt lat="42.5147692300379276275634765625" lon="19.77288753725588321685791015625">
        <ele>1842</ele>
        <time>2026-06-18T10:12:27.000Z</time>
        <extensions>
          <ns3:TrackPointExtension>
            <ns3:atemp>23.0</ns3:atemp>
          </ns3:TrackPointExtension>
        </extensions>
      </trkpt>
      <trkpt lat="42.5147692300379276275634765625" lon="19.77288753725588321685791015625">
        <ele>1842</ele>
        <time>2026-06-18T10:12:28.000Z</time>
        <extensions>
          <ns3:TrackPointExtension>
            <ns3:atemp>23.0</ns3:atemp>
          </ns3:TrackPointExtension>
        </extensions>
      </trkpt>
      <trkpt lat="42.5147692300379276275634765625" lon="19.77288753725588321685791015625">
        <ele>1842</ele>
        <time>2026-06-18T10:12:29.000Z</time>
        <extensions>
          <ns3:TrackPointExtension>
            <ns3:atemp>23.0</ns3:atemp>
          </ns3:TrackPointExtension>
        </extensions>
      </trkpt>
      <trkpt lat="42.5147692300379276275634765625" lon="19.77288753725588321685791015625">
        <ele>1842</ele>
        <time>2026-06-18T10:12:30.000Z</time>
        <extensions>
          <ns3:TrackPointExtension>
            <ns3:atemp>23.0</ns3:atemp>
          </ns3:TrackPointExtension>
        </extensions>
      </trkpt>
      <trkpt lat="42.5147692300379276275634765625" lon="19.77288753725588321685791015625">
        <ele>1842</ele>
        <time>2026-06-18T10:12:31.000Z</time>
        <extensions>
          <ns3:TrackPointExtension>
            <ns3:atemp>23.0</ns3:atemp>
          </ns3:TrackPointExtension>
        </extensions>
      </trkpt>
      <trkpt lat="42.5147692300379276275634765625" lon="19.77288753725588321685791015625">
        <ele>1842</ele>
        <time>2026-06-18T10:12:32.000Z</time>
        <extensions>
          <ns3:TrackPointExtension>
            <ns3:atemp>23.0</ns3:atemp>
          </ns3:TrackPointExtension>
        </extensions>
      </trkpt>
      <trkpt lat="42.5147692300379276275634765625" lon="19.77288753725588321685791015625">
        <ele>1842</ele>
        <time>2026-06-18T10:12:33.000Z</time>
        <extensions>
          <ns3:TrackPointExtension>
            <ns3:atemp>23.0</ns3:atemp>
          </ns3:TrackPointExtension>
        </extensions>
      </trkpt>
      <trkpt lat="42.5147692300379276275634765625" lon="19.77288753725588321685791015625">
        <ele>1842</ele>
        <time>2026-06-18T10:12:34.000Z</time>
        <extensions>
          <ns3:TrackPointExtension>
            <ns3:atemp>23.0</ns3:atemp>
          </ns3:TrackPointExtension>
        </extensions>
      </trkpt>
      <trkpt lat="42.5147692300379276275634765625" lon="19.77288753725588321685791015625">
        <ele>1842</ele>
        <time>2026-06-18T10:12:35.000Z</time>
        <extensions>
          <ns3:TrackPointExtension>
            <ns3:atemp>23.0</ns3:atemp>
          </ns3:TrackPointExtension>
        </extensions>
      </trkpt>
      <trkpt lat="42.5147692300379276275634765625" lon="19.77288753725588321685791015625">
        <ele>1842</ele>
        <time>2026-06-18T10:12:36.000Z</time>
        <extensions>
          <ns3:TrackPointExtension>
            <ns3:atemp>23.0</ns3:atemp>
          </ns3:TrackPointExtension>
        </extensions>
      </trkpt>
      <trkpt lat="42.5147692300379276275634765625" lon="19.77288753725588321685791015625">
        <ele>1842</ele>
        <time>2026-06-18T10:12:37.000Z</time>
        <extensions>
          <ns3:TrackPointExtension>
            <ns3:atemp>23.0</ns3:atemp>
          </ns3:TrackPointExtension>
        </extensions>
      </trkpt>
      <trkpt lat="42.5147692300379276275634765625" lon="19.77288753725588321685791015625">
        <ele>1842</ele>
        <time>2026-06-18T10:12:38.000Z</time>
        <extensions>
          <ns3:TrackPointExtension>
            <ns3:atemp>23.0</ns3:atemp>
          </ns3:TrackPointExtension>
        </extensions>
      </trkpt>
      <trkpt lat="42.5147692300379276275634765625" lon="19.77288753725588321685791015625">
        <ele>1842</ele>
        <time>2026-06-18T10:12:39.000Z</time>
        <extensions>
          <ns3:TrackPointExtension>
            <ns3:atemp>23.0</ns3:atemp>
          </ns3:TrackPointExtension>
        </extensions>
      </trkpt>
      <trkpt lat="42.5147692300379276275634765625" lon="19.77288753725588321685791015625">
        <ele>1842</ele>
        <time>2026-06-18T10:12:40.000Z</time>
        <extensions>
          <ns3:TrackPointExtension>
            <ns3:atemp>23.0</ns3:atemp>
          </ns3:TrackPointExtension>
        </extensions>
      </trkpt>
      <trkpt lat="42.5147692300379276275634765625" lon="19.77288753725588321685791015625">
        <ele>1842</ele>
        <time>2026-06-18T10:12:41.000Z</time>
        <extensions>
          <ns3:TrackPointExtension>
            <ns3:atemp>23.0</ns3:atemp>
          </ns3:TrackPointExtension>
        </extensions>
      </trkpt>
      <trkpt lat="42.5147692300379276275634765625" lon="19.77288753725588321685791015625">
        <ele>1842</ele>
        <time>2026-06-18T10:12:42.000Z</time>
        <extensions>
          <ns3:TrackPointExtension>
            <ns3:atemp>23.0</ns3:atemp>
          </ns3:TrackPointExtension>
        </extensions>
      </trkpt>
      <trkpt lat="42.5147692300379276275634765625" lon="19.77288753725588321685791015625">
        <ele>1842</ele>
        <time>2026-06-18T10:12:43.000Z</time>
        <extensions>
          <ns3:TrackPointExtension>
            <ns3:atemp>23.0</ns3:atemp>
          </ns3:TrackPointExtension>
        </extensions>
      </trkpt>
      <trkpt lat="42.5147692300379276275634765625" lon="19.77288753725588321685791015625">
        <ele>1842</ele>
        <time>2026-06-18T10:12:44.000Z</time>
        <extensions>
          <ns3:TrackPointExtension>
            <ns3:atemp>23.0</ns3:atemp>
          </ns3:TrackPointExtension>
        </extensions>
      </trkpt>
      <trkpt lat="42.5147692300379276275634765625" lon="19.77288753725588321685791015625">
        <ele>1842</ele>
        <time>2026-06-18T10:12:45.000Z</time>
        <extensions>
          <ns3:TrackPointExtension>
            <ns3:atemp>23.0</ns3:atemp>
          </ns3:TrackPointExtension>
        </extensions>
      </trkpt>
      <trkpt lat="42.5147692300379276275634765625" lon="19.77288753725588321685791015625">
        <ele>1842</ele>
        <time>2026-06-18T10:12:46.000Z</time>
        <extensions>
          <ns3:TrackPointExtension>
            <ns3:atemp>23.0</ns3:atemp>
          </ns3:TrackPointExtension>
        </extensions>
      </trkpt>
      <trkpt lat="42.5147692300379276275634765625" lon="19.77288753725588321685791015625">
        <ele>1842</ele>
        <time>2026-06-18T10:12:47.000Z</time>
        <extensions>
          <ns3:TrackPointExtension>
            <ns3:atemp>23.0</ns3:atemp>
          </ns3:TrackPointExtension>
        </extensions>
      </trkpt>
      <trkpt lat="42.5147692300379276275634765625" lon="19.77288753725588321685791015625">
        <ele>1842</ele>
        <time>2026-06-18T10:12:48.000Z</time>
        <extensions>
          <ns3:TrackPointExtension>
            <ns3:atemp>23.0</ns3:atemp>
          </ns3:TrackPointExtension>
        </extensions>
      </trkpt>
      <trkpt lat="42.5147692300379276275634765625" lon="19.77288753725588321685791015625">
        <ele>1842</ele>
        <time>2026-06-18T10:12:49.000Z</time>
        <extensions>
          <ns3:TrackPointExtension>
            <ns3:atemp>23.0</ns3:atemp>
          </ns3:TrackPointExtension>
        </extensions>
      </trkpt>
      <trkpt lat="42.5147692300379276275634765625" lon="19.77288753725588321685791015625">
        <ele>1842</ele>
        <time>2026-06-18T10:12:50.000Z</time>
        <extensions>
          <ns3:TrackPointExtension>
            <ns3:atemp>23.0</ns3:atemp>
          </ns3:TrackPointExtension>
        </extensions>
      </trkpt>
      <trkpt lat="42.5147692300379276275634765625" lon="19.77288753725588321685791015625">
        <ele>1842</ele>
        <time>2026-06-18T10:12:51.000Z</time>
        <extensions>
          <ns3:TrackPointExtension>
            <ns3:atemp>23.0</ns3:atemp>
          </ns3:TrackPointExtension>
        </extensions>
      </trkpt>
      <trkpt lat="42.5147692300379276275634765625" lon="19.77288753725588321685791015625">
        <ele>1842</ele>
        <time>2026-06-18T10:12:52.000Z</time>
        <extensions>
          <ns3:TrackPointExtension>
            <ns3:atemp>23.0</ns3:atemp>
          </ns3:TrackPointExtension>
        </extensions>
      </trkpt>
      <trkpt lat="42.5147692300379276275634765625" lon="19.77288753725588321685791015625">
        <ele>1842</ele>
        <time>2026-06-18T10:12:53.000Z</time>
        <extensions>
          <ns3:TrackPointExtension>
            <ns3:atemp>23.0</ns3:atemp>
          </ns3:TrackPointExtension>
        </extensions>
      </trkpt>
      <trkpt lat="42.5147692300379276275634765625" lon="19.77288753725588321685791015625">
        <ele>1842</ele>
        <time>2026-06-18T10:12:54.000Z</time>
        <extensions>
          <ns3:TrackPointExtension>
            <ns3:atemp>23.0</ns3:atemp>
          </ns3:TrackPointExtension>
        </extensions>
      </trkpt>
      <trkpt lat="42.5147692300379276275634765625" lon="19.77288753725588321685791015625">
        <ele>1842</ele>
        <time>2026-06-18T10:12:55.000Z</time>
        <extensions>
          <ns3:TrackPointExtension>
            <ns3:atemp>23.0</ns3:atemp>
          </ns3:TrackPointExtension>
        </extensions>
      </trkpt>
      <trkpt lat="42.5147692300379276275634765625" lon="19.77288753725588321685791015625">
        <ele>1842</ele>
        <time>2026-06-18T10:12:56.000Z</time>
        <extensions>
          <ns3:TrackPointExtension>
            <ns3:atemp>23.0</ns3:atemp>
          </ns3:TrackPointExtension>
        </extensions>
      </trkpt>
      <trkpt lat="42.5147692300379276275634765625" lon="19.77288753725588321685791015625">
        <ele>1842</ele>
        <time>2026-06-18T10:12:57.000Z</time>
        <extensions>
          <ns3:TrackPointExtension>
            <ns3:atemp>23.0</ns3:atemp>
          </ns3:TrackPointExtension>
        </extensions>
      </trkpt>
      <trkpt lat="42.5147692300379276275634765625" lon="19.77288753725588321685791015625">
        <ele>1842</ele>
        <time>2026-06-18T10:12:58.000Z</time>
        <extensions>
          <ns3:TrackPointExtension>
            <ns3:atemp>23.0</ns3:atemp>
          </ns3:TrackPointExtension>
        </extensions>
      </trkpt>
      <trkpt lat="42.5147692300379276275634765625" lon="19.77288753725588321685791015625">
        <ele>1842</ele>
        <time>2026-06-18T10:12:59.000Z</time>
        <extensions>
          <ns3:TrackPointExtension>
            <ns3:atemp>23.0</ns3:atemp>
          </ns3:TrackPointExtension>
        </extensions>
      </trkpt>
      <trkpt lat="42.5147692300379276275634765625" lon="19.77288753725588321685791015625">
        <ele>1842</ele>
        <time>2026-06-18T10:13:00.000Z</time>
        <extensions>
          <ns3:TrackPointExtension>
            <ns3:atemp>23.0</ns3:atemp>
          </ns3:TrackPointExtension>
        </extensions>
      </trkpt>
      <trkpt lat="42.5147692300379276275634765625" lon="19.77288753725588321685791015625">
        <ele>1842</ele>
        <time>2026-06-18T10:13:01.000Z</time>
        <extensions>
          <ns3:TrackPointExtension>
            <ns3:atemp>23.0</ns3:atemp>
          </ns3:TrackPointExtension>
        </extensions>
      </trkpt>
      <trkpt lat="42.5147692300379276275634765625" lon="19.77288753725588321685791015625">
        <ele>1842</ele>
        <time>2026-06-18T10:13:02.000Z</time>
        <extensions>
          <ns3:TrackPointExtension>
            <ns3:atemp>23.0</ns3:atemp>
          </ns3:TrackPointExtension>
        </extensions>
      </trkpt>
      <trkpt lat="42.5147692300379276275634765625" lon="19.77288753725588321685791015625">
        <ele>1842</ele>
        <time>2026-06-18T10:13:03.000Z</time>
        <extensions>
          <ns3:TrackPointExtension>
            <ns3:atemp>23.0</ns3:atemp>
          </ns3:TrackPointExtension>
        </extensions>
      </trkpt>
      <trkpt lat="42.5147692300379276275634765625" lon="19.77288753725588321685791015625">
        <ele>1842</ele>
        <time>2026-06-18T10:13:04.000Z</time>
        <extensions>
          <ns3:TrackPointExtension>
            <ns3:atemp>23.0</ns3:atemp>
          </ns3:TrackPointExtension>
        </extensions>
      </trkpt>
      <trkpt lat="42.5147692300379276275634765625" lon="19.77288753725588321685791015625">
        <ele>1842</ele>
        <time>2026-06-18T10:13:05.000Z</time>
        <extensions>
          <ns3:TrackPointExtension>
            <ns3:atemp>23.0</ns3:atemp>
          </ns3:TrackPointExtension>
        </extensions>
      </trkpt>
      <trkpt lat="42.5147692300379276275634765625" lon="19.77288753725588321685791015625">
        <ele>1842</ele>
        <time>2026-06-18T10:13:06.000Z</time>
        <extensions>
          <ns3:TrackPointExtension>
            <ns3:atemp>23.0</ns3:atemp>
          </ns3:TrackPointExtension>
        </extensions>
      </trkpt>
      <trkpt lat="42.5147692300379276275634765625" lon="19.77288753725588321685791015625">
        <ele>1842</ele>
        <time>2026-06-18T10:13:07.000Z</time>
        <extensions>
          <ns3:TrackPointExtension>
            <ns3:atemp>23.0</ns3:atemp>
          </ns3:TrackPointExtension>
        </extensions>
      </trkpt>
      <trkpt lat="42.5147692300379276275634765625" lon="19.77288753725588321685791015625">
        <ele>1842</ele>
        <time>2026-06-18T10:13:08.000Z</time>
        <extensions>
          <ns3:TrackPointExtension>
            <ns3:atemp>23.0</ns3:atemp>
          </ns3:TrackPointExtension>
        </extensions>
      </trkpt>
      <trkpt lat="42.5147692300379276275634765625" lon="19.77288753725588321685791015625">
        <ele>1842</ele>
        <time>2026-06-18T10:13:09.000Z</time>
        <extensions>
          <ns3:TrackPointExtension>
            <ns3:atemp>23.0</ns3:atemp>
          </ns3:TrackPointExtension>
        </extensions>
      </trkpt>
      <trkpt lat="42.5147692300379276275634765625" lon="19.77288753725588321685791015625">
        <ele>1842</ele>
        <time>2026-06-18T10:13:10.000Z</time>
        <extensions>
          <ns3:TrackPointExtension>
            <ns3:atemp>23.0</ns3:atemp>
          </ns3:TrackPointExtension>
        </extensions>
      </trkpt>
      <trkpt lat="42.5147692300379276275634765625" lon="19.77288753725588321685791015625">
        <ele>1842</ele>
        <time>2026-06-18T10:13:11.000Z</time>
        <extensions>
          <ns3:TrackPointExtension>
            <ns3:atemp>23.0</ns3:atemp>
          </ns3:TrackPointExtension>
        </extensions>
      </trkpt>
      <trkpt lat="42.5147692300379276275634765625" lon="19.77288753725588321685791015625">
        <ele>1842</ele>
        <time>2026-06-18T10:13:12.000Z</time>
        <extensions>
          <ns3:TrackPointExtension>
            <ns3:atemp>23.0</ns3:atemp>
          </ns3:TrackPointExtension>
        </extensions>
      </trkpt>
      <trkpt lat="42.5147692300379276275634765625" lon="19.77288753725588321685791015625">
        <ele>1842</ele>
        <time>2026-06-18T10:13:13.000Z</time>
        <extensions>
          <ns3:TrackPointExtension>
            <ns3:atemp>23.0</ns3:atemp>
          </ns3:TrackPointExtension>
        </extensions>
      </trkpt>
      <trkpt lat="42.5147692300379276275634765625" lon="19.77288753725588321685791015625">
        <ele>1842</ele>
        <time>2026-06-18T10:13:14.000Z</time>
        <extensions>
          <ns3:TrackPointExtension>
            <ns3:atemp>23.0</ns3:atemp>
          </ns3:TrackPointExtension>
        </extensions>
      </trkpt>
      <trkpt lat="42.5147692300379276275634765625" lon="19.77288753725588321685791015625">
        <ele>1842</ele>
        <time>2026-06-18T10:13:15.000Z</time>
        <extensions>
          <ns3:TrackPointExtension>
            <ns3:atemp>23.0</ns3:atemp>
          </ns3:TrackPointExtension>
        </extensions>
      </trkpt>
      <trkpt lat="42.5147692300379276275634765625" lon="19.77288753725588321685791015625">
        <ele>1842</ele>
        <time>2026-06-18T10:13:16.000Z</time>
        <extensions>
          <ns3:TrackPointExtension>
            <ns3:atemp>23.0</ns3:atemp>
          </ns3:TrackPointExtension>
        </extensions>
      </trkpt>
      <trkpt lat="42.5147692300379276275634765625" lon="19.77288753725588321685791015625">
        <ele>1842</ele>
        <time>2026-06-18T10:13:17.000Z</time>
        <extensions>
          <ns3:TrackPointExtension>
            <ns3:atemp>23.0</ns3:atemp>
          </ns3:TrackPointExtension>
        </extensions>
      </trkpt>
      <trkpt lat="42.5147692300379276275634765625" lon="19.77288753725588321685791015625">
        <ele>1842</ele>
        <time>2026-06-18T10:13:18.000Z</time>
        <extensions>
          <ns3:TrackPointExtension>
            <ns3:atemp>23.0</ns3:atemp>
          </ns3:TrackPointExtension>
        </extensions>
      </trkpt>
      <trkpt lat="42.5147692300379276275634765625" lon="19.77288753725588321685791015625">
        <ele>1842</ele>
        <time>2026-06-18T10:13:19.000Z</time>
        <extensions>
          <ns3:TrackPointExtension>
            <ns3:atemp>23.0</ns3:atemp>
          </ns3:TrackPointExtension>
        </extensions>
      </trkpt>
      <trkpt lat="42.5147692300379276275634765625" lon="19.77288753725588321685791015625">
        <ele>1842</ele>
        <time>2026-06-18T10:13:20.000Z</time>
        <extensions>
          <ns3:TrackPointExtension>
            <ns3:atemp>23.0</ns3:atemp>
          </ns3:TrackPointExtension>
        </extensions>
      </trkpt>
      <trkpt lat="42.5147692300379276275634765625" lon="19.77288753725588321685791015625">
        <ele>1842</ele>
        <time>2026-06-18T10:13:21.000Z</time>
        <extensions>
          <ns3:TrackPointExtension>
            <ns3:atemp>23.0</ns3:atemp>
          </ns3:TrackPointExtension>
        </extensions>
      </trkpt>
      <trkpt lat="42.5147692300379276275634765625" lon="19.77288753725588321685791015625">
        <ele>1842</ele>
        <time>2026-06-18T10:13:22.000Z</time>
        <extensions>
          <ns3:TrackPointExtension>
            <ns3:atemp>23.0</ns3:atemp>
          </ns3:TrackPointExtension>
        </extensions>
      </trkpt>
      <trkpt lat="42.5147692300379276275634765625" lon="19.77288753725588321685791015625">
        <ele>1842</ele>
        <time>2026-06-18T10:13:23.000Z</time>
        <extensions>
          <ns3:TrackPointExtension>
            <ns3:atemp>23.0</ns3:atemp>
          </ns3:TrackPointExtension>
        </extensions>
      </trkpt>
      <trkpt lat="42.5147692300379276275634765625" lon="19.77288753725588321685791015625">
        <ele>1842</ele>
        <time>2026-06-18T10:13:24.000Z</time>
        <extensions>
          <ns3:TrackPointExtension>
            <ns3:atemp>23.0</ns3:atemp>
          </ns3:TrackPointExtension>
        </extensions>
      </trkpt>
      <trkpt lat="42.5147692300379276275634765625" lon="19.77288753725588321685791015625">
        <ele>1842</ele>
        <time>2026-06-18T10:13:25.000Z</time>
        <extensions>
          <ns3:TrackPointExtension>
            <ns3:atemp>23.0</ns3:atemp>
          </ns3:TrackPointExtension>
        </extensions>
      </trkpt>
      <trkpt lat="42.5147692300379276275634765625" lon="19.77288753725588321685791015625">
        <ele>1842</ele>
        <time>2026-06-18T10:13:26.000Z</time>
        <extensions>
          <ns3:TrackPointExtension>
            <ns3:atemp>23.0</ns3:atemp>
          </ns3:TrackPointExtension>
        </extensions>
      </trkpt>
      <trkpt lat="42.5147692300379276275634765625" lon="19.77288753725588321685791015625">
        <ele>1842</ele>
        <time>2026-06-18T10:13:27.000Z</time>
        <extensions>
          <ns3:TrackPointExtension>
            <ns3:atemp>23.0</ns3:atemp>
          </ns3:TrackPointExtension>
        </extensions>
      </trkpt>
      <trkpt lat="42.5147692300379276275634765625" lon="19.77288753725588321685791015625">
        <ele>1842</ele>
        <time>2026-06-18T10:13:28.000Z</time>
        <extensions>
          <ns3:TrackPointExtension>
            <ns3:atemp>23.0</ns3:atemp>
          </ns3:TrackPointExtension>
        </extensions>
      </trkpt>
      <trkpt lat="42.5147692300379276275634765625" lon="19.77288753725588321685791015625">
        <ele>1842</ele>
        <time>2026-06-18T10:13:29.000Z</time>
        <extensions>
          <ns3:TrackPointExtension>
            <ns3:atemp>23.0</ns3:atemp>
          </ns3:TrackPointExtension>
        </extensions>
      </trkpt>
      <trkpt lat="42.5147692300379276275634765625" lon="19.77288753725588321685791015625">
        <ele>1842</ele>
        <time>2026-06-18T10:13:30.000Z</time>
        <extensions>
          <ns3:TrackPointExtension>
            <ns3:atemp>23.0</ns3:atemp>
          </ns3:TrackPointExtension>
        </extensions>
      </trkpt>
      <trkpt lat="42.5147692300379276275634765625" lon="19.77288753725588321685791015625">
        <ele>1842</ele>
        <time>2026-06-18T10:13:31.000Z</time>
        <extensions>
          <ns3:TrackPointExtension>
            <ns3:atemp>23.0</ns3:atemp>
          </ns3:TrackPointExtension>
        </extensions>
      </trkpt>
      <trkpt lat="42.5147692300379276275634765625" lon="19.77288753725588321685791015625">
        <ele>1842</ele>
        <time>2026-06-18T10:13:32.000Z</time>
        <extensions>
          <ns3:TrackPointExtension>
            <ns3:atemp>23.0</ns3:atemp>
          </ns3:TrackPointExtension>
        </extensions>
      </trkpt>
      <trkpt lat="42.5147692300379276275634765625" lon="19.77288753725588321685791015625">
        <ele>1842</ele>
        <time>2026-06-18T10:13:33.000Z</time>
        <extensions>
          <ns3:TrackPointExtension>
            <ns3:atemp>23.0</ns3:atemp>
          </ns3:TrackPointExtension>
        </extensions>
      </trkpt>
      <trkpt lat="42.5147692300379276275634765625" lon="19.77288753725588321685791015625">
        <ele>1842</ele>
        <time>2026-06-18T10:13:34.000Z</time>
        <extensions>
          <ns3:TrackPointExtension>
            <ns3:atemp>23.0</ns3:atemp>
          </ns3:TrackPointExtension>
        </extensions>
      </trkpt>
      <trkpt lat="42.5147692300379276275634765625" lon="19.77288753725588321685791015625">
        <ele>1842</ele>
        <time>2026-06-18T10:13:35.000Z</time>
        <extensions>
          <ns3:TrackPointExtension>
            <ns3:atemp>23.0</ns3:atemp>
          </ns3:TrackPointExtension>
        </extensions>
      </trkpt>
      <trkpt lat="42.5147692300379276275634765625" lon="19.77288753725588321685791015625">
        <ele>1842</ele>
        <time>2026-06-18T10:13:36.000Z</time>
        <extensions>
          <ns3:TrackPointExtension>
            <ns3:atemp>23.0</ns3:atemp>
          </ns3:TrackPointExtension>
        </extensions>
      </trkpt>
      <trkpt lat="42.5147692300379276275634765625" lon="19.77288753725588321685791015625">
        <ele>1842</ele>
        <time>2026-06-18T10:13:37.000Z</time>
        <extensions>
          <ns3:TrackPointExtension>
            <ns3:atemp>23.0</ns3:atemp>
          </ns3:TrackPointExtension>
        </extensions>
      </trkpt>
      <trkpt lat="42.5147692300379276275634765625" lon="19.77288753725588321685791015625">
        <ele>1842</ele>
        <time>2026-06-18T10:13:38.000Z</time>
        <extensions>
          <ns3:TrackPointExtension>
            <ns3:atemp>23.0</ns3:atemp>
          </ns3:TrackPointExtension>
        </extensions>
      </trkpt>
      <trkpt lat="42.5147692300379276275634765625" lon="19.77288753725588321685791015625">
        <ele>1842</ele>
        <time>2026-06-18T10:13:39.000Z</time>
        <extensions>
          <ns3:TrackPointExtension>
            <ns3:atemp>23.0</ns3:atemp>
          </ns3:TrackPointExtension>
        </extensions>
      </trkpt>
      <trkpt lat="42.5147692300379276275634765625" lon="19.77288753725588321685791015625">
        <ele>1842</ele>
        <time>2026-06-18T10:13:40.000Z</time>
        <extensions>
          <ns3:TrackPointExtension>
            <ns3:atemp>23.0</ns3:atemp>
          </ns3:TrackPointExtension>
        </extensions>
      </trkpt>
      <trkpt lat="42.5147692300379276275634765625" lon="19.77288753725588321685791015625">
        <ele>1842</ele>
        <time>2026-06-18T10:13:41.000Z</time>
        <extensions>
          <ns3:TrackPointExtension>
            <ns3:atemp>23.0</ns3:atemp>
          </ns3:TrackPointExtension>
        </extensions>
      </trkpt>
      <trkpt lat="42.5147692300379276275634765625" lon="19.77288753725588321685791015625">
        <ele>1842</ele>
        <time>2026-06-18T10:13:42.000Z</time>
        <extensions>
          <ns3:TrackPointExtension>
            <ns3:atemp>23.0</ns3:atemp>
          </ns3:TrackPointExtension>
        </extensions>
      </trkpt>
      <trkpt lat="42.5147692300379276275634765625" lon="19.77288753725588321685791015625">
        <ele>1842</ele>
        <time>2026-06-18T10:13:43.000Z</time>
        <extensions>
          <ns3:TrackPointExtension>
            <ns3:atemp>23.0</ns3:atemp>
          </ns3:TrackPointExtension>
        </extensions>
      </trkpt>
      <trkpt lat="42.5147692300379276275634765625" lon="19.77288753725588321685791015625">
        <ele>1842</ele>
        <time>2026-06-18T10:13:44.000Z</time>
        <extensions>
          <ns3:TrackPointExtension>
            <ns3:atemp>23.0</ns3:atemp>
          </ns3:TrackPointExtension>
        </extensions>
      </trkpt>
      <trkpt lat="42.5147692300379276275634765625" lon="19.77288753725588321685791015625">
        <ele>1842</ele>
        <time>2026-06-18T10:13:45.000Z</time>
        <extensions>
          <ns3:TrackPointExtension>
            <ns3:atemp>23.0</ns3:atemp>
          </ns3:TrackPointExtension>
        </extensions>
      </trkpt>
      <trkpt lat="42.5147692300379276275634765625" lon="19.77288753725588321685791015625">
        <ele>1842</ele>
        <time>2026-06-18T10:13:46.000Z</time>
        <extensions>
          <ns3:TrackPointExtension>
            <ns3:atemp>23.0</ns3:atemp>
          </ns3:TrackPointExtension>
        </extensions>
      </trkpt>
      <trkpt lat="42.5147692300379276275634765625" lon="19.77288753725588321685791015625">
        <ele>1842</ele>
        <time>2026-06-18T10:13:47.000Z</time>
        <extensions>
          <ns3:TrackPointExtension>
            <ns3:atemp>23.0</ns3:atemp>
          </ns3:TrackPointExtension>
        </extensions>
      </trkpt>
      <trkpt lat="42.5147692300379276275634765625" lon="19.77288753725588321685791015625">
        <ele>1842</ele>
        <time>2026-06-18T10:13:48.000Z</time>
        <extensions>
          <ns3:TrackPointExtension>
            <ns3:atemp>23.0</ns3:atemp>
          </ns3:TrackPointExtension>
        </extensions>
      </trkpt>
      <trkpt lat="42.5147692300379276275634765625" lon="19.77288753725588321685791015625">
        <ele>1842</ele>
        <time>2026-06-18T10:13:49.000Z</time>
        <extensions>
          <ns3:TrackPointExtension>
            <ns3:atemp>23.0</ns3:atemp>
          </ns3:TrackPointExtension>
        </extensions>
      </trkpt>
      <trkpt lat="42.5147692300379276275634765625" lon="19.77288753725588321685791015625">
        <ele>1842</ele>
        <time>2026-06-18T10:13:50.000Z</time>
        <extensions>
          <ns3:TrackPointExtension>
            <ns3:atemp>23.0</ns3:atemp>
          </ns3:TrackPointExtension>
        </extensions>
      </trkpt>
      <trkpt lat="42.5147692300379276275634765625" lon="19.77288753725588321685791015625">
        <ele>1842</ele>
        <time>2026-06-18T10:13:51.000Z</time>
        <extensions>
          <ns3:TrackPointExtension>
            <ns3:atemp>23.0</ns3:atemp>
          </ns3:TrackPointExtension>
        </extensions>
      </trkpt>
      <trkpt lat="42.5147692300379276275634765625" lon="19.77288753725588321685791015625">
        <ele>1842</ele>
        <time>2026-06-18T10:13:52.000Z</time>
        <extensions>
          <ns3:TrackPointExtension>
            <ns3:atemp>23.0</ns3:atemp>
          </ns3:TrackPointExtension>
        </extensions>
      </trkpt>
      <trkpt lat="42.5147692300379276275634765625" lon="19.77288753725588321685791015625">
        <ele>1842</ele>
        <time>2026-06-18T10:13:53.000Z</time>
        <extensions>
          <ns3:TrackPointExtension>
            <ns3:atemp>23.0</ns3:atemp>
          </ns3:TrackPointExtension>
        </extensions>
      </trkpt>
      <trkpt lat="42.5147692300379276275634765625" lon="19.77288753725588321685791015625">
        <ele>1842</ele>
        <time>2026-06-18T10:13:54.000Z</time>
        <extensions>
          <ns3:TrackPointExtension>
            <ns3:atemp>23.0</ns3:atemp>
          </ns3:TrackPointExtension>
        </extensions>
      </trkpt>
      <trkpt lat="42.5147692300379276275634765625" lon="19.77288753725588321685791015625">
        <ele>1842</ele>
        <time>2026-06-18T10:13:55.000Z</time>
        <extensions>
          <ns3:TrackPointExtension>
            <ns3:atemp>23.0</ns3:atemp>
          </ns3:TrackPointExtension>
        </extensions>
      </trkpt>
      <trkpt lat="42.5147692300379276275634765625" lon="19.77288753725588321685791015625">
        <ele>1842</ele>
        <time>2026-06-18T10:13:56.000Z</time>
        <extensions>
          <ns3:TrackPointExtension>
            <ns3:atemp>23.0</ns3:atemp>
          </ns3:TrackPointExtension>
        </extensions>
      </trkpt>
      <trkpt lat="42.5147692300379276275634765625" lon="19.77288753725588321685791015625">
        <ele>1842</ele>
        <time>2026-06-18T10:13:57.000Z</time>
        <extensions>
          <ns3:TrackPointExtension>
            <ns3:atemp>23.0</ns3:atemp>
          </ns3:TrackPointExtension>
        </extensions>
      </trkpt>
      <trkpt lat="42.5147692300379276275634765625" lon="19.77288753725588321685791015625">
        <ele>1842</ele>
        <time>2026-06-18T10:13:58.000Z</time>
        <extensions>
          <ns3:TrackPointExtension>
            <ns3:atemp>23.0</ns3:atemp>
          </ns3:TrackPointExtension>
        </extensions>
      </trkpt>
      <trkpt lat="42.5147692300379276275634765625" lon="19.77288753725588321685791015625">
        <ele>1842</ele>
        <time>2026-06-18T10:13:59.000Z</time>
        <extensions>
          <ns3:TrackPointExtension>
            <ns3:atemp>23.0</ns3:atemp>
          </ns3:TrackPointExtension>
        </extensions>
      </trkpt>
      <trkpt lat="42.5147692300379276275634765625" lon="19.77288753725588321685791015625">
        <ele>1842</ele>
        <time>2026-06-18T10:14:00.000Z</time>
        <extensions>
          <ns3:TrackPointExtension>
            <ns3:atemp>23.0</ns3:atemp>
          </ns3:TrackPointExtension>
        </extensions>
      </trkpt>
      <trkpt lat="42.5147692300379276275634765625" lon="19.77288753725588321685791015625">
        <ele>1842</ele>
        <time>2026-06-18T10:14:01.000Z</time>
        <extensions>
          <ns3:TrackPointExtension>
            <ns3:atemp>23.0</ns3:atemp>
          </ns3:TrackPointExtension>
        </extensions>
      </trkpt>
      <trkpt lat="42.5147692300379276275634765625" lon="19.77288753725588321685791015625">
        <ele>1842</ele>
        <time>2026-06-18T10:14:02.000Z</time>
        <extensions>
          <ns3:TrackPointExtension>
            <ns3:atemp>23.0</ns3:atemp>
          </ns3:TrackPointExtension>
        </extensions>
      </trkpt>
      <trkpt lat="42.5147692300379276275634765625" lon="19.77288753725588321685791015625">
        <ele>1842</ele>
        <time>2026-06-18T10:14:03.000Z</time>
        <extensions>
          <ns3:TrackPointExtension>
            <ns3:atemp>23.0</ns3:atemp>
          </ns3:TrackPointExtension>
        </extensions>
      </trkpt>
      <trkpt lat="42.5147692300379276275634765625" lon="19.77288753725588321685791015625">
        <ele>1842</ele>
        <time>2026-06-18T10:14:04.000Z</time>
        <extensions>
          <ns3:TrackPointExtension>
            <ns3:atemp>23.0</ns3:atemp>
          </ns3:TrackPointExtension>
        </extensions>
      </trkpt>
      <trkpt lat="42.5147692300379276275634765625" lon="19.77288753725588321685791015625">
        <ele>1842</ele>
        <time>2026-06-18T10:14:05.000Z</time>
        <extensions>
          <ns3:TrackPointExtension>
            <ns3:atemp>23.0</ns3:atemp>
          </ns3:TrackPointExtension>
        </extensions>
      </trkpt>
      <trkpt lat="42.5147692300379276275634765625" lon="19.77288753725588321685791015625">
        <ele>1842</ele>
        <time>2026-06-18T10:14:06.000Z</time>
        <extensions>
          <ns3:TrackPointExtension>
            <ns3:atemp>23.0</ns3:atemp>
          </ns3:TrackPointExtension>
        </extensions>
      </trkpt>
      <trkpt lat="42.5147692300379276275634765625" lon="19.77288753725588321685791015625">
        <ele>1842</ele>
        <time>2026-06-18T10:14:07.000Z</time>
        <extensions>
          <ns3:TrackPointExtension>
            <ns3:atemp>23.0</ns3:atemp>
          </ns3:TrackPointExtension>
        </extensions>
      </trkpt>
      <trkpt lat="42.5147692300379276275634765625" lon="19.77288753725588321685791015625">
        <ele>1842</ele>
        <time>2026-06-18T10:14:08.000Z</time>
        <extensions>
          <ns3:TrackPointExtension>
            <ns3:atemp>23.0</ns3:atemp>
          </ns3:TrackPointExtension>
        </extensions>
      </trkpt>
      <trkpt lat="42.5147692300379276275634765625" lon="19.77288753725588321685791015625">
        <ele>1842</ele>
        <time>2026-06-18T10:14:09.000Z</time>
        <extensions>
          <ns3:TrackPointExtension>
            <ns3:atemp>23.0</ns3:atemp>
          </ns3:TrackPointExtension>
        </extensions>
      </trkpt>
      <trkpt lat="42.5147692300379276275634765625" lon="19.77288753725588321685791015625">
        <ele>1842</ele>
        <time>2026-06-18T10:14:10.000Z</time>
        <extensions>
          <ns3:TrackPointExtension>
            <ns3:atemp>23.0</ns3:atemp>
          </ns3:TrackPointExtension>
        </extensions>
      </trkpt>
      <trkpt lat="42.5147692300379276275634765625" lon="19.77288753725588321685791015625">
        <ele>1842</ele>
        <time>2026-06-18T10:14:11.000Z</time>
        <extensions>
          <ns3:TrackPointExtension>
            <ns3:atemp>23.0</ns3:atemp>
          </ns3:TrackPointExtension>
        </extensions>
      </trkpt>
      <trkpt lat="42.5147692300379276275634765625" lon="19.77288753725588321685791015625">
        <ele>1842</ele>
        <time>2026-06-18T10:14:12.000Z</time>
        <extensions>
          <ns3:TrackPointExtension>
            <ns3:atemp>23.0</ns3:atemp>
          </ns3:TrackPointExtension>
        </extensions>
      </trkpt>
      <trkpt lat="42.5147692300379276275634765625" lon="19.77288753725588321685791015625">
        <ele>1842</ele>
        <time>2026-06-18T10:14:13.000Z</time>
        <extensions>
          <ns3:TrackPointExtension>
            <ns3:atemp>23.0</ns3:atemp>
          </ns3:TrackPointExtension>
        </extensions>
      </trkpt>
      <trkpt lat="42.5147692300379276275634765625" lon="19.77288753725588321685791015625">
        <ele>1842</ele>
        <time>2026-06-18T10:14:14.000Z</time>
        <extensions>
          <ns3:TrackPointExtension>
            <ns3:atemp>23.0</ns3:atemp>
          </ns3:TrackPointExtension>
        </extensions>
      </trkpt>
      <trkpt lat="42.5147692300379276275634765625" lon="19.77288753725588321685791015625">
        <ele>1842</ele>
        <time>2026-06-18T10:14:15.000Z</time>
        <extensions>
          <ns3:TrackPointExtension>
            <ns3:atemp>23.0</ns3:atemp>
          </ns3:TrackPointExtension>
        </extensions>
      </trkpt>
      <trkpt lat="42.5147692300379276275634765625" lon="19.77288753725588321685791015625">
        <ele>1842</ele>
        <time>2026-06-18T10:14:16.000Z</time>
        <extensions>
          <ns3:TrackPointExtension>
            <ns3:atemp>23.0</ns3:atemp>
          </ns3:TrackPointExtension>
        </extensions>
      </trkpt>
      <trkpt lat="42.5147692300379276275634765625" lon="19.77288753725588321685791015625">
        <ele>1842</ele>
        <time>2026-06-18T10:14:17.000Z</time>
        <extensions>
          <ns3:TrackPointExtension>
            <ns3:atemp>23.0</ns3:atemp>
          </ns3:TrackPointExtension>
        </extensions>
      </trkpt>
      <trkpt lat="42.5147692300379276275634765625" lon="19.77288753725588321685791015625">
        <ele>1842</ele>
        <time>2026-06-18T10:14:18.000Z</time>
        <extensions>
          <ns3:TrackPointExtension>
            <ns3:atemp>23.0</ns3:atemp>
          </ns3:TrackPointExtension>
        </extensions>
      </trkpt>
      <trkpt lat="42.5147692300379276275634765625" lon="19.77288753725588321685791015625">
        <ele>1842</ele>
        <time>2026-06-18T10:14:19.000Z</time>
        <extensions>
          <ns3:TrackPointExtension>
            <ns3:atemp>23.0</ns3:atemp>
          </ns3:TrackPointExtension>
        </extensions>
      </trkpt>
      <trkpt lat="42.5147692300379276275634765625" lon="19.77288753725588321685791015625">
        <ele>1842</ele>
        <time>2026-06-18T10:14:20.000Z</time>
        <extensions>
          <ns3:TrackPointExtension>
            <ns3:atemp>23.0</ns3:atemp>
          </ns3:TrackPointExtension>
        </extensions>
      </trkpt>
      <trkpt lat="42.5147692300379276275634765625" lon="19.77288753725588321685791015625">
        <ele>1842</ele>
        <time>2026-06-18T10:14:21.000Z</time>
        <extensions>
          <ns3:TrackPointExtension>
            <ns3:atemp>23.0</ns3:atemp>
          </ns3:TrackPointExtension>
        </extensions>
      </trkpt>
      <trkpt lat="42.5147692300379276275634765625" lon="19.77288753725588321685791015625">
        <ele>1842</ele>
        <time>2026-06-18T10:14:22.000Z</time>
        <extensions>
          <ns3:TrackPointExtension>
            <ns3:atemp>23.0</ns3:atemp>
          </ns3:TrackPointExtension>
        </extensions>
      </trkpt>
      <trkpt lat="42.5147692300379276275634765625" lon="19.77288753725588321685791015625">
        <ele>1842</ele>
        <time>2026-06-18T10:14:23.000Z</time>
        <extensions>
          <ns3:TrackPointExtension>
            <ns3:atemp>23.0</ns3:atemp>
          </ns3:TrackPointExtension>
        </extensions>
      </trkpt>
      <trkpt lat="42.5147692300379276275634765625" lon="19.77288753725588321685791015625">
        <ele>1842</ele>
        <time>2026-06-18T10:14:24.000Z</time>
        <extensions>
          <ns3:TrackPointExtension>
            <ns3:atemp>23.0</ns3:atemp>
          </ns3:TrackPointExtension>
        </extensions>
      </trkpt>
      <trkpt lat="42.5147692300379276275634765625" lon="19.77288753725588321685791015625">
        <ele>1842</ele>
        <time>2026-06-18T10:14:25.000Z</time>
        <extensions>
          <ns3:TrackPointExtension>
            <ns3:atemp>23.0</ns3:atemp>
          </ns3:TrackPointExtension>
        </extensions>
      </trkpt>
      <trkpt lat="42.5147692300379276275634765625" lon="19.77288753725588321685791015625">
        <ele>1842</ele>
        <time>2026-06-18T10:14:26.000Z</time>
        <extensions>
          <ns3:TrackPointExtension>
            <ns3:atemp>23.0</ns3:atemp>
          </ns3:TrackPointExtension>
        </extensions>
      </trkpt>
      <trkpt lat="42.5147692300379276275634765625" lon="19.77288753725588321685791015625">
        <ele>1842</ele>
        <time>2026-06-18T10:14:27.000Z</time>
        <extensions>
          <ns3:TrackPointExtension>
            <ns3:atemp>23.0</ns3:atemp>
          </ns3:TrackPointExtension>
        </extensions>
      </trkpt>
      <trkpt lat="42.5147692300379276275634765625" lon="19.77288753725588321685791015625">
        <ele>1842</ele>
        <time>2026-06-18T10:14:28.000Z</time>
        <extensions>
          <ns3:TrackPointExtension>
            <ns3:atemp>23.0</ns3:atemp>
          </ns3:TrackPointExtension>
        </extensions>
      </trkpt>
      <trkpt lat="42.5147692300379276275634765625" lon="19.77288753725588321685791015625">
        <ele>1842</ele>
        <time>2026-06-18T10:14:29.000Z</time>
        <extensions>
          <ns3:TrackPointExtension>
            <ns3:atemp>23.0</ns3:atemp>
          </ns3:TrackPointExtension>
        </extensions>
      </trkpt>
      <trkpt lat="42.5147692300379276275634765625" lon="19.77288753725588321685791015625">
        <ele>1842</ele>
        <time>2026-06-18T10:14:30.000Z</time>
        <extensions>
          <ns3:TrackPointExtension>
            <ns3:atemp>23.0</ns3:atemp>
          </ns3:TrackPointExtension>
        </extensions>
      </trkpt>
      <trkpt lat="42.5147692300379276275634765625" lon="19.77288753725588321685791015625">
        <ele>1842</ele>
        <time>2026-06-18T10:14:31.000Z</time>
        <extensions>
          <ns3:TrackPointExtension>
            <ns3:atemp>23.0</ns3:atemp>
          </ns3:TrackPointExtension>
        </extensions>
      </trkpt>
      <trkpt lat="42.5147692300379276275634765625" lon="19.77288753725588321685791015625">
        <ele>1842</ele>
        <time>2026-06-18T10:14:32.000Z</time>
        <extensions>
          <ns3:TrackPointExtension>
            <ns3:atemp>23.0</ns3:atemp>
          </ns3:TrackPointExtension>
        </extensions>
      </trkpt>
      <trkpt lat="42.5147692300379276275634765625" lon="19.77288753725588321685791015625">
        <ele>1842</ele>
        <time>2026-06-18T10:14:33.000Z</time>
        <extensions>
          <ns3:TrackPointExtension>
            <ns3:atemp>23.0</ns3:atemp>
          </ns3:TrackPointExtension>
        </extensions>
      </trkpt>
      <trkpt lat="42.5147692300379276275634765625" lon="19.77288753725588321685791015625">
        <ele>1842</ele>
        <time>2026-06-18T10:14:34.000Z</time>
        <extensions>
          <ns3:TrackPointExtension>
            <ns3:atemp>23.0</ns3:atemp>
          </ns3:TrackPointExtension>
        </extensions>
      </trkpt>
      <trkpt lat="42.5147692300379276275634765625" lon="19.77288753725588321685791015625">
        <ele>1842</ele>
        <time>2026-06-18T10:14:35.000Z</time>
        <extensions>
          <ns3:TrackPointExtension>
            <ns3:atemp>23.0</ns3:atemp>
          </ns3:TrackPointExtension>
        </extensions>
      </trkpt>
      <trkpt lat="42.5147692300379276275634765625" lon="19.77288753725588321685791015625">
        <ele>1842</ele>
        <time>2026-06-18T10:14:36.000Z</time>
        <extensions>
          <ns3:TrackPointExtension>
            <ns3:atemp>23.0</ns3:atemp>
          </ns3:TrackPointExtension>
        </extensions>
      </trkpt>
      <trkpt lat="42.5147692300379276275634765625" lon="19.77288753725588321685791015625">
        <ele>1842</ele>
        <time>2026-06-18T10:14:37.000Z</time>
        <extensions>
          <ns3:TrackPointExtension>
            <ns3:atemp>23.0</ns3:atemp>
          </ns3:TrackPointExtension>
        </extensions>
      </trkpt>
      <trkpt lat="42.5147692300379276275634765625" lon="19.77288753725588321685791015625">
        <ele>1842</ele>
        <time>2026-06-18T10:14:38.000Z</time>
        <extensions>
          <ns3:TrackPointExtension>
            <ns3:atemp>23.0</ns3:atemp>
          </ns3:TrackPointExtension>
        </extensions>
      </trkpt>
      <trkpt lat="42.5147692300379276275634765625" lon="19.77288753725588321685791015625">
        <ele>1842</ele>
        <time>2026-06-18T10:14:39.000Z</time>
        <extensions>
          <ns3:TrackPointExtension>
            <ns3:atemp>23.0</ns3:atemp>
          </ns3:TrackPointExtension>
        </extensions>
      </trkpt>
      <trkpt lat="42.5147692300379276275634765625" lon="19.77288753725588321685791015625">
        <ele>1842</ele>
        <time>2026-06-18T10:14:40.000Z</time>
        <extensions>
          <ns3:TrackPointExtension>
            <ns3:atemp>23.0</ns3:atemp>
          </ns3:TrackPointExtension>
        </extensions>
      </trkpt>
      <trkpt lat="42.5147692300379276275634765625" lon="19.77288753725588321685791015625">
        <ele>1842</ele>
        <time>2026-06-18T10:14:41.000Z</time>
        <extensions>
          <ns3:TrackPointExtension>
            <ns3:atemp>23.0</ns3:atemp>
          </ns3:TrackPointExtension>
        </extensions>
      </trkpt>
      <trkpt lat="42.5147692300379276275634765625" lon="19.77288753725588321685791015625">
        <ele>1842</ele>
        <time>2026-06-18T10:14:42.000Z</time>
        <extensions>
          <ns3:TrackPointExtension>
            <ns3:atemp>23.0</ns3:atemp>
          </ns3:TrackPointExtension>
        </extensions>
      </trkpt>
      <trkpt lat="42.5147692300379276275634765625" lon="19.77288753725588321685791015625">
        <ele>1842</ele>
        <time>2026-06-18T10:14:43.000Z</time>
        <extensions>
          <ns3:TrackPointExtension>
            <ns3:atemp>23.0</ns3:atemp>
          </ns3:TrackPointExtension>
        </extensions>
      </trkpt>
      <trkpt lat="42.5147692300379276275634765625" lon="19.77288753725588321685791015625">
        <ele>1842</ele>
        <time>2026-06-18T10:14:44.000Z</time>
        <extensions>
          <ns3:TrackPointExtension>
            <ns3:atemp>23.0</ns3:atemp>
          </ns3:TrackPointExtension>
        </extensions>
      </trkpt>
      <trkpt lat="42.5147692300379276275634765625" lon="19.77288753725588321685791015625">
        <ele>1842</ele>
        <time>2026-06-18T10:14:45.000Z</time>
        <extensions>
          <ns3:TrackPointExtension>
            <ns3:atemp>23.0</ns3:atemp>
          </ns3:TrackPointExtension>
        </extensions>
      </trkpt>
      <trkpt lat="42.5147692300379276275634765625" lon="19.77288753725588321685791015625">
        <ele>1842</ele>
        <time>2026-06-18T10:14:46.000Z</time>
        <extensions>
          <ns3:TrackPointExtension>
            <ns3:atemp>23.0</ns3:atemp>
          </ns3:TrackPointExtension>
        </extensions>
      </trkpt>
      <trkpt lat="42.5147692300379276275634765625" lon="19.77288753725588321685791015625">
        <ele>1842</ele>
        <time>2026-06-18T10:14:47.000Z</time>
        <extensions>
          <ns3:TrackPointExtension>
            <ns3:atemp>23.0</ns3:atemp>
          </ns3:TrackPointExtension>
        </extensions>
      </trkpt>
      <trkpt lat="42.5147692300379276275634765625" lon="19.77288753725588321685791015625">
        <ele>1842</ele>
        <time>2026-06-18T10:14:48.000Z</time>
        <extensions>
          <ns3:TrackPointExtension>
            <ns3:atemp>23.0</ns3:atemp>
          </ns3:TrackPointExtension>
        </extensions>
      </trkpt>
      <trkpt lat="42.5147692300379276275634765625" lon="19.77288753725588321685791015625">
        <ele>1842</ele>
        <time>2026-06-18T10:14:49.000Z</time>
        <extensions>
          <ns3:TrackPointExtension>
            <ns3:atemp>23.0</ns3:atemp>
          </ns3:TrackPointExtension>
        </extensions>
      </trkpt>
      <trkpt lat="42.5147692300379276275634765625" lon="19.77288753725588321685791015625">
        <ele>1842</ele>
        <time>2026-06-18T10:14:50.000Z</time>
        <extensions>
          <ns3:TrackPointExtension>
            <ns3:atemp>23.0</ns3:atemp>
          </ns3:TrackPointExtension>
        </extensions>
      </trkpt>
      <trkpt lat="42.5147692300379276275634765625" lon="19.77288753725588321685791015625">
        <ele>1842</ele>
        <time>2026-06-18T10:14:51.000Z</time>
        <extensions>
          <ns3:TrackPointExtension>
            <ns3:atemp>23.0</ns3:atemp>
          </ns3:TrackPointExtension>
        </extensions>
      </trkpt>
      <trkpt lat="42.5147692300379276275634765625" lon="19.77288753725588321685791015625">
        <ele>1842</ele>
        <time>2026-06-18T10:14:52.000Z</time>
        <extensions>
          <ns3:TrackPointExtension>
            <ns3:atemp>23.0</ns3:atemp>
          </ns3:TrackPointExtension>
        </extensions>
      </trkpt>
      <trkpt lat="42.5147692300379276275634765625" lon="19.77288753725588321685791015625">
        <ele>1842</ele>
        <time>2026-06-18T10:14:53.000Z</time>
        <extensions>
          <ns3:TrackPointExtension>
            <ns3:atemp>23.0</ns3:atemp>
          </ns3:TrackPointExtension>
        </extensions>
      </trkpt>
      <trkpt lat="42.5147692300379276275634765625" lon="19.77288753725588321685791015625">
        <ele>1842</ele>
        <time>2026-06-18T10:14:54.000Z</time>
        <extensions>
          <ns3:TrackPointExtension>
            <ns3:atemp>23.0</ns3:atemp>
          </ns3:TrackPointExtension>
        </extensions>
      </trkpt>
      <trkpt lat="42.5147692300379276275634765625" lon="19.77288753725588321685791015625">
        <ele>1842</ele>
        <time>2026-06-18T10:14:55.000Z</time>
        <extensions>
          <ns3:TrackPointExtension>
            <ns3:atemp>23.0</ns3:atemp>
          </ns3:TrackPointExtension>
        </extensions>
      </trkpt>
      <trkpt lat="42.5147692300379276275634765625" lon="19.77288753725588321685791015625">
        <ele>1842</ele>
        <time>2026-06-18T10:14:56.000Z</time>
        <extensions>
          <ns3:TrackPointExtension>
            <ns3:atemp>23.0</ns3:atemp>
          </ns3:TrackPointExtension>
        </extensions>
      </trkpt>
      <trkpt lat="42.5147692300379276275634765625" lon="19.77288753725588321685791015625">
        <ele>1842</ele>
        <time>2026-06-18T10:14:57.000Z</time>
        <extensions>
          <ns3:TrackPointExtension>
            <ns3:atemp>23.0</ns3:atemp>
          </ns3:TrackPointExtension>
        </extensions>
      </trkpt>
      <trkpt lat="42.5147692300379276275634765625" lon="19.77288753725588321685791015625">
        <ele>1842</ele>
        <time>2026-06-18T10:14:58.000Z</time>
        <extensions>
          <ns3:TrackPointExtension>
            <ns3:atemp>23.0</ns3:atemp>
          </ns3:TrackPointExtension>
        </extensions>
      </trkpt>
      <trkpt lat="42.5147692300379276275634765625" lon="19.77288753725588321685791015625">
        <ele>1842</ele>
        <time>2026-06-18T10:14:59.000Z</time>
        <extensions>
          <ns3:TrackPointExtension>
            <ns3:atemp>23.0</ns3:atemp>
          </ns3:TrackPointExtension>
        </extensions>
      </trkpt>
      <trkpt lat="42.5147692300379276275634765625" lon="19.77288753725588321685791015625">
        <ele>1842</ele>
        <time>2026-06-18T10:15:00.000Z</time>
        <extensions>
          <ns3:TrackPointExtension>
            <ns3:atemp>23.0</ns3:atemp>
          </ns3:TrackPointExtension>
        </extensions>
      </trkpt>
      <trkpt lat="42.5147692300379276275634765625" lon="19.77288753725588321685791015625">
        <ele>1842</ele>
        <time>2026-06-18T10:15:01.000Z</time>
        <extensions>
          <ns3:TrackPointExtension>
            <ns3:atemp>23.0</ns3:atemp>
          </ns3:TrackPointExtension>
        </extensions>
      </trkpt>
      <trkpt lat="42.5147692300379276275634765625" lon="19.77288753725588321685791015625">
        <ele>1842</ele>
        <time>2026-06-18T10:15:02.000Z</time>
        <extensions>
          <ns3:TrackPointExtension>
            <ns3:atemp>23.0</ns3:atemp>
          </ns3:TrackPointExtension>
        </extensions>
      </trkpt>
      <trkpt lat="42.5147692300379276275634765625" lon="19.77288753725588321685791015625">
        <ele>1842</ele>
        <time>2026-06-18T10:15:03.000Z</time>
        <extensions>
          <ns3:TrackPointExtension>
            <ns3:atemp>23.0</ns3:atemp>
          </ns3:TrackPointExtension>
        </extensions>
      </trkpt>
      <trkpt lat="42.5147692300379276275634765625" lon="19.77288753725588321685791015625">
        <ele>1842</ele>
        <time>2026-06-18T10:15:04.000Z</time>
        <extensions>
          <ns3:TrackPointExtension>
            <ns3:atemp>23.0</ns3:atemp>
          </ns3:TrackPointExtension>
        </extensions>
      </trkpt>
      <trkpt lat="42.5147692300379276275634765625" lon="19.77288753725588321685791015625">
        <ele>1842</ele>
        <time>2026-06-18T10:15:05.000Z</time>
        <extensions>
          <ns3:TrackPointExtension>
            <ns3:atemp>23.0</ns3:atemp>
          </ns3:TrackPointExtension>
        </extensions>
      </trkpt>
      <trkpt lat="42.5147692300379276275634765625" lon="19.77288753725588321685791015625">
        <ele>1842</ele>
        <time>2026-06-18T10:15:06.000Z</time>
        <extensions>
          <ns3:TrackPointExtension>
            <ns3:atemp>23.0</ns3:atemp>
          </ns3:TrackPointExtension>
        </extensions>
      </trkpt>
      <trkpt lat="42.5147692300379276275634765625" lon="19.77288753725588321685791015625">
        <ele>1842</ele>
        <time>2026-06-18T10:15:07.000Z</time>
        <extensions>
          <ns3:TrackPointExtension>
            <ns3:atemp>23.0</ns3:atemp>
          </ns3:TrackPointExtension>
        </extensions>
      </trkpt>
      <trkpt lat="42.5147692300379276275634765625" lon="19.77288753725588321685791015625">
        <ele>1842</ele>
        <time>2026-06-18T10:15:08.000Z</time>
        <extensions>
          <ns3:TrackPointExtension>
            <ns3:atemp>23.0</ns3:atemp>
          </ns3:TrackPointExtension>
        </extensions>
      </trkpt>
      <trkpt lat="42.5147692300379276275634765625" lon="19.77288753725588321685791015625">
        <ele>1842</ele>
        <time>2026-06-18T10:15:09.000Z</time>
        <extensions>
          <ns3:TrackPointExtension>
            <ns3:atemp>23.0</ns3:atemp>
          </ns3:TrackPointExtension>
        </extensions>
      </trkpt>
      <trkpt lat="42.5147692300379276275634765625" lon="19.77288753725588321685791015625">
        <ele>1842</ele>
        <time>2026-06-18T10:15:10.000Z</time>
        <extensions>
          <ns3:TrackPointExtension>
            <ns3:atemp>23.0</ns3:atemp>
          </ns3:TrackPointExtension>
        </extensions>
      </trkpt>
      <trkpt lat="42.5147692300379276275634765625" lon="19.77288753725588321685791015625">
        <ele>1842</ele>
        <time>2026-06-18T10:15:11.000Z</time>
        <extensions>
          <ns3:TrackPointExtension>
            <ns3:atemp>23.0</ns3:atemp>
          </ns3:TrackPointExtension>
        </extensions>
      </trkpt>
      <trkpt lat="42.5147692300379276275634765625" lon="19.77288753725588321685791015625">
        <ele>1842</ele>
        <time>2026-06-18T10:15:12.000Z</time>
        <extensions>
          <ns3:TrackPointExtension>
            <ns3:atemp>23.0</ns3:atemp>
          </ns3:TrackPointExtension>
        </extensions>
      </trkpt>
      <trkpt lat="42.5147692300379276275634765625" lon="19.77288753725588321685791015625">
        <ele>1842</ele>
        <time>2026-06-18T10:15:13.000Z</time>
        <extensions>
          <ns3:TrackPointExtension>
            <ns3:atemp>23.0</ns3:atemp>
          </ns3:TrackPointExtension>
        </extensions>
      </trkpt>
      <trkpt lat="42.5147692300379276275634765625" lon="19.77288753725588321685791015625">
        <ele>1842</ele>
        <time>2026-06-18T10:15:14.000Z</time>
        <extensions>
          <ns3:TrackPointExtension>
            <ns3:atemp>23.0</ns3:atemp>
          </ns3:TrackPointExtension>
        </extensions>
      </trkpt>
      <trkpt lat="42.5147692300379276275634765625" lon="19.77288753725588321685791015625">
        <ele>1842</ele>
        <time>2026-06-18T10:15:15.000Z</time>
        <extensions>
          <ns3:TrackPointExtension>
            <ns3:atemp>23.0</ns3:atemp>
          </ns3:TrackPointExtension>
        </extensions>
      </trkpt>
      <trkpt lat="42.5147692300379276275634765625" lon="19.77288753725588321685791015625">
        <ele>1842</ele>
        <time>2026-06-18T10:15:16.000Z</time>
        <extensions>
          <ns3:TrackPointExtension>
            <ns3:atemp>23.0</ns3:atemp>
          </ns3:TrackPointExtension>
        </extensions>
      </trkpt>
      <trkpt lat="42.5147692300379276275634765625" lon="19.77288753725588321685791015625">
        <ele>1842</ele>
        <time>2026-06-18T10:15:17.000Z</time>
        <extensions>
          <ns3:TrackPointExtension>
            <ns3:atemp>23.0</ns3:atemp>
          </ns3:TrackPointExtension>
        </extensions>
      </trkpt>
      <trkpt lat="42.5147692300379276275634765625" lon="19.77288753725588321685791015625">
        <ele>1842</ele>
        <time>2026-06-18T10:15:18.000Z</time>
        <extensions>
          <ns3:TrackPointExtension>
            <ns3:atemp>23.0</ns3:atemp>
          </ns3:TrackPointExtension>
        </extensions>
      </trkpt>
      <trkpt lat="42.5147692300379276275634765625" lon="19.77288753725588321685791015625">
        <ele>1842</ele>
        <time>2026-06-18T10:15:19.000Z</time>
        <extensions>
          <ns3:TrackPointExtension>
            <ns3:atemp>23.0</ns3:atemp>
          </ns3:TrackPointExtension>
        </extensions>
      </trkpt>
      <trkpt lat="42.5147692300379276275634765625" lon="19.77288753725588321685791015625">
        <ele>1842</ele>
        <time>2026-06-18T10:15:20.000Z</time>
        <extensions>
          <ns3:TrackPointExtension>
            <ns3:atemp>23.0</ns3:atemp>
          </ns3:TrackPointExtension>
        </extensions>
      </trkpt>
      <trkpt lat="42.5147692300379276275634765625" lon="19.77288753725588321685791015625">
        <ele>1842</ele>
        <time>2026-06-18T10:15:21.000Z</time>
        <extensions>
          <ns3:TrackPointExtension>
            <ns3:atemp>23.0</ns3:atemp>
          </ns3:TrackPointExtension>
        </extensions>
      </trkpt>
      <trkpt lat="42.5147692300379276275634765625" lon="19.77288753725588321685791015625">
        <ele>1842</ele>
        <time>2026-06-18T10:15:22.000Z</time>
        <extensions>
          <ns3:TrackPointExtension>
            <ns3:atemp>23.0</ns3:atemp>
          </ns3:TrackPointExtension>
        </extensions>
      </trkpt>
      <trkpt lat="42.5147692300379276275634765625" lon="19.77288753725588321685791015625">
        <ele>1842</ele>
        <time>2026-06-18T10:15:23.000Z</time>
        <extensions>
          <ns3:TrackPointExtension>
            <ns3:atemp>23.0</ns3:atemp>
          </ns3:TrackPointExtension>
        </extensions>
      </trkpt>
      <trkpt lat="42.5147692300379276275634765625" lon="19.77288753725588321685791015625">
        <ele>1842</ele>
        <time>2026-06-18T10:15:24.000Z</time>
        <extensions>
          <ns3:TrackPointExtension>
            <ns3:atemp>23.0</ns3:atemp>
          </ns3:TrackPointExtension>
        </extensions>
      </trkpt>
      <trkpt lat="42.5147692300379276275634765625" lon="19.77288753725588321685791015625">
        <ele>1842</ele>
        <time>2026-06-18T10:15:25.000Z</time>
        <extensions>
          <ns3:TrackPointExtension>
            <ns3:atemp>23.0</ns3:atemp>
          </ns3:TrackPointExtension>
        </extensions>
      </trkpt>
      <trkpt lat="42.5147692300379276275634765625" lon="19.77288753725588321685791015625">
        <ele>1842</ele>
        <time>2026-06-18T10:15:26.000Z</time>
        <extensions>
          <ns3:TrackPointExtension>
            <ns3:atemp>23.0</ns3:atemp>
          </ns3:TrackPointExtension>
        </extensions>
      </trkpt>
      <trkpt lat="42.5147692300379276275634765625" lon="19.77288753725588321685791015625">
        <ele>1842</ele>
        <time>2026-06-18T10:15:27.000Z</time>
        <extensions>
          <ns3:TrackPointExtension>
            <ns3:atemp>23.0</ns3:atemp>
          </ns3:TrackPointExtension>
        </extensions>
      </trkpt>
      <trkpt lat="42.5147692300379276275634765625" lon="19.77288753725588321685791015625">
        <ele>1842</ele>
        <time>2026-06-18T10:15:28.000Z</time>
        <extensions>
          <ns3:TrackPointExtension>
            <ns3:atemp>23.0</ns3:atemp>
          </ns3:TrackPointExtension>
        </extensions>
      </trkpt>
      <trkpt lat="42.5147692300379276275634765625" lon="19.77288753725588321685791015625">
        <ele>1842</ele>
        <time>2026-06-18T10:15:29.000Z</time>
        <extensions>
          <ns3:TrackPointExtension>
            <ns3:atemp>23.0</ns3:atemp>
          </ns3:TrackPointExtension>
        </extensions>
      </trkpt>
      <trkpt lat="42.5147692300379276275634765625" lon="19.77288753725588321685791015625">
        <ele>1842</ele>
        <time>2026-06-18T10:15:30.000Z</time>
        <extensions>
          <ns3:TrackPointExtension>
            <ns3:atemp>23.0</ns3:atemp>
          </ns3:TrackPointExtension>
        </extensions>
      </trkpt>
      <trkpt lat="42.5147692300379276275634765625" lon="19.77288753725588321685791015625">
        <ele>1842</ele>
        <time>2026-06-18T10:15:31.000Z</time>
        <extensions>
          <ns3:TrackPointExtension>
            <ns3:atemp>23.0</ns3:atemp>
          </ns3:TrackPointExtension>
        </extensions>
      </trkpt>
      <trkpt lat="42.5147692300379276275634765625" lon="19.77288753725588321685791015625">
        <ele>1842</ele>
        <time>2026-06-18T10:15:32.000Z</time>
        <extensions>
          <ns3:TrackPointExtension>
            <ns3:atemp>23.0</ns3:atemp>
          </ns3:TrackPointExtension>
        </extensions>
      </trkpt>
      <trkpt lat="42.5147692300379276275634765625" lon="19.77288753725588321685791015625">
        <ele>1842</ele>
        <time>2026-06-18T10:15:33.000Z</time>
        <extensions>
          <ns3:TrackPointExtension>
            <ns3:atemp>23.0</ns3:atemp>
          </ns3:TrackPointExtension>
        </extensions>
      </trkpt>
      <trkpt lat="42.5147692300379276275634765625" lon="19.77288753725588321685791015625">
        <ele>1842</ele>
        <time>2026-06-18T10:15:34.000Z</time>
        <extensions>
          <ns3:TrackPointExtension>
            <ns3:atemp>23.0</ns3:atemp>
          </ns3:TrackPointExtension>
        </extensions>
      </trkpt>
      <trkpt lat="42.5147692300379276275634765625" lon="19.77288753725588321685791015625">
        <ele>1842</ele>
        <time>2026-06-18T10:15:35.000Z</time>
        <extensions>
          <ns3:TrackPointExtension>
            <ns3:atemp>23.0</ns3:atemp>
          </ns3:TrackPointExtension>
        </extensions>
      </trkpt>
      <trkpt lat="42.5147692300379276275634765625" lon="19.77288753725588321685791015625">
        <ele>1842</ele>
        <time>2026-06-18T10:15:36.000Z</time>
        <extensions>
          <ns3:TrackPointExtension>
            <ns3:atemp>23.0</ns3:atemp>
          </ns3:TrackPointExtension>
        </extensions>
      </trkpt>
      <trkpt lat="42.5147692300379276275634765625" lon="19.77288753725588321685791015625">
        <ele>1842</ele>
        <time>2026-06-18T10:15:37.000Z</time>
        <extensions>
          <ns3:TrackPointExtension>
            <ns3:atemp>23.0</ns3:atemp>
          </ns3:TrackPointExtension>
        </extensions>
      </trkpt>
      <trkpt lat="42.5147692300379276275634765625" lon="19.77288753725588321685791015625">
        <ele>1842</ele>
        <time>2026-06-18T10:15:38.000Z</time>
        <extensions>
          <ns3:TrackPointExtension>
            <ns3:atemp>23.0</ns3:atemp>
          </ns3:TrackPointExtension>
        </extensions>
      </trkpt>
      <trkpt lat="42.5147692300379276275634765625" lon="19.77288753725588321685791015625">
        <ele>1842</ele>
        <time>2026-06-18T10:15:39.000Z</time>
        <extensions>
          <ns3:TrackPointExtension>
            <ns3:atemp>23.0</ns3:atemp>
          </ns3:TrackPointExtension>
        </extensions>
      </trkpt>
      <trkpt lat="42.5147692300379276275634765625" lon="19.77288753725588321685791015625">
        <ele>1842</ele>
        <time>2026-06-18T10:15:40.000Z</time>
        <extensions>
          <ns3:TrackPointExtension>
            <ns3:atemp>23.0</ns3:atemp>
          </ns3:TrackPointExtension>
        </extensions>
      </trkpt>
      <trkpt lat="42.5147692300379276275634765625" lon="19.77288753725588321685791015625">
        <ele>1842</ele>
        <time>2026-06-18T10:15:41.000Z</time>
        <extensions>
          <ns3:TrackPointExtension>
            <ns3:atemp>23.0</ns3:atemp>
          </ns3:TrackPointExtension>
        </extensions>
      </trkpt>
      <trkpt lat="42.5147692300379276275634765625" lon="19.77288753725588321685791015625">
        <ele>1842</ele>
        <time>2026-06-18T10:15:42.000Z</time>
        <extensions>
          <ns3:TrackPointExtension>
            <ns3:atemp>23.0</ns3:atemp>
          </ns3:TrackPointExtension>
        </extensions>
      </trkpt>
      <trkpt lat="42.5147692300379276275634765625" lon="19.77288753725588321685791015625">
        <ele>1842</ele>
        <time>2026-06-18T10:15:43.000Z</time>
        <extensions>
          <ns3:TrackPointExtension>
            <ns3:atemp>23.0</ns3:atemp>
          </ns3:TrackPointExtension>
        </extensions>
      </trkpt>
      <trkpt lat="42.5147692300379276275634765625" lon="19.77288753725588321685791015625">
        <ele>1842</ele>
        <time>2026-06-18T10:15:44.000Z</time>
        <extensions>
          <ns3:TrackPointExtension>
            <ns3:atemp>23.0</ns3:atemp>
          </ns3:TrackPointExtension>
        </extensions>
      </trkpt>
      <trkpt lat="42.5147692300379276275634765625" lon="19.77288753725588321685791015625">
        <ele>1842</ele>
        <time>2026-06-18T10:15:45.000Z</time>
        <extensions>
          <ns3:TrackPointExtension>
            <ns3:atemp>23.0</ns3:atemp>
          </ns3:TrackPointExtension>
        </extensions>
      </trkpt>
      <trkpt lat="42.5147692300379276275634765625" lon="19.77288753725588321685791015625">
        <ele>1842</ele>
        <time>2026-06-18T10:15:46.000Z</time>
        <extensions>
          <ns3:TrackPointExtension>
            <ns3:atemp>23.0</ns3:atemp>
          </ns3:TrackPointExtension>
        </extensions>
      </trkpt>
      <trkpt lat="42.5147692300379276275634765625" lon="19.77288753725588321685791015625">
        <ele>1842</ele>
        <time>2026-06-18T10:15:47.000Z</time>
        <extensions>
          <ns3:TrackPointExtension>
            <ns3:atemp>23.0</ns3:atemp>
          </ns3:TrackPointExtension>
        </extensions>
      </trkpt>
      <trkpt lat="42.5147692300379276275634765625" lon="19.77288753725588321685791015625">
        <ele>1842</ele>
        <time>2026-06-18T10:15:48.000Z</time>
        <extensions>
          <ns3:TrackPointExtension>
            <ns3:atemp>23.0</ns3:atemp>
          </ns3:TrackPointExtension>
        </extensions>
      </trkpt>
      <trkpt lat="42.5147692300379276275634765625" lon="19.77288753725588321685791015625">
        <ele>1842</ele>
        <time>2026-06-18T10:15:49.000Z</time>
        <extensions>
          <ns3:TrackPointExtension>
            <ns3:atemp>23.0</ns3:atemp>
          </ns3:TrackPointExtension>
        </extensions>
      </trkpt>
      <trkpt lat="42.5147692300379276275634765625" lon="19.77288753725588321685791015625">
        <ele>1842</ele>
        <time>2026-06-18T10:15:50.000Z</time>
        <extensions>
          <ns3:TrackPointExtension>
            <ns3:atemp>23.0</ns3:atemp>
          </ns3:TrackPointExtension>
        </extensions>
      </trkpt>
      <trkpt lat="42.5147692300379276275634765625" lon="19.77288753725588321685791015625">
        <ele>1842</ele>
        <time>2026-06-18T10:15:51.000Z</time>
        <extensions>
          <ns3:TrackPointExtension>
            <ns3:atemp>23.0</ns3:atemp>
          </ns3:TrackPointExtension>
        </extensions>
      </trkpt>
      <trkpt lat="42.5147692300379276275634765625" lon="19.77288753725588321685791015625">
        <ele>1842</ele>
        <time>2026-06-18T10:15:52.000Z</time>
        <extensions>
          <ns3:TrackPointExtension>
            <ns3:atemp>23.0</ns3:atemp>
          </ns3:TrackPointExtension>
        </extensions>
      </trkpt>
      <trkpt lat="42.5147692300379276275634765625" lon="19.77288753725588321685791015625">
        <ele>1842</ele>
        <time>2026-06-18T10:15:53.000Z</time>
        <extensions>
          <ns3:TrackPointExtension>
            <ns3:atemp>23.0</ns3:atemp>
          </ns3:TrackPointExtension>
        </extensions>
      </trkpt>
      <trkpt lat="42.5147692300379276275634765625" lon="19.77288753725588321685791015625">
        <ele>1842</ele>
        <time>2026-06-18T10:15:54.000Z</time>
        <extensions>
          <ns3:TrackPointExtension>
            <ns3:atemp>23.0</ns3:atemp>
          </ns3:TrackPointExtension>
        </extensions>
      </trkpt>
      <trkpt lat="42.5147692300379276275634765625" lon="19.77288753725588321685791015625">
        <ele>1842</ele>
        <time>2026-06-18T10:15:55.000Z</time>
        <extensions>
          <ns3:TrackPointExtension>
            <ns3:atemp>23.0</ns3:atemp>
          </ns3:TrackPointExtension>
        </extensions>
      </trkpt>
      <trkpt lat="42.5147692300379276275634765625" lon="19.77288753725588321685791015625">
        <ele>1842</ele>
        <time>2026-06-18T10:15:56.000Z</time>
        <extensions>
          <ns3:TrackPointExtension>
            <ns3:atemp>23.0</ns3:atemp>
          </ns3:TrackPointExtension>
        </extensions>
      </trkpt>
      <trkpt lat="42.5147692300379276275634765625" lon="19.77288753725588321685791015625">
        <ele>1842</ele>
        <time>2026-06-18T10:15:57.000Z</time>
        <extensions>
          <ns3:TrackPointExtension>
            <ns3:atemp>23.0</ns3:atemp>
          </ns3:TrackPointExtension>
        </extensions>
      </trkpt>
      <trkpt lat="42.5147692300379276275634765625" lon="19.77288753725588321685791015625">
        <ele>1842</ele>
        <time>2026-06-18T10:15:58.000Z</time>
        <extensions>
          <ns3:TrackPointExtension>
            <ns3:atemp>23.0</ns3:atemp>
          </ns3:TrackPointExtension>
        </extensions>
      </trkpt>
      <trkpt lat="42.5147692300379276275634765625" lon="19.77288753725588321685791015625">
        <ele>1842</ele>
        <time>2026-06-18T10:15:59.000Z</time>
        <extensions>
          <ns3:TrackPointExtension>
            <ns3:atemp>23.0</ns3:atemp>
          </ns3:TrackPointExtension>
        </extensions>
      </trkpt>
      <trkpt lat="42.5147692300379276275634765625" lon="19.77288753725588321685791015625">
        <ele>1842</ele>
        <time>2026-06-18T10:16:00.000Z</time>
        <extensions>
          <ns3:TrackPointExtension>
            <ns3:atemp>23.0</ns3:atemp>
          </ns3:TrackPointExtension>
        </extensions>
      </trkpt>
      <trkpt lat="42.5147692300379276275634765625" lon="19.77288753725588321685791015625">
        <ele>1842</ele>
        <time>2026-06-18T10:16:01.000Z</time>
        <extensions>
          <ns3:TrackPointExtension>
            <ns3:atemp>23.0</ns3:atemp>
          </ns3:TrackPointExtension>
        </extensions>
      </trkpt>
      <trkpt lat="42.5147692300379276275634765625" lon="19.77288753725588321685791015625">
        <ele>1842</ele>
        <time>2026-06-18T10:16:02.000Z</time>
        <extensions>
          <ns3:TrackPointExtension>
            <ns3:atemp>23.0</ns3:atemp>
          </ns3:TrackPointExtension>
        </extensions>
      </trkpt>
      <trkpt lat="42.5147692300379276275634765625" lon="19.77288753725588321685791015625">
        <ele>1842</ele>
        <time>2026-06-18T10:16:03.000Z</time>
        <extensions>
          <ns3:TrackPointExtension>
            <ns3:atemp>23.0</ns3:atemp>
          </ns3:TrackPointExtension>
        </extensions>
      </trkpt>
      <trkpt lat="42.5147692300379276275634765625" lon="19.77288753725588321685791015625">
        <ele>1842</ele>
        <time>2026-06-18T10:16:04.000Z</time>
        <extensions>
          <ns3:TrackPointExtension>
            <ns3:atemp>23.0</ns3:atemp>
          </ns3:TrackPointExtension>
        </extensions>
      </trkpt>
      <trkpt lat="42.5147692300379276275634765625" lon="19.77288753725588321685791015625">
        <ele>1842</ele>
        <time>2026-06-18T10:16:05.000Z</time>
        <extensions>
          <ns3:TrackPointExtension>
            <ns3:atemp>23.0</ns3:atemp>
          </ns3:TrackPointExtension>
        </extensions>
      </trkpt>
      <trkpt lat="42.5147692300379276275634765625" lon="19.77288753725588321685791015625">
        <ele>1842</ele>
        <time>2026-06-18T10:16:06.000Z</time>
        <extensions>
          <ns3:TrackPointExtension>
            <ns3:atemp>23.0</ns3:atemp>
          </ns3:TrackPointExtension>
        </extensions>
      </trkpt>
      <trkpt lat="42.5147692300379276275634765625" lon="19.77288753725588321685791015625">
        <ele>1842</ele>
        <time>2026-06-18T10:16:07.000Z</time>
        <extensions>
          <ns3:TrackPointExtension>
            <ns3:atemp>23.0</ns3:atemp>
          </ns3:TrackPointExtension>
        </extensions>
      </trkpt>
      <trkpt lat="42.5147692300379276275634765625" lon="19.77288753725588321685791015625">
        <ele>1842</ele>
        <time>2026-06-18T10:16:08.000Z</time>
        <extensions>
          <ns3:TrackPointExtension>
            <ns3:atemp>23.0</ns3:atemp>
          </ns3:TrackPointExtension>
        </extensions>
      </trkpt>
      <trkpt lat="42.5147692300379276275634765625" lon="19.77288753725588321685791015625">
        <ele>1842</ele>
        <time>2026-06-18T10:16:09.000Z</time>
        <extensions>
          <ns3:TrackPointExtension>
            <ns3:atemp>23.0</ns3:atemp>
          </ns3:TrackPointExtension>
        </extensions>
      </trkpt>
      <trkpt lat="42.5147692300379276275634765625" lon="19.77288753725588321685791015625">
        <ele>1842</ele>
        <time>2026-06-18T10:16:10.000Z</time>
        <extensions>
          <ns3:TrackPointExtension>
            <ns3:atemp>23.0</ns3:atemp>
          </ns3:TrackPointExtension>
        </extensions>
      </trkpt>
      <trkpt lat="42.5147692300379276275634765625" lon="19.77288753725588321685791015625">
        <ele>1842</ele>
        <time>2026-06-18T10:16:11.000Z</time>
        <extensions>
          <ns3:TrackPointExtension>
            <ns3:atemp>23.0</ns3:atemp>
          </ns3:TrackPointExtension>
        </extensions>
      </trkpt>
      <trkpt lat="42.5147692300379276275634765625" lon="19.77288753725588321685791015625">
        <ele>1842</ele>
        <time>2026-06-18T10:16:12.000Z</time>
        <extensions>
          <ns3:TrackPointExtension>
            <ns3:atemp>23.0</ns3:atemp>
          </ns3:TrackPointExtension>
        </extensions>
      </trkpt>
      <trkpt lat="42.5147692300379276275634765625" lon="19.77288753725588321685791015625">
        <ele>1842</ele>
        <time>2026-06-18T10:16:13.000Z</time>
        <extensions>
          <ns3:TrackPointExtension>
            <ns3:atemp>23.0</ns3:atemp>
          </ns3:TrackPointExtension>
        </extensions>
      </trkpt>
      <trkpt lat="42.5147692300379276275634765625" lon="19.77288753725588321685791015625">
        <ele>1842</ele>
        <time>2026-06-18T10:16:14.000Z</time>
        <extensions>
          <ns3:TrackPointExtension>
            <ns3:atemp>23.0</ns3:atemp>
          </ns3:TrackPointExtension>
        </extensions>
      </trkpt>
      <trkpt lat="42.5147692300379276275634765625" lon="19.77288753725588321685791015625">
        <ele>1842</ele>
        <time>2026-06-18T10:16:15.000Z</time>
        <extensions>
          <ns3:TrackPointExtension>
            <ns3:atemp>23.0</ns3:atemp>
          </ns3:TrackPointExtension>
        </extensions>
      </trkpt>
      <trkpt lat="42.5147692300379276275634765625" lon="19.77288753725588321685791015625">
        <ele>1842</ele>
        <time>2026-06-18T10:16:16.000Z</time>
        <extensions>
          <ns3:TrackPointExtension>
            <ns3:atemp>23.0</ns3:atemp>
          </ns3:TrackPointExtension>
        </extensions>
      </trkpt>
      <trkpt lat="42.5147692300379276275634765625" lon="19.77288753725588321685791015625">
        <ele>1842</ele>
        <time>2026-06-18T10:16:17.000Z</time>
        <extensions>
          <ns3:TrackPointExtension>
            <ns3:atemp>23.0</ns3:atemp>
          </ns3:TrackPointExtension>
        </extensions>
      </trkpt>
      <trkpt lat="42.5147692300379276275634765625" lon="19.77288753725588321685791015625">
        <ele>1842</ele>
        <time>2026-06-18T10:16:18.000Z</time>
        <extensions>
          <ns3:TrackPointExtension>
            <ns3:atemp>23.0</ns3:atemp>
          </ns3:TrackPointExtension>
        </extensions>
      </trkpt>
      <trkpt lat="42.5147692300379276275634765625" lon="19.77288753725588321685791015625">
        <ele>1842</ele>
        <time>2026-06-18T10:16:19.000Z</time>
        <extensions>
          <ns3:TrackPointExtension>
            <ns3:atemp>23.0</ns3:atemp>
          </ns3:TrackPointExtension>
        </extensions>
      </trkpt>
      <trkpt lat="42.5147692300379276275634765625" lon="19.77288753725588321685791015625">
        <ele>1842</ele>
        <time>2026-06-18T10:16:20.000Z</time>
        <extensions>
          <ns3:TrackPointExtension>
            <ns3:atemp>23.0</ns3:atemp>
          </ns3:TrackPointExtension>
        </extensions>
      </trkpt>
      <trkpt lat="42.5147692300379276275634765625" lon="19.77288753725588321685791015625">
        <ele>1842</ele>
        <time>2026-06-18T10:16:21.000Z</time>
        <extensions>
          <ns3:TrackPointExtension>
            <ns3:atemp>23.0</ns3:atemp>
          </ns3:TrackPointExtension>
        </extensions>
      </trkpt>
      <trkpt lat="42.5147692300379276275634765625" lon="19.77288753725588321685791015625">
        <ele>1842</ele>
        <time>2026-06-18T10:16:22.000Z</time>
        <extensions>
          <ns3:TrackPointExtension>
            <ns3:atemp>23.0</ns3:atemp>
          </ns3:TrackPointExtension>
        </extensions>
      </trkpt>
      <trkpt lat="42.5147692300379276275634765625" lon="19.77288753725588321685791015625">
        <ele>1842</ele>
        <time>2026-06-18T10:16:23.000Z</time>
        <extensions>
          <ns3:TrackPointExtension>
            <ns3:atemp>23.0</ns3:atemp>
          </ns3:TrackPointExtension>
        </extensions>
      </trkpt>
      <trkpt lat="42.5147692300379276275634765625" lon="19.77288753725588321685791015625">
        <ele>1842</ele>
        <time>2026-06-18T10:16:24.000Z</time>
        <extensions>
          <ns3:TrackPointExtension>
            <ns3:atemp>23.0</ns3:atemp>
          </ns3:TrackPointExtension>
        </extensions>
      </trkpt>
      <trkpt lat="42.5147692300379276275634765625" lon="19.77288753725588321685791015625">
        <ele>1842</ele>
        <time>2026-06-18T10:16:25.000Z</time>
        <extensions>
          <ns3:TrackPointExtension>
            <ns3:atemp>23.0</ns3:atemp>
          </ns3:TrackPointExtension>
        </extensions>
      </trkpt>
      <trkpt lat="42.5147692300379276275634765625" lon="19.77288753725588321685791015625">
        <ele>1842</ele>
        <time>2026-06-18T10:16:26.000Z</time>
        <extensions>
          <ns3:TrackPointExtension>
            <ns3:atemp>23.0</ns3:atemp>
          </ns3:TrackPointExtension>
        </extensions>
      </trkpt>
      <trkpt lat="42.5147692300379276275634765625" lon="19.77288753725588321685791015625">
        <ele>1842</ele>
        <time>2026-06-18T10:16:27.000Z</time>
        <extensions>
          <ns3:TrackPointExtension>
            <ns3:atemp>23.0</ns3:atemp>
          </ns3:TrackPointExtension>
        </extensions>
      </trkpt>
      <trkpt lat="42.5147692300379276275634765625" lon="19.77288753725588321685791015625">
        <ele>1842</ele>
        <time>2026-06-18T10:16:28.000Z</time>
        <extensions>
          <ns3:TrackPointExtension>
            <ns3:atemp>23.0</ns3:atemp>
          </ns3:TrackPointExtension>
        </extensions>
      </trkpt>
      <trkpt lat="42.5147692300379276275634765625" lon="19.77288753725588321685791015625">
        <ele>1842</ele>
        <time>2026-06-18T10:16:29.000Z</time>
        <extensions>
          <ns3:TrackPointExtension>
            <ns3:atemp>23.0</ns3:atemp>
          </ns3:TrackPointExtension>
        </extensions>
      </trkpt>
      <trkpt lat="42.5147692300379276275634765625" lon="19.77288753725588321685791015625">
        <ele>1842</ele>
        <time>2026-06-18T10:16:30.000Z</time>
        <extensions>
          <ns3:TrackPointExtension>
            <ns3:atemp>23.0</ns3:atemp>
          </ns3:TrackPointExtension>
        </extensions>
      </trkpt>
      <trkpt lat="42.5147692300379276275634765625" lon="19.77288753725588321685791015625">
        <ele>1842</ele>
        <time>2026-06-18T10:16:31.000Z</time>
        <extensions>
          <ns3:TrackPointExtension>
            <ns3:atemp>23.0</ns3:atemp>
          </ns3:TrackPointExtension>
        </extensions>
      </trkpt>
      <trkpt lat="42.5147692300379276275634765625" lon="19.77288753725588321685791015625">
        <ele>1842</ele>
        <time>2026-06-18T10:16:32.000Z</time>
        <extensions>
          <ns3:TrackPointExtension>
            <ns3:atemp>23.0</ns3:atemp>
          </ns3:TrackPointExtension>
        </extensions>
      </trkpt>
      <trkpt lat="42.5147692300379276275634765625" lon="19.77288753725588321685791015625">
        <ele>1842</ele>
        <time>2026-06-18T10:16:33.000Z</time>
        <extensions>
          <ns3:TrackPointExtension>
            <ns3:atemp>23.0</ns3:atemp>
          </ns3:TrackPointExtension>
        </extensions>
      </trkpt>
      <trkpt lat="42.5147692300379276275634765625" lon="19.77288753725588321685791015625">
        <ele>1842</ele>
        <time>2026-06-18T10:16:34.000Z</time>
        <extensions>
          <ns3:TrackPointExtension>
            <ns3:atemp>23.0</ns3:atemp>
          </ns3:TrackPointExtension>
        </extensions>
      </trkpt>
      <trkpt lat="42.5147692300379276275634765625" lon="19.77288753725588321685791015625">
        <ele>1842</ele>
        <time>2026-06-18T10:16:35.000Z</time>
        <extensions>
          <ns3:TrackPointExtension>
            <ns3:atemp>23.0</ns3:atemp>
          </ns3:TrackPointExtension>
        </extensions>
      </trkpt>
      <trkpt lat="42.5147692300379276275634765625" lon="19.77288753725588321685791015625">
        <ele>1842</ele>
        <time>2026-06-18T10:16:36.000Z</time>
        <extensions>
          <ns3:TrackPointExtension>
            <ns3:atemp>23.0</ns3:atemp>
          </ns3:TrackPointExtension>
        </extensions>
      </trkpt>
      <trkpt lat="42.5147692300379276275634765625" lon="19.77288753725588321685791015625">
        <ele>1842</ele>
        <time>2026-06-18T10:16:37.000Z</time>
        <extensions>
          <ns3:TrackPointExtension>
            <ns3:atemp>23.0</ns3:atemp>
          </ns3:TrackPointExtension>
        </extensions>
      </trkpt>
      <trkpt lat="42.5147692300379276275634765625" lon="19.77288753725588321685791015625">
        <ele>1842</ele>
        <time>2026-06-18T10:16:38.000Z</time>
        <extensions>
          <ns3:TrackPointExtension>
            <ns3:atemp>23.0</ns3:atemp>
          </ns3:TrackPointExtension>
        </extensions>
      </trkpt>
      <trkpt lat="42.5147692300379276275634765625" lon="19.77288753725588321685791015625">
        <ele>1842</ele>
        <time>2026-06-18T10:16:39.000Z</time>
        <extensions>
          <ns3:TrackPointExtension>
            <ns3:atemp>23.0</ns3:atemp>
          </ns3:TrackPointExtension>
        </extensions>
      </trkpt>
      <trkpt lat="42.5147692300379276275634765625" lon="19.77288753725588321685791015625">
        <ele>1842</ele>
        <time>2026-06-18T10:16:40.000Z</time>
        <extensions>
          <ns3:TrackPointExtension>
            <ns3:atemp>23.0</ns3:atemp>
          </ns3:TrackPointExtension>
        </extensions>
      </trkpt>
      <trkpt lat="42.5147692300379276275634765625" lon="19.77288753725588321685791015625">
        <ele>1842</ele>
        <time>2026-06-18T10:16:41.000Z</time>
        <extensions>
          <ns3:TrackPointExtension>
            <ns3:atemp>23.0</ns3:atemp>
          </ns3:TrackPointExtension>
        </extensions>
      </trkpt>
      <trkpt lat="42.5147692300379276275634765625" lon="19.77288753725588321685791015625">
        <ele>1842</ele>
        <time>2026-06-18T10:16:42.000Z</time>
        <extensions>
          <ns3:TrackPointExtension>
            <ns3:atemp>23.0</ns3:atemp>
          </ns3:TrackPointExtension>
        </extensions>
      </trkpt>
      <trkpt lat="42.5147692300379276275634765625" lon="19.77288753725588321685791015625">
        <ele>1842</ele>
        <time>2026-06-18T10:16:43.000Z</time>
        <extensions>
          <ns3:TrackPointExtension>
            <ns3:atemp>23.0</ns3:atemp>
          </ns3:TrackPointExtension>
        </extensions>
      </trkpt>
      <trkpt lat="42.5147692300379276275634765625" lon="19.77288753725588321685791015625">
        <ele>1842</ele>
        <time>2026-06-18T10:16:44.000Z</time>
        <extensions>
          <ns3:TrackPointExtension>
            <ns3:atemp>23.0</ns3:atemp>
          </ns3:TrackPointExtension>
        </extensions>
      </trkpt>
      <trkpt lat="42.5147692300379276275634765625" lon="19.77288753725588321685791015625">
        <ele>1842</ele>
        <time>2026-06-18T10:16:45.000Z</time>
        <extensions>
          <ns3:TrackPointExtension>
            <ns3:atemp>23.0</ns3:atemp>
          </ns3:TrackPointExtension>
        </extensions>
      </trkpt>
      <trkpt lat="42.5147692300379276275634765625" lon="19.77288753725588321685791015625">
        <ele>1842</ele>
        <time>2026-06-18T10:16:46.000Z</time>
        <extensions>
          <ns3:TrackPointExtension>
            <ns3:atemp>23.0</ns3:atemp>
          </ns3:TrackPointExtension>
        </extensions>
      </trkpt>
      <trkpt lat="42.5147692300379276275634765625" lon="19.77288753725588321685791015625">
        <ele>1842</ele>
        <time>2026-06-18T10:16:47.000Z</time>
        <extensions>
          <ns3:TrackPointExtension>
            <ns3:atemp>23.0</ns3:atemp>
          </ns3:TrackPointExtension>
        </extensions>
      </trkpt>
      <trkpt lat="42.5147692300379276275634765625" lon="19.77288753725588321685791015625">
        <ele>1842</ele>
        <time>2026-06-18T10:16:48.000Z</time>
        <extensions>
          <ns3:TrackPointExtension>
            <ns3:atemp>23.0</ns3:atemp>
          </ns3:TrackPointExtension>
        </extensions>
      </trkpt>
      <trkpt lat="42.5147692300379276275634765625" lon="19.77288753725588321685791015625">
        <ele>1842</ele>
        <time>2026-06-18T10:16:49.000Z</time>
        <extensions>
          <ns3:TrackPointExtension>
            <ns3:atemp>23.0</ns3:atemp>
          </ns3:TrackPointExtension>
        </extensions>
      </trkpt>
      <trkpt lat="42.5147692300379276275634765625" lon="19.77288753725588321685791015625">
        <ele>1842</ele>
        <time>2026-06-18T10:16:50.000Z</time>
        <extensions>
          <ns3:TrackPointExtension>
            <ns3:atemp>23.0</ns3:atemp>
          </ns3:TrackPointExtension>
        </extensions>
      </trkpt>
      <trkpt lat="42.5147692300379276275634765625" lon="19.77288753725588321685791015625">
        <ele>1842</ele>
        <time>2026-06-18T10:16:51.000Z</time>
        <extensions>
          <ns3:TrackPointExtension>
            <ns3:atemp>23.0</ns3:atemp>
          </ns3:TrackPointExtension>
        </extensions>
      </trkpt>
      <trkpt lat="42.5147692300379276275634765625" lon="19.77288753725588321685791015625">
        <ele>1842</ele>
        <time>2026-06-18T10:16:52.000Z</time>
        <extensions>
          <ns3:TrackPointExtension>
            <ns3:atemp>23.0</ns3:atemp>
          </ns3:TrackPointExtension>
        </extensions>
      </trkpt>
      <trkpt lat="42.5147692300379276275634765625" lon="19.77288753725588321685791015625">
        <ele>1842</ele>
        <time>2026-06-18T10:16:53.000Z</time>
        <extensions>
          <ns3:TrackPointExtension>
            <ns3:atemp>23.0</ns3:atemp>
          </ns3:TrackPointExtension>
        </extensions>
      </trkpt>
      <trkpt lat="42.5147692300379276275634765625" lon="19.77288753725588321685791015625">
        <ele>1842</ele>
        <time>2026-06-18T10:16:54.000Z</time>
        <extensions>
          <ns3:TrackPointExtension>
            <ns3:atemp>23.0</ns3:atemp>
          </ns3:TrackPointExtension>
        </extensions>
      </trkpt>
      <trkpt lat="42.5147692300379276275634765625" lon="19.77288753725588321685791015625">
        <ele>1842</ele>
        <time>2026-06-18T10:16:55.000Z</time>
        <extensions>
          <ns3:TrackPointExtension>
            <ns3:atemp>23.0</ns3:atemp>
          </ns3:TrackPointExtension>
        </extensions>
      </trkpt>
      <trkpt lat="42.5147692300379276275634765625" lon="19.77288753725588321685791015625">
        <ele>1842</ele>
        <time>2026-06-18T10:16:56.000Z</time>
        <extensions>
          <ns3:TrackPointExtension>
            <ns3:atemp>23.0</ns3:atemp>
          </ns3:TrackPointExtension>
        </extensions>
      </trkpt>
      <trkpt lat="42.5147692300379276275634765625" lon="19.77288753725588321685791015625">
        <ele>1842</ele>
        <time>2026-06-18T10:16:57.000Z</time>
        <extensions>
          <ns3:TrackPointExtension>
            <ns3:atemp>23.0</ns3:atemp>
          </ns3:TrackPointExtension>
        </extensions>
      </trkpt>
      <trkpt lat="42.5147692300379276275634765625" lon="19.77288753725588321685791015625">
        <ele>1842</ele>
        <time>2026-06-18T10:16:58.000Z</time>
        <extensions>
          <ns3:TrackPointExtension>
            <ns3:atemp>23.0</ns3:atemp>
          </ns3:TrackPointExtension>
        </extensions>
      </trkpt>
      <trkpt lat="42.5147692300379276275634765625" lon="19.77288753725588321685791015625">
        <ele>1842</ele>
        <time>2026-06-18T10:16:59.000Z</time>
        <extensions>
          <ns3:TrackPointExtension>
            <ns3:atemp>23.0</ns3:atemp>
          </ns3:TrackPointExtension>
        </extensions>
      </trkpt>
      <trkpt lat="42.5147692300379276275634765625" lon="19.77288753725588321685791015625">
        <ele>1842</ele>
        <time>2026-06-18T10:17:00.000Z</time>
        <extensions>
          <ns3:TrackPointExtension>
            <ns3:atemp>23.0</ns3:atemp>
          </ns3:TrackPointExtension>
        </extensions>
      </trkpt>
      <trkpt lat="42.5147692300379276275634765625" lon="19.77288753725588321685791015625">
        <ele>1842</ele>
        <time>2026-06-18T10:17:01.000Z</time>
        <extensions>
          <ns3:TrackPointExtension>
            <ns3:atemp>23.0</ns3:atemp>
          </ns3:TrackPointExtension>
        </extensions>
      </trkpt>
      <trkpt lat="42.5147692300379276275634765625" lon="19.77288753725588321685791015625">
        <ele>1842</ele>
        <time>2026-06-18T10:17:02.000Z</time>
        <extensions>
          <ns3:TrackPointExtension>
            <ns3:atemp>23.0</ns3:atemp>
          </ns3:TrackPointExtension>
        </extensions>
      </trkpt>
      <trkpt lat="42.5147692300379276275634765625" lon="19.77288753725588321685791015625">
        <ele>1842</ele>
        <time>2026-06-18T10:17:03.000Z</time>
        <extensions>
          <ns3:TrackPointExtension>
            <ns3:atemp>23.0</ns3:atemp>
          </ns3:TrackPointExtension>
        </extensions>
      </trkpt>
      <trkpt lat="42.5147692300379276275634765625" lon="19.77288753725588321685791015625">
        <ele>1842</ele>
        <time>2026-06-18T10:17:04.000Z</time>
        <extensions>
          <ns3:TrackPointExtension>
            <ns3:atemp>23.0</ns3:atemp>
          </ns3:TrackPointExtension>
        </extensions>
      </trkpt>
      <trkpt lat="42.5147692300379276275634765625" lon="19.77288753725588321685791015625">
        <ele>1842</ele>
        <time>2026-06-18T10:17:05.000Z</time>
        <extensions>
          <ns3:TrackPointExtension>
            <ns3:atemp>23.0</ns3:atemp>
          </ns3:TrackPointExtension>
        </extensions>
      </trkpt>
      <trkpt lat="42.5147692300379276275634765625" lon="19.77288753725588321685791015625">
        <ele>1842</ele>
        <time>2026-06-18T10:17:06.000Z</time>
        <extensions>
          <ns3:TrackPointExtension>
            <ns3:atemp>23.0</ns3:atemp>
          </ns3:TrackPointExtension>
        </extensions>
      </trkpt>
      <trkpt lat="42.5147692300379276275634765625" lon="19.77288753725588321685791015625">
        <ele>1842</ele>
        <time>2026-06-18T10:17:07.000Z</time>
        <extensions>
          <ns3:TrackPointExtension>
            <ns3:atemp>23.0</ns3:atemp>
          </ns3:TrackPointExtension>
        </extensions>
      </trkpt>
      <trkpt lat="42.5147692300379276275634765625" lon="19.77288753725588321685791015625">
        <ele>1842</ele>
        <time>2026-06-18T10:17:08.000Z</time>
        <extensions>
          <ns3:TrackPointExtension>
            <ns3:atemp>23.0</ns3:atemp>
          </ns3:TrackPointExtension>
        </extensions>
      </trkpt>
      <trkpt lat="42.5147692300379276275634765625" lon="19.77288753725588321685791015625">
        <ele>1842</ele>
        <time>2026-06-18T10:17:09.000Z</time>
        <extensions>
          <ns3:TrackPointExtension>
            <ns3:atemp>23.0</ns3:atemp>
          </ns3:TrackPointExtension>
        </extensions>
      </trkpt>
      <trkpt lat="42.5147692300379276275634765625" lon="19.77288753725588321685791015625">
        <ele>1842</ele>
        <time>2026-06-18T10:17:10.000Z</time>
        <extensions>
          <ns3:TrackPointExtension>
            <ns3:atemp>23.0</ns3:atemp>
          </ns3:TrackPointExtension>
        </extensions>
      </trkpt>
      <trkpt lat="42.5147692300379276275634765625" lon="19.77288753725588321685791015625">
        <ele>1842</ele>
        <time>2026-06-18T10:17:11.000Z</time>
        <extensions>
          <ns3:TrackPointExtension>
            <ns3:atemp>23.0</ns3:atemp>
          </ns3:TrackPointExtension>
        </extensions>
      </trkpt>
      <trkpt lat="42.5147692300379276275634765625" lon="19.77288753725588321685791015625">
        <ele>1842</ele>
        <time>2026-06-18T10:17:12.000Z</time>
        <extensions>
          <ns3:TrackPointExtension>
            <ns3:atemp>23.0</ns3:atemp>
          </ns3:TrackPointExtension>
        </extensions>
      </trkpt>
      <trkpt lat="42.5147692300379276275634765625" lon="19.77288753725588321685791015625">
        <ele>1842</ele>
        <time>2026-06-18T10:17:13.000Z</time>
        <extensions>
          <ns3:TrackPointExtension>
            <ns3:atemp>23.0</ns3:atemp>
          </ns3:TrackPointExtension>
        </extensions>
      </trkpt>
      <trkpt lat="42.5147692300379276275634765625" lon="19.77288753725588321685791015625">
        <ele>1842</ele>
        <time>2026-06-18T10:17:14.000Z</time>
        <extensions>
          <ns3:TrackPointExtension>
            <ns3:atemp>23.0</ns3:atemp>
          </ns3:TrackPointExtension>
        </extensions>
      </trkpt>
      <trkpt lat="42.5147692300379276275634765625" lon="19.77288753725588321685791015625">
        <ele>1842</ele>
        <time>2026-06-18T10:17:15.000Z</time>
        <extensions>
          <ns3:TrackPointExtension>
            <ns3:atemp>23.0</ns3:atemp>
          </ns3:TrackPointExtension>
        </extensions>
      </trkpt>
      <trkpt lat="42.5147692300379276275634765625" lon="19.77288753725588321685791015625">
        <ele>1842</ele>
        <time>2026-06-18T10:17:16.000Z</time>
        <extensions>
          <ns3:TrackPointExtension>
            <ns3:atemp>23.0</ns3:atemp>
          </ns3:TrackPointExtension>
        </extensions>
      </trkpt>
      <trkpt lat="42.5147692300379276275634765625" lon="19.77288753725588321685791015625">
        <ele>1842</ele>
        <time>2026-06-18T10:17:17.000Z</time>
        <extensions>
          <ns3:TrackPointExtension>
            <ns3:atemp>23.0</ns3:atemp>
          </ns3:TrackPointExtension>
        </extensions>
      </trkpt>
      <trkpt lat="42.5147692300379276275634765625" lon="19.77288753725588321685791015625">
        <ele>1842</ele>
        <time>2026-06-18T10:17:18.000Z</time>
        <extensions>
          <ns3:TrackPointExtension>
            <ns3:atemp>23.0</ns3:atemp>
          </ns3:TrackPointExtension>
        </extensions>
      </trkpt>
      <trkpt lat="42.5147692300379276275634765625" lon="19.77288753725588321685791015625">
        <ele>1842</ele>
        <time>2026-06-18T10:17:19.000Z</time>
        <extensions>
          <ns3:TrackPointExtension>
            <ns3:atemp>23.0</ns3:atemp>
          </ns3:TrackPointExtension>
        </extensions>
      </trkpt>
      <trkpt lat="42.5147692300379276275634765625" lon="19.77288753725588321685791015625">
        <ele>1842</ele>
        <time>2026-06-18T10:17:20.000Z</time>
        <extensions>
          <ns3:TrackPointExtension>
            <ns3:atemp>23.0</ns3:atemp>
          </ns3:TrackPointExtension>
        </extensions>
      </trkpt>
      <trkpt lat="42.5147692300379276275634765625" lon="19.77288753725588321685791015625">
        <ele>1842</ele>
        <time>2026-06-18T10:17:21.000Z</time>
        <extensions>
          <ns3:TrackPointExtension>
            <ns3:atemp>23.0</ns3:atemp>
          </ns3:TrackPointExtension>
        </extensions>
      </trkpt>
      <trkpt lat="42.5147692300379276275634765625" lon="19.77288753725588321685791015625">
        <ele>1842</ele>
        <time>2026-06-18T10:17:22.000Z</time>
        <extensions>
          <ns3:TrackPointExtension>
            <ns3:atemp>23.0</ns3:atemp>
          </ns3:TrackPointExtension>
        </extensions>
      </trkpt>
      <trkpt lat="42.5147692300379276275634765625" lon="19.77288753725588321685791015625">
        <ele>1842</ele>
        <time>2026-06-18T10:17:23.000Z</time>
        <extensions>
          <ns3:TrackPointExtension>
            <ns3:atemp>23.0</ns3:atemp>
          </ns3:TrackPointExtension>
        </extensions>
      </trkpt>
      <trkpt lat="42.5147692300379276275634765625" lon="19.77288753725588321685791015625">
        <ele>1842</ele>
        <time>2026-06-18T10:17:24.000Z</time>
        <extensions>
          <ns3:TrackPointExtension>
            <ns3:atemp>23.0</ns3:atemp>
          </ns3:TrackPointExtension>
        </extensions>
      </trkpt>
      <trkpt lat="42.5147692300379276275634765625" lon="19.77288753725588321685791015625">
        <ele>1842</ele>
        <time>2026-06-18T10:17:25.000Z</time>
        <extensions>
          <ns3:TrackPointExtension>
            <ns3:atemp>23.0</ns3:atemp>
          </ns3:TrackPointExtension>
        </extensions>
      </trkpt>
      <trkpt lat="42.5147692300379276275634765625" lon="19.77288753725588321685791015625">
        <ele>1842</ele>
        <time>2026-06-18T10:17:26.000Z</time>
        <extensions>
          <ns3:TrackPointExtension>
            <ns3:atemp>23.0</ns3:atemp>
          </ns3:TrackPointExtension>
        </extensions>
      </trkpt>
      <trkpt lat="42.5147692300379276275634765625" lon="19.77288753725588321685791015625">
        <ele>1842</ele>
        <time>2026-06-18T10:17:27.000Z</time>
        <extensions>
          <ns3:TrackPointExtension>
            <ns3:atemp>23.0</ns3:atemp>
          </ns3:TrackPointExtension>
        </extensions>
      </trkpt>
      <trkpt lat="42.5147692300379276275634765625" lon="19.77288753725588321685791015625">
        <ele>1842</ele>
        <time>2026-06-18T10:17:28.000Z</time>
        <extensions>
          <ns3:TrackPointExtension>
            <ns3:atemp>23.0</ns3:atemp>
          </ns3:TrackPointExtension>
        </extensions>
      </trkpt>
      <trkpt lat="42.5147692300379276275634765625" lon="19.77288753725588321685791015625">
        <ele>1842</ele>
        <time>2026-06-18T10:17:29.000Z</time>
        <extensions>
          <ns3:TrackPointExtension>
            <ns3:atemp>23.0</ns3:atemp>
          </ns3:TrackPointExtension>
        </extensions>
      </trkpt>
      <trkpt lat="42.5147692300379276275634765625" lon="19.77288753725588321685791015625">
        <ele>1842</ele>
        <time>2026-06-18T10:17:30.000Z</time>
        <extensions>
          <ns3:TrackPointExtension>
            <ns3:atemp>23.0</ns3:atemp>
          </ns3:TrackPointExtension>
        </extensions>
      </trkpt>
      <trkpt lat="42.5147692300379276275634765625" lon="19.77288753725588321685791015625">
        <ele>1842</ele>
        <time>2026-06-18T10:17:31.000Z</time>
        <extensions>
          <ns3:TrackPointExtension>
            <ns3:atemp>23.0</ns3:atemp>
          </ns3:TrackPointExtension>
        </extensions>
      </trkpt>
      <trkpt lat="42.5147692300379276275634765625" lon="19.77288753725588321685791015625">
        <ele>1842</ele>
        <time>2026-06-18T10:17:32.000Z</time>
        <extensions>
          <ns3:TrackPointExtension>
            <ns3:atemp>23.0</ns3:atemp>
          </ns3:TrackPointExtension>
        </extensions>
      </trkpt>
      <trkpt lat="42.5147692300379276275634765625" lon="19.77288753725588321685791015625">
        <ele>1842</ele>
        <time>2026-06-18T10:17:33.000Z</time>
        <extensions>
          <ns3:TrackPointExtension>
            <ns3:atemp>23.0</ns3:atemp>
          </ns3:TrackPointExtension>
        </extensions>
      </trkpt>
      <trkpt lat="42.5147692300379276275634765625" lon="19.77288753725588321685791015625">
        <ele>1842</ele>
        <time>2026-06-18T10:17:34.000Z</time>
        <extensions>
          <ns3:TrackPointExtension>
            <ns3:atemp>23.0</ns3:atemp>
          </ns3:TrackPointExtension>
        </extensions>
      </trkpt>
      <trkpt lat="42.5147692300379276275634765625" lon="19.77288753725588321685791015625">
        <ele>1842</ele>
        <time>2026-06-18T10:17:35.000Z</time>
        <extensions>
          <ns3:TrackPointExtension>
            <ns3:atemp>23.0</ns3:atemp>
          </ns3:TrackPointExtension>
        </extensions>
      </trkpt>
      <trkpt lat="42.5147692300379276275634765625" lon="19.77288753725588321685791015625">
        <ele>1842</ele>
        <time>2026-06-18T10:17:36.000Z</time>
        <extensions>
          <ns3:TrackPointExtension>
            <ns3:atemp>23.0</ns3:atemp>
          </ns3:TrackPointExtension>
        </extensions>
      </trkpt>
      <trkpt lat="42.5147692300379276275634765625" lon="19.77288753725588321685791015625">
        <ele>1842</ele>
        <time>2026-06-18T10:17:37.000Z</time>
        <extensions>
          <ns3:TrackPointExtension>
            <ns3:atemp>23.0</ns3:atemp>
          </ns3:TrackPointExtension>
        </extensions>
      </trkpt>
      <trkpt lat="42.5147692300379276275634765625" lon="19.77288753725588321685791015625">
        <ele>1842</ele>
        <time>2026-06-18T10:17:38.000Z</time>
        <extensions>
          <ns3:TrackPointExtension>
            <ns3:atemp>23.0</ns3:atemp>
          </ns3:TrackPointExtension>
        </extensions>
      </trkpt>
      <trkpt lat="42.5147692300379276275634765625" lon="19.77288753725588321685791015625">
        <ele>1842</ele>
        <time>2026-06-18T10:17:39.000Z</time>
        <extensions>
          <ns3:TrackPointExtension>
            <ns3:atemp>23.0</ns3:atemp>
          </ns3:TrackPointExtension>
        </extensions>
      </trkpt>
      <trkpt lat="42.5147692300379276275634765625" lon="19.77288753725588321685791015625">
        <ele>1842</ele>
        <time>2026-06-18T10:17:40.000Z</time>
        <extensions>
          <ns3:TrackPointExtension>
            <ns3:atemp>23.0</ns3:atemp>
          </ns3:TrackPointExtension>
        </extensions>
      </trkpt>
      <trkpt lat="42.5147692300379276275634765625" lon="19.77288753725588321685791015625">
        <ele>1842</ele>
        <time>2026-06-18T10:17:41.000Z</time>
        <extensions>
          <ns3:TrackPointExtension>
            <ns3:atemp>23.0</ns3:atemp>
          </ns3:TrackPointExtension>
        </extensions>
      </trkpt>
      <trkpt lat="42.5147692300379276275634765625" lon="19.77288753725588321685791015625">
        <ele>1842</ele>
        <time>2026-06-18T10:17:42.000Z</time>
        <extensions>
          <ns3:TrackPointExtension>
            <ns3:atemp>23.0</ns3:atemp>
          </ns3:TrackPointExtension>
        </extensions>
      </trkpt>
      <trkpt lat="42.5147692300379276275634765625" lon="19.77288753725588321685791015625">
        <ele>1842</ele>
        <time>2026-06-18T10:17:43.000Z</time>
        <extensions>
          <ns3:TrackPointExtension>
            <ns3:atemp>23.0</ns3:atemp>
          </ns3:TrackPointExtension>
        </extensions>
      </trkpt>
      <trkpt lat="42.5147692300379276275634765625" lon="19.77288753725588321685791015625">
        <ele>1842</ele>
        <time>2026-06-18T10:17:44.000Z</time>
        <extensions>
          <ns3:TrackPointExtension>
            <ns3:atemp>23.0</ns3:atemp>
          </ns3:TrackPointExtension>
        </extensions>
      </trkpt>
      <trkpt lat="42.5147692300379276275634765625" lon="19.77288753725588321685791015625">
        <ele>1842</ele>
        <time>2026-06-18T10:17:45.000Z</time>
        <extensions>
          <ns3:TrackPointExtension>
            <ns3:atemp>23.0</ns3:atemp>
          </ns3:TrackPointExtension>
        </extensions>
      </trkpt>
      <trkpt lat="42.5147692300379276275634765625" lon="19.77288753725588321685791015625">
        <ele>1842</ele>
        <time>2026-06-18T10:17:46.000Z</time>
        <extensions>
          <ns3:TrackPointExtension>
            <ns3:atemp>23.0</ns3:atemp>
          </ns3:TrackPointExtension>
        </extensions>
      </trkpt>
      <trkpt lat="42.5147692300379276275634765625" lon="19.77288753725588321685791015625">
        <ele>1842</ele>
        <time>2026-06-18T10:17:47.000Z</time>
        <extensions>
          <ns3:TrackPointExtension>
            <ns3:atemp>23.0</ns3:atemp>
          </ns3:TrackPointExtension>
        </extensions>
      </trkpt>
      <trkpt lat="42.5147692300379276275634765625" lon="19.77288753725588321685791015625">
        <ele>1842</ele>
        <time>2026-06-18T10:17:48.000Z</time>
        <extensions>
          <ns3:TrackPointExtension>
            <ns3:atemp>23.0</ns3:atemp>
          </ns3:TrackPointExtension>
        </extensions>
      </trkpt>
      <trkpt lat="42.5147692300379276275634765625" lon="19.77288753725588321685791015625">
        <ele>1842</ele>
        <time>2026-06-18T10:17:49.000Z</time>
        <extensions>
          <ns3:TrackPointExtension>
            <ns3:atemp>23.0</ns3:atemp>
          </ns3:TrackPointExtension>
        </extensions>
      </trkpt>
      <trkpt lat="42.5147692300379276275634765625" lon="19.77288753725588321685791015625">
        <ele>1842</ele>
        <time>2026-06-18T10:17:50.000Z</time>
        <extensions>
          <ns3:TrackPointExtension>
            <ns3:atemp>23.0</ns3:atemp>
          </ns3:TrackPointExtension>
        </extensions>
      </trkpt>
      <trkpt lat="42.5147692300379276275634765625" lon="19.77288753725588321685791015625">
        <ele>1842</ele>
        <time>2026-06-18T10:17:51.000Z</time>
        <extensions>
          <ns3:TrackPointExtension>
            <ns3:atemp>23.0</ns3:atemp>
          </ns3:TrackPointExtension>
        </extensions>
      </trkpt>
      <trkpt lat="42.5147692300379276275634765625" lon="19.77288753725588321685791015625">
        <ele>1842</ele>
        <time>2026-06-18T10:17:52.000Z</time>
        <extensions>
          <ns3:TrackPointExtension>
            <ns3:atemp>23.0</ns3:atemp>
          </ns3:TrackPointExtension>
        </extensions>
      </trkpt>
      <trkpt lat="42.5147692300379276275634765625" lon="19.77288753725588321685791015625">
        <ele>1842</ele>
        <time>2026-06-18T10:17:53.000Z</time>
        <extensions>
          <ns3:TrackPointExtension>
            <ns3:atemp>23.0</ns3:atemp>
          </ns3:TrackPointExtension>
        </extensions>
      </trkpt>
      <trkpt lat="42.5147692300379276275634765625" lon="19.77288753725588321685791015625">
        <ele>1842</ele>
        <time>2026-06-18T10:17:54.000Z</time>
        <extensions>
          <ns3:TrackPointExtension>
            <ns3:atemp>23.0</ns3:atemp>
          </ns3:TrackPointExtension>
        </extensions>
      </trkpt>
      <trkpt lat="42.5147692300379276275634765625" lon="19.77288753725588321685791015625">
        <ele>1842</ele>
        <time>2026-06-18T10:17:55.000Z</time>
        <extensions>
          <ns3:TrackPointExtension>
            <ns3:atemp>23.0</ns3:atemp>
          </ns3:TrackPointExtension>
        </extensions>
      </trkpt>
      <trkpt lat="42.5147692300379276275634765625" lon="19.77288753725588321685791015625">
        <ele>1842</ele>
        <time>2026-06-18T10:17:56.000Z</time>
        <extensions>
          <ns3:TrackPointExtension>
            <ns3:atemp>23.0</ns3:atemp>
          </ns3:TrackPointExtension>
        </extensions>
      </trkpt>
      <trkpt lat="42.5147692300379276275634765625" lon="19.77288753725588321685791015625">
        <ele>1842</ele>
        <time>2026-06-18T10:17:57.000Z</time>
        <extensions>
          <ns3:TrackPointExtension>
            <ns3:atemp>23.0</ns3:atemp>
          </ns3:TrackPointExtension>
        </extensions>
      </trkpt>
      <trkpt lat="42.5147692300379276275634765625" lon="19.77288753725588321685791015625">
        <ele>1842</ele>
        <time>2026-06-18T10:17:58.000Z</time>
        <extensions>
          <ns3:TrackPointExtension>
            <ns3:atemp>23.0</ns3:atemp>
          </ns3:TrackPointExtension>
        </extensions>
      </trkpt>
      <trkpt lat="42.5147692300379276275634765625" lon="19.77288753725588321685791015625">
        <ele>1842</ele>
        <time>2026-06-18T10:17:59.000Z</time>
        <extensions>
          <ns3:TrackPointExtension>
            <ns3:atemp>23.0</ns3:atemp>
          </ns3:TrackPointExtension>
        </extensions>
      </trkpt>
      <trkpt lat="42.5147692300379276275634765625" lon="19.77288753725588321685791015625">
        <ele>1842</ele>
        <time>2026-06-18T10:18:00.000Z</time>
        <extensions>
          <ns3:TrackPointExtension>
            <ns3:atemp>23.0</ns3:atemp>
          </ns3:TrackPointExtension>
        </extensions>
      </trkpt>
      <trkpt lat="42.5147692300379276275634765625" lon="19.77288753725588321685791015625">
        <ele>1842</ele>
        <time>2026-06-18T10:18:01.000Z</time>
        <extensions>
          <ns3:TrackPointExtension>
            <ns3:atemp>23.0</ns3:atemp>
          </ns3:TrackPointExtension>
        </extensions>
      </trkpt>
      <trkpt lat="42.5147692300379276275634765625" lon="19.77288753725588321685791015625">
        <ele>1842</ele>
        <time>2026-06-18T10:18:02.000Z</time>
        <extensions>
          <ns3:TrackPointExtension>
            <ns3:atemp>23.0</ns3:atemp>
          </ns3:TrackPointExtension>
        </extensions>
      </trkpt>
      <trkpt lat="42.5147692300379276275634765625" lon="19.77288753725588321685791015625">
        <ele>1842</ele>
        <time>2026-06-18T10:18:03.000Z</time>
        <extensions>
          <ns3:TrackPointExtension>
            <ns3:atemp>23.0</ns3:atemp>
          </ns3:TrackPointExtension>
        </extensions>
      </trkpt>
      <trkpt lat="42.5147692300379276275634765625" lon="19.77288753725588321685791015625">
        <ele>1842</ele>
        <time>2026-06-18T10:18:04.000Z</time>
        <extensions>
          <ns3:TrackPointExtension>
            <ns3:atemp>23.0</ns3:atemp>
          </ns3:TrackPointExtension>
        </extensions>
      </trkpt>
      <trkpt lat="42.5147692300379276275634765625" lon="19.77288753725588321685791015625">
        <ele>1842</ele>
        <time>2026-06-18T10:18:05.000Z</time>
        <extensions>
          <ns3:TrackPointExtension>
            <ns3:atemp>23.0</ns3:atemp>
          </ns3:TrackPointExtension>
        </extensions>
      </trkpt>
      <trkpt lat="42.5147692300379276275634765625" lon="19.77288753725588321685791015625">
        <ele>1842</ele>
        <time>2026-06-18T10:18:06.000Z</time>
        <extensions>
          <ns3:TrackPointExtension>
            <ns3:atemp>23.0</ns3:atemp>
          </ns3:TrackPointExtension>
        </extensions>
      </trkpt>
      <trkpt lat="42.5147692300379276275634765625" lon="19.77288753725588321685791015625">
        <ele>1842</ele>
        <time>2026-06-18T10:18:07.000Z</time>
        <extensions>
          <ns3:TrackPointExtension>
            <ns3:atemp>23.0</ns3:atemp>
          </ns3:TrackPointExtension>
        </extensions>
      </trkpt>
      <trkpt lat="42.5147692300379276275634765625" lon="19.77288753725588321685791015625">
        <ele>1842</ele>
        <time>2026-06-18T10:18:08.000Z</time>
        <extensions>
          <ns3:TrackPointExtension>
            <ns3:atemp>23.0</ns3:atemp>
          </ns3:TrackPointExtension>
        </extensions>
      </trkpt>
      <trkpt lat="42.5147692300379276275634765625" lon="19.77288753725588321685791015625">
        <ele>1842</ele>
        <time>2026-06-18T10:18:09.000Z</time>
        <extensions>
          <ns3:TrackPointExtension>
            <ns3:atemp>23.0</ns3:atemp>
          </ns3:TrackPointExtension>
        </extensions>
      </trkpt>
      <trkpt lat="42.5147692300379276275634765625" lon="19.77288753725588321685791015625">
        <ele>1842</ele>
        <time>2026-06-18T10:18:10.000Z</time>
        <extensions>
          <ns3:TrackPointExtension>
            <ns3:atemp>23.0</ns3:atemp>
          </ns3:TrackPointExtension>
        </extensions>
      </trkpt>
      <trkpt lat="42.5147692300379276275634765625" lon="19.77288753725588321685791015625">
        <ele>1842</ele>
        <time>2026-06-18T10:18:11.000Z</time>
        <extensions>
          <ns3:TrackPointExtension>
            <ns3:atemp>23.0</ns3:atemp>
          </ns3:TrackPointExtension>
        </extensions>
      </trkpt>
      <trkpt lat="42.5147692300379276275634765625" lon="19.77288753725588321685791015625">
        <ele>1842</ele>
        <time>2026-06-18T10:18:12.000Z</time>
        <extensions>
          <ns3:TrackPointExtension>
            <ns3:atemp>23.0</ns3:atemp>
          </ns3:TrackPointExtension>
        </extensions>
      </trkpt>
      <trkpt lat="42.5147692300379276275634765625" lon="19.77288753725588321685791015625">
        <ele>1842</ele>
        <time>2026-06-18T10:18:13.000Z</time>
        <extensions>
          <ns3:TrackPointExtension>
            <ns3:atemp>23.0</ns3:atemp>
          </ns3:TrackPointExtension>
        </extensions>
      </trkpt>
      <trkpt lat="42.5147692300379276275634765625" lon="19.77288753725588321685791015625">
        <ele>1842</ele>
        <time>2026-06-18T10:18:14.000Z</time>
        <extensions>
          <ns3:TrackPointExtension>
            <ns3:atemp>23.0</ns3:atemp>
          </ns3:TrackPointExtension>
        </extensions>
      </trkpt>
      <trkpt lat="42.5147692300379276275634765625" lon="19.77288753725588321685791015625">
        <ele>1842</ele>
        <time>2026-06-18T10:18:15.000Z</time>
        <extensions>
          <ns3:TrackPointExtension>
            <ns3:atemp>23.0</ns3:atemp>
          </ns3:TrackPointExtension>
        </extensions>
      </trkpt>
      <trkpt lat="42.5147692300379276275634765625" lon="19.77288753725588321685791015625">
        <ele>1842</ele>
        <time>2026-06-18T10:18:16.000Z</time>
        <extensions>
          <ns3:TrackPointExtension>
            <ns3:atemp>23.0</ns3:atemp>
          </ns3:TrackPointExtension>
        </extensions>
      </trkpt>
      <trkpt lat="42.5147692300379276275634765625" lon="19.77288753725588321685791015625">
        <ele>1842</ele>
        <time>2026-06-18T10:18:17.000Z</time>
        <extensions>
          <ns3:TrackPointExtension>
            <ns3:atemp>23.0</ns3:atemp>
          </ns3:TrackPointExtension>
        </extensions>
      </trkpt>
      <trkpt lat="42.5147692300379276275634765625" lon="19.77288753725588321685791015625">
        <ele>1838.199951171875</ele>
        <time>2026-06-18T10:18:18.000Z</time>
        <extensions>
          <ns3:TrackPointExtension>
            <ns3:atemp>23.0</ns3:atemp>
          </ns3:TrackPointExtension>
        </extensions>
      </trkpt>
      <trkpt lat="42.5147692300379276275634765625" lon="19.77288753725588321685791015625">
        <ele>1838.199951171875</ele>
        <time>2026-06-18T10:18:19.000Z</time>
        <extensions>
          <ns3:TrackPointExtension>
            <ns3:atemp>23.0</ns3:atemp>
          </ns3:TrackPointExtension>
        </extensions>
      </trkpt>
      <trkpt lat="42.5147692300379276275634765625" lon="19.77288753725588321685791015625">
        <ele>1838.199951171875</ele>
        <time>2026-06-18T10:18:20.000Z</time>
        <extensions>
          <ns3:TrackPointExtension>
            <ns3:atemp>23.0</ns3:atemp>
          </ns3:TrackPointExtension>
        </extensions>
      </trkpt>
      <trkpt lat="42.5147692300379276275634765625" lon="19.77288753725588321685791015625">
        <ele>1838.199951171875</ele>
        <time>2026-06-18T10:18:21.000Z</time>
        <extensions>
          <ns3:TrackPointExtension>
            <ns3:atemp>23.0</ns3:atemp>
          </ns3:TrackPointExtension>
        </extensions>
      </trkpt>
      <trkpt lat="42.5147692300379276275634765625" lon="19.77288753725588321685791015625">
        <ele>1838.199951171875</ele>
        <time>2026-06-18T10:18:22.000Z</time>
        <extensions>
          <ns3:TrackPointExtension>
            <ns3:atemp>23.0</ns3:atemp>
          </ns3:TrackPointExtension>
        </extensions>
      </trkpt>
      <trkpt lat="42.5147692300379276275634765625" lon="19.77288753725588321685791015625">
        <ele>1838.199951171875</ele>
        <time>2026-06-18T10:18:23.000Z</time>
        <extensions>
          <ns3:TrackPointExtension>
            <ns3:atemp>23.0</ns3:atemp>
          </ns3:TrackPointExtension>
        </extensions>
      </trkpt>
      <trkpt lat="42.5147692300379276275634765625" lon="19.77288753725588321685791015625">
        <ele>1838.199951171875</ele>
        <time>2026-06-18T10:18:24.000Z</time>
        <extensions>
          <ns3:TrackPointExtension>
            <ns3:atemp>23.0</ns3:atemp>
          </ns3:TrackPointExtension>
        </extensions>
      </trkpt>
      <trkpt lat="42.5147692300379276275634765625" lon="19.77288753725588321685791015625">
        <ele>1838.199951171875</ele>
        <time>2026-06-18T10:18:25.000Z</time>
        <extensions>
          <ns3:TrackPointExtension>
            <ns3:atemp>23.0</ns3:atemp>
          </ns3:TrackPointExtension>
        </extensions>
      </trkpt>
      <trkpt lat="42.5147692300379276275634765625" lon="19.77288753725588321685791015625">
        <ele>1838.4000244140625</ele>
        <time>2026-06-18T10:18:26.000Z</time>
        <extensions>
          <ns3:TrackPointExtension>
            <ns3:atemp>23.0</ns3:atemp>
          </ns3:TrackPointExtension>
        </extensions>
      </trkpt>
      <trkpt lat="42.5147692300379276275634765625" lon="19.77288753725588321685791015625">
        <ele>1838.4000244140625</ele>
        <time>2026-06-18T10:18:27.000Z</time>
        <extensions>
          <ns3:TrackPointExtension>
            <ns3:atemp>23.0</ns3:atemp>
          </ns3:TrackPointExtension>
        </extensions>
      </trkpt>
      <trkpt lat="42.5147692300379276275634765625" lon="19.77288753725588321685791015625">
        <ele>1838.4000244140625</ele>
        <time>2026-06-18T10:18:28.000Z</time>
        <extensions>
          <ns3:TrackPointExtension>
            <ns3:atemp>23.0</ns3:atemp>
          </ns3:TrackPointExtension>
        </extensions>
      </trkpt>
      <trkpt lat="42.5147692300379276275634765625" lon="19.77288753725588321685791015625">
        <ele>1838.199951171875</ele>
        <time>2026-06-18T10:18:29.000Z</time>
        <extensions>
          <ns3:TrackPointExtension>
            <ns3:atemp>23.0</ns3:atemp>
          </ns3:TrackPointExtension>
        </extensions>
      </trkpt>
      <trkpt lat="42.5147692300379276275634765625" lon="19.77288753725588321685791015625">
        <ele>1838.199951171875</ele>
        <time>2026-06-18T10:18:30.000Z</time>
        <extensions>
          <ns3:TrackPointExtension>
            <ns3:atemp>23.0</ns3:atemp>
          </ns3:TrackPointExtension>
        </extensions>
      </trkpt>
      <trkpt lat="42.5147692300379276275634765625" lon="19.77288753725588321685791015625">
        <ele>1838.199951171875</ele>
        <time>2026-06-18T10:18:31.000Z</time>
        <extensions>
          <ns3:TrackPointExtension>
            <ns3:atemp>23.0</ns3:atemp>
          </ns3:TrackPointExtension>
        </extensions>
      </trkpt>
      <trkpt lat="42.5147692300379276275634765625" lon="19.77288753725588321685791015625">
        <ele>1838.199951171875</ele>
        <time>2026-06-18T10:18:32.000Z</time>
        <extensions>
          <ns3:TrackPointExtension>
            <ns3:atemp>23.0</ns3:atemp>
          </ns3:TrackPointExtension>
        </extensions>
      </trkpt>
      <trkpt lat="42.5147692300379276275634765625" lon="19.77288753725588321685791015625">
        <ele>1838.199951171875</ele>
        <time>2026-06-18T10:18:33.000Z</time>
        <extensions>
          <ns3:TrackPointExtension>
            <ns3:atemp>23.0</ns3:atemp>
          </ns3:TrackPointExtension>
        </extensions>
      </trkpt>
      <trkpt lat="42.5147692300379276275634765625" lon="19.77288753725588321685791015625">
        <ele>1838.199951171875</ele>
        <time>2026-06-18T10:18:34.000Z</time>
        <extensions>
          <ns3:TrackPointExtension>
            <ns3:atemp>23.0</ns3:atemp>
          </ns3:TrackPointExtension>
        </extensions>
      </trkpt>
      <trkpt lat="42.5147692300379276275634765625" lon="19.77288753725588321685791015625">
        <ele>1838.199951171875</ele>
        <time>2026-06-18T10:18:35.000Z</time>
        <extensions>
          <ns3:TrackPointExtension>
            <ns3:atemp>23.0</ns3:atemp>
          </ns3:TrackPointExtension>
        </extensions>
      </trkpt>
      <trkpt lat="42.5147692300379276275634765625" lon="19.77288753725588321685791015625">
        <ele>1838.199951171875</ele>
        <time>2026-06-18T10:18:36.000Z</time>
        <extensions>
          <ns3:TrackPointExtension>
            <ns3:atemp>23.0</ns3:atemp>
          </ns3:TrackPointExtension>
        </extensions>
      </trkpt>
      <trkpt lat="42.5147692300379276275634765625" lon="19.77288753725588321685791015625">
        <ele>1838.199951171875</ele>
        <time>2026-06-18T10:18:37.000Z</time>
        <extensions>
          <ns3:TrackPointExtension>
            <ns3:atemp>23.0</ns3:atemp>
          </ns3:TrackPointExtension>
        </extensions>
      </trkpt>
      <trkpt lat="42.5147692300379276275634765625" lon="19.77288753725588321685791015625">
        <ele>1838.199951171875</ele>
        <time>2026-06-18T10:18:38.000Z</time>
        <extensions>
          <ns3:TrackPointExtension>
            <ns3:atemp>23.0</ns3:atemp>
          </ns3:TrackPointExtension>
        </extensions>
      </trkpt>
      <trkpt lat="42.5147692300379276275634765625" lon="19.77288753725588321685791015625">
        <ele>1838.199951171875</ele>
        <time>2026-06-18T10:18:39.000Z</time>
        <extensions>
          <ns3:TrackPointExtension>
            <ns3:atemp>23.0</ns3:atemp>
          </ns3:TrackPointExtension>
        </extensions>
      </trkpt>
      <trkpt lat="42.5147692300379276275634765625" lon="19.77288753725588321685791015625">
        <ele>1838.199951171875</ele>
        <time>2026-06-18T10:18:40.000Z</time>
        <extensions>
          <ns3:TrackPointExtension>
            <ns3:atemp>23.0</ns3:atemp>
          </ns3:TrackPointExtension>
        </extensions>
      </trkpt>
      <trkpt lat="42.5147692300379276275634765625" lon="19.77288753725588321685791015625">
        <ele>1838.199951171875</ele>
        <time>2026-06-18T10:18:41.000Z</time>
        <extensions>
          <ns3:TrackPointExtension>
            <ns3:atemp>23.0</ns3:atemp>
          </ns3:TrackPointExtension>
        </extensions>
      </trkpt>
      <trkpt lat="42.5147692300379276275634765625" lon="19.77288753725588321685791015625">
        <ele>1838.199951171875</ele>
        <time>2026-06-18T10:18:42.000Z</time>
        <extensions>
          <ns3:TrackPointExtension>
            <ns3:atemp>23.0</ns3:atemp>
          </ns3:TrackPointExtension>
        </extensions>
      </trkpt>
      <trkpt lat="42.5147692300379276275634765625" lon="19.77288753725588321685791015625">
        <ele>1838.199951171875</ele>
        <time>2026-06-18T10:18:43.000Z</time>
        <extensions>
          <ns3:TrackPointExtension>
            <ns3:atemp>23.0</ns3:atemp>
          </ns3:TrackPointExtension>
        </extensions>
      </trkpt>
      <trkpt lat="42.5147692300379276275634765625" lon="19.77288753725588321685791015625">
        <ele>1838.199951171875</ele>
        <time>2026-06-18T10:18:44.000Z</time>
        <extensions>
          <ns3:TrackPointExtension>
            <ns3:atemp>23.0</ns3:atemp>
          </ns3:TrackPointExtension>
        </extensions>
      </trkpt>
      <trkpt lat="42.5147692300379276275634765625" lon="19.77288753725588321685791015625">
        <ele>1838.199951171875</ele>
        <time>2026-06-18T10:18:45.000Z</time>
        <extensions>
          <ns3:TrackPointExtension>
            <ns3:atemp>23.0</ns3:atemp>
          </ns3:TrackPointExtension>
        </extensions>
      </trkpt>
      <trkpt lat="42.5147692300379276275634765625" lon="19.77288753725588321685791015625">
        <ele>1838.199951171875</ele>
        <time>2026-06-18T10:18:46.000Z</time>
        <extensions>
          <ns3:TrackPointExtension>
            <ns3:atemp>23.0</ns3:atemp>
          </ns3:TrackPointExtension>
        </extensions>
      </trkpt>
      <trkpt lat="42.5147692300379276275634765625" lon="19.77288753725588321685791015625">
        <ele>1838.199951171875</ele>
        <time>2026-06-18T10:18:47.000Z</time>
        <extensions>
          <ns3:TrackPointExtension>
            <ns3:atemp>23.0</ns3:atemp>
          </ns3:TrackPointExtension>
        </extensions>
      </trkpt>
      <trkpt lat="42.5147692300379276275634765625" lon="19.77288753725588321685791015625">
        <ele>1838.199951171875</ele>
        <time>2026-06-18T10:18:48.000Z</time>
        <extensions>
          <ns3:TrackPointExtension>
            <ns3:atemp>23.0</ns3:atemp>
          </ns3:TrackPointExtension>
        </extensions>
      </trkpt>
      <trkpt lat="42.5147692300379276275634765625" lon="19.77288753725588321685791015625">
        <ele>1838.199951171875</ele>
        <time>2026-06-18T10:18:49.000Z</time>
        <extensions>
          <ns3:TrackPointExtension>
            <ns3:atemp>23.0</ns3:atemp>
          </ns3:TrackPointExtension>
        </extensions>
      </trkpt>
      <trkpt lat="42.5147692300379276275634765625" lon="19.77288753725588321685791015625">
        <ele>1838.199951171875</ele>
        <time>2026-06-18T10:18:50.000Z</time>
        <extensions>
          <ns3:TrackPointExtension>
            <ns3:atemp>23.0</ns3:atemp>
          </ns3:TrackPointExtension>
        </extensions>
      </trkpt>
      <trkpt lat="42.5147692300379276275634765625" lon="19.77288753725588321685791015625">
        <ele>1838.199951171875</ele>
        <time>2026-06-18T10:18:51.000Z</time>
        <extensions>
          <ns3:TrackPointExtension>
            <ns3:atemp>23.0</ns3:atemp>
          </ns3:TrackPointExtension>
        </extensions>
      </trkpt>
      <trkpt lat="42.5147692300379276275634765625" lon="19.77288753725588321685791015625">
        <ele>1838.199951171875</ele>
        <time>2026-06-18T10:18:52.000Z</time>
        <extensions>
          <ns3:TrackPointExtension>
            <ns3:atemp>23.0</ns3:atemp>
          </ns3:TrackPointExtension>
        </extensions>
      </trkpt>
      <trkpt lat="42.5147692300379276275634765625" lon="19.77288753725588321685791015625">
        <ele>1838.199951171875</ele>
        <time>2026-06-18T10:18:53.000Z</time>
        <extensions>
          <ns3:TrackPointExtension>
            <ns3:atemp>23.0</ns3:atemp>
          </ns3:TrackPointExtension>
        </extensions>
      </trkpt>
      <trkpt lat="42.5147692300379276275634765625" lon="19.77288753725588321685791015625">
        <ele>1838.199951171875</ele>
        <time>2026-06-18T10:18:54.000Z</time>
        <extensions>
          <ns3:TrackPointExtension>
            <ns3:atemp>23.0</ns3:atemp>
          </ns3:TrackPointExtension>
        </extensions>
      </trkpt>
      <trkpt lat="42.5147692300379276275634765625" lon="19.77288753725588321685791015625">
        <ele>1838</ele>
        <time>2026-06-18T10:18:55.000Z</time>
        <extensions>
          <ns3:TrackPointExtension>
            <ns3:atemp>23.0</ns3:atemp>
          </ns3:TrackPointExtension>
        </extensions>
      </trkpt>
      <trkpt lat="42.5147692300379276275634765625" lon="19.77288753725588321685791015625">
        <ele>1838</ele>
        <time>2026-06-18T10:18:56.000Z</time>
        <extensions>
          <ns3:TrackPointExtension>
            <ns3:atemp>23.0</ns3:atemp>
          </ns3:TrackPointExtension>
        </extensions>
      </trkpt>
      <trkpt lat="42.5147692300379276275634765625" lon="19.77288753725588321685791015625">
        <ele>1838.199951171875</ele>
        <time>2026-06-18T10:18:57.000Z</time>
        <extensions>
          <ns3:TrackPointExtension>
            <ns3:atemp>23.0</ns3:atemp>
          </ns3:TrackPointExtension>
        </extensions>
      </trkpt>
      <trkpt lat="42.5147692300379276275634765625" lon="19.77288753725588321685791015625">
        <ele>1838.199951171875</ele>
        <time>2026-06-18T10:18:58.000Z</time>
        <extensions>
          <ns3:TrackPointExtension>
            <ns3:atemp>23.0</ns3:atemp>
          </ns3:TrackPointExtension>
        </extensions>
      </trkpt>
      <trkpt lat="42.5147692300379276275634765625" lon="19.77288753725588321685791015625">
        <ele>1838.199951171875</ele>
        <time>2026-06-18T10:18:59.000Z</time>
        <extensions>
          <ns3:TrackPointExtension>
            <ns3:atemp>23.0</ns3:atemp>
          </ns3:TrackPointExtension>
        </extensions>
      </trkpt>
      <trkpt lat="42.5147692300379276275634765625" lon="19.77288753725588321685791015625">
        <ele>1838.199951171875</ele>
        <time>2026-06-18T10:19:00.000Z</time>
        <extensions>
          <ns3:TrackPointExtension>
            <ns3:atemp>23.0</ns3:atemp>
          </ns3:TrackPointExtension>
        </extensions>
      </trkpt>
      <trkpt lat="42.5147692300379276275634765625" lon="19.77288753725588321685791015625">
        <ele>1838</ele>
        <time>2026-06-18T10:19:01.000Z</time>
        <extensions>
          <ns3:TrackPointExtension>
            <ns3:atemp>23.0</ns3:atemp>
          </ns3:TrackPointExtension>
        </extensions>
      </trkpt>
      <trkpt lat="42.5147692300379276275634765625" lon="19.77288753725588321685791015625">
        <ele>1838</ele>
        <time>2026-06-18T10:19:02.000Z</time>
        <extensions>
          <ns3:TrackPointExtension>
            <ns3:atemp>23.0</ns3:atemp>
          </ns3:TrackPointExtension>
        </extensions>
      </trkpt>
      <trkpt lat="42.5147692300379276275634765625" lon="19.77288753725588321685791015625">
        <ele>1838</ele>
        <time>2026-06-18T10:19:03.000Z</time>
        <extensions>
          <ns3:TrackPointExtension>
            <ns3:atemp>23.0</ns3:atemp>
          </ns3:TrackPointExtension>
        </extensions>
      </trkpt>
      <trkpt lat="42.5147692300379276275634765625" lon="19.77288753725588321685791015625">
        <ele>1838</ele>
        <time>2026-06-18T10:19:04.000Z</time>
        <extensions>
          <ns3:TrackPointExtension>
            <ns3:atemp>23.0</ns3:atemp>
          </ns3:TrackPointExtension>
        </extensions>
      </trkpt>
      <trkpt lat="42.5147692300379276275634765625" lon="19.77288753725588321685791015625">
        <ele>1838</ele>
        <time>2026-06-18T10:19:05.000Z</time>
        <extensions>
          <ns3:TrackPointExtension>
            <ns3:atemp>23.0</ns3:atemp>
          </ns3:TrackPointExtension>
        </extensions>
      </trkpt>
      <trkpt lat="42.5147692300379276275634765625" lon="19.77288753725588321685791015625">
        <ele>1838</ele>
        <time>2026-06-18T10:19:06.000Z</time>
        <extensions>
          <ns3:TrackPointExtension>
            <ns3:atemp>23.0</ns3:atemp>
          </ns3:TrackPointExtension>
        </extensions>
      </trkpt>
      <trkpt lat="42.5147692300379276275634765625" lon="19.77288753725588321685791015625">
        <ele>1838</ele>
        <time>2026-06-18T10:19:07.000Z</time>
        <extensions>
          <ns3:TrackPointExtension>
            <ns3:atemp>23.0</ns3:atemp>
          </ns3:TrackPointExtension>
        </extensions>
      </trkpt>
      <trkpt lat="42.5147692300379276275634765625" lon="19.77288753725588321685791015625">
        <ele>1838</ele>
        <time>2026-06-18T10:19:08.000Z</time>
        <extensions>
          <ns3:TrackPointExtension>
            <ns3:atemp>23.0</ns3:atemp>
          </ns3:TrackPointExtension>
        </extensions>
      </trkpt>
      <trkpt lat="42.5147692300379276275634765625" lon="19.77288753725588321685791015625">
        <ele>1838</ele>
        <time>2026-06-18T10:19:09.000Z</time>
        <extensions>
          <ns3:TrackPointExtension>
            <ns3:atemp>23.0</ns3:atemp>
          </ns3:TrackPointExtension>
        </extensions>
      </trkpt>
      <trkpt lat="42.5147692300379276275634765625" lon="19.77288753725588321685791015625">
        <ele>1838</ele>
        <time>2026-06-18T10:19:10.000Z</time>
        <extensions>
          <ns3:TrackPointExtension>
            <ns3:atemp>23.0</ns3:atemp>
          </ns3:TrackPointExtension>
        </extensions>
      </trkpt>
      <trkpt lat="42.5147692300379276275634765625" lon="19.77288753725588321685791015625">
        <ele>1838</ele>
        <time>2026-06-18T10:19:11.000Z</time>
        <extensions>
          <ns3:TrackPointExtension>
            <ns3:atemp>23.0</ns3:atemp>
          </ns3:TrackPointExtension>
        </extensions>
      </trkpt>
      <trkpt lat="42.5147692300379276275634765625" lon="19.77288753725588321685791015625">
        <ele>1838</ele>
        <time>2026-06-18T10:19:12.000Z</time>
        <extensions>
          <ns3:TrackPointExtension>
            <ns3:atemp>23.0</ns3:atemp>
          </ns3:TrackPointExtension>
        </extensions>
      </trkpt>
      <trkpt lat="42.5147692300379276275634765625" lon="19.77288753725588321685791015625">
        <ele>1838.199951171875</ele>
        <time>2026-06-18T10:19:13.000Z</time>
        <extensions>
          <ns3:TrackPointExtension>
            <ns3:atemp>23.0</ns3:atemp>
          </ns3:TrackPointExtension>
        </extensions>
      </trkpt>
      <trkpt lat="42.5147692300379276275634765625" lon="19.77288753725588321685791015625">
        <ele>1838.199951171875</ele>
        <time>2026-06-18T10:19:14.000Z</time>
        <extensions>
          <ns3:TrackPointExtension>
            <ns3:atemp>23.0</ns3:atemp>
          </ns3:TrackPointExtension>
        </extensions>
      </trkpt>
      <trkpt lat="42.5147692300379276275634765625" lon="19.77288753725588321685791015625">
        <ele>1838</ele>
        <time>2026-06-18T10:19:15.000Z</time>
        <extensions>
          <ns3:TrackPointExtension>
            <ns3:atemp>23.0</ns3:atemp>
          </ns3:TrackPointExtension>
        </extensions>
      </trkpt>
      <trkpt lat="42.5147692300379276275634765625" lon="19.77288753725588321685791015625">
        <ele>1838</ele>
        <time>2026-06-18T10:19:16.000Z</time>
        <extensions>
          <ns3:TrackPointExtension>
            <ns3:atemp>23.0</ns3:atemp>
          </ns3:TrackPointExtension>
        </extensions>
      </trkpt>
      <trkpt lat="42.5147692300379276275634765625" lon="19.77288753725588321685791015625">
        <ele>1838</ele>
        <time>2026-06-18T10:19:17.000Z</time>
        <extensions>
          <ns3:TrackPointExtension>
            <ns3:atemp>23.0</ns3:atemp>
          </ns3:TrackPointExtension>
        </extensions>
      </trkpt>
      <trkpt lat="42.5147692300379276275634765625" lon="19.77288753725588321685791015625">
        <ele>1838</ele>
        <time>2026-06-18T10:19:18.000Z</time>
        <extensions>
          <ns3:TrackPointExtension>
            <ns3:atemp>23.0</ns3:atemp>
          </ns3:TrackPointExtension>
        </extensions>
      </trkpt>
      <trkpt lat="42.5147692300379276275634765625" lon="19.77288753725588321685791015625">
        <ele>1838</ele>
        <time>2026-06-18T10:19:19.000Z</time>
        <extensions>
          <ns3:TrackPointExtension>
            <ns3:atemp>23.0</ns3:atemp>
          </ns3:TrackPointExtension>
        </extensions>
      </trkpt>
      <trkpt lat="42.5147692300379276275634765625" lon="19.77288753725588321685791015625">
        <ele>1838</ele>
        <time>2026-06-18T10:19:20.000Z</time>
        <extensions>
          <ns3:TrackPointExtension>
            <ns3:atemp>23.0</ns3:atemp>
          </ns3:TrackPointExtension>
        </extensions>
      </trkpt>
      <trkpt lat="42.5147692300379276275634765625" lon="19.77288753725588321685791015625">
        <ele>1838</ele>
        <time>2026-06-18T10:19:21.000Z</time>
        <extensions>
          <ns3:TrackPointExtension>
            <ns3:atemp>23.0</ns3:atemp>
          </ns3:TrackPointExtension>
        </extensions>
      </trkpt>
      <trkpt lat="42.5147692300379276275634765625" lon="19.77288753725588321685791015625">
        <ele>1838</ele>
        <time>2026-06-18T10:19:22.000Z</time>
        <extensions>
          <ns3:TrackPointExtension>
            <ns3:atemp>23.0</ns3:atemp>
          </ns3:TrackPointExtension>
        </extensions>
      </trkpt>
      <trkpt lat="42.5147692300379276275634765625" lon="19.77288753725588321685791015625">
        <ele>1838</ele>
        <time>2026-06-18T10:19:23.000Z</time>
        <extensions>
          <ns3:TrackPointExtension>
            <ns3:atemp>23.0</ns3:atemp>
          </ns3:TrackPointExtension>
        </extensions>
      </trkpt>
      <trkpt lat="42.5147692300379276275634765625" lon="19.77288753725588321685791015625">
        <ele>1838</ele>
        <time>2026-06-18T10:19:24.000Z</time>
        <extensions>
          <ns3:TrackPointExtension>
            <ns3:atemp>23.0</ns3:atemp>
          </ns3:TrackPointExtension>
        </extensions>
      </trkpt>
      <trkpt lat="42.5147692300379276275634765625" lon="19.77288753725588321685791015625">
        <ele>1838</ele>
        <time>2026-06-18T10:19:25.000Z</time>
        <extensions>
          <ns3:TrackPointExtension>
            <ns3:atemp>23.0</ns3:atemp>
          </ns3:TrackPointExtension>
        </extensions>
      </trkpt>
      <trkpt lat="42.5147692300379276275634765625" lon="19.77288753725588321685791015625">
        <ele>1838</ele>
        <time>2026-06-18T10:19:26.000Z</time>
        <extensions>
          <ns3:TrackPointExtension>
            <ns3:atemp>23.0</ns3:atemp>
          </ns3:TrackPointExtension>
        </extensions>
      </trkpt>
      <trkpt lat="42.5147692300379276275634765625" lon="19.77288753725588321685791015625">
        <ele>1838</ele>
        <time>2026-06-18T10:19:27.000Z</time>
        <extensions>
          <ns3:TrackPointExtension>
            <ns3:atemp>23.0</ns3:atemp>
          </ns3:TrackPointExtension>
        </extensions>
      </trkpt>
      <trkpt lat="42.5147692300379276275634765625" lon="19.77288753725588321685791015625">
        <ele>1838</ele>
        <time>2026-06-18T10:19:28.000Z</time>
        <extensions>
          <ns3:TrackPointExtension>
            <ns3:atemp>23.0</ns3:atemp>
          </ns3:TrackPointExtension>
        </extensions>
      </trkpt>
      <trkpt lat="42.5147692300379276275634765625" lon="19.77288753725588321685791015625">
        <ele>1838</ele>
        <time>2026-06-18T10:19:29.000Z</time>
        <extensions>
          <ns3:TrackPointExtension>
            <ns3:atemp>23.0</ns3:atemp>
          </ns3:TrackPointExtension>
        </extensions>
      </trkpt>
      <trkpt lat="42.5147692300379276275634765625" lon="19.77288753725588321685791015625">
        <ele>1838</ele>
        <time>2026-06-18T10:19:30.000Z</time>
        <extensions>
          <ns3:TrackPointExtension>
            <ns3:atemp>23.0</ns3:atemp>
          </ns3:TrackPointExtension>
        </extensions>
      </trkpt>
      <trkpt lat="42.5147692300379276275634765625" lon="19.77288753725588321685791015625">
        <ele>1838</ele>
        <time>2026-06-18T10:19:31.000Z</time>
        <extensions>
          <ns3:TrackPointExtension>
            <ns3:atemp>23.0</ns3:atemp>
          </ns3:TrackPointExtension>
        </extensions>
      </trkpt>
      <trkpt lat="42.5147692300379276275634765625" lon="19.77288753725588321685791015625">
        <ele>1838</ele>
        <time>2026-06-18T10:19:32.000Z</time>
        <extensions>
          <ns3:TrackPointExtension>
            <ns3:atemp>23.0</ns3:atemp>
          </ns3:TrackPointExtension>
        </extensions>
      </trkpt>
      <trkpt lat="42.5147692300379276275634765625" lon="19.77288753725588321685791015625">
        <ele>1838</ele>
        <time>2026-06-18T10:19:33.000Z</time>
        <extensions>
          <ns3:TrackPointExtension>
            <ns3:atemp>23.0</ns3:atemp>
          </ns3:TrackPointExtension>
        </extensions>
      </trkpt>
      <trkpt lat="42.5147692300379276275634765625" lon="19.77288753725588321685791015625">
        <ele>1838</ele>
        <time>2026-06-18T10:19:34.000Z</time>
        <extensions>
          <ns3:TrackPointExtension>
            <ns3:atemp>23.0</ns3:atemp>
          </ns3:TrackPointExtension>
        </extensions>
      </trkpt>
      <trkpt lat="42.5147692300379276275634765625" lon="19.77288753725588321685791015625">
        <ele>1838</ele>
        <time>2026-06-18T10:19:35.000Z</time>
        <extensions>
          <ns3:TrackPointExtension>
            <ns3:atemp>23.0</ns3:atemp>
          </ns3:TrackPointExtension>
        </extensions>
      </trkpt>
      <trkpt lat="42.5147692300379276275634765625" lon="19.77288753725588321685791015625">
        <ele>1838</ele>
        <time>2026-06-18T10:19:36.000Z</time>
        <extensions>
          <ns3:TrackPointExtension>
            <ns3:atemp>23.0</ns3:atemp>
          </ns3:TrackPointExtension>
        </extensions>
      </trkpt>
      <trkpt lat="42.5147692300379276275634765625" lon="19.77288753725588321685791015625">
        <ele>1838</ele>
        <time>2026-06-18T10:19:37.000Z</time>
        <extensions>
          <ns3:TrackPointExtension>
            <ns3:atemp>23.0</ns3:atemp>
          </ns3:TrackPointExtension>
        </extensions>
      </trkpt>
      <trkpt lat="42.5147692300379276275634765625" lon="19.77288753725588321685791015625">
        <ele>1838</ele>
        <time>2026-06-18T10:19:38.000Z</time>
        <extensions>
          <ns3:TrackPointExtension>
            <ns3:atemp>23.0</ns3:atemp>
          </ns3:TrackPointExtension>
        </extensions>
      </trkpt>
      <trkpt lat="42.5147692300379276275634765625" lon="19.77288753725588321685791015625">
        <ele>1838</ele>
        <time>2026-06-18T10:19:39.000Z</time>
        <extensions>
          <ns3:TrackPointExtension>
            <ns3:atemp>23.0</ns3:atemp>
          </ns3:TrackPointExtension>
        </extensions>
      </trkpt>
      <trkpt lat="42.5147692300379276275634765625" lon="19.77288753725588321685791015625">
        <ele>1838</ele>
        <time>2026-06-18T10:19:40.000Z</time>
        <extensions>
          <ns3:TrackPointExtension>
            <ns3:atemp>23.0</ns3:atemp>
          </ns3:TrackPointExtension>
        </extensions>
      </trkpt>
      <trkpt lat="42.5147692300379276275634765625" lon="19.77288753725588321685791015625">
        <ele>1838</ele>
        <time>2026-06-18T10:19:41.000Z</time>
        <extensions>
          <ns3:TrackPointExtension>
            <ns3:atemp>23.0</ns3:atemp>
          </ns3:TrackPointExtension>
        </extensions>
      </trkpt>
      <trkpt lat="42.5147692300379276275634765625" lon="19.77288753725588321685791015625">
        <ele>1838</ele>
        <time>2026-06-18T10:19:42.000Z</time>
        <extensions>
          <ns3:TrackPointExtension>
            <ns3:atemp>23.0</ns3:atemp>
          </ns3:TrackPointExtension>
        </extensions>
      </trkpt>
      <trkpt lat="42.5147692300379276275634765625" lon="19.77288753725588321685791015625">
        <ele>1838</ele>
        <time>2026-06-18T10:19:43.000Z</time>
        <extensions>
          <ns3:TrackPointExtension>
            <ns3:atemp>23.0</ns3:atemp>
          </ns3:TrackPointExtension>
        </extensions>
      </trkpt>
      <trkpt lat="42.5147692300379276275634765625" lon="19.77288753725588321685791015625">
        <ele>1838</ele>
        <time>2026-06-18T10:19:44.000Z</time>
        <extensions>
          <ns3:TrackPointExtension>
            <ns3:atemp>23.0</ns3:atemp>
          </ns3:TrackPointExtension>
        </extensions>
      </trkpt>
      <trkpt lat="42.5147692300379276275634765625" lon="19.77288753725588321685791015625">
        <ele>1838</ele>
        <time>2026-06-18T10:19:45.000Z</time>
        <extensions>
          <ns3:TrackPointExtension>
            <ns3:atemp>23.0</ns3:atemp>
          </ns3:TrackPointExtension>
        </extensions>
      </trkpt>
      <trkpt lat="42.5147692300379276275634765625" lon="19.77288753725588321685791015625">
        <ele>1838</ele>
        <time>2026-06-18T10:19:46.000Z</time>
        <extensions>
          <ns3:TrackPointExtension>
            <ns3:atemp>23.0</ns3:atemp>
          </ns3:TrackPointExtension>
        </extensions>
      </trkpt>
      <trkpt lat="42.5147692300379276275634765625" lon="19.77288753725588321685791015625">
        <ele>1838</ele>
        <time>2026-06-18T10:19:47.000Z</time>
        <extensions>
          <ns3:TrackPointExtension>
            <ns3:atemp>23.0</ns3:atemp>
          </ns3:TrackPointExtension>
        </extensions>
      </trkpt>
      <trkpt lat="42.5147692300379276275634765625" lon="19.77288753725588321685791015625">
        <ele>1838</ele>
        <time>2026-06-18T10:19:48.000Z</time>
        <extensions>
          <ns3:TrackPointExtension>
            <ns3:atemp>23.0</ns3:atemp>
          </ns3:TrackPointExtension>
        </extensions>
      </trkpt>
      <trkpt lat="42.5147692300379276275634765625" lon="19.77288753725588321685791015625">
        <ele>1838</ele>
        <time>2026-06-18T10:19:49.000Z</time>
        <extensions>
          <ns3:TrackPointExtension>
            <ns3:atemp>23.0</ns3:atemp>
          </ns3:TrackPointExtension>
        </extensions>
      </trkpt>
      <trkpt lat="42.5147692300379276275634765625" lon="19.77288753725588321685791015625">
        <ele>1838</ele>
        <time>2026-06-18T10:19:50.000Z</time>
        <extensions>
          <ns3:TrackPointExtension>
            <ns3:atemp>23.0</ns3:atemp>
          </ns3:TrackPointExtension>
        </extensions>
      </trkpt>
      <trkpt lat="42.5147692300379276275634765625" lon="19.77288753725588321685791015625">
        <ele>1838</ele>
        <time>2026-06-18T10:19:51.000Z</time>
        <extensions>
          <ns3:TrackPointExtension>
            <ns3:atemp>23.0</ns3:atemp>
          </ns3:TrackPointExtension>
        </extensions>
      </trkpt>
      <trkpt lat="42.5147692300379276275634765625" lon="19.77288753725588321685791015625">
        <ele>1838</ele>
        <time>2026-06-18T10:19:52.000Z</time>
        <extensions>
          <ns3:TrackPointExtension>
            <ns3:atemp>23.0</ns3:atemp>
          </ns3:TrackPointExtension>
        </extensions>
      </trkpt>
      <trkpt lat="42.5147692300379276275634765625" lon="19.77288753725588321685791015625">
        <ele>1838</ele>
        <time>2026-06-18T10:19:53.000Z</time>
        <extensions>
          <ns3:TrackPointExtension>
            <ns3:atemp>23.0</ns3:atemp>
          </ns3:TrackPointExtension>
        </extensions>
      </trkpt>
      <trkpt lat="42.5147692300379276275634765625" lon="19.77288753725588321685791015625">
        <ele>1838</ele>
        <time>2026-06-18T10:19:54.000Z</time>
        <extensions>
          <ns3:TrackPointExtension>
            <ns3:atemp>23.0</ns3:atemp>
          </ns3:TrackPointExtension>
        </extensions>
      </trkpt>
      <trkpt lat="42.5147692300379276275634765625" lon="19.77288753725588321685791015625">
        <ele>1838</ele>
        <time>2026-06-18T10:19:55.000Z</time>
        <extensions>
          <ns3:TrackPointExtension>
            <ns3:atemp>23.0</ns3:atemp>
          </ns3:TrackPointExtension>
        </extensions>
      </trkpt>
      <trkpt lat="42.5147692300379276275634765625" lon="19.77288753725588321685791015625">
        <ele>1838</ele>
        <time>2026-06-18T10:19:56.000Z</time>
        <extensions>
          <ns3:TrackPointExtension>
            <ns3:atemp>23.0</ns3:atemp>
          </ns3:TrackPointExtension>
        </extensions>
      </trkpt>
      <trkpt lat="42.5147692300379276275634765625" lon="19.77288753725588321685791015625">
        <ele>1838</ele>
        <time>2026-06-18T10:19:57.000Z</time>
        <extensions>
          <ns3:TrackPointExtension>
            <ns3:atemp>23.0</ns3:atemp>
          </ns3:TrackPointExtension>
        </extensions>
      </trkpt>
      <trkpt lat="42.5147692300379276275634765625" lon="19.77288753725588321685791015625">
        <ele>1838</ele>
        <time>2026-06-18T10:19:58.000Z</time>
        <extensions>
          <ns3:TrackPointExtension>
            <ns3:atemp>23.0</ns3:atemp>
          </ns3:TrackPointExtension>
        </extensions>
      </trkpt>
      <trkpt lat="42.5147692300379276275634765625" lon="19.77288753725588321685791015625">
        <ele>1838</ele>
        <time>2026-06-18T10:19:59.000Z</time>
        <extensions>
          <ns3:TrackPointExtension>
            <ns3:atemp>23.0</ns3:atemp>
          </ns3:TrackPointExtension>
        </extensions>
      </trkpt>
      <trkpt lat="42.5147692300379276275634765625" lon="19.77288753725588321685791015625">
        <ele>1838</ele>
        <time>2026-06-18T10:20:00.000Z</time>
        <extensions>
          <ns3:TrackPointExtension>
            <ns3:atemp>23.0</ns3:atemp>
          </ns3:TrackPointExtension>
        </extensions>
      </trkpt>
      <trkpt lat="42.5147692300379276275634765625" lon="19.77288753725588321685791015625">
        <ele>1838</ele>
        <time>2026-06-18T10:20:01.000Z</time>
        <extensions>
          <ns3:TrackPointExtension>
            <ns3:atemp>23.0</ns3:atemp>
          </ns3:TrackPointExtension>
        </extensions>
      </trkpt>
      <trkpt lat="42.5147692300379276275634765625" lon="19.77288753725588321685791015625">
        <ele>1838</ele>
        <time>2026-06-18T10:20:02.000Z</time>
        <extensions>
          <ns3:TrackPointExtension>
            <ns3:atemp>23.0</ns3:atemp>
          </ns3:TrackPointExtension>
        </extensions>
      </trkpt>
      <trkpt lat="42.5147692300379276275634765625" lon="19.77288753725588321685791015625">
        <ele>1838</ele>
        <time>2026-06-18T10:20:03.000Z</time>
        <extensions>
          <ns3:TrackPointExtension>
            <ns3:atemp>23.0</ns3:atemp>
          </ns3:TrackPointExtension>
        </extensions>
      </trkpt>
      <trkpt lat="42.5147692300379276275634765625" lon="19.77288753725588321685791015625">
        <ele>1838</ele>
        <time>2026-06-18T10:20:04.000Z</time>
        <extensions>
          <ns3:TrackPointExtension>
            <ns3:atemp>23.0</ns3:atemp>
          </ns3:TrackPointExtension>
        </extensions>
      </trkpt>
      <trkpt lat="42.5147692300379276275634765625" lon="19.77288753725588321685791015625">
        <ele>1838</ele>
        <time>2026-06-18T10:20:05.000Z</time>
        <extensions>
          <ns3:TrackPointExtension>
            <ns3:atemp>23.0</ns3:atemp>
          </ns3:TrackPointExtension>
        </extensions>
      </trkpt>
      <trkpt lat="42.5147692300379276275634765625" lon="19.77288753725588321685791015625">
        <ele>1838</ele>
        <time>2026-06-18T10:20:06.000Z</time>
        <extensions>
          <ns3:TrackPointExtension>
            <ns3:atemp>23.0</ns3:atemp>
          </ns3:TrackPointExtension>
        </extensions>
      </trkpt>
      <trkpt lat="42.5147692300379276275634765625" lon="19.77288753725588321685791015625">
        <ele>1838</ele>
        <time>2026-06-18T10:20:07.000Z</time>
        <extensions>
          <ns3:TrackPointExtension>
            <ns3:atemp>23.0</ns3:atemp>
          </ns3:TrackPointExtension>
        </extensions>
      </trkpt>
      <trkpt lat="42.5147692300379276275634765625" lon="19.77288753725588321685791015625">
        <ele>1838</ele>
        <time>2026-06-18T10:20:08.000Z</time>
        <extensions>
          <ns3:TrackPointExtension>
            <ns3:atemp>23.0</ns3:atemp>
          </ns3:TrackPointExtension>
        </extensions>
      </trkpt>
      <trkpt lat="42.5147692300379276275634765625" lon="19.77288753725588321685791015625">
        <ele>1838</ele>
        <time>2026-06-18T10:20:09.000Z</time>
        <extensions>
          <ns3:TrackPointExtension>
            <ns3:atemp>23.0</ns3:atemp>
          </ns3:TrackPointExtension>
        </extensions>
      </trkpt>
      <trkpt lat="42.5147692300379276275634765625" lon="19.77288753725588321685791015625">
        <ele>1838</ele>
        <time>2026-06-18T10:20:10.000Z</time>
        <extensions>
          <ns3:TrackPointExtension>
            <ns3:atemp>23.0</ns3:atemp>
          </ns3:TrackPointExtension>
        </extensions>
      </trkpt>
      <trkpt lat="42.5147692300379276275634765625" lon="19.77288753725588321685791015625">
        <ele>1838</ele>
        <time>2026-06-18T10:20:11.000Z</time>
        <extensions>
          <ns3:TrackPointExtension>
            <ns3:atemp>23.0</ns3:atemp>
          </ns3:TrackPointExtension>
        </extensions>
      </trkpt>
      <trkpt lat="42.5147692300379276275634765625" lon="19.77288753725588321685791015625">
        <ele>1838</ele>
        <time>2026-06-18T10:20:12.000Z</time>
        <extensions>
          <ns3:TrackPointExtension>
            <ns3:atemp>23.0</ns3:atemp>
          </ns3:TrackPointExtension>
        </extensions>
      </trkpt>
      <trkpt lat="42.5147692300379276275634765625" lon="19.77288753725588321685791015625">
        <ele>1838</ele>
        <time>2026-06-18T10:20:13.000Z</time>
        <extensions>
          <ns3:TrackPointExtension>
            <ns3:atemp>23.0</ns3:atemp>
          </ns3:TrackPointExtension>
        </extensions>
      </trkpt>
      <trkpt lat="42.5147692300379276275634765625" lon="19.77288753725588321685791015625">
        <ele>1838</ele>
        <time>2026-06-18T10:20:14.000Z</time>
        <extensions>
          <ns3:TrackPointExtension>
            <ns3:atemp>23.0</ns3:atemp>
          </ns3:TrackPointExtension>
        </extensions>
      </trkpt>
      <trkpt lat="42.5147692300379276275634765625" lon="19.77288753725588321685791015625">
        <ele>1838</ele>
        <time>2026-06-18T10:20:15.000Z</time>
        <extensions>
          <ns3:TrackPointExtension>
            <ns3:atemp>23.0</ns3:atemp>
          </ns3:TrackPointExtension>
        </extensions>
      </trkpt>
      <trkpt lat="42.5147692300379276275634765625" lon="19.77288753725588321685791015625">
        <ele>1838</ele>
        <time>2026-06-18T10:20:16.000Z</time>
        <extensions>
          <ns3:TrackPointExtension>
            <ns3:atemp>23.0</ns3:atemp>
          </ns3:TrackPointExtension>
        </extensions>
      </trkpt>
      <trkpt lat="42.5147692300379276275634765625" lon="19.77288753725588321685791015625">
        <ele>1838</ele>
        <time>2026-06-18T10:20:17.000Z</time>
        <extensions>
          <ns3:TrackPointExtension>
            <ns3:atemp>23.0</ns3:atemp>
          </ns3:TrackPointExtension>
        </extensions>
      </trkpt>
      <trkpt lat="42.5147692300379276275634765625" lon="19.77288753725588321685791015625">
        <ele>1838</ele>
        <time>2026-06-18T10:20:18.000Z</time>
        <extensions>
          <ns3:TrackPointExtension>
            <ns3:atemp>23.0</ns3:atemp>
          </ns3:TrackPointExtension>
        </extensions>
      </trkpt>
      <trkpt lat="42.5147692300379276275634765625" lon="19.77288753725588321685791015625">
        <ele>1838</ele>
        <time>2026-06-18T10:20:19.000Z</time>
        <extensions>
          <ns3:TrackPointExtension>
            <ns3:atemp>23.0</ns3:atemp>
          </ns3:TrackPointExtension>
        </extensions>
      </trkpt>
      <trkpt lat="42.5147692300379276275634765625" lon="19.77288753725588321685791015625">
        <ele>1838</ele>
        <time>2026-06-18T10:20:20.000Z</time>
        <extensions>
          <ns3:TrackPointExtension>
            <ns3:atemp>23.0</ns3:atemp>
          </ns3:TrackPointExtension>
        </extensions>
      </trkpt>
      <trkpt lat="42.5147692300379276275634765625" lon="19.77288753725588321685791015625">
        <ele>1838</ele>
        <time>2026-06-18T10:20:21.000Z</time>
        <extensions>
          <ns3:TrackPointExtension>
            <ns3:atemp>23.0</ns3:atemp>
          </ns3:TrackPointExtension>
        </extensions>
      </trkpt>
      <trkpt lat="42.5147692300379276275634765625" lon="19.77288753725588321685791015625">
        <ele>1838</ele>
        <time>2026-06-18T10:20:22.000Z</time>
        <extensions>
          <ns3:TrackPointExtension>
            <ns3:atemp>23.0</ns3:atemp>
          </ns3:TrackPointExtension>
        </extensions>
      </trkpt>
      <trkpt lat="42.5147692300379276275634765625" lon="19.77288753725588321685791015625">
        <ele>1838</ele>
        <time>2026-06-18T10:20:23.000Z</time>
        <extensions>
          <ns3:TrackPointExtension>
            <ns3:atemp>23.0</ns3:atemp>
          </ns3:TrackPointExtension>
        </extensions>
      </trkpt>
      <trkpt lat="42.5147692300379276275634765625" lon="19.77288753725588321685791015625">
        <ele>1838</ele>
        <time>2026-06-18T10:20:24.000Z</time>
        <extensions>
          <ns3:TrackPointExtension>
            <ns3:atemp>23.0</ns3:atemp>
          </ns3:TrackPointExtension>
        </extensions>
      </trkpt>
      <trkpt lat="42.5147692300379276275634765625" lon="19.77288753725588321685791015625">
        <ele>1838</ele>
        <time>2026-06-18T10:20:25.000Z</time>
        <extensions>
          <ns3:TrackPointExtension>
            <ns3:atemp>23.0</ns3:atemp>
          </ns3:TrackPointExtension>
        </extensions>
      </trkpt>
      <trkpt lat="42.5147692300379276275634765625" lon="19.77288753725588321685791015625">
        <ele>1838</ele>
        <time>2026-06-18T10:20:26.000Z</time>
        <extensions>
          <ns3:TrackPointExtension>
            <ns3:atemp>23.0</ns3:atemp>
          </ns3:TrackPointExtension>
        </extensions>
      </trkpt>
      <trkpt lat="42.5147692300379276275634765625" lon="19.77288753725588321685791015625">
        <ele>1838</ele>
        <time>2026-06-18T10:20:27.000Z</time>
        <extensions>
          <ns3:TrackPointExtension>
            <ns3:atemp>23.0</ns3:atemp>
          </ns3:TrackPointExtension>
        </extensions>
      </trkpt>
      <trkpt lat="42.5147692300379276275634765625" lon="19.77288753725588321685791015625">
        <ele>1838</ele>
        <time>2026-06-18T10:20:28.000Z</time>
        <extensions>
          <ns3:TrackPointExtension>
            <ns3:atemp>23.0</ns3:atemp>
          </ns3:TrackPointExtension>
        </extensions>
      </trkpt>
      <trkpt lat="42.5147692300379276275634765625" lon="19.77288753725588321685791015625">
        <ele>1838</ele>
        <time>2026-06-18T10:20:29.000Z</time>
        <extensions>
          <ns3:TrackPointExtension>
            <ns3:atemp>23.0</ns3:atemp>
          </ns3:TrackPointExtension>
        </extensions>
      </trkpt>
      <trkpt lat="42.5147692300379276275634765625" lon="19.77288753725588321685791015625">
        <ele>1838</ele>
        <time>2026-06-18T10:20:30.000Z</time>
        <extensions>
          <ns3:TrackPointExtension>
            <ns3:atemp>23.0</ns3:atemp>
          </ns3:TrackPointExtension>
        </extensions>
      </trkpt>
      <trkpt lat="42.5147692300379276275634765625" lon="19.77288753725588321685791015625">
        <ele>1838</ele>
        <time>2026-06-18T10:20:31.000Z</time>
        <extensions>
          <ns3:TrackPointExtension>
            <ns3:atemp>23.0</ns3:atemp>
          </ns3:TrackPointExtension>
        </extensions>
      </trkpt>
      <trkpt lat="42.5147692300379276275634765625" lon="19.77288753725588321685791015625">
        <ele>1838</ele>
        <time>2026-06-18T10:20:32.000Z</time>
        <extensions>
          <ns3:TrackPointExtension>
            <ns3:atemp>23.0</ns3:atemp>
          </ns3:TrackPointExtension>
        </extensions>
      </trkpt>
      <trkpt lat="42.5147692300379276275634765625" lon="19.77288753725588321685791015625">
        <ele>1838</ele>
        <time>2026-06-18T10:20:33.000Z</time>
        <extensions>
          <ns3:TrackPointExtension>
            <ns3:atemp>23.0</ns3:atemp>
          </ns3:TrackPointExtension>
        </extensions>
      </trkpt>
      <trkpt lat="42.5147692300379276275634765625" lon="19.77288753725588321685791015625">
        <ele>1838</ele>
        <time>2026-06-18T10:20:34.000Z</time>
        <extensions>
          <ns3:TrackPointExtension>
            <ns3:atemp>23.0</ns3:atemp>
          </ns3:TrackPointExtension>
        </extensions>
      </trkpt>
      <trkpt lat="42.5147692300379276275634765625" lon="19.77288753725588321685791015625">
        <ele>1838</ele>
        <time>2026-06-18T10:20:35.000Z</time>
        <extensions>
          <ns3:TrackPointExtension>
            <ns3:atemp>23.0</ns3:atemp>
          </ns3:TrackPointExtension>
        </extensions>
      </trkpt>
      <trkpt lat="42.5147692300379276275634765625" lon="19.77288753725588321685791015625">
        <ele>1838</ele>
        <time>2026-06-18T10:20:36.000Z</time>
        <extensions>
          <ns3:TrackPointExtension>
            <ns3:atemp>23.0</ns3:atemp>
          </ns3:TrackPointExtension>
        </extensions>
      </trkpt>
      <trkpt lat="42.5147692300379276275634765625" lon="19.77288753725588321685791015625">
        <ele>1838</ele>
        <time>2026-06-18T10:20:37.000Z</time>
        <extensions>
          <ns3:TrackPointExtension>
            <ns3:atemp>23.0</ns3:atemp>
          </ns3:TrackPointExtension>
        </extensions>
      </trkpt>
      <trkpt lat="42.5147692300379276275634765625" lon="19.77288753725588321685791015625">
        <ele>1838</ele>
        <time>2026-06-18T10:20:38.000Z</time>
        <extensions>
          <ns3:TrackPointExtension>
            <ns3:atemp>23.0</ns3:atemp>
          </ns3:TrackPointExtension>
        </extensions>
      </trkpt>
      <trkpt lat="42.5147692300379276275634765625" lon="19.77288753725588321685791015625">
        <ele>1838</ele>
        <time>2026-06-18T10:20:39.000Z</time>
        <extensions>
          <ns3:TrackPointExtension>
            <ns3:atemp>23.0</ns3:atemp>
          </ns3:TrackPointExtension>
        </extensions>
      </trkpt>
      <trkpt lat="42.5147692300379276275634765625" lon="19.77288753725588321685791015625">
        <ele>1838</ele>
        <time>2026-06-18T10:20:40.000Z</time>
        <extensions>
          <ns3:TrackPointExtension>
            <ns3:atemp>23.0</ns3:atemp>
          </ns3:TrackPointExtension>
        </extensions>
      </trkpt>
      <trkpt lat="42.5147692300379276275634765625" lon="19.77288753725588321685791015625">
        <ele>1838</ele>
        <time>2026-06-18T10:20:41.000Z</time>
        <extensions>
          <ns3:TrackPointExtension>
            <ns3:atemp>23.0</ns3:atemp>
          </ns3:TrackPointExtension>
        </extensions>
      </trkpt>
      <trkpt lat="42.5147692300379276275634765625" lon="19.77288753725588321685791015625">
        <ele>1838</ele>
        <time>2026-06-18T10:20:42.000Z</time>
        <extensions>
          <ns3:TrackPointExtension>
            <ns3:atemp>23.0</ns3:atemp>
          </ns3:TrackPointExtension>
        </extensions>
      </trkpt>
      <trkpt lat="42.5147692300379276275634765625" lon="19.77288753725588321685791015625">
        <ele>1838</ele>
        <time>2026-06-18T10:20:43.000Z</time>
        <extensions>
          <ns3:TrackPointExtension>
            <ns3:atemp>23.0</ns3:atemp>
          </ns3:TrackPointExtension>
        </extensions>
      </trkpt>
      <trkpt lat="42.5147692300379276275634765625" lon="19.77288753725588321685791015625">
        <ele>1838</ele>
        <time>2026-06-18T10:20:44.000Z</time>
        <extensions>
          <ns3:TrackPointExtension>
            <ns3:atemp>23.0</ns3:atemp>
          </ns3:TrackPointExtension>
        </extensions>
      </trkpt>
      <trkpt lat="42.5147692300379276275634765625" lon="19.77288753725588321685791015625">
        <ele>1838</ele>
        <time>2026-06-18T10:20:45.000Z</time>
        <extensions>
          <ns3:TrackPointExtension>
            <ns3:atemp>23.0</ns3:atemp>
          </ns3:TrackPointExtension>
        </extensions>
      </trkpt>
      <trkpt lat="42.5147692300379276275634765625" lon="19.77288753725588321685791015625">
        <ele>1838</ele>
        <time>2026-06-18T10:20:46.000Z</time>
        <extensions>
          <ns3:TrackPointExtension>
            <ns3:atemp>23.0</ns3:atemp>
          </ns3:TrackPointExtension>
        </extensions>
      </trkpt>
      <trkpt lat="42.5147692300379276275634765625" lon="19.77288753725588321685791015625">
        <ele>1838</ele>
        <time>2026-06-18T10:20:47.000Z</time>
        <extensions>
          <ns3:TrackPointExtension>
            <ns3:atemp>23.0</ns3:atemp>
          </ns3:TrackPointExtension>
        </extensions>
      </trkpt>
      <trkpt lat="42.5147692300379276275634765625" lon="19.77288753725588321685791015625">
        <ele>1838</ele>
        <time>2026-06-18T10:20:48.000Z</time>
        <extensions>
          <ns3:TrackPointExtension>
            <ns3:atemp>23.0</ns3:atemp>
          </ns3:TrackPointExtension>
        </extensions>
      </trkpt>
      <trkpt lat="42.5147692300379276275634765625" lon="19.77288753725588321685791015625">
        <ele>1838</ele>
        <time>2026-06-18T10:20:49.000Z</time>
        <extensions>
          <ns3:TrackPointExtension>
            <ns3:atemp>23.0</ns3:atemp>
          </ns3:TrackPointExtension>
        </extensions>
      </trkpt>
      <trkpt lat="42.5147692300379276275634765625" lon="19.77288753725588321685791015625">
        <ele>1838</ele>
        <time>2026-06-18T10:20:50.000Z</time>
        <extensions>
          <ns3:TrackPointExtension>
            <ns3:atemp>23.0</ns3:atemp>
          </ns3:TrackPointExtension>
        </extensions>
      </trkpt>
      <trkpt lat="42.5147692300379276275634765625" lon="19.77288753725588321685791015625">
        <ele>1838</ele>
        <time>2026-06-18T10:20:51.000Z</time>
        <extensions>
          <ns3:TrackPointExtension>
            <ns3:atemp>23.0</ns3:atemp>
          </ns3:TrackPointExtension>
        </extensions>
      </trkpt>
      <trkpt lat="42.5147692300379276275634765625" lon="19.77288753725588321685791015625">
        <ele>1838</ele>
        <time>2026-06-18T10:20:52.000Z</time>
        <extensions>
          <ns3:TrackPointExtension>
            <ns3:atemp>23.0</ns3:atemp>
          </ns3:TrackPointExtension>
        </extensions>
      </trkpt>
      <trkpt lat="42.5147692300379276275634765625" lon="19.77288753725588321685791015625">
        <ele>1838</ele>
        <time>2026-06-18T10:20:53.000Z</time>
        <extensions>
          <ns3:TrackPointExtension>
            <ns3:atemp>23.0</ns3:atemp>
          </ns3:TrackPointExtension>
        </extensions>
      </trkpt>
      <trkpt lat="42.5147692300379276275634765625" lon="19.77288753725588321685791015625">
        <ele>1838</ele>
        <time>2026-06-18T10:20:54.000Z</time>
        <extensions>
          <ns3:TrackPointExtension>
            <ns3:atemp>23.0</ns3:atemp>
          </ns3:TrackPointExtension>
        </extensions>
      </trkpt>
      <trkpt lat="42.5147692300379276275634765625" lon="19.77288753725588321685791015625">
        <ele>1838</ele>
        <time>2026-06-18T10:20:55.000Z</time>
        <extensions>
          <ns3:TrackPointExtension>
            <ns3:atemp>23.0</ns3:atemp>
          </ns3:TrackPointExtension>
        </extensions>
      </trkpt>
      <trkpt lat="42.5147692300379276275634765625" lon="19.77288753725588321685791015625">
        <ele>1838</ele>
        <time>2026-06-18T10:20:56.000Z</time>
        <extensions>
          <ns3:TrackPointExtension>
            <ns3:atemp>23.0</ns3:atemp>
          </ns3:TrackPointExtension>
        </extensions>
      </trkpt>
      <trkpt lat="42.5147692300379276275634765625" lon="19.77288753725588321685791015625">
        <ele>1838</ele>
        <time>2026-06-18T10:20:57.000Z</time>
        <extensions>
          <ns3:TrackPointExtension>
            <ns3:atemp>23.0</ns3:atemp>
          </ns3:TrackPointExtension>
        </extensions>
      </trkpt>
      <trkpt lat="42.5147692300379276275634765625" lon="19.77288753725588321685791015625">
        <ele>1838</ele>
        <time>2026-06-18T10:20:58.000Z</time>
        <extensions>
          <ns3:TrackPointExtension>
            <ns3:atemp>23.0</ns3:atemp>
          </ns3:TrackPointExtension>
        </extensions>
      </trkpt>
      <trkpt lat="42.5147692300379276275634765625" lon="19.77288753725588321685791015625">
        <ele>1838</ele>
        <time>2026-06-18T10:20:59.000Z</time>
        <extensions>
          <ns3:TrackPointExtension>
            <ns3:atemp>23.0</ns3:atemp>
          </ns3:TrackPointExtension>
        </extensions>
      </trkpt>
      <trkpt lat="42.5147692300379276275634765625" lon="19.77288753725588321685791015625">
        <ele>1838</ele>
        <time>2026-06-18T10:21:00.000Z</time>
        <extensions>
          <ns3:TrackPointExtension>
            <ns3:atemp>23.0</ns3:atemp>
          </ns3:TrackPointExtension>
        </extensions>
      </trkpt>
      <trkpt lat="42.5147692300379276275634765625" lon="19.77288753725588321685791015625">
        <ele>1838</ele>
        <time>2026-06-18T10:21:01.000Z</time>
        <extensions>
          <ns3:TrackPointExtension>
            <ns3:atemp>23.0</ns3:atemp>
          </ns3:TrackPointExtension>
        </extensions>
      </trkpt>
      <trkpt lat="42.5147692300379276275634765625" lon="19.77288753725588321685791015625">
        <ele>1838</ele>
        <time>2026-06-18T10:21:02.000Z</time>
        <extensions>
          <ns3:TrackPointExtension>
            <ns3:atemp>23.0</ns3:atemp>
          </ns3:TrackPointExtension>
        </extensions>
      </trkpt>
      <trkpt lat="42.5147692300379276275634765625" lon="19.77288753725588321685791015625">
        <ele>1838</ele>
        <time>2026-06-18T10:21:03.000Z</time>
        <extensions>
          <ns3:TrackPointExtension>
            <ns3:atemp>23.0</ns3:atemp>
          </ns3:TrackPointExtension>
        </extensions>
      </trkpt>
      <trkpt lat="42.5147692300379276275634765625" lon="19.77288753725588321685791015625">
        <ele>1838</ele>
        <time>2026-06-18T10:21:04.000Z</time>
        <extensions>
          <ns3:TrackPointExtension>
            <ns3:atemp>23.0</ns3:atemp>
          </ns3:TrackPointExtension>
        </extensions>
      </trkpt>
      <trkpt lat="42.5147692300379276275634765625" lon="19.77288753725588321685791015625">
        <ele>1838</ele>
        <time>2026-06-18T10:21:05.000Z</time>
        <extensions>
          <ns3:TrackPointExtension>
            <ns3:atemp>23.0</ns3:atemp>
          </ns3:TrackPointExtension>
        </extensions>
      </trkpt>
      <trkpt lat="42.5147692300379276275634765625" lon="19.77288753725588321685791015625">
        <ele>1838</ele>
        <time>2026-06-18T10:21:06.000Z</time>
        <extensions>
          <ns3:TrackPointExtension>
            <ns3:atemp>23.0</ns3:atemp>
          </ns3:TrackPointExtension>
        </extensions>
      </trkpt>
      <trkpt lat="42.5147692300379276275634765625" lon="19.77288753725588321685791015625">
        <ele>1838</ele>
        <time>2026-06-18T10:21:07.000Z</time>
        <extensions>
          <ns3:TrackPointExtension>
            <ns3:atemp>23.0</ns3:atemp>
          </ns3:TrackPointExtension>
        </extensions>
      </trkpt>
      <trkpt lat="42.5147692300379276275634765625" lon="19.77288753725588321685791015625">
        <ele>1838</ele>
        <time>2026-06-18T10:21:08.000Z</time>
        <extensions>
          <ns3:TrackPointExtension>
            <ns3:atemp>23.0</ns3:atemp>
          </ns3:TrackPointExtension>
        </extensions>
      </trkpt>
      <trkpt lat="42.5147692300379276275634765625" lon="19.77288753725588321685791015625">
        <ele>1838</ele>
        <time>2026-06-18T10:21:09.000Z</time>
        <extensions>
          <ns3:TrackPointExtension>
            <ns3:atemp>23.0</ns3:atemp>
          </ns3:TrackPointExtension>
        </extensions>
      </trkpt>
      <trkpt lat="42.5147692300379276275634765625" lon="19.77288753725588321685791015625">
        <ele>1838</ele>
        <time>2026-06-18T10:21:10.000Z</time>
        <extensions>
          <ns3:TrackPointExtension>
            <ns3:atemp>23.0</ns3:atemp>
          </ns3:TrackPointExtension>
        </extensions>
      </trkpt>
      <trkpt lat="42.5147692300379276275634765625" lon="19.77288753725588321685791015625">
        <ele>1838</ele>
        <time>2026-06-18T10:21:11.000Z</time>
        <extensions>
          <ns3:TrackPointExtension>
            <ns3:atemp>24.0</ns3:atemp>
          </ns3:TrackPointExtension>
        </extensions>
      </trkpt>
      <trkpt lat="42.5147692300379276275634765625" lon="19.77288753725588321685791015625">
        <ele>1838</ele>
        <time>2026-06-18T10:21:12.000Z</time>
        <extensions>
          <ns3:TrackPointExtension>
            <ns3:atemp>24.0</ns3:atemp>
          </ns3:TrackPointExtension>
        </extensions>
      </trkpt>
      <trkpt lat="42.5147692300379276275634765625" lon="19.77288753725588321685791015625">
        <ele>1838</ele>
        <time>2026-06-18T10:21:13.000Z</time>
        <extensions>
          <ns3:TrackPointExtension>
            <ns3:atemp>24.0</ns3:atemp>
          </ns3:TrackPointExtension>
        </extensions>
      </trkpt>
      <trkpt lat="42.5147692300379276275634765625" lon="19.77288753725588321685791015625">
        <ele>1838</ele>
        <time>2026-06-18T10:21:14.000Z</time>
        <extensions>
          <ns3:TrackPointExtension>
            <ns3:atemp>24.0</ns3:atemp>
          </ns3:TrackPointExtension>
        </extensions>
      </trkpt>
      <trkpt lat="42.5147692300379276275634765625" lon="19.77288753725588321685791015625">
        <ele>1838</ele>
        <time>2026-06-18T10:21:15.000Z</time>
        <extensions>
          <ns3:TrackPointExtension>
            <ns3:atemp>24.0</ns3:atemp>
          </ns3:TrackPointExtension>
        </extensions>
      </trkpt>
      <trkpt lat="42.5147692300379276275634765625" lon="19.77288753725588321685791015625">
        <ele>1838</ele>
        <time>2026-06-18T10:21:16.000Z</time>
        <extensions>
          <ns3:TrackPointExtension>
            <ns3:atemp>24.0</ns3:atemp>
          </ns3:TrackPointExtension>
        </extensions>
      </trkpt>
      <trkpt lat="42.5147692300379276275634765625" lon="19.77288753725588321685791015625">
        <ele>1838</ele>
        <time>2026-06-18T10:21:17.000Z</time>
        <extensions>
          <ns3:TrackPointExtension>
            <ns3:atemp>24.0</ns3:atemp>
          </ns3:TrackPointExtension>
        </extensions>
      </trkpt>
      <trkpt lat="42.5147692300379276275634765625" lon="19.77288753725588321685791015625">
        <ele>1838</ele>
        <time>2026-06-18T10:21:18.000Z</time>
        <extensions>
          <ns3:TrackPointExtension>
            <ns3:atemp>24.0</ns3:atemp>
          </ns3:TrackPointExtension>
        </extensions>
      </trkpt>
      <trkpt lat="42.5147692300379276275634765625" lon="19.77288753725588321685791015625">
        <ele>1838</ele>
        <time>2026-06-18T10:21:19.000Z</time>
        <extensions>
          <ns3:TrackPointExtension>
            <ns3:atemp>24.0</ns3:atemp>
          </ns3:TrackPointExtension>
        </extensions>
      </trkpt>
      <trkpt lat="42.5147692300379276275634765625" lon="19.77288753725588321685791015625">
        <ele>1838</ele>
        <time>2026-06-18T10:21:20.000Z</time>
        <extensions>
          <ns3:TrackPointExtension>
            <ns3:atemp>24.0</ns3:atemp>
          </ns3:TrackPointExtension>
        </extensions>
      </trkpt>
      <trkpt lat="42.5147692300379276275634765625" lon="19.77288753725588321685791015625">
        <ele>1838</ele>
        <time>2026-06-18T10:21:21.000Z</time>
        <extensions>
          <ns3:TrackPointExtension>
            <ns3:atemp>24.0</ns3:atemp>
          </ns3:TrackPointExtension>
        </extensions>
      </trkpt>
      <trkpt lat="42.5147692300379276275634765625" lon="19.77288753725588321685791015625">
        <ele>1838</ele>
        <time>2026-06-18T10:21:22.000Z</time>
        <extensions>
          <ns3:TrackPointExtension>
            <ns3:atemp>24.0</ns3:atemp>
          </ns3:TrackPointExtension>
        </extensions>
      </trkpt>
      <trkpt lat="42.5147692300379276275634765625" lon="19.77288753725588321685791015625">
        <ele>1838</ele>
        <time>2026-06-18T10:21:23.000Z</time>
        <extensions>
          <ns3:TrackPointExtension>
            <ns3:atemp>24.0</ns3:atemp>
          </ns3:TrackPointExtension>
        </extensions>
      </trkpt>
      <trkpt lat="42.5147692300379276275634765625" lon="19.77288753725588321685791015625">
        <ele>1838</ele>
        <time>2026-06-18T10:21:24.000Z</time>
        <extensions>
          <ns3:TrackPointExtension>
            <ns3:atemp>24.0</ns3:atemp>
          </ns3:TrackPointExtension>
        </extensions>
      </trkpt>
      <trkpt lat="42.5147692300379276275634765625" lon="19.77288753725588321685791015625">
        <ele>1838</ele>
        <time>2026-06-18T10:21:25.000Z</time>
        <extensions>
          <ns3:TrackPointExtension>
            <ns3:atemp>24.0</ns3:atemp>
          </ns3:TrackPointExtension>
        </extensions>
      </trkpt>
      <trkpt lat="42.5147692300379276275634765625" lon="19.77288753725588321685791015625">
        <ele>1838</ele>
        <time>2026-06-18T10:21:26.000Z</time>
        <extensions>
          <ns3:TrackPointExtension>
            <ns3:atemp>24.0</ns3:atemp>
          </ns3:TrackPointExtension>
        </extensions>
      </trkpt>
      <trkpt lat="42.5147692300379276275634765625" lon="19.77288753725588321685791015625">
        <ele>1838</ele>
        <time>2026-06-18T10:21:27.000Z</time>
        <extensions>
          <ns3:TrackPointExtension>
            <ns3:atemp>24.0</ns3:atemp>
          </ns3:TrackPointExtension>
        </extensions>
      </trkpt>
      <trkpt lat="42.5147692300379276275634765625" lon="19.77288753725588321685791015625">
        <ele>1838</ele>
        <time>2026-06-18T10:21:28.000Z</time>
        <extensions>
          <ns3:TrackPointExtension>
            <ns3:atemp>24.0</ns3:atemp>
          </ns3:TrackPointExtension>
        </extensions>
      </trkpt>
      <trkpt lat="42.5147692300379276275634765625" lon="19.77288753725588321685791015625">
        <ele>1838</ele>
        <time>2026-06-18T10:21:29.000Z</time>
        <extensions>
          <ns3:TrackPointExtension>
            <ns3:atemp>24.0</ns3:atemp>
          </ns3:TrackPointExtension>
        </extensions>
      </trkpt>
      <trkpt lat="42.5147692300379276275634765625" lon="19.77288753725588321685791015625">
        <ele>1838</ele>
        <time>2026-06-18T10:21:30.000Z</time>
        <extensions>
          <ns3:TrackPointExtension>
            <ns3:atemp>24.0</ns3:atemp>
          </ns3:TrackPointExtension>
        </extensions>
      </trkpt>
      <trkpt lat="42.5147692300379276275634765625" lon="19.77288753725588321685791015625">
        <ele>1838</ele>
        <time>2026-06-18T10:21:31.000Z</time>
        <extensions>
          <ns3:TrackPointExtension>
            <ns3:atemp>24.0</ns3:atemp>
          </ns3:TrackPointExtension>
        </extensions>
      </trkpt>
      <trkpt lat="42.5147692300379276275634765625" lon="19.77288753725588321685791015625">
        <ele>1838</ele>
        <time>2026-06-18T10:21:32.000Z</time>
        <extensions>
          <ns3:TrackPointExtension>
            <ns3:atemp>24.0</ns3:atemp>
          </ns3:TrackPointExtension>
        </extensions>
      </trkpt>
      <trkpt lat="42.5147692300379276275634765625" lon="19.77288753725588321685791015625">
        <ele>1838</ele>
        <time>2026-06-18T10:21:33.000Z</time>
        <extensions>
          <ns3:TrackPointExtension>
            <ns3:atemp>24.0</ns3:atemp>
          </ns3:TrackPointExtension>
        </extensions>
      </trkpt>
      <trkpt lat="42.5147692300379276275634765625" lon="19.77288753725588321685791015625">
        <ele>1838</ele>
        <time>2026-06-18T10:21:34.000Z</time>
        <extensions>
          <ns3:TrackPointExtension>
            <ns3:atemp>24.0</ns3:atemp>
          </ns3:TrackPointExtension>
        </extensions>
      </trkpt>
      <trkpt lat="42.5147692300379276275634765625" lon="19.77288753725588321685791015625">
        <ele>1838</ele>
        <time>2026-06-18T10:21:35.000Z</time>
        <extensions>
          <ns3:TrackPointExtension>
            <ns3:atemp>24.0</ns3:atemp>
          </ns3:TrackPointExtension>
        </extensions>
      </trkpt>
      <trkpt lat="42.5147692300379276275634765625" lon="19.77288753725588321685791015625">
        <ele>1838</ele>
        <time>2026-06-18T10:21:36.000Z</time>
        <extensions>
          <ns3:TrackPointExtension>
            <ns3:atemp>24.0</ns3:atemp>
          </ns3:TrackPointExtension>
        </extensions>
      </trkpt>
      <trkpt lat="42.5147692300379276275634765625" lon="19.77288753725588321685791015625">
        <ele>1838</ele>
        <time>2026-06-18T10:21:37.000Z</time>
        <extensions>
          <ns3:TrackPointExtension>
            <ns3:atemp>24.0</ns3:atemp>
          </ns3:TrackPointExtension>
        </extensions>
      </trkpt>
      <trkpt lat="42.5147692300379276275634765625" lon="19.77288753725588321685791015625">
        <ele>1838</ele>
        <time>2026-06-18T10:21:38.000Z</time>
        <extensions>
          <ns3:TrackPointExtension>
            <ns3:atemp>24.0</ns3:atemp>
          </ns3:TrackPointExtension>
        </extensions>
      </trkpt>
      <trkpt lat="42.5147692300379276275634765625" lon="19.77288753725588321685791015625">
        <ele>1838</ele>
        <time>2026-06-18T10:21:39.000Z</time>
        <extensions>
          <ns3:TrackPointExtension>
            <ns3:atemp>24.0</ns3:atemp>
          </ns3:TrackPointExtension>
        </extensions>
      </trkpt>
      <trkpt lat="42.5147692300379276275634765625" lon="19.77288753725588321685791015625">
        <ele>1838</ele>
        <time>2026-06-18T10:21:40.000Z</time>
        <extensions>
          <ns3:TrackPointExtension>
            <ns3:atemp>24.0</ns3:atemp>
          </ns3:TrackPointExtension>
        </extensions>
      </trkpt>
      <trkpt lat="42.5147692300379276275634765625" lon="19.77288753725588321685791015625">
        <ele>1838</ele>
        <time>2026-06-18T10:21:41.000Z</time>
        <extensions>
          <ns3:TrackPointExtension>
            <ns3:atemp>24.0</ns3:atemp>
          </ns3:TrackPointExtension>
        </extensions>
      </trkpt>
      <trkpt lat="42.5147692300379276275634765625" lon="19.77288753725588321685791015625">
        <ele>1838</ele>
        <time>2026-06-18T10:21:42.000Z</time>
        <extensions>
          <ns3:TrackPointExtension>
            <ns3:atemp>24.0</ns3:atemp>
          </ns3:TrackPointExtension>
        </extensions>
      </trkpt>
      <trkpt lat="42.5147692300379276275634765625" lon="19.77288753725588321685791015625">
        <ele>1838</ele>
        <time>2026-06-18T10:21:43.000Z</time>
        <extensions>
          <ns3:TrackPointExtension>
            <ns3:atemp>24.0</ns3:atemp>
          </ns3:TrackPointExtension>
        </extensions>
      </trkpt>
      <trkpt lat="42.5147692300379276275634765625" lon="19.77288753725588321685791015625">
        <ele>1838</ele>
        <time>2026-06-18T10:21:44.000Z</time>
        <extensions>
          <ns3:TrackPointExtension>
            <ns3:atemp>24.0</ns3:atemp>
          </ns3:TrackPointExtension>
        </extensions>
      </trkpt>
      <trkpt lat="42.5147692300379276275634765625" lon="19.77288753725588321685791015625">
        <ele>1838</ele>
        <time>2026-06-18T10:21:45.000Z</time>
        <extensions>
          <ns3:TrackPointExtension>
            <ns3:atemp>24.0</ns3:atemp>
          </ns3:TrackPointExtension>
        </extensions>
      </trkpt>
      <trkpt lat="42.5147692300379276275634765625" lon="19.77288753725588321685791015625">
        <ele>1838</ele>
        <time>2026-06-18T10:21:46.000Z</time>
        <extensions>
          <ns3:TrackPointExtension>
            <ns3:atemp>24.0</ns3:atemp>
          </ns3:TrackPointExtension>
        </extensions>
      </trkpt>
      <trkpt lat="42.5147692300379276275634765625" lon="19.77288753725588321685791015625">
        <ele>1838</ele>
        <time>2026-06-18T10:21:47.000Z</time>
        <extensions>
          <ns3:TrackPointExtension>
            <ns3:atemp>24.0</ns3:atemp>
          </ns3:TrackPointExtension>
        </extensions>
      </trkpt>
      <trkpt lat="42.5147692300379276275634765625" lon="19.77288753725588321685791015625">
        <ele>1838</ele>
        <time>2026-06-18T10:21:48.000Z</time>
        <extensions>
          <ns3:TrackPointExtension>
            <ns3:atemp>24.0</ns3:atemp>
          </ns3:TrackPointExtension>
        </extensions>
      </trkpt>
      <trkpt lat="42.5147692300379276275634765625" lon="19.77288753725588321685791015625">
        <ele>1838</ele>
        <time>2026-06-18T10:21:49.000Z</time>
        <extensions>
          <ns3:TrackPointExtension>
            <ns3:atemp>24.0</ns3:atemp>
          </ns3:TrackPointExtension>
        </extensions>
      </trkpt>
      <trkpt lat="42.5147692300379276275634765625" lon="19.77288753725588321685791015625">
        <ele>1838</ele>
        <time>2026-06-18T10:21:50.000Z</time>
        <extensions>
          <ns3:TrackPointExtension>
            <ns3:atemp>24.0</ns3:atemp>
          </ns3:TrackPointExtension>
        </extensions>
      </trkpt>
      <trkpt lat="42.5147692300379276275634765625" lon="19.77288753725588321685791015625">
        <ele>1838</ele>
        <time>2026-06-18T10:21:51.000Z</time>
        <extensions>
          <ns3:TrackPointExtension>
            <ns3:atemp>24.0</ns3:atemp>
          </ns3:TrackPointExtension>
        </extensions>
      </trkpt>
      <trkpt lat="42.5147692300379276275634765625" lon="19.77288753725588321685791015625">
        <ele>1838</ele>
        <time>2026-06-18T10:21:52.000Z</time>
        <extensions>
          <ns3:TrackPointExtension>
            <ns3:atemp>24.0</ns3:atemp>
          </ns3:TrackPointExtension>
        </extensions>
      </trkpt>
      <trkpt lat="42.5147692300379276275634765625" lon="19.77288753725588321685791015625">
        <ele>1838</ele>
        <time>2026-06-18T10:21:53.000Z</time>
        <extensions>
          <ns3:TrackPointExtension>
            <ns3:atemp>24.0</ns3:atemp>
          </ns3:TrackPointExtension>
        </extensions>
      </trkpt>
      <trkpt lat="42.5147692300379276275634765625" lon="19.77288753725588321685791015625">
        <ele>1838</ele>
        <time>2026-06-18T10:21:54.000Z</time>
        <extensions>
          <ns3:TrackPointExtension>
            <ns3:atemp>24.0</ns3:atemp>
          </ns3:TrackPointExtension>
        </extensions>
      </trkpt>
      <trkpt lat="42.5147692300379276275634765625" lon="19.77288753725588321685791015625">
        <ele>1838</ele>
        <time>2026-06-18T10:21:55.000Z</time>
        <extensions>
          <ns3:TrackPointExtension>
            <ns3:atemp>24.0</ns3:atemp>
          </ns3:TrackPointExtension>
        </extensions>
      </trkpt>
      <trkpt lat="42.5147692300379276275634765625" lon="19.77288753725588321685791015625">
        <ele>1838</ele>
        <time>2026-06-18T10:21:56.000Z</time>
        <extensions>
          <ns3:TrackPointExtension>
            <ns3:atemp>24.0</ns3:atemp>
          </ns3:TrackPointExtension>
        </extensions>
      </trkpt>
      <trkpt lat="42.5147692300379276275634765625" lon="19.77288753725588321685791015625">
        <ele>1838</ele>
        <time>2026-06-18T10:21:57.000Z</time>
        <extensions>
          <ns3:TrackPointExtension>
            <ns3:atemp>24.0</ns3:atemp>
          </ns3:TrackPointExtension>
        </extensions>
      </trkpt>
      <trkpt lat="42.5147692300379276275634765625" lon="19.77288753725588321685791015625">
        <ele>1838</ele>
        <time>2026-06-18T10:21:58.000Z</time>
        <extensions>
          <ns3:TrackPointExtension>
            <ns3:atemp>24.0</ns3:atemp>
          </ns3:TrackPointExtension>
        </extensions>
      </trkpt>
      <trkpt lat="42.5147692300379276275634765625" lon="19.77288753725588321685791015625">
        <ele>1838</ele>
        <time>2026-06-18T10:21:59.000Z</time>
        <extensions>
          <ns3:TrackPointExtension>
            <ns3:atemp>24.0</ns3:atemp>
          </ns3:TrackPointExtension>
        </extensions>
      </trkpt>
      <trkpt lat="42.5147692300379276275634765625" lon="19.77288753725588321685791015625">
        <ele>1838</ele>
        <time>2026-06-18T10:22:00.000Z</time>
        <extensions>
          <ns3:TrackPointExtension>
            <ns3:atemp>24.0</ns3:atemp>
          </ns3:TrackPointExtension>
        </extensions>
      </trkpt>
      <trkpt lat="42.5147692300379276275634765625" lon="19.77288753725588321685791015625">
        <ele>1838</ele>
        <time>2026-06-18T10:22:01.000Z</time>
        <extensions>
          <ns3:TrackPointExtension>
            <ns3:atemp>24.0</ns3:atemp>
          </ns3:TrackPointExtension>
        </extensions>
      </trkpt>
      <trkpt lat="42.5147692300379276275634765625" lon="19.77288753725588321685791015625">
        <ele>1838</ele>
        <time>2026-06-18T10:22:02.000Z</time>
        <extensions>
          <ns3:TrackPointExtension>
            <ns3:atemp>24.0</ns3:atemp>
          </ns3:TrackPointExtension>
        </extensions>
      </trkpt>
      <trkpt lat="42.5147692300379276275634765625" lon="19.77288753725588321685791015625">
        <ele>1838</ele>
        <time>2026-06-18T10:22:03.000Z</time>
        <extensions>
          <ns3:TrackPointExtension>
            <ns3:atemp>24.0</ns3:atemp>
          </ns3:TrackPointExtension>
        </extensions>
      </trkpt>
      <trkpt lat="42.5147692300379276275634765625" lon="19.77288753725588321685791015625">
        <ele>1838</ele>
        <time>2026-06-18T10:22:04.000Z</time>
        <extensions>
          <ns3:TrackPointExtension>
            <ns3:atemp>24.0</ns3:atemp>
          </ns3:TrackPointExtension>
        </extensions>
      </trkpt>
      <trkpt lat="42.5147692300379276275634765625" lon="19.77288753725588321685791015625">
        <ele>1838</ele>
        <time>2026-06-18T10:22:05.000Z</time>
        <extensions>
          <ns3:TrackPointExtension>
            <ns3:atemp>24.0</ns3:atemp>
          </ns3:TrackPointExtension>
        </extensions>
      </trkpt>
      <trkpt lat="42.5147692300379276275634765625" lon="19.77288753725588321685791015625">
        <ele>1838</ele>
        <time>2026-06-18T10:22:06.000Z</time>
        <extensions>
          <ns3:TrackPointExtension>
            <ns3:atemp>24.0</ns3:atemp>
          </ns3:TrackPointExtension>
        </extensions>
      </trkpt>
      <trkpt lat="42.5147692300379276275634765625" lon="19.77288753725588321685791015625">
        <ele>1838</ele>
        <time>2026-06-18T10:22:07.000Z</time>
        <extensions>
          <ns3:TrackPointExtension>
            <ns3:atemp>24.0</ns3:atemp>
          </ns3:TrackPointExtension>
        </extensions>
      </trkpt>
      <trkpt lat="42.5147692300379276275634765625" lon="19.77288753725588321685791015625">
        <ele>1838</ele>
        <time>2026-06-18T10:22:08.000Z</time>
        <extensions>
          <ns3:TrackPointExtension>
            <ns3:atemp>24.0</ns3:atemp>
          </ns3:TrackPointExtension>
        </extensions>
      </trkpt>
      <trkpt lat="42.5147692300379276275634765625" lon="19.77288753725588321685791015625">
        <ele>1838</ele>
        <time>2026-06-18T10:22:09.000Z</time>
        <extensions>
          <ns3:TrackPointExtension>
            <ns3:atemp>24.0</ns3:atemp>
          </ns3:TrackPointExtension>
        </extensions>
      </trkpt>
      <trkpt lat="42.5147692300379276275634765625" lon="19.77288753725588321685791015625">
        <ele>1838</ele>
        <time>2026-06-18T10:22:10.000Z</time>
        <extensions>
          <ns3:TrackPointExtension>
            <ns3:atemp>24.0</ns3:atemp>
          </ns3:TrackPointExtension>
        </extensions>
      </trkpt>
      <trkpt lat="42.5147692300379276275634765625" lon="19.77288753725588321685791015625">
        <ele>1838</ele>
        <time>2026-06-18T10:22:11.000Z</time>
        <extensions>
          <ns3:TrackPointExtension>
            <ns3:atemp>24.0</ns3:atemp>
          </ns3:TrackPointExtension>
        </extensions>
      </trkpt>
      <trkpt lat="42.5147692300379276275634765625" lon="19.77288753725588321685791015625">
        <ele>1838</ele>
        <time>2026-06-18T10:22:12.000Z</time>
        <extensions>
          <ns3:TrackPointExtension>
            <ns3:atemp>24.0</ns3:atemp>
          </ns3:TrackPointExtension>
        </extensions>
      </trkpt>
      <trkpt lat="42.5147692300379276275634765625" lon="19.77288753725588321685791015625">
        <ele>1838</ele>
        <time>2026-06-18T10:22:13.000Z</time>
        <extensions>
          <ns3:TrackPointExtension>
            <ns3:atemp>24.0</ns3:atemp>
          </ns3:TrackPointExtension>
        </extensions>
      </trkpt>
      <trkpt lat="42.5147692300379276275634765625" lon="19.77288753725588321685791015625">
        <ele>1838</ele>
        <time>2026-06-18T10:22:14.000Z</time>
        <extensions>
          <ns3:TrackPointExtension>
            <ns3:atemp>24.0</ns3:atemp>
          </ns3:TrackPointExtension>
        </extensions>
      </trkpt>
      <trkpt lat="42.5147692300379276275634765625" lon="19.77288753725588321685791015625">
        <ele>1838</ele>
        <time>2026-06-18T10:22:15.000Z</time>
        <extensions>
          <ns3:TrackPointExtension>
            <ns3:atemp>24.0</ns3:atemp>
          </ns3:TrackPointExtension>
        </extensions>
      </trkpt>
      <trkpt lat="42.5147692300379276275634765625" lon="19.77288753725588321685791015625">
        <ele>1838</ele>
        <time>2026-06-18T10:22:16.000Z</time>
        <extensions>
          <ns3:TrackPointExtension>
            <ns3:atemp>24.0</ns3:atemp>
          </ns3:TrackPointExtension>
        </extensions>
      </trkpt>
      <trkpt lat="42.5147692300379276275634765625" lon="19.77288753725588321685791015625">
        <ele>1838</ele>
        <time>2026-06-18T10:22:17.000Z</time>
        <extensions>
          <ns3:TrackPointExtension>
            <ns3:atemp>24.0</ns3:atemp>
          </ns3:TrackPointExtension>
        </extensions>
      </trkpt>
      <trkpt lat="42.5147692300379276275634765625" lon="19.77288753725588321685791015625">
        <ele>1838</ele>
        <time>2026-06-18T10:22:18.000Z</time>
        <extensions>
          <ns3:TrackPointExtension>
            <ns3:atemp>24.0</ns3:atemp>
          </ns3:TrackPointExtension>
        </extensions>
      </trkpt>
      <trkpt lat="42.5147692300379276275634765625" lon="19.77288753725588321685791015625">
        <ele>1838</ele>
        <time>2026-06-18T10:22:19.000Z</time>
        <extensions>
          <ns3:TrackPointExtension>
            <ns3:atemp>24.0</ns3:atemp>
          </ns3:TrackPointExtension>
        </extensions>
      </trkpt>
      <trkpt lat="42.5147692300379276275634765625" lon="19.77288753725588321685791015625">
        <ele>1838</ele>
        <time>2026-06-18T10:22:20.000Z</time>
        <extensions>
          <ns3:TrackPointExtension>
            <ns3:atemp>24.0</ns3:atemp>
          </ns3:TrackPointExtension>
        </extensions>
      </trkpt>
      <trkpt lat="42.5147692300379276275634765625" lon="19.77288753725588321685791015625">
        <ele>1838</ele>
        <time>2026-06-18T10:22:21.000Z</time>
        <extensions>
          <ns3:TrackPointExtension>
            <ns3:atemp>24.0</ns3:atemp>
          </ns3:TrackPointExtension>
        </extensions>
      </trkpt>
      <trkpt lat="42.5147692300379276275634765625" lon="19.77288753725588321685791015625">
        <ele>1838</ele>
        <time>2026-06-18T10:22:22.000Z</time>
        <extensions>
          <ns3:TrackPointExtension>
            <ns3:atemp>24.0</ns3:atemp>
          </ns3:TrackPointExtension>
        </extensions>
      </trkpt>
      <trkpt lat="42.5147692300379276275634765625" lon="19.77288753725588321685791015625">
        <ele>1838</ele>
        <time>2026-06-18T10:22:23.000Z</time>
        <extensions>
          <ns3:TrackPointExtension>
            <ns3:atemp>24.0</ns3:atemp>
          </ns3:TrackPointExtension>
        </extensions>
      </trkpt>
      <trkpt lat="42.5147692300379276275634765625" lon="19.77288753725588321685791015625">
        <ele>1838</ele>
        <time>2026-06-18T10:22:24.000Z</time>
        <extensions>
          <ns3:TrackPointExtension>
            <ns3:atemp>24.0</ns3:atemp>
          </ns3:TrackPointExtension>
        </extensions>
      </trkpt>
      <trkpt lat="42.5147692300379276275634765625" lon="19.77288753725588321685791015625">
        <ele>1838</ele>
        <time>2026-06-18T10:22:25.000Z</time>
        <extensions>
          <ns3:TrackPointExtension>
            <ns3:atemp>24.0</ns3:atemp>
          </ns3:TrackPointExtension>
        </extensions>
      </trkpt>
      <trkpt lat="42.5147692300379276275634765625" lon="19.77288753725588321685791015625">
        <ele>1838</ele>
        <time>2026-06-18T10:22:26.000Z</time>
        <extensions>
          <ns3:TrackPointExtension>
            <ns3:atemp>24.0</ns3:atemp>
          </ns3:TrackPointExtension>
        </extensions>
      </trkpt>
      <trkpt lat="42.5147692300379276275634765625" lon="19.77288753725588321685791015625">
        <ele>1838</ele>
        <time>2026-06-18T10:22:27.000Z</time>
        <extensions>
          <ns3:TrackPointExtension>
            <ns3:atemp>24.0</ns3:atemp>
          </ns3:TrackPointExtension>
        </extensions>
      </trkpt>
      <trkpt lat="42.5147692300379276275634765625" lon="19.77288753725588321685791015625">
        <ele>1838</ele>
        <time>2026-06-18T10:22:28.000Z</time>
        <extensions>
          <ns3:TrackPointExtension>
            <ns3:atemp>24.0</ns3:atemp>
          </ns3:TrackPointExtension>
        </extensions>
      </trkpt>
      <trkpt lat="42.5147692300379276275634765625" lon="19.77288753725588321685791015625">
        <ele>1838</ele>
        <time>2026-06-18T10:22:29.000Z</time>
        <extensions>
          <ns3:TrackPointExtension>
            <ns3:atemp>24.0</ns3:atemp>
          </ns3:TrackPointExtension>
        </extensions>
      </trkpt>
      <trkpt lat="42.5147692300379276275634765625" lon="19.77288753725588321685791015625">
        <ele>1838</ele>
        <time>2026-06-18T10:22:30.000Z</time>
        <extensions>
          <ns3:TrackPointExtension>
            <ns3:atemp>24.0</ns3:atemp>
          </ns3:TrackPointExtension>
        </extensions>
      </trkpt>
      <trkpt lat="42.5147692300379276275634765625" lon="19.77288753725588321685791015625">
        <ele>1838</ele>
        <time>2026-06-18T10:22:31.000Z</time>
        <extensions>
          <ns3:TrackPointExtension>
            <ns3:atemp>24.0</ns3:atemp>
          </ns3:TrackPointExtension>
        </extensions>
      </trkpt>
      <trkpt lat="42.5147692300379276275634765625" lon="19.77288753725588321685791015625">
        <ele>1838</ele>
        <time>2026-06-18T10:22:32.000Z</time>
        <extensions>
          <ns3:TrackPointExtension>
            <ns3:atemp>24.0</ns3:atemp>
          </ns3:TrackPointExtension>
        </extensions>
      </trkpt>
      <trkpt lat="42.5147692300379276275634765625" lon="19.77288753725588321685791015625">
        <ele>1838</ele>
        <time>2026-06-18T10:22:33.000Z</time>
        <extensions>
          <ns3:TrackPointExtension>
            <ns3:atemp>24.0</ns3:atemp>
          </ns3:TrackPointExtension>
        </extensions>
      </trkpt>
      <trkpt lat="42.5147692300379276275634765625" lon="19.77288753725588321685791015625">
        <ele>1838</ele>
        <time>2026-06-18T10:22:34.000Z</time>
        <extensions>
          <ns3:TrackPointExtension>
            <ns3:atemp>24.0</ns3:atemp>
          </ns3:TrackPointExtension>
        </extensions>
      </trkpt>
      <trkpt lat="42.5147692300379276275634765625" lon="19.77288753725588321685791015625">
        <ele>1838</ele>
        <time>2026-06-18T10:22:35.000Z</time>
        <extensions>
          <ns3:TrackPointExtension>
            <ns3:atemp>24.0</ns3:atemp>
          </ns3:TrackPointExtension>
        </extensions>
      </trkpt>
      <trkpt lat="42.5147692300379276275634765625" lon="19.77288753725588321685791015625">
        <ele>1838</ele>
        <time>2026-06-18T10:22:36.000Z</time>
        <extensions>
          <ns3:TrackPointExtension>
            <ns3:atemp>24.0</ns3:atemp>
          </ns3:TrackPointExtension>
        </extensions>
      </trkpt>
      <trkpt lat="42.5147692300379276275634765625" lon="19.77288753725588321685791015625">
        <ele>1838</ele>
        <time>2026-06-18T10:22:37.000Z</time>
        <extensions>
          <ns3:TrackPointExtension>
            <ns3:atemp>24.0</ns3:atemp>
          </ns3:TrackPointExtension>
        </extensions>
      </trkpt>
      <trkpt lat="42.5147692300379276275634765625" lon="19.77288753725588321685791015625">
        <ele>1838</ele>
        <time>2026-06-18T10:22:38.000Z</time>
        <extensions>
          <ns3:TrackPointExtension>
            <ns3:atemp>24.0</ns3:atemp>
          </ns3:TrackPointExtension>
        </extensions>
      </trkpt>
      <trkpt lat="42.5147692300379276275634765625" lon="19.77288753725588321685791015625">
        <ele>1838</ele>
        <time>2026-06-18T10:22:39.000Z</time>
        <extensions>
          <ns3:TrackPointExtension>
            <ns3:atemp>24.0</ns3:atemp>
          </ns3:TrackPointExtension>
        </extensions>
      </trkpt>
      <trkpt lat="42.5147692300379276275634765625" lon="19.77288753725588321685791015625">
        <ele>1838</ele>
        <time>2026-06-18T10:22:40.000Z</time>
        <extensions>
          <ns3:TrackPointExtension>
            <ns3:atemp>24.0</ns3:atemp>
          </ns3:TrackPointExtension>
        </extensions>
      </trkpt>
      <trkpt lat="42.5147692300379276275634765625" lon="19.77288753725588321685791015625">
        <ele>1838</ele>
        <time>2026-06-18T10:22:41.000Z</time>
        <extensions>
          <ns3:TrackPointExtension>
            <ns3:atemp>24.0</ns3:atemp>
          </ns3:TrackPointExtension>
        </extensions>
      </trkpt>
      <trkpt lat="42.5147692300379276275634765625" lon="19.77288753725588321685791015625">
        <ele>1838</ele>
        <time>2026-06-18T10:22:42.000Z</time>
        <extensions>
          <ns3:TrackPointExtension>
            <ns3:atemp>24.0</ns3:atemp>
          </ns3:TrackPointExtension>
        </extensions>
      </trkpt>
      <trkpt lat="42.5147692300379276275634765625" lon="19.77288753725588321685791015625">
        <ele>1838</ele>
        <time>2026-06-18T10:22:43.000Z</time>
        <extensions>
          <ns3:TrackPointExtension>
            <ns3:atemp>24.0</ns3:atemp>
          </ns3:TrackPointExtension>
        </extensions>
      </trkpt>
      <trkpt lat="42.5147692300379276275634765625" lon="19.77288753725588321685791015625">
        <ele>1838</ele>
        <time>2026-06-18T10:22:44.000Z</time>
        <extensions>
          <ns3:TrackPointExtension>
            <ns3:atemp>24.0</ns3:atemp>
          </ns3:TrackPointExtension>
        </extensions>
      </trkpt>
      <trkpt lat="42.5147692300379276275634765625" lon="19.77288753725588321685791015625">
        <ele>1838</ele>
        <time>2026-06-18T10:22:45.000Z</time>
        <extensions>
          <ns3:TrackPointExtension>
            <ns3:atemp>24.0</ns3:atemp>
          </ns3:TrackPointExtension>
        </extensions>
      </trkpt>
      <trkpt lat="42.5147692300379276275634765625" lon="19.77288753725588321685791015625">
        <ele>1838</ele>
        <time>2026-06-18T10:22:46.000Z</time>
        <extensions>
          <ns3:TrackPointExtension>
            <ns3:atemp>24.0</ns3:atemp>
          </ns3:TrackPointExtension>
        </extensions>
      </trkpt>
      <trkpt lat="42.5147692300379276275634765625" lon="19.77288753725588321685791015625">
        <ele>1838</ele>
        <time>2026-06-18T10:22:47.000Z</time>
        <extensions>
          <ns3:TrackPointExtension>
            <ns3:atemp>24.0</ns3:atemp>
          </ns3:TrackPointExtension>
        </extensions>
      </trkpt>
      <trkpt lat="42.5147692300379276275634765625" lon="19.77288753725588321685791015625">
        <ele>1838</ele>
        <time>2026-06-18T10:22:48.000Z</time>
        <extensions>
          <ns3:TrackPointExtension>
            <ns3:atemp>24.0</ns3:atemp>
          </ns3:TrackPointExtension>
        </extensions>
      </trkpt>
      <trkpt lat="42.5147692300379276275634765625" lon="19.77288753725588321685791015625">
        <ele>1838</ele>
        <time>2026-06-18T10:22:49.000Z</time>
        <extensions>
          <ns3:TrackPointExtension>
            <ns3:atemp>24.0</ns3:atemp>
          </ns3:TrackPointExtension>
        </extensions>
      </trkpt>
      <trkpt lat="42.5147692300379276275634765625" lon="19.77288753725588321685791015625">
        <ele>1838</ele>
        <time>2026-06-18T10:22:50.000Z</time>
        <extensions>
          <ns3:TrackPointExtension>
            <ns3:atemp>24.0</ns3:atemp>
          </ns3:TrackPointExtension>
        </extensions>
      </trkpt>
      <trkpt lat="42.5147692300379276275634765625" lon="19.77288753725588321685791015625">
        <ele>1838</ele>
        <time>2026-06-18T10:22:51.000Z</time>
        <extensions>
          <ns3:TrackPointExtension>
            <ns3:atemp>24.0</ns3:atemp>
          </ns3:TrackPointExtension>
        </extensions>
      </trkpt>
      <trkpt lat="42.5147692300379276275634765625" lon="19.77288753725588321685791015625">
        <ele>1838</ele>
        <time>2026-06-18T10:22:52.000Z</time>
        <extensions>
          <ns3:TrackPointExtension>
            <ns3:atemp>24.0</ns3:atemp>
          </ns3:TrackPointExtension>
        </extensions>
      </trkpt>
      <trkpt lat="42.5147692300379276275634765625" lon="19.77288753725588321685791015625">
        <ele>1838</ele>
        <time>2026-06-18T10:22:53.000Z</time>
        <extensions>
          <ns3:TrackPointExtension>
            <ns3:atemp>24.0</ns3:atemp>
          </ns3:TrackPointExtension>
        </extensions>
      </trkpt>
      <trkpt lat="42.5147692300379276275634765625" lon="19.77288753725588321685791015625">
        <ele>1838</ele>
        <time>2026-06-18T10:22:54.000Z</time>
        <extensions>
          <ns3:TrackPointExtension>
            <ns3:atemp>24.0</ns3:atemp>
          </ns3:TrackPointExtension>
        </extensions>
      </trkpt>
      <trkpt lat="42.5147692300379276275634765625" lon="19.77288753725588321685791015625">
        <ele>1838</ele>
        <time>2026-06-18T10:22:55.000Z</time>
        <extensions>
          <ns3:TrackPointExtension>
            <ns3:atemp>24.0</ns3:atemp>
          </ns3:TrackPointExtension>
        </extensions>
      </trkpt>
      <trkpt lat="42.5147692300379276275634765625" lon="19.77288753725588321685791015625">
        <ele>1838</ele>
        <time>2026-06-18T10:22:56.000Z</time>
        <extensions>
          <ns3:TrackPointExtension>
            <ns3:atemp>24.0</ns3:atemp>
          </ns3:TrackPointExtension>
        </extensions>
      </trkpt>
      <trkpt lat="42.5147692300379276275634765625" lon="19.77288753725588321685791015625">
        <ele>1838</ele>
        <time>2026-06-18T10:22:57.000Z</time>
        <extensions>
          <ns3:TrackPointExtension>
            <ns3:atemp>24.0</ns3:atemp>
          </ns3:TrackPointExtension>
        </extensions>
      </trkpt>
      <trkpt lat="42.5147692300379276275634765625" lon="19.77288753725588321685791015625">
        <ele>1838</ele>
        <time>2026-06-18T10:22:58.000Z</time>
        <extensions>
          <ns3:TrackPointExtension>
            <ns3:atemp>24.0</ns3:atemp>
          </ns3:TrackPointExtension>
        </extensions>
      </trkpt>
      <trkpt lat="42.5147692300379276275634765625" lon="19.77288753725588321685791015625">
        <ele>1838</ele>
        <time>2026-06-18T10:22:59.000Z</time>
        <extensions>
          <ns3:TrackPointExtension>
            <ns3:atemp>24.0</ns3:atemp>
          </ns3:TrackPointExtension>
        </extensions>
      </trkpt>
      <trkpt lat="42.5147692300379276275634765625" lon="19.77288753725588321685791015625">
        <ele>1838</ele>
        <time>2026-06-18T10:23:00.000Z</time>
        <extensions>
          <ns3:TrackPointExtension>
            <ns3:atemp>24.0</ns3:atemp>
          </ns3:TrackPointExtension>
        </extensions>
      </trkpt>
      <trkpt lat="42.5147692300379276275634765625" lon="19.77288753725588321685791015625">
        <ele>1838</ele>
        <time>2026-06-18T10:23:01.000Z</time>
        <extensions>
          <ns3:TrackPointExtension>
            <ns3:atemp>24.0</ns3:atemp>
          </ns3:TrackPointExtension>
        </extensions>
      </trkpt>
      <trkpt lat="42.5147692300379276275634765625" lon="19.77288753725588321685791015625">
        <ele>1838</ele>
        <time>2026-06-18T10:23:02.000Z</time>
        <extensions>
          <ns3:TrackPointExtension>
            <ns3:atemp>24.0</ns3:atemp>
          </ns3:TrackPointExtension>
        </extensions>
      </trkpt>
      <trkpt lat="42.5147692300379276275634765625" lon="19.77288753725588321685791015625">
        <ele>1838</ele>
        <time>2026-06-18T10:23:03.000Z</time>
        <extensions>
          <ns3:TrackPointExtension>
            <ns3:atemp>24.0</ns3:atemp>
          </ns3:TrackPointExtension>
        </extensions>
      </trkpt>
      <trkpt lat="42.5147692300379276275634765625" lon="19.77288753725588321685791015625">
        <ele>1838</ele>
        <time>2026-06-18T10:23:04.000Z</time>
        <extensions>
          <ns3:TrackPointExtension>
            <ns3:atemp>24.0</ns3:atemp>
          </ns3:TrackPointExtension>
        </extensions>
      </trkpt>
      <trkpt lat="42.5147692300379276275634765625" lon="19.77288753725588321685791015625">
        <ele>1838</ele>
        <time>2026-06-18T10:23:05.000Z</time>
        <extensions>
          <ns3:TrackPointExtension>
            <ns3:atemp>24.0</ns3:atemp>
          </ns3:TrackPointExtension>
        </extensions>
      </trkpt>
      <trkpt lat="42.5147692300379276275634765625" lon="19.77288753725588321685791015625">
        <ele>1838</ele>
        <time>2026-06-18T10:23:06.000Z</time>
        <extensions>
          <ns3:TrackPointExtension>
            <ns3:atemp>24.0</ns3:atemp>
          </ns3:TrackPointExtension>
        </extensions>
      </trkpt>
      <trkpt lat="42.5147692300379276275634765625" lon="19.77288753725588321685791015625">
        <ele>1838</ele>
        <time>2026-06-18T10:23:07.000Z</time>
        <extensions>
          <ns3:TrackPointExtension>
            <ns3:atemp>24.0</ns3:atemp>
          </ns3:TrackPointExtension>
        </extensions>
      </trkpt>
      <trkpt lat="42.5147692300379276275634765625" lon="19.77288753725588321685791015625">
        <ele>1838</ele>
        <time>2026-06-18T10:23:08.000Z</time>
        <extensions>
          <ns3:TrackPointExtension>
            <ns3:atemp>24.0</ns3:atemp>
          </ns3:TrackPointExtension>
        </extensions>
      </trkpt>
      <trkpt lat="42.5147692300379276275634765625" lon="19.77288753725588321685791015625">
        <ele>1838</ele>
        <time>2026-06-18T10:23:09.000Z</time>
        <extensions>
          <ns3:TrackPointExtension>
            <ns3:atemp>24.0</ns3:atemp>
          </ns3:TrackPointExtension>
        </extensions>
      </trkpt>
      <trkpt lat="42.5147692300379276275634765625" lon="19.77288753725588321685791015625">
        <ele>1838</ele>
        <time>2026-06-18T10:23:10.000Z</time>
        <extensions>
          <ns3:TrackPointExtension>
            <ns3:atemp>24.0</ns3:atemp>
          </ns3:TrackPointExtension>
        </extensions>
      </trkpt>
      <trkpt lat="42.5147692300379276275634765625" lon="19.77288753725588321685791015625">
        <ele>1838</ele>
        <time>2026-06-18T10:23:11.000Z</time>
        <extensions>
          <ns3:TrackPointExtension>
            <ns3:atemp>24.0</ns3:atemp>
          </ns3:TrackPointExtension>
        </extensions>
      </trkpt>
      <trkpt lat="42.5147692300379276275634765625" lon="19.77288753725588321685791015625">
        <ele>1838</ele>
        <time>2026-06-18T10:23:12.000Z</time>
        <extensions>
          <ns3:TrackPointExtension>
            <ns3:atemp>24.0</ns3:atemp>
          </ns3:TrackPointExtension>
        </extensions>
      </trkpt>
      <trkpt lat="42.5147692300379276275634765625" lon="19.77288753725588321685791015625">
        <ele>1838</ele>
        <time>2026-06-18T10:23:13.000Z</time>
        <extensions>
          <ns3:TrackPointExtension>
            <ns3:atemp>24.0</ns3:atemp>
          </ns3:TrackPointExtension>
        </extensions>
      </trkpt>
      <trkpt lat="42.5147692300379276275634765625" lon="19.77288753725588321685791015625">
        <ele>1838</ele>
        <time>2026-06-18T10:23:14.000Z</time>
        <extensions>
          <ns3:TrackPointExtension>
            <ns3:atemp>24.0</ns3:atemp>
          </ns3:TrackPointExtension>
        </extensions>
      </trkpt>
      <trkpt lat="42.5147692300379276275634765625" lon="19.77288753725588321685791015625">
        <ele>1838</ele>
        <time>2026-06-18T10:23:15.000Z</time>
        <extensions>
          <ns3:TrackPointExtension>
            <ns3:atemp>24.0</ns3:atemp>
          </ns3:TrackPointExtension>
        </extensions>
      </trkpt>
      <trkpt lat="42.5147692300379276275634765625" lon="19.77288753725588321685791015625">
        <ele>1838</ele>
        <time>2026-06-18T10:23:16.000Z</time>
        <extensions>
          <ns3:TrackPointExtension>
            <ns3:atemp>24.0</ns3:atemp>
          </ns3:TrackPointExtension>
        </extensions>
      </trkpt>
      <trkpt lat="42.5147692300379276275634765625" lon="19.77288753725588321685791015625">
        <ele>1838</ele>
        <time>2026-06-18T10:23:17.000Z</time>
        <extensions>
          <ns3:TrackPointExtension>
            <ns3:atemp>24.0</ns3:atemp>
          </ns3:TrackPointExtension>
        </extensions>
      </trkpt>
      <trkpt lat="42.5147692300379276275634765625" lon="19.77288753725588321685791015625">
        <ele>1838</ele>
        <time>2026-06-18T10:23:18.000Z</time>
        <extensions>
          <ns3:TrackPointExtension>
            <ns3:atemp>24.0</ns3:atemp>
          </ns3:TrackPointExtension>
        </extensions>
      </trkpt>
      <trkpt lat="42.5147692300379276275634765625" lon="19.77288753725588321685791015625">
        <ele>1838</ele>
        <time>2026-06-18T10:23:19.000Z</time>
        <extensions>
          <ns3:TrackPointExtension>
            <ns3:atemp>24.0</ns3:atemp>
          </ns3:TrackPointExtension>
        </extensions>
      </trkpt>
      <trkpt lat="42.5147692300379276275634765625" lon="19.77288753725588321685791015625">
        <ele>1838</ele>
        <time>2026-06-18T10:23:20.000Z</time>
        <extensions>
          <ns3:TrackPointExtension>
            <ns3:atemp>24.0</ns3:atemp>
          </ns3:TrackPointExtension>
        </extensions>
      </trkpt>
      <trkpt lat="42.5147692300379276275634765625" lon="19.77288753725588321685791015625">
        <ele>1838</ele>
        <time>2026-06-18T10:23:21.000Z</time>
        <extensions>
          <ns3:TrackPointExtension>
            <ns3:atemp>24.0</ns3:atemp>
          </ns3:TrackPointExtension>
        </extensions>
      </trkpt>
      <trkpt lat="42.5147692300379276275634765625" lon="19.77288753725588321685791015625">
        <ele>1838</ele>
        <time>2026-06-18T10:23:22.000Z</time>
        <extensions>
          <ns3:TrackPointExtension>
            <ns3:atemp>24.0</ns3:atemp>
          </ns3:TrackPointExtension>
        </extensions>
      </trkpt>
      <trkpt lat="42.5147692300379276275634765625" lon="19.77288753725588321685791015625">
        <ele>1838</ele>
        <time>2026-06-18T10:23:23.000Z</time>
        <extensions>
          <ns3:TrackPointExtension>
            <ns3:atemp>24.0</ns3:atemp>
          </ns3:TrackPointExtension>
        </extensions>
      </trkpt>
      <trkpt lat="42.5147692300379276275634765625" lon="19.77288753725588321685791015625">
        <ele>1838</ele>
        <time>2026-06-18T10:23:24.000Z</time>
        <extensions>
          <ns3:TrackPointExtension>
            <ns3:atemp>24.0</ns3:atemp>
          </ns3:TrackPointExtension>
        </extensions>
      </trkpt>
      <trkpt lat="42.5147692300379276275634765625" lon="19.77288753725588321685791015625">
        <ele>1838</ele>
        <time>2026-06-18T10:23:25.000Z</time>
        <extensions>
          <ns3:TrackPointExtension>
            <ns3:atemp>24.0</ns3:atemp>
          </ns3:TrackPointExtension>
        </extensions>
      </trkpt>
      <trkpt lat="42.5147692300379276275634765625" lon="19.77288753725588321685791015625">
        <ele>1838</ele>
        <time>2026-06-18T10:23:26.000Z</time>
        <extensions>
          <ns3:TrackPointExtension>
            <ns3:atemp>24.0</ns3:atemp>
          </ns3:TrackPointExtension>
        </extensions>
      </trkpt>
      <trkpt lat="42.5147692300379276275634765625" lon="19.77288753725588321685791015625">
        <ele>1838</ele>
        <time>2026-06-18T10:23:27.000Z</time>
        <extensions>
          <ns3:TrackPointExtension>
            <ns3:atemp>24.0</ns3:atemp>
          </ns3:TrackPointExtension>
        </extensions>
      </trkpt>
      <trkpt lat="42.5147692300379276275634765625" lon="19.77288753725588321685791015625">
        <ele>1838</ele>
        <time>2026-06-18T10:23:28.000Z</time>
        <extensions>
          <ns3:TrackPointExtension>
            <ns3:atemp>24.0</ns3:atemp>
          </ns3:TrackPointExtension>
        </extensions>
      </trkpt>
      <trkpt lat="42.5147692300379276275634765625" lon="19.77288753725588321685791015625">
        <ele>1838</ele>
        <time>2026-06-18T10:23:29.000Z</time>
        <extensions>
          <ns3:TrackPointExtension>
            <ns3:atemp>24.0</ns3:atemp>
          </ns3:TrackPointExtension>
        </extensions>
      </trkpt>
      <trkpt lat="42.5147692300379276275634765625" lon="19.77288753725588321685791015625">
        <ele>1838</ele>
        <time>2026-06-18T10:23:30.000Z</time>
        <extensions>
          <ns3:TrackPointExtension>
            <ns3:atemp>24.0</ns3:atemp>
          </ns3:TrackPointExtension>
        </extensions>
      </trkpt>
      <trkpt lat="42.5147692300379276275634765625" lon="19.77288753725588321685791015625">
        <ele>1838</ele>
        <time>2026-06-18T10:23:31.000Z</time>
        <extensions>
          <ns3:TrackPointExtension>
            <ns3:atemp>24.0</ns3:atemp>
          </ns3:TrackPointExtension>
        </extensions>
      </trkpt>
      <trkpt lat="42.5147692300379276275634765625" lon="19.77288753725588321685791015625">
        <ele>1838</ele>
        <time>2026-06-18T10:23:32.000Z</time>
        <extensions>
          <ns3:TrackPointExtension>
            <ns3:atemp>24.0</ns3:atemp>
          </ns3:TrackPointExtension>
        </extensions>
      </trkpt>
      <trkpt lat="42.5147692300379276275634765625" lon="19.77288753725588321685791015625">
        <ele>1838</ele>
        <time>2026-06-18T10:23:33.000Z</time>
        <extensions>
          <ns3:TrackPointExtension>
            <ns3:atemp>24.0</ns3:atemp>
          </ns3:TrackPointExtension>
        </extensions>
      </trkpt>
      <trkpt lat="42.5147692300379276275634765625" lon="19.77288753725588321685791015625">
        <ele>1838</ele>
        <time>2026-06-18T10:23:34.000Z</time>
        <extensions>
          <ns3:TrackPointExtension>
            <ns3:atemp>24.0</ns3:atemp>
          </ns3:TrackPointExtension>
        </extensions>
      </trkpt>
      <trkpt lat="42.5147692300379276275634765625" lon="19.77288753725588321685791015625">
        <ele>1838</ele>
        <time>2026-06-18T10:23:35.000Z</time>
        <extensions>
          <ns3:TrackPointExtension>
            <ns3:atemp>24.0</ns3:atemp>
          </ns3:TrackPointExtension>
        </extensions>
      </trkpt>
      <trkpt lat="42.5147692300379276275634765625" lon="19.77288753725588321685791015625">
        <ele>1838</ele>
        <time>2026-06-18T10:23:36.000Z</time>
        <extensions>
          <ns3:TrackPointExtension>
            <ns3:atemp>24.0</ns3:atemp>
          </ns3:TrackPointExtension>
        </extensions>
      </trkpt>
      <trkpt lat="42.5147692300379276275634765625" lon="19.77288753725588321685791015625">
        <ele>1838</ele>
        <time>2026-06-18T10:23:37.000Z</time>
        <extensions>
          <ns3:TrackPointExtension>
            <ns3:atemp>24.0</ns3:atemp>
          </ns3:TrackPointExtension>
        </extensions>
      </trkpt>
      <trkpt lat="42.5147692300379276275634765625" lon="19.77288753725588321685791015625">
        <ele>1838</ele>
        <time>2026-06-18T10:23:38.000Z</time>
        <extensions>
          <ns3:TrackPointExtension>
            <ns3:atemp>24.0</ns3:atemp>
          </ns3:TrackPointExtension>
        </extensions>
      </trkpt>
      <trkpt lat="42.5147692300379276275634765625" lon="19.77288753725588321685791015625">
        <ele>1838</ele>
        <time>2026-06-18T10:23:39.000Z</time>
        <extensions>
          <ns3:TrackPointExtension>
            <ns3:atemp>24.0</ns3:atemp>
          </ns3:TrackPointExtension>
        </extensions>
      </trkpt>
      <trkpt lat="42.5147692300379276275634765625" lon="19.77288753725588321685791015625">
        <ele>1838</ele>
        <time>2026-06-18T10:23:40.000Z</time>
        <extensions>
          <ns3:TrackPointExtension>
            <ns3:atemp>24.0</ns3:atemp>
          </ns3:TrackPointExtension>
        </extensions>
      </trkpt>
      <trkpt lat="42.5147692300379276275634765625" lon="19.77288753725588321685791015625">
        <ele>1838</ele>
        <time>2026-06-18T10:23:41.000Z</time>
        <extensions>
          <ns3:TrackPointExtension>
            <ns3:atemp>24.0</ns3:atemp>
          </ns3:TrackPointExtension>
        </extensions>
      </trkpt>
      <trkpt lat="42.5147692300379276275634765625" lon="19.77288753725588321685791015625">
        <ele>1838</ele>
        <time>2026-06-18T10:23:42.000Z</time>
        <extensions>
          <ns3:TrackPointExtension>
            <ns3:atemp>24.0</ns3:atemp>
          </ns3:TrackPointExtension>
        </extensions>
      </trkpt>
      <trkpt lat="42.5147692300379276275634765625" lon="19.77288753725588321685791015625">
        <ele>1838</ele>
        <time>2026-06-18T10:23:43.000Z</time>
        <extensions>
          <ns3:TrackPointExtension>
            <ns3:atemp>24.0</ns3:atemp>
          </ns3:TrackPointExtension>
        </extensions>
      </trkpt>
      <trkpt lat="42.5147692300379276275634765625" lon="19.77288753725588321685791015625">
        <ele>1838</ele>
        <time>2026-06-18T10:23:44.000Z</time>
        <extensions>
          <ns3:TrackPointExtension>
            <ns3:atemp>24.0</ns3:atemp>
          </ns3:TrackPointExtension>
        </extensions>
      </trkpt>
      <trkpt lat="42.5147692300379276275634765625" lon="19.77288753725588321685791015625">
        <ele>1838</ele>
        <time>2026-06-18T10:23:45.000Z</time>
        <extensions>
          <ns3:TrackPointExtension>
            <ns3:atemp>24.0</ns3:atemp>
          </ns3:TrackPointExtension>
        </extensions>
      </trkpt>
      <trkpt lat="42.5147692300379276275634765625" lon="19.77288753725588321685791015625">
        <ele>1838</ele>
        <time>2026-06-18T10:23:46.000Z</time>
        <extensions>
          <ns3:TrackPointExtension>
            <ns3:atemp>24.0</ns3:atemp>
          </ns3:TrackPointExtension>
        </extensions>
      </trkpt>
      <trkpt lat="42.5147692300379276275634765625" lon="19.77288753725588321685791015625">
        <ele>1838</ele>
        <time>2026-06-18T10:23:47.000Z</time>
        <extensions>
          <ns3:TrackPointExtension>
            <ns3:atemp>24.0</ns3:atemp>
          </ns3:TrackPointExtension>
        </extensions>
      </trkpt>
      <trkpt lat="42.5147692300379276275634765625" lon="19.77288753725588321685791015625">
        <ele>1838</ele>
        <time>2026-06-18T10:23:48.000Z</time>
        <extensions>
          <ns3:TrackPointExtension>
            <ns3:atemp>24.0</ns3:atemp>
          </ns3:TrackPointExtension>
        </extensions>
      </trkpt>
      <trkpt lat="42.5147692300379276275634765625" lon="19.77288753725588321685791015625">
        <ele>1838</ele>
        <time>2026-06-18T10:23:49.000Z</time>
        <extensions>
          <ns3:TrackPointExtension>
            <ns3:atemp>24.0</ns3:atemp>
          </ns3:TrackPointExtension>
        </extensions>
      </trkpt>
      <trkpt lat="42.5147692300379276275634765625" lon="19.77288753725588321685791015625">
        <ele>1838</ele>
        <time>2026-06-18T10:23:50.000Z</time>
        <extensions>
          <ns3:TrackPointExtension>
            <ns3:atemp>24.0</ns3:atemp>
          </ns3:TrackPointExtension>
        </extensions>
      </trkpt>
      <trkpt lat="42.5147692300379276275634765625" lon="19.77288753725588321685791015625">
        <ele>1838</ele>
        <time>2026-06-18T10:23:51.000Z</time>
        <extensions>
          <ns3:TrackPointExtension>
            <ns3:atemp>24.0</ns3:atemp>
          </ns3:TrackPointExtension>
        </extensions>
      </trkpt>
      <trkpt lat="42.5147692300379276275634765625" lon="19.77288753725588321685791015625">
        <ele>1838</ele>
        <time>2026-06-18T10:23:52.000Z</time>
        <extensions>
          <ns3:TrackPointExtension>
            <ns3:atemp>24.0</ns3:atemp>
          </ns3:TrackPointExtension>
        </extensions>
      </trkpt>
      <trkpt lat="42.5147692300379276275634765625" lon="19.77288753725588321685791015625">
        <ele>1838</ele>
        <time>2026-06-18T10:23:53.000Z</time>
        <extensions>
          <ns3:TrackPointExtension>
            <ns3:atemp>24.0</ns3:atemp>
          </ns3:TrackPointExtension>
        </extensions>
      </trkpt>
      <trkpt lat="42.5147692300379276275634765625" lon="19.77288753725588321685791015625">
        <ele>1838</ele>
        <time>2026-06-18T10:23:54.000Z</time>
        <extensions>
          <ns3:TrackPointExtension>
            <ns3:atemp>24.0</ns3:atemp>
          </ns3:TrackPointExtension>
        </extensions>
      </trkpt>
      <trkpt lat="42.5147692300379276275634765625" lon="19.77288753725588321685791015625">
        <ele>1838</ele>
        <time>2026-06-18T10:23:55.000Z</time>
        <extensions>
          <ns3:TrackPointExtension>
            <ns3:atemp>24.0</ns3:atemp>
          </ns3:TrackPointExtension>
        </extensions>
      </trkpt>
      <trkpt lat="42.5147692300379276275634765625" lon="19.77288753725588321685791015625">
        <ele>1838</ele>
        <time>2026-06-18T10:23:56.000Z</time>
        <extensions>
          <ns3:TrackPointExtension>
            <ns3:atemp>24.0</ns3:atemp>
          </ns3:TrackPointExtension>
        </extensions>
      </trkpt>
      <trkpt lat="42.5147692300379276275634765625" lon="19.77288753725588321685791015625">
        <ele>1838</ele>
        <time>2026-06-18T10:23:57.000Z</time>
        <extensions>
          <ns3:TrackPointExtension>
            <ns3:atemp>24.0</ns3:atemp>
          </ns3:TrackPointExtension>
        </extensions>
      </trkpt>
      <trkpt lat="42.5147692300379276275634765625" lon="19.77288753725588321685791015625">
        <ele>1838</ele>
        <time>2026-06-18T10:23:58.000Z</time>
        <extensions>
          <ns3:TrackPointExtension>
            <ns3:atemp>24.0</ns3:atemp>
          </ns3:TrackPointExtension>
        </extensions>
      </trkpt>
      <trkpt lat="42.5147692300379276275634765625" lon="19.77288753725588321685791015625">
        <ele>1838</ele>
        <time>2026-06-18T10:23:59.000Z</time>
        <extensions>
          <ns3:TrackPointExtension>
            <ns3:atemp>24.0</ns3:atemp>
          </ns3:TrackPointExtension>
        </extensions>
      </trkpt>
      <trkpt lat="42.5147692300379276275634765625" lon="19.77288753725588321685791015625">
        <ele>1838</ele>
        <time>2026-06-18T10:24:00.000Z</time>
        <extensions>
          <ns3:TrackPointExtension>
            <ns3:atemp>24.0</ns3:atemp>
          </ns3:TrackPointExtension>
        </extensions>
      </trkpt>
      <trkpt lat="42.5147692300379276275634765625" lon="19.77288753725588321685791015625">
        <ele>1838</ele>
        <time>2026-06-18T10:24:01.000Z</time>
        <extensions>
          <ns3:TrackPointExtension>
            <ns3:atemp>24.0</ns3:atemp>
          </ns3:TrackPointExtension>
        </extensions>
      </trkpt>
      <trkpt lat="42.5147692300379276275634765625" lon="19.77288753725588321685791015625">
        <ele>1838</ele>
        <time>2026-06-18T10:24:02.000Z</time>
        <extensions>
          <ns3:TrackPointExtension>
            <ns3:atemp>24.0</ns3:atemp>
          </ns3:TrackPointExtension>
        </extensions>
      </trkpt>
      <trkpt lat="42.5147692300379276275634765625" lon="19.77288753725588321685791015625">
        <ele>1838</ele>
        <time>2026-06-18T10:24:03.000Z</time>
        <extensions>
          <ns3:TrackPointExtension>
            <ns3:atemp>24.0</ns3:atemp>
          </ns3:TrackPointExtension>
        </extensions>
      </trkpt>
      <trkpt lat="42.5147692300379276275634765625" lon="19.77288753725588321685791015625">
        <ele>1838</ele>
        <time>2026-06-18T10:24:04.000Z</time>
        <extensions>
          <ns3:TrackPointExtension>
            <ns3:atemp>24.0</ns3:atemp>
          </ns3:TrackPointExtension>
        </extensions>
      </trkpt>
      <trkpt lat="42.5147692300379276275634765625" lon="19.77288753725588321685791015625">
        <ele>1838</ele>
        <time>2026-06-18T10:24:05.000Z</time>
        <extensions>
          <ns3:TrackPointExtension>
            <ns3:atemp>24.0</ns3:atemp>
          </ns3:TrackPointExtension>
        </extensions>
      </trkpt>
      <trkpt lat="42.5147692300379276275634765625" lon="19.77288753725588321685791015625">
        <ele>1838</ele>
        <time>2026-06-18T10:24:06.000Z</time>
        <extensions>
          <ns3:TrackPointExtension>
            <ns3:atemp>24.0</ns3:atemp>
          </ns3:TrackPointExtension>
        </extensions>
      </trkpt>
      <trkpt lat="42.5147692300379276275634765625" lon="19.77288753725588321685791015625">
        <ele>1838</ele>
        <time>2026-06-18T10:24:07.000Z</time>
        <extensions>
          <ns3:TrackPointExtension>
            <ns3:atemp>24.0</ns3:atemp>
          </ns3:TrackPointExtension>
        </extensions>
      </trkpt>
      <trkpt lat="42.5147692300379276275634765625" lon="19.77288753725588321685791015625">
        <ele>1838</ele>
        <time>2026-06-18T10:24:08.000Z</time>
        <extensions>
          <ns3:TrackPointExtension>
            <ns3:atemp>24.0</ns3:atemp>
          </ns3:TrackPointExtension>
        </extensions>
      </trkpt>
      <trkpt lat="42.5147692300379276275634765625" lon="19.77288753725588321685791015625">
        <ele>1838</ele>
        <time>2026-06-18T10:24:09.000Z</time>
        <extensions>
          <ns3:TrackPointExtension>
            <ns3:atemp>24.0</ns3:atemp>
          </ns3:TrackPointExtension>
        </extensions>
      </trkpt>
      <trkpt lat="42.5147692300379276275634765625" lon="19.77288753725588321685791015625">
        <ele>1838</ele>
        <time>2026-06-18T10:24:10.000Z</time>
        <extensions>
          <ns3:TrackPointExtension>
            <ns3:atemp>24.0</ns3:atemp>
          </ns3:TrackPointExtension>
        </extensions>
      </trkpt>
      <trkpt lat="42.5147692300379276275634765625" lon="19.77288753725588321685791015625">
        <ele>1838</ele>
        <time>2026-06-18T10:24:11.000Z</time>
        <extensions>
          <ns3:TrackPointExtension>
            <ns3:atemp>24.0</ns3:atemp>
          </ns3:TrackPointExtension>
        </extensions>
      </trkpt>
      <trkpt lat="42.5147692300379276275634765625" lon="19.77288753725588321685791015625">
        <ele>1838</ele>
        <time>2026-06-18T10:24:12.000Z</time>
        <extensions>
          <ns3:TrackPointExtension>
            <ns3:atemp>24.0</ns3:atemp>
          </ns3:TrackPointExtension>
        </extensions>
      </trkpt>
      <trkpt lat="42.5147692300379276275634765625" lon="19.77288753725588321685791015625">
        <ele>1838</ele>
        <time>2026-06-18T10:24:13.000Z</time>
        <extensions>
          <ns3:TrackPointExtension>
            <ns3:atemp>24.0</ns3:atemp>
          </ns3:TrackPointExtension>
        </extensions>
      </trkpt>
      <trkpt lat="42.5147692300379276275634765625" lon="19.77288753725588321685791015625">
        <ele>1838</ele>
        <time>2026-06-18T10:24:14.000Z</time>
        <extensions>
          <ns3:TrackPointExtension>
            <ns3:atemp>24.0</ns3:atemp>
          </ns3:TrackPointExtension>
        </extensions>
      </trkpt>
      <trkpt lat="42.5147692300379276275634765625" lon="19.77288753725588321685791015625">
        <ele>1838</ele>
        <time>2026-06-18T10:24:15.000Z</time>
        <extensions>
          <ns3:TrackPointExtension>
            <ns3:atemp>24.0</ns3:atemp>
          </ns3:TrackPointExtension>
        </extensions>
      </trkpt>
      <trkpt lat="42.5147692300379276275634765625" lon="19.77288753725588321685791015625">
        <ele>1838</ele>
        <time>2026-06-18T10:24:16.000Z</time>
        <extensions>
          <ns3:TrackPointExtension>
            <ns3:atemp>24.0</ns3:atemp>
          </ns3:TrackPointExtension>
        </extensions>
      </trkpt>
      <trkpt lat="42.5147692300379276275634765625" lon="19.77288753725588321685791015625">
        <ele>1838</ele>
        <time>2026-06-18T10:24:17.000Z</time>
        <extensions>
          <ns3:TrackPointExtension>
            <ns3:atemp>24.0</ns3:atemp>
          </ns3:TrackPointExtension>
        </extensions>
      </trkpt>
      <trkpt lat="42.5147692300379276275634765625" lon="19.77288753725588321685791015625">
        <ele>1838</ele>
        <time>2026-06-18T10:24:18.000Z</time>
        <extensions>
          <ns3:TrackPointExtension>
            <ns3:atemp>24.0</ns3:atemp>
          </ns3:TrackPointExtension>
        </extensions>
      </trkpt>
      <trkpt lat="42.5147692300379276275634765625" lon="19.77288753725588321685791015625">
        <ele>1838</ele>
        <time>2026-06-18T10:24:19.000Z</time>
        <extensions>
          <ns3:TrackPointExtension>
            <ns3:atemp>24.0</ns3:atemp>
          </ns3:TrackPointExtension>
        </extensions>
      </trkpt>
      <trkpt lat="42.5147692300379276275634765625" lon="19.77288753725588321685791015625">
        <ele>1838</ele>
        <time>2026-06-18T10:24:20.000Z</time>
        <extensions>
          <ns3:TrackPointExtension>
            <ns3:atemp>24.0</ns3:atemp>
          </ns3:TrackPointExtension>
        </extensions>
      </trkpt>
      <trkpt lat="42.5147692300379276275634765625" lon="19.77288753725588321685791015625">
        <ele>1838</ele>
        <time>2026-06-18T10:24:21.000Z</time>
        <extensions>
          <ns3:TrackPointExtension>
            <ns3:atemp>24.0</ns3:atemp>
          </ns3:TrackPointExtension>
        </extensions>
      </trkpt>
      <trkpt lat="42.5147692300379276275634765625" lon="19.77288753725588321685791015625">
        <ele>1838</ele>
        <time>2026-06-18T10:24:22.000Z</time>
        <extensions>
          <ns3:TrackPointExtension>
            <ns3:atemp>24.0</ns3:atemp>
          </ns3:TrackPointExtension>
        </extensions>
      </trkpt>
      <trkpt lat="42.5147692300379276275634765625" lon="19.77288753725588321685791015625">
        <ele>1838</ele>
        <time>2026-06-18T10:24:23.000Z</time>
        <extensions>
          <ns3:TrackPointExtension>
            <ns3:atemp>24.0</ns3:atemp>
          </ns3:TrackPointExtension>
        </extensions>
      </trkpt>
      <trkpt lat="42.5147692300379276275634765625" lon="19.77288753725588321685791015625">
        <ele>1838</ele>
        <time>2026-06-18T10:24:24.000Z</time>
        <extensions>
          <ns3:TrackPointExtension>
            <ns3:atemp>24.0</ns3:atemp>
          </ns3:TrackPointExtension>
        </extensions>
      </trkpt>
      <trkpt lat="42.5147692300379276275634765625" lon="19.77288753725588321685791015625">
        <ele>1838</ele>
        <time>2026-06-18T10:24:25.000Z</time>
        <extensions>
          <ns3:TrackPointExtension>
            <ns3:atemp>24.0</ns3:atemp>
          </ns3:TrackPointExtension>
        </extensions>
      </trkpt>
      <trkpt lat="42.5147692300379276275634765625" lon="19.77288753725588321685791015625">
        <ele>1838</ele>
        <time>2026-06-18T10:24:26.000Z</time>
        <extensions>
          <ns3:TrackPointExtension>
            <ns3:atemp>24.0</ns3:atemp>
          </ns3:TrackPointExtension>
        </extensions>
      </trkpt>
      <trkpt lat="42.5147692300379276275634765625" lon="19.77288753725588321685791015625">
        <ele>1838</ele>
        <time>2026-06-18T10:24:27.000Z</time>
        <extensions>
          <ns3:TrackPointExtension>
            <ns3:atemp>24.0</ns3:atemp>
          </ns3:TrackPointExtension>
        </extensions>
      </trkpt>
      <trkpt lat="42.5147692300379276275634765625" lon="19.77288753725588321685791015625">
        <ele>1838</ele>
        <time>2026-06-18T10:24:28.000Z</time>
        <extensions>
          <ns3:TrackPointExtension>
            <ns3:atemp>24.0</ns3:atemp>
          </ns3:TrackPointExtension>
        </extensions>
      </trkpt>
      <trkpt lat="42.5147692300379276275634765625" lon="19.77288753725588321685791015625">
        <ele>1838</ele>
        <time>2026-06-18T10:24:29.000Z</time>
        <extensions>
          <ns3:TrackPointExtension>
            <ns3:atemp>24.0</ns3:atemp>
          </ns3:TrackPointExtension>
        </extensions>
      </trkpt>
      <trkpt lat="42.5147692300379276275634765625" lon="19.77288753725588321685791015625">
        <ele>1838</ele>
        <time>2026-06-18T10:24:30.000Z</time>
        <extensions>
          <ns3:TrackPointExtension>
            <ns3:atemp>24.0</ns3:atemp>
          </ns3:TrackPointExtension>
        </extensions>
      </trkpt>
      <trkpt lat="42.5147692300379276275634765625" lon="19.77288753725588321685791015625">
        <ele>1838</ele>
        <time>2026-06-18T10:24:31.000Z</time>
        <extensions>
          <ns3:TrackPointExtension>
            <ns3:atemp>24.0</ns3:atemp>
          </ns3:TrackPointExtension>
        </extensions>
      </trkpt>
      <trkpt lat="42.5147692300379276275634765625" lon="19.77288753725588321685791015625">
        <ele>1838</ele>
        <time>2026-06-18T10:24:32.000Z</time>
        <extensions>
          <ns3:TrackPointExtension>
            <ns3:atemp>24.0</ns3:atemp>
          </ns3:TrackPointExtension>
        </extensions>
      </trkpt>
      <trkpt lat="42.5147692300379276275634765625" lon="19.77288753725588321685791015625">
        <ele>1838</ele>
        <time>2026-06-18T10:24:33.000Z</time>
        <extensions>
          <ns3:TrackPointExtension>
            <ns3:atemp>24.0</ns3:atemp>
          </ns3:TrackPointExtension>
        </extensions>
      </trkpt>
      <trkpt lat="42.5147692300379276275634765625" lon="19.77288753725588321685791015625">
        <ele>1838</ele>
        <time>2026-06-18T10:24:34.000Z</time>
        <extensions>
          <ns3:TrackPointExtension>
            <ns3:atemp>24.0</ns3:atemp>
          </ns3:TrackPointExtension>
        </extensions>
      </trkpt>
      <trkpt lat="42.5147692300379276275634765625" lon="19.77288753725588321685791015625">
        <ele>1838</ele>
        <time>2026-06-18T10:24:35.000Z</time>
        <extensions>
          <ns3:TrackPointExtension>
            <ns3:atemp>24.0</ns3:atemp>
          </ns3:TrackPointExtension>
        </extensions>
      </trkpt>
      <trkpt lat="42.5147692300379276275634765625" lon="19.77288753725588321685791015625">
        <ele>1838</ele>
        <time>2026-06-18T10:24:36.000Z</time>
        <extensions>
          <ns3:TrackPointExtension>
            <ns3:atemp>24.0</ns3:atemp>
          </ns3:TrackPointExtension>
        </extensions>
      </trkpt>
      <trkpt lat="42.5147692300379276275634765625" lon="19.77288753725588321685791015625">
        <ele>1838</ele>
        <time>2026-06-18T10:24:37.000Z</time>
        <extensions>
          <ns3:TrackPointExtension>
            <ns3:atemp>24.0</ns3:atemp>
          </ns3:TrackPointExtension>
        </extensions>
      </trkpt>
      <trkpt lat="42.5147692300379276275634765625" lon="19.77288753725588321685791015625">
        <ele>1838</ele>
        <time>2026-06-18T10:24:38.000Z</time>
        <extensions>
          <ns3:TrackPointExtension>
            <ns3:atemp>24.0</ns3:atemp>
          </ns3:TrackPointExtension>
        </extensions>
      </trkpt>
      <trkpt lat="42.5147692300379276275634765625" lon="19.77288753725588321685791015625">
        <ele>1838</ele>
        <time>2026-06-18T10:24:39.000Z</time>
        <extensions>
          <ns3:TrackPointExtension>
            <ns3:atemp>24.0</ns3:atemp>
          </ns3:TrackPointExtension>
        </extensions>
      </trkpt>
      <trkpt lat="42.5147692300379276275634765625" lon="19.77288753725588321685791015625">
        <ele>1838</ele>
        <time>2026-06-18T10:24:40.000Z</time>
        <extensions>
          <ns3:TrackPointExtension>
            <ns3:atemp>24.0</ns3:atemp>
          </ns3:TrackPointExtension>
        </extensions>
      </trkpt>
      <trkpt lat="42.5147692300379276275634765625" lon="19.77288753725588321685791015625">
        <ele>1838</ele>
        <time>2026-06-18T10:24:41.000Z</time>
        <extensions>
          <ns3:TrackPointExtension>
            <ns3:atemp>24.0</ns3:atemp>
          </ns3:TrackPointExtension>
        </extensions>
      </trkpt>
      <trkpt lat="42.5147692300379276275634765625" lon="19.77288753725588321685791015625">
        <ele>1838</ele>
        <time>2026-06-18T10:24:42.000Z</time>
        <extensions>
          <ns3:TrackPointExtension>
            <ns3:atemp>24.0</ns3:atemp>
          </ns3:TrackPointExtension>
        </extensions>
      </trkpt>
      <trkpt lat="42.5147692300379276275634765625" lon="19.77288753725588321685791015625">
        <ele>1838</ele>
        <time>2026-06-18T10:24:43.000Z</time>
        <extensions>
          <ns3:TrackPointExtension>
            <ns3:atemp>24.0</ns3:atemp>
          </ns3:TrackPointExtension>
        </extensions>
      </trkpt>
      <trkpt lat="42.5147692300379276275634765625" lon="19.77288753725588321685791015625">
        <ele>1838</ele>
        <time>2026-06-18T10:24:44.000Z</time>
        <extensions>
          <ns3:TrackPointExtension>
            <ns3:atemp>24.0</ns3:atemp>
          </ns3:TrackPointExtension>
        </extensions>
      </trkpt>
      <trkpt lat="42.5147692300379276275634765625" lon="19.77288753725588321685791015625">
        <ele>1838</ele>
        <time>2026-06-18T10:24:45.000Z</time>
        <extensions>
          <ns3:TrackPointExtension>
            <ns3:atemp>24.0</ns3:atemp>
          </ns3:TrackPointExtension>
        </extensions>
      </trkpt>
      <trkpt lat="42.5147692300379276275634765625" lon="19.77288753725588321685791015625">
        <ele>1838</ele>
        <time>2026-06-18T10:24:46.000Z</time>
        <extensions>
          <ns3:TrackPointExtension>
            <ns3:atemp>24.0</ns3:atemp>
          </ns3:TrackPointExtension>
        </extensions>
      </trkpt>
      <trkpt lat="42.5147692300379276275634765625" lon="19.77288753725588321685791015625">
        <ele>1838</ele>
        <time>2026-06-18T10:24:47.000Z</time>
        <extensions>
          <ns3:TrackPointExtension>
            <ns3:atemp>24.0</ns3:atemp>
          </ns3:TrackPointExtension>
        </extensions>
      </trkpt>
      <trkpt lat="42.5147692300379276275634765625" lon="19.77288753725588321685791015625">
        <ele>1838</ele>
        <time>2026-06-18T10:24:48.000Z</time>
        <extensions>
          <ns3:TrackPointExtension>
            <ns3:atemp>24.0</ns3:atemp>
          </ns3:TrackPointExtension>
        </extensions>
      </trkpt>
      <trkpt lat="42.5147692300379276275634765625" lon="19.77288753725588321685791015625">
        <ele>1838</ele>
        <time>2026-06-18T10:24:49.000Z</time>
        <extensions>
          <ns3:TrackPointExtension>
            <ns3:atemp>24.0</ns3:atemp>
          </ns3:TrackPointExtension>
        </extensions>
      </trkpt>
      <trkpt lat="42.5147692300379276275634765625" lon="19.77288753725588321685791015625">
        <ele>1838</ele>
        <time>2026-06-18T10:24:50.000Z</time>
        <extensions>
          <ns3:TrackPointExtension>
            <ns3:atemp>24.0</ns3:atemp>
          </ns3:TrackPointExtension>
        </extensions>
      </trkpt>
      <trkpt lat="42.5147692300379276275634765625" lon="19.77288753725588321685791015625">
        <ele>1838</ele>
        <time>2026-06-18T10:24:51.000Z</time>
        <extensions>
          <ns3:TrackPointExtension>
            <ns3:atemp>24.0</ns3:atemp>
          </ns3:TrackPointExtension>
        </extensions>
      </trkpt>
      <trkpt lat="42.5147692300379276275634765625" lon="19.77288753725588321685791015625">
        <ele>1838</ele>
        <time>2026-06-18T10:24:52.000Z</time>
        <extensions>
          <ns3:TrackPointExtension>
            <ns3:atemp>24.0</ns3:atemp>
          </ns3:TrackPointExtension>
        </extensions>
      </trkpt>
      <trkpt lat="42.5147692300379276275634765625" lon="19.77288753725588321685791015625">
        <ele>1838</ele>
        <time>2026-06-18T10:24:53.000Z</time>
        <extensions>
          <ns3:TrackPointExtension>
            <ns3:atemp>24.0</ns3:atemp>
          </ns3:TrackPointExtension>
        </extensions>
      </trkpt>
      <trkpt lat="42.5147692300379276275634765625" lon="19.77288753725588321685791015625">
        <ele>1838</ele>
        <time>2026-06-18T10:24:54.000Z</time>
        <extensions>
          <ns3:TrackPointExtension>
            <ns3:atemp>24.0</ns3:atemp>
          </ns3:TrackPointExtension>
        </extensions>
      </trkpt>
      <trkpt lat="42.5147692300379276275634765625" lon="19.77288753725588321685791015625">
        <ele>1838</ele>
        <time>2026-06-18T10:24:55.000Z</time>
        <extensions>
          <ns3:TrackPointExtension>
            <ns3:atemp>24.0</ns3:atemp>
          </ns3:TrackPointExtension>
        </extensions>
      </trkpt>
      <trkpt lat="42.5147692300379276275634765625" lon="19.77288753725588321685791015625">
        <ele>1838</ele>
        <time>2026-06-18T10:24:56.000Z</time>
        <extensions>
          <ns3:TrackPointExtension>
            <ns3:atemp>24.0</ns3:atemp>
          </ns3:TrackPointExtension>
        </extensions>
      </trkpt>
      <trkpt lat="42.5147692300379276275634765625" lon="19.77288753725588321685791015625">
        <ele>1838</ele>
        <time>2026-06-18T10:24:57.000Z</time>
        <extensions>
          <ns3:TrackPointExtension>
            <ns3:atemp>24.0</ns3:atemp>
          </ns3:TrackPointExtension>
        </extensions>
      </trkpt>
      <trkpt lat="42.5147692300379276275634765625" lon="19.77288753725588321685791015625">
        <ele>1838</ele>
        <time>2026-06-18T10:24:58.000Z</time>
        <extensions>
          <ns3:TrackPointExtension>
            <ns3:atemp>24.0</ns3:atemp>
          </ns3:TrackPointExtension>
        </extensions>
      </trkpt>
      <trkpt lat="42.5147692300379276275634765625" lon="19.77288753725588321685791015625">
        <ele>1838</ele>
        <time>2026-06-18T10:24:59.000Z</time>
        <extensions>
          <ns3:TrackPointExtension>
            <ns3:atemp>24.0</ns3:atemp>
          </ns3:TrackPointExtension>
        </extensions>
      </trkpt>
      <trkpt lat="42.5147692300379276275634765625" lon="19.77288753725588321685791015625">
        <ele>1838</ele>
        <time>2026-06-18T10:25:00.000Z</time>
        <extensions>
          <ns3:TrackPointExtension>
            <ns3:atemp>24.0</ns3:atemp>
          </ns3:TrackPointExtension>
        </extensions>
      </trkpt>
      <trkpt lat="42.5147692300379276275634765625" lon="19.77288753725588321685791015625">
        <ele>1838</ele>
        <time>2026-06-18T10:25:01.000Z</time>
        <extensions>
          <ns3:TrackPointExtension>
            <ns3:atemp>24.0</ns3:atemp>
          </ns3:TrackPointExtension>
        </extensions>
      </trkpt>
      <trkpt lat="42.5147692300379276275634765625" lon="19.77288753725588321685791015625">
        <ele>1838</ele>
        <time>2026-06-18T10:25:02.000Z</time>
        <extensions>
          <ns3:TrackPointExtension>
            <ns3:atemp>24.0</ns3:atemp>
          </ns3:TrackPointExtension>
        </extensions>
      </trkpt>
      <trkpt lat="42.5147692300379276275634765625" lon="19.77288753725588321685791015625">
        <ele>1838</ele>
        <time>2026-06-18T10:25:03.000Z</time>
        <extensions>
          <ns3:TrackPointExtension>
            <ns3:atemp>24.0</ns3:atemp>
          </ns3:TrackPointExtension>
        </extensions>
      </trkpt>
      <trkpt lat="42.5147692300379276275634765625" lon="19.77288753725588321685791015625">
        <ele>1838</ele>
        <time>2026-06-18T10:25:04.000Z</time>
        <extensions>
          <ns3:TrackPointExtension>
            <ns3:atemp>24.0</ns3:atemp>
          </ns3:TrackPointExtension>
        </extensions>
      </trkpt>
      <trkpt lat="42.5147692300379276275634765625" lon="19.77288753725588321685791015625">
        <ele>1838</ele>
        <time>2026-06-18T10:25:05.000Z</time>
        <extensions>
          <ns3:TrackPointExtension>
            <ns3:atemp>24.0</ns3:atemp>
          </ns3:TrackPointExtension>
        </extensions>
      </trkpt>
      <trkpt lat="42.5147692300379276275634765625" lon="19.77288753725588321685791015625">
        <ele>1838</ele>
        <time>2026-06-18T10:25:06.000Z</time>
        <extensions>
          <ns3:TrackPointExtension>
            <ns3:atemp>24.0</ns3:atemp>
          </ns3:TrackPointExtension>
        </extensions>
      </trkpt>
      <trkpt lat="42.5147692300379276275634765625" lon="19.77288753725588321685791015625">
        <ele>1838</ele>
        <time>2026-06-18T10:25:07.000Z</time>
        <extensions>
          <ns3:TrackPointExtension>
            <ns3:atemp>23.0</ns3:atemp>
          </ns3:TrackPointExtension>
        </extensions>
      </trkpt>
      <trkpt lat="42.5147692300379276275634765625" lon="19.77288753725588321685791015625">
        <ele>1838</ele>
        <time>2026-06-18T10:25:08.000Z</time>
        <extensions>
          <ns3:TrackPointExtension>
            <ns3:atemp>23.0</ns3:atemp>
          </ns3:TrackPointExtension>
        </extensions>
      </trkpt>
      <trkpt lat="42.5147692300379276275634765625" lon="19.77288753725588321685791015625">
        <ele>1838</ele>
        <time>2026-06-18T10:25:09.000Z</time>
        <extensions>
          <ns3:TrackPointExtension>
            <ns3:atemp>23.0</ns3:atemp>
          </ns3:TrackPointExtension>
        </extensions>
      </trkpt>
      <trkpt lat="42.5147692300379276275634765625" lon="19.77288753725588321685791015625">
        <ele>1838</ele>
        <time>2026-06-18T10:25:10.000Z</time>
        <extensions>
          <ns3:TrackPointExtension>
            <ns3:atemp>24.0</ns3:atemp>
          </ns3:TrackPointExtension>
        </extensions>
      </trkpt>
      <trkpt lat="42.5147692300379276275634765625" lon="19.77288753725588321685791015625">
        <ele>1838</ele>
        <time>2026-06-18T10:25:11.000Z</time>
        <extensions>
          <ns3:TrackPointExtension>
            <ns3:atemp>23.0</ns3:atemp>
          </ns3:TrackPointExtension>
        </extensions>
      </trkpt>
      <trkpt lat="42.5147692300379276275634765625" lon="19.77288753725588321685791015625">
        <ele>1838</ele>
        <time>2026-06-18T10:25:12.000Z</time>
        <extensions>
          <ns3:TrackPointExtension>
            <ns3:atemp>24.0</ns3:atemp>
          </ns3:TrackPointExtension>
        </extensions>
      </trkpt>
      <trkpt lat="42.5147692300379276275634765625" lon="19.77288753725588321685791015625">
        <ele>1838</ele>
        <time>2026-06-18T10:25:13.000Z</time>
        <extensions>
          <ns3:TrackPointExtension>
            <ns3:atemp>24.0</ns3:atemp>
          </ns3:TrackPointExtension>
        </extensions>
      </trkpt>
      <trkpt lat="42.5147692300379276275634765625" lon="19.77288753725588321685791015625">
        <ele>1838</ele>
        <time>2026-06-18T10:25:14.000Z</time>
        <extensions>
          <ns3:TrackPointExtension>
            <ns3:atemp>24.0</ns3:atemp>
          </ns3:TrackPointExtension>
        </extensions>
      </trkpt>
      <trkpt lat="42.5147692300379276275634765625" lon="19.77288753725588321685791015625">
        <ele>1838</ele>
        <time>2026-06-18T10:25:15.000Z</time>
        <extensions>
          <ns3:TrackPointExtension>
            <ns3:atemp>24.0</ns3:atemp>
          </ns3:TrackPointExtension>
        </extensions>
      </trkpt>
      <trkpt lat="42.5147692300379276275634765625" lon="19.77288753725588321685791015625">
        <ele>1838</ele>
        <time>2026-06-18T10:25:16.000Z</time>
        <extensions>
          <ns3:TrackPointExtension>
            <ns3:atemp>24.0</ns3:atemp>
          </ns3:TrackPointExtension>
        </extensions>
      </trkpt>
      <trkpt lat="42.5147692300379276275634765625" lon="19.77288753725588321685791015625">
        <ele>1838</ele>
        <time>2026-06-18T10:25:17.000Z</time>
        <extensions>
          <ns3:TrackPointExtension>
            <ns3:atemp>24.0</ns3:atemp>
          </ns3:TrackPointExtension>
        </extensions>
      </trkpt>
      <trkpt lat="42.5147692300379276275634765625" lon="19.77288753725588321685791015625">
        <ele>1838</ele>
        <time>2026-06-18T10:25:18.000Z</time>
        <extensions>
          <ns3:TrackPointExtension>
            <ns3:atemp>24.0</ns3:atemp>
          </ns3:TrackPointExtension>
        </extensions>
      </trkpt>
      <trkpt lat="42.5147692300379276275634765625" lon="19.77288753725588321685791015625">
        <ele>1838</ele>
        <time>2026-06-18T10:25:19.000Z</time>
        <extensions>
          <ns3:TrackPointExtension>
            <ns3:atemp>23.0</ns3:atemp>
          </ns3:TrackPointExtension>
        </extensions>
      </trkpt>
      <trkpt lat="42.5147692300379276275634765625" lon="19.77288753725588321685791015625">
        <ele>1838</ele>
        <time>2026-06-18T10:25:20.000Z</time>
        <extensions>
          <ns3:TrackPointExtension>
            <ns3:atemp>23.0</ns3:atemp>
          </ns3:TrackPointExtension>
        </extensions>
      </trkpt>
      <trkpt lat="42.5147692300379276275634765625" lon="19.77288753725588321685791015625">
        <ele>1838</ele>
        <time>2026-06-18T10:25:21.000Z</time>
        <extensions>
          <ns3:TrackPointExtension>
            <ns3:atemp>23.0</ns3:atemp>
          </ns3:TrackPointExtension>
        </extensions>
      </trkpt>
      <trkpt lat="42.5147692300379276275634765625" lon="19.77288753725588321685791015625">
        <ele>1838</ele>
        <time>2026-06-18T10:25:22.000Z</time>
        <extensions>
          <ns3:TrackPointExtension>
            <ns3:atemp>23.0</ns3:atemp>
          </ns3:TrackPointExtension>
        </extensions>
      </trkpt>
      <trkpt lat="42.5147692300379276275634765625" lon="19.77288753725588321685791015625">
        <ele>1838</ele>
        <time>2026-06-18T10:25:23.000Z</time>
        <extensions>
          <ns3:TrackPointExtension>
            <ns3:atemp>23.0</ns3:atemp>
          </ns3:TrackPointExtension>
        </extensions>
      </trkpt>
      <trkpt lat="42.5147692300379276275634765625" lon="19.77288753725588321685791015625">
        <ele>1838</ele>
        <time>2026-06-18T10:25:24.000Z</time>
        <extensions>
          <ns3:TrackPointExtension>
            <ns3:atemp>23.0</ns3:atemp>
          </ns3:TrackPointExtension>
        </extensions>
      </trkpt>
      <trkpt lat="42.5147692300379276275634765625" lon="19.77288753725588321685791015625">
        <ele>1838</ele>
        <time>2026-06-18T10:25:25.000Z</time>
        <extensions>
          <ns3:TrackPointExtension>
            <ns3:atemp>23.0</ns3:atemp>
          </ns3:TrackPointExtension>
        </extensions>
      </trkpt>
      <trkpt lat="42.5147692300379276275634765625" lon="19.77288753725588321685791015625">
        <ele>1838</ele>
        <time>2026-06-18T10:25:26.000Z</time>
        <extensions>
          <ns3:TrackPointExtension>
            <ns3:atemp>23.0</ns3:atemp>
          </ns3:TrackPointExtension>
        </extensions>
      </trkpt>
      <trkpt lat="42.5147692300379276275634765625" lon="19.77288753725588321685791015625">
        <ele>1838</ele>
        <time>2026-06-18T10:25:27.000Z</time>
        <extensions>
          <ns3:TrackPointExtension>
            <ns3:atemp>23.0</ns3:atemp>
          </ns3:TrackPointExtension>
        </extensions>
      </trkpt>
      <trkpt lat="42.5147692300379276275634765625" lon="19.77288753725588321685791015625">
        <ele>1838</ele>
        <time>2026-06-18T10:25:28.000Z</time>
        <extensions>
          <ns3:TrackPointExtension>
            <ns3:atemp>23.0</ns3:atemp>
          </ns3:TrackPointExtension>
        </extensions>
      </trkpt>
      <trkpt lat="42.5147692300379276275634765625" lon="19.77288753725588321685791015625">
        <ele>1838</ele>
        <time>2026-06-18T10:25:29.000Z</time>
        <extensions>
          <ns3:TrackPointExtension>
            <ns3:atemp>23.0</ns3:atemp>
          </ns3:TrackPointExtension>
        </extensions>
      </trkpt>
      <trkpt lat="42.5147692300379276275634765625" lon="19.77288753725588321685791015625">
        <ele>1838</ele>
        <time>2026-06-18T10:25:30.000Z</time>
        <extensions>
          <ns3:TrackPointExtension>
            <ns3:atemp>23.0</ns3:atemp>
          </ns3:TrackPointExtension>
        </extensions>
      </trkpt>
      <trkpt lat="42.5147692300379276275634765625" lon="19.77288753725588321685791015625">
        <ele>1838</ele>
        <time>2026-06-18T10:25:31.000Z</time>
        <extensions>
          <ns3:TrackPointExtension>
            <ns3:atemp>23.0</ns3:atemp>
          </ns3:TrackPointExtension>
        </extensions>
      </trkpt>
      <trkpt lat="42.5147692300379276275634765625" lon="19.77288753725588321685791015625">
        <ele>1838</ele>
        <time>2026-06-18T10:25:32.000Z</time>
        <extensions>
          <ns3:TrackPointExtension>
            <ns3:atemp>23.0</ns3:atemp>
          </ns3:TrackPointExtension>
        </extensions>
      </trkpt>
      <trkpt lat="42.5147692300379276275634765625" lon="19.77288753725588321685791015625">
        <ele>1838</ele>
        <time>2026-06-18T10:25:33.000Z</time>
        <extensions>
          <ns3:TrackPointExtension>
            <ns3:atemp>23.0</ns3:atemp>
          </ns3:TrackPointExtension>
        </extensions>
      </trkpt>
      <trkpt lat="42.5147692300379276275634765625" lon="19.77288753725588321685791015625">
        <ele>1838</ele>
        <time>2026-06-18T10:25:34.000Z</time>
        <extensions>
          <ns3:TrackPointExtension>
            <ns3:atemp>23.0</ns3:atemp>
          </ns3:TrackPointExtension>
        </extensions>
      </trkpt>
      <trkpt lat="42.5147692300379276275634765625" lon="19.77288753725588321685791015625">
        <ele>1838</ele>
        <time>2026-06-18T10:25:35.000Z</time>
        <extensions>
          <ns3:TrackPointExtension>
            <ns3:atemp>23.0</ns3:atemp>
          </ns3:TrackPointExtension>
        </extensions>
      </trkpt>
      <trkpt lat="42.5147692300379276275634765625" lon="19.77288753725588321685791015625">
        <ele>1838</ele>
        <time>2026-06-18T10:25:36.000Z</time>
        <extensions>
          <ns3:TrackPointExtension>
            <ns3:atemp>23.0</ns3:atemp>
          </ns3:TrackPointExtension>
        </extensions>
      </trkpt>
      <trkpt lat="42.5147692300379276275634765625" lon="19.77288753725588321685791015625">
        <ele>1838</ele>
        <time>2026-06-18T10:25:37.000Z</time>
        <extensions>
          <ns3:TrackPointExtension>
            <ns3:atemp>23.0</ns3:atemp>
          </ns3:TrackPointExtension>
        </extensions>
      </trkpt>
      <trkpt lat="42.5147692300379276275634765625" lon="19.77288753725588321685791015625">
        <ele>1838</ele>
        <time>2026-06-18T10:25:38.000Z</time>
        <extensions>
          <ns3:TrackPointExtension>
            <ns3:atemp>23.0</ns3:atemp>
          </ns3:TrackPointExtension>
        </extensions>
      </trkpt>
      <trkpt lat="42.5147692300379276275634765625" lon="19.77288753725588321685791015625">
        <ele>1838</ele>
        <time>2026-06-18T10:25:39.000Z</time>
        <extensions>
          <ns3:TrackPointExtension>
            <ns3:atemp>23.0</ns3:atemp>
          </ns3:TrackPointExtension>
        </extensions>
      </trkpt>
      <trkpt lat="42.5147692300379276275634765625" lon="19.77288753725588321685791015625">
        <ele>1838</ele>
        <time>2026-06-18T10:25:40.000Z</time>
        <extensions>
          <ns3:TrackPointExtension>
            <ns3:atemp>23.0</ns3:atemp>
          </ns3:TrackPointExtension>
        </extensions>
      </trkpt>
      <trkpt lat="42.5147692300379276275634765625" lon="19.77288753725588321685791015625">
        <ele>1838</ele>
        <time>2026-06-18T10:25:41.000Z</time>
        <extensions>
          <ns3:TrackPointExtension>
            <ns3:atemp>23.0</ns3:atemp>
          </ns3:TrackPointExtension>
        </extensions>
      </trkpt>
      <trkpt lat="42.5147692300379276275634765625" lon="19.77288753725588321685791015625">
        <ele>1838</ele>
        <time>2026-06-18T10:25:42.000Z</time>
        <extensions>
          <ns3:TrackPointExtension>
            <ns3:atemp>23.0</ns3:atemp>
          </ns3:TrackPointExtension>
        </extensions>
      </trkpt>
      <trkpt lat="42.5147692300379276275634765625" lon="19.77288753725588321685791015625">
        <ele>1838</ele>
        <time>2026-06-18T10:25:43.000Z</time>
        <extensions>
          <ns3:TrackPointExtension>
            <ns3:atemp>23.0</ns3:atemp>
          </ns3:TrackPointExtension>
        </extensions>
      </trkpt>
      <trkpt lat="42.5147692300379276275634765625" lon="19.77288753725588321685791015625">
        <ele>1838</ele>
        <time>2026-06-18T10:25:44.000Z</time>
        <extensions>
          <ns3:TrackPointExtension>
            <ns3:atemp>23.0</ns3:atemp>
          </ns3:TrackPointExtension>
        </extensions>
      </trkpt>
      <trkpt lat="42.5147692300379276275634765625" lon="19.77288753725588321685791015625">
        <ele>1838</ele>
        <time>2026-06-18T10:25:45.000Z</time>
        <extensions>
          <ns3:TrackPointExtension>
            <ns3:atemp>23.0</ns3:atemp>
          </ns3:TrackPointExtension>
        </extensions>
      </trkpt>
      <trkpt lat="42.5147692300379276275634765625" lon="19.77288753725588321685791015625">
        <ele>1838</ele>
        <time>2026-06-18T10:25:46.000Z</time>
        <extensions>
          <ns3:TrackPointExtension>
            <ns3:atemp>23.0</ns3:atemp>
          </ns3:TrackPointExtension>
        </extensions>
      </trkpt>
      <trkpt lat="42.5147692300379276275634765625" lon="19.77288753725588321685791015625">
        <ele>1838</ele>
        <time>2026-06-18T10:25:47.000Z</time>
        <extensions>
          <ns3:TrackPointExtension>
            <ns3:atemp>23.0</ns3:atemp>
          </ns3:TrackPointExtension>
        </extensions>
      </trkpt>
      <trkpt lat="42.5147692300379276275634765625" lon="19.77288753725588321685791015625">
        <ele>1838</ele>
        <time>2026-06-18T10:25:48.000Z</time>
        <extensions>
          <ns3:TrackPointExtension>
            <ns3:atemp>23.0</ns3:atemp>
          </ns3:TrackPointExtension>
        </extensions>
      </trkpt>
      <trkpt lat="42.5147692300379276275634765625" lon="19.77288753725588321685791015625">
        <ele>1838</ele>
        <time>2026-06-18T10:25:49.000Z</time>
        <extensions>
          <ns3:TrackPointExtension>
            <ns3:atemp>23.0</ns3:atemp>
          </ns3:TrackPointExtension>
        </extensions>
      </trkpt>
      <trkpt lat="42.5147692300379276275634765625" lon="19.77288753725588321685791015625">
        <ele>1838</ele>
        <time>2026-06-18T10:25:50.000Z</time>
        <extensions>
          <ns3:TrackPointExtension>
            <ns3:atemp>23.0</ns3:atemp>
          </ns3:TrackPointExtension>
        </extensions>
      </trkpt>
      <trkpt lat="42.51476847566664218902587890625" lon="19.77289910428225994110107421875">
        <ele>1838</ele>
        <time>2026-06-18T10:25:51.000Z</time>
        <extensions>
          <ns3:TrackPointExtension>
            <ns3:atemp>23.0</ns3:atemp>
          </ns3:TrackPointExtension>
        </extensions>
      </trkpt>
      <trkpt lat="42.5147692300379276275634765625" lon="19.77288753725588321685791015625">
        <ele>1838</ele>
        <time>2026-06-18T10:25:52.000Z</time>
        <extensions>
          <ns3:TrackPointExtension>
            <ns3:atemp>23.0</ns3:atemp>
          </ns3:TrackPointExtension>
        </extensions>
      </trkpt>
      <trkpt lat="42.5147712416946887969970703125" lon="19.77288837544620037078857421875">
        <ele>1838</ele>
        <time>2026-06-18T10:25:53.000Z</time>
        <extensions>
          <ns3:TrackPointExtension>
            <ns3:atemp>23.0</ns3:atemp>
          </ns3:TrackPointExtension>
        </extensions>
      </trkpt>
      <trkpt lat="42.5147762708365917205810546875" lon="19.77288753725588321685791015625">
        <ele>1838</ele>
        <time>2026-06-18T10:25:54.000Z</time>
        <extensions>
          <ns3:TrackPointExtension>
            <ns3:atemp>23.0</ns3:atemp>
          </ns3:TrackPointExtension>
        </extensions>
      </trkpt>
      <trkpt lat="42.51478758640587329864501953125" lon="19.77288519032299518585205078125">
        <ele>1838</ele>
        <time>2026-06-18T10:25:55.000Z</time>
        <extensions>
          <ns3:TrackPointExtension>
            <ns3:atemp>23.0</ns3:atemp>
          </ns3:TrackPointExtension>
        </extensions>
      </trkpt>
      <trkpt lat="42.514794878661632537841796875" lon="19.77289189584553241729736328125">
        <ele>1838</ele>
        <time>2026-06-18T10:25:56.000Z</time>
        <extensions>
          <ns3:TrackPointExtension>
            <ns3:atemp>23.0</ns3:atemp>
          </ns3:TrackPointExtension>
        </extensions>
      </trkpt>
      <trkpt lat="42.514796555042266845703125" lon="19.77289457805454730987548828125">
        <ele>1838</ele>
        <time>2026-06-18T10:25:57.000Z</time>
        <extensions>
          <ns3:TrackPointExtension>
            <ns3:atemp>23.0</ns3:atemp>
          </ns3:TrackPointExtension>
        </extensions>
      </trkpt>
      <trkpt lat="42.514796555042266845703125" lon="19.77289457805454730987548828125">
        <ele>1838</ele>
        <time>2026-06-18T10:25:58.000Z</time>
        <extensions>
          <ns3:TrackPointExtension>
            <ns3:atemp>23.0</ns3:atemp>
          </ns3:TrackPointExtension>
        </extensions>
      </trkpt>
      <trkpt lat="42.5148044340312480926513671875" lon="19.772899188101291656494140625">
        <ele>1838</ele>
        <time>2026-06-18T10:25:59.000Z</time>
        <extensions>
          <ns3:TrackPointExtension>
            <ns3:atemp>23.0</ns3:atemp>
          </ns3:TrackPointExtension>
        </extensions>
      </trkpt>
      <trkpt lat="42.51481197774410247802734375" lon="19.77289910428225994110107421875">
        <ele>1838</ele>
        <time>2026-06-18T10:26:00.000Z</time>
        <extensions>
          <ns3:TrackPointExtension>
            <ns3:atemp>23.0</ns3:atemp>
          </ns3:TrackPointExtension>
        </extensions>
      </trkpt>
      <trkpt lat="42.51481725834310054779052734375" lon="19.77290011011064052581787109375">
        <ele>1838</ele>
        <time>2026-06-18T10:26:01.000Z</time>
        <extensions>
          <ns3:TrackPointExtension>
            <ns3:atemp>23.0</ns3:atemp>
          </ns3:TrackPointExtension>
        </extensions>
      </trkpt>
      <trkpt lat="42.5148242153227329254150390625" lon="19.7729015350341796875">
        <ele>1838</ele>
        <time>2026-06-18T10:26:02.000Z</time>
        <extensions>
          <ns3:TrackPointExtension>
            <ns3:atemp>23.0</ns3:atemp>
          </ns3:TrackPointExtension>
        </extensions>
      </trkpt>
      <trkpt lat="42.51482815481722354888916015625" lon="19.7728990204632282257080078125">
        <ele>1838</ele>
        <time>2026-06-18T10:26:03.000Z</time>
        <extensions>
          <ns3:TrackPointExtension>
            <ns3:atemp>23.0</ns3:atemp>
          </ns3:TrackPointExtension>
        </extensions>
      </trkpt>
      <trkpt lat="42.51482815481722354888916015625" lon="19.7728990204632282257080078125">
        <ele>1838</ele>
        <time>2026-06-18T10:26:04.000Z</time>
        <extensions>
          <ns3:TrackPointExtension>
            <ns3:atemp>23.0</ns3:atemp>
          </ns3:TrackPointExtension>
        </extensions>
      </trkpt>
      <trkpt lat="42.51482815481722354888916015625" lon="19.7728990204632282257080078125">
        <ele>1838</ele>
        <time>2026-06-18T10:26:05.000Z</time>
        <extensions>
          <ns3:TrackPointExtension>
            <ns3:atemp>23.0</ns3:atemp>
          </ns3:TrackPointExtension>
        </extensions>
      </trkpt>
      <trkpt lat="42.51482815481722354888916015625" lon="19.7728990204632282257080078125">
        <ele>1838</ele>
        <time>2026-06-18T10:26:06.000Z</time>
        <extensions>
          <ns3:TrackPointExtension>
            <ns3:atemp>23.0</ns3:atemp>
          </ns3:TrackPointExtension>
        </extensions>
      </trkpt>
      <trkpt lat="42.51482815481722354888916015625" lon="19.7728990204632282257080078125">
        <ele>1838</ele>
        <time>2026-06-18T10:26:07.000Z</time>
        <extensions>
          <ns3:TrackPointExtension>
            <ns3:atemp>23.0</ns3:atemp>
          </ns3:TrackPointExtension>
        </extensions>
      </trkpt>
      <trkpt lat="42.51482815481722354888916015625" lon="19.7728990204632282257080078125">
        <ele>1838</ele>
        <time>2026-06-18T10:26:08.000Z</time>
        <extensions>
          <ns3:TrackPointExtension>
            <ns3:atemp>23.0</ns3:atemp>
          </ns3:TrackPointExtension>
        </extensions>
      </trkpt>
      <trkpt lat="42.51482815481722354888916015625" lon="19.7728990204632282257080078125">
        <ele>1838</ele>
        <time>2026-06-18T10:26:09.000Z</time>
        <extensions>
          <ns3:TrackPointExtension>
            <ns3:atemp>23.0</ns3:atemp>
          </ns3:TrackPointExtension>
        </extensions>
      </trkpt>
      <trkpt lat="42.51482815481722354888916015625" lon="19.7728990204632282257080078125">
        <ele>1838</ele>
        <time>2026-06-18T10:26:10.000Z</time>
        <extensions>
          <ns3:TrackPointExtension>
            <ns3:atemp>23.0</ns3:atemp>
          </ns3:TrackPointExtension>
        </extensions>
      </trkpt>
      <trkpt lat="42.51482815481722354888916015625" lon="19.7728990204632282257080078125">
        <ele>1838</ele>
        <time>2026-06-18T10:26:11.000Z</time>
        <extensions>
          <ns3:TrackPointExtension>
            <ns3:atemp>23.0</ns3:atemp>
          </ns3:TrackPointExtension>
        </extensions>
      </trkpt>
      <trkpt lat="42.51482815481722354888916015625" lon="19.7728990204632282257080078125">
        <ele>1838</ele>
        <time>2026-06-18T10:26:12.000Z</time>
        <extensions>
          <ns3:TrackPointExtension>
            <ns3:atemp>23.0</ns3:atemp>
          </ns3:TrackPointExtension>
        </extensions>
      </trkpt>
      <trkpt lat="42.51482815481722354888916015625" lon="19.7728990204632282257080078125">
        <ele>1838</ele>
        <time>2026-06-18T10:26:13.000Z</time>
        <extensions>
          <ns3:TrackPointExtension>
            <ns3:atemp>23.0</ns3:atemp>
          </ns3:TrackPointExtension>
        </extensions>
      </trkpt>
      <trkpt lat="42.51482815481722354888916015625" lon="19.7728990204632282257080078125">
        <ele>1838</ele>
        <time>2026-06-18T10:26:14.000Z</time>
        <extensions>
          <ns3:TrackPointExtension>
            <ns3:atemp>23.0</ns3:atemp>
          </ns3:TrackPointExtension>
        </extensions>
      </trkpt>
      <trkpt lat="42.51482815481722354888916015625" lon="19.7728990204632282257080078125">
        <ele>1838</ele>
        <time>2026-06-18T10:26:15.000Z</time>
        <extensions>
          <ns3:TrackPointExtension>
            <ns3:atemp>23.0</ns3:atemp>
          </ns3:TrackPointExtension>
        </extensions>
      </trkpt>
      <trkpt lat="42.51482815481722354888916015625" lon="19.7728990204632282257080078125">
        <ele>1838</ele>
        <time>2026-06-18T10:26:16.000Z</time>
        <extensions>
          <ns3:TrackPointExtension>
            <ns3:atemp>23.0</ns3:atemp>
          </ns3:TrackPointExtension>
        </extensions>
      </trkpt>
      <trkpt lat="42.51482815481722354888916015625" lon="19.7728990204632282257080078125">
        <ele>1838</ele>
        <time>2026-06-18T10:26:17.000Z</time>
        <extensions>
          <ns3:TrackPointExtension>
            <ns3:atemp>23.0</ns3:atemp>
          </ns3:TrackPointExtension>
        </extensions>
      </trkpt>
      <trkpt lat="42.51482815481722354888916015625" lon="19.7728990204632282257080078125">
        <ele>1838</ele>
        <time>2026-06-18T10:26:18.000Z</time>
        <extensions>
          <ns3:TrackPointExtension>
            <ns3:atemp>23.0</ns3:atemp>
          </ns3:TrackPointExtension>
        </extensions>
      </trkpt>
      <trkpt lat="42.51482815481722354888916015625" lon="19.7728990204632282257080078125">
        <ele>1838</ele>
        <time>2026-06-18T10:26:19.000Z</time>
        <extensions>
          <ns3:TrackPointExtension>
            <ns3:atemp>23.0</ns3:atemp>
          </ns3:TrackPointExtension>
        </extensions>
      </trkpt>
      <trkpt lat="42.51482815481722354888916015625" lon="19.7728990204632282257080078125">
        <ele>1838</ele>
        <time>2026-06-18T10:26:20.000Z</time>
        <extensions>
          <ns3:TrackPointExtension>
            <ns3:atemp>23.0</ns3:atemp>
          </ns3:TrackPointExtension>
        </extensions>
      </trkpt>
      <trkpt lat="42.51482815481722354888916015625" lon="19.7728990204632282257080078125">
        <ele>1838</ele>
        <time>2026-06-18T10:26:21.000Z</time>
        <extensions>
          <ns3:TrackPointExtension>
            <ns3:atemp>23.0</ns3:atemp>
          </ns3:TrackPointExtension>
        </extensions>
      </trkpt>
      <trkpt lat="42.51482815481722354888916015625" lon="19.7728990204632282257080078125">
        <ele>1838</ele>
        <time>2026-06-18T10:26:22.000Z</time>
        <extensions>
          <ns3:TrackPointExtension>
            <ns3:atemp>23.0</ns3:atemp>
          </ns3:TrackPointExtension>
        </extensions>
      </trkpt>
      <trkpt lat="42.51482815481722354888916015625" lon="19.7728990204632282257080078125">
        <ele>1838</ele>
        <time>2026-06-18T10:26:23.000Z</time>
        <extensions>
          <ns3:TrackPointExtension>
            <ns3:atemp>23.0</ns3:atemp>
          </ns3:TrackPointExtension>
        </extensions>
      </trkpt>
      <trkpt lat="42.51482815481722354888916015625" lon="19.7728990204632282257080078125">
        <ele>1838</ele>
        <time>2026-06-18T10:26:24.000Z</time>
        <extensions>
          <ns3:TrackPointExtension>
            <ns3:atemp>23.0</ns3:atemp>
          </ns3:TrackPointExtension>
        </extensions>
      </trkpt>
      <trkpt lat="42.51482815481722354888916015625" lon="19.7728990204632282257080078125">
        <ele>1838</ele>
        <time>2026-06-18T10:26:25.000Z</time>
        <extensions>
          <ns3:TrackPointExtension>
            <ns3:atemp>23.0</ns3:atemp>
          </ns3:TrackPointExtension>
        </extensions>
      </trkpt>
      <trkpt lat="42.51482815481722354888916015625" lon="19.7728990204632282257080078125">
        <ele>1838</ele>
        <time>2026-06-18T10:26:26.000Z</time>
        <extensions>
          <ns3:TrackPointExtension>
            <ns3:atemp>23.0</ns3:atemp>
          </ns3:TrackPointExtension>
        </extensions>
      </trkpt>
      <trkpt lat="42.51482815481722354888916015625" lon="19.7728990204632282257080078125">
        <ele>1838</ele>
        <time>2026-06-18T10:26:27.000Z</time>
        <extensions>
          <ns3:TrackPointExtension>
            <ns3:atemp>23.0</ns3:atemp>
          </ns3:TrackPointExtension>
        </extensions>
      </trkpt>
      <trkpt lat="42.51482815481722354888916015625" lon="19.7728990204632282257080078125">
        <ele>1838</ele>
        <time>2026-06-18T10:26:28.000Z</time>
        <extensions>
          <ns3:TrackPointExtension>
            <ns3:atemp>23.0</ns3:atemp>
          </ns3:TrackPointExtension>
        </extensions>
      </trkpt>
      <trkpt lat="42.51482815481722354888916015625" lon="19.7728990204632282257080078125">
        <ele>1838</ele>
        <time>2026-06-18T10:26:29.000Z</time>
        <extensions>
          <ns3:TrackPointExtension>
            <ns3:atemp>23.0</ns3:atemp>
          </ns3:TrackPointExtension>
        </extensions>
      </trkpt>
      <trkpt lat="42.51482815481722354888916015625" lon="19.7728990204632282257080078125">
        <ele>1838</ele>
        <time>2026-06-18T10:26:30.000Z</time>
        <extensions>
          <ns3:TrackPointExtension>
            <ns3:atemp>23.0</ns3:atemp>
          </ns3:TrackPointExtension>
        </extensions>
      </trkpt>
      <trkpt lat="42.51482815481722354888916015625" lon="19.7728990204632282257080078125">
        <ele>1838</ele>
        <time>2026-06-18T10:26:31.000Z</time>
        <extensions>
          <ns3:TrackPointExtension>
            <ns3:atemp>23.0</ns3:atemp>
          </ns3:TrackPointExtension>
        </extensions>
      </trkpt>
      <trkpt lat="42.51482815481722354888916015625" lon="19.7728990204632282257080078125">
        <ele>1838</ele>
        <time>2026-06-18T10:26:32.000Z</time>
        <extensions>
          <ns3:TrackPointExtension>
            <ns3:atemp>23.0</ns3:atemp>
          </ns3:TrackPointExtension>
        </extensions>
      </trkpt>
      <trkpt lat="42.51482815481722354888916015625" lon="19.7728990204632282257080078125">
        <ele>1838</ele>
        <time>2026-06-18T10:26:33.000Z</time>
        <extensions>
          <ns3:TrackPointExtension>
            <ns3:atemp>23.0</ns3:atemp>
          </ns3:TrackPointExtension>
        </extensions>
      </trkpt>
      <trkpt lat="42.51482815481722354888916015625" lon="19.7728990204632282257080078125">
        <ele>1838</ele>
        <time>2026-06-18T10:26:34.000Z</time>
        <extensions>
          <ns3:TrackPointExtension>
            <ns3:atemp>23.0</ns3:atemp>
          </ns3:TrackPointExtension>
        </extensions>
      </trkpt>
      <trkpt lat="42.51482815481722354888916015625" lon="19.7728990204632282257080078125">
        <ele>1838</ele>
        <time>2026-06-18T10:26:35.000Z</time>
        <extensions>
          <ns3:TrackPointExtension>
            <ns3:atemp>23.0</ns3:atemp>
          </ns3:TrackPointExtension>
        </extensions>
      </trkpt>
      <trkpt lat="42.51482815481722354888916015625" lon="19.7728990204632282257080078125">
        <ele>1838</ele>
        <time>2026-06-18T10:26:36.000Z</time>
        <extensions>
          <ns3:TrackPointExtension>
            <ns3:atemp>23.0</ns3:atemp>
          </ns3:TrackPointExtension>
        </extensions>
      </trkpt>
      <trkpt lat="42.51482815481722354888916015625" lon="19.7728990204632282257080078125">
        <ele>1838</ele>
        <time>2026-06-18T10:26:37.000Z</time>
        <extensions>
          <ns3:TrackPointExtension>
            <ns3:atemp>23.0</ns3:atemp>
          </ns3:TrackPointExtension>
        </extensions>
      </trkpt>
      <trkpt lat="42.51482815481722354888916015625" lon="19.7728990204632282257080078125">
        <ele>1838</ele>
        <time>2026-06-18T10:26:38.000Z</time>
        <extensions>
          <ns3:TrackPointExtension>
            <ns3:atemp>23.0</ns3:atemp>
          </ns3:TrackPointExtension>
        </extensions>
      </trkpt>
      <trkpt lat="42.51482815481722354888916015625" lon="19.7728990204632282257080078125">
        <ele>1838</ele>
        <time>2026-06-18T10:26:39.000Z</time>
        <extensions>
          <ns3:TrackPointExtension>
            <ns3:atemp>23.0</ns3:atemp>
          </ns3:TrackPointExtension>
        </extensions>
      </trkpt>
      <trkpt lat="42.51482815481722354888916015625" lon="19.7728990204632282257080078125">
        <ele>1838</ele>
        <time>2026-06-18T10:26:40.000Z</time>
        <extensions>
          <ns3:TrackPointExtension>
            <ns3:atemp>23.0</ns3:atemp>
          </ns3:TrackPointExtension>
        </extensions>
      </trkpt>
      <trkpt lat="42.51482815481722354888916015625" lon="19.7728990204632282257080078125">
        <ele>1838</ele>
        <time>2026-06-18T10:26:41.000Z</time>
        <extensions>
          <ns3:TrackPointExtension>
            <ns3:atemp>23.0</ns3:atemp>
          </ns3:TrackPointExtension>
        </extensions>
      </trkpt>
      <trkpt lat="42.51482815481722354888916015625" lon="19.7728990204632282257080078125">
        <ele>1838</ele>
        <time>2026-06-18T10:26:42.000Z</time>
        <extensions>
          <ns3:TrackPointExtension>
            <ns3:atemp>23.0</ns3:atemp>
          </ns3:TrackPointExtension>
        </extensions>
      </trkpt>
      <trkpt lat="42.51482815481722354888916015625" lon="19.7728990204632282257080078125">
        <ele>1838</ele>
        <time>2026-06-18T10:26:43.000Z</time>
        <extensions>
          <ns3:TrackPointExtension>
            <ns3:atemp>23.0</ns3:atemp>
          </ns3:TrackPointExtension>
        </extensions>
      </trkpt>
      <trkpt lat="42.51482815481722354888916015625" lon="19.7728990204632282257080078125">
        <ele>1838</ele>
        <time>2026-06-18T10:26:44.000Z</time>
        <extensions>
          <ns3:TrackPointExtension>
            <ns3:atemp>23.0</ns3:atemp>
          </ns3:TrackPointExtension>
        </extensions>
      </trkpt>
      <trkpt lat="42.51482815481722354888916015625" lon="19.7728990204632282257080078125">
        <ele>1838</ele>
        <time>2026-06-18T10:26:45.000Z</time>
        <extensions>
          <ns3:TrackPointExtension>
            <ns3:atemp>23.0</ns3:atemp>
          </ns3:TrackPointExtension>
        </extensions>
      </trkpt>
      <trkpt lat="42.51482815481722354888916015625" lon="19.7728990204632282257080078125">
        <ele>1838</ele>
        <time>2026-06-18T10:26:46.000Z</time>
        <extensions>
          <ns3:TrackPointExtension>
            <ns3:atemp>23.0</ns3:atemp>
          </ns3:TrackPointExtension>
        </extensions>
      </trkpt>
      <trkpt lat="42.51482815481722354888916015625" lon="19.7728990204632282257080078125">
        <ele>1838</ele>
        <time>2026-06-18T10:26:47.000Z</time>
        <extensions>
          <ns3:TrackPointExtension>
            <ns3:atemp>23.0</ns3:atemp>
          </ns3:TrackPointExtension>
        </extensions>
      </trkpt>
      <trkpt lat="42.51482815481722354888916015625" lon="19.7728990204632282257080078125">
        <ele>1838</ele>
        <time>2026-06-18T10:26:48.000Z</time>
        <extensions>
          <ns3:TrackPointExtension>
            <ns3:atemp>23.0</ns3:atemp>
          </ns3:TrackPointExtension>
        </extensions>
      </trkpt>
      <trkpt lat="42.51482815481722354888916015625" lon="19.7728990204632282257080078125">
        <ele>1838</ele>
        <time>2026-06-18T10:26:49.000Z</time>
        <extensions>
          <ns3:TrackPointExtension>
            <ns3:atemp>23.0</ns3:atemp>
          </ns3:TrackPointExtension>
        </extensions>
      </trkpt>
      <trkpt lat="42.51482815481722354888916015625" lon="19.7728990204632282257080078125">
        <ele>1838</ele>
        <time>2026-06-18T10:26:50.000Z</time>
        <extensions>
          <ns3:TrackPointExtension>
            <ns3:atemp>23.0</ns3:atemp>
          </ns3:TrackPointExtension>
        </extensions>
      </trkpt>
      <trkpt lat="42.51482815481722354888916015625" lon="19.7728990204632282257080078125">
        <ele>1838</ele>
        <time>2026-06-18T10:26:51.000Z</time>
        <extensions>
          <ns3:TrackPointExtension>
            <ns3:atemp>23.0</ns3:atemp>
          </ns3:TrackPointExtension>
        </extensions>
      </trkpt>
      <trkpt lat="42.51482815481722354888916015625" lon="19.7728990204632282257080078125">
        <ele>1838</ele>
        <time>2026-06-18T10:26:52.000Z</time>
        <extensions>
          <ns3:TrackPointExtension>
            <ns3:atemp>23.0</ns3:atemp>
          </ns3:TrackPointExtension>
        </extensions>
      </trkpt>
      <trkpt lat="42.51482815481722354888916015625" lon="19.7728990204632282257080078125">
        <ele>1838</ele>
        <time>2026-06-18T10:26:53.000Z</time>
        <extensions>
          <ns3:TrackPointExtension>
            <ns3:atemp>23.0</ns3:atemp>
          </ns3:TrackPointExtension>
        </extensions>
      </trkpt>
      <trkpt lat="42.51482815481722354888916015625" lon="19.7728990204632282257080078125">
        <ele>1838</ele>
        <time>2026-06-18T10:26:54.000Z</time>
        <extensions>
          <ns3:TrackPointExtension>
            <ns3:atemp>23.0</ns3:atemp>
          </ns3:TrackPointExtension>
        </extensions>
      </trkpt>
      <trkpt lat="42.51482815481722354888916015625" lon="19.7728990204632282257080078125">
        <ele>1838</ele>
        <time>2026-06-18T10:26:55.000Z</time>
        <extensions>
          <ns3:TrackPointExtension>
            <ns3:atemp>23.0</ns3:atemp>
          </ns3:TrackPointExtension>
        </extensions>
      </trkpt>
      <trkpt lat="42.51482815481722354888916015625" lon="19.7728990204632282257080078125">
        <ele>1838</ele>
        <time>2026-06-18T10:26:56.000Z</time>
        <extensions>
          <ns3:TrackPointExtension>
            <ns3:atemp>23.0</ns3:atemp>
          </ns3:TrackPointExtension>
        </extensions>
      </trkpt>
      <trkpt lat="42.51482815481722354888916015625" lon="19.7728990204632282257080078125">
        <ele>1838</ele>
        <time>2026-06-18T10:26:57.000Z</time>
        <extensions>
          <ns3:TrackPointExtension>
            <ns3:atemp>23.0</ns3:atemp>
          </ns3:TrackPointExtension>
        </extensions>
      </trkpt>
      <trkpt lat="42.51482815481722354888916015625" lon="19.7728990204632282257080078125">
        <ele>1838</ele>
        <time>2026-06-18T10:26:58.000Z</time>
        <extensions>
          <ns3:TrackPointExtension>
            <ns3:atemp>23.0</ns3:atemp>
          </ns3:TrackPointExtension>
        </extensions>
      </trkpt>
      <trkpt lat="42.51482815481722354888916015625" lon="19.7728990204632282257080078125">
        <ele>1838</ele>
        <time>2026-06-18T10:26:59.000Z</time>
        <extensions>
          <ns3:TrackPointExtension>
            <ns3:atemp>23.0</ns3:atemp>
          </ns3:TrackPointExtension>
        </extensions>
      </trkpt>
      <trkpt lat="42.51482815481722354888916015625" lon="19.7728990204632282257080078125">
        <ele>1838</ele>
        <time>2026-06-18T10:27:00.000Z</time>
        <extensions>
          <ns3:TrackPointExtension>
            <ns3:atemp>23.0</ns3:atemp>
          </ns3:TrackPointExtension>
        </extensions>
      </trkpt>
      <trkpt lat="42.51482815481722354888916015625" lon="19.7728990204632282257080078125">
        <ele>1838</ele>
        <time>2026-06-18T10:27:01.000Z</time>
        <extensions>
          <ns3:TrackPointExtension>
            <ns3:atemp>23.0</ns3:atemp>
          </ns3:TrackPointExtension>
        </extensions>
      </trkpt>
      <trkpt lat="42.51482815481722354888916015625" lon="19.7728990204632282257080078125">
        <ele>1838</ele>
        <time>2026-06-18T10:27:02.000Z</time>
        <extensions>
          <ns3:TrackPointExtension>
            <ns3:atemp>23.0</ns3:atemp>
          </ns3:TrackPointExtension>
        </extensions>
      </trkpt>
      <trkpt lat="42.51482815481722354888916015625" lon="19.7728990204632282257080078125">
        <ele>1836</ele>
        <time>2026-06-18T10:27:03.000Z</time>
        <extensions>
          <ns3:TrackPointExtension>
            <ns3:atemp>23.0</ns3:atemp>
          </ns3:TrackPointExtension>
        </extensions>
      </trkpt>
      <trkpt lat="42.51482815481722354888916015625" lon="19.7728990204632282257080078125">
        <ele>1835.800048828125</ele>
        <time>2026-06-18T10:27:04.000Z</time>
        <extensions>
          <ns3:TrackPointExtension>
            <ns3:atemp>23.0</ns3:atemp>
          </ns3:TrackPointExtension>
        </extensions>
      </trkpt>
      <trkpt lat="42.51482815481722354888916015625" lon="19.7728990204632282257080078125">
        <ele>1835.5999755859375</ele>
        <time>2026-06-18T10:27:05.000Z</time>
        <extensions>
          <ns3:TrackPointExtension>
            <ns3:atemp>23.0</ns3:atemp>
          </ns3:TrackPointExtension>
        </extensions>
      </trkpt>
      <trkpt lat="42.51482815481722354888916015625" lon="19.7728990204632282257080078125">
        <ele>1835.5999755859375</ele>
        <time>2026-06-18T10:27:06.000Z</time>
        <extensions>
          <ns3:TrackPointExtension>
            <ns3:atemp>23.0</ns3:atemp>
          </ns3:TrackPointExtension>
        </extensions>
      </trkpt>
      <trkpt lat="42.51482815481722354888916015625" lon="19.7728990204632282257080078125">
        <ele>1835.5999755859375</ele>
        <time>2026-06-18T10:27:07.000Z</time>
        <extensions>
          <ns3:TrackPointExtension>
            <ns3:atemp>23.0</ns3:atemp>
          </ns3:TrackPointExtension>
        </extensions>
      </trkpt>
      <trkpt lat="42.514829747378826141357421875" lon="19.77289793081581592559814453125">
        <ele>1835.800048828125</ele>
        <time>2026-06-18T10:27:08.000Z</time>
        <extensions>
          <ns3:TrackPointExtension>
            <ns3:atemp>23.0</ns3:atemp>
          </ns3:TrackPointExtension>
        </extensions>
      </trkpt>
      <trkpt lat="42.514837794005870819091796875" lon="19.77289826609194278717041015625">
        <ele>1836</ele>
        <time>2026-06-18T10:27:09.000Z</time>
        <extensions>
          <ns3:TrackPointExtension>
            <ns3:atemp>23.0</ns3:atemp>
          </ns3:TrackPointExtension>
        </extensions>
      </trkpt>
      <trkpt lat="42.51482815481722354888916015625" lon="19.7728990204632282257080078125">
        <ele>1836.199951171875</ele>
        <time>2026-06-18T10:27:10.000Z</time>
        <extensions>
          <ns3:TrackPointExtension>
            <ns3:atemp>23.0</ns3:atemp>
          </ns3:TrackPointExtension>
        </extensions>
      </trkpt>
      <trkpt lat="42.51482815481722354888916015625" lon="19.7728990204632282257080078125">
        <ele>1836.199951171875</ele>
        <time>2026-06-18T10:27:11.000Z</time>
        <extensions>
          <ns3:TrackPointExtension>
            <ns3:atemp>23.0</ns3:atemp>
          </ns3:TrackPointExtension>
        </extensions>
      </trkpt>
      <trkpt lat="42.51482815481722354888916015625" lon="19.7728990204632282257080078125">
        <ele>1836.199951171875</ele>
        <time>2026-06-18T10:27:12.000Z</time>
        <extensions>
          <ns3:TrackPointExtension>
            <ns3:atemp>23.0</ns3:atemp>
          </ns3:TrackPointExtension>
        </extensions>
      </trkpt>
      <trkpt lat="42.51482815481722354888916015625" lon="19.7728990204632282257080078125">
        <ele>1836.199951171875</ele>
        <time>2026-06-18T10:27:13.000Z</time>
        <extensions>
          <ns3:TrackPointExtension>
            <ns3:atemp>23.0</ns3:atemp>
          </ns3:TrackPointExtension>
        </extensions>
      </trkpt>
      <trkpt lat="42.51482815481722354888916015625" lon="19.7728990204632282257080078125">
        <ele>1836.199951171875</ele>
        <time>2026-06-18T10:27:14.000Z</time>
        <extensions>
          <ns3:TrackPointExtension>
            <ns3:atemp>23.0</ns3:atemp>
          </ns3:TrackPointExtension>
        </extensions>
      </trkpt>
      <trkpt lat="42.51482815481722354888916015625" lon="19.7728990204632282257080078125">
        <ele>1836.199951171875</ele>
        <time>2026-06-18T10:27:15.000Z</time>
        <extensions>
          <ns3:TrackPointExtension>
            <ns3:atemp>23.0</ns3:atemp>
          </ns3:TrackPointExtension>
        </extensions>
      </trkpt>
      <trkpt lat="42.51482815481722354888916015625" lon="19.7728990204632282257080078125">
        <ele>1836.4000244140625</ele>
        <time>2026-06-18T10:27:16.000Z</time>
        <extensions>
          <ns3:TrackPointExtension>
            <ns3:atemp>23.0</ns3:atemp>
          </ns3:TrackPointExtension>
        </extensions>
      </trkpt>
      <trkpt lat="42.51482815481722354888916015625" lon="19.7728990204632282257080078125">
        <ele>1836.199951171875</ele>
        <time>2026-06-18T10:27:17.000Z</time>
        <extensions>
          <ns3:TrackPointExtension>
            <ns3:atemp>23.0</ns3:atemp>
          </ns3:TrackPointExtension>
        </extensions>
      </trkpt>
      <trkpt lat="42.51482815481722354888916015625" lon="19.7728990204632282257080078125">
        <ele>1836.199951171875</ele>
        <time>2026-06-18T10:27:18.000Z</time>
        <extensions>
          <ns3:TrackPointExtension>
            <ns3:atemp>23.0</ns3:atemp>
          </ns3:TrackPointExtension>
        </extensions>
      </trkpt>
      <trkpt lat="42.51482815481722354888916015625" lon="19.7728990204632282257080078125">
        <ele>1836</ele>
        <time>2026-06-18T10:27:19.000Z</time>
        <extensions>
          <ns3:TrackPointExtension>
            <ns3:atemp>23.0</ns3:atemp>
          </ns3:TrackPointExtension>
        </extensions>
      </trkpt>
      <trkpt lat="42.51482815481722354888916015625" lon="19.7728990204632282257080078125">
        <ele>1835.800048828125</ele>
        <time>2026-06-18T10:27:20.000Z</time>
        <extensions>
          <ns3:TrackPointExtension>
            <ns3:atemp>23.0</ns3:atemp>
          </ns3:TrackPointExtension>
        </extensions>
      </trkpt>
      <trkpt lat="42.51482815481722354888916015625" lon="19.7728990204632282257080078125">
        <ele>1835.4000244140625</ele>
        <time>2026-06-18T10:27:21.000Z</time>
        <extensions>
          <ns3:TrackPointExtension>
            <ns3:atemp>23.0</ns3:atemp>
          </ns3:TrackPointExtension>
        </extensions>
      </trkpt>
      <trkpt lat="42.51482815481722354888916015625" lon="19.7728990204632282257080078125">
        <ele>1835.199951171875</ele>
        <time>2026-06-18T10:27:22.000Z</time>
        <extensions>
          <ns3:TrackPointExtension>
            <ns3:atemp>23.0</ns3:atemp>
          </ns3:TrackPointExtension>
        </extensions>
      </trkpt>
      <trkpt lat="42.51482815481722354888916015625" lon="19.7728990204632282257080078125">
        <ele>1835</ele>
        <time>2026-06-18T10:27:23.000Z</time>
        <extensions>
          <ns3:TrackPointExtension>
            <ns3:atemp>23.0</ns3:atemp>
          </ns3:TrackPointExtension>
        </extensions>
      </trkpt>
      <trkpt lat="42.51482815481722354888916015625" lon="19.7728990204632282257080078125">
        <ele>1835</ele>
        <time>2026-06-18T10:27:24.000Z</time>
        <extensions>
          <ns3:TrackPointExtension>
            <ns3:atemp>23.0</ns3:atemp>
          </ns3:TrackPointExtension>
        </extensions>
      </trkpt>
      <trkpt lat="42.51482815481722354888916015625" lon="19.7728990204632282257080078125">
        <ele>1834.800048828125</ele>
        <time>2026-06-18T10:27:25.000Z</time>
        <extensions>
          <ns3:TrackPointExtension>
            <ns3:atemp>22.0</ns3:atemp>
          </ns3:TrackPointExtension>
        </extensions>
      </trkpt>
      <trkpt lat="42.51482815481722354888916015625" lon="19.7728990204632282257080078125">
        <ele>1834.800048828125</ele>
        <time>2026-06-18T10:27:26.000Z</time>
        <extensions>
          <ns3:TrackPointExtension>
            <ns3:atemp>22.0</ns3:atemp>
          </ns3:TrackPointExtension>
        </extensions>
      </trkpt>
      <trkpt lat="42.51482815481722354888916015625" lon="19.7728990204632282257080078125">
        <ele>1834.5999755859375</ele>
        <time>2026-06-18T10:27:27.000Z</time>
        <extensions>
          <ns3:TrackPointExtension>
            <ns3:atemp>22.0</ns3:atemp>
          </ns3:TrackPointExtension>
        </extensions>
      </trkpt>
      <trkpt lat="42.51482815481722354888916015625" lon="19.7728990204632282257080078125">
        <ele>1834.5999755859375</ele>
        <time>2026-06-18T10:27:28.000Z</time>
        <extensions>
          <ns3:TrackPointExtension>
            <ns3:atemp>22.0</ns3:atemp>
          </ns3:TrackPointExtension>
        </extensions>
      </trkpt>
      <trkpt lat="42.51482815481722354888916015625" lon="19.7728990204632282257080078125">
        <ele>1834.5999755859375</ele>
        <time>2026-06-18T10:27:29.000Z</time>
        <extensions>
          <ns3:TrackPointExtension>
            <ns3:atemp>22.0</ns3:atemp>
          </ns3:TrackPointExtension>
        </extensions>
      </trkpt>
      <trkpt lat="42.51482815481722354888916015625" lon="19.7728990204632282257080078125">
        <ele>1834.5999755859375</ele>
        <time>2026-06-18T10:27:30.000Z</time>
        <extensions>
          <ns3:TrackPointExtension>
            <ns3:atemp>22.0</ns3:atemp>
          </ns3:TrackPointExtension>
        </extensions>
      </trkpt>
      <trkpt lat="42.51482815481722354888916015625" lon="19.7728990204632282257080078125">
        <ele>1834.4000244140625</ele>
        <time>2026-06-18T10:27:31.000Z</time>
        <extensions>
          <ns3:TrackPointExtension>
            <ns3:atemp>22.0</ns3:atemp>
          </ns3:TrackPointExtension>
        </extensions>
      </trkpt>
      <trkpt lat="42.51482815481722354888916015625" lon="19.7728990204632282257080078125">
        <ele>1834.4000244140625</ele>
        <time>2026-06-18T10:27:32.000Z</time>
        <extensions>
          <ns3:TrackPointExtension>
            <ns3:atemp>22.0</ns3:atemp>
          </ns3:TrackPointExtension>
        </extensions>
      </trkpt>
      <trkpt lat="42.51482815481722354888916015625" lon="19.7728990204632282257080078125">
        <ele>1834.4000244140625</ele>
        <time>2026-06-18T10:27:33.000Z</time>
        <extensions>
          <ns3:TrackPointExtension>
            <ns3:atemp>22.0</ns3:atemp>
          </ns3:TrackPointExtension>
        </extensions>
      </trkpt>
      <trkpt lat="42.51482815481722354888916015625" lon="19.7728990204632282257080078125">
        <ele>1834.4000244140625</ele>
        <time>2026-06-18T10:27:34.000Z</time>
        <extensions>
          <ns3:TrackPointExtension>
            <ns3:atemp>22.0</ns3:atemp>
          </ns3:TrackPointExtension>
        </extensions>
      </trkpt>
      <trkpt lat="42.51482815481722354888916015625" lon="19.7728990204632282257080078125">
        <ele>1834.5999755859375</ele>
        <time>2026-06-18T10:27:35.000Z</time>
        <extensions>
          <ns3:TrackPointExtension>
            <ns3:atemp>23.0</ns3:atemp>
          </ns3:TrackPointExtension>
        </extensions>
      </trkpt>
      <trkpt lat="42.51482815481722354888916015625" lon="19.7728990204632282257080078125">
        <ele>1834.5999755859375</ele>
        <time>2026-06-18T10:27:36.000Z</time>
        <extensions>
          <ns3:TrackPointExtension>
            <ns3:atemp>22.0</ns3:atemp>
          </ns3:TrackPointExtension>
        </extensions>
      </trkpt>
      <trkpt lat="42.51482815481722354888916015625" lon="19.7728990204632282257080078125">
        <ele>1834.800048828125</ele>
        <time>2026-06-18T10:27:37.000Z</time>
        <extensions>
          <ns3:TrackPointExtension>
            <ns3:atemp>22.0</ns3:atemp>
          </ns3:TrackPointExtension>
        </extensions>
      </trkpt>
      <trkpt lat="42.51482815481722354888916015625" lon="19.7728990204632282257080078125">
        <ele>1835</ele>
        <time>2026-06-18T10:27:38.000Z</time>
        <extensions>
          <ns3:TrackPointExtension>
            <ns3:atemp>22.0</ns3:atemp>
          </ns3:TrackPointExtension>
        </extensions>
      </trkpt>
      <trkpt lat="42.51482815481722354888916015625" lon="19.7728990204632282257080078125">
        <ele>1835</ele>
        <time>2026-06-18T10:27:39.000Z</time>
        <extensions>
          <ns3:TrackPointExtension>
            <ns3:atemp>22.0</ns3:atemp>
          </ns3:TrackPointExtension>
        </extensions>
      </trkpt>
      <trkpt lat="42.51482815481722354888916015625" lon="19.7728990204632282257080078125">
        <ele>1835.199951171875</ele>
        <time>2026-06-18T10:27:40.000Z</time>
        <extensions>
          <ns3:TrackPointExtension>
            <ns3:atemp>23.0</ns3:atemp>
          </ns3:TrackPointExtension>
        </extensions>
      </trkpt>
      <trkpt lat="42.51482815481722354888916015625" lon="19.7728990204632282257080078125">
        <ele>1835.199951171875</ele>
        <time>2026-06-18T10:27:41.000Z</time>
        <extensions>
          <ns3:TrackPointExtension>
            <ns3:atemp>22.0</ns3:atemp>
          </ns3:TrackPointExtension>
        </extensions>
      </trkpt>
      <trkpt lat="42.51482815481722354888916015625" lon="19.7728990204632282257080078125">
        <ele>1835.199951171875</ele>
        <time>2026-06-18T10:27:42.000Z</time>
        <extensions>
          <ns3:TrackPointExtension>
            <ns3:atemp>22.0</ns3:atemp>
          </ns3:TrackPointExtension>
        </extensions>
      </trkpt>
      <trkpt lat="42.51482815481722354888916015625" lon="19.7728990204632282257080078125">
        <ele>1835.199951171875</ele>
        <time>2026-06-18T10:27:43.000Z</time>
        <extensions>
          <ns3:TrackPointExtension>
            <ns3:atemp>22.0</ns3:atemp>
          </ns3:TrackPointExtension>
        </extensions>
      </trkpt>
      <trkpt lat="42.51482815481722354888916015625" lon="19.7728990204632282257080078125">
        <ele>1835.4000244140625</ele>
        <time>2026-06-18T10:27:44.000Z</time>
        <extensions>
          <ns3:TrackPointExtension>
            <ns3:atemp>22.0</ns3:atemp>
          </ns3:TrackPointExtension>
        </extensions>
      </trkpt>
      <trkpt lat="42.51482815481722354888916015625" lon="19.7728990204632282257080078125">
        <ele>1835.4000244140625</ele>
        <time>2026-06-18T10:27:45.000Z</time>
        <extensions>
          <ns3:TrackPointExtension>
            <ns3:atemp>22.0</ns3:atemp>
          </ns3:TrackPointExtension>
        </extensions>
      </trkpt>
      <trkpt lat="42.51482815481722354888916015625" lon="19.7728990204632282257080078125">
        <ele>1835.199951171875</ele>
        <time>2026-06-18T10:27:46.000Z</time>
        <extensions>
          <ns3:TrackPointExtension>
            <ns3:atemp>22.0</ns3:atemp>
          </ns3:TrackPointExtension>
        </extensions>
      </trkpt>
      <trkpt lat="42.51482815481722354888916015625" lon="19.7728990204632282257080078125">
        <ele>1835.199951171875</ele>
        <time>2026-06-18T10:27:47.000Z</time>
        <extensions>
          <ns3:TrackPointExtension>
            <ns3:atemp>22.0</ns3:atemp>
          </ns3:TrackPointExtension>
        </extensions>
      </trkpt>
      <trkpt lat="42.51482815481722354888916015625" lon="19.7728990204632282257080078125">
        <ele>1835.199951171875</ele>
        <time>2026-06-18T10:27:48.000Z</time>
        <extensions>
          <ns3:TrackPointExtension>
            <ns3:atemp>22.0</ns3:atemp>
          </ns3:TrackPointExtension>
        </extensions>
      </trkpt>
      <trkpt lat="42.51482815481722354888916015625" lon="19.7728990204632282257080078125">
        <ele>1835.199951171875</ele>
        <time>2026-06-18T10:27:49.000Z</time>
        <extensions>
          <ns3:TrackPointExtension>
            <ns3:atemp>22.0</ns3:atemp>
          </ns3:TrackPointExtension>
        </extensions>
      </trkpt>
      <trkpt lat="42.51482815481722354888916015625" lon="19.7728990204632282257080078125">
        <ele>1835.199951171875</ele>
        <time>2026-06-18T10:27:50.000Z</time>
        <extensions>
          <ns3:TrackPointExtension>
            <ns3:atemp>22.0</ns3:atemp>
          </ns3:TrackPointExtension>
        </extensions>
      </trkpt>
      <trkpt lat="42.51482815481722354888916015625" lon="19.7728990204632282257080078125">
        <ele>1835</ele>
        <time>2026-06-18T10:27:51.000Z</time>
        <extensions>
          <ns3:TrackPointExtension>
            <ns3:atemp>22.0</ns3:atemp>
          </ns3:TrackPointExtension>
        </extensions>
      </trkpt>
      <trkpt lat="42.51482815481722354888916015625" lon="19.7728990204632282257080078125">
        <ele>1835</ele>
        <time>2026-06-18T10:27:52.000Z</time>
        <extensions>
          <ns3:TrackPointExtension>
            <ns3:atemp>22.0</ns3:atemp>
          </ns3:TrackPointExtension>
        </extensions>
      </trkpt>
      <trkpt lat="42.51482815481722354888916015625" lon="19.7728990204632282257080078125">
        <ele>1834.800048828125</ele>
        <time>2026-06-18T10:27:53.000Z</time>
        <extensions>
          <ns3:TrackPointExtension>
            <ns3:atemp>22.0</ns3:atemp>
          </ns3:TrackPointExtension>
        </extensions>
      </trkpt>
      <trkpt lat="42.51482815481722354888916015625" lon="19.7728990204632282257080078125">
        <ele>1835</ele>
        <time>2026-06-18T10:27:54.000Z</time>
        <extensions>
          <ns3:TrackPointExtension>
            <ns3:atemp>22.0</ns3:atemp>
          </ns3:TrackPointExtension>
        </extensions>
      </trkpt>
      <trkpt lat="42.51482815481722354888916015625" lon="19.7728990204632282257080078125">
        <ele>1835</ele>
        <time>2026-06-18T10:27:55.000Z</time>
        <extensions>
          <ns3:TrackPointExtension>
            <ns3:atemp>22.0</ns3:atemp>
          </ns3:TrackPointExtension>
        </extensions>
      </trkpt>
      <trkpt lat="42.51482815481722354888916015625" lon="19.7728990204632282257080078125">
        <ele>1835.199951171875</ele>
        <time>2026-06-18T10:27:56.000Z</time>
        <extensions>
          <ns3:TrackPointExtension>
            <ns3:atemp>22.0</ns3:atemp>
          </ns3:TrackPointExtension>
        </extensions>
      </trkpt>
      <trkpt lat="42.51482815481722354888916015625" lon="19.7728990204632282257080078125">
        <ele>1835.199951171875</ele>
        <time>2026-06-18T10:27:57.000Z</time>
        <extensions>
          <ns3:TrackPointExtension>
            <ns3:atemp>22.0</ns3:atemp>
          </ns3:TrackPointExtension>
        </extensions>
      </trkpt>
      <trkpt lat="42.51482815481722354888916015625" lon="19.7728990204632282257080078125">
        <ele>1835.199951171875</ele>
        <time>2026-06-18T10:27:58.000Z</time>
        <extensions>
          <ns3:TrackPointExtension>
            <ns3:atemp>22.0</ns3:atemp>
          </ns3:TrackPointExtension>
        </extensions>
      </trkpt>
      <trkpt lat="42.51482815481722354888916015625" lon="19.7728990204632282257080078125">
        <ele>1835.199951171875</ele>
        <time>2026-06-18T10:27:59.000Z</time>
        <extensions>
          <ns3:TrackPointExtension>
            <ns3:atemp>22.0</ns3:atemp>
          </ns3:TrackPointExtension>
        </extensions>
      </trkpt>
      <trkpt lat="42.51482815481722354888916015625" lon="19.7728990204632282257080078125">
        <ele>1835</ele>
        <time>2026-06-18T10:28:00.000Z</time>
        <extensions>
          <ns3:TrackPointExtension>
            <ns3:atemp>22.0</ns3:atemp>
          </ns3:TrackPointExtension>
        </extensions>
      </trkpt>
      <trkpt lat="42.51482815481722354888916015625" lon="19.7728990204632282257080078125">
        <ele>1835</ele>
        <time>2026-06-18T10:28:01.000Z</time>
        <extensions>
          <ns3:TrackPointExtension>
            <ns3:atemp>22.0</ns3:atemp>
          </ns3:TrackPointExtension>
        </extensions>
      </trkpt>
      <trkpt lat="42.51482815481722354888916015625" lon="19.7728990204632282257080078125">
        <ele>1835</ele>
        <time>2026-06-18T10:28:02.000Z</time>
        <extensions>
          <ns3:TrackPointExtension>
            <ns3:atemp>22.0</ns3:atemp>
          </ns3:TrackPointExtension>
        </extensions>
      </trkpt>
      <trkpt lat="42.51482815481722354888916015625" lon="19.7728990204632282257080078125">
        <ele>1835.5999755859375</ele>
        <time>2026-06-18T10:28:03.000Z</time>
        <extensions>
          <ns3:TrackPointExtension>
            <ns3:atemp>22.0</ns3:atemp>
          </ns3:TrackPointExtension>
        </extensions>
      </trkpt>
      <trkpt lat="42.51482815481722354888916015625" lon="19.7728990204632282257080078125">
        <ele>1835.5999755859375</ele>
        <time>2026-06-18T10:28:04.000Z</time>
        <extensions>
          <ns3:TrackPointExtension>
            <ns3:atemp>22.0</ns3:atemp>
          </ns3:TrackPointExtension>
        </extensions>
      </trkpt>
      <trkpt lat="42.51482815481722354888916015625" lon="19.7728990204632282257080078125">
        <ele>1835.5999755859375</ele>
        <time>2026-06-18T10:28:05.000Z</time>
        <extensions>
          <ns3:TrackPointExtension>
            <ns3:atemp>22.0</ns3:atemp>
          </ns3:TrackPointExtension>
        </extensions>
      </trkpt>
      <trkpt lat="42.51482815481722354888916015625" lon="19.7728990204632282257080078125">
        <ele>1835.5999755859375</ele>
        <time>2026-06-18T10:28:06.000Z</time>
        <extensions>
          <ns3:TrackPointExtension>
            <ns3:atemp>22.0</ns3:atemp>
          </ns3:TrackPointExtension>
        </extensions>
      </trkpt>
      <trkpt lat="42.51482815481722354888916015625" lon="19.7728990204632282257080078125">
        <ele>1835.5999755859375</ele>
        <time>2026-06-18T10:28:07.000Z</time>
        <extensions>
          <ns3:TrackPointExtension>
            <ns3:atemp>22.0</ns3:atemp>
          </ns3:TrackPointExtension>
        </extensions>
      </trkpt>
      <trkpt lat="42.51482815481722354888916015625" lon="19.7728990204632282257080078125">
        <ele>1835.5999755859375</ele>
        <time>2026-06-18T10:28:08.000Z</time>
        <extensions>
          <ns3:TrackPointExtension>
            <ns3:atemp>22.0</ns3:atemp>
          </ns3:TrackPointExtension>
        </extensions>
      </trkpt>
      <trkpt lat="42.51482815481722354888916015625" lon="19.7728990204632282257080078125">
        <ele>1835.5999755859375</ele>
        <time>2026-06-18T10:28:09.000Z</time>
        <extensions>
          <ns3:TrackPointExtension>
            <ns3:atemp>22.0</ns3:atemp>
          </ns3:TrackPointExtension>
        </extensions>
      </trkpt>
      <trkpt lat="42.51482815481722354888916015625" lon="19.7728990204632282257080078125">
        <ele>1835.5999755859375</ele>
        <time>2026-06-18T10:28:10.000Z</time>
        <extensions>
          <ns3:TrackPointExtension>
            <ns3:atemp>22.0</ns3:atemp>
          </ns3:TrackPointExtension>
        </extensions>
      </trkpt>
      <trkpt lat="42.51482815481722354888916015625" lon="19.7728990204632282257080078125">
        <ele>1835.5999755859375</ele>
        <time>2026-06-18T10:28:11.000Z</time>
        <extensions>
          <ns3:TrackPointExtension>
            <ns3:atemp>22.0</ns3:atemp>
          </ns3:TrackPointExtension>
        </extensions>
      </trkpt>
      <trkpt lat="42.51482815481722354888916015625" lon="19.7728990204632282257080078125">
        <ele>1835.5999755859375</ele>
        <time>2026-06-18T10:28:12.000Z</time>
        <extensions>
          <ns3:TrackPointExtension>
            <ns3:atemp>22.0</ns3:atemp>
          </ns3:TrackPointExtension>
        </extensions>
      </trkpt>
      <trkpt lat="42.51482815481722354888916015625" lon="19.7728990204632282257080078125">
        <ele>1835.5999755859375</ele>
        <time>2026-06-18T10:28:13.000Z</time>
        <extensions>
          <ns3:TrackPointExtension>
            <ns3:atemp>22.0</ns3:atemp>
          </ns3:TrackPointExtension>
        </extensions>
      </trkpt>
      <trkpt lat="42.51482815481722354888916015625" lon="19.7728990204632282257080078125">
        <ele>1835.5999755859375</ele>
        <time>2026-06-18T10:28:14.000Z</time>
        <extensions>
          <ns3:TrackPointExtension>
            <ns3:atemp>22.0</ns3:atemp>
          </ns3:TrackPointExtension>
        </extensions>
      </trkpt>
      <trkpt lat="42.51482815481722354888916015625" lon="19.7728990204632282257080078125">
        <ele>1835.5999755859375</ele>
        <time>2026-06-18T10:28:15.000Z</time>
        <extensions>
          <ns3:TrackPointExtension>
            <ns3:atemp>22.0</ns3:atemp>
          </ns3:TrackPointExtension>
        </extensions>
      </trkpt>
      <trkpt lat="42.51482815481722354888916015625" lon="19.7728990204632282257080078125">
        <ele>1835.5999755859375</ele>
        <time>2026-06-18T10:28:16.000Z</time>
        <extensions>
          <ns3:TrackPointExtension>
            <ns3:atemp>22.0</ns3:atemp>
          </ns3:TrackPointExtension>
        </extensions>
      </trkpt>
      <trkpt lat="42.51482815481722354888916015625" lon="19.7728990204632282257080078125">
        <ele>1835.5999755859375</ele>
        <time>2026-06-18T10:28:17.000Z</time>
        <extensions>
          <ns3:TrackPointExtension>
            <ns3:atemp>22.0</ns3:atemp>
          </ns3:TrackPointExtension>
        </extensions>
      </trkpt>
      <trkpt lat="42.51482815481722354888916015625" lon="19.7728990204632282257080078125">
        <ele>1835.5999755859375</ele>
        <time>2026-06-18T10:28:18.000Z</time>
        <extensions>
          <ns3:TrackPointExtension>
            <ns3:atemp>22.0</ns3:atemp>
          </ns3:TrackPointExtension>
        </extensions>
      </trkpt>
      <trkpt lat="42.51482815481722354888916015625" lon="19.7728990204632282257080078125">
        <ele>1835.5999755859375</ele>
        <time>2026-06-18T10:28:19.000Z</time>
        <extensions>
          <ns3:TrackPointExtension>
            <ns3:atemp>22.0</ns3:atemp>
          </ns3:TrackPointExtension>
        </extensions>
      </trkpt>
      <trkpt lat="42.51482815481722354888916015625" lon="19.7728990204632282257080078125">
        <ele>1835.5999755859375</ele>
        <time>2026-06-18T10:28:20.000Z</time>
        <extensions>
          <ns3:TrackPointExtension>
            <ns3:atemp>22.0</ns3:atemp>
          </ns3:TrackPointExtension>
        </extensions>
      </trkpt>
      <trkpt lat="42.51482815481722354888916015625" lon="19.7728990204632282257080078125">
        <ele>1835.5999755859375</ele>
        <time>2026-06-18T10:28:21.000Z</time>
        <extensions>
          <ns3:TrackPointExtension>
            <ns3:atemp>22.0</ns3:atemp>
          </ns3:TrackPointExtension>
        </extensions>
      </trkpt>
      <trkpt lat="42.51482815481722354888916015625" lon="19.7728990204632282257080078125">
        <ele>1835.5999755859375</ele>
        <time>2026-06-18T10:28:22.000Z</time>
        <extensions>
          <ns3:TrackPointExtension>
            <ns3:atemp>22.0</ns3:atemp>
          </ns3:TrackPointExtension>
        </extensions>
      </trkpt>
      <trkpt lat="42.51482815481722354888916015625" lon="19.7728990204632282257080078125">
        <ele>1835.5999755859375</ele>
        <time>2026-06-18T10:28:23.000Z</time>
        <extensions>
          <ns3:TrackPointExtension>
            <ns3:atemp>22.0</ns3:atemp>
          </ns3:TrackPointExtension>
        </extensions>
      </trkpt>
      <trkpt lat="42.51482815481722354888916015625" lon="19.7728990204632282257080078125">
        <ele>1835.5999755859375</ele>
        <time>2026-06-18T10:28:24.000Z</time>
        <extensions>
          <ns3:TrackPointExtension>
            <ns3:atemp>22.0</ns3:atemp>
          </ns3:TrackPointExtension>
        </extensions>
      </trkpt>
      <trkpt lat="42.51482815481722354888916015625" lon="19.7728990204632282257080078125">
        <ele>1835.5999755859375</ele>
        <time>2026-06-18T10:28:25.000Z</time>
        <extensions>
          <ns3:TrackPointExtension>
            <ns3:atemp>22.0</ns3:atemp>
          </ns3:TrackPointExtension>
        </extensions>
      </trkpt>
      <trkpt lat="42.51482815481722354888916015625" lon="19.7728990204632282257080078125">
        <ele>1835.5999755859375</ele>
        <time>2026-06-18T10:28:26.000Z</time>
        <extensions>
          <ns3:TrackPointExtension>
            <ns3:atemp>22.0</ns3:atemp>
          </ns3:TrackPointExtension>
        </extensions>
      </trkpt>
      <trkpt lat="42.51482815481722354888916015625" lon="19.7728990204632282257080078125">
        <ele>1835.5999755859375</ele>
        <time>2026-06-18T10:28:27.000Z</time>
        <extensions>
          <ns3:TrackPointExtension>
            <ns3:atemp>22.0</ns3:atemp>
          </ns3:TrackPointExtension>
        </extensions>
      </trkpt>
      <trkpt lat="42.51482815481722354888916015625" lon="19.7728990204632282257080078125">
        <ele>1835.5999755859375</ele>
        <time>2026-06-18T10:28:28.000Z</time>
        <extensions>
          <ns3:TrackPointExtension>
            <ns3:atemp>22.0</ns3:atemp>
          </ns3:TrackPointExtension>
        </extensions>
      </trkpt>
      <trkpt lat="42.51482815481722354888916015625" lon="19.7728990204632282257080078125">
        <ele>1835.5999755859375</ele>
        <time>2026-06-18T10:28:29.000Z</time>
        <extensions>
          <ns3:TrackPointExtension>
            <ns3:atemp>22.0</ns3:atemp>
          </ns3:TrackPointExtension>
        </extensions>
      </trkpt>
      <trkpt lat="42.51482815481722354888916015625" lon="19.7728990204632282257080078125">
        <ele>1835.5999755859375</ele>
        <time>2026-06-18T10:28:30.000Z</time>
        <extensions>
          <ns3:TrackPointExtension>
            <ns3:atemp>22.0</ns3:atemp>
          </ns3:TrackPointExtension>
        </extensions>
      </trkpt>
      <trkpt lat="42.51482815481722354888916015625" lon="19.7728990204632282257080078125">
        <ele>1835.5999755859375</ele>
        <time>2026-06-18T10:28:31.000Z</time>
        <extensions>
          <ns3:TrackPointExtension>
            <ns3:atemp>22.0</ns3:atemp>
          </ns3:TrackPointExtension>
        </extensions>
      </trkpt>
      <trkpt lat="42.51484022475779056549072265625" lon="19.77289843373000621795654296875">
        <ele>1835.5999755859375</ele>
        <time>2026-06-18T10:28:32.000Z</time>
        <extensions>
          <ns3:TrackPointExtension>
            <ns3:atemp>22.0</ns3:atemp>
          </ns3:TrackPointExtension>
        </extensions>
      </trkpt>
      <trkpt lat="42.5148564018309116363525390625" lon="19.772904217243194580078125">
        <ele>1835.5999755859375</ele>
        <time>2026-06-18T10:28:33.000Z</time>
        <extensions>
          <ns3:TrackPointExtension>
            <ns3:atemp>22.0</ns3:atemp>
          </ns3:TrackPointExtension>
        </extensions>
      </trkpt>
      <trkpt lat="42.51485983841121196746826171875" lon="19.7729030437767505645751953125">
        <ele>1835.5999755859375</ele>
        <time>2026-06-18T10:28:34.000Z</time>
        <extensions>
          <ns3:TrackPointExtension>
            <ns3:atemp>22.0</ns3:atemp>
          </ns3:TrackPointExtension>
        </extensions>
      </trkpt>
      <trkpt lat="42.51486000604927539825439453125" lon="19.77290312759578227996826171875">
        <ele>1835.5999755859375</ele>
        <time>2026-06-18T10:28:35.000Z</time>
        <extensions>
          <ns3:TrackPointExtension>
            <ns3:atemp>22.0</ns3:atemp>
          </ns3:TrackPointExtension>
        </extensions>
      </trkpt>
      <trkpt lat="42.5148654542863368988037109375" lon="19.77290295995771884918212890625">
        <ele>1835.5999755859375</ele>
        <time>2026-06-18T10:28:36.000Z</time>
        <extensions>
          <ns3:TrackPointExtension>
            <ns3:atemp>22.0</ns3:atemp>
          </ns3:TrackPointExtension>
        </extensions>
      </trkpt>
      <trkpt lat="42.51486771740019321441650390625" lon="19.77290379814803600311279296875">
        <ele>1835.5999755859375</ele>
        <time>2026-06-18T10:28:37.000Z</time>
        <extensions>
          <ns3:TrackPointExtension>
            <ns3:atemp>22.0</ns3:atemp>
          </ns3:TrackPointExtension>
        </extensions>
      </trkpt>
      <trkpt lat="42.5148678012192249298095703125" lon="19.77290379814803600311279296875">
        <ele>1835.5999755859375</ele>
        <time>2026-06-18T10:28:38.000Z</time>
        <extensions>
          <ns3:TrackPointExtension>
            <ns3:atemp>22.0</ns3:atemp>
          </ns3:TrackPointExtension>
        </extensions>
      </trkpt>
      <trkpt lat="42.5148735009133815765380859375" lon="19.772902540862560272216796875">
        <ele>1835.5999755859375</ele>
        <time>2026-06-18T10:28:39.000Z</time>
        <extensions>
          <ns3:TrackPointExtension>
            <ns3:atemp>22.0</ns3:atemp>
          </ns3:TrackPointExtension>
        </extensions>
      </trkpt>
      <trkpt lat="42.51488045789301395416259765625" lon="19.7729028761386871337890625">
        <ele>1835.5999755859375</ele>
        <time>2026-06-18T10:28:40.000Z</time>
        <extensions>
          <ns3:TrackPointExtension>
            <ns3:atemp>22.0</ns3:atemp>
          </ns3:TrackPointExtension>
        </extensions>
      </trkpt>
      <trkpt lat="42.5148862414062023162841796875" lon="19.7729027085006237030029296875">
        <ele>1835.5999755859375</ele>
        <time>2026-06-18T10:28:41.000Z</time>
        <extensions>
          <ns3:TrackPointExtension>
            <ns3:atemp>22.0</ns3:atemp>
          </ns3:TrackPointExtension>
        </extensions>
      </trkpt>
      <trkpt lat="42.51489537768065929412841796875" lon="19.77289876900613307952880859375">
        <ele>1835.5999755859375</ele>
        <time>2026-06-18T10:28:42.000Z</time>
        <extensions>
          <ns3:TrackPointExtension>
            <ns3:atemp>22.0</ns3:atemp>
          </ns3:TrackPointExtension>
        </extensions>
      </trkpt>
      <trkpt lat="42.51489990390837192535400390625" lon="19.772899188101291656494140625">
        <ele>1835.5999755859375</ele>
        <time>2026-06-18T10:28:43.000Z</time>
        <extensions>
          <ns3:TrackPointExtension>
            <ns3:atemp>22.0</ns3:atemp>
          </ns3:TrackPointExtension>
        </extensions>
      </trkpt>
      <trkpt lat="42.5149051845073699951171875" lon="19.77289876900613307952880859375">
        <ele>1835.5999755859375</ele>
        <time>2026-06-18T10:28:44.000Z</time>
        <extensions>
          <ns3:TrackPointExtension>
            <ns3:atemp>22.0</ns3:atemp>
          </ns3:TrackPointExtension>
        </extensions>
      </trkpt>
      <trkpt lat="42.5149083696305751800537109375" lon="19.772896505892276763916015625">
        <ele>1835.5999755859375</ele>
        <time>2026-06-18T10:28:45.000Z</time>
        <extensions>
          <ns3:TrackPointExtension>
            <ns3:atemp>22.0</ns3:atemp>
          </ns3:TrackPointExtension>
        </extensions>
      </trkpt>
      <trkpt lat="42.51491348259150981903076171875" lon="19.7728980146348476409912109375">
        <ele>1835.5999755859375</ele>
        <time>2026-06-18T10:28:46.000Z</time>
        <extensions>
          <ns3:TrackPointExtension>
            <ns3:atemp>22.0</ns3:atemp>
          </ns3:TrackPointExtension>
        </extensions>
      </trkpt>
      <trkpt lat="42.51491465605795383453369140625" lon="19.772898517549037933349609375">
        <ele>1835.5999755859375</ele>
        <time>2026-06-18T10:28:47.000Z</time>
        <extensions>
          <ns3:TrackPointExtension>
            <ns3:atemp>22.0</ns3:atemp>
          </ns3:TrackPointExtension>
        </extensions>
      </trkpt>
      <trkpt lat="42.514916248619556427001953125" lon="19.77289893664419651031494140625">
        <ele>1835.5999755859375</ele>
        <time>2026-06-18T10:28:48.000Z</time>
        <extensions>
          <ns3:TrackPointExtension>
            <ns3:atemp>22.0</ns3:atemp>
          </ns3:TrackPointExtension>
        </extensions>
      </trkpt>
      <trkpt lat="42.514916248619556427001953125" lon="19.77289893664419651031494140625">
        <ele>1835.5999755859375</ele>
        <time>2026-06-18T10:28:49.000Z</time>
        <extensions>
          <ns3:TrackPointExtension>
            <ns3:atemp>22.0</ns3:atemp>
          </ns3:TrackPointExtension>
        </extensions>
      </trkpt>
      <trkpt lat="42.514916248619556427001953125" lon="19.77289893664419651031494140625">
        <ele>1835.5999755859375</ele>
        <time>2026-06-18T10:28:50.000Z</time>
        <extensions>
          <ns3:TrackPointExtension>
            <ns3:atemp>22.0</ns3:atemp>
          </ns3:TrackPointExtension>
        </extensions>
      </trkpt>
      <trkpt lat="42.51491633243858814239501953125" lon="19.77289893664419651031494140625">
        <ele>1835.5999755859375</ele>
        <time>2026-06-18T10:28:51.000Z</time>
        <extensions>
          <ns3:TrackPointExtension>
            <ns3:atemp>22.0</ns3:atemp>
          </ns3:TrackPointExtension>
        </extensions>
      </trkpt>
      <trkpt lat="42.51492069102823734283447265625" lon="19.77289893664419651031494140625">
        <ele>1835.5999755859375</ele>
        <time>2026-06-18T10:28:52.000Z</time>
        <extensions>
          <ns3:TrackPointExtension>
            <ns3:atemp>22.0</ns3:atemp>
          </ns3:TrackPointExtension>
        </extensions>
      </trkpt>
      <trkpt lat="42.51492287032306194305419921875" lon="19.772901870310306549072265625">
        <ele>1835.5999755859375</ele>
        <time>2026-06-18T10:28:53.000Z</time>
        <extensions>
          <ns3:TrackPointExtension>
            <ns3:atemp>22.0</ns3:atemp>
          </ns3:TrackPointExtension>
        </extensions>
      </trkpt>
      <trkpt lat="42.51493292860686779022216796875" lon="19.77290488779544830322265625">
        <ele>1835.5999755859375</ele>
        <time>2026-06-18T10:28:54.000Z</time>
        <extensions>
          <ns3:TrackPointExtension>
            <ns3:atemp>22.0</ns3:atemp>
          </ns3:TrackPointExtension>
        </extensions>
      </trkpt>
      <trkpt lat="42.5149402208626270294189453125" lon="19.7729107551276683807373046875">
        <ele>1835.5999755859375</ele>
        <time>2026-06-18T10:28:55.000Z</time>
        <extensions>
          <ns3:TrackPointExtension>
            <ns3:atemp>22.0</ns3:atemp>
          </ns3:TrackPointExtension>
        </extensions>
      </trkpt>
      <trkpt lat="42.51494030468165874481201171875" lon="19.77290891110897064208984375">
        <ele>1836.199951171875</ele>
        <time>2026-06-18T10:28:56.000Z</time>
        <extensions>
          <ns3:TrackPointExtension>
            <ns3:atemp>22.0</ns3:atemp>
          </ns3:TrackPointExtension>
        </extensions>
      </trkpt>
      <trkpt lat="42.514940388500690460205078125" lon="19.77290899492800235748291015625">
        <ele>1836</ele>
        <time>2026-06-18T10:28:57.000Z</time>
        <extensions>
          <ns3:TrackPointExtension>
            <ns3:atemp>22.0</ns3:atemp>
          </ns3:TrackPointExtension>
        </extensions>
      </trkpt>
      <trkpt lat="42.514940388500690460205078125" lon="19.77290899492800235748291015625">
        <ele>1835.800048828125</ele>
        <time>2026-06-18T10:28:58.000Z</time>
        <extensions>
          <ns3:TrackPointExtension>
            <ns3:atemp>22.0</ns3:atemp>
          </ns3:TrackPointExtension>
        </extensions>
      </trkpt>
      <trkpt lat="42.514940388500690460205078125" lon="19.77290899492800235748291015625">
        <ele>1835.800048828125</ele>
        <time>2026-06-18T10:28:59.000Z</time>
        <extensions>
          <ns3:TrackPointExtension>
            <ns3:atemp>22.0</ns3:atemp>
          </ns3:TrackPointExtension>
        </extensions>
      </trkpt>
      <trkpt lat="42.514940388500690460205078125" lon="19.77290899492800235748291015625">
        <ele>1835.800048828125</ele>
        <time>2026-06-18T10:29:00.000Z</time>
        <extensions>
          <ns3:TrackPointExtension>
            <ns3:atemp>22.0</ns3:atemp>
          </ns3:TrackPointExtension>
        </extensions>
      </trkpt>
      <trkpt lat="42.51494072377681732177734375" lon="19.77290933020412921905517578125">
        <ele>1836</ele>
        <time>2026-06-18T10:29:01.000Z</time>
        <extensions>
          <ns3:TrackPointExtension>
            <ns3:atemp>22.0</ns3:atemp>
          </ns3:TrackPointExtension>
        </extensions>
      </trkpt>
      <trkpt lat="42.51495975069701671600341796875" lon="19.77292089723050594329833984375">
        <ele>1836.199951171875</ele>
        <time>2026-06-18T10:29:02.000Z</time>
        <extensions>
          <ns3:TrackPointExtension>
            <ns3:atemp>22.0</ns3:atemp>
          </ns3:TrackPointExtension>
        </extensions>
      </trkpt>
      <trkpt lat="42.514973245561122894287109375" lon="19.77291963994503021240234375">
        <ele>1836.4000244140625</ele>
        <time>2026-06-18T10:29:03.000Z</time>
        <extensions>
          <ns3:TrackPointExtension>
            <ns3:atemp>22.0</ns3:atemp>
          </ns3:TrackPointExtension>
        </extensions>
      </trkpt>
      <trkpt lat="42.51498539932072162628173828125" lon="19.7729189693927764892578125">
        <ele>1836.4000244140625</ele>
        <time>2026-06-18T10:29:04.000Z</time>
        <extensions>
          <ns3:TrackPointExtension>
            <ns3:atemp>22.0</ns3:atemp>
          </ns3:TrackPointExtension>
        </extensions>
      </trkpt>
      <trkpt lat="42.51499705016613006591796875" lon="19.77292374707758426666259765625">
        <ele>1836.4000244140625</ele>
        <time>2026-06-18T10:29:05.000Z</time>
        <extensions>
          <ns3:TrackPointExtension>
            <ns3:atemp>22.0</ns3:atemp>
          </ns3:TrackPointExtension>
        </extensions>
      </trkpt>
      <trkpt lat="42.51500953920185565948486328125" lon="19.7729258425533771514892578125">
        <ele>1836.4000244140625</ele>
        <time>2026-06-18T10:29:06.000Z</time>
        <extensions>
          <ns3:TrackPointExtension>
            <ns3:atemp>22.0</ns3:atemp>
          </ns3:TrackPointExtension>
        </extensions>
      </trkpt>
      <trkpt lat="42.51502362079918384552001953125" lon="19.7729258425533771514892578125">
        <ele>1836.199951171875</ele>
        <time>2026-06-18T10:29:07.000Z</time>
        <extensions>
          <ns3:TrackPointExtension>
            <ns3:atemp>22.0</ns3:atemp>
          </ns3:TrackPointExtension>
        </extensions>
      </trkpt>
      <trkpt lat="42.51504273153841495513916015625" lon="19.77292592637240886688232421875">
        <ele>1836.4000244140625</ele>
        <time>2026-06-18T10:29:08.000Z</time>
        <extensions>
          <ns3:TrackPointExtension>
            <ns3:atemp>22.0</ns3:atemp>
          </ns3:TrackPointExtension>
        </extensions>
      </trkpt>
      <trkpt lat="42.51506251282989978790283203125" lon="19.77292709983885288238525390625">
        <ele>1836.5999755859375</ele>
        <time>2026-06-18T10:29:09.000Z</time>
        <extensions>
          <ns3:TrackPointExtension>
            <ns3:atemp>22.0</ns3:atemp>
          </ns3:TrackPointExtension>
        </extensions>
      </trkpt>
      <trkpt lat="42.51508153975009918212890625" lon="19.7729251720011234283447265625">
        <ele>1836.5999755859375</ele>
        <time>2026-06-18T10:29:10.000Z</time>
        <extensions>
          <ns3:TrackPointExtension>
            <ns3:atemp>22.0</ns3:atemp>
          </ns3:TrackPointExtension>
        </extensions>
      </trkpt>
      <trkpt lat="42.515099979937076568603515625" lon="19.77291888557374477386474609375">
        <ele>1836.5999755859375</ele>
        <time>2026-06-18T10:29:11.000Z</time>
        <extensions>
          <ns3:TrackPointExtension>
            <ns3:atemp>22.0</ns3:atemp>
          </ns3:TrackPointExtension>
        </extensions>
      </trkpt>
      <trkpt lat="42.515114732086658477783203125" lon="19.7729117609560489654541015625">
        <ele>1836.800048828125</ele>
        <time>2026-06-18T10:29:12.000Z</time>
        <extensions>
          <ns3:TrackPointExtension>
            <ns3:atemp>22.0</ns3:atemp>
          </ns3:TrackPointExtension>
        </extensions>
      </trkpt>
      <trkpt lat="42.515127472579479217529296875" lon="19.7729043848812580108642578125">
        <ele>1836.800048828125</ele>
        <time>2026-06-18T10:29:13.000Z</time>
        <extensions>
          <ns3:TrackPointExtension>
            <ns3:atemp>22.0</ns3:atemp>
          </ns3:TrackPointExtension>
        </extensions>
      </trkpt>
      <trkpt lat="42.51514096744358539581298828125" lon="19.77289843373000621795654296875">
        <ele>1837</ele>
        <time>2026-06-18T10:29:14.000Z</time>
        <extensions>
          <ns3:TrackPointExtension>
            <ns3:atemp>22.0</ns3:atemp>
          </ns3:TrackPointExtension>
        </extensions>
      </trkpt>
      <trkpt lat="42.51515236683189868927001953125" lon="19.7728939913213253021240234375">
        <ele>1837</ele>
        <time>2026-06-18T10:29:15.000Z</time>
        <extensions>
          <ns3:TrackPointExtension>
            <ns3:atemp>22.0</ns3:atemp>
          </ns3:TrackPointExtension>
        </extensions>
      </trkpt>
      <trkpt lat="42.515150941908359527587890625" lon="19.77288820780813694000244140625">
        <ele>1837</ele>
        <time>2026-06-18T10:29:16.000Z</time>
        <extensions>
          <ns3:TrackPointExtension>
            <ns3:atemp>22.0</ns3:atemp>
          </ns3:TrackPointExtension>
        </extensions>
      </trkpt>
      <trkpt lat="42.5151467509567737579345703125" lon="19.77288586087524890899658203125">
        <ele>1837.199951171875</ele>
        <time>2026-06-18T10:29:17.000Z</time>
        <extensions>
          <ns3:TrackPointExtension>
            <ns3:atemp>22.0</ns3:atemp>
          </ns3:TrackPointExtension>
        </extensions>
      </trkpt>
      <trkpt lat="42.515146918594837188720703125" lon="19.772885777056217193603515625">
        <ele>1837.199951171875</ele>
        <time>2026-06-18T10:29:18.000Z</time>
        <extensions>
          <ns3:TrackPointExtension>
            <ns3:atemp>22.0</ns3:atemp>
          </ns3:TrackPointExtension>
        </extensions>
      </trkpt>
      <trkpt lat="42.515146918594837188720703125" lon="19.772885777056217193603515625">
        <ele>1837.4000244140625</ele>
        <time>2026-06-18T10:29:19.000Z</time>
        <extensions>
          <ns3:TrackPointExtension>
            <ns3:atemp>22.0</ns3:atemp>
          </ns3:TrackPointExtension>
        </extensions>
      </trkpt>
      <trkpt lat="42.515146918594837188720703125" lon="19.772885777056217193603515625">
        <ele>1837.5999755859375</ele>
        <time>2026-06-18T10:29:20.000Z</time>
        <extensions>
          <ns3:TrackPointExtension>
            <ns3:atemp>22.0</ns3:atemp>
          </ns3:TrackPointExtension>
        </extensions>
      </trkpt>
      <trkpt lat="42.515146918594837188720703125" lon="19.772885777056217193603515625">
        <ele>1837.800048828125</ele>
        <time>2026-06-18T10:29:21.000Z</time>
        <extensions>
          <ns3:TrackPointExtension>
            <ns3:atemp>22.0</ns3:atemp>
          </ns3:TrackPointExtension>
        </extensions>
      </trkpt>
      <trkpt lat="42.515146918594837188720703125" lon="19.772885777056217193603515625">
        <ele>1837.800048828125</ele>
        <time>2026-06-18T10:29:22.000Z</time>
        <extensions>
          <ns3:TrackPointExtension>
            <ns3:atemp>22.0</ns3:atemp>
          </ns3:TrackPointExtension>
        </extensions>
      </trkpt>
      <trkpt lat="42.515146918594837188720703125" lon="19.772885777056217193603515625">
        <ele>1837.800048828125</ele>
        <time>2026-06-18T10:29:23.000Z</time>
        <extensions>
          <ns3:TrackPointExtension>
            <ns3:atemp>22.0</ns3:atemp>
          </ns3:TrackPointExtension>
        </extensions>
      </trkpt>
      <trkpt lat="42.515146918594837188720703125" lon="19.772885777056217193603515625">
        <ele>1838</ele>
        <time>2026-06-18T10:29:24.000Z</time>
        <extensions>
          <ns3:TrackPointExtension>
            <ns3:atemp>22.0</ns3:atemp>
          </ns3:TrackPointExtension>
        </extensions>
      </trkpt>
      <trkpt lat="42.515146918594837188720703125" lon="19.772885777056217193603515625">
        <ele>1838</ele>
        <time>2026-06-18T10:29:25.000Z</time>
        <extensions>
          <ns3:TrackPointExtension>
            <ns3:atemp>22.0</ns3:atemp>
          </ns3:TrackPointExtension>
        </extensions>
      </trkpt>
      <trkpt lat="42.515146918594837188720703125" lon="19.772885777056217193603515625">
        <ele>1838</ele>
        <time>2026-06-18T10:29:26.000Z</time>
        <extensions>
          <ns3:TrackPointExtension>
            <ns3:atemp>22.0</ns3:atemp>
          </ns3:TrackPointExtension>
        </extensions>
      </trkpt>
      <trkpt lat="42.515146918594837188720703125" lon="19.772885777056217193603515625">
        <ele>1838</ele>
        <time>2026-06-18T10:29:27.000Z</time>
        <extensions>
          <ns3:TrackPointExtension>
            <ns3:atemp>22.0</ns3:atemp>
          </ns3:TrackPointExtension>
        </extensions>
      </trkpt>
      <trkpt lat="42.515146918594837188720703125" lon="19.772885777056217193603515625">
        <ele>1838.199951171875</ele>
        <time>2026-06-18T10:29:28.000Z</time>
        <extensions>
          <ns3:TrackPointExtension>
            <ns3:atemp>22.0</ns3:atemp>
          </ns3:TrackPointExtension>
        </extensions>
      </trkpt>
      <trkpt lat="42.515146918594837188720703125" lon="19.772885777056217193603515625">
        <ele>1838.199951171875</ele>
        <time>2026-06-18T10:29:29.000Z</time>
        <extensions>
          <ns3:TrackPointExtension>
            <ns3:atemp>22.0</ns3:atemp>
          </ns3:TrackPointExtension>
        </extensions>
      </trkpt>
      <trkpt lat="42.515146918594837188720703125" lon="19.772885777056217193603515625">
        <ele>1838.199951171875</ele>
        <time>2026-06-18T10:29:30.000Z</time>
        <extensions>
          <ns3:TrackPointExtension>
            <ns3:atemp>22.0</ns3:atemp>
          </ns3:TrackPointExtension>
        </extensions>
      </trkpt>
      <trkpt lat="42.51514666713774204254150390625" lon="19.77288653142750263214111328125">
        <ele>1838.199951171875</ele>
        <time>2026-06-18T10:29:31.000Z</time>
        <extensions>
          <ns3:TrackPointExtension>
            <ns3:atemp>22.0</ns3:atemp>
          </ns3:TrackPointExtension>
        </extensions>
      </trkpt>
      <trkpt lat="42.515144906938076019287109375" lon="19.772888459265232086181640625">
        <ele>1838.4000244140625</ele>
        <time>2026-06-18T10:29:32.000Z</time>
        <extensions>
          <ns3:TrackPointExtension>
            <ns3:atemp>22.0</ns3:atemp>
          </ns3:TrackPointExtension>
        </extensions>
      </trkpt>
      <trkpt lat="42.5151360221207141876220703125" lon="19.77289357222616672515869140625">
        <ele>1838.800048828125</ele>
        <time>2026-06-18T10:29:33.000Z</time>
        <extensions>
          <ns3:TrackPointExtension>
            <ns3:atemp>22.0</ns3:atemp>
          </ns3:TrackPointExtension>
        </extensions>
      </trkpt>
      <trkpt lat="42.515128143131732940673828125" lon="19.77289491333067417144775390625">
        <ele>1839</ele>
        <time>2026-06-18T10:29:34.000Z</time>
        <extensions>
          <ns3:TrackPointExtension>
            <ns3:atemp>22.0</ns3:atemp>
          </ns3:TrackPointExtension>
        </extensions>
      </trkpt>
      <trkpt lat="42.515127472579479217529296875" lon="19.77289491333067417144775390625">
        <ele>1839.199951171875</ele>
        <time>2026-06-18T10:29:35.000Z</time>
        <extensions>
          <ns3:TrackPointExtension>
            <ns3:atemp>22.0</ns3:atemp>
          </ns3:TrackPointExtension>
        </extensions>
      </trkpt>
      <trkpt lat="42.51512755639851093292236328125" lon="19.7728949971497058868408203125">
        <ele>1839.199951171875</ele>
        <time>2026-06-18T10:29:36.000Z</time>
        <extensions>
          <ns3:TrackPointExtension>
            <ns3:atemp>22.0</ns3:atemp>
          </ns3:TrackPointExtension>
        </extensions>
      </trkpt>
      <trkpt lat="42.51512755639851093292236328125" lon="19.7728949971497058868408203125">
        <ele>1839</ele>
        <time>2026-06-18T10:29:37.000Z</time>
        <extensions>
          <ns3:TrackPointExtension>
            <ns3:atemp>22.0</ns3:atemp>
          </ns3:TrackPointExtension>
        </extensions>
      </trkpt>
      <trkpt lat="42.51512755639851093292236328125" lon="19.7728949971497058868408203125">
        <ele>1838.800048828125</ele>
        <time>2026-06-18T10:29:38.000Z</time>
        <extensions>
          <ns3:TrackPointExtension>
            <ns3:atemp>22.0</ns3:atemp>
          </ns3:TrackPointExtension>
        </extensions>
      </trkpt>
      <trkpt lat="42.5151278078556060791015625" lon="19.77289541624486446380615234375">
        <ele>1838.5999755859375</ele>
        <time>2026-06-18T10:29:39.000Z</time>
        <extensions>
          <ns3:TrackPointExtension>
            <ns3:atemp>22.0</ns3:atemp>
          </ns3:TrackPointExtension>
        </extensions>
      </trkpt>
      <trkpt lat="42.5151229463517665863037109375" lon="19.7729010321199893951416015625">
        <ele>1838.4000244140625</ele>
        <time>2026-06-18T10:29:40.000Z</time>
        <extensions>
          <ns3:TrackPointExtension>
            <ns3:atemp>22.0</ns3:atemp>
          </ns3:TrackPointExtension>
        </extensions>
      </trkpt>
      <trkpt lat="42.51511783339083194732666015625" lon="19.77290580980479717254638671875">
        <ele>1838.4000244140625</ele>
        <time>2026-06-18T10:29:41.000Z</time>
        <extensions>
          <ns3:TrackPointExtension>
            <ns3:atemp>22.0</ns3:atemp>
          </ns3:TrackPointExtension>
        </extensions>
      </trkpt>
      <trkpt lat="42.5151051767170429229736328125" lon="19.7729141078889369964599609375">
        <ele>1838.199951171875</ele>
        <time>2026-06-18T10:29:42.000Z</time>
        <extensions>
          <ns3:TrackPointExtension>
            <ns3:atemp>22.0</ns3:atemp>
          </ns3:TrackPointExtension>
        </extensions>
      </trkpt>
      <trkpt lat="42.515090592205524444580078125" lon="19.7729184664785861968994140625">
        <ele>1838</ele>
        <time>2026-06-18T10:29:43.000Z</time>
        <extensions>
          <ns3:TrackPointExtension>
            <ns3:atemp>22.0</ns3:atemp>
          </ns3:TrackPointExtension>
        </extensions>
      </trkpt>
      <trkpt lat="42.51507407985627651214599609375" lon="19.772922657430171966552734375">
        <ele>1838</ele>
        <time>2026-06-18T10:29:44.000Z</time>
        <extensions>
          <ns3:TrackPointExtension>
            <ns3:atemp>22.0</ns3:atemp>
          </ns3:TrackPointExtension>
        </extensions>
      </trkpt>
      <trkpt lat="42.51505832187831401824951171875" lon="19.77292542345821857452392578125">
        <ele>1837.800048828125</ele>
        <time>2026-06-18T10:29:45.000Z</time>
        <extensions>
          <ns3:TrackPointExtension>
            <ns3:atemp>22.0</ns3:atemp>
          </ns3:TrackPointExtension>
        </extensions>
      </trkpt>
      <trkpt lat="42.515050359070301055908203125" lon="19.772922657430171966552734375">
        <ele>1837.800048828125</ele>
        <time>2026-06-18T10:29:46.000Z</time>
        <extensions>
          <ns3:TrackPointExtension>
            <ns3:atemp>22.0</ns3:atemp>
          </ns3:TrackPointExtension>
        </extensions>
      </trkpt>
      <trkpt lat="42.51504910178482532501220703125" lon="19.77291989140212535858154296875">
        <ele>1837.800048828125</ele>
        <time>2026-06-18T10:29:47.000Z</time>
        <extensions>
          <ns3:TrackPointExtension>
            <ns3:atemp>22.0</ns3:atemp>
          </ns3:TrackPointExtension>
        </extensions>
      </trkpt>
      <trkpt lat="42.515049017965793609619140625" lon="19.77291989140212535858154296875">
        <ele>1837.800048828125</ele>
        <time>2026-06-18T10:29:48.000Z</time>
        <extensions>
          <ns3:TrackPointExtension>
            <ns3:atemp>22.0</ns3:atemp>
          </ns3:TrackPointExtension>
        </extensions>
      </trkpt>
      <trkpt lat="42.515049017965793609619140625" lon="19.77291989140212535858154296875">
        <ele>1838</ele>
        <time>2026-06-18T10:29:49.000Z</time>
        <extensions>
          <ns3:TrackPointExtension>
            <ns3:atemp>22.0</ns3:atemp>
          </ns3:TrackPointExtension>
        </extensions>
      </trkpt>
      <trkpt lat="42.51505312509834766387939453125" lon="19.77290966548025608062744140625">
        <ele>1838</ele>
        <time>2026-06-18T10:29:50.000Z</time>
        <extensions>
          <ns3:TrackPointExtension>
            <ns3:atemp>22.0</ns3:atemp>
          </ns3:TrackPointExtension>
        </extensions>
      </trkpt>
      <trkpt lat="42.51505681313574314117431640625" lon="19.77289893664419651031494140625">
        <ele>1838.199951171875</ele>
        <time>2026-06-18T10:29:51.000Z</time>
        <extensions>
          <ns3:TrackPointExtension>
            <ns3:atemp>22.0</ns3:atemp>
          </ns3:TrackPointExtension>
        </extensions>
      </trkpt>
      <trkpt lat="42.5150607526302337646484375" lon="19.77289373986423015594482421875">
        <ele>1838.4000244140625</ele>
        <time>2026-06-18T10:29:52.000Z</time>
        <extensions>
          <ns3:TrackPointExtension>
            <ns3:atemp>22.0</ns3:atemp>
          </ns3:TrackPointExtension>
        </extensions>
      </trkpt>
      <trkpt lat="42.5150607526302337646484375" lon="19.77289373986423015594482421875">
        <ele>1838.5999755859375</ele>
        <time>2026-06-18T10:29:53.000Z</time>
        <extensions>
          <ns3:TrackPointExtension>
            <ns3:atemp>22.0</ns3:atemp>
          </ns3:TrackPointExtension>
        </extensions>
      </trkpt>
      <trkpt lat="42.5150607526302337646484375" lon="19.77289373986423015594482421875">
        <ele>1838.5999755859375</ele>
        <time>2026-06-18T10:29:54.000Z</time>
        <extensions>
          <ns3:TrackPointExtension>
            <ns3:atemp>22.0</ns3:atemp>
          </ns3:TrackPointExtension>
        </extensions>
      </trkpt>
      <trkpt lat="42.51506066881120204925537109375" lon="19.77289357222616672515869140625">
        <ele>1838.800048828125</ele>
        <time>2026-06-18T10:29:55.000Z</time>
        <extensions>
          <ns3:TrackPointExtension>
            <ns3:atemp>22.0</ns3:atemp>
          </ns3:TrackPointExtension>
        </extensions>
      </trkpt>
      <trkpt lat="42.51506502740085124969482421875" lon="19.77288150228559970855712890625">
        <ele>1839</ele>
        <time>2026-06-18T10:29:56.000Z</time>
        <extensions>
          <ns3:TrackPointExtension>
            <ns3:atemp>22.0</ns3:atemp>
          </ns3:TrackPointExtension>
        </extensions>
      </trkpt>
      <trkpt lat="42.5150686316192150115966796875" lon="19.772879742085933685302734375">
        <ele>1839</ele>
        <time>2026-06-18T10:29:57.000Z</time>
        <extensions>
          <ns3:TrackPointExtension>
            <ns3:atemp>22.0</ns3:atemp>
          </ns3:TrackPointExtension>
        </extensions>
      </trkpt>
      <trkpt lat="42.51507039181888103485107421875" lon="19.7728755511343479156494140625">
        <ele>1839.199951171875</ele>
        <time>2026-06-18T10:29:58.000Z</time>
        <extensions>
          <ns3:TrackPointExtension>
            <ns3:atemp>22.0</ns3:atemp>
          </ns3:TrackPointExtension>
        </extensions>
      </trkpt>
      <trkpt lat="42.51507005654275417327880859375" lon="19.772873036563396453857421875">
        <ele>1839.199951171875</ele>
        <time>2026-06-18T10:29:59.000Z</time>
        <extensions>
          <ns3:TrackPointExtension>
            <ns3:atemp>22.0</ns3:atemp>
          </ns3:TrackPointExtension>
        </extensions>
      </trkpt>
      <trkpt lat="42.515070140361785888671875" lon="19.77287295274436473846435546875">
        <ele>1839.4000244140625</ele>
        <time>2026-06-18T10:30:00.000Z</time>
        <extensions>
          <ns3:TrackPointExtension>
            <ns3:atemp>22.0</ns3:atemp>
          </ns3:TrackPointExtension>
        </extensions>
      </trkpt>
      <trkpt lat="42.515070140361785888671875" lon="19.77287295274436473846435546875">
        <ele>1839.5999755859375</ele>
        <time>2026-06-18T10:30:01.000Z</time>
        <extensions>
          <ns3:TrackPointExtension>
            <ns3:atemp>22.0</ns3:atemp>
          </ns3:TrackPointExtension>
        </extensions>
      </trkpt>
      <trkpt lat="42.51507039181888103485107421875" lon="19.77287270128726959228515625">
        <ele>1839.5999755859375</ele>
        <time>2026-06-18T10:30:02.000Z</time>
        <extensions>
          <ns3:TrackPointExtension>
            <ns3:atemp>22.0</ns3:atemp>
          </ns3:TrackPointExtension>
        </extensions>
      </trkpt>
      <trkpt lat="42.515085898339748382568359375" lon="19.772857613861560821533203125">
        <ele>1840</ele>
        <time>2026-06-18T10:30:03.000Z</time>
        <extensions>
          <ns3:TrackPointExtension>
            <ns3:atemp>22.0</ns3:atemp>
          </ns3:TrackPointExtension>
        </extensions>
      </trkpt>
      <trkpt lat="42.515099979937076568603515625" lon="19.7728465497493743896484375">
        <ele>1840</ele>
        <time>2026-06-18T10:30:04.000Z</time>
        <extensions>
          <ns3:TrackPointExtension>
            <ns3:atemp>22.0</ns3:atemp>
          </ns3:TrackPointExtension>
        </extensions>
      </trkpt>
      <trkpt lat="42.51511096023023128509521484375" lon="19.77283087559044361114501953125">
        <ele>1840.199951171875</ele>
        <time>2026-06-18T10:30:05.000Z</time>
        <extensions>
          <ns3:TrackPointExtension>
            <ns3:atemp>22.0</ns3:atemp>
          </ns3:TrackPointExtension>
        </extensions>
      </trkpt>
      <trkpt lat="42.51512269489467144012451171875" lon="19.77281033992767333984375">
        <ele>1840.4000244140625</ele>
        <time>2026-06-18T10:30:06.000Z</time>
        <extensions>
          <ns3:TrackPointExtension>
            <ns3:atemp>22.0</ns3:atemp>
          </ns3:TrackPointExtension>
        </extensions>
      </trkpt>
      <trkpt lat="42.51513241790235042572021484375" lon="19.77279349230229854583740234375">
        <ele>1840.4000244140625</ele>
        <time>2026-06-18T10:30:07.000Z</time>
        <extensions>
          <ns3:TrackPointExtension>
            <ns3:atemp>22.0</ns3:atemp>
          </ns3:TrackPointExtension>
        </extensions>
      </trkpt>
      <trkpt lat="42.51513157971203327178955078125" lon="19.7727917321026325225830078125">
        <ele>1840.800048828125</ele>
        <time>2026-06-18T10:30:08.000Z</time>
        <extensions>
          <ns3:TrackPointExtension>
            <ns3:atemp>22.0</ns3:atemp>
          </ns3:TrackPointExtension>
        </extensions>
      </trkpt>
      <trkpt lat="42.5151316635310649871826171875" lon="19.77279181592166423797607421875">
        <ele>1841</ele>
        <time>2026-06-18T10:30:09.000Z</time>
        <extensions>
          <ns3:TrackPointExtension>
            <ns3:atemp>22.0</ns3:atemp>
          </ns3:TrackPointExtension>
        </extensions>
      </trkpt>
      <trkpt lat="42.5151316635310649871826171875" lon="19.77279181592166423797607421875">
        <ele>1841.4000244140625</ele>
        <time>2026-06-18T10:30:10.000Z</time>
        <extensions>
          <ns3:TrackPointExtension>
            <ns3:atemp>22.0</ns3:atemp>
          </ns3:TrackPointExtension>
        </extensions>
      </trkpt>
      <trkpt lat="42.5151319988071918487548828125" lon="19.77279215119779109954833984375">
        <ele>1841.5999755859375</ele>
        <time>2026-06-18T10:30:11.000Z</time>
        <extensions>
          <ns3:TrackPointExtension>
            <ns3:atemp>22.0</ns3:atemp>
          </ns3:TrackPointExtension>
        </extensions>
      </trkpt>
      <trkpt lat="42.51514130271971225738525390625" lon="19.77279097773134708404541015625">
        <ele>1842</ele>
        <time>2026-06-18T10:30:12.000Z</time>
        <extensions>
          <ns3:TrackPointExtension>
            <ns3:atemp>22.0</ns3:atemp>
          </ns3:TrackPointExtension>
        </extensions>
      </trkpt>
      <trkpt lat="42.51514867879450321197509765625" lon="19.7727799974381923675537109375">
        <ele>1842.199951171875</ele>
        <time>2026-06-18T10:30:13.000Z</time>
        <extensions>
          <ns3:TrackPointExtension>
            <ns3:atemp>22.0</ns3:atemp>
          </ns3:TrackPointExtension>
        </extensions>
      </trkpt>
      <trkpt lat="42.51515538431704044342041015625" lon="19.7727660834789276123046875">
        <ele>1842.199951171875</ele>
        <time>2026-06-18T10:30:14.000Z</time>
        <extensions>
          <ns3:TrackPointExtension>
            <ns3:atemp>22.0</ns3:atemp>
          </ns3:TrackPointExtension>
        </extensions>
      </trkpt>
      <trkpt lat="42.5151561386883258819580078125" lon="19.77274395525455474853515625">
        <ele>1842</ele>
        <time>2026-06-18T10:30:15.000Z</time>
        <extensions>
          <ns3:TrackPointExtension>
            <ns3:atemp>22.0</ns3:atemp>
          </ns3:TrackPointExtension>
        </extensions>
      </trkpt>
      <trkpt lat="42.515154294669628143310546875" lon="19.7727146185934543609619140625">
        <ele>1842</ele>
        <time>2026-06-18T10:30:16.000Z</time>
        <extensions>
          <ns3:TrackPointExtension>
            <ns3:atemp>22.0</ns3:atemp>
          </ns3:TrackPointExtension>
        </extensions>
      </trkpt>
      <trkpt lat="42.51515286974608898162841796875" lon="19.7726888023316860198974609375">
        <ele>1842</ele>
        <time>2026-06-18T10:30:17.000Z</time>
        <extensions>
          <ns3:TrackPointExtension>
            <ns3:atemp>22.0</ns3:atemp>
          </ns3:TrackPointExtension>
        </extensions>
      </trkpt>
      <trkpt lat="42.51515756361186504364013671875" lon="19.77266541682183742523193359375">
        <ele>1842.199951171875</ele>
        <time>2026-06-18T10:30:18.000Z</time>
        <extensions>
          <ns3:TrackPointExtension>
            <ns3:atemp>22.0</ns3:atemp>
          </ns3:TrackPointExtension>
        </extensions>
      </trkpt>
      <trkpt lat="42.5151615031063556671142578125" lon="19.77264513261616230010986328125">
        <ele>1842.4000244140625</ele>
        <time>2026-06-18T10:30:19.000Z</time>
        <extensions>
          <ns3:TrackPointExtension>
            <ns3:atemp>22.0</ns3:atemp>
          </ns3:TrackPointExtension>
        </extensions>
      </trkpt>
      <trkpt lat="42.51516628079116344451904296875" lon="19.77262853644788265228271484375">
        <ele>1842.5999755859375</ele>
        <time>2026-06-18T10:30:20.000Z</time>
        <extensions>
          <ns3:TrackPointExtension>
            <ns3:atemp>22.0</ns3:atemp>
          </ns3:TrackPointExtension>
        </extensions>
      </trkpt>
      <trkpt lat="42.5151729024946689605712890625" lon="19.772614203393459320068359375">
        <ele>1842.800048828125</ele>
        <time>2026-06-18T10:30:21.000Z</time>
        <extensions>
          <ns3:TrackPointExtension>
            <ns3:atemp>22.0</ns3:atemp>
          </ns3:TrackPointExtension>
        </extensions>
      </trkpt>
      <trkpt lat="42.515184469521045684814453125" lon="19.7726046480238437652587890625">
        <ele>1843</ele>
        <time>2026-06-18T10:30:22.000Z</time>
        <extensions>
          <ns3:TrackPointExtension>
            <ns3:atemp>22.0</ns3:atemp>
          </ns3:TrackPointExtension>
        </extensions>
      </trkpt>
      <trkpt lat="42.515194527804851531982421875" lon="19.77259668521583080291748046875">
        <ele>1843</ele>
        <time>2026-06-18T10:30:23.000Z</time>
        <extensions>
          <ns3:TrackPointExtension>
            <ns3:atemp>22.0</ns3:atemp>
          </ns3:TrackPointExtension>
        </extensions>
      </trkpt>
      <trkpt lat="42.515198886394500732421875" lon="19.772587381303310394287109375">
        <ele>1843</ele>
        <time>2026-06-18T10:30:24.000Z</time>
        <extensions>
          <ns3:TrackPointExtension>
            <ns3:atemp>22.0</ns3:atemp>
          </ns3:TrackPointExtension>
        </extensions>
      </trkpt>
      <trkpt lat="42.51520215533673763275146484375" lon="19.77258226834237575531005859375">
        <ele>1843.199951171875</ele>
        <time>2026-06-18T10:30:25.000Z</time>
        <extensions>
          <ns3:TrackPointExtension>
            <ns3:atemp>22.0</ns3:atemp>
          </ns3:TrackPointExtension>
        </extensions>
      </trkpt>
      <trkpt lat="42.5152050890028476715087890625" lon="19.7725741378962993621826171875">
        <ele>1843.4000244140625</ele>
        <time>2026-06-18T10:30:26.000Z</time>
        <extensions>
          <ns3:TrackPointExtension>
            <ns3:atemp>22.0</ns3:atemp>
          </ns3:TrackPointExtension>
        </extensions>
      </trkpt>
      <trkpt lat="42.5152087770402431488037109375" lon="19.7725711204111576080322265625">
        <ele>1843.5999755859375</ele>
        <time>2026-06-18T10:30:27.000Z</time>
        <extensions>
          <ns3:TrackPointExtension>
            <ns3:atemp>22.0</ns3:atemp>
          </ns3:TrackPointExtension>
        </extensions>
      </trkpt>
      <trkpt lat="42.5152087770402431488037109375" lon="19.7725711204111576080322265625">
        <ele>1843.800048828125</ele>
        <time>2026-06-18T10:30:28.000Z</time>
        <extensions>
          <ns3:TrackPointExtension>
            <ns3:atemp>22.0</ns3:atemp>
          </ns3:TrackPointExtension>
        </extensions>
      </trkpt>
      <trkpt lat="42.5152087770402431488037109375" lon="19.7725711204111576080322265625">
        <ele>1844</ele>
        <time>2026-06-18T10:30:29.000Z</time>
        <extensions>
          <ns3:TrackPointExtension>
            <ns3:atemp>22.0</ns3:atemp>
          </ns3:TrackPointExtension>
        </extensions>
      </trkpt>
      <trkpt lat="42.5152087770402431488037109375" lon="19.7725711204111576080322265625">
        <ele>1844.199951171875</ele>
        <time>2026-06-18T10:30:30.000Z</time>
        <extensions>
          <ns3:TrackPointExtension>
            <ns3:atemp>22.0</ns3:atemp>
          </ns3:TrackPointExtension>
        </extensions>
      </trkpt>
      <trkpt lat="42.5152087770402431488037109375" lon="19.7725711204111576080322265625">
        <ele>1844.4000244140625</ele>
        <time>2026-06-18T10:30:31.000Z</time>
        <extensions>
          <ns3:TrackPointExtension>
            <ns3:atemp>22.0</ns3:atemp>
          </ns3:TrackPointExtension>
        </extensions>
      </trkpt>
      <trkpt lat="42.5152087770402431488037109375" lon="19.7725711204111576080322265625">
        <ele>1844.5999755859375</ele>
        <time>2026-06-18T10:30:32.000Z</time>
        <extensions>
          <ns3:TrackPointExtension>
            <ns3:atemp>22.0</ns3:atemp>
          </ns3:TrackPointExtension>
        </extensions>
      </trkpt>
      <trkpt lat="42.5152087770402431488037109375" lon="19.7725711204111576080322265625">
        <ele>1844.5999755859375</ele>
        <time>2026-06-18T10:30:33.000Z</time>
        <extensions>
          <ns3:TrackPointExtension>
            <ns3:atemp>22.0</ns3:atemp>
          </ns3:TrackPointExtension>
        </extensions>
      </trkpt>
      <trkpt lat="42.5152087770402431488037109375" lon="19.7725711204111576080322265625">
        <ele>1844.5999755859375</ele>
        <time>2026-06-18T10:30:34.000Z</time>
        <extensions>
          <ns3:TrackPointExtension>
            <ns3:atemp>22.0</ns3:atemp>
          </ns3:TrackPointExtension>
        </extensions>
      </trkpt>
      <trkpt lat="42.5152087770402431488037109375" lon="19.7725711204111576080322265625">
        <ele>1844.5999755859375</ele>
        <time>2026-06-18T10:30:35.000Z</time>
        <extensions>
          <ns3:TrackPointExtension>
            <ns3:atemp>22.0</ns3:atemp>
          </ns3:TrackPointExtension>
        </extensions>
      </trkpt>
      <trkpt lat="42.5152087770402431488037109375" lon="19.7725711204111576080322265625">
        <ele>1844.5999755859375</ele>
        <time>2026-06-18T10:30:36.000Z</time>
        <extensions>
          <ns3:TrackPointExtension>
            <ns3:atemp>22.0</ns3:atemp>
          </ns3:TrackPointExtension>
        </extensions>
      </trkpt>
      <trkpt lat="42.5152087770402431488037109375" lon="19.7725711204111576080322265625">
        <ele>1844.5999755859375</ele>
        <time>2026-06-18T10:30:37.000Z</time>
        <extensions>
          <ns3:TrackPointExtension>
            <ns3:atemp>22.0</ns3:atemp>
          </ns3:TrackPointExtension>
        </extensions>
      </trkpt>
      <trkpt lat="42.51520886085927486419677734375" lon="19.77257003076374530792236328125">
        <ele>1844.5999755859375</ele>
        <time>2026-06-18T10:30:38.000Z</time>
        <extensions>
          <ns3:TrackPointExtension>
            <ns3:atemp>22.0</ns3:atemp>
          </ns3:TrackPointExtension>
        </extensions>
      </trkpt>
      <trkpt lat="42.51521154306828975677490234375" lon="19.77256181649863719940185546875">
        <ele>1844.800048828125</ele>
        <time>2026-06-18T10:30:39.000Z</time>
        <extensions>
          <ns3:TrackPointExtension>
            <ns3:atemp>22.0</ns3:atemp>
          </ns3:TrackPointExtension>
        </extensions>
      </trkpt>
      <trkpt lat="42.5152087770402431488037109375" lon="19.7725711204111576080322265625">
        <ele>1844.5999755859375</ele>
        <time>2026-06-18T10:30:40.000Z</time>
        <extensions>
          <ns3:TrackPointExtension>
            <ns3:atemp>22.0</ns3:atemp>
          </ns3:TrackPointExtension>
        </extensions>
      </trkpt>
      <trkpt lat="42.5152087770402431488037109375" lon="19.7725711204111576080322265625">
        <ele>1844.5999755859375</ele>
        <time>2026-06-18T10:30:41.000Z</time>
        <extensions>
          <ns3:TrackPointExtension>
            <ns3:atemp>22.0</ns3:atemp>
          </ns3:TrackPointExtension>
        </extensions>
      </trkpt>
      <trkpt lat="42.5152087770402431488037109375" lon="19.7725711204111576080322265625">
        <ele>1844.4000244140625</ele>
        <time>2026-06-18T10:30:42.000Z</time>
        <extensions>
          <ns3:TrackPointExtension>
            <ns3:atemp>22.0</ns3:atemp>
          </ns3:TrackPointExtension>
        </extensions>
      </trkpt>
      <trkpt lat="42.5152087770402431488037109375" lon="19.7725711204111576080322265625">
        <ele>1844.4000244140625</ele>
        <time>2026-06-18T10:30:43.000Z</time>
        <extensions>
          <ns3:TrackPointExtension>
            <ns3:atemp>22.0</ns3:atemp>
          </ns3:TrackPointExtension>
        </extensions>
      </trkpt>
      <trkpt lat="42.5152087770402431488037109375" lon="19.7725711204111576080322265625">
        <ele>1844.199951171875</ele>
        <time>2026-06-18T10:30:44.000Z</time>
        <extensions>
          <ns3:TrackPointExtension>
            <ns3:atemp>22.0</ns3:atemp>
          </ns3:TrackPointExtension>
        </extensions>
      </trkpt>
      <trkpt lat="42.5152087770402431488037109375" lon="19.7725711204111576080322265625">
        <ele>1844.199951171875</ele>
        <time>2026-06-18T10:30:45.000Z</time>
        <extensions>
          <ns3:TrackPointExtension>
            <ns3:atemp>22.0</ns3:atemp>
          </ns3:TrackPointExtension>
        </extensions>
      </trkpt>
      <trkpt lat="42.5152087770402431488037109375" lon="19.7725711204111576080322265625">
        <ele>1844.199951171875</ele>
        <time>2026-06-18T10:30:46.000Z</time>
        <extensions>
          <ns3:TrackPointExtension>
            <ns3:atemp>22.0</ns3:atemp>
          </ns3:TrackPointExtension>
        </extensions>
      </trkpt>
      <trkpt lat="42.5152087770402431488037109375" lon="19.7725711204111576080322265625">
        <ele>1844.4000244140625</ele>
        <time>2026-06-18T10:30:47.000Z</time>
        <extensions>
          <ns3:TrackPointExtension>
            <ns3:atemp>22.0</ns3:atemp>
          </ns3:TrackPointExtension>
        </extensions>
      </trkpt>
      <trkpt lat="42.5152087770402431488037109375" lon="19.7725711204111576080322265625">
        <ele>1844.4000244140625</ele>
        <time>2026-06-18T10:30:48.000Z</time>
        <extensions>
          <ns3:TrackPointExtension>
            <ns3:atemp>22.0</ns3:atemp>
          </ns3:TrackPointExtension>
        </extensions>
      </trkpt>
      <trkpt lat="42.5152087770402431488037109375" lon="19.7725711204111576080322265625">
        <ele>1844.4000244140625</ele>
        <time>2026-06-18T10:30:49.000Z</time>
        <extensions>
          <ns3:TrackPointExtension>
            <ns3:atemp>22.0</ns3:atemp>
          </ns3:TrackPointExtension>
        </extensions>
      </trkpt>
      <trkpt lat="42.5152087770402431488037109375" lon="19.7725711204111576080322265625">
        <ele>1844.199951171875</ele>
        <time>2026-06-18T10:30:50.000Z</time>
        <extensions>
          <ns3:TrackPointExtension>
            <ns3:atemp>22.0</ns3:atemp>
          </ns3:TrackPointExtension>
        </extensions>
      </trkpt>
      <trkpt lat="42.5152087770402431488037109375" lon="19.7725711204111576080322265625">
        <ele>1844.199951171875</ele>
        <time>2026-06-18T10:30:51.000Z</time>
        <extensions>
          <ns3:TrackPointExtension>
            <ns3:atemp>22.0</ns3:atemp>
          </ns3:TrackPointExtension>
        </extensions>
      </trkpt>
      <trkpt lat="42.5152087770402431488037109375" lon="19.7725711204111576080322265625">
        <ele>1844.199951171875</ele>
        <time>2026-06-18T10:30:52.000Z</time>
        <extensions>
          <ns3:TrackPointExtension>
            <ns3:atemp>22.0</ns3:atemp>
          </ns3:TrackPointExtension>
        </extensions>
      </trkpt>
      <trkpt lat="42.5152087770402431488037109375" lon="19.7725711204111576080322265625">
        <ele>1844</ele>
        <time>2026-06-18T10:30:53.000Z</time>
        <extensions>
          <ns3:TrackPointExtension>
            <ns3:atemp>22.0</ns3:atemp>
          </ns3:TrackPointExtension>
        </extensions>
      </trkpt>
      <trkpt lat="42.5152087770402431488037109375" lon="19.7725711204111576080322265625">
        <ele>1844</ele>
        <time>2026-06-18T10:30:54.000Z</time>
        <extensions>
          <ns3:TrackPointExtension>
            <ns3:atemp>22.0</ns3:atemp>
          </ns3:TrackPointExtension>
        </extensions>
      </trkpt>
      <trkpt lat="42.5152087770402431488037109375" lon="19.7725711204111576080322265625">
        <ele>1844</ele>
        <time>2026-06-18T10:30:55.000Z</time>
        <extensions>
          <ns3:TrackPointExtension>
            <ns3:atemp>22.0</ns3:atemp>
          </ns3:TrackPointExtension>
        </extensions>
      </trkpt>
      <trkpt lat="42.5152087770402431488037109375" lon="19.7725711204111576080322265625">
        <ele>1844</ele>
        <time>2026-06-18T10:30:56.000Z</time>
        <extensions>
          <ns3:TrackPointExtension>
            <ns3:atemp>22.0</ns3:atemp>
          </ns3:TrackPointExtension>
        </extensions>
      </trkpt>
      <trkpt lat="42.5152087770402431488037109375" lon="19.7725711204111576080322265625">
        <ele>1844</ele>
        <time>2026-06-18T10:30:57.000Z</time>
        <extensions>
          <ns3:TrackPointExtension>
            <ns3:atemp>22.0</ns3:atemp>
          </ns3:TrackPointExtension>
        </extensions>
      </trkpt>
      <trkpt lat="42.5152087770402431488037109375" lon="19.7725711204111576080322265625">
        <ele>1844</ele>
        <time>2026-06-18T10:30:58.000Z</time>
        <extensions>
          <ns3:TrackPointExtension>
            <ns3:atemp>22.0</ns3:atemp>
          </ns3:TrackPointExtension>
        </extensions>
      </trkpt>
      <trkpt lat="42.5152087770402431488037109375" lon="19.7725711204111576080322265625">
        <ele>1844</ele>
        <time>2026-06-18T10:30:59.000Z</time>
        <extensions>
          <ns3:TrackPointExtension>
            <ns3:atemp>22.0</ns3:atemp>
          </ns3:TrackPointExtension>
        </extensions>
      </trkpt>
      <trkpt lat="42.5152087770402431488037109375" lon="19.7725711204111576080322265625">
        <ele>1843.800048828125</ele>
        <time>2026-06-18T10:31:00.000Z</time>
        <extensions>
          <ns3:TrackPointExtension>
            <ns3:atemp>22.0</ns3:atemp>
          </ns3:TrackPointExtension>
        </extensions>
      </trkpt>
      <trkpt lat="42.5152087770402431488037109375" lon="19.7725711204111576080322265625">
        <ele>1843.800048828125</ele>
        <time>2026-06-18T10:31:01.000Z</time>
        <extensions>
          <ns3:TrackPointExtension>
            <ns3:atemp>22.0</ns3:atemp>
          </ns3:TrackPointExtension>
        </extensions>
      </trkpt>
      <trkpt lat="42.5152087770402431488037109375" lon="19.7725711204111576080322265625">
        <ele>1843.800048828125</ele>
        <time>2026-06-18T10:31:02.000Z</time>
        <extensions>
          <ns3:TrackPointExtension>
            <ns3:atemp>22.0</ns3:atemp>
          </ns3:TrackPointExtension>
        </extensions>
      </trkpt>
      <trkpt lat="42.5152087770402431488037109375" lon="19.7725711204111576080322265625">
        <ele>1843.5999755859375</ele>
        <time>2026-06-18T10:31:03.000Z</time>
        <extensions>
          <ns3:TrackPointExtension>
            <ns3:atemp>22.0</ns3:atemp>
          </ns3:TrackPointExtension>
        </extensions>
      </trkpt>
      <trkpt lat="42.5152087770402431488037109375" lon="19.7725711204111576080322265625">
        <ele>1843.5999755859375</ele>
        <time>2026-06-18T10:31:04.000Z</time>
        <extensions>
          <ns3:TrackPointExtension>
            <ns3:atemp>22.0</ns3:atemp>
          </ns3:TrackPointExtension>
        </extensions>
      </trkpt>
      <trkpt lat="42.5152087770402431488037109375" lon="19.7725711204111576080322265625">
        <ele>1843.4000244140625</ele>
        <time>2026-06-18T10:31:05.000Z</time>
        <extensions>
          <ns3:TrackPointExtension>
            <ns3:atemp>22.0</ns3:atemp>
          </ns3:TrackPointExtension>
        </extensions>
      </trkpt>
      <trkpt lat="42.5152087770402431488037109375" lon="19.7725711204111576080322265625">
        <ele>1843.4000244140625</ele>
        <time>2026-06-18T10:31:06.000Z</time>
        <extensions>
          <ns3:TrackPointExtension>
            <ns3:atemp>22.0</ns3:atemp>
          </ns3:TrackPointExtension>
        </extensions>
      </trkpt>
      <trkpt lat="42.5152087770402431488037109375" lon="19.7725711204111576080322265625">
        <ele>1843.4000244140625</ele>
        <time>2026-06-18T10:31:07.000Z</time>
        <extensions>
          <ns3:TrackPointExtension>
            <ns3:atemp>22.0</ns3:atemp>
          </ns3:TrackPointExtension>
        </extensions>
      </trkpt>
      <trkpt lat="42.5152087770402431488037109375" lon="19.7725711204111576080322265625">
        <ele>1843.4000244140625</ele>
        <time>2026-06-18T10:31:08.000Z</time>
        <extensions>
          <ns3:TrackPointExtension>
            <ns3:atemp>22.0</ns3:atemp>
          </ns3:TrackPointExtension>
        </extensions>
      </trkpt>
      <trkpt lat="42.5152087770402431488037109375" lon="19.7725711204111576080322265625">
        <ele>1843.4000244140625</ele>
        <time>2026-06-18T10:31:09.000Z</time>
        <extensions>
          <ns3:TrackPointExtension>
            <ns3:atemp>22.0</ns3:atemp>
          </ns3:TrackPointExtension>
        </extensions>
      </trkpt>
      <trkpt lat="42.5152087770402431488037109375" lon="19.7725711204111576080322265625">
        <ele>1843.5999755859375</ele>
        <time>2026-06-18T10:31:10.000Z</time>
        <extensions>
          <ns3:TrackPointExtension>
            <ns3:atemp>22.0</ns3:atemp>
          </ns3:TrackPointExtension>
        </extensions>
      </trkpt>
      <trkpt lat="42.5152087770402431488037109375" lon="19.7725711204111576080322265625">
        <ele>1843.5999755859375</ele>
        <time>2026-06-18T10:31:11.000Z</time>
        <extensions>
          <ns3:TrackPointExtension>
            <ns3:atemp>22.0</ns3:atemp>
          </ns3:TrackPointExtension>
        </extensions>
      </trkpt>
      <trkpt lat="42.5152087770402431488037109375" lon="19.7725711204111576080322265625">
        <ele>1843.800048828125</ele>
        <time>2026-06-18T10:31:12.000Z</time>
        <extensions>
          <ns3:TrackPointExtension>
            <ns3:atemp>22.0</ns3:atemp>
          </ns3:TrackPointExtension>
        </extensions>
      </trkpt>
      <trkpt lat="42.5152087770402431488037109375" lon="19.7725711204111576080322265625">
        <ele>1843.800048828125</ele>
        <time>2026-06-18T10:31:13.000Z</time>
        <extensions>
          <ns3:TrackPointExtension>
            <ns3:atemp>22.0</ns3:atemp>
          </ns3:TrackPointExtension>
        </extensions>
      </trkpt>
      <trkpt lat="42.5152087770402431488037109375" lon="19.7725711204111576080322265625">
        <ele>1843.5999755859375</ele>
        <time>2026-06-18T10:31:14.000Z</time>
        <extensions>
          <ns3:TrackPointExtension>
            <ns3:atemp>22.0</ns3:atemp>
          </ns3:TrackPointExtension>
        </extensions>
      </trkpt>
      <trkpt lat="42.5152087770402431488037109375" lon="19.7725711204111576080322265625">
        <ele>1843.5999755859375</ele>
        <time>2026-06-18T10:31:15.000Z</time>
        <extensions>
          <ns3:TrackPointExtension>
            <ns3:atemp>22.0</ns3:atemp>
          </ns3:TrackPointExtension>
        </extensions>
      </trkpt>
      <trkpt lat="42.5152087770402431488037109375" lon="19.7725711204111576080322265625">
        <ele>1843.5999755859375</ele>
        <time>2026-06-18T10:31:16.000Z</time>
        <extensions>
          <ns3:TrackPointExtension>
            <ns3:atemp>22.0</ns3:atemp>
          </ns3:TrackPointExtension>
        </extensions>
      </trkpt>
      <trkpt lat="42.5152087770402431488037109375" lon="19.7725711204111576080322265625">
        <ele>1843.5999755859375</ele>
        <time>2026-06-18T10:31:17.000Z</time>
        <extensions>
          <ns3:TrackPointExtension>
            <ns3:atemp>22.0</ns3:atemp>
          </ns3:TrackPointExtension>
        </extensions>
      </trkpt>
      <trkpt lat="42.5152087770402431488037109375" lon="19.7725711204111576080322265625">
        <ele>1843.5999755859375</ele>
        <time>2026-06-18T10:31:18.000Z</time>
        <extensions>
          <ns3:TrackPointExtension>
            <ns3:atemp>22.0</ns3:atemp>
          </ns3:TrackPointExtension>
        </extensions>
      </trkpt>
      <trkpt lat="42.5152087770402431488037109375" lon="19.7725711204111576080322265625">
        <ele>1843.5999755859375</ele>
        <time>2026-06-18T10:31:19.000Z</time>
        <extensions>
          <ns3:TrackPointExtension>
            <ns3:atemp>22.0</ns3:atemp>
          </ns3:TrackPointExtension>
        </extensions>
      </trkpt>
      <trkpt lat="42.5152087770402431488037109375" lon="19.7725711204111576080322265625">
        <ele>1843.5999755859375</ele>
        <time>2026-06-18T10:31:20.000Z</time>
        <extensions>
          <ns3:TrackPointExtension>
            <ns3:atemp>22.0</ns3:atemp>
          </ns3:TrackPointExtension>
        </extensions>
      </trkpt>
      <trkpt lat="42.5152087770402431488037109375" lon="19.7725711204111576080322265625">
        <ele>1843.5999755859375</ele>
        <time>2026-06-18T10:31:21.000Z</time>
        <extensions>
          <ns3:TrackPointExtension>
            <ns3:atemp>22.0</ns3:atemp>
          </ns3:TrackPointExtension>
        </extensions>
      </trkpt>
      <trkpt lat="42.5152087770402431488037109375" lon="19.7725711204111576080322265625">
        <ele>1843.5999755859375</ele>
        <time>2026-06-18T10:31:22.000Z</time>
        <extensions>
          <ns3:TrackPointExtension>
            <ns3:atemp>22.0</ns3:atemp>
          </ns3:TrackPointExtension>
        </extensions>
      </trkpt>
      <trkpt lat="42.5152087770402431488037109375" lon="19.7725711204111576080322265625">
        <ele>1843.800048828125</ele>
        <time>2026-06-18T10:31:23.000Z</time>
        <extensions>
          <ns3:TrackPointExtension>
            <ns3:atemp>22.0</ns3:atemp>
          </ns3:TrackPointExtension>
        </extensions>
      </trkpt>
      <trkpt lat="42.5152087770402431488037109375" lon="19.7725711204111576080322265625">
        <ele>1843.800048828125</ele>
        <time>2026-06-18T10:31:24.000Z</time>
        <extensions>
          <ns3:TrackPointExtension>
            <ns3:atemp>22.0</ns3:atemp>
          </ns3:TrackPointExtension>
        </extensions>
      </trkpt>
      <trkpt lat="42.5152087770402431488037109375" lon="19.7725711204111576080322265625">
        <ele>1843.800048828125</ele>
        <time>2026-06-18T10:31:25.000Z</time>
        <extensions>
          <ns3:TrackPointExtension>
            <ns3:atemp>22.0</ns3:atemp>
          </ns3:TrackPointExtension>
        </extensions>
      </trkpt>
      <trkpt lat="42.5152087770402431488037109375" lon="19.7725711204111576080322265625">
        <ele>1843.800048828125</ele>
        <time>2026-06-18T10:31:26.000Z</time>
        <extensions>
          <ns3:TrackPointExtension>
            <ns3:atemp>22.0</ns3:atemp>
          </ns3:TrackPointExtension>
        </extensions>
      </trkpt>
      <trkpt lat="42.5152087770402431488037109375" lon="19.7725711204111576080322265625">
        <ele>1843.800048828125</ele>
        <time>2026-06-18T10:31:27.000Z</time>
        <extensions>
          <ns3:TrackPointExtension>
            <ns3:atemp>22.0</ns3:atemp>
          </ns3:TrackPointExtension>
        </extensions>
      </trkpt>
      <trkpt lat="42.5152087770402431488037109375" lon="19.7725711204111576080322265625">
        <ele>1843.800048828125</ele>
        <time>2026-06-18T10:31:28.000Z</time>
        <extensions>
          <ns3:TrackPointExtension>
            <ns3:atemp>22.0</ns3:atemp>
          </ns3:TrackPointExtension>
        </extensions>
      </trkpt>
      <trkpt lat="42.5152087770402431488037109375" lon="19.7725711204111576080322265625">
        <ele>1843.5999755859375</ele>
        <time>2026-06-18T10:31:29.000Z</time>
        <extensions>
          <ns3:TrackPointExtension>
            <ns3:atemp>22.0</ns3:atemp>
          </ns3:TrackPointExtension>
        </extensions>
      </trkpt>
      <trkpt lat="42.5152087770402431488037109375" lon="19.7725711204111576080322265625">
        <ele>1843.5999755859375</ele>
        <time>2026-06-18T10:31:30.000Z</time>
        <extensions>
          <ns3:TrackPointExtension>
            <ns3:atemp>22.0</ns3:atemp>
          </ns3:TrackPointExtension>
        </extensions>
      </trkpt>
      <trkpt lat="42.5152087770402431488037109375" lon="19.7725711204111576080322265625">
        <ele>1843.5999755859375</ele>
        <time>2026-06-18T10:31:31.000Z</time>
        <extensions>
          <ns3:TrackPointExtension>
            <ns3:atemp>22.0</ns3:atemp>
          </ns3:TrackPointExtension>
        </extensions>
      </trkpt>
      <trkpt lat="42.5152087770402431488037109375" lon="19.7725711204111576080322265625">
        <ele>1843.5999755859375</ele>
        <time>2026-06-18T10:31:32.000Z</time>
        <extensions>
          <ns3:TrackPointExtension>
            <ns3:atemp>22.0</ns3:atemp>
          </ns3:TrackPointExtension>
        </extensions>
      </trkpt>
      <trkpt lat="42.5152087770402431488037109375" lon="19.7725711204111576080322265625">
        <ele>1843.5999755859375</ele>
        <time>2026-06-18T10:31:33.000Z</time>
        <extensions>
          <ns3:TrackPointExtension>
            <ns3:atemp>22.0</ns3:atemp>
          </ns3:TrackPointExtension>
        </extensions>
      </trkpt>
      <trkpt lat="42.5152087770402431488037109375" lon="19.7725711204111576080322265625">
        <ele>1843.5999755859375</ele>
        <time>2026-06-18T10:31:34.000Z</time>
        <extensions>
          <ns3:TrackPointExtension>
            <ns3:atemp>22.0</ns3:atemp>
          </ns3:TrackPointExtension>
        </extensions>
      </trkpt>
      <trkpt lat="42.5152087770402431488037109375" lon="19.7725711204111576080322265625">
        <ele>1843.5999755859375</ele>
        <time>2026-06-18T10:31:35.000Z</time>
        <extensions>
          <ns3:TrackPointExtension>
            <ns3:atemp>22.0</ns3:atemp>
          </ns3:TrackPointExtension>
        </extensions>
      </trkpt>
      <trkpt lat="42.5152087770402431488037109375" lon="19.7725711204111576080322265625">
        <ele>1843.800048828125</ele>
        <time>2026-06-18T10:31:36.000Z</time>
        <extensions>
          <ns3:TrackPointExtension>
            <ns3:atemp>22.0</ns3:atemp>
          </ns3:TrackPointExtension>
        </extensions>
      </trkpt>
      <trkpt lat="42.5152087770402431488037109375" lon="19.7725711204111576080322265625">
        <ele>1843.800048828125</ele>
        <time>2026-06-18T10:31:37.000Z</time>
        <extensions>
          <ns3:TrackPointExtension>
            <ns3:atemp>22.0</ns3:atemp>
          </ns3:TrackPointExtension>
        </extensions>
      </trkpt>
      <trkpt lat="42.5152087770402431488037109375" lon="19.7725711204111576080322265625">
        <ele>1843.800048828125</ele>
        <time>2026-06-18T10:31:38.000Z</time>
        <extensions>
          <ns3:TrackPointExtension>
            <ns3:atemp>22.0</ns3:atemp>
          </ns3:TrackPointExtension>
        </extensions>
      </trkpt>
      <trkpt lat="42.5152087770402431488037109375" lon="19.7725711204111576080322265625">
        <ele>1843.800048828125</ele>
        <time>2026-06-18T10:31:39.000Z</time>
        <extensions>
          <ns3:TrackPointExtension>
            <ns3:atemp>22.0</ns3:atemp>
          </ns3:TrackPointExtension>
        </extensions>
      </trkpt>
      <trkpt lat="42.5152087770402431488037109375" lon="19.7725711204111576080322265625">
        <ele>1843.800048828125</ele>
        <time>2026-06-18T10:31:40.000Z</time>
        <extensions>
          <ns3:TrackPointExtension>
            <ns3:atemp>22.0</ns3:atemp>
          </ns3:TrackPointExtension>
        </extensions>
      </trkpt>
      <trkpt lat="42.5152087770402431488037109375" lon="19.7725711204111576080322265625">
        <ele>1843.5999755859375</ele>
        <time>2026-06-18T10:31:41.000Z</time>
        <extensions>
          <ns3:TrackPointExtension>
            <ns3:atemp>22.0</ns3:atemp>
          </ns3:TrackPointExtension>
        </extensions>
      </trkpt>
      <trkpt lat="42.5152087770402431488037109375" lon="19.7725711204111576080322265625">
        <ele>1843.5999755859375</ele>
        <time>2026-06-18T10:31:42.000Z</time>
        <extensions>
          <ns3:TrackPointExtension>
            <ns3:atemp>22.0</ns3:atemp>
          </ns3:TrackPointExtension>
        </extensions>
      </trkpt>
      <trkpt lat="42.5152087770402431488037109375" lon="19.7725711204111576080322265625">
        <ele>1843.5999755859375</ele>
        <time>2026-06-18T10:31:43.000Z</time>
        <extensions>
          <ns3:TrackPointExtension>
            <ns3:atemp>22.0</ns3:atemp>
          </ns3:TrackPointExtension>
        </extensions>
      </trkpt>
      <trkpt lat="42.5152087770402431488037109375" lon="19.7725711204111576080322265625">
        <ele>1843.5999755859375</ele>
        <time>2026-06-18T10:31:44.000Z</time>
        <extensions>
          <ns3:TrackPointExtension>
            <ns3:atemp>22.0</ns3:atemp>
          </ns3:TrackPointExtension>
        </extensions>
      </trkpt>
      <trkpt lat="42.5152087770402431488037109375" lon="19.7725711204111576080322265625">
        <ele>1843.5999755859375</ele>
        <time>2026-06-18T10:31:45.000Z</time>
        <extensions>
          <ns3:TrackPointExtension>
            <ns3:atemp>22.0</ns3:atemp>
          </ns3:TrackPointExtension>
        </extensions>
      </trkpt>
      <trkpt lat="42.5152087770402431488037109375" lon="19.7725711204111576080322265625">
        <ele>1843.5999755859375</ele>
        <time>2026-06-18T10:31:46.000Z</time>
        <extensions>
          <ns3:TrackPointExtension>
            <ns3:atemp>22.0</ns3:atemp>
          </ns3:TrackPointExtension>
        </extensions>
      </trkpt>
      <trkpt lat="42.5152087770402431488037109375" lon="19.7725711204111576080322265625">
        <ele>1843.5999755859375</ele>
        <time>2026-06-18T10:31:47.000Z</time>
        <extensions>
          <ns3:TrackPointExtension>
            <ns3:atemp>22.0</ns3:atemp>
          </ns3:TrackPointExtension>
        </extensions>
      </trkpt>
      <trkpt lat="42.5152087770402431488037109375" lon="19.7725711204111576080322265625">
        <ele>1843.5999755859375</ele>
        <time>2026-06-18T10:31:48.000Z</time>
        <extensions>
          <ns3:TrackPointExtension>
            <ns3:atemp>22.0</ns3:atemp>
          </ns3:TrackPointExtension>
        </extensions>
      </trkpt>
      <trkpt lat="42.5152087770402431488037109375" lon="19.7725711204111576080322265625">
        <ele>1843.5999755859375</ele>
        <time>2026-06-18T10:31:49.000Z</time>
        <extensions>
          <ns3:TrackPointExtension>
            <ns3:atemp>22.0</ns3:atemp>
          </ns3:TrackPointExtension>
        </extensions>
      </trkpt>
      <trkpt lat="42.5152087770402431488037109375" lon="19.7725711204111576080322265625">
        <ele>1843.4000244140625</ele>
        <time>2026-06-18T10:31:50.000Z</time>
        <extensions>
          <ns3:TrackPointExtension>
            <ns3:atemp>22.0</ns3:atemp>
          </ns3:TrackPointExtension>
        </extensions>
      </trkpt>
      <trkpt lat="42.5152087770402431488037109375" lon="19.7725711204111576080322265625">
        <ele>1843.4000244140625</ele>
        <time>2026-06-18T10:31:51.000Z</time>
        <extensions>
          <ns3:TrackPointExtension>
            <ns3:atemp>22.0</ns3:atemp>
          </ns3:TrackPointExtension>
        </extensions>
      </trkpt>
      <trkpt lat="42.5152087770402431488037109375" lon="19.7725711204111576080322265625">
        <ele>1843.4000244140625</ele>
        <time>2026-06-18T10:31:52.000Z</time>
        <extensions>
          <ns3:TrackPointExtension>
            <ns3:atemp>22.0</ns3:atemp>
          </ns3:TrackPointExtension>
        </extensions>
      </trkpt>
      <trkpt lat="42.5152087770402431488037109375" lon="19.7725711204111576080322265625">
        <ele>1843.199951171875</ele>
        <time>2026-06-18T10:31:53.000Z</time>
        <extensions>
          <ns3:TrackPointExtension>
            <ns3:atemp>22.0</ns3:atemp>
          </ns3:TrackPointExtension>
        </extensions>
      </trkpt>
      <trkpt lat="42.5152087770402431488037109375" lon="19.7725711204111576080322265625">
        <ele>1843.199951171875</ele>
        <time>2026-06-18T10:31:54.000Z</time>
        <extensions>
          <ns3:TrackPointExtension>
            <ns3:atemp>22.0</ns3:atemp>
          </ns3:TrackPointExtension>
        </extensions>
      </trkpt>
      <trkpt lat="42.5152087770402431488037109375" lon="19.7725711204111576080322265625">
        <ele>1843.199951171875</ele>
        <time>2026-06-18T10:31:55.000Z</time>
        <extensions>
          <ns3:TrackPointExtension>
            <ns3:atemp>22.0</ns3:atemp>
          </ns3:TrackPointExtension>
        </extensions>
      </trkpt>
      <trkpt lat="42.5152087770402431488037109375" lon="19.7725711204111576080322265625">
        <ele>1843.199951171875</ele>
        <time>2026-06-18T10:31:56.000Z</time>
        <extensions>
          <ns3:TrackPointExtension>
            <ns3:atemp>22.0</ns3:atemp>
          </ns3:TrackPointExtension>
        </extensions>
      </trkpt>
      <trkpt lat="42.5152087770402431488037109375" lon="19.7725711204111576080322265625">
        <ele>1843.199951171875</ele>
        <time>2026-06-18T10:31:57.000Z</time>
        <extensions>
          <ns3:TrackPointExtension>
            <ns3:atemp>22.0</ns3:atemp>
          </ns3:TrackPointExtension>
        </extensions>
      </trkpt>
      <trkpt lat="42.5152087770402431488037109375" lon="19.7725711204111576080322265625">
        <ele>1843.199951171875</ele>
        <time>2026-06-18T10:31:58.000Z</time>
        <extensions>
          <ns3:TrackPointExtension>
            <ns3:atemp>22.0</ns3:atemp>
          </ns3:TrackPointExtension>
        </extensions>
      </trkpt>
      <trkpt lat="42.5152087770402431488037109375" lon="19.7725711204111576080322265625">
        <ele>1843.199951171875</ele>
        <time>2026-06-18T10:31:59.000Z</time>
        <extensions>
          <ns3:TrackPointExtension>
            <ns3:atemp>22.0</ns3:atemp>
          </ns3:TrackPointExtension>
        </extensions>
      </trkpt>
      <trkpt lat="42.5152087770402431488037109375" lon="19.7725711204111576080322265625">
        <ele>1843.4000244140625</ele>
        <time>2026-06-18T10:32:00.000Z</time>
        <extensions>
          <ns3:TrackPointExtension>
            <ns3:atemp>22.0</ns3:atemp>
          </ns3:TrackPointExtension>
        </extensions>
      </trkpt>
      <trkpt lat="42.5152087770402431488037109375" lon="19.7725711204111576080322265625">
        <ele>1843.4000244140625</ele>
        <time>2026-06-18T10:32:01.000Z</time>
        <extensions>
          <ns3:TrackPointExtension>
            <ns3:atemp>22.0</ns3:atemp>
          </ns3:TrackPointExtension>
        </extensions>
      </trkpt>
      <trkpt lat="42.5152087770402431488037109375" lon="19.7725711204111576080322265625">
        <ele>1843.5999755859375</ele>
        <time>2026-06-18T10:32:02.000Z</time>
        <extensions>
          <ns3:TrackPointExtension>
            <ns3:atemp>22.0</ns3:atemp>
          </ns3:TrackPointExtension>
        </extensions>
      </trkpt>
      <trkpt lat="42.5152087770402431488037109375" lon="19.7725711204111576080322265625">
        <ele>1843.5999755859375</ele>
        <time>2026-06-18T10:32:03.000Z</time>
        <extensions>
          <ns3:TrackPointExtension>
            <ns3:atemp>22.0</ns3:atemp>
          </ns3:TrackPointExtension>
        </extensions>
      </trkpt>
      <trkpt lat="42.5152087770402431488037109375" lon="19.7725711204111576080322265625">
        <ele>1843.5999755859375</ele>
        <time>2026-06-18T10:32:04.000Z</time>
        <extensions>
          <ns3:TrackPointExtension>
            <ns3:atemp>22.0</ns3:atemp>
          </ns3:TrackPointExtension>
        </extensions>
      </trkpt>
      <trkpt lat="42.5152087770402431488037109375" lon="19.7725711204111576080322265625">
        <ele>1843.5999755859375</ele>
        <time>2026-06-18T10:32:05.000Z</time>
        <extensions>
          <ns3:TrackPointExtension>
            <ns3:atemp>22.0</ns3:atemp>
          </ns3:TrackPointExtension>
        </extensions>
      </trkpt>
      <trkpt lat="42.5152087770402431488037109375" lon="19.7725711204111576080322265625">
        <ele>1843.5999755859375</ele>
        <time>2026-06-18T10:32:06.000Z</time>
        <extensions>
          <ns3:TrackPointExtension>
            <ns3:atemp>22.0</ns3:atemp>
          </ns3:TrackPointExtension>
        </extensions>
      </trkpt>
      <trkpt lat="42.5152087770402431488037109375" lon="19.7725711204111576080322265625">
        <ele>1843.5999755859375</ele>
        <time>2026-06-18T10:32:07.000Z</time>
        <extensions>
          <ns3:TrackPointExtension>
            <ns3:atemp>22.0</ns3:atemp>
          </ns3:TrackPointExtension>
        </extensions>
      </trkpt>
      <trkpt lat="42.5152087770402431488037109375" lon="19.7725711204111576080322265625">
        <ele>1843.800048828125</ele>
        <time>2026-06-18T10:32:08.000Z</time>
        <extensions>
          <ns3:TrackPointExtension>
            <ns3:atemp>22.0</ns3:atemp>
          </ns3:TrackPointExtension>
        </extensions>
      </trkpt>
      <trkpt lat="42.5152087770402431488037109375" lon="19.7725711204111576080322265625">
        <ele>1843.800048828125</ele>
        <time>2026-06-18T10:32:09.000Z</time>
        <extensions>
          <ns3:TrackPointExtension>
            <ns3:atemp>22.0</ns3:atemp>
          </ns3:TrackPointExtension>
        </extensions>
      </trkpt>
      <trkpt lat="42.5152087770402431488037109375" lon="19.7725711204111576080322265625">
        <ele>1843.800048828125</ele>
        <time>2026-06-18T10:32:10.000Z</time>
        <extensions>
          <ns3:TrackPointExtension>
            <ns3:atemp>22.0</ns3:atemp>
          </ns3:TrackPointExtension>
        </extensions>
      </trkpt>
      <trkpt lat="42.5152087770402431488037109375" lon="19.7725711204111576080322265625">
        <ele>1844</ele>
        <time>2026-06-18T10:32:11.000Z</time>
        <extensions>
          <ns3:TrackPointExtension>
            <ns3:atemp>22.0</ns3:atemp>
          </ns3:TrackPointExtension>
        </extensions>
      </trkpt>
      <trkpt lat="42.5152087770402431488037109375" lon="19.7725711204111576080322265625">
        <ele>1844.199951171875</ele>
        <time>2026-06-18T10:32:12.000Z</time>
        <extensions>
          <ns3:TrackPointExtension>
            <ns3:atemp>22.0</ns3:atemp>
          </ns3:TrackPointExtension>
        </extensions>
      </trkpt>
      <trkpt lat="42.5152087770402431488037109375" lon="19.7725711204111576080322265625">
        <ele>1844.199951171875</ele>
        <time>2026-06-18T10:32:13.000Z</time>
        <extensions>
          <ns3:TrackPointExtension>
            <ns3:atemp>22.0</ns3:atemp>
          </ns3:TrackPointExtension>
        </extensions>
      </trkpt>
      <trkpt lat="42.5152087770402431488037109375" lon="19.7725711204111576080322265625">
        <ele>1844.4000244140625</ele>
        <time>2026-06-18T10:32:14.000Z</time>
        <extensions>
          <ns3:TrackPointExtension>
            <ns3:atemp>22.0</ns3:atemp>
          </ns3:TrackPointExtension>
        </extensions>
      </trkpt>
      <trkpt lat="42.5152087770402431488037109375" lon="19.7725711204111576080322265625">
        <ele>1844.4000244140625</ele>
        <time>2026-06-18T10:32:15.000Z</time>
        <extensions>
          <ns3:TrackPointExtension>
            <ns3:atemp>22.0</ns3:atemp>
          </ns3:TrackPointExtension>
        </extensions>
      </trkpt>
      <trkpt lat="42.5152087770402431488037109375" lon="19.7725711204111576080322265625">
        <ele>1844.4000244140625</ele>
        <time>2026-06-18T10:32:16.000Z</time>
        <extensions>
          <ns3:TrackPointExtension>
            <ns3:atemp>22.0</ns3:atemp>
          </ns3:TrackPointExtension>
        </extensions>
      </trkpt>
      <trkpt lat="42.5152087770402431488037109375" lon="19.7725711204111576080322265625">
        <ele>1844.4000244140625</ele>
        <time>2026-06-18T10:32:17.000Z</time>
        <extensions>
          <ns3:TrackPointExtension>
            <ns3:atemp>22.0</ns3:atemp>
          </ns3:TrackPointExtension>
        </extensions>
      </trkpt>
      <trkpt lat="42.5152087770402431488037109375" lon="19.7725711204111576080322265625">
        <ele>1844.4000244140625</ele>
        <time>2026-06-18T10:32:18.000Z</time>
        <extensions>
          <ns3:TrackPointExtension>
            <ns3:atemp>22.0</ns3:atemp>
          </ns3:TrackPointExtension>
        </extensions>
      </trkpt>
      <trkpt lat="42.5152087770402431488037109375" lon="19.7725711204111576080322265625">
        <ele>1844.5999755859375</ele>
        <time>2026-06-18T10:32:19.000Z</time>
        <extensions>
          <ns3:TrackPointExtension>
            <ns3:atemp>22.0</ns3:atemp>
          </ns3:TrackPointExtension>
        </extensions>
      </trkpt>
      <trkpt lat="42.5152087770402431488037109375" lon="19.7725711204111576080322265625">
        <ele>1844.5999755859375</ele>
        <time>2026-06-18T10:32:20.000Z</time>
        <extensions>
          <ns3:TrackPointExtension>
            <ns3:atemp>22.0</ns3:atemp>
          </ns3:TrackPointExtension>
        </extensions>
      </trkpt>
      <trkpt lat="42.5152087770402431488037109375" lon="19.7725711204111576080322265625">
        <ele>1844.800048828125</ele>
        <time>2026-06-18T10:32:21.000Z</time>
        <extensions>
          <ns3:TrackPointExtension>
            <ns3:atemp>22.0</ns3:atemp>
          </ns3:TrackPointExtension>
        </extensions>
      </trkpt>
      <trkpt lat="42.5152087770402431488037109375" lon="19.7725711204111576080322265625">
        <ele>1845</ele>
        <time>2026-06-18T10:32:22.000Z</time>
        <extensions>
          <ns3:TrackPointExtension>
            <ns3:atemp>22.0</ns3:atemp>
          </ns3:TrackPointExtension>
        </extensions>
      </trkpt>
      <trkpt lat="42.5152087770402431488037109375" lon="19.7725711204111576080322265625">
        <ele>1845.199951171875</ele>
        <time>2026-06-18T10:32:23.000Z</time>
        <extensions>
          <ns3:TrackPointExtension>
            <ns3:atemp>22.0</ns3:atemp>
          </ns3:TrackPointExtension>
        </extensions>
      </trkpt>
      <trkpt lat="42.5152087770402431488037109375" lon="19.7725711204111576080322265625">
        <ele>1845.199951171875</ele>
        <time>2026-06-18T10:32:24.000Z</time>
        <extensions>
          <ns3:TrackPointExtension>
            <ns3:atemp>22.0</ns3:atemp>
          </ns3:TrackPointExtension>
        </extensions>
      </trkpt>
      <trkpt lat="42.5152087770402431488037109375" lon="19.7725711204111576080322265625">
        <ele>1845.4000244140625</ele>
        <time>2026-06-18T10:32:25.000Z</time>
        <extensions>
          <ns3:TrackPointExtension>
            <ns3:atemp>22.0</ns3:atemp>
          </ns3:TrackPointExtension>
        </extensions>
      </trkpt>
      <trkpt lat="42.5152087770402431488037109375" lon="19.7725711204111576080322265625">
        <ele>1845.4000244140625</ele>
        <time>2026-06-18T10:32:26.000Z</time>
        <extensions>
          <ns3:TrackPointExtension>
            <ns3:atemp>22.0</ns3:atemp>
          </ns3:TrackPointExtension>
        </extensions>
      </trkpt>
      <trkpt lat="42.5152087770402431488037109375" lon="19.7725711204111576080322265625">
        <ele>1845.4000244140625</ele>
        <time>2026-06-18T10:32:27.000Z</time>
        <extensions>
          <ns3:TrackPointExtension>
            <ns3:atemp>22.0</ns3:atemp>
          </ns3:TrackPointExtension>
        </extensions>
      </trkpt>
      <trkpt lat="42.5152087770402431488037109375" lon="19.7725711204111576080322265625">
        <ele>1845.5999755859375</ele>
        <time>2026-06-18T10:32:28.000Z</time>
        <extensions>
          <ns3:TrackPointExtension>
            <ns3:atemp>22.0</ns3:atemp>
          </ns3:TrackPointExtension>
        </extensions>
      </trkpt>
      <trkpt lat="42.5152087770402431488037109375" lon="19.7725711204111576080322265625">
        <ele>1845.5999755859375</ele>
        <time>2026-06-18T10:32:29.000Z</time>
        <extensions>
          <ns3:TrackPointExtension>
            <ns3:atemp>22.0</ns3:atemp>
          </ns3:TrackPointExtension>
        </extensions>
      </trkpt>
      <trkpt lat="42.5152087770402431488037109375" lon="19.7725711204111576080322265625">
        <ele>1845.5999755859375</ele>
        <time>2026-06-18T10:32:30.000Z</time>
        <extensions>
          <ns3:TrackPointExtension>
            <ns3:atemp>22.0</ns3:atemp>
          </ns3:TrackPointExtension>
        </extensions>
      </trkpt>
      <trkpt lat="42.5152087770402431488037109375" lon="19.7725711204111576080322265625">
        <ele>1845.5999755859375</ele>
        <time>2026-06-18T10:32:31.000Z</time>
        <extensions>
          <ns3:TrackPointExtension>
            <ns3:atemp>22.0</ns3:atemp>
          </ns3:TrackPointExtension>
        </extensions>
      </trkpt>
      <trkpt lat="42.5152087770402431488037109375" lon="19.7725711204111576080322265625">
        <ele>1845.800048828125</ele>
        <time>2026-06-18T10:32:32.000Z</time>
        <extensions>
          <ns3:TrackPointExtension>
            <ns3:atemp>22.0</ns3:atemp>
          </ns3:TrackPointExtension>
        </extensions>
      </trkpt>
      <trkpt lat="42.5152087770402431488037109375" lon="19.7725711204111576080322265625">
        <ele>1845.800048828125</ele>
        <time>2026-06-18T10:32:33.000Z</time>
        <extensions>
          <ns3:TrackPointExtension>
            <ns3:atemp>22.0</ns3:atemp>
          </ns3:TrackPointExtension>
        </extensions>
      </trkpt>
      <trkpt lat="42.5152087770402431488037109375" lon="19.7725711204111576080322265625">
        <ele>1845.5999755859375</ele>
        <time>2026-06-18T10:32:34.000Z</time>
        <extensions>
          <ns3:TrackPointExtension>
            <ns3:atemp>22.0</ns3:atemp>
          </ns3:TrackPointExtension>
        </extensions>
      </trkpt>
      <trkpt lat="42.5152087770402431488037109375" lon="19.7725711204111576080322265625">
        <ele>1845.5999755859375</ele>
        <time>2026-06-18T10:32:35.000Z</time>
        <extensions>
          <ns3:TrackPointExtension>
            <ns3:atemp>22.0</ns3:atemp>
          </ns3:TrackPointExtension>
        </extensions>
      </trkpt>
      <trkpt lat="42.5152087770402431488037109375" lon="19.7725711204111576080322265625">
        <ele>1845.5999755859375</ele>
        <time>2026-06-18T10:32:36.000Z</time>
        <extensions>
          <ns3:TrackPointExtension>
            <ns3:atemp>22.0</ns3:atemp>
          </ns3:TrackPointExtension>
        </extensions>
      </trkpt>
      <trkpt lat="42.5152087770402431488037109375" lon="19.7725711204111576080322265625">
        <ele>1845.5999755859375</ele>
        <time>2026-06-18T10:32:37.000Z</time>
        <extensions>
          <ns3:TrackPointExtension>
            <ns3:atemp>22.0</ns3:atemp>
          </ns3:TrackPointExtension>
        </extensions>
      </trkpt>
      <trkpt lat="42.5152087770402431488037109375" lon="19.7725711204111576080322265625">
        <ele>1845.5999755859375</ele>
        <time>2026-06-18T10:32:38.000Z</time>
        <extensions>
          <ns3:TrackPointExtension>
            <ns3:atemp>22.0</ns3:atemp>
          </ns3:TrackPointExtension>
        </extensions>
      </trkpt>
      <trkpt lat="42.5152087770402431488037109375" lon="19.7725711204111576080322265625">
        <ele>1845.5999755859375</ele>
        <time>2026-06-18T10:32:39.000Z</time>
        <extensions>
          <ns3:TrackPointExtension>
            <ns3:atemp>22.0</ns3:atemp>
          </ns3:TrackPointExtension>
        </extensions>
      </trkpt>
      <trkpt lat="42.5152087770402431488037109375" lon="19.7725711204111576080322265625">
        <ele>1845.800048828125</ele>
        <time>2026-06-18T10:32:40.000Z</time>
        <extensions>
          <ns3:TrackPointExtension>
            <ns3:atemp>23.0</ns3:atemp>
          </ns3:TrackPointExtension>
        </extensions>
      </trkpt>
      <trkpt lat="42.5152087770402431488037109375" lon="19.7725711204111576080322265625">
        <ele>1845.800048828125</ele>
        <time>2026-06-18T10:32:41.000Z</time>
        <extensions>
          <ns3:TrackPointExtension>
            <ns3:atemp>22.0</ns3:atemp>
          </ns3:TrackPointExtension>
        </extensions>
      </trkpt>
      <trkpt lat="42.5152087770402431488037109375" lon="19.7725711204111576080322265625">
        <ele>1845.800048828125</ele>
        <time>2026-06-18T10:32:42.000Z</time>
        <extensions>
          <ns3:TrackPointExtension>
            <ns3:atemp>22.0</ns3:atemp>
          </ns3:TrackPointExtension>
        </extensions>
      </trkpt>
      <trkpt lat="42.5152087770402431488037109375" lon="19.7725711204111576080322265625">
        <ele>1845.800048828125</ele>
        <time>2026-06-18T10:32:43.000Z</time>
        <extensions>
          <ns3:TrackPointExtension>
            <ns3:atemp>22.0</ns3:atemp>
          </ns3:TrackPointExtension>
        </extensions>
      </trkpt>
      <trkpt lat="42.5152087770402431488037109375" lon="19.7725711204111576080322265625">
        <ele>1845.800048828125</ele>
        <time>2026-06-18T10:32:44.000Z</time>
        <extensions>
          <ns3:TrackPointExtension>
            <ns3:atemp>22.0</ns3:atemp>
          </ns3:TrackPointExtension>
        </extensions>
      </trkpt>
      <trkpt lat="42.5152087770402431488037109375" lon="19.7725711204111576080322265625">
        <ele>1845.800048828125</ele>
        <time>2026-06-18T10:32:45.000Z</time>
        <extensions>
          <ns3:TrackPointExtension>
            <ns3:atemp>22.0</ns3:atemp>
          </ns3:TrackPointExtension>
        </extensions>
      </trkpt>
      <trkpt lat="42.5152087770402431488037109375" lon="19.7725711204111576080322265625">
        <ele>1845.800048828125</ele>
        <time>2026-06-18T10:32:46.000Z</time>
        <extensions>
          <ns3:TrackPointExtension>
            <ns3:atemp>22.0</ns3:atemp>
          </ns3:TrackPointExtension>
        </extensions>
      </trkpt>
      <trkpt lat="42.5152087770402431488037109375" lon="19.7725711204111576080322265625">
        <ele>1845.800048828125</ele>
        <time>2026-06-18T10:32:47.000Z</time>
        <extensions>
          <ns3:TrackPointExtension>
            <ns3:atemp>22.0</ns3:atemp>
          </ns3:TrackPointExtension>
        </extensions>
      </trkpt>
      <trkpt lat="42.5152087770402431488037109375" lon="19.7725711204111576080322265625">
        <ele>1845.800048828125</ele>
        <time>2026-06-18T10:32:48.000Z</time>
        <extensions>
          <ns3:TrackPointExtension>
            <ns3:atemp>22.0</ns3:atemp>
          </ns3:TrackPointExtension>
        </extensions>
      </trkpt>
      <trkpt lat="42.5152087770402431488037109375" lon="19.7725711204111576080322265625">
        <ele>1845.800048828125</ele>
        <time>2026-06-18T10:32:49.000Z</time>
        <extensions>
          <ns3:TrackPointExtension>
            <ns3:atemp>22.0</ns3:atemp>
          </ns3:TrackPointExtension>
        </extensions>
      </trkpt>
      <trkpt lat="42.5152087770402431488037109375" lon="19.7725711204111576080322265625">
        <ele>1845.800048828125</ele>
        <time>2026-06-18T10:32:50.000Z</time>
        <extensions>
          <ns3:TrackPointExtension>
            <ns3:atemp>22.0</ns3:atemp>
          </ns3:TrackPointExtension>
        </extensions>
      </trkpt>
      <trkpt lat="42.5152087770402431488037109375" lon="19.7725711204111576080322265625">
        <ele>1845.800048828125</ele>
        <time>2026-06-18T10:32:51.000Z</time>
        <extensions>
          <ns3:TrackPointExtension>
            <ns3:atemp>22.0</ns3:atemp>
          </ns3:TrackPointExtension>
        </extensions>
      </trkpt>
      <trkpt lat="42.5152087770402431488037109375" lon="19.7725711204111576080322265625">
        <ele>1845.800048828125</ele>
        <time>2026-06-18T10:32:52.000Z</time>
        <extensions>
          <ns3:TrackPointExtension>
            <ns3:atemp>22.0</ns3:atemp>
          </ns3:TrackPointExtension>
        </extensions>
      </trkpt>
      <trkpt lat="42.5152087770402431488037109375" lon="19.7725711204111576080322265625">
        <ele>1845.800048828125</ele>
        <time>2026-06-18T10:32:53.000Z</time>
        <extensions>
          <ns3:TrackPointExtension>
            <ns3:atemp>22.0</ns3:atemp>
          </ns3:TrackPointExtension>
        </extensions>
      </trkpt>
      <trkpt lat="42.5152087770402431488037109375" lon="19.7725711204111576080322265625">
        <ele>1845.800048828125</ele>
        <time>2026-06-18T10:32:54.000Z</time>
        <extensions>
          <ns3:TrackPointExtension>
            <ns3:atemp>22.0</ns3:atemp>
          </ns3:TrackPointExtension>
        </extensions>
      </trkpt>
      <trkpt lat="42.5152087770402431488037109375" lon="19.7725711204111576080322265625">
        <ele>1845.800048828125</ele>
        <time>2026-06-18T10:32:55.000Z</time>
        <extensions>
          <ns3:TrackPointExtension>
            <ns3:atemp>22.0</ns3:atemp>
          </ns3:TrackPointExtension>
        </extensions>
      </trkpt>
      <trkpt lat="42.5152087770402431488037109375" lon="19.7725711204111576080322265625">
        <ele>1845.800048828125</ele>
        <time>2026-06-18T10:32:56.000Z</time>
        <extensions>
          <ns3:TrackPointExtension>
            <ns3:atemp>22.0</ns3:atemp>
          </ns3:TrackPointExtension>
        </extensions>
      </trkpt>
      <trkpt lat="42.5152087770402431488037109375" lon="19.7725711204111576080322265625">
        <ele>1845.5999755859375</ele>
        <time>2026-06-18T10:32:57.000Z</time>
        <extensions>
          <ns3:TrackPointExtension>
            <ns3:atemp>22.0</ns3:atemp>
          </ns3:TrackPointExtension>
        </extensions>
      </trkpt>
      <trkpt lat="42.5152087770402431488037109375" lon="19.7725711204111576080322265625">
        <ele>1845.5999755859375</ele>
        <time>2026-06-18T10:32:58.000Z</time>
        <extensions>
          <ns3:TrackPointExtension>
            <ns3:atemp>23.0</ns3:atemp>
          </ns3:TrackPointExtension>
        </extensions>
      </trkpt>
      <trkpt lat="42.5152087770402431488037109375" lon="19.7725711204111576080322265625">
        <ele>1845.5999755859375</ele>
        <time>2026-06-18T10:32:59.000Z</time>
        <extensions>
          <ns3:TrackPointExtension>
            <ns3:atemp>23.0</ns3:atemp>
          </ns3:TrackPointExtension>
        </extensions>
      </trkpt>
      <trkpt lat="42.5152087770402431488037109375" lon="19.7725711204111576080322265625">
        <ele>1845.4000244140625</ele>
        <time>2026-06-18T10:33:00.000Z</time>
        <extensions>
          <ns3:TrackPointExtension>
            <ns3:atemp>22.0</ns3:atemp>
          </ns3:TrackPointExtension>
        </extensions>
      </trkpt>
      <trkpt lat="42.5152087770402431488037109375" lon="19.7725711204111576080322265625">
        <ele>1845.4000244140625</ele>
        <time>2026-06-18T10:33:01.000Z</time>
        <extensions>
          <ns3:TrackPointExtension>
            <ns3:atemp>22.0</ns3:atemp>
          </ns3:TrackPointExtension>
        </extensions>
      </trkpt>
      <trkpt lat="42.5152087770402431488037109375" lon="19.7725711204111576080322265625">
        <ele>1845.4000244140625</ele>
        <time>2026-06-18T10:33:02.000Z</time>
        <extensions>
          <ns3:TrackPointExtension>
            <ns3:atemp>22.0</ns3:atemp>
          </ns3:TrackPointExtension>
        </extensions>
      </trkpt>
      <trkpt lat="42.5152087770402431488037109375" lon="19.7725711204111576080322265625">
        <ele>1845.5999755859375</ele>
        <time>2026-06-18T10:33:03.000Z</time>
        <extensions>
          <ns3:TrackPointExtension>
            <ns3:atemp>23.0</ns3:atemp>
          </ns3:TrackPointExtension>
        </extensions>
      </trkpt>
      <trkpt lat="42.5152087770402431488037109375" lon="19.7725711204111576080322265625">
        <ele>1845.5999755859375</ele>
        <time>2026-06-18T10:33:04.000Z</time>
        <extensions>
          <ns3:TrackPointExtension>
            <ns3:atemp>23.0</ns3:atemp>
          </ns3:TrackPointExtension>
        </extensions>
      </trkpt>
      <trkpt lat="42.5152087770402431488037109375" lon="19.7725711204111576080322265625">
        <ele>1845.4000244140625</ele>
        <time>2026-06-18T10:33:05.000Z</time>
        <extensions>
          <ns3:TrackPointExtension>
            <ns3:atemp>23.0</ns3:atemp>
          </ns3:TrackPointExtension>
        </extensions>
      </trkpt>
      <trkpt lat="42.5152087770402431488037109375" lon="19.7725711204111576080322265625">
        <ele>1845.4000244140625</ele>
        <time>2026-06-18T10:33:06.000Z</time>
        <extensions>
          <ns3:TrackPointExtension>
            <ns3:atemp>22.0</ns3:atemp>
          </ns3:TrackPointExtension>
        </extensions>
      </trkpt>
      <trkpt lat="42.5152087770402431488037109375" lon="19.7725711204111576080322265625">
        <ele>1845.199951171875</ele>
        <time>2026-06-18T10:33:07.000Z</time>
        <extensions>
          <ns3:TrackPointExtension>
            <ns3:atemp>22.0</ns3:atemp>
          </ns3:TrackPointExtension>
        </extensions>
      </trkpt>
      <trkpt lat="42.5152087770402431488037109375" lon="19.7725711204111576080322265625">
        <ele>1845</ele>
        <time>2026-06-18T10:33:08.000Z</time>
        <extensions>
          <ns3:TrackPointExtension>
            <ns3:atemp>23.0</ns3:atemp>
          </ns3:TrackPointExtension>
        </extensions>
      </trkpt>
      <trkpt lat="42.5152087770402431488037109375" lon="19.7725711204111576080322265625">
        <ele>1845</ele>
        <time>2026-06-18T10:33:09.000Z</time>
        <extensions>
          <ns3:TrackPointExtension>
            <ns3:atemp>22.0</ns3:atemp>
          </ns3:TrackPointExtension>
        </extensions>
      </trkpt>
      <trkpt lat="42.5152087770402431488037109375" lon="19.7725711204111576080322265625">
        <ele>1845</ele>
        <time>2026-06-18T10:33:10.000Z</time>
        <extensions>
          <ns3:TrackPointExtension>
            <ns3:atemp>22.0</ns3:atemp>
          </ns3:TrackPointExtension>
        </extensions>
      </trkpt>
      <trkpt lat="42.5152087770402431488037109375" lon="19.7725711204111576080322265625">
        <ele>1845</ele>
        <time>2026-06-18T10:33:11.000Z</time>
        <extensions>
          <ns3:TrackPointExtension>
            <ns3:atemp>22.0</ns3:atemp>
          </ns3:TrackPointExtension>
        </extensions>
      </trkpt>
      <trkpt lat="42.5152087770402431488037109375" lon="19.7725711204111576080322265625">
        <ele>1845.199951171875</ele>
        <time>2026-06-18T10:33:12.000Z</time>
        <extensions>
          <ns3:TrackPointExtension>
            <ns3:atemp>23.0</ns3:atemp>
          </ns3:TrackPointExtension>
        </extensions>
      </trkpt>
      <trkpt lat="42.5152087770402431488037109375" lon="19.7725711204111576080322265625">
        <ele>1845.4000244140625</ele>
        <time>2026-06-18T10:33:13.000Z</time>
        <extensions>
          <ns3:TrackPointExtension>
            <ns3:atemp>23.0</ns3:atemp>
          </ns3:TrackPointExtension>
        </extensions>
      </trkpt>
      <trkpt lat="42.5152087770402431488037109375" lon="19.7725711204111576080322265625">
        <ele>1845.4000244140625</ele>
        <time>2026-06-18T10:33:14.000Z</time>
        <extensions>
          <ns3:TrackPointExtension>
            <ns3:atemp>23.0</ns3:atemp>
          </ns3:TrackPointExtension>
        </extensions>
      </trkpt>
      <trkpt lat="42.5152087770402431488037109375" lon="19.7725711204111576080322265625">
        <ele>1845.4000244140625</ele>
        <time>2026-06-18T10:33:15.000Z</time>
        <extensions>
          <ns3:TrackPointExtension>
            <ns3:atemp>23.0</ns3:atemp>
          </ns3:TrackPointExtension>
        </extensions>
      </trkpt>
      <trkpt lat="42.5152087770402431488037109375" lon="19.7725711204111576080322265625">
        <ele>1845.5999755859375</ele>
        <time>2026-06-18T10:33:16.000Z</time>
        <extensions>
          <ns3:TrackPointExtension>
            <ns3:atemp>23.0</ns3:atemp>
          </ns3:TrackPointExtension>
        </extensions>
      </trkpt>
      <trkpt lat="42.5152087770402431488037109375" lon="19.7725711204111576080322265625">
        <ele>1845.5999755859375</ele>
        <time>2026-06-18T10:33:17.000Z</time>
        <extensions>
          <ns3:TrackPointExtension>
            <ns3:atemp>23.0</ns3:atemp>
          </ns3:TrackPointExtension>
        </extensions>
      </trkpt>
      <trkpt lat="42.5152087770402431488037109375" lon="19.7725711204111576080322265625">
        <ele>1845.4000244140625</ele>
        <time>2026-06-18T10:33:18.000Z</time>
        <extensions>
          <ns3:TrackPointExtension>
            <ns3:atemp>23.0</ns3:atemp>
          </ns3:TrackPointExtension>
        </extensions>
      </trkpt>
      <trkpt lat="42.5152087770402431488037109375" lon="19.7725711204111576080322265625">
        <ele>1845.4000244140625</ele>
        <time>2026-06-18T10:33:19.000Z</time>
        <extensions>
          <ns3:TrackPointExtension>
            <ns3:atemp>23.0</ns3:atemp>
          </ns3:TrackPointExtension>
        </extensions>
      </trkpt>
      <trkpt lat="42.5152087770402431488037109375" lon="19.7725711204111576080322265625">
        <ele>1845.4000244140625</ele>
        <time>2026-06-18T10:33:20.000Z</time>
        <extensions>
          <ns3:TrackPointExtension>
            <ns3:atemp>23.0</ns3:atemp>
          </ns3:TrackPointExtension>
        </extensions>
      </trkpt>
      <trkpt lat="42.5152087770402431488037109375" lon="19.7725711204111576080322265625">
        <ele>1845.4000244140625</ele>
        <time>2026-06-18T10:33:21.000Z</time>
        <extensions>
          <ns3:TrackPointExtension>
            <ns3:atemp>23.0</ns3:atemp>
          </ns3:TrackPointExtension>
        </extensions>
      </trkpt>
      <trkpt lat="42.5152087770402431488037109375" lon="19.7725711204111576080322265625">
        <ele>1845.4000244140625</ele>
        <time>2026-06-18T10:33:22.000Z</time>
        <extensions>
          <ns3:TrackPointExtension>
            <ns3:atemp>23.0</ns3:atemp>
          </ns3:TrackPointExtension>
        </extensions>
      </trkpt>
      <trkpt lat="42.5152087770402431488037109375" lon="19.7725711204111576080322265625">
        <ele>1845.199951171875</ele>
        <time>2026-06-18T10:33:23.000Z</time>
        <extensions>
          <ns3:TrackPointExtension>
            <ns3:atemp>23.0</ns3:atemp>
          </ns3:TrackPointExtension>
        </extensions>
      </trkpt>
      <trkpt lat="42.5152087770402431488037109375" lon="19.7725711204111576080322265625">
        <ele>1845.199951171875</ele>
        <time>2026-06-18T10:33:24.000Z</time>
        <extensions>
          <ns3:TrackPointExtension>
            <ns3:atemp>23.0</ns3:atemp>
          </ns3:TrackPointExtension>
        </extensions>
      </trkpt>
      <trkpt lat="42.5152087770402431488037109375" lon="19.7725711204111576080322265625">
        <ele>1845.4000244140625</ele>
        <time>2026-06-18T10:33:25.000Z</time>
        <extensions>
          <ns3:TrackPointExtension>
            <ns3:atemp>23.0</ns3:atemp>
          </ns3:TrackPointExtension>
        </extensions>
      </trkpt>
      <trkpt lat="42.5152087770402431488037109375" lon="19.7725711204111576080322265625">
        <ele>1845.4000244140625</ele>
        <time>2026-06-18T10:33:26.000Z</time>
        <extensions>
          <ns3:TrackPointExtension>
            <ns3:atemp>23.0</ns3:atemp>
          </ns3:TrackPointExtension>
        </extensions>
      </trkpt>
      <trkpt lat="42.5152087770402431488037109375" lon="19.7725711204111576080322265625">
        <ele>1845.199951171875</ele>
        <time>2026-06-18T10:33:27.000Z</time>
        <extensions>
          <ns3:TrackPointExtension>
            <ns3:atemp>23.0</ns3:atemp>
          </ns3:TrackPointExtension>
        </extensions>
      </trkpt>
      <trkpt lat="42.5152087770402431488037109375" lon="19.7725711204111576080322265625">
        <ele>1845.199951171875</ele>
        <time>2026-06-18T10:33:28.000Z</time>
        <extensions>
          <ns3:TrackPointExtension>
            <ns3:atemp>23.0</ns3:atemp>
          </ns3:TrackPointExtension>
        </extensions>
      </trkpt>
      <trkpt lat="42.5152087770402431488037109375" lon="19.7725711204111576080322265625">
        <ele>1845.199951171875</ele>
        <time>2026-06-18T10:33:29.000Z</time>
        <extensions>
          <ns3:TrackPointExtension>
            <ns3:atemp>23.0</ns3:atemp>
          </ns3:TrackPointExtension>
        </extensions>
      </trkpt>
      <trkpt lat="42.5152087770402431488037109375" lon="19.7725711204111576080322265625">
        <ele>1845</ele>
        <time>2026-06-18T10:33:30.000Z</time>
        <extensions>
          <ns3:TrackPointExtension>
            <ns3:atemp>23.0</ns3:atemp>
          </ns3:TrackPointExtension>
        </extensions>
      </trkpt>
      <trkpt lat="42.5152087770402431488037109375" lon="19.7725711204111576080322265625">
        <ele>1845</ele>
        <time>2026-06-18T10:33:31.000Z</time>
        <extensions>
          <ns3:TrackPointExtension>
            <ns3:atemp>23.0</ns3:atemp>
          </ns3:TrackPointExtension>
        </extensions>
      </trkpt>
      <trkpt lat="42.5152087770402431488037109375" lon="19.7725711204111576080322265625">
        <ele>1845</ele>
        <time>2026-06-18T10:33:32.000Z</time>
        <extensions>
          <ns3:TrackPointExtension>
            <ns3:atemp>23.0</ns3:atemp>
          </ns3:TrackPointExtension>
        </extensions>
      </trkpt>
      <trkpt lat="42.5152087770402431488037109375" lon="19.7725711204111576080322265625">
        <ele>1844.800048828125</ele>
        <time>2026-06-18T10:33:33.000Z</time>
        <extensions>
          <ns3:TrackPointExtension>
            <ns3:atemp>23.0</ns3:atemp>
          </ns3:TrackPointExtension>
        </extensions>
      </trkpt>
      <trkpt lat="42.5152087770402431488037109375" lon="19.7725711204111576080322265625">
        <ele>1844.800048828125</ele>
        <time>2026-06-18T10:33:34.000Z</time>
        <extensions>
          <ns3:TrackPointExtension>
            <ns3:atemp>23.0</ns3:atemp>
          </ns3:TrackPointExtension>
        </extensions>
      </trkpt>
      <trkpt lat="42.5152087770402431488037109375" lon="19.7725711204111576080322265625">
        <ele>1845</ele>
        <time>2026-06-18T10:33:35.000Z</time>
        <extensions>
          <ns3:TrackPointExtension>
            <ns3:atemp>23.0</ns3:atemp>
          </ns3:TrackPointExtension>
        </extensions>
      </trkpt>
      <trkpt lat="42.5152087770402431488037109375" lon="19.7725711204111576080322265625">
        <ele>1845</ele>
        <time>2026-06-18T10:33:36.000Z</time>
        <extensions>
          <ns3:TrackPointExtension>
            <ns3:atemp>23.0</ns3:atemp>
          </ns3:TrackPointExtension>
        </extensions>
      </trkpt>
      <trkpt lat="42.5152087770402431488037109375" lon="19.7725711204111576080322265625">
        <ele>1845</ele>
        <time>2026-06-18T10:33:37.000Z</time>
        <extensions>
          <ns3:TrackPointExtension>
            <ns3:atemp>23.0</ns3:atemp>
          </ns3:TrackPointExtension>
        </extensions>
      </trkpt>
      <trkpt lat="42.5152087770402431488037109375" lon="19.7725711204111576080322265625">
        <ele>1845</ele>
        <time>2026-06-18T10:33:38.000Z</time>
        <extensions>
          <ns3:TrackPointExtension>
            <ns3:atemp>23.0</ns3:atemp>
          </ns3:TrackPointExtension>
        </extensions>
      </trkpt>
      <trkpt lat="42.5152087770402431488037109375" lon="19.7725711204111576080322265625">
        <ele>1845.199951171875</ele>
        <time>2026-06-18T10:33:39.000Z</time>
        <extensions>
          <ns3:TrackPointExtension>
            <ns3:atemp>23.0</ns3:atemp>
          </ns3:TrackPointExtension>
        </extensions>
      </trkpt>
      <trkpt lat="42.5152087770402431488037109375" lon="19.7725711204111576080322265625">
        <ele>1845</ele>
        <time>2026-06-18T10:33:40.000Z</time>
        <extensions>
          <ns3:TrackPointExtension>
            <ns3:atemp>23.0</ns3:atemp>
          </ns3:TrackPointExtension>
        </extensions>
      </trkpt>
      <trkpt lat="42.5152087770402431488037109375" lon="19.7725711204111576080322265625">
        <ele>1845</ele>
        <time>2026-06-18T10:33:41.000Z</time>
        <extensions>
          <ns3:TrackPointExtension>
            <ns3:atemp>23.0</ns3:atemp>
          </ns3:TrackPointExtension>
        </extensions>
      </trkpt>
      <trkpt lat="42.5152087770402431488037109375" lon="19.7725711204111576080322265625">
        <ele>1845</ele>
        <time>2026-06-18T10:33:42.000Z</time>
        <extensions>
          <ns3:TrackPointExtension>
            <ns3:atemp>23.0</ns3:atemp>
          </ns3:TrackPointExtension>
        </extensions>
      </trkpt>
      <trkpt lat="42.5152087770402431488037109375" lon="19.7725711204111576080322265625">
        <ele>1845</ele>
        <time>2026-06-18T10:33:43.000Z</time>
        <extensions>
          <ns3:TrackPointExtension>
            <ns3:atemp>23.0</ns3:atemp>
          </ns3:TrackPointExtension>
        </extensions>
      </trkpt>
      <trkpt lat="42.5152087770402431488037109375" lon="19.7725711204111576080322265625">
        <ele>1844.800048828125</ele>
        <time>2026-06-18T10:33:44.000Z</time>
        <extensions>
          <ns3:TrackPointExtension>
            <ns3:atemp>23.0</ns3:atemp>
          </ns3:TrackPointExtension>
        </extensions>
      </trkpt>
      <trkpt lat="42.5152087770402431488037109375" lon="19.7725711204111576080322265625">
        <ele>1844.800048828125</ele>
        <time>2026-06-18T10:33:45.000Z</time>
        <extensions>
          <ns3:TrackPointExtension>
            <ns3:atemp>23.0</ns3:atemp>
          </ns3:TrackPointExtension>
        </extensions>
      </trkpt>
      <trkpt lat="42.5152087770402431488037109375" lon="19.7725711204111576080322265625">
        <ele>1844.800048828125</ele>
        <time>2026-06-18T10:33:46.000Z</time>
        <extensions>
          <ns3:TrackPointExtension>
            <ns3:atemp>23.0</ns3:atemp>
          </ns3:TrackPointExtension>
        </extensions>
      </trkpt>
      <trkpt lat="42.5152087770402431488037109375" lon="19.7725711204111576080322265625">
        <ele>1844.800048828125</ele>
        <time>2026-06-18T10:33:47.000Z</time>
        <extensions>
          <ns3:TrackPointExtension>
            <ns3:atemp>23.0</ns3:atemp>
          </ns3:TrackPointExtension>
        </extensions>
      </trkpt>
      <trkpt lat="42.5152087770402431488037109375" lon="19.7725711204111576080322265625">
        <ele>1844.800048828125</ele>
        <time>2026-06-18T10:33:48.000Z</time>
        <extensions>
          <ns3:TrackPointExtension>
            <ns3:atemp>23.0</ns3:atemp>
          </ns3:TrackPointExtension>
        </extensions>
      </trkpt>
      <trkpt lat="42.5152087770402431488037109375" lon="19.7725711204111576080322265625">
        <ele>1844.800048828125</ele>
        <time>2026-06-18T10:33:49.000Z</time>
        <extensions>
          <ns3:TrackPointExtension>
            <ns3:atemp>23.0</ns3:atemp>
          </ns3:TrackPointExtension>
        </extensions>
      </trkpt>
      <trkpt lat="42.5152087770402431488037109375" lon="19.7725711204111576080322265625">
        <ele>1844.800048828125</ele>
        <time>2026-06-18T10:33:50.000Z</time>
        <extensions>
          <ns3:TrackPointExtension>
            <ns3:atemp>23.0</ns3:atemp>
          </ns3:TrackPointExtension>
        </extensions>
      </trkpt>
      <trkpt lat="42.5152087770402431488037109375" lon="19.7725711204111576080322265625">
        <ele>1845</ele>
        <time>2026-06-18T10:33:51.000Z</time>
        <extensions>
          <ns3:TrackPointExtension>
            <ns3:atemp>23.0</ns3:atemp>
          </ns3:TrackPointExtension>
        </extensions>
      </trkpt>
      <trkpt lat="42.5152087770402431488037109375" lon="19.7725711204111576080322265625">
        <ele>1845</ele>
        <time>2026-06-18T10:33:52.000Z</time>
        <extensions>
          <ns3:TrackPointExtension>
            <ns3:atemp>23.0</ns3:atemp>
          </ns3:TrackPointExtension>
        </extensions>
      </trkpt>
      <trkpt lat="42.5152087770402431488037109375" lon="19.7725711204111576080322265625">
        <ele>1845.199951171875</ele>
        <time>2026-06-18T10:33:53.000Z</time>
        <extensions>
          <ns3:TrackPointExtension>
            <ns3:atemp>23.0</ns3:atemp>
          </ns3:TrackPointExtension>
        </extensions>
      </trkpt>
      <trkpt lat="42.5152087770402431488037109375" lon="19.7725711204111576080322265625">
        <ele>1845.199951171875</ele>
        <time>2026-06-18T10:33:54.000Z</time>
        <extensions>
          <ns3:TrackPointExtension>
            <ns3:atemp>23.0</ns3:atemp>
          </ns3:TrackPointExtension>
        </extensions>
      </trkpt>
      <trkpt lat="42.5152087770402431488037109375" lon="19.7725711204111576080322265625">
        <ele>1845.199951171875</ele>
        <time>2026-06-18T10:33:55.000Z</time>
        <extensions>
          <ns3:TrackPointExtension>
            <ns3:atemp>23.0</ns3:atemp>
          </ns3:TrackPointExtension>
        </extensions>
      </trkpt>
      <trkpt lat="42.5152087770402431488037109375" lon="19.7725711204111576080322265625">
        <ele>1845.199951171875</ele>
        <time>2026-06-18T10:33:56.000Z</time>
        <extensions>
          <ns3:TrackPointExtension>
            <ns3:atemp>23.0</ns3:atemp>
          </ns3:TrackPointExtension>
        </extensions>
      </trkpt>
      <trkpt lat="42.5152087770402431488037109375" lon="19.7725711204111576080322265625">
        <ele>1845.4000244140625</ele>
        <time>2026-06-18T10:33:57.000Z</time>
        <extensions>
          <ns3:TrackPointExtension>
            <ns3:atemp>23.0</ns3:atemp>
          </ns3:TrackPointExtension>
        </extensions>
      </trkpt>
      <trkpt lat="42.5152087770402431488037109375" lon="19.7725711204111576080322265625">
        <ele>1845.4000244140625</ele>
        <time>2026-06-18T10:33:58.000Z</time>
        <extensions>
          <ns3:TrackPointExtension>
            <ns3:atemp>23.0</ns3:atemp>
          </ns3:TrackPointExtension>
        </extensions>
      </trkpt>
      <trkpt lat="42.5152087770402431488037109375" lon="19.7725711204111576080322265625">
        <ele>1845.4000244140625</ele>
        <time>2026-06-18T10:33:59.000Z</time>
        <extensions>
          <ns3:TrackPointExtension>
            <ns3:atemp>23.0</ns3:atemp>
          </ns3:TrackPointExtension>
        </extensions>
      </trkpt>
      <trkpt lat="42.5152087770402431488037109375" lon="19.7725711204111576080322265625">
        <ele>1845.4000244140625</ele>
        <time>2026-06-18T10:34:00.000Z</time>
        <extensions>
          <ns3:TrackPointExtension>
            <ns3:atemp>23.0</ns3:atemp>
          </ns3:TrackPointExtension>
        </extensions>
      </trkpt>
      <trkpt lat="42.5152087770402431488037109375" lon="19.7725711204111576080322265625">
        <ele>1845.4000244140625</ele>
        <time>2026-06-18T10:34:01.000Z</time>
        <extensions>
          <ns3:TrackPointExtension>
            <ns3:atemp>23.0</ns3:atemp>
          </ns3:TrackPointExtension>
        </extensions>
      </trkpt>
      <trkpt lat="42.5152087770402431488037109375" lon="19.7725711204111576080322265625">
        <ele>1845.4000244140625</ele>
        <time>2026-06-18T10:34:02.000Z</time>
        <extensions>
          <ns3:TrackPointExtension>
            <ns3:atemp>23.0</ns3:atemp>
          </ns3:TrackPointExtension>
        </extensions>
      </trkpt>
      <trkpt lat="42.5152087770402431488037109375" lon="19.7725711204111576080322265625">
        <ele>1845.4000244140625</ele>
        <time>2026-06-18T10:34:03.000Z</time>
        <extensions>
          <ns3:TrackPointExtension>
            <ns3:atemp>23.0</ns3:atemp>
          </ns3:TrackPointExtension>
        </extensions>
      </trkpt>
      <trkpt lat="42.5152087770402431488037109375" lon="19.7725711204111576080322265625">
        <ele>1845.4000244140625</ele>
        <time>2026-06-18T10:34:04.000Z</time>
        <extensions>
          <ns3:TrackPointExtension>
            <ns3:atemp>23.0</ns3:atemp>
          </ns3:TrackPointExtension>
        </extensions>
      </trkpt>
      <trkpt lat="42.5152087770402431488037109375" lon="19.7725711204111576080322265625">
        <ele>1845.4000244140625</ele>
        <time>2026-06-18T10:34:05.000Z</time>
        <extensions>
          <ns3:TrackPointExtension>
            <ns3:atemp>23.0</ns3:atemp>
          </ns3:TrackPointExtension>
        </extensions>
      </trkpt>
      <trkpt lat="42.5152087770402431488037109375" lon="19.7725711204111576080322265625">
        <ele>1845.4000244140625</ele>
        <time>2026-06-18T10:34:06.000Z</time>
        <extensions>
          <ns3:TrackPointExtension>
            <ns3:atemp>23.0</ns3:atemp>
          </ns3:TrackPointExtension>
        </extensions>
      </trkpt>
      <trkpt lat="42.5152087770402431488037109375" lon="19.7725711204111576080322265625">
        <ele>1845.4000244140625</ele>
        <time>2026-06-18T10:34:07.000Z</time>
        <extensions>
          <ns3:TrackPointExtension>
            <ns3:atemp>23.0</ns3:atemp>
          </ns3:TrackPointExtension>
        </extensions>
      </trkpt>
      <trkpt lat="42.5152087770402431488037109375" lon="19.7725711204111576080322265625">
        <ele>1845.4000244140625</ele>
        <time>2026-06-18T10:34:08.000Z</time>
        <extensions>
          <ns3:TrackPointExtension>
            <ns3:atemp>23.0</ns3:atemp>
          </ns3:TrackPointExtension>
        </extensions>
      </trkpt>
      <trkpt lat="42.5152087770402431488037109375" lon="19.7725711204111576080322265625">
        <ele>1845.4000244140625</ele>
        <time>2026-06-18T10:34:09.000Z</time>
        <extensions>
          <ns3:TrackPointExtension>
            <ns3:atemp>23.0</ns3:atemp>
          </ns3:TrackPointExtension>
        </extensions>
      </trkpt>
      <trkpt lat="42.5152087770402431488037109375" lon="19.7725711204111576080322265625">
        <ele>1845.4000244140625</ele>
        <time>2026-06-18T10:34:10.000Z</time>
        <extensions>
          <ns3:TrackPointExtension>
            <ns3:atemp>23.0</ns3:atemp>
          </ns3:TrackPointExtension>
        </extensions>
      </trkpt>
      <trkpt lat="42.5152087770402431488037109375" lon="19.7725711204111576080322265625">
        <ele>1845.4000244140625</ele>
        <time>2026-06-18T10:34:11.000Z</time>
        <extensions>
          <ns3:TrackPointExtension>
            <ns3:atemp>23.0</ns3:atemp>
          </ns3:TrackPointExtension>
        </extensions>
      </trkpt>
      <trkpt lat="42.5152087770402431488037109375" lon="19.7725711204111576080322265625">
        <ele>1845.4000244140625</ele>
        <time>2026-06-18T10:34:12.000Z</time>
        <extensions>
          <ns3:TrackPointExtension>
            <ns3:atemp>23.0</ns3:atemp>
          </ns3:TrackPointExtension>
        </extensions>
      </trkpt>
      <trkpt lat="42.51521154306828975677490234375" lon="19.772556535899639129638671875">
        <ele>1845.4000244140625</ele>
        <time>2026-06-18T10:34:13.000Z</time>
        <extensions>
          <ns3:TrackPointExtension>
            <ns3:atemp>23.0</ns3:atemp>
          </ns3:TrackPointExtension>
        </extensions>
      </trkpt>
      <trkpt lat="42.5152071006596088409423828125" lon="19.77254144847393035888671875">
        <ele>1845.4000244140625</ele>
        <time>2026-06-18T10:34:14.000Z</time>
        <extensions>
          <ns3:TrackPointExtension>
            <ns3:atemp>23.0</ns3:atemp>
          </ns3:TrackPointExtension>
        </extensions>
      </trkpt>
      <trkpt lat="42.51520223915576934814453125" lon="19.7725396044552326202392578125">
        <ele>1845.4000244140625</ele>
        <time>2026-06-18T10:34:15.000Z</time>
        <extensions>
          <ns3:TrackPointExtension>
            <ns3:atemp>23.0</ns3:atemp>
          </ns3:TrackPointExtension>
        </extensions>
      </trkpt>
      <trkpt lat="42.5152010656893253326416015625" lon="19.77253868244588375091552734375">
        <ele>1845.4000244140625</ele>
        <time>2026-06-18T10:34:16.000Z</time>
        <extensions>
          <ns3:TrackPointExtension>
            <ns3:atemp>23.0</ns3:atemp>
          </ns3:TrackPointExtension>
        </extensions>
      </trkpt>
      <trkpt lat="42.5152010656893253326416015625" lon="19.77253868244588375091552734375">
        <ele>1845.4000244140625</ele>
        <time>2026-06-18T10:34:17.000Z</time>
        <extensions>
          <ns3:TrackPointExtension>
            <ns3:atemp>23.0</ns3:atemp>
          </ns3:TrackPointExtension>
        </extensions>
      </trkpt>
      <trkpt lat="42.51520223915576934814453125" lon="19.77254186756908893585205078125">
        <ele>1845.4000244140625</ele>
        <time>2026-06-18T10:34:18.000Z</time>
        <extensions>
          <ns3:TrackPointExtension>
            <ns3:atemp>23.0</ns3:atemp>
          </ns3:TrackPointExtension>
        </extensions>
      </trkpt>
      <trkpt lat="42.51520223915576934814453125" lon="19.77254186756908893585205078125">
        <ele>1845.4000244140625</ele>
        <time>2026-06-18T10:34:19.000Z</time>
        <extensions>
          <ns3:TrackPointExtension>
            <ns3:atemp>23.0</ns3:atemp>
          </ns3:TrackPointExtension>
        </extensions>
      </trkpt>
      <trkpt lat="42.51520223915576934814453125" lon="19.77254186756908893585205078125">
        <ele>1845.4000244140625</ele>
        <time>2026-06-18T10:34:20.000Z</time>
        <extensions>
          <ns3:TrackPointExtension>
            <ns3:atemp>23.0</ns3:atemp>
          </ns3:TrackPointExtension>
        </extensions>
      </trkpt>
      <trkpt lat="42.51520223915576934814453125" lon="19.77254186756908893585205078125">
        <ele>1845.4000244140625</ele>
        <time>2026-06-18T10:34:21.000Z</time>
        <extensions>
          <ns3:TrackPointExtension>
            <ns3:atemp>23.0</ns3:atemp>
          </ns3:TrackPointExtension>
        </extensions>
      </trkpt>
      <trkpt lat="42.51520223915576934814453125" lon="19.77254186756908893585205078125">
        <ele>1845.4000244140625</ele>
        <time>2026-06-18T10:34:22.000Z</time>
        <extensions>
          <ns3:TrackPointExtension>
            <ns3:atemp>23.0</ns3:atemp>
          </ns3:TrackPointExtension>
        </extensions>
      </trkpt>
      <trkpt lat="42.51520223915576934814453125" lon="19.77254186756908893585205078125">
        <ele>1845.4000244140625</ele>
        <time>2026-06-18T10:34:23.000Z</time>
        <extensions>
          <ns3:TrackPointExtension>
            <ns3:atemp>23.0</ns3:atemp>
          </ns3:TrackPointExtension>
        </extensions>
      </trkpt>
      <trkpt lat="42.51520223915576934814453125" lon="19.77254186756908893585205078125">
        <ele>1845.4000244140625</ele>
        <time>2026-06-18T10:34:24.000Z</time>
        <extensions>
          <ns3:TrackPointExtension>
            <ns3:atemp>23.0</ns3:atemp>
          </ns3:TrackPointExtension>
        </extensions>
      </trkpt>
      <trkpt lat="42.51520223915576934814453125" lon="19.77254186756908893585205078125">
        <ele>1845.4000244140625</ele>
        <time>2026-06-18T10:34:25.000Z</time>
        <extensions>
          <ns3:TrackPointExtension>
            <ns3:atemp>23.0</ns3:atemp>
          </ns3:TrackPointExtension>
        </extensions>
      </trkpt>
      <trkpt lat="42.51520223915576934814453125" lon="19.77254186756908893585205078125">
        <ele>1845.4000244140625</ele>
        <time>2026-06-18T10:34:26.000Z</time>
        <extensions>
          <ns3:TrackPointExtension>
            <ns3:atemp>23.0</ns3:atemp>
          </ns3:TrackPointExtension>
        </extensions>
      </trkpt>
      <trkpt lat="42.51520223915576934814453125" lon="19.77254186756908893585205078125">
        <ele>1845.4000244140625</ele>
        <time>2026-06-18T10:34:27.000Z</time>
        <extensions>
          <ns3:TrackPointExtension>
            <ns3:atemp>23.0</ns3:atemp>
          </ns3:TrackPointExtension>
        </extensions>
      </trkpt>
      <trkpt lat="42.51520223915576934814453125" lon="19.77254186756908893585205078125">
        <ele>1845.4000244140625</ele>
        <time>2026-06-18T10:34:28.000Z</time>
        <extensions>
          <ns3:TrackPointExtension>
            <ns3:atemp>23.0</ns3:atemp>
          </ns3:TrackPointExtension>
        </extensions>
      </trkpt>
      <trkpt lat="42.51520223915576934814453125" lon="19.77254186756908893585205078125">
        <ele>1845.4000244140625</ele>
        <time>2026-06-18T10:34:29.000Z</time>
        <extensions>
          <ns3:TrackPointExtension>
            <ns3:atemp>23.0</ns3:atemp>
          </ns3:TrackPointExtension>
        </extensions>
      </trkpt>
      <trkpt lat="42.51520223915576934814453125" lon="19.77254186756908893585205078125">
        <ele>1845.4000244140625</ele>
        <time>2026-06-18T10:34:30.000Z</time>
        <extensions>
          <ns3:TrackPointExtension>
            <ns3:atemp>23.0</ns3:atemp>
          </ns3:TrackPointExtension>
        </extensions>
      </trkpt>
      <trkpt lat="42.51520223915576934814453125" lon="19.77254186756908893585205078125">
        <ele>1845.4000244140625</ele>
        <time>2026-06-18T10:34:31.000Z</time>
        <extensions>
          <ns3:TrackPointExtension>
            <ns3:atemp>23.0</ns3:atemp>
          </ns3:TrackPointExtension>
        </extensions>
      </trkpt>
      <trkpt lat="42.51520223915576934814453125" lon="19.77254186756908893585205078125">
        <ele>1845.4000244140625</ele>
        <time>2026-06-18T10:34:32.000Z</time>
        <extensions>
          <ns3:TrackPointExtension>
            <ns3:atemp>23.0</ns3:atemp>
          </ns3:TrackPointExtension>
        </extensions>
      </trkpt>
      <trkpt lat="42.51520223915576934814453125" lon="19.77254186756908893585205078125">
        <ele>1845.4000244140625</ele>
        <time>2026-06-18T10:34:33.000Z</time>
        <extensions>
          <ns3:TrackPointExtension>
            <ns3:atemp>23.0</ns3:atemp>
          </ns3:TrackPointExtension>
        </extensions>
      </trkpt>
      <trkpt lat="42.51520223915576934814453125" lon="19.77254186756908893585205078125">
        <ele>1845.4000244140625</ele>
        <time>2026-06-18T10:34:34.000Z</time>
        <extensions>
          <ns3:TrackPointExtension>
            <ns3:atemp>23.0</ns3:atemp>
          </ns3:TrackPointExtension>
        </extensions>
      </trkpt>
      <trkpt lat="42.51520223915576934814453125" lon="19.77254186756908893585205078125">
        <ele>1845.4000244140625</ele>
        <time>2026-06-18T10:34:35.000Z</time>
        <extensions>
          <ns3:TrackPointExtension>
            <ns3:atemp>23.0</ns3:atemp>
          </ns3:TrackPointExtension>
        </extensions>
      </trkpt>
      <trkpt lat="42.51520223915576934814453125" lon="19.77254186756908893585205078125">
        <ele>1845.4000244140625</ele>
        <time>2026-06-18T10:34:36.000Z</time>
        <extensions>
          <ns3:TrackPointExtension>
            <ns3:atemp>23.0</ns3:atemp>
          </ns3:TrackPointExtension>
        </extensions>
      </trkpt>
      <trkpt lat="42.51520223915576934814453125" lon="19.77254186756908893585205078125">
        <ele>1845.4000244140625</ele>
        <time>2026-06-18T10:34:37.000Z</time>
        <extensions>
          <ns3:TrackPointExtension>
            <ns3:atemp>23.0</ns3:atemp>
          </ns3:TrackPointExtension>
        </extensions>
      </trkpt>
      <trkpt lat="42.51520223915576934814453125" lon="19.77254186756908893585205078125">
        <ele>1845.4000244140625</ele>
        <time>2026-06-18T10:34:38.000Z</time>
        <extensions>
          <ns3:TrackPointExtension>
            <ns3:atemp>23.0</ns3:atemp>
          </ns3:TrackPointExtension>
        </extensions>
      </trkpt>
      <trkpt lat="42.51520223915576934814453125" lon="19.77254186756908893585205078125">
        <ele>1845.4000244140625</ele>
        <time>2026-06-18T10:34:39.000Z</time>
        <extensions>
          <ns3:TrackPointExtension>
            <ns3:atemp>23.0</ns3:atemp>
          </ns3:TrackPointExtension>
        </extensions>
      </trkpt>
      <trkpt lat="42.51520223915576934814453125" lon="19.77254186756908893585205078125">
        <ele>1845.4000244140625</ele>
        <time>2026-06-18T10:34:40.000Z</time>
        <extensions>
          <ns3:TrackPointExtension>
            <ns3:atemp>23.0</ns3:atemp>
          </ns3:TrackPointExtension>
        </extensions>
      </trkpt>
      <trkpt lat="42.51520223915576934814453125" lon="19.77254186756908893585205078125">
        <ele>1845.4000244140625</ele>
        <time>2026-06-18T10:34:41.000Z</time>
        <extensions>
          <ns3:TrackPointExtension>
            <ns3:atemp>23.0</ns3:atemp>
          </ns3:TrackPointExtension>
        </extensions>
      </trkpt>
      <trkpt lat="42.51520223915576934814453125" lon="19.77254186756908893585205078125">
        <ele>1845.4000244140625</ele>
        <time>2026-06-18T10:34:42.000Z</time>
        <extensions>
          <ns3:TrackPointExtension>
            <ns3:atemp>23.0</ns3:atemp>
          </ns3:TrackPointExtension>
        </extensions>
      </trkpt>
      <trkpt lat="42.51520223915576934814453125" lon="19.77254186756908893585205078125">
        <ele>1845.4000244140625</ele>
        <time>2026-06-18T10:34:43.000Z</time>
        <extensions>
          <ns3:TrackPointExtension>
            <ns3:atemp>23.0</ns3:atemp>
          </ns3:TrackPointExtension>
        </extensions>
      </trkpt>
      <trkpt lat="42.51520223915576934814453125" lon="19.77254186756908893585205078125">
        <ele>1845.4000244140625</ele>
        <time>2026-06-18T10:34:44.000Z</time>
        <extensions>
          <ns3:TrackPointExtension>
            <ns3:atemp>23.0</ns3:atemp>
          </ns3:TrackPointExtension>
        </extensions>
      </trkpt>
      <trkpt lat="42.51520223915576934814453125" lon="19.77254186756908893585205078125">
        <ele>1845.4000244140625</ele>
        <time>2026-06-18T10:34:45.000Z</time>
        <extensions>
          <ns3:TrackPointExtension>
            <ns3:atemp>23.0</ns3:atemp>
          </ns3:TrackPointExtension>
        </extensions>
      </trkpt>
      <trkpt lat="42.51520223915576934814453125" lon="19.77254186756908893585205078125">
        <ele>1845.4000244140625</ele>
        <time>2026-06-18T10:34:46.000Z</time>
        <extensions>
          <ns3:TrackPointExtension>
            <ns3:atemp>23.0</ns3:atemp>
          </ns3:TrackPointExtension>
        </extensions>
      </trkpt>
      <trkpt lat="42.51520223915576934814453125" lon="19.77254186756908893585205078125">
        <ele>1845.4000244140625</ele>
        <time>2026-06-18T10:34:47.000Z</time>
        <extensions>
          <ns3:TrackPointExtension>
            <ns3:atemp>23.0</ns3:atemp>
          </ns3:TrackPointExtension>
        </extensions>
      </trkpt>
      <trkpt lat="42.51520223915576934814453125" lon="19.77254186756908893585205078125">
        <ele>1845.4000244140625</ele>
        <time>2026-06-18T10:34:48.000Z</time>
        <extensions>
          <ns3:TrackPointExtension>
            <ns3:atemp>23.0</ns3:atemp>
          </ns3:TrackPointExtension>
        </extensions>
      </trkpt>
      <trkpt lat="42.51520223915576934814453125" lon="19.77254186756908893585205078125">
        <ele>1845.4000244140625</ele>
        <time>2026-06-18T10:34:49.000Z</time>
        <extensions>
          <ns3:TrackPointExtension>
            <ns3:atemp>23.0</ns3:atemp>
          </ns3:TrackPointExtension>
        </extensions>
      </trkpt>
      <trkpt lat="42.51520223915576934814453125" lon="19.77254186756908893585205078125">
        <ele>1845.4000244140625</ele>
        <time>2026-06-18T10:34:50.000Z</time>
        <extensions>
          <ns3:TrackPointExtension>
            <ns3:atemp>23.0</ns3:atemp>
          </ns3:TrackPointExtension>
        </extensions>
      </trkpt>
      <trkpt lat="42.51520223915576934814453125" lon="19.77254186756908893585205078125">
        <ele>1845.4000244140625</ele>
        <time>2026-06-18T10:34:51.000Z</time>
        <extensions>
          <ns3:TrackPointExtension>
            <ns3:atemp>23.0</ns3:atemp>
          </ns3:TrackPointExtension>
        </extensions>
      </trkpt>
      <trkpt lat="42.51520223915576934814453125" lon="19.77254186756908893585205078125">
        <ele>1845.4000244140625</ele>
        <time>2026-06-18T10:34:52.000Z</time>
        <extensions>
          <ns3:TrackPointExtension>
            <ns3:atemp>23.0</ns3:atemp>
          </ns3:TrackPointExtension>
        </extensions>
      </trkpt>
      <trkpt lat="42.51520223915576934814453125" lon="19.77254186756908893585205078125">
        <ele>1845.4000244140625</ele>
        <time>2026-06-18T10:34:53.000Z</time>
        <extensions>
          <ns3:TrackPointExtension>
            <ns3:atemp>23.0</ns3:atemp>
          </ns3:TrackPointExtension>
        </extensions>
      </trkpt>
      <trkpt lat="42.51520223915576934814453125" lon="19.77254186756908893585205078125">
        <ele>1845.4000244140625</ele>
        <time>2026-06-18T10:34:54.000Z</time>
        <extensions>
          <ns3:TrackPointExtension>
            <ns3:atemp>23.0</ns3:atemp>
          </ns3:TrackPointExtension>
        </extensions>
      </trkpt>
      <trkpt lat="42.51520223915576934814453125" lon="19.77254186756908893585205078125">
        <ele>1845.4000244140625</ele>
        <time>2026-06-18T10:34:55.000Z</time>
        <extensions>
          <ns3:TrackPointExtension>
            <ns3:atemp>23.0</ns3:atemp>
          </ns3:TrackPointExtension>
        </extensions>
      </trkpt>
      <trkpt lat="42.51520223915576934814453125" lon="19.77254186756908893585205078125">
        <ele>1845.4000244140625</ele>
        <time>2026-06-18T10:34:56.000Z</time>
        <extensions>
          <ns3:TrackPointExtension>
            <ns3:atemp>23.0</ns3:atemp>
          </ns3:TrackPointExtension>
        </extensions>
      </trkpt>
      <trkpt lat="42.51520223915576934814453125" lon="19.77254186756908893585205078125">
        <ele>1845.4000244140625</ele>
        <time>2026-06-18T10:34:57.000Z</time>
        <extensions>
          <ns3:TrackPointExtension>
            <ns3:atemp>23.0</ns3:atemp>
          </ns3:TrackPointExtension>
        </extensions>
      </trkpt>
      <trkpt lat="42.51520223915576934814453125" lon="19.77254186756908893585205078125">
        <ele>1845.4000244140625</ele>
        <time>2026-06-18T10:34:58.000Z</time>
        <extensions>
          <ns3:TrackPointExtension>
            <ns3:atemp>23.0</ns3:atemp>
          </ns3:TrackPointExtension>
        </extensions>
      </trkpt>
      <trkpt lat="42.51520223915576934814453125" lon="19.77254186756908893585205078125">
        <ele>1845.4000244140625</ele>
        <time>2026-06-18T10:34:59.000Z</time>
        <extensions>
          <ns3:TrackPointExtension>
            <ns3:atemp>23.0</ns3:atemp>
          </ns3:TrackPointExtension>
        </extensions>
      </trkpt>
      <trkpt lat="42.51520223915576934814453125" lon="19.77254186756908893585205078125">
        <ele>1845.4000244140625</ele>
        <time>2026-06-18T10:35:00.000Z</time>
        <extensions>
          <ns3:TrackPointExtension>
            <ns3:atemp>23.0</ns3:atemp>
          </ns3:TrackPointExtension>
        </extensions>
      </trkpt>
      <trkpt lat="42.51520223915576934814453125" lon="19.77254186756908893585205078125">
        <ele>1845.4000244140625</ele>
        <time>2026-06-18T10:35:01.000Z</time>
        <extensions>
          <ns3:TrackPointExtension>
            <ns3:atemp>23.0</ns3:atemp>
          </ns3:TrackPointExtension>
        </extensions>
      </trkpt>
      <trkpt lat="42.51520223915576934814453125" lon="19.77254186756908893585205078125">
        <ele>1845.4000244140625</ele>
        <time>2026-06-18T10:35:02.000Z</time>
        <extensions>
          <ns3:TrackPointExtension>
            <ns3:atemp>23.0</ns3:atemp>
          </ns3:TrackPointExtension>
        </extensions>
      </trkpt>
      <trkpt lat="42.51520223915576934814453125" lon="19.77254186756908893585205078125">
        <ele>1845.4000244140625</ele>
        <time>2026-06-18T10:35:03.000Z</time>
        <extensions>
          <ns3:TrackPointExtension>
            <ns3:atemp>23.0</ns3:atemp>
          </ns3:TrackPointExtension>
        </extensions>
      </trkpt>
      <trkpt lat="42.51520223915576934814453125" lon="19.77254186756908893585205078125">
        <ele>1845.4000244140625</ele>
        <time>2026-06-18T10:35:04.000Z</time>
        <extensions>
          <ns3:TrackPointExtension>
            <ns3:atemp>23.0</ns3:atemp>
          </ns3:TrackPointExtension>
        </extensions>
      </trkpt>
      <trkpt lat="42.51520223915576934814453125" lon="19.77254186756908893585205078125">
        <ele>1845.4000244140625</ele>
        <time>2026-06-18T10:35:05.000Z</time>
        <extensions>
          <ns3:TrackPointExtension>
            <ns3:atemp>23.0</ns3:atemp>
          </ns3:TrackPointExtension>
        </extensions>
      </trkpt>
      <trkpt lat="42.51520223915576934814453125" lon="19.77254186756908893585205078125">
        <ele>1845.4000244140625</ele>
        <time>2026-06-18T10:35:06.000Z</time>
        <extensions>
          <ns3:TrackPointExtension>
            <ns3:atemp>23.0</ns3:atemp>
          </ns3:TrackPointExtension>
        </extensions>
      </trkpt>
      <trkpt lat="42.51520223915576934814453125" lon="19.77254186756908893585205078125">
        <ele>1845.4000244140625</ele>
        <time>2026-06-18T10:35:07.000Z</time>
        <extensions>
          <ns3:TrackPointExtension>
            <ns3:atemp>23.0</ns3:atemp>
          </ns3:TrackPointExtension>
        </extensions>
      </trkpt>
      <trkpt lat="42.51520223915576934814453125" lon="19.77254186756908893585205078125">
        <ele>1845.4000244140625</ele>
        <time>2026-06-18T10:35:08.000Z</time>
        <extensions>
          <ns3:TrackPointExtension>
            <ns3:atemp>23.0</ns3:atemp>
          </ns3:TrackPointExtension>
        </extensions>
      </trkpt>
      <trkpt lat="42.51520223915576934814453125" lon="19.77254186756908893585205078125">
        <ele>1845.4000244140625</ele>
        <time>2026-06-18T10:35:09.000Z</time>
        <extensions>
          <ns3:TrackPointExtension>
            <ns3:atemp>23.0</ns3:atemp>
          </ns3:TrackPointExtension>
        </extensions>
      </trkpt>
      <trkpt lat="42.51520223915576934814453125" lon="19.77254186756908893585205078125">
        <ele>1845.4000244140625</ele>
        <time>2026-06-18T10:35:10.000Z</time>
        <extensions>
          <ns3:TrackPointExtension>
            <ns3:atemp>23.0</ns3:atemp>
          </ns3:TrackPointExtension>
        </extensions>
      </trkpt>
      <trkpt lat="42.51520223915576934814453125" lon="19.77254186756908893585205078125">
        <ele>1845.4000244140625</ele>
        <time>2026-06-18T10:35:11.000Z</time>
        <extensions>
          <ns3:TrackPointExtension>
            <ns3:atemp>23.0</ns3:atemp>
          </ns3:TrackPointExtension>
        </extensions>
      </trkpt>
      <trkpt lat="42.51520223915576934814453125" lon="19.77254186756908893585205078125">
        <ele>1845.4000244140625</ele>
        <time>2026-06-18T10:35:12.000Z</time>
        <extensions>
          <ns3:TrackPointExtension>
            <ns3:atemp>23.0</ns3:atemp>
          </ns3:TrackPointExtension>
        </extensions>
      </trkpt>
      <trkpt lat="42.51520223915576934814453125" lon="19.77254186756908893585205078125">
        <ele>1845.4000244140625</ele>
        <time>2026-06-18T10:35:13.000Z</time>
        <extensions>
          <ns3:TrackPointExtension>
            <ns3:atemp>23.0</ns3:atemp>
          </ns3:TrackPointExtension>
        </extensions>
      </trkpt>
      <trkpt lat="42.51520223915576934814453125" lon="19.77254186756908893585205078125">
        <ele>1845.4000244140625</ele>
        <time>2026-06-18T10:35:14.000Z</time>
        <extensions>
          <ns3:TrackPointExtension>
            <ns3:atemp>23.0</ns3:atemp>
          </ns3:TrackPointExtension>
        </extensions>
      </trkpt>
      <trkpt lat="42.51520223915576934814453125" lon="19.77254186756908893585205078125">
        <ele>1845.4000244140625</ele>
        <time>2026-06-18T10:35:15.000Z</time>
        <extensions>
          <ns3:TrackPointExtension>
            <ns3:atemp>23.0</ns3:atemp>
          </ns3:TrackPointExtension>
        </extensions>
      </trkpt>
      <trkpt lat="42.51520223915576934814453125" lon="19.77254186756908893585205078125">
        <ele>1845.4000244140625</ele>
        <time>2026-06-18T10:35:16.000Z</time>
        <extensions>
          <ns3:TrackPointExtension>
            <ns3:atemp>23.0</ns3:atemp>
          </ns3:TrackPointExtension>
        </extensions>
      </trkpt>
      <trkpt lat="42.51520223915576934814453125" lon="19.77254186756908893585205078125">
        <ele>1845.4000244140625</ele>
        <time>2026-06-18T10:35:17.000Z</time>
        <extensions>
          <ns3:TrackPointExtension>
            <ns3:atemp>23.0</ns3:atemp>
          </ns3:TrackPointExtension>
        </extensions>
      </trkpt>
      <trkpt lat="42.51520223915576934814453125" lon="19.77254186756908893585205078125">
        <ele>1845.4000244140625</ele>
        <time>2026-06-18T10:35:18.000Z</time>
        <extensions>
          <ns3:TrackPointExtension>
            <ns3:atemp>23.0</ns3:atemp>
          </ns3:TrackPointExtension>
        </extensions>
      </trkpt>
      <trkpt lat="42.51520223915576934814453125" lon="19.77254186756908893585205078125">
        <ele>1845.4000244140625</ele>
        <time>2026-06-18T10:35:19.000Z</time>
        <extensions>
          <ns3:TrackPointExtension>
            <ns3:atemp>23.0</ns3:atemp>
          </ns3:TrackPointExtension>
        </extensions>
      </trkpt>
      <trkpt lat="42.51520223915576934814453125" lon="19.77254186756908893585205078125">
        <ele>1845.4000244140625</ele>
        <time>2026-06-18T10:35:20.000Z</time>
        <extensions>
          <ns3:TrackPointExtension>
            <ns3:atemp>23.0</ns3:atemp>
          </ns3:TrackPointExtension>
        </extensions>
      </trkpt>
      <trkpt lat="42.51520223915576934814453125" lon="19.77254186756908893585205078125">
        <ele>1845.4000244140625</ele>
        <time>2026-06-18T10:35:21.000Z</time>
        <extensions>
          <ns3:TrackPointExtension>
            <ns3:atemp>23.0</ns3:atemp>
          </ns3:TrackPointExtension>
        </extensions>
      </trkpt>
      <trkpt lat="42.51520223915576934814453125" lon="19.77254186756908893585205078125">
        <ele>1845.4000244140625</ele>
        <time>2026-06-18T10:35:22.000Z</time>
        <extensions>
          <ns3:TrackPointExtension>
            <ns3:atemp>23.0</ns3:atemp>
          </ns3:TrackPointExtension>
        </extensions>
      </trkpt>
      <trkpt lat="42.51520223915576934814453125" lon="19.77254186756908893585205078125">
        <ele>1845.4000244140625</ele>
        <time>2026-06-18T10:35:23.000Z</time>
        <extensions>
          <ns3:TrackPointExtension>
            <ns3:atemp>23.0</ns3:atemp>
          </ns3:TrackPointExtension>
        </extensions>
      </trkpt>
      <trkpt lat="42.51520223915576934814453125" lon="19.77254186756908893585205078125">
        <ele>1845.4000244140625</ele>
        <time>2026-06-18T10:35:24.000Z</time>
        <extensions>
          <ns3:TrackPointExtension>
            <ns3:atemp>23.0</ns3:atemp>
          </ns3:TrackPointExtension>
        </extensions>
      </trkpt>
      <trkpt lat="42.51520223915576934814453125" lon="19.77254186756908893585205078125">
        <ele>1845.4000244140625</ele>
        <time>2026-06-18T10:35:25.000Z</time>
        <extensions>
          <ns3:TrackPointExtension>
            <ns3:atemp>23.0</ns3:atemp>
          </ns3:TrackPointExtension>
        </extensions>
      </trkpt>
      <trkpt lat="42.51520223915576934814453125" lon="19.77254186756908893585205078125">
        <ele>1845.4000244140625</ele>
        <time>2026-06-18T10:35:26.000Z</time>
        <extensions>
          <ns3:TrackPointExtension>
            <ns3:atemp>23.0</ns3:atemp>
          </ns3:TrackPointExtension>
        </extensions>
      </trkpt>
      <trkpt lat="42.51520223915576934814453125" lon="19.77254186756908893585205078125">
        <ele>1845.4000244140625</ele>
        <time>2026-06-18T10:35:27.000Z</time>
        <extensions>
          <ns3:TrackPointExtension>
            <ns3:atemp>23.0</ns3:atemp>
          </ns3:TrackPointExtension>
        </extensions>
      </trkpt>
      <trkpt lat="42.51520223915576934814453125" lon="19.77254186756908893585205078125">
        <ele>1845.4000244140625</ele>
        <time>2026-06-18T10:35:28.000Z</time>
        <extensions>
          <ns3:TrackPointExtension>
            <ns3:atemp>23.0</ns3:atemp>
          </ns3:TrackPointExtension>
        </extensions>
      </trkpt>
      <trkpt lat="42.51520223915576934814453125" lon="19.77254186756908893585205078125">
        <ele>1845.4000244140625</ele>
        <time>2026-06-18T10:35:29.000Z</time>
        <extensions>
          <ns3:TrackPointExtension>
            <ns3:atemp>23.0</ns3:atemp>
          </ns3:TrackPointExtension>
        </extensions>
      </trkpt>
      <trkpt lat="42.51520223915576934814453125" lon="19.77254186756908893585205078125">
        <ele>1845.4000244140625</ele>
        <time>2026-06-18T10:35:30.000Z</time>
        <extensions>
          <ns3:TrackPointExtension>
            <ns3:atemp>23.0</ns3:atemp>
          </ns3:TrackPointExtension>
        </extensions>
      </trkpt>
      <trkpt lat="42.51520223915576934814453125" lon="19.77254186756908893585205078125">
        <ele>1845.4000244140625</ele>
        <time>2026-06-18T10:35:31.000Z</time>
        <extensions>
          <ns3:TrackPointExtension>
            <ns3:atemp>23.0</ns3:atemp>
          </ns3:TrackPointExtension>
        </extensions>
      </trkpt>
      <trkpt lat="42.51520223915576934814453125" lon="19.77254186756908893585205078125">
        <ele>1845.4000244140625</ele>
        <time>2026-06-18T10:35:32.000Z</time>
        <extensions>
          <ns3:TrackPointExtension>
            <ns3:atemp>23.0</ns3:atemp>
          </ns3:TrackPointExtension>
        </extensions>
      </trkpt>
      <trkpt lat="42.51520223915576934814453125" lon="19.77254186756908893585205078125">
        <ele>1845.4000244140625</ele>
        <time>2026-06-18T10:35:33.000Z</time>
        <extensions>
          <ns3:TrackPointExtension>
            <ns3:atemp>23.0</ns3:atemp>
          </ns3:TrackPointExtension>
        </extensions>
      </trkpt>
      <trkpt lat="42.51520223915576934814453125" lon="19.77254186756908893585205078125">
        <ele>1845.4000244140625</ele>
        <time>2026-06-18T10:35:34.000Z</time>
        <extensions>
          <ns3:TrackPointExtension>
            <ns3:atemp>23.0</ns3:atemp>
          </ns3:TrackPointExtension>
        </extensions>
      </trkpt>
      <trkpt lat="42.51520223915576934814453125" lon="19.77254186756908893585205078125">
        <ele>1845.4000244140625</ele>
        <time>2026-06-18T10:35:35.000Z</time>
        <extensions>
          <ns3:TrackPointExtension>
            <ns3:atemp>23.0</ns3:atemp>
          </ns3:TrackPointExtension>
        </extensions>
      </trkpt>
      <trkpt lat="42.51520223915576934814453125" lon="19.77254186756908893585205078125">
        <ele>1845.4000244140625</ele>
        <time>2026-06-18T10:35:36.000Z</time>
        <extensions>
          <ns3:TrackPointExtension>
            <ns3:atemp>23.0</ns3:atemp>
          </ns3:TrackPointExtension>
        </extensions>
      </trkpt>
      <trkpt lat="42.51520223915576934814453125" lon="19.77254186756908893585205078125">
        <ele>1845.4000244140625</ele>
        <time>2026-06-18T10:35:37.000Z</time>
        <extensions>
          <ns3:TrackPointExtension>
            <ns3:atemp>23.0</ns3:atemp>
          </ns3:TrackPointExtension>
        </extensions>
      </trkpt>
      <trkpt lat="42.51520223915576934814453125" lon="19.77254186756908893585205078125">
        <ele>1845.4000244140625</ele>
        <time>2026-06-18T10:35:38.000Z</time>
        <extensions>
          <ns3:TrackPointExtension>
            <ns3:atemp>23.0</ns3:atemp>
          </ns3:TrackPointExtension>
        </extensions>
      </trkpt>
      <trkpt lat="42.51520223915576934814453125" lon="19.77254186756908893585205078125">
        <ele>1845.4000244140625</ele>
        <time>2026-06-18T10:35:39.000Z</time>
        <extensions>
          <ns3:TrackPointExtension>
            <ns3:atemp>23.0</ns3:atemp>
          </ns3:TrackPointExtension>
        </extensions>
      </trkpt>
      <trkpt lat="42.51520223915576934814453125" lon="19.77254186756908893585205078125">
        <ele>1845.4000244140625</ele>
        <time>2026-06-18T10:35:40.000Z</time>
        <extensions>
          <ns3:TrackPointExtension>
            <ns3:atemp>23.0</ns3:atemp>
          </ns3:TrackPointExtension>
        </extensions>
      </trkpt>
      <trkpt lat="42.51520223915576934814453125" lon="19.77254186756908893585205078125">
        <ele>1845.4000244140625</ele>
        <time>2026-06-18T10:35:41.000Z</time>
        <extensions>
          <ns3:TrackPointExtension>
            <ns3:atemp>23.0</ns3:atemp>
          </ns3:TrackPointExtension>
        </extensions>
      </trkpt>
      <trkpt lat="42.51520223915576934814453125" lon="19.77254186756908893585205078125">
        <ele>1845.4000244140625</ele>
        <time>2026-06-18T10:35:42.000Z</time>
        <extensions>
          <ns3:TrackPointExtension>
            <ns3:atemp>23.0</ns3:atemp>
          </ns3:TrackPointExtension>
        </extensions>
      </trkpt>
      <trkpt lat="42.51520223915576934814453125" lon="19.77254186756908893585205078125">
        <ele>1845.4000244140625</ele>
        <time>2026-06-18T10:35:43.000Z</time>
        <extensions>
          <ns3:TrackPointExtension>
            <ns3:atemp>23.0</ns3:atemp>
          </ns3:TrackPointExtension>
        </extensions>
      </trkpt>
      <trkpt lat="42.51520223915576934814453125" lon="19.77254186756908893585205078125">
        <ele>1845.4000244140625</ele>
        <time>2026-06-18T10:35:44.000Z</time>
        <extensions>
          <ns3:TrackPointExtension>
            <ns3:atemp>23.0</ns3:atemp>
          </ns3:TrackPointExtension>
        </extensions>
      </trkpt>
      <trkpt lat="42.51520223915576934814453125" lon="19.77254186756908893585205078125">
        <ele>1845.4000244140625</ele>
        <time>2026-06-18T10:35:45.000Z</time>
        <extensions>
          <ns3:TrackPointExtension>
            <ns3:atemp>23.0</ns3:atemp>
          </ns3:TrackPointExtension>
        </extensions>
      </trkpt>
      <trkpt lat="42.51520223915576934814453125" lon="19.77254186756908893585205078125">
        <ele>1845.4000244140625</ele>
        <time>2026-06-18T10:35:46.000Z</time>
        <extensions>
          <ns3:TrackPointExtension>
            <ns3:atemp>23.0</ns3:atemp>
          </ns3:TrackPointExtension>
        </extensions>
      </trkpt>
      <trkpt lat="42.51520223915576934814453125" lon="19.77254186756908893585205078125">
        <ele>1845.4000244140625</ele>
        <time>2026-06-18T10:35:47.000Z</time>
        <extensions>
          <ns3:TrackPointExtension>
            <ns3:atemp>23.0</ns3:atemp>
          </ns3:TrackPointExtension>
        </extensions>
      </trkpt>
      <trkpt lat="42.51520223915576934814453125" lon="19.77254186756908893585205078125">
        <ele>1845.4000244140625</ele>
        <time>2026-06-18T10:35:48.000Z</time>
        <extensions>
          <ns3:TrackPointExtension>
            <ns3:atemp>23.0</ns3:atemp>
          </ns3:TrackPointExtension>
        </extensions>
      </trkpt>
      <trkpt lat="42.51520223915576934814453125" lon="19.77254186756908893585205078125">
        <ele>1845.4000244140625</ele>
        <time>2026-06-18T10:35:49.000Z</time>
        <extensions>
          <ns3:TrackPointExtension>
            <ns3:atemp>23.0</ns3:atemp>
          </ns3:TrackPointExtension>
        </extensions>
      </trkpt>
      <trkpt lat="42.51520223915576934814453125" lon="19.77254186756908893585205078125">
        <ele>1845.4000244140625</ele>
        <time>2026-06-18T10:35:50.000Z</time>
        <extensions>
          <ns3:TrackPointExtension>
            <ns3:atemp>23.0</ns3:atemp>
          </ns3:TrackPointExtension>
        </extensions>
      </trkpt>
      <trkpt lat="42.51520223915576934814453125" lon="19.77254186756908893585205078125">
        <ele>1845.4000244140625</ele>
        <time>2026-06-18T10:35:51.000Z</time>
        <extensions>
          <ns3:TrackPointExtension>
            <ns3:atemp>23.0</ns3:atemp>
          </ns3:TrackPointExtension>
        </extensions>
      </trkpt>
      <trkpt lat="42.51520223915576934814453125" lon="19.77254186756908893585205078125">
        <ele>1845.4000244140625</ele>
        <time>2026-06-18T10:35:52.000Z</time>
        <extensions>
          <ns3:TrackPointExtension>
            <ns3:atemp>23.0</ns3:atemp>
          </ns3:TrackPointExtension>
        </extensions>
      </trkpt>
      <trkpt lat="42.51520223915576934814453125" lon="19.77254186756908893585205078125">
        <ele>1845.4000244140625</ele>
        <time>2026-06-18T10:35:53.000Z</time>
        <extensions>
          <ns3:TrackPointExtension>
            <ns3:atemp>23.0</ns3:atemp>
          </ns3:TrackPointExtension>
        </extensions>
      </trkpt>
      <trkpt lat="42.51520223915576934814453125" lon="19.77254186756908893585205078125">
        <ele>1845.4000244140625</ele>
        <time>2026-06-18T10:35:54.000Z</time>
        <extensions>
          <ns3:TrackPointExtension>
            <ns3:atemp>23.0</ns3:atemp>
          </ns3:TrackPointExtension>
        </extensions>
      </trkpt>
      <trkpt lat="42.51520223915576934814453125" lon="19.77254186756908893585205078125">
        <ele>1845.4000244140625</ele>
        <time>2026-06-18T10:35:55.000Z</time>
        <extensions>
          <ns3:TrackPointExtension>
            <ns3:atemp>23.0</ns3:atemp>
          </ns3:TrackPointExtension>
        </extensions>
      </trkpt>
      <trkpt lat="42.51520223915576934814453125" lon="19.77254186756908893585205078125">
        <ele>1845.4000244140625</ele>
        <time>2026-06-18T10:35:56.000Z</time>
        <extensions>
          <ns3:TrackPointExtension>
            <ns3:atemp>23.0</ns3:atemp>
          </ns3:TrackPointExtension>
        </extensions>
      </trkpt>
      <trkpt lat="42.5152037478983402252197265625" lon="19.77254086174070835113525390625">
        <ele>1845.4000244140625</ele>
        <time>2026-06-18T10:35:57.000Z</time>
        <extensions>
          <ns3:TrackPointExtension>
            <ns3:atemp>23.0</ns3:atemp>
          </ns3:TrackPointExtension>
        </extensions>
      </trkpt>
      <trkpt lat="42.51521321944892406463623046875" lon="19.772539101541042327880859375">
        <ele>1845.4000244140625</ele>
        <time>2026-06-18T10:35:58.000Z</time>
        <extensions>
          <ns3:TrackPointExtension>
            <ns3:atemp>23.0</ns3:atemp>
          </ns3:TrackPointExtension>
        </extensions>
      </trkpt>
      <trkpt lat="42.51521673984825611114501953125" lon="19.77253834716975688934326171875">
        <ele>1845.4000244140625</ele>
        <time>2026-06-18T10:35:59.000Z</time>
        <extensions>
          <ns3:TrackPointExtension>
            <ns3:atemp>23.0</ns3:atemp>
          </ns3:TrackPointExtension>
        </extensions>
      </trkpt>
      <trkpt lat="42.51521774567663669586181640625" lon="19.772539772093296051025390625">
        <ele>1845.4000244140625</ele>
        <time>2026-06-18T10:36:00.000Z</time>
        <extensions>
          <ns3:TrackPointExtension>
            <ns3:atemp>23.0</ns3:atemp>
          </ns3:TrackPointExtension>
        </extensions>
      </trkpt>
      <trkpt lat="42.51521774567663669586181640625" lon="19.772539772093296051025390625">
        <ele>1845.4000244140625</ele>
        <time>2026-06-18T10:36:01.000Z</time>
        <extensions>
          <ns3:TrackPointExtension>
            <ns3:atemp>23.0</ns3:atemp>
          </ns3:TrackPointExtension>
        </extensions>
      </trkpt>
      <trkpt lat="42.51521774567663669586181640625" lon="19.772539772093296051025390625">
        <ele>1845.4000244140625</ele>
        <time>2026-06-18T10:36:02.000Z</time>
        <extensions>
          <ns3:TrackPointExtension>
            <ns3:atemp>23.0</ns3:atemp>
          </ns3:TrackPointExtension>
        </extensions>
      </trkpt>
      <trkpt lat="42.51521774567663669586181640625" lon="19.772539772093296051025390625">
        <ele>1845.4000244140625</ele>
        <time>2026-06-18T10:36:03.000Z</time>
        <extensions>
          <ns3:TrackPointExtension>
            <ns3:atemp>23.0</ns3:atemp>
          </ns3:TrackPointExtension>
        </extensions>
      </trkpt>
      <trkpt lat="42.51521774567663669586181640625" lon="19.772539772093296051025390625">
        <ele>1845.4000244140625</ele>
        <time>2026-06-18T10:36:04.000Z</time>
        <extensions>
          <ns3:TrackPointExtension>
            <ns3:atemp>23.0</ns3:atemp>
          </ns3:TrackPointExtension>
        </extensions>
      </trkpt>
      <trkpt lat="42.51521774567663669586181640625" lon="19.772539772093296051025390625">
        <ele>1845.4000244140625</ele>
        <time>2026-06-18T10:36:05.000Z</time>
        <extensions>
          <ns3:TrackPointExtension>
            <ns3:atemp>23.0</ns3:atemp>
          </ns3:TrackPointExtension>
        </extensions>
      </trkpt>
      <trkpt lat="42.51521774567663669586181640625" lon="19.772539772093296051025390625">
        <ele>1845.4000244140625</ele>
        <time>2026-06-18T10:36:06.000Z</time>
        <extensions>
          <ns3:TrackPointExtension>
            <ns3:atemp>23.0</ns3:atemp>
          </ns3:TrackPointExtension>
        </extensions>
      </trkpt>
      <trkpt lat="42.51521774567663669586181640625" lon="19.772539772093296051025390625">
        <ele>1845.4000244140625</ele>
        <time>2026-06-18T10:36:07.000Z</time>
        <extensions>
          <ns3:TrackPointExtension>
            <ns3:atemp>23.0</ns3:atemp>
          </ns3:TrackPointExtension>
        </extensions>
      </trkpt>
      <trkpt lat="42.51521774567663669586181640625" lon="19.772539772093296051025390625">
        <ele>1845.4000244140625</ele>
        <time>2026-06-18T10:36:08.000Z</time>
        <extensions>
          <ns3:TrackPointExtension>
            <ns3:atemp>23.0</ns3:atemp>
          </ns3:TrackPointExtension>
        </extensions>
      </trkpt>
      <trkpt lat="42.51521774567663669586181640625" lon="19.772539772093296051025390625">
        <ele>1845.4000244140625</ele>
        <time>2026-06-18T10:36:09.000Z</time>
        <extensions>
          <ns3:TrackPointExtension>
            <ns3:atemp>23.0</ns3:atemp>
          </ns3:TrackPointExtension>
        </extensions>
      </trkpt>
      <trkpt lat="42.51521774567663669586181640625" lon="19.772539772093296051025390625">
        <ele>1845.4000244140625</ele>
        <time>2026-06-18T10:36:10.000Z</time>
        <extensions>
          <ns3:TrackPointExtension>
            <ns3:atemp>23.0</ns3:atemp>
          </ns3:TrackPointExtension>
        </extensions>
      </trkpt>
      <trkpt lat="42.51521774567663669586181640625" lon="19.772539772093296051025390625">
        <ele>1845.4000244140625</ele>
        <time>2026-06-18T10:36:11.000Z</time>
        <extensions>
          <ns3:TrackPointExtension>
            <ns3:atemp>23.0</ns3:atemp>
          </ns3:TrackPointExtension>
        </extensions>
      </trkpt>
      <trkpt lat="42.51521774567663669586181640625" lon="19.772539772093296051025390625">
        <ele>1845.4000244140625</ele>
        <time>2026-06-18T10:36:12.000Z</time>
        <extensions>
          <ns3:TrackPointExtension>
            <ns3:atemp>23.0</ns3:atemp>
          </ns3:TrackPointExtension>
        </extensions>
      </trkpt>
      <trkpt lat="42.51521774567663669586181640625" lon="19.772539772093296051025390625">
        <ele>1845.4000244140625</ele>
        <time>2026-06-18T10:36:13.000Z</time>
        <extensions>
          <ns3:TrackPointExtension>
            <ns3:atemp>23.0</ns3:atemp>
          </ns3:TrackPointExtension>
        </extensions>
      </trkpt>
      <trkpt lat="42.51521774567663669586181640625" lon="19.772539772093296051025390625">
        <ele>1845.4000244140625</ele>
        <time>2026-06-18T10:36:14.000Z</time>
        <extensions>
          <ns3:TrackPointExtension>
            <ns3:atemp>23.0</ns3:atemp>
          </ns3:TrackPointExtension>
        </extensions>
      </trkpt>
      <trkpt lat="42.51521774567663669586181640625" lon="19.772539772093296051025390625">
        <ele>1845.4000244140625</ele>
        <time>2026-06-18T10:36:15.000Z</time>
        <extensions>
          <ns3:TrackPointExtension>
            <ns3:atemp>23.0</ns3:atemp>
          </ns3:TrackPointExtension>
        </extensions>
      </trkpt>
      <trkpt lat="42.51521774567663669586181640625" lon="19.772539772093296051025390625">
        <ele>1845.4000244140625</ele>
        <time>2026-06-18T10:36:16.000Z</time>
        <extensions>
          <ns3:TrackPointExtension>
            <ns3:atemp>23.0</ns3:atemp>
          </ns3:TrackPointExtension>
        </extensions>
      </trkpt>
      <trkpt lat="42.51521774567663669586181640625" lon="19.772539772093296051025390625">
        <ele>1845.4000244140625</ele>
        <time>2026-06-18T10:36:17.000Z</time>
        <extensions>
          <ns3:TrackPointExtension>
            <ns3:atemp>23.0</ns3:atemp>
          </ns3:TrackPointExtension>
        </extensions>
      </trkpt>
      <trkpt lat="42.51521774567663669586181640625" lon="19.772539772093296051025390625">
        <ele>1845.4000244140625</ele>
        <time>2026-06-18T10:36:18.000Z</time>
        <extensions>
          <ns3:TrackPointExtension>
            <ns3:atemp>23.0</ns3:atemp>
          </ns3:TrackPointExtension>
        </extensions>
      </trkpt>
      <trkpt lat="42.51521774567663669586181640625" lon="19.772539772093296051025390625">
        <ele>1845.4000244140625</ele>
        <time>2026-06-18T10:36:19.000Z</time>
        <extensions>
          <ns3:TrackPointExtension>
            <ns3:atemp>23.0</ns3:atemp>
          </ns3:TrackPointExtension>
        </extensions>
      </trkpt>
      <trkpt lat="42.51521774567663669586181640625" lon="19.772539772093296051025390625">
        <ele>1845.4000244140625</ele>
        <time>2026-06-18T10:36:20.000Z</time>
        <extensions>
          <ns3:TrackPointExtension>
            <ns3:atemp>23.0</ns3:atemp>
          </ns3:TrackPointExtension>
        </extensions>
      </trkpt>
      <trkpt lat="42.51521774567663669586181640625" lon="19.772539772093296051025390625">
        <ele>1845.4000244140625</ele>
        <time>2026-06-18T10:36:21.000Z</time>
        <extensions>
          <ns3:TrackPointExtension>
            <ns3:atemp>23.0</ns3:atemp>
          </ns3:TrackPointExtension>
        </extensions>
      </trkpt>
      <trkpt lat="42.51521774567663669586181640625" lon="19.772539772093296051025390625">
        <ele>1845.4000244140625</ele>
        <time>2026-06-18T10:36:22.000Z</time>
        <extensions>
          <ns3:TrackPointExtension>
            <ns3:atemp>23.0</ns3:atemp>
          </ns3:TrackPointExtension>
        </extensions>
      </trkpt>
      <trkpt lat="42.51521774567663669586181640625" lon="19.772539772093296051025390625">
        <ele>1845.4000244140625</ele>
        <time>2026-06-18T10:36:23.000Z</time>
        <extensions>
          <ns3:TrackPointExtension>
            <ns3:atemp>23.0</ns3:atemp>
          </ns3:TrackPointExtension>
        </extensions>
      </trkpt>
      <trkpt lat="42.51521774567663669586181640625" lon="19.772539772093296051025390625">
        <ele>1845.4000244140625</ele>
        <time>2026-06-18T10:36:24.000Z</time>
        <extensions>
          <ns3:TrackPointExtension>
            <ns3:atemp>23.0</ns3:atemp>
          </ns3:TrackPointExtension>
        </extensions>
      </trkpt>
      <trkpt lat="42.51521774567663669586181640625" lon="19.772539772093296051025390625">
        <ele>1845.4000244140625</ele>
        <time>2026-06-18T10:36:25.000Z</time>
        <extensions>
          <ns3:TrackPointExtension>
            <ns3:atemp>23.0</ns3:atemp>
          </ns3:TrackPointExtension>
        </extensions>
      </trkpt>
      <trkpt lat="42.51521774567663669586181640625" lon="19.772539772093296051025390625">
        <ele>1845.4000244140625</ele>
        <time>2026-06-18T10:36:26.000Z</time>
        <extensions>
          <ns3:TrackPointExtension>
            <ns3:atemp>23.0</ns3:atemp>
          </ns3:TrackPointExtension>
        </extensions>
      </trkpt>
      <trkpt lat="42.51521774567663669586181640625" lon="19.772539772093296051025390625">
        <ele>1845.4000244140625</ele>
        <time>2026-06-18T10:36:27.000Z</time>
        <extensions>
          <ns3:TrackPointExtension>
            <ns3:atemp>23.0</ns3:atemp>
          </ns3:TrackPointExtension>
        </extensions>
      </trkpt>
      <trkpt lat="42.51521774567663669586181640625" lon="19.772539772093296051025390625">
        <ele>1845.4000244140625</ele>
        <time>2026-06-18T10:36:28.000Z</time>
        <extensions>
          <ns3:TrackPointExtension>
            <ns3:atemp>23.0</ns3:atemp>
          </ns3:TrackPointExtension>
        </extensions>
      </trkpt>
      <trkpt lat="42.51521774567663669586181640625" lon="19.772539772093296051025390625">
        <ele>1845.4000244140625</ele>
        <time>2026-06-18T10:36:29.000Z</time>
        <extensions>
          <ns3:TrackPointExtension>
            <ns3:atemp>23.0</ns3:atemp>
          </ns3:TrackPointExtension>
        </extensions>
      </trkpt>
      <trkpt lat="42.51521774567663669586181640625" lon="19.772539772093296051025390625">
        <ele>1845.4000244140625</ele>
        <time>2026-06-18T10:36:30.000Z</time>
        <extensions>
          <ns3:TrackPointExtension>
            <ns3:atemp>23.0</ns3:atemp>
          </ns3:TrackPointExtension>
        </extensions>
      </trkpt>
      <trkpt lat="42.51521774567663669586181640625" lon="19.772539772093296051025390625">
        <ele>1847</ele>
        <time>2026-06-18T10:36:31.000Z</time>
        <extensions>
          <ns3:TrackPointExtension>
            <ns3:atemp>23.0</ns3:atemp>
          </ns3:TrackPointExtension>
        </extensions>
      </trkpt>
      <trkpt lat="42.51521774567663669586181640625" lon="19.772539772093296051025390625">
        <ele>1847.4000244140625</ele>
        <time>2026-06-18T10:36:32.000Z</time>
        <extensions>
          <ns3:TrackPointExtension>
            <ns3:atemp>23.0</ns3:atemp>
          </ns3:TrackPointExtension>
        </extensions>
      </trkpt>
      <trkpt lat="42.51521774567663669586181640625" lon="19.772539772093296051025390625">
        <ele>1847.800048828125</ele>
        <time>2026-06-18T10:36:33.000Z</time>
        <extensions>
          <ns3:TrackPointExtension>
            <ns3:atemp>23.0</ns3:atemp>
          </ns3:TrackPointExtension>
        </extensions>
      </trkpt>
      <trkpt lat="42.51521774567663669586181640625" lon="19.772539772093296051025390625">
        <ele>1848</ele>
        <time>2026-06-18T10:36:34.000Z</time>
        <extensions>
          <ns3:TrackPointExtension>
            <ns3:atemp>23.0</ns3:atemp>
          </ns3:TrackPointExtension>
        </extensions>
      </trkpt>
      <trkpt lat="42.51521774567663669586181640625" lon="19.772539772093296051025390625">
        <ele>1848.199951171875</ele>
        <time>2026-06-18T10:36:35.000Z</time>
        <extensions>
          <ns3:TrackPointExtension>
            <ns3:atemp>23.0</ns3:atemp>
          </ns3:TrackPointExtension>
        </extensions>
      </trkpt>
      <trkpt lat="42.51521774567663669586181640625" lon="19.772539772093296051025390625">
        <ele>1848.199951171875</ele>
        <time>2026-06-18T10:36:36.000Z</time>
        <extensions>
          <ns3:TrackPointExtension>
            <ns3:atemp>23.0</ns3:atemp>
          </ns3:TrackPointExtension>
        </extensions>
      </trkpt>
      <trkpt lat="42.51521774567663669586181640625" lon="19.772539772093296051025390625">
        <ele>1848.199951171875</ele>
        <time>2026-06-18T10:36:37.000Z</time>
        <extensions>
          <ns3:TrackPointExtension>
            <ns3:atemp>23.0</ns3:atemp>
          </ns3:TrackPointExtension>
        </extensions>
      </trkpt>
      <trkpt lat="42.51521774567663669586181640625" lon="19.772539772093296051025390625">
        <ele>1848</ele>
        <time>2026-06-18T10:36:38.000Z</time>
        <extensions>
          <ns3:TrackPointExtension>
            <ns3:atemp>23.0</ns3:atemp>
          </ns3:TrackPointExtension>
        </extensions>
      </trkpt>
      <trkpt lat="42.51521774567663669586181640625" lon="19.772539772093296051025390625">
        <ele>1847.800048828125</ele>
        <time>2026-06-18T10:36:39.000Z</time>
        <extensions>
          <ns3:TrackPointExtension>
            <ns3:atemp>23.0</ns3:atemp>
          </ns3:TrackPointExtension>
        </extensions>
      </trkpt>
      <trkpt lat="42.51521774567663669586181640625" lon="19.772539772093296051025390625">
        <ele>1847.5999755859375</ele>
        <time>2026-06-18T10:36:40.000Z</time>
        <extensions>
          <ns3:TrackPointExtension>
            <ns3:atemp>23.0</ns3:atemp>
          </ns3:TrackPointExtension>
        </extensions>
      </trkpt>
      <trkpt lat="42.51521774567663669586181640625" lon="19.772539772093296051025390625">
        <ele>1847.5999755859375</ele>
        <time>2026-06-18T10:36:41.000Z</time>
        <extensions>
          <ns3:TrackPointExtension>
            <ns3:atemp>23.0</ns3:atemp>
          </ns3:TrackPointExtension>
        </extensions>
      </trkpt>
      <trkpt lat="42.51521774567663669586181640625" lon="19.772539772093296051025390625">
        <ele>1847.5999755859375</ele>
        <time>2026-06-18T10:36:42.000Z</time>
        <extensions>
          <ns3:TrackPointExtension>
            <ns3:atemp>23.0</ns3:atemp>
          </ns3:TrackPointExtension>
        </extensions>
      </trkpt>
      <trkpt lat="42.51521774567663669586181640625" lon="19.772539772093296051025390625">
        <ele>1847.5999755859375</ele>
        <time>2026-06-18T10:36:43.000Z</time>
        <extensions>
          <ns3:TrackPointExtension>
            <ns3:atemp>23.0</ns3:atemp>
          </ns3:TrackPointExtension>
        </extensions>
      </trkpt>
      <trkpt lat="42.51521774567663669586181640625" lon="19.772539772093296051025390625">
        <ele>1847.5999755859375</ele>
        <time>2026-06-18T10:36:44.000Z</time>
        <extensions>
          <ns3:TrackPointExtension>
            <ns3:atemp>23.0</ns3:atemp>
          </ns3:TrackPointExtension>
        </extensions>
      </trkpt>
      <trkpt lat="42.51521774567663669586181640625" lon="19.772539772093296051025390625">
        <ele>1847.5999755859375</ele>
        <time>2026-06-18T10:36:45.000Z</time>
        <extensions>
          <ns3:TrackPointExtension>
            <ns3:atemp>23.0</ns3:atemp>
          </ns3:TrackPointExtension>
        </extensions>
      </trkpt>
      <trkpt lat="42.51521774567663669586181640625" lon="19.772539772093296051025390625">
        <ele>1847.5999755859375</ele>
        <time>2026-06-18T10:36:46.000Z</time>
        <extensions>
          <ns3:TrackPointExtension>
            <ns3:atemp>23.0</ns3:atemp>
          </ns3:TrackPointExtension>
        </extensions>
      </trkpt>
      <trkpt lat="42.51521774567663669586181640625" lon="19.772539772093296051025390625">
        <ele>1847.5999755859375</ele>
        <time>2026-06-18T10:36:47.000Z</time>
        <extensions>
          <ns3:TrackPointExtension>
            <ns3:atemp>23.0</ns3:atemp>
          </ns3:TrackPointExtension>
        </extensions>
      </trkpt>
      <trkpt lat="42.51521774567663669586181640625" lon="19.772539772093296051025390625">
        <ele>1847.5999755859375</ele>
        <time>2026-06-18T10:36:48.000Z</time>
        <extensions>
          <ns3:TrackPointExtension>
            <ns3:atemp>23.0</ns3:atemp>
          </ns3:TrackPointExtension>
        </extensions>
      </trkpt>
      <trkpt lat="42.51521774567663669586181640625" lon="19.772539772093296051025390625">
        <ele>1847.5999755859375</ele>
        <time>2026-06-18T10:36:49.000Z</time>
        <extensions>
          <ns3:TrackPointExtension>
            <ns3:atemp>23.0</ns3:atemp>
          </ns3:TrackPointExtension>
        </extensions>
      </trkpt>
      <trkpt lat="42.51521774567663669586181640625" lon="19.772539772093296051025390625">
        <ele>1847.5999755859375</ele>
        <time>2026-06-18T10:36:50.000Z</time>
        <extensions>
          <ns3:TrackPointExtension>
            <ns3:atemp>23.0</ns3:atemp>
          </ns3:TrackPointExtension>
        </extensions>
      </trkpt>
      <trkpt lat="42.51521774567663669586181640625" lon="19.772539772093296051025390625">
        <ele>1847.4000244140625</ele>
        <time>2026-06-18T10:36:51.000Z</time>
        <extensions>
          <ns3:TrackPointExtension>
            <ns3:atemp>23.0</ns3:atemp>
          </ns3:TrackPointExtension>
        </extensions>
      </trkpt>
      <trkpt lat="42.51521774567663669586181640625" lon="19.772539772093296051025390625">
        <ele>1847.4000244140625</ele>
        <time>2026-06-18T10:36:52.000Z</time>
        <extensions>
          <ns3:TrackPointExtension>
            <ns3:atemp>23.0</ns3:atemp>
          </ns3:TrackPointExtension>
        </extensions>
      </trkpt>
      <trkpt lat="42.51521774567663669586181640625" lon="19.772539772093296051025390625">
        <ele>1847.4000244140625</ele>
        <time>2026-06-18T10:36:53.000Z</time>
        <extensions>
          <ns3:TrackPointExtension>
            <ns3:atemp>23.0</ns3:atemp>
          </ns3:TrackPointExtension>
        </extensions>
      </trkpt>
      <trkpt lat="42.51521774567663669586181640625" lon="19.772539772093296051025390625">
        <ele>1847.199951171875</ele>
        <time>2026-06-18T10:36:54.000Z</time>
        <extensions>
          <ns3:TrackPointExtension>
            <ns3:atemp>23.0</ns3:atemp>
          </ns3:TrackPointExtension>
        </extensions>
      </trkpt>
      <trkpt lat="42.51521774567663669586181640625" lon="19.772539772093296051025390625">
        <ele>1847.4000244140625</ele>
        <time>2026-06-18T10:36:55.000Z</time>
        <extensions>
          <ns3:TrackPointExtension>
            <ns3:atemp>23.0</ns3:atemp>
          </ns3:TrackPointExtension>
        </extensions>
      </trkpt>
      <trkpt lat="42.51521774567663669586181640625" lon="19.772539772093296051025390625">
        <ele>1847.4000244140625</ele>
        <time>2026-06-18T10:36:56.000Z</time>
        <extensions>
          <ns3:TrackPointExtension>
            <ns3:atemp>23.0</ns3:atemp>
          </ns3:TrackPointExtension>
        </extensions>
      </trkpt>
      <trkpt lat="42.51521774567663669586181640625" lon="19.772539772093296051025390625">
        <ele>1847.4000244140625</ele>
        <time>2026-06-18T10:36:57.000Z</time>
        <extensions>
          <ns3:TrackPointExtension>
            <ns3:atemp>23.0</ns3:atemp>
          </ns3:TrackPointExtension>
        </extensions>
      </trkpt>
      <trkpt lat="42.51521774567663669586181640625" lon="19.772539772093296051025390625">
        <ele>1847.4000244140625</ele>
        <time>2026-06-18T10:36:58.000Z</time>
        <extensions>
          <ns3:TrackPointExtension>
            <ns3:atemp>23.0</ns3:atemp>
          </ns3:TrackPointExtension>
        </extensions>
      </trkpt>
      <trkpt lat="42.51521774567663669586181640625" lon="19.772539772093296051025390625">
        <ele>1847.4000244140625</ele>
        <time>2026-06-18T10:36:59.000Z</time>
        <extensions>
          <ns3:TrackPointExtension>
            <ns3:atemp>23.0</ns3:atemp>
          </ns3:TrackPointExtension>
        </extensions>
      </trkpt>
      <trkpt lat="42.51521774567663669586181640625" lon="19.772539772093296051025390625">
        <ele>1847.199951171875</ele>
        <time>2026-06-18T10:37:00.000Z</time>
        <extensions>
          <ns3:TrackPointExtension>
            <ns3:atemp>23.0</ns3:atemp>
          </ns3:TrackPointExtension>
        </extensions>
      </trkpt>
      <trkpt lat="42.51521774567663669586181640625" lon="19.772539772093296051025390625">
        <ele>1847.199951171875</ele>
        <time>2026-06-18T10:37:01.000Z</time>
        <extensions>
          <ns3:TrackPointExtension>
            <ns3:atemp>23.0</ns3:atemp>
          </ns3:TrackPointExtension>
        </extensions>
      </trkpt>
      <trkpt lat="42.51521774567663669586181640625" lon="19.772539772093296051025390625">
        <ele>1847.199951171875</ele>
        <time>2026-06-18T10:37:02.000Z</time>
        <extensions>
          <ns3:TrackPointExtension>
            <ns3:atemp>23.0</ns3:atemp>
          </ns3:TrackPointExtension>
        </extensions>
      </trkpt>
      <trkpt lat="42.51521774567663669586181640625" lon="19.772539772093296051025390625">
        <ele>1847.199951171875</ele>
        <time>2026-06-18T10:37:03.000Z</time>
        <extensions>
          <ns3:TrackPointExtension>
            <ns3:atemp>23.0</ns3:atemp>
          </ns3:TrackPointExtension>
        </extensions>
      </trkpt>
      <trkpt lat="42.51521774567663669586181640625" lon="19.772539772093296051025390625">
        <ele>1847.199951171875</ele>
        <time>2026-06-18T10:37:04.000Z</time>
        <extensions>
          <ns3:TrackPointExtension>
            <ns3:atemp>23.0</ns3:atemp>
          </ns3:TrackPointExtension>
        </extensions>
      </trkpt>
      <trkpt lat="42.51521774567663669586181640625" lon="19.772539772093296051025390625">
        <ele>1847.199951171875</ele>
        <time>2026-06-18T10:37:05.000Z</time>
        <extensions>
          <ns3:TrackPointExtension>
            <ns3:atemp>23.0</ns3:atemp>
          </ns3:TrackPointExtension>
        </extensions>
      </trkpt>
      <trkpt lat="42.51521774567663669586181640625" lon="19.772539772093296051025390625">
        <ele>1847.199951171875</ele>
        <time>2026-06-18T10:37:06.000Z</time>
        <extensions>
          <ns3:TrackPointExtension>
            <ns3:atemp>23.0</ns3:atemp>
          </ns3:TrackPointExtension>
        </extensions>
      </trkpt>
      <trkpt lat="42.51521774567663669586181640625" lon="19.772539772093296051025390625">
        <ele>1847.199951171875</ele>
        <time>2026-06-18T10:37:07.000Z</time>
        <extensions>
          <ns3:TrackPointExtension>
            <ns3:atemp>23.0</ns3:atemp>
          </ns3:TrackPointExtension>
        </extensions>
      </trkpt>
      <trkpt lat="42.51521774567663669586181640625" lon="19.772539772093296051025390625">
        <ele>1847.4000244140625</ele>
        <time>2026-06-18T10:37:08.000Z</time>
        <extensions>
          <ns3:TrackPointExtension>
            <ns3:atemp>23.0</ns3:atemp>
          </ns3:TrackPointExtension>
        </extensions>
      </trkpt>
      <trkpt lat="42.51521774567663669586181640625" lon="19.772539772093296051025390625">
        <ele>1847.4000244140625</ele>
        <time>2026-06-18T10:37:09.000Z</time>
        <extensions>
          <ns3:TrackPointExtension>
            <ns3:atemp>23.0</ns3:atemp>
          </ns3:TrackPointExtension>
        </extensions>
      </trkpt>
      <trkpt lat="42.51521774567663669586181640625" lon="19.772539772093296051025390625">
        <ele>1847.199951171875</ele>
        <time>2026-06-18T10:37:10.000Z</time>
        <extensions>
          <ns3:TrackPointExtension>
            <ns3:atemp>23.0</ns3:atemp>
          </ns3:TrackPointExtension>
        </extensions>
      </trkpt>
      <trkpt lat="42.51521774567663669586181640625" lon="19.772539772093296051025390625">
        <ele>1847.199951171875</ele>
        <time>2026-06-18T10:37:11.000Z</time>
        <extensions>
          <ns3:TrackPointExtension>
            <ns3:atemp>23.0</ns3:atemp>
          </ns3:TrackPointExtension>
        </extensions>
      </trkpt>
      <trkpt lat="42.51521774567663669586181640625" lon="19.772539772093296051025390625">
        <ele>1847.199951171875</ele>
        <time>2026-06-18T10:37:12.000Z</time>
        <extensions>
          <ns3:TrackPointExtension>
            <ns3:atemp>23.0</ns3:atemp>
          </ns3:TrackPointExtension>
        </extensions>
      </trkpt>
      <trkpt lat="42.51521774567663669586181640625" lon="19.772539772093296051025390625">
        <ele>1847.199951171875</ele>
        <time>2026-06-18T10:37:13.000Z</time>
        <extensions>
          <ns3:TrackPointExtension>
            <ns3:atemp>23.0</ns3:atemp>
          </ns3:TrackPointExtension>
        </extensions>
      </trkpt>
      <trkpt lat="42.51521774567663669586181640625" lon="19.772539772093296051025390625">
        <ele>1847</ele>
        <time>2026-06-18T10:37:14.000Z</time>
        <extensions>
          <ns3:TrackPointExtension>
            <ns3:atemp>23.0</ns3:atemp>
          </ns3:TrackPointExtension>
        </extensions>
      </trkpt>
      <trkpt lat="42.51521774567663669586181640625" lon="19.772539772093296051025390625">
        <ele>1847</ele>
        <time>2026-06-18T10:37:15.000Z</time>
        <extensions>
          <ns3:TrackPointExtension>
            <ns3:atemp>23.0</ns3:atemp>
          </ns3:TrackPointExtension>
        </extensions>
      </trkpt>
      <trkpt lat="42.51521774567663669586181640625" lon="19.772539772093296051025390625">
        <ele>1847</ele>
        <time>2026-06-18T10:37:16.000Z</time>
        <extensions>
          <ns3:TrackPointExtension>
            <ns3:atemp>23.0</ns3:atemp>
          </ns3:TrackPointExtension>
        </extensions>
      </trkpt>
      <trkpt lat="42.51521774567663669586181640625" lon="19.772539772093296051025390625">
        <ele>1847</ele>
        <time>2026-06-18T10:37:17.000Z</time>
        <extensions>
          <ns3:TrackPointExtension>
            <ns3:atemp>23.0</ns3:atemp>
          </ns3:TrackPointExtension>
        </extensions>
      </trkpt>
      <trkpt lat="42.51521774567663669586181640625" lon="19.772539772093296051025390625">
        <ele>1847.199951171875</ele>
        <time>2026-06-18T10:37:18.000Z</time>
        <extensions>
          <ns3:TrackPointExtension>
            <ns3:atemp>23.0</ns3:atemp>
          </ns3:TrackPointExtension>
        </extensions>
      </trkpt>
      <trkpt lat="42.51521774567663669586181640625" lon="19.772539772093296051025390625">
        <ele>1847.199951171875</ele>
        <time>2026-06-18T10:37:19.000Z</time>
        <extensions>
          <ns3:TrackPointExtension>
            <ns3:atemp>23.0</ns3:atemp>
          </ns3:TrackPointExtension>
        </extensions>
      </trkpt>
      <trkpt lat="42.51521774567663669586181640625" lon="19.772539772093296051025390625">
        <ele>1847.4000244140625</ele>
        <time>2026-06-18T10:37:20.000Z</time>
        <extensions>
          <ns3:TrackPointExtension>
            <ns3:atemp>23.0</ns3:atemp>
          </ns3:TrackPointExtension>
        </extensions>
      </trkpt>
      <trkpt lat="42.51521774567663669586181640625" lon="19.772539772093296051025390625">
        <ele>1847.4000244140625</ele>
        <time>2026-06-18T10:37:21.000Z</time>
        <extensions>
          <ns3:TrackPointExtension>
            <ns3:atemp>23.0</ns3:atemp>
          </ns3:TrackPointExtension>
        </extensions>
      </trkpt>
      <trkpt lat="42.51521774567663669586181640625" lon="19.772539772093296051025390625">
        <ele>1847.4000244140625</ele>
        <time>2026-06-18T10:37:22.000Z</time>
        <extensions>
          <ns3:TrackPointExtension>
            <ns3:atemp>23.0</ns3:atemp>
          </ns3:TrackPointExtension>
        </extensions>
      </trkpt>
      <trkpt lat="42.51521774567663669586181640625" lon="19.772539772093296051025390625">
        <ele>1847.4000244140625</ele>
        <time>2026-06-18T10:37:23.000Z</time>
        <extensions>
          <ns3:TrackPointExtension>
            <ns3:atemp>23.0</ns3:atemp>
          </ns3:TrackPointExtension>
        </extensions>
      </trkpt>
      <trkpt lat="42.51521774567663669586181640625" lon="19.772539772093296051025390625">
        <ele>1847.4000244140625</ele>
        <time>2026-06-18T10:37:24.000Z</time>
        <extensions>
          <ns3:TrackPointExtension>
            <ns3:atemp>23.0</ns3:atemp>
          </ns3:TrackPointExtension>
        </extensions>
      </trkpt>
      <trkpt lat="42.51521774567663669586181640625" lon="19.772539772093296051025390625">
        <ele>1847.199951171875</ele>
        <time>2026-06-18T10:37:25.000Z</time>
        <extensions>
          <ns3:TrackPointExtension>
            <ns3:atemp>23.0</ns3:atemp>
          </ns3:TrackPointExtension>
        </extensions>
      </trkpt>
      <trkpt lat="42.51521774567663669586181640625" lon="19.772539772093296051025390625">
        <ele>1847.199951171875</ele>
        <time>2026-06-18T10:37:26.000Z</time>
        <extensions>
          <ns3:TrackPointExtension>
            <ns3:atemp>23.0</ns3:atemp>
          </ns3:TrackPointExtension>
        </extensions>
      </trkpt>
      <trkpt lat="42.51521774567663669586181640625" lon="19.772539772093296051025390625">
        <ele>1847.199951171875</ele>
        <time>2026-06-18T10:37:27.000Z</time>
        <extensions>
          <ns3:TrackPointExtension>
            <ns3:atemp>23.0</ns3:atemp>
          </ns3:TrackPointExtension>
        </extensions>
      </trkpt>
      <trkpt lat="42.51521774567663669586181640625" lon="19.772539772093296051025390625">
        <ele>1847.199951171875</ele>
        <time>2026-06-18T10:37:28.000Z</time>
        <extensions>
          <ns3:TrackPointExtension>
            <ns3:atemp>23.0</ns3:atemp>
          </ns3:TrackPointExtension>
        </extensions>
      </trkpt>
      <trkpt lat="42.51521774567663669586181640625" lon="19.772539772093296051025390625">
        <ele>1847.199951171875</ele>
        <time>2026-06-18T10:37:29.000Z</time>
        <extensions>
          <ns3:TrackPointExtension>
            <ns3:atemp>23.0</ns3:atemp>
          </ns3:TrackPointExtension>
        </extensions>
      </trkpt>
      <trkpt lat="42.51521774567663669586181640625" lon="19.772539772093296051025390625">
        <ele>1847.199951171875</ele>
        <time>2026-06-18T10:37:30.000Z</time>
        <extensions>
          <ns3:TrackPointExtension>
            <ns3:atemp>23.0</ns3:atemp>
          </ns3:TrackPointExtension>
        </extensions>
      </trkpt>
      <trkpt lat="42.51521774567663669586181640625" lon="19.772539772093296051025390625">
        <ele>1847.199951171875</ele>
        <time>2026-06-18T10:37:31.000Z</time>
        <extensions>
          <ns3:TrackPointExtension>
            <ns3:atemp>23.0</ns3:atemp>
          </ns3:TrackPointExtension>
        </extensions>
      </trkpt>
      <trkpt lat="42.51521774567663669586181640625" lon="19.772539772093296051025390625">
        <ele>1847.199951171875</ele>
        <time>2026-06-18T10:37:32.000Z</time>
        <extensions>
          <ns3:TrackPointExtension>
            <ns3:atemp>23.0</ns3:atemp>
          </ns3:TrackPointExtension>
        </extensions>
      </trkpt>
      <trkpt lat="42.51521774567663669586181640625" lon="19.772539772093296051025390625">
        <ele>1847</ele>
        <time>2026-06-18T10:37:33.000Z</time>
        <extensions>
          <ns3:TrackPointExtension>
            <ns3:atemp>23.0</ns3:atemp>
          </ns3:TrackPointExtension>
        </extensions>
      </trkpt>
      <trkpt lat="42.51521774567663669586181640625" lon="19.772539772093296051025390625">
        <ele>1847</ele>
        <time>2026-06-18T10:37:34.000Z</time>
        <extensions>
          <ns3:TrackPointExtension>
            <ns3:atemp>23.0</ns3:atemp>
          </ns3:TrackPointExtension>
        </extensions>
      </trkpt>
      <trkpt lat="42.51521774567663669586181640625" lon="19.772539772093296051025390625">
        <ele>1847</ele>
        <time>2026-06-18T10:37:35.000Z</time>
        <extensions>
          <ns3:TrackPointExtension>
            <ns3:atemp>23.0</ns3:atemp>
          </ns3:TrackPointExtension>
        </extensions>
      </trkpt>
      <trkpt lat="42.51521774567663669586181640625" lon="19.772539772093296051025390625">
        <ele>1847.199951171875</ele>
        <time>2026-06-18T10:37:36.000Z</time>
        <extensions>
          <ns3:TrackPointExtension>
            <ns3:atemp>23.0</ns3:atemp>
          </ns3:TrackPointExtension>
        </extensions>
      </trkpt>
      <trkpt lat="42.51521774567663669586181640625" lon="19.772539772093296051025390625">
        <ele>1847.199951171875</ele>
        <time>2026-06-18T10:37:37.000Z</time>
        <extensions>
          <ns3:TrackPointExtension>
            <ns3:atemp>23.0</ns3:atemp>
          </ns3:TrackPointExtension>
        </extensions>
      </trkpt>
      <trkpt lat="42.51521774567663669586181640625" lon="19.772539772093296051025390625">
        <ele>1847.199951171875</ele>
        <time>2026-06-18T10:37:38.000Z</time>
        <extensions>
          <ns3:TrackPointExtension>
            <ns3:atemp>23.0</ns3:atemp>
          </ns3:TrackPointExtension>
        </extensions>
      </trkpt>
      <trkpt lat="42.51521774567663669586181640625" lon="19.772539772093296051025390625">
        <ele>1847.4000244140625</ele>
        <time>2026-06-18T10:37:39.000Z</time>
        <extensions>
          <ns3:TrackPointExtension>
            <ns3:atemp>23.0</ns3:atemp>
          </ns3:TrackPointExtension>
        </extensions>
      </trkpt>
      <trkpt lat="42.51521774567663669586181640625" lon="19.772539772093296051025390625">
        <ele>1847.4000244140625</ele>
        <time>2026-06-18T10:37:40.000Z</time>
        <extensions>
          <ns3:TrackPointExtension>
            <ns3:atemp>23.0</ns3:atemp>
          </ns3:TrackPointExtension>
        </extensions>
      </trkpt>
      <trkpt lat="42.51521774567663669586181640625" lon="19.772539772093296051025390625">
        <ele>1847.4000244140625</ele>
        <time>2026-06-18T10:37:41.000Z</time>
        <extensions>
          <ns3:TrackPointExtension>
            <ns3:atemp>23.0</ns3:atemp>
          </ns3:TrackPointExtension>
        </extensions>
      </trkpt>
      <trkpt lat="42.51521774567663669586181640625" lon="19.772539772093296051025390625">
        <ele>1847.4000244140625</ele>
        <time>2026-06-18T10:37:42.000Z</time>
        <extensions>
          <ns3:TrackPointExtension>
            <ns3:atemp>23.0</ns3:atemp>
          </ns3:TrackPointExtension>
        </extensions>
      </trkpt>
      <trkpt lat="42.51521774567663669586181640625" lon="19.772539772093296051025390625">
        <ele>1847.199951171875</ele>
        <time>2026-06-18T10:37:43.000Z</time>
        <extensions>
          <ns3:TrackPointExtension>
            <ns3:atemp>23.0</ns3:atemp>
          </ns3:TrackPointExtension>
        </extensions>
      </trkpt>
      <trkpt lat="42.51521774567663669586181640625" lon="19.772539772093296051025390625">
        <ele>1847.199951171875</ele>
        <time>2026-06-18T10:37:44.000Z</time>
        <extensions>
          <ns3:TrackPointExtension>
            <ns3:atemp>23.0</ns3:atemp>
          </ns3:TrackPointExtension>
        </extensions>
      </trkpt>
      <trkpt lat="42.51521774567663669586181640625" lon="19.772539772093296051025390625">
        <ele>1847.4000244140625</ele>
        <time>2026-06-18T10:37:45.000Z</time>
        <extensions>
          <ns3:TrackPointExtension>
            <ns3:atemp>23.0</ns3:atemp>
          </ns3:TrackPointExtension>
        </extensions>
      </trkpt>
      <trkpt lat="42.51521774567663669586181640625" lon="19.772539772093296051025390625">
        <ele>1847.4000244140625</ele>
        <time>2026-06-18T10:37:46.000Z</time>
        <extensions>
          <ns3:TrackPointExtension>
            <ns3:atemp>23.0</ns3:atemp>
          </ns3:TrackPointExtension>
        </extensions>
      </trkpt>
      <trkpt lat="42.51521774567663669586181640625" lon="19.772539772093296051025390625">
        <ele>1847.4000244140625</ele>
        <time>2026-06-18T10:37:47.000Z</time>
        <extensions>
          <ns3:TrackPointExtension>
            <ns3:atemp>23.0</ns3:atemp>
          </ns3:TrackPointExtension>
        </extensions>
      </trkpt>
      <trkpt lat="42.51521774567663669586181640625" lon="19.772539772093296051025390625">
        <ele>1847.5999755859375</ele>
        <time>2026-06-18T10:37:48.000Z</time>
        <extensions>
          <ns3:TrackPointExtension>
            <ns3:atemp>23.0</ns3:atemp>
          </ns3:TrackPointExtension>
        </extensions>
      </trkpt>
      <trkpt lat="42.51521774567663669586181640625" lon="19.772539772093296051025390625">
        <ele>1847.5999755859375</ele>
        <time>2026-06-18T10:37:49.000Z</time>
        <extensions>
          <ns3:TrackPointExtension>
            <ns3:atemp>23.0</ns3:atemp>
          </ns3:TrackPointExtension>
        </extensions>
      </trkpt>
      <trkpt lat="42.51521774567663669586181640625" lon="19.772539772093296051025390625">
        <ele>1847.5999755859375</ele>
        <time>2026-06-18T10:37:50.000Z</time>
        <extensions>
          <ns3:TrackPointExtension>
            <ns3:atemp>23.0</ns3:atemp>
          </ns3:TrackPointExtension>
        </extensions>
      </trkpt>
      <trkpt lat="42.51521774567663669586181640625" lon="19.772539772093296051025390625">
        <ele>1847.800048828125</ele>
        <time>2026-06-18T10:37:51.000Z</time>
        <extensions>
          <ns3:TrackPointExtension>
            <ns3:atemp>23.0</ns3:atemp>
          </ns3:TrackPointExtension>
        </extensions>
      </trkpt>
      <trkpt lat="42.51521774567663669586181640625" lon="19.772539772093296051025390625">
        <ele>1847.800048828125</ele>
        <time>2026-06-18T10:37:52.000Z</time>
        <extensions>
          <ns3:TrackPointExtension>
            <ns3:atemp>23.0</ns3:atemp>
          </ns3:TrackPointExtension>
        </extensions>
      </trkpt>
      <trkpt lat="42.51521774567663669586181640625" lon="19.772539772093296051025390625">
        <ele>1847.800048828125</ele>
        <time>2026-06-18T10:37:53.000Z</time>
        <extensions>
          <ns3:TrackPointExtension>
            <ns3:atemp>23.0</ns3:atemp>
          </ns3:TrackPointExtension>
        </extensions>
      </trkpt>
      <trkpt lat="42.51521774567663669586181640625" lon="19.772539772093296051025390625">
        <ele>1847.800048828125</ele>
        <time>2026-06-18T10:37:54.000Z</time>
        <extensions>
          <ns3:TrackPointExtension>
            <ns3:atemp>23.0</ns3:atemp>
          </ns3:TrackPointExtension>
        </extensions>
      </trkpt>
      <trkpt lat="42.51521774567663669586181640625" lon="19.772539772093296051025390625">
        <ele>1847.800048828125</ele>
        <time>2026-06-18T10:37:55.000Z</time>
        <extensions>
          <ns3:TrackPointExtension>
            <ns3:atemp>23.0</ns3:atemp>
          </ns3:TrackPointExtension>
        </extensions>
      </trkpt>
      <trkpt lat="42.51521774567663669586181640625" lon="19.772539772093296051025390625">
        <ele>1847.5999755859375</ele>
        <time>2026-06-18T10:37:56.000Z</time>
        <extensions>
          <ns3:TrackPointExtension>
            <ns3:atemp>23.0</ns3:atemp>
          </ns3:TrackPointExtension>
        </extensions>
      </trkpt>
      <trkpt lat="42.51521774567663669586181640625" lon="19.772539772093296051025390625">
        <ele>1847.5999755859375</ele>
        <time>2026-06-18T10:37:57.000Z</time>
        <extensions>
          <ns3:TrackPointExtension>
            <ns3:atemp>23.0</ns3:atemp>
          </ns3:TrackPointExtension>
        </extensions>
      </trkpt>
      <trkpt lat="42.51521774567663669586181640625" lon="19.772539772093296051025390625">
        <ele>1847.199951171875</ele>
        <time>2026-06-18T10:37:58.000Z</time>
        <extensions>
          <ns3:TrackPointExtension>
            <ns3:atemp>23.0</ns3:atemp>
          </ns3:TrackPointExtension>
        </extensions>
      </trkpt>
      <trkpt lat="42.51521774567663669586181640625" lon="19.772539772093296051025390625">
        <ele>1847</ele>
        <time>2026-06-18T10:37:59.000Z</time>
        <extensions>
          <ns3:TrackPointExtension>
            <ns3:atemp>23.0</ns3:atemp>
          </ns3:TrackPointExtension>
        </extensions>
      </trkpt>
      <trkpt lat="42.51521774567663669586181640625" lon="19.772539772093296051025390625">
        <ele>1847</ele>
        <time>2026-06-18T10:38:00.000Z</time>
        <extensions>
          <ns3:TrackPointExtension>
            <ns3:atemp>23.0</ns3:atemp>
          </ns3:TrackPointExtension>
        </extensions>
      </trkpt>
      <trkpt lat="42.51521774567663669586181640625" lon="19.772539772093296051025390625">
        <ele>1846.800048828125</ele>
        <time>2026-06-18T10:38:01.000Z</time>
        <extensions>
          <ns3:TrackPointExtension>
            <ns3:atemp>23.0</ns3:atemp>
          </ns3:TrackPointExtension>
        </extensions>
      </trkpt>
      <trkpt lat="42.51521774567663669586181640625" lon="19.772539772093296051025390625">
        <ele>1846.5999755859375</ele>
        <time>2026-06-18T10:38:02.000Z</time>
        <extensions>
          <ns3:TrackPointExtension>
            <ns3:atemp>23.0</ns3:atemp>
          </ns3:TrackPointExtension>
        </extensions>
      </trkpt>
      <trkpt lat="42.51521774567663669586181640625" lon="19.772539772093296051025390625">
        <ele>1846.5999755859375</ele>
        <time>2026-06-18T10:38:03.000Z</time>
        <extensions>
          <ns3:TrackPointExtension>
            <ns3:atemp>23.0</ns3:atemp>
          </ns3:TrackPointExtension>
        </extensions>
      </trkpt>
      <trkpt lat="42.51521774567663669586181640625" lon="19.772539772093296051025390625">
        <ele>1846.5999755859375</ele>
        <time>2026-06-18T10:38:04.000Z</time>
        <extensions>
          <ns3:TrackPointExtension>
            <ns3:atemp>23.0</ns3:atemp>
          </ns3:TrackPointExtension>
        </extensions>
      </trkpt>
      <trkpt lat="42.51521774567663669586181640625" lon="19.772539772093296051025390625">
        <ele>1846.5999755859375</ele>
        <time>2026-06-18T10:38:05.000Z</time>
        <extensions>
          <ns3:TrackPointExtension>
            <ns3:atemp>23.0</ns3:atemp>
          </ns3:TrackPointExtension>
        </extensions>
      </trkpt>
      <trkpt lat="42.51521774567663669586181640625" lon="19.772539772093296051025390625">
        <ele>1846.5999755859375</ele>
        <time>2026-06-18T10:38:06.000Z</time>
        <extensions>
          <ns3:TrackPointExtension>
            <ns3:atemp>23.0</ns3:atemp>
          </ns3:TrackPointExtension>
        </extensions>
      </trkpt>
      <trkpt lat="42.51521774567663669586181640625" lon="19.772539772093296051025390625">
        <ele>1846.800048828125</ele>
        <time>2026-06-18T10:38:07.000Z</time>
        <extensions>
          <ns3:TrackPointExtension>
            <ns3:atemp>23.0</ns3:atemp>
          </ns3:TrackPointExtension>
        </extensions>
      </trkpt>
      <trkpt lat="42.51521774567663669586181640625" lon="19.772539772093296051025390625">
        <ele>1846.800048828125</ele>
        <time>2026-06-18T10:38:08.000Z</time>
        <extensions>
          <ns3:TrackPointExtension>
            <ns3:atemp>23.0</ns3:atemp>
          </ns3:TrackPointExtension>
        </extensions>
      </trkpt>
      <trkpt lat="42.51521774567663669586181640625" lon="19.772539772093296051025390625">
        <ele>1847</ele>
        <time>2026-06-18T10:38:09.000Z</time>
        <extensions>
          <ns3:TrackPointExtension>
            <ns3:atemp>23.0</ns3:atemp>
          </ns3:TrackPointExtension>
        </extensions>
      </trkpt>
      <trkpt lat="42.51521774567663669586181640625" lon="19.772539772093296051025390625">
        <ele>1847</ele>
        <time>2026-06-18T10:38:10.000Z</time>
        <extensions>
          <ns3:TrackPointExtension>
            <ns3:atemp>23.0</ns3:atemp>
          </ns3:TrackPointExtension>
        </extensions>
      </trkpt>
      <trkpt lat="42.51521774567663669586181640625" lon="19.772539772093296051025390625">
        <ele>1847</ele>
        <time>2026-06-18T10:38:11.000Z</time>
        <extensions>
          <ns3:TrackPointExtension>
            <ns3:atemp>23.0</ns3:atemp>
          </ns3:TrackPointExtension>
        </extensions>
      </trkpt>
      <trkpt lat="42.51521774567663669586181640625" lon="19.772539772093296051025390625">
        <ele>1847</ele>
        <time>2026-06-18T10:38:12.000Z</time>
        <extensions>
          <ns3:TrackPointExtension>
            <ns3:atemp>23.0</ns3:atemp>
          </ns3:TrackPointExtension>
        </extensions>
      </trkpt>
      <trkpt lat="42.51521774567663669586181640625" lon="19.772539772093296051025390625">
        <ele>1847</ele>
        <time>2026-06-18T10:38:13.000Z</time>
        <extensions>
          <ns3:TrackPointExtension>
            <ns3:atemp>23.0</ns3:atemp>
          </ns3:TrackPointExtension>
        </extensions>
      </trkpt>
      <trkpt lat="42.51521774567663669586181640625" lon="19.772539772093296051025390625">
        <ele>1847</ele>
        <time>2026-06-18T10:38:14.000Z</time>
        <extensions>
          <ns3:TrackPointExtension>
            <ns3:atemp>23.0</ns3:atemp>
          </ns3:TrackPointExtension>
        </extensions>
      </trkpt>
      <trkpt lat="42.51521774567663669586181640625" lon="19.772539772093296051025390625">
        <ele>1847</ele>
        <time>2026-06-18T10:38:15.000Z</time>
        <extensions>
          <ns3:TrackPointExtension>
            <ns3:atemp>23.0</ns3:atemp>
          </ns3:TrackPointExtension>
        </extensions>
      </trkpt>
      <trkpt lat="42.51521774567663669586181640625" lon="19.772539772093296051025390625">
        <ele>1847</ele>
        <time>2026-06-18T10:38:16.000Z</time>
        <extensions>
          <ns3:TrackPointExtension>
            <ns3:atemp>23.0</ns3:atemp>
          </ns3:TrackPointExtension>
        </extensions>
      </trkpt>
      <trkpt lat="42.51521774567663669586181640625" lon="19.772539772093296051025390625">
        <ele>1847.199951171875</ele>
        <time>2026-06-18T10:38:17.000Z</time>
        <extensions>
          <ns3:TrackPointExtension>
            <ns3:atemp>23.0</ns3:atemp>
          </ns3:TrackPointExtension>
        </extensions>
      </trkpt>
      <trkpt lat="42.51521774567663669586181640625" lon="19.772539772093296051025390625">
        <ele>1847.199951171875</ele>
        <time>2026-06-18T10:38:18.000Z</time>
        <extensions>
          <ns3:TrackPointExtension>
            <ns3:atemp>23.0</ns3:atemp>
          </ns3:TrackPointExtension>
        </extensions>
      </trkpt>
      <trkpt lat="42.51521774567663669586181640625" lon="19.772539772093296051025390625">
        <ele>1847.199951171875</ele>
        <time>2026-06-18T10:38:19.000Z</time>
        <extensions>
          <ns3:TrackPointExtension>
            <ns3:atemp>23.0</ns3:atemp>
          </ns3:TrackPointExtension>
        </extensions>
      </trkpt>
      <trkpt lat="42.51521774567663669586181640625" lon="19.772539772093296051025390625">
        <ele>1847</ele>
        <time>2026-06-18T10:38:20.000Z</time>
        <extensions>
          <ns3:TrackPointExtension>
            <ns3:atemp>23.0</ns3:atemp>
          </ns3:TrackPointExtension>
        </extensions>
      </trkpt>
      <trkpt lat="42.51521774567663669586181640625" lon="19.772539772093296051025390625">
        <ele>1847</ele>
        <time>2026-06-18T10:38:21.000Z</time>
        <extensions>
          <ns3:TrackPointExtension>
            <ns3:atemp>23.0</ns3:atemp>
          </ns3:TrackPointExtension>
        </extensions>
      </trkpt>
      <trkpt lat="42.51521774567663669586181640625" lon="19.772539772093296051025390625">
        <ele>1847</ele>
        <time>2026-06-18T10:38:22.000Z</time>
        <extensions>
          <ns3:TrackPointExtension>
            <ns3:atemp>23.0</ns3:atemp>
          </ns3:TrackPointExtension>
        </extensions>
      </trkpt>
      <trkpt lat="42.51521774567663669586181640625" lon="19.772539772093296051025390625">
        <ele>1846.800048828125</ele>
        <time>2026-06-18T10:38:23.000Z</time>
        <extensions>
          <ns3:TrackPointExtension>
            <ns3:atemp>23.0</ns3:atemp>
          </ns3:TrackPointExtension>
        </extensions>
      </trkpt>
      <trkpt lat="42.51521774567663669586181640625" lon="19.772539772093296051025390625">
        <ele>1847</ele>
        <time>2026-06-18T10:38:24.000Z</time>
        <extensions>
          <ns3:TrackPointExtension>
            <ns3:atemp>23.0</ns3:atemp>
          </ns3:TrackPointExtension>
        </extensions>
      </trkpt>
      <trkpt lat="42.51521774567663669586181640625" lon="19.772539772093296051025390625">
        <ele>1847</ele>
        <time>2026-06-18T10:38:25.000Z</time>
        <extensions>
          <ns3:TrackPointExtension>
            <ns3:atemp>23.0</ns3:atemp>
          </ns3:TrackPointExtension>
        </extensions>
      </trkpt>
      <trkpt lat="42.51521774567663669586181640625" lon="19.772539772093296051025390625">
        <ele>1847</ele>
        <time>2026-06-18T10:38:26.000Z</time>
        <extensions>
          <ns3:TrackPointExtension>
            <ns3:atemp>23.0</ns3:atemp>
          </ns3:TrackPointExtension>
        </extensions>
      </trkpt>
      <trkpt lat="42.51521774567663669586181640625" lon="19.772539772093296051025390625">
        <ele>1847.199951171875</ele>
        <time>2026-06-18T10:38:27.000Z</time>
        <extensions>
          <ns3:TrackPointExtension>
            <ns3:atemp>23.0</ns3:atemp>
          </ns3:TrackPointExtension>
        </extensions>
      </trkpt>
      <trkpt lat="42.51521774567663669586181640625" lon="19.772539772093296051025390625">
        <ele>1847.4000244140625</ele>
        <time>2026-06-18T10:38:28.000Z</time>
        <extensions>
          <ns3:TrackPointExtension>
            <ns3:atemp>23.0</ns3:atemp>
          </ns3:TrackPointExtension>
        </extensions>
      </trkpt>
      <trkpt lat="42.51521774567663669586181640625" lon="19.772539772093296051025390625">
        <ele>1847.5999755859375</ele>
        <time>2026-06-18T10:38:29.000Z</time>
        <extensions>
          <ns3:TrackPointExtension>
            <ns3:atemp>23.0</ns3:atemp>
          </ns3:TrackPointExtension>
        </extensions>
      </trkpt>
      <trkpt lat="42.51521774567663669586181640625" lon="19.772539772093296051025390625">
        <ele>1847.800048828125</ele>
        <time>2026-06-18T10:38:30.000Z</time>
        <extensions>
          <ns3:TrackPointExtension>
            <ns3:atemp>23.0</ns3:atemp>
          </ns3:TrackPointExtension>
        </extensions>
      </trkpt>
      <trkpt lat="42.51521774567663669586181640625" lon="19.772539772093296051025390625">
        <ele>1848.199951171875</ele>
        <time>2026-06-18T10:38:31.000Z</time>
        <extensions>
          <ns3:TrackPointExtension>
            <ns3:atemp>23.0</ns3:atemp>
          </ns3:TrackPointExtension>
        </extensions>
      </trkpt>
      <trkpt lat="42.51521774567663669586181640625" lon="19.772539772093296051025390625">
        <ele>1848.4000244140625</ele>
        <time>2026-06-18T10:38:32.000Z</time>
        <extensions>
          <ns3:TrackPointExtension>
            <ns3:atemp>23.0</ns3:atemp>
          </ns3:TrackPointExtension>
        </extensions>
      </trkpt>
      <trkpt lat="42.51521774567663669586181640625" lon="19.772539772093296051025390625">
        <ele>1848.4000244140625</ele>
        <time>2026-06-18T10:38:33.000Z</time>
        <extensions>
          <ns3:TrackPointExtension>
            <ns3:atemp>23.0</ns3:atemp>
          </ns3:TrackPointExtension>
        </extensions>
      </trkpt>
      <trkpt lat="42.51521774567663669586181640625" lon="19.772539772093296051025390625">
        <ele>1848.4000244140625</ele>
        <time>2026-06-18T10:38:34.000Z</time>
        <extensions>
          <ns3:TrackPointExtension>
            <ns3:atemp>23.0</ns3:atemp>
          </ns3:TrackPointExtension>
        </extensions>
      </trkpt>
      <trkpt lat="42.51521774567663669586181640625" lon="19.772539772093296051025390625">
        <ele>1848.4000244140625</ele>
        <time>2026-06-18T10:38:35.000Z</time>
        <extensions>
          <ns3:TrackPointExtension>
            <ns3:atemp>23.0</ns3:atemp>
          </ns3:TrackPointExtension>
        </extensions>
      </trkpt>
      <trkpt lat="42.51521774567663669586181640625" lon="19.772539772093296051025390625">
        <ele>1848.4000244140625</ele>
        <time>2026-06-18T10:38:36.000Z</time>
        <extensions>
          <ns3:TrackPointExtension>
            <ns3:atemp>23.0</ns3:atemp>
          </ns3:TrackPointExtension>
        </extensions>
      </trkpt>
      <trkpt lat="42.51521774567663669586181640625" lon="19.772539772093296051025390625">
        <ele>1848.4000244140625</ele>
        <time>2026-06-18T10:38:37.000Z</time>
        <extensions>
          <ns3:TrackPointExtension>
            <ns3:atemp>23.0</ns3:atemp>
          </ns3:TrackPointExtension>
        </extensions>
      </trkpt>
      <trkpt lat="42.51521774567663669586181640625" lon="19.772539772093296051025390625">
        <ele>1848.4000244140625</ele>
        <time>2026-06-18T10:38:38.000Z</time>
        <extensions>
          <ns3:TrackPointExtension>
            <ns3:atemp>23.0</ns3:atemp>
          </ns3:TrackPointExtension>
        </extensions>
      </trkpt>
      <trkpt lat="42.51521774567663669586181640625" lon="19.772539772093296051025390625">
        <ele>1848.5999755859375</ele>
        <time>2026-06-18T10:38:39.000Z</time>
        <extensions>
          <ns3:TrackPointExtension>
            <ns3:atemp>23.0</ns3:atemp>
          </ns3:TrackPointExtension>
        </extensions>
      </trkpt>
      <trkpt lat="42.51521774567663669586181640625" lon="19.772539772093296051025390625">
        <ele>1848.5999755859375</ele>
        <time>2026-06-18T10:38:40.000Z</time>
        <extensions>
          <ns3:TrackPointExtension>
            <ns3:atemp>23.0</ns3:atemp>
          </ns3:TrackPointExtension>
        </extensions>
      </trkpt>
      <trkpt lat="42.51521774567663669586181640625" lon="19.772539772093296051025390625">
        <ele>1848.5999755859375</ele>
        <time>2026-06-18T10:38:41.000Z</time>
        <extensions>
          <ns3:TrackPointExtension>
            <ns3:atemp>23.0</ns3:atemp>
          </ns3:TrackPointExtension>
        </extensions>
      </trkpt>
      <trkpt lat="42.51521774567663669586181640625" lon="19.772539772093296051025390625">
        <ele>1848.5999755859375</ele>
        <time>2026-06-18T10:38:42.000Z</time>
        <extensions>
          <ns3:TrackPointExtension>
            <ns3:atemp>23.0</ns3:atemp>
          </ns3:TrackPointExtension>
        </extensions>
      </trkpt>
      <trkpt lat="42.51521774567663669586181640625" lon="19.772539772093296051025390625">
        <ele>1848.800048828125</ele>
        <time>2026-06-18T10:38:43.000Z</time>
        <extensions>
          <ns3:TrackPointExtension>
            <ns3:atemp>23.0</ns3:atemp>
          </ns3:TrackPointExtension>
        </extensions>
      </trkpt>
      <trkpt lat="42.51521774567663669586181640625" lon="19.772539772093296051025390625">
        <ele>1848.800048828125</ele>
        <time>2026-06-18T10:38:44.000Z</time>
        <extensions>
          <ns3:TrackPointExtension>
            <ns3:atemp>23.0</ns3:atemp>
          </ns3:TrackPointExtension>
        </extensions>
      </trkpt>
      <trkpt lat="42.51521774567663669586181640625" lon="19.772539772093296051025390625">
        <ele>1848.800048828125</ele>
        <time>2026-06-18T10:38:45.000Z</time>
        <extensions>
          <ns3:TrackPointExtension>
            <ns3:atemp>23.0</ns3:atemp>
          </ns3:TrackPointExtension>
        </extensions>
      </trkpt>
      <trkpt lat="42.51521774567663669586181640625" lon="19.772539772093296051025390625">
        <ele>1848.5999755859375</ele>
        <time>2026-06-18T10:38:46.000Z</time>
        <extensions>
          <ns3:TrackPointExtension>
            <ns3:atemp>23.0</ns3:atemp>
          </ns3:TrackPointExtension>
        </extensions>
      </trkpt>
      <trkpt lat="42.51521774567663669586181640625" lon="19.772539772093296051025390625">
        <ele>1848.5999755859375</ele>
        <time>2026-06-18T10:38:47.000Z</time>
        <extensions>
          <ns3:TrackPointExtension>
            <ns3:atemp>23.0</ns3:atemp>
          </ns3:TrackPointExtension>
        </extensions>
      </trkpt>
      <trkpt lat="42.51521774567663669586181640625" lon="19.772539772093296051025390625">
        <ele>1848.5999755859375</ele>
        <time>2026-06-18T10:38:48.000Z</time>
        <extensions>
          <ns3:TrackPointExtension>
            <ns3:atemp>23.0</ns3:atemp>
          </ns3:TrackPointExtension>
        </extensions>
      </trkpt>
      <trkpt lat="42.51521774567663669586181640625" lon="19.772539772093296051025390625">
        <ele>1848.5999755859375</ele>
        <time>2026-06-18T10:38:49.000Z</time>
        <extensions>
          <ns3:TrackPointExtension>
            <ns3:atemp>23.0</ns3:atemp>
          </ns3:TrackPointExtension>
        </extensions>
      </trkpt>
      <trkpt lat="42.51521774567663669586181640625" lon="19.772539772093296051025390625">
        <ele>1848.4000244140625</ele>
        <time>2026-06-18T10:38:50.000Z</time>
        <extensions>
          <ns3:TrackPointExtension>
            <ns3:atemp>23.0</ns3:atemp>
          </ns3:TrackPointExtension>
        </extensions>
      </trkpt>
      <trkpt lat="42.51521774567663669586181640625" lon="19.772539772093296051025390625">
        <ele>1848.5999755859375</ele>
        <time>2026-06-18T10:38:51.000Z</time>
        <extensions>
          <ns3:TrackPointExtension>
            <ns3:atemp>23.0</ns3:atemp>
          </ns3:TrackPointExtension>
        </extensions>
      </trkpt>
      <trkpt lat="42.51521774567663669586181640625" lon="19.772539772093296051025390625">
        <ele>1848.5999755859375</ele>
        <time>2026-06-18T10:38:52.000Z</time>
        <extensions>
          <ns3:TrackPointExtension>
            <ns3:atemp>23.0</ns3:atemp>
          </ns3:TrackPointExtension>
        </extensions>
      </trkpt>
      <trkpt lat="42.51521774567663669586181640625" lon="19.772539772093296051025390625">
        <ele>1848.5999755859375</ele>
        <time>2026-06-18T10:38:53.000Z</time>
        <extensions>
          <ns3:TrackPointExtension>
            <ns3:atemp>23.0</ns3:atemp>
          </ns3:TrackPointExtension>
        </extensions>
      </trkpt>
      <trkpt lat="42.51521774567663669586181640625" lon="19.772539772093296051025390625">
        <ele>1848.5999755859375</ele>
        <time>2026-06-18T10:38:54.000Z</time>
        <extensions>
          <ns3:TrackPointExtension>
            <ns3:atemp>23.0</ns3:atemp>
          </ns3:TrackPointExtension>
        </extensions>
      </trkpt>
      <trkpt lat="42.51521774567663669586181640625" lon="19.772539772093296051025390625">
        <ele>1848.5999755859375</ele>
        <time>2026-06-18T10:38:55.000Z</time>
        <extensions>
          <ns3:TrackPointExtension>
            <ns3:atemp>23.0</ns3:atemp>
          </ns3:TrackPointExtension>
        </extensions>
      </trkpt>
      <trkpt lat="42.51521774567663669586181640625" lon="19.772539772093296051025390625">
        <ele>1848.5999755859375</ele>
        <time>2026-06-18T10:38:56.000Z</time>
        <extensions>
          <ns3:TrackPointExtension>
            <ns3:atemp>23.0</ns3:atemp>
          </ns3:TrackPointExtension>
        </extensions>
      </trkpt>
      <trkpt lat="42.51521774567663669586181640625" lon="19.772539772093296051025390625">
        <ele>1848.5999755859375</ele>
        <time>2026-06-18T10:38:57.000Z</time>
        <extensions>
          <ns3:TrackPointExtension>
            <ns3:atemp>23.0</ns3:atemp>
          </ns3:TrackPointExtension>
        </extensions>
      </trkpt>
      <trkpt lat="42.51521774567663669586181640625" lon="19.772539772093296051025390625">
        <ele>1848.5999755859375</ele>
        <time>2026-06-18T10:38:58.000Z</time>
        <extensions>
          <ns3:TrackPointExtension>
            <ns3:atemp>23.0</ns3:atemp>
          </ns3:TrackPointExtension>
        </extensions>
      </trkpt>
      <trkpt lat="42.51521774567663669586181640625" lon="19.772539772093296051025390625">
        <ele>1848.4000244140625</ele>
        <time>2026-06-18T10:38:59.000Z</time>
        <extensions>
          <ns3:TrackPointExtension>
            <ns3:atemp>23.0</ns3:atemp>
          </ns3:TrackPointExtension>
        </extensions>
      </trkpt>
      <trkpt lat="42.51521774567663669586181640625" lon="19.772539772093296051025390625">
        <ele>1848.4000244140625</ele>
        <time>2026-06-18T10:39:00.000Z</time>
        <extensions>
          <ns3:TrackPointExtension>
            <ns3:atemp>23.0</ns3:atemp>
          </ns3:TrackPointExtension>
        </extensions>
      </trkpt>
      <trkpt lat="42.51521774567663669586181640625" lon="19.772539772093296051025390625">
        <ele>1848.199951171875</ele>
        <time>2026-06-18T10:39:01.000Z</time>
        <extensions>
          <ns3:TrackPointExtension>
            <ns3:atemp>23.0</ns3:atemp>
          </ns3:TrackPointExtension>
        </extensions>
      </trkpt>
      <trkpt lat="42.51521774567663669586181640625" lon="19.772539772093296051025390625">
        <ele>1848.199951171875</ele>
        <time>2026-06-18T10:39:02.000Z</time>
        <extensions>
          <ns3:TrackPointExtension>
            <ns3:atemp>23.0</ns3:atemp>
          </ns3:TrackPointExtension>
        </extensions>
      </trkpt>
      <trkpt lat="42.51521774567663669586181640625" lon="19.772539772093296051025390625">
        <ele>1848.199951171875</ele>
        <time>2026-06-18T10:39:03.000Z</time>
        <extensions>
          <ns3:TrackPointExtension>
            <ns3:atemp>23.0</ns3:atemp>
          </ns3:TrackPointExtension>
        </extensions>
      </trkpt>
      <trkpt lat="42.51521774567663669586181640625" lon="19.772539772093296051025390625">
        <ele>1848.199951171875</ele>
        <time>2026-06-18T10:39:04.000Z</time>
        <extensions>
          <ns3:TrackPointExtension>
            <ns3:atemp>23.0</ns3:atemp>
          </ns3:TrackPointExtension>
        </extensions>
      </trkpt>
      <trkpt lat="42.51521774567663669586181640625" lon="19.772539772093296051025390625">
        <ele>1848.199951171875</ele>
        <time>2026-06-18T10:39:05.000Z</time>
        <extensions>
          <ns3:TrackPointExtension>
            <ns3:atemp>23.0</ns3:atemp>
          </ns3:TrackPointExtension>
        </extensions>
      </trkpt>
      <trkpt lat="42.51521774567663669586181640625" lon="19.772539772093296051025390625">
        <ele>1848.199951171875</ele>
        <time>2026-06-18T10:39:06.000Z</time>
        <extensions>
          <ns3:TrackPointExtension>
            <ns3:atemp>23.0</ns3:atemp>
          </ns3:TrackPointExtension>
        </extensions>
      </trkpt>
      <trkpt lat="42.51521774567663669586181640625" lon="19.772539772093296051025390625">
        <ele>1848.199951171875</ele>
        <time>2026-06-18T10:39:07.000Z</time>
        <extensions>
          <ns3:TrackPointExtension>
            <ns3:atemp>23.0</ns3:atemp>
          </ns3:TrackPointExtension>
        </extensions>
      </trkpt>
      <trkpt lat="42.51521774567663669586181640625" lon="19.772539772093296051025390625">
        <ele>1848.199951171875</ele>
        <time>2026-06-18T10:39:08.000Z</time>
        <extensions>
          <ns3:TrackPointExtension>
            <ns3:atemp>23.0</ns3:atemp>
          </ns3:TrackPointExtension>
        </extensions>
      </trkpt>
      <trkpt lat="42.51521774567663669586181640625" lon="19.772539772093296051025390625">
        <ele>1848.199951171875</ele>
        <time>2026-06-18T10:39:09.000Z</time>
        <extensions>
          <ns3:TrackPointExtension>
            <ns3:atemp>23.0</ns3:atemp>
          </ns3:TrackPointExtension>
        </extensions>
      </trkpt>
      <trkpt lat="42.51521774567663669586181640625" lon="19.772539772093296051025390625">
        <ele>1848.199951171875</ele>
        <time>2026-06-18T10:39:10.000Z</time>
        <extensions>
          <ns3:TrackPointExtension>
            <ns3:atemp>23.0</ns3:atemp>
          </ns3:TrackPointExtension>
        </extensions>
      </trkpt>
      <trkpt lat="42.51521774567663669586181640625" lon="19.772539772093296051025390625">
        <ele>1848.199951171875</ele>
        <time>2026-06-18T10:39:11.000Z</time>
        <extensions>
          <ns3:TrackPointExtension>
            <ns3:atemp>23.0</ns3:atemp>
          </ns3:TrackPointExtension>
        </extensions>
      </trkpt>
      <trkpt lat="42.51521774567663669586181640625" lon="19.772539772093296051025390625">
        <ele>1848.199951171875</ele>
        <time>2026-06-18T10:39:12.000Z</time>
        <extensions>
          <ns3:TrackPointExtension>
            <ns3:atemp>23.0</ns3:atemp>
          </ns3:TrackPointExtension>
        </extensions>
      </trkpt>
      <trkpt lat="42.51521774567663669586181640625" lon="19.772539772093296051025390625">
        <ele>1848.199951171875</ele>
        <time>2026-06-18T10:39:13.000Z</time>
        <extensions>
          <ns3:TrackPointExtension>
            <ns3:atemp>23.0</ns3:atemp>
          </ns3:TrackPointExtension>
        </extensions>
      </trkpt>
      <trkpt lat="42.51521774567663669586181640625" lon="19.772539772093296051025390625">
        <ele>1848.4000244140625</ele>
        <time>2026-06-18T10:39:14.000Z</time>
        <extensions>
          <ns3:TrackPointExtension>
            <ns3:atemp>23.0</ns3:atemp>
          </ns3:TrackPointExtension>
        </extensions>
      </trkpt>
      <trkpt lat="42.51521774567663669586181640625" lon="19.772539772093296051025390625">
        <ele>1848.4000244140625</ele>
        <time>2026-06-18T10:39:15.000Z</time>
        <extensions>
          <ns3:TrackPointExtension>
            <ns3:atemp>23.0</ns3:atemp>
          </ns3:TrackPointExtension>
        </extensions>
      </trkpt>
      <trkpt lat="42.51521774567663669586181640625" lon="19.772539772093296051025390625">
        <ele>1848.4000244140625</ele>
        <time>2026-06-18T10:39:16.000Z</time>
        <extensions>
          <ns3:TrackPointExtension>
            <ns3:atemp>24.0</ns3:atemp>
          </ns3:TrackPointExtension>
        </extensions>
      </trkpt>
      <trkpt lat="42.51521774567663669586181640625" lon="19.772539772093296051025390625">
        <ele>1848.4000244140625</ele>
        <time>2026-06-18T10:39:17.000Z</time>
        <extensions>
          <ns3:TrackPointExtension>
            <ns3:atemp>23.0</ns3:atemp>
          </ns3:TrackPointExtension>
        </extensions>
      </trkpt>
      <trkpt lat="42.51521774567663669586181640625" lon="19.772539772093296051025390625">
        <ele>1848.5999755859375</ele>
        <time>2026-06-18T10:39:18.000Z</time>
        <extensions>
          <ns3:TrackPointExtension>
            <ns3:atemp>23.0</ns3:atemp>
          </ns3:TrackPointExtension>
        </extensions>
      </trkpt>
      <trkpt lat="42.51521774567663669586181640625" lon="19.772539772093296051025390625">
        <ele>1848.800048828125</ele>
        <time>2026-06-18T10:39:19.000Z</time>
        <extensions>
          <ns3:TrackPointExtension>
            <ns3:atemp>23.0</ns3:atemp>
          </ns3:TrackPointExtension>
        </extensions>
      </trkpt>
      <trkpt lat="42.51521774567663669586181640625" lon="19.772539772093296051025390625">
        <ele>1849</ele>
        <time>2026-06-18T10:39:20.000Z</time>
        <extensions>
          <ns3:TrackPointExtension>
            <ns3:atemp>23.0</ns3:atemp>
          </ns3:TrackPointExtension>
        </extensions>
      </trkpt>
      <trkpt lat="42.51521774567663669586181640625" lon="19.772539772093296051025390625">
        <ele>1849.199951171875</ele>
        <time>2026-06-18T10:39:21.000Z</time>
        <extensions>
          <ns3:TrackPointExtension>
            <ns3:atemp>23.0</ns3:atemp>
          </ns3:TrackPointExtension>
        </extensions>
      </trkpt>
      <trkpt lat="42.51521774567663669586181640625" lon="19.772539772093296051025390625">
        <ele>1849.199951171875</ele>
        <time>2026-06-18T10:39:22.000Z</time>
        <extensions>
          <ns3:TrackPointExtension>
            <ns3:atemp>23.0</ns3:atemp>
          </ns3:TrackPointExtension>
        </extensions>
      </trkpt>
      <trkpt lat="42.51521774567663669586181640625" lon="19.772539772093296051025390625">
        <ele>1849.4000244140625</ele>
        <time>2026-06-18T10:39:23.000Z</time>
        <extensions>
          <ns3:TrackPointExtension>
            <ns3:atemp>23.0</ns3:atemp>
          </ns3:TrackPointExtension>
        </extensions>
      </trkpt>
      <trkpt lat="42.51521774567663669586181640625" lon="19.772539772093296051025390625">
        <ele>1849.4000244140625</ele>
        <time>2026-06-18T10:39:24.000Z</time>
        <extensions>
          <ns3:TrackPointExtension>
            <ns3:atemp>23.0</ns3:atemp>
          </ns3:TrackPointExtension>
        </extensions>
      </trkpt>
      <trkpt lat="42.51521774567663669586181640625" lon="19.772539772093296051025390625">
        <ele>1849.4000244140625</ele>
        <time>2026-06-18T10:39:25.000Z</time>
        <extensions>
          <ns3:TrackPointExtension>
            <ns3:atemp>23.0</ns3:atemp>
          </ns3:TrackPointExtension>
        </extensions>
      </trkpt>
      <trkpt lat="42.51521774567663669586181640625" lon="19.772539772093296051025390625">
        <ele>1849.4000244140625</ele>
        <time>2026-06-18T10:39:26.000Z</time>
        <extensions>
          <ns3:TrackPointExtension>
            <ns3:atemp>23.0</ns3:atemp>
          </ns3:TrackPointExtension>
        </extensions>
      </trkpt>
      <trkpt lat="42.51521774567663669586181640625" lon="19.772539772093296051025390625">
        <ele>1849.199951171875</ele>
        <time>2026-06-18T10:39:27.000Z</time>
        <extensions>
          <ns3:TrackPointExtension>
            <ns3:atemp>23.0</ns3:atemp>
          </ns3:TrackPointExtension>
        </extensions>
      </trkpt>
      <trkpt lat="42.51521774567663669586181640625" lon="19.772539772093296051025390625">
        <ele>1849.199951171875</ele>
        <time>2026-06-18T10:39:28.000Z</time>
        <extensions>
          <ns3:TrackPointExtension>
            <ns3:atemp>23.0</ns3:atemp>
          </ns3:TrackPointExtension>
        </extensions>
      </trkpt>
      <trkpt lat="42.51521774567663669586181640625" lon="19.772539772093296051025390625">
        <ele>1849.199951171875</ele>
        <time>2026-06-18T10:39:29.000Z</time>
        <extensions>
          <ns3:TrackPointExtension>
            <ns3:atemp>23.0</ns3:atemp>
          </ns3:TrackPointExtension>
        </extensions>
      </trkpt>
      <trkpt lat="42.51521774567663669586181640625" lon="19.772539772093296051025390625">
        <ele>1849.199951171875</ele>
        <time>2026-06-18T10:39:30.000Z</time>
        <extensions>
          <ns3:TrackPointExtension>
            <ns3:atemp>23.0</ns3:atemp>
          </ns3:TrackPointExtension>
        </extensions>
      </trkpt>
      <trkpt lat="42.51521774567663669586181640625" lon="19.772539772093296051025390625">
        <ele>1849</ele>
        <time>2026-06-18T10:39:31.000Z</time>
        <extensions>
          <ns3:TrackPointExtension>
            <ns3:atemp>23.0</ns3:atemp>
          </ns3:TrackPointExtension>
        </extensions>
      </trkpt>
      <trkpt lat="42.51521774567663669586181640625" lon="19.772539772093296051025390625">
        <ele>1849</ele>
        <time>2026-06-18T10:39:32.000Z</time>
        <extensions>
          <ns3:TrackPointExtension>
            <ns3:atemp>23.0</ns3:atemp>
          </ns3:TrackPointExtension>
        </extensions>
      </trkpt>
      <trkpt lat="42.51521774567663669586181640625" lon="19.772539772093296051025390625">
        <ele>1849</ele>
        <time>2026-06-18T10:39:33.000Z</time>
        <extensions>
          <ns3:TrackPointExtension>
            <ns3:atemp>23.0</ns3:atemp>
          </ns3:TrackPointExtension>
        </extensions>
      </trkpt>
      <trkpt lat="42.51521774567663669586181640625" lon="19.772539772093296051025390625">
        <ele>1849</ele>
        <time>2026-06-18T10:39:34.000Z</time>
        <extensions>
          <ns3:TrackPointExtension>
            <ns3:atemp>23.0</ns3:atemp>
          </ns3:TrackPointExtension>
        </extensions>
      </trkpt>
      <trkpt lat="42.51521774567663669586181640625" lon="19.772539772093296051025390625">
        <ele>1849</ele>
        <time>2026-06-18T10:39:35.000Z</time>
        <extensions>
          <ns3:TrackPointExtension>
            <ns3:atemp>23.0</ns3:atemp>
          </ns3:TrackPointExtension>
        </extensions>
      </trkpt>
      <trkpt lat="42.51521774567663669586181640625" lon="19.772539772093296051025390625">
        <ele>1849</ele>
        <time>2026-06-18T10:39:36.000Z</time>
        <extensions>
          <ns3:TrackPointExtension>
            <ns3:atemp>23.0</ns3:atemp>
          </ns3:TrackPointExtension>
        </extensions>
      </trkpt>
      <trkpt lat="42.51521774567663669586181640625" lon="19.772539772093296051025390625">
        <ele>1849</ele>
        <time>2026-06-18T10:39:37.000Z</time>
        <extensions>
          <ns3:TrackPointExtension>
            <ns3:atemp>23.0</ns3:atemp>
          </ns3:TrackPointExtension>
        </extensions>
      </trkpt>
      <trkpt lat="42.51521774567663669586181640625" lon="19.772539772093296051025390625">
        <ele>1849</ele>
        <time>2026-06-18T10:39:38.000Z</time>
        <extensions>
          <ns3:TrackPointExtension>
            <ns3:atemp>23.0</ns3:atemp>
          </ns3:TrackPointExtension>
        </extensions>
      </trkpt>
      <trkpt lat="42.51521774567663669586181640625" lon="19.772539772093296051025390625">
        <ele>1849</ele>
        <time>2026-06-18T10:39:39.000Z</time>
        <extensions>
          <ns3:TrackPointExtension>
            <ns3:atemp>23.0</ns3:atemp>
          </ns3:TrackPointExtension>
        </extensions>
      </trkpt>
      <trkpt lat="42.51521774567663669586181640625" lon="19.772539772093296051025390625">
        <ele>1849</ele>
        <time>2026-06-18T10:39:40.000Z</time>
        <extensions>
          <ns3:TrackPointExtension>
            <ns3:atemp>23.0</ns3:atemp>
          </ns3:TrackPointExtension>
        </extensions>
      </trkpt>
      <trkpt lat="42.51521774567663669586181640625" lon="19.772539772093296051025390625">
        <ele>1849</ele>
        <time>2026-06-18T10:39:41.000Z</time>
        <extensions>
          <ns3:TrackPointExtension>
            <ns3:atemp>23.0</ns3:atemp>
          </ns3:TrackPointExtension>
        </extensions>
      </trkpt>
      <trkpt lat="42.51521774567663669586181640625" lon="19.772539772093296051025390625">
        <ele>1849</ele>
        <time>2026-06-18T10:39:42.000Z</time>
        <extensions>
          <ns3:TrackPointExtension>
            <ns3:atemp>23.0</ns3:atemp>
          </ns3:TrackPointExtension>
        </extensions>
      </trkpt>
      <trkpt lat="42.51521774567663669586181640625" lon="19.772539772093296051025390625">
        <ele>1849</ele>
        <time>2026-06-18T10:39:43.000Z</time>
        <extensions>
          <ns3:TrackPointExtension>
            <ns3:atemp>23.0</ns3:atemp>
          </ns3:TrackPointExtension>
        </extensions>
      </trkpt>
      <trkpt lat="42.51521774567663669586181640625" lon="19.772539772093296051025390625">
        <ele>1849</ele>
        <time>2026-06-18T10:39:44.000Z</time>
        <extensions>
          <ns3:TrackPointExtension>
            <ns3:atemp>23.0</ns3:atemp>
          </ns3:TrackPointExtension>
        </extensions>
      </trkpt>
      <trkpt lat="42.51521774567663669586181640625" lon="19.772539772093296051025390625">
        <ele>1849</ele>
        <time>2026-06-18T10:39:45.000Z</time>
        <extensions>
          <ns3:TrackPointExtension>
            <ns3:atemp>23.0</ns3:atemp>
          </ns3:TrackPointExtension>
        </extensions>
      </trkpt>
      <trkpt lat="42.51521774567663669586181640625" lon="19.772539772093296051025390625">
        <ele>1849</ele>
        <time>2026-06-18T10:39:46.000Z</time>
        <extensions>
          <ns3:TrackPointExtension>
            <ns3:atemp>23.0</ns3:atemp>
          </ns3:TrackPointExtension>
        </extensions>
      </trkpt>
      <trkpt lat="42.51521774567663669586181640625" lon="19.772539772093296051025390625">
        <ele>1849</ele>
        <time>2026-06-18T10:39:47.000Z</time>
        <extensions>
          <ns3:TrackPointExtension>
            <ns3:atemp>23.0</ns3:atemp>
          </ns3:TrackPointExtension>
        </extensions>
      </trkpt>
      <trkpt lat="42.51521774567663669586181640625" lon="19.772539772093296051025390625">
        <ele>1849</ele>
        <time>2026-06-18T10:39:48.000Z</time>
        <extensions>
          <ns3:TrackPointExtension>
            <ns3:atemp>23.0</ns3:atemp>
          </ns3:TrackPointExtension>
        </extensions>
      </trkpt>
      <trkpt lat="42.51521774567663669586181640625" lon="19.772539772093296051025390625">
        <ele>1849</ele>
        <time>2026-06-18T10:39:49.000Z</time>
        <extensions>
          <ns3:TrackPointExtension>
            <ns3:atemp>23.0</ns3:atemp>
          </ns3:TrackPointExtension>
        </extensions>
      </trkpt>
      <trkpt lat="42.51521774567663669586181640625" lon="19.772539772093296051025390625">
        <ele>1849</ele>
        <time>2026-06-18T10:39:50.000Z</time>
        <extensions>
          <ns3:TrackPointExtension>
            <ns3:atemp>23.0</ns3:atemp>
          </ns3:TrackPointExtension>
        </extensions>
      </trkpt>
      <trkpt lat="42.51521774567663669586181640625" lon="19.772539772093296051025390625">
        <ele>1849</ele>
        <time>2026-06-18T10:39:51.000Z</time>
        <extensions>
          <ns3:TrackPointExtension>
            <ns3:atemp>23.0</ns3:atemp>
          </ns3:TrackPointExtension>
        </extensions>
      </trkpt>
      <trkpt lat="42.51521774567663669586181640625" lon="19.772539772093296051025390625">
        <ele>1849</ele>
        <time>2026-06-18T10:39:52.000Z</time>
        <extensions>
          <ns3:TrackPointExtension>
            <ns3:atemp>23.0</ns3:atemp>
          </ns3:TrackPointExtension>
        </extensions>
      </trkpt>
      <trkpt lat="42.51521774567663669586181640625" lon="19.772539772093296051025390625">
        <ele>1849</ele>
        <time>2026-06-18T10:39:53.000Z</time>
        <extensions>
          <ns3:TrackPointExtension>
            <ns3:atemp>23.0</ns3:atemp>
          </ns3:TrackPointExtension>
        </extensions>
      </trkpt>
      <trkpt lat="42.51521774567663669586181640625" lon="19.772539772093296051025390625">
        <ele>1849</ele>
        <time>2026-06-18T10:39:54.000Z</time>
        <extensions>
          <ns3:TrackPointExtension>
            <ns3:atemp>23.0</ns3:atemp>
          </ns3:TrackPointExtension>
        </extensions>
      </trkpt>
      <trkpt lat="42.51521774567663669586181640625" lon="19.772539772093296051025390625">
        <ele>1849</ele>
        <time>2026-06-18T10:39:55.000Z</time>
        <extensions>
          <ns3:TrackPointExtension>
            <ns3:atemp>23.0</ns3:atemp>
          </ns3:TrackPointExtension>
        </extensions>
      </trkpt>
      <trkpt lat="42.51521774567663669586181640625" lon="19.772539772093296051025390625">
        <ele>1849</ele>
        <time>2026-06-18T10:39:56.000Z</time>
        <extensions>
          <ns3:TrackPointExtension>
            <ns3:atemp>23.0</ns3:atemp>
          </ns3:TrackPointExtension>
        </extensions>
      </trkpt>
      <trkpt lat="42.51521774567663669586181640625" lon="19.772539772093296051025390625">
        <ele>1849</ele>
        <time>2026-06-18T10:39:57.000Z</time>
        <extensions>
          <ns3:TrackPointExtension>
            <ns3:atemp>23.0</ns3:atemp>
          </ns3:TrackPointExtension>
        </extensions>
      </trkpt>
      <trkpt lat="42.51521774567663669586181640625" lon="19.772539772093296051025390625">
        <ele>1849</ele>
        <time>2026-06-18T10:39:58.000Z</time>
        <extensions>
          <ns3:TrackPointExtension>
            <ns3:atemp>23.0</ns3:atemp>
          </ns3:TrackPointExtension>
        </extensions>
      </trkpt>
      <trkpt lat="42.5152198411524295806884765625" lon="19.7725375927984714508056640625">
        <ele>1849</ele>
        <time>2026-06-18T10:39:59.000Z</time>
        <extensions>
          <ns3:TrackPointExtension>
            <ns3:atemp>23.0</ns3:atemp>
          </ns3:TrackPointExtension>
        </extensions>
      </trkpt>
      <trkpt lat="42.51522772014141082763671875" lon="19.7725298814475536346435546875">
        <ele>1849</ele>
        <time>2026-06-18T10:40:00.000Z</time>
        <extensions>
          <ns3:TrackPointExtension>
            <ns3:atemp>23.0</ns3:atemp>
          </ns3:TrackPointExtension>
        </extensions>
      </trkpt>
      <trkpt lat="42.51521774567663669586181640625" lon="19.772539772093296051025390625">
        <ele>1849</ele>
        <time>2026-06-18T10:40:01.000Z</time>
        <extensions>
          <ns3:TrackPointExtension>
            <ns3:atemp>23.0</ns3:atemp>
          </ns3:TrackPointExtension>
        </extensions>
      </trkpt>
      <trkpt lat="42.51521774567663669586181640625" lon="19.772539772093296051025390625">
        <ele>1849</ele>
        <time>2026-06-18T10:40:02.000Z</time>
        <extensions>
          <ns3:TrackPointExtension>
            <ns3:atemp>23.0</ns3:atemp>
          </ns3:TrackPointExtension>
        </extensions>
      </trkpt>
      <trkpt lat="42.51521774567663669586181640625" lon="19.772539772093296051025390625">
        <ele>1849</ele>
        <time>2026-06-18T10:40:03.000Z</time>
        <extensions>
          <ns3:TrackPointExtension>
            <ns3:atemp>23.0</ns3:atemp>
          </ns3:TrackPointExtension>
        </extensions>
      </trkpt>
      <trkpt lat="42.51521774567663669586181640625" lon="19.772539772093296051025390625">
        <ele>1849</ele>
        <time>2026-06-18T10:40:04.000Z</time>
        <extensions>
          <ns3:TrackPointExtension>
            <ns3:atemp>23.0</ns3:atemp>
          </ns3:TrackPointExtension>
        </extensions>
      </trkpt>
      <trkpt lat="42.51521774567663669586181640625" lon="19.772539772093296051025390625">
        <ele>1849</ele>
        <time>2026-06-18T10:40:05.000Z</time>
        <extensions>
          <ns3:TrackPointExtension>
            <ns3:atemp>23.0</ns3:atemp>
          </ns3:TrackPointExtension>
        </extensions>
      </trkpt>
      <trkpt lat="42.51521774567663669586181640625" lon="19.772539772093296051025390625">
        <ele>1849</ele>
        <time>2026-06-18T10:40:06.000Z</time>
        <extensions>
          <ns3:TrackPointExtension>
            <ns3:atemp>23.0</ns3:atemp>
          </ns3:TrackPointExtension>
        </extensions>
      </trkpt>
      <trkpt lat="42.51521774567663669586181640625" lon="19.772539772093296051025390625">
        <ele>1849</ele>
        <time>2026-06-18T10:40:07.000Z</time>
        <extensions>
          <ns3:TrackPointExtension>
            <ns3:atemp>23.0</ns3:atemp>
          </ns3:TrackPointExtension>
        </extensions>
      </trkpt>
      <trkpt lat="42.51521774567663669586181640625" lon="19.772539772093296051025390625">
        <ele>1849</ele>
        <time>2026-06-18T10:40:08.000Z</time>
        <extensions>
          <ns3:TrackPointExtension>
            <ns3:atemp>23.0</ns3:atemp>
          </ns3:TrackPointExtension>
        </extensions>
      </trkpt>
      <trkpt lat="42.51521774567663669586181640625" lon="19.772539772093296051025390625">
        <ele>1849</ele>
        <time>2026-06-18T10:40:09.000Z</time>
        <extensions>
          <ns3:TrackPointExtension>
            <ns3:atemp>23.0</ns3:atemp>
          </ns3:TrackPointExtension>
        </extensions>
      </trkpt>
      <trkpt lat="42.51521774567663669586181640625" lon="19.772539772093296051025390625">
        <ele>1849</ele>
        <time>2026-06-18T10:40:10.000Z</time>
        <extensions>
          <ns3:TrackPointExtension>
            <ns3:atemp>23.0</ns3:atemp>
          </ns3:TrackPointExtension>
        </extensions>
      </trkpt>
      <trkpt lat="42.51521774567663669586181640625" lon="19.772539772093296051025390625">
        <ele>1849</ele>
        <time>2026-06-18T10:40:11.000Z</time>
        <extensions>
          <ns3:TrackPointExtension>
            <ns3:atemp>23.0</ns3:atemp>
          </ns3:TrackPointExtension>
        </extensions>
      </trkpt>
      <trkpt lat="42.51521774567663669586181640625" lon="19.772539772093296051025390625">
        <ele>1849</ele>
        <time>2026-06-18T10:40:12.000Z</time>
        <extensions>
          <ns3:TrackPointExtension>
            <ns3:atemp>23.0</ns3:atemp>
          </ns3:TrackPointExtension>
        </extensions>
      </trkpt>
      <trkpt lat="42.51521774567663669586181640625" lon="19.772539772093296051025390625">
        <ele>1849</ele>
        <time>2026-06-18T10:40:13.000Z</time>
        <extensions>
          <ns3:TrackPointExtension>
            <ns3:atemp>23.0</ns3:atemp>
          </ns3:TrackPointExtension>
        </extensions>
      </trkpt>
      <trkpt lat="42.51521774567663669586181640625" lon="19.772539772093296051025390625">
        <ele>1849</ele>
        <time>2026-06-18T10:40:14.000Z</time>
        <extensions>
          <ns3:TrackPointExtension>
            <ns3:atemp>23.0</ns3:atemp>
          </ns3:TrackPointExtension>
        </extensions>
      </trkpt>
      <trkpt lat="42.51521774567663669586181640625" lon="19.772539772093296051025390625">
        <ele>1849</ele>
        <time>2026-06-18T10:40:15.000Z</time>
        <extensions>
          <ns3:TrackPointExtension>
            <ns3:atemp>23.0</ns3:atemp>
          </ns3:TrackPointExtension>
        </extensions>
      </trkpt>
      <trkpt lat="42.51521774567663669586181640625" lon="19.772539772093296051025390625">
        <ele>1849</ele>
        <time>2026-06-18T10:40:16.000Z</time>
        <extensions>
          <ns3:TrackPointExtension>
            <ns3:atemp>23.0</ns3:atemp>
          </ns3:TrackPointExtension>
        </extensions>
      </trkpt>
      <trkpt lat="42.51521774567663669586181640625" lon="19.772539772093296051025390625">
        <ele>1849</ele>
        <time>2026-06-18T10:40:17.000Z</time>
        <extensions>
          <ns3:TrackPointExtension>
            <ns3:atemp>23.0</ns3:atemp>
          </ns3:TrackPointExtension>
        </extensions>
      </trkpt>
      <trkpt lat="42.515228055417537689208984375" lon="19.77252803742885589599609375">
        <ele>1849</ele>
        <time>2026-06-18T10:40:18.000Z</time>
        <extensions>
          <ns3:TrackPointExtension>
            <ns3:atemp>23.0</ns3:atemp>
          </ns3:TrackPointExtension>
        </extensions>
      </trkpt>
      <trkpt lat="42.51523937098681926727294921875" lon="19.77251102216541767120361328125">
        <ele>1849</ele>
        <time>2026-06-18T10:40:19.000Z</time>
        <extensions>
          <ns3:TrackPointExtension>
            <ns3:atemp>23.0</ns3:atemp>
          </ns3:TrackPointExtension>
        </extensions>
      </trkpt>
      <trkpt lat="42.5152553804218769073486328125" lon="19.7724946774542331695556640625">
        <ele>1849</ele>
        <time>2026-06-18T10:40:20.000Z</time>
        <extensions>
          <ns3:TrackPointExtension>
            <ns3:atemp>23.0</ns3:atemp>
          </ns3:TrackPointExtension>
        </extensions>
      </trkpt>
      <trkpt lat="42.515266947448253631591796875" lon="19.77247841656208038330078125">
        <ele>1849.5999755859375</ele>
        <time>2026-06-18T10:40:21.000Z</time>
        <extensions>
          <ns3:TrackPointExtension>
            <ns3:atemp>23.0</ns3:atemp>
          </ns3:TrackPointExtension>
        </extensions>
      </trkpt>
      <trkpt lat="42.51527130603790283203125" lon="19.77246508933603763580322265625">
        <ele>1849.4000244140625</ele>
        <time>2026-06-18T10:40:22.000Z</time>
        <extensions>
          <ns3:TrackPointExtension>
            <ns3:atemp>23.0</ns3:atemp>
          </ns3:TrackPointExtension>
        </extensions>
      </trkpt>
      <trkpt lat="42.51528228633105754852294921875" lon="19.77244748733937740325927734375">
        <ele>1849.199951171875</ele>
        <time>2026-06-18T10:40:23.000Z</time>
        <extensions>
          <ns3:TrackPointExtension>
            <ns3:atemp>23.0</ns3:atemp>
          </ns3:TrackPointExtension>
        </extensions>
      </trkpt>
      <trkpt lat="42.515298463404178619384765625" lon="19.77242971770465373992919921875">
        <ele>1848.5999755859375</ele>
        <time>2026-06-18T10:40:24.000Z</time>
        <extensions>
          <ns3:TrackPointExtension>
            <ns3:atemp>23.0</ns3:atemp>
          </ns3:TrackPointExtension>
        </extensions>
      </trkpt>
      <trkpt lat="42.515318579971790313720703125" lon="19.77240708656609058380126953125">
        <ele>1848</ele>
        <time>2026-06-18T10:40:25.000Z</time>
        <extensions>
          <ns3:TrackPointExtension>
            <ns3:atemp>23.0</ns3:atemp>
          </ns3:TrackPointExtension>
        </extensions>
      </trkpt>
      <trkpt lat="42.51533525995910167694091796875" lon="19.77235947735607624053955078125">
        <ele>1847.4000244140625</ele>
        <time>2026-06-18T10:40:26.000Z</time>
        <extensions>
          <ns3:TrackPointExtension>
            <ns3:atemp>23.0</ns3:atemp>
          </ns3:TrackPointExtension>
        </extensions>
      </trkpt>
      <trkpt lat="42.5153475813567638397216796875" lon="19.772305749356746673583984375">
        <ele>1846.5999755859375</ele>
        <time>2026-06-18T10:40:27.000Z</time>
        <extensions>
          <ns3:TrackPointExtension>
            <ns3:atemp>23.0</ns3:atemp>
          </ns3:TrackPointExtension>
        </extensions>
      </trkpt>
      <trkpt lat="42.515353448688983917236328125" lon="19.77224766276776790618896484375">
        <ele>1845.800048828125</ele>
        <time>2026-06-18T10:40:28.000Z</time>
        <extensions>
          <ns3:TrackPointExtension>
            <ns3:atemp>23.0</ns3:atemp>
          </ns3:TrackPointExtension>
        </extensions>
      </trkpt>
      <trkpt lat="42.5153459049761295318603515625" lon="19.77219670079648494720458984375">
        <ele>1844.5999755859375</ele>
        <time>2026-06-18T10:40:29.000Z</time>
        <extensions>
          <ns3:TrackPointExtension>
            <ns3:atemp>23.0</ns3:atemp>
          </ns3:TrackPointExtension>
        </extensions>
      </trkpt>
      <trkpt lat="42.515352778136730194091796875" lon="19.7721379436552524566650390625">
        <ele>1843.5999755859375</ele>
        <time>2026-06-18T10:40:30.000Z</time>
        <extensions>
          <ns3:TrackPointExtension>
            <ns3:atemp>23.0</ns3:atemp>
          </ns3:TrackPointExtension>
        </extensions>
      </trkpt>
      <trkpt lat="42.5153559632599353790283203125" lon="19.77206803858280181884765625">
        <ele>1842.800048828125</ele>
        <time>2026-06-18T10:40:31.000Z</time>
        <extensions>
          <ns3:TrackPointExtension>
            <ns3:atemp>23.0</ns3:atemp>
          </ns3:TrackPointExtension>
        </extensions>
      </trkpt>
      <trkpt lat="42.51535856164991855621337890625" lon="19.77199385873973369598388671875">
        <ele>1842</ele>
        <time>2026-06-18T10:40:32.000Z</time>
        <extensions>
          <ns3:TrackPointExtension>
            <ns3:atemp>23.0</ns3:atemp>
          </ns3:TrackPointExtension>
        </extensions>
      </trkpt>
      <trkpt lat="42.5153646804392337799072265625" lon="19.7719106264412403106689453125">
        <ele>1841.199951171875</ele>
        <time>2026-06-18T10:40:33.000Z</time>
        <extensions>
          <ns3:TrackPointExtension>
            <ns3:atemp>23.0</ns3:atemp>
          </ns3:TrackPointExtension>
        </extensions>
      </trkpt>
      <trkpt lat="42.51536375842988491058349609375" lon="19.77181448601186275482177734375">
        <ele>1840</ele>
        <time>2026-06-18T10:40:34.000Z</time>
        <extensions>
          <ns3:TrackPointExtension>
            <ns3:atemp>23.0</ns3:atemp>
          </ns3:TrackPointExtension>
        </extensions>
      </trkpt>
      <trkpt lat="42.51535101793706417083740234375" lon="19.77171909995377063751220703125">
        <ele>1839.199951171875</ele>
        <time>2026-06-18T10:40:35.000Z</time>
        <extensions>
          <ns3:TrackPointExtension>
            <ns3:atemp>23.0</ns3:atemp>
          </ns3:TrackPointExtension>
        </extensions>
      </trkpt>
      <trkpt lat="42.51533458940684795379638671875" lon="19.77163092233240604400634765625">
        <ele>1838.4000244140625</ele>
        <time>2026-06-18T10:40:36.000Z</time>
        <extensions>
          <ns3:TrackPointExtension>
            <ns3:atemp>23.0</ns3:atemp>
          </ns3:TrackPointExtension>
        </extensions>
      </trkpt>
      <trkpt lat="42.51531715504825115203857421875" lon="19.7715451754629611968994140625">
        <ele>1837.800048828125</ele>
        <time>2026-06-18T10:40:37.000Z</time>
        <extensions>
          <ns3:TrackPointExtension>
            <ns3:atemp>23.0</ns3:atemp>
          </ns3:TrackPointExtension>
        </extensions>
      </trkpt>
      <trkpt lat="42.51530039124190807342529296875" lon="19.77145976386964321136474609375">
        <ele>1837.199951171875</ele>
        <time>2026-06-18T10:40:38.000Z</time>
        <extensions>
          <ns3:TrackPointExtension>
            <ns3:atemp>23.0</ns3:atemp>
          </ns3:TrackPointExtension>
        </extensions>
      </trkpt>
      <trkpt lat="42.5152882374823093414306640625" lon="19.771380387246608734130859375">
        <ele>1837</ele>
        <time>2026-06-18T10:40:39.000Z</time>
        <extensions>
          <ns3:TrackPointExtension>
            <ns3:atemp>23.0</ns3:atemp>
          </ns3:TrackPointExtension>
        </extensions>
      </trkpt>
      <trkpt lat="42.51527331769466400146484375" lon="19.77130620740354061126708984375">
        <ele>1836.800048828125</ele>
        <time>2026-06-18T10:40:40.000Z</time>
        <extensions>
          <ns3:TrackPointExtension>
            <ns3:atemp>23.0</ns3:atemp>
          </ns3:TrackPointExtension>
        </extensions>
      </trkpt>
      <trkpt lat="42.515268623828887939453125" lon="19.77124250493943691253662109375">
        <ele>1836.800048828125</ele>
        <time>2026-06-18T10:40:41.000Z</time>
        <extensions>
          <ns3:TrackPointExtension>
            <ns3:atemp>23.0</ns3:atemp>
          </ns3:TrackPointExtension>
        </extensions>
      </trkpt>
      <trkpt lat="42.5152714736759662628173828125" lon="19.7711887769401073455810546875">
        <ele>1837</ele>
        <time>2026-06-18T10:40:42.000Z</time>
        <extensions>
          <ns3:TrackPointExtension>
            <ns3:atemp>23.0</ns3:atemp>
          </ns3:TrackPointExtension>
        </extensions>
      </trkpt>
      <trkpt lat="42.51526124775409698486328125" lon="19.77115365676581859588623046875">
        <ele>1837.199951171875</ele>
        <time>2026-06-18T10:40:43.000Z</time>
        <extensions>
          <ns3:TrackPointExtension>
            <ns3:atemp>23.0</ns3:atemp>
          </ns3:TrackPointExtension>
        </extensions>
      </trkpt>
      <trkpt lat="42.515247501432895660400390625" lon="19.771132282912731170654296875">
        <ele>1837.4000244140625</ele>
        <time>2026-06-18T10:40:44.000Z</time>
        <extensions>
          <ns3:TrackPointExtension>
            <ns3:atemp>23.0</ns3:atemp>
          </ns3:TrackPointExtension>
        </extensions>
      </trkpt>
      <trkpt lat="42.51524892635643482208251953125" lon="19.7711156867444515228271484375">
        <ele>1837.800048828125</ele>
        <time>2026-06-18T10:40:45.000Z</time>
        <extensions>
          <ns3:TrackPointExtension>
            <ns3:atemp>23.0</ns3:atemp>
          </ns3:TrackPointExtension>
        </extensions>
      </trkpt>
      <trkpt lat="42.51524942927062511444091796875" lon="19.771100766956806182861328125">
        <ele>1838</ele>
        <time>2026-06-18T10:40:46.000Z</time>
        <extensions>
          <ns3:TrackPointExtension>
            <ns3:atemp>23.0</ns3:atemp>
          </ns3:TrackPointExtension>
        </extensions>
      </trkpt>
      <trkpt lat="42.5152446515858173370361328125" lon="19.77108660154044628143310546875">
        <ele>1838</ele>
        <time>2026-06-18T10:40:47.000Z</time>
        <extensions>
          <ns3:TrackPointExtension>
            <ns3:atemp>23.0</ns3:atemp>
          </ns3:TrackPointExtension>
        </extensions>
      </trkpt>
      <trkpt lat="42.5152386166155338287353515625" lon="19.7710858471691608428955078125">
        <ele>1838.199951171875</ele>
        <time>2026-06-18T10:40:48.000Z</time>
        <extensions>
          <ns3:TrackPointExtension>
            <ns3:atemp>23.0</ns3:atemp>
          </ns3:TrackPointExtension>
        </extensions>
      </trkpt>
      <trkpt lat="42.515236772596836090087890625" lon="19.77108676917850971221923828125">
        <ele>1838.199951171875</ele>
        <time>2026-06-18T10:40:49.000Z</time>
        <extensions>
          <ns3:TrackPointExtension>
            <ns3:atemp>23.0</ns3:atemp>
          </ns3:TrackPointExtension>
        </extensions>
      </trkpt>
      <trkpt lat="42.515236772596836090087890625" lon="19.77108676917850971221923828125">
        <ele>1838.199951171875</ele>
        <time>2026-06-18T10:40:50.000Z</time>
        <extensions>
          <ns3:TrackPointExtension>
            <ns3:atemp>23.0</ns3:atemp>
          </ns3:TrackPointExtension>
        </extensions>
      </trkpt>
      <trkpt lat="42.515236772596836090087890625" lon="19.77108676917850971221923828125">
        <ele>1838</ele>
        <time>2026-06-18T10:40:51.000Z</time>
        <extensions>
          <ns3:TrackPointExtension>
            <ns3:atemp>23.0</ns3:atemp>
          </ns3:TrackPointExtension>
        </extensions>
      </trkpt>
      <trkpt lat="42.515236772596836090087890625" lon="19.77108676917850971221923828125">
        <ele>1838</ele>
        <time>2026-06-18T10:40:52.000Z</time>
        <extensions>
          <ns3:TrackPointExtension>
            <ns3:atemp>23.0</ns3:atemp>
          </ns3:TrackPointExtension>
        </extensions>
      </trkpt>
      <trkpt lat="42.515236772596836090087890625" lon="19.77108676917850971221923828125">
        <ele>1838</ele>
        <time>2026-06-18T10:40:53.000Z</time>
        <extensions>
          <ns3:TrackPointExtension>
            <ns3:atemp>23.0</ns3:atemp>
          </ns3:TrackPointExtension>
        </extensions>
      </trkpt>
      <trkpt lat="42.515236772596836090087890625" lon="19.77108676917850971221923828125">
        <ele>1837.800048828125</ele>
        <time>2026-06-18T10:40:54.000Z</time>
        <extensions>
          <ns3:TrackPointExtension>
            <ns3:atemp>23.0</ns3:atemp>
          </ns3:TrackPointExtension>
        </extensions>
      </trkpt>
      <trkpt lat="42.515236772596836090087890625" lon="19.77108676917850971221923828125">
        <ele>1837.800048828125</ele>
        <time>2026-06-18T10:40:55.000Z</time>
        <extensions>
          <ns3:TrackPointExtension>
            <ns3:atemp>23.0</ns3:atemp>
          </ns3:TrackPointExtension>
        </extensions>
      </trkpt>
      <trkpt lat="42.515236772596836090087890625" lon="19.77108676917850971221923828125">
        <ele>1837.800048828125</ele>
        <time>2026-06-18T10:40:56.000Z</time>
        <extensions>
          <ns3:TrackPointExtension>
            <ns3:atemp>23.0</ns3:atemp>
          </ns3:TrackPointExtension>
        </extensions>
      </trkpt>
      <trkpt lat="42.515236772596836090087890625" lon="19.77108676917850971221923828125">
        <ele>1837.5999755859375</ele>
        <time>2026-06-18T10:40:57.000Z</time>
        <extensions>
          <ns3:TrackPointExtension>
            <ns3:atemp>23.0</ns3:atemp>
          </ns3:TrackPointExtension>
        </extensions>
      </trkpt>
      <trkpt lat="42.515236772596836090087890625" lon="19.77108676917850971221923828125">
        <ele>1837.5999755859375</ele>
        <time>2026-06-18T10:40:58.000Z</time>
        <extensions>
          <ns3:TrackPointExtension>
            <ns3:atemp>23.0</ns3:atemp>
          </ns3:TrackPointExtension>
        </extensions>
      </trkpt>
      <trkpt lat="42.515236772596836090087890625" lon="19.77108676917850971221923828125">
        <ele>1837.4000244140625</ele>
        <time>2026-06-18T10:40:59.000Z</time>
        <extensions>
          <ns3:TrackPointExtension>
            <ns3:atemp>23.0</ns3:atemp>
          </ns3:TrackPointExtension>
        </extensions>
      </trkpt>
      <trkpt lat="42.515236772596836090087890625" lon="19.77108676917850971221923828125">
        <ele>1837.4000244140625</ele>
        <time>2026-06-18T10:41:00.000Z</time>
        <extensions>
          <ns3:TrackPointExtension>
            <ns3:atemp>23.0</ns3:atemp>
          </ns3:TrackPointExtension>
        </extensions>
      </trkpt>
      <trkpt lat="42.515236772596836090087890625" lon="19.77108676917850971221923828125">
        <ele>1837.4000244140625</ele>
        <time>2026-06-18T10:41:01.000Z</time>
        <extensions>
          <ns3:TrackPointExtension>
            <ns3:atemp>23.0</ns3:atemp>
          </ns3:TrackPointExtension>
        </extensions>
      </trkpt>
      <trkpt lat="42.515236772596836090087890625" lon="19.77108676917850971221923828125">
        <ele>1837.199951171875</ele>
        <time>2026-06-18T10:41:02.000Z</time>
        <extensions>
          <ns3:TrackPointExtension>
            <ns3:atemp>23.0</ns3:atemp>
          </ns3:TrackPointExtension>
        </extensions>
      </trkpt>
      <trkpt lat="42.515236772596836090087890625" lon="19.77108676917850971221923828125">
        <ele>1837.199951171875</ele>
        <time>2026-06-18T10:41:03.000Z</time>
        <extensions>
          <ns3:TrackPointExtension>
            <ns3:atemp>23.0</ns3:atemp>
          </ns3:TrackPointExtension>
        </extensions>
      </trkpt>
      <trkpt lat="42.515236772596836090087890625" lon="19.77108676917850971221923828125">
        <ele>1837.199951171875</ele>
        <time>2026-06-18T10:41:04.000Z</time>
        <extensions>
          <ns3:TrackPointExtension>
            <ns3:atemp>23.0</ns3:atemp>
          </ns3:TrackPointExtension>
        </extensions>
      </trkpt>
      <trkpt lat="42.515236772596836090087890625" lon="19.77108676917850971221923828125">
        <ele>1837.199951171875</ele>
        <time>2026-06-18T10:41:05.000Z</time>
        <extensions>
          <ns3:TrackPointExtension>
            <ns3:atemp>23.0</ns3:atemp>
          </ns3:TrackPointExtension>
        </extensions>
      </trkpt>
      <trkpt lat="42.515236772596836090087890625" lon="19.77108676917850971221923828125">
        <ele>1837.199951171875</ele>
        <time>2026-06-18T10:41:06.000Z</time>
        <extensions>
          <ns3:TrackPointExtension>
            <ns3:atemp>23.0</ns3:atemp>
          </ns3:TrackPointExtension>
        </extensions>
      </trkpt>
      <trkpt lat="42.515236772596836090087890625" lon="19.77108676917850971221923828125">
        <ele>1837.199951171875</ele>
        <time>2026-06-18T10:41:07.000Z</time>
        <extensions>
          <ns3:TrackPointExtension>
            <ns3:atemp>23.0</ns3:atemp>
          </ns3:TrackPointExtension>
        </extensions>
      </trkpt>
      <trkpt lat="42.515236772596836090087890625" lon="19.77108676917850971221923828125">
        <ele>1837.199951171875</ele>
        <time>2026-06-18T10:41:08.000Z</time>
        <extensions>
          <ns3:TrackPointExtension>
            <ns3:atemp>23.0</ns3:atemp>
          </ns3:TrackPointExtension>
        </extensions>
      </trkpt>
      <trkpt lat="42.515236772596836090087890625" lon="19.77108676917850971221923828125">
        <ele>1837.199951171875</ele>
        <time>2026-06-18T10:41:09.000Z</time>
        <extensions>
          <ns3:TrackPointExtension>
            <ns3:atemp>23.0</ns3:atemp>
          </ns3:TrackPointExtension>
        </extensions>
      </trkpt>
      <trkpt lat="42.515236772596836090087890625" lon="19.77108676917850971221923828125">
        <ele>1837.4000244140625</ele>
        <time>2026-06-18T10:41:10.000Z</time>
        <extensions>
          <ns3:TrackPointExtension>
            <ns3:atemp>23.0</ns3:atemp>
          </ns3:TrackPointExtension>
        </extensions>
      </trkpt>
      <trkpt lat="42.515236772596836090087890625" lon="19.77108676917850971221923828125">
        <ele>1837.4000244140625</ele>
        <time>2026-06-18T10:41:11.000Z</time>
        <extensions>
          <ns3:TrackPointExtension>
            <ns3:atemp>23.0</ns3:atemp>
          </ns3:TrackPointExtension>
        </extensions>
      </trkpt>
      <trkpt lat="42.515236772596836090087890625" lon="19.77108676917850971221923828125">
        <ele>1837.4000244140625</ele>
        <time>2026-06-18T10:41:12.000Z</time>
        <extensions>
          <ns3:TrackPointExtension>
            <ns3:atemp>23.0</ns3:atemp>
          </ns3:TrackPointExtension>
        </extensions>
      </trkpt>
      <trkpt lat="42.515236772596836090087890625" lon="19.77108676917850971221923828125">
        <ele>1837.4000244140625</ele>
        <time>2026-06-18T10:41:13.000Z</time>
        <extensions>
          <ns3:TrackPointExtension>
            <ns3:atemp>23.0</ns3:atemp>
          </ns3:TrackPointExtension>
        </extensions>
      </trkpt>
      <trkpt lat="42.515236772596836090087890625" lon="19.77108676917850971221923828125">
        <ele>1837.4000244140625</ele>
        <time>2026-06-18T10:41:14.000Z</time>
        <extensions>
          <ns3:TrackPointExtension>
            <ns3:atemp>23.0</ns3:atemp>
          </ns3:TrackPointExtension>
        </extensions>
      </trkpt>
      <trkpt lat="42.515236772596836090087890625" lon="19.77108676917850971221923828125">
        <ele>1837.4000244140625</ele>
        <time>2026-06-18T10:41:15.000Z</time>
        <extensions>
          <ns3:TrackPointExtension>
            <ns3:atemp>23.0</ns3:atemp>
          </ns3:TrackPointExtension>
        </extensions>
      </trkpt>
      <trkpt lat="42.515236772596836090087890625" lon="19.77108676917850971221923828125">
        <ele>1837.4000244140625</ele>
        <time>2026-06-18T10:41:16.000Z</time>
        <extensions>
          <ns3:TrackPointExtension>
            <ns3:atemp>23.0</ns3:atemp>
          </ns3:TrackPointExtension>
        </extensions>
      </trkpt>
      <trkpt lat="42.515236772596836090087890625" lon="19.77108676917850971221923828125">
        <ele>1837.4000244140625</ele>
        <time>2026-06-18T10:41:17.000Z</time>
        <extensions>
          <ns3:TrackPointExtension>
            <ns3:atemp>23.0</ns3:atemp>
          </ns3:TrackPointExtension>
        </extensions>
      </trkpt>
      <trkpt lat="42.515236772596836090087890625" lon="19.77108676917850971221923828125">
        <ele>1837.4000244140625</ele>
        <time>2026-06-18T10:41:18.000Z</time>
        <extensions>
          <ns3:TrackPointExtension>
            <ns3:atemp>23.0</ns3:atemp>
          </ns3:TrackPointExtension>
        </extensions>
      </trkpt>
      <trkpt lat="42.515236772596836090087890625" lon="19.77108676917850971221923828125">
        <ele>1837.5999755859375</ele>
        <time>2026-06-18T10:41:19.000Z</time>
        <extensions>
          <ns3:TrackPointExtension>
            <ns3:atemp>23.0</ns3:atemp>
          </ns3:TrackPointExtension>
        </extensions>
      </trkpt>
      <trkpt lat="42.515236772596836090087890625" lon="19.77108676917850971221923828125">
        <ele>1837.5999755859375</ele>
        <time>2026-06-18T10:41:20.000Z</time>
        <extensions>
          <ns3:TrackPointExtension>
            <ns3:atemp>23.0</ns3:atemp>
          </ns3:TrackPointExtension>
        </extensions>
      </trkpt>
      <trkpt lat="42.515236772596836090087890625" lon="19.77108676917850971221923828125">
        <ele>1837.5999755859375</ele>
        <time>2026-06-18T10:41:21.000Z</time>
        <extensions>
          <ns3:TrackPointExtension>
            <ns3:atemp>23.0</ns3:atemp>
          </ns3:TrackPointExtension>
        </extensions>
      </trkpt>
      <trkpt lat="42.515236772596836090087890625" lon="19.77108676917850971221923828125">
        <ele>1837.5999755859375</ele>
        <time>2026-06-18T10:41:22.000Z</time>
        <extensions>
          <ns3:TrackPointExtension>
            <ns3:atemp>24.0</ns3:atemp>
          </ns3:TrackPointExtension>
        </extensions>
      </trkpt>
      <trkpt lat="42.515236772596836090087890625" lon="19.77108676917850971221923828125">
        <ele>1837.4000244140625</ele>
        <time>2026-06-18T10:41:23.000Z</time>
        <extensions>
          <ns3:TrackPointExtension>
            <ns3:atemp>24.0</ns3:atemp>
          </ns3:TrackPointExtension>
        </extensions>
      </trkpt>
      <trkpt lat="42.515236772596836090087890625" lon="19.77108676917850971221923828125">
        <ele>1837.4000244140625</ele>
        <time>2026-06-18T10:41:24.000Z</time>
        <extensions>
          <ns3:TrackPointExtension>
            <ns3:atemp>24.0</ns3:atemp>
          </ns3:TrackPointExtension>
        </extensions>
      </trkpt>
      <trkpt lat="42.515236772596836090087890625" lon="19.77108676917850971221923828125">
        <ele>1837.4000244140625</ele>
        <time>2026-06-18T10:41:25.000Z</time>
        <extensions>
          <ns3:TrackPointExtension>
            <ns3:atemp>24.0</ns3:atemp>
          </ns3:TrackPointExtension>
        </extensions>
      </trkpt>
      <trkpt lat="42.515236772596836090087890625" lon="19.77108676917850971221923828125">
        <ele>1837.199951171875</ele>
        <time>2026-06-18T10:41:26.000Z</time>
        <extensions>
          <ns3:TrackPointExtension>
            <ns3:atemp>24.0</ns3:atemp>
          </ns3:TrackPointExtension>
        </extensions>
      </trkpt>
      <trkpt lat="42.515236772596836090087890625" lon="19.77108676917850971221923828125">
        <ele>1837.199951171875</ele>
        <time>2026-06-18T10:41:27.000Z</time>
        <extensions>
          <ns3:TrackPointExtension>
            <ns3:atemp>24.0</ns3:atemp>
          </ns3:TrackPointExtension>
        </extensions>
      </trkpt>
      <trkpt lat="42.515236772596836090087890625" lon="19.77108676917850971221923828125">
        <ele>1837.199951171875</ele>
        <time>2026-06-18T10:41:28.000Z</time>
        <extensions>
          <ns3:TrackPointExtension>
            <ns3:atemp>24.0</ns3:atemp>
          </ns3:TrackPointExtension>
        </extensions>
      </trkpt>
      <trkpt lat="42.515236772596836090087890625" lon="19.77108676917850971221923828125">
        <ele>1837.4000244140625</ele>
        <time>2026-06-18T10:41:29.000Z</time>
        <extensions>
          <ns3:TrackPointExtension>
            <ns3:atemp>24.0</ns3:atemp>
          </ns3:TrackPointExtension>
        </extensions>
      </trkpt>
      <trkpt lat="42.515236772596836090087890625" lon="19.77108676917850971221923828125">
        <ele>1837.4000244140625</ele>
        <time>2026-06-18T10:41:30.000Z</time>
        <extensions>
          <ns3:TrackPointExtension>
            <ns3:atemp>24.0</ns3:atemp>
          </ns3:TrackPointExtension>
        </extensions>
      </trkpt>
      <trkpt lat="42.515236772596836090087890625" lon="19.77108676917850971221923828125">
        <ele>1837.4000244140625</ele>
        <time>2026-06-18T10:41:31.000Z</time>
        <extensions>
          <ns3:TrackPointExtension>
            <ns3:atemp>24.0</ns3:atemp>
          </ns3:TrackPointExtension>
        </extensions>
      </trkpt>
      <trkpt lat="42.515236772596836090087890625" lon="19.77108676917850971221923828125">
        <ele>1837.5999755859375</ele>
        <time>2026-06-18T10:41:32.000Z</time>
        <extensions>
          <ns3:TrackPointExtension>
            <ns3:atemp>24.0</ns3:atemp>
          </ns3:TrackPointExtension>
        </extensions>
      </trkpt>
      <trkpt lat="42.515236772596836090087890625" lon="19.77108676917850971221923828125">
        <ele>1837.4000244140625</ele>
        <time>2026-06-18T10:41:33.000Z</time>
        <extensions>
          <ns3:TrackPointExtension>
            <ns3:atemp>24.0</ns3:atemp>
          </ns3:TrackPointExtension>
        </extensions>
      </trkpt>
      <trkpt lat="42.515236772596836090087890625" lon="19.77108676917850971221923828125">
        <ele>1837.4000244140625</ele>
        <time>2026-06-18T10:41:34.000Z</time>
        <extensions>
          <ns3:TrackPointExtension>
            <ns3:atemp>24.0</ns3:atemp>
          </ns3:TrackPointExtension>
        </extensions>
      </trkpt>
      <trkpt lat="42.515236772596836090087890625" lon="19.77108676917850971221923828125">
        <ele>1837.4000244140625</ele>
        <time>2026-06-18T10:41:35.000Z</time>
        <extensions>
          <ns3:TrackPointExtension>
            <ns3:atemp>24.0</ns3:atemp>
          </ns3:TrackPointExtension>
        </extensions>
      </trkpt>
      <trkpt lat="42.515236772596836090087890625" lon="19.77108676917850971221923828125">
        <ele>1837.4000244140625</ele>
        <time>2026-06-18T10:41:36.000Z</time>
        <extensions>
          <ns3:TrackPointExtension>
            <ns3:atemp>24.0</ns3:atemp>
          </ns3:TrackPointExtension>
        </extensions>
      </trkpt>
      <trkpt lat="42.515236772596836090087890625" lon="19.77108676917850971221923828125">
        <ele>1837.199951171875</ele>
        <time>2026-06-18T10:41:37.000Z</time>
        <extensions>
          <ns3:TrackPointExtension>
            <ns3:atemp>24.0</ns3:atemp>
          </ns3:TrackPointExtension>
        </extensions>
      </trkpt>
      <trkpt lat="42.515236772596836090087890625" lon="19.77108676917850971221923828125">
        <ele>1837.199951171875</ele>
        <time>2026-06-18T10:41:38.000Z</time>
        <extensions>
          <ns3:TrackPointExtension>
            <ns3:atemp>24.0</ns3:atemp>
          </ns3:TrackPointExtension>
        </extensions>
      </trkpt>
      <trkpt lat="42.515236772596836090087890625" lon="19.77108676917850971221923828125">
        <ele>1837.199951171875</ele>
        <time>2026-06-18T10:41:39.000Z</time>
        <extensions>
          <ns3:TrackPointExtension>
            <ns3:atemp>24.0</ns3:atemp>
          </ns3:TrackPointExtension>
        </extensions>
      </trkpt>
      <trkpt lat="42.515236772596836090087890625" lon="19.77108676917850971221923828125">
        <ele>1837.199951171875</ele>
        <time>2026-06-18T10:41:40.000Z</time>
        <extensions>
          <ns3:TrackPointExtension>
            <ns3:atemp>24.0</ns3:atemp>
          </ns3:TrackPointExtension>
        </extensions>
      </trkpt>
      <trkpt lat="42.515236772596836090087890625" lon="19.77108676917850971221923828125">
        <ele>1837.199951171875</ele>
        <time>2026-06-18T10:41:41.000Z</time>
        <extensions>
          <ns3:TrackPointExtension>
            <ns3:atemp>24.0</ns3:atemp>
          </ns3:TrackPointExtension>
        </extensions>
      </trkpt>
      <trkpt lat="42.515236772596836090087890625" lon="19.77108676917850971221923828125">
        <ele>1837.199951171875</ele>
        <time>2026-06-18T10:41:42.000Z</time>
        <extensions>
          <ns3:TrackPointExtension>
            <ns3:atemp>24.0</ns3:atemp>
          </ns3:TrackPointExtension>
        </extensions>
      </trkpt>
      <trkpt lat="42.515236772596836090087890625" lon="19.77108676917850971221923828125">
        <ele>1837.4000244140625</ele>
        <time>2026-06-18T10:41:43.000Z</time>
        <extensions>
          <ns3:TrackPointExtension>
            <ns3:atemp>24.0</ns3:atemp>
          </ns3:TrackPointExtension>
        </extensions>
      </trkpt>
      <trkpt lat="42.515236772596836090087890625" lon="19.77108676917850971221923828125">
        <ele>1837.4000244140625</ele>
        <time>2026-06-18T10:41:44.000Z</time>
        <extensions>
          <ns3:TrackPointExtension>
            <ns3:atemp>24.0</ns3:atemp>
          </ns3:TrackPointExtension>
        </extensions>
      </trkpt>
      <trkpt lat="42.515236772596836090087890625" lon="19.77108676917850971221923828125">
        <ele>1837.5999755859375</ele>
        <time>2026-06-18T10:41:45.000Z</time>
        <extensions>
          <ns3:TrackPointExtension>
            <ns3:atemp>24.0</ns3:atemp>
          </ns3:TrackPointExtension>
        </extensions>
      </trkpt>
      <trkpt lat="42.515236772596836090087890625" lon="19.77108676917850971221923828125">
        <ele>1837.800048828125</ele>
        <time>2026-06-18T10:41:46.000Z</time>
        <extensions>
          <ns3:TrackPointExtension>
            <ns3:atemp>24.0</ns3:atemp>
          </ns3:TrackPointExtension>
        </extensions>
      </trkpt>
      <trkpt lat="42.515236772596836090087890625" lon="19.77108676917850971221923828125">
        <ele>1838</ele>
        <time>2026-06-18T10:41:47.000Z</time>
        <extensions>
          <ns3:TrackPointExtension>
            <ns3:atemp>24.0</ns3:atemp>
          </ns3:TrackPointExtension>
        </extensions>
      </trkpt>
      <trkpt lat="42.515236772596836090087890625" lon="19.77108676917850971221923828125">
        <ele>1838</ele>
        <time>2026-06-18T10:41:48.000Z</time>
        <extensions>
          <ns3:TrackPointExtension>
            <ns3:atemp>24.0</ns3:atemp>
          </ns3:TrackPointExtension>
        </extensions>
      </trkpt>
      <trkpt lat="42.515236772596836090087890625" lon="19.77108676917850971221923828125">
        <ele>1838</ele>
        <time>2026-06-18T10:41:49.000Z</time>
        <extensions>
          <ns3:TrackPointExtension>
            <ns3:atemp>24.0</ns3:atemp>
          </ns3:TrackPointExtension>
        </extensions>
      </trkpt>
      <trkpt lat="42.515236772596836090087890625" lon="19.77108676917850971221923828125">
        <ele>1837.5999755859375</ele>
        <time>2026-06-18T10:41:50.000Z</time>
        <extensions>
          <ns3:TrackPointExtension>
            <ns3:atemp>24.0</ns3:atemp>
          </ns3:TrackPointExtension>
        </extensions>
      </trkpt>
      <trkpt lat="42.515236772596836090087890625" lon="19.77108676917850971221923828125">
        <ele>1837.5999755859375</ele>
        <time>2026-06-18T10:41:51.000Z</time>
        <extensions>
          <ns3:TrackPointExtension>
            <ns3:atemp>24.0</ns3:atemp>
          </ns3:TrackPointExtension>
        </extensions>
      </trkpt>
      <trkpt lat="42.515236772596836090087890625" lon="19.77108676917850971221923828125">
        <ele>1837.5999755859375</ele>
        <time>2026-06-18T10:41:52.000Z</time>
        <extensions>
          <ns3:TrackPointExtension>
            <ns3:atemp>24.0</ns3:atemp>
          </ns3:TrackPointExtension>
        </extensions>
      </trkpt>
      <trkpt lat="42.515236772596836090087890625" lon="19.77108676917850971221923828125">
        <ele>1837.5999755859375</ele>
        <time>2026-06-18T10:41:53.000Z</time>
        <extensions>
          <ns3:TrackPointExtension>
            <ns3:atemp>24.0</ns3:atemp>
          </ns3:TrackPointExtension>
        </extensions>
      </trkpt>
      <trkpt lat="42.515236772596836090087890625" lon="19.77108676917850971221923828125">
        <ele>1837.5999755859375</ele>
        <time>2026-06-18T10:41:54.000Z</time>
        <extensions>
          <ns3:TrackPointExtension>
            <ns3:atemp>24.0</ns3:atemp>
          </ns3:TrackPointExtension>
        </extensions>
      </trkpt>
      <trkpt lat="42.515236772596836090087890625" lon="19.77108676917850971221923828125">
        <ele>1837.5999755859375</ele>
        <time>2026-06-18T10:41:55.000Z</time>
        <extensions>
          <ns3:TrackPointExtension>
            <ns3:atemp>24.0</ns3:atemp>
          </ns3:TrackPointExtension>
        </extensions>
      </trkpt>
      <trkpt lat="42.515236772596836090087890625" lon="19.77108676917850971221923828125">
        <ele>1837.5999755859375</ele>
        <time>2026-06-18T10:41:56.000Z</time>
        <extensions>
          <ns3:TrackPointExtension>
            <ns3:atemp>24.0</ns3:atemp>
          </ns3:TrackPointExtension>
        </extensions>
      </trkpt>
      <trkpt lat="42.515236772596836090087890625" lon="19.77108676917850971221923828125">
        <ele>1837.5999755859375</ele>
        <time>2026-06-18T10:41:57.000Z</time>
        <extensions>
          <ns3:TrackPointExtension>
            <ns3:atemp>24.0</ns3:atemp>
          </ns3:TrackPointExtension>
        </extensions>
      </trkpt>
      <trkpt lat="42.515236772596836090087890625" lon="19.77108676917850971221923828125">
        <ele>1837.5999755859375</ele>
        <time>2026-06-18T10:41:58.000Z</time>
        <extensions>
          <ns3:TrackPointExtension>
            <ns3:atemp>24.0</ns3:atemp>
          </ns3:TrackPointExtension>
        </extensions>
      </trkpt>
      <trkpt lat="42.515236772596836090087890625" lon="19.77108676917850971221923828125">
        <ele>1837.5999755859375</ele>
        <time>2026-06-18T10:41:59.000Z</time>
        <extensions>
          <ns3:TrackPointExtension>
            <ns3:atemp>24.0</ns3:atemp>
          </ns3:TrackPointExtension>
        </extensions>
      </trkpt>
      <trkpt lat="42.515236772596836090087890625" lon="19.77108676917850971221923828125">
        <ele>1837.5999755859375</ele>
        <time>2026-06-18T10:42:00.000Z</time>
        <extensions>
          <ns3:TrackPointExtension>
            <ns3:atemp>24.0</ns3:atemp>
          </ns3:TrackPointExtension>
        </extensions>
      </trkpt>
      <trkpt lat="42.515236772596836090087890625" lon="19.77108676917850971221923828125">
        <ele>1837.5999755859375</ele>
        <time>2026-06-18T10:42:01.000Z</time>
        <extensions>
          <ns3:TrackPointExtension>
            <ns3:atemp>24.0</ns3:atemp>
          </ns3:TrackPointExtension>
        </extensions>
      </trkpt>
      <trkpt lat="42.515236772596836090087890625" lon="19.77108676917850971221923828125">
        <ele>1837.5999755859375</ele>
        <time>2026-06-18T10:42:02.000Z</time>
        <extensions>
          <ns3:TrackPointExtension>
            <ns3:atemp>24.0</ns3:atemp>
          </ns3:TrackPointExtension>
        </extensions>
      </trkpt>
      <trkpt lat="42.515236772596836090087890625" lon="19.77108676917850971221923828125">
        <ele>1837.5999755859375</ele>
        <time>2026-06-18T10:42:03.000Z</time>
        <extensions>
          <ns3:TrackPointExtension>
            <ns3:atemp>24.0</ns3:atemp>
          </ns3:TrackPointExtension>
        </extensions>
      </trkpt>
      <trkpt lat="42.515236772596836090087890625" lon="19.77108676917850971221923828125">
        <ele>1837.5999755859375</ele>
        <time>2026-06-18T10:42:04.000Z</time>
        <extensions>
          <ns3:TrackPointExtension>
            <ns3:atemp>24.0</ns3:atemp>
          </ns3:TrackPointExtension>
        </extensions>
      </trkpt>
      <trkpt lat="42.515236772596836090087890625" lon="19.77108676917850971221923828125">
        <ele>1837.5999755859375</ele>
        <time>2026-06-18T10:42:05.000Z</time>
        <extensions>
          <ns3:TrackPointExtension>
            <ns3:atemp>24.0</ns3:atemp>
          </ns3:TrackPointExtension>
        </extensions>
      </trkpt>
      <trkpt lat="42.515236772596836090087890625" lon="19.77108676917850971221923828125">
        <ele>1837.5999755859375</ele>
        <time>2026-06-18T10:42:06.000Z</time>
        <extensions>
          <ns3:TrackPointExtension>
            <ns3:atemp>24.0</ns3:atemp>
          </ns3:TrackPointExtension>
        </extensions>
      </trkpt>
      <trkpt lat="42.515236772596836090087890625" lon="19.77108676917850971221923828125">
        <ele>1837.5999755859375</ele>
        <time>2026-06-18T10:42:07.000Z</time>
        <extensions>
          <ns3:TrackPointExtension>
            <ns3:atemp>24.0</ns3:atemp>
          </ns3:TrackPointExtension>
        </extensions>
      </trkpt>
      <trkpt lat="42.515236772596836090087890625" lon="19.77108676917850971221923828125">
        <ele>1837.5999755859375</ele>
        <time>2026-06-18T10:42:08.000Z</time>
        <extensions>
          <ns3:TrackPointExtension>
            <ns3:atemp>24.0</ns3:atemp>
          </ns3:TrackPointExtension>
        </extensions>
      </trkpt>
      <trkpt lat="42.515236772596836090087890625" lon="19.77108676917850971221923828125">
        <ele>1837.5999755859375</ele>
        <time>2026-06-18T10:42:09.000Z</time>
        <extensions>
          <ns3:TrackPointExtension>
            <ns3:atemp>24.0</ns3:atemp>
          </ns3:TrackPointExtension>
        </extensions>
      </trkpt>
      <trkpt lat="42.515236772596836090087890625" lon="19.77108676917850971221923828125">
        <ele>1837.5999755859375</ele>
        <time>2026-06-18T10:42:10.000Z</time>
        <extensions>
          <ns3:TrackPointExtension>
            <ns3:atemp>24.0</ns3:atemp>
          </ns3:TrackPointExtension>
        </extensions>
      </trkpt>
      <trkpt lat="42.515236772596836090087890625" lon="19.77108676917850971221923828125">
        <ele>1837.5999755859375</ele>
        <time>2026-06-18T10:42:11.000Z</time>
        <extensions>
          <ns3:TrackPointExtension>
            <ns3:atemp>24.0</ns3:atemp>
          </ns3:TrackPointExtension>
        </extensions>
      </trkpt>
      <trkpt lat="42.515236772596836090087890625" lon="19.77108676917850971221923828125">
        <ele>1837.5999755859375</ele>
        <time>2026-06-18T10:42:12.000Z</time>
        <extensions>
          <ns3:TrackPointExtension>
            <ns3:atemp>24.0</ns3:atemp>
          </ns3:TrackPointExtension>
        </extensions>
      </trkpt>
      <trkpt lat="42.515236772596836090087890625" lon="19.77108676917850971221923828125">
        <ele>1837.5999755859375</ele>
        <time>2026-06-18T10:42:13.000Z</time>
        <extensions>
          <ns3:TrackPointExtension>
            <ns3:atemp>24.0</ns3:atemp>
          </ns3:TrackPointExtension>
        </extensions>
      </trkpt>
      <trkpt lat="42.515236772596836090087890625" lon="19.77108676917850971221923828125">
        <ele>1837.5999755859375</ele>
        <time>2026-06-18T10:42:14.000Z</time>
        <extensions>
          <ns3:TrackPointExtension>
            <ns3:atemp>24.0</ns3:atemp>
          </ns3:TrackPointExtension>
        </extensions>
      </trkpt>
      <trkpt lat="42.515236772596836090087890625" lon="19.77108676917850971221923828125">
        <ele>1837.5999755859375</ele>
        <time>2026-06-18T10:42:15.000Z</time>
        <extensions>
          <ns3:TrackPointExtension>
            <ns3:atemp>24.0</ns3:atemp>
          </ns3:TrackPointExtension>
        </extensions>
      </trkpt>
      <trkpt lat="42.515236772596836090087890625" lon="19.77108676917850971221923828125">
        <ele>1837.5999755859375</ele>
        <time>2026-06-18T10:42:16.000Z</time>
        <extensions>
          <ns3:TrackPointExtension>
            <ns3:atemp>24.0</ns3:atemp>
          </ns3:TrackPointExtension>
        </extensions>
      </trkpt>
      <trkpt lat="42.515236772596836090087890625" lon="19.77108676917850971221923828125">
        <ele>1837.5999755859375</ele>
        <time>2026-06-18T10:42:17.000Z</time>
        <extensions>
          <ns3:TrackPointExtension>
            <ns3:atemp>24.0</ns3:atemp>
          </ns3:TrackPointExtension>
        </extensions>
      </trkpt>
      <trkpt lat="42.515236772596836090087890625" lon="19.77108676917850971221923828125">
        <ele>1837.5999755859375</ele>
        <time>2026-06-18T10:42:18.000Z</time>
        <extensions>
          <ns3:TrackPointExtension>
            <ns3:atemp>24.0</ns3:atemp>
          </ns3:TrackPointExtension>
        </extensions>
      </trkpt>
      <trkpt lat="42.515236772596836090087890625" lon="19.77108676917850971221923828125">
        <ele>1837.5999755859375</ele>
        <time>2026-06-18T10:42:19.000Z</time>
        <extensions>
          <ns3:TrackPointExtension>
            <ns3:atemp>24.0</ns3:atemp>
          </ns3:TrackPointExtension>
        </extensions>
      </trkpt>
      <trkpt lat="42.515236772596836090087890625" lon="19.77108676917850971221923828125">
        <ele>1837.5999755859375</ele>
        <time>2026-06-18T10:42:20.000Z</time>
        <extensions>
          <ns3:TrackPointExtension>
            <ns3:atemp>24.0</ns3:atemp>
          </ns3:TrackPointExtension>
        </extensions>
      </trkpt>
      <trkpt lat="42.515236772596836090087890625" lon="19.77108676917850971221923828125">
        <ele>1837.5999755859375</ele>
        <time>2026-06-18T10:42:21.000Z</time>
        <extensions>
          <ns3:TrackPointExtension>
            <ns3:atemp>24.0</ns3:atemp>
          </ns3:TrackPointExtension>
        </extensions>
      </trkpt>
      <trkpt lat="42.515236772596836090087890625" lon="19.77108676917850971221923828125">
        <ele>1837.5999755859375</ele>
        <time>2026-06-18T10:42:22.000Z</time>
        <extensions>
          <ns3:TrackPointExtension>
            <ns3:atemp>24.0</ns3:atemp>
          </ns3:TrackPointExtension>
        </extensions>
      </trkpt>
      <trkpt lat="42.515236772596836090087890625" lon="19.77108676917850971221923828125">
        <ele>1837.5999755859375</ele>
        <time>2026-06-18T10:42:23.000Z</time>
        <extensions>
          <ns3:TrackPointExtension>
            <ns3:atemp>24.0</ns3:atemp>
          </ns3:TrackPointExtension>
        </extensions>
      </trkpt>
      <trkpt lat="42.515236772596836090087890625" lon="19.77108676917850971221923828125">
        <ele>1837.5999755859375</ele>
        <time>2026-06-18T10:42:24.000Z</time>
        <extensions>
          <ns3:TrackPointExtension>
            <ns3:atemp>24.0</ns3:atemp>
          </ns3:TrackPointExtension>
        </extensions>
      </trkpt>
      <trkpt lat="42.515236772596836090087890625" lon="19.77108676917850971221923828125">
        <ele>1837.5999755859375</ele>
        <time>2026-06-18T10:42:25.000Z</time>
        <extensions>
          <ns3:TrackPointExtension>
            <ns3:atemp>24.0</ns3:atemp>
          </ns3:TrackPointExtension>
        </extensions>
      </trkpt>
      <trkpt lat="42.515236772596836090087890625" lon="19.77108676917850971221923828125">
        <ele>1837.5999755859375</ele>
        <time>2026-06-18T10:42:26.000Z</time>
        <extensions>
          <ns3:TrackPointExtension>
            <ns3:atemp>24.0</ns3:atemp>
          </ns3:TrackPointExtension>
        </extensions>
      </trkpt>
      <trkpt lat="42.515236772596836090087890625" lon="19.77108676917850971221923828125">
        <ele>1837.5999755859375</ele>
        <time>2026-06-18T10:42:27.000Z</time>
        <extensions>
          <ns3:TrackPointExtension>
            <ns3:atemp>24.0</ns3:atemp>
          </ns3:TrackPointExtension>
        </extensions>
      </trkpt>
      <trkpt lat="42.515236772596836090087890625" lon="19.77108676917850971221923828125">
        <ele>1837.5999755859375</ele>
        <time>2026-06-18T10:42:28.000Z</time>
        <extensions>
          <ns3:TrackPointExtension>
            <ns3:atemp>24.0</ns3:atemp>
          </ns3:TrackPointExtension>
        </extensions>
      </trkpt>
      <trkpt lat="42.515236772596836090087890625" lon="19.77108676917850971221923828125">
        <ele>1837.5999755859375</ele>
        <time>2026-06-18T10:42:29.000Z</time>
        <extensions>
          <ns3:TrackPointExtension>
            <ns3:atemp>24.0</ns3:atemp>
          </ns3:TrackPointExtension>
        </extensions>
      </trkpt>
      <trkpt lat="42.515236772596836090087890625" lon="19.77108676917850971221923828125">
        <ele>1837.5999755859375</ele>
        <time>2026-06-18T10:42:30.000Z</time>
        <extensions>
          <ns3:TrackPointExtension>
            <ns3:atemp>24.0</ns3:atemp>
          </ns3:TrackPointExtension>
        </extensions>
      </trkpt>
      <trkpt lat="42.515236772596836090087890625" lon="19.77108676917850971221923828125">
        <ele>1837.5999755859375</ele>
        <time>2026-06-18T10:42:31.000Z</time>
        <extensions>
          <ns3:TrackPointExtension>
            <ns3:atemp>24.0</ns3:atemp>
          </ns3:TrackPointExtension>
        </extensions>
      </trkpt>
      <trkpt lat="42.515236772596836090087890625" lon="19.77108676917850971221923828125">
        <ele>1837.5999755859375</ele>
        <time>2026-06-18T10:42:32.000Z</time>
        <extensions>
          <ns3:TrackPointExtension>
            <ns3:atemp>24.0</ns3:atemp>
          </ns3:TrackPointExtension>
        </extensions>
      </trkpt>
      <trkpt lat="42.515236772596836090087890625" lon="19.77108676917850971221923828125">
        <ele>1837.5999755859375</ele>
        <time>2026-06-18T10:42:33.000Z</time>
        <extensions>
          <ns3:TrackPointExtension>
            <ns3:atemp>24.0</ns3:atemp>
          </ns3:TrackPointExtension>
        </extensions>
      </trkpt>
      <trkpt lat="42.515236772596836090087890625" lon="19.77108676917850971221923828125">
        <ele>1837.5999755859375</ele>
        <time>2026-06-18T10:42:34.000Z</time>
        <extensions>
          <ns3:TrackPointExtension>
            <ns3:atemp>24.0</ns3:atemp>
          </ns3:TrackPointExtension>
        </extensions>
      </trkpt>
      <trkpt lat="42.515236772596836090087890625" lon="19.77108676917850971221923828125">
        <ele>1837.5999755859375</ele>
        <time>2026-06-18T10:42:35.000Z</time>
        <extensions>
          <ns3:TrackPointExtension>
            <ns3:atemp>24.0</ns3:atemp>
          </ns3:TrackPointExtension>
        </extensions>
      </trkpt>
      <trkpt lat="42.515236772596836090087890625" lon="19.77108676917850971221923828125">
        <ele>1837.5999755859375</ele>
        <time>2026-06-18T10:42:36.000Z</time>
        <extensions>
          <ns3:TrackPointExtension>
            <ns3:atemp>24.0</ns3:atemp>
          </ns3:TrackPointExtension>
        </extensions>
      </trkpt>
      <trkpt lat="42.515236772596836090087890625" lon="19.77108676917850971221923828125">
        <ele>1837.5999755859375</ele>
        <time>2026-06-18T10:42:37.000Z</time>
        <extensions>
          <ns3:TrackPointExtension>
            <ns3:atemp>24.0</ns3:atemp>
          </ns3:TrackPointExtension>
        </extensions>
      </trkpt>
      <trkpt lat="42.515236772596836090087890625" lon="19.77108676917850971221923828125">
        <ele>1837.5999755859375</ele>
        <time>2026-06-18T10:42:38.000Z</time>
        <extensions>
          <ns3:TrackPointExtension>
            <ns3:atemp>24.0</ns3:atemp>
          </ns3:TrackPointExtension>
        </extensions>
      </trkpt>
      <trkpt lat="42.515236772596836090087890625" lon="19.77108676917850971221923828125">
        <ele>1837.5999755859375</ele>
        <time>2026-06-18T10:42:39.000Z</time>
        <extensions>
          <ns3:TrackPointExtension>
            <ns3:atemp>24.0</ns3:atemp>
          </ns3:TrackPointExtension>
        </extensions>
      </trkpt>
      <trkpt lat="42.515236772596836090087890625" lon="19.77108676917850971221923828125">
        <ele>1837.5999755859375</ele>
        <time>2026-06-18T10:42:40.000Z</time>
        <extensions>
          <ns3:TrackPointExtension>
            <ns3:atemp>24.0</ns3:atemp>
          </ns3:TrackPointExtension>
        </extensions>
      </trkpt>
      <trkpt lat="42.515236772596836090087890625" lon="19.77108676917850971221923828125">
        <ele>1837.5999755859375</ele>
        <time>2026-06-18T10:42:41.000Z</time>
        <extensions>
          <ns3:TrackPointExtension>
            <ns3:atemp>24.0</ns3:atemp>
          </ns3:TrackPointExtension>
        </extensions>
      </trkpt>
      <trkpt lat="42.515236772596836090087890625" lon="19.77108676917850971221923828125">
        <ele>1837.5999755859375</ele>
        <time>2026-06-18T10:42:42.000Z</time>
        <extensions>
          <ns3:TrackPointExtension>
            <ns3:atemp>24.0</ns3:atemp>
          </ns3:TrackPointExtension>
        </extensions>
      </trkpt>
      <trkpt lat="42.515236772596836090087890625" lon="19.77108676917850971221923828125">
        <ele>1837.5999755859375</ele>
        <time>2026-06-18T10:42:43.000Z</time>
        <extensions>
          <ns3:TrackPointExtension>
            <ns3:atemp>24.0</ns3:atemp>
          </ns3:TrackPointExtension>
        </extensions>
      </trkpt>
      <trkpt lat="42.515236772596836090087890625" lon="19.77108676917850971221923828125">
        <ele>1837.5999755859375</ele>
        <time>2026-06-18T10:42:44.000Z</time>
        <extensions>
          <ns3:TrackPointExtension>
            <ns3:atemp>24.0</ns3:atemp>
          </ns3:TrackPointExtension>
        </extensions>
      </trkpt>
      <trkpt lat="42.515236772596836090087890625" lon="19.77108676917850971221923828125">
        <ele>1837.5999755859375</ele>
        <time>2026-06-18T10:42:45.000Z</time>
        <extensions>
          <ns3:TrackPointExtension>
            <ns3:atemp>24.0</ns3:atemp>
          </ns3:TrackPointExtension>
        </extensions>
      </trkpt>
      <trkpt lat="42.515236772596836090087890625" lon="19.77108676917850971221923828125">
        <ele>1837.5999755859375</ele>
        <time>2026-06-18T10:42:46.000Z</time>
        <extensions>
          <ns3:TrackPointExtension>
            <ns3:atemp>24.0</ns3:atemp>
          </ns3:TrackPointExtension>
        </extensions>
      </trkpt>
      <trkpt lat="42.515236772596836090087890625" lon="19.77108676917850971221923828125">
        <ele>1837.5999755859375</ele>
        <time>2026-06-18T10:42:47.000Z</time>
        <extensions>
          <ns3:TrackPointExtension>
            <ns3:atemp>24.0</ns3:atemp>
          </ns3:TrackPointExtension>
        </extensions>
      </trkpt>
      <trkpt lat="42.515236772596836090087890625" lon="19.77108676917850971221923828125">
        <ele>1837.5999755859375</ele>
        <time>2026-06-18T10:42:48.000Z</time>
        <extensions>
          <ns3:TrackPointExtension>
            <ns3:atemp>24.0</ns3:atemp>
          </ns3:TrackPointExtension>
        </extensions>
      </trkpt>
      <trkpt lat="42.515236772596836090087890625" lon="19.77108676917850971221923828125">
        <ele>1837.5999755859375</ele>
        <time>2026-06-18T10:42:49.000Z</time>
        <extensions>
          <ns3:TrackPointExtension>
            <ns3:atemp>24.0</ns3:atemp>
          </ns3:TrackPointExtension>
        </extensions>
      </trkpt>
      <trkpt lat="42.515236772596836090087890625" lon="19.77108676917850971221923828125">
        <ele>1837.5999755859375</ele>
        <time>2026-06-18T10:42:50.000Z</time>
        <extensions>
          <ns3:TrackPointExtension>
            <ns3:atemp>24.0</ns3:atemp>
          </ns3:TrackPointExtension>
        </extensions>
      </trkpt>
      <trkpt lat="42.515236772596836090087890625" lon="19.77108676917850971221923828125">
        <ele>1837.5999755859375</ele>
        <time>2026-06-18T10:42:51.000Z</time>
        <extensions>
          <ns3:TrackPointExtension>
            <ns3:atemp>24.0</ns3:atemp>
          </ns3:TrackPointExtension>
        </extensions>
      </trkpt>
      <trkpt lat="42.515236772596836090087890625" lon="19.77108676917850971221923828125">
        <ele>1837.5999755859375</ele>
        <time>2026-06-18T10:42:52.000Z</time>
        <extensions>
          <ns3:TrackPointExtension>
            <ns3:atemp>24.0</ns3:atemp>
          </ns3:TrackPointExtension>
        </extensions>
      </trkpt>
      <trkpt lat="42.515236772596836090087890625" lon="19.77108676917850971221923828125">
        <ele>1837.5999755859375</ele>
        <time>2026-06-18T10:42:53.000Z</time>
        <extensions>
          <ns3:TrackPointExtension>
            <ns3:atemp>24.0</ns3:atemp>
          </ns3:TrackPointExtension>
        </extensions>
      </trkpt>
      <trkpt lat="42.515236772596836090087890625" lon="19.77108676917850971221923828125">
        <ele>1837.5999755859375</ele>
        <time>2026-06-18T10:42:54.000Z</time>
        <extensions>
          <ns3:TrackPointExtension>
            <ns3:atemp>24.0</ns3:atemp>
          </ns3:TrackPointExtension>
        </extensions>
      </trkpt>
      <trkpt lat="42.515236772596836090087890625" lon="19.77108676917850971221923828125">
        <ele>1837.5999755859375</ele>
        <time>2026-06-18T10:42:55.000Z</time>
        <extensions>
          <ns3:TrackPointExtension>
            <ns3:atemp>24.0</ns3:atemp>
          </ns3:TrackPointExtension>
        </extensions>
      </trkpt>
      <trkpt lat="42.515236772596836090087890625" lon="19.77108676917850971221923828125">
        <ele>1837.5999755859375</ele>
        <time>2026-06-18T10:42:56.000Z</time>
        <extensions>
          <ns3:TrackPointExtension>
            <ns3:atemp>24.0</ns3:atemp>
          </ns3:TrackPointExtension>
        </extensions>
      </trkpt>
      <trkpt lat="42.515236772596836090087890625" lon="19.77108676917850971221923828125">
        <ele>1837.5999755859375</ele>
        <time>2026-06-18T10:42:57.000Z</time>
        <extensions>
          <ns3:TrackPointExtension>
            <ns3:atemp>24.0</ns3:atemp>
          </ns3:TrackPointExtension>
        </extensions>
      </trkpt>
      <trkpt lat="42.515236772596836090087890625" lon="19.77108676917850971221923828125">
        <ele>1837.5999755859375</ele>
        <time>2026-06-18T10:42:58.000Z</time>
        <extensions>
          <ns3:TrackPointExtension>
            <ns3:atemp>24.0</ns3:atemp>
          </ns3:TrackPointExtension>
        </extensions>
      </trkpt>
      <trkpt lat="42.515236772596836090087890625" lon="19.77108676917850971221923828125">
        <ele>1837.5999755859375</ele>
        <time>2026-06-18T10:42:59.000Z</time>
        <extensions>
          <ns3:TrackPointExtension>
            <ns3:atemp>24.0</ns3:atemp>
          </ns3:TrackPointExtension>
        </extensions>
      </trkpt>
      <trkpt lat="42.515236772596836090087890625" lon="19.77108676917850971221923828125">
        <ele>1837.5999755859375</ele>
        <time>2026-06-18T10:43:00.000Z</time>
        <extensions>
          <ns3:TrackPointExtension>
            <ns3:atemp>24.0</ns3:atemp>
          </ns3:TrackPointExtension>
        </extensions>
      </trkpt>
      <trkpt lat="42.515236772596836090087890625" lon="19.77108676917850971221923828125">
        <ele>1837.5999755859375</ele>
        <time>2026-06-18T10:43:01.000Z</time>
        <extensions>
          <ns3:TrackPointExtension>
            <ns3:atemp>24.0</ns3:atemp>
          </ns3:TrackPointExtension>
        </extensions>
      </trkpt>
      <trkpt lat="42.515236772596836090087890625" lon="19.77108676917850971221923828125">
        <ele>1837.5999755859375</ele>
        <time>2026-06-18T10:43:02.000Z</time>
        <extensions>
          <ns3:TrackPointExtension>
            <ns3:atemp>24.0</ns3:atemp>
          </ns3:TrackPointExtension>
        </extensions>
      </trkpt>
      <trkpt lat="42.515236772596836090087890625" lon="19.77108676917850971221923828125">
        <ele>1837.5999755859375</ele>
        <time>2026-06-18T10:43:03.000Z</time>
        <extensions>
          <ns3:TrackPointExtension>
            <ns3:atemp>24.0</ns3:atemp>
          </ns3:TrackPointExtension>
        </extensions>
      </trkpt>
      <trkpt lat="42.515236772596836090087890625" lon="19.77108676917850971221923828125">
        <ele>1837.5999755859375</ele>
        <time>2026-06-18T10:43:04.000Z</time>
        <extensions>
          <ns3:TrackPointExtension>
            <ns3:atemp>24.0</ns3:atemp>
          </ns3:TrackPointExtension>
        </extensions>
      </trkpt>
      <trkpt lat="42.515236772596836090087890625" lon="19.77108676917850971221923828125">
        <ele>1837.5999755859375</ele>
        <time>2026-06-18T10:43:05.000Z</time>
        <extensions>
          <ns3:TrackPointExtension>
            <ns3:atemp>24.0</ns3:atemp>
          </ns3:TrackPointExtension>
        </extensions>
      </trkpt>
      <trkpt lat="42.515236772596836090087890625" lon="19.77108676917850971221923828125">
        <ele>1837.5999755859375</ele>
        <time>2026-06-18T10:43:06.000Z</time>
        <extensions>
          <ns3:TrackPointExtension>
            <ns3:atemp>24.0</ns3:atemp>
          </ns3:TrackPointExtension>
        </extensions>
      </trkpt>
      <trkpt lat="42.515236772596836090087890625" lon="19.77108676917850971221923828125">
        <ele>1837.5999755859375</ele>
        <time>2026-06-18T10:43:07.000Z</time>
        <extensions>
          <ns3:TrackPointExtension>
            <ns3:atemp>24.0</ns3:atemp>
          </ns3:TrackPointExtension>
        </extensions>
      </trkpt>
      <trkpt lat="42.515236772596836090087890625" lon="19.77108676917850971221923828125">
        <ele>1837.5999755859375</ele>
        <time>2026-06-18T10:43:08.000Z</time>
        <extensions>
          <ns3:TrackPointExtension>
            <ns3:atemp>24.0</ns3:atemp>
          </ns3:TrackPointExtension>
        </extensions>
      </trkpt>
      <trkpt lat="42.515236772596836090087890625" lon="19.77108676917850971221923828125">
        <ele>1837.5999755859375</ele>
        <time>2026-06-18T10:43:09.000Z</time>
        <extensions>
          <ns3:TrackPointExtension>
            <ns3:atemp>24.0</ns3:atemp>
          </ns3:TrackPointExtension>
        </extensions>
      </trkpt>
      <trkpt lat="42.515236772596836090087890625" lon="19.77108676917850971221923828125">
        <ele>1837.5999755859375</ele>
        <time>2026-06-18T10:43:10.000Z</time>
        <extensions>
          <ns3:TrackPointExtension>
            <ns3:atemp>24.0</ns3:atemp>
          </ns3:TrackPointExtension>
        </extensions>
      </trkpt>
      <trkpt lat="42.515236772596836090087890625" lon="19.77108676917850971221923828125">
        <ele>1837.5999755859375</ele>
        <time>2026-06-18T10:43:11.000Z</time>
        <extensions>
          <ns3:TrackPointExtension>
            <ns3:atemp>24.0</ns3:atemp>
          </ns3:TrackPointExtension>
        </extensions>
      </trkpt>
      <trkpt lat="42.515236772596836090087890625" lon="19.77108676917850971221923828125">
        <ele>1837.5999755859375</ele>
        <time>2026-06-18T10:43:12.000Z</time>
        <extensions>
          <ns3:TrackPointExtension>
            <ns3:atemp>24.0</ns3:atemp>
          </ns3:TrackPointExtension>
        </extensions>
      </trkpt>
      <trkpt lat="42.515236772596836090087890625" lon="19.77108676917850971221923828125">
        <ele>1837.5999755859375</ele>
        <time>2026-06-18T10:43:13.000Z</time>
        <extensions>
          <ns3:TrackPointExtension>
            <ns3:atemp>24.0</ns3:atemp>
          </ns3:TrackPointExtension>
        </extensions>
      </trkpt>
      <trkpt lat="42.515236772596836090087890625" lon="19.77108676917850971221923828125">
        <ele>1837.5999755859375</ele>
        <time>2026-06-18T10:43:14.000Z</time>
        <extensions>
          <ns3:TrackPointExtension>
            <ns3:atemp>24.0</ns3:atemp>
          </ns3:TrackPointExtension>
        </extensions>
      </trkpt>
      <trkpt lat="42.515236772596836090087890625" lon="19.77108676917850971221923828125">
        <ele>1837.5999755859375</ele>
        <time>2026-06-18T10:43:15.000Z</time>
        <extensions>
          <ns3:TrackPointExtension>
            <ns3:atemp>24.0</ns3:atemp>
          </ns3:TrackPointExtension>
        </extensions>
      </trkpt>
      <trkpt lat="42.515236772596836090087890625" lon="19.77108676917850971221923828125">
        <ele>1837.5999755859375</ele>
        <time>2026-06-18T10:43:16.000Z</time>
        <extensions>
          <ns3:TrackPointExtension>
            <ns3:atemp>24.0</ns3:atemp>
          </ns3:TrackPointExtension>
        </extensions>
      </trkpt>
      <trkpt lat="42.515236772596836090087890625" lon="19.77108676917850971221923828125">
        <ele>1837.5999755859375</ele>
        <time>2026-06-18T10:43:17.000Z</time>
        <extensions>
          <ns3:TrackPointExtension>
            <ns3:atemp>24.0</ns3:atemp>
          </ns3:TrackPointExtension>
        </extensions>
      </trkpt>
      <trkpt lat="42.515236772596836090087890625" lon="19.77108676917850971221923828125">
        <ele>1837.5999755859375</ele>
        <time>2026-06-18T10:43:18.000Z</time>
        <extensions>
          <ns3:TrackPointExtension>
            <ns3:atemp>24.0</ns3:atemp>
          </ns3:TrackPointExtension>
        </extensions>
      </trkpt>
      <trkpt lat="42.515236772596836090087890625" lon="19.77108676917850971221923828125">
        <ele>1837.5999755859375</ele>
        <time>2026-06-18T10:43:19.000Z</time>
        <extensions>
          <ns3:TrackPointExtension>
            <ns3:atemp>24.0</ns3:atemp>
          </ns3:TrackPointExtension>
        </extensions>
      </trkpt>
      <trkpt lat="42.515236772596836090087890625" lon="19.77108676917850971221923828125">
        <ele>1837.5999755859375</ele>
        <time>2026-06-18T10:43:20.000Z</time>
        <extensions>
          <ns3:TrackPointExtension>
            <ns3:atemp>24.0</ns3:atemp>
          </ns3:TrackPointExtension>
        </extensions>
      </trkpt>
      <trkpt lat="42.515236772596836090087890625" lon="19.77108676917850971221923828125">
        <ele>1837.5999755859375</ele>
        <time>2026-06-18T10:43:21.000Z</time>
        <extensions>
          <ns3:TrackPointExtension>
            <ns3:atemp>24.0</ns3:atemp>
          </ns3:TrackPointExtension>
        </extensions>
      </trkpt>
      <trkpt lat="42.515236772596836090087890625" lon="19.77108676917850971221923828125">
        <ele>1837.5999755859375</ele>
        <time>2026-06-18T10:43:22.000Z</time>
        <extensions>
          <ns3:TrackPointExtension>
            <ns3:atemp>24.0</ns3:atemp>
          </ns3:TrackPointExtension>
        </extensions>
      </trkpt>
      <trkpt lat="42.515236772596836090087890625" lon="19.77108676917850971221923828125">
        <ele>1837.5999755859375</ele>
        <time>2026-06-18T10:43:23.000Z</time>
        <extensions>
          <ns3:TrackPointExtension>
            <ns3:atemp>24.0</ns3:atemp>
          </ns3:TrackPointExtension>
        </extensions>
      </trkpt>
      <trkpt lat="42.515236772596836090087890625" lon="19.77108676917850971221923828125">
        <ele>1837.5999755859375</ele>
        <time>2026-06-18T10:43:24.000Z</time>
        <extensions>
          <ns3:TrackPointExtension>
            <ns3:atemp>24.0</ns3:atemp>
          </ns3:TrackPointExtension>
        </extensions>
      </trkpt>
      <trkpt lat="42.515236772596836090087890625" lon="19.77108676917850971221923828125">
        <ele>1837.5999755859375</ele>
        <time>2026-06-18T10:43:25.000Z</time>
        <extensions>
          <ns3:TrackPointExtension>
            <ns3:atemp>24.0</ns3:atemp>
          </ns3:TrackPointExtension>
        </extensions>
      </trkpt>
      <trkpt lat="42.515236772596836090087890625" lon="19.77108676917850971221923828125">
        <ele>1837.5999755859375</ele>
        <time>2026-06-18T10:43:26.000Z</time>
        <extensions>
          <ns3:TrackPointExtension>
            <ns3:atemp>24.0</ns3:atemp>
          </ns3:TrackPointExtension>
        </extensions>
      </trkpt>
      <trkpt lat="42.515236772596836090087890625" lon="19.77108676917850971221923828125">
        <ele>1837.5999755859375</ele>
        <time>2026-06-18T10:43:27.000Z</time>
        <extensions>
          <ns3:TrackPointExtension>
            <ns3:atemp>24.0</ns3:atemp>
          </ns3:TrackPointExtension>
        </extensions>
      </trkpt>
      <trkpt lat="42.515236772596836090087890625" lon="19.77108676917850971221923828125">
        <ele>1837.5999755859375</ele>
        <time>2026-06-18T10:43:28.000Z</time>
        <extensions>
          <ns3:TrackPointExtension>
            <ns3:atemp>24.0</ns3:atemp>
          </ns3:TrackPointExtension>
        </extensions>
      </trkpt>
      <trkpt lat="42.515236772596836090087890625" lon="19.77108676917850971221923828125">
        <ele>1837.5999755859375</ele>
        <time>2026-06-18T10:43:29.000Z</time>
        <extensions>
          <ns3:TrackPointExtension>
            <ns3:atemp>24.0</ns3:atemp>
          </ns3:TrackPointExtension>
        </extensions>
      </trkpt>
      <trkpt lat="42.515236772596836090087890625" lon="19.77108676917850971221923828125">
        <ele>1837.5999755859375</ele>
        <time>2026-06-18T10:43:30.000Z</time>
        <extensions>
          <ns3:TrackPointExtension>
            <ns3:atemp>24.0</ns3:atemp>
          </ns3:TrackPointExtension>
        </extensions>
      </trkpt>
      <trkpt lat="42.515236772596836090087890625" lon="19.77108676917850971221923828125">
        <ele>1837.5999755859375</ele>
        <time>2026-06-18T10:43:31.000Z</time>
        <extensions>
          <ns3:TrackPointExtension>
            <ns3:atemp>24.0</ns3:atemp>
          </ns3:TrackPointExtension>
        </extensions>
      </trkpt>
      <trkpt lat="42.515236772596836090087890625" lon="19.77108676917850971221923828125">
        <ele>1837.5999755859375</ele>
        <time>2026-06-18T10:43:32.000Z</time>
        <extensions>
          <ns3:TrackPointExtension>
            <ns3:atemp>24.0</ns3:atemp>
          </ns3:TrackPointExtension>
        </extensions>
      </trkpt>
      <trkpt lat="42.515236772596836090087890625" lon="19.77108676917850971221923828125">
        <ele>1837.5999755859375</ele>
        <time>2026-06-18T10:43:33.000Z</time>
        <extensions>
          <ns3:TrackPointExtension>
            <ns3:atemp>24.0</ns3:atemp>
          </ns3:TrackPointExtension>
        </extensions>
      </trkpt>
      <trkpt lat="42.515236772596836090087890625" lon="19.77108676917850971221923828125">
        <ele>1837.5999755859375</ele>
        <time>2026-06-18T10:43:34.000Z</time>
        <extensions>
          <ns3:TrackPointExtension>
            <ns3:atemp>24.0</ns3:atemp>
          </ns3:TrackPointExtension>
        </extensions>
      </trkpt>
      <trkpt lat="42.515236772596836090087890625" lon="19.77108676917850971221923828125">
        <ele>1837.5999755859375</ele>
        <time>2026-06-18T10:43:35.000Z</time>
        <extensions>
          <ns3:TrackPointExtension>
            <ns3:atemp>24.0</ns3:atemp>
          </ns3:TrackPointExtension>
        </extensions>
      </trkpt>
      <trkpt lat="42.515236772596836090087890625" lon="19.77108676917850971221923828125">
        <ele>1837.5999755859375</ele>
        <time>2026-06-18T10:43:36.000Z</time>
        <extensions>
          <ns3:TrackPointExtension>
            <ns3:atemp>24.0</ns3:atemp>
          </ns3:TrackPointExtension>
        </extensions>
      </trkpt>
      <trkpt lat="42.515236772596836090087890625" lon="19.77108676917850971221923828125">
        <ele>1837.5999755859375</ele>
        <time>2026-06-18T10:43:37.000Z</time>
        <extensions>
          <ns3:TrackPointExtension>
            <ns3:atemp>24.0</ns3:atemp>
          </ns3:TrackPointExtension>
        </extensions>
      </trkpt>
      <trkpt lat="42.515236772596836090087890625" lon="19.77108676917850971221923828125">
        <ele>1837.5999755859375</ele>
        <time>2026-06-18T10:43:38.000Z</time>
        <extensions>
          <ns3:TrackPointExtension>
            <ns3:atemp>24.0</ns3:atemp>
          </ns3:TrackPointExtension>
        </extensions>
      </trkpt>
      <trkpt lat="42.515236772596836090087890625" lon="19.77108676917850971221923828125">
        <ele>1837.5999755859375</ele>
        <time>2026-06-18T10:43:39.000Z</time>
        <extensions>
          <ns3:TrackPointExtension>
            <ns3:atemp>24.0</ns3:atemp>
          </ns3:TrackPointExtension>
        </extensions>
      </trkpt>
      <trkpt lat="42.515236772596836090087890625" lon="19.77108676917850971221923828125">
        <ele>1837.5999755859375</ele>
        <time>2026-06-18T10:43:40.000Z</time>
        <extensions>
          <ns3:TrackPointExtension>
            <ns3:atemp>24.0</ns3:atemp>
          </ns3:TrackPointExtension>
        </extensions>
      </trkpt>
      <trkpt lat="42.515236772596836090087890625" lon="19.77108676917850971221923828125">
        <ele>1837.5999755859375</ele>
        <time>2026-06-18T10:43:41.000Z</time>
        <extensions>
          <ns3:TrackPointExtension>
            <ns3:atemp>24.0</ns3:atemp>
          </ns3:TrackPointExtension>
        </extensions>
      </trkpt>
      <trkpt lat="42.515236772596836090087890625" lon="19.77108676917850971221923828125">
        <ele>1837.5999755859375</ele>
        <time>2026-06-18T10:43:42.000Z</time>
        <extensions>
          <ns3:TrackPointExtension>
            <ns3:atemp>24.0</ns3:atemp>
          </ns3:TrackPointExtension>
        </extensions>
      </trkpt>
      <trkpt lat="42.515236772596836090087890625" lon="19.77108676917850971221923828125">
        <ele>1837.5999755859375</ele>
        <time>2026-06-18T10:43:43.000Z</time>
        <extensions>
          <ns3:TrackPointExtension>
            <ns3:atemp>24.0</ns3:atemp>
          </ns3:TrackPointExtension>
        </extensions>
      </trkpt>
      <trkpt lat="42.515236772596836090087890625" lon="19.77108676917850971221923828125">
        <ele>1837.5999755859375</ele>
        <time>2026-06-18T10:43:44.000Z</time>
        <extensions>
          <ns3:TrackPointExtension>
            <ns3:atemp>24.0</ns3:atemp>
          </ns3:TrackPointExtension>
        </extensions>
      </trkpt>
      <trkpt lat="42.515236772596836090087890625" lon="19.77108676917850971221923828125">
        <ele>1837.5999755859375</ele>
        <time>2026-06-18T10:43:45.000Z</time>
        <extensions>
          <ns3:TrackPointExtension>
            <ns3:atemp>24.0</ns3:atemp>
          </ns3:TrackPointExtension>
        </extensions>
      </trkpt>
      <trkpt lat="42.515236772596836090087890625" lon="19.77108676917850971221923828125">
        <ele>1837.5999755859375</ele>
        <time>2026-06-18T10:43:46.000Z</time>
        <extensions>
          <ns3:TrackPointExtension>
            <ns3:atemp>24.0</ns3:atemp>
          </ns3:TrackPointExtension>
        </extensions>
      </trkpt>
      <trkpt lat="42.515236772596836090087890625" lon="19.77108676917850971221923828125">
        <ele>1837.5999755859375</ele>
        <time>2026-06-18T10:43:47.000Z</time>
        <extensions>
          <ns3:TrackPointExtension>
            <ns3:atemp>24.0</ns3:atemp>
          </ns3:TrackPointExtension>
        </extensions>
      </trkpt>
      <trkpt lat="42.515236772596836090087890625" lon="19.77108676917850971221923828125">
        <ele>1837.5999755859375</ele>
        <time>2026-06-18T10:43:48.000Z</time>
        <extensions>
          <ns3:TrackPointExtension>
            <ns3:atemp>24.0</ns3:atemp>
          </ns3:TrackPointExtension>
        </extensions>
      </trkpt>
      <trkpt lat="42.515236772596836090087890625" lon="19.77108676917850971221923828125">
        <ele>1837.5999755859375</ele>
        <time>2026-06-18T10:43:49.000Z</time>
        <extensions>
          <ns3:TrackPointExtension>
            <ns3:atemp>24.0</ns3:atemp>
          </ns3:TrackPointExtension>
        </extensions>
      </trkpt>
      <trkpt lat="42.515236772596836090087890625" lon="19.77108676917850971221923828125">
        <ele>1837.5999755859375</ele>
        <time>2026-06-18T10:43:50.000Z</time>
        <extensions>
          <ns3:TrackPointExtension>
            <ns3:atemp>24.0</ns3:atemp>
          </ns3:TrackPointExtension>
        </extensions>
      </trkpt>
      <trkpt lat="42.515236772596836090087890625" lon="19.77108676917850971221923828125">
        <ele>1837.5999755859375</ele>
        <time>2026-06-18T10:43:51.000Z</time>
        <extensions>
          <ns3:TrackPointExtension>
            <ns3:atemp>24.0</ns3:atemp>
          </ns3:TrackPointExtension>
        </extensions>
      </trkpt>
      <trkpt lat="42.515236772596836090087890625" lon="19.77108676917850971221923828125">
        <ele>1837.5999755859375</ele>
        <time>2026-06-18T10:43:52.000Z</time>
        <extensions>
          <ns3:TrackPointExtension>
            <ns3:atemp>24.0</ns3:atemp>
          </ns3:TrackPointExtension>
        </extensions>
      </trkpt>
      <trkpt lat="42.515236772596836090087890625" lon="19.77108676917850971221923828125">
        <ele>1837.5999755859375</ele>
        <time>2026-06-18T10:43:53.000Z</time>
        <extensions>
          <ns3:TrackPointExtension>
            <ns3:atemp>24.0</ns3:atemp>
          </ns3:TrackPointExtension>
        </extensions>
      </trkpt>
      <trkpt lat="42.515236772596836090087890625" lon="19.77108676917850971221923828125">
        <ele>1837.5999755859375</ele>
        <time>2026-06-18T10:43:54.000Z</time>
        <extensions>
          <ns3:TrackPointExtension>
            <ns3:atemp>24.0</ns3:atemp>
          </ns3:TrackPointExtension>
        </extensions>
      </trkpt>
      <trkpt lat="42.515236772596836090087890625" lon="19.77108676917850971221923828125">
        <ele>1837.5999755859375</ele>
        <time>2026-06-18T10:43:55.000Z</time>
        <extensions>
          <ns3:TrackPointExtension>
            <ns3:atemp>24.0</ns3:atemp>
          </ns3:TrackPointExtension>
        </extensions>
      </trkpt>
      <trkpt lat="42.515236772596836090087890625" lon="19.77108676917850971221923828125">
        <ele>1837.5999755859375</ele>
        <time>2026-06-18T10:43:56.000Z</time>
        <extensions>
          <ns3:TrackPointExtension>
            <ns3:atemp>24.0</ns3:atemp>
          </ns3:TrackPointExtension>
        </extensions>
      </trkpt>
      <trkpt lat="42.515236772596836090087890625" lon="19.77108676917850971221923828125">
        <ele>1837.5999755859375</ele>
        <time>2026-06-18T10:43:57.000Z</time>
        <extensions>
          <ns3:TrackPointExtension>
            <ns3:atemp>24.0</ns3:atemp>
          </ns3:TrackPointExtension>
        </extensions>
      </trkpt>
      <trkpt lat="42.515236772596836090087890625" lon="19.77108676917850971221923828125">
        <ele>1837.5999755859375</ele>
        <time>2026-06-18T10:43:58.000Z</time>
        <extensions>
          <ns3:TrackPointExtension>
            <ns3:atemp>24.0</ns3:atemp>
          </ns3:TrackPointExtension>
        </extensions>
      </trkpt>
      <trkpt lat="42.51523979008197784423828125" lon="19.771086014807224273681640625">
        <ele>1837.5999755859375</ele>
        <time>2026-06-18T10:43:59.000Z</time>
        <extensions>
          <ns3:TrackPointExtension>
            <ns3:atemp>24.0</ns3:atemp>
          </ns3:TrackPointExtension>
        </extensions>
      </trkpt>
      <trkpt lat="42.515236772596836090087890625" lon="19.77108676917850971221923828125">
        <ele>1837.5999755859375</ele>
        <time>2026-06-18T10:44:00.000Z</time>
        <extensions>
          <ns3:TrackPointExtension>
            <ns3:atemp>24.0</ns3:atemp>
          </ns3:TrackPointExtension>
        </extensions>
      </trkpt>
      <trkpt lat="42.515236772596836090087890625" lon="19.77108676917850971221923828125">
        <ele>1837.5999755859375</ele>
        <time>2026-06-18T10:44:01.000Z</time>
        <extensions>
          <ns3:TrackPointExtension>
            <ns3:atemp>24.0</ns3:atemp>
          </ns3:TrackPointExtension>
        </extensions>
      </trkpt>
      <trkpt lat="42.515236772596836090087890625" lon="19.77108676917850971221923828125">
        <ele>1837.5999755859375</ele>
        <time>2026-06-18T10:44:02.000Z</time>
        <extensions>
          <ns3:TrackPointExtension>
            <ns3:atemp>24.0</ns3:atemp>
          </ns3:TrackPointExtension>
        </extensions>
      </trkpt>
      <trkpt lat="42.515236772596836090087890625" lon="19.77108676917850971221923828125">
        <ele>1837.5999755859375</ele>
        <time>2026-06-18T10:44:03.000Z</time>
        <extensions>
          <ns3:TrackPointExtension>
            <ns3:atemp>24.0</ns3:atemp>
          </ns3:TrackPointExtension>
        </extensions>
      </trkpt>
      <trkpt lat="42.515236772596836090087890625" lon="19.77108676917850971221923828125">
        <ele>1837.5999755859375</ele>
        <time>2026-06-18T10:44:04.000Z</time>
        <extensions>
          <ns3:TrackPointExtension>
            <ns3:atemp>24.0</ns3:atemp>
          </ns3:TrackPointExtension>
        </extensions>
      </trkpt>
      <trkpt lat="42.515247166156768798828125" lon="19.7710828296840190887451171875">
        <ele>1837.5999755859375</ele>
        <time>2026-06-18T10:44:05.000Z</time>
        <extensions>
          <ns3:TrackPointExtension>
            <ns3:atemp>24.0</ns3:atemp>
          </ns3:TrackPointExtension>
        </extensions>
      </trkpt>
      <trkpt lat="42.515250183641910552978515625" lon="19.77108777500689029693603515625">
        <ele>1837.5999755859375</ele>
        <time>2026-06-18T10:44:06.000Z</time>
        <extensions>
          <ns3:TrackPointExtension>
            <ns3:atemp>24.0</ns3:atemp>
          </ns3:TrackPointExtension>
        </extensions>
      </trkpt>
      <trkpt lat="42.51524473540484905242919921875" lon="19.77109112776815891265869140625">
        <ele>1837.5999755859375</ele>
        <time>2026-06-18T10:44:07.000Z</time>
        <extensions>
          <ns3:TrackPointExtension>
            <ns3:atemp>24.0</ns3:atemp>
          </ns3:TrackPointExtension>
        </extensions>
      </trkpt>
      <trkpt lat="42.515236772596836090087890625" lon="19.77108676917850971221923828125">
        <ele>1837.5999755859375</ele>
        <time>2026-06-18T10:44:08.000Z</time>
        <extensions>
          <ns3:TrackPointExtension>
            <ns3:atemp>24.0</ns3:atemp>
          </ns3:TrackPointExtension>
        </extensions>
      </trkpt>
      <trkpt lat="42.515236772596836090087890625" lon="19.77108676917850971221923828125">
        <ele>1837.5999755859375</ele>
        <time>2026-06-18T10:44:09.000Z</time>
        <extensions>
          <ns3:TrackPointExtension>
            <ns3:atemp>24.0</ns3:atemp>
          </ns3:TrackPointExtension>
        </extensions>
      </trkpt>
      <trkpt lat="42.515236772596836090087890625" lon="19.77108676917850971221923828125">
        <ele>1837.5999755859375</ele>
        <time>2026-06-18T10:44:10.000Z</time>
        <extensions>
          <ns3:TrackPointExtension>
            <ns3:atemp>24.0</ns3:atemp>
          </ns3:TrackPointExtension>
        </extensions>
      </trkpt>
      <trkpt lat="42.515236772596836090087890625" lon="19.77108676917850971221923828125">
        <ele>1837.5999755859375</ele>
        <time>2026-06-18T10:44:11.000Z</time>
        <extensions>
          <ns3:TrackPointExtension>
            <ns3:atemp>24.0</ns3:atemp>
          </ns3:TrackPointExtension>
        </extensions>
      </trkpt>
      <trkpt lat="42.515236772596836090087890625" lon="19.77108676917850971221923828125">
        <ele>1837.5999755859375</ele>
        <time>2026-06-18T10:44:12.000Z</time>
        <extensions>
          <ns3:TrackPointExtension>
            <ns3:atemp>24.0</ns3:atemp>
          </ns3:TrackPointExtension>
        </extensions>
      </trkpt>
      <trkpt lat="42.515236772596836090087890625" lon="19.77108676917850971221923828125">
        <ele>1837.5999755859375</ele>
        <time>2026-06-18T10:44:13.000Z</time>
        <extensions>
          <ns3:TrackPointExtension>
            <ns3:atemp>24.0</ns3:atemp>
          </ns3:TrackPointExtension>
        </extensions>
      </trkpt>
      <trkpt lat="42.515236772596836090087890625" lon="19.77108676917850971221923828125">
        <ele>1837.5999755859375</ele>
        <time>2026-06-18T10:44:14.000Z</time>
        <extensions>
          <ns3:TrackPointExtension>
            <ns3:atemp>24.0</ns3:atemp>
          </ns3:TrackPointExtension>
        </extensions>
      </trkpt>
      <trkpt lat="42.515236772596836090087890625" lon="19.77108676917850971221923828125">
        <ele>1837.5999755859375</ele>
        <time>2026-06-18T10:44:15.000Z</time>
        <extensions>
          <ns3:TrackPointExtension>
            <ns3:atemp>23.0</ns3:atemp>
          </ns3:TrackPointExtension>
        </extensions>
      </trkpt>
      <trkpt lat="42.515236772596836090087890625" lon="19.77108676917850971221923828125">
        <ele>1837.5999755859375</ele>
        <time>2026-06-18T10:44:16.000Z</time>
        <extensions>
          <ns3:TrackPointExtension>
            <ns3:atemp>23.0</ns3:atemp>
          </ns3:TrackPointExtension>
        </extensions>
      </trkpt>
      <trkpt lat="42.515236772596836090087890625" lon="19.77108676917850971221923828125">
        <ele>1837.5999755859375</ele>
        <time>2026-06-18T10:44:17.000Z</time>
        <extensions>
          <ns3:TrackPointExtension>
            <ns3:atemp>23.0</ns3:atemp>
          </ns3:TrackPointExtension>
        </extensions>
      </trkpt>
      <trkpt lat="42.515236772596836090087890625" lon="19.77108676917850971221923828125">
        <ele>1837.5999755859375</ele>
        <time>2026-06-18T10:44:18.000Z</time>
        <extensions>
          <ns3:TrackPointExtension>
            <ns3:atemp>23.0</ns3:atemp>
          </ns3:TrackPointExtension>
        </extensions>
      </trkpt>
      <trkpt lat="42.515236772596836090087890625" lon="19.77108676917850971221923828125">
        <ele>1837.5999755859375</ele>
        <time>2026-06-18T10:44:19.000Z</time>
        <extensions>
          <ns3:TrackPointExtension>
            <ns3:atemp>23.0</ns3:atemp>
          </ns3:TrackPointExtension>
        </extensions>
      </trkpt>
      <trkpt lat="42.515236772596836090087890625" lon="19.77108676917850971221923828125">
        <ele>1837.5999755859375</ele>
        <time>2026-06-18T10:44:20.000Z</time>
        <extensions>
          <ns3:TrackPointExtension>
            <ns3:atemp>23.0</ns3:atemp>
          </ns3:TrackPointExtension>
        </extensions>
      </trkpt>
      <trkpt lat="42.515236772596836090087890625" lon="19.77108676917850971221923828125">
        <ele>1837.5999755859375</ele>
        <time>2026-06-18T10:44:21.000Z</time>
        <extensions>
          <ns3:TrackPointExtension>
            <ns3:atemp>23.0</ns3:atemp>
          </ns3:TrackPointExtension>
        </extensions>
      </trkpt>
      <trkpt lat="42.515236772596836090087890625" lon="19.77108676917850971221923828125">
        <ele>1837.5999755859375</ele>
        <time>2026-06-18T10:44:22.000Z</time>
        <extensions>
          <ns3:TrackPointExtension>
            <ns3:atemp>23.0</ns3:atemp>
          </ns3:TrackPointExtension>
        </extensions>
      </trkpt>
      <trkpt lat="42.515236772596836090087890625" lon="19.77108676917850971221923828125">
        <ele>1837.5999755859375</ele>
        <time>2026-06-18T10:44:23.000Z</time>
        <extensions>
          <ns3:TrackPointExtension>
            <ns3:atemp>23.0</ns3:atemp>
          </ns3:TrackPointExtension>
        </extensions>
      </trkpt>
      <trkpt lat="42.5152463279664516448974609375" lon="19.77109297178685665130615234375">
        <ele>1837.5999755859375</ele>
        <time>2026-06-18T10:44:24.000Z</time>
        <extensions>
          <ns3:TrackPointExtension>
            <ns3:atemp>23.0</ns3:atemp>
          </ns3:TrackPointExtension>
        </extensions>
      </trkpt>
      <trkpt lat="42.51524649560451507568359375" lon="19.77110353298485279083251953125">
        <ele>1837.5999755859375</ele>
        <time>2026-06-18T10:44:25.000Z</time>
        <extensions>
          <ns3:TrackPointExtension>
            <ns3:atemp>23.0</ns3:atemp>
          </ns3:TrackPointExtension>
        </extensions>
      </trkpt>
      <trkpt lat="42.51524657942354679107666015625" lon="19.7711036168038845062255859375">
        <ele>1837.5999755859375</ele>
        <time>2026-06-18T10:44:26.000Z</time>
        <extensions>
          <ns3:TrackPointExtension>
            <ns3:atemp>23.0</ns3:atemp>
          </ns3:TrackPointExtension>
        </extensions>
      </trkpt>
      <trkpt lat="42.51524649560451507568359375" lon="19.771108143031597137451171875">
        <ele>1837.5999755859375</ele>
        <time>2026-06-18T10:44:27.000Z</time>
        <extensions>
          <ns3:TrackPointExtension>
            <ns3:atemp>23.0</ns3:atemp>
          </ns3:TrackPointExtension>
        </extensions>
      </trkpt>
      <trkpt lat="42.51524649560451507568359375" lon="19.7711083106696605682373046875">
        <ele>1837.5999755859375</ele>
        <time>2026-06-18T10:44:28.000Z</time>
        <extensions>
          <ns3:TrackPointExtension>
            <ns3:atemp>23.0</ns3:atemp>
          </ns3:TrackPointExtension>
        </extensions>
      </trkpt>
      <trkpt lat="42.51524649560451507568359375" lon="19.771108143031597137451171875">
        <ele>1837.5999755859375</ele>
        <time>2026-06-18T10:44:29.000Z</time>
        <extensions>
          <ns3:TrackPointExtension>
            <ns3:atemp>23.0</ns3:atemp>
          </ns3:TrackPointExtension>
        </extensions>
      </trkpt>
      <trkpt lat="42.51524590887129306793212890625" lon="19.77111518383026123046875">
        <ele>1837.5999755859375</ele>
        <time>2026-06-18T10:44:30.000Z</time>
        <extensions>
          <ns3:TrackPointExtension>
            <ns3:atemp>23.0</ns3:atemp>
          </ns3:TrackPointExtension>
        </extensions>
      </trkpt>
      <trkpt lat="42.51524515450000762939453125" lon="19.77112012915313243865966796875">
        <ele>1837.5999755859375</ele>
        <time>2026-06-18T10:44:31.000Z</time>
        <extensions>
          <ns3:TrackPointExtension>
            <ns3:atemp>23.0</ns3:atemp>
          </ns3:TrackPointExtension>
        </extensions>
      </trkpt>
      <trkpt lat="42.51524649560451507568359375" lon="19.771108143031597137451171875">
        <ele>1837.5999755859375</ele>
        <time>2026-06-18T10:44:32.000Z</time>
        <extensions>
          <ns3:TrackPointExtension>
            <ns3:atemp>23.0</ns3:atemp>
          </ns3:TrackPointExtension>
        </extensions>
      </trkpt>
      <trkpt lat="42.51524649560451507568359375" lon="19.771108143031597137451171875">
        <ele>1837.5999755859375</ele>
        <time>2026-06-18T10:44:33.000Z</time>
        <extensions>
          <ns3:TrackPointExtension>
            <ns3:atemp>23.0</ns3:atemp>
          </ns3:TrackPointExtension>
        </extensions>
      </trkpt>
      <trkpt lat="42.51524649560451507568359375" lon="19.771108143031597137451171875">
        <ele>1837.5999755859375</ele>
        <time>2026-06-18T10:44:34.000Z</time>
        <extensions>
          <ns3:TrackPointExtension>
            <ns3:atemp>23.0</ns3:atemp>
          </ns3:TrackPointExtension>
        </extensions>
      </trkpt>
      <trkpt lat="42.51524649560451507568359375" lon="19.771108143031597137451171875">
        <ele>1837.5999755859375</ele>
        <time>2026-06-18T10:44:35.000Z</time>
        <extensions>
          <ns3:TrackPointExtension>
            <ns3:atemp>23.0</ns3:atemp>
          </ns3:TrackPointExtension>
        </extensions>
      </trkpt>
      <trkpt lat="42.51524649560451507568359375" lon="19.771108143031597137451171875">
        <ele>1837.5999755859375</ele>
        <time>2026-06-18T10:44:36.000Z</time>
        <extensions>
          <ns3:TrackPointExtension>
            <ns3:atemp>23.0</ns3:atemp>
          </ns3:TrackPointExtension>
        </extensions>
      </trkpt>
      <trkpt lat="42.51524649560451507568359375" lon="19.771108143031597137451171875">
        <ele>1837.5999755859375</ele>
        <time>2026-06-18T10:44:37.000Z</time>
        <extensions>
          <ns3:TrackPointExtension>
            <ns3:atemp>23.0</ns3:atemp>
          </ns3:TrackPointExtension>
        </extensions>
      </trkpt>
      <trkpt lat="42.51524649560451507568359375" lon="19.771108143031597137451171875">
        <ele>1837.5999755859375</ele>
        <time>2026-06-18T10:44:38.000Z</time>
        <extensions>
          <ns3:TrackPointExtension>
            <ns3:atemp>23.0</ns3:atemp>
          </ns3:TrackPointExtension>
        </extensions>
      </trkpt>
      <trkpt lat="42.51524649560451507568359375" lon="19.771108143031597137451171875">
        <ele>1837.5999755859375</ele>
        <time>2026-06-18T10:44:39.000Z</time>
        <extensions>
          <ns3:TrackPointExtension>
            <ns3:atemp>23.0</ns3:atemp>
          </ns3:TrackPointExtension>
        </extensions>
      </trkpt>
      <trkpt lat="42.51524649560451507568359375" lon="19.771108143031597137451171875">
        <ele>1837.5999755859375</ele>
        <time>2026-06-18T10:44:40.000Z</time>
        <extensions>
          <ns3:TrackPointExtension>
            <ns3:atemp>23.0</ns3:atemp>
          </ns3:TrackPointExtension>
        </extensions>
      </trkpt>
      <trkpt lat="42.51524649560451507568359375" lon="19.771108143031597137451171875">
        <ele>1837.5999755859375</ele>
        <time>2026-06-18T10:44:41.000Z</time>
        <extensions>
          <ns3:TrackPointExtension>
            <ns3:atemp>23.0</ns3:atemp>
          </ns3:TrackPointExtension>
        </extensions>
      </trkpt>
      <trkpt lat="42.51524649560451507568359375" lon="19.771108143031597137451171875">
        <ele>1837.5999755859375</ele>
        <time>2026-06-18T10:44:42.000Z</time>
        <extensions>
          <ns3:TrackPointExtension>
            <ns3:atemp>23.0</ns3:atemp>
          </ns3:TrackPointExtension>
        </extensions>
      </trkpt>
      <trkpt lat="42.51524649560451507568359375" lon="19.771108143031597137451171875">
        <ele>1837.5999755859375</ele>
        <time>2026-06-18T10:44:43.000Z</time>
        <extensions>
          <ns3:TrackPointExtension>
            <ns3:atemp>23.0</ns3:atemp>
          </ns3:TrackPointExtension>
        </extensions>
      </trkpt>
      <trkpt lat="42.51524649560451507568359375" lon="19.771108143031597137451171875">
        <ele>1837.5999755859375</ele>
        <time>2026-06-18T10:44:44.000Z</time>
        <extensions>
          <ns3:TrackPointExtension>
            <ns3:atemp>23.0</ns3:atemp>
          </ns3:TrackPointExtension>
        </extensions>
      </trkpt>
      <trkpt lat="42.51524649560451507568359375" lon="19.771108143031597137451171875">
        <ele>1837.5999755859375</ele>
        <time>2026-06-18T10:44:45.000Z</time>
        <extensions>
          <ns3:TrackPointExtension>
            <ns3:atemp>23.0</ns3:atemp>
          </ns3:TrackPointExtension>
        </extensions>
      </trkpt>
      <trkpt lat="42.51524649560451507568359375" lon="19.771108143031597137451171875">
        <ele>1840.4000244140625</ele>
        <time>2026-06-18T10:44:46.000Z</time>
        <extensions>
          <ns3:TrackPointExtension>
            <ns3:atemp>23.0</ns3:atemp>
          </ns3:TrackPointExtension>
        </extensions>
      </trkpt>
      <trkpt lat="42.51524649560451507568359375" lon="19.771108143031597137451171875">
        <ele>1840.4000244140625</ele>
        <time>2026-06-18T10:44:47.000Z</time>
        <extensions>
          <ns3:TrackPointExtension>
            <ns3:atemp>23.0</ns3:atemp>
          </ns3:TrackPointExtension>
        </extensions>
      </trkpt>
      <trkpt lat="42.51524649560451507568359375" lon="19.771108143031597137451171875">
        <ele>1840.5999755859375</ele>
        <time>2026-06-18T10:44:48.000Z</time>
        <extensions>
          <ns3:TrackPointExtension>
            <ns3:atemp>23.0</ns3:atemp>
          </ns3:TrackPointExtension>
        </extensions>
      </trkpt>
      <trkpt lat="42.51524649560451507568359375" lon="19.771108143031597137451171875">
        <ele>1840.5999755859375</ele>
        <time>2026-06-18T10:44:49.000Z</time>
        <extensions>
          <ns3:TrackPointExtension>
            <ns3:atemp>23.0</ns3:atemp>
          </ns3:TrackPointExtension>
        </extensions>
      </trkpt>
      <trkpt lat="42.51524649560451507568359375" lon="19.771108143031597137451171875">
        <ele>1840.5999755859375</ele>
        <time>2026-06-18T10:44:50.000Z</time>
        <extensions>
          <ns3:TrackPointExtension>
            <ns3:atemp>23.0</ns3:atemp>
          </ns3:TrackPointExtension>
        </extensions>
      </trkpt>
      <trkpt lat="42.51524649560451507568359375" lon="19.771108143031597137451171875">
        <ele>1840.5999755859375</ele>
        <time>2026-06-18T10:44:51.000Z</time>
        <extensions>
          <ns3:TrackPointExtension>
            <ns3:atemp>23.0</ns3:atemp>
          </ns3:TrackPointExtension>
        </extensions>
      </trkpt>
      <trkpt lat="42.51524649560451507568359375" lon="19.771108143031597137451171875">
        <ele>1840.800048828125</ele>
        <time>2026-06-18T10:44:52.000Z</time>
        <extensions>
          <ns3:TrackPointExtension>
            <ns3:atemp>23.0</ns3:atemp>
          </ns3:TrackPointExtension>
        </extensions>
      </trkpt>
      <trkpt lat="42.51524649560451507568359375" lon="19.771108143031597137451171875">
        <ele>1840.800048828125</ele>
        <time>2026-06-18T10:44:53.000Z</time>
        <extensions>
          <ns3:TrackPointExtension>
            <ns3:atemp>23.0</ns3:atemp>
          </ns3:TrackPointExtension>
        </extensions>
      </trkpt>
      <trkpt lat="42.51524649560451507568359375" lon="19.771108143031597137451171875">
        <ele>1840.800048828125</ele>
        <time>2026-06-18T10:44:54.000Z</time>
        <extensions>
          <ns3:TrackPointExtension>
            <ns3:atemp>23.0</ns3:atemp>
          </ns3:TrackPointExtension>
        </extensions>
      </trkpt>
      <trkpt lat="42.51524649560451507568359375" lon="19.771108143031597137451171875">
        <ele>1840.800048828125</ele>
        <time>2026-06-18T10:44:55.000Z</time>
        <extensions>
          <ns3:TrackPointExtension>
            <ns3:atemp>23.0</ns3:atemp>
          </ns3:TrackPointExtension>
        </extensions>
      </trkpt>
      <trkpt lat="42.51524649560451507568359375" lon="19.771108143031597137451171875">
        <ele>1840.800048828125</ele>
        <time>2026-06-18T10:44:56.000Z</time>
        <extensions>
          <ns3:TrackPointExtension>
            <ns3:atemp>23.0</ns3:atemp>
          </ns3:TrackPointExtension>
        </extensions>
      </trkpt>
      <trkpt lat="42.51524649560451507568359375" lon="19.771108143031597137451171875">
        <ele>1840.800048828125</ele>
        <time>2026-06-18T10:44:57.000Z</time>
        <extensions>
          <ns3:TrackPointExtension>
            <ns3:atemp>23.0</ns3:atemp>
          </ns3:TrackPointExtension>
        </extensions>
      </trkpt>
      <trkpt lat="42.51524649560451507568359375" lon="19.771108143031597137451171875">
        <ele>1840.800048828125</ele>
        <time>2026-06-18T10:44:58.000Z</time>
        <extensions>
          <ns3:TrackPointExtension>
            <ns3:atemp>23.0</ns3:atemp>
          </ns3:TrackPointExtension>
        </extensions>
      </trkpt>
      <trkpt lat="42.51524649560451507568359375" lon="19.771108143031597137451171875">
        <ele>1840.5999755859375</ele>
        <time>2026-06-18T10:44:59.000Z</time>
        <extensions>
          <ns3:TrackPointExtension>
            <ns3:atemp>23.0</ns3:atemp>
          </ns3:TrackPointExtension>
        </extensions>
      </trkpt>
      <trkpt lat="42.51524649560451507568359375" lon="19.771108143031597137451171875">
        <ele>1840.5999755859375</ele>
        <time>2026-06-18T10:45:00.000Z</time>
        <extensions>
          <ns3:TrackPointExtension>
            <ns3:atemp>23.0</ns3:atemp>
          </ns3:TrackPointExtension>
        </extensions>
      </trkpt>
      <trkpt lat="42.51524649560451507568359375" lon="19.771108143031597137451171875">
        <ele>1840.4000244140625</ele>
        <time>2026-06-18T10:45:01.000Z</time>
        <extensions>
          <ns3:TrackPointExtension>
            <ns3:atemp>23.0</ns3:atemp>
          </ns3:TrackPointExtension>
        </extensions>
      </trkpt>
      <trkpt lat="42.51524649560451507568359375" lon="19.771108143031597137451171875">
        <ele>1840.4000244140625</ele>
        <time>2026-06-18T10:45:02.000Z</time>
        <extensions>
          <ns3:TrackPointExtension>
            <ns3:atemp>23.0</ns3:atemp>
          </ns3:TrackPointExtension>
        </extensions>
      </trkpt>
      <trkpt lat="42.51524649560451507568359375" lon="19.771108143031597137451171875">
        <ele>1840.4000244140625</ele>
        <time>2026-06-18T10:45:03.000Z</time>
        <extensions>
          <ns3:TrackPointExtension>
            <ns3:atemp>23.0</ns3:atemp>
          </ns3:TrackPointExtension>
        </extensions>
      </trkpt>
      <trkpt lat="42.51524649560451507568359375" lon="19.771108143031597137451171875">
        <ele>1840.4000244140625</ele>
        <time>2026-06-18T10:45:04.000Z</time>
        <extensions>
          <ns3:TrackPointExtension>
            <ns3:atemp>23.0</ns3:atemp>
          </ns3:TrackPointExtension>
        </extensions>
      </trkpt>
      <trkpt lat="42.51524649560451507568359375" lon="19.771108143031597137451171875">
        <ele>1840.4000244140625</ele>
        <time>2026-06-18T10:45:05.000Z</time>
        <extensions>
          <ns3:TrackPointExtension>
            <ns3:atemp>23.0</ns3:atemp>
          </ns3:TrackPointExtension>
        </extensions>
      </trkpt>
      <trkpt lat="42.51524649560451507568359375" lon="19.771108143031597137451171875">
        <ele>1840.4000244140625</ele>
        <time>2026-06-18T10:45:06.000Z</time>
        <extensions>
          <ns3:TrackPointExtension>
            <ns3:atemp>23.0</ns3:atemp>
          </ns3:TrackPointExtension>
        </extensions>
      </trkpt>
      <trkpt lat="42.51524649560451507568359375" lon="19.771108143031597137451171875">
        <ele>1840.199951171875</ele>
        <time>2026-06-18T10:45:07.000Z</time>
        <extensions>
          <ns3:TrackPointExtension>
            <ns3:atemp>23.0</ns3:atemp>
          </ns3:TrackPointExtension>
        </extensions>
      </trkpt>
      <trkpt lat="42.51524649560451507568359375" lon="19.771108143031597137451171875">
        <ele>1840.199951171875</ele>
        <time>2026-06-18T10:45:08.000Z</time>
        <extensions>
          <ns3:TrackPointExtension>
            <ns3:atemp>23.0</ns3:atemp>
          </ns3:TrackPointExtension>
        </extensions>
      </trkpt>
      <trkpt lat="42.51524649560451507568359375" lon="19.771108143031597137451171875">
        <ele>1840.199951171875</ele>
        <time>2026-06-18T10:45:09.000Z</time>
        <extensions>
          <ns3:TrackPointExtension>
            <ns3:atemp>23.0</ns3:atemp>
          </ns3:TrackPointExtension>
        </extensions>
      </trkpt>
      <trkpt lat="42.51524649560451507568359375" lon="19.771108143031597137451171875">
        <ele>1840.199951171875</ele>
        <time>2026-06-18T10:45:10.000Z</time>
        <extensions>
          <ns3:TrackPointExtension>
            <ns3:atemp>23.0</ns3:atemp>
          </ns3:TrackPointExtension>
        </extensions>
      </trkpt>
      <trkpt lat="42.51524649560451507568359375" lon="19.771108143031597137451171875">
        <ele>1840.199951171875</ele>
        <time>2026-06-18T10:45:11.000Z</time>
        <extensions>
          <ns3:TrackPointExtension>
            <ns3:atemp>23.0</ns3:atemp>
          </ns3:TrackPointExtension>
        </extensions>
      </trkpt>
      <trkpt lat="42.51524649560451507568359375" lon="19.771108143031597137451171875">
        <ele>1840.199951171875</ele>
        <time>2026-06-18T10:45:12.000Z</time>
        <extensions>
          <ns3:TrackPointExtension>
            <ns3:atemp>23.0</ns3:atemp>
          </ns3:TrackPointExtension>
        </extensions>
      </trkpt>
      <trkpt lat="42.51524649560451507568359375" lon="19.771108143031597137451171875">
        <ele>1840.199951171875</ele>
        <time>2026-06-18T10:45:13.000Z</time>
        <extensions>
          <ns3:TrackPointExtension>
            <ns3:atemp>23.0</ns3:atemp>
          </ns3:TrackPointExtension>
        </extensions>
      </trkpt>
      <trkpt lat="42.51524649560451507568359375" lon="19.771108143031597137451171875">
        <ele>1840</ele>
        <time>2026-06-18T10:45:14.000Z</time>
        <extensions>
          <ns3:TrackPointExtension>
            <ns3:atemp>23.0</ns3:atemp>
          </ns3:TrackPointExtension>
        </extensions>
      </trkpt>
      <trkpt lat="42.51524649560451507568359375" lon="19.771108143031597137451171875">
        <ele>1840</ele>
        <time>2026-06-18T10:45:15.000Z</time>
        <extensions>
          <ns3:TrackPointExtension>
            <ns3:atemp>23.0</ns3:atemp>
          </ns3:TrackPointExtension>
        </extensions>
      </trkpt>
      <trkpt lat="42.51524649560451507568359375" lon="19.771108143031597137451171875">
        <ele>1840</ele>
        <time>2026-06-18T10:45:16.000Z</time>
        <extensions>
          <ns3:TrackPointExtension>
            <ns3:atemp>23.0</ns3:atemp>
          </ns3:TrackPointExtension>
        </extensions>
      </trkpt>
      <trkpt lat="42.51524649560451507568359375" lon="19.771108143031597137451171875">
        <ele>1840</ele>
        <time>2026-06-18T10:45:17.000Z</time>
        <extensions>
          <ns3:TrackPointExtension>
            <ns3:atemp>23.0</ns3:atemp>
          </ns3:TrackPointExtension>
        </extensions>
      </trkpt>
      <trkpt lat="42.51524649560451507568359375" lon="19.771108143031597137451171875">
        <ele>1840</ele>
        <time>2026-06-18T10:45:18.000Z</time>
        <extensions>
          <ns3:TrackPointExtension>
            <ns3:atemp>23.0</ns3:atemp>
          </ns3:TrackPointExtension>
        </extensions>
      </trkpt>
      <trkpt lat="42.51524649560451507568359375" lon="19.771108143031597137451171875">
        <ele>1840</ele>
        <time>2026-06-18T10:45:19.000Z</time>
        <extensions>
          <ns3:TrackPointExtension>
            <ns3:atemp>23.0</ns3:atemp>
          </ns3:TrackPointExtension>
        </extensions>
      </trkpt>
      <trkpt lat="42.5152449868619441986083984375" lon="19.77112214080989360809326171875">
        <ele>1839.800048828125</ele>
        <time>2026-06-18T10:45:20.000Z</time>
        <extensions>
          <ns3:TrackPointExtension>
            <ns3:atemp>23.0</ns3:atemp>
          </ns3:TrackPointExtension>
        </extensions>
      </trkpt>
      <trkpt lat="42.51524649560451507568359375" lon="19.771108143031597137451171875">
        <ele>1839.800048828125</ele>
        <time>2026-06-18T10:45:21.000Z</time>
        <extensions>
          <ns3:TrackPointExtension>
            <ns3:atemp>23.0</ns3:atemp>
          </ns3:TrackPointExtension>
        </extensions>
      </trkpt>
      <trkpt lat="42.51524649560451507568359375" lon="19.771108143031597137451171875">
        <ele>1839.800048828125</ele>
        <time>2026-06-18T10:45:22.000Z</time>
        <extensions>
          <ns3:TrackPointExtension>
            <ns3:atemp>23.0</ns3:atemp>
          </ns3:TrackPointExtension>
        </extensions>
      </trkpt>
      <trkpt lat="42.515244148671627044677734375" lon="19.7711237333714962005615234375">
        <ele>1840</ele>
        <time>2026-06-18T10:45:23.000Z</time>
        <extensions>
          <ns3:TrackPointExtension>
            <ns3:atemp>23.0</ns3:atemp>
          </ns3:TrackPointExtension>
        </extensions>
      </trkpt>
      <trkpt lat="42.515242807567119598388671875" lon="19.77112934924662113189697265625">
        <ele>1840</ele>
        <time>2026-06-18T10:45:24.000Z</time>
        <extensions>
          <ns3:TrackPointExtension>
            <ns3:atemp>23.0</ns3:atemp>
          </ns3:TrackPointExtension>
        </extensions>
      </trkpt>
      <trkpt lat="42.51524289138615131378173828125" lon="19.7711294330656528472900390625">
        <ele>1840</ele>
        <time>2026-06-18T10:45:25.000Z</time>
        <extensions>
          <ns3:TrackPointExtension>
            <ns3:atemp>23.0</ns3:atemp>
          </ns3:TrackPointExtension>
        </extensions>
      </trkpt>
      <trkpt lat="42.51524825580418109893798828125" lon="19.77114393375813961029052734375">
        <ele>1840.199951171875</ele>
        <time>2026-06-18T10:45:26.000Z</time>
        <extensions>
          <ns3:TrackPointExtension>
            <ns3:atemp>23.0</ns3:atemp>
          </ns3:TrackPointExtension>
        </extensions>
      </trkpt>
      <trkpt lat="42.51525060273706912994384765625" lon="19.77115013636648654937744140625">
        <ele>1840.199951171875</ele>
        <time>2026-06-18T10:45:27.000Z</time>
        <extensions>
          <ns3:TrackPointExtension>
            <ns3:atemp>23.0</ns3:atemp>
          </ns3:TrackPointExtension>
        </extensions>
      </trkpt>
      <trkpt lat="42.5152511894702911376953125" lon="19.7711508907377719879150390625">
        <ele>1840.199951171875</ele>
        <time>2026-06-18T10:45:28.000Z</time>
        <extensions>
          <ns3:TrackPointExtension>
            <ns3:atemp>23.0</ns3:atemp>
          </ns3:TrackPointExtension>
        </extensions>
      </trkpt>
      <trkpt lat="42.5152511894702911376953125" lon="19.7711508907377719879150390625">
        <ele>1840.199951171875</ele>
        <time>2026-06-18T10:45:29.000Z</time>
        <extensions>
          <ns3:TrackPointExtension>
            <ns3:atemp>23.0</ns3:atemp>
          </ns3:TrackPointExtension>
        </extensions>
      </trkpt>
      <trkpt lat="42.5152511894702911376953125" lon="19.7711508907377719879150390625">
        <ele>1840.199951171875</ele>
        <time>2026-06-18T10:45:30.000Z</time>
        <extensions>
          <ns3:TrackPointExtension>
            <ns3:atemp>23.0</ns3:atemp>
          </ns3:TrackPointExtension>
        </extensions>
      </trkpt>
      <trkpt lat="42.5152511894702911376953125" lon="19.7711508907377719879150390625">
        <ele>1840.199951171875</ele>
        <time>2026-06-18T10:45:31.000Z</time>
        <extensions>
          <ns3:TrackPointExtension>
            <ns3:atemp>23.0</ns3:atemp>
          </ns3:TrackPointExtension>
        </extensions>
      </trkpt>
      <trkpt lat="42.5152511894702911376953125" lon="19.7711508907377719879150390625">
        <ele>1840.199951171875</ele>
        <time>2026-06-18T10:45:32.000Z</time>
        <extensions>
          <ns3:TrackPointExtension>
            <ns3:atemp>23.0</ns3:atemp>
          </ns3:TrackPointExtension>
        </extensions>
      </trkpt>
      <trkpt lat="42.5152511894702911376953125" lon="19.7711508907377719879150390625">
        <ele>1840.199951171875</ele>
        <time>2026-06-18T10:45:33.000Z</time>
        <extensions>
          <ns3:TrackPointExtension>
            <ns3:atemp>23.0</ns3:atemp>
          </ns3:TrackPointExtension>
        </extensions>
      </trkpt>
      <trkpt lat="42.5152511894702911376953125" lon="19.7711508907377719879150390625">
        <ele>1840.199951171875</ele>
        <time>2026-06-18T10:45:34.000Z</time>
        <extensions>
          <ns3:TrackPointExtension>
            <ns3:atemp>23.0</ns3:atemp>
          </ns3:TrackPointExtension>
        </extensions>
      </trkpt>
      <trkpt lat="42.5152511894702911376953125" lon="19.7711508907377719879150390625">
        <ele>1840.199951171875</ele>
        <time>2026-06-18T10:45:35.000Z</time>
        <extensions>
          <ns3:TrackPointExtension>
            <ns3:atemp>23.0</ns3:atemp>
          </ns3:TrackPointExtension>
        </extensions>
      </trkpt>
      <trkpt lat="42.5152511894702911376953125" lon="19.7711508907377719879150390625">
        <ele>1840.199951171875</ele>
        <time>2026-06-18T10:45:36.000Z</time>
        <extensions>
          <ns3:TrackPointExtension>
            <ns3:atemp>23.0</ns3:atemp>
          </ns3:TrackPointExtension>
        </extensions>
      </trkpt>
      <trkpt lat="42.5152511894702911376953125" lon="19.7711508907377719879150390625">
        <ele>1840.199951171875</ele>
        <time>2026-06-18T10:45:37.000Z</time>
        <extensions>
          <ns3:TrackPointExtension>
            <ns3:atemp>23.0</ns3:atemp>
          </ns3:TrackPointExtension>
        </extensions>
      </trkpt>
      <trkpt lat="42.5152511894702911376953125" lon="19.7711508907377719879150390625">
        <ele>1840.199951171875</ele>
        <time>2026-06-18T10:45:38.000Z</time>
        <extensions>
          <ns3:TrackPointExtension>
            <ns3:atemp>23.0</ns3:atemp>
          </ns3:TrackPointExtension>
        </extensions>
      </trkpt>
      <trkpt lat="42.5152511894702911376953125" lon="19.7711508907377719879150390625">
        <ele>1840.199951171875</ele>
        <time>2026-06-18T10:45:39.000Z</time>
        <extensions>
          <ns3:TrackPointExtension>
            <ns3:atemp>23.0</ns3:atemp>
          </ns3:TrackPointExtension>
        </extensions>
      </trkpt>
      <trkpt lat="42.5152511894702911376953125" lon="19.7711508907377719879150390625">
        <ele>1840.199951171875</ele>
        <time>2026-06-18T10:45:40.000Z</time>
        <extensions>
          <ns3:TrackPointExtension>
            <ns3:atemp>22.0</ns3:atemp>
          </ns3:TrackPointExtension>
        </extensions>
      </trkpt>
      <trkpt lat="42.5152511894702911376953125" lon="19.7711508907377719879150390625">
        <ele>1840.199951171875</ele>
        <time>2026-06-18T10:45:41.000Z</time>
        <extensions>
          <ns3:TrackPointExtension>
            <ns3:atemp>23.0</ns3:atemp>
          </ns3:TrackPointExtension>
        </extensions>
      </trkpt>
      <trkpt lat="42.5152511894702911376953125" lon="19.7711508907377719879150390625">
        <ele>1840.4000244140625</ele>
        <time>2026-06-18T10:45:42.000Z</time>
        <extensions>
          <ns3:TrackPointExtension>
            <ns3:atemp>22.0</ns3:atemp>
          </ns3:TrackPointExtension>
        </extensions>
      </trkpt>
      <trkpt lat="42.5152511894702911376953125" lon="19.7711508907377719879150390625">
        <ele>1840.4000244140625</ele>
        <time>2026-06-18T10:45:43.000Z</time>
        <extensions>
          <ns3:TrackPointExtension>
            <ns3:atemp>22.0</ns3:atemp>
          </ns3:TrackPointExtension>
        </extensions>
      </trkpt>
      <trkpt lat="42.5152511894702911376953125" lon="19.7711508907377719879150390625">
        <ele>1840.4000244140625</ele>
        <time>2026-06-18T10:45:44.000Z</time>
        <extensions>
          <ns3:TrackPointExtension>
            <ns3:atemp>22.0</ns3:atemp>
          </ns3:TrackPointExtension>
        </extensions>
      </trkpt>
      <trkpt lat="42.5152511894702911376953125" lon="19.7711508907377719879150390625">
        <ele>1840.4000244140625</ele>
        <time>2026-06-18T10:45:45.000Z</time>
        <extensions>
          <ns3:TrackPointExtension>
            <ns3:atemp>22.0</ns3:atemp>
          </ns3:TrackPointExtension>
        </extensions>
      </trkpt>
      <trkpt lat="42.5152511894702911376953125" lon="19.7711508907377719879150390625">
        <ele>1840.5999755859375</ele>
        <time>2026-06-18T10:45:46.000Z</time>
        <extensions>
          <ns3:TrackPointExtension>
            <ns3:atemp>22.0</ns3:atemp>
          </ns3:TrackPointExtension>
        </extensions>
      </trkpt>
      <trkpt lat="42.51525194384157657623291015625" lon="19.7711508907377719879150390625">
        <ele>1840.5999755859375</ele>
        <time>2026-06-18T10:45:47.000Z</time>
        <extensions>
          <ns3:TrackPointExtension>
            <ns3:atemp>22.0</ns3:atemp>
          </ns3:TrackPointExtension>
        </extensions>
      </trkpt>
      <trkpt lat="42.5152592360973358154296875" lon="19.7711636312305927276611328125">
        <ele>1840.5999755859375</ele>
        <time>2026-06-18T10:45:48.000Z</time>
        <extensions>
          <ns3:TrackPointExtension>
            <ns3:atemp>23.0</ns3:atemp>
          </ns3:TrackPointExtension>
        </extensions>
      </trkpt>
      <trkpt lat="42.5152647681534290313720703125" lon="19.771181233227252960205078125">
        <ele>1840.5999755859375</ele>
        <time>2026-06-18T10:45:49.000Z</time>
        <extensions>
          <ns3:TrackPointExtension>
            <ns3:atemp>22.0</ns3:atemp>
          </ns3:TrackPointExtension>
        </extensions>
      </trkpt>
      <trkpt lat="42.51526636071503162384033203125" lon="19.771202020347118377685546875">
        <ele>1840.5999755859375</ele>
        <time>2026-06-18T10:45:50.000Z</time>
        <extensions>
          <ns3:TrackPointExtension>
            <ns3:atemp>22.0</ns3:atemp>
          </ns3:TrackPointExtension>
        </extensions>
      </trkpt>
      <trkpt lat="42.51526585780084133148193359375" lon="19.771224819123744964599609375">
        <ele>1840.5999755859375</ele>
        <time>2026-06-18T10:45:51.000Z</time>
        <extensions>
          <ns3:TrackPointExtension>
            <ns3:atemp>23.0</ns3:atemp>
          </ns3:TrackPointExtension>
        </extensions>
      </trkpt>
      <trkpt lat="42.515266276895999908447265625" lon="19.771254993975162506103515625">
        <ele>1840.5999755859375</ele>
        <time>2026-06-18T10:45:52.000Z</time>
        <extensions>
          <ns3:TrackPointExtension>
            <ns3:atemp>22.0</ns3:atemp>
          </ns3:TrackPointExtension>
        </extensions>
      </trkpt>
      <trkpt lat="42.5152671150863170623779296875" lon="19.771290533244609832763671875">
        <ele>1840.5999755859375</ele>
        <time>2026-06-18T10:45:53.000Z</time>
        <extensions>
          <ns3:TrackPointExtension>
            <ns3:atemp>22.0</ns3:atemp>
          </ns3:TrackPointExtension>
        </extensions>
      </trkpt>
      <trkpt lat="42.5152753293514251708984375" lon="19.77132431231439113616943359375">
        <ele>1840.5999755859375</ele>
        <time>2026-06-18T10:45:54.000Z</time>
        <extensions>
          <ns3:TrackPointExtension>
            <ns3:atemp>22.0</ns3:atemp>
          </ns3:TrackPointExtension>
        </extensions>
      </trkpt>
      <trkpt lat="42.51528312452137470245361328125" lon="19.77135867811739444732666015625">
        <ele>1840.5999755859375</ele>
        <time>2026-06-18T10:45:55.000Z</time>
        <extensions>
          <ns3:TrackPointExtension>
            <ns3:atemp>22.0</ns3:atemp>
          </ns3:TrackPointExtension>
        </extensions>
      </trkpt>
      <trkpt lat="42.515289075672626495361328125" lon="19.7713943012058734893798828125">
        <ele>1840.4000244140625</ele>
        <time>2026-06-18T10:45:56.000Z</time>
        <extensions>
          <ns3:TrackPointExtension>
            <ns3:atemp>22.0</ns3:atemp>
          </ns3:TrackPointExtension>
        </extensions>
      </trkpt>
      <trkpt lat="42.51529066823422908782958984375" lon="19.7714315168559551239013671875">
        <ele>1840.4000244140625</ele>
        <time>2026-06-18T10:45:57.000Z</time>
        <extensions>
          <ns3:TrackPointExtension>
            <ns3:atemp>22.0</ns3:atemp>
          </ns3:TrackPointExtension>
        </extensions>
      </trkpt>
      <trkpt lat="42.5152949430048465728759765625" lon="19.7714677266776561737060546875">
        <ele>1840.4000244140625</ele>
        <time>2026-06-18T10:45:58.000Z</time>
        <extensions>
          <ns3:TrackPointExtension>
            <ns3:atemp>22.0</ns3:atemp>
          </ns3:TrackPointExtension>
        </extensions>
      </trkpt>
      <trkpt lat="42.5153036601841449737548828125" lon="19.77150368504226207733154296875">
        <ele>1840.4000244140625</ele>
        <time>2026-06-18T10:45:59.000Z</time>
        <extensions>
          <ns3:TrackPointExtension>
            <ns3:atemp>22.0</ns3:atemp>
          </ns3:TrackPointExtension>
        </extensions>
      </trkpt>
      <trkpt lat="42.5153133831918239593505859375" lon="19.77154391817748546600341796875">
        <ele>1840.4000244140625</ele>
        <time>2026-06-18T10:46:00.000Z</time>
        <extensions>
          <ns3:TrackPointExtension>
            <ns3:atemp>22.0</ns3:atemp>
          </ns3:TrackPointExtension>
        </extensions>
      </trkpt>
      <trkpt lat="42.51532101072371006011962890625" lon="19.7715844027698040008544921875">
        <ele>1840.4000244140625</ele>
        <time>2026-06-18T10:46:01.000Z</time>
        <extensions>
          <ns3:TrackPointExtension>
            <ns3:atemp>22.0</ns3:atemp>
          </ns3:TrackPointExtension>
        </extensions>
      </trkpt>
      <trkpt lat="42.5153289735317230224609375" lon="19.7716315090656280517578125">
        <ele>1840.4000244140625</ele>
        <time>2026-06-18T10:46:02.000Z</time>
        <extensions>
          <ns3:TrackPointExtension>
            <ns3:atemp>22.0</ns3:atemp>
          </ns3:TrackPointExtension>
        </extensions>
      </trkpt>
      <trkpt lat="42.5153388641774654388427734375" lon="19.771677441895008087158203125">
        <ele>1840.4000244140625</ele>
        <time>2026-06-18T10:46:03.000Z</time>
        <extensions>
          <ns3:TrackPointExtension>
            <ns3:atemp>22.0</ns3:atemp>
          </ns3:TrackPointExtension>
        </extensions>
      </trkpt>
      <trkpt lat="42.515349425375461578369140625" lon="19.7717222012579441070556640625">
        <ele>1840.199951171875</ele>
        <time>2026-06-18T10:46:04.000Z</time>
        <extensions>
          <ns3:TrackPointExtension>
            <ns3:atemp>22.0</ns3:atemp>
          </ns3:TrackPointExtension>
        </extensions>
      </trkpt>
      <trkpt lat="42.515356130897998809814453125" lon="19.7717671282589435577392578125">
        <ele>1840.199951171875</ele>
        <time>2026-06-18T10:46:05.000Z</time>
        <extensions>
          <ns3:TrackPointExtension>
            <ns3:atemp>22.0</ns3:atemp>
          </ns3:TrackPointExtension>
        </extensions>
      </trkpt>
      <trkpt lat="42.51535990275442600250244140625" lon="19.77181163616478443145751953125">
        <ele>1840.199951171875</ele>
        <time>2026-06-18T10:46:06.000Z</time>
        <extensions>
          <ns3:TrackPointExtension>
            <ns3:atemp>22.0</ns3:atemp>
          </ns3:TrackPointExtension>
        </extensions>
      </trkpt>
      <trkpt lat="42.51536342315375804901123046875" lon="19.77185673080384731292724609375">
        <ele>1840.199951171875</ele>
        <time>2026-06-18T10:46:07.000Z</time>
        <extensions>
          <ns3:TrackPointExtension>
            <ns3:atemp>22.0</ns3:atemp>
          </ns3:TrackPointExtension>
        </extensions>
      </trkpt>
      <trkpt lat="42.5153630040585994720458984375" lon="19.77189931087195873260498046875">
        <ele>1840.199951171875</ele>
        <time>2026-06-18T10:46:08.000Z</time>
        <extensions>
          <ns3:TrackPointExtension>
            <ns3:atemp>22.0</ns3:atemp>
          </ns3:TrackPointExtension>
        </extensions>
      </trkpt>
      <trkpt lat="42.5153606571257114410400390625" lon="19.771938286721706390380859375">
        <ele>1840.4000244140625</ele>
        <time>2026-06-18T10:46:09.000Z</time>
        <extensions>
          <ns3:TrackPointExtension>
            <ns3:atemp>22.0</ns3:atemp>
          </ns3:TrackPointExtension>
        </extensions>
      </trkpt>
      <trkpt lat="42.51535638235509395599365234375" lon="19.771971814334392547607421875">
        <ele>1840.5999755859375</ele>
        <time>2026-06-18T10:46:10.000Z</time>
        <extensions>
          <ns3:TrackPointExtension>
            <ns3:atemp>22.0</ns3:atemp>
          </ns3:TrackPointExtension>
        </extensions>
      </trkpt>
      <trkpt lat="42.51535370014607906341552734375" lon="19.77200366556644439697265625">
        <ele>1840.800048828125</ele>
        <time>2026-06-18T10:46:11.000Z</time>
        <extensions>
          <ns3:TrackPointExtension>
            <ns3:atemp>22.0</ns3:atemp>
          </ns3:TrackPointExtension>
        </extensions>
      </trkpt>
      <trkpt lat="42.515354454517364501953125" lon="19.77202780544757843017578125">
        <ele>1841.199951171875</ele>
        <time>2026-06-18T10:46:12.000Z</time>
        <extensions>
          <ns3:TrackPointExtension>
            <ns3:atemp>22.0</ns3:atemp>
          </ns3:TrackPointExtension>
        </extensions>
      </trkpt>
      <trkpt lat="42.5153579749166965484619140625" lon="19.7720598243176937103271484375">
        <ele>1841.5999755859375</ele>
        <time>2026-06-18T10:46:13.000Z</time>
        <extensions>
          <ns3:TrackPointExtension>
            <ns3:atemp>22.0</ns3:atemp>
          </ns3:TrackPointExtension>
        </extensions>
      </trkpt>
      <trkpt lat="42.51535755582153797149658203125" lon="19.77208815515041351318359375">
        <ele>1842</ele>
        <time>2026-06-18T10:46:14.000Z</time>
        <extensions>
          <ns3:TrackPointExtension>
            <ns3:atemp>22.0</ns3:atemp>
          </ns3:TrackPointExtension>
        </extensions>
      </trkpt>
      <trkpt lat="42.51535370014607906341552734375" lon="19.7721169888973236083984375">
        <ele>1842.4000244140625</ele>
        <time>2026-06-18T10:46:15.000Z</time>
        <extensions>
          <ns3:TrackPointExtension>
            <ns3:atemp>22.0</ns3:atemp>
          </ns3:TrackPointExtension>
        </extensions>
      </trkpt>
      <trkpt lat="42.51535001210868358612060546875" lon="19.77214657701551914215087890625">
        <ele>1842.5999755859375</ele>
        <time>2026-06-18T10:46:16.000Z</time>
        <extensions>
          <ns3:TrackPointExtension>
            <ns3:atemp>22.0</ns3:atemp>
          </ns3:TrackPointExtension>
        </extensions>
      </trkpt>
      <trkpt lat="42.515349425375461578369140625" lon="19.77217775769531726837158203125">
        <ele>1843</ele>
        <time>2026-06-18T10:46:17.000Z</time>
        <extensions>
          <ns3:TrackPointExtension>
            <ns3:atemp>22.0</ns3:atemp>
          </ns3:TrackPointExtension>
        </extensions>
      </trkpt>
      <trkpt lat="42.5153531134128570556640625" lon="19.77220944128930568695068359375">
        <ele>1843.4000244140625</ele>
        <time>2026-06-18T10:46:18.000Z</time>
        <extensions>
          <ns3:TrackPointExtension>
            <ns3:atemp>22.0</ns3:atemp>
          </ns3:TrackPointExtension>
        </extensions>
      </trkpt>
      <trkpt lat="42.51535504125058650970458984375" lon="19.77223995141685009002685546875">
        <ele>1843.800048828125</ele>
        <time>2026-06-18T10:46:19.000Z</time>
        <extensions>
          <ns3:TrackPointExtension>
            <ns3:atemp>22.0</ns3:atemp>
          </ns3:TrackPointExtension>
        </extensions>
      </trkpt>
      <trkpt lat="42.51535286195576190948486328125" lon="19.77226727642118930816650390625">
        <ele>1844.199951171875</ele>
        <time>2026-06-18T10:46:20.000Z</time>
        <extensions>
          <ns3:TrackPointExtension>
            <ns3:atemp>22.0</ns3:atemp>
          </ns3:TrackPointExtension>
        </extensions>
      </trkpt>
      <trkpt lat="42.5153505988419055938720703125" lon="19.77229543961584568023681640625">
        <ele>1844.5999755859375</ele>
        <time>2026-06-18T10:46:21.000Z</time>
        <extensions>
          <ns3:TrackPointExtension>
            <ns3:atemp>22.0</ns3:atemp>
          </ns3:TrackPointExtension>
        </extensions>
      </trkpt>
      <trkpt lat="42.5153448991477489471435546875" lon="19.77232058532536029815673828125">
        <ele>1845</ele>
        <time>2026-06-18T10:46:22.000Z</time>
        <extensions>
          <ns3:TrackPointExtension>
            <ns3:atemp>22.0</ns3:atemp>
          </ns3:TrackPointExtension>
        </extensions>
      </trkpt>
      <trkpt lat="42.51533894799649715423583984375" lon="19.7723458148539066314697265625">
        <ele>1845.5999755859375</ele>
        <time>2026-06-18T10:46:23.000Z</time>
        <extensions>
          <ns3:TrackPointExtension>
            <ns3:atemp>22.0</ns3:atemp>
          </ns3:TrackPointExtension>
        </extensions>
      </trkpt>
      <trkpt lat="42.515332996845245361328125" lon="19.7723717987537384033203125">
        <ele>1846.199951171875</ele>
        <time>2026-06-18T10:46:24.000Z</time>
        <extensions>
          <ns3:TrackPointExtension>
            <ns3:atemp>22.0</ns3:atemp>
          </ns3:TrackPointExtension>
        </extensions>
      </trkpt>
      <trkpt lat="42.51532495021820068359375" lon="19.77239392697811126708984375">
        <ele>1846.5999755859375</ele>
        <time>2026-06-18T10:46:25.000Z</time>
        <extensions>
          <ns3:TrackPointExtension>
            <ns3:atemp>22.0</ns3:atemp>
          </ns3:TrackPointExtension>
        </extensions>
      </trkpt>
      <trkpt lat="42.51530944369733333587646484375" lon="19.7724085114896297454833984375">
        <ele>1847.199951171875</ele>
        <time>2026-06-18T10:46:26.000Z</time>
        <extensions>
          <ns3:TrackPointExtension>
            <ns3:atemp>22.0</ns3:atemp>
          </ns3:TrackPointExtension>
        </extensions>
      </trkpt>
      <trkpt lat="42.5152946077287197113037109375" lon="19.772427789866924285888671875">
        <ele>1848</ele>
        <time>2026-06-18T10:46:27.000Z</time>
        <extensions>
          <ns3:TrackPointExtension>
            <ns3:atemp>22.0</ns3:atemp>
          </ns3:TrackPointExtension>
        </extensions>
      </trkpt>
      <trkpt lat="42.5152811966836452484130859375" lon="19.772444553673267364501953125">
        <ele>1848.800048828125</ele>
        <time>2026-06-18T10:46:28.000Z</time>
        <extensions>
          <ns3:TrackPointExtension>
            <ns3:atemp>22.0</ns3:atemp>
          </ns3:TrackPointExtension>
        </extensions>
      </trkpt>
      <trkpt lat="42.51527440734207630157470703125" lon="19.77245436049997806549072265625">
        <ele>1849.4000244140625</ele>
        <time>2026-06-18T10:46:29.000Z</time>
        <extensions>
          <ns3:TrackPointExtension>
            <ns3:atemp>22.0</ns3:atemp>
          </ns3:TrackPointExtension>
        </extensions>
      </trkpt>
      <trkpt lat="42.51526904292404651641845703125" lon="19.77245301939547061920166015625">
        <ele>1850.199951171875</ele>
        <time>2026-06-18T10:46:30.000Z</time>
        <extensions>
          <ns3:TrackPointExtension>
            <ns3:atemp>22.0</ns3:atemp>
          </ns3:TrackPointExtension>
        </extensions>
      </trkpt>
      <trkpt lat="42.51526887528598308563232421875" lon="19.77245964109897613525390625">
        <ele>1850.800048828125</ele>
        <time>2026-06-18T10:46:31.000Z</time>
        <extensions>
          <ns3:TrackPointExtension>
            <ns3:atemp>22.0</ns3:atemp>
          </ns3:TrackPointExtension>
        </extensions>
      </trkpt>
      <trkpt lat="42.51526954583823680877685546875" lon="19.77246341295540332794189453125">
        <ele>1851.199951171875</ele>
        <time>2026-06-18T10:46:32.000Z</time>
        <extensions>
          <ns3:TrackPointExtension>
            <ns3:atemp>22.0</ns3:atemp>
          </ns3:TrackPointExtension>
        </extensions>
      </trkpt>
      <trkpt lat="42.51526552252471446990966796875" lon="19.77246894501149654388427734375">
        <ele>1851.5999755859375</ele>
        <time>2026-06-18T10:46:33.000Z</time>
        <extensions>
          <ns3:TrackPointExtension>
            <ns3:atemp>22.0</ns3:atemp>
          </ns3:TrackPointExtension>
        </extensions>
      </trkpt>
      <trkpt lat="42.5152654387056827545166015625" lon="19.7724779136478900909423828125">
        <ele>1851.800048828125</ele>
        <time>2026-06-18T10:46:34.000Z</time>
        <extensions>
          <ns3:TrackPointExtension>
            <ns3:atemp>22.0</ns3:atemp>
          </ns3:TrackPointExtension>
        </extensions>
      </trkpt>
      <trkpt lat="42.515265606343746185302734375" lon="19.77248185314238071441650390625">
        <ele>1852</ele>
        <time>2026-06-18T10:46:35.000Z</time>
        <extensions>
          <ns3:TrackPointExtension>
            <ns3:atemp>22.0</ns3:atemp>
          </ns3:TrackPointExtension>
        </extensions>
      </trkpt>
      <trkpt lat="42.5152627564966678619384765625" lon="19.77248855866491794586181640625">
        <ele>1852.199951171875</ele>
        <time>2026-06-18T10:46:36.000Z</time>
        <extensions>
          <ns3:TrackPointExtension>
            <ns3:atemp>22.0</ns3:atemp>
          </ns3:TrackPointExtension>
        </extensions>
      </trkpt>
      <trkpt lat="42.515258900821208953857421875" lon="19.7724963538348674774169921875">
        <ele>1852.199951171875</ele>
        <time>2026-06-18T10:46:37.000Z</time>
        <extensions>
          <ns3:TrackPointExtension>
            <ns3:atemp>22.0</ns3:atemp>
          </ns3:TrackPointExtension>
        </extensions>
      </trkpt>
      <trkpt lat="42.51525311730802059173583984375" lon="19.77250196970999240875244140625">
        <ele>1852.199951171875</ele>
        <time>2026-06-18T10:46:38.000Z</time>
        <extensions>
          <ns3:TrackPointExtension>
            <ns3:atemp>22.0</ns3:atemp>
          </ns3:TrackPointExtension>
        </extensions>
      </trkpt>
      <trkpt lat="42.51524775288999080657958984375" lon="19.772505573928356170654296875">
        <ele>1852.4000244140625</ele>
        <time>2026-06-18T10:46:39.000Z</time>
        <extensions>
          <ns3:TrackPointExtension>
            <ns3:atemp>22.0</ns3:atemp>
          </ns3:TrackPointExtension>
        </extensions>
      </trkpt>
      <trkpt lat="42.51524381339550018310546875" lon="19.77250951342284679412841796875">
        <ele>1852.5999755859375</ele>
        <time>2026-06-18T10:46:40.000Z</time>
        <extensions>
          <ns3:TrackPointExtension>
            <ns3:atemp>22.0</ns3:atemp>
          </ns3:TrackPointExtension>
        </extensions>
      </trkpt>
      <trkpt lat="42.515236772596836090087890625" lon="19.77251596748828887939453125">
        <ele>1852.5999755859375</ele>
        <time>2026-06-18T10:46:41.000Z</time>
        <extensions>
          <ns3:TrackPointExtension>
            <ns3:atemp>22.0</ns3:atemp>
          </ns3:TrackPointExtension>
        </extensions>
      </trkpt>
      <trkpt lat="42.51523174345493316650390625" lon="19.77251957170665264129638671875">
        <ele>1852.800048828125</ele>
        <time>2026-06-18T10:46:42.000Z</time>
        <extensions>
          <ns3:TrackPointExtension>
            <ns3:atemp>22.0</ns3:atemp>
          </ns3:TrackPointExtension>
        </extensions>
      </trkpt>
      <trkpt lat="42.51522646285593509674072265625" lon="19.7725231759250164031982421875">
        <ele>1852.800048828125</ele>
        <time>2026-06-18T10:46:43.000Z</time>
        <extensions>
          <ns3:TrackPointExtension>
            <ns3:atemp>22.0</ns3:atemp>
          </ns3:TrackPointExtension>
        </extensions>
      </trkpt>
      <trkpt lat="42.51522369682788848876953125" lon="19.7725261934101581573486328125">
        <ele>1853</ele>
        <time>2026-06-18T10:46:44.000Z</time>
        <extensions>
          <ns3:TrackPointExtension>
            <ns3:atemp>22.0</ns3:atemp>
          </ns3:TrackPointExtension>
        </extensions>
      </trkpt>
      <trkpt lat="42.5152185000479221343994140625" lon="19.77253164164721965789794921875">
        <ele>1853.199951171875</ele>
        <time>2026-06-18T10:46:45.000Z</time>
        <extensions>
          <ns3:TrackPointExtension>
            <ns3:atemp>22.0</ns3:atemp>
          </ns3:TrackPointExtension>
        </extensions>
      </trkpt>
      <trkpt lat="42.51521556638181209564208984375" lon="19.77253750897943973541259765625">
        <ele>1853.4000244140625</ele>
        <time>2026-06-18T10:46:46.000Z</time>
        <extensions>
          <ns3:TrackPointExtension>
            <ns3:atemp>22.0</ns3:atemp>
          </ns3:TrackPointExtension>
        </extensions>
      </trkpt>
      <trkpt lat="42.51521296799182891845703125" lon="19.77254639379680156707763671875">
        <ele>1853.5999755859375</ele>
        <time>2026-06-18T10:46:47.000Z</time>
        <extensions>
          <ns3:TrackPointExtension>
            <ns3:atemp>22.0</ns3:atemp>
          </ns3:TrackPointExtension>
        </extensions>
      </trkpt>
      <trkpt lat="42.51521036960184574127197265625" lon="19.77255494333803653717041015625">
        <ele>1853.800048828125</ele>
        <time>2026-06-18T10:46:48.000Z</time>
        <extensions>
          <ns3:TrackPointExtension>
            <ns3:atemp>22.0</ns3:atemp>
          </ns3:TrackPointExtension>
        </extensions>
      </trkpt>
      <trkpt lat="42.5152067653834819793701171875" lon="19.7725660912692546844482421875">
        <ele>1854</ele>
        <time>2026-06-18T10:46:49.000Z</time>
        <extensions>
          <ns3:TrackPointExtension>
            <ns3:atemp>22.0</ns3:atemp>
          </ns3:TrackPointExtension>
        </extensions>
      </trkpt>
      <trkpt lat="42.51519980840384960174560546875" lon="19.7725738026201725006103515625">
        <ele>1854</ele>
        <time>2026-06-18T10:46:50.000Z</time>
        <extensions>
          <ns3:TrackPointExtension>
            <ns3:atemp>22.0</ns3:atemp>
          </ns3:TrackPointExtension>
        </extensions>
      </trkpt>
      <trkpt lat="42.51519477926194667816162109375" lon="19.77256768383085727691650390625">
        <ele>1854</ele>
        <time>2026-06-18T10:46:51.000Z</time>
        <extensions>
          <ns3:TrackPointExtension>
            <ns3:atemp>22.0</ns3:atemp>
          </ns3:TrackPointExtension>
        </extensions>
      </trkpt>
      <trkpt lat="42.51520299352705478668212890625" lon="19.77256718091666698455810546875">
        <ele>1854.199951171875</ele>
        <time>2026-06-18T10:46:52.000Z</time>
        <extensions>
          <ns3:TrackPointExtension>
            <ns3:atemp>22.0</ns3:atemp>
          </ns3:TrackPointExtension>
        </extensions>
      </trkpt>
      <trkpt lat="42.51520433463156223297119140625" lon="19.7725684382021427154541015625">
        <ele>1854.199951171875</ele>
        <time>2026-06-18T10:46:53.000Z</time>
        <extensions>
          <ns3:TrackPointExtension>
            <ns3:atemp>22.0</ns3:atemp>
          </ns3:TrackPointExtension>
        </extensions>
      </trkpt>
      <trkpt lat="42.51520601101219654083251953125" lon="19.77256969548761844635009765625">
        <ele>1854.4000244140625</ele>
        <time>2026-06-18T10:46:54.000Z</time>
        <extensions>
          <ns3:TrackPointExtension>
            <ns3:atemp>22.0</ns3:atemp>
          </ns3:TrackPointExtension>
        </extensions>
      </trkpt>
      <trkpt lat="42.515203244984149932861328125" lon="19.7725697793066501617431640625">
        <ele>1854.5999755859375</ele>
        <time>2026-06-18T10:46:55.000Z</time>
        <extensions>
          <ns3:TrackPointExtension>
            <ns3:atemp>22.0</ns3:atemp>
          </ns3:TrackPointExtension>
        </extensions>
      </trkpt>
      <trkpt lat="42.515203244984149932861328125" lon="19.77256969548761844635009765625">
        <ele>1854.800048828125</ele>
        <time>2026-06-18T10:46:56.000Z</time>
        <extensions>
          <ns3:TrackPointExtension>
            <ns3:atemp>22.0</ns3:atemp>
          </ns3:TrackPointExtension>
        </extensions>
      </trkpt>
      <trkpt lat="42.515203244984149932861328125" lon="19.77256969548761844635009765625">
        <ele>1855</ele>
        <time>2026-06-18T10:46:57.000Z</time>
        <extensions>
          <ns3:TrackPointExtension>
            <ns3:atemp>22.0</ns3:atemp>
          </ns3:TrackPointExtension>
        </extensions>
      </trkpt>
      <trkpt lat="42.515203244984149932861328125" lon="19.77256969548761844635009765625">
        <ele>1855.199951171875</ele>
        <time>2026-06-18T10:46:58.000Z</time>
        <extensions>
          <ns3:TrackPointExtension>
            <ns3:atemp>22.0</ns3:atemp>
          </ns3:TrackPointExtension>
        </extensions>
      </trkpt>
      <trkpt lat="42.515203244984149932861328125" lon="19.77256969548761844635009765625">
        <ele>1855.5999755859375</ele>
        <time>2026-06-18T10:46:59.000Z</time>
        <extensions>
          <ns3:TrackPointExtension>
            <ns3:atemp>22.0</ns3:atemp>
          </ns3:TrackPointExtension>
        </extensions>
      </trkpt>
      <trkpt lat="42.515203244984149932861328125" lon="19.77256969548761844635009765625">
        <ele>1855.800048828125</ele>
        <time>2026-06-18T10:47:00.000Z</time>
        <extensions>
          <ns3:TrackPointExtension>
            <ns3:atemp>22.0</ns3:atemp>
          </ns3:TrackPointExtension>
        </extensions>
      </trkpt>
      <trkpt lat="42.515203244984149932861328125" lon="19.77256969548761844635009765625">
        <ele>1855.800048828125</ele>
        <time>2026-06-18T10:47:01.000Z</time>
        <extensions>
          <ns3:TrackPointExtension>
            <ns3:atemp>22.0</ns3:atemp>
          </ns3:TrackPointExtension>
        </extensions>
      </trkpt>
      <trkpt lat="42.515203244984149932861328125" lon="19.77256969548761844635009765625">
        <ele>1856</ele>
        <time>2026-06-18T10:47:02.000Z</time>
        <extensions>
          <ns3:TrackPointExtension>
            <ns3:atemp>22.0</ns3:atemp>
          </ns3:TrackPointExtension>
        </extensions>
      </trkpt>
      <trkpt lat="42.515203244984149932861328125" lon="19.77256969548761844635009765625">
        <ele>1856</ele>
        <time>2026-06-18T10:47:03.000Z</time>
        <extensions>
          <ns3:TrackPointExtension>
            <ns3:atemp>22.0</ns3:atemp>
          </ns3:TrackPointExtension>
        </extensions>
      </trkpt>
      <trkpt lat="42.515203244984149932861328125" lon="19.77256969548761844635009765625">
        <ele>1856</ele>
        <time>2026-06-18T10:47:04.000Z</time>
        <extensions>
          <ns3:TrackPointExtension>
            <ns3:atemp>22.0</ns3:atemp>
          </ns3:TrackPointExtension>
        </extensions>
      </trkpt>
      <trkpt lat="42.515203244984149932861328125" lon="19.77256969548761844635009765625">
        <ele>1855.800048828125</ele>
        <time>2026-06-18T10:47:05.000Z</time>
        <extensions>
          <ns3:TrackPointExtension>
            <ns3:atemp>22.0</ns3:atemp>
          </ns3:TrackPointExtension>
        </extensions>
      </trkpt>
      <trkpt lat="42.515203244984149932861328125" lon="19.77256969548761844635009765625">
        <ele>1855.5999755859375</ele>
        <time>2026-06-18T10:47:06.000Z</time>
        <extensions>
          <ns3:TrackPointExtension>
            <ns3:atemp>22.0</ns3:atemp>
          </ns3:TrackPointExtension>
        </extensions>
      </trkpt>
      <trkpt lat="42.515203244984149932861328125" lon="19.77256969548761844635009765625">
        <ele>1855.5999755859375</ele>
        <time>2026-06-18T10:47:07.000Z</time>
        <extensions>
          <ns3:TrackPointExtension>
            <ns3:atemp>22.0</ns3:atemp>
          </ns3:TrackPointExtension>
        </extensions>
      </trkpt>
      <trkpt lat="42.515203244984149932861328125" lon="19.77256969548761844635009765625">
        <ele>1855.4000244140625</ele>
        <time>2026-06-18T10:47:08.000Z</time>
        <extensions>
          <ns3:TrackPointExtension>
            <ns3:atemp>22.0</ns3:atemp>
          </ns3:TrackPointExtension>
        </extensions>
      </trkpt>
      <trkpt lat="42.515203244984149932861328125" lon="19.77256969548761844635009765625">
        <ele>1855.4000244140625</ele>
        <time>2026-06-18T10:47:09.000Z</time>
        <extensions>
          <ns3:TrackPointExtension>
            <ns3:atemp>22.0</ns3:atemp>
          </ns3:TrackPointExtension>
        </extensions>
      </trkpt>
      <trkpt lat="42.515203244984149932861328125" lon="19.77256969548761844635009765625">
        <ele>1855.4000244140625</ele>
        <time>2026-06-18T10:47:10.000Z</time>
        <extensions>
          <ns3:TrackPointExtension>
            <ns3:atemp>22.0</ns3:atemp>
          </ns3:TrackPointExtension>
        </extensions>
      </trkpt>
      <trkpt lat="42.515203244984149932861328125" lon="19.77256969548761844635009765625">
        <ele>1855.4000244140625</ele>
        <time>2026-06-18T10:47:11.000Z</time>
        <extensions>
          <ns3:TrackPointExtension>
            <ns3:atemp>22.0</ns3:atemp>
          </ns3:TrackPointExtension>
        </extensions>
      </trkpt>
      <trkpt lat="42.515203244984149932861328125" lon="19.77256969548761844635009765625">
        <ele>1855.4000244140625</ele>
        <time>2026-06-18T10:47:12.000Z</time>
        <extensions>
          <ns3:TrackPointExtension>
            <ns3:atemp>22.0</ns3:atemp>
          </ns3:TrackPointExtension>
        </extensions>
      </trkpt>
      <trkpt lat="42.515203244984149932861328125" lon="19.77256969548761844635009765625">
        <ele>1855.4000244140625</ele>
        <time>2026-06-18T10:47:13.000Z</time>
        <extensions>
          <ns3:TrackPointExtension>
            <ns3:atemp>22.0</ns3:atemp>
          </ns3:TrackPointExtension>
        </extensions>
      </trkpt>
      <trkpt lat="42.515203244984149932861328125" lon="19.77256969548761844635009765625">
        <ele>1855.199951171875</ele>
        <time>2026-06-18T10:47:14.000Z</time>
        <extensions>
          <ns3:TrackPointExtension>
            <ns3:atemp>21.0</ns3:atemp>
          </ns3:TrackPointExtension>
        </extensions>
      </trkpt>
      <trkpt lat="42.515203244984149932861328125" lon="19.77256969548761844635009765625">
        <ele>1854.800048828125</ele>
        <time>2026-06-18T10:47:15.000Z</time>
        <extensions>
          <ns3:TrackPointExtension>
            <ns3:atemp>22.0</ns3:atemp>
          </ns3:TrackPointExtension>
        </extensions>
      </trkpt>
      <trkpt lat="42.515203244984149932861328125" lon="19.77256969548761844635009765625">
        <ele>1854.5999755859375</ele>
        <time>2026-06-18T10:47:16.000Z</time>
        <extensions>
          <ns3:TrackPointExtension>
            <ns3:atemp>21.0</ns3:atemp>
          </ns3:TrackPointExtension>
        </extensions>
      </trkpt>
      <trkpt lat="42.515203244984149932861328125" lon="19.77256969548761844635009765625">
        <ele>1854.4000244140625</ele>
        <time>2026-06-18T10:47:17.000Z</time>
        <extensions>
          <ns3:TrackPointExtension>
            <ns3:atemp>21.0</ns3:atemp>
          </ns3:TrackPointExtension>
        </extensions>
      </trkpt>
      <trkpt lat="42.515203244984149932861328125" lon="19.77256969548761844635009765625">
        <ele>1854.4000244140625</ele>
        <time>2026-06-18T10:47:18.000Z</time>
        <extensions>
          <ns3:TrackPointExtension>
            <ns3:atemp>21.0</ns3:atemp>
          </ns3:TrackPointExtension>
        </extensions>
      </trkpt>
      <trkpt lat="42.515203244984149932861328125" lon="19.77256969548761844635009765625">
        <ele>1854.4000244140625</ele>
        <time>2026-06-18T10:47:19.000Z</time>
        <extensions>
          <ns3:TrackPointExtension>
            <ns3:atemp>22.0</ns3:atemp>
          </ns3:TrackPointExtension>
        </extensions>
      </trkpt>
      <trkpt lat="42.515203244984149932861328125" lon="19.77256969548761844635009765625">
        <ele>1854.4000244140625</ele>
        <time>2026-06-18T10:47:20.000Z</time>
        <extensions>
          <ns3:TrackPointExtension>
            <ns3:atemp>22.0</ns3:atemp>
          </ns3:TrackPointExtension>
        </extensions>
      </trkpt>
      <trkpt lat="42.515203244984149932861328125" lon="19.77256969548761844635009765625">
        <ele>1854.4000244140625</ele>
        <time>2026-06-18T10:47:21.000Z</time>
        <extensions>
          <ns3:TrackPointExtension>
            <ns3:atemp>22.0</ns3:atemp>
          </ns3:TrackPointExtension>
        </extensions>
      </trkpt>
      <trkpt lat="42.515203244984149932861328125" lon="19.77256969548761844635009765625">
        <ele>1854.4000244140625</ele>
        <time>2026-06-18T10:47:22.000Z</time>
        <extensions>
          <ns3:TrackPointExtension>
            <ns3:atemp>21.0</ns3:atemp>
          </ns3:TrackPointExtension>
        </extensions>
      </trkpt>
      <trkpt lat="42.515203244984149932861328125" lon="19.77256969548761844635009765625">
        <ele>1854.199951171875</ele>
        <time>2026-06-18T10:47:23.000Z</time>
        <extensions>
          <ns3:TrackPointExtension>
            <ns3:atemp>21.0</ns3:atemp>
          </ns3:TrackPointExtension>
        </extensions>
      </trkpt>
      <trkpt lat="42.515203244984149932861328125" lon="19.77256969548761844635009765625">
        <ele>1854.199951171875</ele>
        <time>2026-06-18T10:47:24.000Z</time>
        <extensions>
          <ns3:TrackPointExtension>
            <ns3:atemp>21.0</ns3:atemp>
          </ns3:TrackPointExtension>
        </extensions>
      </trkpt>
      <trkpt lat="42.515203244984149932861328125" lon="19.77256969548761844635009765625">
        <ele>1854</ele>
        <time>2026-06-18T10:47:25.000Z</time>
        <extensions>
          <ns3:TrackPointExtension>
            <ns3:atemp>21.0</ns3:atemp>
          </ns3:TrackPointExtension>
        </extensions>
      </trkpt>
      <trkpt lat="42.515203244984149932861328125" lon="19.77256969548761844635009765625">
        <ele>1854</ele>
        <time>2026-06-18T10:47:26.000Z</time>
        <extensions>
          <ns3:TrackPointExtension>
            <ns3:atemp>21.0</ns3:atemp>
          </ns3:TrackPointExtension>
        </extensions>
      </trkpt>
      <trkpt lat="42.515203244984149932861328125" lon="19.77256969548761844635009765625">
        <ele>1854</ele>
        <time>2026-06-18T10:47:27.000Z</time>
        <extensions>
          <ns3:TrackPointExtension>
            <ns3:atemp>21.0</ns3:atemp>
          </ns3:TrackPointExtension>
        </extensions>
      </trkpt>
      <trkpt lat="42.515203244984149932861328125" lon="19.77256969548761844635009765625">
        <ele>1854</ele>
        <time>2026-06-18T10:47:28.000Z</time>
        <extensions>
          <ns3:TrackPointExtension>
            <ns3:atemp>21.0</ns3:atemp>
          </ns3:TrackPointExtension>
        </extensions>
      </trkpt>
      <trkpt lat="42.515203244984149932861328125" lon="19.77256969548761844635009765625">
        <ele>1854.199951171875</ele>
        <time>2026-06-18T10:47:29.000Z</time>
        <extensions>
          <ns3:TrackPointExtension>
            <ns3:atemp>21.0</ns3:atemp>
          </ns3:TrackPointExtension>
        </extensions>
      </trkpt>
      <trkpt lat="42.515203244984149932861328125" lon="19.77256969548761844635009765625">
        <ele>1854.199951171875</ele>
        <time>2026-06-18T10:47:30.000Z</time>
        <extensions>
          <ns3:TrackPointExtension>
            <ns3:atemp>21.0</ns3:atemp>
          </ns3:TrackPointExtension>
        </extensions>
      </trkpt>
      <trkpt lat="42.515203244984149932861328125" lon="19.77256969548761844635009765625">
        <ele>1854</ele>
        <time>2026-06-18T10:47:31.000Z</time>
        <extensions>
          <ns3:TrackPointExtension>
            <ns3:atemp>21.0</ns3:atemp>
          </ns3:TrackPointExtension>
        </extensions>
      </trkpt>
      <trkpt lat="42.515203244984149932861328125" lon="19.77256969548761844635009765625">
        <ele>1854</ele>
        <time>2026-06-18T10:47:32.000Z</time>
        <extensions>
          <ns3:TrackPointExtension>
            <ns3:atemp>21.0</ns3:atemp>
          </ns3:TrackPointExtension>
        </extensions>
      </trkpt>
      <trkpt lat="42.515203244984149932861328125" lon="19.77256969548761844635009765625">
        <ele>1854</ele>
        <time>2026-06-18T10:47:33.000Z</time>
        <extensions>
          <ns3:TrackPointExtension>
            <ns3:atemp>21.0</ns3:atemp>
          </ns3:TrackPointExtension>
        </extensions>
      </trkpt>
      <trkpt lat="42.515203244984149932861328125" lon="19.77256969548761844635009765625">
        <ele>1854</ele>
        <time>2026-06-18T10:47:34.000Z</time>
        <extensions>
          <ns3:TrackPointExtension>
            <ns3:atemp>21.0</ns3:atemp>
          </ns3:TrackPointExtension>
        </extensions>
      </trkpt>
      <trkpt lat="42.515203244984149932861328125" lon="19.77256969548761844635009765625">
        <ele>1854</ele>
        <time>2026-06-18T10:47:35.000Z</time>
        <extensions>
          <ns3:TrackPointExtension>
            <ns3:atemp>21.0</ns3:atemp>
          </ns3:TrackPointExtension>
        </extensions>
      </trkpt>
      <trkpt lat="42.515203244984149932861328125" lon="19.77256969548761844635009765625">
        <ele>1853.800048828125</ele>
        <time>2026-06-18T10:47:36.000Z</time>
        <extensions>
          <ns3:TrackPointExtension>
            <ns3:atemp>21.0</ns3:atemp>
          </ns3:TrackPointExtension>
        </extensions>
      </trkpt>
      <trkpt lat="42.515203244984149932861328125" lon="19.77256969548761844635009765625">
        <ele>1853.800048828125</ele>
        <time>2026-06-18T10:47:37.000Z</time>
        <extensions>
          <ns3:TrackPointExtension>
            <ns3:atemp>21.0</ns3:atemp>
          </ns3:TrackPointExtension>
        </extensions>
      </trkpt>
      <trkpt lat="42.515203244984149932861328125" lon="19.77256969548761844635009765625">
        <ele>1853.800048828125</ele>
        <time>2026-06-18T10:47:38.000Z</time>
        <extensions>
          <ns3:TrackPointExtension>
            <ns3:atemp>21.0</ns3:atemp>
          </ns3:TrackPointExtension>
        </extensions>
      </trkpt>
      <trkpt lat="42.515203244984149932861328125" lon="19.77256969548761844635009765625">
        <ele>1853.800048828125</ele>
        <time>2026-06-18T10:47:39.000Z</time>
        <extensions>
          <ns3:TrackPointExtension>
            <ns3:atemp>21.0</ns3:atemp>
          </ns3:TrackPointExtension>
        </extensions>
      </trkpt>
      <trkpt lat="42.515203244984149932861328125" lon="19.77256969548761844635009765625">
        <ele>1853.800048828125</ele>
        <time>2026-06-18T10:47:40.000Z</time>
        <extensions>
          <ns3:TrackPointExtension>
            <ns3:atemp>21.0</ns3:atemp>
          </ns3:TrackPointExtension>
        </extensions>
      </trkpt>
      <trkpt lat="42.515203244984149932861328125" lon="19.77256969548761844635009765625">
        <ele>1853.800048828125</ele>
        <time>2026-06-18T10:47:41.000Z</time>
        <extensions>
          <ns3:TrackPointExtension>
            <ns3:atemp>21.0</ns3:atemp>
          </ns3:TrackPointExtension>
        </extensions>
      </trkpt>
      <trkpt lat="42.515203244984149932861328125" lon="19.77256969548761844635009765625">
        <ele>1853.5999755859375</ele>
        <time>2026-06-18T10:47:42.000Z</time>
        <extensions>
          <ns3:TrackPointExtension>
            <ns3:atemp>21.0</ns3:atemp>
          </ns3:TrackPointExtension>
        </extensions>
      </trkpt>
      <trkpt lat="42.515203244984149932861328125" lon="19.77256969548761844635009765625">
        <ele>1853.5999755859375</ele>
        <time>2026-06-18T10:47:43.000Z</time>
        <extensions>
          <ns3:TrackPointExtension>
            <ns3:atemp>21.0</ns3:atemp>
          </ns3:TrackPointExtension>
        </extensions>
      </trkpt>
      <trkpt lat="42.515203244984149932861328125" lon="19.77256969548761844635009765625">
        <ele>1853.4000244140625</ele>
        <time>2026-06-18T10:47:44.000Z</time>
        <extensions>
          <ns3:TrackPointExtension>
            <ns3:atemp>21.0</ns3:atemp>
          </ns3:TrackPointExtension>
        </extensions>
      </trkpt>
      <trkpt lat="42.515203244984149932861328125" lon="19.77256969548761844635009765625">
        <ele>1853.4000244140625</ele>
        <time>2026-06-18T10:47:45.000Z</time>
        <extensions>
          <ns3:TrackPointExtension>
            <ns3:atemp>21.0</ns3:atemp>
          </ns3:TrackPointExtension>
        </extensions>
      </trkpt>
      <trkpt lat="42.515203244984149932861328125" lon="19.77256969548761844635009765625">
        <ele>1853.199951171875</ele>
        <time>2026-06-18T10:47:46.000Z</time>
        <extensions>
          <ns3:TrackPointExtension>
            <ns3:atemp>21.0</ns3:atemp>
          </ns3:TrackPointExtension>
        </extensions>
      </trkpt>
      <trkpt lat="42.515203244984149932861328125" lon="19.77256969548761844635009765625">
        <ele>1853.199951171875</ele>
        <time>2026-06-18T10:47:47.000Z</time>
        <extensions>
          <ns3:TrackPointExtension>
            <ns3:atemp>21.0</ns3:atemp>
          </ns3:TrackPointExtension>
        </extensions>
      </trkpt>
      <trkpt lat="42.515203244984149932861328125" lon="19.77256969548761844635009765625">
        <ele>1853.199951171875</ele>
        <time>2026-06-18T10:47:48.000Z</time>
        <extensions>
          <ns3:TrackPointExtension>
            <ns3:atemp>21.0</ns3:atemp>
          </ns3:TrackPointExtension>
        </extensions>
      </trkpt>
      <trkpt lat="42.515203244984149932861328125" lon="19.77256969548761844635009765625">
        <ele>1853.199951171875</ele>
        <time>2026-06-18T10:47:49.000Z</time>
        <extensions>
          <ns3:TrackPointExtension>
            <ns3:atemp>21.0</ns3:atemp>
          </ns3:TrackPointExtension>
        </extensions>
      </trkpt>
      <trkpt lat="42.515203244984149932861328125" lon="19.77256969548761844635009765625">
        <ele>1853.199951171875</ele>
        <time>2026-06-18T10:47:50.000Z</time>
        <extensions>
          <ns3:TrackPointExtension>
            <ns3:atemp>21.0</ns3:atemp>
          </ns3:TrackPointExtension>
        </extensions>
      </trkpt>
      <trkpt lat="42.515203244984149932861328125" lon="19.77256969548761844635009765625">
        <ele>1853.199951171875</ele>
        <time>2026-06-18T10:47:51.000Z</time>
        <extensions>
          <ns3:TrackPointExtension>
            <ns3:atemp>21.0</ns3:atemp>
          </ns3:TrackPointExtension>
        </extensions>
      </trkpt>
      <trkpt lat="42.515203244984149932861328125" lon="19.77256969548761844635009765625">
        <ele>1853.199951171875</ele>
        <time>2026-06-18T10:47:52.000Z</time>
        <extensions>
          <ns3:TrackPointExtension>
            <ns3:atemp>21.0</ns3:atemp>
          </ns3:TrackPointExtension>
        </extensions>
      </trkpt>
      <trkpt lat="42.515203244984149932861328125" lon="19.77256969548761844635009765625">
        <ele>1853.199951171875</ele>
        <time>2026-06-18T10:47:53.000Z</time>
        <extensions>
          <ns3:TrackPointExtension>
            <ns3:atemp>21.0</ns3:atemp>
          </ns3:TrackPointExtension>
        </extensions>
      </trkpt>
      <trkpt lat="42.515203244984149932861328125" lon="19.77256969548761844635009765625">
        <ele>1853.199951171875</ele>
        <time>2026-06-18T10:47:54.000Z</time>
        <extensions>
          <ns3:TrackPointExtension>
            <ns3:atemp>21.0</ns3:atemp>
          </ns3:TrackPointExtension>
        </extensions>
      </trkpt>
      <trkpt lat="42.515203244984149932861328125" lon="19.77256969548761844635009765625">
        <ele>1853.199951171875</ele>
        <time>2026-06-18T10:47:55.000Z</time>
        <extensions>
          <ns3:TrackPointExtension>
            <ns3:atemp>21.0</ns3:atemp>
          </ns3:TrackPointExtension>
        </extensions>
      </trkpt>
      <trkpt lat="42.515203244984149932861328125" lon="19.77256969548761844635009765625">
        <ele>1853.199951171875</ele>
        <time>2026-06-18T10:47:56.000Z</time>
        <extensions>
          <ns3:TrackPointExtension>
            <ns3:atemp>21.0</ns3:atemp>
          </ns3:TrackPointExtension>
        </extensions>
      </trkpt>
      <trkpt lat="42.515203244984149932861328125" lon="19.77256969548761844635009765625">
        <ele>1853.199951171875</ele>
        <time>2026-06-18T10:47:57.000Z</time>
        <extensions>
          <ns3:TrackPointExtension>
            <ns3:atemp>21.0</ns3:atemp>
          </ns3:TrackPointExtension>
        </extensions>
      </trkpt>
      <trkpt lat="42.515203244984149932861328125" lon="19.77256969548761844635009765625">
        <ele>1853.199951171875</ele>
        <time>2026-06-18T10:47:58.000Z</time>
        <extensions>
          <ns3:TrackPointExtension>
            <ns3:atemp>21.0</ns3:atemp>
          </ns3:TrackPointExtension>
        </extensions>
      </trkpt>
      <trkpt lat="42.515203244984149932861328125" lon="19.77256969548761844635009765625">
        <ele>1853.199951171875</ele>
        <time>2026-06-18T10:47:59.000Z</time>
        <extensions>
          <ns3:TrackPointExtension>
            <ns3:atemp>21.0</ns3:atemp>
          </ns3:TrackPointExtension>
        </extensions>
      </trkpt>
      <trkpt lat="42.515203244984149932861328125" lon="19.77256969548761844635009765625">
        <ele>1853.199951171875</ele>
        <time>2026-06-18T10:48:00.000Z</time>
        <extensions>
          <ns3:TrackPointExtension>
            <ns3:atemp>21.0</ns3:atemp>
          </ns3:TrackPointExtension>
        </extensions>
      </trkpt>
      <trkpt lat="42.515203244984149932861328125" lon="19.77256969548761844635009765625">
        <ele>1853.199951171875</ele>
        <time>2026-06-18T10:48:01.000Z</time>
        <extensions>
          <ns3:TrackPointExtension>
            <ns3:atemp>21.0</ns3:atemp>
          </ns3:TrackPointExtension>
        </extensions>
      </trkpt>
      <trkpt lat="42.515203244984149932861328125" lon="19.77256969548761844635009765625">
        <ele>1853.199951171875</ele>
        <time>2026-06-18T10:48:02.000Z</time>
        <extensions>
          <ns3:TrackPointExtension>
            <ns3:atemp>21.0</ns3:atemp>
          </ns3:TrackPointExtension>
        </extensions>
      </trkpt>
      <trkpt lat="42.515203244984149932861328125" lon="19.77256969548761844635009765625">
        <ele>1853</ele>
        <time>2026-06-18T10:48:03.000Z</time>
        <extensions>
          <ns3:TrackPointExtension>
            <ns3:atemp>21.0</ns3:atemp>
          </ns3:TrackPointExtension>
        </extensions>
      </trkpt>
      <trkpt lat="42.515203244984149932861328125" lon="19.77256969548761844635009765625">
        <ele>1853</ele>
        <time>2026-06-18T10:48:04.000Z</time>
        <extensions>
          <ns3:TrackPointExtension>
            <ns3:atemp>21.0</ns3:atemp>
          </ns3:TrackPointExtension>
        </extensions>
      </trkpt>
      <trkpt lat="42.515203244984149932861328125" lon="19.77256969548761844635009765625">
        <ele>1853</ele>
        <time>2026-06-18T10:48:05.000Z</time>
        <extensions>
          <ns3:TrackPointExtension>
            <ns3:atemp>21.0</ns3:atemp>
          </ns3:TrackPointExtension>
        </extensions>
      </trkpt>
      <trkpt lat="42.515203244984149932861328125" lon="19.77256969548761844635009765625">
        <ele>1853</ele>
        <time>2026-06-18T10:48:06.000Z</time>
        <extensions>
          <ns3:TrackPointExtension>
            <ns3:atemp>21.0</ns3:atemp>
          </ns3:TrackPointExtension>
        </extensions>
      </trkpt>
      <trkpt lat="42.515203244984149932861328125" lon="19.77256969548761844635009765625">
        <ele>1853</ele>
        <time>2026-06-18T10:48:07.000Z</time>
        <extensions>
          <ns3:TrackPointExtension>
            <ns3:atemp>21.0</ns3:atemp>
          </ns3:TrackPointExtension>
        </extensions>
      </trkpt>
      <trkpt lat="42.515203244984149932861328125" lon="19.77256969548761844635009765625">
        <ele>1852.800048828125</ele>
        <time>2026-06-18T10:48:08.000Z</time>
        <extensions>
          <ns3:TrackPointExtension>
            <ns3:atemp>21.0</ns3:atemp>
          </ns3:TrackPointExtension>
        </extensions>
      </trkpt>
      <trkpt lat="42.515203244984149932861328125" lon="19.77256969548761844635009765625">
        <ele>1852.800048828125</ele>
        <time>2026-06-18T10:48:09.000Z</time>
        <extensions>
          <ns3:TrackPointExtension>
            <ns3:atemp>21.0</ns3:atemp>
          </ns3:TrackPointExtension>
        </extensions>
      </trkpt>
      <trkpt lat="42.515203244984149932861328125" lon="19.77256969548761844635009765625">
        <ele>1852.800048828125</ele>
        <time>2026-06-18T10:48:10.000Z</time>
        <extensions>
          <ns3:TrackPointExtension>
            <ns3:atemp>21.0</ns3:atemp>
          </ns3:TrackPointExtension>
        </extensions>
      </trkpt>
      <trkpt lat="42.515203244984149932861328125" lon="19.77256969548761844635009765625">
        <ele>1852.800048828125</ele>
        <time>2026-06-18T10:48:11.000Z</time>
        <extensions>
          <ns3:TrackPointExtension>
            <ns3:atemp>21.0</ns3:atemp>
          </ns3:TrackPointExtension>
        </extensions>
      </trkpt>
      <trkpt lat="42.515203244984149932861328125" lon="19.77256969548761844635009765625">
        <ele>1852.800048828125</ele>
        <time>2026-06-18T10:48:12.000Z</time>
        <extensions>
          <ns3:TrackPointExtension>
            <ns3:atemp>21.0</ns3:atemp>
          </ns3:TrackPointExtension>
        </extensions>
      </trkpt>
      <trkpt lat="42.515203244984149932861328125" lon="19.77256969548761844635009765625">
        <ele>1852.800048828125</ele>
        <time>2026-06-18T10:48:13.000Z</time>
        <extensions>
          <ns3:TrackPointExtension>
            <ns3:atemp>21.0</ns3:atemp>
          </ns3:TrackPointExtension>
        </extensions>
      </trkpt>
      <trkpt lat="42.515203244984149932861328125" lon="19.77256969548761844635009765625">
        <ele>1852.800048828125</ele>
        <time>2026-06-18T10:48:14.000Z</time>
        <extensions>
          <ns3:TrackPointExtension>
            <ns3:atemp>21.0</ns3:atemp>
          </ns3:TrackPointExtension>
        </extensions>
      </trkpt>
      <trkpt lat="42.515203244984149932861328125" lon="19.77256969548761844635009765625">
        <ele>1852.800048828125</ele>
        <time>2026-06-18T10:48:15.000Z</time>
        <extensions>
          <ns3:TrackPointExtension>
            <ns3:atemp>21.0</ns3:atemp>
          </ns3:TrackPointExtension>
        </extensions>
      </trkpt>
      <trkpt lat="42.515203244984149932861328125" lon="19.77256969548761844635009765625">
        <ele>1852.800048828125</ele>
        <time>2026-06-18T10:48:16.000Z</time>
        <extensions>
          <ns3:TrackPointExtension>
            <ns3:atemp>21.0</ns3:atemp>
          </ns3:TrackPointExtension>
        </extensions>
      </trkpt>
      <trkpt lat="42.515203244984149932861328125" lon="19.77256969548761844635009765625">
        <ele>1852.5999755859375</ele>
        <time>2026-06-18T10:48:17.000Z</time>
        <extensions>
          <ns3:TrackPointExtension>
            <ns3:atemp>21.0</ns3:atemp>
          </ns3:TrackPointExtension>
        </extensions>
      </trkpt>
      <trkpt lat="42.515203244984149932861328125" lon="19.77256969548761844635009765625">
        <ele>1852.4000244140625</ele>
        <time>2026-06-18T10:48:18.000Z</time>
        <extensions>
          <ns3:TrackPointExtension>
            <ns3:atemp>21.0</ns3:atemp>
          </ns3:TrackPointExtension>
        </extensions>
      </trkpt>
      <trkpt lat="42.515203244984149932861328125" lon="19.77256969548761844635009765625">
        <ele>1852.4000244140625</ele>
        <time>2026-06-18T10:48:19.000Z</time>
        <extensions>
          <ns3:TrackPointExtension>
            <ns3:atemp>21.0</ns3:atemp>
          </ns3:TrackPointExtension>
        </extensions>
      </trkpt>
      <trkpt lat="42.515203244984149932861328125" lon="19.77256969548761844635009765625">
        <ele>1852.199951171875</ele>
        <time>2026-06-18T10:48:20.000Z</time>
        <extensions>
          <ns3:TrackPointExtension>
            <ns3:atemp>21.0</ns3:atemp>
          </ns3:TrackPointExtension>
        </extensions>
      </trkpt>
      <trkpt lat="42.515203244984149932861328125" lon="19.77256969548761844635009765625">
        <ele>1852.199951171875</ele>
        <time>2026-06-18T10:48:21.000Z</time>
        <extensions>
          <ns3:TrackPointExtension>
            <ns3:atemp>21.0</ns3:atemp>
          </ns3:TrackPointExtension>
        </extensions>
      </trkpt>
      <trkpt lat="42.515203244984149932861328125" lon="19.77256969548761844635009765625">
        <ele>1852.199951171875</ele>
        <time>2026-06-18T10:48:22.000Z</time>
        <extensions>
          <ns3:TrackPointExtension>
            <ns3:atemp>21.0</ns3:atemp>
          </ns3:TrackPointExtension>
        </extensions>
      </trkpt>
      <trkpt lat="42.515203244984149932861328125" lon="19.77256969548761844635009765625">
        <ele>1852</ele>
        <time>2026-06-18T10:48:23.000Z</time>
        <extensions>
          <ns3:TrackPointExtension>
            <ns3:atemp>21.0</ns3:atemp>
          </ns3:TrackPointExtension>
        </extensions>
      </trkpt>
      <trkpt lat="42.515203244984149932861328125" lon="19.77256969548761844635009765625">
        <ele>1852.199951171875</ele>
        <time>2026-06-18T10:48:24.000Z</time>
        <extensions>
          <ns3:TrackPointExtension>
            <ns3:atemp>21.0</ns3:atemp>
          </ns3:TrackPointExtension>
        </extensions>
      </trkpt>
      <trkpt lat="42.515203244984149932861328125" lon="19.77256969548761844635009765625">
        <ele>1852.199951171875</ele>
        <time>2026-06-18T10:48:25.000Z</time>
        <extensions>
          <ns3:TrackPointExtension>
            <ns3:atemp>21.0</ns3:atemp>
          </ns3:TrackPointExtension>
        </extensions>
      </trkpt>
      <trkpt lat="42.515203244984149932861328125" lon="19.77256969548761844635009765625">
        <ele>1852.199951171875</ele>
        <time>2026-06-18T10:48:26.000Z</time>
        <extensions>
          <ns3:TrackPointExtension>
            <ns3:atemp>21.0</ns3:atemp>
          </ns3:TrackPointExtension>
        </extensions>
      </trkpt>
      <trkpt lat="42.515203244984149932861328125" lon="19.77256969548761844635009765625">
        <ele>1852.4000244140625</ele>
        <time>2026-06-18T10:48:27.000Z</time>
        <extensions>
          <ns3:TrackPointExtension>
            <ns3:atemp>21.0</ns3:atemp>
          </ns3:TrackPointExtension>
        </extensions>
      </trkpt>
      <trkpt lat="42.515203244984149932861328125" lon="19.77256969548761844635009765625">
        <ele>1852.5999755859375</ele>
        <time>2026-06-18T10:48:28.000Z</time>
        <extensions>
          <ns3:TrackPointExtension>
            <ns3:atemp>21.0</ns3:atemp>
          </ns3:TrackPointExtension>
        </extensions>
      </trkpt>
      <trkpt lat="42.515203244984149932861328125" lon="19.77256969548761844635009765625">
        <ele>1852.800048828125</ele>
        <time>2026-06-18T10:48:29.000Z</time>
        <extensions>
          <ns3:TrackPointExtension>
            <ns3:atemp>21.0</ns3:atemp>
          </ns3:TrackPointExtension>
        </extensions>
      </trkpt>
      <trkpt lat="42.5152030773460865020751953125" lon="19.77257103659212589263916015625">
        <ele>1852.800048828125</ele>
        <time>2026-06-18T10:48:30.000Z</time>
        <extensions>
          <ns3:TrackPointExtension>
            <ns3:atemp>21.0</ns3:atemp>
          </ns3:TrackPointExtension>
        </extensions>
      </trkpt>
      <trkpt lat="42.515210621058940887451171875" lon="19.7725603915750980377197265625">
        <ele>1853</ele>
        <time>2026-06-18T10:48:31.000Z</time>
        <extensions>
          <ns3:TrackPointExtension>
            <ns3:atemp>21.0</ns3:atemp>
          </ns3:TrackPointExtension>
        </extensions>
      </trkpt>
      <trkpt lat="42.51522294245660305023193359375" lon="19.77254454977810382843017578125">
        <ele>1852.800048828125</ele>
        <time>2026-06-18T10:48:32.000Z</time>
        <extensions>
          <ns3:TrackPointExtension>
            <ns3:atemp>21.0</ns3:atemp>
          </ns3:TrackPointExtension>
        </extensions>
      </trkpt>
      <trkpt lat="42.51523568294942378997802734375" lon="19.77252937853336334228515625">
        <ele>1852.800048828125</ele>
        <time>2026-06-18T10:48:33.000Z</time>
        <extensions>
          <ns3:TrackPointExtension>
            <ns3:atemp>21.0</ns3:atemp>
          </ns3:TrackPointExtension>
        </extensions>
      </trkpt>
      <trkpt lat="42.51525244675576686859130859375" lon="19.77250582538545131683349609375">
        <ele>1852.5999755859375</ele>
        <time>2026-06-18T10:48:34.000Z</time>
        <extensions>
          <ns3:TrackPointExtension>
            <ns3:atemp>21.0</ns3:atemp>
          </ns3:TrackPointExtension>
        </extensions>
      </trkpt>
      <trkpt lat="42.51526652835309505462646484375" lon="19.7724822722375392913818359375">
        <ele>1852.4000244140625</ele>
        <time>2026-06-18T10:48:35.000Z</time>
        <extensions>
          <ns3:TrackPointExtension>
            <ns3:atemp>21.0</ns3:atemp>
          </ns3:TrackPointExtension>
        </extensions>
      </trkpt>
      <trkpt lat="42.515279352664947509765625" lon="19.77245754562318325042724609375">
        <ele>1852</ele>
        <time>2026-06-18T10:48:36.000Z</time>
        <extensions>
          <ns3:TrackPointExtension>
            <ns3:atemp>21.0</ns3:atemp>
          </ns3:TrackPointExtension>
        </extensions>
      </trkpt>
      <trkpt lat="42.51529435627162456512451171875" lon="19.77243307046592235565185546875">
        <ele>1851.5999755859375</ele>
        <time>2026-06-18T10:48:37.000Z</time>
        <extensions>
          <ns3:TrackPointExtension>
            <ns3:atemp>21.0</ns3:atemp>
          </ns3:TrackPointExtension>
        </extensions>
      </trkpt>
      <trkpt lat="42.5153147242963314056396484375" lon="19.77241429500281810760498046875">
        <ele>1851.199951171875</ele>
        <time>2026-06-18T10:48:38.000Z</time>
        <extensions>
          <ns3:TrackPointExtension>
            <ns3:atemp>21.0</ns3:atemp>
          </ns3:TrackPointExtension>
        </extensions>
      </trkpt>
      <trkpt lat="42.51533157192170619964599609375" lon="19.772376827895641326904296875">
        <ele>1850.4000244140625</ele>
        <time>2026-06-18T10:48:39.000Z</time>
        <extensions>
          <ns3:TrackPointExtension>
            <ns3:atemp>21.0</ns3:atemp>
          </ns3:TrackPointExtension>
        </extensions>
      </trkpt>
      <trkpt lat="42.51534573733806610107421875" lon="19.7723307274281978607177734375">
        <ele>1849.5999755859375</ele>
        <time>2026-06-18T10:48:40.000Z</time>
        <extensions>
          <ns3:TrackPointExtension>
            <ns3:atemp>21.0</ns3:atemp>
          </ns3:TrackPointExtension>
        </extensions>
      </trkpt>
      <trkpt lat="42.51535537652671337127685546875" lon="19.77228127419948577880859375">
        <ele>1848.4000244140625</ele>
        <time>2026-06-18T10:48:41.000Z</time>
        <extensions>
          <ns3:TrackPointExtension>
            <ns3:atemp>21.0</ns3:atemp>
          </ns3:TrackPointExtension>
        </extensions>
      </trkpt>
      <trkpt lat="42.51535244286060333251953125" lon="19.7722160629928112030029296875">
        <ele>1847.4000244140625</ele>
        <time>2026-06-18T10:48:42.000Z</time>
        <extensions>
          <ns3:TrackPointExtension>
            <ns3:atemp>21.0</ns3:atemp>
          </ns3:TrackPointExtension>
        </extensions>
      </trkpt>
      <trkpt lat="42.51535671763122081756591796875" lon="19.77213752456009387969970703125">
        <ele>1846.4000244140625</ele>
        <time>2026-06-18T10:48:43.000Z</time>
        <extensions>
          <ns3:TrackPointExtension>
            <ns3:atemp>21.0</ns3:atemp>
          </ns3:TrackPointExtension>
        </extensions>
      </trkpt>
      <trkpt lat="42.51535755582153797149658203125" lon="19.772056639194488525390625">
        <ele>1845.4000244140625</ele>
        <time>2026-06-18T10:48:44.000Z</time>
        <extensions>
          <ns3:TrackPointExtension>
            <ns3:atemp>21.0</ns3:atemp>
          </ns3:TrackPointExtension>
        </extensions>
      </trkpt>
      <trkpt lat="42.515364177525043487548828125" lon="19.77197407744824886322021484375">
        <ele>1844.199951171875</ele>
        <time>2026-06-18T10:48:45.000Z</time>
        <extensions>
          <ns3:TrackPointExtension>
            <ns3:atemp>21.0</ns3:atemp>
          </ns3:TrackPointExtension>
        </extensions>
      </trkpt>
      <trkpt lat="42.51536778174340724945068359375" lon="19.77188103832304477691650390625">
        <ele>1843.199951171875</ele>
        <time>2026-06-18T10:48:46.000Z</time>
        <extensions>
          <ns3:TrackPointExtension>
            <ns3:atemp>21.0</ns3:atemp>
          </ns3:TrackPointExtension>
        </extensions>
      </trkpt>
      <trkpt lat="42.5153596512973308563232421875" lon="19.77178431116044521331787109375">
        <ele>1842</ele>
        <time>2026-06-18T10:48:47.000Z</time>
        <extensions>
          <ns3:TrackPointExtension>
            <ns3:atemp>21.0</ns3:atemp>
          </ns3:TrackPointExtension>
        </extensions>
      </trkpt>
      <trkpt lat="42.51534640789031982421875" lon="19.7716937027871608734130859375">
        <ele>1840.800048828125</ele>
        <time>2026-06-18T10:48:48.000Z</time>
        <extensions>
          <ns3:TrackPointExtension>
            <ns3:atemp>21.0</ns3:atemp>
          </ns3:TrackPointExtension>
        </extensions>
      </trkpt>
      <trkpt lat="42.51533039845526218414306640625" lon="19.7716105543076992034912109375">
        <ele>1839.5999755859375</ele>
        <time>2026-06-18T10:48:49.000Z</time>
        <extensions>
          <ns3:TrackPointExtension>
            <ns3:atemp>21.0</ns3:atemp>
          </ns3:TrackPointExtension>
        </extensions>
      </trkpt>
      <trkpt lat="42.5153120420873165130615234375" lon="19.77152832783758640289306640625">
        <ele>1838.800048828125</ele>
        <time>2026-06-18T10:48:50.000Z</time>
        <extensions>
          <ns3:TrackPointExtension>
            <ns3:atemp>21.0</ns3:atemp>
          </ns3:TrackPointExtension>
        </extensions>
      </trkpt>
      <trkpt lat="42.5153021514415740966796875" lon="19.7714452631771564483642578125">
        <ele>1838.199951171875</ele>
        <time>2026-06-18T10:48:51.000Z</time>
        <extensions>
          <ns3:TrackPointExtension>
            <ns3:atemp>21.0</ns3:atemp>
          </ns3:TrackPointExtension>
        </extensions>
      </trkpt>
      <trkpt lat="42.5152895785868167877197265625" lon="19.771369658410549163818359375">
        <ele>1837.800048828125</ele>
        <time>2026-06-18T10:48:52.000Z</time>
        <extensions>
          <ns3:TrackPointExtension>
            <ns3:atemp>21.0</ns3:atemp>
          </ns3:TrackPointExtension>
        </extensions>
      </trkpt>
      <trkpt lat="42.51527843065559864044189453125" lon="19.77130050770938396453857421875">
        <ele>1837.5999755859375</ele>
        <time>2026-06-18T10:48:53.000Z</time>
        <extensions>
          <ns3:TrackPointExtension>
            <ns3:atemp>21.0</ns3:atemp>
          </ns3:TrackPointExtension>
        </extensions>
      </trkpt>
      <trkpt lat="42.51527541317045688629150390625" lon="19.7712394036352634429931640625">
        <ele>1837.5999755859375</ele>
        <time>2026-06-18T10:48:54.000Z</time>
        <extensions>
          <ns3:TrackPointExtension>
            <ns3:atemp>21.0</ns3:atemp>
          </ns3:TrackPointExtension>
        </extensions>
      </trkpt>
      <trkpt lat="42.51527507789433002471923828125" lon="19.771185927093029022216796875">
        <ele>1837.5999755859375</ele>
        <time>2026-06-18T10:48:55.000Z</time>
        <extensions>
          <ns3:TrackPointExtension>
            <ns3:atemp>21.0</ns3:atemp>
          </ns3:TrackPointExtension>
        </extensions>
      </trkpt>
      <trkpt lat="42.51525931991636753082275390625" lon="19.77115080691874027252197265625">
        <ele>1837.800048828125</ele>
        <time>2026-06-18T10:48:56.000Z</time>
        <extensions>
          <ns3:TrackPointExtension>
            <ns3:atemp>21.0</ns3:atemp>
          </ns3:TrackPointExtension>
        </extensions>
      </trkpt>
      <trkpt lat="42.51525429077446460723876953125" lon="19.77112649939954280853271484375">
        <ele>1837.800048828125</ele>
        <time>2026-06-18T10:48:57.000Z</time>
        <extensions>
          <ns3:TrackPointExtension>
            <ns3:atemp>21.0</ns3:atemp>
          </ns3:TrackPointExtension>
        </extensions>
      </trkpt>
      <trkpt lat="42.515254877507686614990234375" lon="19.77111560292541980743408203125">
        <ele>1838</ele>
        <time>2026-06-18T10:48:58.000Z</time>
        <extensions>
          <ns3:TrackPointExtension>
            <ns3:atemp>21.0</ns3:atemp>
          </ns3:TrackPointExtension>
        </extensions>
      </trkpt>
      <trkpt lat="42.5152560509741306304931640625" lon="19.77110705338418483734130859375">
        <ele>1838.4000244140625</ele>
        <time>2026-06-18T10:48:59.000Z</time>
        <extensions>
          <ns3:TrackPointExtension>
            <ns3:atemp>21.0</ns3:atemp>
          </ns3:TrackPointExtension>
        </extensions>
      </trkpt>
      <trkpt lat="42.51525479368865489959716796875" lon="19.771096073091030120849609375">
        <ele>1838.4000244140625</ele>
        <time>2026-06-18T10:49:00.000Z</time>
        <extensions>
          <ns3:TrackPointExtension>
            <ns3:atemp>21.0</ns3:atemp>
          </ns3:TrackPointExtension>
        </extensions>
      </trkpt>
      <trkpt lat="42.515252865850925445556640625" lon="19.771083332598209381103515625">
        <ele>1838.5999755859375</ele>
        <time>2026-06-18T10:49:01.000Z</time>
        <extensions>
          <ns3:TrackPointExtension>
            <ns3:atemp>21.0</ns3:atemp>
          </ns3:TrackPointExtension>
        </extensions>
      </trkpt>
      <trkpt lat="42.5152500160038471221923828125" lon="19.77108098566532135009765625">
        <ele>1838.5999755859375</ele>
        <time>2026-06-18T10:49:02.000Z</time>
        <extensions>
          <ns3:TrackPointExtension>
            <ns3:atemp>21.0</ns3:atemp>
          </ns3:TrackPointExtension>
        </extensions>
      </trkpt>
      <trkpt lat="42.5152500160038471221923828125" lon="19.77108090184628963470458984375">
        <ele>1838.5999755859375</ele>
        <time>2026-06-18T10:49:03.000Z</time>
        <extensions>
          <ns3:TrackPointExtension>
            <ns3:atemp>21.0</ns3:atemp>
          </ns3:TrackPointExtension>
        </extensions>
      </trkpt>
      <trkpt lat="42.5152500160038471221923828125" lon="19.77108090184628963470458984375">
        <ele>1838.5999755859375</ele>
        <time>2026-06-18T10:49:04.000Z</time>
        <extensions>
          <ns3:TrackPointExtension>
            <ns3:atemp>21.0</ns3:atemp>
          </ns3:TrackPointExtension>
        </extensions>
      </trkpt>
      <trkpt lat="42.51525009982287883758544921875" lon="19.7710808180272579193115234375">
        <ele>1838.5999755859375</ele>
        <time>2026-06-18T10:49:05.000Z</time>
        <extensions>
          <ns3:TrackPointExtension>
            <ns3:atemp>21.0</ns3:atemp>
          </ns3:TrackPointExtension>
        </extensions>
      </trkpt>
      <trkpt lat="42.51524959690868854522705078125" lon="19.77108844555914402008056640625">
        <ele>1838.5999755859375</ele>
        <time>2026-06-18T10:49:06.000Z</time>
        <extensions>
          <ns3:TrackPointExtension>
            <ns3:atemp>21.0</ns3:atemp>
          </ns3:TrackPointExtension>
        </extensions>
      </trkpt>
      <trkpt lat="42.51524859108030796051025390625" lon="19.77110420353710651397705078125">
        <ele>1839</ele>
        <time>2026-06-18T10:49:07.000Z</time>
        <extensions>
          <ns3:TrackPointExtension>
            <ns3:atemp>21.0</ns3:atemp>
          </ns3:TrackPointExtension>
        </extensions>
      </trkpt>
      <trkpt lat="42.515248171985149383544921875" lon="19.77111359126865863800048828125">
        <ele>1839.199951171875</ele>
        <time>2026-06-18T10:49:08.000Z</time>
        <extensions>
          <ns3:TrackPointExtension>
            <ns3:atemp>21.0</ns3:atemp>
          </ns3:TrackPointExtension>
        </extensions>
      </trkpt>
      <trkpt lat="42.515247501432895660400390625" lon="19.7711176984012126922607421875">
        <ele>1839.199951171875</ele>
        <time>2026-06-18T10:49:09.000Z</time>
        <extensions>
          <ns3:TrackPointExtension>
            <ns3:atemp>21.0</ns3:atemp>
          </ns3:TrackPointExtension>
        </extensions>
      </trkpt>
      <trkpt lat="42.5152466632425785064697265625" lon="19.771117866039276123046875">
        <ele>1839.4000244140625</ele>
        <time>2026-06-18T10:49:10.000Z</time>
        <extensions>
          <ns3:TrackPointExtension>
            <ns3:atemp>21.0</ns3:atemp>
          </ns3:TrackPointExtension>
        </extensions>
      </trkpt>
      <trkpt lat="42.5152466632425785064697265625" lon="19.7711180336773395538330078125">
        <ele>1839.199951171875</ele>
        <time>2026-06-18T10:49:11.000Z</time>
        <extensions>
          <ns3:TrackPointExtension>
            <ns3:atemp>21.0</ns3:atemp>
          </ns3:TrackPointExtension>
        </extensions>
      </trkpt>
      <trkpt lat="42.5152466632425785064697265625" lon="19.771118201315402984619140625">
        <ele>1839</ele>
        <time>2026-06-18T10:49:12.000Z</time>
        <extensions>
          <ns3:TrackPointExtension>
            <ns3:atemp>21.0</ns3:atemp>
          </ns3:TrackPointExtension>
        </extensions>
      </trkpt>
      <trkpt lat="42.5152466632425785064697265625" lon="19.7711180336773395538330078125">
        <ele>1839</ele>
        <time>2026-06-18T10:49:13.000Z</time>
        <extensions>
          <ns3:TrackPointExtension>
            <ns3:atemp>21.0</ns3:atemp>
          </ns3:TrackPointExtension>
        </extensions>
      </trkpt>
      <trkpt lat="42.515247166156768798828125" lon="19.77112297900021076202392578125">
        <ele>1839</ele>
        <time>2026-06-18T10:49:14.000Z</time>
        <extensions>
          <ns3:TrackPointExtension>
            <ns3:atemp>21.0</ns3:atemp>
          </ns3:TrackPointExtension>
        </extensions>
      </trkpt>
      <trkpt lat="42.51525345258414745330810546875" lon="19.7711425088346004486083984375">
        <ele>1839.199951171875</ele>
        <time>2026-06-18T10:49:15.000Z</time>
        <extensions>
          <ns3:TrackPointExtension>
            <ns3:atemp>21.0</ns3:atemp>
          </ns3:TrackPointExtension>
        </extensions>
      </trkpt>
      <trkpt lat="42.51525948755443096160888671875" lon="19.77116522379219532012939453125">
        <ele>1839.199951171875</ele>
        <time>2026-06-18T10:49:16.000Z</time>
        <extensions>
          <ns3:TrackPointExtension>
            <ns3:atemp>21.0</ns3:atemp>
          </ns3:TrackPointExtension>
        </extensions>
      </trkpt>
      <trkpt lat="42.5152607448399066925048828125" lon="19.7711964882910251617431640625">
        <ele>1839.199951171875</ele>
        <time>2026-06-18T10:49:17.000Z</time>
        <extensions>
          <ns3:TrackPointExtension>
            <ns3:atemp>21.0</ns3:atemp>
          </ns3:TrackPointExtension>
        </extensions>
      </trkpt>
      <trkpt lat="42.5152637623250484466552734375" lon="19.771226160228252410888671875">
        <ele>1839.199951171875</ele>
        <time>2026-06-18T10:49:18.000Z</time>
        <extensions>
          <ns3:TrackPointExtension>
            <ns3:atemp>21.0</ns3:atemp>
          </ns3:TrackPointExtension>
        </extensions>
      </trkpt>
      <trkpt lat="42.5152637623250484466552734375" lon="19.77124619297683238983154296875">
        <ele>1839</ele>
        <time>2026-06-18T10:49:19.000Z</time>
        <extensions>
          <ns3:TrackPointExtension>
            <ns3:atemp>21.0</ns3:atemp>
          </ns3:TrackPointExtension>
        </extensions>
      </trkpt>
      <trkpt lat="42.5152654387056827545166015625" lon="19.771263711154460906982421875">
        <ele>1839</ele>
        <time>2026-06-18T10:49:20.000Z</time>
        <extensions>
          <ns3:TrackPointExtension>
            <ns3:atemp>21.0</ns3:atemp>
          </ns3:TrackPointExtension>
        </extensions>
      </trkpt>
      <trkpt lat="42.51526334322988986968994140625" lon="19.77126630954444408416748046875">
        <ele>1839</ele>
        <time>2026-06-18T10:49:21.000Z</time>
        <extensions>
          <ns3:TrackPointExtension>
            <ns3:atemp>21.0</ns3:atemp>
          </ns3:TrackPointExtension>
        </extensions>
      </trkpt>
      <trkpt lat="42.51526334322988986968994140625" lon="19.77126630954444408416748046875">
        <ele>1839</ele>
        <time>2026-06-18T10:49:22.000Z</time>
        <extensions>
          <ns3:TrackPointExtension>
            <ns3:atemp>21.0</ns3:atemp>
          </ns3:TrackPointExtension>
        </extensions>
      </trkpt>
      <trkpt lat="42.51526334322988986968994140625" lon="19.77126630954444408416748046875">
        <ele>1839</ele>
        <time>2026-06-18T10:49:23.000Z</time>
        <extensions>
          <ns3:TrackPointExtension>
            <ns3:atemp>21.0</ns3:atemp>
          </ns3:TrackPointExtension>
        </extensions>
      </trkpt>
      <trkpt lat="42.51526334322988986968994140625" lon="19.77126630954444408416748046875">
        <ele>1839.199951171875</ele>
        <time>2026-06-18T10:49:24.000Z</time>
        <extensions>
          <ns3:TrackPointExtension>
            <ns3:atemp>21.0</ns3:atemp>
          </ns3:TrackPointExtension>
        </extensions>
      </trkpt>
      <trkpt lat="42.51526334322988986968994140625" lon="19.77126630954444408416748046875">
        <ele>1839.199951171875</ele>
        <time>2026-06-18T10:49:25.000Z</time>
        <extensions>
          <ns3:TrackPointExtension>
            <ns3:atemp>21.0</ns3:atemp>
          </ns3:TrackPointExtension>
        </extensions>
      </trkpt>
      <trkpt lat="42.51526334322988986968994140625" lon="19.77126630954444408416748046875">
        <ele>1839.199951171875</ele>
        <time>2026-06-18T10:49:26.000Z</time>
        <extensions>
          <ns3:TrackPointExtension>
            <ns3:atemp>21.0</ns3:atemp>
          </ns3:TrackPointExtension>
        </extensions>
      </trkpt>
      <trkpt lat="42.51526334322988986968994140625" lon="19.77126630954444408416748046875">
        <ele>1839.199951171875</ele>
        <time>2026-06-18T10:49:27.000Z</time>
        <extensions>
          <ns3:TrackPointExtension>
            <ns3:atemp>21.0</ns3:atemp>
          </ns3:TrackPointExtension>
        </extensions>
      </trkpt>
      <trkpt lat="42.51526334322988986968994140625" lon="19.77126630954444408416748046875">
        <ele>1839.199951171875</ele>
        <time>2026-06-18T10:49:28.000Z</time>
        <extensions>
          <ns3:TrackPointExtension>
            <ns3:atemp>21.0</ns3:atemp>
          </ns3:TrackPointExtension>
        </extensions>
      </trkpt>
      <trkpt lat="42.51526334322988986968994140625" lon="19.77126630954444408416748046875">
        <ele>1839.199951171875</ele>
        <time>2026-06-18T10:49:29.000Z</time>
        <extensions>
          <ns3:TrackPointExtension>
            <ns3:atemp>21.0</ns3:atemp>
          </ns3:TrackPointExtension>
        </extensions>
      </trkpt>
      <trkpt lat="42.51526334322988986968994140625" lon="19.77126630954444408416748046875">
        <ele>1839.199951171875</ele>
        <time>2026-06-18T10:49:30.000Z</time>
        <extensions>
          <ns3:TrackPointExtension>
            <ns3:atemp>21.0</ns3:atemp>
          </ns3:TrackPointExtension>
        </extensions>
      </trkpt>
      <trkpt lat="42.51526334322988986968994140625" lon="19.77126630954444408416748046875">
        <ele>1839.199951171875</ele>
        <time>2026-06-18T10:49:31.000Z</time>
        <extensions>
          <ns3:TrackPointExtension>
            <ns3:atemp>21.0</ns3:atemp>
          </ns3:TrackPointExtension>
        </extensions>
      </trkpt>
      <trkpt lat="42.51526334322988986968994140625" lon="19.77126630954444408416748046875">
        <ele>1839.199951171875</ele>
        <time>2026-06-18T10:49:32.000Z</time>
        <extensions>
          <ns3:TrackPointExtension>
            <ns3:atemp>21.0</ns3:atemp>
          </ns3:TrackPointExtension>
        </extensions>
      </trkpt>
      <trkpt lat="42.51526334322988986968994140625" lon="19.77126630954444408416748046875">
        <ele>1839.199951171875</ele>
        <time>2026-06-18T10:49:33.000Z</time>
        <extensions>
          <ns3:TrackPointExtension>
            <ns3:atemp>21.0</ns3:atemp>
          </ns3:TrackPointExtension>
        </extensions>
      </trkpt>
      <trkpt lat="42.51526334322988986968994140625" lon="19.77126630954444408416748046875">
        <ele>1839.199951171875</ele>
        <time>2026-06-18T10:49:34.000Z</time>
        <extensions>
          <ns3:TrackPointExtension>
            <ns3:atemp>21.0</ns3:atemp>
          </ns3:TrackPointExtension>
        </extensions>
      </trkpt>
      <trkpt lat="42.51526334322988986968994140625" lon="19.77126630954444408416748046875">
        <ele>1839.199951171875</ele>
        <time>2026-06-18T10:49:35.000Z</time>
        <extensions>
          <ns3:TrackPointExtension>
            <ns3:atemp>21.0</ns3:atemp>
          </ns3:TrackPointExtension>
        </extensions>
      </trkpt>
      <trkpt lat="42.51526334322988986968994140625" lon="19.77126630954444408416748046875">
        <ele>1839.199951171875</ele>
        <time>2026-06-18T10:49:36.000Z</time>
        <extensions>
          <ns3:TrackPointExtension>
            <ns3:atemp>21.0</ns3:atemp>
          </ns3:TrackPointExtension>
        </extensions>
      </trkpt>
      <trkpt lat="42.51526334322988986968994140625" lon="19.77126630954444408416748046875">
        <ele>1839.199951171875</ele>
        <time>2026-06-18T10:49:37.000Z</time>
        <extensions>
          <ns3:TrackPointExtension>
            <ns3:atemp>21.0</ns3:atemp>
          </ns3:TrackPointExtension>
        </extensions>
      </trkpt>
      <trkpt lat="42.51526334322988986968994140625" lon="19.77126630954444408416748046875">
        <ele>1839.199951171875</ele>
        <time>2026-06-18T10:49:38.000Z</time>
        <extensions>
          <ns3:TrackPointExtension>
            <ns3:atemp>21.0</ns3:atemp>
          </ns3:TrackPointExtension>
        </extensions>
      </trkpt>
      <trkpt lat="42.51526334322988986968994140625" lon="19.77126630954444408416748046875">
        <ele>1839.199951171875</ele>
        <time>2026-06-18T10:49:39.000Z</time>
        <extensions>
          <ns3:TrackPointExtension>
            <ns3:atemp>21.0</ns3:atemp>
          </ns3:TrackPointExtension>
        </extensions>
      </trkpt>
      <trkpt lat="42.51526334322988986968994140625" lon="19.77126630954444408416748046875">
        <ele>1839.199951171875</ele>
        <time>2026-06-18T10:49:40.000Z</time>
        <extensions>
          <ns3:TrackPointExtension>
            <ns3:atemp>21.0</ns3:atemp>
          </ns3:TrackPointExtension>
        </extensions>
      </trkpt>
      <trkpt lat="42.51526334322988986968994140625" lon="19.77126630954444408416748046875">
        <ele>1839.4000244140625</ele>
        <time>2026-06-18T10:49:41.000Z</time>
        <extensions>
          <ns3:TrackPointExtension>
            <ns3:atemp>21.0</ns3:atemp>
          </ns3:TrackPointExtension>
        </extensions>
      </trkpt>
      <trkpt lat="42.51526334322988986968994140625" lon="19.77126630954444408416748046875">
        <ele>1839.4000244140625</ele>
        <time>2026-06-18T10:49:42.000Z</time>
        <extensions>
          <ns3:TrackPointExtension>
            <ns3:atemp>21.0</ns3:atemp>
          </ns3:TrackPointExtension>
        </extensions>
      </trkpt>
      <trkpt lat="42.51526334322988986968994140625" lon="19.77126630954444408416748046875">
        <ele>1839.4000244140625</ele>
        <time>2026-06-18T10:49:43.000Z</time>
        <extensions>
          <ns3:TrackPointExtension>
            <ns3:atemp>21.0</ns3:atemp>
          </ns3:TrackPointExtension>
        </extensions>
      </trkpt>
      <trkpt lat="42.51526334322988986968994140625" lon="19.77126630954444408416748046875">
        <ele>1839.5999755859375</ele>
        <time>2026-06-18T10:49:44.000Z</time>
        <extensions>
          <ns3:TrackPointExtension>
            <ns3:atemp>21.0</ns3:atemp>
          </ns3:TrackPointExtension>
        </extensions>
      </trkpt>
      <trkpt lat="42.51526334322988986968994140625" lon="19.77126630954444408416748046875">
        <ele>1839.5999755859375</ele>
        <time>2026-06-18T10:49:45.000Z</time>
        <extensions>
          <ns3:TrackPointExtension>
            <ns3:atemp>21.0</ns3:atemp>
          </ns3:TrackPointExtension>
        </extensions>
      </trkpt>
      <trkpt lat="42.51526334322988986968994140625" lon="19.77126630954444408416748046875">
        <ele>1839.5999755859375</ele>
        <time>2026-06-18T10:49:46.000Z</time>
        <extensions>
          <ns3:TrackPointExtension>
            <ns3:atemp>21.0</ns3:atemp>
          </ns3:TrackPointExtension>
        </extensions>
      </trkpt>
      <trkpt lat="42.51526334322988986968994140625" lon="19.77126630954444408416748046875">
        <ele>1839.5999755859375</ele>
        <time>2026-06-18T10:49:47.000Z</time>
        <extensions>
          <ns3:TrackPointExtension>
            <ns3:atemp>21.0</ns3:atemp>
          </ns3:TrackPointExtension>
        </extensions>
      </trkpt>
      <trkpt lat="42.51526334322988986968994140625" lon="19.77126630954444408416748046875">
        <ele>1839.5999755859375</ele>
        <time>2026-06-18T10:49:48.000Z</time>
        <extensions>
          <ns3:TrackPointExtension>
            <ns3:atemp>21.0</ns3:atemp>
          </ns3:TrackPointExtension>
        </extensions>
      </trkpt>
      <trkpt lat="42.51526334322988986968994140625" lon="19.77126630954444408416748046875">
        <ele>1839.5999755859375</ele>
        <time>2026-06-18T10:49:49.000Z</time>
        <extensions>
          <ns3:TrackPointExtension>
            <ns3:atemp>21.0</ns3:atemp>
          </ns3:TrackPointExtension>
        </extensions>
      </trkpt>
      <trkpt lat="42.51526334322988986968994140625" lon="19.77126630954444408416748046875">
        <ele>1839.5999755859375</ele>
        <time>2026-06-18T10:49:50.000Z</time>
        <extensions>
          <ns3:TrackPointExtension>
            <ns3:atemp>21.0</ns3:atemp>
          </ns3:TrackPointExtension>
        </extensions>
      </trkpt>
      <trkpt lat="42.51526334322988986968994140625" lon="19.77126630954444408416748046875">
        <ele>1839.5999755859375</ele>
        <time>2026-06-18T10:49:51.000Z</time>
        <extensions>
          <ns3:TrackPointExtension>
            <ns3:atemp>21.0</ns3:atemp>
          </ns3:TrackPointExtension>
        </extensions>
      </trkpt>
      <trkpt lat="42.51526334322988986968994140625" lon="19.77126630954444408416748046875">
        <ele>1839.5999755859375</ele>
        <time>2026-06-18T10:49:52.000Z</time>
        <extensions>
          <ns3:TrackPointExtension>
            <ns3:atemp>21.0</ns3:atemp>
          </ns3:TrackPointExtension>
        </extensions>
      </trkpt>
      <trkpt lat="42.51526334322988986968994140625" lon="19.77126630954444408416748046875">
        <ele>1839.4000244140625</ele>
        <time>2026-06-18T10:49:53.000Z</time>
        <extensions>
          <ns3:TrackPointExtension>
            <ns3:atemp>21.0</ns3:atemp>
          </ns3:TrackPointExtension>
        </extensions>
      </trkpt>
      <trkpt lat="42.51526334322988986968994140625" lon="19.77126630954444408416748046875">
        <ele>1839.4000244140625</ele>
        <time>2026-06-18T10:49:54.000Z</time>
        <extensions>
          <ns3:TrackPointExtension>
            <ns3:atemp>21.0</ns3:atemp>
          </ns3:TrackPointExtension>
        </extensions>
      </trkpt>
      <trkpt lat="42.51526334322988986968994140625" lon="19.77126630954444408416748046875">
        <ele>1839.4000244140625</ele>
        <time>2026-06-18T10:49:55.000Z</time>
        <extensions>
          <ns3:TrackPointExtension>
            <ns3:atemp>21.0</ns3:atemp>
          </ns3:TrackPointExtension>
        </extensions>
      </trkpt>
      <trkpt lat="42.51526334322988986968994140625" lon="19.77126630954444408416748046875">
        <ele>1839.4000244140625</ele>
        <time>2026-06-18T10:49:56.000Z</time>
        <extensions>
          <ns3:TrackPointExtension>
            <ns3:atemp>21.0</ns3:atemp>
          </ns3:TrackPointExtension>
        </extensions>
      </trkpt>
      <trkpt lat="42.51526334322988986968994140625" lon="19.77126630954444408416748046875">
        <ele>1839.5999755859375</ele>
        <time>2026-06-18T10:49:57.000Z</time>
        <extensions>
          <ns3:TrackPointExtension>
            <ns3:atemp>21.0</ns3:atemp>
          </ns3:TrackPointExtension>
        </extensions>
      </trkpt>
      <trkpt lat="42.51526334322988986968994140625" lon="19.77126630954444408416748046875">
        <ele>1839.5999755859375</ele>
        <time>2026-06-18T10:49:58.000Z</time>
        <extensions>
          <ns3:TrackPointExtension>
            <ns3:atemp>21.0</ns3:atemp>
          </ns3:TrackPointExtension>
        </extensions>
      </trkpt>
      <trkpt lat="42.51526334322988986968994140625" lon="19.77126630954444408416748046875">
        <ele>1839.5999755859375</ele>
        <time>2026-06-18T10:49:59.000Z</time>
        <extensions>
          <ns3:TrackPointExtension>
            <ns3:atemp>21.0</ns3:atemp>
          </ns3:TrackPointExtension>
        </extensions>
      </trkpt>
      <trkpt lat="42.51526334322988986968994140625" lon="19.77126630954444408416748046875">
        <ele>1839.5999755859375</ele>
        <time>2026-06-18T10:50:00.000Z</time>
        <extensions>
          <ns3:TrackPointExtension>
            <ns3:atemp>21.0</ns3:atemp>
          </ns3:TrackPointExtension>
        </extensions>
      </trkpt>
      <trkpt lat="42.51526334322988986968994140625" lon="19.77126630954444408416748046875">
        <ele>1839.800048828125</ele>
        <time>2026-06-18T10:50:01.000Z</time>
        <extensions>
          <ns3:TrackPointExtension>
            <ns3:atemp>21.0</ns3:atemp>
          </ns3:TrackPointExtension>
        </extensions>
      </trkpt>
      <trkpt lat="42.51526334322988986968994140625" lon="19.77126630954444408416748046875">
        <ele>1839.800048828125</ele>
        <time>2026-06-18T10:50:02.000Z</time>
        <extensions>
          <ns3:TrackPointExtension>
            <ns3:atemp>21.0</ns3:atemp>
          </ns3:TrackPointExtension>
        </extensions>
      </trkpt>
      <trkpt lat="42.51526334322988986968994140625" lon="19.77126630954444408416748046875">
        <ele>1839.800048828125</ele>
        <time>2026-06-18T10:50:03.000Z</time>
        <extensions>
          <ns3:TrackPointExtension>
            <ns3:atemp>21.0</ns3:atemp>
          </ns3:TrackPointExtension>
        </extensions>
      </trkpt>
      <trkpt lat="42.51526334322988986968994140625" lon="19.77126630954444408416748046875">
        <ele>1839.800048828125</ele>
        <time>2026-06-18T10:50:04.000Z</time>
        <extensions>
          <ns3:TrackPointExtension>
            <ns3:atemp>21.0</ns3:atemp>
          </ns3:TrackPointExtension>
        </extensions>
      </trkpt>
      <trkpt lat="42.51526334322988986968994140625" lon="19.77126630954444408416748046875">
        <ele>1839.800048828125</ele>
        <time>2026-06-18T10:50:05.000Z</time>
        <extensions>
          <ns3:TrackPointExtension>
            <ns3:atemp>21.0</ns3:atemp>
          </ns3:TrackPointExtension>
        </extensions>
      </trkpt>
      <trkpt lat="42.51526334322988986968994140625" lon="19.77126630954444408416748046875">
        <ele>1839.800048828125</ele>
        <time>2026-06-18T10:50:06.000Z</time>
        <extensions>
          <ns3:TrackPointExtension>
            <ns3:atemp>21.0</ns3:atemp>
          </ns3:TrackPointExtension>
        </extensions>
      </trkpt>
      <trkpt lat="42.51526334322988986968994140625" lon="19.77126630954444408416748046875">
        <ele>1839.800048828125</ele>
        <time>2026-06-18T10:50:07.000Z</time>
        <extensions>
          <ns3:TrackPointExtension>
            <ns3:atemp>21.0</ns3:atemp>
          </ns3:TrackPointExtension>
        </extensions>
      </trkpt>
      <trkpt lat="42.51526334322988986968994140625" lon="19.77126630954444408416748046875">
        <ele>1839.800048828125</ele>
        <time>2026-06-18T10:50:08.000Z</time>
        <extensions>
          <ns3:TrackPointExtension>
            <ns3:atemp>21.0</ns3:atemp>
          </ns3:TrackPointExtension>
        </extensions>
      </trkpt>
      <trkpt lat="42.51526334322988986968994140625" lon="19.77126630954444408416748046875">
        <ele>1839.800048828125</ele>
        <time>2026-06-18T10:50:09.000Z</time>
        <extensions>
          <ns3:TrackPointExtension>
            <ns3:atemp>21.0</ns3:atemp>
          </ns3:TrackPointExtension>
        </extensions>
      </trkpt>
      <trkpt lat="42.51526334322988986968994140625" lon="19.77126630954444408416748046875">
        <ele>1840</ele>
        <time>2026-06-18T10:50:10.000Z</time>
        <extensions>
          <ns3:TrackPointExtension>
            <ns3:atemp>21.0</ns3:atemp>
          </ns3:TrackPointExtension>
        </extensions>
      </trkpt>
      <trkpt lat="42.51526334322988986968994140625" lon="19.77126630954444408416748046875">
        <ele>1840.199951171875</ele>
        <time>2026-06-18T10:50:11.000Z</time>
        <extensions>
          <ns3:TrackPointExtension>
            <ns3:atemp>21.0</ns3:atemp>
          </ns3:TrackPointExtension>
        </extensions>
      </trkpt>
      <trkpt lat="42.51526334322988986968994140625" lon="19.77126630954444408416748046875">
        <ele>1840.199951171875</ele>
        <time>2026-06-18T10:50:12.000Z</time>
        <extensions>
          <ns3:TrackPointExtension>
            <ns3:atemp>21.0</ns3:atemp>
          </ns3:TrackPointExtension>
        </extensions>
      </trkpt>
      <trkpt lat="42.51526334322988986968994140625" lon="19.77126630954444408416748046875">
        <ele>1840.4000244140625</ele>
        <time>2026-06-18T10:50:13.000Z</time>
        <extensions>
          <ns3:TrackPointExtension>
            <ns3:atemp>21.0</ns3:atemp>
          </ns3:TrackPointExtension>
        </extensions>
      </trkpt>
      <trkpt lat="42.51526334322988986968994140625" lon="19.77126630954444408416748046875">
        <ele>1840.4000244140625</ele>
        <time>2026-06-18T10:50:14.000Z</time>
        <extensions>
          <ns3:TrackPointExtension>
            <ns3:atemp>21.0</ns3:atemp>
          </ns3:TrackPointExtension>
        </extensions>
      </trkpt>
      <trkpt lat="42.51526334322988986968994140625" lon="19.77126630954444408416748046875">
        <ele>1840.5999755859375</ele>
        <time>2026-06-18T10:50:15.000Z</time>
        <extensions>
          <ns3:TrackPointExtension>
            <ns3:atemp>21.0</ns3:atemp>
          </ns3:TrackPointExtension>
        </extensions>
      </trkpt>
      <trkpt lat="42.51526334322988986968994140625" lon="19.77126630954444408416748046875">
        <ele>1840.5999755859375</ele>
        <time>2026-06-18T10:50:16.000Z</time>
        <extensions>
          <ns3:TrackPointExtension>
            <ns3:atemp>21.0</ns3:atemp>
          </ns3:TrackPointExtension>
        </extensions>
      </trkpt>
      <trkpt lat="42.51526334322988986968994140625" lon="19.77126630954444408416748046875">
        <ele>1840.5999755859375</ele>
        <time>2026-06-18T10:50:17.000Z</time>
        <extensions>
          <ns3:TrackPointExtension>
            <ns3:atemp>21.0</ns3:atemp>
          </ns3:TrackPointExtension>
        </extensions>
      </trkpt>
      <trkpt lat="42.51526334322988986968994140625" lon="19.77126630954444408416748046875">
        <ele>1840.800048828125</ele>
        <time>2026-06-18T10:50:18.000Z</time>
        <extensions>
          <ns3:TrackPointExtension>
            <ns3:atemp>21.0</ns3:atemp>
          </ns3:TrackPointExtension>
        </extensions>
      </trkpt>
      <trkpt lat="42.51526334322988986968994140625" lon="19.77126630954444408416748046875">
        <ele>1840.800048828125</ele>
        <time>2026-06-18T10:50:19.000Z</time>
        <extensions>
          <ns3:TrackPointExtension>
            <ns3:atemp>21.0</ns3:atemp>
          </ns3:TrackPointExtension>
        </extensions>
      </trkpt>
      <trkpt lat="42.51526334322988986968994140625" lon="19.77126630954444408416748046875">
        <ele>1840.800048828125</ele>
        <time>2026-06-18T10:50:20.000Z</time>
        <extensions>
          <ns3:TrackPointExtension>
            <ns3:atemp>21.0</ns3:atemp>
          </ns3:TrackPointExtension>
        </extensions>
      </trkpt>
      <trkpt lat="42.51526334322988986968994140625" lon="19.77126630954444408416748046875">
        <ele>1840.800048828125</ele>
        <time>2026-06-18T10:50:21.000Z</time>
        <extensions>
          <ns3:TrackPointExtension>
            <ns3:atemp>21.0</ns3:atemp>
          </ns3:TrackPointExtension>
        </extensions>
      </trkpt>
      <trkpt lat="42.51526334322988986968994140625" lon="19.77126630954444408416748046875">
        <ele>1840.800048828125</ele>
        <time>2026-06-18T10:50:22.000Z</time>
        <extensions>
          <ns3:TrackPointExtension>
            <ns3:atemp>21.0</ns3:atemp>
          </ns3:TrackPointExtension>
        </extensions>
      </trkpt>
      <trkpt lat="42.51526334322988986968994140625" lon="19.77126630954444408416748046875">
        <ele>1840.800048828125</ele>
        <time>2026-06-18T10:50:23.000Z</time>
        <extensions>
          <ns3:TrackPointExtension>
            <ns3:atemp>21.0</ns3:atemp>
          </ns3:TrackPointExtension>
        </extensions>
      </trkpt>
      <trkpt lat="42.51526334322988986968994140625" lon="19.77126630954444408416748046875">
        <ele>1841</ele>
        <time>2026-06-18T10:50:24.000Z</time>
        <extensions>
          <ns3:TrackPointExtension>
            <ns3:atemp>21.0</ns3:atemp>
          </ns3:TrackPointExtension>
        </extensions>
      </trkpt>
      <trkpt lat="42.51526334322988986968994140625" lon="19.77126630954444408416748046875">
        <ele>1841</ele>
        <time>2026-06-18T10:50:25.000Z</time>
        <extensions>
          <ns3:TrackPointExtension>
            <ns3:atemp>21.0</ns3:atemp>
          </ns3:TrackPointExtension>
        </extensions>
      </trkpt>
      <trkpt lat="42.51526334322988986968994140625" lon="19.77126630954444408416748046875">
        <ele>1841.199951171875</ele>
        <time>2026-06-18T10:50:26.000Z</time>
        <extensions>
          <ns3:TrackPointExtension>
            <ns3:atemp>21.0</ns3:atemp>
          </ns3:TrackPointExtension>
        </extensions>
      </trkpt>
      <trkpt lat="42.51526334322988986968994140625" lon="19.77126630954444408416748046875">
        <ele>1841.199951171875</ele>
        <time>2026-06-18T10:50:27.000Z</time>
        <extensions>
          <ns3:TrackPointExtension>
            <ns3:atemp>21.0</ns3:atemp>
          </ns3:TrackPointExtension>
        </extensions>
      </trkpt>
      <trkpt lat="42.51526334322988986968994140625" lon="19.77126630954444408416748046875">
        <ele>1841.199951171875</ele>
        <time>2026-06-18T10:50:28.000Z</time>
        <extensions>
          <ns3:TrackPointExtension>
            <ns3:atemp>21.0</ns3:atemp>
          </ns3:TrackPointExtension>
        </extensions>
      </trkpt>
      <trkpt lat="42.51526334322988986968994140625" lon="19.77126630954444408416748046875">
        <ele>1841.199951171875</ele>
        <time>2026-06-18T10:50:29.000Z</time>
        <extensions>
          <ns3:TrackPointExtension>
            <ns3:atemp>21.0</ns3:atemp>
          </ns3:TrackPointExtension>
        </extensions>
      </trkpt>
      <trkpt lat="42.51526334322988986968994140625" lon="19.77126630954444408416748046875">
        <ele>1841.199951171875</ele>
        <time>2026-06-18T10:50:30.000Z</time>
        <extensions>
          <ns3:TrackPointExtension>
            <ns3:atemp>21.0</ns3:atemp>
          </ns3:TrackPointExtension>
        </extensions>
      </trkpt>
      <trkpt lat="42.51526334322988986968994140625" lon="19.77126630954444408416748046875">
        <ele>1841.199951171875</ele>
        <time>2026-06-18T10:50:31.000Z</time>
        <extensions>
          <ns3:TrackPointExtension>
            <ns3:atemp>21.0</ns3:atemp>
          </ns3:TrackPointExtension>
        </extensions>
      </trkpt>
      <trkpt lat="42.51526334322988986968994140625" lon="19.77126630954444408416748046875">
        <ele>1841.199951171875</ele>
        <time>2026-06-18T10:50:32.000Z</time>
        <extensions>
          <ns3:TrackPointExtension>
            <ns3:atemp>21.0</ns3:atemp>
          </ns3:TrackPointExtension>
        </extensions>
      </trkpt>
      <trkpt lat="42.51526334322988986968994140625" lon="19.77126630954444408416748046875">
        <ele>1841.199951171875</ele>
        <time>2026-06-18T10:50:33.000Z</time>
        <extensions>
          <ns3:TrackPointExtension>
            <ns3:atemp>21.0</ns3:atemp>
          </ns3:TrackPointExtension>
        </extensions>
      </trkpt>
      <trkpt lat="42.51526334322988986968994140625" lon="19.77126630954444408416748046875">
        <ele>1841.199951171875</ele>
        <time>2026-06-18T10:50:34.000Z</time>
        <extensions>
          <ns3:TrackPointExtension>
            <ns3:atemp>21.0</ns3:atemp>
          </ns3:TrackPointExtension>
        </extensions>
      </trkpt>
      <trkpt lat="42.51526334322988986968994140625" lon="19.77126630954444408416748046875">
        <ele>1841.199951171875</ele>
        <time>2026-06-18T10:50:35.000Z</time>
        <extensions>
          <ns3:TrackPointExtension>
            <ns3:atemp>21.0</ns3:atemp>
          </ns3:TrackPointExtension>
        </extensions>
      </trkpt>
      <trkpt lat="42.51526334322988986968994140625" lon="19.77126630954444408416748046875">
        <ele>1841</ele>
        <time>2026-06-18T10:50:36.000Z</time>
        <extensions>
          <ns3:TrackPointExtension>
            <ns3:atemp>21.0</ns3:atemp>
          </ns3:TrackPointExtension>
        </extensions>
      </trkpt>
      <trkpt lat="42.51526334322988986968994140625" lon="19.77126630954444408416748046875">
        <ele>1841</ele>
        <time>2026-06-18T10:50:37.000Z</time>
        <extensions>
          <ns3:TrackPointExtension>
            <ns3:atemp>21.0</ns3:atemp>
          </ns3:TrackPointExtension>
        </extensions>
      </trkpt>
      <trkpt lat="42.51526334322988986968994140625" lon="19.77126630954444408416748046875">
        <ele>1841</ele>
        <time>2026-06-18T10:50:38.000Z</time>
        <extensions>
          <ns3:TrackPointExtension>
            <ns3:atemp>20.0</ns3:atemp>
          </ns3:TrackPointExtension>
        </extensions>
      </trkpt>
      <trkpt lat="42.51526334322988986968994140625" lon="19.77126630954444408416748046875">
        <ele>1841</ele>
        <time>2026-06-18T10:50:39.000Z</time>
        <extensions>
          <ns3:TrackPointExtension>
            <ns3:atemp>20.0</ns3:atemp>
          </ns3:TrackPointExtension>
        </extensions>
      </trkpt>
      <trkpt lat="42.51526334322988986968994140625" lon="19.77126630954444408416748046875">
        <ele>1841</ele>
        <time>2026-06-18T10:50:40.000Z</time>
        <extensions>
          <ns3:TrackPointExtension>
            <ns3:atemp>20.0</ns3:atemp>
          </ns3:TrackPointExtension>
        </extensions>
      </trkpt>
      <trkpt lat="42.51526334322988986968994140625" lon="19.77126630954444408416748046875">
        <ele>1841</ele>
        <time>2026-06-18T10:50:41.000Z</time>
        <extensions>
          <ns3:TrackPointExtension>
            <ns3:atemp>20.0</ns3:atemp>
          </ns3:TrackPointExtension>
        </extensions>
      </trkpt>
      <trkpt lat="42.51526334322988986968994140625" lon="19.77126630954444408416748046875">
        <ele>1840.800048828125</ele>
        <time>2026-06-18T10:50:42.000Z</time>
        <extensions>
          <ns3:TrackPointExtension>
            <ns3:atemp>20.0</ns3:atemp>
          </ns3:TrackPointExtension>
        </extensions>
      </trkpt>
      <trkpt lat="42.51526334322988986968994140625" lon="19.77126630954444408416748046875">
        <ele>1840.800048828125</ele>
        <time>2026-06-18T10:50:43.000Z</time>
        <extensions>
          <ns3:TrackPointExtension>
            <ns3:atemp>20.0</ns3:atemp>
          </ns3:TrackPointExtension>
        </extensions>
      </trkpt>
      <trkpt lat="42.51526334322988986968994140625" lon="19.77126630954444408416748046875">
        <ele>1840.800048828125</ele>
        <time>2026-06-18T10:50:44.000Z</time>
        <extensions>
          <ns3:TrackPointExtension>
            <ns3:atemp>20.0</ns3:atemp>
          </ns3:TrackPointExtension>
        </extensions>
      </trkpt>
      <trkpt lat="42.51526334322988986968994140625" lon="19.77126630954444408416748046875">
        <ele>1840.800048828125</ele>
        <time>2026-06-18T10:50:45.000Z</time>
        <extensions>
          <ns3:TrackPointExtension>
            <ns3:atemp>20.0</ns3:atemp>
          </ns3:TrackPointExtension>
        </extensions>
      </trkpt>
      <trkpt lat="42.51526334322988986968994140625" lon="19.77126630954444408416748046875">
        <ele>1841</ele>
        <time>2026-06-18T10:50:46.000Z</time>
        <extensions>
          <ns3:TrackPointExtension>
            <ns3:atemp>20.0</ns3:atemp>
          </ns3:TrackPointExtension>
        </extensions>
      </trkpt>
      <trkpt lat="42.51526334322988986968994140625" lon="19.77126630954444408416748046875">
        <ele>1841</ele>
        <time>2026-06-18T10:50:47.000Z</time>
        <extensions>
          <ns3:TrackPointExtension>
            <ns3:atemp>20.0</ns3:atemp>
          </ns3:TrackPointExtension>
        </extensions>
      </trkpt>
      <trkpt lat="42.51526334322988986968994140625" lon="19.77126630954444408416748046875">
        <ele>1841</ele>
        <time>2026-06-18T10:50:48.000Z</time>
        <extensions>
          <ns3:TrackPointExtension>
            <ns3:atemp>20.0</ns3:atemp>
          </ns3:TrackPointExtension>
        </extensions>
      </trkpt>
      <trkpt lat="42.51526334322988986968994140625" lon="19.77126630954444408416748046875">
        <ele>1841</ele>
        <time>2026-06-18T10:50:49.000Z</time>
        <extensions>
          <ns3:TrackPointExtension>
            <ns3:atemp>20.0</ns3:atemp>
          </ns3:TrackPointExtension>
        </extensions>
      </trkpt>
      <trkpt lat="42.51526334322988986968994140625" lon="19.77126630954444408416748046875">
        <ele>1841</ele>
        <time>2026-06-18T10:50:50.000Z</time>
        <extensions>
          <ns3:TrackPointExtension>
            <ns3:atemp>20.0</ns3:atemp>
          </ns3:TrackPointExtension>
        </extensions>
      </trkpt>
      <trkpt lat="42.51526334322988986968994140625" lon="19.77126630954444408416748046875">
        <ele>1841</ele>
        <time>2026-06-18T10:50:51.000Z</time>
        <extensions>
          <ns3:TrackPointExtension>
            <ns3:atemp>20.0</ns3:atemp>
          </ns3:TrackPointExtension>
        </extensions>
      </trkpt>
      <trkpt lat="42.51526334322988986968994140625" lon="19.77126630954444408416748046875">
        <ele>1841</ele>
        <time>2026-06-18T10:50:52.000Z</time>
        <extensions>
          <ns3:TrackPointExtension>
            <ns3:atemp>20.0</ns3:atemp>
          </ns3:TrackPointExtension>
        </extensions>
      </trkpt>
      <trkpt lat="42.51526334322988986968994140625" lon="19.77126630954444408416748046875">
        <ele>1841</ele>
        <time>2026-06-18T10:50:53.000Z</time>
        <extensions>
          <ns3:TrackPointExtension>
            <ns3:atemp>20.0</ns3:atemp>
          </ns3:TrackPointExtension>
        </extensions>
      </trkpt>
      <trkpt lat="42.51526334322988986968994140625" lon="19.77126630954444408416748046875">
        <ele>1841</ele>
        <time>2026-06-18T10:50:54.000Z</time>
        <extensions>
          <ns3:TrackPointExtension>
            <ns3:atemp>20.0</ns3:atemp>
          </ns3:TrackPointExtension>
        </extensions>
      </trkpt>
      <trkpt lat="42.51526334322988986968994140625" lon="19.77126630954444408416748046875">
        <ele>1841</ele>
        <time>2026-06-18T10:50:55.000Z</time>
        <extensions>
          <ns3:TrackPointExtension>
            <ns3:atemp>20.0</ns3:atemp>
          </ns3:TrackPointExtension>
        </extensions>
      </trkpt>
      <trkpt lat="42.51526334322988986968994140625" lon="19.77126630954444408416748046875">
        <ele>1841.199951171875</ele>
        <time>2026-06-18T10:50:56.000Z</time>
        <extensions>
          <ns3:TrackPointExtension>
            <ns3:atemp>20.0</ns3:atemp>
          </ns3:TrackPointExtension>
        </extensions>
      </trkpt>
      <trkpt lat="42.51526334322988986968994140625" lon="19.77126630954444408416748046875">
        <ele>1841</ele>
        <time>2026-06-18T10:50:57.000Z</time>
        <extensions>
          <ns3:TrackPointExtension>
            <ns3:atemp>20.0</ns3:atemp>
          </ns3:TrackPointExtension>
        </extensions>
      </trkpt>
      <trkpt lat="42.51526334322988986968994140625" lon="19.77126630954444408416748046875">
        <ele>1841</ele>
        <time>2026-06-18T10:50:58.000Z</time>
        <extensions>
          <ns3:TrackPointExtension>
            <ns3:atemp>20.0</ns3:atemp>
          </ns3:TrackPointExtension>
        </extensions>
      </trkpt>
      <trkpt lat="42.51526334322988986968994140625" lon="19.77126630954444408416748046875">
        <ele>1841</ele>
        <time>2026-06-18T10:50:59.000Z</time>
        <extensions>
          <ns3:TrackPointExtension>
            <ns3:atemp>20.0</ns3:atemp>
          </ns3:TrackPointExtension>
        </extensions>
      </trkpt>
      <trkpt lat="42.51526334322988986968994140625" lon="19.77126630954444408416748046875">
        <ele>1841</ele>
        <time>2026-06-18T10:51:00.000Z</time>
        <extensions>
          <ns3:TrackPointExtension>
            <ns3:atemp>20.0</ns3:atemp>
          </ns3:TrackPointExtension>
        </extensions>
      </trkpt>
      <trkpt lat="42.51526334322988986968994140625" lon="19.77126630954444408416748046875">
        <ele>1841</ele>
        <time>2026-06-18T10:51:01.000Z</time>
        <extensions>
          <ns3:TrackPointExtension>
            <ns3:atemp>20.0</ns3:atemp>
          </ns3:TrackPointExtension>
        </extensions>
      </trkpt>
      <trkpt lat="42.51526334322988986968994140625" lon="19.77126630954444408416748046875">
        <ele>1840.800048828125</ele>
        <time>2026-06-18T10:51:02.000Z</time>
        <extensions>
          <ns3:TrackPointExtension>
            <ns3:atemp>20.0</ns3:atemp>
          </ns3:TrackPointExtension>
        </extensions>
      </trkpt>
      <trkpt lat="42.51526334322988986968994140625" lon="19.77126630954444408416748046875">
        <ele>1840.800048828125</ele>
        <time>2026-06-18T10:51:03.000Z</time>
        <extensions>
          <ns3:TrackPointExtension>
            <ns3:atemp>20.0</ns3:atemp>
          </ns3:TrackPointExtension>
        </extensions>
      </trkpt>
      <trkpt lat="42.51526334322988986968994140625" lon="19.77126630954444408416748046875">
        <ele>1840.800048828125</ele>
        <time>2026-06-18T10:51:04.000Z</time>
        <extensions>
          <ns3:TrackPointExtension>
            <ns3:atemp>20.0</ns3:atemp>
          </ns3:TrackPointExtension>
        </extensions>
      </trkpt>
      <trkpt lat="42.51526334322988986968994140625" lon="19.77126630954444408416748046875">
        <ele>1840.800048828125</ele>
        <time>2026-06-18T10:51:05.000Z</time>
        <extensions>
          <ns3:TrackPointExtension>
            <ns3:atemp>20.0</ns3:atemp>
          </ns3:TrackPointExtension>
        </extensions>
      </trkpt>
      <trkpt lat="42.51526334322988986968994140625" lon="19.77126630954444408416748046875">
        <ele>1840.5999755859375</ele>
        <time>2026-06-18T10:51:06.000Z</time>
        <extensions>
          <ns3:TrackPointExtension>
            <ns3:atemp>20.0</ns3:atemp>
          </ns3:TrackPointExtension>
        </extensions>
      </trkpt>
      <trkpt lat="42.51526334322988986968994140625" lon="19.77126630954444408416748046875">
        <ele>1840.5999755859375</ele>
        <time>2026-06-18T10:51:07.000Z</time>
        <extensions>
          <ns3:TrackPointExtension>
            <ns3:atemp>20.0</ns3:atemp>
          </ns3:TrackPointExtension>
        </extensions>
      </trkpt>
      <trkpt lat="42.51526334322988986968994140625" lon="19.77126630954444408416748046875">
        <ele>1840.5999755859375</ele>
        <time>2026-06-18T10:51:08.000Z</time>
        <extensions>
          <ns3:TrackPointExtension>
            <ns3:atemp>20.0</ns3:atemp>
          </ns3:TrackPointExtension>
        </extensions>
      </trkpt>
      <trkpt lat="42.51526334322988986968994140625" lon="19.77126630954444408416748046875">
        <ele>1840.5999755859375</ele>
        <time>2026-06-18T10:51:09.000Z</time>
        <extensions>
          <ns3:TrackPointExtension>
            <ns3:atemp>20.0</ns3:atemp>
          </ns3:TrackPointExtension>
        </extensions>
      </trkpt>
      <trkpt lat="42.51526334322988986968994140625" lon="19.77126630954444408416748046875">
        <ele>1840.5999755859375</ele>
        <time>2026-06-18T10:51:10.000Z</time>
        <extensions>
          <ns3:TrackPointExtension>
            <ns3:atemp>20.0</ns3:atemp>
          </ns3:TrackPointExtension>
        </extensions>
      </trkpt>
      <trkpt lat="42.51526334322988986968994140625" lon="19.77126630954444408416748046875">
        <ele>1840.5999755859375</ele>
        <time>2026-06-18T10:51:11.000Z</time>
        <extensions>
          <ns3:TrackPointExtension>
            <ns3:atemp>20.0</ns3:atemp>
          </ns3:TrackPointExtension>
        </extensions>
      </trkpt>
      <trkpt lat="42.51526334322988986968994140625" lon="19.77126630954444408416748046875">
        <ele>1840.5999755859375</ele>
        <time>2026-06-18T10:51:12.000Z</time>
        <extensions>
          <ns3:TrackPointExtension>
            <ns3:atemp>20.0</ns3:atemp>
          </ns3:TrackPointExtension>
        </extensions>
      </trkpt>
      <trkpt lat="42.51526334322988986968994140625" lon="19.77126630954444408416748046875">
        <ele>1840.800048828125</ele>
        <time>2026-06-18T10:51:13.000Z</time>
        <extensions>
          <ns3:TrackPointExtension>
            <ns3:atemp>20.0</ns3:atemp>
          </ns3:TrackPointExtension>
        </extensions>
      </trkpt>
      <trkpt lat="42.51526334322988986968994140625" lon="19.77126630954444408416748046875">
        <ele>1840.800048828125</ele>
        <time>2026-06-18T10:51:14.000Z</time>
        <extensions>
          <ns3:TrackPointExtension>
            <ns3:atemp>20.0</ns3:atemp>
          </ns3:TrackPointExtension>
        </extensions>
      </trkpt>
      <trkpt lat="42.51526334322988986968994140625" lon="19.77126630954444408416748046875">
        <ele>1840.800048828125</ele>
        <time>2026-06-18T10:51:15.000Z</time>
        <extensions>
          <ns3:TrackPointExtension>
            <ns3:atemp>20.0</ns3:atemp>
          </ns3:TrackPointExtension>
        </extensions>
      </trkpt>
      <trkpt lat="42.51526334322988986968994140625" lon="19.77126630954444408416748046875">
        <ele>1841</ele>
        <time>2026-06-18T10:51:16.000Z</time>
        <extensions>
          <ns3:TrackPointExtension>
            <ns3:atemp>20.0</ns3:atemp>
          </ns3:TrackPointExtension>
        </extensions>
      </trkpt>
      <trkpt lat="42.51526334322988986968994140625" lon="19.77126630954444408416748046875">
        <ele>1841</ele>
        <time>2026-06-18T10:51:17.000Z</time>
        <extensions>
          <ns3:TrackPointExtension>
            <ns3:atemp>20.0</ns3:atemp>
          </ns3:TrackPointExtension>
        </extensions>
      </trkpt>
      <trkpt lat="42.51526334322988986968994140625" lon="19.77126630954444408416748046875">
        <ele>1841</ele>
        <time>2026-06-18T10:51:18.000Z</time>
        <extensions>
          <ns3:TrackPointExtension>
            <ns3:atemp>20.0</ns3:atemp>
          </ns3:TrackPointExtension>
        </extensions>
      </trkpt>
      <trkpt lat="42.51526334322988986968994140625" lon="19.77126630954444408416748046875">
        <ele>1841</ele>
        <time>2026-06-18T10:51:19.000Z</time>
        <extensions>
          <ns3:TrackPointExtension>
            <ns3:atemp>20.0</ns3:atemp>
          </ns3:TrackPointExtension>
        </extensions>
      </trkpt>
      <trkpt lat="42.51526334322988986968994140625" lon="19.77126630954444408416748046875">
        <ele>1841</ele>
        <time>2026-06-18T10:51:20.000Z</time>
        <extensions>
          <ns3:TrackPointExtension>
            <ns3:atemp>20.0</ns3:atemp>
          </ns3:TrackPointExtension>
        </extensions>
      </trkpt>
      <trkpt lat="42.51526334322988986968994140625" lon="19.77126630954444408416748046875">
        <ele>1841</ele>
        <time>2026-06-18T10:51:21.000Z</time>
        <extensions>
          <ns3:TrackPointExtension>
            <ns3:atemp>20.0</ns3:atemp>
          </ns3:TrackPointExtension>
        </extensions>
      </trkpt>
      <trkpt lat="42.51526334322988986968994140625" lon="19.77126630954444408416748046875">
        <ele>1841</ele>
        <time>2026-06-18T10:51:22.000Z</time>
        <extensions>
          <ns3:TrackPointExtension>
            <ns3:atemp>20.0</ns3:atemp>
          </ns3:TrackPointExtension>
        </extensions>
      </trkpt>
      <trkpt lat="42.51526334322988986968994140625" lon="19.77126630954444408416748046875">
        <ele>1841</ele>
        <time>2026-06-18T10:51:23.000Z</time>
        <extensions>
          <ns3:TrackPointExtension>
            <ns3:atemp>20.0</ns3:atemp>
          </ns3:TrackPointExtension>
        </extensions>
      </trkpt>
      <trkpt lat="42.51526334322988986968994140625" lon="19.77126630954444408416748046875">
        <ele>1841</ele>
        <time>2026-06-18T10:51:24.000Z</time>
        <extensions>
          <ns3:TrackPointExtension>
            <ns3:atemp>20.0</ns3:atemp>
          </ns3:TrackPointExtension>
        </extensions>
      </trkpt>
      <trkpt lat="42.51526334322988986968994140625" lon="19.77126630954444408416748046875">
        <ele>1841</ele>
        <time>2026-06-18T10:51:25.000Z</time>
        <extensions>
          <ns3:TrackPointExtension>
            <ns3:atemp>20.0</ns3:atemp>
          </ns3:TrackPointExtension>
        </extensions>
      </trkpt>
      <trkpt lat="42.51526334322988986968994140625" lon="19.77126630954444408416748046875">
        <ele>1841</ele>
        <time>2026-06-18T10:51:26.000Z</time>
        <extensions>
          <ns3:TrackPointExtension>
            <ns3:atemp>20.0</ns3:atemp>
          </ns3:TrackPointExtension>
        </extensions>
      </trkpt>
      <trkpt lat="42.51526334322988986968994140625" lon="19.77126630954444408416748046875">
        <ele>1841</ele>
        <time>2026-06-18T10:51:27.000Z</time>
        <extensions>
          <ns3:TrackPointExtension>
            <ns3:atemp>20.0</ns3:atemp>
          </ns3:TrackPointExtension>
        </extensions>
      </trkpt>
      <trkpt lat="42.51526334322988986968994140625" lon="19.77126630954444408416748046875">
        <ele>1841.199951171875</ele>
        <time>2026-06-18T10:51:28.000Z</time>
        <extensions>
          <ns3:TrackPointExtension>
            <ns3:atemp>20.0</ns3:atemp>
          </ns3:TrackPointExtension>
        </extensions>
      </trkpt>
      <trkpt lat="42.51526334322988986968994140625" lon="19.77126630954444408416748046875">
        <ele>1841.199951171875</ele>
        <time>2026-06-18T10:51:29.000Z</time>
        <extensions>
          <ns3:TrackPointExtension>
            <ns3:atemp>20.0</ns3:atemp>
          </ns3:TrackPointExtension>
        </extensions>
      </trkpt>
      <trkpt lat="42.51526334322988986968994140625" lon="19.77126630954444408416748046875">
        <ele>1841</ele>
        <time>2026-06-18T10:51:30.000Z</time>
        <extensions>
          <ns3:TrackPointExtension>
            <ns3:atemp>20.0</ns3:atemp>
          </ns3:TrackPointExtension>
        </extensions>
      </trkpt>
      <trkpt lat="42.51526334322988986968994140625" lon="19.77126630954444408416748046875">
        <ele>1841</ele>
        <time>2026-06-18T10:51:31.000Z</time>
        <extensions>
          <ns3:TrackPointExtension>
            <ns3:atemp>20.0</ns3:atemp>
          </ns3:TrackPointExtension>
        </extensions>
      </trkpt>
      <trkpt lat="42.51526334322988986968994140625" lon="19.77126630954444408416748046875">
        <ele>1841</ele>
        <time>2026-06-18T10:51:32.000Z</time>
        <extensions>
          <ns3:TrackPointExtension>
            <ns3:atemp>20.0</ns3:atemp>
          </ns3:TrackPointExtension>
        </extensions>
      </trkpt>
      <trkpt lat="42.51526334322988986968994140625" lon="19.77126630954444408416748046875">
        <ele>1840.800048828125</ele>
        <time>2026-06-18T10:51:33.000Z</time>
        <extensions>
          <ns3:TrackPointExtension>
            <ns3:atemp>20.0</ns3:atemp>
          </ns3:TrackPointExtension>
        </extensions>
      </trkpt>
      <trkpt lat="42.51526334322988986968994140625" lon="19.77126630954444408416748046875">
        <ele>1840.800048828125</ele>
        <time>2026-06-18T10:51:34.000Z</time>
        <extensions>
          <ns3:TrackPointExtension>
            <ns3:atemp>20.0</ns3:atemp>
          </ns3:TrackPointExtension>
        </extensions>
      </trkpt>
      <trkpt lat="42.51526334322988986968994140625" lon="19.77126630954444408416748046875">
        <ele>1840.800048828125</ele>
        <time>2026-06-18T10:51:35.000Z</time>
        <extensions>
          <ns3:TrackPointExtension>
            <ns3:atemp>20.0</ns3:atemp>
          </ns3:TrackPointExtension>
        </extensions>
      </trkpt>
      <trkpt lat="42.51526334322988986968994140625" lon="19.77126630954444408416748046875">
        <ele>1840.800048828125</ele>
        <time>2026-06-18T10:51:36.000Z</time>
        <extensions>
          <ns3:TrackPointExtension>
            <ns3:atemp>20.0</ns3:atemp>
          </ns3:TrackPointExtension>
        </extensions>
      </trkpt>
      <trkpt lat="42.51526334322988986968994140625" lon="19.77126630954444408416748046875">
        <ele>1840.800048828125</ele>
        <time>2026-06-18T10:51:37.000Z</time>
        <extensions>
          <ns3:TrackPointExtension>
            <ns3:atemp>20.0</ns3:atemp>
          </ns3:TrackPointExtension>
        </extensions>
      </trkpt>
      <trkpt lat="42.51526334322988986968994140625" lon="19.77126630954444408416748046875">
        <ele>1840.800048828125</ele>
        <time>2026-06-18T10:51:38.000Z</time>
        <extensions>
          <ns3:TrackPointExtension>
            <ns3:atemp>20.0</ns3:atemp>
          </ns3:TrackPointExtension>
        </extensions>
      </trkpt>
      <trkpt lat="42.51526334322988986968994140625" lon="19.77126630954444408416748046875">
        <ele>1840.800048828125</ele>
        <time>2026-06-18T10:51:39.000Z</time>
        <extensions>
          <ns3:TrackPointExtension>
            <ns3:atemp>20.0</ns3:atemp>
          </ns3:TrackPointExtension>
        </extensions>
      </trkpt>
      <trkpt lat="42.51526334322988986968994140625" lon="19.77126630954444408416748046875">
        <ele>1841</ele>
        <time>2026-06-18T10:51:40.000Z</time>
        <extensions>
          <ns3:TrackPointExtension>
            <ns3:atemp>20.0</ns3:atemp>
          </ns3:TrackPointExtension>
        </extensions>
      </trkpt>
      <trkpt lat="42.51526334322988986968994140625" lon="19.77126630954444408416748046875">
        <ele>1841</ele>
        <time>2026-06-18T10:51:41.000Z</time>
        <extensions>
          <ns3:TrackPointExtension>
            <ns3:atemp>20.0</ns3:atemp>
          </ns3:TrackPointExtension>
        </extensions>
      </trkpt>
      <trkpt lat="42.51526334322988986968994140625" lon="19.77126630954444408416748046875">
        <ele>1841</ele>
        <time>2026-06-18T10:51:42.000Z</time>
        <extensions>
          <ns3:TrackPointExtension>
            <ns3:atemp>20.0</ns3:atemp>
          </ns3:TrackPointExtension>
        </extensions>
      </trkpt>
      <trkpt lat="42.51526334322988986968994140625" lon="19.77126630954444408416748046875">
        <ele>1841</ele>
        <time>2026-06-18T10:51:43.000Z</time>
        <extensions>
          <ns3:TrackPointExtension>
            <ns3:atemp>20.0</ns3:atemp>
          </ns3:TrackPointExtension>
        </extensions>
      </trkpt>
      <trkpt lat="42.51526334322988986968994140625" lon="19.77126630954444408416748046875">
        <ele>1841.199951171875</ele>
        <time>2026-06-18T10:51:44.000Z</time>
        <extensions>
          <ns3:TrackPointExtension>
            <ns3:atemp>20.0</ns3:atemp>
          </ns3:TrackPointExtension>
        </extensions>
      </trkpt>
      <trkpt lat="42.51526334322988986968994140625" lon="19.77126630954444408416748046875">
        <ele>1841.199951171875</ele>
        <time>2026-06-18T10:51:45.000Z</time>
        <extensions>
          <ns3:TrackPointExtension>
            <ns3:atemp>20.0</ns3:atemp>
          </ns3:TrackPointExtension>
        </extensions>
      </trkpt>
      <trkpt lat="42.51526334322988986968994140625" lon="19.77126630954444408416748046875">
        <ele>1841.4000244140625</ele>
        <time>2026-06-18T10:51:46.000Z</time>
        <extensions>
          <ns3:TrackPointExtension>
            <ns3:atemp>20.0</ns3:atemp>
          </ns3:TrackPointExtension>
        </extensions>
      </trkpt>
      <trkpt lat="42.51526334322988986968994140625" lon="19.77126630954444408416748046875">
        <ele>1841.4000244140625</ele>
        <time>2026-06-18T10:51:47.000Z</time>
        <extensions>
          <ns3:TrackPointExtension>
            <ns3:atemp>20.0</ns3:atemp>
          </ns3:TrackPointExtension>
        </extensions>
      </trkpt>
      <trkpt lat="42.51526334322988986968994140625" lon="19.77126630954444408416748046875">
        <ele>1841.4000244140625</ele>
        <time>2026-06-18T10:51:48.000Z</time>
        <extensions>
          <ns3:TrackPointExtension>
            <ns3:atemp>20.0</ns3:atemp>
          </ns3:TrackPointExtension>
        </extensions>
      </trkpt>
      <trkpt lat="42.51526334322988986968994140625" lon="19.77126630954444408416748046875">
        <ele>1841.4000244140625</ele>
        <time>2026-06-18T10:51:49.000Z</time>
        <extensions>
          <ns3:TrackPointExtension>
            <ns3:atemp>20.0</ns3:atemp>
          </ns3:TrackPointExtension>
        </extensions>
      </trkpt>
      <trkpt lat="42.51526334322988986968994140625" lon="19.77126630954444408416748046875">
        <ele>1841.5999755859375</ele>
        <time>2026-06-18T10:51:50.000Z</time>
        <extensions>
          <ns3:TrackPointExtension>
            <ns3:atemp>20.0</ns3:atemp>
          </ns3:TrackPointExtension>
        </extensions>
      </trkpt>
      <trkpt lat="42.51526334322988986968994140625" lon="19.77126630954444408416748046875">
        <ele>1841.5999755859375</ele>
        <time>2026-06-18T10:51:51.000Z</time>
        <extensions>
          <ns3:TrackPointExtension>
            <ns3:atemp>20.0</ns3:atemp>
          </ns3:TrackPointExtension>
        </extensions>
      </trkpt>
      <trkpt lat="42.51526334322988986968994140625" lon="19.77126630954444408416748046875">
        <ele>1841.4000244140625</ele>
        <time>2026-06-18T10:51:52.000Z</time>
        <extensions>
          <ns3:TrackPointExtension>
            <ns3:atemp>20.0</ns3:atemp>
          </ns3:TrackPointExtension>
        </extensions>
      </trkpt>
      <trkpt lat="42.51526334322988986968994140625" lon="19.77126630954444408416748046875">
        <ele>1841.4000244140625</ele>
        <time>2026-06-18T10:51:53.000Z</time>
        <extensions>
          <ns3:TrackPointExtension>
            <ns3:atemp>20.0</ns3:atemp>
          </ns3:TrackPointExtension>
        </extensions>
      </trkpt>
      <trkpt lat="42.51526334322988986968994140625" lon="19.77126630954444408416748046875">
        <ele>1841.4000244140625</ele>
        <time>2026-06-18T10:51:54.000Z</time>
        <extensions>
          <ns3:TrackPointExtension>
            <ns3:atemp>20.0</ns3:atemp>
          </ns3:TrackPointExtension>
        </extensions>
      </trkpt>
      <trkpt lat="42.51526334322988986968994140625" lon="19.77126630954444408416748046875">
        <ele>1841.4000244140625</ele>
        <time>2026-06-18T10:51:55.000Z</time>
        <extensions>
          <ns3:TrackPointExtension>
            <ns3:atemp>20.0</ns3:atemp>
          </ns3:TrackPointExtension>
        </extensions>
      </trkpt>
      <trkpt lat="42.51526334322988986968994140625" lon="19.77126630954444408416748046875">
        <ele>1841.4000244140625</ele>
        <time>2026-06-18T10:51:56.000Z</time>
        <extensions>
          <ns3:TrackPointExtension>
            <ns3:atemp>20.0</ns3:atemp>
          </ns3:TrackPointExtension>
        </extensions>
      </trkpt>
      <trkpt lat="42.51526334322988986968994140625" lon="19.77126630954444408416748046875">
        <ele>1841.4000244140625</ele>
        <time>2026-06-18T10:51:57.000Z</time>
        <extensions>
          <ns3:TrackPointExtension>
            <ns3:atemp>20.0</ns3:atemp>
          </ns3:TrackPointExtension>
        </extensions>
      </trkpt>
      <trkpt lat="42.51526334322988986968994140625" lon="19.77126630954444408416748046875">
        <ele>1841.4000244140625</ele>
        <time>2026-06-18T10:51:58.000Z</time>
        <extensions>
          <ns3:TrackPointExtension>
            <ns3:atemp>20.0</ns3:atemp>
          </ns3:TrackPointExtension>
        </extensions>
      </trkpt>
      <trkpt lat="42.51526334322988986968994140625" lon="19.77126630954444408416748046875">
        <ele>1841.4000244140625</ele>
        <time>2026-06-18T10:51:59.000Z</time>
        <extensions>
          <ns3:TrackPointExtension>
            <ns3:atemp>20.0</ns3:atemp>
          </ns3:TrackPointExtension>
        </extensions>
      </trkpt>
      <trkpt lat="42.51526334322988986968994140625" lon="19.77126630954444408416748046875">
        <ele>1841.4000244140625</ele>
        <time>2026-06-18T10:52:00.000Z</time>
        <extensions>
          <ns3:TrackPointExtension>
            <ns3:atemp>20.0</ns3:atemp>
          </ns3:TrackPointExtension>
        </extensions>
      </trkpt>
      <trkpt lat="42.51526334322988986968994140625" lon="19.77126630954444408416748046875">
        <ele>1841.4000244140625</ele>
        <time>2026-06-18T10:52:01.000Z</time>
        <extensions>
          <ns3:TrackPointExtension>
            <ns3:atemp>20.0</ns3:atemp>
          </ns3:TrackPointExtension>
        </extensions>
      </trkpt>
      <trkpt lat="42.51526334322988986968994140625" lon="19.77126630954444408416748046875">
        <ele>1841.4000244140625</ele>
        <time>2026-06-18T10:52:02.000Z</time>
        <extensions>
          <ns3:TrackPointExtension>
            <ns3:atemp>20.0</ns3:atemp>
          </ns3:TrackPointExtension>
        </extensions>
      </trkpt>
      <trkpt lat="42.51526334322988986968994140625" lon="19.77126630954444408416748046875">
        <ele>1841.4000244140625</ele>
        <time>2026-06-18T10:52:03.000Z</time>
        <extensions>
          <ns3:TrackPointExtension>
            <ns3:atemp>20.0</ns3:atemp>
          </ns3:TrackPointExtension>
        </extensions>
      </trkpt>
      <trkpt lat="42.51526334322988986968994140625" lon="19.77126630954444408416748046875">
        <ele>1841.4000244140625</ele>
        <time>2026-06-18T10:52:04.000Z</time>
        <extensions>
          <ns3:TrackPointExtension>
            <ns3:atemp>20.0</ns3:atemp>
          </ns3:TrackPointExtension>
        </extensions>
      </trkpt>
      <trkpt lat="42.51526334322988986968994140625" lon="19.77126630954444408416748046875">
        <ele>1841.199951171875</ele>
        <time>2026-06-18T10:52:05.000Z</time>
        <extensions>
          <ns3:TrackPointExtension>
            <ns3:atemp>20.0</ns3:atemp>
          </ns3:TrackPointExtension>
        </extensions>
      </trkpt>
      <trkpt lat="42.51526334322988986968994140625" lon="19.77126630954444408416748046875">
        <ele>1841.199951171875</ele>
        <time>2026-06-18T10:52:06.000Z</time>
        <extensions>
          <ns3:TrackPointExtension>
            <ns3:atemp>20.0</ns3:atemp>
          </ns3:TrackPointExtension>
        </extensions>
      </trkpt>
      <trkpt lat="42.51526334322988986968994140625" lon="19.77126630954444408416748046875">
        <ele>1841.4000244140625</ele>
        <time>2026-06-18T10:52:07.000Z</time>
        <extensions>
          <ns3:TrackPointExtension>
            <ns3:atemp>20.0</ns3:atemp>
          </ns3:TrackPointExtension>
        </extensions>
      </trkpt>
      <trkpt lat="42.51526334322988986968994140625" lon="19.77126630954444408416748046875">
        <ele>1841.4000244140625</ele>
        <time>2026-06-18T10:52:08.000Z</time>
        <extensions>
          <ns3:TrackPointExtension>
            <ns3:atemp>20.0</ns3:atemp>
          </ns3:TrackPointExtension>
        </extensions>
      </trkpt>
      <trkpt lat="42.51526334322988986968994140625" lon="19.77126630954444408416748046875">
        <ele>1841.4000244140625</ele>
        <time>2026-06-18T10:52:09.000Z</time>
        <extensions>
          <ns3:TrackPointExtension>
            <ns3:atemp>20.0</ns3:atemp>
          </ns3:TrackPointExtension>
        </extensions>
      </trkpt>
      <trkpt lat="42.51526334322988986968994140625" lon="19.77126630954444408416748046875">
        <ele>1841.4000244140625</ele>
        <time>2026-06-18T10:52:10.000Z</time>
        <extensions>
          <ns3:TrackPointExtension>
            <ns3:atemp>20.0</ns3:atemp>
          </ns3:TrackPointExtension>
        </extensions>
      </trkpt>
      <trkpt lat="42.51526334322988986968994140625" lon="19.77126630954444408416748046875">
        <ele>1841.5999755859375</ele>
        <time>2026-06-18T10:52:11.000Z</time>
        <extensions>
          <ns3:TrackPointExtension>
            <ns3:atemp>20.0</ns3:atemp>
          </ns3:TrackPointExtension>
        </extensions>
      </trkpt>
      <trkpt lat="42.51526334322988986968994140625" lon="19.77126630954444408416748046875">
        <ele>1841.5999755859375</ele>
        <time>2026-06-18T10:52:12.000Z</time>
        <extensions>
          <ns3:TrackPointExtension>
            <ns3:atemp>20.0</ns3:atemp>
          </ns3:TrackPointExtension>
        </extensions>
      </trkpt>
      <trkpt lat="42.51526334322988986968994140625" lon="19.77126630954444408416748046875">
        <ele>1841.5999755859375</ele>
        <time>2026-06-18T10:52:13.000Z</time>
        <extensions>
          <ns3:TrackPointExtension>
            <ns3:atemp>20.0</ns3:atemp>
          </ns3:TrackPointExtension>
        </extensions>
      </trkpt>
      <trkpt lat="42.51526334322988986968994140625" lon="19.77126630954444408416748046875">
        <ele>1841.800048828125</ele>
        <time>2026-06-18T10:52:14.000Z</time>
        <extensions>
          <ns3:TrackPointExtension>
            <ns3:atemp>20.0</ns3:atemp>
          </ns3:TrackPointExtension>
        </extensions>
      </trkpt>
      <trkpt lat="42.51526334322988986968994140625" lon="19.77126630954444408416748046875">
        <ele>1841.800048828125</ele>
        <time>2026-06-18T10:52:15.000Z</time>
        <extensions>
          <ns3:TrackPointExtension>
            <ns3:atemp>20.0</ns3:atemp>
          </ns3:TrackPointExtension>
        </extensions>
      </trkpt>
      <trkpt lat="42.51526334322988986968994140625" lon="19.77126630954444408416748046875">
        <ele>1841.800048828125</ele>
        <time>2026-06-18T10:52:16.000Z</time>
        <extensions>
          <ns3:TrackPointExtension>
            <ns3:atemp>20.0</ns3:atemp>
          </ns3:TrackPointExtension>
        </extensions>
      </trkpt>
      <trkpt lat="42.51526334322988986968994140625" lon="19.77126630954444408416748046875">
        <ele>1841.800048828125</ele>
        <time>2026-06-18T10:52:17.000Z</time>
        <extensions>
          <ns3:TrackPointExtension>
            <ns3:atemp>20.0</ns3:atemp>
          </ns3:TrackPointExtension>
        </extensions>
      </trkpt>
      <trkpt lat="42.51526334322988986968994140625" lon="19.77126630954444408416748046875">
        <ele>1841.800048828125</ele>
        <time>2026-06-18T10:52:18.000Z</time>
        <extensions>
          <ns3:TrackPointExtension>
            <ns3:atemp>20.0</ns3:atemp>
          </ns3:TrackPointExtension>
        </extensions>
      </trkpt>
      <trkpt lat="42.51526334322988986968994140625" lon="19.77126630954444408416748046875">
        <ele>1841.800048828125</ele>
        <time>2026-06-18T10:52:19.000Z</time>
        <extensions>
          <ns3:TrackPointExtension>
            <ns3:atemp>20.0</ns3:atemp>
          </ns3:TrackPointExtension>
        </extensions>
      </trkpt>
      <trkpt lat="42.51526334322988986968994140625" lon="19.77126630954444408416748046875">
        <ele>1841.800048828125</ele>
        <time>2026-06-18T10:52:20.000Z</time>
        <extensions>
          <ns3:TrackPointExtension>
            <ns3:atemp>20.0</ns3:atemp>
          </ns3:TrackPointExtension>
        </extensions>
      </trkpt>
      <trkpt lat="42.51526334322988986968994140625" lon="19.77126630954444408416748046875">
        <ele>1841.800048828125</ele>
        <time>2026-06-18T10:52:21.000Z</time>
        <extensions>
          <ns3:TrackPointExtension>
            <ns3:atemp>20.0</ns3:atemp>
          </ns3:TrackPointExtension>
        </extensions>
      </trkpt>
      <trkpt lat="42.51526334322988986968994140625" lon="19.77126630954444408416748046875">
        <ele>1841.800048828125</ele>
        <time>2026-06-18T10:52:22.000Z</time>
        <extensions>
          <ns3:TrackPointExtension>
            <ns3:atemp>20.0</ns3:atemp>
          </ns3:TrackPointExtension>
        </extensions>
      </trkpt>
      <trkpt lat="42.51526334322988986968994140625" lon="19.77126630954444408416748046875">
        <ele>1841.800048828125</ele>
        <time>2026-06-18T10:52:23.000Z</time>
        <extensions>
          <ns3:TrackPointExtension>
            <ns3:atemp>20.0</ns3:atemp>
          </ns3:TrackPointExtension>
        </extensions>
      </trkpt>
      <trkpt lat="42.51526334322988986968994140625" lon="19.77126630954444408416748046875">
        <ele>1841.800048828125</ele>
        <time>2026-06-18T10:52:24.000Z</time>
        <extensions>
          <ns3:TrackPointExtension>
            <ns3:atemp>20.0</ns3:atemp>
          </ns3:TrackPointExtension>
        </extensions>
      </trkpt>
      <trkpt lat="42.51526334322988986968994140625" lon="19.77126630954444408416748046875">
        <ele>1841.800048828125</ele>
        <time>2026-06-18T10:52:25.000Z</time>
        <extensions>
          <ns3:TrackPointExtension>
            <ns3:atemp>20.0</ns3:atemp>
          </ns3:TrackPointExtension>
        </extensions>
      </trkpt>
      <trkpt lat="42.51526334322988986968994140625" lon="19.77126630954444408416748046875">
        <ele>1841.800048828125</ele>
        <time>2026-06-18T10:52:26.000Z</time>
        <extensions>
          <ns3:TrackPointExtension>
            <ns3:atemp>20.0</ns3:atemp>
          </ns3:TrackPointExtension>
        </extensions>
      </trkpt>
      <trkpt lat="42.51526334322988986968994140625" lon="19.77126630954444408416748046875">
        <ele>1841.800048828125</ele>
        <time>2026-06-18T10:52:27.000Z</time>
        <extensions>
          <ns3:TrackPointExtension>
            <ns3:atemp>20.0</ns3:atemp>
          </ns3:TrackPointExtension>
        </extensions>
      </trkpt>
      <trkpt lat="42.51526334322988986968994140625" lon="19.77126630954444408416748046875">
        <ele>1841.800048828125</ele>
        <time>2026-06-18T10:52:28.000Z</time>
        <extensions>
          <ns3:TrackPointExtension>
            <ns3:atemp>20.0</ns3:atemp>
          </ns3:TrackPointExtension>
        </extensions>
      </trkpt>
      <trkpt lat="42.51526334322988986968994140625" lon="19.77126630954444408416748046875">
        <ele>1841.800048828125</ele>
        <time>2026-06-18T10:52:29.000Z</time>
        <extensions>
          <ns3:TrackPointExtension>
            <ns3:atemp>20.0</ns3:atemp>
          </ns3:TrackPointExtension>
        </extensions>
      </trkpt>
      <trkpt lat="42.51526334322988986968994140625" lon="19.77126630954444408416748046875">
        <ele>1841.5999755859375</ele>
        <time>2026-06-18T10:52:30.000Z</time>
        <extensions>
          <ns3:TrackPointExtension>
            <ns3:atemp>20.0</ns3:atemp>
          </ns3:TrackPointExtension>
        </extensions>
      </trkpt>
      <trkpt lat="42.51526334322988986968994140625" lon="19.77126630954444408416748046875">
        <ele>1841.5999755859375</ele>
        <time>2026-06-18T10:52:31.000Z</time>
        <extensions>
          <ns3:TrackPointExtension>
            <ns3:atemp>20.0</ns3:atemp>
          </ns3:TrackPointExtension>
        </extensions>
      </trkpt>
      <trkpt lat="42.51526334322988986968994140625" lon="19.77126630954444408416748046875">
        <ele>1841.5999755859375</ele>
        <time>2026-06-18T10:52:32.000Z</time>
        <extensions>
          <ns3:TrackPointExtension>
            <ns3:atemp>20.0</ns3:atemp>
          </ns3:TrackPointExtension>
        </extensions>
      </trkpt>
      <trkpt lat="42.51526334322988986968994140625" lon="19.77126630954444408416748046875">
        <ele>1841.4000244140625</ele>
        <time>2026-06-18T10:52:33.000Z</time>
        <extensions>
          <ns3:TrackPointExtension>
            <ns3:atemp>20.0</ns3:atemp>
          </ns3:TrackPointExtension>
        </extensions>
      </trkpt>
      <trkpt lat="42.51526334322988986968994140625" lon="19.77126630954444408416748046875">
        <ele>1841.4000244140625</ele>
        <time>2026-06-18T10:52:34.000Z</time>
        <extensions>
          <ns3:TrackPointExtension>
            <ns3:atemp>20.0</ns3:atemp>
          </ns3:TrackPointExtension>
        </extensions>
      </trkpt>
      <trkpt lat="42.51526334322988986968994140625" lon="19.77126630954444408416748046875">
        <ele>1841.4000244140625</ele>
        <time>2026-06-18T10:52:35.000Z</time>
        <extensions>
          <ns3:TrackPointExtension>
            <ns3:atemp>20.0</ns3:atemp>
          </ns3:TrackPointExtension>
        </extensions>
      </trkpt>
      <trkpt lat="42.51526334322988986968994140625" lon="19.77126630954444408416748046875">
        <ele>1841.4000244140625</ele>
        <time>2026-06-18T10:52:36.000Z</time>
        <extensions>
          <ns3:TrackPointExtension>
            <ns3:atemp>20.0</ns3:atemp>
          </ns3:TrackPointExtension>
        </extensions>
      </trkpt>
      <trkpt lat="42.51526334322988986968994140625" lon="19.77126630954444408416748046875">
        <ele>1841.4000244140625</ele>
        <time>2026-06-18T10:52:37.000Z</time>
        <extensions>
          <ns3:TrackPointExtension>
            <ns3:atemp>20.0</ns3:atemp>
          </ns3:TrackPointExtension>
        </extensions>
      </trkpt>
      <trkpt lat="42.51526334322988986968994140625" lon="19.77126630954444408416748046875">
        <ele>1841.5999755859375</ele>
        <time>2026-06-18T10:52:38.000Z</time>
        <extensions>
          <ns3:TrackPointExtension>
            <ns3:atemp>20.0</ns3:atemp>
          </ns3:TrackPointExtension>
        </extensions>
      </trkpt>
      <trkpt lat="42.51526334322988986968994140625" lon="19.77126630954444408416748046875">
        <ele>1841.5999755859375</ele>
        <time>2026-06-18T10:52:39.000Z</time>
        <extensions>
          <ns3:TrackPointExtension>
            <ns3:atemp>20.0</ns3:atemp>
          </ns3:TrackPointExtension>
        </extensions>
      </trkpt>
      <trkpt lat="42.51526334322988986968994140625" lon="19.77126630954444408416748046875">
        <ele>1841.5999755859375</ele>
        <time>2026-06-18T10:52:40.000Z</time>
        <extensions>
          <ns3:TrackPointExtension>
            <ns3:atemp>20.0</ns3:atemp>
          </ns3:TrackPointExtension>
        </extensions>
      </trkpt>
      <trkpt lat="42.51526334322988986968994140625" lon="19.77126630954444408416748046875">
        <ele>1841.800048828125</ele>
        <time>2026-06-18T10:52:41.000Z</time>
        <extensions>
          <ns3:TrackPointExtension>
            <ns3:atemp>20.0</ns3:atemp>
          </ns3:TrackPointExtension>
        </extensions>
      </trkpt>
      <trkpt lat="42.51526334322988986968994140625" lon="19.77126630954444408416748046875">
        <ele>1841.800048828125</ele>
        <time>2026-06-18T10:52:42.000Z</time>
        <extensions>
          <ns3:TrackPointExtension>
            <ns3:atemp>20.0</ns3:atemp>
          </ns3:TrackPointExtension>
        </extensions>
      </trkpt>
      <trkpt lat="42.51526334322988986968994140625" lon="19.77126630954444408416748046875">
        <ele>1841.800048828125</ele>
        <time>2026-06-18T10:52:43.000Z</time>
        <extensions>
          <ns3:TrackPointExtension>
            <ns3:atemp>20.0</ns3:atemp>
          </ns3:TrackPointExtension>
        </extensions>
      </trkpt>
      <trkpt lat="42.51526334322988986968994140625" lon="19.77126630954444408416748046875">
        <ele>1841.800048828125</ele>
        <time>2026-06-18T10:52:44.000Z</time>
        <extensions>
          <ns3:TrackPointExtension>
            <ns3:atemp>20.0</ns3:atemp>
          </ns3:TrackPointExtension>
        </extensions>
      </trkpt>
      <trkpt lat="42.51526334322988986968994140625" lon="19.77126630954444408416748046875">
        <ele>1841.800048828125</ele>
        <time>2026-06-18T10:52:45.000Z</time>
        <extensions>
          <ns3:TrackPointExtension>
            <ns3:atemp>20.0</ns3:atemp>
          </ns3:TrackPointExtension>
        </extensions>
      </trkpt>
      <trkpt lat="42.51526334322988986968994140625" lon="19.77126630954444408416748046875">
        <ele>1841.800048828125</ele>
        <time>2026-06-18T10:52:46.000Z</time>
        <extensions>
          <ns3:TrackPointExtension>
            <ns3:atemp>20.0</ns3:atemp>
          </ns3:TrackPointExtension>
        </extensions>
      </trkpt>
      <trkpt lat="42.51526334322988986968994140625" lon="19.77126630954444408416748046875">
        <ele>1841.800048828125</ele>
        <time>2026-06-18T10:52:47.000Z</time>
        <extensions>
          <ns3:TrackPointExtension>
            <ns3:atemp>20.0</ns3:atemp>
          </ns3:TrackPointExtension>
        </extensions>
      </trkpt>
      <trkpt lat="42.51526334322988986968994140625" lon="19.77126630954444408416748046875">
        <ele>1841.800048828125</ele>
        <time>2026-06-18T10:52:48.000Z</time>
        <extensions>
          <ns3:TrackPointExtension>
            <ns3:atemp>20.0</ns3:atemp>
          </ns3:TrackPointExtension>
        </extensions>
      </trkpt>
      <trkpt lat="42.51526334322988986968994140625" lon="19.77126630954444408416748046875">
        <ele>1841.800048828125</ele>
        <time>2026-06-18T10:52:49.000Z</time>
        <extensions>
          <ns3:TrackPointExtension>
            <ns3:atemp>20.0</ns3:atemp>
          </ns3:TrackPointExtension>
        </extensions>
      </trkpt>
      <trkpt lat="42.51526334322988986968994140625" lon="19.77126630954444408416748046875">
        <ele>1842</ele>
        <time>2026-06-18T10:52:50.000Z</time>
        <extensions>
          <ns3:TrackPointExtension>
            <ns3:atemp>20.0</ns3:atemp>
          </ns3:TrackPointExtension>
        </extensions>
      </trkpt>
      <trkpt lat="42.51526334322988986968994140625" lon="19.77126630954444408416748046875">
        <ele>1842</ele>
        <time>2026-06-18T10:52:51.000Z</time>
        <extensions>
          <ns3:TrackPointExtension>
            <ns3:atemp>20.0</ns3:atemp>
          </ns3:TrackPointExtension>
        </extensions>
      </trkpt>
      <trkpt lat="42.51526334322988986968994140625" lon="19.77126630954444408416748046875">
        <ele>1842</ele>
        <time>2026-06-18T10:52:52.000Z</time>
        <extensions>
          <ns3:TrackPointExtension>
            <ns3:atemp>20.0</ns3:atemp>
          </ns3:TrackPointExtension>
        </extensions>
      </trkpt>
      <trkpt lat="42.51526334322988986968994140625" lon="19.77126630954444408416748046875">
        <ele>1842</ele>
        <time>2026-06-18T10:52:53.000Z</time>
        <extensions>
          <ns3:TrackPointExtension>
            <ns3:atemp>20.0</ns3:atemp>
          </ns3:TrackPointExtension>
        </extensions>
      </trkpt>
      <trkpt lat="42.51526334322988986968994140625" lon="19.77126630954444408416748046875">
        <ele>1842</ele>
        <time>2026-06-18T10:52:54.000Z</time>
        <extensions>
          <ns3:TrackPointExtension>
            <ns3:atemp>20.0</ns3:atemp>
          </ns3:TrackPointExtension>
        </extensions>
      </trkpt>
      <trkpt lat="42.51526334322988986968994140625" lon="19.77126630954444408416748046875">
        <ele>1842</ele>
        <time>2026-06-18T10:52:55.000Z</time>
        <extensions>
          <ns3:TrackPointExtension>
            <ns3:atemp>20.0</ns3:atemp>
          </ns3:TrackPointExtension>
        </extensions>
      </trkpt>
      <trkpt lat="42.51526334322988986968994140625" lon="19.77126630954444408416748046875">
        <ele>1842</ele>
        <time>2026-06-18T10:52:56.000Z</time>
        <extensions>
          <ns3:TrackPointExtension>
            <ns3:atemp>20.0</ns3:atemp>
          </ns3:TrackPointExtension>
        </extensions>
      </trkpt>
      <trkpt lat="42.51526334322988986968994140625" lon="19.77126630954444408416748046875">
        <ele>1841.800048828125</ele>
        <time>2026-06-18T10:52:57.000Z</time>
        <extensions>
          <ns3:TrackPointExtension>
            <ns3:atemp>20.0</ns3:atemp>
          </ns3:TrackPointExtension>
        </extensions>
      </trkpt>
      <trkpt lat="42.51526334322988986968994140625" lon="19.77126630954444408416748046875">
        <ele>1841.800048828125</ele>
        <time>2026-06-18T10:52:58.000Z</time>
        <extensions>
          <ns3:TrackPointExtension>
            <ns3:atemp>20.0</ns3:atemp>
          </ns3:TrackPointExtension>
        </extensions>
      </trkpt>
      <trkpt lat="42.51526334322988986968994140625" lon="19.77126630954444408416748046875">
        <ele>1841.800048828125</ele>
        <time>2026-06-18T10:52:59.000Z</time>
        <extensions>
          <ns3:TrackPointExtension>
            <ns3:atemp>20.0</ns3:atemp>
          </ns3:TrackPointExtension>
        </extensions>
      </trkpt>
      <trkpt lat="42.51526334322988986968994140625" lon="19.77126630954444408416748046875">
        <ele>1841.800048828125</ele>
        <time>2026-06-18T10:53:00.000Z</time>
        <extensions>
          <ns3:TrackPointExtension>
            <ns3:atemp>20.0</ns3:atemp>
          </ns3:TrackPointExtension>
        </extensions>
      </trkpt>
      <trkpt lat="42.51526384614408016204833984375" lon="19.771264381706714630126953125">
        <ele>1842</ele>
        <time>2026-06-18T10:53:01.000Z</time>
        <extensions>
          <ns3:TrackPointExtension>
            <ns3:atemp>20.0</ns3:atemp>
          </ns3:TrackPointExtension>
        </extensions>
      </trkpt>
      <trkpt lat="42.51526183448731899261474609375" lon="19.7712803073227405548095703125">
        <ele>1842</ele>
        <time>2026-06-18T10:53:02.000Z</time>
        <extensions>
          <ns3:TrackPointExtension>
            <ns3:atemp>20.0</ns3:atemp>
          </ns3:TrackPointExtension>
        </extensions>
      </trkpt>
      <trkpt lat="42.5152687914669513702392578125" lon="19.77131727151572704315185546875">
        <ele>1841.800048828125</ele>
        <time>2026-06-18T10:53:03.000Z</time>
        <extensions>
          <ns3:TrackPointExtension>
            <ns3:atemp>20.0</ns3:atemp>
          </ns3:TrackPointExtension>
        </extensions>
      </trkpt>
      <trkpt lat="42.51527926884591579437255859375" lon="19.77135683409869670867919921875">
        <ele>1841.5999755859375</ele>
        <time>2026-06-18T10:53:04.000Z</time>
        <extensions>
          <ns3:TrackPointExtension>
            <ns3:atemp>20.0</ns3:atemp>
          </ns3:TrackPointExtension>
        </extensions>
      </trkpt>
      <trkpt lat="42.51528597436845302581787109375" lon="19.7713956423103809356689453125">
        <ele>1841.4000244140625</ele>
        <time>2026-06-18T10:53:05.000Z</time>
        <extensions>
          <ns3:TrackPointExtension>
            <ns3:atemp>20.0</ns3:atemp>
          </ns3:TrackPointExtension>
        </extensions>
      </trkpt>
      <trkpt lat="42.51529050059616565704345703125" lon="19.771436713635921478271484375">
        <ele>1841.199951171875</ele>
        <time>2026-06-18T10:53:06.000Z</time>
        <extensions>
          <ns3:TrackPointExtension>
            <ns3:atemp>20.0</ns3:atemp>
          </ns3:TrackPointExtension>
        </extensions>
      </trkpt>
      <trkpt lat="42.51529636792838573455810546875" lon="19.7714808024466037750244140625">
        <ele>1840.800048828125</ele>
        <time>2026-06-18T10:53:07.000Z</time>
        <extensions>
          <ns3:TrackPointExtension>
            <ns3:atemp>20.0</ns3:atemp>
          </ns3:TrackPointExtension>
        </extensions>
      </trkpt>
      <trkpt lat="42.51530609093606472015380859375" lon="19.771523214876651763916015625">
        <ele>1840.5999755859375</ele>
        <time>2026-06-18T10:53:08.000Z</time>
        <extensions>
          <ns3:TrackPointExtension>
            <ns3:atemp>20.0</ns3:atemp>
          </ns3:TrackPointExtension>
        </extensions>
      </trkpt>
      <trkpt lat="42.51531665213406085968017578125" lon="19.7715644538402557373046875">
        <ele>1840.4000244140625</ele>
        <time>2026-06-18T10:53:09.000Z</time>
        <extensions>
          <ns3:TrackPointExtension>
            <ns3:atemp>20.0</ns3:atemp>
          </ns3:TrackPointExtension>
        </extensions>
      </trkpt>
      <trkpt lat="42.51532671041786670684814453125" lon="19.771609045565128326416015625">
        <ele>1840.5999755859375</ele>
        <time>2026-06-18T10:53:10.000Z</time>
        <extensions>
          <ns3:TrackPointExtension>
            <ns3:atemp>20.0</ns3:atemp>
          </ns3:TrackPointExtension>
        </extensions>
      </trkpt>
      <trkpt lat="42.5153361819684505462646484375" lon="19.771653972566127777099609375">
        <ele>1840.5999755859375</ele>
        <time>2026-06-18T10:53:11.000Z</time>
        <extensions>
          <ns3:TrackPointExtension>
            <ns3:atemp>20.0</ns3:atemp>
          </ns3:TrackPointExtension>
        </extensions>
      </trkpt>
      <trkpt lat="42.515343725681304931640625" lon="19.7717014141380786895751953125">
        <ele>1840.800048828125</ele>
        <time>2026-06-18T10:53:12.000Z</time>
        <extensions>
          <ns3:TrackPointExtension>
            <ns3:atemp>20.0</ns3:atemp>
          </ns3:TrackPointExtension>
        </extensions>
      </trkpt>
      <trkpt lat="42.515352107584476470947265625" lon="19.77174826897680759429931640625">
        <ele>1841</ele>
        <time>2026-06-18T10:53:13.000Z</time>
        <extensions>
          <ns3:TrackPointExtension>
            <ns3:atemp>20.0</ns3:atemp>
          </ns3:TrackPointExtension>
        </extensions>
      </trkpt>
      <trkpt lat="42.5153566338121891021728515625" lon="19.77179956622421741485595703125">
        <ele>1841</ele>
        <time>2026-06-18T10:53:14.000Z</time>
        <extensions>
          <ns3:TrackPointExtension>
            <ns3:atemp>20.0</ns3:atemp>
          </ns3:TrackPointExtension>
        </extensions>
      </trkpt>
      <trkpt lat="42.515358813107013702392578125" lon="19.77185186930000782012939453125">
        <ele>1841.199951171875</ele>
        <time>2026-06-18T10:53:15.000Z</time>
        <extensions>
          <ns3:TrackPointExtension>
            <ns3:atemp>20.0</ns3:atemp>
          </ns3:TrackPointExtension>
        </extensions>
      </trkpt>
      <trkpt lat="42.51535772345960140228271484375" lon="19.7719012387096881866455078125">
        <ele>1841.199951171875</ele>
        <time>2026-06-18T10:53:16.000Z</time>
        <extensions>
          <ns3:TrackPointExtension>
            <ns3:atemp>20.0</ns3:atemp>
          </ns3:TrackPointExtension>
        </extensions>
      </trkpt>
      <trkpt lat="42.515353448688983917236328125" lon="19.771943986415863037109375">
        <ele>1841.4000244140625</ele>
        <time>2026-06-18T10:53:17.000Z</time>
        <extensions>
          <ns3:TrackPointExtension>
            <ns3:atemp>20.0</ns3:atemp>
          </ns3:TrackPointExtension>
        </extensions>
      </trkpt>
      <trkpt lat="42.515348754823207855224609375" lon="19.7719860635697841644287109375">
        <ele>1841.5999755859375</ele>
        <time>2026-06-18T10:53:18.000Z</time>
        <extensions>
          <ns3:TrackPointExtension>
            <ns3:atemp>20.0</ns3:atemp>
          </ns3:TrackPointExtension>
        </extensions>
      </trkpt>
      <trkpt lat="42.51535202376544475555419921875" lon="19.7720249556005001068115234375">
        <ele>1841.800048828125</ele>
        <time>2026-06-18T10:53:19.000Z</time>
        <extensions>
          <ns3:TrackPointExtension>
            <ns3:atemp>20.0</ns3:atemp>
          </ns3:TrackPointExtension>
        </extensions>
      </trkpt>
      <trkpt lat="42.51535336486995220184326171875" lon="19.77206644602119922637939453125">
        <ele>1842.199951171875</ele>
        <time>2026-06-18T10:53:20.000Z</time>
        <extensions>
          <ns3:TrackPointExtension>
            <ns3:atemp>20.0</ns3:atemp>
          </ns3:TrackPointExtension>
        </extensions>
      </trkpt>
      <trkpt lat="42.5153512693941593170166015625" lon="19.7721070982515811920166015625">
        <ele>1842.800048828125</ele>
        <time>2026-06-18T10:53:21.000Z</time>
        <extensions>
          <ns3:TrackPointExtension>
            <ns3:atemp>20.0</ns3:atemp>
          </ns3:TrackPointExtension>
        </extensions>
      </trkpt>
      <trkpt lat="42.515346072614192962646484375" lon="19.77214473299682140350341796875">
        <ele>1843.199951171875</ele>
        <time>2026-06-18T10:53:22.000Z</time>
        <extensions>
          <ns3:TrackPointExtension>
            <ns3:atemp>20.0</ns3:atemp>
          </ns3:TrackPointExtension>
        </extensions>
      </trkpt>
      <trkpt lat="42.5153455697000026702880859375" lon="19.77217859588563442230224609375">
        <ele>1843.5999755859375</ele>
        <time>2026-06-18T10:53:23.000Z</time>
        <extensions>
          <ns3:TrackPointExtension>
            <ns3:atemp>20.0</ns3:atemp>
          </ns3:TrackPointExtension>
        </extensions>
      </trkpt>
      <trkpt lat="42.5153492577373981475830078125" lon="19.77220709435641765594482421875">
        <ele>1844</ele>
        <time>2026-06-18T10:53:24.000Z</time>
        <extensions>
          <ns3:TrackPointExtension>
            <ns3:atemp>20.0</ns3:atemp>
          </ns3:TrackPointExtension>
        </extensions>
      </trkpt>
      <trkpt lat="42.515352778136730194091796875" lon="19.77223961614072322845458984375">
        <ele>1844.4000244140625</ele>
        <time>2026-06-18T10:53:25.000Z</time>
        <extensions>
          <ns3:TrackPointExtension>
            <ns3:atemp>20.0</ns3:atemp>
          </ns3:TrackPointExtension>
        </extensions>
      </trkpt>
      <trkpt lat="42.51535353250801563262939453125" lon="19.77226710878312587738037109375">
        <ele>1844.800048828125</ele>
        <time>2026-06-18T10:53:26.000Z</time>
        <extensions>
          <ns3:TrackPointExtension>
            <ns3:atemp>20.0</ns3:atemp>
          </ns3:TrackPointExtension>
        </extensions>
      </trkpt>
      <trkpt lat="42.5153489224612712860107421875" lon="19.7722961939871311187744140625">
        <ele>1845.5999755859375</ele>
        <time>2026-06-18T10:53:27.000Z</time>
        <extensions>
          <ns3:TrackPointExtension>
            <ns3:atemp>20.0</ns3:atemp>
          </ns3:TrackPointExtension>
        </extensions>
      </trkpt>
      <trkpt lat="42.51534414477646350860595703125" lon="19.77232259698212146759033203125">
        <ele>1846</ele>
        <time>2026-06-18T10:53:28.000Z</time>
        <extensions>
          <ns3:TrackPointExtension>
            <ns3:atemp>20.0</ns3:atemp>
          </ns3:TrackPointExtension>
        </extensions>
      </trkpt>
      <trkpt lat="42.5153365172445774078369140625" lon="19.77235260419547557830810546875">
        <ele>1846.5999755859375</ele>
        <time>2026-06-18T10:53:29.000Z</time>
        <extensions>
          <ns3:TrackPointExtension>
            <ns3:atemp>20.0</ns3:atemp>
          </ns3:TrackPointExtension>
        </extensions>
      </trkpt>
      <trkpt lat="42.5153271295130252838134765625" lon="19.77238185703754425048828125">
        <ele>1847</ele>
        <time>2026-06-18T10:53:30.000Z</time>
        <extensions>
          <ns3:TrackPointExtension>
            <ns3:atemp>20.0</ns3:atemp>
          </ns3:TrackPointExtension>
        </extensions>
      </trkpt>
      <trkpt lat="42.51531220972537994384765625" lon="19.7724048234522342681884765625">
        <ele>1847.4000244140625</ele>
        <time>2026-06-18T10:53:31.000Z</time>
        <extensions>
          <ns3:TrackPointExtension>
            <ns3:atemp>20.0</ns3:atemp>
          </ns3:TrackPointExtension>
        </extensions>
      </trkpt>
      <trkpt lat="42.5152979604899883270263671875" lon="19.77241379208862781524658203125">
        <ele>1848</ele>
        <time>2026-06-18T10:53:32.000Z</time>
        <extensions>
          <ns3:TrackPointExtension>
            <ns3:atemp>20.0</ns3:atemp>
          </ns3:TrackPointExtension>
        </extensions>
      </trkpt>
      <trkpt lat="42.51528580673038959503173828125" lon="19.77242686785757541656494140625">
        <ele>1848.5999755859375</ele>
        <time>2026-06-18T10:53:33.000Z</time>
        <extensions>
          <ns3:TrackPointExtension>
            <ns3:atemp>20.0</ns3:atemp>
          </ns3:TrackPointExtension>
        </extensions>
      </trkpt>
      <trkpt lat="42.5152738206088542938232421875" lon="19.772450923919677734375">
        <ele>1849.199951171875</ele>
        <time>2026-06-18T10:53:34.000Z</time>
        <extensions>
          <ns3:TrackPointExtension>
            <ns3:atemp>20.0</ns3:atemp>
          </ns3:TrackPointExtension>
        </extensions>
      </trkpt>
      <trkpt lat="42.51526501961052417755126953125" lon="19.7724829427897930145263671875">
        <ele>1849.800048828125</ele>
        <time>2026-06-18T10:53:35.000Z</time>
        <extensions>
          <ns3:TrackPointExtension>
            <ns3:atemp>20.0</ns3:atemp>
          </ns3:TrackPointExtension>
        </extensions>
      </trkpt>
      <trkpt lat="42.5152511894702911376953125" lon="19.77250850759446620941162109375">
        <ele>1850.4000244140625</ele>
        <time>2026-06-18T10:53:36.000Z</time>
        <extensions>
          <ns3:TrackPointExtension>
            <ns3:atemp>20.0</ns3:atemp>
          </ns3:TrackPointExtension>
        </extensions>
      </trkpt>
      <trkpt lat="42.5152305699884891510009765625" lon="19.7725235112011432647705078125">
        <ele>1851.199951171875</ele>
        <time>2026-06-18T10:53:37.000Z</time>
        <extensions>
          <ns3:TrackPointExtension>
            <ns3:atemp>20.0</ns3:atemp>
          </ns3:TrackPointExtension>
        </extensions>
      </trkpt>
      <trkpt lat="42.5152107886970043182373046875" lon="19.7725375927984714508056640625">
        <ele>1852</ele>
        <time>2026-06-18T10:53:38.000Z</time>
        <extensions>
          <ns3:TrackPointExtension>
            <ns3:atemp>20.0</ns3:atemp>
          </ns3:TrackPointExtension>
        </extensions>
      </trkpt>
      <trkpt lat="42.51520265825092792510986328125" lon="19.772555865347385406494140625">
        <ele>1852.5999755859375</ele>
        <time>2026-06-18T10:53:39.000Z</time>
        <extensions>
          <ns3:TrackPointExtension>
            <ns3:atemp>20.0</ns3:atemp>
          </ns3:TrackPointExtension>
        </extensions>
      </trkpt>
      <trkpt lat="42.51519494690001010894775390625" lon="19.7725751437246799468994140625">
        <ele>1853</ele>
        <time>2026-06-18T10:53:40.000Z</time>
        <extensions>
          <ns3:TrackPointExtension>
            <ns3:atemp>20.0</ns3:atemp>
          </ns3:TrackPointExtension>
        </extensions>
      </trkpt>
      <trkpt lat="42.51519746147096157073974609375" lon="19.77259106934070587158203125">
        <ele>1853.4000244140625</ele>
        <time>2026-06-18T10:53:41.000Z</time>
        <extensions>
          <ns3:TrackPointExtension>
            <ns3:atemp>20.0</ns3:atemp>
          </ns3:TrackPointExtension>
        </extensions>
      </trkpt>
      <trkpt lat="42.51520399935543537139892578125" lon="19.7725966013967990875244140625">
        <ele>1853.800048828125</ele>
        <time>2026-06-18T10:53:42.000Z</time>
        <extensions>
          <ns3:TrackPointExtension>
            <ns3:atemp>20.0</ns3:atemp>
          </ns3:TrackPointExtension>
        </extensions>
      </trkpt>
      <trkpt lat="42.51521288417279720306396484375" lon="19.77259509265422821044921875">
        <ele>1854</ele>
        <time>2026-06-18T10:53:43.000Z</time>
        <extensions>
          <ns3:TrackPointExtension>
            <ns3:atemp>20.0</ns3:atemp>
          </ns3:TrackPointExtension>
        </extensions>
      </trkpt>
      <trkpt lat="42.51521372236311435699462890625" lon="19.7725905664265155792236328125">
        <ele>1854</ele>
        <time>2026-06-18T10:53:44.000Z</time>
        <extensions>
          <ns3:TrackPointExtension>
            <ns3:atemp>20.0</ns3:atemp>
          </ns3:TrackPointExtension>
        </extensions>
      </trkpt>
      <trkpt lat="42.5152138061821460723876953125" lon="19.77259048260748386383056640625">
        <ele>1854.199951171875</ele>
        <time>2026-06-18T10:53:45.000Z</time>
        <extensions>
          <ns3:TrackPointExtension>
            <ns3:atemp>20.0</ns3:atemp>
          </ns3:TrackPointExtension>
        </extensions>
      </trkpt>
      <trkpt lat="42.51520802266895771026611328125" lon="19.77258260361850261688232421875">
        <ele>1854.199951171875</ele>
        <time>2026-06-18T10:53:46.000Z</time>
        <extensions>
          <ns3:TrackPointExtension>
            <ns3:atemp>20.0</ns3:atemp>
          </ns3:TrackPointExtension>
        </extensions>
      </trkpt>
      <trkpt lat="42.51521171070635318756103515625" lon="19.77257363498210906982421875">
        <ele>1854.4000244140625</ele>
        <time>2026-06-18T10:53:47.000Z</time>
        <extensions>
          <ns3:TrackPointExtension>
            <ns3:atemp>20.0</ns3:atemp>
          </ns3:TrackPointExtension>
        </extensions>
      </trkpt>
      <trkpt lat="42.5152091123163700103759765625" lon="19.7725810110569000244140625">
        <ele>1854.4000244140625</ele>
        <time>2026-06-18T10:53:48.000Z</time>
        <extensions>
          <ns3:TrackPointExtension>
            <ns3:atemp>20.0</ns3:atemp>
          </ns3:TrackPointExtension>
        </extensions>
      </trkpt>
      <trkpt lat="42.51521606929600238800048828125" lon="19.77258461527526378631591796875">
        <ele>1854.4000244140625</ele>
        <time>2026-06-18T10:53:49.000Z</time>
        <extensions>
          <ns3:TrackPointExtension>
            <ns3:atemp>20.0</ns3:atemp>
          </ns3:TrackPointExtension>
        </extensions>
      </trkpt>
      <trkpt lat="42.51521456055343151092529296875" lon="19.77257874794304370880126953125">
        <ele>1854.5999755859375</ele>
        <time>2026-06-18T10:53:50.000Z</time>
        <extensions>
          <ns3:TrackPointExtension>
            <ns3:atemp>20.0</ns3:atemp>
          </ns3:TrackPointExtension>
        </extensions>
      </trkpt>
      <trkpt lat="42.51521439291536808013916015625" lon="19.772578664124011993408203125">
        <ele>1854.4000244140625</ele>
        <time>2026-06-18T10:53:51.000Z</time>
        <extensions>
          <ns3:TrackPointExtension>
            <ns3:atemp>20.0</ns3:atemp>
          </ns3:TrackPointExtension>
        </extensions>
      </trkpt>
      <trkpt lat="42.51521556638181209564208984375" lon="19.77255779318511486053466796875">
        <ele>1854.4000244140625</ele>
        <time>2026-06-18T10:53:52.000Z</time>
        <extensions>
          <ns3:TrackPointExtension>
            <ns3:atemp>20.0</ns3:atemp>
          </ns3:TrackPointExtension>
        </extensions>
      </trkpt>
      <trkpt lat="42.5152185000479221343994140625" lon="19.77254488505423069000244140625">
        <ele>1854.4000244140625</ele>
        <time>2026-06-18T10:53:53.000Z</time>
        <extensions>
          <ns3:TrackPointExtension>
            <ns3:atemp>20.0</ns3:atemp>
          </ns3:TrackPointExtension>
        </extensions>
      </trkpt>
      <trkpt lat="42.5152272172272205352783203125" lon="19.77253549732267856597900390625">
        <ele>1854.4000244140625</ele>
        <time>2026-06-18T10:53:54.000Z</time>
        <extensions>
          <ns3:TrackPointExtension>
            <ns3:atemp>20.0</ns3:atemp>
          </ns3:TrackPointExtension>
        </extensions>
      </trkpt>
      <trkpt lat="42.51523903571069240570068359375" lon="19.77252225391566753387451171875">
        <ele>1854</ele>
        <time>2026-06-18T10:53:55.000Z</time>
        <extensions>
          <ns3:TrackPointExtension>
            <ns3:atemp>20.0</ns3:atemp>
          </ns3:TrackPointExtension>
        </extensions>
      </trkpt>
      <trkpt lat="42.51525680534541606903076171875" lon="19.77249610237777233123779296875">
        <ele>1854</ele>
        <time>2026-06-18T10:53:56.000Z</time>
        <extensions>
          <ns3:TrackPointExtension>
            <ns3:atemp>20.0</ns3:atemp>
          </ns3:TrackPointExtension>
        </extensions>
      </trkpt>
      <trkpt lat="42.51526803709566593170166015625" lon="19.7724648378789424896240234375">
        <ele>1853.5999755859375</ele>
        <time>2026-06-18T10:53:57.000Z</time>
        <extensions>
          <ns3:TrackPointExtension>
            <ns3:atemp>20.0</ns3:atemp>
          </ns3:TrackPointExtension>
        </extensions>
      </trkpt>
      <trkpt lat="42.51528329215943813323974609375" lon="19.772442877292633056640625">
        <ele>1853.199951171875</ele>
        <time>2026-06-18T10:53:58.000Z</time>
        <extensions>
          <ns3:TrackPointExtension>
            <ns3:atemp>20.0</ns3:atemp>
          </ns3:TrackPointExtension>
        </extensions>
      </trkpt>
      <trkpt lat="42.51530609093606472015380859375" lon="19.7724209167063236236572265625">
        <ele>1852.800048828125</ele>
        <time>2026-06-18T10:53:59.000Z</time>
        <extensions>
          <ns3:TrackPointExtension>
            <ns3:atemp>20.0</ns3:atemp>
          </ns3:TrackPointExtension>
        </extensions>
      </trkpt>
      <trkpt lat="42.5153271295130252838134765625" lon="19.77238294668495655059814453125">
        <ele>1852.199951171875</ele>
        <time>2026-06-18T10:54:00.000Z</time>
        <extensions>
          <ns3:TrackPointExtension>
            <ns3:atemp>20.0</ns3:atemp>
          </ns3:TrackPointExtension>
        </extensions>
      </trkpt>
      <trkpt lat="42.515342049300670623779296875" lon="19.77233332581818103790283203125">
        <ele>1851.5999755859375</ele>
        <time>2026-06-18T10:54:01.000Z</time>
        <extensions>
          <ns3:TrackPointExtension>
            <ns3:atemp>20.0</ns3:atemp>
          </ns3:TrackPointExtension>
        </extensions>
      </trkpt>
      <trkpt lat="42.51535286195576190948486328125" lon="19.77228839881718158721923828125">
        <ele>1850.800048828125</ele>
        <time>2026-06-18T10:54:02.000Z</time>
        <extensions>
          <ns3:TrackPointExtension>
            <ns3:atemp>20.0</ns3:atemp>
          </ns3:TrackPointExtension>
        </extensions>
      </trkpt>
      <trkpt lat="42.515354119241237640380859375" lon="19.7722375206649303436279296875">
        <ele>1850</ele>
        <time>2026-06-18T10:54:03.000Z</time>
        <extensions>
          <ns3:TrackPointExtension>
            <ns3:atemp>20.0</ns3:atemp>
          </ns3:TrackPointExtension>
        </extensions>
      </trkpt>
      <trkpt lat="42.51534900628030300140380859375" lon="19.77218597196042537689208984375">
        <ele>1849.199951171875</ele>
        <time>2026-06-18T10:54:04.000Z</time>
        <extensions>
          <ns3:TrackPointExtension>
            <ns3:atemp>20.0</ns3:atemp>
          </ns3:TrackPointExtension>
        </extensions>
      </trkpt>
      <trkpt lat="42.51535671763122081756591796875" lon="19.7721325792372226715087890625">
        <ele>1848.199951171875</ele>
        <time>2026-06-18T10:54:05.000Z</time>
        <extensions>
          <ns3:TrackPointExtension>
            <ns3:atemp>20.0</ns3:atemp>
          </ns3:TrackPointExtension>
        </extensions>
      </trkpt>
      <trkpt lat="42.51535755582153797149658203125" lon="19.772078096866607666015625">
        <ele>1847</ele>
        <time>2026-06-18T10:54:06.000Z</time>
        <extensions>
          <ns3:TrackPointExtension>
            <ns3:atemp>20.0</ns3:atemp>
          </ns3:TrackPointExtension>
        </extensions>
      </trkpt>
      <trkpt lat="42.51535504125058650970458984375" lon="19.7720259614288806915283203125">
        <ele>1846.199951171875</ele>
        <time>2026-06-18T10:54:07.000Z</time>
        <extensions>
          <ns3:TrackPointExtension>
            <ns3:atemp>20.0</ns3:atemp>
          </ns3:TrackPointExtension>
        </extensions>
      </trkpt>
      <trkpt lat="42.51535856164991855621337890625" lon="19.77197558619081974029541015625">
        <ele>1845.199951171875</ele>
        <time>2026-06-18T10:54:08.000Z</time>
        <extensions>
          <ns3:TrackPointExtension>
            <ns3:atemp>20.0</ns3:atemp>
          </ns3:TrackPointExtension>
        </extensions>
      </trkpt>
      <trkpt lat="42.51536208204925060272216796875" lon="19.771924205124378204345703125">
        <ele>1844.4000244140625</ele>
        <time>2026-06-18T10:54:09.000Z</time>
        <extensions>
          <ns3:TrackPointExtension>
            <ns3:atemp>20.0</ns3:atemp>
          </ns3:TrackPointExtension>
        </extensions>
      </trkpt>
      <trkpt lat="42.51536325551569461822509765625" lon="19.77185991592705249786376953125">
        <ele>1843.5999755859375</ele>
        <time>2026-06-18T10:54:10.000Z</time>
        <extensions>
          <ns3:TrackPointExtension>
            <ns3:atemp>20.0</ns3:atemp>
          </ns3:TrackPointExtension>
        </extensions>
      </trkpt>
      <trkpt lat="42.51535738818347454071044921875" lon="19.7717899270355701446533203125">
        <ele>1842.800048828125</ele>
        <time>2026-06-18T10:54:11.000Z</time>
        <extensions>
          <ns3:TrackPointExtension>
            <ns3:atemp>20.0</ns3:atemp>
          </ns3:TrackPointExtension>
        </extensions>
      </trkpt>
      <trkpt lat="42.51534800045192241668701171875" lon="19.7717205248773097991943359375">
        <ele>1842.199951171875</ele>
        <time>2026-06-18T10:54:12.000Z</time>
        <extensions>
          <ns3:TrackPointExtension>
            <ns3:atemp>20.0</ns3:atemp>
          </ns3:TrackPointExtension>
        </extensions>
      </trkpt>
      <trkpt lat="42.51533660106360912322998046875" lon="19.77165489457547664642333984375">
        <ele>1841.5999755859375</ele>
        <time>2026-06-18T10:54:13.000Z</time>
        <extensions>
          <ns3:TrackPointExtension>
            <ns3:atemp>20.0</ns3:atemp>
          </ns3:TrackPointExtension>
        </extensions>
      </trkpt>
      <trkpt lat="42.515325956046581268310546875" lon="19.7715927846729755401611328125">
        <ele>1841</ele>
        <time>2026-06-18T10:54:14.000Z</time>
        <extensions>
          <ns3:TrackPointExtension>
            <ns3:atemp>20.0</ns3:atemp>
          </ns3:TrackPointExtension>
        </extensions>
      </trkpt>
      <trkpt lat="42.51531246118247509002685546875" lon="19.77153419516980648040771484375">
        <ele>1840.800048828125</ele>
        <time>2026-06-18T10:54:15.000Z</time>
        <extensions>
          <ns3:TrackPointExtension>
            <ns3:atemp>20.0</ns3:atemp>
          </ns3:TrackPointExtension>
        </extensions>
      </trkpt>
      <trkpt lat="42.51530189998447895050048828125" lon="19.77147686295211315155029296875">
        <ele>1840.5999755859375</ele>
        <time>2026-06-18T10:54:16.000Z</time>
        <extensions>
          <ns3:TrackPointExtension>
            <ns3:atemp>20.0</ns3:atemp>
          </ns3:TrackPointExtension>
        </extensions>
      </trkpt>
      <trkpt lat="42.51529787667095661163330078125" lon="19.7714214585721492767333984375">
        <ele>1840.5999755859375</ele>
        <time>2026-06-18T10:54:17.000Z</time>
        <extensions>
          <ns3:TrackPointExtension>
            <ns3:atemp>20.0</ns3:atemp>
          </ns3:TrackPointExtension>
        </extensions>
      </trkpt>
      <trkpt lat="42.515290416777133941650390625" lon="19.77137041278183460235595703125">
        <ele>1840.4000244140625</ele>
        <time>2026-06-18T10:54:18.000Z</time>
        <extensions>
          <ns3:TrackPointExtension>
            <ns3:atemp>20.0</ns3:atemp>
          </ns3:TrackPointExtension>
        </extensions>
      </trkpt>
      <trkpt lat="42.5152808614075183868408203125" lon="19.77132515050470829010009765625">
        <ele>1840.4000244140625</ele>
        <time>2026-06-18T10:54:19.000Z</time>
        <extensions>
          <ns3:TrackPointExtension>
            <ns3:atemp>20.0</ns3:atemp>
          </ns3:TrackPointExtension>
        </extensions>
      </trkpt>
      <trkpt lat="42.5152726471424102783203125" lon="19.77128374390304088592529296875">
        <ele>1840.4000244140625</ele>
        <time>2026-06-18T10:54:20.000Z</time>
        <extensions>
          <ns3:TrackPointExtension>
            <ns3:atemp>20.0</ns3:atemp>
          </ns3:TrackPointExtension>
        </extensions>
      </trkpt>
      <trkpt lat="42.5152694620192050933837890625" lon="19.7712474502623081207275390625">
        <ele>1840.4000244140625</ele>
        <time>2026-06-18T10:54:21.000Z</time>
        <extensions>
          <ns3:TrackPointExtension>
            <ns3:atemp>20.0</ns3:atemp>
          </ns3:TrackPointExtension>
        </extensions>
      </trkpt>
      <trkpt lat="42.51526870764791965484619140625" lon="19.77121568284928798675537109375">
        <ele>1840.5999755859375</ele>
        <time>2026-06-18T10:54:22.000Z</time>
        <extensions>
          <ns3:TrackPointExtension>
            <ns3:atemp>20.0</ns3:atemp>
          </ns3:TrackPointExtension>
        </extensions>
      </trkpt>
      <trkpt lat="42.51527122221887111663818359375" lon="19.7711874358355998992919921875">
        <ele>1840.5999755859375</ele>
        <time>2026-06-18T10:54:23.000Z</time>
        <extensions>
          <ns3:TrackPointExtension>
            <ns3:atemp>20.0</ns3:atemp>
          </ns3:TrackPointExtension>
        </extensions>
      </trkpt>
      <trkpt lat="42.515267618000507354736328125" lon="19.77116522379219532012939453125">
        <ele>1840.800048828125</ele>
        <time>2026-06-18T10:54:24.000Z</time>
        <extensions>
          <ns3:TrackPointExtension>
            <ns3:atemp>20.0</ns3:atemp>
          </ns3:TrackPointExtension>
        </extensions>
      </trkpt>
      <trkpt lat="42.51526485197246074676513671875" lon="19.77114510722458362579345703125">
        <ele>1841</ele>
        <time>2026-06-18T10:54:25.000Z</time>
        <extensions>
          <ns3:TrackPointExtension>
            <ns3:atemp>20.0</ns3:atemp>
          </ns3:TrackPointExtension>
        </extensions>
      </trkpt>
      <trkpt lat="42.51526049338281154632568359375" lon="19.7711277566850185394287109375">
        <ele>1841.199951171875</ele>
        <time>2026-06-18T10:54:26.000Z</time>
        <extensions>
          <ns3:TrackPointExtension>
            <ns3:atemp>20.0</ns3:atemp>
          </ns3:TrackPointExtension>
        </extensions>
      </trkpt>
      <trkpt lat="42.51525948755443096160888671875" lon="19.771128930151462554931640625">
        <ele>1841.199951171875</ele>
        <time>2026-06-18T10:54:27.000Z</time>
        <extensions>
          <ns3:TrackPointExtension>
            <ns3:atemp>20.0</ns3:atemp>
          </ns3:TrackPointExtension>
        </extensions>
      </trkpt>
      <trkpt lat="42.51525948755443096160888671875" lon="19.77112901397049427032470703125">
        <ele>1841.4000244140625</ele>
        <time>2026-06-18T10:54:28.000Z</time>
        <extensions>
          <ns3:TrackPointExtension>
            <ns3:atemp>20.0</ns3:atemp>
          </ns3:TrackPointExtension>
        </extensions>
      </trkpt>
      <trkpt lat="42.51525948755443096160888671875" lon="19.77112901397049427032470703125">
        <ele>1841.4000244140625</ele>
        <time>2026-06-18T10:54:29.000Z</time>
        <extensions>
          <ns3:TrackPointExtension>
            <ns3:atemp>20.0</ns3:atemp>
          </ns3:TrackPointExtension>
        </extensions>
      </trkpt>
      <trkpt lat="42.51525948755443096160888671875" lon="19.77112901397049427032470703125">
        <ele>1841.4000244140625</ele>
        <time>2026-06-18T10:54:30.000Z</time>
        <extensions>
          <ns3:TrackPointExtension>
            <ns3:atemp>20.0</ns3:atemp>
          </ns3:TrackPointExtension>
        </extensions>
      </trkpt>
      <trkpt lat="42.51525948755443096160888671875" lon="19.77112901397049427032470703125">
        <ele>1841.4000244140625</ele>
        <time>2026-06-18T10:54:31.000Z</time>
        <extensions>
          <ns3:TrackPointExtension>
            <ns3:atemp>20.0</ns3:atemp>
          </ns3:TrackPointExtension>
        </extensions>
      </trkpt>
      <trkpt lat="42.51525948755443096160888671875" lon="19.77112901397049427032470703125">
        <ele>1841.4000244140625</ele>
        <time>2026-06-18T10:54:32.000Z</time>
        <extensions>
          <ns3:TrackPointExtension>
            <ns3:atemp>20.0</ns3:atemp>
          </ns3:TrackPointExtension>
        </extensions>
      </trkpt>
      <trkpt lat="42.51525948755443096160888671875" lon="19.77112901397049427032470703125">
        <ele>1841.4000244140625</ele>
        <time>2026-06-18T10:54:33.000Z</time>
        <extensions>
          <ns3:TrackPointExtension>
            <ns3:atemp>20.0</ns3:atemp>
          </ns3:TrackPointExtension>
        </extensions>
      </trkpt>
      <trkpt lat="42.51525948755443096160888671875" lon="19.77112901397049427032470703125">
        <ele>1841.4000244140625</ele>
        <time>2026-06-18T10:54:34.000Z</time>
        <extensions>
          <ns3:TrackPointExtension>
            <ns3:atemp>20.0</ns3:atemp>
          </ns3:TrackPointExtension>
        </extensions>
      </trkpt>
      <trkpt lat="42.51525948755443096160888671875" lon="19.77112901397049427032470703125">
        <ele>1841.4000244140625</ele>
        <time>2026-06-18T10:54:35.000Z</time>
        <extensions>
          <ns3:TrackPointExtension>
            <ns3:atemp>20.0</ns3:atemp>
          </ns3:TrackPointExtension>
        </extensions>
      </trkpt>
      <trkpt lat="42.51525948755443096160888671875" lon="19.77112901397049427032470703125">
        <ele>1841.4000244140625</ele>
        <time>2026-06-18T10:54:36.000Z</time>
        <extensions>
          <ns3:TrackPointExtension>
            <ns3:atemp>20.0</ns3:atemp>
          </ns3:TrackPointExtension>
        </extensions>
      </trkpt>
      <trkpt lat="42.51525948755443096160888671875" lon="19.77112901397049427032470703125">
        <ele>1841.199951171875</ele>
        <time>2026-06-18T10:54:37.000Z</time>
        <extensions>
          <ns3:TrackPointExtension>
            <ns3:atemp>20.0</ns3:atemp>
          </ns3:TrackPointExtension>
        </extensions>
      </trkpt>
      <trkpt lat="42.51525948755443096160888671875" lon="19.77112901397049427032470703125">
        <ele>1841.4000244140625</ele>
        <time>2026-06-18T10:54:38.000Z</time>
        <extensions>
          <ns3:TrackPointExtension>
            <ns3:atemp>20.0</ns3:atemp>
          </ns3:TrackPointExtension>
        </extensions>
      </trkpt>
      <trkpt lat="42.51525948755443096160888671875" lon="19.77112901397049427032470703125">
        <ele>1841.4000244140625</ele>
        <time>2026-06-18T10:54:39.000Z</time>
        <extensions>
          <ns3:TrackPointExtension>
            <ns3:atemp>20.0</ns3:atemp>
          </ns3:TrackPointExtension>
        </extensions>
      </trkpt>
      <trkpt lat="42.51525948755443096160888671875" lon="19.77112901397049427032470703125">
        <ele>1841.4000244140625</ele>
        <time>2026-06-18T10:54:40.000Z</time>
        <extensions>
          <ns3:TrackPointExtension>
            <ns3:atemp>20.0</ns3:atemp>
          </ns3:TrackPointExtension>
        </extensions>
      </trkpt>
      <trkpt lat="42.51525948755443096160888671875" lon="19.77112901397049427032470703125">
        <ele>1841.4000244140625</ele>
        <time>2026-06-18T10:54:41.000Z</time>
        <extensions>
          <ns3:TrackPointExtension>
            <ns3:atemp>20.0</ns3:atemp>
          </ns3:TrackPointExtension>
        </extensions>
      </trkpt>
      <trkpt lat="42.51525948755443096160888671875" lon="19.77112901397049427032470703125">
        <ele>1841.4000244140625</ele>
        <time>2026-06-18T10:54:42.000Z</time>
        <extensions>
          <ns3:TrackPointExtension>
            <ns3:atemp>20.0</ns3:atemp>
          </ns3:TrackPointExtension>
        </extensions>
      </trkpt>
      <trkpt lat="42.51525948755443096160888671875" lon="19.77112884633243083953857421875">
        <ele>1841.4000244140625</ele>
        <time>2026-06-18T10:54:43.000Z</time>
        <extensions>
          <ns3:TrackPointExtension>
            <ns3:atemp>20.0</ns3:atemp>
          </ns3:TrackPointExtension>
        </extensions>
      </trkpt>
      <trkpt lat="42.5152604095637798309326171875" lon="19.7711203806102275848388671875">
        <ele>1841.4000244140625</ele>
        <time>2026-06-18T10:54:44.000Z</time>
        <extensions>
          <ns3:TrackPointExtension>
            <ns3:atemp>20.0</ns3:atemp>
          </ns3:TrackPointExtension>
        </extensions>
      </trkpt>
      <trkpt lat="42.5152592360973358154296875" lon="19.7711052931845188140869140625">
        <ele>1841.5999755859375</ele>
        <time>2026-06-18T10:54:45.000Z</time>
        <extensions>
          <ns3:TrackPointExtension>
            <ns3:atemp>20.0</ns3:atemp>
          </ns3:TrackPointExtension>
        </extensions>
      </trkpt>
      <trkpt lat="42.51525512896478176116943359375" lon="19.77108308114111423492431640625">
        <ele>1841.5999755859375</ele>
        <time>2026-06-18T10:54:46.000Z</time>
        <extensions>
          <ns3:TrackPointExtension>
            <ns3:atemp>20.0</ns3:atemp>
          </ns3:TrackPointExtension>
        </extensions>
      </trkpt>
      <trkpt lat="42.51524808816611766815185546875" lon="19.7710603661835193634033203125">
        <ele>1841.4000244140625</ele>
        <time>2026-06-18T10:54:47.000Z</time>
        <extensions>
          <ns3:TrackPointExtension>
            <ns3:atemp>20.0</ns3:atemp>
          </ns3:TrackPointExtension>
        </extensions>
      </trkpt>
      <trkpt lat="42.51523786224424839019775390625" lon="19.77104670368134975433349609375">
        <ele>1841.4000244140625</ele>
        <time>2026-06-18T10:54:48.000Z</time>
        <extensions>
          <ns3:TrackPointExtension>
            <ns3:atemp>20.0</ns3:atemp>
          </ns3:TrackPointExtension>
        </extensions>
      </trkpt>
      <trkpt lat="42.51522880978882312774658203125" lon="19.7710345499217510223388671875">
        <ele>1841.4000244140625</ele>
        <time>2026-06-18T10:54:49.000Z</time>
        <extensions>
          <ns3:TrackPointExtension>
            <ns3:atemp>20.0</ns3:atemp>
          </ns3:TrackPointExtension>
        </extensions>
      </trkpt>
      <trkpt lat="42.5152225233614444732666015625" lon="19.77102474309504032135009765625">
        <ele>1841.199951171875</ele>
        <time>2026-06-18T10:54:50.000Z</time>
        <extensions>
          <ns3:TrackPointExtension>
            <ns3:atemp>20.0</ns3:atemp>
          </ns3:TrackPointExtension>
        </extensions>
      </trkpt>
      <trkpt lat="42.51521766185760498046875" lon="19.77101015858352184295654296875">
        <ele>1841.4000244140625</ele>
        <time>2026-06-18T10:54:51.000Z</time>
        <extensions>
          <ns3:TrackPointExtension>
            <ns3:atemp>20.0</ns3:atemp>
          </ns3:TrackPointExtension>
        </extensions>
      </trkpt>
      <trkpt lat="42.51521254889667034149169921875" lon="19.7709953226149082183837890625">
        <ele>1841.4000244140625</ele>
        <time>2026-06-18T10:54:52.000Z</time>
        <extensions>
          <ns3:TrackPointExtension>
            <ns3:atemp>20.0</ns3:atemp>
          </ns3:TrackPointExtension>
        </extensions>
      </trkpt>
      <trkpt lat="42.515211962163448333740234375" lon="19.77098685689270496368408203125">
        <ele>1841.5999755859375</ele>
        <time>2026-06-18T10:54:53.000Z</time>
        <extensions>
          <ns3:TrackPointExtension>
            <ns3:atemp>20.0</ns3:atemp>
          </ns3:TrackPointExtension>
        </extensions>
      </trkpt>
      <trkpt lat="42.51521154306828975677490234375" lon="19.77098601870238780975341796875">
        <ele>1841.5999755859375</ele>
        <time>2026-06-18T10:54:54.000Z</time>
        <extensions>
          <ns3:TrackPointExtension>
            <ns3:atemp>20.0</ns3:atemp>
          </ns3:TrackPointExtension>
        </extensions>
      </trkpt>
      <trkpt lat="42.51521154306828975677490234375" lon="19.77098585106432437896728515625">
        <ele>1841.5999755859375</ele>
        <time>2026-06-18T10:54:55.000Z</time>
        <extensions>
          <ns3:TrackPointExtension>
            <ns3:atemp>20.0</ns3:atemp>
          </ns3:TrackPointExtension>
        </extensions>
      </trkpt>
      <trkpt lat="42.51521154306828975677490234375" lon="19.77098585106432437896728515625">
        <ele>1841.5999755859375</ele>
        <time>2026-06-18T10:54:56.000Z</time>
        <extensions>
          <ns3:TrackPointExtension>
            <ns3:atemp>20.0</ns3:atemp>
          </ns3:TrackPointExtension>
        </extensions>
      </trkpt>
      <trkpt lat="42.51521154306828975677490234375" lon="19.77098585106432437896728515625">
        <ele>1841.5999755859375</ele>
        <time>2026-06-18T10:54:57.000Z</time>
        <extensions>
          <ns3:TrackPointExtension>
            <ns3:atemp>20.0</ns3:atemp>
          </ns3:TrackPointExtension>
        </extensions>
      </trkpt>
      <trkpt lat="42.51521154306828975677490234375" lon="19.77098585106432437896728515625">
        <ele>1841.5999755859375</ele>
        <time>2026-06-18T10:54:58.000Z</time>
        <extensions>
          <ns3:TrackPointExtension>
            <ns3:atemp>20.0</ns3:atemp>
          </ns3:TrackPointExtension>
        </extensions>
      </trkpt>
      <trkpt lat="42.515211291611194610595703125" lon="19.77098501287400722503662109375">
        <ele>1841.5999755859375</ele>
        <time>2026-06-18T10:54:59.000Z</time>
        <extensions>
          <ns3:TrackPointExtension>
            <ns3:atemp>20.0</ns3:atemp>
          </ns3:TrackPointExtension>
        </extensions>
      </trkpt>
      <trkpt lat="42.51520182006061077117919921875" lon="19.77095953188836574554443359375">
        <ele>1841.5999755859375</ele>
        <time>2026-06-18T10:55:00.000Z</time>
        <extensions>
          <ns3:TrackPointExtension>
            <ns3:atemp>20.0</ns3:atemp>
          </ns3:TrackPointExtension>
        </extensions>
      </trkpt>
      <trkpt lat="42.51518757082521915435791015625" lon="19.7709460370242595672607421875">
        <ele>1841.5999755859375</ele>
        <time>2026-06-18T10:55:01.000Z</time>
        <extensions>
          <ns3:TrackPointExtension>
            <ns3:atemp>20.0</ns3:atemp>
          </ns3:TrackPointExtension>
        </extensions>
      </trkpt>
      <trkpt lat="42.51517407596111297607421875" lon="19.77093421854078769683837890625">
        <ele>1841.5999755859375</ele>
        <time>2026-06-18T10:55:02.000Z</time>
        <extensions>
          <ns3:TrackPointExtension>
            <ns3:atemp>20.0</ns3:atemp>
          </ns3:TrackPointExtension>
        </extensions>
      </trkpt>
      <trkpt lat="42.5151653587818145751953125" lon="19.770917035639286041259765625">
        <ele>1841.5999755859375</ele>
        <time>2026-06-18T10:55:03.000Z</time>
        <extensions>
          <ns3:TrackPointExtension>
            <ns3:atemp>20.0</ns3:atemp>
          </ns3:TrackPointExtension>
        </extensions>
      </trkpt>
      <trkpt lat="42.51516594551503658294677734375" lon="19.770903624594211578369140625">
        <ele>1841.5999755859375</ele>
        <time>2026-06-18T10:55:04.000Z</time>
        <extensions>
          <ns3:TrackPointExtension>
            <ns3:atemp>20.0</ns3:atemp>
          </ns3:TrackPointExtension>
        </extensions>
      </trkpt>
      <trkpt lat="42.515173740684986114501953125" lon="19.77088711224496364593505859375">
        <ele>1841.800048828125</ele>
        <time>2026-06-18T10:55:05.000Z</time>
        <extensions>
          <ns3:TrackPointExtension>
            <ns3:atemp>20.0</ns3:atemp>
          </ns3:TrackPointExtension>
        </extensions>
      </trkpt>
      <trkpt lat="42.5151752494275569915771484375" lon="19.77086666040122509002685546875">
        <ele>1842</ele>
        <time>2026-06-18T10:55:06.000Z</time>
        <extensions>
          <ns3:TrackPointExtension>
            <ns3:atemp>20.0</ns3:atemp>
          </ns3:TrackPointExtension>
        </extensions>
      </trkpt>
      <trkpt lat="42.51517265103757381439208984375" lon="19.770852662622928619384765625">
        <ele>1842.199951171875</ele>
        <time>2026-06-18T10:55:07.000Z</time>
        <extensions>
          <ns3:TrackPointExtension>
            <ns3:atemp>20.0</ns3:atemp>
          </ns3:TrackPointExtension>
        </extensions>
      </trkpt>
      <trkpt lat="42.5151661969721317291259765625" lon="19.77083916775882244110107421875">
        <ele>1842.4000244140625</ele>
        <time>2026-06-18T10:55:08.000Z</time>
        <extensions>
          <ns3:TrackPointExtension>
            <ns3:atemp>20.0</ns3:atemp>
          </ns3:TrackPointExtension>
        </extensions>
      </trkpt>
      <trkpt lat="42.5151615031063556671142578125" lon="19.77082877419888973236083984375">
        <ele>1842.5999755859375</ele>
        <time>2026-06-18T10:55:09.000Z</time>
        <extensions>
          <ns3:TrackPointExtension>
            <ns3:atemp>20.0</ns3:atemp>
          </ns3:TrackPointExtension>
        </extensions>
      </trkpt>
      <trkpt lat="42.5151561386883258819580078125" lon="19.77081804536283016204833984375">
        <ele>1842.800048828125</ele>
        <time>2026-06-18T10:55:10.000Z</time>
        <extensions>
          <ns3:TrackPointExtension>
            <ns3:atemp>20.0</ns3:atemp>
          </ns3:TrackPointExtension>
        </extensions>
      </trkpt>
      <trkpt lat="42.51515706069767475128173828125" lon="19.7708018682897090911865234375">
        <ele>1843</ele>
        <time>2026-06-18T10:55:11.000Z</time>
        <extensions>
          <ns3:TrackPointExtension>
            <ns3:atemp>20.0</ns3:atemp>
          </ns3:TrackPointExtension>
        </extensions>
      </trkpt>
      <trkpt lat="42.51515127718448638916015625" lon="19.77077613584697246551513671875">
        <ele>1843.199951171875</ele>
        <time>2026-06-18T10:55:12.000Z</time>
        <extensions>
          <ns3:TrackPointExtension>
            <ns3:atemp>20.0</ns3:atemp>
          </ns3:TrackPointExtension>
        </extensions>
      </trkpt>
      <trkpt lat="42.515139877796173095703125" lon="19.77074193768203258514404296875">
        <ele>1843.199951171875</ele>
        <time>2026-06-18T10:55:13.000Z</time>
        <extensions>
          <ns3:TrackPointExtension>
            <ns3:atemp>20.0</ns3:atemp>
          </ns3:TrackPointExtension>
        </extensions>
      </trkpt>
      <trkpt lat="42.51513518393039703369140625" lon="19.77070690132677555084228515625">
        <ele>1843.199951171875</ele>
        <time>2026-06-18T10:55:14.000Z</time>
        <extensions>
          <ns3:TrackPointExtension>
            <ns3:atemp>20.0</ns3:atemp>
          </ns3:TrackPointExtension>
        </extensions>
      </trkpt>
      <trkpt lat="42.5151330046355724334716796875" lon="19.77066985331475734710693359375">
        <ele>1843</ele>
        <time>2026-06-18T10:55:15.000Z</time>
        <extensions>
          <ns3:TrackPointExtension>
            <ns3:atemp>20.0</ns3:atemp>
          </ns3:TrackPointExtension>
        </extensions>
      </trkpt>
      <trkpt lat="42.51513677649199962615966796875" lon="19.7706315480172634124755859375">
        <ele>1842.800048828125</ele>
        <time>2026-06-18T10:55:16.000Z</time>
        <extensions>
          <ns3:TrackPointExtension>
            <ns3:atemp>20.0</ns3:atemp>
          </ns3:TrackPointExtension>
        </extensions>
      </trkpt>
      <trkpt lat="42.515139877796173095703125" lon="19.7705943323671817779541015625">
        <ele>1842.5999755859375</ele>
        <time>2026-06-18T10:55:17.000Z</time>
        <extensions>
          <ns3:TrackPointExtension>
            <ns3:atemp>21.0</ns3:atemp>
          </ns3:TrackPointExtension>
        </extensions>
      </trkpt>
      <trkpt lat="42.51514256000518798828125" lon="19.7705519199371337890625">
        <ele>1842.5999755859375</ele>
        <time>2026-06-18T10:55:18.000Z</time>
        <extensions>
          <ns3:TrackPointExtension>
            <ns3:atemp>21.0</ns3:atemp>
          </ns3:TrackPointExtension>
        </extensions>
      </trkpt>
      <trkpt lat="42.51515085808932781219482421875" lon="19.77051411755383014678955078125">
        <ele>1842.5999755859375</ele>
        <time>2026-06-18T10:55:19.000Z</time>
        <extensions>
          <ns3:TrackPointExtension>
            <ns3:atemp>21.0</ns3:atemp>
          </ns3:TrackPointExtension>
        </extensions>
      </trkpt>
      <trkpt lat="42.51516292802989482879638671875" lon="19.77048151195049285888671875">
        <ele>1842.5999755859375</ele>
        <time>2026-06-18T10:55:20.000Z</time>
        <extensions>
          <ns3:TrackPointExtension>
            <ns3:atemp>21.0</ns3:atemp>
          </ns3:TrackPointExtension>
        </extensions>
      </trkpt>
      <trkpt lat="42.51517675817012786865234375" lon="19.77043985389173030853271484375">
        <ele>1842.4000244140625</ele>
        <time>2026-06-18T10:55:21.000Z</time>
        <extensions>
          <ns3:TrackPointExtension>
            <ns3:atemp>21.0</ns3:atemp>
          </ns3:TrackPointExtension>
        </extensions>
      </trkpt>
      <trkpt lat="42.51519779674708843231201171875" lon="19.7703988663852214813232421875">
        <ele>1842.199951171875</ele>
        <time>2026-06-18T10:55:22.000Z</time>
        <extensions>
          <ns3:TrackPointExtension>
            <ns3:atemp>21.0</ns3:atemp>
          </ns3:TrackPointExtension>
        </extensions>
      </trkpt>
      <trkpt lat="42.515222690999507904052734375" lon="19.77035871706902980804443359375">
        <ele>1842</ele>
        <time>2026-06-18T10:55:23.000Z</time>
        <extensions>
          <ns3:TrackPointExtension>
            <ns3:atemp>21.0</ns3:atemp>
          </ns3:TrackPointExtension>
        </extensions>
      </trkpt>
      <trkpt lat="42.51524222083389759063720703125" lon="19.77032016031444072723388671875">
        <ele>1841.5999755859375</ele>
        <time>2026-06-18T10:55:24.000Z</time>
        <extensions>
          <ns3:TrackPointExtension>
            <ns3:atemp>21.0</ns3:atemp>
          </ns3:TrackPointExtension>
        </extensions>
      </trkpt>
      <trkpt lat="42.5152604095637798309326171875" lon="19.77028646506369113922119140625">
        <ele>1841.4000244140625</ele>
        <time>2026-06-18T10:55:25.000Z</time>
        <extensions>
          <ns3:TrackPointExtension>
            <ns3:atemp>21.0</ns3:atemp>
          </ns3:TrackPointExtension>
        </extensions>
      </trkpt>
      <trkpt lat="42.5152754969894886016845703125" lon="19.7702635824680328369140625">
        <ele>1841.4000244140625</ele>
        <time>2026-06-18T10:55:26.000Z</time>
        <extensions>
          <ns3:TrackPointExtension>
            <ns3:atemp>21.0</ns3:atemp>
          </ns3:TrackPointExtension>
        </extensions>
      </trkpt>
      <trkpt lat="42.515290081501007080078125" lon="19.77023248560726642608642578125">
        <ele>1841.4000244140625</ele>
        <time>2026-06-18T10:55:27.000Z</time>
        <extensions>
          <ns3:TrackPointExtension>
            <ns3:atemp>21.0</ns3:atemp>
          </ns3:TrackPointExtension>
        </extensions>
      </trkpt>
      <trkpt lat="42.51529234461486339569091796875" lon="19.77019325830042362213134765625">
        <ele>1841</ele>
        <time>2026-06-18T10:55:28.000Z</time>
        <extensions>
          <ns3:TrackPointExtension>
            <ns3:atemp>21.0</ns3:atemp>
          </ns3:TrackPointExtension>
        </extensions>
      </trkpt>
      <trkpt lat="42.5152912549674510955810546875" lon="19.77015721611678600311279296875">
        <ele>1841</ele>
        <time>2026-06-18T10:55:29.000Z</time>
        <extensions>
          <ns3:TrackPointExtension>
            <ns3:atemp>21.0</ns3:atemp>
          </ns3:TrackPointExtension>
        </extensions>
      </trkpt>
      <trkpt lat="42.51529251225292682647705078125" lon="19.7701229341328144073486328125">
        <ele>1840.800048828125</ele>
        <time>2026-06-18T10:55:30.000Z</time>
        <extensions>
          <ns3:TrackPointExtension>
            <ns3:atemp>21.0</ns3:atemp>
          </ns3:TrackPointExtension>
        </extensions>
      </trkpt>
      <trkpt lat="42.51529402099549770355224609375" lon="19.7700783424079418182373046875">
        <ele>1840.5999755859375</ele>
        <time>2026-06-18T10:55:31.000Z</time>
        <extensions>
          <ns3:TrackPointExtension>
            <ns3:atemp>21.0</ns3:atemp>
          </ns3:TrackPointExtension>
        </extensions>
      </trkpt>
      <trkpt lat="42.51529150642454624176025390625" lon="19.770033918321132659912109375">
        <ele>1840.4000244140625</ele>
        <time>2026-06-18T10:55:32.000Z</time>
        <extensions>
          <ns3:TrackPointExtension>
            <ns3:atemp>21.0</ns3:atemp>
          </ns3:TrackPointExtension>
        </extensions>
      </trkpt>
      <trkpt lat="42.51528882421553134918212890625" lon="19.7700060904026031494140625">
        <ele>1840.199951171875</ele>
        <time>2026-06-18T10:55:33.000Z</time>
        <extensions>
          <ns3:TrackPointExtension>
            <ns3:atemp>21.0</ns3:atemp>
          </ns3:TrackPointExtension>
        </extensions>
      </trkpt>
      <trkpt lat="42.51529234461486339569091796875" lon="19.76998823694884777069091796875">
        <ele>1840.199951171875</ele>
        <time>2026-06-18T10:55:34.000Z</time>
        <extensions>
          <ns3:TrackPointExtension>
            <ns3:atemp>21.0</ns3:atemp>
          </ns3:TrackPointExtension>
        </extensions>
      </trkpt>
      <trkpt lat="42.51529737375676631927490234375" lon="19.76997583173215389251708984375">
        <ele>1840.199951171875</ele>
        <time>2026-06-18T10:55:35.000Z</time>
        <extensions>
          <ns3:TrackPointExtension>
            <ns3:atemp>21.0</ns3:atemp>
          </ns3:TrackPointExtension>
        </extensions>
      </trkpt>
      <trkpt lat="42.5153053365647792816162109375" lon="19.7699526138603687286376953125">
        <ele>1840.199951171875</ele>
        <time>2026-06-18T10:55:36.000Z</time>
        <extensions>
          <ns3:TrackPointExtension>
            <ns3:atemp>21.0</ns3:atemp>
          </ns3:TrackPointExtension>
        </extensions>
      </trkpt>
      <trkpt lat="42.5153130479156970977783203125" lon="19.76992621086537837982177734375">
        <ele>1840</ele>
        <time>2026-06-18T10:55:37.000Z</time>
        <extensions>
          <ns3:TrackPointExtension>
            <ns3:atemp>21.0</ns3:atemp>
          </ns3:TrackPointExtension>
        </extensions>
      </trkpt>
      <trkpt lat="42.515316903591156005859375" lon="19.769901148974895477294921875">
        <ele>1840</ele>
        <time>2026-06-18T10:55:38.000Z</time>
        <extensions>
          <ns3:TrackPointExtension>
            <ns3:atemp>21.0</ns3:atemp>
          </ns3:TrackPointExtension>
        </extensions>
      </trkpt>
      <trkpt lat="42.5153103657066822052001953125" lon="19.76986083202064037322998046875">
        <ele>1839.5999755859375</ele>
        <time>2026-06-18T10:55:39.000Z</time>
        <extensions>
          <ns3:TrackPointExtension>
            <ns3:atemp>21.0</ns3:atemp>
          </ns3:TrackPointExtension>
        </extensions>
      </trkpt>
      <trkpt lat="42.5153033249080181121826171875" lon="19.7698268853127956390380859375">
        <ele>1839.199951171875</ele>
        <time>2026-06-18T10:55:40.000Z</time>
        <extensions>
          <ns3:TrackPointExtension>
            <ns3:atemp>21.0</ns3:atemp>
          </ns3:TrackPointExtension>
        </extensions>
      </trkpt>
      <trkpt lat="42.5152981281280517578125" lon="19.76979629136621952056884765625">
        <ele>1838.800048828125</ele>
        <time>2026-06-18T10:55:41.000Z</time>
        <extensions>
          <ns3:TrackPointExtension>
            <ns3:atemp>21.0</ns3:atemp>
          </ns3:TrackPointExtension>
        </extensions>
      </trkpt>
      <trkpt lat="42.515296451747417449951171875" lon="19.76976058445870876312255859375">
        <ele>1838.4000244140625</ele>
        <time>2026-06-18T10:55:42.000Z</time>
        <extensions>
          <ns3:TrackPointExtension>
            <ns3:atemp>21.0</ns3:atemp>
          </ns3:TrackPointExtension>
        </extensions>
      </trkpt>
      <trkpt lat="42.5152962841093540191650390625" lon="19.76972387172281742095947265625">
        <ele>1837.800048828125</ele>
        <time>2026-06-18T10:55:43.000Z</time>
        <extensions>
          <ns3:TrackPointExtension>
            <ns3:atemp>21.0</ns3:atemp>
          </ns3:TrackPointExtension>
        </extensions>
      </trkpt>
      <trkpt lat="42.51529335044324398040771484375" lon="19.769683890044689178466796875">
        <ele>1837.4000244140625</ele>
        <time>2026-06-18T10:55:44.000Z</time>
        <extensions>
          <ns3:TrackPointExtension>
            <ns3:atemp>21.0</ns3:atemp>
          </ns3:TrackPointExtension>
        </extensions>
      </trkpt>
      <trkpt lat="42.515291757881641387939453125" lon="19.7696466743946075439453125">
        <ele>1836.800048828125</ele>
        <time>2026-06-18T10:55:45.000Z</time>
        <extensions>
          <ns3:TrackPointExtension>
            <ns3:atemp>21.0</ns3:atemp>
          </ns3:TrackPointExtension>
        </extensions>
      </trkpt>
      <trkpt lat="42.51529343426227569580078125" lon="19.76960903964936733245849609375">
        <ele>1836.199951171875</ele>
        <time>2026-06-18T10:55:46.000Z</time>
        <extensions>
          <ns3:TrackPointExtension>
            <ns3:atemp>21.0</ns3:atemp>
          </ns3:TrackPointExtension>
        </extensions>
      </trkpt>
      <trkpt lat="42.51528647728264331817626953125" lon="19.76957366801798343658447265625">
        <ele>1835.800048828125</ele>
        <time>2026-06-18T10:55:47.000Z</time>
        <extensions>
          <ns3:TrackPointExtension>
            <ns3:atemp>21.0</ns3:atemp>
          </ns3:TrackPointExtension>
        </extensions>
      </trkpt>
      <trkpt lat="42.51528195105493068695068359375" lon="19.76954198442399501800537109375">
        <ele>1835.4000244140625</ele>
        <time>2026-06-18T10:55:48.000Z</time>
        <extensions>
          <ns3:TrackPointExtension>
            <ns3:atemp>21.0</ns3:atemp>
          </ns3:TrackPointExtension>
        </extensions>
      </trkpt>
      <trkpt lat="42.51528404653072357177734375" lon="19.769510217010974884033203125">
        <ele>1835</ele>
        <time>2026-06-18T10:55:49.000Z</time>
        <extensions>
          <ns3:TrackPointExtension>
            <ns3:atemp>21.0</ns3:atemp>
          </ns3:TrackPointExtension>
        </extensions>
      </trkpt>
      <trkpt lat="42.51527524553239345550537109375" lon="19.7694758512079715728759765625">
        <ele>1834.5999755859375</ele>
        <time>2026-06-18T10:55:50.000Z</time>
        <extensions>
          <ns3:TrackPointExtension>
            <ns3:atemp>21.0</ns3:atemp>
          </ns3:TrackPointExtension>
        </extensions>
      </trkpt>
      <trkpt lat="42.51526434905827045440673828125" lon="19.76943721063435077667236328125">
        <ele>1834.199951171875</ele>
        <time>2026-06-18T10:55:51.000Z</time>
        <extensions>
          <ns3:TrackPointExtension>
            <ns3:atemp>21.0</ns3:atemp>
          </ns3:TrackPointExtension>
        </extensions>
      </trkpt>
      <trkpt lat="42.51526057720184326171875" lon="19.76939245127141475677490234375">
        <ele>1833.5999755859375</ele>
        <time>2026-06-18T10:55:52.000Z</time>
        <extensions>
          <ns3:TrackPointExtension>
            <ns3:atemp>21.0</ns3:atemp>
          </ns3:TrackPointExtension>
        </extensions>
      </trkpt>
      <trkpt lat="42.5152523629367351531982421875" lon="19.7693464346230030059814453125">
        <ele>1833</ele>
        <time>2026-06-18T10:55:53.000Z</time>
        <extensions>
          <ns3:TrackPointExtension>
            <ns3:atemp>21.0</ns3:atemp>
          </ns3:TrackPointExtension>
        </extensions>
      </trkpt>
      <trkpt lat="42.515241466462612152099609375" lon="19.76930133998394012451171875">
        <ele>1832.4000244140625</ele>
        <time>2026-06-18T10:55:54.000Z</time>
        <extensions>
          <ns3:TrackPointExtension>
            <ns3:atemp>21.0</ns3:atemp>
          </ns3:TrackPointExtension>
        </extensions>
      </trkpt>
      <trkpt lat="42.51522193662822246551513671875" lon="19.76925163529813289642333984375">
        <ele>1831.800048828125</ele>
        <time>2026-06-18T10:55:55.000Z</time>
        <extensions>
          <ns3:TrackPointExtension>
            <ns3:atemp>21.0</ns3:atemp>
          </ns3:TrackPointExtension>
        </extensions>
      </trkpt>
      <trkpt lat="42.51521372236311435699462890625" lon="19.769200421869754791259765625">
        <ele>1831.4000244140625</ele>
        <time>2026-06-18T10:55:56.000Z</time>
        <extensions>
          <ns3:TrackPointExtension>
            <ns3:atemp>21.0</ns3:atemp>
          </ns3:TrackPointExtension>
        </extensions>
      </trkpt>
      <trkpt lat="42.51519947312772274017333984375" lon="19.76914937607944011688232421875">
        <ele>1830.800048828125</ele>
        <time>2026-06-18T10:55:57.000Z</time>
        <extensions>
          <ns3:TrackPointExtension>
            <ns3:atemp>21.0</ns3:atemp>
          </ns3:TrackPointExtension>
        </extensions>
      </trkpt>
      <trkpt lat="42.51519779674708843231201171875" lon="19.769117273390293121337890625">
        <ele>1830.4000244140625</ele>
        <time>2026-06-18T10:55:58.000Z</time>
        <extensions>
          <ns3:TrackPointExtension>
            <ns3:atemp>21.0</ns3:atemp>
          </ns3:TrackPointExtension>
        </extensions>
      </trkpt>
      <trkpt lat="42.51519578509032726287841796875" lon="19.7690745256841182708740234375">
        <ele>1830</ele>
        <time>2026-06-18T10:55:59.000Z</time>
        <extensions>
          <ns3:TrackPointExtension>
            <ns3:atemp>21.0</ns3:atemp>
          </ns3:TrackPointExtension>
        </extensions>
      </trkpt>
      <trkpt lat="42.51519377343356609344482421875" lon="19.76902750320732593536376953125">
        <ele>1829.5999755859375</ele>
        <time>2026-06-18T10:56:00.000Z</time>
        <extensions>
          <ns3:TrackPointExtension>
            <ns3:atemp>21.0</ns3:atemp>
          </ns3:TrackPointExtension>
        </extensions>
      </trkpt>
      <trkpt lat="42.5151936896145343780517578125" lon="19.768989868462085723876953125">
        <ele>1829.199951171875</ele>
        <time>2026-06-18T10:56:01.000Z</time>
        <extensions>
          <ns3:TrackPointExtension>
            <ns3:atemp>21.0</ns3:atemp>
          </ns3:TrackPointExtension>
        </extensions>
      </trkpt>
      <trkpt lat="42.515191845595836639404296875" lon="19.7689715959131717681884765625">
        <ele>1828.800048828125</ele>
        <time>2026-06-18T10:56:02.000Z</time>
        <extensions>
          <ns3:TrackPointExtension>
            <ns3:atemp>21.0</ns3:atemp>
          </ns3:TrackPointExtension>
        </extensions>
      </trkpt>
      <trkpt lat="42.5151950307190418243408203125" lon="19.7689722664654254913330078125">
        <ele>1828.5999755859375</ele>
        <time>2026-06-18T10:56:03.000Z</time>
        <extensions>
          <ns3:TrackPointExtension>
            <ns3:atemp>21.0</ns3:atemp>
          </ns3:TrackPointExtension>
        </extensions>
      </trkpt>
      <trkpt lat="42.51519511453807353973388671875" lon="19.7689722664654254913330078125">
        <ele>1828.4000244140625</ele>
        <time>2026-06-18T10:56:04.000Z</time>
        <extensions>
          <ns3:TrackPointExtension>
            <ns3:atemp>21.0</ns3:atemp>
          </ns3:TrackPointExtension>
        </extensions>
      </trkpt>
      <trkpt lat="42.51519511453807353973388671875" lon="19.7689722664654254913330078125">
        <ele>1828.199951171875</ele>
        <time>2026-06-18T10:56:05.000Z</time>
        <extensions>
          <ns3:TrackPointExtension>
            <ns3:atemp>21.0</ns3:atemp>
          </ns3:TrackPointExtension>
        </extensions>
      </trkpt>
      <trkpt lat="42.51519511453807353973388671875" lon="19.7689722664654254913330078125">
        <ele>1828.199951171875</ele>
        <time>2026-06-18T10:56:06.000Z</time>
        <extensions>
          <ns3:TrackPointExtension>
            <ns3:atemp>21.0</ns3:atemp>
          </ns3:TrackPointExtension>
        </extensions>
      </trkpt>
      <trkpt lat="42.51519511453807353973388671875" lon="19.7689722664654254913330078125">
        <ele>1828.199951171875</ele>
        <time>2026-06-18T10:56:07.000Z</time>
        <extensions>
          <ns3:TrackPointExtension>
            <ns3:atemp>21.0</ns3:atemp>
          </ns3:TrackPointExtension>
        </extensions>
      </trkpt>
      <trkpt lat="42.51519544981420040130615234375" lon="19.768972434103488922119140625">
        <ele>1828.4000244140625</ele>
        <time>2026-06-18T10:56:08.000Z</time>
        <extensions>
          <ns3:TrackPointExtension>
            <ns3:atemp>21.0</ns3:atemp>
          </ns3:TrackPointExtension>
        </extensions>
      </trkpt>
      <trkpt lat="42.51519410870969295501708984375" lon="19.76897754706442356109619140625">
        <ele>1828.4000244140625</ele>
        <time>2026-06-18T10:56:09.000Z</time>
        <extensions>
          <ns3:TrackPointExtension>
            <ns3:atemp>21.0</ns3:atemp>
          </ns3:TrackPointExtension>
        </extensions>
      </trkpt>
      <trkpt lat="42.5151930190622806549072265625" lon="19.768983162939548492431640625">
        <ele>1828.4000244140625</ele>
        <time>2026-06-18T10:56:10.000Z</time>
        <extensions>
          <ns3:TrackPointExtension>
            <ns3:atemp>21.0</ns3:atemp>
          </ns3:TrackPointExtension>
        </extensions>
      </trkpt>
      <trkpt lat="42.515194527804851531982421875" lon="19.7689836658537387847900390625">
        <ele>1828.4000244140625</ele>
        <time>2026-06-18T10:56:11.000Z</time>
        <extensions>
          <ns3:TrackPointExtension>
            <ns3:atemp>21.0</ns3:atemp>
          </ns3:TrackPointExtension>
        </extensions>
      </trkpt>
      <trkpt lat="42.51519444398581981658935546875" lon="19.768983162939548492431640625">
        <ele>1828.4000244140625</ele>
        <time>2026-06-18T10:56:12.000Z</time>
        <extensions>
          <ns3:TrackPointExtension>
            <ns3:atemp>21.0</ns3:atemp>
          </ns3:TrackPointExtension>
        </extensions>
      </trkpt>
      <trkpt lat="42.51519511453807353973388671875" lon="19.7689722664654254913330078125">
        <ele>1828.4000244140625</ele>
        <time>2026-06-18T10:56:13.000Z</time>
        <extensions>
          <ns3:TrackPointExtension>
            <ns3:atemp>21.0</ns3:atemp>
          </ns3:TrackPointExtension>
        </extensions>
      </trkpt>
      <trkpt lat="42.51519511453807353973388671875" lon="19.7689722664654254913330078125">
        <ele>1828.4000244140625</ele>
        <time>2026-06-18T10:56:14.000Z</time>
        <extensions>
          <ns3:TrackPointExtension>
            <ns3:atemp>21.0</ns3:atemp>
          </ns3:TrackPointExtension>
        </extensions>
      </trkpt>
      <trkpt lat="42.51519511453807353973388671875" lon="19.7689722664654254913330078125">
        <ele>1828.199951171875</ele>
        <time>2026-06-18T10:56:15.000Z</time>
        <extensions>
          <ns3:TrackPointExtension>
            <ns3:atemp>21.0</ns3:atemp>
          </ns3:TrackPointExtension>
        </extensions>
      </trkpt>
      <trkpt lat="42.51519511453807353973388671875" lon="19.7689722664654254913330078125">
        <ele>1828.199951171875</ele>
        <time>2026-06-18T10:56:16.000Z</time>
        <extensions>
          <ns3:TrackPointExtension>
            <ns3:atemp>21.0</ns3:atemp>
          </ns3:TrackPointExtension>
        </extensions>
      </trkpt>
      <trkpt lat="42.51519511453807353973388671875" lon="19.7689722664654254913330078125">
        <ele>1828</ele>
        <time>2026-06-18T10:56:17.000Z</time>
        <extensions>
          <ns3:TrackPointExtension>
            <ns3:atemp>21.0</ns3:atemp>
          </ns3:TrackPointExtension>
        </extensions>
      </trkpt>
      <trkpt lat="42.51519511453807353973388671875" lon="19.7689722664654254913330078125">
        <ele>1827.800048828125</ele>
        <time>2026-06-18T10:56:18.000Z</time>
        <extensions>
          <ns3:TrackPointExtension>
            <ns3:atemp>21.0</ns3:atemp>
          </ns3:TrackPointExtension>
        </extensions>
      </trkpt>
      <trkpt lat="42.51519511453807353973388671875" lon="19.7689722664654254913330078125">
        <ele>1827.5999755859375</ele>
        <time>2026-06-18T10:56:19.000Z</time>
        <extensions>
          <ns3:TrackPointExtension>
            <ns3:atemp>21.0</ns3:atemp>
          </ns3:TrackPointExtension>
        </extensions>
      </trkpt>
      <trkpt lat="42.51519511453807353973388671875" lon="19.7689722664654254913330078125">
        <ele>1827.4000244140625</ele>
        <time>2026-06-18T10:56:20.000Z</time>
        <extensions>
          <ns3:TrackPointExtension>
            <ns3:atemp>21.0</ns3:atemp>
          </ns3:TrackPointExtension>
        </extensions>
      </trkpt>
      <trkpt lat="42.51519511453807353973388671875" lon="19.7689722664654254913330078125">
        <ele>1827.4000244140625</ele>
        <time>2026-06-18T10:56:21.000Z</time>
        <extensions>
          <ns3:TrackPointExtension>
            <ns3:atemp>21.0</ns3:atemp>
          </ns3:TrackPointExtension>
        </extensions>
      </trkpt>
      <trkpt lat="42.51519511453807353973388671875" lon="19.7689722664654254913330078125">
        <ele>1827.199951171875</ele>
        <time>2026-06-18T10:56:22.000Z</time>
        <extensions>
          <ns3:TrackPointExtension>
            <ns3:atemp>21.0</ns3:atemp>
          </ns3:TrackPointExtension>
        </extensions>
      </trkpt>
      <trkpt lat="42.51519511453807353973388671875" lon="19.7689722664654254913330078125">
        <ele>1827.199951171875</ele>
        <time>2026-06-18T10:56:23.000Z</time>
        <extensions>
          <ns3:TrackPointExtension>
            <ns3:atemp>21.0</ns3:atemp>
          </ns3:TrackPointExtension>
        </extensions>
      </trkpt>
      <trkpt lat="42.51519511453807353973388671875" lon="19.7689722664654254913330078125">
        <ele>1827</ele>
        <time>2026-06-18T10:56:24.000Z</time>
        <extensions>
          <ns3:TrackPointExtension>
            <ns3:atemp>21.0</ns3:atemp>
          </ns3:TrackPointExtension>
        </extensions>
      </trkpt>
      <trkpt lat="42.51519511453807353973388671875" lon="19.7689722664654254913330078125">
        <ele>1827</ele>
        <time>2026-06-18T10:56:25.000Z</time>
        <extensions>
          <ns3:TrackPointExtension>
            <ns3:atemp>21.0</ns3:atemp>
          </ns3:TrackPointExtension>
        </extensions>
      </trkpt>
      <trkpt lat="42.51519511453807353973388671875" lon="19.7689722664654254913330078125">
        <ele>1827</ele>
        <time>2026-06-18T10:56:26.000Z</time>
        <extensions>
          <ns3:TrackPointExtension>
            <ns3:atemp>21.0</ns3:atemp>
          </ns3:TrackPointExtension>
        </extensions>
      </trkpt>
      <trkpt lat="42.51519511453807353973388671875" lon="19.7689722664654254913330078125">
        <ele>1827</ele>
        <time>2026-06-18T10:56:27.000Z</time>
        <extensions>
          <ns3:TrackPointExtension>
            <ns3:atemp>21.0</ns3:atemp>
          </ns3:TrackPointExtension>
        </extensions>
      </trkpt>
      <trkpt lat="42.51519511453807353973388671875" lon="19.7689722664654254913330078125">
        <ele>1826.800048828125</ele>
        <time>2026-06-18T10:56:28.000Z</time>
        <extensions>
          <ns3:TrackPointExtension>
            <ns3:atemp>21.0</ns3:atemp>
          </ns3:TrackPointExtension>
        </extensions>
      </trkpt>
      <trkpt lat="42.51519511453807353973388671875" lon="19.7689722664654254913330078125">
        <ele>1826.800048828125</ele>
        <time>2026-06-18T10:56:29.000Z</time>
        <extensions>
          <ns3:TrackPointExtension>
            <ns3:atemp>21.0</ns3:atemp>
          </ns3:TrackPointExtension>
        </extensions>
      </trkpt>
      <trkpt lat="42.51519511453807353973388671875" lon="19.7689722664654254913330078125">
        <ele>1826.800048828125</ele>
        <time>2026-06-18T10:56:30.000Z</time>
        <extensions>
          <ns3:TrackPointExtension>
            <ns3:atemp>21.0</ns3:atemp>
          </ns3:TrackPointExtension>
        </extensions>
      </trkpt>
      <trkpt lat="42.51519511453807353973388671875" lon="19.7689722664654254913330078125">
        <ele>1826.800048828125</ele>
        <time>2026-06-18T10:56:31.000Z</time>
        <extensions>
          <ns3:TrackPointExtension>
            <ns3:atemp>21.0</ns3:atemp>
          </ns3:TrackPointExtension>
        </extensions>
      </trkpt>
      <trkpt lat="42.51519511453807353973388671875" lon="19.7689722664654254913330078125">
        <ele>1826.5999755859375</ele>
        <time>2026-06-18T10:56:32.000Z</time>
        <extensions>
          <ns3:TrackPointExtension>
            <ns3:atemp>21.0</ns3:atemp>
          </ns3:TrackPointExtension>
        </extensions>
      </trkpt>
      <trkpt lat="42.51519511453807353973388671875" lon="19.7689722664654254913330078125">
        <ele>1826.5999755859375</ele>
        <time>2026-06-18T10:56:33.000Z</time>
        <extensions>
          <ns3:TrackPointExtension>
            <ns3:atemp>21.0</ns3:atemp>
          </ns3:TrackPointExtension>
        </extensions>
      </trkpt>
      <trkpt lat="42.51519511453807353973388671875" lon="19.7689722664654254913330078125">
        <ele>1826.5999755859375</ele>
        <time>2026-06-18T10:56:34.000Z</time>
        <extensions>
          <ns3:TrackPointExtension>
            <ns3:atemp>21.0</ns3:atemp>
          </ns3:TrackPointExtension>
        </extensions>
      </trkpt>
      <trkpt lat="42.51519511453807353973388671875" lon="19.7689722664654254913330078125">
        <ele>1826.4000244140625</ele>
        <time>2026-06-18T10:56:35.000Z</time>
        <extensions>
          <ns3:TrackPointExtension>
            <ns3:atemp>21.0</ns3:atemp>
          </ns3:TrackPointExtension>
        </extensions>
      </trkpt>
      <trkpt lat="42.51519511453807353973388671875" lon="19.7689722664654254913330078125">
        <ele>1826.4000244140625</ele>
        <time>2026-06-18T10:56:36.000Z</time>
        <extensions>
          <ns3:TrackPointExtension>
            <ns3:atemp>21.0</ns3:atemp>
          </ns3:TrackPointExtension>
        </extensions>
      </trkpt>
      <trkpt lat="42.51519511453807353973388671875" lon="19.7689722664654254913330078125">
        <ele>1826.5999755859375</ele>
        <time>2026-06-18T10:56:37.000Z</time>
        <extensions>
          <ns3:TrackPointExtension>
            <ns3:atemp>21.0</ns3:atemp>
          </ns3:TrackPointExtension>
        </extensions>
      </trkpt>
      <trkpt lat="42.51519511453807353973388671875" lon="19.7689722664654254913330078125">
        <ele>1826.5999755859375</ele>
        <time>2026-06-18T10:56:38.000Z</time>
        <extensions>
          <ns3:TrackPointExtension>
            <ns3:atemp>21.0</ns3:atemp>
          </ns3:TrackPointExtension>
        </extensions>
      </trkpt>
      <trkpt lat="42.51519511453807353973388671875" lon="19.7689722664654254913330078125">
        <ele>1826.5999755859375</ele>
        <time>2026-06-18T10:56:39.000Z</time>
        <extensions>
          <ns3:TrackPointExtension>
            <ns3:atemp>21.0</ns3:atemp>
          </ns3:TrackPointExtension>
        </extensions>
      </trkpt>
      <trkpt lat="42.51519511453807353973388671875" lon="19.7689722664654254913330078125">
        <ele>1826.5999755859375</ele>
        <time>2026-06-18T10:56:40.000Z</time>
        <extensions>
          <ns3:TrackPointExtension>
            <ns3:atemp>21.0</ns3:atemp>
          </ns3:TrackPointExtension>
        </extensions>
      </trkpt>
      <trkpt lat="42.51519511453807353973388671875" lon="19.7689722664654254913330078125">
        <ele>1826.5999755859375</ele>
        <time>2026-06-18T10:56:41.000Z</time>
        <extensions>
          <ns3:TrackPointExtension>
            <ns3:atemp>21.0</ns3:atemp>
          </ns3:TrackPointExtension>
        </extensions>
      </trkpt>
      <trkpt lat="42.51519511453807353973388671875" lon="19.7689722664654254913330078125">
        <ele>1826.5999755859375</ele>
        <time>2026-06-18T10:56:42.000Z</time>
        <extensions>
          <ns3:TrackPointExtension>
            <ns3:atemp>21.0</ns3:atemp>
          </ns3:TrackPointExtension>
        </extensions>
      </trkpt>
      <trkpt lat="42.51519511453807353973388671875" lon="19.7689722664654254913330078125">
        <ele>1826.5999755859375</ele>
        <time>2026-06-18T10:56:43.000Z</time>
        <extensions>
          <ns3:TrackPointExtension>
            <ns3:atemp>21.0</ns3:atemp>
          </ns3:TrackPointExtension>
        </extensions>
      </trkpt>
      <trkpt lat="42.51519511453807353973388671875" lon="19.7689722664654254913330078125">
        <ele>1826.800048828125</ele>
        <time>2026-06-18T10:56:44.000Z</time>
        <extensions>
          <ns3:TrackPointExtension>
            <ns3:atemp>21.0</ns3:atemp>
          </ns3:TrackPointExtension>
        </extensions>
      </trkpt>
      <trkpt lat="42.51519511453807353973388671875" lon="19.7689722664654254913330078125">
        <ele>1826.800048828125</ele>
        <time>2026-06-18T10:56:45.000Z</time>
        <extensions>
          <ns3:TrackPointExtension>
            <ns3:atemp>21.0</ns3:atemp>
          </ns3:TrackPointExtension>
        </extensions>
      </trkpt>
      <trkpt lat="42.51519511453807353973388671875" lon="19.7689722664654254913330078125">
        <ele>1826.800048828125</ele>
        <time>2026-06-18T10:56:46.000Z</time>
        <extensions>
          <ns3:TrackPointExtension>
            <ns3:atemp>21.0</ns3:atemp>
          </ns3:TrackPointExtension>
        </extensions>
      </trkpt>
      <trkpt lat="42.51519511453807353973388671875" lon="19.7689722664654254913330078125">
        <ele>1826.800048828125</ele>
        <time>2026-06-18T10:56:47.000Z</time>
        <extensions>
          <ns3:TrackPointExtension>
            <ns3:atemp>21.0</ns3:atemp>
          </ns3:TrackPointExtension>
        </extensions>
      </trkpt>
      <trkpt lat="42.51519511453807353973388671875" lon="19.7689722664654254913330078125">
        <ele>1826.800048828125</ele>
        <time>2026-06-18T10:56:48.000Z</time>
        <extensions>
          <ns3:TrackPointExtension>
            <ns3:atemp>21.0</ns3:atemp>
          </ns3:TrackPointExtension>
        </extensions>
      </trkpt>
      <trkpt lat="42.51519511453807353973388671875" lon="19.7689722664654254913330078125">
        <ele>1826.800048828125</ele>
        <time>2026-06-18T10:56:49.000Z</time>
        <extensions>
          <ns3:TrackPointExtension>
            <ns3:atemp>21.0</ns3:atemp>
          </ns3:TrackPointExtension>
        </extensions>
      </trkpt>
      <trkpt lat="42.51519511453807353973388671875" lon="19.7689722664654254913330078125">
        <ele>1826.800048828125</ele>
        <time>2026-06-18T10:56:50.000Z</time>
        <extensions>
          <ns3:TrackPointExtension>
            <ns3:atemp>21.0</ns3:atemp>
          </ns3:TrackPointExtension>
        </extensions>
      </trkpt>
      <trkpt lat="42.51519511453807353973388671875" lon="19.7689722664654254913330078125">
        <ele>1826.800048828125</ele>
        <time>2026-06-18T10:56:51.000Z</time>
        <extensions>
          <ns3:TrackPointExtension>
            <ns3:atemp>21.0</ns3:atemp>
          </ns3:TrackPointExtension>
        </extensions>
      </trkpt>
      <trkpt lat="42.51519511453807353973388671875" lon="19.7689722664654254913330078125">
        <ele>1826.800048828125</ele>
        <time>2026-06-18T10:56:52.000Z</time>
        <extensions>
          <ns3:TrackPointExtension>
            <ns3:atemp>21.0</ns3:atemp>
          </ns3:TrackPointExtension>
        </extensions>
      </trkpt>
      <trkpt lat="42.51519511453807353973388671875" lon="19.7689722664654254913330078125">
        <ele>1826.800048828125</ele>
        <time>2026-06-18T10:56:53.000Z</time>
        <extensions>
          <ns3:TrackPointExtension>
            <ns3:atemp>21.0</ns3:atemp>
          </ns3:TrackPointExtension>
        </extensions>
      </trkpt>
      <trkpt lat="42.51519511453807353973388671875" lon="19.7689722664654254913330078125">
        <ele>1826.800048828125</ele>
        <time>2026-06-18T10:56:54.000Z</time>
        <extensions>
          <ns3:TrackPointExtension>
            <ns3:atemp>21.0</ns3:atemp>
          </ns3:TrackPointExtension>
        </extensions>
      </trkpt>
      <trkpt lat="42.51519511453807353973388671875" lon="19.7689722664654254913330078125">
        <ele>1826.800048828125</ele>
        <time>2026-06-18T10:56:55.000Z</time>
        <extensions>
          <ns3:TrackPointExtension>
            <ns3:atemp>21.0</ns3:atemp>
          </ns3:TrackPointExtension>
        </extensions>
      </trkpt>
      <trkpt lat="42.51519511453807353973388671875" lon="19.7689722664654254913330078125">
        <ele>1826.800048828125</ele>
        <time>2026-06-18T10:56:56.000Z</time>
        <extensions>
          <ns3:TrackPointExtension>
            <ns3:atemp>21.0</ns3:atemp>
          </ns3:TrackPointExtension>
        </extensions>
      </trkpt>
      <trkpt lat="42.51519511453807353973388671875" lon="19.7689722664654254913330078125">
        <ele>1826.800048828125</ele>
        <time>2026-06-18T10:56:57.000Z</time>
        <extensions>
          <ns3:TrackPointExtension>
            <ns3:atemp>21.0</ns3:atemp>
          </ns3:TrackPointExtension>
        </extensions>
      </trkpt>
      <trkpt lat="42.51519511453807353973388671875" lon="19.7689722664654254913330078125">
        <ele>1826.800048828125</ele>
        <time>2026-06-18T10:56:58.000Z</time>
        <extensions>
          <ns3:TrackPointExtension>
            <ns3:atemp>21.0</ns3:atemp>
          </ns3:TrackPointExtension>
        </extensions>
      </trkpt>
      <trkpt lat="42.51519511453807353973388671875" lon="19.7689722664654254913330078125">
        <ele>1827</ele>
        <time>2026-06-18T10:56:59.000Z</time>
        <extensions>
          <ns3:TrackPointExtension>
            <ns3:atemp>21.0</ns3:atemp>
          </ns3:TrackPointExtension>
        </extensions>
      </trkpt>
      <trkpt lat="42.51519511453807353973388671875" lon="19.7689722664654254913330078125">
        <ele>1827</ele>
        <time>2026-06-18T10:57:00.000Z</time>
        <extensions>
          <ns3:TrackPointExtension>
            <ns3:atemp>21.0</ns3:atemp>
          </ns3:TrackPointExtension>
        </extensions>
      </trkpt>
      <trkpt lat="42.51519511453807353973388671875" lon="19.7689722664654254913330078125">
        <ele>1827</ele>
        <time>2026-06-18T10:57:01.000Z</time>
        <extensions>
          <ns3:TrackPointExtension>
            <ns3:atemp>21.0</ns3:atemp>
          </ns3:TrackPointExtension>
        </extensions>
      </trkpt>
      <trkpt lat="42.51519511453807353973388671875" lon="19.7689722664654254913330078125">
        <ele>1827</ele>
        <time>2026-06-18T10:57:02.000Z</time>
        <extensions>
          <ns3:TrackPointExtension>
            <ns3:atemp>21.0</ns3:atemp>
          </ns3:TrackPointExtension>
        </extensions>
      </trkpt>
      <trkpt lat="42.51519511453807353973388671875" lon="19.7689722664654254913330078125">
        <ele>1827</ele>
        <time>2026-06-18T10:57:03.000Z</time>
        <extensions>
          <ns3:TrackPointExtension>
            <ns3:atemp>21.0</ns3:atemp>
          </ns3:TrackPointExtension>
        </extensions>
      </trkpt>
      <trkpt lat="42.51519511453807353973388671875" lon="19.7689722664654254913330078125">
        <ele>1827</ele>
        <time>2026-06-18T10:57:04.000Z</time>
        <extensions>
          <ns3:TrackPointExtension>
            <ns3:atemp>21.0</ns3:atemp>
          </ns3:TrackPointExtension>
        </extensions>
      </trkpt>
      <trkpt lat="42.51519511453807353973388671875" lon="19.7689722664654254913330078125">
        <ele>1827</ele>
        <time>2026-06-18T10:57:05.000Z</time>
        <extensions>
          <ns3:TrackPointExtension>
            <ns3:atemp>21.0</ns3:atemp>
          </ns3:TrackPointExtension>
        </extensions>
      </trkpt>
      <trkpt lat="42.51519511453807353973388671875" lon="19.7689722664654254913330078125">
        <ele>1827</ele>
        <time>2026-06-18T10:57:06.000Z</time>
        <extensions>
          <ns3:TrackPointExtension>
            <ns3:atemp>21.0</ns3:atemp>
          </ns3:TrackPointExtension>
        </extensions>
      </trkpt>
      <trkpt lat="42.51519511453807353973388671875" lon="19.7689722664654254913330078125">
        <ele>1827</ele>
        <time>2026-06-18T10:57:07.000Z</time>
        <extensions>
          <ns3:TrackPointExtension>
            <ns3:atemp>21.0</ns3:atemp>
          </ns3:TrackPointExtension>
        </extensions>
      </trkpt>
      <trkpt lat="42.51519511453807353973388671875" lon="19.7689722664654254913330078125">
        <ele>1827</ele>
        <time>2026-06-18T10:57:08.000Z</time>
        <extensions>
          <ns3:TrackPointExtension>
            <ns3:atemp>21.0</ns3:atemp>
          </ns3:TrackPointExtension>
        </extensions>
      </trkpt>
      <trkpt lat="42.51519511453807353973388671875" lon="19.7689722664654254913330078125">
        <ele>1827</ele>
        <time>2026-06-18T10:57:09.000Z</time>
        <extensions>
          <ns3:TrackPointExtension>
            <ns3:atemp>21.0</ns3:atemp>
          </ns3:TrackPointExtension>
        </extensions>
      </trkpt>
      <trkpt lat="42.51519511453807353973388671875" lon="19.7689722664654254913330078125">
        <ele>1827</ele>
        <time>2026-06-18T10:57:10.000Z</time>
        <extensions>
          <ns3:TrackPointExtension>
            <ns3:atemp>21.0</ns3:atemp>
          </ns3:TrackPointExtension>
        </extensions>
      </trkpt>
      <trkpt lat="42.51519511453807353973388671875" lon="19.7689722664654254913330078125">
        <ele>1827</ele>
        <time>2026-06-18T10:57:11.000Z</time>
        <extensions>
          <ns3:TrackPointExtension>
            <ns3:atemp>21.0</ns3:atemp>
          </ns3:TrackPointExtension>
        </extensions>
      </trkpt>
      <trkpt lat="42.51519511453807353973388671875" lon="19.7689722664654254913330078125">
        <ele>1827</ele>
        <time>2026-06-18T10:57:12.000Z</time>
        <extensions>
          <ns3:TrackPointExtension>
            <ns3:atemp>21.0</ns3:atemp>
          </ns3:TrackPointExtension>
        </extensions>
      </trkpt>
      <trkpt lat="42.51519511453807353973388671875" lon="19.7689722664654254913330078125">
        <ele>1827</ele>
        <time>2026-06-18T10:57:13.000Z</time>
        <extensions>
          <ns3:TrackPointExtension>
            <ns3:atemp>21.0</ns3:atemp>
          </ns3:TrackPointExtension>
        </extensions>
      </trkpt>
      <trkpt lat="42.51519511453807353973388671875" lon="19.7689722664654254913330078125">
        <ele>1827</ele>
        <time>2026-06-18T10:57:14.000Z</time>
        <extensions>
          <ns3:TrackPointExtension>
            <ns3:atemp>21.0</ns3:atemp>
          </ns3:TrackPointExtension>
        </extensions>
      </trkpt>
      <trkpt lat="42.51519511453807353973388671875" lon="19.7689722664654254913330078125">
        <ele>1827</ele>
        <time>2026-06-18T10:57:15.000Z</time>
        <extensions>
          <ns3:TrackPointExtension>
            <ns3:atemp>21.0</ns3:atemp>
          </ns3:TrackPointExtension>
        </extensions>
      </trkpt>
      <trkpt lat="42.51519511453807353973388671875" lon="19.7689722664654254913330078125">
        <ele>1827</ele>
        <time>2026-06-18T10:57:16.000Z</time>
        <extensions>
          <ns3:TrackPointExtension>
            <ns3:atemp>21.0</ns3:atemp>
          </ns3:TrackPointExtension>
        </extensions>
      </trkpt>
      <trkpt lat="42.51519511453807353973388671875" lon="19.7689722664654254913330078125">
        <ele>1827</ele>
        <time>2026-06-18T10:57:17.000Z</time>
        <extensions>
          <ns3:TrackPointExtension>
            <ns3:atemp>21.0</ns3:atemp>
          </ns3:TrackPointExtension>
        </extensions>
      </trkpt>
      <trkpt lat="42.51519511453807353973388671875" lon="19.7689722664654254913330078125">
        <ele>1827.199951171875</ele>
        <time>2026-06-18T10:57:18.000Z</time>
        <extensions>
          <ns3:TrackPointExtension>
            <ns3:atemp>21.0</ns3:atemp>
          </ns3:TrackPointExtension>
        </extensions>
      </trkpt>
      <trkpt lat="42.51519511453807353973388671875" lon="19.7689722664654254913330078125">
        <ele>1827.199951171875</ele>
        <time>2026-06-18T10:57:19.000Z</time>
        <extensions>
          <ns3:TrackPointExtension>
            <ns3:atemp>21.0</ns3:atemp>
          </ns3:TrackPointExtension>
        </extensions>
      </trkpt>
      <trkpt lat="42.51519511453807353973388671875" lon="19.7689722664654254913330078125">
        <ele>1827</ele>
        <time>2026-06-18T10:57:20.000Z</time>
        <extensions>
          <ns3:TrackPointExtension>
            <ns3:atemp>21.0</ns3:atemp>
          </ns3:TrackPointExtension>
        </extensions>
      </trkpt>
      <trkpt lat="42.51519511453807353973388671875" lon="19.7689722664654254913330078125">
        <ele>1827</ele>
        <time>2026-06-18T10:57:21.000Z</time>
        <extensions>
          <ns3:TrackPointExtension>
            <ns3:atemp>21.0</ns3:atemp>
          </ns3:TrackPointExtension>
        </extensions>
      </trkpt>
      <trkpt lat="42.51519511453807353973388671875" lon="19.7689722664654254913330078125">
        <ele>1827</ele>
        <time>2026-06-18T10:57:22.000Z</time>
        <extensions>
          <ns3:TrackPointExtension>
            <ns3:atemp>21.0</ns3:atemp>
          </ns3:TrackPointExtension>
        </extensions>
      </trkpt>
      <trkpt lat="42.51519511453807353973388671875" lon="19.7689722664654254913330078125">
        <ele>1827</ele>
        <time>2026-06-18T10:57:23.000Z</time>
        <extensions>
          <ns3:TrackPointExtension>
            <ns3:atemp>21.0</ns3:atemp>
          </ns3:TrackPointExtension>
        </extensions>
      </trkpt>
      <trkpt lat="42.51519511453807353973388671875" lon="19.7689722664654254913330078125">
        <ele>1827</ele>
        <time>2026-06-18T10:57:24.000Z</time>
        <extensions>
          <ns3:TrackPointExtension>
            <ns3:atemp>21.0</ns3:atemp>
          </ns3:TrackPointExtension>
        </extensions>
      </trkpt>
      <trkpt lat="42.51519511453807353973388671875" lon="19.7689722664654254913330078125">
        <ele>1827</ele>
        <time>2026-06-18T10:57:25.000Z</time>
        <extensions>
          <ns3:TrackPointExtension>
            <ns3:atemp>21.0</ns3:atemp>
          </ns3:TrackPointExtension>
        </extensions>
      </trkpt>
      <trkpt lat="42.51519511453807353973388671875" lon="19.7689722664654254913330078125">
        <ele>1827</ele>
        <time>2026-06-18T10:57:26.000Z</time>
        <extensions>
          <ns3:TrackPointExtension>
            <ns3:atemp>21.0</ns3:atemp>
          </ns3:TrackPointExtension>
        </extensions>
      </trkpt>
      <trkpt lat="42.51519511453807353973388671875" lon="19.7689722664654254913330078125">
        <ele>1827</ele>
        <time>2026-06-18T10:57:27.000Z</time>
        <extensions>
          <ns3:TrackPointExtension>
            <ns3:atemp>21.0</ns3:atemp>
          </ns3:TrackPointExtension>
        </extensions>
      </trkpt>
      <trkpt lat="42.51519511453807353973388671875" lon="19.7689722664654254913330078125">
        <ele>1827</ele>
        <time>2026-06-18T10:57:28.000Z</time>
        <extensions>
          <ns3:TrackPointExtension>
            <ns3:atemp>21.0</ns3:atemp>
          </ns3:TrackPointExtension>
        </extensions>
      </trkpt>
      <trkpt lat="42.51519511453807353973388671875" lon="19.7689722664654254913330078125">
        <ele>1827</ele>
        <time>2026-06-18T10:57:29.000Z</time>
        <extensions>
          <ns3:TrackPointExtension>
            <ns3:atemp>21.0</ns3:atemp>
          </ns3:TrackPointExtension>
        </extensions>
      </trkpt>
      <trkpt lat="42.51519511453807353973388671875" lon="19.7689722664654254913330078125">
        <ele>1827</ele>
        <time>2026-06-18T10:57:30.000Z</time>
        <extensions>
          <ns3:TrackPointExtension>
            <ns3:atemp>21.0</ns3:atemp>
          </ns3:TrackPointExtension>
        </extensions>
      </trkpt>
      <trkpt lat="42.51519511453807353973388671875" lon="19.7689722664654254913330078125">
        <ele>1827</ele>
        <time>2026-06-18T10:57:31.000Z</time>
        <extensions>
          <ns3:TrackPointExtension>
            <ns3:atemp>21.0</ns3:atemp>
          </ns3:TrackPointExtension>
        </extensions>
      </trkpt>
      <trkpt lat="42.51519511453807353973388671875" lon="19.7689722664654254913330078125">
        <ele>1827</ele>
        <time>2026-06-18T10:57:32.000Z</time>
        <extensions>
          <ns3:TrackPointExtension>
            <ns3:atemp>21.0</ns3:atemp>
          </ns3:TrackPointExtension>
        </extensions>
      </trkpt>
      <trkpt lat="42.51519511453807353973388671875" lon="19.7689722664654254913330078125">
        <ele>1827</ele>
        <time>2026-06-18T10:57:33.000Z</time>
        <extensions>
          <ns3:TrackPointExtension>
            <ns3:atemp>21.0</ns3:atemp>
          </ns3:TrackPointExtension>
        </extensions>
      </trkpt>
      <trkpt lat="42.51519511453807353973388671875" lon="19.7689722664654254913330078125">
        <ele>1827</ele>
        <time>2026-06-18T10:57:34.000Z</time>
        <extensions>
          <ns3:TrackPointExtension>
            <ns3:atemp>21.0</ns3:atemp>
          </ns3:TrackPointExtension>
        </extensions>
      </trkpt>
      <trkpt lat="42.51519511453807353973388671875" lon="19.7689722664654254913330078125">
        <ele>1827</ele>
        <time>2026-06-18T10:57:35.000Z</time>
        <extensions>
          <ns3:TrackPointExtension>
            <ns3:atemp>21.0</ns3:atemp>
          </ns3:TrackPointExtension>
        </extensions>
      </trkpt>
      <trkpt lat="42.51519511453807353973388671875" lon="19.7689722664654254913330078125">
        <ele>1827</ele>
        <time>2026-06-18T10:57:36.000Z</time>
        <extensions>
          <ns3:TrackPointExtension>
            <ns3:atemp>21.0</ns3:atemp>
          </ns3:TrackPointExtension>
        </extensions>
      </trkpt>
      <trkpt lat="42.51519511453807353973388671875" lon="19.7689722664654254913330078125">
        <ele>1827</ele>
        <time>2026-06-18T10:57:37.000Z</time>
        <extensions>
          <ns3:TrackPointExtension>
            <ns3:atemp>21.0</ns3:atemp>
          </ns3:TrackPointExtension>
        </extensions>
      </trkpt>
      <trkpt lat="42.51519511453807353973388671875" lon="19.7689722664654254913330078125">
        <ele>1827</ele>
        <time>2026-06-18T10:57:38.000Z</time>
        <extensions>
          <ns3:TrackPointExtension>
            <ns3:atemp>21.0</ns3:atemp>
          </ns3:TrackPointExtension>
        </extensions>
      </trkpt>
      <trkpt lat="42.51519511453807353973388671875" lon="19.7689722664654254913330078125">
        <ele>1827</ele>
        <time>2026-06-18T10:57:39.000Z</time>
        <extensions>
          <ns3:TrackPointExtension>
            <ns3:atemp>21.0</ns3:atemp>
          </ns3:TrackPointExtension>
        </extensions>
      </trkpt>
      <trkpt lat="42.51519511453807353973388671875" lon="19.7689722664654254913330078125">
        <ele>1827</ele>
        <time>2026-06-18T10:57:40.000Z</time>
        <extensions>
          <ns3:TrackPointExtension>
            <ns3:atemp>21.0</ns3:atemp>
          </ns3:TrackPointExtension>
        </extensions>
      </trkpt>
      <trkpt lat="42.51519511453807353973388671875" lon="19.7689722664654254913330078125">
        <ele>1827</ele>
        <time>2026-06-18T10:57:41.000Z</time>
        <extensions>
          <ns3:TrackPointExtension>
            <ns3:atemp>21.0</ns3:atemp>
          </ns3:TrackPointExtension>
        </extensions>
      </trkpt>
      <trkpt lat="42.51519511453807353973388671875" lon="19.7689722664654254913330078125">
        <ele>1827</ele>
        <time>2026-06-18T10:57:42.000Z</time>
        <extensions>
          <ns3:TrackPointExtension>
            <ns3:atemp>21.0</ns3:atemp>
          </ns3:TrackPointExtension>
        </extensions>
      </trkpt>
      <trkpt lat="42.51519511453807353973388671875" lon="19.7689722664654254913330078125">
        <ele>1827</ele>
        <time>2026-06-18T10:57:43.000Z</time>
        <extensions>
          <ns3:TrackPointExtension>
            <ns3:atemp>21.0</ns3:atemp>
          </ns3:TrackPointExtension>
        </extensions>
      </trkpt>
      <trkpt lat="42.51519511453807353973388671875" lon="19.7689722664654254913330078125">
        <ele>1827</ele>
        <time>2026-06-18T10:57:44.000Z</time>
        <extensions>
          <ns3:TrackPointExtension>
            <ns3:atemp>21.0</ns3:atemp>
          </ns3:TrackPointExtension>
        </extensions>
      </trkpt>
      <trkpt lat="42.51519511453807353973388671875" lon="19.7689722664654254913330078125">
        <ele>1827</ele>
        <time>2026-06-18T10:57:45.000Z</time>
        <extensions>
          <ns3:TrackPointExtension>
            <ns3:atemp>21.0</ns3:atemp>
          </ns3:TrackPointExtension>
        </extensions>
      </trkpt>
      <trkpt lat="42.51519511453807353973388671875" lon="19.7689722664654254913330078125">
        <ele>1827</ele>
        <time>2026-06-18T10:57:46.000Z</time>
        <extensions>
          <ns3:TrackPointExtension>
            <ns3:atemp>21.0</ns3:atemp>
          </ns3:TrackPointExtension>
        </extensions>
      </trkpt>
      <trkpt lat="42.51519511453807353973388671875" lon="19.7689722664654254913330078125">
        <ele>1827</ele>
        <time>2026-06-18T10:57:47.000Z</time>
        <extensions>
          <ns3:TrackPointExtension>
            <ns3:atemp>21.0</ns3:atemp>
          </ns3:TrackPointExtension>
        </extensions>
      </trkpt>
      <trkpt lat="42.51519511453807353973388671875" lon="19.7689722664654254913330078125">
        <ele>1826.800048828125</ele>
        <time>2026-06-18T10:57:48.000Z</time>
        <extensions>
          <ns3:TrackPointExtension>
            <ns3:atemp>21.0</ns3:atemp>
          </ns3:TrackPointExtension>
        </extensions>
      </trkpt>
      <trkpt lat="42.51519511453807353973388671875" lon="19.7689722664654254913330078125">
        <ele>1826.800048828125</ele>
        <time>2026-06-18T10:57:49.000Z</time>
        <extensions>
          <ns3:TrackPointExtension>
            <ns3:atemp>21.0</ns3:atemp>
          </ns3:TrackPointExtension>
        </extensions>
      </trkpt>
      <trkpt lat="42.51519511453807353973388671875" lon="19.7689722664654254913330078125">
        <ele>1826.800048828125</ele>
        <time>2026-06-18T10:57:50.000Z</time>
        <extensions>
          <ns3:TrackPointExtension>
            <ns3:atemp>21.0</ns3:atemp>
          </ns3:TrackPointExtension>
        </extensions>
      </trkpt>
      <trkpt lat="42.51519511453807353973388671875" lon="19.7689722664654254913330078125">
        <ele>1826.800048828125</ele>
        <time>2026-06-18T10:57:51.000Z</time>
        <extensions>
          <ns3:TrackPointExtension>
            <ns3:atemp>21.0</ns3:atemp>
          </ns3:TrackPointExtension>
        </extensions>
      </trkpt>
      <trkpt lat="42.51519511453807353973388671875" lon="19.7689722664654254913330078125">
        <ele>1826.800048828125</ele>
        <time>2026-06-18T10:57:52.000Z</time>
        <extensions>
          <ns3:TrackPointExtension>
            <ns3:atemp>21.0</ns3:atemp>
          </ns3:TrackPointExtension>
        </extensions>
      </trkpt>
      <trkpt lat="42.51519511453807353973388671875" lon="19.7689722664654254913330078125">
        <ele>1826.800048828125</ele>
        <time>2026-06-18T10:57:53.000Z</time>
        <extensions>
          <ns3:TrackPointExtension>
            <ns3:atemp>21.0</ns3:atemp>
          </ns3:TrackPointExtension>
        </extensions>
      </trkpt>
      <trkpt lat="42.51519511453807353973388671875" lon="19.7689722664654254913330078125">
        <ele>1826.800048828125</ele>
        <time>2026-06-18T10:57:54.000Z</time>
        <extensions>
          <ns3:TrackPointExtension>
            <ns3:atemp>21.0</ns3:atemp>
          </ns3:TrackPointExtension>
        </extensions>
      </trkpt>
      <trkpt lat="42.51519511453807353973388671875" lon="19.7689722664654254913330078125">
        <ele>1826.800048828125</ele>
        <time>2026-06-18T10:57:55.000Z</time>
        <extensions>
          <ns3:TrackPointExtension>
            <ns3:atemp>21.0</ns3:atemp>
          </ns3:TrackPointExtension>
        </extensions>
      </trkpt>
      <trkpt lat="42.51519511453807353973388671875" lon="19.7689722664654254913330078125">
        <ele>1826.800048828125</ele>
        <time>2026-06-18T10:57:56.000Z</time>
        <extensions>
          <ns3:TrackPointExtension>
            <ns3:atemp>21.0</ns3:atemp>
          </ns3:TrackPointExtension>
        </extensions>
      </trkpt>
      <trkpt lat="42.51519511453807353973388671875" lon="19.7689722664654254913330078125">
        <ele>1826.800048828125</ele>
        <time>2026-06-18T10:57:57.000Z</time>
        <extensions>
          <ns3:TrackPointExtension>
            <ns3:atemp>21.0</ns3:atemp>
          </ns3:TrackPointExtension>
        </extensions>
      </trkpt>
      <trkpt lat="42.51519511453807353973388671875" lon="19.7689722664654254913330078125">
        <ele>1826.800048828125</ele>
        <time>2026-06-18T10:57:58.000Z</time>
        <extensions>
          <ns3:TrackPointExtension>
            <ns3:atemp>21.0</ns3:atemp>
          </ns3:TrackPointExtension>
        </extensions>
      </trkpt>
      <trkpt lat="42.51519511453807353973388671875" lon="19.7689722664654254913330078125">
        <ele>1826.800048828125</ele>
        <time>2026-06-18T10:57:59.000Z</time>
        <extensions>
          <ns3:TrackPointExtension>
            <ns3:atemp>21.0</ns3:atemp>
          </ns3:TrackPointExtension>
        </extensions>
      </trkpt>
      <trkpt lat="42.51519511453807353973388671875" lon="19.7689722664654254913330078125">
        <ele>1826.800048828125</ele>
        <time>2026-06-18T10:58:00.000Z</time>
        <extensions>
          <ns3:TrackPointExtension>
            <ns3:atemp>21.0</ns3:atemp>
          </ns3:TrackPointExtension>
        </extensions>
      </trkpt>
      <trkpt lat="42.51519511453807353973388671875" lon="19.7689722664654254913330078125">
        <ele>1826.800048828125</ele>
        <time>2026-06-18T10:58:01.000Z</time>
        <extensions>
          <ns3:TrackPointExtension>
            <ns3:atemp>21.0</ns3:atemp>
          </ns3:TrackPointExtension>
        </extensions>
      </trkpt>
      <trkpt lat="42.51519511453807353973388671875" lon="19.7689722664654254913330078125">
        <ele>1826.800048828125</ele>
        <time>2026-06-18T10:58:02.000Z</time>
        <extensions>
          <ns3:TrackPointExtension>
            <ns3:atemp>21.0</ns3:atemp>
          </ns3:TrackPointExtension>
        </extensions>
      </trkpt>
      <trkpt lat="42.51519511453807353973388671875" lon="19.7689722664654254913330078125">
        <ele>1826.800048828125</ele>
        <time>2026-06-18T10:58:03.000Z</time>
        <extensions>
          <ns3:TrackPointExtension>
            <ns3:atemp>21.0</ns3:atemp>
          </ns3:TrackPointExtension>
        </extensions>
      </trkpt>
      <trkpt lat="42.51519511453807353973388671875" lon="19.7689722664654254913330078125">
        <ele>1826.800048828125</ele>
        <time>2026-06-18T10:58:04.000Z</time>
        <extensions>
          <ns3:TrackPointExtension>
            <ns3:atemp>21.0</ns3:atemp>
          </ns3:TrackPointExtension>
        </extensions>
      </trkpt>
      <trkpt lat="42.51519511453807353973388671875" lon="19.7689722664654254913330078125">
        <ele>1827</ele>
        <time>2026-06-18T10:58:05.000Z</time>
        <extensions>
          <ns3:TrackPointExtension>
            <ns3:atemp>21.0</ns3:atemp>
          </ns3:TrackPointExtension>
        </extensions>
      </trkpt>
      <trkpt lat="42.51519511453807353973388671875" lon="19.7689722664654254913330078125">
        <ele>1827</ele>
        <time>2026-06-18T10:58:06.000Z</time>
        <extensions>
          <ns3:TrackPointExtension>
            <ns3:atemp>21.0</ns3:atemp>
          </ns3:TrackPointExtension>
        </extensions>
      </trkpt>
      <trkpt lat="42.51519511453807353973388671875" lon="19.7689722664654254913330078125">
        <ele>1827</ele>
        <time>2026-06-18T10:58:07.000Z</time>
        <extensions>
          <ns3:TrackPointExtension>
            <ns3:atemp>21.0</ns3:atemp>
          </ns3:TrackPointExtension>
        </extensions>
      </trkpt>
      <trkpt lat="42.51519511453807353973388671875" lon="19.7689722664654254913330078125">
        <ele>1827</ele>
        <time>2026-06-18T10:58:08.000Z</time>
        <extensions>
          <ns3:TrackPointExtension>
            <ns3:atemp>21.0</ns3:atemp>
          </ns3:TrackPointExtension>
        </extensions>
      </trkpt>
      <trkpt lat="42.51519511453807353973388671875" lon="19.7689722664654254913330078125">
        <ele>1827</ele>
        <time>2026-06-18T10:58:09.000Z</time>
        <extensions>
          <ns3:TrackPointExtension>
            <ns3:atemp>21.0</ns3:atemp>
          </ns3:TrackPointExtension>
        </extensions>
      </trkpt>
      <trkpt lat="42.51519511453807353973388671875" lon="19.7689722664654254913330078125">
        <ele>1827</ele>
        <time>2026-06-18T10:58:10.000Z</time>
        <extensions>
          <ns3:TrackPointExtension>
            <ns3:atemp>21.0</ns3:atemp>
          </ns3:TrackPointExtension>
        </extensions>
      </trkpt>
      <trkpt lat="42.51519511453807353973388671875" lon="19.7689722664654254913330078125">
        <ele>1827</ele>
        <time>2026-06-18T10:58:11.000Z</time>
        <extensions>
          <ns3:TrackPointExtension>
            <ns3:atemp>21.0</ns3:atemp>
          </ns3:TrackPointExtension>
        </extensions>
      </trkpt>
      <trkpt lat="42.51519511453807353973388671875" lon="19.7689722664654254913330078125">
        <ele>1827</ele>
        <time>2026-06-18T10:58:12.000Z</time>
        <extensions>
          <ns3:TrackPointExtension>
            <ns3:atemp>21.0</ns3:atemp>
          </ns3:TrackPointExtension>
        </extensions>
      </trkpt>
      <trkpt lat="42.51519511453807353973388671875" lon="19.7689722664654254913330078125">
        <ele>1827</ele>
        <time>2026-06-18T10:58:13.000Z</time>
        <extensions>
          <ns3:TrackPointExtension>
            <ns3:atemp>21.0</ns3:atemp>
          </ns3:TrackPointExtension>
        </extensions>
      </trkpt>
      <trkpt lat="42.51519511453807353973388671875" lon="19.7689722664654254913330078125">
        <ele>1827</ele>
        <time>2026-06-18T10:58:14.000Z</time>
        <extensions>
          <ns3:TrackPointExtension>
            <ns3:atemp>21.0</ns3:atemp>
          </ns3:TrackPointExtension>
        </extensions>
      </trkpt>
      <trkpt lat="42.51519511453807353973388671875" lon="19.7689722664654254913330078125">
        <ele>1827</ele>
        <time>2026-06-18T10:58:15.000Z</time>
        <extensions>
          <ns3:TrackPointExtension>
            <ns3:atemp>21.0</ns3:atemp>
          </ns3:TrackPointExtension>
        </extensions>
      </trkpt>
      <trkpt lat="42.51519511453807353973388671875" lon="19.7689722664654254913330078125">
        <ele>1827</ele>
        <time>2026-06-18T10:58:16.000Z</time>
        <extensions>
          <ns3:TrackPointExtension>
            <ns3:atemp>21.0</ns3:atemp>
          </ns3:TrackPointExtension>
        </extensions>
      </trkpt>
      <trkpt lat="42.51519511453807353973388671875" lon="19.7689722664654254913330078125">
        <ele>1827</ele>
        <time>2026-06-18T10:58:17.000Z</time>
        <extensions>
          <ns3:TrackPointExtension>
            <ns3:atemp>21.0</ns3:atemp>
          </ns3:TrackPointExtension>
        </extensions>
      </trkpt>
      <trkpt lat="42.51519511453807353973388671875" lon="19.7689722664654254913330078125">
        <ele>1827</ele>
        <time>2026-06-18T10:58:18.000Z</time>
        <extensions>
          <ns3:TrackPointExtension>
            <ns3:atemp>21.0</ns3:atemp>
          </ns3:TrackPointExtension>
        </extensions>
      </trkpt>
      <trkpt lat="42.51519511453807353973388671875" lon="19.7689722664654254913330078125">
        <ele>1827</ele>
        <time>2026-06-18T10:58:19.000Z</time>
        <extensions>
          <ns3:TrackPointExtension>
            <ns3:atemp>21.0</ns3:atemp>
          </ns3:TrackPointExtension>
        </extensions>
      </trkpt>
      <trkpt lat="42.51519511453807353973388671875" lon="19.7689722664654254913330078125">
        <ele>1827</ele>
        <time>2026-06-18T10:58:20.000Z</time>
        <extensions>
          <ns3:TrackPointExtension>
            <ns3:atemp>21.0</ns3:atemp>
          </ns3:TrackPointExtension>
        </extensions>
      </trkpt>
      <trkpt lat="42.51519511453807353973388671875" lon="19.7689722664654254913330078125">
        <ele>1827</ele>
        <time>2026-06-18T10:58:21.000Z</time>
        <extensions>
          <ns3:TrackPointExtension>
            <ns3:atemp>21.0</ns3:atemp>
          </ns3:TrackPointExtension>
        </extensions>
      </trkpt>
      <trkpt lat="42.51519511453807353973388671875" lon="19.7689722664654254913330078125">
        <ele>1827</ele>
        <time>2026-06-18T10:58:22.000Z</time>
        <extensions>
          <ns3:TrackPointExtension>
            <ns3:atemp>21.0</ns3:atemp>
          </ns3:TrackPointExtension>
        </extensions>
      </trkpt>
      <trkpt lat="42.51519511453807353973388671875" lon="19.7689722664654254913330078125">
        <ele>1827</ele>
        <time>2026-06-18T10:58:23.000Z</time>
        <extensions>
          <ns3:TrackPointExtension>
            <ns3:atemp>21.0</ns3:atemp>
          </ns3:TrackPointExtension>
        </extensions>
      </trkpt>
      <trkpt lat="42.51519511453807353973388671875" lon="19.7689722664654254913330078125">
        <ele>1827</ele>
        <time>2026-06-18T10:58:24.000Z</time>
        <extensions>
          <ns3:TrackPointExtension>
            <ns3:atemp>21.0</ns3:atemp>
          </ns3:TrackPointExtension>
        </extensions>
      </trkpt>
      <trkpt lat="42.51519511453807353973388671875" lon="19.7689722664654254913330078125">
        <ele>1827</ele>
        <time>2026-06-18T10:58:25.000Z</time>
        <extensions>
          <ns3:TrackPointExtension>
            <ns3:atemp>21.0</ns3:atemp>
          </ns3:TrackPointExtension>
        </extensions>
      </trkpt>
      <trkpt lat="42.51519511453807353973388671875" lon="19.7689722664654254913330078125">
        <ele>1827</ele>
        <time>2026-06-18T10:58:26.000Z</time>
        <extensions>
          <ns3:TrackPointExtension>
            <ns3:atemp>21.0</ns3:atemp>
          </ns3:TrackPointExtension>
        </extensions>
      </trkpt>
      <trkpt lat="42.51519511453807353973388671875" lon="19.7689722664654254913330078125">
        <ele>1827</ele>
        <time>2026-06-18T10:58:27.000Z</time>
        <extensions>
          <ns3:TrackPointExtension>
            <ns3:atemp>21.0</ns3:atemp>
          </ns3:TrackPointExtension>
        </extensions>
      </trkpt>
      <trkpt lat="42.51519511453807353973388671875" lon="19.7689722664654254913330078125">
        <ele>1827</ele>
        <time>2026-06-18T10:58:28.000Z</time>
        <extensions>
          <ns3:TrackPointExtension>
            <ns3:atemp>21.0</ns3:atemp>
          </ns3:TrackPointExtension>
        </extensions>
      </trkpt>
      <trkpt lat="42.51519511453807353973388671875" lon="19.7689722664654254913330078125">
        <ele>1827</ele>
        <time>2026-06-18T10:58:29.000Z</time>
        <extensions>
          <ns3:TrackPointExtension>
            <ns3:atemp>21.0</ns3:atemp>
          </ns3:TrackPointExtension>
        </extensions>
      </trkpt>
      <trkpt lat="42.51519511453807353973388671875" lon="19.7689722664654254913330078125">
        <ele>1827</ele>
        <time>2026-06-18T10:58:30.000Z</time>
        <extensions>
          <ns3:TrackPointExtension>
            <ns3:atemp>21.0</ns3:atemp>
          </ns3:TrackPointExtension>
        </extensions>
      </trkpt>
      <trkpt lat="42.51519511453807353973388671875" lon="19.7689722664654254913330078125">
        <ele>1827</ele>
        <time>2026-06-18T10:58:31.000Z</time>
        <extensions>
          <ns3:TrackPointExtension>
            <ns3:atemp>21.0</ns3:atemp>
          </ns3:TrackPointExtension>
        </extensions>
      </trkpt>
      <trkpt lat="42.51519511453807353973388671875" lon="19.7689722664654254913330078125">
        <ele>1827</ele>
        <time>2026-06-18T10:58:32.000Z</time>
        <extensions>
          <ns3:TrackPointExtension>
            <ns3:atemp>21.0</ns3:atemp>
          </ns3:TrackPointExtension>
        </extensions>
      </trkpt>
      <trkpt lat="42.51519511453807353973388671875" lon="19.7689722664654254913330078125">
        <ele>1827</ele>
        <time>2026-06-18T10:58:33.000Z</time>
        <extensions>
          <ns3:TrackPointExtension>
            <ns3:atemp>21.0</ns3:atemp>
          </ns3:TrackPointExtension>
        </extensions>
      </trkpt>
      <trkpt lat="42.51519511453807353973388671875" lon="19.7689722664654254913330078125">
        <ele>1827</ele>
        <time>2026-06-18T10:58:34.000Z</time>
        <extensions>
          <ns3:TrackPointExtension>
            <ns3:atemp>22.0</ns3:atemp>
          </ns3:TrackPointExtension>
        </extensions>
      </trkpt>
      <trkpt lat="42.51519511453807353973388671875" lon="19.7689722664654254913330078125">
        <ele>1827</ele>
        <time>2026-06-18T10:58:35.000Z</time>
        <extensions>
          <ns3:TrackPointExtension>
            <ns3:atemp>22.0</ns3:atemp>
          </ns3:TrackPointExtension>
        </extensions>
      </trkpt>
      <trkpt lat="42.51519511453807353973388671875" lon="19.7689722664654254913330078125">
        <ele>1827</ele>
        <time>2026-06-18T10:58:36.000Z</time>
        <extensions>
          <ns3:TrackPointExtension>
            <ns3:atemp>21.0</ns3:atemp>
          </ns3:TrackPointExtension>
        </extensions>
      </trkpt>
      <trkpt lat="42.51519511453807353973388671875" lon="19.7689722664654254913330078125">
        <ele>1827</ele>
        <time>2026-06-18T10:58:37.000Z</time>
        <extensions>
          <ns3:TrackPointExtension>
            <ns3:atemp>22.0</ns3:atemp>
          </ns3:TrackPointExtension>
        </extensions>
      </trkpt>
      <trkpt lat="42.51519511453807353973388671875" lon="19.7689722664654254913330078125">
        <ele>1827</ele>
        <time>2026-06-18T10:58:38.000Z</time>
        <extensions>
          <ns3:TrackPointExtension>
            <ns3:atemp>22.0</ns3:atemp>
          </ns3:TrackPointExtension>
        </extensions>
      </trkpt>
      <trkpt lat="42.51519511453807353973388671875" lon="19.7689722664654254913330078125">
        <ele>1827</ele>
        <time>2026-06-18T10:58:39.000Z</time>
        <extensions>
          <ns3:TrackPointExtension>
            <ns3:atemp>22.0</ns3:atemp>
          </ns3:TrackPointExtension>
        </extensions>
      </trkpt>
      <trkpt lat="42.51519511453807353973388671875" lon="19.7689722664654254913330078125">
        <ele>1827</ele>
        <time>2026-06-18T10:58:40.000Z</time>
        <extensions>
          <ns3:TrackPointExtension>
            <ns3:atemp>22.0</ns3:atemp>
          </ns3:TrackPointExtension>
        </extensions>
      </trkpt>
      <trkpt lat="42.51519511453807353973388671875" lon="19.7689722664654254913330078125">
        <ele>1827</ele>
        <time>2026-06-18T10:58:41.000Z</time>
        <extensions>
          <ns3:TrackPointExtension>
            <ns3:atemp>22.0</ns3:atemp>
          </ns3:TrackPointExtension>
        </extensions>
      </trkpt>
      <trkpt lat="42.51519511453807353973388671875" lon="19.7689722664654254913330078125">
        <ele>1827</ele>
        <time>2026-06-18T10:58:42.000Z</time>
        <extensions>
          <ns3:TrackPointExtension>
            <ns3:atemp>22.0</ns3:atemp>
          </ns3:TrackPointExtension>
        </extensions>
      </trkpt>
      <trkpt lat="42.51519511453807353973388671875" lon="19.7689722664654254913330078125">
        <ele>1827</ele>
        <time>2026-06-18T10:58:43.000Z</time>
        <extensions>
          <ns3:TrackPointExtension>
            <ns3:atemp>22.0</ns3:atemp>
          </ns3:TrackPointExtension>
        </extensions>
      </trkpt>
      <trkpt lat="42.51519511453807353973388671875" lon="19.7689722664654254913330078125">
        <ele>1827</ele>
        <time>2026-06-18T10:58:44.000Z</time>
        <extensions>
          <ns3:TrackPointExtension>
            <ns3:atemp>22.0</ns3:atemp>
          </ns3:TrackPointExtension>
        </extensions>
      </trkpt>
      <trkpt lat="42.51519511453807353973388671875" lon="19.7689722664654254913330078125">
        <ele>1827</ele>
        <time>2026-06-18T10:58:45.000Z</time>
        <extensions>
          <ns3:TrackPointExtension>
            <ns3:atemp>22.0</ns3:atemp>
          </ns3:TrackPointExtension>
        </extensions>
      </trkpt>
      <trkpt lat="42.51519511453807353973388671875" lon="19.7689722664654254913330078125">
        <ele>1827</ele>
        <time>2026-06-18T10:58:46.000Z</time>
        <extensions>
          <ns3:TrackPointExtension>
            <ns3:atemp>22.0</ns3:atemp>
          </ns3:TrackPointExtension>
        </extensions>
      </trkpt>
      <trkpt lat="42.51519511453807353973388671875" lon="19.7689722664654254913330078125">
        <ele>1827</ele>
        <time>2026-06-18T10:58:47.000Z</time>
        <extensions>
          <ns3:TrackPointExtension>
            <ns3:atemp>22.0</ns3:atemp>
          </ns3:TrackPointExtension>
        </extensions>
      </trkpt>
      <trkpt lat="42.51519511453807353973388671875" lon="19.7689722664654254913330078125">
        <ele>1827</ele>
        <time>2026-06-18T10:58:48.000Z</time>
        <extensions>
          <ns3:TrackPointExtension>
            <ns3:atemp>22.0</ns3:atemp>
          </ns3:TrackPointExtension>
        </extensions>
      </trkpt>
      <trkpt lat="42.51519511453807353973388671875" lon="19.7689722664654254913330078125">
        <ele>1827</ele>
        <time>2026-06-18T10:58:49.000Z</time>
        <extensions>
          <ns3:TrackPointExtension>
            <ns3:atemp>22.0</ns3:atemp>
          </ns3:TrackPointExtension>
        </extensions>
      </trkpt>
      <trkpt lat="42.51519511453807353973388671875" lon="19.7689722664654254913330078125">
        <ele>1827</ele>
        <time>2026-06-18T10:58:50.000Z</time>
        <extensions>
          <ns3:TrackPointExtension>
            <ns3:atemp>22.0</ns3:atemp>
          </ns3:TrackPointExtension>
        </extensions>
      </trkpt>
      <trkpt lat="42.51519511453807353973388671875" lon="19.7689722664654254913330078125">
        <ele>1827</ele>
        <time>2026-06-18T10:58:51.000Z</time>
        <extensions>
          <ns3:TrackPointExtension>
            <ns3:atemp>22.0</ns3:atemp>
          </ns3:TrackPointExtension>
        </extensions>
      </trkpt>
      <trkpt lat="42.51519511453807353973388671875" lon="19.7689722664654254913330078125">
        <ele>1827</ele>
        <time>2026-06-18T10:58:52.000Z</time>
        <extensions>
          <ns3:TrackPointExtension>
            <ns3:atemp>22.0</ns3:atemp>
          </ns3:TrackPointExtension>
        </extensions>
      </trkpt>
      <trkpt lat="42.51519511453807353973388671875" lon="19.7689722664654254913330078125">
        <ele>1827</ele>
        <time>2026-06-18T10:58:53.000Z</time>
        <extensions>
          <ns3:TrackPointExtension>
            <ns3:atemp>22.0</ns3:atemp>
          </ns3:TrackPointExtension>
        </extensions>
      </trkpt>
      <trkpt lat="42.51519511453807353973388671875" lon="19.7689722664654254913330078125">
        <ele>1827</ele>
        <time>2026-06-18T10:58:54.000Z</time>
        <extensions>
          <ns3:TrackPointExtension>
            <ns3:atemp>22.0</ns3:atemp>
          </ns3:TrackPointExtension>
        </extensions>
      </trkpt>
      <trkpt lat="42.51519511453807353973388671875" lon="19.7689722664654254913330078125">
        <ele>1827</ele>
        <time>2026-06-18T10:58:55.000Z</time>
        <extensions>
          <ns3:TrackPointExtension>
            <ns3:atemp>22.0</ns3:atemp>
          </ns3:TrackPointExtension>
        </extensions>
      </trkpt>
      <trkpt lat="42.51519511453807353973388671875" lon="19.7689722664654254913330078125">
        <ele>1827</ele>
        <time>2026-06-18T10:58:56.000Z</time>
        <extensions>
          <ns3:TrackPointExtension>
            <ns3:atemp>22.0</ns3:atemp>
          </ns3:TrackPointExtension>
        </extensions>
      </trkpt>
      <trkpt lat="42.51519511453807353973388671875" lon="19.7689722664654254913330078125">
        <ele>1827</ele>
        <time>2026-06-18T10:58:57.000Z</time>
        <extensions>
          <ns3:TrackPointExtension>
            <ns3:atemp>22.0</ns3:atemp>
          </ns3:TrackPointExtension>
        </extensions>
      </trkpt>
      <trkpt lat="42.51519511453807353973388671875" lon="19.7689722664654254913330078125">
        <ele>1827</ele>
        <time>2026-06-18T10:58:58.000Z</time>
        <extensions>
          <ns3:TrackPointExtension>
            <ns3:atemp>22.0</ns3:atemp>
          </ns3:TrackPointExtension>
        </extensions>
      </trkpt>
      <trkpt lat="42.51519511453807353973388671875" lon="19.7689722664654254913330078125">
        <ele>1827</ele>
        <time>2026-06-18T10:58:59.000Z</time>
        <extensions>
          <ns3:TrackPointExtension>
            <ns3:atemp>22.0</ns3:atemp>
          </ns3:TrackPointExtension>
        </extensions>
      </trkpt>
      <trkpt lat="42.51519511453807353973388671875" lon="19.7689722664654254913330078125">
        <ele>1827</ele>
        <time>2026-06-18T10:59:00.000Z</time>
        <extensions>
          <ns3:TrackPointExtension>
            <ns3:atemp>22.0</ns3:atemp>
          </ns3:TrackPointExtension>
        </extensions>
      </trkpt>
      <trkpt lat="42.51519511453807353973388671875" lon="19.7689722664654254913330078125">
        <ele>1827</ele>
        <time>2026-06-18T10:59:01.000Z</time>
        <extensions>
          <ns3:TrackPointExtension>
            <ns3:atemp>22.0</ns3:atemp>
          </ns3:TrackPointExtension>
        </extensions>
      </trkpt>
      <trkpt lat="42.51519511453807353973388671875" lon="19.7689722664654254913330078125">
        <ele>1827</ele>
        <time>2026-06-18T10:59:02.000Z</time>
        <extensions>
          <ns3:TrackPointExtension>
            <ns3:atemp>22.0</ns3:atemp>
          </ns3:TrackPointExtension>
        </extensions>
      </trkpt>
      <trkpt lat="42.51519511453807353973388671875" lon="19.7689722664654254913330078125">
        <ele>1827</ele>
        <time>2026-06-18T10:59:03.000Z</time>
        <extensions>
          <ns3:TrackPointExtension>
            <ns3:atemp>22.0</ns3:atemp>
          </ns3:TrackPointExtension>
        </extensions>
      </trkpt>
      <trkpt lat="42.51519511453807353973388671875" lon="19.7689722664654254913330078125">
        <ele>1827</ele>
        <time>2026-06-18T10:59:04.000Z</time>
        <extensions>
          <ns3:TrackPointExtension>
            <ns3:atemp>22.0</ns3:atemp>
          </ns3:TrackPointExtension>
        </extensions>
      </trkpt>
      <trkpt lat="42.51519511453807353973388671875" lon="19.7689722664654254913330078125">
        <ele>1827</ele>
        <time>2026-06-18T10:59:05.000Z</time>
        <extensions>
          <ns3:TrackPointExtension>
            <ns3:atemp>22.0</ns3:atemp>
          </ns3:TrackPointExtension>
        </extensions>
      </trkpt>
      <trkpt lat="42.51519511453807353973388671875" lon="19.7689722664654254913330078125">
        <ele>1827</ele>
        <time>2026-06-18T10:59:06.000Z</time>
        <extensions>
          <ns3:TrackPointExtension>
            <ns3:atemp>22.0</ns3:atemp>
          </ns3:TrackPointExtension>
        </extensions>
      </trkpt>
      <trkpt lat="42.51519511453807353973388671875" lon="19.7689722664654254913330078125">
        <ele>1827</ele>
        <time>2026-06-18T10:59:07.000Z</time>
        <extensions>
          <ns3:TrackPointExtension>
            <ns3:atemp>22.0</ns3:atemp>
          </ns3:TrackPointExtension>
        </extensions>
      </trkpt>
      <trkpt lat="42.51519511453807353973388671875" lon="19.7689722664654254913330078125">
        <ele>1827</ele>
        <time>2026-06-18T10:59:08.000Z</time>
        <extensions>
          <ns3:TrackPointExtension>
            <ns3:atemp>22.0</ns3:atemp>
          </ns3:TrackPointExtension>
        </extensions>
      </trkpt>
      <trkpt lat="42.51519511453807353973388671875" lon="19.7689722664654254913330078125">
        <ele>1827</ele>
        <time>2026-06-18T10:59:09.000Z</time>
        <extensions>
          <ns3:TrackPointExtension>
            <ns3:atemp>22.0</ns3:atemp>
          </ns3:TrackPointExtension>
        </extensions>
      </trkpt>
      <trkpt lat="42.51519511453807353973388671875" lon="19.7689722664654254913330078125">
        <ele>1827</ele>
        <time>2026-06-18T10:59:10.000Z</time>
        <extensions>
          <ns3:TrackPointExtension>
            <ns3:atemp>22.0</ns3:atemp>
          </ns3:TrackPointExtension>
        </extensions>
      </trkpt>
      <trkpt lat="42.51519511453807353973388671875" lon="19.7689722664654254913330078125">
        <ele>1827</ele>
        <time>2026-06-18T10:59:11.000Z</time>
        <extensions>
          <ns3:TrackPointExtension>
            <ns3:atemp>22.0</ns3:atemp>
          </ns3:TrackPointExtension>
        </extensions>
      </trkpt>
      <trkpt lat="42.51519511453807353973388671875" lon="19.7689722664654254913330078125">
        <ele>1827</ele>
        <time>2026-06-18T10:59:12.000Z</time>
        <extensions>
          <ns3:TrackPointExtension>
            <ns3:atemp>22.0</ns3:atemp>
          </ns3:TrackPointExtension>
        </extensions>
      </trkpt>
      <trkpt lat="42.51519511453807353973388671875" lon="19.7689722664654254913330078125">
        <ele>1827</ele>
        <time>2026-06-18T10:59:13.000Z</time>
        <extensions>
          <ns3:TrackPointExtension>
            <ns3:atemp>22.0</ns3:atemp>
          </ns3:TrackPointExtension>
        </extensions>
      </trkpt>
      <trkpt lat="42.51519511453807353973388671875" lon="19.7689722664654254913330078125">
        <ele>1827</ele>
        <time>2026-06-18T10:59:14.000Z</time>
        <extensions>
          <ns3:TrackPointExtension>
            <ns3:atemp>22.0</ns3:atemp>
          </ns3:TrackPointExtension>
        </extensions>
      </trkpt>
      <trkpt lat="42.51519511453807353973388671875" lon="19.7689722664654254913330078125">
        <ele>1827</ele>
        <time>2026-06-18T10:59:15.000Z</time>
        <extensions>
          <ns3:TrackPointExtension>
            <ns3:atemp>22.0</ns3:atemp>
          </ns3:TrackPointExtension>
        </extensions>
      </trkpt>
      <trkpt lat="42.51519511453807353973388671875" lon="19.7689722664654254913330078125">
        <ele>1827</ele>
        <time>2026-06-18T10:59:16.000Z</time>
        <extensions>
          <ns3:TrackPointExtension>
            <ns3:atemp>22.0</ns3:atemp>
          </ns3:TrackPointExtension>
        </extensions>
      </trkpt>
      <trkpt lat="42.51519511453807353973388671875" lon="19.7689722664654254913330078125">
        <ele>1827</ele>
        <time>2026-06-18T10:59:17.000Z</time>
        <extensions>
          <ns3:TrackPointExtension>
            <ns3:atemp>22.0</ns3:atemp>
          </ns3:TrackPointExtension>
        </extensions>
      </trkpt>
      <trkpt lat="42.51519511453807353973388671875" lon="19.7689722664654254913330078125">
        <ele>1827</ele>
        <time>2026-06-18T10:59:18.000Z</time>
        <extensions>
          <ns3:TrackPointExtension>
            <ns3:atemp>22.0</ns3:atemp>
          </ns3:TrackPointExtension>
        </extensions>
      </trkpt>
      <trkpt lat="42.51519511453807353973388671875" lon="19.7689722664654254913330078125">
        <ele>1827</ele>
        <time>2026-06-18T10:59:19.000Z</time>
        <extensions>
          <ns3:TrackPointExtension>
            <ns3:atemp>22.0</ns3:atemp>
          </ns3:TrackPointExtension>
        </extensions>
      </trkpt>
      <trkpt lat="42.51519511453807353973388671875" lon="19.7689722664654254913330078125">
        <ele>1827</ele>
        <time>2026-06-18T10:59:20.000Z</time>
        <extensions>
          <ns3:TrackPointExtension>
            <ns3:atemp>22.0</ns3:atemp>
          </ns3:TrackPointExtension>
        </extensions>
      </trkpt>
      <trkpt lat="42.51519511453807353973388671875" lon="19.7689722664654254913330078125">
        <ele>1827</ele>
        <time>2026-06-18T10:59:21.000Z</time>
        <extensions>
          <ns3:TrackPointExtension>
            <ns3:atemp>22.0</ns3:atemp>
          </ns3:TrackPointExtension>
        </extensions>
      </trkpt>
      <trkpt lat="42.51519511453807353973388671875" lon="19.7689722664654254913330078125">
        <ele>1827</ele>
        <time>2026-06-18T10:59:22.000Z</time>
        <extensions>
          <ns3:TrackPointExtension>
            <ns3:atemp>22.0</ns3:atemp>
          </ns3:TrackPointExtension>
        </extensions>
      </trkpt>
      <trkpt lat="42.51519511453807353973388671875" lon="19.7689722664654254913330078125">
        <ele>1827</ele>
        <time>2026-06-18T10:59:23.000Z</time>
        <extensions>
          <ns3:TrackPointExtension>
            <ns3:atemp>22.0</ns3:atemp>
          </ns3:TrackPointExtension>
        </extensions>
      </trkpt>
      <trkpt lat="42.51519511453807353973388671875" lon="19.7689722664654254913330078125">
        <ele>1827</ele>
        <time>2026-06-18T10:59:24.000Z</time>
        <extensions>
          <ns3:TrackPointExtension>
            <ns3:atemp>22.0</ns3:atemp>
          </ns3:TrackPointExtension>
        </extensions>
      </trkpt>
      <trkpt lat="42.51519511453807353973388671875" lon="19.7689722664654254913330078125">
        <ele>1827</ele>
        <time>2026-06-18T10:59:25.000Z</time>
        <extensions>
          <ns3:TrackPointExtension>
            <ns3:atemp>22.0</ns3:atemp>
          </ns3:TrackPointExtension>
        </extensions>
      </trkpt>
      <trkpt lat="42.51519511453807353973388671875" lon="19.7689722664654254913330078125">
        <ele>1827</ele>
        <time>2026-06-18T10:59:26.000Z</time>
        <extensions>
          <ns3:TrackPointExtension>
            <ns3:atemp>22.0</ns3:atemp>
          </ns3:TrackPointExtension>
        </extensions>
      </trkpt>
      <trkpt lat="42.51519511453807353973388671875" lon="19.7689722664654254913330078125">
        <ele>1827</ele>
        <time>2026-06-18T10:59:27.000Z</time>
        <extensions>
          <ns3:TrackPointExtension>
            <ns3:atemp>22.0</ns3:atemp>
          </ns3:TrackPointExtension>
        </extensions>
      </trkpt>
      <trkpt lat="42.51519511453807353973388671875" lon="19.7689722664654254913330078125">
        <ele>1827</ele>
        <time>2026-06-18T10:59:28.000Z</time>
        <extensions>
          <ns3:TrackPointExtension>
            <ns3:atemp>22.0</ns3:atemp>
          </ns3:TrackPointExtension>
        </extensions>
      </trkpt>
      <trkpt lat="42.51519511453807353973388671875" lon="19.7689722664654254913330078125">
        <ele>1827</ele>
        <time>2026-06-18T10:59:29.000Z</time>
        <extensions>
          <ns3:TrackPointExtension>
            <ns3:atemp>22.0</ns3:atemp>
          </ns3:TrackPointExtension>
        </extensions>
      </trkpt>
      <trkpt lat="42.51519511453807353973388671875" lon="19.7689722664654254913330078125">
        <ele>1827</ele>
        <time>2026-06-18T10:59:30.000Z</time>
        <extensions>
          <ns3:TrackPointExtension>
            <ns3:atemp>22.0</ns3:atemp>
          </ns3:TrackPointExtension>
        </extensions>
      </trkpt>
      <trkpt lat="42.51519511453807353973388671875" lon="19.7689722664654254913330078125">
        <ele>1827</ele>
        <time>2026-06-18T10:59:31.000Z</time>
        <extensions>
          <ns3:TrackPointExtension>
            <ns3:atemp>22.0</ns3:atemp>
          </ns3:TrackPointExtension>
        </extensions>
      </trkpt>
      <trkpt lat="42.51519511453807353973388671875" lon="19.7689722664654254913330078125">
        <ele>1827</ele>
        <time>2026-06-18T10:59:32.000Z</time>
        <extensions>
          <ns3:TrackPointExtension>
            <ns3:atemp>22.0</ns3:atemp>
          </ns3:TrackPointExtension>
        </extensions>
      </trkpt>
      <trkpt lat="42.51519511453807353973388671875" lon="19.7689722664654254913330078125">
        <ele>1827</ele>
        <time>2026-06-18T10:59:33.000Z</time>
        <extensions>
          <ns3:TrackPointExtension>
            <ns3:atemp>22.0</ns3:atemp>
          </ns3:TrackPointExtension>
        </extensions>
      </trkpt>
      <trkpt lat="42.51519511453807353973388671875" lon="19.7689722664654254913330078125">
        <ele>1827</ele>
        <time>2026-06-18T10:59:34.000Z</time>
        <extensions>
          <ns3:TrackPointExtension>
            <ns3:atemp>22.0</ns3:atemp>
          </ns3:TrackPointExtension>
        </extensions>
      </trkpt>
      <trkpt lat="42.51519511453807353973388671875" lon="19.7689722664654254913330078125">
        <ele>1827</ele>
        <time>2026-06-18T10:59:35.000Z</time>
        <extensions>
          <ns3:TrackPointExtension>
            <ns3:atemp>22.0</ns3:atemp>
          </ns3:TrackPointExtension>
        </extensions>
      </trkpt>
      <trkpt lat="42.51519511453807353973388671875" lon="19.7689722664654254913330078125">
        <ele>1827</ele>
        <time>2026-06-18T10:59:36.000Z</time>
        <extensions>
          <ns3:TrackPointExtension>
            <ns3:atemp>22.0</ns3:atemp>
          </ns3:TrackPointExtension>
        </extensions>
      </trkpt>
      <trkpt lat="42.51519511453807353973388671875" lon="19.7689722664654254913330078125">
        <ele>1827</ele>
        <time>2026-06-18T10:59:37.000Z</time>
        <extensions>
          <ns3:TrackPointExtension>
            <ns3:atemp>22.0</ns3:atemp>
          </ns3:TrackPointExtension>
        </extensions>
      </trkpt>
      <trkpt lat="42.51519511453807353973388671875" lon="19.7689722664654254913330078125">
        <ele>1827</ele>
        <time>2026-06-18T10:59:38.000Z</time>
        <extensions>
          <ns3:TrackPointExtension>
            <ns3:atemp>22.0</ns3:atemp>
          </ns3:TrackPointExtension>
        </extensions>
      </trkpt>
      <trkpt lat="42.51519511453807353973388671875" lon="19.7689722664654254913330078125">
        <ele>1827</ele>
        <time>2026-06-18T10:59:39.000Z</time>
        <extensions>
          <ns3:TrackPointExtension>
            <ns3:atemp>22.0</ns3:atemp>
          </ns3:TrackPointExtension>
        </extensions>
      </trkpt>
      <trkpt lat="42.51519511453807353973388671875" lon="19.7689722664654254913330078125">
        <ele>1827</ele>
        <time>2026-06-18T10:59:40.000Z</time>
        <extensions>
          <ns3:TrackPointExtension>
            <ns3:atemp>22.0</ns3:atemp>
          </ns3:TrackPointExtension>
        </extensions>
      </trkpt>
      <trkpt lat="42.51519511453807353973388671875" lon="19.7689722664654254913330078125">
        <ele>1827</ele>
        <time>2026-06-18T10:59:41.000Z</time>
        <extensions>
          <ns3:TrackPointExtension>
            <ns3:atemp>22.0</ns3:atemp>
          </ns3:TrackPointExtension>
        </extensions>
      </trkpt>
      <trkpt lat="42.51519511453807353973388671875" lon="19.7689722664654254913330078125">
        <ele>1827</ele>
        <time>2026-06-18T10:59:42.000Z</time>
        <extensions>
          <ns3:TrackPointExtension>
            <ns3:atemp>22.0</ns3:atemp>
          </ns3:TrackPointExtension>
        </extensions>
      </trkpt>
      <trkpt lat="42.51519511453807353973388671875" lon="19.7689722664654254913330078125">
        <ele>1827</ele>
        <time>2026-06-18T10:59:43.000Z</time>
        <extensions>
          <ns3:TrackPointExtension>
            <ns3:atemp>22.0</ns3:atemp>
          </ns3:TrackPointExtension>
        </extensions>
      </trkpt>
      <trkpt lat="42.51519511453807353973388671875" lon="19.7689722664654254913330078125">
        <ele>1827</ele>
        <time>2026-06-18T10:59:44.000Z</time>
        <extensions>
          <ns3:TrackPointExtension>
            <ns3:atemp>22.0</ns3:atemp>
          </ns3:TrackPointExtension>
        </extensions>
      </trkpt>
      <trkpt lat="42.51519511453807353973388671875" lon="19.7689722664654254913330078125">
        <ele>1827</ele>
        <time>2026-06-18T10:59:45.000Z</time>
        <extensions>
          <ns3:TrackPointExtension>
            <ns3:atemp>22.0</ns3:atemp>
          </ns3:TrackPointExtension>
        </extensions>
      </trkpt>
      <trkpt lat="42.51519511453807353973388671875" lon="19.7689722664654254913330078125">
        <ele>1827</ele>
        <time>2026-06-18T10:59:46.000Z</time>
        <extensions>
          <ns3:TrackPointExtension>
            <ns3:atemp>22.0</ns3:atemp>
          </ns3:TrackPointExtension>
        </extensions>
      </trkpt>
      <trkpt lat="42.51519511453807353973388671875" lon="19.7689722664654254913330078125">
        <ele>1827</ele>
        <time>2026-06-18T10:59:47.000Z</time>
        <extensions>
          <ns3:TrackPointExtension>
            <ns3:atemp>22.0</ns3:atemp>
          </ns3:TrackPointExtension>
        </extensions>
      </trkpt>
      <trkpt lat="42.51519511453807353973388671875" lon="19.7689722664654254913330078125">
        <ele>1827</ele>
        <time>2026-06-18T10:59:48.000Z</time>
        <extensions>
          <ns3:TrackPointExtension>
            <ns3:atemp>22.0</ns3:atemp>
          </ns3:TrackPointExtension>
        </extensions>
      </trkpt>
      <trkpt lat="42.51519511453807353973388671875" lon="19.7689722664654254913330078125">
        <ele>1827</ele>
        <time>2026-06-18T10:59:49.000Z</time>
        <extensions>
          <ns3:TrackPointExtension>
            <ns3:atemp>22.0</ns3:atemp>
          </ns3:TrackPointExtension>
        </extensions>
      </trkpt>
      <trkpt lat="42.51519511453807353973388671875" lon="19.7689722664654254913330078125">
        <ele>1827</ele>
        <time>2026-06-18T10:59:50.000Z</time>
        <extensions>
          <ns3:TrackPointExtension>
            <ns3:atemp>22.0</ns3:atemp>
          </ns3:TrackPointExtension>
        </extensions>
      </trkpt>
      <trkpt lat="42.51519511453807353973388671875" lon="19.7689722664654254913330078125">
        <ele>1827</ele>
        <time>2026-06-18T10:59:51.000Z</time>
        <extensions>
          <ns3:TrackPointExtension>
            <ns3:atemp>22.0</ns3:atemp>
          </ns3:TrackPointExtension>
        </extensions>
      </trkpt>
      <trkpt lat="42.51519511453807353973388671875" lon="19.7689722664654254913330078125">
        <ele>1827</ele>
        <time>2026-06-18T10:59:52.000Z</time>
        <extensions>
          <ns3:TrackPointExtension>
            <ns3:atemp>22.0</ns3:atemp>
          </ns3:TrackPointExtension>
        </extensions>
      </trkpt>
      <trkpt lat="42.51519511453807353973388671875" lon="19.7689722664654254913330078125">
        <ele>1827</ele>
        <time>2026-06-18T10:59:53.000Z</time>
        <extensions>
          <ns3:TrackPointExtension>
            <ns3:atemp>22.0</ns3:atemp>
          </ns3:TrackPointExtension>
        </extensions>
      </trkpt>
      <trkpt lat="42.51519511453807353973388671875" lon="19.7689722664654254913330078125">
        <ele>1827</ele>
        <time>2026-06-18T10:59:54.000Z</time>
        <extensions>
          <ns3:TrackPointExtension>
            <ns3:atemp>22.0</ns3:atemp>
          </ns3:TrackPointExtension>
        </extensions>
      </trkpt>
      <trkpt lat="42.51519511453807353973388671875" lon="19.7689722664654254913330078125">
        <ele>1827</ele>
        <time>2026-06-18T10:59:55.000Z</time>
        <extensions>
          <ns3:TrackPointExtension>
            <ns3:atemp>22.0</ns3:atemp>
          </ns3:TrackPointExtension>
        </extensions>
      </trkpt>
      <trkpt lat="42.51519511453807353973388671875" lon="19.7689722664654254913330078125">
        <ele>1827</ele>
        <time>2026-06-18T10:59:56.000Z</time>
        <extensions>
          <ns3:TrackPointExtension>
            <ns3:atemp>22.0</ns3:atemp>
          </ns3:TrackPointExtension>
        </extensions>
      </trkpt>
      <trkpt lat="42.51519511453807353973388671875" lon="19.7689722664654254913330078125">
        <ele>1827</ele>
        <time>2026-06-18T10:59:57.000Z</time>
        <extensions>
          <ns3:TrackPointExtension>
            <ns3:atemp>22.0</ns3:atemp>
          </ns3:TrackPointExtension>
        </extensions>
      </trkpt>
      <trkpt lat="42.51519511453807353973388671875" lon="19.7689722664654254913330078125">
        <ele>1827</ele>
        <time>2026-06-18T10:59:58.000Z</time>
        <extensions>
          <ns3:TrackPointExtension>
            <ns3:atemp>22.0</ns3:atemp>
          </ns3:TrackPointExtension>
        </extensions>
      </trkpt>
      <trkpt lat="42.51519511453807353973388671875" lon="19.7689722664654254913330078125">
        <ele>1827</ele>
        <time>2026-06-18T10:59:59.000Z</time>
        <extensions>
          <ns3:TrackPointExtension>
            <ns3:atemp>22.0</ns3:atemp>
          </ns3:TrackPointExtension>
        </extensions>
      </trkpt>
      <trkpt lat="42.51519511453807353973388671875" lon="19.7689722664654254913330078125">
        <ele>1827</ele>
        <time>2026-06-18T11:00:00.000Z</time>
        <extensions>
          <ns3:TrackPointExtension>
            <ns3:atemp>22.0</ns3:atemp>
          </ns3:TrackPointExtension>
        </extensions>
      </trkpt>
      <trkpt lat="42.51519511453807353973388671875" lon="19.7689722664654254913330078125">
        <ele>1827</ele>
        <time>2026-06-18T11:00:01.000Z</time>
        <extensions>
          <ns3:TrackPointExtension>
            <ns3:atemp>22.0</ns3:atemp>
          </ns3:TrackPointExtension>
        </extensions>
      </trkpt>
      <trkpt lat="42.51519511453807353973388671875" lon="19.7689722664654254913330078125">
        <ele>1827</ele>
        <time>2026-06-18T11:00:02.000Z</time>
        <extensions>
          <ns3:TrackPointExtension>
            <ns3:atemp>22.0</ns3:atemp>
          </ns3:TrackPointExtension>
        </extensions>
      </trkpt>
      <trkpt lat="42.51519511453807353973388671875" lon="19.7689722664654254913330078125">
        <ele>1827</ele>
        <time>2026-06-18T11:00:03.000Z</time>
        <extensions>
          <ns3:TrackPointExtension>
            <ns3:atemp>22.0</ns3:atemp>
          </ns3:TrackPointExtension>
        </extensions>
      </trkpt>
      <trkpt lat="42.51519511453807353973388671875" lon="19.7689722664654254913330078125">
        <ele>1827</ele>
        <time>2026-06-18T11:00:04.000Z</time>
        <extensions>
          <ns3:TrackPointExtension>
            <ns3:atemp>22.0</ns3:atemp>
          </ns3:TrackPointExtension>
        </extensions>
      </trkpt>
      <trkpt lat="42.51519511453807353973388671875" lon="19.7689722664654254913330078125">
        <ele>1827</ele>
        <time>2026-06-18T11:00:05.000Z</time>
        <extensions>
          <ns3:TrackPointExtension>
            <ns3:atemp>22.0</ns3:atemp>
          </ns3:TrackPointExtension>
        </extensions>
      </trkpt>
      <trkpt lat="42.51519511453807353973388671875" lon="19.7689722664654254913330078125">
        <ele>1827</ele>
        <time>2026-06-18T11:00:06.000Z</time>
        <extensions>
          <ns3:TrackPointExtension>
            <ns3:atemp>22.0</ns3:atemp>
          </ns3:TrackPointExtension>
        </extensions>
      </trkpt>
      <trkpt lat="42.51519511453807353973388671875" lon="19.7689722664654254913330078125">
        <ele>1827</ele>
        <time>2026-06-18T11:00:07.000Z</time>
        <extensions>
          <ns3:TrackPointExtension>
            <ns3:atemp>22.0</ns3:atemp>
          </ns3:TrackPointExtension>
        </extensions>
      </trkpt>
      <trkpt lat="42.51519511453807353973388671875" lon="19.7689722664654254913330078125">
        <ele>1827</ele>
        <time>2026-06-18T11:00:08.000Z</time>
        <extensions>
          <ns3:TrackPointExtension>
            <ns3:atemp>22.0</ns3:atemp>
          </ns3:TrackPointExtension>
        </extensions>
      </trkpt>
      <trkpt lat="42.51519511453807353973388671875" lon="19.7689722664654254913330078125">
        <ele>1827</ele>
        <time>2026-06-18T11:00:09.000Z</time>
        <extensions>
          <ns3:TrackPointExtension>
            <ns3:atemp>22.0</ns3:atemp>
          </ns3:TrackPointExtension>
        </extensions>
      </trkpt>
      <trkpt lat="42.51519511453807353973388671875" lon="19.7689722664654254913330078125">
        <ele>1827</ele>
        <time>2026-06-18T11:00:10.000Z</time>
        <extensions>
          <ns3:TrackPointExtension>
            <ns3:atemp>22.0</ns3:atemp>
          </ns3:TrackPointExtension>
        </extensions>
      </trkpt>
      <trkpt lat="42.51519511453807353973388671875" lon="19.7689722664654254913330078125">
        <ele>1827</ele>
        <time>2026-06-18T11:00:11.000Z</time>
        <extensions>
          <ns3:TrackPointExtension>
            <ns3:atemp>22.0</ns3:atemp>
          </ns3:TrackPointExtension>
        </extensions>
      </trkpt>
      <trkpt lat="42.51519511453807353973388671875" lon="19.7689722664654254913330078125">
        <ele>1827</ele>
        <time>2026-06-18T11:00:12.000Z</time>
        <extensions>
          <ns3:TrackPointExtension>
            <ns3:atemp>22.0</ns3:atemp>
          </ns3:TrackPointExtension>
        </extensions>
      </trkpt>
      <trkpt lat="42.51519511453807353973388671875" lon="19.7689722664654254913330078125">
        <ele>1827</ele>
        <time>2026-06-18T11:00:13.000Z</time>
        <extensions>
          <ns3:TrackPointExtension>
            <ns3:atemp>22.0</ns3:atemp>
          </ns3:TrackPointExtension>
        </extensions>
      </trkpt>
      <trkpt lat="42.51519511453807353973388671875" lon="19.7689722664654254913330078125">
        <ele>1827</ele>
        <time>2026-06-18T11:00:14.000Z</time>
        <extensions>
          <ns3:TrackPointExtension>
            <ns3:atemp>22.0</ns3:atemp>
          </ns3:TrackPointExtension>
        </extensions>
      </trkpt>
      <trkpt lat="42.51519511453807353973388671875" lon="19.7689722664654254913330078125">
        <ele>1827</ele>
        <time>2026-06-18T11:00:15.000Z</time>
        <extensions>
          <ns3:TrackPointExtension>
            <ns3:atemp>22.0</ns3:atemp>
          </ns3:TrackPointExtension>
        </extensions>
      </trkpt>
      <trkpt lat="42.51519511453807353973388671875" lon="19.7689722664654254913330078125">
        <ele>1827</ele>
        <time>2026-06-18T11:00:16.000Z</time>
        <extensions>
          <ns3:TrackPointExtension>
            <ns3:atemp>22.0</ns3:atemp>
          </ns3:TrackPointExtension>
        </extensions>
      </trkpt>
      <trkpt lat="42.51519511453807353973388671875" lon="19.7689722664654254913330078125">
        <ele>1827</ele>
        <time>2026-06-18T11:00:17.000Z</time>
        <extensions>
          <ns3:TrackPointExtension>
            <ns3:atemp>22.0</ns3:atemp>
          </ns3:TrackPointExtension>
        </extensions>
      </trkpt>
      <trkpt lat="42.51519511453807353973388671875" lon="19.7689722664654254913330078125">
        <ele>1827</ele>
        <time>2026-06-18T11:00:18.000Z</time>
        <extensions>
          <ns3:TrackPointExtension>
            <ns3:atemp>22.0</ns3:atemp>
          </ns3:TrackPointExtension>
        </extensions>
      </trkpt>
      <trkpt lat="42.51519511453807353973388671875" lon="19.7689722664654254913330078125">
        <ele>1827</ele>
        <time>2026-06-18T11:00:19.000Z</time>
        <extensions>
          <ns3:TrackPointExtension>
            <ns3:atemp>22.0</ns3:atemp>
          </ns3:TrackPointExtension>
        </extensions>
      </trkpt>
      <trkpt lat="42.51519511453807353973388671875" lon="19.7689722664654254913330078125">
        <ele>1827</ele>
        <time>2026-06-18T11:00:20.000Z</time>
        <extensions>
          <ns3:TrackPointExtension>
            <ns3:atemp>22.0</ns3:atemp>
          </ns3:TrackPointExtension>
        </extensions>
      </trkpt>
      <trkpt lat="42.51519511453807353973388671875" lon="19.7689722664654254913330078125">
        <ele>1827</ele>
        <time>2026-06-18T11:00:21.000Z</time>
        <extensions>
          <ns3:TrackPointExtension>
            <ns3:atemp>22.0</ns3:atemp>
          </ns3:TrackPointExtension>
        </extensions>
      </trkpt>
      <trkpt lat="42.51519511453807353973388671875" lon="19.7689722664654254913330078125">
        <ele>1827</ele>
        <time>2026-06-18T11:00:22.000Z</time>
        <extensions>
          <ns3:TrackPointExtension>
            <ns3:atemp>22.0</ns3:atemp>
          </ns3:TrackPointExtension>
        </extensions>
      </trkpt>
      <trkpt lat="42.51519511453807353973388671875" lon="19.7689722664654254913330078125">
        <ele>1827</ele>
        <time>2026-06-18T11:00:23.000Z</time>
        <extensions>
          <ns3:TrackPointExtension>
            <ns3:atemp>22.0</ns3:atemp>
          </ns3:TrackPointExtension>
        </extensions>
      </trkpt>
      <trkpt lat="42.51519511453807353973388671875" lon="19.7689722664654254913330078125">
        <ele>1827</ele>
        <time>2026-06-18T11:00:24.000Z</time>
        <extensions>
          <ns3:TrackPointExtension>
            <ns3:atemp>22.0</ns3:atemp>
          </ns3:TrackPointExtension>
        </extensions>
      </trkpt>
      <trkpt lat="42.51519511453807353973388671875" lon="19.7689722664654254913330078125">
        <ele>1827</ele>
        <time>2026-06-18T11:00:25.000Z</time>
        <extensions>
          <ns3:TrackPointExtension>
            <ns3:atemp>22.0</ns3:atemp>
          </ns3:TrackPointExtension>
        </extensions>
      </trkpt>
      <trkpt lat="42.51519511453807353973388671875" lon="19.7689722664654254913330078125">
        <ele>1827</ele>
        <time>2026-06-18T11:00:26.000Z</time>
        <extensions>
          <ns3:TrackPointExtension>
            <ns3:atemp>22.0</ns3:atemp>
          </ns3:TrackPointExtension>
        </extensions>
      </trkpt>
      <trkpt lat="42.51519511453807353973388671875" lon="19.7689722664654254913330078125">
        <ele>1827</ele>
        <time>2026-06-18T11:00:27.000Z</time>
        <extensions>
          <ns3:TrackPointExtension>
            <ns3:atemp>22.0</ns3:atemp>
          </ns3:TrackPointExtension>
        </extensions>
      </trkpt>
      <trkpt lat="42.51519511453807353973388671875" lon="19.7689722664654254913330078125">
        <ele>1827</ele>
        <time>2026-06-18T11:00:28.000Z</time>
        <extensions>
          <ns3:TrackPointExtension>
            <ns3:atemp>22.0</ns3:atemp>
          </ns3:TrackPointExtension>
        </extensions>
      </trkpt>
      <trkpt lat="42.51519511453807353973388671875" lon="19.7689722664654254913330078125">
        <ele>1827</ele>
        <time>2026-06-18T11:00:29.000Z</time>
        <extensions>
          <ns3:TrackPointExtension>
            <ns3:atemp>22.0</ns3:atemp>
          </ns3:TrackPointExtension>
        </extensions>
      </trkpt>
      <trkpt lat="42.51519511453807353973388671875" lon="19.7689722664654254913330078125">
        <ele>1827</ele>
        <time>2026-06-18T11:00:30.000Z</time>
        <extensions>
          <ns3:TrackPointExtension>
            <ns3:atemp>22.0</ns3:atemp>
          </ns3:TrackPointExtension>
        </extensions>
      </trkpt>
      <trkpt lat="42.51519511453807353973388671875" lon="19.7689722664654254913330078125">
        <ele>1827</ele>
        <time>2026-06-18T11:00:31.000Z</time>
        <extensions>
          <ns3:TrackPointExtension>
            <ns3:atemp>22.0</ns3:atemp>
          </ns3:TrackPointExtension>
        </extensions>
      </trkpt>
      <trkpt lat="42.51519511453807353973388671875" lon="19.7689722664654254913330078125">
        <ele>1827</ele>
        <time>2026-06-18T11:00:32.000Z</time>
        <extensions>
          <ns3:TrackPointExtension>
            <ns3:atemp>22.0</ns3:atemp>
          </ns3:TrackPointExtension>
        </extensions>
      </trkpt>
      <trkpt lat="42.51519511453807353973388671875" lon="19.7689722664654254913330078125">
        <ele>1827</ele>
        <time>2026-06-18T11:00:33.000Z</time>
        <extensions>
          <ns3:TrackPointExtension>
            <ns3:atemp>22.0</ns3:atemp>
          </ns3:TrackPointExtension>
        </extensions>
      </trkpt>
      <trkpt lat="42.51519511453807353973388671875" lon="19.7689722664654254913330078125">
        <ele>1827</ele>
        <time>2026-06-18T11:00:34.000Z</time>
        <extensions>
          <ns3:TrackPointExtension>
            <ns3:atemp>22.0</ns3:atemp>
          </ns3:TrackPointExtension>
        </extensions>
      </trkpt>
      <trkpt lat="42.51519511453807353973388671875" lon="19.7689722664654254913330078125">
        <ele>1827</ele>
        <time>2026-06-18T11:00:35.000Z</time>
        <extensions>
          <ns3:TrackPointExtension>
            <ns3:atemp>22.0</ns3:atemp>
          </ns3:TrackPointExtension>
        </extensions>
      </trkpt>
      <trkpt lat="42.51519511453807353973388671875" lon="19.7689722664654254913330078125">
        <ele>1827</ele>
        <time>2026-06-18T11:00:36.000Z</time>
        <extensions>
          <ns3:TrackPointExtension>
            <ns3:atemp>22.0</ns3:atemp>
          </ns3:TrackPointExtension>
        </extensions>
      </trkpt>
      <trkpt lat="42.51519511453807353973388671875" lon="19.7689722664654254913330078125">
        <ele>1827</ele>
        <time>2026-06-18T11:00:37.000Z</time>
        <extensions>
          <ns3:TrackPointExtension>
            <ns3:atemp>22.0</ns3:atemp>
          </ns3:TrackPointExtension>
        </extensions>
      </trkpt>
      <trkpt lat="42.51519511453807353973388671875" lon="19.7689722664654254913330078125">
        <ele>1827</ele>
        <time>2026-06-18T11:00:38.000Z</time>
        <extensions>
          <ns3:TrackPointExtension>
            <ns3:atemp>22.0</ns3:atemp>
          </ns3:TrackPointExtension>
        </extensions>
      </trkpt>
      <trkpt lat="42.51519511453807353973388671875" lon="19.7689722664654254913330078125">
        <ele>1827</ele>
        <time>2026-06-18T11:00:39.000Z</time>
        <extensions>
          <ns3:TrackPointExtension>
            <ns3:atemp>22.0</ns3:atemp>
          </ns3:TrackPointExtension>
        </extensions>
      </trkpt>
      <trkpt lat="42.51519511453807353973388671875" lon="19.7689722664654254913330078125">
        <ele>1827</ele>
        <time>2026-06-18T11:00:40.000Z</time>
        <extensions>
          <ns3:TrackPointExtension>
            <ns3:atemp>22.0</ns3:atemp>
          </ns3:TrackPointExtension>
        </extensions>
      </trkpt>
      <trkpt lat="42.51519511453807353973388671875" lon="19.7689722664654254913330078125">
        <ele>1827</ele>
        <time>2026-06-18T11:00:41.000Z</time>
        <extensions>
          <ns3:TrackPointExtension>
            <ns3:atemp>22.0</ns3:atemp>
          </ns3:TrackPointExtension>
        </extensions>
      </trkpt>
      <trkpt lat="42.51519511453807353973388671875" lon="19.7689722664654254913330078125">
        <ele>1827</ele>
        <time>2026-06-18T11:00:42.000Z</time>
        <extensions>
          <ns3:TrackPointExtension>
            <ns3:atemp>22.0</ns3:atemp>
          </ns3:TrackPointExtension>
        </extensions>
      </trkpt>
      <trkpt lat="42.51519511453807353973388671875" lon="19.7689722664654254913330078125">
        <ele>1827</ele>
        <time>2026-06-18T11:00:43.000Z</time>
        <extensions>
          <ns3:TrackPointExtension>
            <ns3:atemp>22.0</ns3:atemp>
          </ns3:TrackPointExtension>
        </extensions>
      </trkpt>
      <trkpt lat="42.51519511453807353973388671875" lon="19.7689722664654254913330078125">
        <ele>1827</ele>
        <time>2026-06-18T11:00:44.000Z</time>
        <extensions>
          <ns3:TrackPointExtension>
            <ns3:atemp>22.0</ns3:atemp>
          </ns3:TrackPointExtension>
        </extensions>
      </trkpt>
      <trkpt lat="42.51519511453807353973388671875" lon="19.7689722664654254913330078125">
        <ele>1827</ele>
        <time>2026-06-18T11:00:45.000Z</time>
        <extensions>
          <ns3:TrackPointExtension>
            <ns3:atemp>22.0</ns3:atemp>
          </ns3:TrackPointExtension>
        </extensions>
      </trkpt>
      <trkpt lat="42.51519511453807353973388671875" lon="19.7689722664654254913330078125">
        <ele>1827</ele>
        <time>2026-06-18T11:00:46.000Z</time>
        <extensions>
          <ns3:TrackPointExtension>
            <ns3:atemp>22.0</ns3:atemp>
          </ns3:TrackPointExtension>
        </extensions>
      </trkpt>
      <trkpt lat="42.51519511453807353973388671875" lon="19.7689722664654254913330078125">
        <ele>1827</ele>
        <time>2026-06-18T11:00:47.000Z</time>
        <extensions>
          <ns3:TrackPointExtension>
            <ns3:atemp>22.0</ns3:atemp>
          </ns3:TrackPointExtension>
        </extensions>
      </trkpt>
      <trkpt lat="42.51519511453807353973388671875" lon="19.7689722664654254913330078125">
        <ele>1827</ele>
        <time>2026-06-18T11:00:48.000Z</time>
        <extensions>
          <ns3:TrackPointExtension>
            <ns3:atemp>22.0</ns3:atemp>
          </ns3:TrackPointExtension>
        </extensions>
      </trkpt>
      <trkpt lat="42.51519511453807353973388671875" lon="19.7689722664654254913330078125">
        <ele>1827</ele>
        <time>2026-06-18T11:00:49.000Z</time>
        <extensions>
          <ns3:TrackPointExtension>
            <ns3:atemp>22.0</ns3:atemp>
          </ns3:TrackPointExtension>
        </extensions>
      </trkpt>
      <trkpt lat="42.51519511453807353973388671875" lon="19.7689722664654254913330078125">
        <ele>1827</ele>
        <time>2026-06-18T11:00:50.000Z</time>
        <extensions>
          <ns3:TrackPointExtension>
            <ns3:atemp>22.0</ns3:atemp>
          </ns3:TrackPointExtension>
        </extensions>
      </trkpt>
      <trkpt lat="42.51519511453807353973388671875" lon="19.7689722664654254913330078125">
        <ele>1827</ele>
        <time>2026-06-18T11:00:51.000Z</time>
        <extensions>
          <ns3:TrackPointExtension>
            <ns3:atemp>22.0</ns3:atemp>
          </ns3:TrackPointExtension>
        </extensions>
      </trkpt>
      <trkpt lat="42.51519511453807353973388671875" lon="19.7689722664654254913330078125">
        <ele>1827</ele>
        <time>2026-06-18T11:00:52.000Z</time>
        <extensions>
          <ns3:TrackPointExtension>
            <ns3:atemp>22.0</ns3:atemp>
          </ns3:TrackPointExtension>
        </extensions>
      </trkpt>
      <trkpt lat="42.51519511453807353973388671875" lon="19.7689722664654254913330078125">
        <ele>1827</ele>
        <time>2026-06-18T11:00:53.000Z</time>
        <extensions>
          <ns3:TrackPointExtension>
            <ns3:atemp>22.0</ns3:atemp>
          </ns3:TrackPointExtension>
        </extensions>
      </trkpt>
      <trkpt lat="42.51519511453807353973388671875" lon="19.7689722664654254913330078125">
        <ele>1827</ele>
        <time>2026-06-18T11:00:54.000Z</time>
        <extensions>
          <ns3:TrackPointExtension>
            <ns3:atemp>22.0</ns3:atemp>
          </ns3:TrackPointExtension>
        </extensions>
      </trkpt>
      <trkpt lat="42.51519511453807353973388671875" lon="19.7689722664654254913330078125">
        <ele>1827</ele>
        <time>2026-06-18T11:00:55.000Z</time>
        <extensions>
          <ns3:TrackPointExtension>
            <ns3:atemp>22.0</ns3:atemp>
          </ns3:TrackPointExtension>
        </extensions>
      </trkpt>
      <trkpt lat="42.51519511453807353973388671875" lon="19.7689722664654254913330078125">
        <ele>1827</ele>
        <time>2026-06-18T11:00:56.000Z</time>
        <extensions>
          <ns3:TrackPointExtension>
            <ns3:atemp>22.0</ns3:atemp>
          </ns3:TrackPointExtension>
        </extensions>
      </trkpt>
      <trkpt lat="42.51519511453807353973388671875" lon="19.7689722664654254913330078125">
        <ele>1827</ele>
        <time>2026-06-18T11:00:57.000Z</time>
        <extensions>
          <ns3:TrackPointExtension>
            <ns3:atemp>22.0</ns3:atemp>
          </ns3:TrackPointExtension>
        </extensions>
      </trkpt>
      <trkpt lat="42.51519511453807353973388671875" lon="19.7689722664654254913330078125">
        <ele>1827</ele>
        <time>2026-06-18T11:00:58.000Z</time>
        <extensions>
          <ns3:TrackPointExtension>
            <ns3:atemp>22.0</ns3:atemp>
          </ns3:TrackPointExtension>
        </extensions>
      </trkpt>
      <trkpt lat="42.51519511453807353973388671875" lon="19.7689722664654254913330078125">
        <ele>1827</ele>
        <time>2026-06-18T11:00:59.000Z</time>
        <extensions>
          <ns3:TrackPointExtension>
            <ns3:atemp>22.0</ns3:atemp>
          </ns3:TrackPointExtension>
        </extensions>
      </trkpt>
      <trkpt lat="42.51519511453807353973388671875" lon="19.7689722664654254913330078125">
        <ele>1827</ele>
        <time>2026-06-18T11:01:00.000Z</time>
        <extensions>
          <ns3:TrackPointExtension>
            <ns3:atemp>22.0</ns3:atemp>
          </ns3:TrackPointExtension>
        </extensions>
      </trkpt>
      <trkpt lat="42.51519511453807353973388671875" lon="19.7689722664654254913330078125">
        <ele>1827</ele>
        <time>2026-06-18T11:01:01.000Z</time>
        <extensions>
          <ns3:TrackPointExtension>
            <ns3:atemp>22.0</ns3:atemp>
          </ns3:TrackPointExtension>
        </extensions>
      </trkpt>
      <trkpt lat="42.51519511453807353973388671875" lon="19.7689722664654254913330078125">
        <ele>1827</ele>
        <time>2026-06-18T11:01:02.000Z</time>
        <extensions>
          <ns3:TrackPointExtension>
            <ns3:atemp>22.0</ns3:atemp>
          </ns3:TrackPointExtension>
        </extensions>
      </trkpt>
      <trkpt lat="42.51519511453807353973388671875" lon="19.7689722664654254913330078125">
        <ele>1827</ele>
        <time>2026-06-18T11:01:03.000Z</time>
        <extensions>
          <ns3:TrackPointExtension>
            <ns3:atemp>22.0</ns3:atemp>
          </ns3:TrackPointExtension>
        </extensions>
      </trkpt>
      <trkpt lat="42.51519511453807353973388671875" lon="19.7689722664654254913330078125">
        <ele>1827</ele>
        <time>2026-06-18T11:01:04.000Z</time>
        <extensions>
          <ns3:TrackPointExtension>
            <ns3:atemp>22.0</ns3:atemp>
          </ns3:TrackPointExtension>
        </extensions>
      </trkpt>
      <trkpt lat="42.51519511453807353973388671875" lon="19.7689722664654254913330078125">
        <ele>1827</ele>
        <time>2026-06-18T11:01:05.000Z</time>
        <extensions>
          <ns3:TrackPointExtension>
            <ns3:atemp>22.0</ns3:atemp>
          </ns3:TrackPointExtension>
        </extensions>
      </trkpt>
      <trkpt lat="42.51519511453807353973388671875" lon="19.7689722664654254913330078125">
        <ele>1827</ele>
        <time>2026-06-18T11:01:06.000Z</time>
        <extensions>
          <ns3:TrackPointExtension>
            <ns3:atemp>22.0</ns3:atemp>
          </ns3:TrackPointExtension>
        </extensions>
      </trkpt>
      <trkpt lat="42.51519511453807353973388671875" lon="19.7689722664654254913330078125">
        <ele>1827</ele>
        <time>2026-06-18T11:01:07.000Z</time>
        <extensions>
          <ns3:TrackPointExtension>
            <ns3:atemp>22.0</ns3:atemp>
          </ns3:TrackPointExtension>
        </extensions>
      </trkpt>
      <trkpt lat="42.51519511453807353973388671875" lon="19.7689722664654254913330078125">
        <ele>1827</ele>
        <time>2026-06-18T11:01:08.000Z</time>
        <extensions>
          <ns3:TrackPointExtension>
            <ns3:atemp>22.0</ns3:atemp>
          </ns3:TrackPointExtension>
        </extensions>
      </trkpt>
      <trkpt lat="42.51519511453807353973388671875" lon="19.7689722664654254913330078125">
        <ele>1827</ele>
        <time>2026-06-18T11:01:09.000Z</time>
        <extensions>
          <ns3:TrackPointExtension>
            <ns3:atemp>22.0</ns3:atemp>
          </ns3:TrackPointExtension>
        </extensions>
      </trkpt>
      <trkpt lat="42.51519511453807353973388671875" lon="19.7689722664654254913330078125">
        <ele>1827</ele>
        <time>2026-06-18T11:01:10.000Z</time>
        <extensions>
          <ns3:TrackPointExtension>
            <ns3:atemp>22.0</ns3:atemp>
          </ns3:TrackPointExtension>
        </extensions>
      </trkpt>
      <trkpt lat="42.51519511453807353973388671875" lon="19.7689722664654254913330078125">
        <ele>1827</ele>
        <time>2026-06-18T11:01:11.000Z</time>
        <extensions>
          <ns3:TrackPointExtension>
            <ns3:atemp>22.0</ns3:atemp>
          </ns3:TrackPointExtension>
        </extensions>
      </trkpt>
      <trkpt lat="42.51519511453807353973388671875" lon="19.7689722664654254913330078125">
        <ele>1827</ele>
        <time>2026-06-18T11:01:12.000Z</time>
        <extensions>
          <ns3:TrackPointExtension>
            <ns3:atemp>22.0</ns3:atemp>
          </ns3:TrackPointExtension>
        </extensions>
      </trkpt>
      <trkpt lat="42.51519511453807353973388671875" lon="19.7689722664654254913330078125">
        <ele>1827</ele>
        <time>2026-06-18T11:01:13.000Z</time>
        <extensions>
          <ns3:TrackPointExtension>
            <ns3:atemp>22.0</ns3:atemp>
          </ns3:TrackPointExtension>
        </extensions>
      </trkpt>
      <trkpt lat="42.51519511453807353973388671875" lon="19.7689722664654254913330078125">
        <ele>1827</ele>
        <time>2026-06-18T11:01:14.000Z</time>
        <extensions>
          <ns3:TrackPointExtension>
            <ns3:atemp>22.0</ns3:atemp>
          </ns3:TrackPointExtension>
        </extensions>
      </trkpt>
      <trkpt lat="42.51519511453807353973388671875" lon="19.7689722664654254913330078125">
        <ele>1827</ele>
        <time>2026-06-18T11:01:15.000Z</time>
        <extensions>
          <ns3:TrackPointExtension>
            <ns3:atemp>22.0</ns3:atemp>
          </ns3:TrackPointExtension>
        </extensions>
      </trkpt>
      <trkpt lat="42.51519511453807353973388671875" lon="19.7689722664654254913330078125">
        <ele>1827</ele>
        <time>2026-06-18T11:01:16.000Z</time>
        <extensions>
          <ns3:TrackPointExtension>
            <ns3:atemp>22.0</ns3:atemp>
          </ns3:TrackPointExtension>
        </extensions>
      </trkpt>
      <trkpt lat="42.51519511453807353973388671875" lon="19.7689722664654254913330078125">
        <ele>1827</ele>
        <time>2026-06-18T11:01:17.000Z</time>
        <extensions>
          <ns3:TrackPointExtension>
            <ns3:atemp>22.0</ns3:atemp>
          </ns3:TrackPointExtension>
        </extensions>
      </trkpt>
      <trkpt lat="42.51519511453807353973388671875" lon="19.7689722664654254913330078125">
        <ele>1827</ele>
        <time>2026-06-18T11:01:18.000Z</time>
        <extensions>
          <ns3:TrackPointExtension>
            <ns3:atemp>22.0</ns3:atemp>
          </ns3:TrackPointExtension>
        </extensions>
      </trkpt>
      <trkpt lat="42.51519511453807353973388671875" lon="19.7689722664654254913330078125">
        <ele>1827</ele>
        <time>2026-06-18T11:01:19.000Z</time>
        <extensions>
          <ns3:TrackPointExtension>
            <ns3:atemp>22.0</ns3:atemp>
          </ns3:TrackPointExtension>
        </extensions>
      </trkpt>
      <trkpt lat="42.51519511453807353973388671875" lon="19.7689722664654254913330078125">
        <ele>1827</ele>
        <time>2026-06-18T11:01:20.000Z</time>
        <extensions>
          <ns3:TrackPointExtension>
            <ns3:atemp>22.0</ns3:atemp>
          </ns3:TrackPointExtension>
        </extensions>
      </trkpt>
      <trkpt lat="42.51519511453807353973388671875" lon="19.7689722664654254913330078125">
        <ele>1827</ele>
        <time>2026-06-18T11:01:21.000Z</time>
        <extensions>
          <ns3:TrackPointExtension>
            <ns3:atemp>22.0</ns3:atemp>
          </ns3:TrackPointExtension>
        </extensions>
      </trkpt>
      <trkpt lat="42.51519511453807353973388671875" lon="19.7689722664654254913330078125">
        <ele>1827</ele>
        <time>2026-06-18T11:01:22.000Z</time>
        <extensions>
          <ns3:TrackPointExtension>
            <ns3:atemp>22.0</ns3:atemp>
          </ns3:TrackPointExtension>
        </extensions>
      </trkpt>
      <trkpt lat="42.51519511453807353973388671875" lon="19.7689722664654254913330078125">
        <ele>1827</ele>
        <time>2026-06-18T11:01:23.000Z</time>
        <extensions>
          <ns3:TrackPointExtension>
            <ns3:atemp>22.0</ns3:atemp>
          </ns3:TrackPointExtension>
        </extensions>
      </trkpt>
      <trkpt lat="42.51519511453807353973388671875" lon="19.7689722664654254913330078125">
        <ele>1827</ele>
        <time>2026-06-18T11:01:24.000Z</time>
        <extensions>
          <ns3:TrackPointExtension>
            <ns3:atemp>22.0</ns3:atemp>
          </ns3:TrackPointExtension>
        </extensions>
      </trkpt>
      <trkpt lat="42.51519511453807353973388671875" lon="19.7689722664654254913330078125">
        <ele>1827</ele>
        <time>2026-06-18T11:01:25.000Z</time>
        <extensions>
          <ns3:TrackPointExtension>
            <ns3:atemp>22.0</ns3:atemp>
          </ns3:TrackPointExtension>
        </extensions>
      </trkpt>
      <trkpt lat="42.51519511453807353973388671875" lon="19.7689722664654254913330078125">
        <ele>1827</ele>
        <time>2026-06-18T11:01:26.000Z</time>
        <extensions>
          <ns3:TrackPointExtension>
            <ns3:atemp>22.0</ns3:atemp>
          </ns3:TrackPointExtension>
        </extensions>
      </trkpt>
      <trkpt lat="42.51519511453807353973388671875" lon="19.7689722664654254913330078125">
        <ele>1827</ele>
        <time>2026-06-18T11:01:27.000Z</time>
        <extensions>
          <ns3:TrackPointExtension>
            <ns3:atemp>22.0</ns3:atemp>
          </ns3:TrackPointExtension>
        </extensions>
      </trkpt>
      <trkpt lat="42.51519511453807353973388671875" lon="19.7689722664654254913330078125">
        <ele>1827</ele>
        <time>2026-06-18T11:01:28.000Z</time>
        <extensions>
          <ns3:TrackPointExtension>
            <ns3:atemp>22.0</ns3:atemp>
          </ns3:TrackPointExtension>
        </extensions>
      </trkpt>
      <trkpt lat="42.51519511453807353973388671875" lon="19.7689722664654254913330078125">
        <ele>1827</ele>
        <time>2026-06-18T11:01:29.000Z</time>
        <extensions>
          <ns3:TrackPointExtension>
            <ns3:atemp>22.0</ns3:atemp>
          </ns3:TrackPointExtension>
        </extensions>
      </trkpt>
      <trkpt lat="42.51519511453807353973388671875" lon="19.7689722664654254913330078125">
        <ele>1827</ele>
        <time>2026-06-18T11:01:30.000Z</time>
        <extensions>
          <ns3:TrackPointExtension>
            <ns3:atemp>22.0</ns3:atemp>
          </ns3:TrackPointExtension>
        </extensions>
      </trkpt>
      <trkpt lat="42.51519511453807353973388671875" lon="19.7689722664654254913330078125">
        <ele>1827</ele>
        <time>2026-06-18T11:01:31.000Z</time>
        <extensions>
          <ns3:TrackPointExtension>
            <ns3:atemp>22.0</ns3:atemp>
          </ns3:TrackPointExtension>
        </extensions>
      </trkpt>
      <trkpt lat="42.51519511453807353973388671875" lon="19.7689722664654254913330078125">
        <ele>1827</ele>
        <time>2026-06-18T11:01:32.000Z</time>
        <extensions>
          <ns3:TrackPointExtension>
            <ns3:atemp>22.0</ns3:atemp>
          </ns3:TrackPointExtension>
        </extensions>
      </trkpt>
      <trkpt lat="42.51519511453807353973388671875" lon="19.7689722664654254913330078125">
        <ele>1827</ele>
        <time>2026-06-18T11:01:33.000Z</time>
        <extensions>
          <ns3:TrackPointExtension>
            <ns3:atemp>22.0</ns3:atemp>
          </ns3:TrackPointExtension>
        </extensions>
      </trkpt>
      <trkpt lat="42.51519511453807353973388671875" lon="19.7689722664654254913330078125">
        <ele>1827</ele>
        <time>2026-06-18T11:01:34.000Z</time>
        <extensions>
          <ns3:TrackPointExtension>
            <ns3:atemp>22.0</ns3:atemp>
          </ns3:TrackPointExtension>
        </extensions>
      </trkpt>
      <trkpt lat="42.51519511453807353973388671875" lon="19.7689722664654254913330078125">
        <ele>1827</ele>
        <time>2026-06-18T11:01:35.000Z</time>
        <extensions>
          <ns3:TrackPointExtension>
            <ns3:atemp>22.0</ns3:atemp>
          </ns3:TrackPointExtension>
        </extensions>
      </trkpt>
      <trkpt lat="42.51519511453807353973388671875" lon="19.7689722664654254913330078125">
        <ele>1827</ele>
        <time>2026-06-18T11:01:36.000Z</time>
        <extensions>
          <ns3:TrackPointExtension>
            <ns3:atemp>22.0</ns3:atemp>
          </ns3:TrackPointExtension>
        </extensions>
      </trkpt>
      <trkpt lat="42.51519511453807353973388671875" lon="19.7689722664654254913330078125">
        <ele>1827</ele>
        <time>2026-06-18T11:01:37.000Z</time>
        <extensions>
          <ns3:TrackPointExtension>
            <ns3:atemp>22.0</ns3:atemp>
          </ns3:TrackPointExtension>
        </extensions>
      </trkpt>
      <trkpt lat="42.51519511453807353973388671875" lon="19.7689722664654254913330078125">
        <ele>1827</ele>
        <time>2026-06-18T11:01:38.000Z</time>
        <extensions>
          <ns3:TrackPointExtension>
            <ns3:atemp>22.0</ns3:atemp>
          </ns3:TrackPointExtension>
        </extensions>
      </trkpt>
      <trkpt lat="42.51519511453807353973388671875" lon="19.7689722664654254913330078125">
        <ele>1827</ele>
        <time>2026-06-18T11:01:39.000Z</time>
        <extensions>
          <ns3:TrackPointExtension>
            <ns3:atemp>22.0</ns3:atemp>
          </ns3:TrackPointExtension>
        </extensions>
      </trkpt>
      <trkpt lat="42.51519511453807353973388671875" lon="19.7689722664654254913330078125">
        <ele>1827</ele>
        <time>2026-06-18T11:01:40.000Z</time>
        <extensions>
          <ns3:TrackPointExtension>
            <ns3:atemp>22.0</ns3:atemp>
          </ns3:TrackPointExtension>
        </extensions>
      </trkpt>
      <trkpt lat="42.51519511453807353973388671875" lon="19.7689722664654254913330078125">
        <ele>1827</ele>
        <time>2026-06-18T11:01:41.000Z</time>
        <extensions>
          <ns3:TrackPointExtension>
            <ns3:atemp>22.0</ns3:atemp>
          </ns3:TrackPointExtension>
        </extensions>
      </trkpt>
      <trkpt lat="42.51519511453807353973388671875" lon="19.7689722664654254913330078125">
        <ele>1827</ele>
        <time>2026-06-18T11:01:42.000Z</time>
        <extensions>
          <ns3:TrackPointExtension>
            <ns3:atemp>22.0</ns3:atemp>
          </ns3:TrackPointExtension>
        </extensions>
      </trkpt>
      <trkpt lat="42.51519511453807353973388671875" lon="19.7689722664654254913330078125">
        <ele>1827</ele>
        <time>2026-06-18T11:01:43.000Z</time>
        <extensions>
          <ns3:TrackPointExtension>
            <ns3:atemp>22.0</ns3:atemp>
          </ns3:TrackPointExtension>
        </extensions>
      </trkpt>
      <trkpt lat="42.51519511453807353973388671875" lon="19.7689722664654254913330078125">
        <ele>1827</ele>
        <time>2026-06-18T11:01:44.000Z</time>
        <extensions>
          <ns3:TrackPointExtension>
            <ns3:atemp>22.0</ns3:atemp>
          </ns3:TrackPointExtension>
        </extensions>
      </trkpt>
      <trkpt lat="42.51519511453807353973388671875" lon="19.7689722664654254913330078125">
        <ele>1827</ele>
        <time>2026-06-18T11:01:45.000Z</time>
        <extensions>
          <ns3:TrackPointExtension>
            <ns3:atemp>22.0</ns3:atemp>
          </ns3:TrackPointExtension>
        </extensions>
      </trkpt>
      <trkpt lat="42.51519511453807353973388671875" lon="19.7689722664654254913330078125">
        <ele>1827</ele>
        <time>2026-06-18T11:01:46.000Z</time>
        <extensions>
          <ns3:TrackPointExtension>
            <ns3:atemp>22.0</ns3:atemp>
          </ns3:TrackPointExtension>
        </extensions>
      </trkpt>
      <trkpt lat="42.51519511453807353973388671875" lon="19.7689722664654254913330078125">
        <ele>1827</ele>
        <time>2026-06-18T11:01:47.000Z</time>
        <extensions>
          <ns3:TrackPointExtension>
            <ns3:atemp>22.0</ns3:atemp>
          </ns3:TrackPointExtension>
        </extensions>
      </trkpt>
      <trkpt lat="42.51519511453807353973388671875" lon="19.7689722664654254913330078125">
        <ele>1827</ele>
        <time>2026-06-18T11:01:48.000Z</time>
        <extensions>
          <ns3:TrackPointExtension>
            <ns3:atemp>22.0</ns3:atemp>
          </ns3:TrackPointExtension>
        </extensions>
      </trkpt>
      <trkpt lat="42.51519511453807353973388671875" lon="19.7689722664654254913330078125">
        <ele>1827</ele>
        <time>2026-06-18T11:01:49.000Z</time>
        <extensions>
          <ns3:TrackPointExtension>
            <ns3:atemp>22.0</ns3:atemp>
          </ns3:TrackPointExtension>
        </extensions>
      </trkpt>
      <trkpt lat="42.51519511453807353973388671875" lon="19.7689722664654254913330078125">
        <ele>1827</ele>
        <time>2026-06-18T11:01:50.000Z</time>
        <extensions>
          <ns3:TrackPointExtension>
            <ns3:atemp>22.0</ns3:atemp>
          </ns3:TrackPointExtension>
        </extensions>
      </trkpt>
      <trkpt lat="42.51519511453807353973388671875" lon="19.7689722664654254913330078125">
        <ele>1827</ele>
        <time>2026-06-18T11:01:51.000Z</time>
        <extensions>
          <ns3:TrackPointExtension>
            <ns3:atemp>22.0</ns3:atemp>
          </ns3:TrackPointExtension>
        </extensions>
      </trkpt>
      <trkpt lat="42.51519511453807353973388671875" lon="19.7689722664654254913330078125">
        <ele>1827</ele>
        <time>2026-06-18T11:01:52.000Z</time>
        <extensions>
          <ns3:TrackPointExtension>
            <ns3:atemp>22.0</ns3:atemp>
          </ns3:TrackPointExtension>
        </extensions>
      </trkpt>
      <trkpt lat="42.51519511453807353973388671875" lon="19.7689722664654254913330078125">
        <ele>1827</ele>
        <time>2026-06-18T11:01:53.000Z</time>
        <extensions>
          <ns3:TrackPointExtension>
            <ns3:atemp>22.0</ns3:atemp>
          </ns3:TrackPointExtension>
        </extensions>
      </trkpt>
      <trkpt lat="42.51519511453807353973388671875" lon="19.7689722664654254913330078125">
        <ele>1827</ele>
        <time>2026-06-18T11:01:54.000Z</time>
        <extensions>
          <ns3:TrackPointExtension>
            <ns3:atemp>22.0</ns3:atemp>
          </ns3:TrackPointExtension>
        </extensions>
      </trkpt>
      <trkpt lat="42.51519511453807353973388671875" lon="19.7689722664654254913330078125">
        <ele>1827</ele>
        <time>2026-06-18T11:01:55.000Z</time>
        <extensions>
          <ns3:TrackPointExtension>
            <ns3:atemp>22.0</ns3:atemp>
          </ns3:TrackPointExtension>
        </extensions>
      </trkpt>
      <trkpt lat="42.51519511453807353973388671875" lon="19.7689722664654254913330078125">
        <ele>1827</ele>
        <time>2026-06-18T11:01:56.000Z</time>
        <extensions>
          <ns3:TrackPointExtension>
            <ns3:atemp>22.0</ns3:atemp>
          </ns3:TrackPointExtension>
        </extensions>
      </trkpt>
      <trkpt lat="42.51519511453807353973388671875" lon="19.7689722664654254913330078125">
        <ele>1827</ele>
        <time>2026-06-18T11:01:57.000Z</time>
        <extensions>
          <ns3:TrackPointExtension>
            <ns3:atemp>22.0</ns3:atemp>
          </ns3:TrackPointExtension>
        </extensions>
      </trkpt>
      <trkpt lat="42.51519511453807353973388671875" lon="19.7689722664654254913330078125">
        <ele>1827</ele>
        <time>2026-06-18T11:01:58.000Z</time>
        <extensions>
          <ns3:TrackPointExtension>
            <ns3:atemp>22.0</ns3:atemp>
          </ns3:TrackPointExtension>
        </extensions>
      </trkpt>
      <trkpt lat="42.51519511453807353973388671875" lon="19.7689722664654254913330078125">
        <ele>1827</ele>
        <time>2026-06-18T11:01:59.000Z</time>
        <extensions>
          <ns3:TrackPointExtension>
            <ns3:atemp>22.0</ns3:atemp>
          </ns3:TrackPointExtension>
        </extensions>
      </trkpt>
      <trkpt lat="42.51519511453807353973388671875" lon="19.7689722664654254913330078125">
        <ele>1827</ele>
        <time>2026-06-18T11:02:00.000Z</time>
        <extensions>
          <ns3:TrackPointExtension>
            <ns3:atemp>22.0</ns3:atemp>
          </ns3:TrackPointExtension>
        </extensions>
      </trkpt>
      <trkpt lat="42.51519511453807353973388671875" lon="19.7689722664654254913330078125">
        <ele>1827</ele>
        <time>2026-06-18T11:02:01.000Z</time>
        <extensions>
          <ns3:TrackPointExtension>
            <ns3:atemp>22.0</ns3:atemp>
          </ns3:TrackPointExtension>
        </extensions>
      </trkpt>
      <trkpt lat="42.51519511453807353973388671875" lon="19.7689722664654254913330078125">
        <ele>1827</ele>
        <time>2026-06-18T11:02:02.000Z</time>
        <extensions>
          <ns3:TrackPointExtension>
            <ns3:atemp>22.0</ns3:atemp>
          </ns3:TrackPointExtension>
        </extensions>
      </trkpt>
      <trkpt lat="42.51519511453807353973388671875" lon="19.7689722664654254913330078125">
        <ele>1827</ele>
        <time>2026-06-18T11:02:03.000Z</time>
        <extensions>
          <ns3:TrackPointExtension>
            <ns3:atemp>22.0</ns3:atemp>
          </ns3:TrackPointExtension>
        </extensions>
      </trkpt>
      <trkpt lat="42.51519511453807353973388671875" lon="19.7689722664654254913330078125">
        <ele>1827</ele>
        <time>2026-06-18T11:02:04.000Z</time>
        <extensions>
          <ns3:TrackPointExtension>
            <ns3:atemp>22.0</ns3:atemp>
          </ns3:TrackPointExtension>
        </extensions>
      </trkpt>
      <trkpt lat="42.51519511453807353973388671875" lon="19.7689722664654254913330078125">
        <ele>1827</ele>
        <time>2026-06-18T11:02:05.000Z</time>
        <extensions>
          <ns3:TrackPointExtension>
            <ns3:atemp>22.0</ns3:atemp>
          </ns3:TrackPointExtension>
        </extensions>
      </trkpt>
      <trkpt lat="42.51519511453807353973388671875" lon="19.7689722664654254913330078125">
        <ele>1827</ele>
        <time>2026-06-18T11:02:06.000Z</time>
        <extensions>
          <ns3:TrackPointExtension>
            <ns3:atemp>22.0</ns3:atemp>
          </ns3:TrackPointExtension>
        </extensions>
      </trkpt>
      <trkpt lat="42.51519511453807353973388671875" lon="19.7689722664654254913330078125">
        <ele>1827</ele>
        <time>2026-06-18T11:02:07.000Z</time>
        <extensions>
          <ns3:TrackPointExtension>
            <ns3:atemp>22.0</ns3:atemp>
          </ns3:TrackPointExtension>
        </extensions>
      </trkpt>
      <trkpt lat="42.51519511453807353973388671875" lon="19.7689722664654254913330078125">
        <ele>1827</ele>
        <time>2026-06-18T11:02:08.000Z</time>
        <extensions>
          <ns3:TrackPointExtension>
            <ns3:atemp>22.0</ns3:atemp>
          </ns3:TrackPointExtension>
        </extensions>
      </trkpt>
      <trkpt lat="42.51519511453807353973388671875" lon="19.7689722664654254913330078125">
        <ele>1827</ele>
        <time>2026-06-18T11:02:09.000Z</time>
        <extensions>
          <ns3:TrackPointExtension>
            <ns3:atemp>22.0</ns3:atemp>
          </ns3:TrackPointExtension>
        </extensions>
      </trkpt>
      <trkpt lat="42.51519511453807353973388671875" lon="19.7689722664654254913330078125">
        <ele>1827</ele>
        <time>2026-06-18T11:02:10.000Z</time>
        <extensions>
          <ns3:TrackPointExtension>
            <ns3:atemp>22.0</ns3:atemp>
          </ns3:TrackPointExtension>
        </extensions>
      </trkpt>
      <trkpt lat="42.51519511453807353973388671875" lon="19.7689722664654254913330078125">
        <ele>1827</ele>
        <time>2026-06-18T11:02:11.000Z</time>
        <extensions>
          <ns3:TrackPointExtension>
            <ns3:atemp>22.0</ns3:atemp>
          </ns3:TrackPointExtension>
        </extensions>
      </trkpt>
      <trkpt lat="42.51519511453807353973388671875" lon="19.7689722664654254913330078125">
        <ele>1827</ele>
        <time>2026-06-18T11:02:12.000Z</time>
        <extensions>
          <ns3:TrackPointExtension>
            <ns3:atemp>22.0</ns3:atemp>
          </ns3:TrackPointExtension>
        </extensions>
      </trkpt>
      <trkpt lat="42.51519511453807353973388671875" lon="19.7689722664654254913330078125">
        <ele>1827</ele>
        <time>2026-06-18T11:02:13.000Z</time>
        <extensions>
          <ns3:TrackPointExtension>
            <ns3:atemp>22.0</ns3:atemp>
          </ns3:TrackPointExtension>
        </extensions>
      </trkpt>
      <trkpt lat="42.51519511453807353973388671875" lon="19.7689722664654254913330078125">
        <ele>1827</ele>
        <time>2026-06-18T11:02:14.000Z</time>
        <extensions>
          <ns3:TrackPointExtension>
            <ns3:atemp>22.0</ns3:atemp>
          </ns3:TrackPointExtension>
        </extensions>
      </trkpt>
      <trkpt lat="42.51519511453807353973388671875" lon="19.7689722664654254913330078125">
        <ele>1827</ele>
        <time>2026-06-18T11:02:15.000Z</time>
        <extensions>
          <ns3:TrackPointExtension>
            <ns3:atemp>22.0</ns3:atemp>
          </ns3:TrackPointExtension>
        </extensions>
      </trkpt>
      <trkpt lat="42.51519511453807353973388671875" lon="19.7689722664654254913330078125">
        <ele>1827</ele>
        <time>2026-06-18T11:02:16.000Z</time>
        <extensions>
          <ns3:TrackPointExtension>
            <ns3:atemp>22.0</ns3:atemp>
          </ns3:TrackPointExtension>
        </extensions>
      </trkpt>
      <trkpt lat="42.51519511453807353973388671875" lon="19.7689722664654254913330078125">
        <ele>1827</ele>
        <time>2026-06-18T11:02:17.000Z</time>
        <extensions>
          <ns3:TrackPointExtension>
            <ns3:atemp>22.0</ns3:atemp>
          </ns3:TrackPointExtension>
        </extensions>
      </trkpt>
      <trkpt lat="42.51519511453807353973388671875" lon="19.7689722664654254913330078125">
        <ele>1827</ele>
        <time>2026-06-18T11:02:18.000Z</time>
        <extensions>
          <ns3:TrackPointExtension>
            <ns3:atemp>22.0</ns3:atemp>
          </ns3:TrackPointExtension>
        </extensions>
      </trkpt>
      <trkpt lat="42.51519511453807353973388671875" lon="19.7689722664654254913330078125">
        <ele>1827</ele>
        <time>2026-06-18T11:02:19.000Z</time>
        <extensions>
          <ns3:TrackPointExtension>
            <ns3:atemp>22.0</ns3:atemp>
          </ns3:TrackPointExtension>
        </extensions>
      </trkpt>
      <trkpt lat="42.51519511453807353973388671875" lon="19.7689722664654254913330078125">
        <ele>1827</ele>
        <time>2026-06-18T11:02:20.000Z</time>
        <extensions>
          <ns3:TrackPointExtension>
            <ns3:atemp>22.0</ns3:atemp>
          </ns3:TrackPointExtension>
        </extensions>
      </trkpt>
      <trkpt lat="42.51519511453807353973388671875" lon="19.7689722664654254913330078125">
        <ele>1827</ele>
        <time>2026-06-18T11:02:21.000Z</time>
        <extensions>
          <ns3:TrackPointExtension>
            <ns3:atemp>22.0</ns3:atemp>
          </ns3:TrackPointExtension>
        </extensions>
      </trkpt>
      <trkpt lat="42.51519511453807353973388671875" lon="19.7689722664654254913330078125">
        <ele>1827</ele>
        <time>2026-06-18T11:02:22.000Z</time>
        <extensions>
          <ns3:TrackPointExtension>
            <ns3:atemp>22.0</ns3:atemp>
          </ns3:TrackPointExtension>
        </extensions>
      </trkpt>
      <trkpt lat="42.51519511453807353973388671875" lon="19.7689722664654254913330078125">
        <ele>1827</ele>
        <time>2026-06-18T11:02:23.000Z</time>
        <extensions>
          <ns3:TrackPointExtension>
            <ns3:atemp>22.0</ns3:atemp>
          </ns3:TrackPointExtension>
        </extensions>
      </trkpt>
      <trkpt lat="42.51519511453807353973388671875" lon="19.7689722664654254913330078125">
        <ele>1827</ele>
        <time>2026-06-18T11:02:24.000Z</time>
        <extensions>
          <ns3:TrackPointExtension>
            <ns3:atemp>22.0</ns3:atemp>
          </ns3:TrackPointExtension>
        </extensions>
      </trkpt>
      <trkpt lat="42.51519511453807353973388671875" lon="19.7689722664654254913330078125">
        <ele>1827</ele>
        <time>2026-06-18T11:02:25.000Z</time>
        <extensions>
          <ns3:TrackPointExtension>
            <ns3:atemp>22.0</ns3:atemp>
          </ns3:TrackPointExtension>
        </extensions>
      </trkpt>
      <trkpt lat="42.51519511453807353973388671875" lon="19.7689722664654254913330078125">
        <ele>1827</ele>
        <time>2026-06-18T11:02:26.000Z</time>
        <extensions>
          <ns3:TrackPointExtension>
            <ns3:atemp>22.0</ns3:atemp>
          </ns3:TrackPointExtension>
        </extensions>
      </trkpt>
      <trkpt lat="42.51519511453807353973388671875" lon="19.7689722664654254913330078125">
        <ele>1827</ele>
        <time>2026-06-18T11:02:27.000Z</time>
        <extensions>
          <ns3:TrackPointExtension>
            <ns3:atemp>22.0</ns3:atemp>
          </ns3:TrackPointExtension>
        </extensions>
      </trkpt>
      <trkpt lat="42.51519511453807353973388671875" lon="19.7689722664654254913330078125">
        <ele>1827</ele>
        <time>2026-06-18T11:02:28.000Z</time>
        <extensions>
          <ns3:TrackPointExtension>
            <ns3:atemp>22.0</ns3:atemp>
          </ns3:TrackPointExtension>
        </extensions>
      </trkpt>
      <trkpt lat="42.51519511453807353973388671875" lon="19.7689722664654254913330078125">
        <ele>1827</ele>
        <time>2026-06-18T11:02:29.000Z</time>
        <extensions>
          <ns3:TrackPointExtension>
            <ns3:atemp>22.0</ns3:atemp>
          </ns3:TrackPointExtension>
        </extensions>
      </trkpt>
      <trkpt lat="42.51519511453807353973388671875" lon="19.7689722664654254913330078125">
        <ele>1827</ele>
        <time>2026-06-18T11:02:30.000Z</time>
        <extensions>
          <ns3:TrackPointExtension>
            <ns3:atemp>22.0</ns3:atemp>
          </ns3:TrackPointExtension>
        </extensions>
      </trkpt>
      <trkpt lat="42.51519511453807353973388671875" lon="19.7689722664654254913330078125">
        <ele>1827</ele>
        <time>2026-06-18T11:02:31.000Z</time>
        <extensions>
          <ns3:TrackPointExtension>
            <ns3:atemp>22.0</ns3:atemp>
          </ns3:TrackPointExtension>
        </extensions>
      </trkpt>
      <trkpt lat="42.51519511453807353973388671875" lon="19.7689722664654254913330078125">
        <ele>1827</ele>
        <time>2026-06-18T11:02:32.000Z</time>
        <extensions>
          <ns3:TrackPointExtension>
            <ns3:atemp>22.0</ns3:atemp>
          </ns3:TrackPointExtension>
        </extensions>
      </trkpt>
      <trkpt lat="42.51519511453807353973388671875" lon="19.7689722664654254913330078125">
        <ele>1827</ele>
        <time>2026-06-18T11:02:33.000Z</time>
        <extensions>
          <ns3:TrackPointExtension>
            <ns3:atemp>22.0</ns3:atemp>
          </ns3:TrackPointExtension>
        </extensions>
      </trkpt>
      <trkpt lat="42.51519511453807353973388671875" lon="19.7689722664654254913330078125">
        <ele>1827</ele>
        <time>2026-06-18T11:02:34.000Z</time>
        <extensions>
          <ns3:TrackPointExtension>
            <ns3:atemp>22.0</ns3:atemp>
          </ns3:TrackPointExtension>
        </extensions>
      </trkpt>
      <trkpt lat="42.51519511453807353973388671875" lon="19.7689722664654254913330078125">
        <ele>1827</ele>
        <time>2026-06-18T11:02:35.000Z</time>
        <extensions>
          <ns3:TrackPointExtension>
            <ns3:atemp>22.0</ns3:atemp>
          </ns3:TrackPointExtension>
        </extensions>
      </trkpt>
      <trkpt lat="42.51519511453807353973388671875" lon="19.7689722664654254913330078125">
        <ele>1827</ele>
        <time>2026-06-18T11:02:36.000Z</time>
        <extensions>
          <ns3:TrackPointExtension>
            <ns3:atemp>22.0</ns3:atemp>
          </ns3:TrackPointExtension>
        </extensions>
      </trkpt>
      <trkpt lat="42.51519511453807353973388671875" lon="19.7689722664654254913330078125">
        <ele>1827</ele>
        <time>2026-06-18T11:02:37.000Z</time>
        <extensions>
          <ns3:TrackPointExtension>
            <ns3:atemp>22.0</ns3:atemp>
          </ns3:TrackPointExtension>
        </extensions>
      </trkpt>
      <trkpt lat="42.51519511453807353973388671875" lon="19.7689722664654254913330078125">
        <ele>1827</ele>
        <time>2026-06-18T11:02:38.000Z</time>
        <extensions>
          <ns3:TrackPointExtension>
            <ns3:atemp>22.0</ns3:atemp>
          </ns3:TrackPointExtension>
        </extensions>
      </trkpt>
      <trkpt lat="42.51519511453807353973388671875" lon="19.7689722664654254913330078125">
        <ele>1827</ele>
        <time>2026-06-18T11:02:39.000Z</time>
        <extensions>
          <ns3:TrackPointExtension>
            <ns3:atemp>22.0</ns3:atemp>
          </ns3:TrackPointExtension>
        </extensions>
      </trkpt>
      <trkpt lat="42.51519511453807353973388671875" lon="19.7689722664654254913330078125">
        <ele>1827</ele>
        <time>2026-06-18T11:02:40.000Z</time>
        <extensions>
          <ns3:TrackPointExtension>
            <ns3:atemp>22.0</ns3:atemp>
          </ns3:TrackPointExtension>
        </extensions>
      </trkpt>
      <trkpt lat="42.51519511453807353973388671875" lon="19.7689722664654254913330078125">
        <ele>1827</ele>
        <time>2026-06-18T11:02:41.000Z</time>
        <extensions>
          <ns3:TrackPointExtension>
            <ns3:atemp>22.0</ns3:atemp>
          </ns3:TrackPointExtension>
        </extensions>
      </trkpt>
      <trkpt lat="42.51519511453807353973388671875" lon="19.7689722664654254913330078125">
        <ele>1827</ele>
        <time>2026-06-18T11:02:42.000Z</time>
        <extensions>
          <ns3:TrackPointExtension>
            <ns3:atemp>22.0</ns3:atemp>
          </ns3:TrackPointExtension>
        </extensions>
      </trkpt>
      <trkpt lat="42.51519511453807353973388671875" lon="19.7689722664654254913330078125">
        <ele>1827</ele>
        <time>2026-06-18T11:02:43.000Z</time>
        <extensions>
          <ns3:TrackPointExtension>
            <ns3:atemp>22.0</ns3:atemp>
          </ns3:TrackPointExtension>
        </extensions>
      </trkpt>
      <trkpt lat="42.51519511453807353973388671875" lon="19.7689722664654254913330078125">
        <ele>1827</ele>
        <time>2026-06-18T11:02:44.000Z</time>
        <extensions>
          <ns3:TrackPointExtension>
            <ns3:atemp>22.0</ns3:atemp>
          </ns3:TrackPointExtension>
        </extensions>
      </trkpt>
      <trkpt lat="42.51519511453807353973388671875" lon="19.7689722664654254913330078125">
        <ele>1827</ele>
        <time>2026-06-18T11:02:45.000Z</time>
        <extensions>
          <ns3:TrackPointExtension>
            <ns3:atemp>22.0</ns3:atemp>
          </ns3:TrackPointExtension>
        </extensions>
      </trkpt>
      <trkpt lat="42.51519511453807353973388671875" lon="19.7689722664654254913330078125">
        <ele>1827</ele>
        <time>2026-06-18T11:02:46.000Z</time>
        <extensions>
          <ns3:TrackPointExtension>
            <ns3:atemp>22.0</ns3:atemp>
          </ns3:TrackPointExtension>
        </extensions>
      </trkpt>
      <trkpt lat="42.51519511453807353973388671875" lon="19.7689722664654254913330078125">
        <ele>1827</ele>
        <time>2026-06-18T11:02:47.000Z</time>
        <extensions>
          <ns3:TrackPointExtension>
            <ns3:atemp>22.0</ns3:atemp>
          </ns3:TrackPointExtension>
        </extensions>
      </trkpt>
      <trkpt lat="42.51519511453807353973388671875" lon="19.7689722664654254913330078125">
        <ele>1827</ele>
        <time>2026-06-18T11:02:48.000Z</time>
        <extensions>
          <ns3:TrackPointExtension>
            <ns3:atemp>22.0</ns3:atemp>
          </ns3:TrackPointExtension>
        </extensions>
      </trkpt>
      <trkpt lat="42.51519511453807353973388671875" lon="19.7689722664654254913330078125">
        <ele>1827</ele>
        <time>2026-06-18T11:02:49.000Z</time>
        <extensions>
          <ns3:TrackPointExtension>
            <ns3:atemp>22.0</ns3:atemp>
          </ns3:TrackPointExtension>
        </extensions>
      </trkpt>
      <trkpt lat="42.51519511453807353973388671875" lon="19.7689722664654254913330078125">
        <ele>1827</ele>
        <time>2026-06-18T11:02:50.000Z</time>
        <extensions>
          <ns3:TrackPointExtension>
            <ns3:atemp>22.0</ns3:atemp>
          </ns3:TrackPointExtension>
        </extensions>
      </trkpt>
      <trkpt lat="42.51519511453807353973388671875" lon="19.7689722664654254913330078125">
        <ele>1827</ele>
        <time>2026-06-18T11:02:51.000Z</time>
        <extensions>
          <ns3:TrackPointExtension>
            <ns3:atemp>22.0</ns3:atemp>
          </ns3:TrackPointExtension>
        </extensions>
      </trkpt>
      <trkpt lat="42.51519511453807353973388671875" lon="19.7689722664654254913330078125">
        <ele>1827</ele>
        <time>2026-06-18T11:02:52.000Z</time>
        <extensions>
          <ns3:TrackPointExtension>
            <ns3:atemp>22.0</ns3:atemp>
          </ns3:TrackPointExtension>
        </extensions>
      </trkpt>
      <trkpt lat="42.51519511453807353973388671875" lon="19.7689722664654254913330078125">
        <ele>1827</ele>
        <time>2026-06-18T11:02:53.000Z</time>
        <extensions>
          <ns3:TrackPointExtension>
            <ns3:atemp>22.0</ns3:atemp>
          </ns3:TrackPointExtension>
        </extensions>
      </trkpt>
      <trkpt lat="42.51519511453807353973388671875" lon="19.7689722664654254913330078125">
        <ele>1827</ele>
        <time>2026-06-18T11:02:54.000Z</time>
        <extensions>
          <ns3:TrackPointExtension>
            <ns3:atemp>22.0</ns3:atemp>
          </ns3:TrackPointExtension>
        </extensions>
      </trkpt>
      <trkpt lat="42.51519511453807353973388671875" lon="19.7689722664654254913330078125">
        <ele>1827</ele>
        <time>2026-06-18T11:02:55.000Z</time>
        <extensions>
          <ns3:TrackPointExtension>
            <ns3:atemp>22.0</ns3:atemp>
          </ns3:TrackPointExtension>
        </extensions>
      </trkpt>
      <trkpt lat="42.51519511453807353973388671875" lon="19.7689722664654254913330078125">
        <ele>1827</ele>
        <time>2026-06-18T11:02:56.000Z</time>
        <extensions>
          <ns3:TrackPointExtension>
            <ns3:atemp>22.0</ns3:atemp>
          </ns3:TrackPointExtension>
        </extensions>
      </trkpt>
      <trkpt lat="42.51519511453807353973388671875" lon="19.7689722664654254913330078125">
        <ele>1827</ele>
        <time>2026-06-18T11:02:57.000Z</time>
        <extensions>
          <ns3:TrackPointExtension>
            <ns3:atemp>22.0</ns3:atemp>
          </ns3:TrackPointExtension>
        </extensions>
      </trkpt>
      <trkpt lat="42.51519511453807353973388671875" lon="19.7689722664654254913330078125">
        <ele>1827</ele>
        <time>2026-06-18T11:02:58.000Z</time>
        <extensions>
          <ns3:TrackPointExtension>
            <ns3:atemp>22.0</ns3:atemp>
          </ns3:TrackPointExtension>
        </extensions>
      </trkpt>
      <trkpt lat="42.51519511453807353973388671875" lon="19.7689722664654254913330078125">
        <ele>1827</ele>
        <time>2026-06-18T11:02:59.000Z</time>
        <extensions>
          <ns3:TrackPointExtension>
            <ns3:atemp>22.0</ns3:atemp>
          </ns3:TrackPointExtension>
        </extensions>
      </trkpt>
      <trkpt lat="42.51519511453807353973388671875" lon="19.7689722664654254913330078125">
        <ele>1827</ele>
        <time>2026-06-18T11:03:00.000Z</time>
        <extensions>
          <ns3:TrackPointExtension>
            <ns3:atemp>22.0</ns3:atemp>
          </ns3:TrackPointExtension>
        </extensions>
      </trkpt>
      <trkpt lat="42.51519511453807353973388671875" lon="19.7689722664654254913330078125">
        <ele>1827</ele>
        <time>2026-06-18T11:03:01.000Z</time>
        <extensions>
          <ns3:TrackPointExtension>
            <ns3:atemp>22.0</ns3:atemp>
          </ns3:TrackPointExtension>
        </extensions>
      </trkpt>
      <trkpt lat="42.51519511453807353973388671875" lon="19.7689722664654254913330078125">
        <ele>1827</ele>
        <time>2026-06-18T11:03:02.000Z</time>
        <extensions>
          <ns3:TrackPointExtension>
            <ns3:atemp>22.0</ns3:atemp>
          </ns3:TrackPointExtension>
        </extensions>
      </trkpt>
      <trkpt lat="42.51519511453807353973388671875" lon="19.7689722664654254913330078125">
        <ele>1827</ele>
        <time>2026-06-18T11:03:03.000Z</time>
        <extensions>
          <ns3:TrackPointExtension>
            <ns3:atemp>22.0</ns3:atemp>
          </ns3:TrackPointExtension>
        </extensions>
      </trkpt>
      <trkpt lat="42.51519511453807353973388671875" lon="19.7689722664654254913330078125">
        <ele>1827</ele>
        <time>2026-06-18T11:03:04.000Z</time>
        <extensions>
          <ns3:TrackPointExtension>
            <ns3:atemp>22.0</ns3:atemp>
          </ns3:TrackPointExtension>
        </extensions>
      </trkpt>
      <trkpt lat="42.51519511453807353973388671875" lon="19.7689722664654254913330078125">
        <ele>1827</ele>
        <time>2026-06-18T11:03:05.000Z</time>
        <extensions>
          <ns3:TrackPointExtension>
            <ns3:atemp>22.0</ns3:atemp>
          </ns3:TrackPointExtension>
        </extensions>
      </trkpt>
      <trkpt lat="42.51519511453807353973388671875" lon="19.7689722664654254913330078125">
        <ele>1827</ele>
        <time>2026-06-18T11:03:06.000Z</time>
        <extensions>
          <ns3:TrackPointExtension>
            <ns3:atemp>22.0</ns3:atemp>
          </ns3:TrackPointExtension>
        </extensions>
      </trkpt>
      <trkpt lat="42.51519511453807353973388671875" lon="19.7689722664654254913330078125">
        <ele>1827</ele>
        <time>2026-06-18T11:03:07.000Z</time>
        <extensions>
          <ns3:TrackPointExtension>
            <ns3:atemp>22.0</ns3:atemp>
          </ns3:TrackPointExtension>
        </extensions>
      </trkpt>
      <trkpt lat="42.51519511453807353973388671875" lon="19.7689722664654254913330078125">
        <ele>1827</ele>
        <time>2026-06-18T11:03:08.000Z</time>
        <extensions>
          <ns3:TrackPointExtension>
            <ns3:atemp>22.0</ns3:atemp>
          </ns3:TrackPointExtension>
        </extensions>
      </trkpt>
      <trkpt lat="42.51519511453807353973388671875" lon="19.7689722664654254913330078125">
        <ele>1827</ele>
        <time>2026-06-18T11:03:09.000Z</time>
        <extensions>
          <ns3:TrackPointExtension>
            <ns3:atemp>22.0</ns3:atemp>
          </ns3:TrackPointExtension>
        </extensions>
      </trkpt>
      <trkpt lat="42.51519511453807353973388671875" lon="19.7689722664654254913330078125">
        <ele>1827</ele>
        <time>2026-06-18T11:03:10.000Z</time>
        <extensions>
          <ns3:TrackPointExtension>
            <ns3:atemp>22.0</ns3:atemp>
          </ns3:TrackPointExtension>
        </extensions>
      </trkpt>
      <trkpt lat="42.51519511453807353973388671875" lon="19.7689722664654254913330078125">
        <ele>1827</ele>
        <time>2026-06-18T11:03:11.000Z</time>
        <extensions>
          <ns3:TrackPointExtension>
            <ns3:atemp>22.0</ns3:atemp>
          </ns3:TrackPointExtension>
        </extensions>
      </trkpt>
      <trkpt lat="42.51519511453807353973388671875" lon="19.7689722664654254913330078125">
        <ele>1827</ele>
        <time>2026-06-18T11:03:12.000Z</time>
        <extensions>
          <ns3:TrackPointExtension>
            <ns3:atemp>22.0</ns3:atemp>
          </ns3:TrackPointExtension>
        </extensions>
      </trkpt>
      <trkpt lat="42.51519511453807353973388671875" lon="19.7689722664654254913330078125">
        <ele>1827</ele>
        <time>2026-06-18T11:03:13.000Z</time>
        <extensions>
          <ns3:TrackPointExtension>
            <ns3:atemp>22.0</ns3:atemp>
          </ns3:TrackPointExtension>
        </extensions>
      </trkpt>
      <trkpt lat="42.51519511453807353973388671875" lon="19.7689722664654254913330078125">
        <ele>1827</ele>
        <time>2026-06-18T11:03:14.000Z</time>
        <extensions>
          <ns3:TrackPointExtension>
            <ns3:atemp>22.0</ns3:atemp>
          </ns3:TrackPointExtension>
        </extensions>
      </trkpt>
      <trkpt lat="42.51519511453807353973388671875" lon="19.7689722664654254913330078125">
        <ele>1827</ele>
        <time>2026-06-18T11:03:15.000Z</time>
        <extensions>
          <ns3:TrackPointExtension>
            <ns3:atemp>22.0</ns3:atemp>
          </ns3:TrackPointExtension>
        </extensions>
      </trkpt>
      <trkpt lat="42.51519511453807353973388671875" lon="19.7689722664654254913330078125">
        <ele>1827</ele>
        <time>2026-06-18T11:03:16.000Z</time>
        <extensions>
          <ns3:TrackPointExtension>
            <ns3:atemp>22.0</ns3:atemp>
          </ns3:TrackPointExtension>
        </extensions>
      </trkpt>
      <trkpt lat="42.51519511453807353973388671875" lon="19.7689722664654254913330078125">
        <ele>1827</ele>
        <time>2026-06-18T11:03:17.000Z</time>
        <extensions>
          <ns3:TrackPointExtension>
            <ns3:atemp>22.0</ns3:atemp>
          </ns3:TrackPointExtension>
        </extensions>
      </trkpt>
      <trkpt lat="42.51519511453807353973388671875" lon="19.7689722664654254913330078125">
        <ele>1827</ele>
        <time>2026-06-18T11:03:18.000Z</time>
        <extensions>
          <ns3:TrackPointExtension>
            <ns3:atemp>22.0</ns3:atemp>
          </ns3:TrackPointExtension>
        </extensions>
      </trkpt>
      <trkpt lat="42.51519511453807353973388671875" lon="19.7689722664654254913330078125">
        <ele>1827</ele>
        <time>2026-06-18T11:03:19.000Z</time>
        <extensions>
          <ns3:TrackPointExtension>
            <ns3:atemp>22.0</ns3:atemp>
          </ns3:TrackPointExtension>
        </extensions>
      </trkpt>
      <trkpt lat="42.51519511453807353973388671875" lon="19.7689722664654254913330078125">
        <ele>1827</ele>
        <time>2026-06-18T11:03:20.000Z</time>
        <extensions>
          <ns3:TrackPointExtension>
            <ns3:atemp>22.0</ns3:atemp>
          </ns3:TrackPointExtension>
        </extensions>
      </trkpt>
      <trkpt lat="42.51519511453807353973388671875" lon="19.7689722664654254913330078125">
        <ele>1827</ele>
        <time>2026-06-18T11:03:21.000Z</time>
        <extensions>
          <ns3:TrackPointExtension>
            <ns3:atemp>22.0</ns3:atemp>
          </ns3:TrackPointExtension>
        </extensions>
      </trkpt>
      <trkpt lat="42.51519511453807353973388671875" lon="19.7689722664654254913330078125">
        <ele>1827</ele>
        <time>2026-06-18T11:03:22.000Z</time>
        <extensions>
          <ns3:TrackPointExtension>
            <ns3:atemp>22.0</ns3:atemp>
          </ns3:TrackPointExtension>
        </extensions>
      </trkpt>
      <trkpt lat="42.51519511453807353973388671875" lon="19.7689722664654254913330078125">
        <ele>1827</ele>
        <time>2026-06-18T11:03:23.000Z</time>
        <extensions>
          <ns3:TrackPointExtension>
            <ns3:atemp>22.0</ns3:atemp>
          </ns3:TrackPointExtension>
        </extensions>
      </trkpt>
      <trkpt lat="42.51519511453807353973388671875" lon="19.7689722664654254913330078125">
        <ele>1827</ele>
        <time>2026-06-18T11:03:24.000Z</time>
        <extensions>
          <ns3:TrackPointExtension>
            <ns3:atemp>22.0</ns3:atemp>
          </ns3:TrackPointExtension>
        </extensions>
      </trkpt>
      <trkpt lat="42.51519511453807353973388671875" lon="19.7689722664654254913330078125">
        <ele>1827</ele>
        <time>2026-06-18T11:03:25.000Z</time>
        <extensions>
          <ns3:TrackPointExtension>
            <ns3:atemp>22.0</ns3:atemp>
          </ns3:TrackPointExtension>
        </extensions>
      </trkpt>
      <trkpt lat="42.51519511453807353973388671875" lon="19.7689722664654254913330078125">
        <ele>1827</ele>
        <time>2026-06-18T11:03:26.000Z</time>
        <extensions>
          <ns3:TrackPointExtension>
            <ns3:atemp>22.0</ns3:atemp>
          </ns3:TrackPointExtension>
        </extensions>
      </trkpt>
      <trkpt lat="42.51519511453807353973388671875" lon="19.7689722664654254913330078125">
        <ele>1827</ele>
        <time>2026-06-18T11:03:27.000Z</time>
        <extensions>
          <ns3:TrackPointExtension>
            <ns3:atemp>22.0</ns3:atemp>
          </ns3:TrackPointExtension>
        </extensions>
      </trkpt>
      <trkpt lat="42.51519511453807353973388671875" lon="19.7689722664654254913330078125">
        <ele>1827</ele>
        <time>2026-06-18T11:03:28.000Z</time>
        <extensions>
          <ns3:TrackPointExtension>
            <ns3:atemp>22.0</ns3:atemp>
          </ns3:TrackPointExtension>
        </extensions>
      </trkpt>
      <trkpt lat="42.51519511453807353973388671875" lon="19.7689722664654254913330078125">
        <ele>1827</ele>
        <time>2026-06-18T11:03:29.000Z</time>
        <extensions>
          <ns3:TrackPointExtension>
            <ns3:atemp>22.0</ns3:atemp>
          </ns3:TrackPointExtension>
        </extensions>
      </trkpt>
      <trkpt lat="42.51519511453807353973388671875" lon="19.7689722664654254913330078125">
        <ele>1827</ele>
        <time>2026-06-18T11:03:30.000Z</time>
        <extensions>
          <ns3:TrackPointExtension>
            <ns3:atemp>22.0</ns3:atemp>
          </ns3:TrackPointExtension>
        </extensions>
      </trkpt>
      <trkpt lat="42.51519511453807353973388671875" lon="19.7689722664654254913330078125">
        <ele>1827</ele>
        <time>2026-06-18T11:03:31.000Z</time>
        <extensions>
          <ns3:TrackPointExtension>
            <ns3:atemp>22.0</ns3:atemp>
          </ns3:TrackPointExtension>
        </extensions>
      </trkpt>
      <trkpt lat="42.51519511453807353973388671875" lon="19.7689722664654254913330078125">
        <ele>1827</ele>
        <time>2026-06-18T11:03:32.000Z</time>
        <extensions>
          <ns3:TrackPointExtension>
            <ns3:atemp>22.0</ns3:atemp>
          </ns3:TrackPointExtension>
        </extensions>
      </trkpt>
      <trkpt lat="42.51519511453807353973388671875" lon="19.7689722664654254913330078125">
        <ele>1827</ele>
        <time>2026-06-18T11:03:33.000Z</time>
        <extensions>
          <ns3:TrackPointExtension>
            <ns3:atemp>22.0</ns3:atemp>
          </ns3:TrackPointExtension>
        </extensions>
      </trkpt>
      <trkpt lat="42.51519511453807353973388671875" lon="19.7689722664654254913330078125">
        <ele>1827</ele>
        <time>2026-06-18T11:03:34.000Z</time>
        <extensions>
          <ns3:TrackPointExtension>
            <ns3:atemp>22.0</ns3:atemp>
          </ns3:TrackPointExtension>
        </extensions>
      </trkpt>
      <trkpt lat="42.51519511453807353973388671875" lon="19.7689722664654254913330078125">
        <ele>1827</ele>
        <time>2026-06-18T11:03:35.000Z</time>
        <extensions>
          <ns3:TrackPointExtension>
            <ns3:atemp>22.0</ns3:atemp>
          </ns3:TrackPointExtension>
        </extensions>
      </trkpt>
      <trkpt lat="42.51519511453807353973388671875" lon="19.7689722664654254913330078125">
        <ele>1827</ele>
        <time>2026-06-18T11:03:36.000Z</time>
        <extensions>
          <ns3:TrackPointExtension>
            <ns3:atemp>22.0</ns3:atemp>
          </ns3:TrackPointExtension>
        </extensions>
      </trkpt>
      <trkpt lat="42.51519511453807353973388671875" lon="19.7689722664654254913330078125">
        <ele>1827</ele>
        <time>2026-06-18T11:03:37.000Z</time>
        <extensions>
          <ns3:TrackPointExtension>
            <ns3:atemp>22.0</ns3:atemp>
          </ns3:TrackPointExtension>
        </extensions>
      </trkpt>
      <trkpt lat="42.51519511453807353973388671875" lon="19.7689722664654254913330078125">
        <ele>1827</ele>
        <time>2026-06-18T11:03:38.000Z</time>
        <extensions>
          <ns3:TrackPointExtension>
            <ns3:atemp>22.0</ns3:atemp>
          </ns3:TrackPointExtension>
        </extensions>
      </trkpt>
      <trkpt lat="42.51519511453807353973388671875" lon="19.7689722664654254913330078125">
        <ele>1827</ele>
        <time>2026-06-18T11:03:39.000Z</time>
        <extensions>
          <ns3:TrackPointExtension>
            <ns3:atemp>22.0</ns3:atemp>
          </ns3:TrackPointExtension>
        </extensions>
      </trkpt>
      <trkpt lat="42.51519511453807353973388671875" lon="19.7689722664654254913330078125">
        <ele>1827</ele>
        <time>2026-06-18T11:03:40.000Z</time>
        <extensions>
          <ns3:TrackPointExtension>
            <ns3:atemp>22.0</ns3:atemp>
          </ns3:TrackPointExtension>
        </extensions>
      </trkpt>
      <trkpt lat="42.51519511453807353973388671875" lon="19.7689722664654254913330078125">
        <ele>1827</ele>
        <time>2026-06-18T11:03:41.000Z</time>
        <extensions>
          <ns3:TrackPointExtension>
            <ns3:atemp>22.0</ns3:atemp>
          </ns3:TrackPointExtension>
        </extensions>
      </trkpt>
      <trkpt lat="42.51519511453807353973388671875" lon="19.7689722664654254913330078125">
        <ele>1827</ele>
        <time>2026-06-18T11:03:42.000Z</time>
        <extensions>
          <ns3:TrackPointExtension>
            <ns3:atemp>22.0</ns3:atemp>
          </ns3:TrackPointExtension>
        </extensions>
      </trkpt>
      <trkpt lat="42.51519511453807353973388671875" lon="19.7689722664654254913330078125">
        <ele>1827</ele>
        <time>2026-06-18T11:03:43.000Z</time>
        <extensions>
          <ns3:TrackPointExtension>
            <ns3:atemp>22.0</ns3:atemp>
          </ns3:TrackPointExtension>
        </extensions>
      </trkpt>
      <trkpt lat="42.51519511453807353973388671875" lon="19.7689722664654254913330078125">
        <ele>1827</ele>
        <time>2026-06-18T11:03:44.000Z</time>
        <extensions>
          <ns3:TrackPointExtension>
            <ns3:atemp>22.0</ns3:atemp>
          </ns3:TrackPointExtension>
        </extensions>
      </trkpt>
      <trkpt lat="42.51519511453807353973388671875" lon="19.7689722664654254913330078125">
        <ele>1827</ele>
        <time>2026-06-18T11:03:45.000Z</time>
        <extensions>
          <ns3:TrackPointExtension>
            <ns3:atemp>22.0</ns3:atemp>
          </ns3:TrackPointExtension>
        </extensions>
      </trkpt>
      <trkpt lat="42.51519511453807353973388671875" lon="19.7689722664654254913330078125">
        <ele>1827</ele>
        <time>2026-06-18T11:03:46.000Z</time>
        <extensions>
          <ns3:TrackPointExtension>
            <ns3:atemp>22.0</ns3:atemp>
          </ns3:TrackPointExtension>
        </extensions>
      </trkpt>
      <trkpt lat="42.51519511453807353973388671875" lon="19.7689722664654254913330078125">
        <ele>1827</ele>
        <time>2026-06-18T11:03:47.000Z</time>
        <extensions>
          <ns3:TrackPointExtension>
            <ns3:atemp>22.0</ns3:atemp>
          </ns3:TrackPointExtension>
        </extensions>
      </trkpt>
      <trkpt lat="42.51519511453807353973388671875" lon="19.7689722664654254913330078125">
        <ele>1827</ele>
        <time>2026-06-18T11:03:48.000Z</time>
        <extensions>
          <ns3:TrackPointExtension>
            <ns3:atemp>22.0</ns3:atemp>
          </ns3:TrackPointExtension>
        </extensions>
      </trkpt>
      <trkpt lat="42.51519511453807353973388671875" lon="19.7689722664654254913330078125">
        <ele>1827</ele>
        <time>2026-06-18T11:03:49.000Z</time>
        <extensions>
          <ns3:TrackPointExtension>
            <ns3:atemp>22.0</ns3:atemp>
          </ns3:TrackPointExtension>
        </extensions>
      </trkpt>
      <trkpt lat="42.51519511453807353973388671875" lon="19.7689722664654254913330078125">
        <ele>1827</ele>
        <time>2026-06-18T11:03:50.000Z</time>
        <extensions>
          <ns3:TrackPointExtension>
            <ns3:atemp>22.0</ns3:atemp>
          </ns3:TrackPointExtension>
        </extensions>
      </trkpt>
      <trkpt lat="42.51519511453807353973388671875" lon="19.7689722664654254913330078125">
        <ele>1827</ele>
        <time>2026-06-18T11:03:51.000Z</time>
        <extensions>
          <ns3:TrackPointExtension>
            <ns3:atemp>22.0</ns3:atemp>
          </ns3:TrackPointExtension>
        </extensions>
      </trkpt>
      <trkpt lat="42.51519511453807353973388671875" lon="19.7689722664654254913330078125">
        <ele>1827</ele>
        <time>2026-06-18T11:03:52.000Z</time>
        <extensions>
          <ns3:TrackPointExtension>
            <ns3:atemp>22.0</ns3:atemp>
          </ns3:TrackPointExtension>
        </extensions>
      </trkpt>
      <trkpt lat="42.51519511453807353973388671875" lon="19.7689722664654254913330078125">
        <ele>1827</ele>
        <time>2026-06-18T11:03:53.000Z</time>
        <extensions>
          <ns3:TrackPointExtension>
            <ns3:atemp>22.0</ns3:atemp>
          </ns3:TrackPointExtension>
        </extensions>
      </trkpt>
      <trkpt lat="42.51519511453807353973388671875" lon="19.7689722664654254913330078125">
        <ele>1827</ele>
        <time>2026-06-18T11:03:54.000Z</time>
        <extensions>
          <ns3:TrackPointExtension>
            <ns3:atemp>22.0</ns3:atemp>
          </ns3:TrackPointExtension>
        </extensions>
      </trkpt>
      <trkpt lat="42.51519511453807353973388671875" lon="19.7689722664654254913330078125">
        <ele>1827</ele>
        <time>2026-06-18T11:03:55.000Z</time>
        <extensions>
          <ns3:TrackPointExtension>
            <ns3:atemp>22.0</ns3:atemp>
          </ns3:TrackPointExtension>
        </extensions>
      </trkpt>
      <trkpt lat="42.51519511453807353973388671875" lon="19.7689722664654254913330078125">
        <ele>1827</ele>
        <time>2026-06-18T11:03:56.000Z</time>
        <extensions>
          <ns3:TrackPointExtension>
            <ns3:atemp>22.0</ns3:atemp>
          </ns3:TrackPointExtension>
        </extensions>
      </trkpt>
      <trkpt lat="42.51519511453807353973388671875" lon="19.7689722664654254913330078125">
        <ele>1827</ele>
        <time>2026-06-18T11:03:57.000Z</time>
        <extensions>
          <ns3:TrackPointExtension>
            <ns3:atemp>22.0</ns3:atemp>
          </ns3:TrackPointExtension>
        </extensions>
      </trkpt>
      <trkpt lat="42.51519511453807353973388671875" lon="19.7689722664654254913330078125">
        <ele>1827</ele>
        <time>2026-06-18T11:03:58.000Z</time>
        <extensions>
          <ns3:TrackPointExtension>
            <ns3:atemp>22.0</ns3:atemp>
          </ns3:TrackPointExtension>
        </extensions>
      </trkpt>
      <trkpt lat="42.51519511453807353973388671875" lon="19.7689722664654254913330078125">
        <ele>1827</ele>
        <time>2026-06-18T11:03:59.000Z</time>
        <extensions>
          <ns3:TrackPointExtension>
            <ns3:atemp>22.0</ns3:atemp>
          </ns3:TrackPointExtension>
        </extensions>
      </trkpt>
      <trkpt lat="42.51519511453807353973388671875" lon="19.7689722664654254913330078125">
        <ele>1827</ele>
        <time>2026-06-18T11:04:00.000Z</time>
        <extensions>
          <ns3:TrackPointExtension>
            <ns3:atemp>22.0</ns3:atemp>
          </ns3:TrackPointExtension>
        </extensions>
      </trkpt>
      <trkpt lat="42.51519511453807353973388671875" lon="19.7689722664654254913330078125">
        <ele>1827</ele>
        <time>2026-06-18T11:04:01.000Z</time>
        <extensions>
          <ns3:TrackPointExtension>
            <ns3:atemp>22.0</ns3:atemp>
          </ns3:TrackPointExtension>
        </extensions>
      </trkpt>
      <trkpt lat="42.51519511453807353973388671875" lon="19.7689722664654254913330078125">
        <ele>1827</ele>
        <time>2026-06-18T11:04:02.000Z</time>
        <extensions>
          <ns3:TrackPointExtension>
            <ns3:atemp>22.0</ns3:atemp>
          </ns3:TrackPointExtension>
        </extensions>
      </trkpt>
      <trkpt lat="42.51519511453807353973388671875" lon="19.7689722664654254913330078125">
        <ele>1827</ele>
        <time>2026-06-18T11:04:03.000Z</time>
        <extensions>
          <ns3:TrackPointExtension>
            <ns3:atemp>22.0</ns3:atemp>
          </ns3:TrackPointExtension>
        </extensions>
      </trkpt>
      <trkpt lat="42.51519511453807353973388671875" lon="19.7689722664654254913330078125">
        <ele>1827</ele>
        <time>2026-06-18T11:04:04.000Z</time>
        <extensions>
          <ns3:TrackPointExtension>
            <ns3:atemp>22.0</ns3:atemp>
          </ns3:TrackPointExtension>
        </extensions>
      </trkpt>
      <trkpt lat="42.51519511453807353973388671875" lon="19.7689722664654254913330078125">
        <ele>1827</ele>
        <time>2026-06-18T11:04:05.000Z</time>
        <extensions>
          <ns3:TrackPointExtension>
            <ns3:atemp>22.0</ns3:atemp>
          </ns3:TrackPointExtension>
        </extensions>
      </trkpt>
      <trkpt lat="42.51519511453807353973388671875" lon="19.7689722664654254913330078125">
        <ele>1827</ele>
        <time>2026-06-18T11:04:06.000Z</time>
        <extensions>
          <ns3:TrackPointExtension>
            <ns3:atemp>22.0</ns3:atemp>
          </ns3:TrackPointExtension>
        </extensions>
      </trkpt>
      <trkpt lat="42.51519511453807353973388671875" lon="19.7689722664654254913330078125">
        <ele>1827</ele>
        <time>2026-06-18T11:04:07.000Z</time>
        <extensions>
          <ns3:TrackPointExtension>
            <ns3:atemp>22.0</ns3:atemp>
          </ns3:TrackPointExtension>
        </extensions>
      </trkpt>
      <trkpt lat="42.51519511453807353973388671875" lon="19.7689722664654254913330078125">
        <ele>1827</ele>
        <time>2026-06-18T11:04:08.000Z</time>
        <extensions>
          <ns3:TrackPointExtension>
            <ns3:atemp>22.0</ns3:atemp>
          </ns3:TrackPointExtension>
        </extensions>
      </trkpt>
      <trkpt lat="42.51519511453807353973388671875" lon="19.7689722664654254913330078125">
        <ele>1827</ele>
        <time>2026-06-18T11:04:09.000Z</time>
        <extensions>
          <ns3:TrackPointExtension>
            <ns3:atemp>22.0</ns3:atemp>
          </ns3:TrackPointExtension>
        </extensions>
      </trkpt>
      <trkpt lat="42.51519511453807353973388671875" lon="19.7689722664654254913330078125">
        <ele>1827</ele>
        <time>2026-06-18T11:04:10.000Z</time>
        <extensions>
          <ns3:TrackPointExtension>
            <ns3:atemp>22.0</ns3:atemp>
          </ns3:TrackPointExtension>
        </extensions>
      </trkpt>
      <trkpt lat="42.51519511453807353973388671875" lon="19.7689722664654254913330078125">
        <ele>1827</ele>
        <time>2026-06-18T11:04:11.000Z</time>
        <extensions>
          <ns3:TrackPointExtension>
            <ns3:atemp>22.0</ns3:atemp>
          </ns3:TrackPointExtension>
        </extensions>
      </trkpt>
      <trkpt lat="42.51519511453807353973388671875" lon="19.7689722664654254913330078125">
        <ele>1827</ele>
        <time>2026-06-18T11:04:12.000Z</time>
        <extensions>
          <ns3:TrackPointExtension>
            <ns3:atemp>22.0</ns3:atemp>
          </ns3:TrackPointExtension>
        </extensions>
      </trkpt>
      <trkpt lat="42.51519511453807353973388671875" lon="19.7689722664654254913330078125">
        <ele>1827</ele>
        <time>2026-06-18T11:04:13.000Z</time>
        <extensions>
          <ns3:TrackPointExtension>
            <ns3:atemp>22.0</ns3:atemp>
          </ns3:TrackPointExtension>
        </extensions>
      </trkpt>
      <trkpt lat="42.51519511453807353973388671875" lon="19.7689722664654254913330078125">
        <ele>1827</ele>
        <time>2026-06-18T11:04:14.000Z</time>
        <extensions>
          <ns3:TrackPointExtension>
            <ns3:atemp>22.0</ns3:atemp>
          </ns3:TrackPointExtension>
        </extensions>
      </trkpt>
      <trkpt lat="42.51519511453807353973388671875" lon="19.7689722664654254913330078125">
        <ele>1827</ele>
        <time>2026-06-18T11:04:15.000Z</time>
        <extensions>
          <ns3:TrackPointExtension>
            <ns3:atemp>22.0</ns3:atemp>
          </ns3:TrackPointExtension>
        </extensions>
      </trkpt>
      <trkpt lat="42.51519511453807353973388671875" lon="19.7689722664654254913330078125">
        <ele>1827</ele>
        <time>2026-06-18T11:04:16.000Z</time>
        <extensions>
          <ns3:TrackPointExtension>
            <ns3:atemp>22.0</ns3:atemp>
          </ns3:TrackPointExtension>
        </extensions>
      </trkpt>
      <trkpt lat="42.51519511453807353973388671875" lon="19.7689722664654254913330078125">
        <ele>1827</ele>
        <time>2026-06-18T11:04:17.000Z</time>
        <extensions>
          <ns3:TrackPointExtension>
            <ns3:atemp>22.0</ns3:atemp>
          </ns3:TrackPointExtension>
        </extensions>
      </trkpt>
      <trkpt lat="42.51519511453807353973388671875" lon="19.7689722664654254913330078125">
        <ele>1827</ele>
        <time>2026-06-18T11:04:18.000Z</time>
        <extensions>
          <ns3:TrackPointExtension>
            <ns3:atemp>22.0</ns3:atemp>
          </ns3:TrackPointExtension>
        </extensions>
      </trkpt>
      <trkpt lat="42.51519511453807353973388671875" lon="19.7689722664654254913330078125">
        <ele>1827</ele>
        <time>2026-06-18T11:04:19.000Z</time>
        <extensions>
          <ns3:TrackPointExtension>
            <ns3:atemp>22.0</ns3:atemp>
          </ns3:TrackPointExtension>
        </extensions>
      </trkpt>
      <trkpt lat="42.51519511453807353973388671875" lon="19.7689722664654254913330078125">
        <ele>1827</ele>
        <time>2026-06-18T11:04:20.000Z</time>
        <extensions>
          <ns3:TrackPointExtension>
            <ns3:atemp>22.0</ns3:atemp>
          </ns3:TrackPointExtension>
        </extensions>
      </trkpt>
      <trkpt lat="42.51519511453807353973388671875" lon="19.7689722664654254913330078125">
        <ele>1827</ele>
        <time>2026-06-18T11:04:21.000Z</time>
        <extensions>
          <ns3:TrackPointExtension>
            <ns3:atemp>22.0</ns3:atemp>
          </ns3:TrackPointExtension>
        </extensions>
      </trkpt>
      <trkpt lat="42.51519511453807353973388671875" lon="19.7689722664654254913330078125">
        <ele>1827</ele>
        <time>2026-06-18T11:04:22.000Z</time>
        <extensions>
          <ns3:TrackPointExtension>
            <ns3:atemp>22.0</ns3:atemp>
          </ns3:TrackPointExtension>
        </extensions>
      </trkpt>
      <trkpt lat="42.51519511453807353973388671875" lon="19.7689722664654254913330078125">
        <ele>1827</ele>
        <time>2026-06-18T11:04:23.000Z</time>
        <extensions>
          <ns3:TrackPointExtension>
            <ns3:atemp>22.0</ns3:atemp>
          </ns3:TrackPointExtension>
        </extensions>
      </trkpt>
      <trkpt lat="42.51519511453807353973388671875" lon="19.7689722664654254913330078125">
        <ele>1827</ele>
        <time>2026-06-18T11:04:24.000Z</time>
        <extensions>
          <ns3:TrackPointExtension>
            <ns3:atemp>22.0</ns3:atemp>
          </ns3:TrackPointExtension>
        </extensions>
      </trkpt>
      <trkpt lat="42.51519511453807353973388671875" lon="19.7689722664654254913330078125">
        <ele>1827</ele>
        <time>2026-06-18T11:04:25.000Z</time>
        <extensions>
          <ns3:TrackPointExtension>
            <ns3:atemp>22.0</ns3:atemp>
          </ns3:TrackPointExtension>
        </extensions>
      </trkpt>
      <trkpt lat="42.51519511453807353973388671875" lon="19.7689722664654254913330078125">
        <ele>1827</ele>
        <time>2026-06-18T11:04:26.000Z</time>
        <extensions>
          <ns3:TrackPointExtension>
            <ns3:atemp>22.0</ns3:atemp>
          </ns3:TrackPointExtension>
        </extensions>
      </trkpt>
      <trkpt lat="42.51519511453807353973388671875" lon="19.7689722664654254913330078125">
        <ele>1827</ele>
        <time>2026-06-18T11:04:27.000Z</time>
        <extensions>
          <ns3:TrackPointExtension>
            <ns3:atemp>22.0</ns3:atemp>
          </ns3:TrackPointExtension>
        </extensions>
      </trkpt>
      <trkpt lat="42.51519511453807353973388671875" lon="19.7689722664654254913330078125">
        <ele>1827</ele>
        <time>2026-06-18T11:04:28.000Z</time>
        <extensions>
          <ns3:TrackPointExtension>
            <ns3:atemp>22.0</ns3:atemp>
          </ns3:TrackPointExtension>
        </extensions>
      </trkpt>
      <trkpt lat="42.51519511453807353973388671875" lon="19.7689722664654254913330078125">
        <ele>1827</ele>
        <time>2026-06-18T11:04:29.000Z</time>
        <extensions>
          <ns3:TrackPointExtension>
            <ns3:atemp>22.0</ns3:atemp>
          </ns3:TrackPointExtension>
        </extensions>
      </trkpt>
      <trkpt lat="42.51519511453807353973388671875" lon="19.7689722664654254913330078125">
        <ele>1827</ele>
        <time>2026-06-18T11:04:30.000Z</time>
        <extensions>
          <ns3:TrackPointExtension>
            <ns3:atemp>22.0</ns3:atemp>
          </ns3:TrackPointExtension>
        </extensions>
      </trkpt>
      <trkpt lat="42.51519511453807353973388671875" lon="19.7689722664654254913330078125">
        <ele>1827</ele>
        <time>2026-06-18T11:04:31.000Z</time>
        <extensions>
          <ns3:TrackPointExtension>
            <ns3:atemp>22.0</ns3:atemp>
          </ns3:TrackPointExtension>
        </extensions>
      </trkpt>
      <trkpt lat="42.51519511453807353973388671875" lon="19.7689722664654254913330078125">
        <ele>1827</ele>
        <time>2026-06-18T11:04:32.000Z</time>
        <extensions>
          <ns3:TrackPointExtension>
            <ns3:atemp>22.0</ns3:atemp>
          </ns3:TrackPointExtension>
        </extensions>
      </trkpt>
      <trkpt lat="42.51519511453807353973388671875" lon="19.7689722664654254913330078125">
        <ele>1827</ele>
        <time>2026-06-18T11:04:33.000Z</time>
        <extensions>
          <ns3:TrackPointExtension>
            <ns3:atemp>22.0</ns3:atemp>
          </ns3:TrackPointExtension>
        </extensions>
      </trkpt>
      <trkpt lat="42.51519511453807353973388671875" lon="19.7689722664654254913330078125">
        <ele>1827</ele>
        <time>2026-06-18T11:04:34.000Z</time>
        <extensions>
          <ns3:TrackPointExtension>
            <ns3:atemp>22.0</ns3:atemp>
          </ns3:TrackPointExtension>
        </extensions>
      </trkpt>
      <trkpt lat="42.51519511453807353973388671875" lon="19.7689722664654254913330078125">
        <ele>1827</ele>
        <time>2026-06-18T11:04:35.000Z</time>
        <extensions>
          <ns3:TrackPointExtension>
            <ns3:atemp>22.0</ns3:atemp>
          </ns3:TrackPointExtension>
        </extensions>
      </trkpt>
      <trkpt lat="42.51519511453807353973388671875" lon="19.7689722664654254913330078125">
        <ele>1827</ele>
        <time>2026-06-18T11:04:36.000Z</time>
        <extensions>
          <ns3:TrackPointExtension>
            <ns3:atemp>22.0</ns3:atemp>
          </ns3:TrackPointExtension>
        </extensions>
      </trkpt>
      <trkpt lat="42.51519511453807353973388671875" lon="19.7689722664654254913330078125">
        <ele>1827</ele>
        <time>2026-06-18T11:04:37.000Z</time>
        <extensions>
          <ns3:TrackPointExtension>
            <ns3:atemp>22.0</ns3:atemp>
          </ns3:TrackPointExtension>
        </extensions>
      </trkpt>
      <trkpt lat="42.51519511453807353973388671875" lon="19.7689722664654254913330078125">
        <ele>1827</ele>
        <time>2026-06-18T11:04:38.000Z</time>
        <extensions>
          <ns3:TrackPointExtension>
            <ns3:atemp>22.0</ns3:atemp>
          </ns3:TrackPointExtension>
        </extensions>
      </trkpt>
      <trkpt lat="42.51519511453807353973388671875" lon="19.7689722664654254913330078125">
        <ele>1827</ele>
        <time>2026-06-18T11:04:39.000Z</time>
        <extensions>
          <ns3:TrackPointExtension>
            <ns3:atemp>22.0</ns3:atemp>
          </ns3:TrackPointExtension>
        </extensions>
      </trkpt>
      <trkpt lat="42.51519511453807353973388671875" lon="19.7689722664654254913330078125">
        <ele>1827</ele>
        <time>2026-06-18T11:04:40.000Z</time>
        <extensions>
          <ns3:TrackPointExtension>
            <ns3:atemp>22.0</ns3:atemp>
          </ns3:TrackPointExtension>
        </extensions>
      </trkpt>
      <trkpt lat="42.51519511453807353973388671875" lon="19.7689722664654254913330078125">
        <ele>1827</ele>
        <time>2026-06-18T11:04:41.000Z</time>
        <extensions>
          <ns3:TrackPointExtension>
            <ns3:atemp>22.0</ns3:atemp>
          </ns3:TrackPointExtension>
        </extensions>
      </trkpt>
      <trkpt lat="42.51519511453807353973388671875" lon="19.7689722664654254913330078125">
        <ele>1827</ele>
        <time>2026-06-18T11:04:42.000Z</time>
        <extensions>
          <ns3:TrackPointExtension>
            <ns3:atemp>22.0</ns3:atemp>
          </ns3:TrackPointExtension>
        </extensions>
      </trkpt>
      <trkpt lat="42.51519511453807353973388671875" lon="19.7689722664654254913330078125">
        <ele>1827</ele>
        <time>2026-06-18T11:04:43.000Z</time>
        <extensions>
          <ns3:TrackPointExtension>
            <ns3:atemp>22.0</ns3:atemp>
          </ns3:TrackPointExtension>
        </extensions>
      </trkpt>
      <trkpt lat="42.51519511453807353973388671875" lon="19.7689722664654254913330078125">
        <ele>1827</ele>
        <time>2026-06-18T11:04:44.000Z</time>
        <extensions>
          <ns3:TrackPointExtension>
            <ns3:atemp>22.0</ns3:atemp>
          </ns3:TrackPointExtension>
        </extensions>
      </trkpt>
      <trkpt lat="42.51519511453807353973388671875" lon="19.7689722664654254913330078125">
        <ele>1827</ele>
        <time>2026-06-18T11:04:45.000Z</time>
        <extensions>
          <ns3:TrackPointExtension>
            <ns3:atemp>22.0</ns3:atemp>
          </ns3:TrackPointExtension>
        </extensions>
      </trkpt>
      <trkpt lat="42.51519511453807353973388671875" lon="19.7689722664654254913330078125">
        <ele>1827</ele>
        <time>2026-06-18T11:04:46.000Z</time>
        <extensions>
          <ns3:TrackPointExtension>
            <ns3:atemp>22.0</ns3:atemp>
          </ns3:TrackPointExtension>
        </extensions>
      </trkpt>
      <trkpt lat="42.51519511453807353973388671875" lon="19.7689722664654254913330078125">
        <ele>1827</ele>
        <time>2026-06-18T11:04:47.000Z</time>
        <extensions>
          <ns3:TrackPointExtension>
            <ns3:atemp>22.0</ns3:atemp>
          </ns3:TrackPointExtension>
        </extensions>
      </trkpt>
      <trkpt lat="42.51519511453807353973388671875" lon="19.7689722664654254913330078125">
        <ele>1827</ele>
        <time>2026-06-18T11:04:48.000Z</time>
        <extensions>
          <ns3:TrackPointExtension>
            <ns3:atemp>22.0</ns3:atemp>
          </ns3:TrackPointExtension>
        </extensions>
      </trkpt>
      <trkpt lat="42.51519511453807353973388671875" lon="19.7689722664654254913330078125">
        <ele>1827</ele>
        <time>2026-06-18T11:04:49.000Z</time>
        <extensions>
          <ns3:TrackPointExtension>
            <ns3:atemp>22.0</ns3:atemp>
          </ns3:TrackPointExtension>
        </extensions>
      </trkpt>
      <trkpt lat="42.51519511453807353973388671875" lon="19.7689722664654254913330078125">
        <ele>1827</ele>
        <time>2026-06-18T11:04:50.000Z</time>
        <extensions>
          <ns3:TrackPointExtension>
            <ns3:atemp>22.0</ns3:atemp>
          </ns3:TrackPointExtension>
        </extensions>
      </trkpt>
      <trkpt lat="42.51519511453807353973388671875" lon="19.7689722664654254913330078125">
        <ele>1827</ele>
        <time>2026-06-18T11:04:51.000Z</time>
        <extensions>
          <ns3:TrackPointExtension>
            <ns3:atemp>22.0</ns3:atemp>
          </ns3:TrackPointExtension>
        </extensions>
      </trkpt>
      <trkpt lat="42.51519511453807353973388671875" lon="19.7689722664654254913330078125">
        <ele>1827</ele>
        <time>2026-06-18T11:04:52.000Z</time>
        <extensions>
          <ns3:TrackPointExtension>
            <ns3:atemp>22.0</ns3:atemp>
          </ns3:TrackPointExtension>
        </extensions>
      </trkpt>
      <trkpt lat="42.51519511453807353973388671875" lon="19.7689722664654254913330078125">
        <ele>1827</ele>
        <time>2026-06-18T11:04:53.000Z</time>
        <extensions>
          <ns3:TrackPointExtension>
            <ns3:atemp>22.0</ns3:atemp>
          </ns3:TrackPointExtension>
        </extensions>
      </trkpt>
      <trkpt lat="42.51519511453807353973388671875" lon="19.7689722664654254913330078125">
        <ele>1827</ele>
        <time>2026-06-18T11:04:54.000Z</time>
        <extensions>
          <ns3:TrackPointExtension>
            <ns3:atemp>22.0</ns3:atemp>
          </ns3:TrackPointExtension>
        </extensions>
      </trkpt>
      <trkpt lat="42.51519511453807353973388671875" lon="19.7689722664654254913330078125">
        <ele>1827</ele>
        <time>2026-06-18T11:04:55.000Z</time>
        <extensions>
          <ns3:TrackPointExtension>
            <ns3:atemp>22.0</ns3:atemp>
          </ns3:TrackPointExtension>
        </extensions>
      </trkpt>
      <trkpt lat="42.51519511453807353973388671875" lon="19.7689722664654254913330078125">
        <ele>1827</ele>
        <time>2026-06-18T11:04:56.000Z</time>
        <extensions>
          <ns3:TrackPointExtension>
            <ns3:atemp>22.0</ns3:atemp>
          </ns3:TrackPointExtension>
        </extensions>
      </trkpt>
      <trkpt lat="42.51519511453807353973388671875" lon="19.7689722664654254913330078125">
        <ele>1827</ele>
        <time>2026-06-18T11:04:57.000Z</time>
        <extensions>
          <ns3:TrackPointExtension>
            <ns3:atemp>22.0</ns3:atemp>
          </ns3:TrackPointExtension>
        </extensions>
      </trkpt>
      <trkpt lat="42.51519511453807353973388671875" lon="19.7689722664654254913330078125">
        <ele>1827</ele>
        <time>2026-06-18T11:04:58.000Z</time>
        <extensions>
          <ns3:TrackPointExtension>
            <ns3:atemp>22.0</ns3:atemp>
          </ns3:TrackPointExtension>
        </extensions>
      </trkpt>
      <trkpt lat="42.51519511453807353973388671875" lon="19.7689722664654254913330078125">
        <ele>1827</ele>
        <time>2026-06-18T11:04:59.000Z</time>
        <extensions>
          <ns3:TrackPointExtension>
            <ns3:atemp>22.0</ns3:atemp>
          </ns3:TrackPointExtension>
        </extensions>
      </trkpt>
      <trkpt lat="42.51519511453807353973388671875" lon="19.7689722664654254913330078125">
        <ele>1827</ele>
        <time>2026-06-18T11:05:00.000Z</time>
        <extensions>
          <ns3:TrackPointExtension>
            <ns3:atemp>22.0</ns3:atemp>
          </ns3:TrackPointExtension>
        </extensions>
      </trkpt>
      <trkpt lat="42.51519511453807353973388671875" lon="19.7689722664654254913330078125">
        <ele>1827</ele>
        <time>2026-06-18T11:05:01.000Z</time>
        <extensions>
          <ns3:TrackPointExtension>
            <ns3:atemp>22.0</ns3:atemp>
          </ns3:TrackPointExtension>
        </extensions>
      </trkpt>
      <trkpt lat="42.51519511453807353973388671875" lon="19.7689722664654254913330078125">
        <ele>1827</ele>
        <time>2026-06-18T11:05:02.000Z</time>
        <extensions>
          <ns3:TrackPointExtension>
            <ns3:atemp>22.0</ns3:atemp>
          </ns3:TrackPointExtension>
        </extensions>
      </trkpt>
      <trkpt lat="42.51519511453807353973388671875" lon="19.7689722664654254913330078125">
        <ele>1827</ele>
        <time>2026-06-18T11:05:03.000Z</time>
        <extensions>
          <ns3:TrackPointExtension>
            <ns3:atemp>22.0</ns3:atemp>
          </ns3:TrackPointExtension>
        </extensions>
      </trkpt>
      <trkpt lat="42.51519511453807353973388671875" lon="19.7689722664654254913330078125">
        <ele>1827</ele>
        <time>2026-06-18T11:05:04.000Z</time>
        <extensions>
          <ns3:TrackPointExtension>
            <ns3:atemp>22.0</ns3:atemp>
          </ns3:TrackPointExtension>
        </extensions>
      </trkpt>
      <trkpt lat="42.51519511453807353973388671875" lon="19.7689722664654254913330078125">
        <ele>1827</ele>
        <time>2026-06-18T11:05:05.000Z</time>
        <extensions>
          <ns3:TrackPointExtension>
            <ns3:atemp>22.0</ns3:atemp>
          </ns3:TrackPointExtension>
        </extensions>
      </trkpt>
      <trkpt lat="42.51519511453807353973388671875" lon="19.7689722664654254913330078125">
        <ele>1827</ele>
        <time>2026-06-18T11:05:06.000Z</time>
        <extensions>
          <ns3:TrackPointExtension>
            <ns3:atemp>22.0</ns3:atemp>
          </ns3:TrackPointExtension>
        </extensions>
      </trkpt>
      <trkpt lat="42.51519511453807353973388671875" lon="19.7689722664654254913330078125">
        <ele>1827</ele>
        <time>2026-06-18T11:05:07.000Z</time>
        <extensions>
          <ns3:TrackPointExtension>
            <ns3:atemp>22.0</ns3:atemp>
          </ns3:TrackPointExtension>
        </extensions>
      </trkpt>
      <trkpt lat="42.51519511453807353973388671875" lon="19.7689722664654254913330078125">
        <ele>1827</ele>
        <time>2026-06-18T11:05:08.000Z</time>
        <extensions>
          <ns3:TrackPointExtension>
            <ns3:atemp>22.0</ns3:atemp>
          </ns3:TrackPointExtension>
        </extensions>
      </trkpt>
      <trkpt lat="42.51519511453807353973388671875" lon="19.7689722664654254913330078125">
        <ele>1827</ele>
        <time>2026-06-18T11:05:09.000Z</time>
        <extensions>
          <ns3:TrackPointExtension>
            <ns3:atemp>22.0</ns3:atemp>
          </ns3:TrackPointExtension>
        </extensions>
      </trkpt>
      <trkpt lat="42.51519511453807353973388671875" lon="19.7689722664654254913330078125">
        <ele>1827</ele>
        <time>2026-06-18T11:05:10.000Z</time>
        <extensions>
          <ns3:TrackPointExtension>
            <ns3:atemp>22.0</ns3:atemp>
          </ns3:TrackPointExtension>
        </extensions>
      </trkpt>
      <trkpt lat="42.51519511453807353973388671875" lon="19.7689722664654254913330078125">
        <ele>1827</ele>
        <time>2026-06-18T11:05:11.000Z</time>
        <extensions>
          <ns3:TrackPointExtension>
            <ns3:atemp>22.0</ns3:atemp>
          </ns3:TrackPointExtension>
        </extensions>
      </trkpt>
      <trkpt lat="42.51519511453807353973388671875" lon="19.7689722664654254913330078125">
        <ele>1827</ele>
        <time>2026-06-18T11:05:12.000Z</time>
        <extensions>
          <ns3:TrackPointExtension>
            <ns3:atemp>22.0</ns3:atemp>
          </ns3:TrackPointExtension>
        </extensions>
      </trkpt>
      <trkpt lat="42.51519511453807353973388671875" lon="19.7689722664654254913330078125">
        <ele>1827</ele>
        <time>2026-06-18T11:05:13.000Z</time>
        <extensions>
          <ns3:TrackPointExtension>
            <ns3:atemp>22.0</ns3:atemp>
          </ns3:TrackPointExtension>
        </extensions>
      </trkpt>
      <trkpt lat="42.51519511453807353973388671875" lon="19.7689722664654254913330078125">
        <ele>1827</ele>
        <time>2026-06-18T11:05:14.000Z</time>
        <extensions>
          <ns3:TrackPointExtension>
            <ns3:atemp>22.0</ns3:atemp>
          </ns3:TrackPointExtension>
        </extensions>
      </trkpt>
      <trkpt lat="42.51519511453807353973388671875" lon="19.7689722664654254913330078125">
        <ele>1827</ele>
        <time>2026-06-18T11:05:15.000Z</time>
        <extensions>
          <ns3:TrackPointExtension>
            <ns3:atemp>22.0</ns3:atemp>
          </ns3:TrackPointExtension>
        </extensions>
      </trkpt>
      <trkpt lat="42.51519511453807353973388671875" lon="19.7689722664654254913330078125">
        <ele>1827</ele>
        <time>2026-06-18T11:05:16.000Z</time>
        <extensions>
          <ns3:TrackPointExtension>
            <ns3:atemp>22.0</ns3:atemp>
          </ns3:TrackPointExtension>
        </extensions>
      </trkpt>
      <trkpt lat="42.51519511453807353973388671875" lon="19.7689722664654254913330078125">
        <ele>1827</ele>
        <time>2026-06-18T11:05:17.000Z</time>
        <extensions>
          <ns3:TrackPointExtension>
            <ns3:atemp>22.0</ns3:atemp>
          </ns3:TrackPointExtension>
        </extensions>
      </trkpt>
      <trkpt lat="42.51519511453807353973388671875" lon="19.7689722664654254913330078125">
        <ele>1827</ele>
        <time>2026-06-18T11:05:18.000Z</time>
        <extensions>
          <ns3:TrackPointExtension>
            <ns3:atemp>22.0</ns3:atemp>
          </ns3:TrackPointExtension>
        </extensions>
      </trkpt>
      <trkpt lat="42.51519511453807353973388671875" lon="19.7689722664654254913330078125">
        <ele>1827</ele>
        <time>2026-06-18T11:05:19.000Z</time>
        <extensions>
          <ns3:TrackPointExtension>
            <ns3:atemp>22.0</ns3:atemp>
          </ns3:TrackPointExtension>
        </extensions>
      </trkpt>
      <trkpt lat="42.51519511453807353973388671875" lon="19.7689722664654254913330078125">
        <ele>1827</ele>
        <time>2026-06-18T11:05:20.000Z</time>
        <extensions>
          <ns3:TrackPointExtension>
            <ns3:atemp>22.0</ns3:atemp>
          </ns3:TrackPointExtension>
        </extensions>
      </trkpt>
      <trkpt lat="42.51519511453807353973388671875" lon="19.7689722664654254913330078125">
        <ele>1827</ele>
        <time>2026-06-18T11:05:21.000Z</time>
        <extensions>
          <ns3:TrackPointExtension>
            <ns3:atemp>22.0</ns3:atemp>
          </ns3:TrackPointExtension>
        </extensions>
      </trkpt>
      <trkpt lat="42.51519511453807353973388671875" lon="19.7689722664654254913330078125">
        <ele>1827</ele>
        <time>2026-06-18T11:05:22.000Z</time>
        <extensions>
          <ns3:TrackPointExtension>
            <ns3:atemp>22.0</ns3:atemp>
          </ns3:TrackPointExtension>
        </extensions>
      </trkpt>
      <trkpt lat="42.51519511453807353973388671875" lon="19.7689722664654254913330078125">
        <ele>1827</ele>
        <time>2026-06-18T11:05:23.000Z</time>
        <extensions>
          <ns3:TrackPointExtension>
            <ns3:atemp>22.0</ns3:atemp>
          </ns3:TrackPointExtension>
        </extensions>
      </trkpt>
      <trkpt lat="42.51519511453807353973388671875" lon="19.7689722664654254913330078125">
        <ele>1827</ele>
        <time>2026-06-18T11:05:24.000Z</time>
        <extensions>
          <ns3:TrackPointExtension>
            <ns3:atemp>22.0</ns3:atemp>
          </ns3:TrackPointExtension>
        </extensions>
      </trkpt>
      <trkpt lat="42.51519511453807353973388671875" lon="19.7689722664654254913330078125">
        <ele>1827</ele>
        <time>2026-06-18T11:05:25.000Z</time>
        <extensions>
          <ns3:TrackPointExtension>
            <ns3:atemp>22.0</ns3:atemp>
          </ns3:TrackPointExtension>
        </extensions>
      </trkpt>
      <trkpt lat="42.51519511453807353973388671875" lon="19.7689722664654254913330078125">
        <ele>1827</ele>
        <time>2026-06-18T11:05:26.000Z</time>
        <extensions>
          <ns3:TrackPointExtension>
            <ns3:atemp>22.0</ns3:atemp>
          </ns3:TrackPointExtension>
        </extensions>
      </trkpt>
      <trkpt lat="42.51519511453807353973388671875" lon="19.7689722664654254913330078125">
        <ele>1827</ele>
        <time>2026-06-18T11:05:27.000Z</time>
        <extensions>
          <ns3:TrackPointExtension>
            <ns3:atemp>22.0</ns3:atemp>
          </ns3:TrackPointExtension>
        </extensions>
      </trkpt>
      <trkpt lat="42.51519511453807353973388671875" lon="19.7689722664654254913330078125">
        <ele>1827</ele>
        <time>2026-06-18T11:05:28.000Z</time>
        <extensions>
          <ns3:TrackPointExtension>
            <ns3:atemp>22.0</ns3:atemp>
          </ns3:TrackPointExtension>
        </extensions>
      </trkpt>
      <trkpt lat="42.51519511453807353973388671875" lon="19.7689722664654254913330078125">
        <ele>1827</ele>
        <time>2026-06-18T11:05:29.000Z</time>
        <extensions>
          <ns3:TrackPointExtension>
            <ns3:atemp>22.0</ns3:atemp>
          </ns3:TrackPointExtension>
        </extensions>
      </trkpt>
      <trkpt lat="42.51519511453807353973388671875" lon="19.7689722664654254913330078125">
        <ele>1827</ele>
        <time>2026-06-18T11:05:30.000Z</time>
        <extensions>
          <ns3:TrackPointExtension>
            <ns3:atemp>22.0</ns3:atemp>
          </ns3:TrackPointExtension>
        </extensions>
      </trkpt>
      <trkpt lat="42.51519511453807353973388671875" lon="19.7689722664654254913330078125">
        <ele>1827</ele>
        <time>2026-06-18T11:05:31.000Z</time>
        <extensions>
          <ns3:TrackPointExtension>
            <ns3:atemp>22.0</ns3:atemp>
          </ns3:TrackPointExtension>
        </extensions>
      </trkpt>
      <trkpt lat="42.51519511453807353973388671875" lon="19.7689722664654254913330078125">
        <ele>1827</ele>
        <time>2026-06-18T11:05:32.000Z</time>
        <extensions>
          <ns3:TrackPointExtension>
            <ns3:atemp>22.0</ns3:atemp>
          </ns3:TrackPointExtension>
        </extensions>
      </trkpt>
      <trkpt lat="42.51519511453807353973388671875" lon="19.7689722664654254913330078125">
        <ele>1827</ele>
        <time>2026-06-18T11:05:33.000Z</time>
        <extensions>
          <ns3:TrackPointExtension>
            <ns3:atemp>22.0</ns3:atemp>
          </ns3:TrackPointExtension>
        </extensions>
      </trkpt>
      <trkpt lat="42.51519511453807353973388671875" lon="19.7689722664654254913330078125">
        <ele>1827</ele>
        <time>2026-06-18T11:05:34.000Z</time>
        <extensions>
          <ns3:TrackPointExtension>
            <ns3:atemp>22.0</ns3:atemp>
          </ns3:TrackPointExtension>
        </extensions>
      </trkpt>
      <trkpt lat="42.51519511453807353973388671875" lon="19.7689722664654254913330078125">
        <ele>1827</ele>
        <time>2026-06-18T11:05:35.000Z</time>
        <extensions>
          <ns3:TrackPointExtension>
            <ns3:atemp>22.0</ns3:atemp>
          </ns3:TrackPointExtension>
        </extensions>
      </trkpt>
      <trkpt lat="42.51519511453807353973388671875" lon="19.7689722664654254913330078125">
        <ele>1827</ele>
        <time>2026-06-18T11:05:36.000Z</time>
        <extensions>
          <ns3:TrackPointExtension>
            <ns3:atemp>22.0</ns3:atemp>
          </ns3:TrackPointExtension>
        </extensions>
      </trkpt>
      <trkpt lat="42.51519511453807353973388671875" lon="19.7689722664654254913330078125">
        <ele>1827</ele>
        <time>2026-06-18T11:05:37.000Z</time>
        <extensions>
          <ns3:TrackPointExtension>
            <ns3:atemp>22.0</ns3:atemp>
          </ns3:TrackPointExtension>
        </extensions>
      </trkpt>
      <trkpt lat="42.51519511453807353973388671875" lon="19.7689722664654254913330078125">
        <ele>1827</ele>
        <time>2026-06-18T11:05:38.000Z</time>
        <extensions>
          <ns3:TrackPointExtension>
            <ns3:atemp>22.0</ns3:atemp>
          </ns3:TrackPointExtension>
        </extensions>
      </trkpt>
      <trkpt lat="42.51519511453807353973388671875" lon="19.7689722664654254913330078125">
        <ele>1827</ele>
        <time>2026-06-18T11:05:39.000Z</time>
        <extensions>
          <ns3:TrackPointExtension>
            <ns3:atemp>22.0</ns3:atemp>
          </ns3:TrackPointExtension>
        </extensions>
      </trkpt>
      <trkpt lat="42.51519511453807353973388671875" lon="19.7689722664654254913330078125">
        <ele>1827</ele>
        <time>2026-06-18T11:05:40.000Z</time>
        <extensions>
          <ns3:TrackPointExtension>
            <ns3:atemp>22.0</ns3:atemp>
          </ns3:TrackPointExtension>
        </extensions>
      </trkpt>
      <trkpt lat="42.51519511453807353973388671875" lon="19.7689722664654254913330078125">
        <ele>1827</ele>
        <time>2026-06-18T11:05:41.000Z</time>
        <extensions>
          <ns3:TrackPointExtension>
            <ns3:atemp>22.0</ns3:atemp>
          </ns3:TrackPointExtension>
        </extensions>
      </trkpt>
      <trkpt lat="42.51519511453807353973388671875" lon="19.7689722664654254913330078125">
        <ele>1827</ele>
        <time>2026-06-18T11:05:42.000Z</time>
        <extensions>
          <ns3:TrackPointExtension>
            <ns3:atemp>22.0</ns3:atemp>
          </ns3:TrackPointExtension>
        </extensions>
      </trkpt>
      <trkpt lat="42.51519511453807353973388671875" lon="19.7689722664654254913330078125">
        <ele>1827</ele>
        <time>2026-06-18T11:05:43.000Z</time>
        <extensions>
          <ns3:TrackPointExtension>
            <ns3:atemp>22.0</ns3:atemp>
          </ns3:TrackPointExtension>
        </extensions>
      </trkpt>
      <trkpt lat="42.51519511453807353973388671875" lon="19.7689722664654254913330078125">
        <ele>1827</ele>
        <time>2026-06-18T11:05:44.000Z</time>
        <extensions>
          <ns3:TrackPointExtension>
            <ns3:atemp>22.0</ns3:atemp>
          </ns3:TrackPointExtension>
        </extensions>
      </trkpt>
      <trkpt lat="42.51519511453807353973388671875" lon="19.7689722664654254913330078125">
        <ele>1827</ele>
        <time>2026-06-18T11:05:45.000Z</time>
        <extensions>
          <ns3:TrackPointExtension>
            <ns3:atemp>22.0</ns3:atemp>
          </ns3:TrackPointExtension>
        </extensions>
      </trkpt>
      <trkpt lat="42.51519511453807353973388671875" lon="19.7689722664654254913330078125">
        <ele>1827</ele>
        <time>2026-06-18T11:05:46.000Z</time>
        <extensions>
          <ns3:TrackPointExtension>
            <ns3:atemp>22.0</ns3:atemp>
          </ns3:TrackPointExtension>
        </extensions>
      </trkpt>
      <trkpt lat="42.51519511453807353973388671875" lon="19.7689722664654254913330078125">
        <ele>1827</ele>
        <time>2026-06-18T11:05:47.000Z</time>
        <extensions>
          <ns3:TrackPointExtension>
            <ns3:atemp>22.0</ns3:atemp>
          </ns3:TrackPointExtension>
        </extensions>
      </trkpt>
      <trkpt lat="42.51519511453807353973388671875" lon="19.7689722664654254913330078125">
        <ele>1827</ele>
        <time>2026-06-18T11:05:48.000Z</time>
        <extensions>
          <ns3:TrackPointExtension>
            <ns3:atemp>22.0</ns3:atemp>
          </ns3:TrackPointExtension>
        </extensions>
      </trkpt>
      <trkpt lat="42.51519511453807353973388671875" lon="19.7689722664654254913330078125">
        <ele>1827</ele>
        <time>2026-06-18T11:05:49.000Z</time>
        <extensions>
          <ns3:TrackPointExtension>
            <ns3:atemp>22.0</ns3:atemp>
          </ns3:TrackPointExtension>
        </extensions>
      </trkpt>
      <trkpt lat="42.51519511453807353973388671875" lon="19.7689722664654254913330078125">
        <ele>1827</ele>
        <time>2026-06-18T11:05:50.000Z</time>
        <extensions>
          <ns3:TrackPointExtension>
            <ns3:atemp>22.0</ns3:atemp>
          </ns3:TrackPointExtension>
        </extensions>
      </trkpt>
      <trkpt lat="42.51519511453807353973388671875" lon="19.7689722664654254913330078125">
        <ele>1827</ele>
        <time>2026-06-18T11:05:51.000Z</time>
        <extensions>
          <ns3:TrackPointExtension>
            <ns3:atemp>22.0</ns3:atemp>
          </ns3:TrackPointExtension>
        </extensions>
      </trkpt>
      <trkpt lat="42.51519511453807353973388671875" lon="19.7689722664654254913330078125">
        <ele>1827</ele>
        <time>2026-06-18T11:05:52.000Z</time>
        <extensions>
          <ns3:TrackPointExtension>
            <ns3:atemp>22.0</ns3:atemp>
          </ns3:TrackPointExtension>
        </extensions>
      </trkpt>
      <trkpt lat="42.51519511453807353973388671875" lon="19.7689722664654254913330078125">
        <ele>1827</ele>
        <time>2026-06-18T11:05:53.000Z</time>
        <extensions>
          <ns3:TrackPointExtension>
            <ns3:atemp>22.0</ns3:atemp>
          </ns3:TrackPointExtension>
        </extensions>
      </trkpt>
      <trkpt lat="42.51519511453807353973388671875" lon="19.7689722664654254913330078125">
        <ele>1827</ele>
        <time>2026-06-18T11:05:54.000Z</time>
        <extensions>
          <ns3:TrackPointExtension>
            <ns3:atemp>22.0</ns3:atemp>
          </ns3:TrackPointExtension>
        </extensions>
      </trkpt>
      <trkpt lat="42.51519511453807353973388671875" lon="19.7689722664654254913330078125">
        <ele>1827</ele>
        <time>2026-06-18T11:05:55.000Z</time>
        <extensions>
          <ns3:TrackPointExtension>
            <ns3:atemp>22.0</ns3:atemp>
          </ns3:TrackPointExtension>
        </extensions>
      </trkpt>
      <trkpt lat="42.51519511453807353973388671875" lon="19.7689722664654254913330078125">
        <ele>1827</ele>
        <time>2026-06-18T11:05:56.000Z</time>
        <extensions>
          <ns3:TrackPointExtension>
            <ns3:atemp>22.0</ns3:atemp>
          </ns3:TrackPointExtension>
        </extensions>
      </trkpt>
      <trkpt lat="42.51519511453807353973388671875" lon="19.7689722664654254913330078125">
        <ele>1827</ele>
        <time>2026-06-18T11:05:57.000Z</time>
        <extensions>
          <ns3:TrackPointExtension>
            <ns3:atemp>22.0</ns3:atemp>
          </ns3:TrackPointExtension>
        </extensions>
      </trkpt>
      <trkpt lat="42.51519511453807353973388671875" lon="19.7689722664654254913330078125">
        <ele>1827</ele>
        <time>2026-06-18T11:05:58.000Z</time>
        <extensions>
          <ns3:TrackPointExtension>
            <ns3:atemp>22.0</ns3:atemp>
          </ns3:TrackPointExtension>
        </extensions>
      </trkpt>
      <trkpt lat="42.51519511453807353973388671875" lon="19.7689722664654254913330078125">
        <ele>1827</ele>
        <time>2026-06-18T11:05:59.000Z</time>
        <extensions>
          <ns3:TrackPointExtension>
            <ns3:atemp>22.0</ns3:atemp>
          </ns3:TrackPointExtension>
        </extensions>
      </trkpt>
      <trkpt lat="42.51519511453807353973388671875" lon="19.7689722664654254913330078125">
        <ele>1827</ele>
        <time>2026-06-18T11:06:00.000Z</time>
        <extensions>
          <ns3:TrackPointExtension>
            <ns3:atemp>22.0</ns3:atemp>
          </ns3:TrackPointExtension>
        </extensions>
      </trkpt>
      <trkpt lat="42.51519511453807353973388671875" lon="19.7689722664654254913330078125">
        <ele>1827</ele>
        <time>2026-06-18T11:06:01.000Z</time>
        <extensions>
          <ns3:TrackPointExtension>
            <ns3:atemp>22.0</ns3:atemp>
          </ns3:TrackPointExtension>
        </extensions>
      </trkpt>
      <trkpt lat="42.51519511453807353973388671875" lon="19.7689722664654254913330078125">
        <ele>1827</ele>
        <time>2026-06-18T11:06:02.000Z</time>
        <extensions>
          <ns3:TrackPointExtension>
            <ns3:atemp>22.0</ns3:atemp>
          </ns3:TrackPointExtension>
        </extensions>
      </trkpt>
      <trkpt lat="42.51519511453807353973388671875" lon="19.7689722664654254913330078125">
        <ele>1827</ele>
        <time>2026-06-18T11:06:03.000Z</time>
        <extensions>
          <ns3:TrackPointExtension>
            <ns3:atemp>22.0</ns3:atemp>
          </ns3:TrackPointExtension>
        </extensions>
      </trkpt>
      <trkpt lat="42.51519511453807353973388671875" lon="19.7689722664654254913330078125">
        <ele>1827</ele>
        <time>2026-06-18T11:06:04.000Z</time>
        <extensions>
          <ns3:TrackPointExtension>
            <ns3:atemp>22.0</ns3:atemp>
          </ns3:TrackPointExtension>
        </extensions>
      </trkpt>
      <trkpt lat="42.51519511453807353973388671875" lon="19.7689722664654254913330078125">
        <ele>1827</ele>
        <time>2026-06-18T11:06:05.000Z</time>
        <extensions>
          <ns3:TrackPointExtension>
            <ns3:atemp>22.0</ns3:atemp>
          </ns3:TrackPointExtension>
        </extensions>
      </trkpt>
      <trkpt lat="42.51519511453807353973388671875" lon="19.7689722664654254913330078125">
        <ele>1827</ele>
        <time>2026-06-18T11:06:06.000Z</time>
        <extensions>
          <ns3:TrackPointExtension>
            <ns3:atemp>22.0</ns3:atemp>
          </ns3:TrackPointExtension>
        </extensions>
      </trkpt>
      <trkpt lat="42.51519511453807353973388671875" lon="19.7689722664654254913330078125">
        <ele>1827</ele>
        <time>2026-06-18T11:06:07.000Z</time>
        <extensions>
          <ns3:TrackPointExtension>
            <ns3:atemp>22.0</ns3:atemp>
          </ns3:TrackPointExtension>
        </extensions>
      </trkpt>
      <trkpt lat="42.51519511453807353973388671875" lon="19.7689722664654254913330078125">
        <ele>1827</ele>
        <time>2026-06-18T11:06:08.000Z</time>
        <extensions>
          <ns3:TrackPointExtension>
            <ns3:atemp>22.0</ns3:atemp>
          </ns3:TrackPointExtension>
        </extensions>
      </trkpt>
      <trkpt lat="42.51519511453807353973388671875" lon="19.7689722664654254913330078125">
        <ele>1827</ele>
        <time>2026-06-18T11:06:09.000Z</time>
        <extensions>
          <ns3:TrackPointExtension>
            <ns3:atemp>22.0</ns3:atemp>
          </ns3:TrackPointExtension>
        </extensions>
      </trkpt>
      <trkpt lat="42.51519511453807353973388671875" lon="19.7689722664654254913330078125">
        <ele>1827</ele>
        <time>2026-06-18T11:06:10.000Z</time>
        <extensions>
          <ns3:TrackPointExtension>
            <ns3:atemp>22.0</ns3:atemp>
          </ns3:TrackPointExtension>
        </extensions>
      </trkpt>
      <trkpt lat="42.51519511453807353973388671875" lon="19.7689722664654254913330078125">
        <ele>1827</ele>
        <time>2026-06-18T11:06:11.000Z</time>
        <extensions>
          <ns3:TrackPointExtension>
            <ns3:atemp>22.0</ns3:atemp>
          </ns3:TrackPointExtension>
        </extensions>
      </trkpt>
      <trkpt lat="42.51519511453807353973388671875" lon="19.7689722664654254913330078125">
        <ele>1827</ele>
        <time>2026-06-18T11:06:12.000Z</time>
        <extensions>
          <ns3:TrackPointExtension>
            <ns3:atemp>22.0</ns3:atemp>
          </ns3:TrackPointExtension>
        </extensions>
      </trkpt>
      <trkpt lat="42.51519511453807353973388671875" lon="19.7689722664654254913330078125">
        <ele>1827</ele>
        <time>2026-06-18T11:06:13.000Z</time>
        <extensions>
          <ns3:TrackPointExtension>
            <ns3:atemp>22.0</ns3:atemp>
          </ns3:TrackPointExtension>
        </extensions>
      </trkpt>
      <trkpt lat="42.51519511453807353973388671875" lon="19.7689722664654254913330078125">
        <ele>1827</ele>
        <time>2026-06-18T11:06:14.000Z</time>
        <extensions>
          <ns3:TrackPointExtension>
            <ns3:atemp>22.0</ns3:atemp>
          </ns3:TrackPointExtension>
        </extensions>
      </trkpt>
      <trkpt lat="42.51519511453807353973388671875" lon="19.7689722664654254913330078125">
        <ele>1827</ele>
        <time>2026-06-18T11:06:15.000Z</time>
        <extensions>
          <ns3:TrackPointExtension>
            <ns3:atemp>22.0</ns3:atemp>
          </ns3:TrackPointExtension>
        </extensions>
      </trkpt>
      <trkpt lat="42.51519511453807353973388671875" lon="19.7689722664654254913330078125">
        <ele>1827</ele>
        <time>2026-06-18T11:06:16.000Z</time>
        <extensions>
          <ns3:TrackPointExtension>
            <ns3:atemp>22.0</ns3:atemp>
          </ns3:TrackPointExtension>
        </extensions>
      </trkpt>
      <trkpt lat="42.51519511453807353973388671875" lon="19.7689722664654254913330078125">
        <ele>1827</ele>
        <time>2026-06-18T11:06:17.000Z</time>
        <extensions>
          <ns3:TrackPointExtension>
            <ns3:atemp>22.0</ns3:atemp>
          </ns3:TrackPointExtension>
        </extensions>
      </trkpt>
      <trkpt lat="42.51519511453807353973388671875" lon="19.7689722664654254913330078125">
        <ele>1827</ele>
        <time>2026-06-18T11:06:18.000Z</time>
        <extensions>
          <ns3:TrackPointExtension>
            <ns3:atemp>22.0</ns3:atemp>
          </ns3:TrackPointExtension>
        </extensions>
      </trkpt>
      <trkpt lat="42.51519511453807353973388671875" lon="19.7689722664654254913330078125">
        <ele>1827</ele>
        <time>2026-06-18T11:06:19.000Z</time>
        <extensions>
          <ns3:TrackPointExtension>
            <ns3:atemp>22.0</ns3:atemp>
          </ns3:TrackPointExtension>
        </extensions>
      </trkpt>
      <trkpt lat="42.51519511453807353973388671875" lon="19.7689722664654254913330078125">
        <ele>1827</ele>
        <time>2026-06-18T11:06:20.000Z</time>
        <extensions>
          <ns3:TrackPointExtension>
            <ns3:atemp>22.0</ns3:atemp>
          </ns3:TrackPointExtension>
        </extensions>
      </trkpt>
      <trkpt lat="42.51519511453807353973388671875" lon="19.7689722664654254913330078125">
        <ele>1827</ele>
        <time>2026-06-18T11:06:21.000Z</time>
        <extensions>
          <ns3:TrackPointExtension>
            <ns3:atemp>22.0</ns3:atemp>
          </ns3:TrackPointExtension>
        </extensions>
      </trkpt>
      <trkpt lat="42.51519511453807353973388671875" lon="19.7689722664654254913330078125">
        <ele>1827</ele>
        <time>2026-06-18T11:06:22.000Z</time>
        <extensions>
          <ns3:TrackPointExtension>
            <ns3:atemp>22.0</ns3:atemp>
          </ns3:TrackPointExtension>
        </extensions>
      </trkpt>
      <trkpt lat="42.51519511453807353973388671875" lon="19.7689722664654254913330078125">
        <ele>1827</ele>
        <time>2026-06-18T11:06:23.000Z</time>
        <extensions>
          <ns3:TrackPointExtension>
            <ns3:atemp>22.0</ns3:atemp>
          </ns3:TrackPointExtension>
        </extensions>
      </trkpt>
      <trkpt lat="42.51519511453807353973388671875" lon="19.7689722664654254913330078125">
        <ele>1827</ele>
        <time>2026-06-18T11:06:24.000Z</time>
        <extensions>
          <ns3:TrackPointExtension>
            <ns3:atemp>22.0</ns3:atemp>
          </ns3:TrackPointExtension>
        </extensions>
      </trkpt>
      <trkpt lat="42.51519511453807353973388671875" lon="19.7689722664654254913330078125">
        <ele>1827</ele>
        <time>2026-06-18T11:06:25.000Z</time>
        <extensions>
          <ns3:TrackPointExtension>
            <ns3:atemp>22.0</ns3:atemp>
          </ns3:TrackPointExtension>
        </extensions>
      </trkpt>
      <trkpt lat="42.51519511453807353973388671875" lon="19.7689722664654254913330078125">
        <ele>1827</ele>
        <time>2026-06-18T11:06:26.000Z</time>
        <extensions>
          <ns3:TrackPointExtension>
            <ns3:atemp>22.0</ns3:atemp>
          </ns3:TrackPointExtension>
        </extensions>
      </trkpt>
      <trkpt lat="42.51519511453807353973388671875" lon="19.7689722664654254913330078125">
        <ele>1827</ele>
        <time>2026-06-18T11:06:27.000Z</time>
        <extensions>
          <ns3:TrackPointExtension>
            <ns3:atemp>22.0</ns3:atemp>
          </ns3:TrackPointExtension>
        </extensions>
      </trkpt>
      <trkpt lat="42.51519511453807353973388671875" lon="19.7689722664654254913330078125">
        <ele>1827</ele>
        <time>2026-06-18T11:06:28.000Z</time>
        <extensions>
          <ns3:TrackPointExtension>
            <ns3:atemp>22.0</ns3:atemp>
          </ns3:TrackPointExtension>
        </extensions>
      </trkpt>
      <trkpt lat="42.51519511453807353973388671875" lon="19.7689722664654254913330078125">
        <ele>1827</ele>
        <time>2026-06-18T11:06:29.000Z</time>
        <extensions>
          <ns3:TrackPointExtension>
            <ns3:atemp>22.0</ns3:atemp>
          </ns3:TrackPointExtension>
        </extensions>
      </trkpt>
      <trkpt lat="42.51519511453807353973388671875" lon="19.7689722664654254913330078125">
        <ele>1827</ele>
        <time>2026-06-18T11:06:30.000Z</time>
        <extensions>
          <ns3:TrackPointExtension>
            <ns3:atemp>22.0</ns3:atemp>
          </ns3:TrackPointExtension>
        </extensions>
      </trkpt>
      <trkpt lat="42.51519511453807353973388671875" lon="19.7689722664654254913330078125">
        <ele>1827</ele>
        <time>2026-06-18T11:06:31.000Z</time>
        <extensions>
          <ns3:TrackPointExtension>
            <ns3:atemp>22.0</ns3:atemp>
          </ns3:TrackPointExtension>
        </extensions>
      </trkpt>
      <trkpt lat="42.51519511453807353973388671875" lon="19.7689722664654254913330078125">
        <ele>1827</ele>
        <time>2026-06-18T11:06:32.000Z</time>
        <extensions>
          <ns3:TrackPointExtension>
            <ns3:atemp>22.0</ns3:atemp>
          </ns3:TrackPointExtension>
        </extensions>
      </trkpt>
      <trkpt lat="42.51519511453807353973388671875" lon="19.7689722664654254913330078125">
        <ele>1827</ele>
        <time>2026-06-18T11:06:33.000Z</time>
        <extensions>
          <ns3:TrackPointExtension>
            <ns3:atemp>22.0</ns3:atemp>
          </ns3:TrackPointExtension>
        </extensions>
      </trkpt>
      <trkpt lat="42.51519511453807353973388671875" lon="19.7689722664654254913330078125">
        <ele>1827</ele>
        <time>2026-06-18T11:06:34.000Z</time>
        <extensions>
          <ns3:TrackPointExtension>
            <ns3:atemp>22.0</ns3:atemp>
          </ns3:TrackPointExtension>
        </extensions>
      </trkpt>
      <trkpt lat="42.51519511453807353973388671875" lon="19.7689722664654254913330078125">
        <ele>1827</ele>
        <time>2026-06-18T11:06:35.000Z</time>
        <extensions>
          <ns3:TrackPointExtension>
            <ns3:atemp>22.0</ns3:atemp>
          </ns3:TrackPointExtension>
        </extensions>
      </trkpt>
      <trkpt lat="42.51519511453807353973388671875" lon="19.7689722664654254913330078125">
        <ele>1827</ele>
        <time>2026-06-18T11:06:36.000Z</time>
        <extensions>
          <ns3:TrackPointExtension>
            <ns3:atemp>22.0</ns3:atemp>
          </ns3:TrackPointExtension>
        </extensions>
      </trkpt>
      <trkpt lat="42.51519511453807353973388671875" lon="19.7689722664654254913330078125">
        <ele>1827</ele>
        <time>2026-06-18T11:06:37.000Z</time>
        <extensions>
          <ns3:TrackPointExtension>
            <ns3:atemp>22.0</ns3:atemp>
          </ns3:TrackPointExtension>
        </extensions>
      </trkpt>
      <trkpt lat="42.51519511453807353973388671875" lon="19.7689722664654254913330078125">
        <ele>1827</ele>
        <time>2026-06-18T11:06:38.000Z</time>
        <extensions>
          <ns3:TrackPointExtension>
            <ns3:atemp>22.0</ns3:atemp>
          </ns3:TrackPointExtension>
        </extensions>
      </trkpt>
      <trkpt lat="42.51519511453807353973388671875" lon="19.7689722664654254913330078125">
        <ele>1827</ele>
        <time>2026-06-18T11:06:39.000Z</time>
        <extensions>
          <ns3:TrackPointExtension>
            <ns3:atemp>22.0</ns3:atemp>
          </ns3:TrackPointExtension>
        </extensions>
      </trkpt>
      <trkpt lat="42.51519511453807353973388671875" lon="19.7689722664654254913330078125">
        <ele>1827</ele>
        <time>2026-06-18T11:06:40.000Z</time>
        <extensions>
          <ns3:TrackPointExtension>
            <ns3:atemp>22.0</ns3:atemp>
          </ns3:TrackPointExtension>
        </extensions>
      </trkpt>
      <trkpt lat="42.51519511453807353973388671875" lon="19.7689722664654254913330078125">
        <ele>1827</ele>
        <time>2026-06-18T11:06:41.000Z</time>
        <extensions>
          <ns3:TrackPointExtension>
            <ns3:atemp>22.0</ns3:atemp>
          </ns3:TrackPointExtension>
        </extensions>
      </trkpt>
      <trkpt lat="42.51519511453807353973388671875" lon="19.7689722664654254913330078125">
        <ele>1827</ele>
        <time>2026-06-18T11:06:42.000Z</time>
        <extensions>
          <ns3:TrackPointExtension>
            <ns3:atemp>22.0</ns3:atemp>
          </ns3:TrackPointExtension>
        </extensions>
      </trkpt>
      <trkpt lat="42.51519511453807353973388671875" lon="19.7689722664654254913330078125">
        <ele>1827</ele>
        <time>2026-06-18T11:06:43.000Z</time>
        <extensions>
          <ns3:TrackPointExtension>
            <ns3:atemp>22.0</ns3:atemp>
          </ns3:TrackPointExtension>
        </extensions>
      </trkpt>
      <trkpt lat="42.51519511453807353973388671875" lon="19.7689722664654254913330078125">
        <ele>1827</ele>
        <time>2026-06-18T11:06:44.000Z</time>
        <extensions>
          <ns3:TrackPointExtension>
            <ns3:atemp>22.0</ns3:atemp>
          </ns3:TrackPointExtension>
        </extensions>
      </trkpt>
      <trkpt lat="42.51519511453807353973388671875" lon="19.7689722664654254913330078125">
        <ele>1827</ele>
        <time>2026-06-18T11:06:45.000Z</time>
        <extensions>
          <ns3:TrackPointExtension>
            <ns3:atemp>22.0</ns3:atemp>
          </ns3:TrackPointExtension>
        </extensions>
      </trkpt>
      <trkpt lat="42.51519511453807353973388671875" lon="19.7689722664654254913330078125">
        <ele>1827</ele>
        <time>2026-06-18T11:06:46.000Z</time>
        <extensions>
          <ns3:TrackPointExtension>
            <ns3:atemp>22.0</ns3:atemp>
          </ns3:TrackPointExtension>
        </extensions>
      </trkpt>
      <trkpt lat="42.51519511453807353973388671875" lon="19.7689722664654254913330078125">
        <ele>1827</ele>
        <time>2026-06-18T11:06:47.000Z</time>
        <extensions>
          <ns3:TrackPointExtension>
            <ns3:atemp>22.0</ns3:atemp>
          </ns3:TrackPointExtension>
        </extensions>
      </trkpt>
      <trkpt lat="42.51519511453807353973388671875" lon="19.7689722664654254913330078125">
        <ele>1827</ele>
        <time>2026-06-18T11:06:48.000Z</time>
        <extensions>
          <ns3:TrackPointExtension>
            <ns3:atemp>22.0</ns3:atemp>
          </ns3:TrackPointExtension>
        </extensions>
      </trkpt>
      <trkpt lat="42.51519511453807353973388671875" lon="19.7689722664654254913330078125">
        <ele>1827</ele>
        <time>2026-06-18T11:06:49.000Z</time>
        <extensions>
          <ns3:TrackPointExtension>
            <ns3:atemp>22.0</ns3:atemp>
          </ns3:TrackPointExtension>
        </extensions>
      </trkpt>
      <trkpt lat="42.51519511453807353973388671875" lon="19.7689722664654254913330078125">
        <ele>1827</ele>
        <time>2026-06-18T11:06:50.000Z</time>
        <extensions>
          <ns3:TrackPointExtension>
            <ns3:atemp>22.0</ns3:atemp>
          </ns3:TrackPointExtension>
        </extensions>
      </trkpt>
      <trkpt lat="42.51519511453807353973388671875" lon="19.7689722664654254913330078125">
        <ele>1827</ele>
        <time>2026-06-18T11:06:51.000Z</time>
        <extensions>
          <ns3:TrackPointExtension>
            <ns3:atemp>22.0</ns3:atemp>
          </ns3:TrackPointExtension>
        </extensions>
      </trkpt>
      <trkpt lat="42.51519511453807353973388671875" lon="19.7689722664654254913330078125">
        <ele>1827</ele>
        <time>2026-06-18T11:06:52.000Z</time>
        <extensions>
          <ns3:TrackPointExtension>
            <ns3:atemp>22.0</ns3:atemp>
          </ns3:TrackPointExtension>
        </extensions>
      </trkpt>
      <trkpt lat="42.51519511453807353973388671875" lon="19.7689722664654254913330078125">
        <ele>1827</ele>
        <time>2026-06-18T11:06:53.000Z</time>
        <extensions>
          <ns3:TrackPointExtension>
            <ns3:atemp>22.0</ns3:atemp>
          </ns3:TrackPointExtension>
        </extensions>
      </trkpt>
      <trkpt lat="42.51519511453807353973388671875" lon="19.7689722664654254913330078125">
        <ele>1827</ele>
        <time>2026-06-18T11:06:54.000Z</time>
        <extensions>
          <ns3:TrackPointExtension>
            <ns3:atemp>22.0</ns3:atemp>
          </ns3:TrackPointExtension>
        </extensions>
      </trkpt>
      <trkpt lat="42.51519511453807353973388671875" lon="19.7689722664654254913330078125">
        <ele>1827</ele>
        <time>2026-06-18T11:06:55.000Z</time>
        <extensions>
          <ns3:TrackPointExtension>
            <ns3:atemp>22.0</ns3:atemp>
          </ns3:TrackPointExtension>
        </extensions>
      </trkpt>
      <trkpt lat="42.51519511453807353973388671875" lon="19.7689722664654254913330078125">
        <ele>1827</ele>
        <time>2026-06-18T11:06:56.000Z</time>
        <extensions>
          <ns3:TrackPointExtension>
            <ns3:atemp>22.0</ns3:atemp>
          </ns3:TrackPointExtension>
        </extensions>
      </trkpt>
      <trkpt lat="42.51519511453807353973388671875" lon="19.7689722664654254913330078125">
        <ele>1827</ele>
        <time>2026-06-18T11:06:57.000Z</time>
        <extensions>
          <ns3:TrackPointExtension>
            <ns3:atemp>22.0</ns3:atemp>
          </ns3:TrackPointExtension>
        </extensions>
      </trkpt>
      <trkpt lat="42.51519511453807353973388671875" lon="19.7689722664654254913330078125">
        <ele>1827</ele>
        <time>2026-06-18T11:06:58.000Z</time>
        <extensions>
          <ns3:TrackPointExtension>
            <ns3:atemp>22.0</ns3:atemp>
          </ns3:TrackPointExtension>
        </extensions>
      </trkpt>
      <trkpt lat="42.51519511453807353973388671875" lon="19.7689722664654254913330078125">
        <ele>1827</ele>
        <time>2026-06-18T11:06:59.000Z</time>
        <extensions>
          <ns3:TrackPointExtension>
            <ns3:atemp>22.0</ns3:atemp>
          </ns3:TrackPointExtension>
        </extensions>
      </trkpt>
      <trkpt lat="42.51519511453807353973388671875" lon="19.7689722664654254913330078125">
        <ele>1827</ele>
        <time>2026-06-18T11:07:00.000Z</time>
        <extensions>
          <ns3:TrackPointExtension>
            <ns3:atemp>22.0</ns3:atemp>
          </ns3:TrackPointExtension>
        </extensions>
      </trkpt>
      <trkpt lat="42.51519511453807353973388671875" lon="19.7689722664654254913330078125">
        <ele>1827</ele>
        <time>2026-06-18T11:07:01.000Z</time>
        <extensions>
          <ns3:TrackPointExtension>
            <ns3:atemp>22.0</ns3:atemp>
          </ns3:TrackPointExtension>
        </extensions>
      </trkpt>
      <trkpt lat="42.51519511453807353973388671875" lon="19.7689722664654254913330078125">
        <ele>1827</ele>
        <time>2026-06-18T11:07:02.000Z</time>
        <extensions>
          <ns3:TrackPointExtension>
            <ns3:atemp>22.0</ns3:atemp>
          </ns3:TrackPointExtension>
        </extensions>
      </trkpt>
      <trkpt lat="42.51519511453807353973388671875" lon="19.7689722664654254913330078125">
        <ele>1827</ele>
        <time>2026-06-18T11:07:03.000Z</time>
        <extensions>
          <ns3:TrackPointExtension>
            <ns3:atemp>22.0</ns3:atemp>
          </ns3:TrackPointExtension>
        </extensions>
      </trkpt>
      <trkpt lat="42.51519511453807353973388671875" lon="19.7689722664654254913330078125">
        <ele>1827</ele>
        <time>2026-06-18T11:07:04.000Z</time>
        <extensions>
          <ns3:TrackPointExtension>
            <ns3:atemp>22.0</ns3:atemp>
          </ns3:TrackPointExtension>
        </extensions>
      </trkpt>
      <trkpt lat="42.51519511453807353973388671875" lon="19.7689722664654254913330078125">
        <ele>1827</ele>
        <time>2026-06-18T11:07:05.000Z</time>
        <extensions>
          <ns3:TrackPointExtension>
            <ns3:atemp>22.0</ns3:atemp>
          </ns3:TrackPointExtension>
        </extensions>
      </trkpt>
      <trkpt lat="42.51519511453807353973388671875" lon="19.7689722664654254913330078125">
        <ele>1827</ele>
        <time>2026-06-18T11:07:06.000Z</time>
        <extensions>
          <ns3:TrackPointExtension>
            <ns3:atemp>22.0</ns3:atemp>
          </ns3:TrackPointExtension>
        </extensions>
      </trkpt>
      <trkpt lat="42.51519511453807353973388671875" lon="19.7689722664654254913330078125">
        <ele>1827</ele>
        <time>2026-06-18T11:07:07.000Z</time>
        <extensions>
          <ns3:TrackPointExtension>
            <ns3:atemp>22.0</ns3:atemp>
          </ns3:TrackPointExtension>
        </extensions>
      </trkpt>
      <trkpt lat="42.51519511453807353973388671875" lon="19.7689722664654254913330078125">
        <ele>1827</ele>
        <time>2026-06-18T11:07:08.000Z</time>
        <extensions>
          <ns3:TrackPointExtension>
            <ns3:atemp>22.0</ns3:atemp>
          </ns3:TrackPointExtension>
        </extensions>
      </trkpt>
      <trkpt lat="42.51519511453807353973388671875" lon="19.7689722664654254913330078125">
        <ele>1827</ele>
        <time>2026-06-18T11:07:09.000Z</time>
        <extensions>
          <ns3:TrackPointExtension>
            <ns3:atemp>22.0</ns3:atemp>
          </ns3:TrackPointExtension>
        </extensions>
      </trkpt>
      <trkpt lat="42.51519511453807353973388671875" lon="19.7689722664654254913330078125">
        <ele>1827</ele>
        <time>2026-06-18T11:07:10.000Z</time>
        <extensions>
          <ns3:TrackPointExtension>
            <ns3:atemp>22.0</ns3:atemp>
          </ns3:TrackPointExtension>
        </extensions>
      </trkpt>
      <trkpt lat="42.51519511453807353973388671875" lon="19.7689722664654254913330078125">
        <ele>1827</ele>
        <time>2026-06-18T11:07:11.000Z</time>
        <extensions>
          <ns3:TrackPointExtension>
            <ns3:atemp>22.0</ns3:atemp>
          </ns3:TrackPointExtension>
        </extensions>
      </trkpt>
      <trkpt lat="42.51519511453807353973388671875" lon="19.7689722664654254913330078125">
        <ele>1827</ele>
        <time>2026-06-18T11:07:12.000Z</time>
        <extensions>
          <ns3:TrackPointExtension>
            <ns3:atemp>22.0</ns3:atemp>
          </ns3:TrackPointExtension>
        </extensions>
      </trkpt>
      <trkpt lat="42.51519511453807353973388671875" lon="19.7689722664654254913330078125">
        <ele>1827</ele>
        <time>2026-06-18T11:07:13.000Z</time>
        <extensions>
          <ns3:TrackPointExtension>
            <ns3:atemp>22.0</ns3:atemp>
          </ns3:TrackPointExtension>
        </extensions>
      </trkpt>
      <trkpt lat="42.51519511453807353973388671875" lon="19.7689722664654254913330078125">
        <ele>1827</ele>
        <time>2026-06-18T11:07:14.000Z</time>
        <extensions>
          <ns3:TrackPointExtension>
            <ns3:atemp>22.0</ns3:atemp>
          </ns3:TrackPointExtension>
        </extensions>
      </trkpt>
      <trkpt lat="42.51519511453807353973388671875" lon="19.7689722664654254913330078125">
        <ele>1827</ele>
        <time>2026-06-18T11:07:15.000Z</time>
        <extensions>
          <ns3:TrackPointExtension>
            <ns3:atemp>22.0</ns3:atemp>
          </ns3:TrackPointExtension>
        </extensions>
      </trkpt>
      <trkpt lat="42.51519511453807353973388671875" lon="19.7689722664654254913330078125">
        <ele>1827</ele>
        <time>2026-06-18T11:07:16.000Z</time>
        <extensions>
          <ns3:TrackPointExtension>
            <ns3:atemp>22.0</ns3:atemp>
          </ns3:TrackPointExtension>
        </extensions>
      </trkpt>
      <trkpt lat="42.51519511453807353973388671875" lon="19.7689722664654254913330078125">
        <ele>1827</ele>
        <time>2026-06-18T11:07:17.000Z</time>
        <extensions>
          <ns3:TrackPointExtension>
            <ns3:atemp>22.0</ns3:atemp>
          </ns3:TrackPointExtension>
        </extensions>
      </trkpt>
      <trkpt lat="42.51519511453807353973388671875" lon="19.7689722664654254913330078125">
        <ele>1827</ele>
        <time>2026-06-18T11:07:18.000Z</time>
        <extensions>
          <ns3:TrackPointExtension>
            <ns3:atemp>22.0</ns3:atemp>
          </ns3:TrackPointExtension>
        </extensions>
      </trkpt>
      <trkpt lat="42.51519511453807353973388671875" lon="19.7689722664654254913330078125">
        <ele>1827</ele>
        <time>2026-06-18T11:07:19.000Z</time>
        <extensions>
          <ns3:TrackPointExtension>
            <ns3:atemp>22.0</ns3:atemp>
          </ns3:TrackPointExtension>
        </extensions>
      </trkpt>
      <trkpt lat="42.51519511453807353973388671875" lon="19.7689722664654254913330078125">
        <ele>1827</ele>
        <time>2026-06-18T11:07:20.000Z</time>
        <extensions>
          <ns3:TrackPointExtension>
            <ns3:atemp>22.0</ns3:atemp>
          </ns3:TrackPointExtension>
        </extensions>
      </trkpt>
      <trkpt lat="42.51519511453807353973388671875" lon="19.7689722664654254913330078125">
        <ele>1827</ele>
        <time>2026-06-18T11:07:21.000Z</time>
        <extensions>
          <ns3:TrackPointExtension>
            <ns3:atemp>22.0</ns3:atemp>
          </ns3:TrackPointExtension>
        </extensions>
      </trkpt>
      <trkpt lat="42.51519511453807353973388671875" lon="19.7689722664654254913330078125">
        <ele>1827</ele>
        <time>2026-06-18T11:07:22.000Z</time>
        <extensions>
          <ns3:TrackPointExtension>
            <ns3:atemp>22.0</ns3:atemp>
          </ns3:TrackPointExtension>
        </extensions>
      </trkpt>
      <trkpt lat="42.51519511453807353973388671875" lon="19.7689722664654254913330078125">
        <ele>1827</ele>
        <time>2026-06-18T11:07:23.000Z</time>
        <extensions>
          <ns3:TrackPointExtension>
            <ns3:atemp>22.0</ns3:atemp>
          </ns3:TrackPointExtension>
        </extensions>
      </trkpt>
      <trkpt lat="42.51519511453807353973388671875" lon="19.7689722664654254913330078125">
        <ele>1827</ele>
        <time>2026-06-18T11:07:24.000Z</time>
        <extensions>
          <ns3:TrackPointExtension>
            <ns3:atemp>22.0</ns3:atemp>
          </ns3:TrackPointExtension>
        </extensions>
      </trkpt>
      <trkpt lat="42.51519511453807353973388671875" lon="19.7689722664654254913330078125">
        <ele>1827</ele>
        <time>2026-06-18T11:07:25.000Z</time>
        <extensions>
          <ns3:TrackPointExtension>
            <ns3:atemp>22.0</ns3:atemp>
          </ns3:TrackPointExtension>
        </extensions>
      </trkpt>
      <trkpt lat="42.51519511453807353973388671875" lon="19.7689722664654254913330078125">
        <ele>1827</ele>
        <time>2026-06-18T11:07:26.000Z</time>
        <extensions>
          <ns3:TrackPointExtension>
            <ns3:atemp>22.0</ns3:atemp>
          </ns3:TrackPointExtension>
        </extensions>
      </trkpt>
      <trkpt lat="42.51519511453807353973388671875" lon="19.7689722664654254913330078125">
        <ele>1827</ele>
        <time>2026-06-18T11:07:27.000Z</time>
        <extensions>
          <ns3:TrackPointExtension>
            <ns3:atemp>22.0</ns3:atemp>
          </ns3:TrackPointExtension>
        </extensions>
      </trkpt>
      <trkpt lat="42.51519511453807353973388671875" lon="19.7689722664654254913330078125">
        <ele>1827</ele>
        <time>2026-06-18T11:07:28.000Z</time>
        <extensions>
          <ns3:TrackPointExtension>
            <ns3:atemp>22.0</ns3:atemp>
          </ns3:TrackPointExtension>
        </extensions>
      </trkpt>
      <trkpt lat="42.51519511453807353973388671875" lon="19.7689722664654254913330078125">
        <ele>1827</ele>
        <time>2026-06-18T11:07:29.000Z</time>
        <extensions>
          <ns3:TrackPointExtension>
            <ns3:atemp>22.0</ns3:atemp>
          </ns3:TrackPointExtension>
        </extensions>
      </trkpt>
      <trkpt lat="42.51519511453807353973388671875" lon="19.7689722664654254913330078125">
        <ele>1827</ele>
        <time>2026-06-18T11:07:30.000Z</time>
        <extensions>
          <ns3:TrackPointExtension>
            <ns3:atemp>22.0</ns3:atemp>
          </ns3:TrackPointExtension>
        </extensions>
      </trkpt>
      <trkpt lat="42.51519511453807353973388671875" lon="19.7689722664654254913330078125">
        <ele>1827</ele>
        <time>2026-06-18T11:07:31.000Z</time>
        <extensions>
          <ns3:TrackPointExtension>
            <ns3:atemp>22.0</ns3:atemp>
          </ns3:TrackPointExtension>
        </extensions>
      </trkpt>
      <trkpt lat="42.51519511453807353973388671875" lon="19.7689722664654254913330078125">
        <ele>1827</ele>
        <time>2026-06-18T11:07:32.000Z</time>
        <extensions>
          <ns3:TrackPointExtension>
            <ns3:atemp>22.0</ns3:atemp>
          </ns3:TrackPointExtension>
        </extensions>
      </trkpt>
      <trkpt lat="42.51519511453807353973388671875" lon="19.7689722664654254913330078125">
        <ele>1827</ele>
        <time>2026-06-18T11:07:33.000Z</time>
        <extensions>
          <ns3:TrackPointExtension>
            <ns3:atemp>22.0</ns3:atemp>
          </ns3:TrackPointExtension>
        </extensions>
      </trkpt>
      <trkpt lat="42.51519511453807353973388671875" lon="19.7689722664654254913330078125">
        <ele>1827</ele>
        <time>2026-06-18T11:07:34.000Z</time>
        <extensions>
          <ns3:TrackPointExtension>
            <ns3:atemp>22.0</ns3:atemp>
          </ns3:TrackPointExtension>
        </extensions>
      </trkpt>
      <trkpt lat="42.51519511453807353973388671875" lon="19.7689722664654254913330078125">
        <ele>1827</ele>
        <time>2026-06-18T11:07:35.000Z</time>
        <extensions>
          <ns3:TrackPointExtension>
            <ns3:atemp>22.0</ns3:atemp>
          </ns3:TrackPointExtension>
        </extensions>
      </trkpt>
      <trkpt lat="42.51519511453807353973388671875" lon="19.7689722664654254913330078125">
        <ele>1827</ele>
        <time>2026-06-18T11:07:36.000Z</time>
        <extensions>
          <ns3:TrackPointExtension>
            <ns3:atemp>22.0</ns3:atemp>
          </ns3:TrackPointExtension>
        </extensions>
      </trkpt>
      <trkpt lat="42.51519511453807353973388671875" lon="19.7689722664654254913330078125">
        <ele>1827</ele>
        <time>2026-06-18T11:07:37.000Z</time>
        <extensions>
          <ns3:TrackPointExtension>
            <ns3:atemp>22.0</ns3:atemp>
          </ns3:TrackPointExtension>
        </extensions>
      </trkpt>
      <trkpt lat="42.51519511453807353973388671875" lon="19.7689722664654254913330078125">
        <ele>1827</ele>
        <time>2026-06-18T11:07:38.000Z</time>
        <extensions>
          <ns3:TrackPointExtension>
            <ns3:atemp>22.0</ns3:atemp>
          </ns3:TrackPointExtension>
        </extensions>
      </trkpt>
      <trkpt lat="42.51519511453807353973388671875" lon="19.7689722664654254913330078125">
        <ele>1827</ele>
        <time>2026-06-18T11:07:39.000Z</time>
        <extensions>
          <ns3:TrackPointExtension>
            <ns3:atemp>22.0</ns3:atemp>
          </ns3:TrackPointExtension>
        </extensions>
      </trkpt>
      <trkpt lat="42.51519511453807353973388671875" lon="19.7689722664654254913330078125">
        <ele>1827</ele>
        <time>2026-06-18T11:07:40.000Z</time>
        <extensions>
          <ns3:TrackPointExtension>
            <ns3:atemp>22.0</ns3:atemp>
          </ns3:TrackPointExtension>
        </extensions>
      </trkpt>
      <trkpt lat="42.51519511453807353973388671875" lon="19.7689722664654254913330078125">
        <ele>1827</ele>
        <time>2026-06-18T11:07:41.000Z</time>
        <extensions>
          <ns3:TrackPointExtension>
            <ns3:atemp>22.0</ns3:atemp>
          </ns3:TrackPointExtension>
        </extensions>
      </trkpt>
      <trkpt lat="42.51519511453807353973388671875" lon="19.7689722664654254913330078125">
        <ele>1827</ele>
        <time>2026-06-18T11:07:42.000Z</time>
        <extensions>
          <ns3:TrackPointExtension>
            <ns3:atemp>22.0</ns3:atemp>
          </ns3:TrackPointExtension>
        </extensions>
      </trkpt>
      <trkpt lat="42.51519511453807353973388671875" lon="19.7689722664654254913330078125">
        <ele>1827</ele>
        <time>2026-06-18T11:07:43.000Z</time>
        <extensions>
          <ns3:TrackPointExtension>
            <ns3:atemp>22.0</ns3:atemp>
          </ns3:TrackPointExtension>
        </extensions>
      </trkpt>
      <trkpt lat="42.51519511453807353973388671875" lon="19.7689722664654254913330078125">
        <ele>1827</ele>
        <time>2026-06-18T11:07:44.000Z</time>
        <extensions>
          <ns3:TrackPointExtension>
            <ns3:atemp>22.0</ns3:atemp>
          </ns3:TrackPointExtension>
        </extensions>
      </trkpt>
      <trkpt lat="42.51519511453807353973388671875" lon="19.7689722664654254913330078125">
        <ele>1827</ele>
        <time>2026-06-18T11:07:45.000Z</time>
        <extensions>
          <ns3:TrackPointExtension>
            <ns3:atemp>22.0</ns3:atemp>
          </ns3:TrackPointExtension>
        </extensions>
      </trkpt>
      <trkpt lat="42.51519511453807353973388671875" lon="19.7689722664654254913330078125">
        <ele>1827</ele>
        <time>2026-06-18T11:07:46.000Z</time>
        <extensions>
          <ns3:TrackPointExtension>
            <ns3:atemp>22.0</ns3:atemp>
          </ns3:TrackPointExtension>
        </extensions>
      </trkpt>
      <trkpt lat="42.51519511453807353973388671875" lon="19.7689722664654254913330078125">
        <ele>1827</ele>
        <time>2026-06-18T11:07:47.000Z</time>
        <extensions>
          <ns3:TrackPointExtension>
            <ns3:atemp>22.0</ns3:atemp>
          </ns3:TrackPointExtension>
        </extensions>
      </trkpt>
      <trkpt lat="42.51519511453807353973388671875" lon="19.7689722664654254913330078125">
        <ele>1827</ele>
        <time>2026-06-18T11:07:48.000Z</time>
        <extensions>
          <ns3:TrackPointExtension>
            <ns3:atemp>22.0</ns3:atemp>
          </ns3:TrackPointExtension>
        </extensions>
      </trkpt>
      <trkpt lat="42.51519511453807353973388671875" lon="19.7689722664654254913330078125">
        <ele>1827</ele>
        <time>2026-06-18T11:07:49.000Z</time>
        <extensions>
          <ns3:TrackPointExtension>
            <ns3:atemp>22.0</ns3:atemp>
          </ns3:TrackPointExtension>
        </extensions>
      </trkpt>
      <trkpt lat="42.51519511453807353973388671875" lon="19.7689722664654254913330078125">
        <ele>1827</ele>
        <time>2026-06-18T11:07:50.000Z</time>
        <extensions>
          <ns3:TrackPointExtension>
            <ns3:atemp>22.0</ns3:atemp>
          </ns3:TrackPointExtension>
        </extensions>
      </trkpt>
      <trkpt lat="42.51519511453807353973388671875" lon="19.7689722664654254913330078125">
        <ele>1827</ele>
        <time>2026-06-18T11:07:51.000Z</time>
        <extensions>
          <ns3:TrackPointExtension>
            <ns3:atemp>22.0</ns3:atemp>
          </ns3:TrackPointExtension>
        </extensions>
      </trkpt>
      <trkpt lat="42.51519511453807353973388671875" lon="19.7689722664654254913330078125">
        <ele>1827</ele>
        <time>2026-06-18T11:07:52.000Z</time>
        <extensions>
          <ns3:TrackPointExtension>
            <ns3:atemp>22.0</ns3:atemp>
          </ns3:TrackPointExtension>
        </extensions>
      </trkpt>
      <trkpt lat="42.51519511453807353973388671875" lon="19.7689722664654254913330078125">
        <ele>1827</ele>
        <time>2026-06-18T11:07:53.000Z</time>
        <extensions>
          <ns3:TrackPointExtension>
            <ns3:atemp>22.0</ns3:atemp>
          </ns3:TrackPointExtension>
        </extensions>
      </trkpt>
      <trkpt lat="42.51519511453807353973388671875" lon="19.7689722664654254913330078125">
        <ele>1827</ele>
        <time>2026-06-18T11:07:54.000Z</time>
        <extensions>
          <ns3:TrackPointExtension>
            <ns3:atemp>22.0</ns3:atemp>
          </ns3:TrackPointExtension>
        </extensions>
      </trkpt>
      <trkpt lat="42.51519511453807353973388671875" lon="19.7689722664654254913330078125">
        <ele>1827</ele>
        <time>2026-06-18T11:07:55.000Z</time>
        <extensions>
          <ns3:TrackPointExtension>
            <ns3:atemp>22.0</ns3:atemp>
          </ns3:TrackPointExtension>
        </extensions>
      </trkpt>
      <trkpt lat="42.51519511453807353973388671875" lon="19.7689722664654254913330078125">
        <ele>1827</ele>
        <time>2026-06-18T11:07:56.000Z</time>
        <extensions>
          <ns3:TrackPointExtension>
            <ns3:atemp>22.0</ns3:atemp>
          </ns3:TrackPointExtension>
        </extensions>
      </trkpt>
      <trkpt lat="42.51519511453807353973388671875" lon="19.7689722664654254913330078125">
        <ele>1827</ele>
        <time>2026-06-18T11:07:57.000Z</time>
        <extensions>
          <ns3:TrackPointExtension>
            <ns3:atemp>22.0</ns3:atemp>
          </ns3:TrackPointExtension>
        </extensions>
      </trkpt>
      <trkpt lat="42.51519511453807353973388671875" lon="19.7689722664654254913330078125">
        <ele>1827</ele>
        <time>2026-06-18T11:07:58.000Z</time>
        <extensions>
          <ns3:TrackPointExtension>
            <ns3:atemp>22.0</ns3:atemp>
          </ns3:TrackPointExtension>
        </extensions>
      </trkpt>
      <trkpt lat="42.51519511453807353973388671875" lon="19.7689722664654254913330078125">
        <ele>1827</ele>
        <time>2026-06-18T11:07:59.000Z</time>
        <extensions>
          <ns3:TrackPointExtension>
            <ns3:atemp>22.0</ns3:atemp>
          </ns3:TrackPointExtension>
        </extensions>
      </trkpt>
      <trkpt lat="42.51519511453807353973388671875" lon="19.7689722664654254913330078125">
        <ele>1827</ele>
        <time>2026-06-18T11:08:00.000Z</time>
        <extensions>
          <ns3:TrackPointExtension>
            <ns3:atemp>22.0</ns3:atemp>
          </ns3:TrackPointExtension>
        </extensions>
      </trkpt>
      <trkpt lat="42.51519511453807353973388671875" lon="19.7689722664654254913330078125">
        <ele>1827</ele>
        <time>2026-06-18T11:08:01.000Z</time>
        <extensions>
          <ns3:TrackPointExtension>
            <ns3:atemp>22.0</ns3:atemp>
          </ns3:TrackPointExtension>
        </extensions>
      </trkpt>
      <trkpt lat="42.51519511453807353973388671875" lon="19.7689722664654254913330078125">
        <ele>1827</ele>
        <time>2026-06-18T11:08:02.000Z</time>
        <extensions>
          <ns3:TrackPointExtension>
            <ns3:atemp>22.0</ns3:atemp>
          </ns3:TrackPointExtension>
        </extensions>
      </trkpt>
      <trkpt lat="42.51519511453807353973388671875" lon="19.7689722664654254913330078125">
        <ele>1827</ele>
        <time>2026-06-18T11:08:03.000Z</time>
        <extensions>
          <ns3:TrackPointExtension>
            <ns3:atemp>22.0</ns3:atemp>
          </ns3:TrackPointExtension>
        </extensions>
      </trkpt>
      <trkpt lat="42.51519511453807353973388671875" lon="19.7689722664654254913330078125">
        <ele>1827</ele>
        <time>2026-06-18T11:08:04.000Z</time>
        <extensions>
          <ns3:TrackPointExtension>
            <ns3:atemp>22.0</ns3:atemp>
          </ns3:TrackPointExtension>
        </extensions>
      </trkpt>
      <trkpt lat="42.51519511453807353973388671875" lon="19.7689722664654254913330078125">
        <ele>1827</ele>
        <time>2026-06-18T11:08:05.000Z</time>
        <extensions>
          <ns3:TrackPointExtension>
            <ns3:atemp>22.0</ns3:atemp>
          </ns3:TrackPointExtension>
        </extensions>
      </trkpt>
      <trkpt lat="42.51519511453807353973388671875" lon="19.7689722664654254913330078125">
        <ele>1827</ele>
        <time>2026-06-18T11:08:06.000Z</time>
        <extensions>
          <ns3:TrackPointExtension>
            <ns3:atemp>22.0</ns3:atemp>
          </ns3:TrackPointExtension>
        </extensions>
      </trkpt>
      <trkpt lat="42.51519511453807353973388671875" lon="19.7689722664654254913330078125">
        <ele>1827</ele>
        <time>2026-06-18T11:08:07.000Z</time>
        <extensions>
          <ns3:TrackPointExtension>
            <ns3:atemp>22.0</ns3:atemp>
          </ns3:TrackPointExtension>
        </extensions>
      </trkpt>
      <trkpt lat="42.51519511453807353973388671875" lon="19.7689722664654254913330078125">
        <ele>1827</ele>
        <time>2026-06-18T11:08:08.000Z</time>
        <extensions>
          <ns3:TrackPointExtension>
            <ns3:atemp>22.0</ns3:atemp>
          </ns3:TrackPointExtension>
        </extensions>
      </trkpt>
      <trkpt lat="42.51519511453807353973388671875" lon="19.7689722664654254913330078125">
        <ele>1827</ele>
        <time>2026-06-18T11:08:09.000Z</time>
        <extensions>
          <ns3:TrackPointExtension>
            <ns3:atemp>22.0</ns3:atemp>
          </ns3:TrackPointExtension>
        </extensions>
      </trkpt>
      <trkpt lat="42.51519511453807353973388671875" lon="19.7689722664654254913330078125">
        <ele>1827</ele>
        <time>2026-06-18T11:08:10.000Z</time>
        <extensions>
          <ns3:TrackPointExtension>
            <ns3:atemp>22.0</ns3:atemp>
          </ns3:TrackPointExtension>
        </extensions>
      </trkpt>
      <trkpt lat="42.51519511453807353973388671875" lon="19.7689722664654254913330078125">
        <ele>1827</ele>
        <time>2026-06-18T11:08:11.000Z</time>
        <extensions>
          <ns3:TrackPointExtension>
            <ns3:atemp>22.0</ns3:atemp>
          </ns3:TrackPointExtension>
        </extensions>
      </trkpt>
      <trkpt lat="42.51519511453807353973388671875" lon="19.7689722664654254913330078125">
        <ele>1827</ele>
        <time>2026-06-18T11:08:12.000Z</time>
        <extensions>
          <ns3:TrackPointExtension>
            <ns3:atemp>22.0</ns3:atemp>
          </ns3:TrackPointExtension>
        </extensions>
      </trkpt>
      <trkpt lat="42.51519511453807353973388671875" lon="19.7689722664654254913330078125">
        <ele>1827</ele>
        <time>2026-06-18T11:08:13.000Z</time>
        <extensions>
          <ns3:TrackPointExtension>
            <ns3:atemp>22.0</ns3:atemp>
          </ns3:TrackPointExtension>
        </extensions>
      </trkpt>
      <trkpt lat="42.51519511453807353973388671875" lon="19.7689722664654254913330078125">
        <ele>1827</ele>
        <time>2026-06-18T11:08:14.000Z</time>
        <extensions>
          <ns3:TrackPointExtension>
            <ns3:atemp>22.0</ns3:atemp>
          </ns3:TrackPointExtension>
        </extensions>
      </trkpt>
      <trkpt lat="42.51519511453807353973388671875" lon="19.7689722664654254913330078125">
        <ele>1827</ele>
        <time>2026-06-18T11:08:15.000Z</time>
        <extensions>
          <ns3:TrackPointExtension>
            <ns3:atemp>22.0</ns3:atemp>
          </ns3:TrackPointExtension>
        </extensions>
      </trkpt>
      <trkpt lat="42.51519511453807353973388671875" lon="19.7689722664654254913330078125">
        <ele>1827</ele>
        <time>2026-06-18T11:08:16.000Z</time>
        <extensions>
          <ns3:TrackPointExtension>
            <ns3:atemp>22.0</ns3:atemp>
          </ns3:TrackPointExtension>
        </extensions>
      </trkpt>
      <trkpt lat="42.51519511453807353973388671875" lon="19.7689722664654254913330078125">
        <ele>1827</ele>
        <time>2026-06-18T11:08:17.000Z</time>
        <extensions>
          <ns3:TrackPointExtension>
            <ns3:atemp>22.0</ns3:atemp>
          </ns3:TrackPointExtension>
        </extensions>
      </trkpt>
      <trkpt lat="42.51519511453807353973388671875" lon="19.7689722664654254913330078125">
        <ele>1827</ele>
        <time>2026-06-18T11:08:18.000Z</time>
        <extensions>
          <ns3:TrackPointExtension>
            <ns3:atemp>22.0</ns3:atemp>
          </ns3:TrackPointExtension>
        </extensions>
      </trkpt>
      <trkpt lat="42.51519511453807353973388671875" lon="19.7689722664654254913330078125">
        <ele>1827</ele>
        <time>2026-06-18T11:08:19.000Z</time>
        <extensions>
          <ns3:TrackPointExtension>
            <ns3:atemp>22.0</ns3:atemp>
          </ns3:TrackPointExtension>
        </extensions>
      </trkpt>
      <trkpt lat="42.51519511453807353973388671875" lon="19.7689722664654254913330078125">
        <ele>1827</ele>
        <time>2026-06-18T11:08:20.000Z</time>
        <extensions>
          <ns3:TrackPointExtension>
            <ns3:atemp>22.0</ns3:atemp>
          </ns3:TrackPointExtension>
        </extensions>
      </trkpt>
      <trkpt lat="42.51519511453807353973388671875" lon="19.7689722664654254913330078125">
        <ele>1827</ele>
        <time>2026-06-18T11:08:21.000Z</time>
        <extensions>
          <ns3:TrackPointExtension>
            <ns3:atemp>22.0</ns3:atemp>
          </ns3:TrackPointExtension>
        </extensions>
      </trkpt>
      <trkpt lat="42.51519511453807353973388671875" lon="19.7689722664654254913330078125">
        <ele>1827</ele>
        <time>2026-06-18T11:08:22.000Z</time>
        <extensions>
          <ns3:TrackPointExtension>
            <ns3:atemp>22.0</ns3:atemp>
          </ns3:TrackPointExtension>
        </extensions>
      </trkpt>
      <trkpt lat="42.51519511453807353973388671875" lon="19.7689722664654254913330078125">
        <ele>1827</ele>
        <time>2026-06-18T11:08:23.000Z</time>
        <extensions>
          <ns3:TrackPointExtension>
            <ns3:atemp>22.0</ns3:atemp>
          </ns3:TrackPointExtension>
        </extensions>
      </trkpt>
      <trkpt lat="42.51519511453807353973388671875" lon="19.7689722664654254913330078125">
        <ele>1827</ele>
        <time>2026-06-18T11:08:24.000Z</time>
        <extensions>
          <ns3:TrackPointExtension>
            <ns3:atemp>22.0</ns3:atemp>
          </ns3:TrackPointExtension>
        </extensions>
      </trkpt>
      <trkpt lat="42.51519511453807353973388671875" lon="19.7689722664654254913330078125">
        <ele>1827</ele>
        <time>2026-06-18T11:08:25.000Z</time>
        <extensions>
          <ns3:TrackPointExtension>
            <ns3:atemp>22.0</ns3:atemp>
          </ns3:TrackPointExtension>
        </extensions>
      </trkpt>
      <trkpt lat="42.51519511453807353973388671875" lon="19.7689722664654254913330078125">
        <ele>1827</ele>
        <time>2026-06-18T11:08:26.000Z</time>
        <extensions>
          <ns3:TrackPointExtension>
            <ns3:atemp>22.0</ns3:atemp>
          </ns3:TrackPointExtension>
        </extensions>
      </trkpt>
      <trkpt lat="42.51519511453807353973388671875" lon="19.7689722664654254913330078125">
        <ele>1827</ele>
        <time>2026-06-18T11:08:27.000Z</time>
        <extensions>
          <ns3:TrackPointExtension>
            <ns3:atemp>22.0</ns3:atemp>
          </ns3:TrackPointExtension>
        </extensions>
      </trkpt>
      <trkpt lat="42.51519511453807353973388671875" lon="19.7689722664654254913330078125">
        <ele>1827</ele>
        <time>2026-06-18T11:08:28.000Z</time>
        <extensions>
          <ns3:TrackPointExtension>
            <ns3:atemp>22.0</ns3:atemp>
          </ns3:TrackPointExtension>
        </extensions>
      </trkpt>
      <trkpt lat="42.51519511453807353973388671875" lon="19.7689722664654254913330078125">
        <ele>1827</ele>
        <time>2026-06-18T11:08:29.000Z</time>
        <extensions>
          <ns3:TrackPointExtension>
            <ns3:atemp>22.0</ns3:atemp>
          </ns3:TrackPointExtension>
        </extensions>
      </trkpt>
      <trkpt lat="42.51519511453807353973388671875" lon="19.7689722664654254913330078125">
        <ele>1827</ele>
        <time>2026-06-18T11:08:30.000Z</time>
        <extensions>
          <ns3:TrackPointExtension>
            <ns3:atemp>22.0</ns3:atemp>
          </ns3:TrackPointExtension>
        </extensions>
      </trkpt>
      <trkpt lat="42.51519511453807353973388671875" lon="19.7689722664654254913330078125">
        <ele>1827</ele>
        <time>2026-06-18T11:08:31.000Z</time>
        <extensions>
          <ns3:TrackPointExtension>
            <ns3:atemp>22.0</ns3:atemp>
          </ns3:TrackPointExtension>
        </extensions>
      </trkpt>
      <trkpt lat="42.51519511453807353973388671875" lon="19.7689722664654254913330078125">
        <ele>1827</ele>
        <time>2026-06-18T11:08:32.000Z</time>
        <extensions>
          <ns3:TrackPointExtension>
            <ns3:atemp>22.0</ns3:atemp>
          </ns3:TrackPointExtension>
        </extensions>
      </trkpt>
      <trkpt lat="42.51519511453807353973388671875" lon="19.7689722664654254913330078125">
        <ele>1827</ele>
        <time>2026-06-18T11:08:33.000Z</time>
        <extensions>
          <ns3:TrackPointExtension>
            <ns3:atemp>22.0</ns3:atemp>
          </ns3:TrackPointExtension>
        </extensions>
      </trkpt>
      <trkpt lat="42.51519511453807353973388671875" lon="19.7689722664654254913330078125">
        <ele>1827</ele>
        <time>2026-06-18T11:08:34.000Z</time>
        <extensions>
          <ns3:TrackPointExtension>
            <ns3:atemp>22.0</ns3:atemp>
          </ns3:TrackPointExtension>
        </extensions>
      </trkpt>
      <trkpt lat="42.51519511453807353973388671875" lon="19.7689722664654254913330078125">
        <ele>1827</ele>
        <time>2026-06-18T11:08:35.000Z</time>
        <extensions>
          <ns3:TrackPointExtension>
            <ns3:atemp>22.0</ns3:atemp>
          </ns3:TrackPointExtension>
        </extensions>
      </trkpt>
      <trkpt lat="42.51519511453807353973388671875" lon="19.7689722664654254913330078125">
        <ele>1827</ele>
        <time>2026-06-18T11:08:36.000Z</time>
        <extensions>
          <ns3:TrackPointExtension>
            <ns3:atemp>22.0</ns3:atemp>
          </ns3:TrackPointExtension>
        </extensions>
      </trkpt>
      <trkpt lat="42.51519511453807353973388671875" lon="19.7689722664654254913330078125">
        <ele>1827</ele>
        <time>2026-06-18T11:08:37.000Z</time>
        <extensions>
          <ns3:TrackPointExtension>
            <ns3:atemp>22.0</ns3:atemp>
          </ns3:TrackPointExtension>
        </extensions>
      </trkpt>
      <trkpt lat="42.51519511453807353973388671875" lon="19.7689722664654254913330078125">
        <ele>1827</ele>
        <time>2026-06-18T11:08:38.000Z</time>
        <extensions>
          <ns3:TrackPointExtension>
            <ns3:atemp>22.0</ns3:atemp>
          </ns3:TrackPointExtension>
        </extensions>
      </trkpt>
      <trkpt lat="42.51519511453807353973388671875" lon="19.7689722664654254913330078125">
        <ele>1827</ele>
        <time>2026-06-18T11:08:39.000Z</time>
        <extensions>
          <ns3:TrackPointExtension>
            <ns3:atemp>22.0</ns3:atemp>
          </ns3:TrackPointExtension>
        </extensions>
      </trkpt>
      <trkpt lat="42.51519511453807353973388671875" lon="19.7689722664654254913330078125">
        <ele>1827</ele>
        <time>2026-06-18T11:08:40.000Z</time>
        <extensions>
          <ns3:TrackPointExtension>
            <ns3:atemp>22.0</ns3:atemp>
          </ns3:TrackPointExtension>
        </extensions>
      </trkpt>
      <trkpt lat="42.51519511453807353973388671875" lon="19.7689722664654254913330078125">
        <ele>1827</ele>
        <time>2026-06-18T11:08:41.000Z</time>
        <extensions>
          <ns3:TrackPointExtension>
            <ns3:atemp>22.0</ns3:atemp>
          </ns3:TrackPointExtension>
        </extensions>
      </trkpt>
      <trkpt lat="42.51519511453807353973388671875" lon="19.7689722664654254913330078125">
        <ele>1827</ele>
        <time>2026-06-18T11:08:42.000Z</time>
        <extensions>
          <ns3:TrackPointExtension>
            <ns3:atemp>22.0</ns3:atemp>
          </ns3:TrackPointExtension>
        </extensions>
      </trkpt>
      <trkpt lat="42.51519511453807353973388671875" lon="19.7689722664654254913330078125">
        <ele>1827</ele>
        <time>2026-06-18T11:08:43.000Z</time>
        <extensions>
          <ns3:TrackPointExtension>
            <ns3:atemp>22.0</ns3:atemp>
          </ns3:TrackPointExtension>
        </extensions>
      </trkpt>
      <trkpt lat="42.51519511453807353973388671875" lon="19.7689722664654254913330078125">
        <ele>1827</ele>
        <time>2026-06-18T11:08:44.000Z</time>
        <extensions>
          <ns3:TrackPointExtension>
            <ns3:atemp>22.0</ns3:atemp>
          </ns3:TrackPointExtension>
        </extensions>
      </trkpt>
      <trkpt lat="42.51519511453807353973388671875" lon="19.7689722664654254913330078125">
        <ele>1827</ele>
        <time>2026-06-18T11:08:45.000Z</time>
        <extensions>
          <ns3:TrackPointExtension>
            <ns3:atemp>22.0</ns3:atemp>
          </ns3:TrackPointExtension>
        </extensions>
      </trkpt>
      <trkpt lat="42.51519511453807353973388671875" lon="19.7689722664654254913330078125">
        <ele>1827</ele>
        <time>2026-06-18T11:08:46.000Z</time>
        <extensions>
          <ns3:TrackPointExtension>
            <ns3:atemp>22.0</ns3:atemp>
          </ns3:TrackPointExtension>
        </extensions>
      </trkpt>
      <trkpt lat="42.51519511453807353973388671875" lon="19.7689722664654254913330078125">
        <ele>1827</ele>
        <time>2026-06-18T11:08:47.000Z</time>
        <extensions>
          <ns3:TrackPointExtension>
            <ns3:atemp>22.0</ns3:atemp>
          </ns3:TrackPointExtension>
        </extensions>
      </trkpt>
      <trkpt lat="42.51519511453807353973388671875" lon="19.7689722664654254913330078125">
        <ele>1827</ele>
        <time>2026-06-18T11:08:48.000Z</time>
        <extensions>
          <ns3:TrackPointExtension>
            <ns3:atemp>22.0</ns3:atemp>
          </ns3:TrackPointExtension>
        </extensions>
      </trkpt>
      <trkpt lat="42.51519511453807353973388671875" lon="19.7689722664654254913330078125">
        <ele>1827</ele>
        <time>2026-06-18T11:08:49.000Z</time>
        <extensions>
          <ns3:TrackPointExtension>
            <ns3:atemp>22.0</ns3:atemp>
          </ns3:TrackPointExtension>
        </extensions>
      </trkpt>
      <trkpt lat="42.51519511453807353973388671875" lon="19.7689722664654254913330078125">
        <ele>1827</ele>
        <time>2026-06-18T11:08:50.000Z</time>
        <extensions>
          <ns3:TrackPointExtension>
            <ns3:atemp>22.0</ns3:atemp>
          </ns3:TrackPointExtension>
        </extensions>
      </trkpt>
      <trkpt lat="42.51519511453807353973388671875" lon="19.7689722664654254913330078125">
        <ele>1827</ele>
        <time>2026-06-18T11:08:51.000Z</time>
        <extensions>
          <ns3:TrackPointExtension>
            <ns3:atemp>22.0</ns3:atemp>
          </ns3:TrackPointExtension>
        </extensions>
      </trkpt>
      <trkpt lat="42.51519511453807353973388671875" lon="19.7689722664654254913330078125">
        <ele>1827</ele>
        <time>2026-06-18T11:08:52.000Z</time>
        <extensions>
          <ns3:TrackPointExtension>
            <ns3:atemp>22.0</ns3:atemp>
          </ns3:TrackPointExtension>
        </extensions>
      </trkpt>
      <trkpt lat="42.51519511453807353973388671875" lon="19.7689722664654254913330078125">
        <ele>1827</ele>
        <time>2026-06-18T11:08:53.000Z</time>
        <extensions>
          <ns3:TrackPointExtension>
            <ns3:atemp>22.0</ns3:atemp>
          </ns3:TrackPointExtension>
        </extensions>
      </trkpt>
      <trkpt lat="42.51519511453807353973388671875" lon="19.7689722664654254913330078125">
        <ele>1827</ele>
        <time>2026-06-18T11:08:54.000Z</time>
        <extensions>
          <ns3:TrackPointExtension>
            <ns3:atemp>22.0</ns3:atemp>
          </ns3:TrackPointExtension>
        </extensions>
      </trkpt>
      <trkpt lat="42.51519511453807353973388671875" lon="19.7689722664654254913330078125">
        <ele>1827</ele>
        <time>2026-06-18T11:08:55.000Z</time>
        <extensions>
          <ns3:TrackPointExtension>
            <ns3:atemp>22.0</ns3:atemp>
          </ns3:TrackPointExtension>
        </extensions>
      </trkpt>
      <trkpt lat="42.51519511453807353973388671875" lon="19.7689722664654254913330078125">
        <ele>1827</ele>
        <time>2026-06-18T11:08:56.000Z</time>
        <extensions>
          <ns3:TrackPointExtension>
            <ns3:atemp>22.0</ns3:atemp>
          </ns3:TrackPointExtension>
        </extensions>
      </trkpt>
      <trkpt lat="42.51519511453807353973388671875" lon="19.7689722664654254913330078125">
        <ele>1827</ele>
        <time>2026-06-18T11:08:57.000Z</time>
        <extensions>
          <ns3:TrackPointExtension>
            <ns3:atemp>22.0</ns3:atemp>
          </ns3:TrackPointExtension>
        </extensions>
      </trkpt>
      <trkpt lat="42.51519511453807353973388671875" lon="19.7689722664654254913330078125">
        <ele>1827</ele>
        <time>2026-06-18T11:08:58.000Z</time>
        <extensions>
          <ns3:TrackPointExtension>
            <ns3:atemp>22.0</ns3:atemp>
          </ns3:TrackPointExtension>
        </extensions>
      </trkpt>
      <trkpt lat="42.51519511453807353973388671875" lon="19.7689722664654254913330078125">
        <ele>1827</ele>
        <time>2026-06-18T11:08:59.000Z</time>
        <extensions>
          <ns3:TrackPointExtension>
            <ns3:atemp>22.0</ns3:atemp>
          </ns3:TrackPointExtension>
        </extensions>
      </trkpt>
      <trkpt lat="42.51519511453807353973388671875" lon="19.7689722664654254913330078125">
        <ele>1827</ele>
        <time>2026-06-18T11:09:00.000Z</time>
        <extensions>
          <ns3:TrackPointExtension>
            <ns3:atemp>22.0</ns3:atemp>
          </ns3:TrackPointExtension>
        </extensions>
      </trkpt>
      <trkpt lat="42.51519511453807353973388671875" lon="19.7689722664654254913330078125">
        <ele>1827</ele>
        <time>2026-06-18T11:09:01.000Z</time>
        <extensions>
          <ns3:TrackPointExtension>
            <ns3:atemp>22.0</ns3:atemp>
          </ns3:TrackPointExtension>
        </extensions>
      </trkpt>
      <trkpt lat="42.51519511453807353973388671875" lon="19.7689722664654254913330078125">
        <ele>1827</ele>
        <time>2026-06-18T11:09:02.000Z</time>
        <extensions>
          <ns3:TrackPointExtension>
            <ns3:atemp>22.0</ns3:atemp>
          </ns3:TrackPointExtension>
        </extensions>
      </trkpt>
      <trkpt lat="42.51519511453807353973388671875" lon="19.7689722664654254913330078125">
        <ele>1827</ele>
        <time>2026-06-18T11:09:03.000Z</time>
        <extensions>
          <ns3:TrackPointExtension>
            <ns3:atemp>22.0</ns3:atemp>
          </ns3:TrackPointExtension>
        </extensions>
      </trkpt>
      <trkpt lat="42.51519511453807353973388671875" lon="19.7689722664654254913330078125">
        <ele>1827</ele>
        <time>2026-06-18T11:09:04.000Z</time>
        <extensions>
          <ns3:TrackPointExtension>
            <ns3:atemp>22.0</ns3:atemp>
          </ns3:TrackPointExtension>
        </extensions>
      </trkpt>
      <trkpt lat="42.51519511453807353973388671875" lon="19.7689722664654254913330078125">
        <ele>1827</ele>
        <time>2026-06-18T11:09:05.000Z</time>
        <extensions>
          <ns3:TrackPointExtension>
            <ns3:atemp>22.0</ns3:atemp>
          </ns3:TrackPointExtension>
        </extensions>
      </trkpt>
      <trkpt lat="42.51519511453807353973388671875" lon="19.7689722664654254913330078125">
        <ele>1827</ele>
        <time>2026-06-18T11:09:06.000Z</time>
        <extensions>
          <ns3:TrackPointExtension>
            <ns3:atemp>22.0</ns3:atemp>
          </ns3:TrackPointExtension>
        </extensions>
      </trkpt>
      <trkpt lat="42.51519511453807353973388671875" lon="19.7689722664654254913330078125">
        <ele>1827</ele>
        <time>2026-06-18T11:09:07.000Z</time>
        <extensions>
          <ns3:TrackPointExtension>
            <ns3:atemp>22.0</ns3:atemp>
          </ns3:TrackPointExtension>
        </extensions>
      </trkpt>
      <trkpt lat="42.51519511453807353973388671875" lon="19.7689722664654254913330078125">
        <ele>1827</ele>
        <time>2026-06-18T11:09:08.000Z</time>
        <extensions>
          <ns3:TrackPointExtension>
            <ns3:atemp>22.0</ns3:atemp>
          </ns3:TrackPointExtension>
        </extensions>
      </trkpt>
      <trkpt lat="42.51519511453807353973388671875" lon="19.7689722664654254913330078125">
        <ele>1827</ele>
        <time>2026-06-18T11:09:09.000Z</time>
        <extensions>
          <ns3:TrackPointExtension>
            <ns3:atemp>22.0</ns3:atemp>
          </ns3:TrackPointExtension>
        </extensions>
      </trkpt>
      <trkpt lat="42.51519511453807353973388671875" lon="19.7689722664654254913330078125">
        <ele>1827</ele>
        <time>2026-06-18T11:09:10.000Z</time>
        <extensions>
          <ns3:TrackPointExtension>
            <ns3:atemp>22.0</ns3:atemp>
          </ns3:TrackPointExtension>
        </extensions>
      </trkpt>
      <trkpt lat="42.51519511453807353973388671875" lon="19.7689722664654254913330078125">
        <ele>1827</ele>
        <time>2026-06-18T11:09:11.000Z</time>
        <extensions>
          <ns3:TrackPointExtension>
            <ns3:atemp>22.0</ns3:atemp>
          </ns3:TrackPointExtension>
        </extensions>
      </trkpt>
      <trkpt lat="42.51519511453807353973388671875" lon="19.7689722664654254913330078125">
        <ele>1827</ele>
        <time>2026-06-18T11:09:12.000Z</time>
        <extensions>
          <ns3:TrackPointExtension>
            <ns3:atemp>22.0</ns3:atemp>
          </ns3:TrackPointExtension>
        </extensions>
      </trkpt>
      <trkpt lat="42.51519511453807353973388671875" lon="19.7689722664654254913330078125">
        <ele>1827</ele>
        <time>2026-06-18T11:09:13.000Z</time>
        <extensions>
          <ns3:TrackPointExtension>
            <ns3:atemp>22.0</ns3:atemp>
          </ns3:TrackPointExtension>
        </extensions>
      </trkpt>
      <trkpt lat="42.51519511453807353973388671875" lon="19.7689722664654254913330078125">
        <ele>1827</ele>
        <time>2026-06-18T11:09:14.000Z</time>
        <extensions>
          <ns3:TrackPointExtension>
            <ns3:atemp>22.0</ns3:atemp>
          </ns3:TrackPointExtension>
        </extensions>
      </trkpt>
      <trkpt lat="42.51519511453807353973388671875" lon="19.7689722664654254913330078125">
        <ele>1827</ele>
        <time>2026-06-18T11:09:15.000Z</time>
        <extensions>
          <ns3:TrackPointExtension>
            <ns3:atemp>22.0</ns3:atemp>
          </ns3:TrackPointExtension>
        </extensions>
      </trkpt>
      <trkpt lat="42.51519511453807353973388671875" lon="19.7689722664654254913330078125">
        <ele>1827</ele>
        <time>2026-06-18T11:09:16.000Z</time>
        <extensions>
          <ns3:TrackPointExtension>
            <ns3:atemp>22.0</ns3:atemp>
          </ns3:TrackPointExtension>
        </extensions>
      </trkpt>
      <trkpt lat="42.51519511453807353973388671875" lon="19.7689722664654254913330078125">
        <ele>1827</ele>
        <time>2026-06-18T11:09:17.000Z</time>
        <extensions>
          <ns3:TrackPointExtension>
            <ns3:atemp>22.0</ns3:atemp>
          </ns3:TrackPointExtension>
        </extensions>
      </trkpt>
      <trkpt lat="42.51519511453807353973388671875" lon="19.7689722664654254913330078125">
        <ele>1827</ele>
        <time>2026-06-18T11:09:18.000Z</time>
        <extensions>
          <ns3:TrackPointExtension>
            <ns3:atemp>22.0</ns3:atemp>
          </ns3:TrackPointExtension>
        </extensions>
      </trkpt>
      <trkpt lat="42.51519511453807353973388671875" lon="19.7689722664654254913330078125">
        <ele>1827</ele>
        <time>2026-06-18T11:09:19.000Z</time>
        <extensions>
          <ns3:TrackPointExtension>
            <ns3:atemp>22.0</ns3:atemp>
          </ns3:TrackPointExtension>
        </extensions>
      </trkpt>
      <trkpt lat="42.51519511453807353973388671875" lon="19.7689722664654254913330078125">
        <ele>1827</ele>
        <time>2026-06-18T11:09:20.000Z</time>
        <extensions>
          <ns3:TrackPointExtension>
            <ns3:atemp>22.0</ns3:atemp>
          </ns3:TrackPointExtension>
        </extensions>
      </trkpt>
      <trkpt lat="42.51519511453807353973388671875" lon="19.7689722664654254913330078125">
        <ele>1827</ele>
        <time>2026-06-18T11:09:21.000Z</time>
        <extensions>
          <ns3:TrackPointExtension>
            <ns3:atemp>22.0</ns3:atemp>
          </ns3:TrackPointExtension>
        </extensions>
      </trkpt>
      <trkpt lat="42.51519511453807353973388671875" lon="19.7689722664654254913330078125">
        <ele>1827</ele>
        <time>2026-06-18T11:09:22.000Z</time>
        <extensions>
          <ns3:TrackPointExtension>
            <ns3:atemp>22.0</ns3:atemp>
          </ns3:TrackPointExtension>
        </extensions>
      </trkpt>
      <trkpt lat="42.51519511453807353973388671875" lon="19.7689722664654254913330078125">
        <ele>1827</ele>
        <time>2026-06-18T11:09:23.000Z</time>
        <extensions>
          <ns3:TrackPointExtension>
            <ns3:atemp>22.0</ns3:atemp>
          </ns3:TrackPointExtension>
        </extensions>
      </trkpt>
      <trkpt lat="42.51519511453807353973388671875" lon="19.7689722664654254913330078125">
        <ele>1827</ele>
        <time>2026-06-18T11:09:24.000Z</time>
        <extensions>
          <ns3:TrackPointExtension>
            <ns3:atemp>22.0</ns3:atemp>
          </ns3:TrackPointExtension>
        </extensions>
      </trkpt>
      <trkpt lat="42.51519511453807353973388671875" lon="19.7689722664654254913330078125">
        <ele>1827</ele>
        <time>2026-06-18T11:09:25.000Z</time>
        <extensions>
          <ns3:TrackPointExtension>
            <ns3:atemp>22.0</ns3:atemp>
          </ns3:TrackPointExtension>
        </extensions>
      </trkpt>
      <trkpt lat="42.51519511453807353973388671875" lon="19.7689722664654254913330078125">
        <ele>1827</ele>
        <time>2026-06-18T11:09:26.000Z</time>
        <extensions>
          <ns3:TrackPointExtension>
            <ns3:atemp>22.0</ns3:atemp>
          </ns3:TrackPointExtension>
        </extensions>
      </trkpt>
      <trkpt lat="42.51519511453807353973388671875" lon="19.7689722664654254913330078125">
        <ele>1827</ele>
        <time>2026-06-18T11:09:27.000Z</time>
        <extensions>
          <ns3:TrackPointExtension>
            <ns3:atemp>22.0</ns3:atemp>
          </ns3:TrackPointExtension>
        </extensions>
      </trkpt>
      <trkpt lat="42.51519511453807353973388671875" lon="19.7689722664654254913330078125">
        <ele>1827</ele>
        <time>2026-06-18T11:09:28.000Z</time>
        <extensions>
          <ns3:TrackPointExtension>
            <ns3:atemp>22.0</ns3:atemp>
          </ns3:TrackPointExtension>
        </extensions>
      </trkpt>
      <trkpt lat="42.51519511453807353973388671875" lon="19.7689722664654254913330078125">
        <ele>1827</ele>
        <time>2026-06-18T11:09:29.000Z</time>
        <extensions>
          <ns3:TrackPointExtension>
            <ns3:atemp>22.0</ns3:atemp>
          </ns3:TrackPointExtension>
        </extensions>
      </trkpt>
      <trkpt lat="42.51519511453807353973388671875" lon="19.7689722664654254913330078125">
        <ele>1827</ele>
        <time>2026-06-18T11:09:30.000Z</time>
        <extensions>
          <ns3:TrackPointExtension>
            <ns3:atemp>22.0</ns3:atemp>
          </ns3:TrackPointExtension>
        </extensions>
      </trkpt>
      <trkpt lat="42.51519511453807353973388671875" lon="19.7689722664654254913330078125">
        <ele>1827</ele>
        <time>2026-06-18T11:09:31.000Z</time>
        <extensions>
          <ns3:TrackPointExtension>
            <ns3:atemp>22.0</ns3:atemp>
          </ns3:TrackPointExtension>
        </extensions>
      </trkpt>
      <trkpt lat="42.51519511453807353973388671875" lon="19.7689722664654254913330078125">
        <ele>1827</ele>
        <time>2026-06-18T11:09:32.000Z</time>
        <extensions>
          <ns3:TrackPointExtension>
            <ns3:atemp>22.0</ns3:atemp>
          </ns3:TrackPointExtension>
        </extensions>
      </trkpt>
      <trkpt lat="42.51519511453807353973388671875" lon="19.7689722664654254913330078125">
        <ele>1827</ele>
        <time>2026-06-18T11:09:33.000Z</time>
        <extensions>
          <ns3:TrackPointExtension>
            <ns3:atemp>22.0</ns3:atemp>
          </ns3:TrackPointExtension>
        </extensions>
      </trkpt>
      <trkpt lat="42.51519511453807353973388671875" lon="19.7689722664654254913330078125">
        <ele>1827</ele>
        <time>2026-06-18T11:09:34.000Z</time>
        <extensions>
          <ns3:TrackPointExtension>
            <ns3:atemp>22.0</ns3:atemp>
          </ns3:TrackPointExtension>
        </extensions>
      </trkpt>
      <trkpt lat="42.51519511453807353973388671875" lon="19.7689722664654254913330078125">
        <ele>1827</ele>
        <time>2026-06-18T11:09:35.000Z</time>
        <extensions>
          <ns3:TrackPointExtension>
            <ns3:atemp>22.0</ns3:atemp>
          </ns3:TrackPointExtension>
        </extensions>
      </trkpt>
      <trkpt lat="42.51519511453807353973388671875" lon="19.7689722664654254913330078125">
        <ele>1827</ele>
        <time>2026-06-18T11:09:36.000Z</time>
        <extensions>
          <ns3:TrackPointExtension>
            <ns3:atemp>22.0</ns3:atemp>
          </ns3:TrackPointExtension>
        </extensions>
      </trkpt>
      <trkpt lat="42.51519511453807353973388671875" lon="19.7689722664654254913330078125">
        <ele>1827</ele>
        <time>2026-06-18T11:09:37.000Z</time>
        <extensions>
          <ns3:TrackPointExtension>
            <ns3:atemp>22.0</ns3:atemp>
          </ns3:TrackPointExtension>
        </extensions>
      </trkpt>
      <trkpt lat="42.51519511453807353973388671875" lon="19.7689722664654254913330078125">
        <ele>1827</ele>
        <time>2026-06-18T11:09:38.000Z</time>
        <extensions>
          <ns3:TrackPointExtension>
            <ns3:atemp>22.0</ns3:atemp>
          </ns3:TrackPointExtension>
        </extensions>
      </trkpt>
      <trkpt lat="42.51519511453807353973388671875" lon="19.7689722664654254913330078125">
        <ele>1827</ele>
        <time>2026-06-18T11:09:39.000Z</time>
        <extensions>
          <ns3:TrackPointExtension>
            <ns3:atemp>22.0</ns3:atemp>
          </ns3:TrackPointExtension>
        </extensions>
      </trkpt>
      <trkpt lat="42.51519511453807353973388671875" lon="19.7689722664654254913330078125">
        <ele>1827</ele>
        <time>2026-06-18T11:09:40.000Z</time>
        <extensions>
          <ns3:TrackPointExtension>
            <ns3:atemp>22.0</ns3:atemp>
          </ns3:TrackPointExtension>
        </extensions>
      </trkpt>
      <trkpt lat="42.51519511453807353973388671875" lon="19.7689722664654254913330078125">
        <ele>1827</ele>
        <time>2026-06-18T11:09:41.000Z</time>
        <extensions>
          <ns3:TrackPointExtension>
            <ns3:atemp>22.0</ns3:atemp>
          </ns3:TrackPointExtension>
        </extensions>
      </trkpt>
      <trkpt lat="42.51519511453807353973388671875" lon="19.7689722664654254913330078125">
        <ele>1827</ele>
        <time>2026-06-18T11:09:42.000Z</time>
        <extensions>
          <ns3:TrackPointExtension>
            <ns3:atemp>22.0</ns3:atemp>
          </ns3:TrackPointExtension>
        </extensions>
      </trkpt>
      <trkpt lat="42.51519511453807353973388671875" lon="19.7689722664654254913330078125">
        <ele>1827</ele>
        <time>2026-06-18T11:09:43.000Z</time>
        <extensions>
          <ns3:TrackPointExtension>
            <ns3:atemp>22.0</ns3:atemp>
          </ns3:TrackPointExtension>
        </extensions>
      </trkpt>
      <trkpt lat="42.51519511453807353973388671875" lon="19.7689722664654254913330078125">
        <ele>1827</ele>
        <time>2026-06-18T11:09:44.000Z</time>
        <extensions>
          <ns3:TrackPointExtension>
            <ns3:atemp>22.0</ns3:atemp>
          </ns3:TrackPointExtension>
        </extensions>
      </trkpt>
      <trkpt lat="42.51519511453807353973388671875" lon="19.7689722664654254913330078125">
        <ele>1827</ele>
        <time>2026-06-18T11:09:45.000Z</time>
        <extensions>
          <ns3:TrackPointExtension>
            <ns3:atemp>22.0</ns3:atemp>
          </ns3:TrackPointExtension>
        </extensions>
      </trkpt>
      <trkpt lat="42.51519511453807353973388671875" lon="19.7689722664654254913330078125">
        <ele>1827</ele>
        <time>2026-06-18T11:09:46.000Z</time>
        <extensions>
          <ns3:TrackPointExtension>
            <ns3:atemp>22.0</ns3:atemp>
          </ns3:TrackPointExtension>
        </extensions>
      </trkpt>
      <trkpt lat="42.51519511453807353973388671875" lon="19.7689722664654254913330078125">
        <ele>1827</ele>
        <time>2026-06-18T11:09:47.000Z</time>
        <extensions>
          <ns3:TrackPointExtension>
            <ns3:atemp>22.0</ns3:atemp>
          </ns3:TrackPointExtension>
        </extensions>
      </trkpt>
      <trkpt lat="42.51519511453807353973388671875" lon="19.7689722664654254913330078125">
        <ele>1827</ele>
        <time>2026-06-18T11:09:48.000Z</time>
        <extensions>
          <ns3:TrackPointExtension>
            <ns3:atemp>22.0</ns3:atemp>
          </ns3:TrackPointExtension>
        </extensions>
      </trkpt>
      <trkpt lat="42.51519511453807353973388671875" lon="19.7689722664654254913330078125">
        <ele>1827</ele>
        <time>2026-06-18T11:09:49.000Z</time>
        <extensions>
          <ns3:TrackPointExtension>
            <ns3:atemp>22.0</ns3:atemp>
          </ns3:TrackPointExtension>
        </extensions>
      </trkpt>
      <trkpt lat="42.51519511453807353973388671875" lon="19.7689722664654254913330078125">
        <ele>1827</ele>
        <time>2026-06-18T11:09:50.000Z</time>
        <extensions>
          <ns3:TrackPointExtension>
            <ns3:atemp>22.0</ns3:atemp>
          </ns3:TrackPointExtension>
        </extensions>
      </trkpt>
      <trkpt lat="42.51519511453807353973388671875" lon="19.7689722664654254913330078125">
        <ele>1827</ele>
        <time>2026-06-18T11:09:51.000Z</time>
        <extensions>
          <ns3:TrackPointExtension>
            <ns3:atemp>22.0</ns3:atemp>
          </ns3:TrackPointExtension>
        </extensions>
      </trkpt>
      <trkpt lat="42.51519511453807353973388671875" lon="19.7689722664654254913330078125">
        <ele>1827</ele>
        <time>2026-06-18T11:09:52.000Z</time>
        <extensions>
          <ns3:TrackPointExtension>
            <ns3:atemp>22.0</ns3:atemp>
          </ns3:TrackPointExtension>
        </extensions>
      </trkpt>
      <trkpt lat="42.51519511453807353973388671875" lon="19.7689722664654254913330078125">
        <ele>1827</ele>
        <time>2026-06-18T11:09:53.000Z</time>
        <extensions>
          <ns3:TrackPointExtension>
            <ns3:atemp>22.0</ns3:atemp>
          </ns3:TrackPointExtension>
        </extensions>
      </trkpt>
      <trkpt lat="42.51519511453807353973388671875" lon="19.7689722664654254913330078125">
        <ele>1827</ele>
        <time>2026-06-18T11:09:54.000Z</time>
        <extensions>
          <ns3:TrackPointExtension>
            <ns3:atemp>22.0</ns3:atemp>
          </ns3:TrackPointExtension>
        </extensions>
      </trkpt>
      <trkpt lat="42.51519511453807353973388671875" lon="19.7689722664654254913330078125">
        <ele>1827</ele>
        <time>2026-06-18T11:09:55.000Z</time>
        <extensions>
          <ns3:TrackPointExtension>
            <ns3:atemp>22.0</ns3:atemp>
          </ns3:TrackPointExtension>
        </extensions>
      </trkpt>
      <trkpt lat="42.51519511453807353973388671875" lon="19.7689722664654254913330078125">
        <ele>1827</ele>
        <time>2026-06-18T11:09:56.000Z</time>
        <extensions>
          <ns3:TrackPointExtension>
            <ns3:atemp>22.0</ns3:atemp>
          </ns3:TrackPointExtension>
        </extensions>
      </trkpt>
      <trkpt lat="42.51519511453807353973388671875" lon="19.7689722664654254913330078125">
        <ele>1827</ele>
        <time>2026-06-18T11:09:57.000Z</time>
        <extensions>
          <ns3:TrackPointExtension>
            <ns3:atemp>22.0</ns3:atemp>
          </ns3:TrackPointExtension>
        </extensions>
      </trkpt>
      <trkpt lat="42.51519511453807353973388671875" lon="19.7689722664654254913330078125">
        <ele>1827</ele>
        <time>2026-06-18T11:09:58.000Z</time>
        <extensions>
          <ns3:TrackPointExtension>
            <ns3:atemp>22.0</ns3:atemp>
          </ns3:TrackPointExtension>
        </extensions>
      </trkpt>
      <trkpt lat="42.51519511453807353973388671875" lon="19.7689722664654254913330078125">
        <ele>1827</ele>
        <time>2026-06-18T11:09:59.000Z</time>
        <extensions>
          <ns3:TrackPointExtension>
            <ns3:atemp>22.0</ns3:atemp>
          </ns3:TrackPointExtension>
        </extensions>
      </trkpt>
      <trkpt lat="42.51519511453807353973388671875" lon="19.7689722664654254913330078125">
        <ele>1827</ele>
        <time>2026-06-18T11:10:00.000Z</time>
        <extensions>
          <ns3:TrackPointExtension>
            <ns3:atemp>22.0</ns3:atemp>
          </ns3:TrackPointExtension>
        </extensions>
      </trkpt>
      <trkpt lat="42.51519511453807353973388671875" lon="19.7689722664654254913330078125">
        <ele>1827</ele>
        <time>2026-06-18T11:10:01.000Z</time>
        <extensions>
          <ns3:TrackPointExtension>
            <ns3:atemp>22.0</ns3:atemp>
          </ns3:TrackPointExtension>
        </extensions>
      </trkpt>
      <trkpt lat="42.51519511453807353973388671875" lon="19.7689722664654254913330078125">
        <ele>1827</ele>
        <time>2026-06-18T11:10:02.000Z</time>
        <extensions>
          <ns3:TrackPointExtension>
            <ns3:atemp>22.0</ns3:atemp>
          </ns3:TrackPointExtension>
        </extensions>
      </trkpt>
      <trkpt lat="42.51519511453807353973388671875" lon="19.7689722664654254913330078125">
        <ele>1827</ele>
        <time>2026-06-18T11:10:03.000Z</time>
        <extensions>
          <ns3:TrackPointExtension>
            <ns3:atemp>22.0</ns3:atemp>
          </ns3:TrackPointExtension>
        </extensions>
      </trkpt>
      <trkpt lat="42.51519511453807353973388671875" lon="19.7689722664654254913330078125">
        <ele>1827</ele>
        <time>2026-06-18T11:10:04.000Z</time>
        <extensions>
          <ns3:TrackPointExtension>
            <ns3:atemp>22.0</ns3:atemp>
          </ns3:TrackPointExtension>
        </extensions>
      </trkpt>
      <trkpt lat="42.51519511453807353973388671875" lon="19.7689722664654254913330078125">
        <ele>1827</ele>
        <time>2026-06-18T11:10:05.000Z</time>
        <extensions>
          <ns3:TrackPointExtension>
            <ns3:atemp>22.0</ns3:atemp>
          </ns3:TrackPointExtension>
        </extensions>
      </trkpt>
      <trkpt lat="42.51519511453807353973388671875" lon="19.7689722664654254913330078125">
        <ele>1827</ele>
        <time>2026-06-18T11:10:06.000Z</time>
        <extensions>
          <ns3:TrackPointExtension>
            <ns3:atemp>22.0</ns3:atemp>
          </ns3:TrackPointExtension>
        </extensions>
      </trkpt>
      <trkpt lat="42.51519511453807353973388671875" lon="19.7689722664654254913330078125">
        <ele>1827</ele>
        <time>2026-06-18T11:10:07.000Z</time>
        <extensions>
          <ns3:TrackPointExtension>
            <ns3:atemp>22.0</ns3:atemp>
          </ns3:TrackPointExtension>
        </extensions>
      </trkpt>
      <trkpt lat="42.51519511453807353973388671875" lon="19.7689722664654254913330078125">
        <ele>1827</ele>
        <time>2026-06-18T11:10:08.000Z</time>
        <extensions>
          <ns3:TrackPointExtension>
            <ns3:atemp>22.0</ns3:atemp>
          </ns3:TrackPointExtension>
        </extensions>
      </trkpt>
      <trkpt lat="42.51519511453807353973388671875" lon="19.7689722664654254913330078125">
        <ele>1827</ele>
        <time>2026-06-18T11:10:09.000Z</time>
        <extensions>
          <ns3:TrackPointExtension>
            <ns3:atemp>22.0</ns3:atemp>
          </ns3:TrackPointExtension>
        </extensions>
      </trkpt>
      <trkpt lat="42.51519511453807353973388671875" lon="19.7689722664654254913330078125">
        <ele>1827</ele>
        <time>2026-06-18T11:10:10.000Z</time>
        <extensions>
          <ns3:TrackPointExtension>
            <ns3:atemp>22.0</ns3:atemp>
          </ns3:TrackPointExtension>
        </extensions>
      </trkpt>
      <trkpt lat="42.51519511453807353973388671875" lon="19.7689722664654254913330078125">
        <ele>1827</ele>
        <time>2026-06-18T11:10:11.000Z</time>
        <extensions>
          <ns3:TrackPointExtension>
            <ns3:atemp>22.0</ns3:atemp>
          </ns3:TrackPointExtension>
        </extensions>
      </trkpt>
      <trkpt lat="42.51519511453807353973388671875" lon="19.7689722664654254913330078125">
        <ele>1827</ele>
        <time>2026-06-18T11:10:12.000Z</time>
        <extensions>
          <ns3:TrackPointExtension>
            <ns3:atemp>22.0</ns3:atemp>
          </ns3:TrackPointExtension>
        </extensions>
      </trkpt>
      <trkpt lat="42.51519511453807353973388671875" lon="19.7689722664654254913330078125">
        <ele>1827</ele>
        <time>2026-06-18T11:10:13.000Z</time>
        <extensions>
          <ns3:TrackPointExtension>
            <ns3:atemp>22.0</ns3:atemp>
          </ns3:TrackPointExtension>
        </extensions>
      </trkpt>
      <trkpt lat="42.51519511453807353973388671875" lon="19.7689722664654254913330078125">
        <ele>1827</ele>
        <time>2026-06-18T11:10:14.000Z</time>
        <extensions>
          <ns3:TrackPointExtension>
            <ns3:atemp>22.0</ns3:atemp>
          </ns3:TrackPointExtension>
        </extensions>
      </trkpt>
      <trkpt lat="42.51519511453807353973388671875" lon="19.7689722664654254913330078125">
        <ele>1827</ele>
        <time>2026-06-18T11:10:15.000Z</time>
        <extensions>
          <ns3:TrackPointExtension>
            <ns3:atemp>22.0</ns3:atemp>
          </ns3:TrackPointExtension>
        </extensions>
      </trkpt>
      <trkpt lat="42.51519511453807353973388671875" lon="19.7689722664654254913330078125">
        <ele>1827</ele>
        <time>2026-06-18T11:10:16.000Z</time>
        <extensions>
          <ns3:TrackPointExtension>
            <ns3:atemp>22.0</ns3:atemp>
          </ns3:TrackPointExtension>
        </extensions>
      </trkpt>
      <trkpt lat="42.51519511453807353973388671875" lon="19.7689722664654254913330078125">
        <ele>1827</ele>
        <time>2026-06-18T11:10:17.000Z</time>
        <extensions>
          <ns3:TrackPointExtension>
            <ns3:atemp>22.0</ns3:atemp>
          </ns3:TrackPointExtension>
        </extensions>
      </trkpt>
      <trkpt lat="42.51519511453807353973388671875" lon="19.7689722664654254913330078125">
        <ele>1827</ele>
        <time>2026-06-18T11:10:18.000Z</time>
        <extensions>
          <ns3:TrackPointExtension>
            <ns3:atemp>22.0</ns3:atemp>
          </ns3:TrackPointExtension>
        </extensions>
      </trkpt>
      <trkpt lat="42.51519511453807353973388671875" lon="19.7689722664654254913330078125">
        <ele>1827</ele>
        <time>2026-06-18T11:10:19.000Z</time>
        <extensions>
          <ns3:TrackPointExtension>
            <ns3:atemp>22.0</ns3:atemp>
          </ns3:TrackPointExtension>
        </extensions>
      </trkpt>
      <trkpt lat="42.51519511453807353973388671875" lon="19.7689722664654254913330078125">
        <ele>1827</ele>
        <time>2026-06-18T11:10:20.000Z</time>
        <extensions>
          <ns3:TrackPointExtension>
            <ns3:atemp>22.0</ns3:atemp>
          </ns3:TrackPointExtension>
        </extensions>
      </trkpt>
      <trkpt lat="42.51519511453807353973388671875" lon="19.7689722664654254913330078125">
        <ele>1827</ele>
        <time>2026-06-18T11:10:21.000Z</time>
        <extensions>
          <ns3:TrackPointExtension>
            <ns3:atemp>22.0</ns3:atemp>
          </ns3:TrackPointExtension>
        </extensions>
      </trkpt>
      <trkpt lat="42.51519511453807353973388671875" lon="19.7689722664654254913330078125">
        <ele>1827</ele>
        <time>2026-06-18T11:10:22.000Z</time>
        <extensions>
          <ns3:TrackPointExtension>
            <ns3:atemp>22.0</ns3:atemp>
          </ns3:TrackPointExtension>
        </extensions>
      </trkpt>
      <trkpt lat="42.51519511453807353973388671875" lon="19.7689722664654254913330078125">
        <ele>1827</ele>
        <time>2026-06-18T11:10:23.000Z</time>
        <extensions>
          <ns3:TrackPointExtension>
            <ns3:atemp>22.0</ns3:atemp>
          </ns3:TrackPointExtension>
        </extensions>
      </trkpt>
      <trkpt lat="42.51519511453807353973388671875" lon="19.7689722664654254913330078125">
        <ele>1827</ele>
        <time>2026-06-18T11:10:24.000Z</time>
        <extensions>
          <ns3:TrackPointExtension>
            <ns3:atemp>22.0</ns3:atemp>
          </ns3:TrackPointExtension>
        </extensions>
      </trkpt>
      <trkpt lat="42.51519511453807353973388671875" lon="19.7689722664654254913330078125">
        <ele>1827</ele>
        <time>2026-06-18T11:10:25.000Z</time>
        <extensions>
          <ns3:TrackPointExtension>
            <ns3:atemp>22.0</ns3:atemp>
          </ns3:TrackPointExtension>
        </extensions>
      </trkpt>
      <trkpt lat="42.51519511453807353973388671875" lon="19.7689722664654254913330078125">
        <ele>1827</ele>
        <time>2026-06-18T11:10:26.000Z</time>
        <extensions>
          <ns3:TrackPointExtension>
            <ns3:atemp>22.0</ns3:atemp>
          </ns3:TrackPointExtension>
        </extensions>
      </trkpt>
      <trkpt lat="42.51519511453807353973388671875" lon="19.7689722664654254913330078125">
        <ele>1827</ele>
        <time>2026-06-18T11:10:27.000Z</time>
        <extensions>
          <ns3:TrackPointExtension>
            <ns3:atemp>22.0</ns3:atemp>
          </ns3:TrackPointExtension>
        </extensions>
      </trkpt>
      <trkpt lat="42.51519511453807353973388671875" lon="19.7689722664654254913330078125">
        <ele>1827</ele>
        <time>2026-06-18T11:10:28.000Z</time>
        <extensions>
          <ns3:TrackPointExtension>
            <ns3:atemp>22.0</ns3:atemp>
          </ns3:TrackPointExtension>
        </extensions>
      </trkpt>
      <trkpt lat="42.51519511453807353973388671875" lon="19.7689722664654254913330078125">
        <ele>1827</ele>
        <time>2026-06-18T11:10:29.000Z</time>
        <extensions>
          <ns3:TrackPointExtension>
            <ns3:atemp>22.0</ns3:atemp>
          </ns3:TrackPointExtension>
        </extensions>
      </trkpt>
      <trkpt lat="42.51519511453807353973388671875" lon="19.7689722664654254913330078125">
        <ele>1827</ele>
        <time>2026-06-18T11:10:30.000Z</time>
        <extensions>
          <ns3:TrackPointExtension>
            <ns3:atemp>22.0</ns3:atemp>
          </ns3:TrackPointExtension>
        </extensions>
      </trkpt>
      <trkpt lat="42.51519511453807353973388671875" lon="19.7689722664654254913330078125">
        <ele>1827</ele>
        <time>2026-06-18T11:10:31.000Z</time>
        <extensions>
          <ns3:TrackPointExtension>
            <ns3:atemp>22.0</ns3:atemp>
          </ns3:TrackPointExtension>
        </extensions>
      </trkpt>
      <trkpt lat="42.51519511453807353973388671875" lon="19.7689722664654254913330078125">
        <ele>1827</ele>
        <time>2026-06-18T11:10:32.000Z</time>
        <extensions>
          <ns3:TrackPointExtension>
            <ns3:atemp>22.0</ns3:atemp>
          </ns3:TrackPointExtension>
        </extensions>
      </trkpt>
      <trkpt lat="42.51519511453807353973388671875" lon="19.7689722664654254913330078125">
        <ele>1827</ele>
        <time>2026-06-18T11:10:33.000Z</time>
        <extensions>
          <ns3:TrackPointExtension>
            <ns3:atemp>22.0</ns3:atemp>
          </ns3:TrackPointExtension>
        </extensions>
      </trkpt>
      <trkpt lat="42.51519511453807353973388671875" lon="19.7689722664654254913330078125">
        <ele>1827</ele>
        <time>2026-06-18T11:10:34.000Z</time>
        <extensions>
          <ns3:TrackPointExtension>
            <ns3:atemp>22.0</ns3:atemp>
          </ns3:TrackPointExtension>
        </extensions>
      </trkpt>
      <trkpt lat="42.51519511453807353973388671875" lon="19.7689722664654254913330078125">
        <ele>1827</ele>
        <time>2026-06-18T11:10:35.000Z</time>
        <extensions>
          <ns3:TrackPointExtension>
            <ns3:atemp>22.0</ns3:atemp>
          </ns3:TrackPointExtension>
        </extensions>
      </trkpt>
      <trkpt lat="42.51519511453807353973388671875" lon="19.7689722664654254913330078125">
        <ele>1827</ele>
        <time>2026-06-18T11:10:36.000Z</time>
        <extensions>
          <ns3:TrackPointExtension>
            <ns3:atemp>22.0</ns3:atemp>
          </ns3:TrackPointExtension>
        </extensions>
      </trkpt>
      <trkpt lat="42.51519511453807353973388671875" lon="19.7689722664654254913330078125">
        <ele>1827</ele>
        <time>2026-06-18T11:10:37.000Z</time>
        <extensions>
          <ns3:TrackPointExtension>
            <ns3:atemp>22.0</ns3:atemp>
          </ns3:TrackPointExtension>
        </extensions>
      </trkpt>
      <trkpt lat="42.51519511453807353973388671875" lon="19.7689722664654254913330078125">
        <ele>1827</ele>
        <time>2026-06-18T11:10:38.000Z</time>
        <extensions>
          <ns3:TrackPointExtension>
            <ns3:atemp>22.0</ns3:atemp>
          </ns3:TrackPointExtension>
        </extensions>
      </trkpt>
      <trkpt lat="42.51519511453807353973388671875" lon="19.7689722664654254913330078125">
        <ele>1827</ele>
        <time>2026-06-18T11:10:39.000Z</time>
        <extensions>
          <ns3:TrackPointExtension>
            <ns3:atemp>22.0</ns3:atemp>
          </ns3:TrackPointExtension>
        </extensions>
      </trkpt>
      <trkpt lat="42.51519511453807353973388671875" lon="19.7689722664654254913330078125">
        <ele>1827</ele>
        <time>2026-06-18T11:10:40.000Z</time>
        <extensions>
          <ns3:TrackPointExtension>
            <ns3:atemp>22.0</ns3:atemp>
          </ns3:TrackPointExtension>
        </extensions>
      </trkpt>
      <trkpt lat="42.51519511453807353973388671875" lon="19.7689722664654254913330078125">
        <ele>1827</ele>
        <time>2026-06-18T11:10:41.000Z</time>
        <extensions>
          <ns3:TrackPointExtension>
            <ns3:atemp>22.0</ns3:atemp>
          </ns3:TrackPointExtension>
        </extensions>
      </trkpt>
      <trkpt lat="42.51519511453807353973388671875" lon="19.7689722664654254913330078125">
        <ele>1827</ele>
        <time>2026-06-18T11:10:42.000Z</time>
        <extensions>
          <ns3:TrackPointExtension>
            <ns3:atemp>22.0</ns3:atemp>
          </ns3:TrackPointExtension>
        </extensions>
      </trkpt>
      <trkpt lat="42.51519511453807353973388671875" lon="19.7689722664654254913330078125">
        <ele>1827</ele>
        <time>2026-06-18T11:10:43.000Z</time>
        <extensions>
          <ns3:TrackPointExtension>
            <ns3:atemp>22.0</ns3:atemp>
          </ns3:TrackPointExtension>
        </extensions>
      </trkpt>
      <trkpt lat="42.51519511453807353973388671875" lon="19.7689722664654254913330078125">
        <ele>1827</ele>
        <time>2026-06-18T11:10:44.000Z</time>
        <extensions>
          <ns3:TrackPointExtension>
            <ns3:atemp>22.0</ns3:atemp>
          </ns3:TrackPointExtension>
        </extensions>
      </trkpt>
      <trkpt lat="42.51519511453807353973388671875" lon="19.7689722664654254913330078125">
        <ele>1827</ele>
        <time>2026-06-18T11:10:45.000Z</time>
        <extensions>
          <ns3:TrackPointExtension>
            <ns3:atemp>22.0</ns3:atemp>
          </ns3:TrackPointExtension>
        </extensions>
      </trkpt>
      <trkpt lat="42.51519511453807353973388671875" lon="19.7689722664654254913330078125">
        <ele>1827</ele>
        <time>2026-06-18T11:10:46.000Z</time>
        <extensions>
          <ns3:TrackPointExtension>
            <ns3:atemp>22.0</ns3:atemp>
          </ns3:TrackPointExtension>
        </extensions>
      </trkpt>
      <trkpt lat="42.51519511453807353973388671875" lon="19.7689722664654254913330078125">
        <ele>1827</ele>
        <time>2026-06-18T11:10:47.000Z</time>
        <extensions>
          <ns3:TrackPointExtension>
            <ns3:atemp>22.0</ns3:atemp>
          </ns3:TrackPointExtension>
        </extensions>
      </trkpt>
      <trkpt lat="42.51519511453807353973388671875" lon="19.7689722664654254913330078125">
        <ele>1827</ele>
        <time>2026-06-18T11:10:48.000Z</time>
        <extensions>
          <ns3:TrackPointExtension>
            <ns3:atemp>22.0</ns3:atemp>
          </ns3:TrackPointExtension>
        </extensions>
      </trkpt>
      <trkpt lat="42.51519511453807353973388671875" lon="19.7689722664654254913330078125">
        <ele>1827</ele>
        <time>2026-06-18T11:10:49.000Z</time>
        <extensions>
          <ns3:TrackPointExtension>
            <ns3:atemp>22.0</ns3:atemp>
          </ns3:TrackPointExtension>
        </extensions>
      </trkpt>
      <trkpt lat="42.51519511453807353973388671875" lon="19.7689722664654254913330078125">
        <ele>1827</ele>
        <time>2026-06-18T11:10:50.000Z</time>
        <extensions>
          <ns3:TrackPointExtension>
            <ns3:atemp>22.0</ns3:atemp>
          </ns3:TrackPointExtension>
        </extensions>
      </trkpt>
      <trkpt lat="42.51519511453807353973388671875" lon="19.7689722664654254913330078125">
        <ele>1827</ele>
        <time>2026-06-18T11:10:51.000Z</time>
        <extensions>
          <ns3:TrackPointExtension>
            <ns3:atemp>22.0</ns3:atemp>
          </ns3:TrackPointExtension>
        </extensions>
      </trkpt>
      <trkpt lat="42.51519511453807353973388671875" lon="19.7689722664654254913330078125">
        <ele>1827</ele>
        <time>2026-06-18T11:10:52.000Z</time>
        <extensions>
          <ns3:TrackPointExtension>
            <ns3:atemp>22.0</ns3:atemp>
          </ns3:TrackPointExtension>
        </extensions>
      </trkpt>
      <trkpt lat="42.51519511453807353973388671875" lon="19.7689722664654254913330078125">
        <ele>1827</ele>
        <time>2026-06-18T11:10:53.000Z</time>
        <extensions>
          <ns3:TrackPointExtension>
            <ns3:atemp>22.0</ns3:atemp>
          </ns3:TrackPointExtension>
        </extensions>
      </trkpt>
      <trkpt lat="42.51519511453807353973388671875" lon="19.7689722664654254913330078125">
        <ele>1827</ele>
        <time>2026-06-18T11:10:54.000Z</time>
        <extensions>
          <ns3:TrackPointExtension>
            <ns3:atemp>22.0</ns3:atemp>
          </ns3:TrackPointExtension>
        </extensions>
      </trkpt>
      <trkpt lat="42.51519511453807353973388671875" lon="19.7689722664654254913330078125">
        <ele>1827</ele>
        <time>2026-06-18T11:10:55.000Z</time>
        <extensions>
          <ns3:TrackPointExtension>
            <ns3:atemp>22.0</ns3:atemp>
          </ns3:TrackPointExtension>
        </extensions>
      </trkpt>
      <trkpt lat="42.51519511453807353973388671875" lon="19.7689722664654254913330078125">
        <ele>1827</ele>
        <time>2026-06-18T11:10:56.000Z</time>
        <extensions>
          <ns3:TrackPointExtension>
            <ns3:atemp>22.0</ns3:atemp>
          </ns3:TrackPointExtension>
        </extensions>
      </trkpt>
      <trkpt lat="42.51519511453807353973388671875" lon="19.7689722664654254913330078125">
        <ele>1827</ele>
        <time>2026-06-18T11:10:57.000Z</time>
        <extensions>
          <ns3:TrackPointExtension>
            <ns3:atemp>22.0</ns3:atemp>
          </ns3:TrackPointExtension>
        </extensions>
      </trkpt>
      <trkpt lat="42.51519511453807353973388671875" lon="19.7689722664654254913330078125">
        <ele>1827</ele>
        <time>2026-06-18T11:10:58.000Z</time>
        <extensions>
          <ns3:TrackPointExtension>
            <ns3:atemp>22.0</ns3:atemp>
          </ns3:TrackPointExtension>
        </extensions>
      </trkpt>
      <trkpt lat="42.51519511453807353973388671875" lon="19.7689722664654254913330078125">
        <ele>1827</ele>
        <time>2026-06-18T11:10:59.000Z</time>
        <extensions>
          <ns3:TrackPointExtension>
            <ns3:atemp>22.0</ns3:atemp>
          </ns3:TrackPointExtension>
        </extensions>
      </trkpt>
      <trkpt lat="42.51519511453807353973388671875" lon="19.7689722664654254913330078125">
        <ele>1827</ele>
        <time>2026-06-18T11:11:00.000Z</time>
        <extensions>
          <ns3:TrackPointExtension>
            <ns3:atemp>22.0</ns3:atemp>
          </ns3:TrackPointExtension>
        </extensions>
      </trkpt>
      <trkpt lat="42.51519511453807353973388671875" lon="19.7689722664654254913330078125">
        <ele>1824.5999755859375</ele>
        <time>2026-06-18T11:11:01.000Z</time>
        <extensions>
          <ns3:TrackPointExtension>
            <ns3:atemp>22.0</ns3:atemp>
          </ns3:TrackPointExtension>
        </extensions>
      </trkpt>
      <trkpt lat="42.51519511453807353973388671875" lon="19.7689722664654254913330078125">
        <ele>1824.5999755859375</ele>
        <time>2026-06-18T11:11:02.000Z</time>
        <extensions>
          <ns3:TrackPointExtension>
            <ns3:atemp>22.0</ns3:atemp>
          </ns3:TrackPointExtension>
        </extensions>
      </trkpt>
      <trkpt lat="42.51519511453807353973388671875" lon="19.7689722664654254913330078125">
        <ele>1824.5999755859375</ele>
        <time>2026-06-18T11:11:03.000Z</time>
        <extensions>
          <ns3:TrackPointExtension>
            <ns3:atemp>22.0</ns3:atemp>
          </ns3:TrackPointExtension>
        </extensions>
      </trkpt>
      <trkpt lat="42.51519511453807353973388671875" lon="19.7689722664654254913330078125">
        <ele>1824.5999755859375</ele>
        <time>2026-06-18T11:11:04.000Z</time>
        <extensions>
          <ns3:TrackPointExtension>
            <ns3:atemp>22.0</ns3:atemp>
          </ns3:TrackPointExtension>
        </extensions>
      </trkpt>
      <trkpt lat="42.51519511453807353973388671875" lon="19.7689722664654254913330078125">
        <ele>1824.5999755859375</ele>
        <time>2026-06-18T11:11:05.000Z</time>
        <extensions>
          <ns3:TrackPointExtension>
            <ns3:atemp>22.0</ns3:atemp>
          </ns3:TrackPointExtension>
        </extensions>
      </trkpt>
      <trkpt lat="42.51519511453807353973388671875" lon="19.7689722664654254913330078125">
        <ele>1824.4000244140625</ele>
        <time>2026-06-18T11:11:06.000Z</time>
        <extensions>
          <ns3:TrackPointExtension>
            <ns3:atemp>22.0</ns3:atemp>
          </ns3:TrackPointExtension>
        </extensions>
      </trkpt>
      <trkpt lat="42.51519511453807353973388671875" lon="19.7689722664654254913330078125">
        <ele>1824.4000244140625</ele>
        <time>2026-06-18T11:11:07.000Z</time>
        <extensions>
          <ns3:TrackPointExtension>
            <ns3:atemp>22.0</ns3:atemp>
          </ns3:TrackPointExtension>
        </extensions>
      </trkpt>
      <trkpt lat="42.51519511453807353973388671875" lon="19.7689722664654254913330078125">
        <ele>1824.4000244140625</ele>
        <time>2026-06-18T11:11:08.000Z</time>
        <extensions>
          <ns3:TrackPointExtension>
            <ns3:atemp>22.0</ns3:atemp>
          </ns3:TrackPointExtension>
        </extensions>
      </trkpt>
      <trkpt lat="42.51519511453807353973388671875" lon="19.7689722664654254913330078125">
        <ele>1824.5999755859375</ele>
        <time>2026-06-18T11:11:09.000Z</time>
        <extensions>
          <ns3:TrackPointExtension>
            <ns3:atemp>22.0</ns3:atemp>
          </ns3:TrackPointExtension>
        </extensions>
      </trkpt>
      <trkpt lat="42.51519511453807353973388671875" lon="19.7689722664654254913330078125">
        <ele>1824.5999755859375</ele>
        <time>2026-06-18T11:11:10.000Z</time>
        <extensions>
          <ns3:TrackPointExtension>
            <ns3:atemp>22.0</ns3:atemp>
          </ns3:TrackPointExtension>
        </extensions>
      </trkpt>
      <trkpt lat="42.51519511453807353973388671875" lon="19.7689722664654254913330078125">
        <ele>1824.800048828125</ele>
        <time>2026-06-18T11:11:11.000Z</time>
        <extensions>
          <ns3:TrackPointExtension>
            <ns3:atemp>22.0</ns3:atemp>
          </ns3:TrackPointExtension>
        </extensions>
      </trkpt>
      <trkpt lat="42.51519511453807353973388671875" lon="19.7689722664654254913330078125">
        <ele>1825</ele>
        <time>2026-06-18T11:11:12.000Z</time>
        <extensions>
          <ns3:TrackPointExtension>
            <ns3:atemp>22.0</ns3:atemp>
          </ns3:TrackPointExtension>
        </extensions>
      </trkpt>
      <trkpt lat="42.51519511453807353973388671875" lon="19.7689722664654254913330078125">
        <ele>1825</ele>
        <time>2026-06-18T11:11:13.000Z</time>
        <extensions>
          <ns3:TrackPointExtension>
            <ns3:atemp>22.0</ns3:atemp>
          </ns3:TrackPointExtension>
        </extensions>
      </trkpt>
      <trkpt lat="42.51519511453807353973388671875" lon="19.7689722664654254913330078125">
        <ele>1825.199951171875</ele>
        <time>2026-06-18T11:11:14.000Z</time>
        <extensions>
          <ns3:TrackPointExtension>
            <ns3:atemp>22.0</ns3:atemp>
          </ns3:TrackPointExtension>
        </extensions>
      </trkpt>
      <trkpt lat="42.51519511453807353973388671875" lon="19.7689722664654254913330078125">
        <ele>1825.4000244140625</ele>
        <time>2026-06-18T11:11:15.000Z</time>
        <extensions>
          <ns3:TrackPointExtension>
            <ns3:atemp>22.0</ns3:atemp>
          </ns3:TrackPointExtension>
        </extensions>
      </trkpt>
      <trkpt lat="42.51519511453807353973388671875" lon="19.7689722664654254913330078125">
        <ele>1825.4000244140625</ele>
        <time>2026-06-18T11:11:16.000Z</time>
        <extensions>
          <ns3:TrackPointExtension>
            <ns3:atemp>22.0</ns3:atemp>
          </ns3:TrackPointExtension>
        </extensions>
      </trkpt>
      <trkpt lat="42.51519511453807353973388671875" lon="19.7689722664654254913330078125">
        <ele>1825.5999755859375</ele>
        <time>2026-06-18T11:11:17.000Z</time>
        <extensions>
          <ns3:TrackPointExtension>
            <ns3:atemp>22.0</ns3:atemp>
          </ns3:TrackPointExtension>
        </extensions>
      </trkpt>
      <trkpt lat="42.51519511453807353973388671875" lon="19.7689722664654254913330078125">
        <ele>1825.5999755859375</ele>
        <time>2026-06-18T11:11:18.000Z</time>
        <extensions>
          <ns3:TrackPointExtension>
            <ns3:atemp>22.0</ns3:atemp>
          </ns3:TrackPointExtension>
        </extensions>
      </trkpt>
      <trkpt lat="42.51519511453807353973388671875" lon="19.7689722664654254913330078125">
        <ele>1825.800048828125</ele>
        <time>2026-06-18T11:11:19.000Z</time>
        <extensions>
          <ns3:TrackPointExtension>
            <ns3:atemp>22.0</ns3:atemp>
          </ns3:TrackPointExtension>
        </extensions>
      </trkpt>
      <trkpt lat="42.51519511453807353973388671875" lon="19.7689722664654254913330078125">
        <ele>1825.800048828125</ele>
        <time>2026-06-18T11:11:20.000Z</time>
        <extensions>
          <ns3:TrackPointExtension>
            <ns3:atemp>22.0</ns3:atemp>
          </ns3:TrackPointExtension>
        </extensions>
      </trkpt>
      <trkpt lat="42.51519511453807353973388671875" lon="19.7689722664654254913330078125">
        <ele>1825.800048828125</ele>
        <time>2026-06-18T11:11:21.000Z</time>
        <extensions>
          <ns3:TrackPointExtension>
            <ns3:atemp>22.0</ns3:atemp>
          </ns3:TrackPointExtension>
        </extensions>
      </trkpt>
      <trkpt lat="42.51519511453807353973388671875" lon="19.7689722664654254913330078125">
        <ele>1826</ele>
        <time>2026-06-18T11:11:22.000Z</time>
        <extensions>
          <ns3:TrackPointExtension>
            <ns3:atemp>22.0</ns3:atemp>
          </ns3:TrackPointExtension>
        </extensions>
      </trkpt>
      <trkpt lat="42.51519511453807353973388671875" lon="19.7689722664654254913330078125">
        <ele>1826</ele>
        <time>2026-06-18T11:11:23.000Z</time>
        <extensions>
          <ns3:TrackPointExtension>
            <ns3:atemp>22.0</ns3:atemp>
          </ns3:TrackPointExtension>
        </extensions>
      </trkpt>
      <trkpt lat="42.51519511453807353973388671875" lon="19.7689722664654254913330078125">
        <ele>1826</ele>
        <time>2026-06-18T11:11:24.000Z</time>
        <extensions>
          <ns3:TrackPointExtension>
            <ns3:atemp>22.0</ns3:atemp>
          </ns3:TrackPointExtension>
        </extensions>
      </trkpt>
      <trkpt lat="42.51519511453807353973388671875" lon="19.7689722664654254913330078125">
        <ele>1826</ele>
        <time>2026-06-18T11:11:25.000Z</time>
        <extensions>
          <ns3:TrackPointExtension>
            <ns3:atemp>22.0</ns3:atemp>
          </ns3:TrackPointExtension>
        </extensions>
      </trkpt>
      <trkpt lat="42.51519511453807353973388671875" lon="19.7689722664654254913330078125">
        <ele>1826.199951171875</ele>
        <time>2026-06-18T11:11:26.000Z</time>
        <extensions>
          <ns3:TrackPointExtension>
            <ns3:atemp>22.0</ns3:atemp>
          </ns3:TrackPointExtension>
        </extensions>
      </trkpt>
      <trkpt lat="42.51519511453807353973388671875" lon="19.7689722664654254913330078125">
        <ele>1826.199951171875</ele>
        <time>2026-06-18T11:11:27.000Z</time>
        <extensions>
          <ns3:TrackPointExtension>
            <ns3:atemp>22.0</ns3:atemp>
          </ns3:TrackPointExtension>
        </extensions>
      </trkpt>
      <trkpt lat="42.51519511453807353973388671875" lon="19.7689722664654254913330078125">
        <ele>1826</ele>
        <time>2026-06-18T11:11:28.000Z</time>
        <extensions>
          <ns3:TrackPointExtension>
            <ns3:atemp>22.0</ns3:atemp>
          </ns3:TrackPointExtension>
        </extensions>
      </trkpt>
      <trkpt lat="42.51519511453807353973388671875" lon="19.7689722664654254913330078125">
        <ele>1826</ele>
        <time>2026-06-18T11:11:29.000Z</time>
        <extensions>
          <ns3:TrackPointExtension>
            <ns3:atemp>22.0</ns3:atemp>
          </ns3:TrackPointExtension>
        </extensions>
      </trkpt>
      <trkpt lat="42.51519511453807353973388671875" lon="19.7689722664654254913330078125">
        <ele>1826</ele>
        <time>2026-06-18T11:11:30.000Z</time>
        <extensions>
          <ns3:TrackPointExtension>
            <ns3:atemp>22.0</ns3:atemp>
          </ns3:TrackPointExtension>
        </extensions>
      </trkpt>
      <trkpt lat="42.51519511453807353973388671875" lon="19.7689722664654254913330078125">
        <ele>1826</ele>
        <time>2026-06-18T11:11:31.000Z</time>
        <extensions>
          <ns3:TrackPointExtension>
            <ns3:atemp>22.0</ns3:atemp>
          </ns3:TrackPointExtension>
        </extensions>
      </trkpt>
      <trkpt lat="42.51519511453807353973388671875" lon="19.7689722664654254913330078125">
        <ele>1826</ele>
        <time>2026-06-18T11:11:32.000Z</time>
        <extensions>
          <ns3:TrackPointExtension>
            <ns3:atemp>22.0</ns3:atemp>
          </ns3:TrackPointExtension>
        </extensions>
      </trkpt>
      <trkpt lat="42.51519511453807353973388671875" lon="19.7689722664654254913330078125">
        <ele>1826.199951171875</ele>
        <time>2026-06-18T11:11:33.000Z</time>
        <extensions>
          <ns3:TrackPointExtension>
            <ns3:atemp>22.0</ns3:atemp>
          </ns3:TrackPointExtension>
        </extensions>
      </trkpt>
      <trkpt lat="42.51519511453807353973388671875" lon="19.7689722664654254913330078125">
        <ele>1826.199951171875</ele>
        <time>2026-06-18T11:11:34.000Z</time>
        <extensions>
          <ns3:TrackPointExtension>
            <ns3:atemp>22.0</ns3:atemp>
          </ns3:TrackPointExtension>
        </extensions>
      </trkpt>
      <trkpt lat="42.51519511453807353973388671875" lon="19.7689722664654254913330078125">
        <ele>1826.4000244140625</ele>
        <time>2026-06-18T11:11:35.000Z</time>
        <extensions>
          <ns3:TrackPointExtension>
            <ns3:atemp>22.0</ns3:atemp>
          </ns3:TrackPointExtension>
        </extensions>
      </trkpt>
      <trkpt lat="42.51519511453807353973388671875" lon="19.7689722664654254913330078125">
        <ele>1826.4000244140625</ele>
        <time>2026-06-18T11:11:36.000Z</time>
        <extensions>
          <ns3:TrackPointExtension>
            <ns3:atemp>22.0</ns3:atemp>
          </ns3:TrackPointExtension>
        </extensions>
      </trkpt>
      <trkpt lat="42.51519511453807353973388671875" lon="19.7689722664654254913330078125">
        <ele>1826.4000244140625</ele>
        <time>2026-06-18T11:11:37.000Z</time>
        <extensions>
          <ns3:TrackPointExtension>
            <ns3:atemp>22.0</ns3:atemp>
          </ns3:TrackPointExtension>
        </extensions>
      </trkpt>
      <trkpt lat="42.51519511453807353973388671875" lon="19.7689722664654254913330078125">
        <ele>1826.4000244140625</ele>
        <time>2026-06-18T11:11:38.000Z</time>
        <extensions>
          <ns3:TrackPointExtension>
            <ns3:atemp>22.0</ns3:atemp>
          </ns3:TrackPointExtension>
        </extensions>
      </trkpt>
      <trkpt lat="42.51519511453807353973388671875" lon="19.7689722664654254913330078125">
        <ele>1826.4000244140625</ele>
        <time>2026-06-18T11:11:39.000Z</time>
        <extensions>
          <ns3:TrackPointExtension>
            <ns3:atemp>22.0</ns3:atemp>
          </ns3:TrackPointExtension>
        </extensions>
      </trkpt>
      <trkpt lat="42.51519511453807353973388671875" lon="19.7689722664654254913330078125">
        <ele>1826.4000244140625</ele>
        <time>2026-06-18T11:11:40.000Z</time>
        <extensions>
          <ns3:TrackPointExtension>
            <ns3:atemp>22.0</ns3:atemp>
          </ns3:TrackPointExtension>
        </extensions>
      </trkpt>
      <trkpt lat="42.51519511453807353973388671875" lon="19.7689722664654254913330078125">
        <ele>1826.4000244140625</ele>
        <time>2026-06-18T11:11:41.000Z</time>
        <extensions>
          <ns3:TrackPointExtension>
            <ns3:atemp>22.0</ns3:atemp>
          </ns3:TrackPointExtension>
        </extensions>
      </trkpt>
      <trkpt lat="42.51519511453807353973388671875" lon="19.7689722664654254913330078125">
        <ele>1826.4000244140625</ele>
        <time>2026-06-18T11:11:42.000Z</time>
        <extensions>
          <ns3:TrackPointExtension>
            <ns3:atemp>22.0</ns3:atemp>
          </ns3:TrackPointExtension>
        </extensions>
      </trkpt>
      <trkpt lat="42.51519511453807353973388671875" lon="19.7689722664654254913330078125">
        <ele>1826.4000244140625</ele>
        <time>2026-06-18T11:11:43.000Z</time>
        <extensions>
          <ns3:TrackPointExtension>
            <ns3:atemp>22.0</ns3:atemp>
          </ns3:TrackPointExtension>
        </extensions>
      </trkpt>
      <trkpt lat="42.51519511453807353973388671875" lon="19.7689722664654254913330078125">
        <ele>1826.4000244140625</ele>
        <time>2026-06-18T11:11:44.000Z</time>
        <extensions>
          <ns3:TrackPointExtension>
            <ns3:atemp>22.0</ns3:atemp>
          </ns3:TrackPointExtension>
        </extensions>
      </trkpt>
      <trkpt lat="42.51519511453807353973388671875" lon="19.7689722664654254913330078125">
        <ele>1826.5999755859375</ele>
        <time>2026-06-18T11:11:45.000Z</time>
        <extensions>
          <ns3:TrackPointExtension>
            <ns3:atemp>22.0</ns3:atemp>
          </ns3:TrackPointExtension>
        </extensions>
      </trkpt>
      <trkpt lat="42.51519511453807353973388671875" lon="19.7689722664654254913330078125">
        <ele>1826.5999755859375</ele>
        <time>2026-06-18T11:11:46.000Z</time>
        <extensions>
          <ns3:TrackPointExtension>
            <ns3:atemp>22.0</ns3:atemp>
          </ns3:TrackPointExtension>
        </extensions>
      </trkpt>
      <trkpt lat="42.51519511453807353973388671875" lon="19.7689722664654254913330078125">
        <ele>1826.5999755859375</ele>
        <time>2026-06-18T11:11:47.000Z</time>
        <extensions>
          <ns3:TrackPointExtension>
            <ns3:atemp>22.0</ns3:atemp>
          </ns3:TrackPointExtension>
        </extensions>
      </trkpt>
      <trkpt lat="42.51519511453807353973388671875" lon="19.7689722664654254913330078125">
        <ele>1826.800048828125</ele>
        <time>2026-06-18T11:11:48.000Z</time>
        <extensions>
          <ns3:TrackPointExtension>
            <ns3:atemp>22.0</ns3:atemp>
          </ns3:TrackPointExtension>
        </extensions>
      </trkpt>
      <trkpt lat="42.51519511453807353973388671875" lon="19.7689722664654254913330078125">
        <ele>1826.800048828125</ele>
        <time>2026-06-18T11:11:49.000Z</time>
        <extensions>
          <ns3:TrackPointExtension>
            <ns3:atemp>22.0</ns3:atemp>
          </ns3:TrackPointExtension>
        </extensions>
      </trkpt>
      <trkpt lat="42.51519511453807353973388671875" lon="19.7689722664654254913330078125">
        <ele>1826.800048828125</ele>
        <time>2026-06-18T11:11:50.000Z</time>
        <extensions>
          <ns3:TrackPointExtension>
            <ns3:atemp>22.0</ns3:atemp>
          </ns3:TrackPointExtension>
        </extensions>
      </trkpt>
      <trkpt lat="42.51519511453807353973388671875" lon="19.7689722664654254913330078125">
        <ele>1826.800048828125</ele>
        <time>2026-06-18T11:11:51.000Z</time>
        <extensions>
          <ns3:TrackPointExtension>
            <ns3:atemp>22.0</ns3:atemp>
          </ns3:TrackPointExtension>
        </extensions>
      </trkpt>
      <trkpt lat="42.51519511453807353973388671875" lon="19.7689722664654254913330078125">
        <ele>1826.800048828125</ele>
        <time>2026-06-18T11:11:52.000Z</time>
        <extensions>
          <ns3:TrackPointExtension>
            <ns3:atemp>22.0</ns3:atemp>
          </ns3:TrackPointExtension>
        </extensions>
      </trkpt>
      <trkpt lat="42.51519511453807353973388671875" lon="19.7689722664654254913330078125">
        <ele>1826.800048828125</ele>
        <time>2026-06-18T11:11:53.000Z</time>
        <extensions>
          <ns3:TrackPointExtension>
            <ns3:atemp>22.0</ns3:atemp>
          </ns3:TrackPointExtension>
        </extensions>
      </trkpt>
      <trkpt lat="42.51519511453807353973388671875" lon="19.7689722664654254913330078125">
        <ele>1826.800048828125</ele>
        <time>2026-06-18T11:11:54.000Z</time>
        <extensions>
          <ns3:TrackPointExtension>
            <ns3:atemp>22.0</ns3:atemp>
          </ns3:TrackPointExtension>
        </extensions>
      </trkpt>
      <trkpt lat="42.51519511453807353973388671875" lon="19.7689722664654254913330078125">
        <ele>1826.800048828125</ele>
        <time>2026-06-18T11:11:55.000Z</time>
        <extensions>
          <ns3:TrackPointExtension>
            <ns3:atemp>22.0</ns3:atemp>
          </ns3:TrackPointExtension>
        </extensions>
      </trkpt>
      <trkpt lat="42.51519511453807353973388671875" lon="19.7689722664654254913330078125">
        <ele>1827</ele>
        <time>2026-06-18T11:11:56.000Z</time>
        <extensions>
          <ns3:TrackPointExtension>
            <ns3:atemp>22.0</ns3:atemp>
          </ns3:TrackPointExtension>
        </extensions>
      </trkpt>
      <trkpt lat="42.51519511453807353973388671875" lon="19.7689722664654254913330078125">
        <ele>1827</ele>
        <time>2026-06-18T11:11:57.000Z</time>
        <extensions>
          <ns3:TrackPointExtension>
            <ns3:atemp>22.0</ns3:atemp>
          </ns3:TrackPointExtension>
        </extensions>
      </trkpt>
      <trkpt lat="42.51519511453807353973388671875" lon="19.7689722664654254913330078125">
        <ele>1827</ele>
        <time>2026-06-18T11:11:58.000Z</time>
        <extensions>
          <ns3:TrackPointExtension>
            <ns3:atemp>22.0</ns3:atemp>
          </ns3:TrackPointExtension>
        </extensions>
      </trkpt>
      <trkpt lat="42.51519511453807353973388671875" lon="19.7689722664654254913330078125">
        <ele>1827</ele>
        <time>2026-06-18T11:11:59.000Z</time>
        <extensions>
          <ns3:TrackPointExtension>
            <ns3:atemp>22.0</ns3:atemp>
          </ns3:TrackPointExtension>
        </extensions>
      </trkpt>
      <trkpt lat="42.51519511453807353973388671875" lon="19.7689722664654254913330078125">
        <ele>1827</ele>
        <time>2026-06-18T11:12:00.000Z</time>
        <extensions>
          <ns3:TrackPointExtension>
            <ns3:atemp>22.0</ns3:atemp>
          </ns3:TrackPointExtension>
        </extensions>
      </trkpt>
      <trkpt lat="42.51519511453807353973388671875" lon="19.7689722664654254913330078125">
        <ele>1827</ele>
        <time>2026-06-18T11:12:01.000Z</time>
        <extensions>
          <ns3:TrackPointExtension>
            <ns3:atemp>22.0</ns3:atemp>
          </ns3:TrackPointExtension>
        </extensions>
      </trkpt>
      <trkpt lat="42.51519511453807353973388671875" lon="19.7689722664654254913330078125">
        <ele>1827</ele>
        <time>2026-06-18T11:12:02.000Z</time>
        <extensions>
          <ns3:TrackPointExtension>
            <ns3:atemp>22.0</ns3:atemp>
          </ns3:TrackPointExtension>
        </extensions>
      </trkpt>
      <trkpt lat="42.51519511453807353973388671875" lon="19.7689722664654254913330078125">
        <ele>1827</ele>
        <time>2026-06-18T11:12:03.000Z</time>
        <extensions>
          <ns3:TrackPointExtension>
            <ns3:atemp>22.0</ns3:atemp>
          </ns3:TrackPointExtension>
        </extensions>
      </trkpt>
      <trkpt lat="42.51519511453807353973388671875" lon="19.7689722664654254913330078125">
        <ele>1827</ele>
        <time>2026-06-18T11:12:04.000Z</time>
        <extensions>
          <ns3:TrackPointExtension>
            <ns3:atemp>22.0</ns3:atemp>
          </ns3:TrackPointExtension>
        </extensions>
      </trkpt>
      <trkpt lat="42.51519511453807353973388671875" lon="19.7689722664654254913330078125">
        <ele>1827</ele>
        <time>2026-06-18T11:12:05.000Z</time>
        <extensions>
          <ns3:TrackPointExtension>
            <ns3:atemp>22.0</ns3:atemp>
          </ns3:TrackPointExtension>
        </extensions>
      </trkpt>
      <trkpt lat="42.51519511453807353973388671875" lon="19.7689722664654254913330078125">
        <ele>1827</ele>
        <time>2026-06-18T11:12:06.000Z</time>
        <extensions>
          <ns3:TrackPointExtension>
            <ns3:atemp>22.0</ns3:atemp>
          </ns3:TrackPointExtension>
        </extensions>
      </trkpt>
      <trkpt lat="42.51519511453807353973388671875" lon="19.7689722664654254913330078125">
        <ele>1827</ele>
        <time>2026-06-18T11:12:07.000Z</time>
        <extensions>
          <ns3:TrackPointExtension>
            <ns3:atemp>22.0</ns3:atemp>
          </ns3:TrackPointExtension>
        </extensions>
      </trkpt>
      <trkpt lat="42.51519511453807353973388671875" lon="19.7689722664654254913330078125">
        <ele>1827</ele>
        <time>2026-06-18T11:12:08.000Z</time>
        <extensions>
          <ns3:TrackPointExtension>
            <ns3:atemp>22.0</ns3:atemp>
          </ns3:TrackPointExtension>
        </extensions>
      </trkpt>
      <trkpt lat="42.51519511453807353973388671875" lon="19.7689722664654254913330078125">
        <ele>1827</ele>
        <time>2026-06-18T11:12:09.000Z</time>
        <extensions>
          <ns3:TrackPointExtension>
            <ns3:atemp>22.0</ns3:atemp>
          </ns3:TrackPointExtension>
        </extensions>
      </trkpt>
      <trkpt lat="42.51519511453807353973388671875" lon="19.7689722664654254913330078125">
        <ele>1827</ele>
        <time>2026-06-18T11:12:10.000Z</time>
        <extensions>
          <ns3:TrackPointExtension>
            <ns3:atemp>22.0</ns3:atemp>
          </ns3:TrackPointExtension>
        </extensions>
      </trkpt>
      <trkpt lat="42.51519511453807353973388671875" lon="19.7689722664654254913330078125">
        <ele>1827</ele>
        <time>2026-06-18T11:12:11.000Z</time>
        <extensions>
          <ns3:TrackPointExtension>
            <ns3:atemp>22.0</ns3:atemp>
          </ns3:TrackPointExtension>
        </extensions>
      </trkpt>
      <trkpt lat="42.51519511453807353973388671875" lon="19.7689722664654254913330078125">
        <ele>1827.199951171875</ele>
        <time>2026-06-18T11:12:12.000Z</time>
        <extensions>
          <ns3:TrackPointExtension>
            <ns3:atemp>22.0</ns3:atemp>
          </ns3:TrackPointExtension>
        </extensions>
      </trkpt>
      <trkpt lat="42.51519511453807353973388671875" lon="19.7689722664654254913330078125">
        <ele>1827.199951171875</ele>
        <time>2026-06-18T11:12:13.000Z</time>
        <extensions>
          <ns3:TrackPointExtension>
            <ns3:atemp>22.0</ns3:atemp>
          </ns3:TrackPointExtension>
        </extensions>
      </trkpt>
      <trkpt lat="42.51519511453807353973388671875" lon="19.7689722664654254913330078125">
        <ele>1827.199951171875</ele>
        <time>2026-06-18T11:12:14.000Z</time>
        <extensions>
          <ns3:TrackPointExtension>
            <ns3:atemp>22.0</ns3:atemp>
          </ns3:TrackPointExtension>
        </extensions>
      </trkpt>
      <trkpt lat="42.51519511453807353973388671875" lon="19.7689722664654254913330078125">
        <ele>1827</ele>
        <time>2026-06-18T11:12:15.000Z</time>
        <extensions>
          <ns3:TrackPointExtension>
            <ns3:atemp>22.0</ns3:atemp>
          </ns3:TrackPointExtension>
        </extensions>
      </trkpt>
      <trkpt lat="42.51519511453807353973388671875" lon="19.7689722664654254913330078125">
        <ele>1827</ele>
        <time>2026-06-18T11:12:16.000Z</time>
        <extensions>
          <ns3:TrackPointExtension>
            <ns3:atemp>22.0</ns3:atemp>
          </ns3:TrackPointExtension>
        </extensions>
      </trkpt>
      <trkpt lat="42.51519511453807353973388671875" lon="19.7689722664654254913330078125">
        <ele>1827</ele>
        <time>2026-06-18T11:12:17.000Z</time>
        <extensions>
          <ns3:TrackPointExtension>
            <ns3:atemp>22.0</ns3:atemp>
          </ns3:TrackPointExtension>
        </extensions>
      </trkpt>
      <trkpt lat="42.51519511453807353973388671875" lon="19.7689722664654254913330078125">
        <ele>1827</ele>
        <time>2026-06-18T11:12:18.000Z</time>
        <extensions>
          <ns3:TrackPointExtension>
            <ns3:atemp>22.0</ns3:atemp>
          </ns3:TrackPointExtension>
        </extensions>
      </trkpt>
      <trkpt lat="42.51519511453807353973388671875" lon="19.7689722664654254913330078125">
        <ele>1827</ele>
        <time>2026-06-18T11:12:19.000Z</time>
        <extensions>
          <ns3:TrackPointExtension>
            <ns3:atemp>22.0</ns3:atemp>
          </ns3:TrackPointExtension>
        </extensions>
      </trkpt>
      <trkpt lat="42.51519511453807353973388671875" lon="19.7689722664654254913330078125">
        <ele>1827</ele>
        <time>2026-06-18T11:12:20.000Z</time>
        <extensions>
          <ns3:TrackPointExtension>
            <ns3:atemp>22.0</ns3:atemp>
          </ns3:TrackPointExtension>
        </extensions>
      </trkpt>
      <trkpt lat="42.51519511453807353973388671875" lon="19.7689722664654254913330078125">
        <ele>1827</ele>
        <time>2026-06-18T11:12:21.000Z</time>
        <extensions>
          <ns3:TrackPointExtension>
            <ns3:atemp>22.0</ns3:atemp>
          </ns3:TrackPointExtension>
        </extensions>
      </trkpt>
      <trkpt lat="42.51519511453807353973388671875" lon="19.7689722664654254913330078125">
        <ele>1827.199951171875</ele>
        <time>2026-06-18T11:12:22.000Z</time>
        <extensions>
          <ns3:TrackPointExtension>
            <ns3:atemp>22.0</ns3:atemp>
          </ns3:TrackPointExtension>
        </extensions>
      </trkpt>
      <trkpt lat="42.51519511453807353973388671875" lon="19.7689722664654254913330078125">
        <ele>1827.199951171875</ele>
        <time>2026-06-18T11:12:23.000Z</time>
        <extensions>
          <ns3:TrackPointExtension>
            <ns3:atemp>22.0</ns3:atemp>
          </ns3:TrackPointExtension>
        </extensions>
      </trkpt>
      <trkpt lat="42.51519511453807353973388671875" lon="19.7689722664654254913330078125">
        <ele>1827.199951171875</ele>
        <time>2026-06-18T11:12:24.000Z</time>
        <extensions>
          <ns3:TrackPointExtension>
            <ns3:atemp>22.0</ns3:atemp>
          </ns3:TrackPointExtension>
        </extensions>
      </trkpt>
      <trkpt lat="42.51519511453807353973388671875" lon="19.7689722664654254913330078125">
        <ele>1827.199951171875</ele>
        <time>2026-06-18T11:12:25.000Z</time>
        <extensions>
          <ns3:TrackPointExtension>
            <ns3:atemp>22.0</ns3:atemp>
          </ns3:TrackPointExtension>
        </extensions>
      </trkpt>
      <trkpt lat="42.51519511453807353973388671875" lon="19.7689722664654254913330078125">
        <ele>1827.199951171875</ele>
        <time>2026-06-18T11:12:26.000Z</time>
        <extensions>
          <ns3:TrackPointExtension>
            <ns3:atemp>22.0</ns3:atemp>
          </ns3:TrackPointExtension>
        </extensions>
      </trkpt>
      <trkpt lat="42.51519511453807353973388671875" lon="19.7689722664654254913330078125">
        <ele>1827.199951171875</ele>
        <time>2026-06-18T11:12:27.000Z</time>
        <extensions>
          <ns3:TrackPointExtension>
            <ns3:atemp>22.0</ns3:atemp>
          </ns3:TrackPointExtension>
        </extensions>
      </trkpt>
      <trkpt lat="42.51519511453807353973388671875" lon="19.7689722664654254913330078125">
        <ele>1827</ele>
        <time>2026-06-18T11:12:28.000Z</time>
        <extensions>
          <ns3:TrackPointExtension>
            <ns3:atemp>22.0</ns3:atemp>
          </ns3:TrackPointExtension>
        </extensions>
      </trkpt>
      <trkpt lat="42.51519511453807353973388671875" lon="19.7689722664654254913330078125">
        <ele>1827</ele>
        <time>2026-06-18T11:12:29.000Z</time>
        <extensions>
          <ns3:TrackPointExtension>
            <ns3:atemp>22.0</ns3:atemp>
          </ns3:TrackPointExtension>
        </extensions>
      </trkpt>
      <trkpt lat="42.51519511453807353973388671875" lon="19.7689722664654254913330078125">
        <ele>1827</ele>
        <time>2026-06-18T11:12:30.000Z</time>
        <extensions>
          <ns3:TrackPointExtension>
            <ns3:atemp>22.0</ns3:atemp>
          </ns3:TrackPointExtension>
        </extensions>
      </trkpt>
      <trkpt lat="42.51519511453807353973388671875" lon="19.7689722664654254913330078125">
        <ele>1827</ele>
        <time>2026-06-18T11:12:31.000Z</time>
        <extensions>
          <ns3:TrackPointExtension>
            <ns3:atemp>22.0</ns3:atemp>
          </ns3:TrackPointExtension>
        </extensions>
      </trkpt>
      <trkpt lat="42.51519511453807353973388671875" lon="19.7689722664654254913330078125">
        <ele>1827</ele>
        <time>2026-06-18T11:12:32.000Z</time>
        <extensions>
          <ns3:TrackPointExtension>
            <ns3:atemp>22.0</ns3:atemp>
          </ns3:TrackPointExtension>
        </extensions>
      </trkpt>
      <trkpt lat="42.51519511453807353973388671875" lon="19.7689722664654254913330078125">
        <ele>1827</ele>
        <time>2026-06-18T11:12:33.000Z</time>
        <extensions>
          <ns3:TrackPointExtension>
            <ns3:atemp>22.0</ns3:atemp>
          </ns3:TrackPointExtension>
        </extensions>
      </trkpt>
      <trkpt lat="42.51519511453807353973388671875" lon="19.7689722664654254913330078125">
        <ele>1827</ele>
        <time>2026-06-18T11:12:34.000Z</time>
        <extensions>
          <ns3:TrackPointExtension>
            <ns3:atemp>22.0</ns3:atemp>
          </ns3:TrackPointExtension>
        </extensions>
      </trkpt>
      <trkpt lat="42.51519511453807353973388671875" lon="19.7689722664654254913330078125">
        <ele>1827</ele>
        <time>2026-06-18T11:12:35.000Z</time>
        <extensions>
          <ns3:TrackPointExtension>
            <ns3:atemp>22.0</ns3:atemp>
          </ns3:TrackPointExtension>
        </extensions>
      </trkpt>
      <trkpt lat="42.51519511453807353973388671875" lon="19.7689722664654254913330078125">
        <ele>1827</ele>
        <time>2026-06-18T11:12:36.000Z</time>
        <extensions>
          <ns3:TrackPointExtension>
            <ns3:atemp>22.0</ns3:atemp>
          </ns3:TrackPointExtension>
        </extensions>
      </trkpt>
      <trkpt lat="42.51519511453807353973388671875" lon="19.7689722664654254913330078125">
        <ele>1827</ele>
        <time>2026-06-18T11:12:37.000Z</time>
        <extensions>
          <ns3:TrackPointExtension>
            <ns3:atemp>22.0</ns3:atemp>
          </ns3:TrackPointExtension>
        </extensions>
      </trkpt>
      <trkpt lat="42.51519511453807353973388671875" lon="19.7689722664654254913330078125">
        <ele>1827</ele>
        <time>2026-06-18T11:12:38.000Z</time>
        <extensions>
          <ns3:TrackPointExtension>
            <ns3:atemp>22.0</ns3:atemp>
          </ns3:TrackPointExtension>
        </extensions>
      </trkpt>
      <trkpt lat="42.51519511453807353973388671875" lon="19.7689722664654254913330078125">
        <ele>1827.199951171875</ele>
        <time>2026-06-18T11:12:39.000Z</time>
        <extensions>
          <ns3:TrackPointExtension>
            <ns3:atemp>22.0</ns3:atemp>
          </ns3:TrackPointExtension>
        </extensions>
      </trkpt>
      <trkpt lat="42.51519511453807353973388671875" lon="19.7689722664654254913330078125">
        <ele>1827.199951171875</ele>
        <time>2026-06-18T11:12:40.000Z</time>
        <extensions>
          <ns3:TrackPointExtension>
            <ns3:atemp>22.0</ns3:atemp>
          </ns3:TrackPointExtension>
        </extensions>
      </trkpt>
      <trkpt lat="42.51519511453807353973388671875" lon="19.7689722664654254913330078125">
        <ele>1827.199951171875</ele>
        <time>2026-06-18T11:12:41.000Z</time>
        <extensions>
          <ns3:TrackPointExtension>
            <ns3:atemp>22.0</ns3:atemp>
          </ns3:TrackPointExtension>
        </extensions>
      </trkpt>
      <trkpt lat="42.51519511453807353973388671875" lon="19.7689722664654254913330078125">
        <ele>1827.199951171875</ele>
        <time>2026-06-18T11:12:42.000Z</time>
        <extensions>
          <ns3:TrackPointExtension>
            <ns3:atemp>22.0</ns3:atemp>
          </ns3:TrackPointExtension>
        </extensions>
      </trkpt>
      <trkpt lat="42.51519511453807353973388671875" lon="19.7689722664654254913330078125">
        <ele>1827.199951171875</ele>
        <time>2026-06-18T11:12:43.000Z</time>
        <extensions>
          <ns3:TrackPointExtension>
            <ns3:atemp>22.0</ns3:atemp>
          </ns3:TrackPointExtension>
        </extensions>
      </trkpt>
      <trkpt lat="42.51519511453807353973388671875" lon="19.7689722664654254913330078125">
        <ele>1827.199951171875</ele>
        <time>2026-06-18T11:12:44.000Z</time>
        <extensions>
          <ns3:TrackPointExtension>
            <ns3:atemp>22.0</ns3:atemp>
          </ns3:TrackPointExtension>
        </extensions>
      </trkpt>
      <trkpt lat="42.51519511453807353973388671875" lon="19.7689722664654254913330078125">
        <ele>1827.199951171875</ele>
        <time>2026-06-18T11:12:45.000Z</time>
        <extensions>
          <ns3:TrackPointExtension>
            <ns3:atemp>22.0</ns3:atemp>
          </ns3:TrackPointExtension>
        </extensions>
      </trkpt>
      <trkpt lat="42.51519511453807353973388671875" lon="19.7689722664654254913330078125">
        <ele>1827</ele>
        <time>2026-06-18T11:12:46.000Z</time>
        <extensions>
          <ns3:TrackPointExtension>
            <ns3:atemp>22.0</ns3:atemp>
          </ns3:TrackPointExtension>
        </extensions>
      </trkpt>
      <trkpt lat="42.51519511453807353973388671875" lon="19.7689722664654254913330078125">
        <ele>1827</ele>
        <time>2026-06-18T11:12:47.000Z</time>
        <extensions>
          <ns3:TrackPointExtension>
            <ns3:atemp>22.0</ns3:atemp>
          </ns3:TrackPointExtension>
        </extensions>
      </trkpt>
      <trkpt lat="42.51519511453807353973388671875" lon="19.7689722664654254913330078125">
        <ele>1827</ele>
        <time>2026-06-18T11:12:48.000Z</time>
        <extensions>
          <ns3:TrackPointExtension>
            <ns3:atemp>22.0</ns3:atemp>
          </ns3:TrackPointExtension>
        </extensions>
      </trkpt>
      <trkpt lat="42.51519511453807353973388671875" lon="19.7689722664654254913330078125">
        <ele>1827</ele>
        <time>2026-06-18T11:12:49.000Z</time>
        <extensions>
          <ns3:TrackPointExtension>
            <ns3:atemp>22.0</ns3:atemp>
          </ns3:TrackPointExtension>
        </extensions>
      </trkpt>
      <trkpt lat="42.51519511453807353973388671875" lon="19.7689722664654254913330078125">
        <ele>1827</ele>
        <time>2026-06-18T11:12:50.000Z</time>
        <extensions>
          <ns3:TrackPointExtension>
            <ns3:atemp>22.0</ns3:atemp>
          </ns3:TrackPointExtension>
        </extensions>
      </trkpt>
      <trkpt lat="42.51519511453807353973388671875" lon="19.7689722664654254913330078125">
        <ele>1827</ele>
        <time>2026-06-18T11:12:51.000Z</time>
        <extensions>
          <ns3:TrackPointExtension>
            <ns3:atemp>22.0</ns3:atemp>
          </ns3:TrackPointExtension>
        </extensions>
      </trkpt>
      <trkpt lat="42.51519511453807353973388671875" lon="19.7689722664654254913330078125">
        <ele>1827</ele>
        <time>2026-06-18T11:12:52.000Z</time>
        <extensions>
          <ns3:TrackPointExtension>
            <ns3:atemp>22.0</ns3:atemp>
          </ns3:TrackPointExtension>
        </extensions>
      </trkpt>
      <trkpt lat="42.51519511453807353973388671875" lon="19.7689722664654254913330078125">
        <ele>1826.800048828125</ele>
        <time>2026-06-18T11:12:53.000Z</time>
        <extensions>
          <ns3:TrackPointExtension>
            <ns3:atemp>22.0</ns3:atemp>
          </ns3:TrackPointExtension>
        </extensions>
      </trkpt>
      <trkpt lat="42.51519511453807353973388671875" lon="19.7689722664654254913330078125">
        <ele>1826.800048828125</ele>
        <time>2026-06-18T11:12:54.000Z</time>
        <extensions>
          <ns3:TrackPointExtension>
            <ns3:atemp>22.0</ns3:atemp>
          </ns3:TrackPointExtension>
        </extensions>
      </trkpt>
      <trkpt lat="42.51519511453807353973388671875" lon="19.7689722664654254913330078125">
        <ele>1826.800048828125</ele>
        <time>2026-06-18T11:12:55.000Z</time>
        <extensions>
          <ns3:TrackPointExtension>
            <ns3:atemp>22.0</ns3:atemp>
          </ns3:TrackPointExtension>
        </extensions>
      </trkpt>
      <trkpt lat="42.51519511453807353973388671875" lon="19.7689722664654254913330078125">
        <ele>1826.800048828125</ele>
        <time>2026-06-18T11:12:56.000Z</time>
        <extensions>
          <ns3:TrackPointExtension>
            <ns3:atemp>22.0</ns3:atemp>
          </ns3:TrackPointExtension>
        </extensions>
      </trkpt>
      <trkpt lat="42.51519511453807353973388671875" lon="19.7689722664654254913330078125">
        <ele>1826.800048828125</ele>
        <time>2026-06-18T11:12:57.000Z</time>
        <extensions>
          <ns3:TrackPointExtension>
            <ns3:atemp>22.0</ns3:atemp>
          </ns3:TrackPointExtension>
        </extensions>
      </trkpt>
      <trkpt lat="42.51519511453807353973388671875" lon="19.7689722664654254913330078125">
        <ele>1826.800048828125</ele>
        <time>2026-06-18T11:12:58.000Z</time>
        <extensions>
          <ns3:TrackPointExtension>
            <ns3:atemp>22.0</ns3:atemp>
          </ns3:TrackPointExtension>
        </extensions>
      </trkpt>
      <trkpt lat="42.51519511453807353973388671875" lon="19.7689722664654254913330078125">
        <ele>1826.800048828125</ele>
        <time>2026-06-18T11:12:59.000Z</time>
        <extensions>
          <ns3:TrackPointExtension>
            <ns3:atemp>22.0</ns3:atemp>
          </ns3:TrackPointExtension>
        </extensions>
      </trkpt>
      <trkpt lat="42.51519511453807353973388671875" lon="19.7689722664654254913330078125">
        <ele>1826.800048828125</ele>
        <time>2026-06-18T11:13:00.000Z</time>
        <extensions>
          <ns3:TrackPointExtension>
            <ns3:atemp>22.0</ns3:atemp>
          </ns3:TrackPointExtension>
        </extensions>
      </trkpt>
      <trkpt lat="42.51519511453807353973388671875" lon="19.7689722664654254913330078125">
        <ele>1826.800048828125</ele>
        <time>2026-06-18T11:13:01.000Z</time>
        <extensions>
          <ns3:TrackPointExtension>
            <ns3:atemp>22.0</ns3:atemp>
          </ns3:TrackPointExtension>
        </extensions>
      </trkpt>
      <trkpt lat="42.51519511453807353973388671875" lon="19.7689722664654254913330078125">
        <ele>1826.800048828125</ele>
        <time>2026-06-18T11:13:02.000Z</time>
        <extensions>
          <ns3:TrackPointExtension>
            <ns3:atemp>22.0</ns3:atemp>
          </ns3:TrackPointExtension>
        </extensions>
      </trkpt>
      <trkpt lat="42.51519511453807353973388671875" lon="19.7689722664654254913330078125">
        <ele>1826.800048828125</ele>
        <time>2026-06-18T11:13:03.000Z</time>
        <extensions>
          <ns3:TrackPointExtension>
            <ns3:atemp>22.0</ns3:atemp>
          </ns3:TrackPointExtension>
        </extensions>
      </trkpt>
      <trkpt lat="42.51519511453807353973388671875" lon="19.7689722664654254913330078125">
        <ele>1826.800048828125</ele>
        <time>2026-06-18T11:13:04.000Z</time>
        <extensions>
          <ns3:TrackPointExtension>
            <ns3:atemp>22.0</ns3:atemp>
          </ns3:TrackPointExtension>
        </extensions>
      </trkpt>
      <trkpt lat="42.51519511453807353973388671875" lon="19.7689722664654254913330078125">
        <ele>1826.800048828125</ele>
        <time>2026-06-18T11:13:05.000Z</time>
        <extensions>
          <ns3:TrackPointExtension>
            <ns3:atemp>22.0</ns3:atemp>
          </ns3:TrackPointExtension>
        </extensions>
      </trkpt>
      <trkpt lat="42.51519511453807353973388671875" lon="19.7689722664654254913330078125">
        <ele>1826.800048828125</ele>
        <time>2026-06-18T11:13:06.000Z</time>
        <extensions>
          <ns3:TrackPointExtension>
            <ns3:atemp>22.0</ns3:atemp>
          </ns3:TrackPointExtension>
        </extensions>
      </trkpt>
      <trkpt lat="42.51519511453807353973388671875" lon="19.7689722664654254913330078125">
        <ele>1826.800048828125</ele>
        <time>2026-06-18T11:13:07.000Z</time>
        <extensions>
          <ns3:TrackPointExtension>
            <ns3:atemp>22.0</ns3:atemp>
          </ns3:TrackPointExtension>
        </extensions>
      </trkpt>
      <trkpt lat="42.51519511453807353973388671875" lon="19.7689722664654254913330078125">
        <ele>1826.800048828125</ele>
        <time>2026-06-18T11:13:08.000Z</time>
        <extensions>
          <ns3:TrackPointExtension>
            <ns3:atemp>22.0</ns3:atemp>
          </ns3:TrackPointExtension>
        </extensions>
      </trkpt>
      <trkpt lat="42.51519511453807353973388671875" lon="19.7689722664654254913330078125">
        <ele>1826.800048828125</ele>
        <time>2026-06-18T11:13:09.000Z</time>
        <extensions>
          <ns3:TrackPointExtension>
            <ns3:atemp>22.0</ns3:atemp>
          </ns3:TrackPointExtension>
        </extensions>
      </trkpt>
      <trkpt lat="42.51519511453807353973388671875" lon="19.7689722664654254913330078125">
        <ele>1826.800048828125</ele>
        <time>2026-06-18T11:13:10.000Z</time>
        <extensions>
          <ns3:TrackPointExtension>
            <ns3:atemp>22.0</ns3:atemp>
          </ns3:TrackPointExtension>
        </extensions>
      </trkpt>
      <trkpt lat="42.51519511453807353973388671875" lon="19.7689722664654254913330078125">
        <ele>1826.800048828125</ele>
        <time>2026-06-18T11:13:11.000Z</time>
        <extensions>
          <ns3:TrackPointExtension>
            <ns3:atemp>22.0</ns3:atemp>
          </ns3:TrackPointExtension>
        </extensions>
      </trkpt>
      <trkpt lat="42.51519511453807353973388671875" lon="19.7689722664654254913330078125">
        <ele>1826.800048828125</ele>
        <time>2026-06-18T11:13:12.000Z</time>
        <extensions>
          <ns3:TrackPointExtension>
            <ns3:atemp>22.0</ns3:atemp>
          </ns3:TrackPointExtension>
        </extensions>
      </trkpt>
      <trkpt lat="42.51519511453807353973388671875" lon="19.7689722664654254913330078125">
        <ele>1826.800048828125</ele>
        <time>2026-06-18T11:13:13.000Z</time>
        <extensions>
          <ns3:TrackPointExtension>
            <ns3:atemp>22.0</ns3:atemp>
          </ns3:TrackPointExtension>
        </extensions>
      </trkpt>
      <trkpt lat="42.51519511453807353973388671875" lon="19.7689722664654254913330078125">
        <ele>1826.800048828125</ele>
        <time>2026-06-18T11:13:14.000Z</time>
        <extensions>
          <ns3:TrackPointExtension>
            <ns3:atemp>22.0</ns3:atemp>
          </ns3:TrackPointExtension>
        </extensions>
      </trkpt>
      <trkpt lat="42.51519511453807353973388671875" lon="19.7689722664654254913330078125">
        <ele>1826.800048828125</ele>
        <time>2026-06-18T11:13:15.000Z</time>
        <extensions>
          <ns3:TrackPointExtension>
            <ns3:atemp>22.0</ns3:atemp>
          </ns3:TrackPointExtension>
        </extensions>
      </trkpt>
      <trkpt lat="42.51519511453807353973388671875" lon="19.7689722664654254913330078125">
        <ele>1826.800048828125</ele>
        <time>2026-06-18T11:13:16.000Z</time>
        <extensions>
          <ns3:TrackPointExtension>
            <ns3:atemp>22.0</ns3:atemp>
          </ns3:TrackPointExtension>
        </extensions>
      </trkpt>
      <trkpt lat="42.51519511453807353973388671875" lon="19.7689722664654254913330078125">
        <ele>1826.800048828125</ele>
        <time>2026-06-18T11:13:17.000Z</time>
        <extensions>
          <ns3:TrackPointExtension>
            <ns3:atemp>22.0</ns3:atemp>
          </ns3:TrackPointExtension>
        </extensions>
      </trkpt>
      <trkpt lat="42.51519511453807353973388671875" lon="19.7689722664654254913330078125">
        <ele>1826.800048828125</ele>
        <time>2026-06-18T11:13:18.000Z</time>
        <extensions>
          <ns3:TrackPointExtension>
            <ns3:atemp>22.0</ns3:atemp>
          </ns3:TrackPointExtension>
        </extensions>
      </trkpt>
      <trkpt lat="42.51519511453807353973388671875" lon="19.7689722664654254913330078125">
        <ele>1826.800048828125</ele>
        <time>2026-06-18T11:13:19.000Z</time>
        <extensions>
          <ns3:TrackPointExtension>
            <ns3:atemp>22.0</ns3:atemp>
          </ns3:TrackPointExtension>
        </extensions>
      </trkpt>
      <trkpt lat="42.51519511453807353973388671875" lon="19.7689722664654254913330078125">
        <ele>1826.800048828125</ele>
        <time>2026-06-18T11:13:20.000Z</time>
        <extensions>
          <ns3:TrackPointExtension>
            <ns3:atemp>22.0</ns3:atemp>
          </ns3:TrackPointExtension>
        </extensions>
      </trkpt>
      <trkpt lat="42.51519511453807353973388671875" lon="19.7689722664654254913330078125">
        <ele>1826.800048828125</ele>
        <time>2026-06-18T11:13:21.000Z</time>
        <extensions>
          <ns3:TrackPointExtension>
            <ns3:atemp>22.0</ns3:atemp>
          </ns3:TrackPointExtension>
        </extensions>
      </trkpt>
      <trkpt lat="42.51519511453807353973388671875" lon="19.7689722664654254913330078125">
        <ele>1826.800048828125</ele>
        <time>2026-06-18T11:13:22.000Z</time>
        <extensions>
          <ns3:TrackPointExtension>
            <ns3:atemp>22.0</ns3:atemp>
          </ns3:TrackPointExtension>
        </extensions>
      </trkpt>
      <trkpt lat="42.51519511453807353973388671875" lon="19.7689722664654254913330078125">
        <ele>1826.800048828125</ele>
        <time>2026-06-18T11:13:23.000Z</time>
        <extensions>
          <ns3:TrackPointExtension>
            <ns3:atemp>22.0</ns3:atemp>
          </ns3:TrackPointExtension>
        </extensions>
      </trkpt>
      <trkpt lat="42.51519511453807353973388671875" lon="19.7689722664654254913330078125">
        <ele>1826.800048828125</ele>
        <time>2026-06-18T11:13:24.000Z</time>
        <extensions>
          <ns3:TrackPointExtension>
            <ns3:atemp>22.0</ns3:atemp>
          </ns3:TrackPointExtension>
        </extensions>
      </trkpt>
      <trkpt lat="42.51519511453807353973388671875" lon="19.7689722664654254913330078125">
        <ele>1826.800048828125</ele>
        <time>2026-06-18T11:13:25.000Z</time>
        <extensions>
          <ns3:TrackPointExtension>
            <ns3:atemp>22.0</ns3:atemp>
          </ns3:TrackPointExtension>
        </extensions>
      </trkpt>
      <trkpt lat="42.51519511453807353973388671875" lon="19.7689722664654254913330078125">
        <ele>1826.800048828125</ele>
        <time>2026-06-18T11:13:26.000Z</time>
        <extensions>
          <ns3:TrackPointExtension>
            <ns3:atemp>22.0</ns3:atemp>
          </ns3:TrackPointExtension>
        </extensions>
      </trkpt>
      <trkpt lat="42.51519511453807353973388671875" lon="19.7689722664654254913330078125">
        <ele>1826.800048828125</ele>
        <time>2026-06-18T11:13:27.000Z</time>
        <extensions>
          <ns3:TrackPointExtension>
            <ns3:atemp>22.0</ns3:atemp>
          </ns3:TrackPointExtension>
        </extensions>
      </trkpt>
      <trkpt lat="42.51519511453807353973388671875" lon="19.7689722664654254913330078125">
        <ele>1826.800048828125</ele>
        <time>2026-06-18T11:13:28.000Z</time>
        <extensions>
          <ns3:TrackPointExtension>
            <ns3:atemp>22.0</ns3:atemp>
          </ns3:TrackPointExtension>
        </extensions>
      </trkpt>
      <trkpt lat="42.51519511453807353973388671875" lon="19.7689722664654254913330078125">
        <ele>1826.800048828125</ele>
        <time>2026-06-18T11:13:29.000Z</time>
        <extensions>
          <ns3:TrackPointExtension>
            <ns3:atemp>22.0</ns3:atemp>
          </ns3:TrackPointExtension>
        </extensions>
      </trkpt>
      <trkpt lat="42.51519511453807353973388671875" lon="19.7689722664654254913330078125">
        <ele>1826.800048828125</ele>
        <time>2026-06-18T11:13:30.000Z</time>
        <extensions>
          <ns3:TrackPointExtension>
            <ns3:atemp>22.0</ns3:atemp>
          </ns3:TrackPointExtension>
        </extensions>
      </trkpt>
      <trkpt lat="42.51519511453807353973388671875" lon="19.7689722664654254913330078125">
        <ele>1826.800048828125</ele>
        <time>2026-06-18T11:13:31.000Z</time>
        <extensions>
          <ns3:TrackPointExtension>
            <ns3:atemp>22.0</ns3:atemp>
          </ns3:TrackPointExtension>
        </extensions>
      </trkpt>
      <trkpt lat="42.51519511453807353973388671875" lon="19.7689722664654254913330078125">
        <ele>1826.800048828125</ele>
        <time>2026-06-18T11:13:32.000Z</time>
        <extensions>
          <ns3:TrackPointExtension>
            <ns3:atemp>22.0</ns3:atemp>
          </ns3:TrackPointExtension>
        </extensions>
      </trkpt>
      <trkpt lat="42.51519511453807353973388671875" lon="19.7689722664654254913330078125">
        <ele>1826.800048828125</ele>
        <time>2026-06-18T11:13:33.000Z</time>
        <extensions>
          <ns3:TrackPointExtension>
            <ns3:atemp>22.0</ns3:atemp>
          </ns3:TrackPointExtension>
        </extensions>
      </trkpt>
      <trkpt lat="42.51519511453807353973388671875" lon="19.7689722664654254913330078125">
        <ele>1826.800048828125</ele>
        <time>2026-06-18T11:13:34.000Z</time>
        <extensions>
          <ns3:TrackPointExtension>
            <ns3:atemp>22.0</ns3:atemp>
          </ns3:TrackPointExtension>
        </extensions>
      </trkpt>
      <trkpt lat="42.51519511453807353973388671875" lon="19.7689722664654254913330078125">
        <ele>1826.800048828125</ele>
        <time>2026-06-18T11:13:35.000Z</time>
        <extensions>
          <ns3:TrackPointExtension>
            <ns3:atemp>22.0</ns3:atemp>
          </ns3:TrackPointExtension>
        </extensions>
      </trkpt>
      <trkpt lat="42.51519511453807353973388671875" lon="19.7689722664654254913330078125">
        <ele>1826.800048828125</ele>
        <time>2026-06-18T11:13:36.000Z</time>
        <extensions>
          <ns3:TrackPointExtension>
            <ns3:atemp>22.0</ns3:atemp>
          </ns3:TrackPointExtension>
        </extensions>
      </trkpt>
      <trkpt lat="42.51519511453807353973388671875" lon="19.7689722664654254913330078125">
        <ele>1826.800048828125</ele>
        <time>2026-06-18T11:13:37.000Z</time>
        <extensions>
          <ns3:TrackPointExtension>
            <ns3:atemp>22.0</ns3:atemp>
          </ns3:TrackPointExtension>
        </extensions>
      </trkpt>
      <trkpt lat="42.51519511453807353973388671875" lon="19.7689722664654254913330078125">
        <ele>1826.800048828125</ele>
        <time>2026-06-18T11:13:38.000Z</time>
        <extensions>
          <ns3:TrackPointExtension>
            <ns3:atemp>22.0</ns3:atemp>
          </ns3:TrackPointExtension>
        </extensions>
      </trkpt>
      <trkpt lat="42.51519511453807353973388671875" lon="19.7689722664654254913330078125">
        <ele>1826.800048828125</ele>
        <time>2026-06-18T11:13:39.000Z</time>
        <extensions>
          <ns3:TrackPointExtension>
            <ns3:atemp>22.0</ns3:atemp>
          </ns3:TrackPointExtension>
        </extensions>
      </trkpt>
      <trkpt lat="42.51519511453807353973388671875" lon="19.7689722664654254913330078125">
        <ele>1826.800048828125</ele>
        <time>2026-06-18T11:13:40.000Z</time>
        <extensions>
          <ns3:TrackPointExtension>
            <ns3:atemp>22.0</ns3:atemp>
          </ns3:TrackPointExtension>
        </extensions>
      </trkpt>
      <trkpt lat="42.51519511453807353973388671875" lon="19.7689722664654254913330078125">
        <ele>1826.800048828125</ele>
        <time>2026-06-18T11:13:41.000Z</time>
        <extensions>
          <ns3:TrackPointExtension>
            <ns3:atemp>22.0</ns3:atemp>
          </ns3:TrackPointExtension>
        </extensions>
      </trkpt>
      <trkpt lat="42.51519511453807353973388671875" lon="19.7689722664654254913330078125">
        <ele>1826.800048828125</ele>
        <time>2026-06-18T11:13:42.000Z</time>
        <extensions>
          <ns3:TrackPointExtension>
            <ns3:atemp>22.0</ns3:atemp>
          </ns3:TrackPointExtension>
        </extensions>
      </trkpt>
      <trkpt lat="42.51519511453807353973388671875" lon="19.7689722664654254913330078125">
        <ele>1826.800048828125</ele>
        <time>2026-06-18T11:13:43.000Z</time>
        <extensions>
          <ns3:TrackPointExtension>
            <ns3:atemp>22.0</ns3:atemp>
          </ns3:TrackPointExtension>
        </extensions>
      </trkpt>
      <trkpt lat="42.51519511453807353973388671875" lon="19.7689722664654254913330078125">
        <ele>1826.800048828125</ele>
        <time>2026-06-18T11:13:44.000Z</time>
        <extensions>
          <ns3:TrackPointExtension>
            <ns3:atemp>22.0</ns3:atemp>
          </ns3:TrackPointExtension>
        </extensions>
      </trkpt>
      <trkpt lat="42.51519511453807353973388671875" lon="19.7689722664654254913330078125">
        <ele>1826.800048828125</ele>
        <time>2026-06-18T11:13:45.000Z</time>
        <extensions>
          <ns3:TrackPointExtension>
            <ns3:atemp>22.0</ns3:atemp>
          </ns3:TrackPointExtension>
        </extensions>
      </trkpt>
      <trkpt lat="42.51519511453807353973388671875" lon="19.7689722664654254913330078125">
        <ele>1826.800048828125</ele>
        <time>2026-06-18T11:13:46.000Z</time>
        <extensions>
          <ns3:TrackPointExtension>
            <ns3:atemp>22.0</ns3:atemp>
          </ns3:TrackPointExtension>
        </extensions>
      </trkpt>
      <trkpt lat="42.51519511453807353973388671875" lon="19.7689722664654254913330078125">
        <ele>1826.800048828125</ele>
        <time>2026-06-18T11:13:47.000Z</time>
        <extensions>
          <ns3:TrackPointExtension>
            <ns3:atemp>22.0</ns3:atemp>
          </ns3:TrackPointExtension>
        </extensions>
      </trkpt>
      <trkpt lat="42.51519511453807353973388671875" lon="19.7689722664654254913330078125">
        <ele>1826.800048828125</ele>
        <time>2026-06-18T11:13:48.000Z</time>
        <extensions>
          <ns3:TrackPointExtension>
            <ns3:atemp>22.0</ns3:atemp>
          </ns3:TrackPointExtension>
        </extensions>
      </trkpt>
      <trkpt lat="42.51519511453807353973388671875" lon="19.7689722664654254913330078125">
        <ele>1826.800048828125</ele>
        <time>2026-06-18T11:13:49.000Z</time>
        <extensions>
          <ns3:TrackPointExtension>
            <ns3:atemp>22.0</ns3:atemp>
          </ns3:TrackPointExtension>
        </extensions>
      </trkpt>
      <trkpt lat="42.51519511453807353973388671875" lon="19.7689722664654254913330078125">
        <ele>1826.800048828125</ele>
        <time>2026-06-18T11:13:50.000Z</time>
        <extensions>
          <ns3:TrackPointExtension>
            <ns3:atemp>22.0</ns3:atemp>
          </ns3:TrackPointExtension>
        </extensions>
      </trkpt>
      <trkpt lat="42.51519511453807353973388671875" lon="19.7689722664654254913330078125">
        <ele>1826.800048828125</ele>
        <time>2026-06-18T11:13:51.000Z</time>
        <extensions>
          <ns3:TrackPointExtension>
            <ns3:atemp>22.0</ns3:atemp>
          </ns3:TrackPointExtension>
        </extensions>
      </trkpt>
      <trkpt lat="42.51519511453807353973388671875" lon="19.7689722664654254913330078125">
        <ele>1826.800048828125</ele>
        <time>2026-06-18T11:13:52.000Z</time>
        <extensions>
          <ns3:TrackPointExtension>
            <ns3:atemp>22.0</ns3:atemp>
          </ns3:TrackPointExtension>
        </extensions>
      </trkpt>
      <trkpt lat="42.51519511453807353973388671875" lon="19.7689722664654254913330078125">
        <ele>1826.800048828125</ele>
        <time>2026-06-18T11:13:53.000Z</time>
        <extensions>
          <ns3:TrackPointExtension>
            <ns3:atemp>22.0</ns3:atemp>
          </ns3:TrackPointExtension>
        </extensions>
      </trkpt>
      <trkpt lat="42.51519511453807353973388671875" lon="19.7689722664654254913330078125">
        <ele>1826.800048828125</ele>
        <time>2026-06-18T11:13:54.000Z</time>
        <extensions>
          <ns3:TrackPointExtension>
            <ns3:atemp>22.0</ns3:atemp>
          </ns3:TrackPointExtension>
        </extensions>
      </trkpt>
      <trkpt lat="42.51519511453807353973388671875" lon="19.7689722664654254913330078125">
        <ele>1826.800048828125</ele>
        <time>2026-06-18T11:13:55.000Z</time>
        <extensions>
          <ns3:TrackPointExtension>
            <ns3:atemp>22.0</ns3:atemp>
          </ns3:TrackPointExtension>
        </extensions>
      </trkpt>
      <trkpt lat="42.515194527804851531982421875" lon="19.768973104655742645263671875">
        <ele>1826.800048828125</ele>
        <time>2026-06-18T11:13:56.000Z</time>
        <extensions>
          <ns3:TrackPointExtension>
            <ns3:atemp>22.0</ns3:atemp>
          </ns3:TrackPointExtension>
        </extensions>
      </trkpt>
      <trkpt lat="42.51519628800451755523681640625" lon="19.768977463245391845703125">
        <ele>1826.800048828125</ele>
        <time>2026-06-18T11:13:57.000Z</time>
        <extensions>
          <ns3:TrackPointExtension>
            <ns3:atemp>22.0</ns3:atemp>
          </ns3:TrackPointExtension>
        </extensions>
      </trkpt>
      <trkpt lat="42.51520131714642047882080078125" lon="19.76898224093019962310791015625">
        <ele>1826.800048828125</ele>
        <time>2026-06-18T11:13:58.000Z</time>
        <extensions>
          <ns3:TrackPointExtension>
            <ns3:atemp>22.0</ns3:atemp>
          </ns3:TrackPointExtension>
        </extensions>
      </trkpt>
      <trkpt lat="42.51519528217613697052001953125" lon="19.76899556815624237060546875">
        <ele>1826.800048828125</ele>
        <time>2026-06-18T11:13:59.000Z</time>
        <extensions>
          <ns3:TrackPointExtension>
            <ns3:atemp>22.0</ns3:atemp>
          </ns3:TrackPointExtension>
        </extensions>
      </trkpt>
      <trkpt lat="42.51519285142421722412109375" lon="19.76900227367877960205078125">
        <ele>1826.800048828125</ele>
        <time>2026-06-18T11:14:00.000Z</time>
        <extensions>
          <ns3:TrackPointExtension>
            <ns3:atemp>22.0</ns3:atemp>
          </ns3:TrackPointExtension>
        </extensions>
      </trkpt>
      <trkpt lat="42.51519293524324893951416015625" lon="19.76900235749781131744384765625">
        <ele>1826.800048828125</ele>
        <time>2026-06-18T11:14:01.000Z</time>
        <extensions>
          <ns3:TrackPointExtension>
            <ns3:atemp>22.0</ns3:atemp>
          </ns3:TrackPointExtension>
        </extensions>
      </trkpt>
      <trkpt lat="42.51519293524324893951416015625" lon="19.76900235749781131744384765625">
        <ele>1826.800048828125</ele>
        <time>2026-06-18T11:14:02.000Z</time>
        <extensions>
          <ns3:TrackPointExtension>
            <ns3:atemp>22.0</ns3:atemp>
          </ns3:TrackPointExtension>
        </extensions>
      </trkpt>
      <trkpt lat="42.51519293524324893951416015625" lon="19.76900235749781131744384765625">
        <ele>1826.800048828125</ele>
        <time>2026-06-18T11:14:03.000Z</time>
        <extensions>
          <ns3:TrackPointExtension>
            <ns3:atemp>22.0</ns3:atemp>
          </ns3:TrackPointExtension>
        </extensions>
      </trkpt>
      <trkpt lat="42.51519293524324893951416015625" lon="19.76900235749781131744384765625">
        <ele>1826.800048828125</ele>
        <time>2026-06-18T11:14:04.000Z</time>
        <extensions>
          <ns3:TrackPointExtension>
            <ns3:atemp>22.0</ns3:atemp>
          </ns3:TrackPointExtension>
        </extensions>
      </trkpt>
      <trkpt lat="42.51519293524324893951416015625" lon="19.76900235749781131744384765625">
        <ele>1826.800048828125</ele>
        <time>2026-06-18T11:14:05.000Z</time>
        <extensions>
          <ns3:TrackPointExtension>
            <ns3:atemp>22.0</ns3:atemp>
          </ns3:TrackPointExtension>
        </extensions>
      </trkpt>
      <trkpt lat="42.51519293524324893951416015625" lon="19.76900235749781131744384765625">
        <ele>1826.800048828125</ele>
        <time>2026-06-18T11:14:06.000Z</time>
        <extensions>
          <ns3:TrackPointExtension>
            <ns3:atemp>22.0</ns3:atemp>
          </ns3:TrackPointExtension>
        </extensions>
      </trkpt>
      <trkpt lat="42.51519293524324893951416015625" lon="19.76900235749781131744384765625">
        <ele>1826.800048828125</ele>
        <time>2026-06-18T11:14:07.000Z</time>
        <extensions>
          <ns3:TrackPointExtension>
            <ns3:atemp>22.0</ns3:atemp>
          </ns3:TrackPointExtension>
        </extensions>
      </trkpt>
      <trkpt lat="42.51519293524324893951416015625" lon="19.76900235749781131744384765625">
        <ele>1826.800048828125</ele>
        <time>2026-06-18T11:14:08.000Z</time>
        <extensions>
          <ns3:TrackPointExtension>
            <ns3:atemp>22.0</ns3:atemp>
          </ns3:TrackPointExtension>
        </extensions>
      </trkpt>
      <trkpt lat="42.51519293524324893951416015625" lon="19.76900235749781131744384765625">
        <ele>1826.800048828125</ele>
        <time>2026-06-18T11:14:09.000Z</time>
        <extensions>
          <ns3:TrackPointExtension>
            <ns3:atemp>22.0</ns3:atemp>
          </ns3:TrackPointExtension>
        </extensions>
      </trkpt>
      <trkpt lat="42.51519293524324893951416015625" lon="19.76900235749781131744384765625">
        <ele>1826.800048828125</ele>
        <time>2026-06-18T11:14:10.000Z</time>
        <extensions>
          <ns3:TrackPointExtension>
            <ns3:atemp>22.0</ns3:atemp>
          </ns3:TrackPointExtension>
        </extensions>
      </trkpt>
      <trkpt lat="42.51519293524324893951416015625" lon="19.76900235749781131744384765625">
        <ele>1829</ele>
        <time>2026-06-18T11:14:11.000Z</time>
        <extensions>
          <ns3:TrackPointExtension>
            <ns3:atemp>22.0</ns3:atemp>
          </ns3:TrackPointExtension>
        </extensions>
      </trkpt>
      <trkpt lat="42.51519410870969295501708984375" lon="19.769004620611667633056640625">
        <ele>1829.199951171875</ele>
        <time>2026-06-18T11:14:12.000Z</time>
        <extensions>
          <ns3:TrackPointExtension>
            <ns3:atemp>22.0</ns3:atemp>
          </ns3:TrackPointExtension>
        </extensions>
      </trkpt>
      <trkpt lat="42.515196539461612701416015625" lon="19.76902264170348644256591796875">
        <ele>1829.199951171875</ele>
        <time>2026-06-18T11:14:13.000Z</time>
        <extensions>
          <ns3:TrackPointExtension>
            <ns3:atemp>22.0</ns3:atemp>
          </ns3:TrackPointExtension>
        </extensions>
      </trkpt>
      <trkpt lat="42.51519628800451755523681640625" lon="19.76902398280799388885498046875">
        <ele>1829.199951171875</ele>
        <time>2026-06-18T11:14:14.000Z</time>
        <extensions>
          <ns3:TrackPointExtension>
            <ns3:atemp>22.0</ns3:atemp>
          </ns3:TrackPointExtension>
        </extensions>
      </trkpt>
      <trkpt lat="42.51519628800451755523681640625" lon="19.769024066627025604248046875">
        <ele>1829.199951171875</ele>
        <time>2026-06-18T11:14:15.000Z</time>
        <extensions>
          <ns3:TrackPointExtension>
            <ns3:atemp>22.0</ns3:atemp>
          </ns3:TrackPointExtension>
        </extensions>
      </trkpt>
      <trkpt lat="42.51519628800451755523681640625" lon="19.769024066627025604248046875">
        <ele>1829.4000244140625</ele>
        <time>2026-06-18T11:14:16.000Z</time>
        <extensions>
          <ns3:TrackPointExtension>
            <ns3:atemp>22.0</ns3:atemp>
          </ns3:TrackPointExtension>
        </extensions>
      </trkpt>
      <trkpt lat="42.51519628800451755523681640625" lon="19.769024066627025604248046875">
        <ele>1829.4000244140625</ele>
        <time>2026-06-18T11:14:17.000Z</time>
        <extensions>
          <ns3:TrackPointExtension>
            <ns3:atemp>22.0</ns3:atemp>
          </ns3:TrackPointExtension>
        </extensions>
      </trkpt>
      <trkpt lat="42.51519628800451755523681640625" lon="19.769024066627025604248046875">
        <ele>1829.4000244140625</ele>
        <time>2026-06-18T11:14:18.000Z</time>
        <extensions>
          <ns3:TrackPointExtension>
            <ns3:atemp>22.0</ns3:atemp>
          </ns3:TrackPointExtension>
        </extensions>
      </trkpt>
      <trkpt lat="42.51519628800451755523681640625" lon="19.769024066627025604248046875">
        <ele>1829.4000244140625</ele>
        <time>2026-06-18T11:14:19.000Z</time>
        <extensions>
          <ns3:TrackPointExtension>
            <ns3:atemp>22.0</ns3:atemp>
          </ns3:TrackPointExtension>
        </extensions>
      </trkpt>
      <trkpt lat="42.51519628800451755523681640625" lon="19.769024066627025604248046875">
        <ele>1829.4000244140625</ele>
        <time>2026-06-18T11:14:20.000Z</time>
        <extensions>
          <ns3:TrackPointExtension>
            <ns3:atemp>22.0</ns3:atemp>
          </ns3:TrackPointExtension>
        </extensions>
      </trkpt>
      <trkpt lat="42.51519628800451755523681640625" lon="19.769024066627025604248046875">
        <ele>1829.4000244140625</ele>
        <time>2026-06-18T11:14:21.000Z</time>
        <extensions>
          <ns3:TrackPointExtension>
            <ns3:atemp>22.0</ns3:atemp>
          </ns3:TrackPointExtension>
        </extensions>
      </trkpt>
      <trkpt lat="42.51519628800451755523681640625" lon="19.769024066627025604248046875">
        <ele>1829.5999755859375</ele>
        <time>2026-06-18T11:14:22.000Z</time>
        <extensions>
          <ns3:TrackPointExtension>
            <ns3:atemp>22.0</ns3:atemp>
          </ns3:TrackPointExtension>
        </extensions>
      </trkpt>
      <trkpt lat="42.51519628800451755523681640625" lon="19.769024066627025604248046875">
        <ele>1829.5999755859375</ele>
        <time>2026-06-18T11:14:23.000Z</time>
        <extensions>
          <ns3:TrackPointExtension>
            <ns3:atemp>22.0</ns3:atemp>
          </ns3:TrackPointExtension>
        </extensions>
      </trkpt>
      <trkpt lat="42.51519645564258098602294921875" lon="19.769024737179279327392578125">
        <ele>1829.5999755859375</ele>
        <time>2026-06-18T11:14:24.000Z</time>
        <extensions>
          <ns3:TrackPointExtension>
            <ns3:atemp>22.0</ns3:atemp>
          </ns3:TrackPointExtension>
        </extensions>
      </trkpt>
      <trkpt lat="42.515195198357105255126953125" lon="19.76904141716659069061279296875">
        <ele>1829.5999755859375</ele>
        <time>2026-06-18T11:14:25.000Z</time>
        <extensions>
          <ns3:TrackPointExtension>
            <ns3:atemp>22.0</ns3:atemp>
          </ns3:TrackPointExtension>
        </extensions>
      </trkpt>
      <trkpt lat="42.51519544981420040130615234375" lon="19.7690634615719318389892578125">
        <ele>1829.5999755859375</ele>
        <time>2026-06-18T11:14:26.000Z</time>
        <extensions>
          <ns3:TrackPointExtension>
            <ns3:atemp>22.0</ns3:atemp>
          </ns3:TrackPointExtension>
        </extensions>
      </trkpt>
      <trkpt lat="42.5151970423758029937744140625" lon="19.76909254677593708038330078125">
        <ele>1829.5999755859375</ele>
        <time>2026-06-18T11:14:27.000Z</time>
        <extensions>
          <ns3:TrackPointExtension>
            <ns3:atemp>22.0</ns3:atemp>
          </ns3:TrackPointExtension>
        </extensions>
      </trkpt>
      <trkpt lat="42.51519444398581981658935546875" lon="19.769117273390293121337890625">
        <ele>1829.5999755859375</ele>
        <time>2026-06-18T11:14:28.000Z</time>
        <extensions>
          <ns3:TrackPointExtension>
            <ns3:atemp>22.0</ns3:atemp>
          </ns3:TrackPointExtension>
        </extensions>
      </trkpt>
      <trkpt lat="42.51519578509032726287841796875" lon="19.76913906633853912353515625">
        <ele>1829.800048828125</ele>
        <time>2026-06-18T11:14:29.000Z</time>
        <extensions>
          <ns3:TrackPointExtension>
            <ns3:atemp>22.0</ns3:atemp>
          </ns3:TrackPointExtension>
        </extensions>
      </trkpt>
      <trkpt lat="42.51520232297480106353759765625" lon="19.76916111074388027191162109375">
        <ele>1830</ele>
        <time>2026-06-18T11:14:30.000Z</time>
        <extensions>
          <ns3:TrackPointExtension>
            <ns3:atemp>22.0</ns3:atemp>
          </ns3:TrackPointExtension>
        </extensions>
      </trkpt>
      <trkpt lat="42.51520785503089427947998046875" lon="19.76918960921466350555419921875">
        <ele>1830.199951171875</ele>
        <time>2026-06-18T11:14:31.000Z</time>
        <extensions>
          <ns3:TrackPointExtension>
            <ns3:atemp>22.0</ns3:atemp>
          </ns3:TrackPointExtension>
        </extensions>
      </trkpt>
      <trkpt lat="42.51521321944892406463623046875" lon="19.7692200355231761932373046875">
        <ele>1830.4000244140625</ele>
        <time>2026-06-18T11:14:32.000Z</time>
        <extensions>
          <ns3:TrackPointExtension>
            <ns3:atemp>22.0</ns3:atemp>
          </ns3:TrackPointExtension>
        </extensions>
      </trkpt>
      <trkpt lat="42.51520684920251369476318359375" lon="19.7692237235605716705322265625">
        <ele>1830.4000244140625</ele>
        <time>2026-06-18T11:14:33.000Z</time>
        <extensions>
          <ns3:TrackPointExtension>
            <ns3:atemp>22.0</ns3:atemp>
          </ns3:TrackPointExtension>
        </extensions>
      </trkpt>
      <trkpt lat="42.51520651392638683319091796875" lon="19.76921953260898590087890625">
        <ele>1830.800048828125</ele>
        <time>2026-06-18T11:14:34.000Z</time>
        <extensions>
          <ns3:TrackPointExtension>
            <ns3:atemp>22.0</ns3:atemp>
          </ns3:TrackPointExtension>
        </extensions>
      </trkpt>
      <trkpt lat="42.51520651392638683319091796875" lon="19.76921944878995418548583984375">
        <ele>1830.800048828125</ele>
        <time>2026-06-18T11:14:35.000Z</time>
        <extensions>
          <ns3:TrackPointExtension>
            <ns3:atemp>22.0</ns3:atemp>
          </ns3:TrackPointExtension>
        </extensions>
      </trkpt>
      <trkpt lat="42.51520651392638683319091796875" lon="19.76921944878995418548583984375">
        <ele>1831</ele>
        <time>2026-06-18T11:14:36.000Z</time>
        <extensions>
          <ns3:TrackPointExtension>
            <ns3:atemp>22.0</ns3:atemp>
          </ns3:TrackPointExtension>
        </extensions>
      </trkpt>
      <trkpt lat="42.51520634628832340240478515625" lon="19.769219197332859039306640625">
        <ele>1831.199951171875</ele>
        <time>2026-06-18T11:14:37.000Z</time>
        <extensions>
          <ns3:TrackPointExtension>
            <ns3:atemp>22.0</ns3:atemp>
          </ns3:TrackPointExtension>
        </extensions>
      </trkpt>
      <trkpt lat="42.51520332880318164825439453125" lon="19.76921282708644866943359375">
        <ele>1831.5999755859375</ele>
        <time>2026-06-18T11:14:38.000Z</time>
        <extensions>
          <ns3:TrackPointExtension>
            <ns3:atemp>22.0</ns3:atemp>
          </ns3:TrackPointExtension>
        </extensions>
      </trkpt>
      <trkpt lat="42.51520316116511821746826171875" lon="19.7692067921161651611328125">
        <ele>1831.800048828125</ele>
        <time>2026-06-18T11:14:39.000Z</time>
        <extensions>
          <ns3:TrackPointExtension>
            <ns3:atemp>22.0</ns3:atemp>
          </ns3:TrackPointExtension>
        </extensions>
      </trkpt>
      <trkpt lat="42.51520064659416675567626953125" lon="19.7691895253956317901611328125">
        <ele>1832.199951171875</ele>
        <time>2026-06-18T11:14:40.000Z</time>
        <extensions>
          <ns3:TrackPointExtension>
            <ns3:atemp>22.0</ns3:atemp>
          </ns3:TrackPointExtension>
        </extensions>
      </trkpt>
      <trkpt lat="42.5152029097080230712890625" lon="19.76918810047209262847900390625">
        <ele>1832.199951171875</ele>
        <time>2026-06-18T11:14:41.000Z</time>
        <extensions>
          <ns3:TrackPointExtension>
            <ns3:atemp>22.0</ns3:atemp>
          </ns3:TrackPointExtension>
        </extensions>
      </trkpt>
      <trkpt lat="42.5152029097080230712890625" lon="19.7691880166530609130859375">
        <ele>1832.199951171875</ele>
        <time>2026-06-18T11:14:42.000Z</time>
        <extensions>
          <ns3:TrackPointExtension>
            <ns3:atemp>22.0</ns3:atemp>
          </ns3:TrackPointExtension>
        </extensions>
      </trkpt>
      <trkpt lat="42.5152029097080230712890625" lon="19.7691880166530609130859375">
        <ele>1832</ele>
        <time>2026-06-18T11:14:43.000Z</time>
        <extensions>
          <ns3:TrackPointExtension>
            <ns3:atemp>22.0</ns3:atemp>
          </ns3:TrackPointExtension>
        </extensions>
      </trkpt>
      <trkpt lat="42.51520282588899135589599609375" lon="19.769187681376934051513671875">
        <ele>1831.800048828125</ele>
        <time>2026-06-18T11:14:44.000Z</time>
        <extensions>
          <ns3:TrackPointExtension>
            <ns3:atemp>22.0</ns3:atemp>
          </ns3:TrackPointExtension>
        </extensions>
      </trkpt>
      <trkpt lat="42.5151967070996761322021484375" lon="19.76916228421032428741455078125">
        <ele>1831.5999755859375</ele>
        <time>2026-06-18T11:14:45.000Z</time>
        <extensions>
          <ns3:TrackPointExtension>
            <ns3:atemp>22.0</ns3:atemp>
          </ns3:TrackPointExtension>
        </extensions>
      </trkpt>
      <trkpt lat="42.51519025303423404693603515625" lon="19.76914183236658573150634765625">
        <ele>1831.5999755859375</ele>
        <time>2026-06-18T11:14:46.000Z</time>
        <extensions>
          <ns3:TrackPointExtension>
            <ns3:atemp>22.0</ns3:atemp>
          </ns3:TrackPointExtension>
        </extensions>
      </trkpt>
      <trkpt lat="42.51519075594842433929443359375" lon="19.7691238112747669219970703125">
        <ele>1831.5999755859375</ele>
        <time>2026-06-18T11:14:47.000Z</time>
        <extensions>
          <ns3:TrackPointExtension>
            <ns3:atemp>22.0</ns3:atemp>
          </ns3:TrackPointExtension>
        </extensions>
      </trkpt>
      <trkpt lat="42.51519226469099521636962890625" lon="19.76909304969012737274169921875">
        <ele>1831.5999755859375</ele>
        <time>2026-06-18T11:14:48.000Z</time>
        <extensions>
          <ns3:TrackPointExtension>
            <ns3:atemp>22.0</ns3:atemp>
          </ns3:TrackPointExtension>
        </extensions>
      </trkpt>
      <trkpt lat="42.5151910074055194854736328125" lon="19.7690520621836185455322265625">
        <ele>1831.4000244140625</ele>
        <time>2026-06-18T11:14:49.000Z</time>
        <extensions>
          <ns3:TrackPointExtension>
            <ns3:atemp>22.0</ns3:atemp>
          </ns3:TrackPointExtension>
        </extensions>
      </trkpt>
      <trkpt lat="42.5151957012712955474853515625" lon="19.769021384418010711669921875">
        <ele>1831.199951171875</ele>
        <time>2026-06-18T11:14:50.000Z</time>
        <extensions>
          <ns3:TrackPointExtension>
            <ns3:atemp>22.0</ns3:atemp>
          </ns3:TrackPointExtension>
        </extensions>
      </trkpt>
      <trkpt lat="42.5152030773460865020751953125" lon="19.76900403387844562530517578125">
        <ele>1830.800048828125</ele>
        <time>2026-06-18T11:14:51.000Z</time>
        <extensions>
          <ns3:TrackPointExtension>
            <ns3:atemp>22.0</ns3:atemp>
          </ns3:TrackPointExtension>
        </extensions>
      </trkpt>
      <trkpt lat="42.51520223915576934814453125" lon="19.7689994238317012786865234375">
        <ele>1830.5999755859375</ele>
        <time>2026-06-18T11:14:52.000Z</time>
        <extensions>
          <ns3:TrackPointExtension>
            <ns3:atemp>22.0</ns3:atemp>
          </ns3:TrackPointExtension>
        </extensions>
      </trkpt>
      <trkpt lat="42.5151977129280567169189453125" lon="19.76899699307978153228759765625">
        <ele>1830.4000244140625</ele>
        <time>2026-06-18T11:14:53.000Z</time>
        <extensions>
          <ns3:TrackPointExtension>
            <ns3:atemp>22.0</ns3:atemp>
          </ns3:TrackPointExtension>
        </extensions>
      </trkpt>
      <trkpt lat="42.5151975452899932861328125" lon="19.76899414323270320892333984375">
        <ele>1830.199951171875</ele>
        <time>2026-06-18T11:14:54.000Z</time>
        <extensions>
          <ns3:TrackPointExtension>
            <ns3:atemp>22.0</ns3:atemp>
          </ns3:TrackPointExtension>
        </extensions>
      </trkpt>
      <trkpt lat="42.5151975452899932861328125" lon="19.76899414323270320892333984375">
        <ele>1830</ele>
        <time>2026-06-18T11:14:55.000Z</time>
        <extensions>
          <ns3:TrackPointExtension>
            <ns3:atemp>22.0</ns3:atemp>
          </ns3:TrackPointExtension>
        </extensions>
      </trkpt>
      <trkpt lat="42.5151975452899932861328125" lon="19.76899414323270320892333984375">
        <ele>1829.800048828125</ele>
        <time>2026-06-18T11:14:56.000Z</time>
        <extensions>
          <ns3:TrackPointExtension>
            <ns3:atemp>22.0</ns3:atemp>
          </ns3:TrackPointExtension>
        </extensions>
      </trkpt>
      <trkpt lat="42.5151975452899932861328125" lon="19.76899414323270320892333984375">
        <ele>1829.5999755859375</ele>
        <time>2026-06-18T11:14:57.000Z</time>
        <extensions>
          <ns3:TrackPointExtension>
            <ns3:atemp>22.0</ns3:atemp>
          </ns3:TrackPointExtension>
        </extensions>
      </trkpt>
      <trkpt lat="42.5151975452899932861328125" lon="19.76899414323270320892333984375">
        <ele>1829.4000244140625</ele>
        <time>2026-06-18T11:14:58.000Z</time>
        <extensions>
          <ns3:TrackPointExtension>
            <ns3:atemp>22.0</ns3:atemp>
          </ns3:TrackPointExtension>
        </extensions>
      </trkpt>
      <trkpt lat="42.5151975452899932861328125" lon="19.76899414323270320892333984375">
        <ele>1829.4000244140625</ele>
        <time>2026-06-18T11:14:59.000Z</time>
        <extensions>
          <ns3:TrackPointExtension>
            <ns3:atemp>22.0</ns3:atemp>
          </ns3:TrackPointExtension>
        </extensions>
      </trkpt>
      <trkpt lat="42.5151975452899932861328125" lon="19.76899414323270320892333984375">
        <ele>1829.4000244140625</ele>
        <time>2026-06-18T11:15:00.000Z</time>
        <extensions>
          <ns3:TrackPointExtension>
            <ns3:atemp>22.0</ns3:atemp>
          </ns3:TrackPointExtension>
        </extensions>
      </trkpt>
      <trkpt lat="42.5151975452899932861328125" lon="19.76899414323270320892333984375">
        <ele>1829.199951171875</ele>
        <time>2026-06-18T11:15:01.000Z</time>
        <extensions>
          <ns3:TrackPointExtension>
            <ns3:atemp>22.0</ns3:atemp>
          </ns3:TrackPointExtension>
        </extensions>
      </trkpt>
      <trkpt lat="42.5151975452899932861328125" lon="19.76899414323270320892333984375">
        <ele>1829.199951171875</ele>
        <time>2026-06-18T11:15:02.000Z</time>
        <extensions>
          <ns3:TrackPointExtension>
            <ns3:atemp>22.0</ns3:atemp>
          </ns3:TrackPointExtension>
        </extensions>
      </trkpt>
      <trkpt lat="42.5151975452899932861328125" lon="19.76899414323270320892333984375">
        <ele>1829.199951171875</ele>
        <time>2026-06-18T11:15:03.000Z</time>
        <extensions>
          <ns3:TrackPointExtension>
            <ns3:atemp>22.0</ns3:atemp>
          </ns3:TrackPointExtension>
        </extensions>
      </trkpt>
      <trkpt lat="42.5151975452899932861328125" lon="19.76899414323270320892333984375">
        <ele>1829</ele>
        <time>2026-06-18T11:15:04.000Z</time>
        <extensions>
          <ns3:TrackPointExtension>
            <ns3:atemp>22.0</ns3:atemp>
          </ns3:TrackPointExtension>
        </extensions>
      </trkpt>
      <trkpt lat="42.5151975452899932861328125" lon="19.76899414323270320892333984375">
        <ele>1829</ele>
        <time>2026-06-18T11:15:05.000Z</time>
        <extensions>
          <ns3:TrackPointExtension>
            <ns3:atemp>22.0</ns3:atemp>
          </ns3:TrackPointExtension>
        </extensions>
      </trkpt>
      <trkpt lat="42.5151975452899932861328125" lon="19.76899414323270320892333984375">
        <ele>1829</ele>
        <time>2026-06-18T11:15:06.000Z</time>
        <extensions>
          <ns3:TrackPointExtension>
            <ns3:atemp>22.0</ns3:atemp>
          </ns3:TrackPointExtension>
        </extensions>
      </trkpt>
      <trkpt lat="42.5151975452899932861328125" lon="19.76899414323270320892333984375">
        <ele>1828.800048828125</ele>
        <time>2026-06-18T11:15:07.000Z</time>
        <extensions>
          <ns3:TrackPointExtension>
            <ns3:atemp>22.0</ns3:atemp>
          </ns3:TrackPointExtension>
        </extensions>
      </trkpt>
      <trkpt lat="42.5151975452899932861328125" lon="19.76899414323270320892333984375">
        <ele>1828.800048828125</ele>
        <time>2026-06-18T11:15:08.000Z</time>
        <extensions>
          <ns3:TrackPointExtension>
            <ns3:atemp>22.0</ns3:atemp>
          </ns3:TrackPointExtension>
        </extensions>
      </trkpt>
      <trkpt lat="42.5151975452899932861328125" lon="19.76899414323270320892333984375">
        <ele>1828.800048828125</ele>
        <time>2026-06-18T11:15:09.000Z</time>
        <extensions>
          <ns3:TrackPointExtension>
            <ns3:atemp>22.0</ns3:atemp>
          </ns3:TrackPointExtension>
        </extensions>
      </trkpt>
      <trkpt lat="42.5151975452899932861328125" lon="19.76899414323270320892333984375">
        <ele>1828.800048828125</ele>
        <time>2026-06-18T11:15:10.000Z</time>
        <extensions>
          <ns3:TrackPointExtension>
            <ns3:atemp>22.0</ns3:atemp>
          </ns3:TrackPointExtension>
        </extensions>
      </trkpt>
      <trkpt lat="42.5151975452899932861328125" lon="19.76899414323270320892333984375">
        <ele>1828.800048828125</ele>
        <time>2026-06-18T11:15:11.000Z</time>
        <extensions>
          <ns3:TrackPointExtension>
            <ns3:atemp>22.0</ns3:atemp>
          </ns3:TrackPointExtension>
        </extensions>
      </trkpt>
      <trkpt lat="42.5151975452899932861328125" lon="19.76899414323270320892333984375">
        <ele>1828.5999755859375</ele>
        <time>2026-06-18T11:15:12.000Z</time>
        <extensions>
          <ns3:TrackPointExtension>
            <ns3:atemp>22.0</ns3:atemp>
          </ns3:TrackPointExtension>
        </extensions>
      </trkpt>
      <trkpt lat="42.5151975452899932861328125" lon="19.76899414323270320892333984375">
        <ele>1828.199951171875</ele>
        <time>2026-06-18T11:15:13.000Z</time>
        <extensions>
          <ns3:TrackPointExtension>
            <ns3:atemp>22.0</ns3:atemp>
          </ns3:TrackPointExtension>
        </extensions>
      </trkpt>
      <trkpt lat="42.5151975452899932861328125" lon="19.76899414323270320892333984375">
        <ele>1828</ele>
        <time>2026-06-18T11:15:14.000Z</time>
        <extensions>
          <ns3:TrackPointExtension>
            <ns3:atemp>22.0</ns3:atemp>
          </ns3:TrackPointExtension>
        </extensions>
      </trkpt>
      <trkpt lat="42.5151975452899932861328125" lon="19.76899414323270320892333984375">
        <ele>1827.800048828125</ele>
        <time>2026-06-18T11:15:15.000Z</time>
        <extensions>
          <ns3:TrackPointExtension>
            <ns3:atemp>22.0</ns3:atemp>
          </ns3:TrackPointExtension>
        </extensions>
      </trkpt>
      <trkpt lat="42.5151975452899932861328125" lon="19.76899414323270320892333984375">
        <ele>1827.5999755859375</ele>
        <time>2026-06-18T11:15:16.000Z</time>
        <extensions>
          <ns3:TrackPointExtension>
            <ns3:atemp>22.0</ns3:atemp>
          </ns3:TrackPointExtension>
        </extensions>
      </trkpt>
      <trkpt lat="42.5151975452899932861328125" lon="19.76899414323270320892333984375">
        <ele>1827.4000244140625</ele>
        <time>2026-06-18T11:15:17.000Z</time>
        <extensions>
          <ns3:TrackPointExtension>
            <ns3:atemp>22.0</ns3:atemp>
          </ns3:TrackPointExtension>
        </extensions>
      </trkpt>
      <trkpt lat="42.5151975452899932861328125" lon="19.76899414323270320892333984375">
        <ele>1827.199951171875</ele>
        <time>2026-06-18T11:15:18.000Z</time>
        <extensions>
          <ns3:TrackPointExtension>
            <ns3:atemp>22.0</ns3:atemp>
          </ns3:TrackPointExtension>
        </extensions>
      </trkpt>
      <trkpt lat="42.5151975452899932861328125" lon="19.76899414323270320892333984375">
        <ele>1827.199951171875</ele>
        <time>2026-06-18T11:15:19.000Z</time>
        <extensions>
          <ns3:TrackPointExtension>
            <ns3:atemp>22.0</ns3:atemp>
          </ns3:TrackPointExtension>
        </extensions>
      </trkpt>
      <trkpt lat="42.5151975452899932861328125" lon="19.76899414323270320892333984375">
        <ele>1827.4000244140625</ele>
        <time>2026-06-18T11:15:20.000Z</time>
        <extensions>
          <ns3:TrackPointExtension>
            <ns3:atemp>22.0</ns3:atemp>
          </ns3:TrackPointExtension>
        </extensions>
      </trkpt>
      <trkpt lat="42.5151975452899932861328125" lon="19.76899414323270320892333984375">
        <ele>1827.4000244140625</ele>
        <time>2026-06-18T11:15:21.000Z</time>
        <extensions>
          <ns3:TrackPointExtension>
            <ns3:atemp>22.0</ns3:atemp>
          </ns3:TrackPointExtension>
        </extensions>
      </trkpt>
      <trkpt lat="42.5151975452899932861328125" lon="19.76899414323270320892333984375">
        <ele>1827.4000244140625</ele>
        <time>2026-06-18T11:15:22.000Z</time>
        <extensions>
          <ns3:TrackPointExtension>
            <ns3:atemp>22.0</ns3:atemp>
          </ns3:TrackPointExtension>
        </extensions>
      </trkpt>
      <trkpt lat="42.5151975452899932861328125" lon="19.76899414323270320892333984375">
        <ele>1827.4000244140625</ele>
        <time>2026-06-18T11:15:23.000Z</time>
        <extensions>
          <ns3:TrackPointExtension>
            <ns3:atemp>22.0</ns3:atemp>
          </ns3:TrackPointExtension>
        </extensions>
      </trkpt>
      <trkpt lat="42.5151975452899932861328125" lon="19.76899414323270320892333984375">
        <ele>1827.4000244140625</ele>
        <time>2026-06-18T11:15:24.000Z</time>
        <extensions>
          <ns3:TrackPointExtension>
            <ns3:atemp>22.0</ns3:atemp>
          </ns3:TrackPointExtension>
        </extensions>
      </trkpt>
      <trkpt lat="42.5151975452899932861328125" lon="19.76899414323270320892333984375">
        <ele>1827.4000244140625</ele>
        <time>2026-06-18T11:15:25.000Z</time>
        <extensions>
          <ns3:TrackPointExtension>
            <ns3:atemp>22.0</ns3:atemp>
          </ns3:TrackPointExtension>
        </extensions>
      </trkpt>
      <trkpt lat="42.5151975452899932861328125" lon="19.76899414323270320892333984375">
        <ele>1827.199951171875</ele>
        <time>2026-06-18T11:15:26.000Z</time>
        <extensions>
          <ns3:TrackPointExtension>
            <ns3:atemp>22.0</ns3:atemp>
          </ns3:TrackPointExtension>
        </extensions>
      </trkpt>
      <trkpt lat="42.5151975452899932861328125" lon="19.76899414323270320892333984375">
        <ele>1827</ele>
        <time>2026-06-18T11:15:27.000Z</time>
        <extensions>
          <ns3:TrackPointExtension>
            <ns3:atemp>22.0</ns3:atemp>
          </ns3:TrackPointExtension>
        </extensions>
      </trkpt>
      <trkpt lat="42.5151975452899932861328125" lon="19.76899414323270320892333984375">
        <ele>1826.800048828125</ele>
        <time>2026-06-18T11:15:28.000Z</time>
        <extensions>
          <ns3:TrackPointExtension>
            <ns3:atemp>22.0</ns3:atemp>
          </ns3:TrackPointExtension>
        </extensions>
      </trkpt>
      <trkpt lat="42.5151975452899932861328125" lon="19.76899414323270320892333984375">
        <ele>1826.5999755859375</ele>
        <time>2026-06-18T11:15:29.000Z</time>
        <extensions>
          <ns3:TrackPointExtension>
            <ns3:atemp>22.0</ns3:atemp>
          </ns3:TrackPointExtension>
        </extensions>
      </trkpt>
      <trkpt lat="42.5151975452899932861328125" lon="19.76899414323270320892333984375">
        <ele>1826.5999755859375</ele>
        <time>2026-06-18T11:15:30.000Z</time>
        <extensions>
          <ns3:TrackPointExtension>
            <ns3:atemp>22.0</ns3:atemp>
          </ns3:TrackPointExtension>
        </extensions>
      </trkpt>
      <trkpt lat="42.5151975452899932861328125" lon="19.76899414323270320892333984375">
        <ele>1826.5999755859375</ele>
        <time>2026-06-18T11:15:31.000Z</time>
        <extensions>
          <ns3:TrackPointExtension>
            <ns3:atemp>22.0</ns3:atemp>
          </ns3:TrackPointExtension>
        </extensions>
      </trkpt>
      <trkpt lat="42.5151975452899932861328125" lon="19.76899414323270320892333984375">
        <ele>1826.800048828125</ele>
        <time>2026-06-18T11:15:32.000Z</time>
        <extensions>
          <ns3:TrackPointExtension>
            <ns3:atemp>22.0</ns3:atemp>
          </ns3:TrackPointExtension>
        </extensions>
      </trkpt>
      <trkpt lat="42.5151975452899932861328125" lon="19.76899414323270320892333984375">
        <ele>1826.800048828125</ele>
        <time>2026-06-18T11:15:33.000Z</time>
        <extensions>
          <ns3:TrackPointExtension>
            <ns3:atemp>22.0</ns3:atemp>
          </ns3:TrackPointExtension>
        </extensions>
      </trkpt>
      <trkpt lat="42.5151975452899932861328125" lon="19.76899414323270320892333984375">
        <ele>1826.800048828125</ele>
        <time>2026-06-18T11:15:34.000Z</time>
        <extensions>
          <ns3:TrackPointExtension>
            <ns3:atemp>22.0</ns3:atemp>
          </ns3:TrackPointExtension>
        </extensions>
      </trkpt>
      <trkpt lat="42.5151975452899932861328125" lon="19.76899414323270320892333984375">
        <ele>1826.800048828125</ele>
        <time>2026-06-18T11:15:35.000Z</time>
        <extensions>
          <ns3:TrackPointExtension>
            <ns3:atemp>22.0</ns3:atemp>
          </ns3:TrackPointExtension>
        </extensions>
      </trkpt>
      <trkpt lat="42.5151975452899932861328125" lon="19.76899414323270320892333984375">
        <ele>1826.800048828125</ele>
        <time>2026-06-18T11:15:36.000Z</time>
        <extensions>
          <ns3:TrackPointExtension>
            <ns3:atemp>22.0</ns3:atemp>
          </ns3:TrackPointExtension>
        </extensions>
      </trkpt>
      <trkpt lat="42.5151975452899932861328125" lon="19.76899414323270320892333984375">
        <ele>1826.800048828125</ele>
        <time>2026-06-18T11:15:37.000Z</time>
        <extensions>
          <ns3:TrackPointExtension>
            <ns3:atemp>22.0</ns3:atemp>
          </ns3:TrackPointExtension>
        </extensions>
      </trkpt>
      <trkpt lat="42.5151975452899932861328125" lon="19.76899414323270320892333984375">
        <ele>1826.5999755859375</ele>
        <time>2026-06-18T11:15:38.000Z</time>
        <extensions>
          <ns3:TrackPointExtension>
            <ns3:atemp>22.0</ns3:atemp>
          </ns3:TrackPointExtension>
        </extensions>
      </trkpt>
      <trkpt lat="42.5151975452899932861328125" lon="19.76899414323270320892333984375">
        <ele>1826.5999755859375</ele>
        <time>2026-06-18T11:15:39.000Z</time>
        <extensions>
          <ns3:TrackPointExtension>
            <ns3:atemp>22.0</ns3:atemp>
          </ns3:TrackPointExtension>
        </extensions>
      </trkpt>
      <trkpt lat="42.5151975452899932861328125" lon="19.76899414323270320892333984375">
        <ele>1826.5999755859375</ele>
        <time>2026-06-18T11:15:40.000Z</time>
        <extensions>
          <ns3:TrackPointExtension>
            <ns3:atemp>22.0</ns3:atemp>
          </ns3:TrackPointExtension>
        </extensions>
      </trkpt>
      <trkpt lat="42.5151975452899932861328125" lon="19.76899414323270320892333984375">
        <ele>1826.5999755859375</ele>
        <time>2026-06-18T11:15:41.000Z</time>
        <extensions>
          <ns3:TrackPointExtension>
            <ns3:atemp>22.0</ns3:atemp>
          </ns3:TrackPointExtension>
        </extensions>
      </trkpt>
      <trkpt lat="42.5151975452899932861328125" lon="19.76899414323270320892333984375">
        <ele>1826.4000244140625</ele>
        <time>2026-06-18T11:15:42.000Z</time>
        <extensions>
          <ns3:TrackPointExtension>
            <ns3:atemp>22.0</ns3:atemp>
          </ns3:TrackPointExtension>
        </extensions>
      </trkpt>
      <trkpt lat="42.5151975452899932861328125" lon="19.76899414323270320892333984375">
        <ele>1826.4000244140625</ele>
        <time>2026-06-18T11:15:43.000Z</time>
        <extensions>
          <ns3:TrackPointExtension>
            <ns3:atemp>22.0</ns3:atemp>
          </ns3:TrackPointExtension>
        </extensions>
      </trkpt>
      <trkpt lat="42.5151975452899932861328125" lon="19.76899414323270320892333984375">
        <ele>1826.199951171875</ele>
        <time>2026-06-18T11:15:44.000Z</time>
        <extensions>
          <ns3:TrackPointExtension>
            <ns3:atemp>22.0</ns3:atemp>
          </ns3:TrackPointExtension>
        </extensions>
      </trkpt>
      <trkpt lat="42.5151975452899932861328125" lon="19.76899414323270320892333984375">
        <ele>1826.199951171875</ele>
        <time>2026-06-18T11:15:45.000Z</time>
        <extensions>
          <ns3:TrackPointExtension>
            <ns3:atemp>22.0</ns3:atemp>
          </ns3:TrackPointExtension>
        </extensions>
      </trkpt>
      <trkpt lat="42.5151975452899932861328125" lon="19.76899414323270320892333984375">
        <ele>1826</ele>
        <time>2026-06-18T11:15:46.000Z</time>
        <extensions>
          <ns3:TrackPointExtension>
            <ns3:atemp>22.0</ns3:atemp>
          </ns3:TrackPointExtension>
        </extensions>
      </trkpt>
      <trkpt lat="42.5151975452899932861328125" lon="19.76899414323270320892333984375">
        <ele>1825.800048828125</ele>
        <time>2026-06-18T11:15:47.000Z</time>
        <extensions>
          <ns3:TrackPointExtension>
            <ns3:atemp>22.0</ns3:atemp>
          </ns3:TrackPointExtension>
        </extensions>
      </trkpt>
      <trkpt lat="42.5151975452899932861328125" lon="19.76899414323270320892333984375">
        <ele>1825.800048828125</ele>
        <time>2026-06-18T11:15:48.000Z</time>
        <extensions>
          <ns3:TrackPointExtension>
            <ns3:atemp>22.0</ns3:atemp>
          </ns3:TrackPointExtension>
        </extensions>
      </trkpt>
      <trkpt lat="42.5151975452899932861328125" lon="19.76899414323270320892333984375">
        <ele>1825.5999755859375</ele>
        <time>2026-06-18T11:15:49.000Z</time>
        <extensions>
          <ns3:TrackPointExtension>
            <ns3:atemp>21.0</ns3:atemp>
          </ns3:TrackPointExtension>
        </extensions>
      </trkpt>
      <trkpt lat="42.5151975452899932861328125" lon="19.76899414323270320892333984375">
        <ele>1825.5999755859375</ele>
        <time>2026-06-18T11:15:50.000Z</time>
        <extensions>
          <ns3:TrackPointExtension>
            <ns3:atemp>22.0</ns3:atemp>
          </ns3:TrackPointExtension>
        </extensions>
      </trkpt>
      <trkpt lat="42.5151975452899932861328125" lon="19.76899414323270320892333984375">
        <ele>1825.5999755859375</ele>
        <time>2026-06-18T11:15:51.000Z</time>
        <extensions>
          <ns3:TrackPointExtension>
            <ns3:atemp>22.0</ns3:atemp>
          </ns3:TrackPointExtension>
        </extensions>
      </trkpt>
      <trkpt lat="42.5151975452899932861328125" lon="19.76899414323270320892333984375">
        <ele>1825.5999755859375</ele>
        <time>2026-06-18T11:15:52.000Z</time>
        <extensions>
          <ns3:TrackPointExtension>
            <ns3:atemp>22.0</ns3:atemp>
          </ns3:TrackPointExtension>
        </extensions>
      </trkpt>
      <trkpt lat="42.5151975452899932861328125" lon="19.76899414323270320892333984375">
        <ele>1825.800048828125</ele>
        <time>2026-06-18T11:15:53.000Z</time>
        <extensions>
          <ns3:TrackPointExtension>
            <ns3:atemp>21.0</ns3:atemp>
          </ns3:TrackPointExtension>
        </extensions>
      </trkpt>
      <trkpt lat="42.5151975452899932861328125" lon="19.76899414323270320892333984375">
        <ele>1825.800048828125</ele>
        <time>2026-06-18T11:15:54.000Z</time>
        <extensions>
          <ns3:TrackPointExtension>
            <ns3:atemp>21.0</ns3:atemp>
          </ns3:TrackPointExtension>
        </extensions>
      </trkpt>
      <trkpt lat="42.5151975452899932861328125" lon="19.76899414323270320892333984375">
        <ele>1825.800048828125</ele>
        <time>2026-06-18T11:15:55.000Z</time>
        <extensions>
          <ns3:TrackPointExtension>
            <ns3:atemp>21.0</ns3:atemp>
          </ns3:TrackPointExtension>
        </extensions>
      </trkpt>
      <trkpt lat="42.5151975452899932861328125" lon="19.76899414323270320892333984375">
        <ele>1825.800048828125</ele>
        <time>2026-06-18T11:15:56.000Z</time>
        <extensions>
          <ns3:TrackPointExtension>
            <ns3:atemp>21.0</ns3:atemp>
          </ns3:TrackPointExtension>
        </extensions>
      </trkpt>
      <trkpt lat="42.5151975452899932861328125" lon="19.76899414323270320892333984375">
        <ele>1825.800048828125</ele>
        <time>2026-06-18T11:15:57.000Z</time>
        <extensions>
          <ns3:TrackPointExtension>
            <ns3:atemp>21.0</ns3:atemp>
          </ns3:TrackPointExtension>
        </extensions>
      </trkpt>
      <trkpt lat="42.5151975452899932861328125" lon="19.76899414323270320892333984375">
        <ele>1825.800048828125</ele>
        <time>2026-06-18T11:15:58.000Z</time>
        <extensions>
          <ns3:TrackPointExtension>
            <ns3:atemp>21.0</ns3:atemp>
          </ns3:TrackPointExtension>
        </extensions>
      </trkpt>
      <trkpt lat="42.5151975452899932861328125" lon="19.76899414323270320892333984375">
        <ele>1825.5999755859375</ele>
        <time>2026-06-18T11:15:59.000Z</time>
        <extensions>
          <ns3:TrackPointExtension>
            <ns3:atemp>21.0</ns3:atemp>
          </ns3:TrackPointExtension>
        </extensions>
      </trkpt>
      <trkpt lat="42.5151975452899932861328125" lon="19.76899414323270320892333984375">
        <ele>1825.5999755859375</ele>
        <time>2026-06-18T11:16:00.000Z</time>
        <extensions>
          <ns3:TrackPointExtension>
            <ns3:atemp>21.0</ns3:atemp>
          </ns3:TrackPointExtension>
        </extensions>
      </trkpt>
      <trkpt lat="42.5151975452899932861328125" lon="19.76899414323270320892333984375">
        <ele>1825.5999755859375</ele>
        <time>2026-06-18T11:16:01.000Z</time>
        <extensions>
          <ns3:TrackPointExtension>
            <ns3:atemp>21.0</ns3:atemp>
          </ns3:TrackPointExtension>
        </extensions>
      </trkpt>
      <trkpt lat="42.5151975452899932861328125" lon="19.76899414323270320892333984375">
        <ele>1825.5999755859375</ele>
        <time>2026-06-18T11:16:02.000Z</time>
        <extensions>
          <ns3:TrackPointExtension>
            <ns3:atemp>21.0</ns3:atemp>
          </ns3:TrackPointExtension>
        </extensions>
      </trkpt>
      <trkpt lat="42.51520031131803989410400390625" lon="19.7689947299659252166748046875">
        <ele>1825.5999755859375</ele>
        <time>2026-06-18T11:16:03.000Z</time>
        <extensions>
          <ns3:TrackPointExtension>
            <ns3:atemp>21.0</ns3:atemp>
          </ns3:TrackPointExtension>
        </extensions>
      </trkpt>
      <trkpt lat="42.51520969904959201812744140625" lon="19.7689870186150074005126953125">
        <ele>1825.4000244140625</ele>
        <time>2026-06-18T11:16:04.000Z</time>
        <extensions>
          <ns3:TrackPointExtension>
            <ns3:atemp>21.0</ns3:atemp>
          </ns3:TrackPointExtension>
        </extensions>
      </trkpt>
      <trkpt lat="42.5152104534208774566650390625" lon="19.76898525841534137725830078125">
        <ele>1825.4000244140625</ele>
        <time>2026-06-18T11:16:05.000Z</time>
        <extensions>
          <ns3:TrackPointExtension>
            <ns3:atemp>21.0</ns3:atemp>
          </ns3:TrackPointExtension>
        </extensions>
      </trkpt>
      <trkpt lat="42.5152104534208774566650390625" lon="19.7689853422343730926513671875">
        <ele>1825.4000244140625</ele>
        <time>2026-06-18T11:16:06.000Z</time>
        <extensions>
          <ns3:TrackPointExtension>
            <ns3:atemp>21.0</ns3:atemp>
          </ns3:TrackPointExtension>
        </extensions>
      </trkpt>
      <trkpt lat="42.5152064301073551177978515625" lon="19.76898458786308765411376953125">
        <ele>1825.4000244140625</ele>
        <time>2026-06-18T11:16:07.000Z</time>
        <extensions>
          <ns3:TrackPointExtension>
            <ns3:atemp>21.0</ns3:atemp>
          </ns3:TrackPointExtension>
        </extensions>
      </trkpt>
      <trkpt lat="42.5152067653834819793701171875" lon="19.7689890302717685699462890625">
        <ele>1825.5999755859375</ele>
        <time>2026-06-18T11:16:08.000Z</time>
        <extensions>
          <ns3:TrackPointExtension>
            <ns3:atemp>21.0</ns3:atemp>
          </ns3:TrackPointExtension>
        </extensions>
      </trkpt>
      <trkpt lat="42.51520534045994281768798828125" lon="19.768990539014339447021484375">
        <ele>1825.5999755859375</ele>
        <time>2026-06-18T11:16:09.000Z</time>
        <extensions>
          <ns3:TrackPointExtension>
            <ns3:atemp>21.0</ns3:atemp>
          </ns3:TrackPointExtension>
        </extensions>
      </trkpt>
      <trkpt lat="42.51520735211670398712158203125" lon="19.76898626424372196197509765625">
        <ele>1825.5999755859375</ele>
        <time>2026-06-18T11:16:10.000Z</time>
        <extensions>
          <ns3:TrackPointExtension>
            <ns3:atemp>21.0</ns3:atemp>
          </ns3:TrackPointExtension>
        </extensions>
      </trkpt>
      <trkpt lat="42.51520332880318164825439453125" lon="19.7689850069582462310791015625">
        <ele>1825.5999755859375</ele>
        <time>2026-06-18T11:16:11.000Z</time>
        <extensions>
          <ns3:TrackPointExtension>
            <ns3:atemp>21.0</ns3:atemp>
          </ns3:TrackPointExtension>
        </extensions>
      </trkpt>
      <trkpt lat="42.515204586088657379150390625" lon="19.76898442022502422332763671875">
        <ele>1825.5999755859375</ele>
        <time>2026-06-18T11:16:12.000Z</time>
        <extensions>
          <ns3:TrackPointExtension>
            <ns3:atemp>21.0</ns3:atemp>
          </ns3:TrackPointExtension>
        </extensions>
      </trkpt>
      <trkpt lat="42.515204586088657379150390625" lon="19.76898442022502422332763671875">
        <ele>1825.5999755859375</ele>
        <time>2026-06-18T11:16:13.000Z</time>
        <extensions>
          <ns3:TrackPointExtension>
            <ns3:atemp>21.0</ns3:atemp>
          </ns3:TrackPointExtension>
        </extensions>
      </trkpt>
      <trkpt lat="42.51520466990768909454345703125" lon="19.76898425258696079254150390625">
        <ele>1825.4000244140625</ele>
        <time>2026-06-18T11:16:14.000Z</time>
        <extensions>
          <ns3:TrackPointExtension>
            <ns3:atemp>21.0</ns3:atemp>
          </ns3:TrackPointExtension>
        </extensions>
      </trkpt>
      <trkpt lat="42.51521288417279720306396484375" lon="19.768954999744892120361328125">
        <ele>1825.4000244140625</ele>
        <time>2026-06-18T11:16:15.000Z</time>
        <extensions>
          <ns3:TrackPointExtension>
            <ns3:atemp>21.0</ns3:atemp>
          </ns3:TrackPointExtension>
        </extensions>
      </trkpt>
      <trkpt lat="42.51522059552371501922607421875" lon="19.76892172358930110931396484375">
        <ele>1825.199951171875</ele>
        <time>2026-06-18T11:16:16.000Z</time>
        <extensions>
          <ns3:TrackPointExtension>
            <ns3:atemp>21.0</ns3:atemp>
          </ns3:TrackPointExtension>
        </extensions>
      </trkpt>
      <trkpt lat="42.515230067074298858642578125" lon="19.768877215683460235595703125">
        <ele>1825</ele>
        <time>2026-06-18T11:16:17.000Z</time>
        <extensions>
          <ns3:TrackPointExtension>
            <ns3:atemp>21.0</ns3:atemp>
          </ns3:TrackPointExtension>
        </extensions>
      </trkpt>
      <trkpt lat="42.5152352638542652130126953125" lon="19.768822900950908660888671875">
        <ele>1824.800048828125</ele>
        <time>2026-06-18T11:16:18.000Z</time>
        <extensions>
          <ns3:TrackPointExtension>
            <ns3:atemp>21.0</ns3:atemp>
          </ns3:TrackPointExtension>
        </extensions>
      </trkpt>
      <trkpt lat="42.51523903571069240570068359375" lon="19.7687707655131816864013671875">
        <ele>1824.4000244140625</ele>
        <time>2026-06-18T11:16:19.000Z</time>
        <extensions>
          <ns3:TrackPointExtension>
            <ns3:atemp>21.0</ns3:atemp>
          </ns3:TrackPointExtension>
        </extensions>
      </trkpt>
      <trkpt lat="42.51523685641586780548095703125" lon="19.768733046948909759521484375">
        <ele>1823.800048828125</ele>
        <time>2026-06-18T11:16:20.000Z</time>
        <extensions>
          <ns3:TrackPointExtension>
            <ns3:atemp>21.0</ns3:atemp>
          </ns3:TrackPointExtension>
        </extensions>
      </trkpt>
      <trkpt lat="42.51522880978882312774658203125" lon="19.768699519336223602294921875">
        <ele>1823.4000244140625</ele>
        <time>2026-06-18T11:16:21.000Z</time>
        <extensions>
          <ns3:TrackPointExtension>
            <ns3:atemp>21.0</ns3:atemp>
          </ns3:TrackPointExtension>
        </extensions>
      </trkpt>
      <trkpt lat="42.51521875150501728057861328125" lon="19.76867194287478923797607421875">
        <ele>1823</ele>
        <time>2026-06-18T11:16:22.000Z</time>
        <extensions>
          <ns3:TrackPointExtension>
            <ns3:atemp>21.0</ns3:atemp>
          </ns3:TrackPointExtension>
        </extensions>
      </trkpt>
      <trkpt lat="42.51520819030702114105224609375" lon="19.76864059455692768096923828125">
        <ele>1822.800048828125</ele>
        <time>2026-06-18T11:16:23.000Z</time>
        <extensions>
          <ns3:TrackPointExtension>
            <ns3:atemp>21.0</ns3:atemp>
          </ns3:TrackPointExtension>
        </extensions>
      </trkpt>
      <trkpt lat="42.51519628800451755523681640625" lon="19.76860488764941692352294921875">
        <ele>1822.4000244140625</ele>
        <time>2026-06-18T11:16:24.000Z</time>
        <extensions>
          <ns3:TrackPointExtension>
            <ns3:atemp>21.0</ns3:atemp>
          </ns3:TrackPointExtension>
        </extensions>
      </trkpt>
      <trkpt lat="42.515182793140411376953125" lon="19.76856348104774951934814453125">
        <ele>1822</ele>
        <time>2026-06-18T11:16:25.000Z</time>
        <extensions>
          <ns3:TrackPointExtension>
            <ns3:atemp>21.0</ns3:atemp>
          </ns3:TrackPointExtension>
        </extensions>
      </trkpt>
      <trkpt lat="42.515177763998508453369140625" lon="19.76851419545710086822509765625">
        <ele>1821.5999755859375</ele>
        <time>2026-06-18T11:16:26.000Z</time>
        <extensions>
          <ns3:TrackPointExtension>
            <ns3:atemp>21.0</ns3:atemp>
          </ns3:TrackPointExtension>
        </extensions>
      </trkpt>
      <trkpt lat="42.5151765905320644378662109375" lon="19.7684636525809764862060546875">
        <ele>1821.199951171875</ele>
        <time>2026-06-18T11:16:27.000Z</time>
        <extensions>
          <ns3:TrackPointExtension>
            <ns3:atemp>21.0</ns3:atemp>
          </ns3:TrackPointExtension>
        </extensions>
      </trkpt>
      <trkpt lat="42.5151816196739673614501953125" lon="19.7684210725128650665283203125">
        <ele>1820.5999755859375</ele>
        <time>2026-06-18T11:16:28.000Z</time>
        <extensions>
          <ns3:TrackPointExtension>
            <ns3:atemp>21.0</ns3:atemp>
          </ns3:TrackPointExtension>
        </extensions>
      </trkpt>
      <trkpt lat="42.51518539153039455413818359375" lon="19.7683784924447536468505859375">
        <ele>1820</ele>
        <time>2026-06-18T11:16:29.000Z</time>
        <extensions>
          <ns3:TrackPointExtension>
            <ns3:atemp>21.0</ns3:atemp>
          </ns3:TrackPointExtension>
        </extensions>
      </trkpt>
      <trkpt lat="42.51518555916845798492431640625" lon="19.76833247579634189605712890625">
        <ele>1819.199951171875</ele>
        <time>2026-06-18T11:16:30.000Z</time>
        <extensions>
          <ns3:TrackPointExtension>
            <ns3:atemp>21.0</ns3:atemp>
          </ns3:TrackPointExtension>
        </extensions>
      </trkpt>
      <trkpt lat="42.51518120057880878448486328125" lon="19.76828872226178646087646484375">
        <ele>1818.4000244140625</ele>
        <time>2026-06-18T11:16:31.000Z</time>
        <extensions>
          <ns3:TrackPointExtension>
            <ns3:atemp>21.0</ns3:atemp>
          </ns3:TrackPointExtension>
        </extensions>
      </trkpt>
      <trkpt lat="42.51517809927463531494140625" lon="19.7682567872107028961181640625">
        <ele>1817.800048828125</ele>
        <time>2026-06-18T11:16:32.000Z</time>
        <extensions>
          <ns3:TrackPointExtension>
            <ns3:atemp>21.0</ns3:atemp>
          </ns3:TrackPointExtension>
        </extensions>
      </trkpt>
      <trkpt lat="42.515178434550762176513671875" lon="19.76822569034993648529052734375">
        <ele>1817.4000244140625</ele>
        <time>2026-06-18T11:16:33.000Z</time>
        <extensions>
          <ns3:TrackPointExtension>
            <ns3:atemp>21.0</ns3:atemp>
          </ns3:TrackPointExtension>
        </extensions>
      </trkpt>
      <trkpt lat="42.51519159413874149322509765625" lon="19.7681924141943454742431640625">
        <ele>1817</ele>
        <time>2026-06-18T11:16:34.000Z</time>
        <extensions>
          <ns3:TrackPointExtension>
            <ns3:atemp>21.0</ns3:atemp>
          </ns3:TrackPointExtension>
        </extensions>
      </trkpt>
      <trkpt lat="42.51521556638181209564208984375" lon="19.7681595571339130401611328125">
        <ele>1816.5999755859375</ele>
        <time>2026-06-18T11:16:35.000Z</time>
        <extensions>
          <ns3:TrackPointExtension>
            <ns3:atemp>21.0</ns3:atemp>
          </ns3:TrackPointExtension>
        </extensions>
      </trkpt>
      <trkpt lat="42.51524657942354679107666015625" lon="19.76813382469117641448974609375">
        <ele>1816</ele>
        <time>2026-06-18T11:16:36.000Z</time>
        <extensions>
          <ns3:TrackPointExtension>
            <ns3:atemp>21.0</ns3:atemp>
          </ns3:TrackPointExtension>
        </extensions>
      </trkpt>
      <trkpt lat="42.51528262160718441009521484375" lon="19.7681032307446002960205078125">
        <ele>1815.4000244140625</ele>
        <time>2026-06-18T11:16:37.000Z</time>
        <extensions>
          <ns3:TrackPointExtension>
            <ns3:atemp>21.0</ns3:atemp>
          </ns3:TrackPointExtension>
        </extensions>
      </trkpt>
      <trkpt lat="42.5153177417814731597900390625" lon="19.768071882426738739013671875">
        <ele>1814.800048828125</ele>
        <time>2026-06-18T11:16:38.000Z</time>
        <extensions>
          <ns3:TrackPointExtension>
            <ns3:atemp>21.0</ns3:atemp>
          </ns3:TrackPointExtension>
        </extensions>
      </trkpt>
      <trkpt lat="42.5153448991477489471435546875" lon="19.76802653633058071136474609375">
        <ele>1813.800048828125</ele>
        <time>2026-06-18T11:16:39.000Z</time>
        <extensions>
          <ns3:TrackPointExtension>
            <ns3:atemp>21.0</ns3:atemp>
          </ns3:TrackPointExtension>
        </extensions>
      </trkpt>
      <trkpt lat="42.5153770856559276580810546875" lon="19.7679798491299152374267578125">
        <ele>1813</ele>
        <time>2026-06-18T11:16:40.000Z</time>
        <extensions>
          <ns3:TrackPointExtension>
            <ns3:atemp>21.0</ns3:atemp>
          </ns3:TrackPointExtension>
        </extensions>
      </trkpt>
      <trkpt lat="42.515409104526042938232421875" lon="19.76793047972023487091064453125">
        <ele>1812</ele>
        <time>2026-06-18T11:16:41.000Z</time>
        <extensions>
          <ns3:TrackPointExtension>
            <ns3:atemp>21.0</ns3:atemp>
          </ns3:TrackPointExtension>
        </extensions>
      </trkpt>
      <trkpt lat="42.51544363796710968017578125" lon="19.76789024658501148223876953125">
        <ele>1811</ele>
        <time>2026-06-18T11:16:42.000Z</time>
        <extensions>
          <ns3:TrackPointExtension>
            <ns3:atemp>21.0</ns3:atemp>
          </ns3:TrackPointExtension>
        </extensions>
      </trkpt>
      <trkpt lat="42.51547724939882755279541015625" lon="19.767856635153293609619140625">
        <ele>1810.199951171875</ele>
        <time>2026-06-18T11:16:43.000Z</time>
        <extensions>
          <ns3:TrackPointExtension>
            <ns3:atemp>21.0</ns3:atemp>
          </ns3:TrackPointExtension>
        </extensions>
      </trkpt>
      <trkpt lat="42.51549996435642242431640625" lon="19.76781095378100872039794921875">
        <ele>1809.4000244140625</ele>
        <time>2026-06-18T11:16:44.000Z</time>
        <extensions>
          <ns3:TrackPointExtension>
            <ns3:atemp>21.0</ns3:atemp>
          </ns3:TrackPointExtension>
        </extensions>
      </trkpt>
      <trkpt lat="42.51552410423755645751953125" lon="19.7677718102931976318359375">
        <ele>1809</ele>
        <time>2026-06-18T11:16:45.000Z</time>
        <extensions>
          <ns3:TrackPointExtension>
            <ns3:atemp>21.0</ns3:atemp>
          </ns3:TrackPointExtension>
        </extensions>
      </trkpt>
      <trkpt lat="42.515551932156085968017578125" lon="19.76773870177567005157470703125">
        <ele>1808.5999755859375</ele>
        <time>2026-06-18T11:16:46.000Z</time>
        <extensions>
          <ns3:TrackPointExtension>
            <ns3:atemp>21.0</ns3:atemp>
          </ns3:TrackPointExtension>
        </extensions>
      </trkpt>
      <trkpt lat="42.5155799277126789093017578125" lon="19.767691679298877716064453125">
        <ele>1808.199951171875</ele>
        <time>2026-06-18T11:16:47.000Z</time>
        <extensions>
          <ns3:TrackPointExtension>
            <ns3:atemp>21.0</ns3:atemp>
          </ns3:TrackPointExtension>
        </extensions>
      </trkpt>
      <trkpt lat="42.51561664044857025146484375" lon="19.76764583028852939605712890625">
        <ele>1807.5999755859375</ele>
        <time>2026-06-18T11:16:48.000Z</time>
        <extensions>
          <ns3:TrackPointExtension>
            <ns3:atemp>21.0</ns3:atemp>
          </ns3:TrackPointExtension>
        </extensions>
      </trkpt>
      <trkpt lat="42.51565997488796710968017578125" lon="19.7676063515245914459228515625">
        <ele>1807.199951171875</ele>
        <time>2026-06-18T11:16:49.000Z</time>
        <extensions>
          <ns3:TrackPointExtension>
            <ns3:atemp>21.0</ns3:atemp>
          </ns3:TrackPointExtension>
        </extensions>
      </trkpt>
      <trkpt lat="42.51570381224155426025390625" lon="19.76757056079804897308349609375">
        <ele>1806.5999755859375</ele>
        <time>2026-06-18T11:16:50.000Z</time>
        <extensions>
          <ns3:TrackPointExtension>
            <ns3:atemp>21.0</ns3:atemp>
          </ns3:TrackPointExtension>
        </extensions>
      </trkpt>
      <trkpt lat="42.51574580557644367218017578125" lon="19.76754591800272464752197265625">
        <ele>1806.199951171875</ele>
        <time>2026-06-18T11:16:51.000Z</time>
        <extensions>
          <ns3:TrackPointExtension>
            <ns3:atemp>21.0</ns3:atemp>
          </ns3:TrackPointExtension>
        </extensions>
      </trkpt>
      <trkpt lat="42.5157800875604152679443359375" lon="19.76752311922609806060791015625">
        <ele>1805.800048828125</ele>
        <time>2026-06-18T11:16:52.000Z</time>
        <extensions>
          <ns3:TrackPointExtension>
            <ns3:atemp>21.0</ns3:atemp>
          </ns3:TrackPointExtension>
        </extensions>
      </trkpt>
      <trkpt lat="42.5158116035163402557373046875" lon="19.76750585250556468963623046875">
        <ele>1805.5999755859375</ele>
        <time>2026-06-18T11:16:53.000Z</time>
        <extensions>
          <ns3:TrackPointExtension>
            <ns3:atemp>21.0</ns3:atemp>
          </ns3:TrackPointExtension>
        </extensions>
      </trkpt>
      <trkpt lat="42.515844292938709259033203125" lon="19.7674967162311077117919921875">
        <ele>1805.5999755859375</ele>
        <time>2026-06-18T11:16:54.000Z</time>
        <extensions>
          <ns3:TrackPointExtension>
            <ns3:atemp>21.0</ns3:atemp>
          </ns3:TrackPointExtension>
        </extensions>
      </trkpt>
      <trkpt lat="42.51587547361850738525390625" lon="19.7674849815666675567626953125">
        <ele>1805.800048828125</ele>
        <time>2026-06-18T11:16:55.000Z</time>
        <extensions>
          <ns3:TrackPointExtension>
            <ns3:atemp>21.0</ns3:atemp>
          </ns3:TrackPointExtension>
        </extensions>
      </trkpt>
      <trkpt lat="42.51590254716575145721435546875" lon="19.76746712811291217803955078125">
        <ele>1805.800048828125</ele>
        <time>2026-06-18T11:16:56.000Z</time>
        <extensions>
          <ns3:TrackPointExtension>
            <ns3:atemp>21.0</ns3:atemp>
          </ns3:TrackPointExtension>
        </extensions>
      </trkpt>
      <trkpt lat="42.51592576503753662109375" lon="19.76744784973561763763427734375">
        <ele>1805.800048828125</ele>
        <time>2026-06-18T11:16:57.000Z</time>
        <extensions>
          <ns3:TrackPointExtension>
            <ns3:atemp>21.0</ns3:atemp>
          </ns3:TrackPointExtension>
        </extensions>
      </trkpt>
      <trkpt lat="42.5159363262355327606201171875" lon="19.767420776188373565673828125">
        <ele>1805.800048828125</ele>
        <time>2026-06-18T11:16:58.000Z</time>
        <extensions>
          <ns3:TrackPointExtension>
            <ns3:atemp>21.0</ns3:atemp>
          </ns3:TrackPointExtension>
        </extensions>
      </trkpt>
      <trkpt lat="42.51593288965523242950439453125" lon="19.7674190998077392578125">
        <ele>1805.800048828125</ele>
        <time>2026-06-18T11:16:59.000Z</time>
        <extensions>
          <ns3:TrackPointExtension>
            <ns3:atemp>21.0</ns3:atemp>
          </ns3:TrackPointExtension>
        </extensions>
      </trkpt>
      <trkpt lat="42.51593288965523242950439453125" lon="19.76741918362677097320556640625">
        <ele>1805.5999755859375</ele>
        <time>2026-06-18T11:17:00.000Z</time>
        <extensions>
          <ns3:TrackPointExtension>
            <ns3:atemp>21.0</ns3:atemp>
          </ns3:TrackPointExtension>
        </extensions>
      </trkpt>
      <trkpt lat="42.51593288965523242950439453125" lon="19.76741918362677097320556640625">
        <ele>1805.4000244140625</ele>
        <time>2026-06-18T11:17:01.000Z</time>
        <extensions>
          <ns3:TrackPointExtension>
            <ns3:atemp>21.0</ns3:atemp>
          </ns3:TrackPointExtension>
        </extensions>
      </trkpt>
      <trkpt lat="42.51593288965523242950439453125" lon="19.76741918362677097320556640625">
        <ele>1805.199951171875</ele>
        <time>2026-06-18T11:17:02.000Z</time>
        <extensions>
          <ns3:TrackPointExtension>
            <ns3:atemp>21.0</ns3:atemp>
          </ns3:TrackPointExtension>
        </extensions>
      </trkpt>
      <trkpt lat="42.51593288965523242950439453125" lon="19.76741918362677097320556640625">
        <ele>1805</ele>
        <time>2026-06-18T11:17:03.000Z</time>
        <extensions>
          <ns3:TrackPointExtension>
            <ns3:atemp>21.0</ns3:atemp>
          </ns3:TrackPointExtension>
        </extensions>
      </trkpt>
      <trkpt lat="42.51593288965523242950439453125" lon="19.76741918362677097320556640625">
        <ele>1804.800048828125</ele>
        <time>2026-06-18T11:17:04.000Z</time>
        <extensions>
          <ns3:TrackPointExtension>
            <ns3:atemp>21.0</ns3:atemp>
          </ns3:TrackPointExtension>
        </extensions>
      </trkpt>
      <trkpt lat="42.51593288965523242950439453125" lon="19.76741918362677097320556640625">
        <ele>1804.5999755859375</ele>
        <time>2026-06-18T11:17:05.000Z</time>
        <extensions>
          <ns3:TrackPointExtension>
            <ns3:atemp>21.0</ns3:atemp>
          </ns3:TrackPointExtension>
        </extensions>
      </trkpt>
      <trkpt lat="42.51593288965523242950439453125" lon="19.76741918362677097320556640625">
        <ele>1804.4000244140625</ele>
        <time>2026-06-18T11:17:06.000Z</time>
        <extensions>
          <ns3:TrackPointExtension>
            <ns3:atemp>21.0</ns3:atemp>
          </ns3:TrackPointExtension>
        </extensions>
      </trkpt>
      <trkpt lat="42.51593288965523242950439453125" lon="19.76741918362677097320556640625">
        <ele>1804.4000244140625</ele>
        <time>2026-06-18T11:17:07.000Z</time>
        <extensions>
          <ns3:TrackPointExtension>
            <ns3:atemp>21.0</ns3:atemp>
          </ns3:TrackPointExtension>
        </extensions>
      </trkpt>
      <trkpt lat="42.51593288965523242950439453125" lon="19.76741918362677097320556640625">
        <ele>1804.4000244140625</ele>
        <time>2026-06-18T11:17:08.000Z</time>
        <extensions>
          <ns3:TrackPointExtension>
            <ns3:atemp>21.0</ns3:atemp>
          </ns3:TrackPointExtension>
        </extensions>
      </trkpt>
      <trkpt lat="42.51593288965523242950439453125" lon="19.76741918362677097320556640625">
        <ele>1804.199951171875</ele>
        <time>2026-06-18T11:17:09.000Z</time>
        <extensions>
          <ns3:TrackPointExtension>
            <ns3:atemp>21.0</ns3:atemp>
          </ns3:TrackPointExtension>
        </extensions>
      </trkpt>
      <trkpt lat="42.51593288965523242950439453125" lon="19.76741918362677097320556640625">
        <ele>1804.199951171875</ele>
        <time>2026-06-18T11:17:10.000Z</time>
        <extensions>
          <ns3:TrackPointExtension>
            <ns3:atemp>21.0</ns3:atemp>
          </ns3:TrackPointExtension>
        </extensions>
      </trkpt>
      <trkpt lat="42.51593288965523242950439453125" lon="19.76741918362677097320556640625">
        <ele>1804</ele>
        <time>2026-06-18T11:17:11.000Z</time>
        <extensions>
          <ns3:TrackPointExtension>
            <ns3:atemp>21.0</ns3:atemp>
          </ns3:TrackPointExtension>
        </extensions>
      </trkpt>
      <trkpt lat="42.51593288965523242950439453125" lon="19.76741918362677097320556640625">
        <ele>1804</ele>
        <time>2026-06-18T11:17:12.000Z</time>
        <extensions>
          <ns3:TrackPointExtension>
            <ns3:atemp>21.0</ns3:atemp>
          </ns3:TrackPointExtension>
        </extensions>
      </trkpt>
      <trkpt lat="42.51593288965523242950439453125" lon="19.76741918362677097320556640625">
        <ele>1803.800048828125</ele>
        <time>2026-06-18T11:17:13.000Z</time>
        <extensions>
          <ns3:TrackPointExtension>
            <ns3:atemp>21.0</ns3:atemp>
          </ns3:TrackPointExtension>
        </extensions>
      </trkpt>
      <trkpt lat="42.51593288965523242950439453125" lon="19.76741918362677097320556640625">
        <ele>1803.800048828125</ele>
        <time>2026-06-18T11:17:14.000Z</time>
        <extensions>
          <ns3:TrackPointExtension>
            <ns3:atemp>21.0</ns3:atemp>
          </ns3:TrackPointExtension>
        </extensions>
      </trkpt>
      <trkpt lat="42.51593288965523242950439453125" lon="19.76741918362677097320556640625">
        <ele>1803.800048828125</ele>
        <time>2026-06-18T11:17:15.000Z</time>
        <extensions>
          <ns3:TrackPointExtension>
            <ns3:atemp>21.0</ns3:atemp>
          </ns3:TrackPointExtension>
        </extensions>
      </trkpt>
      <trkpt lat="42.51593288965523242950439453125" lon="19.76741918362677097320556640625">
        <ele>1803.800048828125</ele>
        <time>2026-06-18T11:17:16.000Z</time>
        <extensions>
          <ns3:TrackPointExtension>
            <ns3:atemp>21.0</ns3:atemp>
          </ns3:TrackPointExtension>
        </extensions>
      </trkpt>
      <trkpt lat="42.51593288965523242950439453125" lon="19.76741918362677097320556640625">
        <ele>1803.800048828125</ele>
        <time>2026-06-18T11:17:17.000Z</time>
        <extensions>
          <ns3:TrackPointExtension>
            <ns3:atemp>21.0</ns3:atemp>
          </ns3:TrackPointExtension>
        </extensions>
      </trkpt>
      <trkpt lat="42.51593288965523242950439453125" lon="19.76741918362677097320556640625">
        <ele>1803.800048828125</ele>
        <time>2026-06-18T11:17:18.000Z</time>
        <extensions>
          <ns3:TrackPointExtension>
            <ns3:atemp>21.0</ns3:atemp>
          </ns3:TrackPointExtension>
        </extensions>
      </trkpt>
      <trkpt lat="42.51593288965523242950439453125" lon="19.76741918362677097320556640625">
        <ele>1803.800048828125</ele>
        <time>2026-06-18T11:17:19.000Z</time>
        <extensions>
          <ns3:TrackPointExtension>
            <ns3:atemp>21.0</ns3:atemp>
          </ns3:TrackPointExtension>
        </extensions>
      </trkpt>
      <trkpt lat="42.5159297883510589599609375" lon="19.76741951890289783477783203125">
        <ele>1803.800048828125</ele>
        <time>2026-06-18T11:17:20.000Z</time>
        <extensions>
          <ns3:TrackPointExtension>
            <ns3:atemp>21.0</ns3:atemp>
          </ns3:TrackPointExtension>
        </extensions>
      </trkpt>
      <trkpt lat="42.515926770865917205810546875" lon="19.76741977035999298095703125">
        <ele>1803.5999755859375</ele>
        <time>2026-06-18T11:17:21.000Z</time>
        <extensions>
          <ns3:TrackPointExtension>
            <ns3:atemp>21.0</ns3:atemp>
          </ns3:TrackPointExtension>
        </extensions>
      </trkpt>
      <trkpt lat="42.51594194211065769195556640625" lon="19.76741415448486804962158203125">
        <ele>1803.5999755859375</ele>
        <time>2026-06-18T11:17:22.000Z</time>
        <extensions>
          <ns3:TrackPointExtension>
            <ns3:atemp>21.0</ns3:atemp>
          </ns3:TrackPointExtension>
        </extensions>
      </trkpt>
      <trkpt lat="42.515964992344379425048828125" lon="19.76740124635398387908935546875">
        <ele>1803.5999755859375</ele>
        <time>2026-06-18T11:17:23.000Z</time>
        <extensions>
          <ns3:TrackPointExtension>
            <ns3:atemp>21.0</ns3:atemp>
          </ns3:TrackPointExtension>
        </extensions>
      </trkpt>
      <trkpt lat="42.51600111834704875946044921875" lon="19.76737995631992816925048828125">
        <ele>1803.5999755859375</ele>
        <time>2026-06-18T11:17:24.000Z</time>
        <extensions>
          <ns3:TrackPointExtension>
            <ns3:atemp>21.0</ns3:atemp>
          </ns3:TrackPointExtension>
        </extensions>
      </trkpt>
      <trkpt lat="42.51604420132935047149658203125" lon="19.7673498652875423431396484375">
        <ele>1803.4000244140625</ele>
        <time>2026-06-18T11:17:25.000Z</time>
        <extensions>
          <ns3:TrackPointExtension>
            <ns3:atemp>21.0</ns3:atemp>
          </ns3:TrackPointExtension>
        </extensions>
      </trkpt>
      <trkpt lat="42.51608376391232013702392578125" lon="19.76730577647686004638671875">
        <ele>1803.199951171875</ele>
        <time>2026-06-18T11:17:26.000Z</time>
        <extensions>
          <ns3:TrackPointExtension>
            <ns3:atemp>21.0</ns3:atemp>
          </ns3:TrackPointExtension>
        </extensions>
      </trkpt>
      <trkpt lat="42.5160989351570606231689453125" lon="19.76725121028721332550048828125">
        <ele>1803</ele>
        <time>2026-06-18T11:17:27.000Z</time>
        <extensions>
          <ns3:TrackPointExtension>
            <ns3:atemp>21.0</ns3:atemp>
          </ns3:TrackPointExtension>
        </extensions>
      </trkpt>
      <trkpt lat="42.5161148607730865478515625" lon="19.76718717254698276519775390625">
        <ele>1802.800048828125</ele>
        <time>2026-06-18T11:17:28.000Z</time>
        <extensions>
          <ns3:TrackPointExtension>
            <ns3:atemp>21.0</ns3:atemp>
          </ns3:TrackPointExtension>
        </extensions>
      </trkpt>
      <trkpt lat="42.5161224044859409332275390625" lon="19.76710737682878971099853515625">
        <ele>1802.4000244140625</ele>
        <time>2026-06-18T11:17:29.000Z</time>
        <extensions>
          <ns3:TrackPointExtension>
            <ns3:atemp>21.0</ns3:atemp>
          </ns3:TrackPointExtension>
        </extensions>
      </trkpt>
      <trkpt lat="42.5161267630755901336669921875" lon="19.7670182771980762481689453125">
        <ele>1801.800048828125</ele>
        <time>2026-06-18T11:17:30.000Z</time>
        <extensions>
          <ns3:TrackPointExtension>
            <ns3:atemp>21.0</ns3:atemp>
          </ns3:TrackPointExtension>
        </extensions>
      </trkpt>
      <trkpt lat="42.51612399704754352569580078125" lon="19.766927920281887054443359375">
        <ele>1801</ele>
        <time>2026-06-18T11:17:31.000Z</time>
        <extensions>
          <ns3:TrackPointExtension>
            <ns3:atemp>21.0</ns3:atemp>
          </ns3:TrackPointExtension>
        </extensions>
      </trkpt>
      <trkpt lat="42.51611511223018169403076171875" lon="19.766858853399753570556640625">
        <ele>1800.4000244140625</ele>
        <time>2026-06-18T11:17:32.000Z</time>
        <extensions>
          <ns3:TrackPointExtension>
            <ns3:atemp>21.0</ns3:atemp>
          </ns3:TrackPointExtension>
        </extensions>
      </trkpt>
      <trkpt lat="42.51609801314771175384521484375" lon="19.76679808460175991058349609375">
        <ele>1799.4000244140625</ele>
        <time>2026-06-18T11:17:33.000Z</time>
        <extensions>
          <ns3:TrackPointExtension>
            <ns3:atemp>21.0</ns3:atemp>
          </ns3:TrackPointExtension>
        </extensions>
      </trkpt>
      <trkpt lat="42.51607529819011688232421875" lon="19.76674863137304782867431640625">
        <ele>1799</ele>
        <time>2026-06-18T11:17:34.000Z</time>
        <extensions>
          <ns3:TrackPointExtension>
            <ns3:atemp>21.0</ns3:atemp>
          </ns3:TrackPointExtension>
        </extensions>
      </trkpt>
      <trkpt lat="42.51606498844921588897705078125" lon="19.76670504547655582427978515625">
        <ele>1798.4000244140625</ele>
        <time>2026-06-18T11:17:35.000Z</time>
        <extensions>
          <ns3:TrackPointExtension>
            <ns3:atemp>21.0</ns3:atemp>
          </ns3:TrackPointExtension>
        </extensions>
      </trkpt>
      <trkpt lat="42.51605090685188770294189453125" lon="19.766650982201099395751953125">
        <ele>1797.800048828125</ele>
        <time>2026-06-18T11:17:36.000Z</time>
        <extensions>
          <ns3:TrackPointExtension>
            <ns3:atemp>21.0</ns3:atemp>
          </ns3:TrackPointExtension>
        </extensions>
      </trkpt>
      <trkpt lat="42.51602358184754848480224609375" lon="19.76659038104116916656494140625">
        <ele>1796.5999755859375</ele>
        <time>2026-06-18T11:17:37.000Z</time>
        <extensions>
          <ns3:TrackPointExtension>
            <ns3:atemp>21.0</ns3:atemp>
          </ns3:TrackPointExtension>
        </extensions>
      </trkpt>
      <trkpt lat="42.515995837748050689697265625" lon="19.76652852259576320648193359375">
        <ele>1795.5999755859375</ele>
        <time>2026-06-18T11:17:38.000Z</time>
        <extensions>
          <ns3:TrackPointExtension>
            <ns3:atemp>21.0</ns3:atemp>
          </ns3:TrackPointExtension>
        </extensions>
      </trkpt>
      <trkpt lat="42.5159722007811069488525390625" lon="19.76646599359810352325439453125">
        <ele>1795</ele>
        <time>2026-06-18T11:17:39.000Z</time>
        <extensions>
          <ns3:TrackPointExtension>
            <ns3:atemp>21.0</ns3:atemp>
          </ns3:TrackPointExtension>
        </extensions>
      </trkpt>
      <trkpt lat="42.51595434732735157012939453125" lon="19.76640631444752216339111328125">
        <ele>1794</ele>
        <time>2026-06-18T11:17:40.000Z</time>
        <extensions>
          <ns3:TrackPointExtension>
            <ns3:atemp>21.0</ns3:atemp>
          </ns3:TrackPointExtension>
        </extensions>
      </trkpt>
      <trkpt lat="42.51593649387359619140625" lon="19.7663547657430171966552734375">
        <ele>1793.4000244140625</ele>
        <time>2026-06-18T11:17:41.000Z</time>
        <extensions>
          <ns3:TrackPointExtension>
            <ns3:atemp>21.0</ns3:atemp>
          </ns3:TrackPointExtension>
        </extensions>
      </trkpt>
      <trkpt lat="42.515936829149723052978515625" lon="19.76631428115069866180419921875">
        <ele>1792.800048828125</ele>
        <time>2026-06-18T11:17:42.000Z</time>
        <extensions>
          <ns3:TrackPointExtension>
            <ns3:atemp>21.0</ns3:atemp>
          </ns3:TrackPointExtension>
        </extensions>
      </trkpt>
      <trkpt lat="42.5159507431089878082275390625" lon="19.7662763111293315887451171875">
        <ele>1792.199951171875</ele>
        <time>2026-06-18T11:17:43.000Z</time>
        <extensions>
          <ns3:TrackPointExtension>
            <ns3:atemp>21.0</ns3:atemp>
          </ns3:TrackPointExtension>
        </extensions>
      </trkpt>
      <trkpt lat="42.51596800982952117919921875" lon="19.76625703275203704833984375">
        <ele>1791.800048828125</ele>
        <time>2026-06-18T11:17:44.000Z</time>
        <extensions>
          <ns3:TrackPointExtension>
            <ns3:atemp>21.0</ns3:atemp>
          </ns3:TrackPointExtension>
        </extensions>
      </trkpt>
      <trkpt lat="42.515986450016498565673828125" lon="19.76625393144786357879638671875">
        <ele>1791.4000244140625</ele>
        <time>2026-06-18T11:17:45.000Z</time>
        <extensions>
          <ns3:TrackPointExtension>
            <ns3:atemp>21.0</ns3:atemp>
          </ns3:TrackPointExtension>
        </extensions>
      </trkpt>
      <trkpt lat="42.5160062313079833984375" lon="19.76624362170696258544921875">
        <ele>1791.199951171875</ele>
        <time>2026-06-18T11:17:46.000Z</time>
        <extensions>
          <ns3:TrackPointExtension>
            <ns3:atemp>21.0</ns3:atemp>
          </ns3:TrackPointExtension>
        </extensions>
      </trkpt>
      <trkpt lat="42.51601696014404296875" lon="19.7662283666431903839111328125">
        <ele>1790.800048828125</ele>
        <time>2026-06-18T11:17:47.000Z</time>
        <extensions>
          <ns3:TrackPointExtension>
            <ns3:atemp>21.0</ns3:atemp>
          </ns3:TrackPointExtension>
        </extensions>
      </trkpt>
      <trkpt lat="42.51603162847459316253662109375" lon="19.7662112675607204437255859375">
        <ele>1790.4000244140625</ele>
        <time>2026-06-18T11:17:48.000Z</time>
        <extensions>
          <ns3:TrackPointExtension>
            <ns3:atemp>21.0</ns3:atemp>
          </ns3:TrackPointExtension>
        </extensions>
      </trkpt>
      <trkpt lat="42.51604436896741390228271484375" lon="19.76619676686823368072509765625">
        <ele>1790</ele>
        <time>2026-06-18T11:17:49.000Z</time>
        <extensions>
          <ns3:TrackPointExtension>
            <ns3:atemp>21.0</ns3:atemp>
          </ns3:TrackPointExtension>
        </extensions>
      </trkpt>
      <trkpt lat="42.5160566903650760650634765625" lon="19.7661797516047954559326171875">
        <ele>1789.5999755859375</ele>
        <time>2026-06-18T11:17:50.000Z</time>
        <extensions>
          <ns3:TrackPointExtension>
            <ns3:atemp>21.0</ns3:atemp>
          </ns3:TrackPointExtension>
        </extensions>
      </trkpt>
      <trkpt lat="42.51606850884854793548583984375" lon="19.766159467399120330810546875">
        <ele>1789.4000244140625</ele>
        <time>2026-06-18T11:17:51.000Z</time>
        <extensions>
          <ns3:TrackPointExtension>
            <ns3:atemp>21.0</ns3:atemp>
          </ns3:TrackPointExtension>
        </extensions>
      </trkpt>
      <trkpt lat="42.5160794891417026519775390625" lon="19.76613365113735198974609375">
        <ele>1789</ele>
        <time>2026-06-18T11:17:52.000Z</time>
        <extensions>
          <ns3:TrackPointExtension>
            <ns3:atemp>21.0</ns3:atemp>
          </ns3:TrackPointExtension>
        </extensions>
      </trkpt>
      <trkpt lat="42.5160861946642398834228515625" lon="19.7661120258271694183349609375">
        <ele>1788.4000244140625</ele>
        <time>2026-06-18T11:17:53.000Z</time>
        <extensions>
          <ns3:TrackPointExtension>
            <ns3:atemp>21.0</ns3:atemp>
          </ns3:TrackPointExtension>
        </extensions>
      </trkpt>
      <trkpt lat="42.516097091138362884521484375" lon="19.76608964614570140838623046875">
        <ele>1788</ele>
        <time>2026-06-18T11:17:54.000Z</time>
        <extensions>
          <ns3:TrackPointExtension>
            <ns3:atemp>21.0</ns3:atemp>
          </ns3:TrackPointExtension>
        </extensions>
      </trkpt>
      <trkpt lat="42.5161123462021350860595703125" lon="19.76606500335037708282470703125">
        <ele>1787.5999755859375</ele>
        <time>2026-06-18T11:17:55.000Z</time>
        <extensions>
          <ns3:TrackPointExtension>
            <ns3:atemp>21.0</ns3:atemp>
          </ns3:TrackPointExtension>
        </extensions>
      </trkpt>
      <trkpt lat="42.51613740809261798858642578125" lon="19.76604103110730648040771484375">
        <ele>1787</ele>
        <time>2026-06-18T11:17:56.000Z</time>
        <extensions>
          <ns3:TrackPointExtension>
            <ns3:atemp>21.0</ns3:atemp>
          </ns3:TrackPointExtension>
        </extensions>
      </trkpt>
      <trkpt lat="42.5161653198301792144775390625" lon="19.76604354567825794219970703125">
        <ele>1786.4000244140625</ele>
        <time>2026-06-18T11:17:57.000Z</time>
        <extensions>
          <ns3:TrackPointExtension>
            <ns3:atemp>21.0</ns3:atemp>
          </ns3:TrackPointExtension>
        </extensions>
      </trkpt>
      <trkpt lat="42.51619105227291584014892578125" lon="19.76606533862650394439697265625">
        <ele>1785.800048828125</ele>
        <time>2026-06-18T11:17:58.000Z</time>
        <extensions>
          <ns3:TrackPointExtension>
            <ns3:atemp>21.0</ns3:atemp>
          </ns3:TrackPointExtension>
        </extensions>
      </trkpt>
      <trkpt lat="42.516221143305301666259765625" lon="19.76609207689762115478515625">
        <ele>1785.199951171875</ele>
        <time>2026-06-18T11:17:59.000Z</time>
        <extensions>
          <ns3:TrackPointExtension>
            <ns3:atemp>21.0</ns3:atemp>
          </ns3:TrackPointExtension>
        </extensions>
      </trkpt>
      <trkpt lat="42.51624603755772113800048828125" lon="19.76614379324018955230712890625">
        <ele>1784.4000244140625</ele>
        <time>2026-06-18T11:18:00.000Z</time>
        <extensions>
          <ns3:TrackPointExtension>
            <ns3:atemp>21.0</ns3:atemp>
          </ns3:TrackPointExtension>
        </extensions>
      </trkpt>
      <trkpt lat="42.51626213081181049346923828125" lon="19.76620741188526153564453125">
        <ele>1783.800048828125</ele>
        <time>2026-06-18T11:18:01.000Z</time>
        <extensions>
          <ns3:TrackPointExtension>
            <ns3:atemp>21.0</ns3:atemp>
          </ns3:TrackPointExtension>
        </extensions>
      </trkpt>
      <trkpt lat="42.5162682496011257171630859375" lon="19.7662696056067943572998046875">
        <ele>1783</ele>
        <time>2026-06-18T11:18:02.000Z</time>
        <extensions>
          <ns3:TrackPointExtension>
            <ns3:atemp>21.0</ns3:atemp>
          </ns3:TrackPointExtension>
        </extensions>
      </trkpt>
      <trkpt lat="42.5162944011390209197998046875" lon="19.76629299111664295196533203125">
        <ele>1782.199951171875</ele>
        <time>2026-06-18T11:18:03.000Z</time>
        <extensions>
          <ns3:TrackPointExtension>
            <ns3:atemp>21.0</ns3:atemp>
          </ns3:TrackPointExtension>
        </extensions>
      </trkpt>
      <trkpt lat="42.5163259170949459075927734375" lon="19.76630439050495624542236328125">
        <ele>1781.4000244140625</ele>
        <time>2026-06-18T11:18:04.000Z</time>
        <extensions>
          <ns3:TrackPointExtension>
            <ns3:atemp>21.0</ns3:atemp>
          </ns3:TrackPointExtension>
        </extensions>
      </trkpt>
      <trkpt lat="42.5163587741553783416748046875" lon="19.76630237884819507598876953125">
        <ele>1781</ele>
        <time>2026-06-18T11:18:05.000Z</time>
        <extensions>
          <ns3:TrackPointExtension>
            <ns3:atemp>21.0</ns3:atemp>
          </ns3:TrackPointExtension>
        </extensions>
      </trkpt>
      <trkpt lat="42.5163938105106353759765625" lon="19.766294248402118682861328125">
        <ele>1780.5999755859375</ele>
        <time>2026-06-18T11:18:06.000Z</time>
        <extensions>
          <ns3:TrackPointExtension>
            <ns3:atemp>21.0</ns3:atemp>
          </ns3:TrackPointExtension>
        </extensions>
      </trkpt>
      <trkpt lat="42.516437731683254241943359375" lon="19.766289889812469482421875">
        <ele>1780</ele>
        <time>2026-06-18T11:18:07.000Z</time>
        <extensions>
          <ns3:TrackPointExtension>
            <ns3:atemp>21.0</ns3:atemp>
          </ns3:TrackPointExtension>
        </extensions>
      </trkpt>
      <trkpt lat="42.51648793928325176239013671875" lon="19.76630019955337047576904296875">
        <ele>1779.4000244140625</ele>
        <time>2026-06-18T11:18:08.000Z</time>
        <extensions>
          <ns3:TrackPointExtension>
            <ns3:atemp>21.0</ns3:atemp>
          </ns3:TrackPointExtension>
        </extensions>
      </trkpt>
      <trkpt lat="42.5165391527116298675537109375" lon="19.7663128562271595001220703125">
        <ele>1778</ele>
        <time>2026-06-18T11:18:09.000Z</time>
        <extensions>
          <ns3:TrackPointExtension>
            <ns3:atemp>21.0</ns3:atemp>
          </ns3:TrackPointExtension>
        </extensions>
      </trkpt>
      <trkpt lat="42.51658760011196136474609375" lon="19.7663269378244876861572265625">
        <ele>1776.4000244140625</ele>
        <time>2026-06-18T11:18:10.000Z</time>
        <extensions>
          <ns3:TrackPointExtension>
            <ns3:atemp>21.0</ns3:atemp>
          </ns3:TrackPointExtension>
        </extensions>
      </trkpt>
      <trkpt lat="42.51663126982748508453369140625" lon="19.7663393430411815643310546875">
        <ele>1775.5999755859375</ele>
        <time>2026-06-18T11:18:11.000Z</time>
        <extensions>
          <ns3:TrackPointExtension>
            <ns3:atemp>21.0</ns3:atemp>
          </ns3:TrackPointExtension>
        </extensions>
      </trkpt>
      <trkpt lat="42.5166591815650463104248046875" lon="19.7663421928882598876953125">
        <ele>1774.5999755859375</ele>
        <time>2026-06-18T11:18:12.000Z</time>
        <extensions>
          <ns3:TrackPointExtension>
            <ns3:atemp>21.0</ns3:atemp>
          </ns3:TrackPointExtension>
        </extensions>
      </trkpt>
      <trkpt lat="42.516678459942340850830078125" lon="19.76634847931563854217529296875">
        <ele>1774</ele>
        <time>2026-06-18T11:18:13.000Z</time>
        <extensions>
          <ns3:TrackPointExtension>
            <ns3:atemp>21.0</ns3:atemp>
          </ns3:TrackPointExtension>
        </extensions>
      </trkpt>
      <trkpt lat="42.516694553196430206298828125" lon="19.76635233499109745025634765625">
        <ele>1773.5999755859375</ele>
        <time>2026-06-18T11:18:14.000Z</time>
        <extensions>
          <ns3:TrackPointExtension>
            <ns3:atemp>21.0</ns3:atemp>
          </ns3:TrackPointExtension>
        </extensions>
      </trkpt>
      <trkpt lat="42.5167054496705532073974609375" lon="19.7663540951907634735107421875">
        <ele>1773</ele>
        <time>2026-06-18T11:18:15.000Z</time>
        <extensions>
          <ns3:TrackPointExtension>
            <ns3:atemp>21.0</ns3:atemp>
          </ns3:TrackPointExtension>
        </extensions>
      </trkpt>
      <trkpt lat="42.51671810634434223175048828125" lon="19.76635954342782497406005859375">
        <ele>1772.5999755859375</ele>
        <time>2026-06-18T11:18:16.000Z</time>
        <extensions>
          <ns3:TrackPointExtension>
            <ns3:atemp>21.0</ns3:atemp>
          </ns3:TrackPointExtension>
        </extensions>
      </trkpt>
      <trkpt lat="42.51672849990427494049072265625" lon="19.7663663327693939208984375">
        <ele>1772</ele>
        <time>2026-06-18T11:18:17.000Z</time>
        <extensions>
          <ns3:TrackPointExtension>
            <ns3:atemp>21.0</ns3:atemp>
          </ns3:TrackPointExtension>
        </extensions>
      </trkpt>
      <trkpt lat="42.51673721708357334136962890625" lon="19.7663690149784088134765625">
        <ele>1771.800048828125</ele>
        <time>2026-06-18T11:18:18.000Z</time>
        <extensions>
          <ns3:TrackPointExtension>
            <ns3:atemp>21.0</ns3:atemp>
          </ns3:TrackPointExtension>
        </extensions>
      </trkpt>
      <trkpt lat="42.51674761064350605010986328125" lon="19.76636859588325023651123046875">
        <ele>1771.4000244140625</ele>
        <time>2026-06-18T11:18:19.000Z</time>
        <extensions>
          <ns3:TrackPointExtension>
            <ns3:atemp>21.0</ns3:atemp>
          </ns3:TrackPointExtension>
        </extensions>
      </trkpt>
      <trkpt lat="42.51676261425018310546875" lon="19.76637010462582111358642578125">
        <ele>1771</ele>
        <time>2026-06-18T11:18:20.000Z</time>
        <extensions>
          <ns3:TrackPointExtension>
            <ns3:atemp>21.0</ns3:atemp>
          </ns3:TrackPointExtension>
        </extensions>
      </trkpt>
      <trkpt lat="42.51678650267422199249267578125" lon="19.766378067433834075927734375">
        <ele>1770.5999755859375</ele>
        <time>2026-06-18T11:18:21.000Z</time>
        <extensions>
          <ns3:TrackPointExtension>
            <ns3:atemp>21.0</ns3:atemp>
          </ns3:TrackPointExtension>
        </extensions>
      </trkpt>
      <trkpt lat="42.5168120674788951873779296875" lon="19.76640581153333187103271484375">
        <ele>1770.199951171875</ele>
        <time>2026-06-18T11:18:22.000Z</time>
        <extensions>
          <ns3:TrackPointExtension>
            <ns3:atemp>21.0</ns3:atemp>
          </ns3:TrackPointExtension>
        </extensions>
      </trkpt>
      <trkpt lat="42.51683411188423633575439453125" lon="19.76642106659710407257080078125">
        <ele>1769.5999755859375</ele>
        <time>2026-06-18T11:18:23.000Z</time>
        <extensions>
          <ns3:TrackPointExtension>
            <ns3:atemp>21.0</ns3:atemp>
          </ns3:TrackPointExtension>
        </extensions>
      </trkpt>
      <trkpt lat="42.51686478964984416961669921875" lon="19.76644017733633518218994140625">
        <ele>1769.199951171875</ele>
        <time>2026-06-18T11:18:24.000Z</time>
        <extensions>
          <ns3:TrackPointExtension>
            <ns3:atemp>21.0</ns3:atemp>
          </ns3:TrackPointExtension>
        </extensions>
      </trkpt>
      <trkpt lat="42.516899071633815765380859375" lon="19.76646632887423038482666015625">
        <ele>1769</ele>
        <time>2026-06-18T11:18:25.000Z</time>
        <extensions>
          <ns3:TrackPointExtension>
            <ns3:atemp>21.0</ns3:atemp>
          </ns3:TrackPointExtension>
        </extensions>
      </trkpt>
      <trkpt lat="42.51693502999842166900634765625" lon="19.766479320824146270751953125">
        <ele>1768.5999755859375</ele>
        <time>2026-06-18T11:18:26.000Z</time>
        <extensions>
          <ns3:TrackPointExtension>
            <ns3:atemp>21.0</ns3:atemp>
          </ns3:TrackPointExtension>
        </extensions>
      </trkpt>
      <trkpt lat="42.51696403138339519500732421875" lon="19.76647336967289447784423828125">
        <ele>1768.4000244140625</ele>
        <time>2026-06-18T11:18:27.000Z</time>
        <extensions>
          <ns3:TrackPointExtension>
            <ns3:atemp>21.0</ns3:atemp>
          </ns3:TrackPointExtension>
        </extensions>
      </trkpt>
      <trkpt lat="42.51699035055935382843017578125" lon="19.7664761357009410858154296875">
        <ele>1768</ele>
        <time>2026-06-18T11:18:28.000Z</time>
        <extensions>
          <ns3:TrackPointExtension>
            <ns3:atemp>21.0</ns3:atemp>
          </ns3:TrackPointExtension>
        </extensions>
      </trkpt>
      <trkpt lat="42.5170112214982509613037109375" lon="19.76648963056504726409912109375">
        <ele>1767.5999755859375</ele>
        <time>2026-06-18T11:18:29.000Z</time>
        <extensions>
          <ns3:TrackPointExtension>
            <ns3:atemp>21.0</ns3:atemp>
          </ns3:TrackPointExtension>
        </extensions>
      </trkpt>
      <trkpt lat="42.51703058369457721710205078125" lon="19.7665031254291534423828125">
        <ele>1767.199951171875</ele>
        <time>2026-06-18T11:18:30.000Z</time>
        <extensions>
          <ns3:TrackPointExtension>
            <ns3:atemp>21.0</ns3:atemp>
          </ns3:TrackPointExtension>
        </extensions>
      </trkpt>
      <trkpt lat="42.517050616443157196044921875" lon="19.76651561446487903594970703125">
        <ele>1766.800048828125</ele>
        <time>2026-06-18T11:18:31.000Z</time>
        <extensions>
          <ns3:TrackPointExtension>
            <ns3:atemp>21.0</ns3:atemp>
          </ns3:TrackPointExtension>
        </extensions>
      </trkpt>
      <trkpt lat="42.51706796698272228240966796875" lon="19.76652659475803375244140625">
        <ele>1766.4000244140625</ele>
        <time>2026-06-18T11:18:32.000Z</time>
        <extensions>
          <ns3:TrackPointExtension>
            <ns3:atemp>21.0</ns3:atemp>
          </ns3:TrackPointExtension>
        </extensions>
      </trkpt>
      <trkpt lat="42.517087496817111968994140625" lon="19.76653438992798328399658203125">
        <ele>1766</ele>
        <time>2026-06-18T11:18:33.000Z</time>
        <extensions>
          <ns3:TrackPointExtension>
            <ns3:atemp>21.0</ns3:atemp>
          </ns3:TrackPointExtension>
        </extensions>
      </trkpt>
      <trkpt lat="42.5171099603176116943359375" lon="19.76653824560344219207763671875">
        <ele>1765.800048828125</ele>
        <time>2026-06-18T11:18:34.000Z</time>
        <extensions>
          <ns3:TrackPointExtension>
            <ns3:atemp>21.0</ns3:atemp>
          </ns3:TrackPointExtension>
        </extensions>
      </trkpt>
      <trkpt lat="42.51711909659206867218017578125" lon="19.76653791032731533050537109375">
        <ele>1765.4000244140625</ele>
        <time>2026-06-18T11:18:35.000Z</time>
        <extensions>
          <ns3:TrackPointExtension>
            <ns3:atemp>21.0</ns3:atemp>
          </ns3:TrackPointExtension>
        </extensions>
      </trkpt>
      <trkpt lat="42.51712362281978130340576171875" lon="19.76653204299509525299072265625">
        <ele>1765</ele>
        <time>2026-06-18T11:18:36.000Z</time>
        <extensions>
          <ns3:TrackPointExtension>
            <ns3:atemp>21.0</ns3:atemp>
          </ns3:TrackPointExtension>
        </extensions>
      </trkpt>
      <trkpt lat="42.51713317818939685821533203125" lon="19.76652818731963634490966796875">
        <ele>1764.800048828125</ele>
        <time>2026-06-18T11:18:37.000Z</time>
        <extensions>
          <ns3:TrackPointExtension>
            <ns3:atemp>21.0</ns3:atemp>
          </ns3:TrackPointExtension>
        </extensions>
      </trkpt>
      <trkpt lat="42.51714407466351985931396484375" lon="19.766524247825145721435546875">
        <ele>1764.800048828125</ele>
        <time>2026-06-18T11:18:38.000Z</time>
        <extensions>
          <ns3:TrackPointExtension>
            <ns3:atemp>21.0</ns3:atemp>
          </ns3:TrackPointExtension>
        </extensions>
      </trkpt>
      <trkpt lat="42.51715379767119884490966796875" lon="19.76651846431195735931396484375">
        <ele>1764.5999755859375</ele>
        <time>2026-06-18T11:18:39.000Z</time>
        <extensions>
          <ns3:TrackPointExtension>
            <ns3:atemp>21.0</ns3:atemp>
          </ns3:TrackPointExtension>
        </extensions>
      </trkpt>
      <trkpt lat="42.51715748570859432220458984375" lon="19.76652114652097225189208984375">
        <ele>1764.5999755859375</ele>
        <time>2026-06-18T11:18:40.000Z</time>
        <extensions>
          <ns3:TrackPointExtension>
            <ns3:atemp>21.0</ns3:atemp>
          </ns3:TrackPointExtension>
        </extensions>
      </trkpt>
      <trkpt lat="42.51716117374598979949951171875" lon="19.766514860093593597412109375">
        <ele>1764.5999755859375</ele>
        <time>2026-06-18T11:18:41.000Z</time>
        <extensions>
          <ns3:TrackPointExtension>
            <ns3:atemp>21.0</ns3:atemp>
          </ns3:TrackPointExtension>
        </extensions>
      </trkpt>
      <trkpt lat="42.5171664543449878692626953125" lon="19.7665197215974330902099609375">
        <ele>1764.4000244140625</ele>
        <time>2026-06-18T11:18:42.000Z</time>
        <extensions>
          <ns3:TrackPointExtension>
            <ns3:atemp>21.0</ns3:atemp>
          </ns3:TrackPointExtension>
        </extensions>
      </trkpt>
      <trkpt lat="42.517167963087558746337890625" lon="19.766523577272891998291015625">
        <ele>1764.199951171875</ele>
        <time>2026-06-18T11:18:43.000Z</time>
        <extensions>
          <ns3:TrackPointExtension>
            <ns3:atemp>21.0</ns3:atemp>
          </ns3:TrackPointExtension>
        </extensions>
      </trkpt>
      <trkpt lat="42.51716787926852703094482421875" lon="19.766523577272891998291015625">
        <ele>1764</ele>
        <time>2026-06-18T11:18:44.000Z</time>
        <extensions>
          <ns3:TrackPointExtension>
            <ns3:atemp>21.0</ns3:atemp>
          </ns3:TrackPointExtension>
        </extensions>
      </trkpt>
      <trkpt lat="42.51716787926852703094482421875" lon="19.766523577272891998291015625">
        <ele>1764</ele>
        <time>2026-06-18T11:18:45.000Z</time>
        <extensions>
          <ns3:TrackPointExtension>
            <ns3:atemp>21.0</ns3:atemp>
          </ns3:TrackPointExtension>
        </extensions>
      </trkpt>
      <trkpt lat="42.51716787926852703094482421875" lon="19.766523577272891998291015625">
        <ele>1763.800048828125</ele>
        <time>2026-06-18T11:18:46.000Z</time>
        <extensions>
          <ns3:TrackPointExtension>
            <ns3:atemp>21.0</ns3:atemp>
          </ns3:TrackPointExtension>
        </extensions>
      </trkpt>
      <trkpt lat="42.5171674601733684539794921875" lon="19.76652382872998714447021484375">
        <ele>1763.5999755859375</ele>
        <time>2026-06-18T11:18:47.000Z</time>
        <extensions>
          <ns3:TrackPointExtension>
            <ns3:atemp>21.0</ns3:atemp>
          </ns3:TrackPointExtension>
        </extensions>
      </trkpt>
      <trkpt lat="42.51718380488455295562744140625" lon="19.76652097888290882110595703125">
        <ele>1763.4000244140625</ele>
        <time>2026-06-18T11:18:48.000Z</time>
        <extensions>
          <ns3:TrackPointExtension>
            <ns3:atemp>21.0</ns3:atemp>
          </ns3:TrackPointExtension>
        </extensions>
      </trkpt>
      <trkpt lat="42.5172026641666889190673828125" lon="19.76653221063315868377685546875">
        <ele>1763.199951171875</ele>
        <time>2026-06-18T11:18:49.000Z</time>
        <extensions>
          <ns3:TrackPointExtension>
            <ns3:atemp>21.0</ns3:atemp>
          </ns3:TrackPointExtension>
        </extensions>
      </trkpt>
      <trkpt lat="42.5172123871743679046630859375" lon="19.76653405465185642242431640625">
        <ele>1763.199951171875</ele>
        <time>2026-06-18T11:18:50.000Z</time>
        <extensions>
          <ns3:TrackPointExtension>
            <ns3:atemp>21.0</ns3:atemp>
          </ns3:TrackPointExtension>
        </extensions>
      </trkpt>
      <trkpt lat="42.517214901745319366455078125" lon="19.7665398381650447845458984375">
        <ele>1763.199951171875</ele>
        <time>2026-06-18T11:18:51.000Z</time>
        <extensions>
          <ns3:TrackPointExtension>
            <ns3:atemp>21.0</ns3:atemp>
          </ns3:TrackPointExtension>
        </extensions>
      </trkpt>
      <trkpt lat="42.51721523702144622802734375" lon="19.76653992198407649993896484375">
        <ele>1763.4000244140625</ele>
        <time>2026-06-18T11:18:52.000Z</time>
        <extensions>
          <ns3:TrackPointExtension>
            <ns3:atemp>21.0</ns3:atemp>
          </ns3:TrackPointExtension>
        </extensions>
      </trkpt>
      <trkpt lat="42.51721532084047794342041015625" lon="19.7665398381650447845458984375">
        <ele>1763.5999755859375</ele>
        <time>2026-06-18T11:18:53.000Z</time>
        <extensions>
          <ns3:TrackPointExtension>
            <ns3:atemp>21.0</ns3:atemp>
          </ns3:TrackPointExtension>
        </extensions>
      </trkpt>
      <trkpt lat="42.5172247923910617828369140625" lon="19.76654537022113800048828125">
        <ele>1763.800048828125</ele>
        <time>2026-06-18T11:18:54.000Z</time>
        <extensions>
          <ns3:TrackPointExtension>
            <ns3:atemp>21.0</ns3:atemp>
          </ns3:TrackPointExtension>
        </extensions>
      </trkpt>
      <trkpt lat="42.5172341801226139068603515625" lon="19.7665500640869140625">
        <ele>1764</ele>
        <time>2026-06-18T11:18:55.000Z</time>
        <extensions>
          <ns3:TrackPointExtension>
            <ns3:atemp>21.0</ns3:atemp>
          </ns3:TrackPointExtension>
        </extensions>
      </trkpt>
      <trkpt lat="42.51724071800708770751953125" lon="19.7665596194565296173095703125">
        <ele>1764</ele>
        <time>2026-06-18T11:18:56.000Z</time>
        <extensions>
          <ns3:TrackPointExtension>
            <ns3:atemp>21.0</ns3:atemp>
          </ns3:TrackPointExtension>
        </extensions>
      </trkpt>
      <trkpt lat="42.5172507762908935546875" lon="19.7665649838745594024658203125">
        <ele>1764</ele>
        <time>2026-06-18T11:18:57.000Z</time>
        <extensions>
          <ns3:TrackPointExtension>
            <ns3:atemp>21.0</ns3:atemp>
          </ns3:TrackPointExtension>
        </extensions>
      </trkpt>
      <trkpt lat="42.51725639216601848602294921875" lon="19.76656741462647914886474609375">
        <ele>1764</ele>
        <time>2026-06-18T11:18:58.000Z</time>
        <extensions>
          <ns3:TrackPointExtension>
            <ns3:atemp>21.0</ns3:atemp>
          </ns3:TrackPointExtension>
        </extensions>
      </trkpt>
      <trkpt lat="42.51725614070892333984375" lon="19.76656355895102024078369140625">
        <ele>1764</ele>
        <time>2026-06-18T11:18:59.000Z</time>
        <extensions>
          <ns3:TrackPointExtension>
            <ns3:atemp>21.0</ns3:atemp>
          </ns3:TrackPointExtension>
        </extensions>
      </trkpt>
      <trkpt lat="42.51725614070892333984375" lon="19.76656355895102024078369140625">
        <ele>1764.199951171875</ele>
        <time>2026-06-18T11:19:00.000Z</time>
        <extensions>
          <ns3:TrackPointExtension>
            <ns3:atemp>21.0</ns3:atemp>
          </ns3:TrackPointExtension>
        </extensions>
      </trkpt>
      <trkpt lat="42.51725614070892333984375" lon="19.76656355895102024078369140625">
        <ele>1764.199951171875</ele>
        <time>2026-06-18T11:19:01.000Z</time>
        <extensions>
          <ns3:TrackPointExtension>
            <ns3:atemp>21.0</ns3:atemp>
          </ns3:TrackPointExtension>
        </extensions>
      </trkpt>
      <trkpt lat="42.51725614070892333984375" lon="19.76656355895102024078369140625">
        <ele>1764.4000244140625</ele>
        <time>2026-06-18T11:19:02.000Z</time>
        <extensions>
          <ns3:TrackPointExtension>
            <ns3:atemp>21.0</ns3:atemp>
          </ns3:TrackPointExtension>
        </extensions>
      </trkpt>
      <trkpt lat="42.51725614070892333984375" lon="19.76656355895102024078369140625">
        <ele>1764.4000244140625</ele>
        <time>2026-06-18T11:19:03.000Z</time>
        <extensions>
          <ns3:TrackPointExtension>
            <ns3:atemp>21.0</ns3:atemp>
          </ns3:TrackPointExtension>
        </extensions>
      </trkpt>
      <trkpt lat="42.51725614070892333984375" lon="19.76656355895102024078369140625">
        <ele>1764.5999755859375</ele>
        <time>2026-06-18T11:19:04.000Z</time>
        <extensions>
          <ns3:TrackPointExtension>
            <ns3:atemp>21.0</ns3:atemp>
          </ns3:TrackPointExtension>
        </extensions>
      </trkpt>
      <trkpt lat="42.51725614070892333984375" lon="19.76656355895102024078369140625">
        <ele>1764.5999755859375</ele>
        <time>2026-06-18T11:19:05.000Z</time>
        <extensions>
          <ns3:TrackPointExtension>
            <ns3:atemp>21.0</ns3:atemp>
          </ns3:TrackPointExtension>
        </extensions>
      </trkpt>
      <trkpt lat="42.51725614070892333984375" lon="19.76656355895102024078369140625">
        <ele>1764.5999755859375</ele>
        <time>2026-06-18T11:19:06.000Z</time>
        <extensions>
          <ns3:TrackPointExtension>
            <ns3:atemp>21.0</ns3:atemp>
          </ns3:TrackPointExtension>
        </extensions>
      </trkpt>
      <trkpt lat="42.51725706271827220916748046875" lon="19.76656439714133739471435546875">
        <ele>1764.5999755859375</ele>
        <time>2026-06-18T11:19:07.000Z</time>
        <extensions>
          <ns3:TrackPointExtension>
            <ns3:atemp>21.0</ns3:atemp>
          </ns3:TrackPointExtension>
        </extensions>
      </trkpt>
      <trkpt lat="42.51727080903947353363037109375" lon="19.7665767185389995574951171875">
        <ele>1764.5999755859375</ele>
        <time>2026-06-18T11:19:08.000Z</time>
        <extensions>
          <ns3:TrackPointExtension>
            <ns3:atemp>21.0</ns3:atemp>
          </ns3:TrackPointExtension>
        </extensions>
      </trkpt>
      <trkpt lat="42.51728103496134281158447265625" lon="19.76658887229859828948974609375">
        <ele>1764.5999755859375</ele>
        <time>2026-06-18T11:19:09.000Z</time>
        <extensions>
          <ns3:TrackPointExtension>
            <ns3:atemp>21.0</ns3:atemp>
          </ns3:TrackPointExtension>
        </extensions>
      </trkpt>
      <trkpt lat="42.5172874890267848968505859375" lon="19.76659909822046756744384765625">
        <ele>1764.5999755859375</ele>
        <time>2026-06-18T11:19:10.000Z</time>
        <extensions>
          <ns3:TrackPointExtension>
            <ns3:atemp>21.0</ns3:atemp>
          </ns3:TrackPointExtension>
        </extensions>
      </trkpt>
      <trkpt lat="42.51729629002511501312255859375" lon="19.7666089050471782684326171875">
        <ele>1764.5999755859375</ele>
        <time>2026-06-18T11:19:11.000Z</time>
        <extensions>
          <ns3:TrackPointExtension>
            <ns3:atemp>21.0</ns3:atemp>
          </ns3:TrackPointExtension>
        </extensions>
      </trkpt>
      <trkpt lat="42.51729629002511501312255859375" lon="19.7666132636368274688720703125">
        <ele>1764.4000244140625</ele>
        <time>2026-06-18T11:19:12.000Z</time>
        <extensions>
          <ns3:TrackPointExtension>
            <ns3:atemp>21.0</ns3:atemp>
          </ns3:TrackPointExtension>
        </extensions>
      </trkpt>
      <trkpt lat="42.517296373844146728515625" lon="19.7666132636368274688720703125">
        <ele>1764.4000244140625</ele>
        <time>2026-06-18T11:19:13.000Z</time>
        <extensions>
          <ns3:TrackPointExtension>
            <ns3:atemp>21.0</ns3:atemp>
          </ns3:TrackPointExtension>
        </extensions>
      </trkpt>
      <trkpt lat="42.51730366609990596771240234375" lon="19.7666223160922527313232421875">
        <ele>1764.4000244140625</ele>
        <time>2026-06-18T11:19:14.000Z</time>
        <extensions>
          <ns3:TrackPointExtension>
            <ns3:atemp>21.0</ns3:atemp>
          </ns3:TrackPointExtension>
        </extensions>
      </trkpt>
      <trkpt lat="42.51731774769723415374755859375" lon="19.76663363166153430938720703125">
        <ele>1764.4000244140625</ele>
        <time>2026-06-18T11:19:15.000Z</time>
        <extensions>
          <ns3:TrackPointExtension>
            <ns3:atemp>21.0</ns3:atemp>
          </ns3:TrackPointExtension>
        </extensions>
      </trkpt>
      <trkpt lat="42.51734004355967044830322265625" lon="19.76662717759609222412109375">
        <ele>1764.199951171875</ele>
        <time>2026-06-18T11:19:16.000Z</time>
        <extensions>
          <ns3:TrackPointExtension>
            <ns3:atemp>21.0</ns3:atemp>
          </ns3:TrackPointExtension>
        </extensions>
      </trkpt>
      <trkpt lat="42.5173647701740264892578125" lon="19.7666233219206333160400390625">
        <ele>1764.199951171875</ele>
        <time>2026-06-18T11:19:17.000Z</time>
        <extensions>
          <ns3:TrackPointExtension>
            <ns3:atemp>21.0</ns3:atemp>
          </ns3:TrackPointExtension>
        </extensions>
      </trkpt>
      <trkpt lat="42.51738647930324077606201171875" lon="19.7666209749877452850341796875">
        <ele>1764</ele>
        <time>2026-06-18T11:19:18.000Z</time>
        <extensions>
          <ns3:TrackPointExtension>
            <ns3:atemp>21.0</ns3:atemp>
          </ns3:TrackPointExtension>
        </extensions>
      </trkpt>
      <trkpt lat="42.51740056090056896209716796875" lon="19.76662441156804561614990234375">
        <ele>1763.800048828125</ele>
        <time>2026-06-18T11:19:19.000Z</time>
        <extensions>
          <ns3:TrackPointExtension>
            <ns3:atemp>21.0</ns3:atemp>
          </ns3:TrackPointExtension>
        </extensions>
      </trkpt>
      <trkpt lat="42.517408691346645355224609375" lon="19.7666290216147899627685546875">
        <ele>1763.800048828125</ele>
        <time>2026-06-18T11:19:20.000Z</time>
        <extensions>
          <ns3:TrackPointExtension>
            <ns3:atemp>21.0</ns3:atemp>
          </ns3:TrackPointExtension>
        </extensions>
      </trkpt>
      <trkpt lat="42.51742310822010040283203125" lon="19.7666323743760585784912109375">
        <ele>1763.5999755859375</ele>
        <time>2026-06-18T11:19:21.000Z</time>
        <extensions>
          <ns3:TrackPointExtension>
            <ns3:atemp>21.0</ns3:atemp>
          </ns3:TrackPointExtension>
        </extensions>
      </trkpt>
      <trkpt lat="42.51743651926517486572265625" lon="19.76663396693766117095947265625">
        <ele>1763.5999755859375</ele>
        <time>2026-06-18T11:19:22.000Z</time>
        <extensions>
          <ns3:TrackPointExtension>
            <ns3:atemp>21.0</ns3:atemp>
          </ns3:TrackPointExtension>
        </extensions>
      </trkpt>
      <trkpt lat="42.51745604909956455230712890625" lon="19.766628853976726531982421875">
        <ele>1763.800048828125</ele>
        <time>2026-06-18T11:19:23.000Z</time>
        <extensions>
          <ns3:TrackPointExtension>
            <ns3:atemp>21.0</ns3:atemp>
          </ns3:TrackPointExtension>
        </extensions>
      </trkpt>
      <trkpt lat="42.51747214235365390777587890625" lon="19.76663446985185146331787109375">
        <ele>1763.5999755859375</ele>
        <time>2026-06-18T11:19:24.000Z</time>
        <extensions>
          <ns3:TrackPointExtension>
            <ns3:atemp>21.0</ns3:atemp>
          </ns3:TrackPointExtension>
        </extensions>
      </trkpt>
      <trkpt lat="42.51749075017869472503662109375" lon="19.76664134301245212554931640625">
        <ele>1763.5999755859375</ele>
        <time>2026-06-18T11:19:25.000Z</time>
        <extensions>
          <ns3:TrackPointExtension>
            <ns3:atemp>21.0</ns3:atemp>
          </ns3:TrackPointExtension>
        </extensions>
      </trkpt>
      <trkpt lat="42.51750667579472064971923828125" lon="19.76665198802947998046875">
        <ele>1763.4000244140625</ele>
        <time>2026-06-18T11:19:26.000Z</time>
        <extensions>
          <ns3:TrackPointExtension>
            <ns3:atemp>21.0</ns3:atemp>
          </ns3:TrackPointExtension>
        </extensions>
      </trkpt>
      <trkpt lat="42.51752696000039577484130859375" lon="19.76665827445685863494873046875">
        <ele>1763</ele>
        <time>2026-06-18T11:19:27.000Z</time>
        <extensions>
          <ns3:TrackPointExtension>
            <ns3:atemp>21.0</ns3:atemp>
          </ns3:TrackPointExtension>
        </extensions>
      </trkpt>
      <trkpt lat="42.51754975877702236175537109375" lon="19.766661711037158966064453125">
        <ele>1762.800048828125</ele>
        <time>2026-06-18T11:19:28.000Z</time>
        <extensions>
          <ns3:TrackPointExtension>
            <ns3:atemp>21.0</ns3:atemp>
          </ns3:TrackPointExtension>
        </extensions>
      </trkpt>
      <trkpt lat="42.51756903715431690216064453125" lon="19.76666179485619068145751953125">
        <ele>1762.5999755859375</ele>
        <time>2026-06-18T11:19:29.000Z</time>
        <extensions>
          <ns3:TrackPointExtension>
            <ns3:atemp>21.0</ns3:atemp>
          </ns3:TrackPointExtension>
        </extensions>
      </trkpt>
      <trkpt lat="42.51757289282977581024169921875" lon="19.766664393246173858642578125">
        <ele>1762.4000244140625</ele>
        <time>2026-06-18T11:19:30.000Z</time>
        <extensions>
          <ns3:TrackPointExtension>
            <ns3:atemp>21.0</ns3:atemp>
          </ns3:TrackPointExtension>
        </extensions>
      </trkpt>
      <trkpt lat="42.51757289282977581024169921875" lon="19.766664393246173858642578125">
        <ele>1762.4000244140625</ele>
        <time>2026-06-18T11:19:31.000Z</time>
        <extensions>
          <ns3:TrackPointExtension>
            <ns3:atemp>21.0</ns3:atemp>
          </ns3:TrackPointExtension>
        </extensions>
      </trkpt>
      <trkpt lat="42.5175731442868709564208984375" lon="19.76666447706520557403564453125">
        <ele>1762.4000244140625</ele>
        <time>2026-06-18T11:19:32.000Z</time>
        <extensions>
          <ns3:TrackPointExtension>
            <ns3:atemp>21.0</ns3:atemp>
          </ns3:TrackPointExtension>
        </extensions>
      </trkpt>
      <trkpt lat="42.51757289282977581024169921875" lon="19.766664393246173858642578125">
        <ele>1762.4000244140625</ele>
        <time>2026-06-18T11:19:33.000Z</time>
        <extensions>
          <ns3:TrackPointExtension>
            <ns3:atemp>21.0</ns3:atemp>
          </ns3:TrackPointExtension>
        </extensions>
      </trkpt>
      <trkpt lat="42.51757959835231304168701171875" lon="19.7666628845036029815673828125">
        <ele>1762.199951171875</ele>
        <time>2026-06-18T11:19:34.000Z</time>
        <extensions>
          <ns3:TrackPointExtension>
            <ns3:atemp>21.0</ns3:atemp>
          </ns3:TrackPointExtension>
        </extensions>
      </trkpt>
      <trkpt lat="42.51759049482643604278564453125" lon="19.76665928028523921966552734375">
        <ele>1762.199951171875</ele>
        <time>2026-06-18T11:19:35.000Z</time>
        <extensions>
          <ns3:TrackPointExtension>
            <ns3:atemp>21.0</ns3:atemp>
          </ns3:TrackPointExtension>
        </extensions>
      </trkpt>
      <trkpt lat="42.51760005019605159759521484375" lon="19.76665936410427093505859375">
        <ele>1762.199951171875</ele>
        <time>2026-06-18T11:19:36.000Z</time>
        <extensions>
          <ns3:TrackPointExtension>
            <ns3:atemp>21.0</ns3:atemp>
          </ns3:TrackPointExtension>
        </extensions>
      </trkpt>
      <trkpt lat="42.5176088511943817138671875" lon="19.7666581906378269195556640625">
        <ele>1762.4000244140625</ele>
        <time>2026-06-18T11:19:37.000Z</time>
        <extensions>
          <ns3:TrackPointExtension>
            <ns3:atemp>21.0</ns3:atemp>
          </ns3:TrackPointExtension>
        </extensions>
      </trkpt>
      <trkpt lat="42.51761748455464839935302734375" lon="19.76665668189525604248046875">
        <ele>1762.4000244140625</ele>
        <time>2026-06-18T11:19:38.000Z</time>
        <extensions>
          <ns3:TrackPointExtension>
            <ns3:atemp>21.0</ns3:atemp>
          </ns3:TrackPointExtension>
        </extensions>
      </trkpt>
      <trkpt lat="42.51762569881975650787353515625" lon="19.76665668189525604248046875">
        <ele>1762.5999755859375</ele>
        <time>2026-06-18T11:19:39.000Z</time>
        <extensions>
          <ns3:TrackPointExtension>
            <ns3:atemp>21.0</ns3:atemp>
          </ns3:TrackPointExtension>
        </extensions>
      </trkpt>
      <trkpt lat="42.51763290725648403167724609375" lon="19.76665777154266834259033203125">
        <ele>1762.800048828125</ele>
        <time>2026-06-18T11:19:40.000Z</time>
        <extensions>
          <ns3:TrackPointExtension>
            <ns3:atemp>21.0</ns3:atemp>
          </ns3:TrackPointExtension>
        </extensions>
      </trkpt>
      <trkpt lat="42.51764036715030670166015625" lon="19.76666296832263469696044921875">
        <ele>1763</ele>
        <time>2026-06-18T11:19:41.000Z</time>
        <extensions>
          <ns3:TrackPointExtension>
            <ns3:atemp>21.0</ns3:atemp>
          </ns3:TrackPointExtension>
        </extensions>
      </trkpt>
      <trkpt lat="42.51764573156833648681640625" lon="19.7666682489216327667236328125">
        <ele>1763.199951171875</ele>
        <time>2026-06-18T11:19:42.000Z</time>
        <extensions>
          <ns3:TrackPointExtension>
            <ns3:atemp>21.0</ns3:atemp>
          </ns3:TrackPointExtension>
        </extensions>
      </trkpt>
      <trkpt lat="42.5176509283483028411865234375" lon="19.76667034439742565155029296875">
        <ele>1763.4000244140625</ele>
        <time>2026-06-18T11:19:43.000Z</time>
        <extensions>
          <ns3:TrackPointExtension>
            <ns3:atemp>21.0</ns3:atemp>
          </ns3:TrackPointExtension>
        </extensions>
      </trkpt>
      <trkpt lat="42.51765268854796886444091796875" lon="19.76666967384517192840576171875">
        <ele>1763.4000244140625</ele>
        <time>2026-06-18T11:19:44.000Z</time>
        <extensions>
          <ns3:TrackPointExtension>
            <ns3:atemp>21.0</ns3:atemp>
          </ns3:TrackPointExtension>
        </extensions>
      </trkpt>
      <trkpt lat="42.51765310764312744140625" lon="19.76666967384517192840576171875">
        <ele>1763.5999755859375</ele>
        <time>2026-06-18T11:19:45.000Z</time>
        <extensions>
          <ns3:TrackPointExtension>
            <ns3:atemp>21.0</ns3:atemp>
          </ns3:TrackPointExtension>
        </extensions>
      </trkpt>
      <trkpt lat="42.51765310764312744140625" lon="19.76666967384517192840576171875">
        <ele>1763.5999755859375</ele>
        <time>2026-06-18T11:19:46.000Z</time>
        <extensions>
          <ns3:TrackPointExtension>
            <ns3:atemp>21.0</ns3:atemp>
          </ns3:TrackPointExtension>
        </extensions>
      </trkpt>
      <trkpt lat="42.51765310764312744140625" lon="19.76666967384517192840576171875">
        <ele>1763.5999755859375</ele>
        <time>2026-06-18T11:19:47.000Z</time>
        <extensions>
          <ns3:TrackPointExtension>
            <ns3:atemp>21.0</ns3:atemp>
          </ns3:TrackPointExtension>
        </extensions>
      </trkpt>
      <trkpt lat="42.51765310764312744140625" lon="19.76666967384517192840576171875">
        <ele>1763.5999755859375</ele>
        <time>2026-06-18T11:19:48.000Z</time>
        <extensions>
          <ns3:TrackPointExtension>
            <ns3:atemp>21.0</ns3:atemp>
          </ns3:TrackPointExtension>
        </extensions>
      </trkpt>
      <trkpt lat="42.51765310764312744140625" lon="19.76666967384517192840576171875">
        <ele>1763.5999755859375</ele>
        <time>2026-06-18T11:19:49.000Z</time>
        <extensions>
          <ns3:TrackPointExtension>
            <ns3:atemp>21.0</ns3:atemp>
          </ns3:TrackPointExtension>
        </extensions>
      </trkpt>
      <trkpt lat="42.51765310764312744140625" lon="19.76666967384517192840576171875">
        <ele>1763.5999755859375</ele>
        <time>2026-06-18T11:19:50.000Z</time>
        <extensions>
          <ns3:TrackPointExtension>
            <ns3:atemp>21.0</ns3:atemp>
          </ns3:TrackPointExtension>
        </extensions>
      </trkpt>
      <trkpt lat="42.51765310764312744140625" lon="19.76666967384517192840576171875">
        <ele>1763.5999755859375</ele>
        <time>2026-06-18T11:19:51.000Z</time>
        <extensions>
          <ns3:TrackPointExtension>
            <ns3:atemp>21.0</ns3:atemp>
          </ns3:TrackPointExtension>
        </extensions>
      </trkpt>
      <trkpt lat="42.51765310764312744140625" lon="19.76666967384517192840576171875">
        <ele>1763.5999755859375</ele>
        <time>2026-06-18T11:19:52.000Z</time>
        <extensions>
          <ns3:TrackPointExtension>
            <ns3:atemp>21.0</ns3:atemp>
          </ns3:TrackPointExtension>
        </extensions>
      </trkpt>
      <trkpt lat="42.51765310764312744140625" lon="19.76666967384517192840576171875">
        <ele>1763.5999755859375</ele>
        <time>2026-06-18T11:19:53.000Z</time>
        <extensions>
          <ns3:TrackPointExtension>
            <ns3:atemp>21.0</ns3:atemp>
          </ns3:TrackPointExtension>
        </extensions>
      </trkpt>
      <trkpt lat="42.51765310764312744140625" lon="19.76666967384517192840576171875">
        <ele>1763.5999755859375</ele>
        <time>2026-06-18T11:19:54.000Z</time>
        <extensions>
          <ns3:TrackPointExtension>
            <ns3:atemp>21.0</ns3:atemp>
          </ns3:TrackPointExtension>
        </extensions>
      </trkpt>
      <trkpt lat="42.51765310764312744140625" lon="19.76666967384517192840576171875">
        <ele>1763.5999755859375</ele>
        <time>2026-06-18T11:19:55.000Z</time>
        <extensions>
          <ns3:TrackPointExtension>
            <ns3:atemp>21.0</ns3:atemp>
          </ns3:TrackPointExtension>
        </extensions>
      </trkpt>
      <trkpt lat="42.51765310764312744140625" lon="19.76666967384517192840576171875">
        <ele>1763.5999755859375</ele>
        <time>2026-06-18T11:19:56.000Z</time>
        <extensions>
          <ns3:TrackPointExtension>
            <ns3:atemp>21.0</ns3:atemp>
          </ns3:TrackPointExtension>
        </extensions>
      </trkpt>
      <trkpt lat="42.51765369437634944915771484375" lon="19.7666694223880767822265625">
        <ele>1763.5999755859375</ele>
        <time>2026-06-18T11:19:57.000Z</time>
        <extensions>
          <ns3:TrackPointExtension>
            <ns3:atemp>21.0</ns3:atemp>
          </ns3:TrackPointExtension>
        </extensions>
      </trkpt>
      <trkpt lat="42.51766107045114040374755859375" lon="19.7666747868061065673828125">
        <ele>1763.5999755859375</ele>
        <time>2026-06-18T11:19:58.000Z</time>
        <extensions>
          <ns3:TrackPointExtension>
            <ns3:atemp>21.0</ns3:atemp>
          </ns3:TrackPointExtension>
        </extensions>
      </trkpt>
      <trkpt lat="42.5176676921546459197998046875" lon="19.76667000912129878997802734375">
        <ele>1763.5999755859375</ele>
        <time>2026-06-18T11:19:59.000Z</time>
        <extensions>
          <ns3:TrackPointExtension>
            <ns3:atemp>21.0</ns3:atemp>
          </ns3:TrackPointExtension>
        </extensions>
      </trkpt>
      <trkpt lat="42.51766794361174106597900390625" lon="19.76666933856904506683349609375">
        <ele>1763.5999755859375</ele>
        <time>2026-06-18T11:20:00.000Z</time>
        <extensions>
          <ns3:TrackPointExtension>
            <ns3:atemp>21.0</ns3:atemp>
          </ns3:TrackPointExtension>
        </extensions>
      </trkpt>
      <trkpt lat="42.51766811124980449676513671875" lon="19.766669087111949920654296875">
        <ele>1763.5999755859375</ele>
        <time>2026-06-18T11:20:01.000Z</time>
        <extensions>
          <ns3:TrackPointExtension>
            <ns3:atemp>21.0</ns3:atemp>
          </ns3:TrackPointExtension>
        </extensions>
      </trkpt>
      <trkpt lat="42.51766811124980449676513671875" lon="19.766669087111949920654296875">
        <ele>1763.5999755859375</ele>
        <time>2026-06-18T11:20:02.000Z</time>
        <extensions>
          <ns3:TrackPointExtension>
            <ns3:atemp>21.0</ns3:atemp>
          </ns3:TrackPointExtension>
        </extensions>
      </trkpt>
      <trkpt lat="42.51766811124980449676513671875" lon="19.766669087111949920654296875">
        <ele>1763.5999755859375</ele>
        <time>2026-06-18T11:20:03.000Z</time>
        <extensions>
          <ns3:TrackPointExtension>
            <ns3:atemp>21.0</ns3:atemp>
          </ns3:TrackPointExtension>
        </extensions>
      </trkpt>
      <trkpt lat="42.51766811124980449676513671875" lon="19.766669087111949920654296875">
        <ele>1763.5999755859375</ele>
        <time>2026-06-18T11:20:04.000Z</time>
        <extensions>
          <ns3:TrackPointExtension>
            <ns3:atemp>21.0</ns3:atemp>
          </ns3:TrackPointExtension>
        </extensions>
      </trkpt>
      <trkpt lat="42.51766811124980449676513671875" lon="19.766669087111949920654296875">
        <ele>1763.5999755859375</ele>
        <time>2026-06-18T11:20:05.000Z</time>
        <extensions>
          <ns3:TrackPointExtension>
            <ns3:atemp>21.0</ns3:atemp>
          </ns3:TrackPointExtension>
        </extensions>
      </trkpt>
      <trkpt lat="42.51766811124980449676513671875" lon="19.766669087111949920654296875">
        <ele>1763.5999755859375</ele>
        <time>2026-06-18T11:20:06.000Z</time>
        <extensions>
          <ns3:TrackPointExtension>
            <ns3:atemp>21.0</ns3:atemp>
          </ns3:TrackPointExtension>
        </extensions>
      </trkpt>
      <trkpt lat="42.51766811124980449676513671875" lon="19.766669087111949920654296875">
        <ele>1763.5999755859375</ele>
        <time>2026-06-18T11:20:07.000Z</time>
        <extensions>
          <ns3:TrackPointExtension>
            <ns3:atemp>21.0</ns3:atemp>
          </ns3:TrackPointExtension>
        </extensions>
      </trkpt>
      <trkpt lat="42.51766811124980449676513671875" lon="19.766669087111949920654296875">
        <ele>1763.5999755859375</ele>
        <time>2026-06-18T11:20:08.000Z</time>
        <extensions>
          <ns3:TrackPointExtension>
            <ns3:atemp>21.0</ns3:atemp>
          </ns3:TrackPointExtension>
        </extensions>
      </trkpt>
      <trkpt lat="42.51766811124980449676513671875" lon="19.766669087111949920654296875">
        <ele>1763.5999755859375</ele>
        <time>2026-06-18T11:20:09.000Z</time>
        <extensions>
          <ns3:TrackPointExtension>
            <ns3:atemp>21.0</ns3:atemp>
          </ns3:TrackPointExtension>
        </extensions>
      </trkpt>
      <trkpt lat="42.51766811124980449676513671875" lon="19.766669087111949920654296875">
        <ele>1763.5999755859375</ele>
        <time>2026-06-18T11:20:10.000Z</time>
        <extensions>
          <ns3:TrackPointExtension>
            <ns3:atemp>21.0</ns3:atemp>
          </ns3:TrackPointExtension>
        </extensions>
      </trkpt>
      <trkpt lat="42.5176697038114070892333984375" lon="19.76666883565485477447509765625">
        <ele>1763.5999755859375</ele>
        <time>2026-06-18T11:20:11.000Z</time>
        <extensions>
          <ns3:TrackPointExtension>
            <ns3:atemp>21.0</ns3:atemp>
          </ns3:TrackPointExtension>
        </extensions>
      </trkpt>
      <trkpt lat="42.5176894851028919219970703125" lon="19.76667671464383602142333984375">
        <ele>1763.5999755859375</ele>
        <time>2026-06-18T11:20:12.000Z</time>
        <extensions>
          <ns3:TrackPointExtension>
            <ns3:atemp>21.0</ns3:atemp>
          </ns3:TrackPointExtension>
        </extensions>
      </trkpt>
      <trkpt lat="42.51769526861608028411865234375" lon="19.76668308489024639129638671875">
        <ele>1763.5999755859375</ele>
        <time>2026-06-18T11:20:13.000Z</time>
        <extensions>
          <ns3:TrackPointExtension>
            <ns3:atemp>21.0</ns3:atemp>
          </ns3:TrackPointExtension>
        </extensions>
      </trkpt>
      <trkpt lat="42.5177079252898693084716796875" lon="19.76669314317405223846435546875">
        <ele>1764</ele>
        <time>2026-06-18T11:20:14.000Z</time>
        <extensions>
          <ns3:TrackPointExtension>
            <ns3:atemp>21.0</ns3:atemp>
          </ns3:TrackPointExtension>
        </extensions>
      </trkpt>
      <trkpt lat="42.51772175543010234832763671875" lon="19.7667078115046024322509765625">
        <ele>1763.800048828125</ele>
        <time>2026-06-18T11:20:15.000Z</time>
        <extensions>
          <ns3:TrackPointExtension>
            <ns3:atemp>21.0</ns3:atemp>
          </ns3:TrackPointExtension>
        </extensions>
      </trkpt>
      <trkpt lat="42.5177391059696674346923828125" lon="19.7667252458631992340087890625">
        <ele>1763.5999755859375</ele>
        <time>2026-06-18T11:20:16.000Z</time>
        <extensions>
          <ns3:TrackPointExtension>
            <ns3:atemp>21.0</ns3:atemp>
          </ns3:TrackPointExtension>
        </extensions>
      </trkpt>
      <trkpt lat="42.51777422614395618438720703125" lon="19.7667500562965869903564453125">
        <ele>1763</ele>
        <time>2026-06-18T11:20:17.000Z</time>
        <extensions>
          <ns3:TrackPointExtension>
            <ns3:atemp>21.0</ns3:atemp>
          </ns3:TrackPointExtension>
        </extensions>
      </trkpt>
      <trkpt lat="42.517811022698879241943359375" lon="19.76678408682346343994140625">
        <ele>1762.4000244140625</ele>
        <time>2026-06-18T11:20:18.000Z</time>
        <extensions>
          <ns3:TrackPointExtension>
            <ns3:atemp>21.0</ns3:atemp>
          </ns3:TrackPointExtension>
        </extensions>
      </trkpt>
      <trkpt lat="42.51785628497600555419921875" lon="19.76680152118206024169921875">
        <ele>1761.5999755859375</ele>
        <time>2026-06-18T11:20:19.000Z</time>
        <extensions>
          <ns3:TrackPointExtension>
            <ns3:atemp>21.0</ns3:atemp>
          </ns3:TrackPointExtension>
        </extensions>
      </trkpt>
      <trkpt lat="42.51789626665413379669189453125" lon="19.7668197937309741973876953125">
        <ele>1760.5999755859375</ele>
        <time>2026-06-18T11:20:20.000Z</time>
        <extensions>
          <ns3:TrackPointExtension>
            <ns3:atemp>21.0</ns3:atemp>
          </ns3:TrackPointExtension>
        </extensions>
      </trkpt>
      <trkpt lat="42.51791956834495067596435546875" lon="19.7668499685823917388916015625">
        <ele>1759.800048828125</ele>
        <time>2026-06-18T11:20:21.000Z</time>
        <extensions>
          <ns3:TrackPointExtension>
            <ns3:atemp>21.0</ns3:atemp>
          </ns3:TrackPointExtension>
        </extensions>
      </trkpt>
      <trkpt lat="42.51793549396097660064697265625" lon="19.7668826580047607421875">
        <ele>1759.199951171875</ele>
        <time>2026-06-18T11:20:22.000Z</time>
        <extensions>
          <ns3:TrackPointExtension>
            <ns3:atemp>21.0</ns3:atemp>
          </ns3:TrackPointExtension>
        </extensions>
      </trkpt>
      <trkpt lat="42.5179546885192394256591796875" lon="19.76690637879073619842529296875">
        <ele>1758.800048828125</ele>
        <time>2026-06-18T11:20:23.000Z</time>
        <extensions>
          <ns3:TrackPointExtension>
            <ns3:atemp>21.0</ns3:atemp>
          </ns3:TrackPointExtension>
        </extensions>
      </trkpt>
      <trkpt lat="42.5179709494113922119140625" lon="19.76691744290292263031005859375">
        <ele>1758.4000244140625</ele>
        <time>2026-06-18T11:20:24.000Z</time>
        <extensions>
          <ns3:TrackPointExtension>
            <ns3:atemp>21.0</ns3:atemp>
          </ns3:TrackPointExtension>
        </extensions>
      </trkpt>
      <trkpt lat="42.51798846758902072906494140625" lon="19.76692750118672847747802734375">
        <ele>1757.800048828125</ele>
        <time>2026-06-18T11:20:25.000Z</time>
        <extensions>
          <ns3:TrackPointExtension>
            <ns3:atemp>21.0</ns3:atemp>
          </ns3:TrackPointExtension>
        </extensions>
      </trkpt>
      <trkpt lat="42.5180022977292537689208984375" lon="19.76693906821310520172119140625">
        <ele>1757.5999755859375</ele>
        <time>2026-06-18T11:20:26.000Z</time>
        <extensions>
          <ns3:TrackPointExtension>
            <ns3:atemp>21.0</ns3:atemp>
          </ns3:TrackPointExtension>
        </extensions>
      </trkpt>
      <trkpt lat="42.5180138647556304931640625" lon="19.7669528983533382415771484375">
        <ele>1757.199951171875</ele>
        <time>2026-06-18T11:20:27.000Z</time>
        <extensions>
          <ns3:TrackPointExtension>
            <ns3:atemp>21.0</ns3:atemp>
          </ns3:TrackPointExtension>
        </extensions>
      </trkpt>
      <trkpt lat="42.51802031882107257843017578125" lon="19.7669656388461589813232421875">
        <ele>1756.800048828125</ele>
        <time>2026-06-18T11:20:28.000Z</time>
        <extensions>
          <ns3:TrackPointExtension>
            <ns3:atemp>21.0</ns3:atemp>
          </ns3:TrackPointExtension>
        </extensions>
      </trkpt>
      <trkpt lat="42.5180281139910221099853515625" lon="19.7669793851673603057861328125">
        <ele>1756.4000244140625</ele>
        <time>2026-06-18T11:20:29.000Z</time>
        <extensions>
          <ns3:TrackPointExtension>
            <ns3:atemp>21.0</ns3:atemp>
          </ns3:TrackPointExtension>
        </extensions>
      </trkpt>
      <trkpt lat="42.518036998808383941650390625" lon="19.76699170656502246856689453125">
        <ele>1756</ele>
        <time>2026-06-18T11:20:30.000Z</time>
        <extensions>
          <ns3:TrackPointExtension>
            <ns3:atemp>21.0</ns3:atemp>
          </ns3:TrackPointExtension>
        </extensions>
      </trkpt>
      <trkpt lat="42.51804663799703121185302734375" lon="19.767003022134304046630859375">
        <ele>1755.5999755859375</ele>
        <time>2026-06-18T11:20:31.000Z</time>
        <extensions>
          <ns3:TrackPointExtension>
            <ns3:atemp>21.0</ns3:atemp>
          </ns3:TrackPointExtension>
        </extensions>
      </trkpt>
      <trkpt lat="42.51805451698601245880126953125" lon="19.7670115716755390167236328125">
        <ele>1755</ele>
        <time>2026-06-18T11:20:32.000Z</time>
        <extensions>
          <ns3:TrackPointExtension>
            <ns3:atemp>21.0</ns3:atemp>
          </ns3:TrackPointExtension>
        </extensions>
      </trkpt>
      <trkpt lat="42.5180586241185665130615234375" lon="19.7670249827206134796142578125">
        <ele>1754.800048828125</ele>
        <time>2026-06-18T11:20:33.000Z</time>
        <extensions>
          <ns3:TrackPointExtension>
            <ns3:atemp>21.0</ns3:atemp>
          </ns3:TrackPointExtension>
        </extensions>
      </trkpt>
      <trkpt lat="42.51806977204978466033935546875" lon="19.7670380584895610809326171875">
        <ele>1754.199951171875</ele>
        <time>2026-06-18T11:20:34.000Z</time>
        <extensions>
          <ns3:TrackPointExtension>
            <ns3:atemp>21.0</ns3:atemp>
          </ns3:TrackPointExtension>
        </extensions>
      </trkpt>
      <trkpt lat="42.5180797465145587921142578125" lon="19.76705775596201419830322265625">
        <ele>1753.800048828125</ele>
        <time>2026-06-18T11:20:35.000Z</time>
        <extensions>
          <ns3:TrackPointExtension>
            <ns3:atemp>21.0</ns3:atemp>
          </ns3:TrackPointExtension>
        </extensions>
      </trkpt>
      <trkpt lat="42.51809231936931610107421875" lon="19.76708449423313140869140625">
        <ele>1753</ele>
        <time>2026-06-18T11:20:36.000Z</time>
        <extensions>
          <ns3:TrackPointExtension>
            <ns3:atemp>21.0</ns3:atemp>
          </ns3:TrackPointExtension>
        </extensions>
      </trkpt>
      <trkpt lat="42.5181042216718196868896484375" lon="19.76710871793329715728759765625">
        <ele>1752.4000244140625</ele>
        <time>2026-06-18T11:20:37.000Z</time>
        <extensions>
          <ns3:TrackPointExtension>
            <ns3:atemp>21.0</ns3:atemp>
          </ns3:TrackPointExtension>
        </extensions>
      </trkpt>
      <trkpt lat="42.518116794526576995849609375" lon="19.767124392092227935791015625">
        <ele>1751.5999755859375</ele>
        <time>2026-06-18T11:20:38.000Z</time>
        <extensions>
          <ns3:TrackPointExtension>
            <ns3:atemp>21.0</ns3:atemp>
          </ns3:TrackPointExtension>
        </extensions>
      </trkpt>
      <trkpt lat="42.51812576316297054290771484375" lon="19.76714241318404674530029296875">
        <ele>1750.800048828125</ele>
        <time>2026-06-18T11:20:39.000Z</time>
        <extensions>
          <ns3:TrackPointExtension>
            <ns3:atemp>21.0</ns3:atemp>
          </ns3:TrackPointExtension>
        </extensions>
      </trkpt>
      <trkpt lat="42.5181350670754909515380859375" lon="19.76717275567352771759033203125">
        <ele>1750</ele>
        <time>2026-06-18T11:20:40.000Z</time>
        <extensions>
          <ns3:TrackPointExtension>
            <ns3:atemp>21.0</ns3:atemp>
          </ns3:TrackPointExtension>
        </extensions>
      </trkpt>
      <trkpt lat="42.51814856193959712982177734375" lon="19.76719723083078861236572265625">
        <ele>1749.4000244140625</ele>
        <time>2026-06-18T11:20:41.000Z</time>
        <extensions>
          <ns3:TrackPointExtension>
            <ns3:atemp>21.0</ns3:atemp>
          </ns3:TrackPointExtension>
        </extensions>
      </trkpt>
      <trkpt lat="42.5181662477552890777587890625" lon="19.7672157548367977142333984375">
        <ele>1748.4000244140625</ele>
        <time>2026-06-18T11:20:42.000Z</time>
        <extensions>
          <ns3:TrackPointExtension>
            <ns3:atemp>21.0</ns3:atemp>
          </ns3:TrackPointExtension>
        </extensions>
      </trkpt>
      <trkpt lat="42.518185190856456756591796875" lon="19.7672248072922229766845703125">
        <ele>1747.800048828125</ele>
        <time>2026-06-18T11:20:43.000Z</time>
        <extensions>
          <ns3:TrackPointExtension>
            <ns3:atemp>21.0</ns3:atemp>
          </ns3:TrackPointExtension>
        </extensions>
      </trkpt>
      <trkpt lat="42.51820438541471958160400390625" lon="19.76723897270858287811279296875">
        <ele>1747.199951171875</ele>
        <time>2026-06-18T11:20:44.000Z</time>
        <extensions>
          <ns3:TrackPointExtension>
            <ns3:atemp>21.0</ns3:atemp>
          </ns3:TrackPointExtension>
        </extensions>
      </trkpt>
      <trkpt lat="42.518220059573650360107421875" lon="19.7672512941062450408935546875">
        <ele>1746.5999755859375</ele>
        <time>2026-06-18T11:20:45.000Z</time>
        <extensions>
          <ns3:TrackPointExtension>
            <ns3:atemp>21.0</ns3:atemp>
          </ns3:TrackPointExtension>
        </extensions>
      </trkpt>
      <trkpt lat="42.51823288388550281524658203125" lon="19.7672595083713531494140625">
        <ele>1746.199951171875</ele>
        <time>2026-06-18T11:20:46.000Z</time>
        <extensions>
          <ns3:TrackPointExtension>
            <ns3:atemp>21.0</ns3:atemp>
          </ns3:TrackPointExtension>
        </extensions>
      </trkpt>
      <trkpt lat="42.51823908649384975433349609375" lon="19.7672729194164276123046875">
        <ele>1745.5999755859375</ele>
        <time>2026-06-18T11:20:47.000Z</time>
        <extensions>
          <ns3:TrackPointExtension>
            <ns3:atemp>21.0</ns3:atemp>
          </ns3:TrackPointExtension>
        </extensions>
      </trkpt>
      <trkpt lat="42.51824294216930866241455078125" lon="19.7672925330698490142822265625">
        <ele>1745</ele>
        <time>2026-06-18T11:20:48.000Z</time>
        <extensions>
          <ns3:TrackPointExtension>
            <ns3:atemp>21.0</ns3:atemp>
          </ns3:TrackPointExtension>
        </extensions>
      </trkpt>
      <trkpt lat="42.5182504020631313323974609375" lon="19.76730971597135066986083984375">
        <ele>1744.4000244140625</ele>
        <time>2026-06-18T11:20:49.000Z</time>
        <extensions>
          <ns3:TrackPointExtension>
            <ns3:atemp>21.0</ns3:atemp>
          </ns3:TrackPointExtension>
        </extensions>
      </trkpt>
      <trkpt lat="42.51826590858399868011474609375" lon="19.76732186973094940185546875">
        <ele>1743.800048828125</ele>
        <time>2026-06-18T11:20:50.000Z</time>
        <extensions>
          <ns3:TrackPointExtension>
            <ns3:atemp>21.0</ns3:atemp>
          </ns3:TrackPointExtension>
        </extensions>
      </trkpt>
      <trkpt lat="42.51827697269618511199951171875" lon="19.76732991635799407958984375">
        <ele>1743.199951171875</ele>
        <time>2026-06-18T11:20:51.000Z</time>
        <extensions>
          <ns3:TrackPointExtension>
            <ns3:atemp>21.0</ns3:atemp>
          </ns3:TrackPointExtension>
        </extensions>
      </trkpt>
      <trkpt lat="42.51828937791287899017333984375" lon="19.7673458419740200042724609375">
        <ele>1742.5999755859375</ele>
        <time>2026-06-18T11:20:52.000Z</time>
        <extensions>
          <ns3:TrackPointExtension>
            <ns3:atemp>21.0</ns3:atemp>
          </ns3:TrackPointExtension>
        </extensions>
      </trkpt>
      <trkpt lat="42.5182990171015262603759765625" lon="19.767363779246807098388671875">
        <ele>1742</ele>
        <time>2026-06-18T11:20:53.000Z</time>
        <extensions>
          <ns3:TrackPointExtension>
            <ns3:atemp>21.0</ns3:atemp>
          </ns3:TrackPointExtension>
        </extensions>
      </trkpt>
      <trkpt lat="42.51831133849918842315673828125" lon="19.76737526245415210723876953125">
        <ele>1741.4000244140625</ele>
        <time>2026-06-18T11:20:54.000Z</time>
        <extensions>
          <ns3:TrackPointExtension>
            <ns3:atemp>21.0</ns3:atemp>
          </ns3:TrackPointExtension>
        </extensions>
      </trkpt>
      <trkpt lat="42.51831754110753536224365234375" lon="19.76738448254764080047607421875">
        <ele>1741.199951171875</ele>
        <time>2026-06-18T11:20:55.000Z</time>
        <extensions>
          <ns3:TrackPointExtension>
            <ns3:atemp>21.0</ns3:atemp>
          </ns3:TrackPointExtension>
        </extensions>
      </trkpt>
      <trkpt lat="42.51832877285778522491455078125" lon="19.7673934511840343475341796875">
        <ele>1740.5999755859375</ele>
        <time>2026-06-18T11:20:56.000Z</time>
        <extensions>
          <ns3:TrackPointExtension>
            <ns3:atemp>21.0</ns3:atemp>
          </ns3:TrackPointExtension>
        </extensions>
      </trkpt>
      <trkpt lat="42.51833681948482990264892578125" lon="19.7674016654491424560546875">
        <ele>1740.199951171875</ele>
        <time>2026-06-18T11:20:57.000Z</time>
        <extensions>
          <ns3:TrackPointExtension>
            <ns3:atemp>21.0</ns3:atemp>
          </ns3:TrackPointExtension>
        </extensions>
      </trkpt>
      <trkpt lat="42.5183432735502719879150390625" lon="19.7674014978110790252685546875">
        <ele>1739.5999755859375</ele>
        <time>2026-06-18T11:20:58.000Z</time>
        <extensions>
          <ns3:TrackPointExtension>
            <ns3:atemp>21.0</ns3:atemp>
          </ns3:TrackPointExtension>
        </extensions>
      </trkpt>
      <trkpt lat="42.51834721304476261138916015625" lon="19.7674014978110790252685546875">
        <ele>1739</ele>
        <time>2026-06-18T11:20:59.000Z</time>
        <extensions>
          <ns3:TrackPointExtension>
            <ns3:atemp>21.0</ns3:atemp>
          </ns3:TrackPointExtension>
        </extensions>
      </trkpt>
      <trkpt lat="42.51835291273891925811767578125" lon="19.76740074343979358673095703125">
        <ele>1738.5999755859375</ele>
        <time>2026-06-18T11:21:00.000Z</time>
        <extensions>
          <ns3:TrackPointExtension>
            <ns3:atemp>21.0</ns3:atemp>
          </ns3:TrackPointExtension>
        </extensions>
      </trkpt>
      <trkpt lat="42.51835911534726619720458984375" lon="19.7674048505723476409912109375">
        <ele>1738.199951171875</ele>
        <time>2026-06-18T11:21:01.000Z</time>
        <extensions>
          <ns3:TrackPointExtension>
            <ns3:atemp>21.0</ns3:atemp>
          </ns3:TrackPointExtension>
        </extensions>
      </trkpt>
      <trkpt lat="42.51836246810853481292724609375" lon="19.76740744896233081817626953125">
        <ele>1737.800048828125</ele>
        <time>2026-06-18T11:21:02.000Z</time>
        <extensions>
          <ns3:TrackPointExtension>
            <ns3:atemp>21.0</ns3:atemp>
          </ns3:TrackPointExtension>
        </extensions>
      </trkpt>
      <trkpt lat="42.5183687545359134674072265625" lon="19.76741247810423374176025390625">
        <ele>1737.5999755859375</ele>
        <time>2026-06-18T11:21:03.000Z</time>
        <extensions>
          <ns3:TrackPointExtension>
            <ns3:atemp>21.0</ns3:atemp>
          </ns3:TrackPointExtension>
        </extensions>
      </trkpt>
      <trkpt lat="42.51837663352489471435546875" lon="19.76741314865648746490478515625">
        <ele>1737.199951171875</ele>
        <time>2026-06-18T11:21:04.000Z</time>
        <extensions>
          <ns3:TrackPointExtension>
            <ns3:atemp>21.0</ns3:atemp>
          </ns3:TrackPointExtension>
        </extensions>
      </trkpt>
      <trkpt lat="42.518389038741588592529296875" lon="19.76741147227585315704345703125">
        <ele>1737</ele>
        <time>2026-06-18T11:21:05.000Z</time>
        <extensions>
          <ns3:TrackPointExtension>
            <ns3:atemp>21.0</ns3:atemp>
          </ns3:TrackPointExtension>
        </extensions>
      </trkpt>
      <trkpt lat="42.5183992646634578704833984375" lon="19.76740309037268161773681640625">
        <ele>1736.800048828125</ele>
        <time>2026-06-18T11:21:06.000Z</time>
        <extensions>
          <ns3:TrackPointExtension>
            <ns3:atemp>21.0</ns3:atemp>
          </ns3:TrackPointExtension>
        </extensions>
      </trkpt>
      <trkpt lat="42.5184096582233905792236328125" lon="19.767396636307239532470703125">
        <ele>1736.5999755859375</ele>
        <time>2026-06-18T11:21:07.000Z</time>
        <extensions>
          <ns3:TrackPointExtension>
            <ns3:atemp>21.0</ns3:atemp>
          </ns3:TrackPointExtension>
        </extensions>
      </trkpt>
      <trkpt lat="42.518416531383991241455078125" lon="19.76739965379238128662109375">
        <ele>1736.199951171875</ele>
        <time>2026-06-18T11:21:08.000Z</time>
        <extensions>
          <ns3:TrackPointExtension>
            <ns3:atemp>21.0</ns3:atemp>
          </ns3:TrackPointExtension>
        </extensions>
      </trkpt>
      <trkpt lat="42.51841795630753040313720703125" lon="19.76739705540239810943603515625">
        <ele>1735.800048828125</ele>
        <time>2026-06-18T11:21:09.000Z</time>
        <extensions>
          <ns3:TrackPointExtension>
            <ns3:atemp>21.0</ns3:atemp>
          </ns3:TrackPointExtension>
        </extensions>
      </trkpt>
      <trkpt lat="42.5184180401265621185302734375" lon="19.76739705540239810943603515625">
        <ele>1735.4000244140625</ele>
        <time>2026-06-18T11:21:10.000Z</time>
        <extensions>
          <ns3:TrackPointExtension>
            <ns3:atemp>21.0</ns3:atemp>
          </ns3:TrackPointExtension>
        </extensions>
      </trkpt>
      <trkpt lat="42.51842583529651165008544921875" lon="19.76741549558937549591064453125">
        <ele>1735.199951171875</ele>
        <time>2026-06-18T11:21:11.000Z</time>
        <extensions>
          <ns3:TrackPointExtension>
            <ns3:atemp>21.0</ns3:atemp>
          </ns3:TrackPointExtension>
        </extensions>
      </trkpt>
      <trkpt lat="42.5184374861419200897216796875" lon="19.76744047366082668304443359375">
        <ele>1735</ele>
        <time>2026-06-18T11:21:12.000Z</time>
        <extensions>
          <ns3:TrackPointExtension>
            <ns3:atemp>21.0</ns3:atemp>
          </ns3:TrackPointExtension>
        </extensions>
      </trkpt>
      <trkpt lat="42.518455088138580322265625" lon="19.76746444590389728546142578125">
        <ele>1734.5999755859375</ele>
        <time>2026-06-18T11:21:13.000Z</time>
        <extensions>
          <ns3:TrackPointExtension>
            <ns3:atemp>21.0</ns3:atemp>
          </ns3:TrackPointExtension>
        </extensions>
      </trkpt>
      <trkpt lat="42.5184700079262256622314453125" lon="19.76748322136700153350830078125">
        <ele>1734</ele>
        <time>2026-06-18T11:21:14.000Z</time>
        <extensions>
          <ns3:TrackPointExtension>
            <ns3:atemp>21.0</ns3:atemp>
          </ns3:TrackPointExtension>
        </extensions>
      </trkpt>
      <trkpt lat="42.51847998239099979400634765625" lon="19.7674930281937122344970703125">
        <ele>1733.4000244140625</ele>
        <time>2026-06-18T11:21:15.000Z</time>
        <extensions>
          <ns3:TrackPointExtension>
            <ns3:atemp>21.0</ns3:atemp>
          </ns3:TrackPointExtension>
        </extensions>
      </trkpt>
      <trkpt lat="42.51848685555160045623779296875" lon="19.76749964989721775054931640625">
        <ele>1732.800048828125</ele>
        <time>2026-06-18T11:21:16.000Z</time>
        <extensions>
          <ns3:TrackPointExtension>
            <ns3:atemp>21.0</ns3:atemp>
          </ns3:TrackPointExtension>
        </extensions>
      </trkpt>
      <trkpt lat="42.51849138177931308746337890625" lon="19.767501913011074066162109375">
        <ele>1732.5999755859375</ele>
        <time>2026-06-18T11:21:17.000Z</time>
        <extensions>
          <ns3:TrackPointExtension>
            <ns3:atemp>21.0</ns3:atemp>
          </ns3:TrackPointExtension>
        </extensions>
      </trkpt>
      <trkpt lat="42.5184914655983448028564453125" lon="19.7675020806491374969482421875">
        <ele>1732.199951171875</ele>
        <time>2026-06-18T11:21:18.000Z</time>
        <extensions>
          <ns3:TrackPointExtension>
            <ns3:atemp>21.0</ns3:atemp>
          </ns3:TrackPointExtension>
        </extensions>
      </trkpt>
      <trkpt lat="42.51849473454058170318603515625" lon="19.7675084508955478668212890625">
        <ele>1732</ele>
        <time>2026-06-18T11:21:19.000Z</time>
        <extensions>
          <ns3:TrackPointExtension>
            <ns3:atemp>21.0</ns3:atemp>
          </ns3:TrackPointExtension>
        </extensions>
      </trkpt>
      <trkpt lat="42.51850605010986328125" lon="19.76752026937901973724365234375">
        <ele>1731.800048828125</ele>
        <time>2026-06-18T11:21:20.000Z</time>
        <extensions>
          <ns3:TrackPointExtension>
            <ns3:atemp>21.0</ns3:atemp>
          </ns3:TrackPointExtension>
        </extensions>
      </trkpt>
      <trkpt lat="42.51851200126111507415771484375" lon="19.76752244867384433746337890625">
        <ele>1731.4000244140625</ele>
        <time>2026-06-18T11:21:21.000Z</time>
        <extensions>
          <ns3:TrackPointExtension>
            <ns3:atemp>21.0</ns3:atemp>
          </ns3:TrackPointExtension>
        </extensions>
      </trkpt>
      <trkpt lat="42.5185181200504302978515625" lon="19.76752714253962039947509765625">
        <ele>1731</ele>
        <time>2026-06-18T11:21:22.000Z</time>
        <extensions>
          <ns3:TrackPointExtension>
            <ns3:atemp>21.0</ns3:atemp>
          </ns3:TrackPointExtension>
        </extensions>
      </trkpt>
      <trkpt lat="42.51852306537330150604248046875" lon="19.767535440623760223388671875">
        <ele>1730.5999755859375</ele>
        <time>2026-06-18T11:21:23.000Z</time>
        <extensions>
          <ns3:TrackPointExtension>
            <ns3:atemp>21.0</ns3:atemp>
          </ns3:TrackPointExtension>
        </extensions>
      </trkpt>
      <trkpt lat="42.51852859742939472198486328125" lon="19.76754390634596347808837890625">
        <ele>1730.4000244140625</ele>
        <time>2026-06-18T11:21:24.000Z</time>
        <extensions>
          <ns3:TrackPointExtension>
            <ns3:atemp>21.0</ns3:atemp>
          </ns3:TrackPointExtension>
        </extensions>
      </trkpt>
      <trkpt lat="42.51852692104876041412353515625" lon="19.7675443254411220550537109375">
        <ele>1730</ele>
        <time>2026-06-18T11:21:25.000Z</time>
        <extensions>
          <ns3:TrackPointExtension>
            <ns3:atemp>21.0</ns3:atemp>
          </ns3:TrackPointExtension>
        </extensions>
      </trkpt>
      <trkpt lat="42.5185256637632846832275390625" lon="19.76754709146916866302490234375">
        <ele>1729.800048828125</ele>
        <time>2026-06-18T11:21:26.000Z</time>
        <extensions>
          <ns3:TrackPointExtension>
            <ns3:atemp>21.0</ns3:atemp>
          </ns3:TrackPointExtension>
        </extensions>
      </trkpt>
      <trkpt lat="42.51853086054325103759765625" lon="19.76755547337234020233154296875">
        <ele>1729.5999755859375</ele>
        <time>2026-06-18T11:21:27.000Z</time>
        <extensions>
          <ns3:TrackPointExtension>
            <ns3:atemp>21.0</ns3:atemp>
          </ns3:TrackPointExtension>
        </extensions>
      </trkpt>
      <trkpt lat="42.51854184083640575408935546875" lon="19.76756620220839977264404296875">
        <ele>1729.4000244140625</ele>
        <time>2026-06-18T11:21:28.000Z</time>
        <extensions>
          <ns3:TrackPointExtension>
            <ns3:atemp>21.0</ns3:atemp>
          </ns3:TrackPointExtension>
        </extensions>
      </trkpt>
      <trkpt lat="42.51855189912021160125732421875" lon="19.76756997406482696533203125">
        <ele>1729</ele>
        <time>2026-06-18T11:21:29.000Z</time>
        <extensions>
          <ns3:TrackPointExtension>
            <ns3:atemp>21.0</ns3:atemp>
          </ns3:TrackPointExtension>
        </extensions>
      </trkpt>
      <trkpt lat="42.51856262795627117156982421875" lon="19.7675691358745098114013671875">
        <ele>1728.800048828125</ele>
        <time>2026-06-18T11:21:30.000Z</time>
        <extensions>
          <ns3:TrackPointExtension>
            <ns3:atemp>21.0</ns3:atemp>
          </ns3:TrackPointExtension>
        </extensions>
      </trkpt>
      <trkpt lat="42.51857109367847442626953125" lon="19.76757860742509365081787109375">
        <ele>1728.5999755859375</ele>
        <time>2026-06-18T11:21:31.000Z</time>
        <extensions>
          <ns3:TrackPointExtension>
            <ns3:atemp>21.0</ns3:atemp>
          </ns3:TrackPointExtension>
        </extensions>
      </trkpt>
      <trkpt lat="42.51858190633356571197509765625" lon="19.76759034208953380584716796875">
        <ele>1728.199951171875</ele>
        <time>2026-06-18T11:21:32.000Z</time>
        <extensions>
          <ns3:TrackPointExtension>
            <ns3:atemp>21.0</ns3:atemp>
          </ns3:TrackPointExtension>
        </extensions>
      </trkpt>
      <trkpt lat="42.518589198589324951171875" lon="19.767597131431102752685546875">
        <ele>1727.800048828125</ele>
        <time>2026-06-18T11:21:33.000Z</time>
        <extensions>
          <ns3:TrackPointExtension>
            <ns3:atemp>21.0</ns3:atemp>
          </ns3:TrackPointExtension>
        </extensions>
      </trkpt>
      <trkpt lat="42.51859028823673725128173828125" lon="19.76760542951524257659912109375">
        <ele>1727.4000244140625</ele>
        <time>2026-06-18T11:21:34.000Z</time>
        <extensions>
          <ns3:TrackPointExtension>
            <ns3:atemp>21.0</ns3:atemp>
          </ns3:TrackPointExtension>
        </extensions>
      </trkpt>
      <trkpt lat="42.5185967423021793365478515625" lon="19.7676187567412853240966796875">
        <ele>1727.199951171875</ele>
        <time>2026-06-18T11:21:35.000Z</time>
        <extensions>
          <ns3:TrackPointExtension>
            <ns3:atemp>21.0</ns3:atemp>
          </ns3:TrackPointExtension>
        </extensions>
      </trkpt>
      <trkpt lat="42.51861342228949069976806640625" lon="19.7676264680922031402587890625">
        <ele>1726.800048828125</ele>
        <time>2026-06-18T11:21:36.000Z</time>
        <extensions>
          <ns3:TrackPointExtension>
            <ns3:atemp>21.0</ns3:atemp>
          </ns3:TrackPointExtension>
        </extensions>
      </trkpt>
      <trkpt lat="42.51863705925643444061279296875" lon="19.76763845421373844146728515625">
        <ele>1726.199951171875</ele>
        <time>2026-06-18T11:21:37.000Z</time>
        <extensions>
          <ns3:TrackPointExtension>
            <ns3:atemp>21.0</ns3:atemp>
          </ns3:TrackPointExtension>
        </extensions>
      </trkpt>
      <trkpt lat="42.5186544097959995269775390625" lon="19.767660833895206451416015625">
        <ele>1725.5999755859375</ele>
        <time>2026-06-18T11:21:38.000Z</time>
        <extensions>
          <ns3:TrackPointExtension>
            <ns3:atemp>21.0</ns3:atemp>
          </ns3:TrackPointExtension>
        </extensions>
      </trkpt>
      <trkpt lat="42.5186715088784694671630859375" lon="19.76768807508051395416259765625">
        <ele>1725.199951171875</ele>
        <time>2026-06-18T11:21:39.000Z</time>
        <extensions>
          <ns3:TrackPointExtension>
            <ns3:atemp>21.0</ns3:atemp>
          </ns3:TrackPointExtension>
        </extensions>
      </trkpt>
      <trkpt lat="42.51869573257863521575927734375" lon="19.76769578643143177032470703125">
        <ele>1724.4000244140625</ele>
        <time>2026-06-18T11:21:40.000Z</time>
        <extensions>
          <ns3:TrackPointExtension>
            <ns3:atemp>21.0</ns3:atemp>
          </ns3:TrackPointExtension>
        </extensions>
      </trkpt>
      <trkpt lat="42.518718279898166656494140625" lon="19.767711125314235687255859375">
        <ele>1724</ele>
        <time>2026-06-18T11:21:41.000Z</time>
        <extensions>
          <ns3:TrackPointExtension>
            <ns3:atemp>21.0</ns3:atemp>
          </ns3:TrackPointExtension>
        </extensions>
      </trkpt>
      <trkpt lat="42.5187375582754611968994140625" lon="19.76771942339837551116943359375">
        <ele>1723.4000244140625</ele>
        <time>2026-06-18T11:21:42.000Z</time>
        <extensions>
          <ns3:TrackPointExtension>
            <ns3:atemp>21.0</ns3:atemp>
          </ns3:TrackPointExtension>
        </extensions>
      </trkpt>
      <trkpt lat="42.518754489719867706298828125" lon="19.76773065514862537384033203125">
        <ele>1722.5999755859375</ele>
        <time>2026-06-18T11:21:43.000Z</time>
        <extensions>
          <ns3:TrackPointExtension>
            <ns3:atemp>21.0</ns3:atemp>
          </ns3:TrackPointExtension>
        </extensions>
      </trkpt>
      <trkpt lat="42.518771924078464508056640625" lon="19.76774238981306552886962890625">
        <ele>1722.199951171875</ele>
        <time>2026-06-18T11:21:44.000Z</time>
        <extensions>
          <ns3:TrackPointExtension>
            <ns3:atemp>21.0</ns3:atemp>
          </ns3:TrackPointExtension>
        </extensions>
      </trkpt>
      <trkpt lat="42.51879329793155193328857421875" lon="19.76774976588785648345947265625">
        <ele>1721.4000244140625</ele>
        <time>2026-06-18T11:21:45.000Z</time>
        <extensions>
          <ns3:TrackPointExtension>
            <ns3:atemp>21.0</ns3:atemp>
          </ns3:TrackPointExtension>
        </extensions>
      </trkpt>
      <trkpt lat="42.51881157048046588897705078125" lon="19.767766110599040985107421875">
        <ele>1720.800048828125</ele>
        <time>2026-06-18T11:21:46.000Z</time>
        <extensions>
          <ns3:TrackPointExtension>
            <ns3:atemp>21.0</ns3:atemp>
          </ns3:TrackPointExtension>
        </extensions>
      </trkpt>
      <trkpt lat="42.51882967539131641387939453125" lon="19.76777759380638599395751953125">
        <ele>1720</ele>
        <time>2026-06-18T11:21:47.000Z</time>
        <extensions>
          <ns3:TrackPointExtension>
            <ns3:atemp>21.0</ns3:atemp>
          </ns3:TrackPointExtension>
        </extensions>
      </trkpt>
      <trkpt lat="42.51884543336927890777587890625" lon="19.7677825391292572021484375">
        <ele>1719.199951171875</ele>
        <time>2026-06-18T11:21:48.000Z</time>
        <extensions>
          <ns3:TrackPointExtension>
            <ns3:atemp>21.0</ns3:atemp>
          </ns3:TrackPointExtension>
        </extensions>
      </trkpt>
      <trkpt lat="42.5188601016998291015625" lon="19.7677877359092235565185546875">
        <ele>1718.5999755859375</ele>
        <time>2026-06-18T11:21:49.000Z</time>
        <extensions>
          <ns3:TrackPointExtension>
            <ns3:atemp>21.0</ns3:atemp>
          </ns3:TrackPointExtension>
        </extensions>
      </trkpt>
      <trkpt lat="42.5188756920397281646728515625" lon="19.76778723299503326416015625">
        <ele>1718</ele>
        <time>2026-06-18T11:21:50.000Z</time>
        <extensions>
          <ns3:TrackPointExtension>
            <ns3:atemp>21.0</ns3:atemp>
          </ns3:TrackPointExtension>
        </extensions>
      </trkpt>
      <trkpt lat="42.51889253966510295867919921875" lon="19.76778463460505008697509765625">
        <ele>1717.4000244140625</ele>
        <time>2026-06-18T11:21:51.000Z</time>
        <extensions>
          <ns3:TrackPointExtension>
            <ns3:atemp>21.0</ns3:atemp>
          </ns3:TrackPointExtension>
        </extensions>
      </trkpt>
      <trkpt lat="42.5189088843762874603271484375" lon="19.7677840478718280792236328125">
        <ele>1716.800048828125</ele>
        <time>2026-06-18T11:21:52.000Z</time>
        <extensions>
          <ns3:TrackPointExtension>
            <ns3:atemp>21.0</ns3:atemp>
          </ns3:TrackPointExtension>
        </extensions>
      </trkpt>
      <trkpt lat="42.51892623491585254669189453125" lon="19.76779720745980739593505859375">
        <ele>1716.199951171875</ele>
        <time>2026-06-18T11:21:53.000Z</time>
        <extensions>
          <ns3:TrackPointExtension>
            <ns3:atemp>21.0</ns3:atemp>
          </ns3:TrackPointExtension>
        </extensions>
      </trkpt>
      <trkpt lat="42.518948614597320556640625" lon="19.7677986323833465576171875">
        <ele>1715.4000244140625</ele>
        <time>2026-06-18T11:21:54.000Z</time>
        <extensions>
          <ns3:TrackPointExtension>
            <ns3:atemp>21.0</ns3:atemp>
          </ns3:TrackPointExtension>
        </extensions>
      </trkpt>
      <trkpt lat="42.5189702399075031280517578125" lon="19.76780944503843784332275390625">
        <ele>1714.800048828125</ele>
        <time>2026-06-18T11:21:55.000Z</time>
        <extensions>
          <ns3:TrackPointExtension>
            <ns3:atemp>21.0</ns3:atemp>
          </ns3:TrackPointExtension>
        </extensions>
      </trkpt>
      <trkpt lat="42.51898423768579959869384765625" lon="19.7678205929696559906005859375">
        <ele>1714.199951171875</ele>
        <time>2026-06-18T11:21:56.000Z</time>
        <extensions>
          <ns3:TrackPointExtension>
            <ns3:atemp>21.0</ns3:atemp>
          </ns3:TrackPointExtension>
        </extensions>
      </trkpt>
      <trkpt lat="42.51899815164506435394287109375" lon="19.7678350098431110382080078125">
        <ele>1713.800048828125</ele>
        <time>2026-06-18T11:21:57.000Z</time>
        <extensions>
          <ns3:TrackPointExtension>
            <ns3:atemp>21.0</ns3:atemp>
          </ns3:TrackPointExtension>
        </extensions>
      </trkpt>
      <trkpt lat="42.51901055686175823211669921875" lon="19.76783744059503078460693359375">
        <ele>1713.4000244140625</ele>
        <time>2026-06-18T11:21:58.000Z</time>
        <extensions>
          <ns3:TrackPointExtension>
            <ns3:atemp>21.0</ns3:atemp>
          </ns3:TrackPointExtension>
        </extensions>
      </trkpt>
      <trkpt lat="42.51901902258396148681640625" lon="19.76785269565880298614501953125">
        <ele>1713</ele>
        <time>2026-06-18T11:21:59.000Z</time>
        <extensions>
          <ns3:TrackPointExtension>
            <ns3:atemp>21.0</ns3:atemp>
          </ns3:TrackPointExtension>
        </extensions>
      </trkpt>
      <trkpt lat="42.51902396790683269500732421875" lon="19.76787381805479526519775390625">
        <ele>1712.4000244140625</ele>
        <time>2026-06-18T11:22:00.000Z</time>
        <extensions>
          <ns3:TrackPointExtension>
            <ns3:atemp>21.0</ns3:atemp>
          </ns3:TrackPointExtension>
        </extensions>
      </trkpt>
      <trkpt lat="42.51903553493320941925048828125" lon="19.767884127795696258544921875">
        <ele>1711.800048828125</ele>
        <time>2026-06-18T11:22:01.000Z</time>
        <extensions>
          <ns3:TrackPointExtension>
            <ns3:atemp>21.0</ns3:atemp>
          </ns3:TrackPointExtension>
        </extensions>
      </trkpt>
      <trkpt lat="42.5190491974353790283203125" lon="19.767890833318233489990234375">
        <ele>1711.199951171875</ele>
        <time>2026-06-18T11:22:02.000Z</time>
        <extensions>
          <ns3:TrackPointExtension>
            <ns3:atemp>21.0</ns3:atemp>
          </ns3:TrackPointExtension>
        </extensions>
      </trkpt>
      <trkpt lat="42.51906369812786579132080078125" lon="19.7679054178297519683837890625">
        <ele>1710.5999755859375</ele>
        <time>2026-06-18T11:22:03.000Z</time>
        <extensions>
          <ns3:TrackPointExtension>
            <ns3:atemp>21.0</ns3:atemp>
          </ns3:TrackPointExtension>
        </extensions>
      </trkpt>
      <trkpt lat="42.51908071339130401611328125" lon="19.76790667511522769927978515625">
        <ele>1710</ele>
        <time>2026-06-18T11:22:04.000Z</time>
        <extensions>
          <ns3:TrackPointExtension>
            <ns3:atemp>21.0</ns3:atemp>
          </ns3:TrackPointExtension>
        </extensions>
      </trkpt>
      <trkpt lat="42.51909680664539337158203125" lon="19.76791061460971832275390625">
        <ele>1709.199951171875</ele>
        <time>2026-06-18T11:22:05.000Z</time>
        <extensions>
          <ns3:TrackPointExtension>
            <ns3:atemp>21.0</ns3:atemp>
          </ns3:TrackPointExtension>
        </extensions>
      </trkpt>
      <trkpt lat="42.51910862512886524200439453125" lon="19.7679245285689830780029296875">
        <ele>1708.800048828125</ele>
        <time>2026-06-18T11:22:06.000Z</time>
        <extensions>
          <ns3:TrackPointExtension>
            <ns3:atemp>21.0</ns3:atemp>
          </ns3:TrackPointExtension>
        </extensions>
      </trkpt>
      <trkpt lat="42.51912337727844715118408203125" lon="19.767939113080501556396484375">
        <ele>1708.199951171875</ele>
        <time>2026-06-18T11:22:07.000Z</time>
        <extensions>
          <ns3:TrackPointExtension>
            <ns3:atemp>21.0</ns3:atemp>
          </ns3:TrackPointExtension>
        </extensions>
      </trkpt>
      <trkpt lat="42.5191405601799488067626953125" lon="19.76795696653425693511962890625">
        <ele>1707.5999755859375</ele>
        <time>2026-06-18T11:22:08.000Z</time>
        <extensions>
          <ns3:TrackPointExtension>
            <ns3:atemp>21.0</ns3:atemp>
          </ns3:TrackPointExtension>
        </extensions>
      </trkpt>
      <trkpt lat="42.519153468310832977294921875" lon="19.7679754905402660369873046875">
        <ele>1707</ele>
        <time>2026-06-18T11:22:09.000Z</time>
        <extensions>
          <ns3:TrackPointExtension>
            <ns3:atemp>21.0</ns3:atemp>
          </ns3:TrackPointExtension>
        </extensions>
      </trkpt>
      <trkpt lat="42.51916746608912944793701171875" lon="19.7679917514324188232421875">
        <ele>1706.4000244140625</ele>
        <time>2026-06-18T11:22:10.000Z</time>
        <extensions>
          <ns3:TrackPointExtension>
            <ns3:atemp>21.0</ns3:atemp>
          </ns3:TrackPointExtension>
        </extensions>
      </trkpt>
      <trkpt lat="42.51918339170515537261962890625" lon="19.7680026479065418243408203125">
        <ele>1705.800048828125</ele>
        <time>2026-06-18T11:22:11.000Z</time>
        <extensions>
          <ns3:TrackPointExtension>
            <ns3:atemp>21.0</ns3:atemp>
          </ns3:TrackPointExtension>
        </extensions>
      </trkpt>
      <trkpt lat="42.51920116133987903594970703125" lon="19.76800725795328617095947265625">
        <ele>1705.199951171875</ele>
        <time>2026-06-18T11:22:12.000Z</time>
        <extensions>
          <ns3:TrackPointExtension>
            <ns3:atemp>21.0</ns3:atemp>
          </ns3:TrackPointExtension>
        </extensions>
      </trkpt>
      <trkpt lat="42.519217170774936676025390625" lon="19.76800742559134960174560546875">
        <ele>1704.5999755859375</ele>
        <time>2026-06-18T11:22:13.000Z</time>
        <extensions>
          <ns3:TrackPointExtension>
            <ns3:atemp>21.0</ns3:atemp>
          </ns3:TrackPointExtension>
        </extensions>
      </trkpt>
      <trkpt lat="42.51923401840031147003173828125" lon="19.7680163942277431488037109375">
        <ele>1704.199951171875</ele>
        <time>2026-06-18T11:22:14.000Z</time>
        <extensions>
          <ns3:TrackPointExtension>
            <ns3:atemp>21.0</ns3:atemp>
          </ns3:TrackPointExtension>
        </extensions>
      </trkpt>
      <trkpt lat="42.5192478485405445098876953125" lon="19.7680328227579593658447265625">
        <ele>1703.5999755859375</ele>
        <time>2026-06-18T11:22:15.000Z</time>
        <extensions>
          <ns3:TrackPointExtension>
            <ns3:atemp>21.0</ns3:atemp>
          </ns3:TrackPointExtension>
        </extensions>
      </trkpt>
      <trkpt lat="42.51927173696458339691162109375" lon="19.76803843863308429718017578125">
        <ele>1702.800048828125</ele>
        <time>2026-06-18T11:22:16.000Z</time>
        <extensions>
          <ns3:TrackPointExtension>
            <ns3:atemp>21.0</ns3:atemp>
          </ns3:TrackPointExtension>
        </extensions>
      </trkpt>
      <trkpt lat="42.5193048454821109771728515625" lon="19.76805411279201507568359375">
        <ele>1702.199951171875</ele>
        <time>2026-06-18T11:22:17.000Z</time>
        <extensions>
          <ns3:TrackPointExtension>
            <ns3:atemp>21.0</ns3:atemp>
          </ns3:TrackPointExtension>
        </extensions>
      </trkpt>
      <trkpt lat="42.5193363614380359649658203125" lon="19.76806391961872577667236328125">
        <ele>1701.4000244140625</ele>
        <time>2026-06-18T11:22:18.000Z</time>
        <extensions>
          <ns3:TrackPointExtension>
            <ns3:atemp>21.0</ns3:atemp>
          </ns3:TrackPointExtension>
        </extensions>
      </trkpt>
      <trkpt lat="42.51936368644237518310546875" lon="19.76806676946580410003662109375">
        <ele>1700.5999755859375</ele>
        <time>2026-06-18T11:22:19.000Z</time>
        <extensions>
          <ns3:TrackPointExtension>
            <ns3:atemp>21.0</ns3:atemp>
          </ns3:TrackPointExtension>
        </extensions>
      </trkpt>
      <trkpt lat="42.51939092762768268585205078125" lon="19.76807666011154651641845703125">
        <ele>1699.5999755859375</ele>
        <time>2026-06-18T11:22:20.000Z</time>
        <extensions>
          <ns3:TrackPointExtension>
            <ns3:atemp>21.0</ns3:atemp>
          </ns3:TrackPointExtension>
        </extensions>
      </trkpt>
      <trkpt lat="42.51941791735589504241943359375" lon="19.76808135397732257843017578125">
        <ele>1698.800048828125</ele>
        <time>2026-06-18T11:22:21.000Z</time>
        <extensions>
          <ns3:TrackPointExtension>
            <ns3:atemp>21.0</ns3:atemp>
          </ns3:TrackPointExtension>
        </extensions>
      </trkpt>
      <trkpt lat="42.5194439850747585296630859375" lon="19.76809208281338214874267578125">
        <ele>1697.800048828125</ele>
        <time>2026-06-18T11:22:22.000Z</time>
        <extensions>
          <ns3:TrackPointExtension>
            <ns3:atemp>21.0</ns3:atemp>
          </ns3:TrackPointExtension>
        </extensions>
      </trkpt>
      <trkpt lat="42.5194667838513851165771484375" lon="19.76810373365879058837890625">
        <ele>1697.4000244140625</ele>
        <time>2026-06-18T11:22:23.000Z</time>
        <extensions>
          <ns3:TrackPointExtension>
            <ns3:atemp>21.0</ns3:atemp>
          </ns3:TrackPointExtension>
        </extensions>
      </trkpt>
      <trkpt lat="42.51948296092450618743896484375" lon="19.76810733787715435028076171875">
        <ele>1697</ele>
        <time>2026-06-18T11:22:24.000Z</time>
        <extensions>
          <ns3:TrackPointExtension>
            <ns3:atemp>21.0</ns3:atemp>
          </ns3:TrackPointExtension>
        </extensions>
      </trkpt>
      <trkpt lat="42.51949905417859554290771484375" lon="19.76811110973358154296875">
        <ele>1696.4000244140625</ele>
        <time>2026-06-18T11:22:25.000Z</time>
        <extensions>
          <ns3:TrackPointExtension>
            <ns3:atemp>21.0</ns3:atemp>
          </ns3:TrackPointExtension>
        </extensions>
      </trkpt>
      <trkpt lat="42.5195133872330188751220703125" lon="19.76810214109718799591064453125">
        <ele>1696</ele>
        <time>2026-06-18T11:22:26.000Z</time>
        <extensions>
          <ns3:TrackPointExtension>
            <ns3:atemp>21.0</ns3:atemp>
          </ns3:TrackPointExtension>
        </extensions>
      </trkpt>
      <trkpt lat="42.519526965916156768798828125" lon="19.76809795014560222625732421875">
        <ele>1695.4000244140625</ele>
        <time>2026-06-18T11:22:27.000Z</time>
        <extensions>
          <ns3:TrackPointExtension>
            <ns3:atemp>21.0</ns3:atemp>
          </ns3:TrackPointExtension>
        </extensions>
      </trkpt>
      <trkpt lat="42.5195422209799289703369140625" lon="19.7681059129536151885986328125">
        <ele>1694.800048828125</ele>
        <time>2026-06-18T11:22:28.000Z</time>
        <extensions>
          <ns3:TrackPointExtension>
            <ns3:atemp>21.0</ns3:atemp>
          </ns3:TrackPointExtension>
        </extensions>
      </trkpt>
      <trkpt lat="42.51956258900463581085205078125" lon="19.7681213356554508209228515625">
        <ele>1694.199951171875</ele>
        <time>2026-06-18T11:22:29.000Z</time>
        <extensions>
          <ns3:TrackPointExtension>
            <ns3:atemp>21.0</ns3:atemp>
          </ns3:TrackPointExtension>
        </extensions>
      </trkpt>
      <trkpt lat="42.519584633409976959228515625" lon="19.76813231594860553741455078125">
        <ele>1693.800048828125</ele>
        <time>2026-06-18T11:22:30.000Z</time>
        <extensions>
          <ns3:TrackPointExtension>
            <ns3:atemp>21.0</ns3:atemp>
          </ns3:TrackPointExtension>
        </extensions>
      </trkpt>
      <trkpt lat="42.51960483379662036895751953125" lon="19.7681511752307415008544921875">
        <ele>1693.4000244140625</ele>
        <time>2026-06-18T11:22:31.000Z</time>
        <extensions>
          <ns3:TrackPointExtension>
            <ns3:atemp>21.0</ns3:atemp>
          </ns3:TrackPointExtension>
        </extensions>
      </trkpt>
      <trkpt lat="42.51962427981197834014892578125" lon="19.76816601119935512542724609375">
        <ele>1693</ele>
        <time>2026-06-18T11:22:32.000Z</time>
        <extensions>
          <ns3:TrackPointExtension>
            <ns3:atemp>21.0</ns3:atemp>
          </ns3:TrackPointExtension>
        </extensions>
      </trkpt>
      <trkpt lat="42.51964825205504894256591796875" lon="19.76818495430052280426025390625">
        <ele>1692.4000244140625</ele>
        <time>2026-06-18T11:22:33.000Z</time>
        <extensions>
          <ns3:TrackPointExtension>
            <ns3:atemp>21.0</ns3:atemp>
          </ns3:TrackPointExtension>
        </extensions>
      </trkpt>
      <trkpt lat="42.5196699611842632293701171875" lon="19.7682063281536102294921875">
        <ele>1692.199951171875</ele>
        <time>2026-06-18T11:22:34.000Z</time>
        <extensions>
          <ns3:TrackPointExtension>
            <ns3:atemp>21.0</ns3:atemp>
          </ns3:TrackPointExtension>
        </extensions>
      </trkpt>
      <trkpt lat="42.5196914188563823699951171875" lon="19.76822216995060443878173828125">
        <ele>1691.800048828125</ele>
        <time>2026-06-18T11:22:35.000Z</time>
        <extensions>
          <ns3:TrackPointExtension>
            <ns3:atemp>21.0</ns3:atemp>
          </ns3:TrackPointExtension>
        </extensions>
      </trkpt>
      <trkpt lat="42.5197142176330089569091796875" lon="19.7682383470237255096435546875">
        <ele>1691.199951171875</ele>
        <time>2026-06-18T11:22:36.000Z</time>
        <extensions>
          <ns3:TrackPointExtension>
            <ns3:atemp>21.0</ns3:atemp>
          </ns3:TrackPointExtension>
        </extensions>
      </trkpt>
      <trkpt lat="42.5197353400290012359619140625" lon="19.76826122961938381195068359375">
        <ele>1690.5999755859375</ele>
        <time>2026-06-18T11:22:37.000Z</time>
        <extensions>
          <ns3:TrackPointExtension>
            <ns3:atemp>21.0</ns3:atemp>
          </ns3:TrackPointExtension>
        </extensions>
      </trkpt>
      <trkpt lat="42.5197604857385158538818359375" lon="19.76826810277998447418212890625">
        <ele>1690</ele>
        <time>2026-06-18T11:22:38.000Z</time>
        <extensions>
          <ns3:TrackPointExtension>
            <ns3:atemp>21.0</ns3:atemp>
          </ns3:TrackPointExtension>
        </extensions>
      </trkpt>
      <trkpt lat="42.5197841227054595947265625" lon="19.76827648468315601348876953125">
        <ele>1689.199951171875</ele>
        <time>2026-06-18T11:22:39.000Z</time>
        <extensions>
          <ns3:TrackPointExtension>
            <ns3:atemp>21.0</ns3:atemp>
          </ns3:TrackPointExtension>
        </extensions>
      </trkpt>
      <trkpt lat="42.5198000483214855194091796875" lon="19.7682849504053592681884765625">
        <ele>1688.800048828125</ele>
        <time>2026-06-18T11:22:40.000Z</time>
        <extensions>
          <ns3:TrackPointExtension>
            <ns3:atemp>21.0</ns3:atemp>
          </ns3:TrackPointExtension>
        </extensions>
      </trkpt>
      <trkpt lat="42.51981672830879688262939453125" lon="19.7683047316968441009521484375">
        <ele>1688.199951171875</ele>
        <time>2026-06-18T11:22:41.000Z</time>
        <extensions>
          <ns3:TrackPointExtension>
            <ns3:atemp>21.0</ns3:atemp>
          </ns3:TrackPointExtension>
        </extensions>
      </trkpt>
      <trkpt lat="42.51983382739126682281494140625" lon="19.76832233369350433349609375">
        <ele>1687.5999755859375</ele>
        <time>2026-06-18T11:22:42.000Z</time>
        <extensions>
          <ns3:TrackPointExtension>
            <ns3:atemp>21.0</ns3:atemp>
          </ns3:TrackPointExtension>
        </extensions>
      </trkpt>
      <trkpt lat="42.51985025592148303985595703125" lon="19.76834504865109920501708984375">
        <ele>1687.199951171875</ele>
        <time>2026-06-18T11:22:43.000Z</time>
        <extensions>
          <ns3:TrackPointExtension>
            <ns3:atemp>21.0</ns3:atemp>
          </ns3:TrackPointExtension>
        </extensions>
      </trkpt>
      <trkpt lat="42.51987003721296787261962890625" lon="19.76836449466645717620849609375">
        <ele>1686.5999755859375</ele>
        <time>2026-06-18T11:22:44.000Z</time>
        <extensions>
          <ns3:TrackPointExtension>
            <ns3:atemp>21.0</ns3:atemp>
          </ns3:TrackPointExtension>
        </extensions>
      </trkpt>
      <trkpt lat="42.519891075789928436279296875" lon="19.76838276721537113189697265625">
        <ele>1686.199951171875</ele>
        <time>2026-06-18T11:22:45.000Z</time>
        <extensions>
          <ns3:TrackPointExtension>
            <ns3:atemp>21.0</ns3:atemp>
          </ns3:TrackPointExtension>
        </extensions>
      </trkpt>
      <trkpt lat="42.5199100188910961151123046875" lon="19.7684022970497608184814453125">
        <ele>1685.800048828125</ele>
        <time>2026-06-18T11:22:46.000Z</time>
        <extensions>
          <ns3:TrackPointExtension>
            <ns3:atemp>21.0</ns3:atemp>
          </ns3:TrackPointExtension>
        </extensions>
      </trkpt>
      <trkpt lat="42.5199210830032825469970703125" lon="19.768424592912197113037109375">
        <ele>1685.199951171875</ele>
        <time>2026-06-18T11:22:47.000Z</time>
        <extensions>
          <ns3:TrackPointExtension>
            <ns3:atemp>21.0</ns3:atemp>
          </ns3:TrackPointExtension>
        </extensions>
      </trkpt>
      <trkpt lat="42.519932650029659271240234375" lon="19.768451415002346038818359375">
        <ele>1684.800048828125</ele>
        <time>2026-06-18T11:22:48.000Z</time>
        <extensions>
          <ns3:TrackPointExtension>
            <ns3:atemp>21.0</ns3:atemp>
          </ns3:TrackPointExtension>
        </extensions>
      </trkpt>
      <trkpt lat="42.51995285041630268096923828125" lon="19.76847664453089237213134765625">
        <ele>1684.4000244140625</ele>
        <time>2026-06-18T11:22:49.000Z</time>
        <extensions>
          <ns3:TrackPointExtension>
            <ns3:atemp>21.0</ns3:atemp>
          </ns3:TrackPointExtension>
        </extensions>
      </trkpt>
      <trkpt lat="42.5199772417545318603515625" lon="19.768499694764614105224609375">
        <ele>1683.5999755859375</ele>
        <time>2026-06-18T11:22:50.000Z</time>
        <extensions>
          <ns3:TrackPointExtension>
            <ns3:atemp>21.0</ns3:atemp>
          </ns3:TrackPointExtension>
        </extensions>
      </trkpt>
      <trkpt lat="42.52000029198825359344482421875" lon="19.76851888932287693023681640625">
        <ele>1683</ele>
        <time>2026-06-18T11:22:51.000Z</time>
        <extensions>
          <ns3:TrackPointExtension>
            <ns3:atemp>21.0</ns3:atemp>
          </ns3:TrackPointExtension>
        </extensions>
      </trkpt>
      <trkpt lat="42.52002426423132419586181640625" lon="19.76853548549115657806396484375">
        <ele>1682.4000244140625</ele>
        <time>2026-06-18T11:22:52.000Z</time>
        <extensions>
          <ns3:TrackPointExtension>
            <ns3:atemp>21.0</ns3:atemp>
          </ns3:TrackPointExtension>
        </extensions>
      </trkpt>
      <trkpt lat="42.5200469791889190673828125" lon="19.768555350601673126220703125">
        <ele>1681.5999755859375</ele>
        <time>2026-06-18T11:22:53.000Z</time>
        <extensions>
          <ns3:TrackPointExtension>
            <ns3:atemp>21.0</ns3:atemp>
          </ns3:TrackPointExtension>
        </extensions>
      </trkpt>
      <trkpt lat="42.5200659222900867462158203125" lon="19.7685773111879825592041015625">
        <ele>1681</ele>
        <time>2026-06-18T11:22:54.000Z</time>
        <extensions>
          <ns3:TrackPointExtension>
            <ns3:atemp>21.0</ns3:atemp>
          </ns3:TrackPointExtension>
        </extensions>
      </trkpt>
      <trkpt lat="42.5200907327234745025634765625" lon="19.76858980022370815277099609375">
        <ele>1680.199951171875</ele>
        <time>2026-06-18T11:22:55.000Z</time>
        <extensions>
          <ns3:TrackPointExtension>
            <ns3:atemp>21.0</ns3:atemp>
          </ns3:TrackPointExtension>
        </extensions>
      </trkpt>
      <trkpt lat="42.52011311240494251251220703125" lon="19.76859030313789844512939453125">
        <ele>1679.4000244140625</ele>
        <time>2026-06-18T11:22:56.000Z</time>
        <extensions>
          <ns3:TrackPointExtension>
            <ns3:atemp>21.0</ns3:atemp>
          </ns3:TrackPointExtension>
        </extensions>
      </trkpt>
      <trkpt lat="42.52013037912547588348388671875" lon="19.7686007805168628692626953125">
        <ele>1678.800048828125</ele>
        <time>2026-06-18T11:22:57.000Z</time>
        <extensions>
          <ns3:TrackPointExtension>
            <ns3:atemp>21.0</ns3:atemp>
          </ns3:TrackPointExtension>
        </extensions>
      </trkpt>
      <trkpt lat="42.52014731056988239288330078125" lon="19.7686074860394001007080078125">
        <ele>1678.199951171875</ele>
        <time>2026-06-18T11:22:58.000Z</time>
        <extensions>
          <ns3:TrackPointExtension>
            <ns3:atemp>21.0</ns3:atemp>
          </ns3:TrackPointExtension>
        </extensions>
      </trkpt>
      <trkpt lat="42.52016357146203517913818359375" lon="19.768614359200000762939453125">
        <ele>1677.5999755859375</ele>
        <time>2026-06-18T11:22:59.000Z</time>
        <extensions>
          <ns3:TrackPointExtension>
            <ns3:atemp>21.0</ns3:atemp>
          </ns3:TrackPointExtension>
        </extensions>
      </trkpt>
      <trkpt lat="42.5201765634119510650634765625" lon="19.76863757707178592681884765625">
        <ele>1677.199951171875</ele>
        <time>2026-06-18T11:23:00.000Z</time>
        <extensions>
          <ns3:TrackPointExtension>
            <ns3:atemp>21.0</ns3:atemp>
          </ns3:TrackPointExtension>
        </extensions>
      </trkpt>
      <trkpt lat="42.52018670551478862762451171875" lon="19.7686470486223697662353515625">
        <ele>1676.4000244140625</ele>
        <time>2026-06-18T11:23:01.000Z</time>
        <extensions>
          <ns3:TrackPointExtension>
            <ns3:atemp>21.0</ns3:atemp>
          </ns3:TrackPointExtension>
        </extensions>
      </trkpt>
      <trkpt lat="42.52019827254116535186767578125" lon="19.768657274544239044189453125">
        <ele>1676</ele>
        <time>2026-06-18T11:23:02.000Z</time>
        <extensions>
          <ns3:TrackPointExtension>
            <ns3:atemp>21.0</ns3:atemp>
          </ns3:TrackPointExtension>
        </extensions>
      </trkpt>
      <trkpt lat="42.520214952528476715087890625" lon="19.76868250407278537750244140625">
        <ele>1675.4000244140625</ele>
        <time>2026-06-18T11:23:03.000Z</time>
        <extensions>
          <ns3:TrackPointExtension>
            <ns3:atemp>21.0</ns3:atemp>
          </ns3:TrackPointExtension>
        </extensions>
      </trkpt>
      <trkpt lat="42.52022266387939453125" lon="19.76871418766677379608154296875">
        <ele>1675</ele>
        <time>2026-06-18T11:23:04.000Z</time>
        <extensions>
          <ns3:TrackPointExtension>
            <ns3:atemp>21.0</ns3:atemp>
          </ns3:TrackPointExtension>
        </extensions>
      </trkpt>
      <trkpt lat="42.5202325545251369476318359375" lon="19.76874117739498615264892578125">
        <ele>1674.199951171875</ele>
        <time>2026-06-18T11:23:05.000Z</time>
        <extensions>
          <ns3:TrackPointExtension>
            <ns3:atemp>21.0</ns3:atemp>
          </ns3:TrackPointExtension>
        </extensions>
      </trkpt>
      <trkpt lat="42.52024470828473567962646484375" lon="19.76876498199999332427978515625">
        <ele>1673.5999755859375</ele>
        <time>2026-06-18T11:23:06.000Z</time>
        <extensions>
          <ns3:TrackPointExtension>
            <ns3:atemp>21.0</ns3:atemp>
          </ns3:TrackPointExtension>
        </extensions>
      </trkpt>
      <trkpt lat="42.52025443129241466522216796875" lon="19.768785350024700164794921875">
        <ele>1672.800048828125</ele>
        <time>2026-06-18T11:23:07.000Z</time>
        <extensions>
          <ns3:TrackPointExtension>
            <ns3:atemp>21.0</ns3:atemp>
          </ns3:TrackPointExtension>
        </extensions>
      </trkpt>
      <trkpt lat="42.52026214264333248138427734375" lon="19.76880270056426525115966796875">
        <ele>1672.199951171875</ele>
        <time>2026-06-18T11:23:08.000Z</time>
        <extensions>
          <ns3:TrackPointExtension>
            <ns3:atemp>21.0</ns3:atemp>
          </ns3:TrackPointExtension>
        </extensions>
      </trkpt>
      <trkpt lat="42.520271949470043182373046875" lon="19.76881376467645168304443359375">
        <ele>1671.800048828125</ele>
        <time>2026-06-18T11:23:09.000Z</time>
        <extensions>
          <ns3:TrackPointExtension>
            <ns3:atemp>21.0</ns3:atemp>
          </ns3:TrackPointExtension>
        </extensions>
      </trkpt>
      <trkpt lat="42.52028712071478366851806640625" lon="19.76881510578095912933349609375">
        <ele>1671.4000244140625</ele>
        <time>2026-06-18T11:23:10.000Z</time>
        <extensions>
          <ns3:TrackPointExtension>
            <ns3:atemp>21.0</ns3:atemp>
          </ns3:TrackPointExtension>
        </extensions>
      </trkpt>
      <trkpt lat="42.5203017890453338623046875" lon="19.76880370639264583587646484375">
        <ele>1671.199951171875</ele>
        <time>2026-06-18T11:23:11.000Z</time>
        <extensions>
          <ns3:TrackPointExtension>
            <ns3:atemp>21.0</ns3:atemp>
          </ns3:TrackPointExtension>
        </extensions>
      </trkpt>
      <trkpt lat="42.52030673436820507049560546875" lon="19.7687856853008270263671875">
        <ele>1670.800048828125</ele>
        <time>2026-06-18T11:23:12.000Z</time>
        <extensions>
          <ns3:TrackPointExtension>
            <ns3:atemp>21.0</ns3:atemp>
          </ns3:TrackPointExtension>
        </extensions>
      </trkpt>
      <trkpt lat="42.5203063152730464935302734375" lon="19.76876565255224704742431640625">
        <ele>1670.4000244140625</ele>
        <time>2026-06-18T11:23:13.000Z</time>
        <extensions>
          <ns3:TrackPointExtension>
            <ns3:atemp>21.0</ns3:atemp>
          </ns3:TrackPointExtension>
        </extensions>
      </trkpt>
      <trkpt lat="42.52030757255852222442626953125" lon="19.7687469609081745147705078125">
        <ele>1670</ele>
        <time>2026-06-18T11:23:14.000Z</time>
        <extensions>
          <ns3:TrackPointExtension>
            <ns3:atemp>21.0</ns3:atemp>
          </ns3:TrackPointExtension>
        </extensions>
      </trkpt>
      <trkpt lat="42.5203126855194568634033203125" lon="19.76872273720800876617431640625">
        <ele>1669.5999755859375</ele>
        <time>2026-06-18T11:23:15.000Z</time>
        <extensions>
          <ns3:TrackPointExtension>
            <ns3:atemp>21.0</ns3:atemp>
          </ns3:TrackPointExtension>
        </extensions>
      </trkpt>
      <trkpt lat="42.52031696029007434844970703125" lon="19.7687151096761226654052734375">
        <ele>1669.199951171875</ele>
        <time>2026-06-18T11:23:16.000Z</time>
        <extensions>
          <ns3:TrackPointExtension>
            <ns3:atemp>21.0</ns3:atemp>
          </ns3:TrackPointExtension>
        </extensions>
      </trkpt>
      <trkpt lat="42.5203153677284717559814453125" lon="19.7687104158103466033935546875">
        <ele>1669</ele>
        <time>2026-06-18T11:23:17.000Z</time>
        <extensions>
          <ns3:TrackPointExtension>
            <ns3:atemp>21.0</ns3:atemp>
          </ns3:TrackPointExtension>
        </extensions>
      </trkpt>
      <trkpt lat="42.5203152000904083251953125" lon="19.7687105834484100341796875">
        <ele>1669</ele>
        <time>2026-06-18T11:23:18.000Z</time>
        <extensions>
          <ns3:TrackPointExtension>
            <ns3:atemp>21.0</ns3:atemp>
          </ns3:TrackPointExtension>
        </extensions>
      </trkpt>
      <trkpt lat="42.5203152000904083251953125" lon="19.7687105834484100341796875">
        <ele>1668.800048828125</ele>
        <time>2026-06-18T11:23:19.000Z</time>
        <extensions>
          <ns3:TrackPointExtension>
            <ns3:atemp>21.0</ns3:atemp>
          </ns3:TrackPointExtension>
        </extensions>
      </trkpt>
      <trkpt lat="42.5203152000904083251953125" lon="19.7687105834484100341796875">
        <ele>1668.800048828125</ele>
        <time>2026-06-18T11:23:20.000Z</time>
        <extensions>
          <ns3:TrackPointExtension>
            <ns3:atemp>21.0</ns3:atemp>
          </ns3:TrackPointExtension>
        </extensions>
      </trkpt>
      <trkpt lat="42.5203152000904083251953125" lon="19.7687105834484100341796875">
        <ele>1668.800048828125</ele>
        <time>2026-06-18T11:23:21.000Z</time>
        <extensions>
          <ns3:TrackPointExtension>
            <ns3:atemp>21.0</ns3:atemp>
          </ns3:TrackPointExtension>
        </extensions>
      </trkpt>
      <trkpt lat="42.5203152000904083251953125" lon="19.7687105834484100341796875">
        <ele>1668.5999755859375</ele>
        <time>2026-06-18T11:23:22.000Z</time>
        <extensions>
          <ns3:TrackPointExtension>
            <ns3:atemp>21.0</ns3:atemp>
          </ns3:TrackPointExtension>
        </extensions>
      </trkpt>
      <trkpt lat="42.5203152000904083251953125" lon="19.7687105834484100341796875">
        <ele>1668.5999755859375</ele>
        <time>2026-06-18T11:23:23.000Z</time>
        <extensions>
          <ns3:TrackPointExtension>
            <ns3:atemp>21.0</ns3:atemp>
          </ns3:TrackPointExtension>
        </extensions>
      </trkpt>
      <trkpt lat="42.5203152000904083251953125" lon="19.7687105834484100341796875">
        <ele>1668.5999755859375</ele>
        <time>2026-06-18T11:23:24.000Z</time>
        <extensions>
          <ns3:TrackPointExtension>
            <ns3:atemp>21.0</ns3:atemp>
          </ns3:TrackPointExtension>
        </extensions>
      </trkpt>
      <trkpt lat="42.5203152000904083251953125" lon="19.7687105834484100341796875">
        <ele>1668.4000244140625</ele>
        <time>2026-06-18T11:23:25.000Z</time>
        <extensions>
          <ns3:TrackPointExtension>
            <ns3:atemp>21.0</ns3:atemp>
          </ns3:TrackPointExtension>
        </extensions>
      </trkpt>
      <trkpt lat="42.5203152000904083251953125" lon="19.7687105834484100341796875">
        <ele>1668.4000244140625</ele>
        <time>2026-06-18T11:23:26.000Z</time>
        <extensions>
          <ns3:TrackPointExtension>
            <ns3:atemp>21.0</ns3:atemp>
          </ns3:TrackPointExtension>
        </extensions>
      </trkpt>
      <trkpt lat="42.5203152000904083251953125" lon="19.7687105834484100341796875">
        <ele>1668.4000244140625</ele>
        <time>2026-06-18T11:23:27.000Z</time>
        <extensions>
          <ns3:TrackPointExtension>
            <ns3:atemp>21.0</ns3:atemp>
          </ns3:TrackPointExtension>
        </extensions>
      </trkpt>
      <trkpt lat="42.5203152000904083251953125" lon="19.7687105834484100341796875">
        <ele>1668.199951171875</ele>
        <time>2026-06-18T11:23:28.000Z</time>
        <extensions>
          <ns3:TrackPointExtension>
            <ns3:atemp>21.0</ns3:atemp>
          </ns3:TrackPointExtension>
        </extensions>
      </trkpt>
      <trkpt lat="42.52031452953815460205078125" lon="19.76871192455291748046875">
        <ele>1668.199951171875</ele>
        <time>2026-06-18T11:23:29.000Z</time>
        <extensions>
          <ns3:TrackPointExtension>
            <ns3:atemp>21.0</ns3:atemp>
          </ns3:TrackPointExtension>
        </extensions>
      </trkpt>
      <trkpt lat="42.520316541194915771484375" lon="19.7687141038477420806884765625">
        <ele>1668.199951171875</ele>
        <time>2026-06-18T11:23:30.000Z</time>
        <extensions>
          <ns3:TrackPointExtension>
            <ns3:atemp>21.0</ns3:atemp>
          </ns3:TrackPointExtension>
        </extensions>
      </trkpt>
      <trkpt lat="42.5203237496316432952880859375" lon="19.7687020339071750640869140625">
        <ele>1668.199951171875</ele>
        <time>2026-06-18T11:23:31.000Z</time>
        <extensions>
          <ns3:TrackPointExtension>
            <ns3:atemp>21.0</ns3:atemp>
          </ns3:TrackPointExtension>
        </extensions>
      </trkpt>
      <trkpt lat="42.5203312933444976806640625" lon="19.76869356818497180938720703125">
        <ele>1668.199951171875</ele>
        <time>2026-06-18T11:23:32.000Z</time>
        <extensions>
          <ns3:TrackPointExtension>
            <ns3:atemp>21.0</ns3:atemp>
          </ns3:TrackPointExtension>
        </extensions>
      </trkpt>
      <trkpt lat="42.52034864388406276702880859375" lon="19.76868032477796077728271484375">
        <ele>1668.199951171875</ele>
        <time>2026-06-18T11:23:33.000Z</time>
        <extensions>
          <ns3:TrackPointExtension>
            <ns3:atemp>21.0</ns3:atemp>
          </ns3:TrackPointExtension>
        </extensions>
      </trkpt>
      <trkpt lat="42.5203592889010906219482421875" lon="19.768685437738895416259765625">
        <ele>1668</ele>
        <time>2026-06-18T11:23:34.000Z</time>
        <extensions>
          <ns3:TrackPointExtension>
            <ns3:atemp>21.0</ns3:atemp>
          </ns3:TrackPointExtension>
        </extensions>
      </trkpt>
      <trkpt lat="42.5203787349164485931396484375" lon="19.76868820376694202423095703125">
        <ele>1668</ele>
        <time>2026-06-18T11:23:35.000Z</time>
        <extensions>
          <ns3:TrackPointExtension>
            <ns3:atemp>21.0</ns3:atemp>
          </ns3:TrackPointExtension>
        </extensions>
      </trkpt>
      <trkpt lat="42.5203918106853961944580078125" lon="19.7686735354363918304443359375">
        <ele>1668</ele>
        <time>2026-06-18T11:23:36.000Z</time>
        <extensions>
          <ns3:TrackPointExtension>
            <ns3:atemp>21.0</ns3:atemp>
          </ns3:TrackPointExtension>
        </extensions>
      </trkpt>
      <trkpt lat="42.52040974795818328857421875" lon="19.7686557658016681671142578125">
        <ele>1667.800048828125</ele>
        <time>2026-06-18T11:23:37.000Z</time>
        <extensions>
          <ns3:TrackPointExtension>
            <ns3:atemp>21.0</ns3:atemp>
          </ns3:TrackPointExtension>
        </extensions>
      </trkpt>
      <trkpt lat="42.52042944543063640594482421875" lon="19.76863707415759563446044921875">
        <ele>1667.800048828125</ele>
        <time>2026-06-18T11:23:38.000Z</time>
        <extensions>
          <ns3:TrackPointExtension>
            <ns3:atemp>21.0</ns3:atemp>
          </ns3:TrackPointExtension>
        </extensions>
      </trkpt>
      <trkpt lat="42.520445287227630615234375" lon="19.7686259262263774871826171875">
        <ele>1667.5999755859375</ele>
        <time>2026-06-18T11:23:39.000Z</time>
        <extensions>
          <ns3:TrackPointExtension>
            <ns3:atemp>21.0</ns3:atemp>
          </ns3:TrackPointExtension>
        </extensions>
      </trkpt>
      <trkpt lat="42.5204652361571788787841796875" lon="19.76863858290016651153564453125">
        <ele>1667.4000244140625</ele>
        <time>2026-06-18T11:23:40.000Z</time>
        <extensions>
          <ns3:TrackPointExtension>
            <ns3:atemp>21.0</ns3:atemp>
          </ns3:TrackPointExtension>
        </extensions>
      </trkpt>
      <trkpt lat="42.5204895436763763427734375" lon="19.7686493955552577972412109375">
        <ele>1667.4000244140625</ele>
        <time>2026-06-18T11:23:41.000Z</time>
        <extensions>
          <ns3:TrackPointExtension>
            <ns3:atemp>21.0</ns3:atemp>
          </ns3:TrackPointExtension>
        </extensions>
      </trkpt>
      <trkpt lat="42.5205178745090961456298828125" lon="19.76865668781101703643798828125">
        <ele>1667.199951171875</ele>
        <time>2026-06-18T11:23:42.000Z</time>
        <extensions>
          <ns3:TrackPointExtension>
            <ns3:atemp>21.0</ns3:atemp>
          </ns3:TrackPointExtension>
        </extensions>
      </trkpt>
      <trkpt lat="42.52055165357887744903564453125" lon="19.76867546327412128448486328125">
        <ele>1667.199951171875</ele>
        <time>2026-06-18T11:23:43.000Z</time>
        <extensions>
          <ns3:TrackPointExtension>
            <ns3:atemp>21.0</ns3:atemp>
          </ns3:TrackPointExtension>
        </extensions>
      </trkpt>
      <trkpt lat="42.52058736048638820648193359375" lon="19.76870228536427021026611328125">
        <ele>1667</ele>
        <time>2026-06-18T11:23:44.000Z</time>
        <extensions>
          <ns3:TrackPointExtension>
            <ns3:atemp>21.0</ns3:atemp>
          </ns3:TrackPointExtension>
        </extensions>
      </trkpt>
      <trkpt lat="42.52062507905066013336181640625" lon="19.76873807609081268310546875">
        <ele>1666.800048828125</ele>
        <time>2026-06-18T11:23:45.000Z</time>
        <extensions>
          <ns3:TrackPointExtension>
            <ns3:atemp>21.0</ns3:atemp>
          </ns3:TrackPointExtension>
        </extensions>
      </trkpt>
      <trkpt lat="42.52065340988337993621826171875" lon="19.768779315054416656494140625">
        <ele>1666.5999755859375</ele>
        <time>2026-06-18T11:23:46.000Z</time>
        <extensions>
          <ns3:TrackPointExtension>
            <ns3:atemp>21.0</ns3:atemp>
          </ns3:TrackPointExtension>
        </extensions>
      </trkpt>
      <trkpt lat="42.52068324945867061614990234375" lon="19.768811501562595367431640625">
        <ele>1666.199951171875</ele>
        <time>2026-06-18T11:23:47.000Z</time>
        <extensions>
          <ns3:TrackPointExtension>
            <ns3:atemp>21.0</ns3:atemp>
          </ns3:TrackPointExtension>
        </extensions>
      </trkpt>
      <trkpt lat="42.52071359194815158843994140625" lon="19.7688334621489048004150390625">
        <ele>1665.800048828125</ele>
        <time>2026-06-18T11:23:48.000Z</time>
        <extensions>
          <ns3:TrackPointExtension>
            <ns3:atemp>21.0</ns3:atemp>
          </ns3:TrackPointExtension>
        </extensions>
      </trkpt>
      <trkpt lat="42.5207425095140933990478515625" lon="19.76885232143104076385498046875">
        <ele>1665.4000244140625</ele>
        <time>2026-06-18T11:23:49.000Z</time>
        <extensions>
          <ns3:TrackPointExtension>
            <ns3:atemp>21.0</ns3:atemp>
          </ns3:TrackPointExtension>
        </extensions>
      </trkpt>
      <trkpt lat="42.5207631289958953857421875" lon="19.768862463533878326416015625">
        <ele>1665</ele>
        <time>2026-06-18T11:23:50.000Z</time>
        <extensions>
          <ns3:TrackPointExtension>
            <ns3:atemp>21.0</ns3:atemp>
          </ns3:TrackPointExtension>
        </extensions>
      </trkpt>
      <trkpt lat="42.5207971595227718353271484375" lon="19.768859110772609710693359375">
        <ele>1664.5999755859375</ele>
        <time>2026-06-18T11:23:51.000Z</time>
        <extensions>
          <ns3:TrackPointExtension>
            <ns3:atemp>21.0</ns3:atemp>
          </ns3:TrackPointExtension>
        </extensions>
      </trkpt>
      <trkpt lat="42.52083479426801204681396484375" lon="19.76885215379297733306884765625">
        <ele>1663.800048828125</ele>
        <time>2026-06-18T11:23:52.000Z</time>
        <extensions>
          <ns3:TrackPointExtension>
            <ns3:atemp>21.0</ns3:atemp>
          </ns3:TrackPointExtension>
        </extensions>
      </trkpt>
      <trkpt lat="42.52086765132844448089599609375" lon="19.76883790455758571624755859375">
        <ele>1663.199951171875</ele>
        <time>2026-06-18T11:23:53.000Z</time>
        <extensions>
          <ns3:TrackPointExtension>
            <ns3:atemp>21.0</ns3:atemp>
          </ns3:TrackPointExtension>
        </extensions>
      </trkpt>
      <trkpt lat="42.520892210304737091064453125" lon="19.76882700808346271514892578125">
        <ele>1662.800048828125</ele>
        <time>2026-06-18T11:23:54.000Z</time>
        <extensions>
          <ns3:TrackPointExtension>
            <ns3:atemp>21.0</ns3:atemp>
          </ns3:TrackPointExtension>
        </extensions>
      </trkpt>
      <trkpt lat="42.52092540264129638671875" lon="19.76883505471050739288330078125">
        <ele>1662.4000244140625</ele>
        <time>2026-06-18T11:23:55.000Z</time>
        <extensions>
          <ns3:TrackPointExtension>
            <ns3:atemp>21.0</ns3:atemp>
          </ns3:TrackPointExtension>
        </extensions>
      </trkpt>
      <trkpt lat="42.520956583321094512939453125" lon="19.7688205540180206298828125">
        <ele>1661.800048828125</ele>
        <time>2026-06-18T11:23:56.000Z</time>
        <extensions>
          <ns3:TrackPointExtension>
            <ns3:atemp>21.0</ns3:atemp>
          </ns3:TrackPointExtension>
        </extensions>
      </trkpt>
      <trkpt lat="42.5209879316389560699462890625" lon="19.76880722679197788238525390625">
        <ele>1661.199951171875</ele>
        <time>2026-06-18T11:23:57.000Z</time>
        <extensions>
          <ns3:TrackPointExtension>
            <ns3:atemp>21.0</ns3:atemp>
          </ns3:TrackPointExtension>
        </extensions>
      </trkpt>
      <trkpt lat="42.52102372236549854278564453125" lon="19.76879968307912349700927734375">
        <ele>1660.4000244140625</ele>
        <time>2026-06-18T11:23:58.000Z</time>
        <extensions>
          <ns3:TrackPointExtension>
            <ns3:atemp>21.0</ns3:atemp>
          </ns3:TrackPointExtension>
        </extensions>
      </trkpt>
      <trkpt lat="42.52106512896716594696044921875" lon="19.76880638860166072845458984375">
        <ele>1659.800048828125</ele>
        <time>2026-06-18T11:23:59.000Z</time>
        <extensions>
          <ns3:TrackPointExtension>
            <ns3:atemp>21.0</ns3:atemp>
          </ns3:TrackPointExtension>
        </extensions>
      </trkpt>
      <trkpt lat="42.52110712230205535888671875" lon="19.76882583461701869964599609375">
        <ele>1659</ele>
        <time>2026-06-18T11:24:00.000Z</time>
        <extensions>
          <ns3:TrackPointExtension>
            <ns3:atemp>21.0</ns3:atemp>
          </ns3:TrackPointExtension>
        </extensions>
      </trkpt>
      <trkpt lat="42.52115012146532535552978515625" lon="19.76884000003337860107421875">
        <ele>1658.199951171875</ele>
        <time>2026-06-18T11:24:01.000Z</time>
        <extensions>
          <ns3:TrackPointExtension>
            <ns3:atemp>21.0</ns3:atemp>
          </ns3:TrackPointExtension>
        </extensions>
      </trkpt>
      <trkpt lat="42.52119521610438823699951171875" lon="19.76884192787110805511474609375">
        <ele>1657.4000244140625</ele>
        <time>2026-06-18T11:24:02.000Z</time>
        <extensions>
          <ns3:TrackPointExtension>
            <ns3:atemp>21.0</ns3:atemp>
          </ns3:TrackPointExtension>
        </extensions>
      </trkpt>
      <trkpt lat="42.5212450884282588958740234375" lon="19.768847711384296417236328125">
        <ele>1656.4000244140625</ele>
        <time>2026-06-18T11:24:03.000Z</time>
        <extensions>
          <ns3:TrackPointExtension>
            <ns3:atemp>21.0</ns3:atemp>
          </ns3:TrackPointExtension>
        </extensions>
      </trkpt>
      <trkpt lat="42.52129429019987583160400390625" lon="19.7688723541796207427978515625">
        <ele>1655.4000244140625</ele>
        <time>2026-06-18T11:24:04.000Z</time>
        <extensions>
          <ns3:TrackPointExtension>
            <ns3:atemp>21.0</ns3:atemp>
          </ns3:TrackPointExtension>
        </extensions>
      </trkpt>
      <trkpt lat="42.52133502624928951263427734375" lon="19.7688944824039936065673828125">
        <ele>1654.5999755859375</ele>
        <time>2026-06-18T11:24:05.000Z</time>
        <extensions>
          <ns3:TrackPointExtension>
            <ns3:atemp>21.0</ns3:atemp>
          </ns3:TrackPointExtension>
        </extensions>
      </trkpt>
      <trkpt lat="42.52137542702257633209228515625" lon="19.76889431476593017578125">
        <ele>1653.800048828125</ele>
        <time>2026-06-18T11:24:06.000Z</time>
        <extensions>
          <ns3:TrackPointExtension>
            <ns3:atemp>21.0</ns3:atemp>
          </ns3:TrackPointExtension>
        </extensions>
      </trkpt>
      <trkpt lat="42.52141616307199001312255859375" lon="19.76889037527143955230712890625">
        <ele>1653.199951171875</ele>
        <time>2026-06-18T11:24:07.000Z</time>
        <extensions>
          <ns3:TrackPointExtension>
            <ns3:atemp>21.0</ns3:atemp>
          </ns3:TrackPointExtension>
        </extensions>
      </trkpt>
      <trkpt lat="42.52145891077816486358642578125" lon="19.7688914649188518524169921875">
        <ele>1652.4000244140625</ele>
        <time>2026-06-18T11:24:08.000Z</time>
        <extensions>
          <ns3:TrackPointExtension>
            <ns3:atemp>21.0</ns3:atemp>
          </ns3:TrackPointExtension>
        </extensions>
      </trkpt>
      <trkpt lat="42.521507106721401214599609375" lon="19.76889423094689846038818359375">
        <ele>1651.5999755859375</ele>
        <time>2026-06-18T11:24:09.000Z</time>
        <extensions>
          <ns3:TrackPointExtension>
            <ns3:atemp>21.0</ns3:atemp>
          </ns3:TrackPointExtension>
        </extensions>
      </trkpt>
      <trkpt lat="42.52155915834009647369384765625" lon="19.7688981704413890838623046875">
        <ele>1650.5999755859375</ele>
        <time>2026-06-18T11:24:10.000Z</time>
        <extensions>
          <ns3:TrackPointExtension>
            <ns3:atemp>21.0</ns3:atemp>
          </ns3:TrackPointExtension>
        </extensions>
      </trkpt>
      <trkpt lat="42.52160777337849140167236328125" lon="19.7689063847064971923828125">
        <ele>1649.800048828125</ele>
        <time>2026-06-18T11:24:11.000Z</time>
        <extensions>
          <ns3:TrackPointExtension>
            <ns3:atemp>21.0</ns3:atemp>
          </ns3:TrackPointExtension>
        </extensions>
      </trkpt>
      <trkpt lat="42.521655969321727752685546875" lon="19.768921472132205963134765625">
        <ele>1648.800048828125</ele>
        <time>2026-06-18T11:24:12.000Z</time>
        <extensions>
          <ns3:TrackPointExtension>
            <ns3:atemp>21.0</ns3:atemp>
          </ns3:TrackPointExtension>
        </extensions>
      </trkpt>
      <trkpt lat="42.521700561046600341796875" lon="19.76891518570482730865478515625">
        <ele>1648</ele>
        <time>2026-06-18T11:24:13.000Z</time>
        <extensions>
          <ns3:TrackPointExtension>
            <ns3:atemp>21.0</ns3:atemp>
          </ns3:TrackPointExtension>
        </extensions>
      </trkpt>
      <trkpt lat="42.5217396207153797149658203125" lon="19.7689018584787845611572265625">
        <ele>1647.199951171875</ele>
        <time>2026-06-18T11:24:14.000Z</time>
        <extensions>
          <ns3:TrackPointExtension>
            <ns3:atemp>21.0</ns3:atemp>
          </ns3:TrackPointExtension>
        </extensions>
      </trkpt>
      <trkpt lat="42.52177356742322444915771484375" lon="19.768887273967266082763671875">
        <ele>1646.4000244140625</ele>
        <time>2026-06-18T11:24:15.000Z</time>
        <extensions>
          <ns3:TrackPointExtension>
            <ns3:atemp>21.0</ns3:atemp>
          </ns3:TrackPointExtension>
        </extensions>
      </trkpt>
      <trkpt lat="42.52180156297981739044189453125" lon="19.768882580101490020751953125">
        <ele>1645.800048828125</ele>
        <time>2026-06-18T11:24:16.000Z</time>
        <extensions>
          <ns3:TrackPointExtension>
            <ns3:atemp>21.0</ns3:atemp>
          </ns3:TrackPointExtension>
        </extensions>
      </trkpt>
      <trkpt lat="42.5218298099935054779052734375" lon="19.768889285624027252197265625">
        <ele>1645.199951171875</ele>
        <time>2026-06-18T11:24:17.000Z</time>
        <extensions>
          <ns3:TrackPointExtension>
            <ns3:atemp>21.0</ns3:atemp>
          </ns3:TrackPointExtension>
        </extensions>
      </trkpt>
      <trkpt lat="42.52185855992138385772705078125" lon="19.7688810713589191436767578125">
        <ele>1644.5999755859375</ele>
        <time>2026-06-18T11:24:18.000Z</time>
        <extensions>
          <ns3:TrackPointExtension>
            <ns3:atemp>21.0</ns3:atemp>
          </ns3:TrackPointExtension>
        </extensions>
      </trkpt>
      <trkpt lat="42.5218847952783107757568359375" lon="19.76888702251017093658447265625">
        <ele>1644</ele>
        <time>2026-06-18T11:24:19.000Z</time>
        <extensions>
          <ns3:TrackPointExtension>
            <ns3:atemp>21.0</ns3:atemp>
          </ns3:TrackPointExtension>
        </extensions>
      </trkpt>
      <trkpt lat="42.52190373837947845458984375" lon="19.768908731639385223388671875">
        <ele>1643.4000244140625</ele>
        <time>2026-06-18T11:24:20.000Z</time>
        <extensions>
          <ns3:TrackPointExtension>
            <ns3:atemp>21.0</ns3:atemp>
          </ns3:TrackPointExtension>
        </extensions>
      </trkpt>
      <trkpt lat="42.52192561514675617218017578125" lon="19.7689424268901348114013671875">
        <ele>1642.800048828125</ele>
        <time>2026-06-18T11:24:21.000Z</time>
        <extensions>
          <ns3:TrackPointExtension>
            <ns3:atemp>21.0</ns3:atemp>
          </ns3:TrackPointExtension>
        </extensions>
      </trkpt>
      <trkpt lat="42.52195377834141254425048828125" lon="19.7689605318009853363037109375">
        <ele>1642.199951171875</ele>
        <time>2026-06-18T11:24:22.000Z</time>
        <extensions>
          <ns3:TrackPointExtension>
            <ns3:atemp>21.0</ns3:atemp>
          </ns3:TrackPointExtension>
        </extensions>
      </trkpt>
      <trkpt lat="42.52198730595409870147705078125" lon="19.7689635492861270904541015625">
        <ele>1641.800048828125</ele>
        <time>2026-06-18T11:24:23.000Z</time>
        <extensions>
          <ns3:TrackPointExtension>
            <ns3:atemp>21.0</ns3:atemp>
          </ns3:TrackPointExtension>
        </extensions>
      </trkpt>
      <trkpt lat="42.52201815135776996612548828125" lon="19.7689761221408843994140625">
        <ele>1641.199951171875</ele>
        <time>2026-06-18T11:24:24.000Z</time>
        <extensions>
          <ns3:TrackPointExtension>
            <ns3:atemp>21.0</ns3:atemp>
          </ns3:TrackPointExtension>
        </extensions>
      </trkpt>
      <trkpt lat="42.52204832620918750762939453125" lon="19.76899280212819576263427734375">
        <ele>1640.800048828125</ele>
        <time>2026-06-18T11:24:25.000Z</time>
        <extensions>
          <ns3:TrackPointExtension>
            <ns3:atemp>21.0</ns3:atemp>
          </ns3:TrackPointExtension>
        </extensions>
      </trkpt>
      <trkpt lat="42.52208436839282512664794921875" lon="19.76900856010615825653076171875">
        <ele>1640.5999755859375</ele>
        <time>2026-06-18T11:24:26.000Z</time>
        <extensions>
          <ns3:TrackPointExtension>
            <ns3:atemp>21.0</ns3:atemp>
          </ns3:TrackPointExtension>
        </extensions>
      </trkpt>
      <trkpt lat="42.52211839891970157623291015625" lon="19.769014678895473480224609375">
        <ele>1640.4000244140625</ele>
        <time>2026-06-18T11:24:27.000Z</time>
        <extensions>
          <ns3:TrackPointExtension>
            <ns3:atemp>21.0</ns3:atemp>
          </ns3:TrackPointExtension>
        </extensions>
      </trkpt>
      <trkpt lat="42.522152177989482879638671875" lon="19.769030101597309112548828125">
        <ele>1640.199951171875</ele>
        <time>2026-06-18T11:24:28.000Z</time>
        <extensions>
          <ns3:TrackPointExtension>
            <ns3:atemp>21.0</ns3:atemp>
          </ns3:TrackPointExtension>
        </extensions>
      </trkpt>
      <trkpt lat="42.5221860408782958984375" lon="19.7690483741462230682373046875">
        <ele>1640.199951171875</ele>
        <time>2026-06-18T11:24:29.000Z</time>
        <extensions>
          <ns3:TrackPointExtension>
            <ns3:atemp>21.0</ns3:atemp>
          </ns3:TrackPointExtension>
        </extensions>
      </trkpt>
      <trkpt lat="42.52221948467195034027099609375" lon="19.76906941272318363189697265625">
        <ele>1640</ele>
        <time>2026-06-18T11:24:30.000Z</time>
        <extensions>
          <ns3:TrackPointExtension>
            <ns3:atemp>21.0</ns3:atemp>
          </ns3:TrackPointExtension>
        </extensions>
      </trkpt>
      <trkpt lat="42.5222556106746196746826171875" lon="19.7690822370350360870361328125">
        <ele>1639.800048828125</ele>
        <time>2026-06-18T11:24:31.000Z</time>
        <extensions>
          <ns3:TrackPointExtension>
            <ns3:atemp>21.0</ns3:atemp>
          </ns3:TrackPointExtension>
        </extensions>
      </trkpt>
      <trkpt lat="42.5222924910485744476318359375" lon="19.76909556426107883453369140625">
        <ele>1639.5999755859375</ele>
        <time>2026-06-18T11:24:32.000Z</time>
        <extensions>
          <ns3:TrackPointExtension>
            <ns3:atemp>21.0</ns3:atemp>
          </ns3:TrackPointExtension>
        </extensions>
      </trkpt>
      <trkpt lat="42.52232844941318035125732421875" lon="19.7691142559051513671875">
        <ele>1639.4000244140625</ele>
        <time>2026-06-18T11:24:33.000Z</time>
        <extensions>
          <ns3:TrackPointExtension>
            <ns3:atemp>21.0</ns3:atemp>
          </ns3:TrackPointExtension>
        </extensions>
      </trkpt>
      <trkpt lat="42.5223525054752826690673828125" lon="19.76912699639797210693359375">
        <ele>1639</ele>
        <time>2026-06-18T11:24:34.000Z</time>
        <extensions>
          <ns3:TrackPointExtension>
            <ns3:atemp>21.0</ns3:atemp>
          </ns3:TrackPointExtension>
        </extensions>
      </trkpt>
      <trkpt lat="42.52235778607428073883056640625" lon="19.7691288404166698455810546875">
        <ele>1638.800048828125</ele>
        <time>2026-06-18T11:24:35.000Z</time>
        <extensions>
          <ns3:TrackPointExtension>
            <ns3:atemp>21.0</ns3:atemp>
          </ns3:TrackPointExtension>
        </extensions>
      </trkpt>
      <trkpt lat="42.52235879190266132354736328125" lon="19.76912322454154491424560546875">
        <ele>1638.5999755859375</ele>
        <time>2026-06-18T11:24:36.000Z</time>
        <extensions>
          <ns3:TrackPointExtension>
            <ns3:atemp>21.0</ns3:atemp>
          </ns3:TrackPointExtension>
        </extensions>
      </trkpt>
      <trkpt lat="42.5223588757216930389404296875" lon="19.76912305690348148345947265625">
        <ele>1638.800048828125</ele>
        <time>2026-06-18T11:24:37.000Z</time>
        <extensions>
          <ns3:TrackPointExtension>
            <ns3:atemp>21.0</ns3:atemp>
          </ns3:TrackPointExtension>
        </extensions>
      </trkpt>
      <trkpt lat="42.5223588757216930389404296875" lon="19.76912305690348148345947265625">
        <ele>1638.800048828125</ele>
        <time>2026-06-18T11:24:38.000Z</time>
        <extensions>
          <ns3:TrackPointExtension>
            <ns3:atemp>21.0</ns3:atemp>
          </ns3:TrackPointExtension>
        </extensions>
      </trkpt>
      <trkpt lat="42.5223588757216930389404296875" lon="19.76912305690348148345947265625">
        <ele>1638.800048828125</ele>
        <time>2026-06-18T11:24:39.000Z</time>
        <extensions>
          <ns3:TrackPointExtension>
            <ns3:atemp>21.0</ns3:atemp>
          </ns3:TrackPointExtension>
        </extensions>
      </trkpt>
      <trkpt lat="42.5223588757216930389404296875" lon="19.76912305690348148345947265625">
        <ele>1638.5999755859375</ele>
        <time>2026-06-18T11:24:40.000Z</time>
        <extensions>
          <ns3:TrackPointExtension>
            <ns3:atemp>21.0</ns3:atemp>
          </ns3:TrackPointExtension>
        </extensions>
      </trkpt>
      <trkpt lat="42.5223588757216930389404296875" lon="19.76912305690348148345947265625">
        <ele>1638.5999755859375</ele>
        <time>2026-06-18T11:24:41.000Z</time>
        <extensions>
          <ns3:TrackPointExtension>
            <ns3:atemp>21.0</ns3:atemp>
          </ns3:TrackPointExtension>
        </extensions>
      </trkpt>
      <trkpt lat="42.5223588757216930389404296875" lon="19.76912305690348148345947265625">
        <ele>1638.4000244140625</ele>
        <time>2026-06-18T11:24:42.000Z</time>
        <extensions>
          <ns3:TrackPointExtension>
            <ns3:atemp>21.0</ns3:atemp>
          </ns3:TrackPointExtension>
        </extensions>
      </trkpt>
      <trkpt lat="42.5223588757216930389404296875" lon="19.76912305690348148345947265625">
        <ele>1638.4000244140625</ele>
        <time>2026-06-18T11:24:43.000Z</time>
        <extensions>
          <ns3:TrackPointExtension>
            <ns3:atemp>21.0</ns3:atemp>
          </ns3:TrackPointExtension>
        </extensions>
      </trkpt>
      <trkpt lat="42.5223588757216930389404296875" lon="19.76912305690348148345947265625">
        <ele>1638.199951171875</ele>
        <time>2026-06-18T11:24:44.000Z</time>
        <extensions>
          <ns3:TrackPointExtension>
            <ns3:atemp>21.0</ns3:atemp>
          </ns3:TrackPointExtension>
        </extensions>
      </trkpt>
      <trkpt lat="42.5223588757216930389404296875" lon="19.76912305690348148345947265625">
        <ele>1638</ele>
        <time>2026-06-18T11:24:45.000Z</time>
        <extensions>
          <ns3:TrackPointExtension>
            <ns3:atemp>21.0</ns3:atemp>
          </ns3:TrackPointExtension>
        </extensions>
      </trkpt>
      <trkpt lat="42.5223588757216930389404296875" lon="19.76912305690348148345947265625">
        <ele>1638</ele>
        <time>2026-06-18T11:24:46.000Z</time>
        <extensions>
          <ns3:TrackPointExtension>
            <ns3:atemp>21.0</ns3:atemp>
          </ns3:TrackPointExtension>
        </extensions>
      </trkpt>
      <trkpt lat="42.5223588757216930389404296875" lon="19.76912305690348148345947265625">
        <ele>1638</ele>
        <time>2026-06-18T11:24:47.000Z</time>
        <extensions>
          <ns3:TrackPointExtension>
            <ns3:atemp>21.0</ns3:atemp>
          </ns3:TrackPointExtension>
        </extensions>
      </trkpt>
      <trkpt lat="42.5223588757216930389404296875" lon="19.76912305690348148345947265625">
        <ele>1637.800048828125</ele>
        <time>2026-06-18T11:24:48.000Z</time>
        <extensions>
          <ns3:TrackPointExtension>
            <ns3:atemp>21.0</ns3:atemp>
          </ns3:TrackPointExtension>
        </extensions>
      </trkpt>
      <trkpt lat="42.5223588757216930389404296875" lon="19.76912305690348148345947265625">
        <ele>1637.800048828125</ele>
        <time>2026-06-18T11:24:49.000Z</time>
        <extensions>
          <ns3:TrackPointExtension>
            <ns3:atemp>21.0</ns3:atemp>
          </ns3:TrackPointExtension>
        </extensions>
      </trkpt>
      <trkpt lat="42.5223588757216930389404296875" lon="19.76912305690348148345947265625">
        <ele>1637.800048828125</ele>
        <time>2026-06-18T11:24:50.000Z</time>
        <extensions>
          <ns3:TrackPointExtension>
            <ns3:atemp>21.0</ns3:atemp>
          </ns3:TrackPointExtension>
        </extensions>
      </trkpt>
      <trkpt lat="42.5223590433597564697265625" lon="19.76912087760865688323974609375">
        <ele>1637.5999755859375</ele>
        <time>2026-06-18T11:24:51.000Z</time>
        <extensions>
          <ns3:TrackPointExtension>
            <ns3:atemp>21.0</ns3:atemp>
          </ns3:TrackPointExtension>
        </extensions>
      </trkpt>
      <trkpt lat="42.52237069420516490936279296875" lon="19.7691249847412109375">
        <ele>1637.5999755859375</ele>
        <time>2026-06-18T11:24:52.000Z</time>
        <extensions>
          <ns3:TrackPointExtension>
            <ns3:atemp>21.0</ns3:atemp>
          </ns3:TrackPointExtension>
        </extensions>
      </trkpt>
      <trkpt lat="42.5223917327821254730224609375" lon="19.7691321931779384613037109375">
        <ele>1637.4000244140625</ele>
        <time>2026-06-18T11:24:53.000Z</time>
        <extensions>
          <ns3:TrackPointExtension>
            <ns3:atemp>21.0</ns3:atemp>
          </ns3:TrackPointExtension>
        </extensions>
      </trkpt>
      <trkpt lat="42.52241327427327632904052734375" lon="19.76915591396391391754150390625">
        <ele>1637</ele>
        <time>2026-06-18T11:24:54.000Z</time>
        <extensions>
          <ns3:TrackPointExtension>
            <ns3:atemp>21.0</ns3:atemp>
          </ns3:TrackPointExtension>
        </extensions>
      </trkpt>
      <trkpt lat="42.52244613133370876312255859375" lon="19.7691638767719268798828125">
        <ele>1636.800048828125</ele>
        <time>2026-06-18T11:24:55.000Z</time>
        <extensions>
          <ns3:TrackPointExtension>
            <ns3:atemp>21.0</ns3:atemp>
          </ns3:TrackPointExtension>
        </extensions>
      </trkpt>
      <trkpt lat="42.5224839337170124053955078125" lon="19.76916714571416378021240234375">
        <ele>1636.5999755859375</ele>
        <time>2026-06-18T11:24:56.000Z</time>
        <extensions>
          <ns3:TrackPointExtension>
            <ns3:atemp>21.0</ns3:atemp>
          </ns3:TrackPointExtension>
        </extensions>
      </trkpt>
      <trkpt lat="42.52252341248095035552978515625" lon="19.76917385123670101165771484375">
        <ele>1636</ele>
        <time>2026-06-18T11:24:57.000Z</time>
        <extensions>
          <ns3:TrackPointExtension>
            <ns3:atemp>21.0</ns3:atemp>
          </ns3:TrackPointExtension>
        </extensions>
      </trkpt>
      <trkpt lat="42.52256029285490512847900390625" lon="19.76916278712451457977294921875">
        <ele>1635.5999755859375</ele>
        <time>2026-06-18T11:24:58.000Z</time>
        <extensions>
          <ns3:TrackPointExtension>
            <ns3:atemp>21.0</ns3:atemp>
          </ns3:TrackPointExtension>
        </extensions>
      </trkpt>
      <trkpt lat="42.522590048611164093017578125" lon="19.7691663913428783416748046875">
        <ele>1634.800048828125</ele>
        <time>2026-06-18T11:24:59.000Z</time>
        <extensions>
          <ns3:TrackPointExtension>
            <ns3:atemp>21.0</ns3:atemp>
          </ns3:TrackPointExtension>
        </extensions>
      </trkpt>
      <trkpt lat="42.5226250849664211273193359375" lon="19.76917854510247707366943359375">
        <ele>1634.4000244140625</ele>
        <time>2026-06-18T11:25:00.000Z</time>
        <extensions>
          <ns3:TrackPointExtension>
            <ns3:atemp>21.0</ns3:atemp>
          </ns3:TrackPointExtension>
        </extensions>
      </trkpt>
      <trkpt lat="42.52266171388328075408935546875" lon="19.76920871995389461517333984375">
        <ele>1634</ele>
        <time>2026-06-18T11:25:01.000Z</time>
        <extensions>
          <ns3:TrackPointExtension>
            <ns3:atemp>21.0</ns3:atemp>
          </ns3:TrackPointExtension>
        </extensions>
      </trkpt>
      <trkpt lat="42.52269708551466464996337890625" lon="19.7692550718784332275390625">
        <ele>1633.5999755859375</ele>
        <time>2026-06-18T11:25:02.000Z</time>
        <extensions>
          <ns3:TrackPointExtension>
            <ns3:atemp>21.0</ns3:atemp>
          </ns3:TrackPointExtension>
        </extensions>
      </trkpt>
      <trkpt lat="42.522733546793460845947265625" lon="19.76930544711649417877197265625">
        <ele>1633.199951171875</ele>
        <time>2026-06-18T11:25:03.000Z</time>
        <extensions>
          <ns3:TrackPointExtension>
            <ns3:atemp>21.0</ns3:atemp>
          </ns3:TrackPointExtension>
        </extensions>
      </trkpt>
      <trkpt lat="42.5227719359099864959716796875" lon="19.769343249499797821044921875">
        <ele>1632.800048828125</ele>
        <time>2026-06-18T11:25:04.000Z</time>
        <extensions>
          <ns3:TrackPointExtension>
            <ns3:atemp>21.0</ns3:atemp>
          </ns3:TrackPointExtension>
        </extensions>
      </trkpt>
      <trkpt lat="42.52280630171298980712890625" lon="19.76937535218894481658935546875">
        <ele>1632.199951171875</ele>
        <time>2026-06-18T11:25:05.000Z</time>
        <extensions>
          <ns3:TrackPointExtension>
            <ns3:atemp>21.0</ns3:atemp>
          </ns3:TrackPointExtension>
        </extensions>
      </trkpt>
      <trkpt lat="42.5228349678218364715576171875" lon="19.76939496584236621856689453125">
        <ele>1631.5999755859375</ele>
        <time>2026-06-18T11:25:06.000Z</time>
        <extensions>
          <ns3:TrackPointExtension>
            <ns3:atemp>21.0</ns3:atemp>
          </ns3:TrackPointExtension>
        </extensions>
      </trkpt>
      <trkpt lat="42.52284460701048374176025390625" lon="19.76939655840396881103515625">
        <ele>1631.199951171875</ele>
        <time>2026-06-18T11:25:07.000Z</time>
        <extensions>
          <ns3:TrackPointExtension>
            <ns3:atemp>21.0</ns3:atemp>
          </ns3:TrackPointExtension>
        </extensions>
      </trkpt>
      <trkpt lat="42.52284460701048374176025390625" lon="19.76939664222300052642822265625">
        <ele>1631</ele>
        <time>2026-06-18T11:25:08.000Z</time>
        <extensions>
          <ns3:TrackPointExtension>
            <ns3:atemp>21.0</ns3:atemp>
          </ns3:TrackPointExtension>
        </extensions>
      </trkpt>
      <trkpt lat="42.52284460701048374176025390625" lon="19.76939664222300052642822265625">
        <ele>1630.800048828125</ele>
        <time>2026-06-18T11:25:09.000Z</time>
        <extensions>
          <ns3:TrackPointExtension>
            <ns3:atemp>21.0</ns3:atemp>
          </ns3:TrackPointExtension>
        </extensions>
      </trkpt>
      <trkpt lat="42.52284460701048374176025390625" lon="19.76939664222300052642822265625">
        <ele>1630.5999755859375</ele>
        <time>2026-06-18T11:25:10.000Z</time>
        <extensions>
          <ns3:TrackPointExtension>
            <ns3:atemp>21.0</ns3:atemp>
          </ns3:TrackPointExtension>
        </extensions>
      </trkpt>
      <trkpt lat="42.52284460701048374176025390625" lon="19.76939664222300052642822265625">
        <ele>1630.199951171875</ele>
        <time>2026-06-18T11:25:11.000Z</time>
        <extensions>
          <ns3:TrackPointExtension>
            <ns3:atemp>21.0</ns3:atemp>
          </ns3:TrackPointExtension>
        </extensions>
      </trkpt>
      <trkpt lat="42.52284460701048374176025390625" lon="19.76939664222300052642822265625">
        <ele>1630</ele>
        <time>2026-06-18T11:25:12.000Z</time>
        <extensions>
          <ns3:TrackPointExtension>
            <ns3:atemp>21.0</ns3:atemp>
          </ns3:TrackPointExtension>
        </extensions>
      </trkpt>
      <trkpt lat="42.52284460701048374176025390625" lon="19.76939664222300052642822265625">
        <ele>1630</ele>
        <time>2026-06-18T11:25:13.000Z</time>
        <extensions>
          <ns3:TrackPointExtension>
            <ns3:atemp>21.0</ns3:atemp>
          </ns3:TrackPointExtension>
        </extensions>
      </trkpt>
      <trkpt lat="42.52284460701048374176025390625" lon="19.76939664222300052642822265625">
        <ele>1629.800048828125</ele>
        <time>2026-06-18T11:25:14.000Z</time>
        <extensions>
          <ns3:TrackPointExtension>
            <ns3:atemp>21.0</ns3:atemp>
          </ns3:TrackPointExtension>
        </extensions>
      </trkpt>
      <trkpt lat="42.52284460701048374176025390625" lon="19.76939664222300052642822265625">
        <ele>1629.800048828125</ele>
        <time>2026-06-18T11:25:15.000Z</time>
        <extensions>
          <ns3:TrackPointExtension>
            <ns3:atemp>21.0</ns3:atemp>
          </ns3:TrackPointExtension>
        </extensions>
      </trkpt>
      <trkpt lat="42.52284460701048374176025390625" lon="19.76939664222300052642822265625">
        <ele>1629.5999755859375</ele>
        <time>2026-06-18T11:25:16.000Z</time>
        <extensions>
          <ns3:TrackPointExtension>
            <ns3:atemp>21.0</ns3:atemp>
          </ns3:TrackPointExtension>
        </extensions>
      </trkpt>
      <trkpt lat="42.52284460701048374176025390625" lon="19.76939664222300052642822265625">
        <ele>1629.5999755859375</ele>
        <time>2026-06-18T11:25:17.000Z</time>
        <extensions>
          <ns3:TrackPointExtension>
            <ns3:atemp>21.0</ns3:atemp>
          </ns3:TrackPointExtension>
        </extensions>
      </trkpt>
      <trkpt lat="42.52284460701048374176025390625" lon="19.76939664222300052642822265625">
        <ele>1629.5999755859375</ele>
        <time>2026-06-18T11:25:18.000Z</time>
        <extensions>
          <ns3:TrackPointExtension>
            <ns3:atemp>21.0</ns3:atemp>
          </ns3:TrackPointExtension>
        </extensions>
      </trkpt>
      <trkpt lat="42.52284460701048374176025390625" lon="19.76939664222300052642822265625">
        <ele>1629.4000244140625</ele>
        <time>2026-06-18T11:25:19.000Z</time>
        <extensions>
          <ns3:TrackPointExtension>
            <ns3:atemp>21.0</ns3:atemp>
          </ns3:TrackPointExtension>
        </extensions>
      </trkpt>
      <trkpt lat="42.52284460701048374176025390625" lon="19.76939664222300052642822265625">
        <ele>1629</ele>
        <time>2026-06-18T11:25:20.000Z</time>
        <extensions>
          <ns3:TrackPointExtension>
            <ns3:atemp>21.0</ns3:atemp>
          </ns3:TrackPointExtension>
        </extensions>
      </trkpt>
      <trkpt lat="42.52284460701048374176025390625" lon="19.76939664222300052642822265625">
        <ele>1628.800048828125</ele>
        <time>2026-06-18T11:25:21.000Z</time>
        <extensions>
          <ns3:TrackPointExtension>
            <ns3:atemp>21.0</ns3:atemp>
          </ns3:TrackPointExtension>
        </extensions>
      </trkpt>
      <trkpt lat="42.52284460701048374176025390625" lon="19.76939664222300052642822265625">
        <ele>1628.5999755859375</ele>
        <time>2026-06-18T11:25:22.000Z</time>
        <extensions>
          <ns3:TrackPointExtension>
            <ns3:atemp>21.0</ns3:atemp>
          </ns3:TrackPointExtension>
        </extensions>
      </trkpt>
      <trkpt lat="42.52284460701048374176025390625" lon="19.76939664222300052642822265625">
        <ele>1628.4000244140625</ele>
        <time>2026-06-18T11:25:23.000Z</time>
        <extensions>
          <ns3:TrackPointExtension>
            <ns3:atemp>21.0</ns3:atemp>
          </ns3:TrackPointExtension>
        </extensions>
      </trkpt>
      <trkpt lat="42.52284460701048374176025390625" lon="19.76939664222300052642822265625">
        <ele>1628.4000244140625</ele>
        <time>2026-06-18T11:25:24.000Z</time>
        <extensions>
          <ns3:TrackPointExtension>
            <ns3:atemp>21.0</ns3:atemp>
          </ns3:TrackPointExtension>
        </extensions>
      </trkpt>
      <trkpt lat="42.52284460701048374176025390625" lon="19.76939664222300052642822265625">
        <ele>1628.4000244140625</ele>
        <time>2026-06-18T11:25:25.000Z</time>
        <extensions>
          <ns3:TrackPointExtension>
            <ns3:atemp>21.0</ns3:atemp>
          </ns3:TrackPointExtension>
        </extensions>
      </trkpt>
      <trkpt lat="42.52284460701048374176025390625" lon="19.76939664222300052642822265625">
        <ele>1628.5999755859375</ele>
        <time>2026-06-18T11:25:26.000Z</time>
        <extensions>
          <ns3:TrackPointExtension>
            <ns3:atemp>21.0</ns3:atemp>
          </ns3:TrackPointExtension>
        </extensions>
      </trkpt>
      <trkpt lat="42.52284460701048374176025390625" lon="19.76939664222300052642822265625">
        <ele>1628.800048828125</ele>
        <time>2026-06-18T11:25:27.000Z</time>
        <extensions>
          <ns3:TrackPointExtension>
            <ns3:atemp>21.0</ns3:atemp>
          </ns3:TrackPointExtension>
        </extensions>
      </trkpt>
      <trkpt lat="42.52284460701048374176025390625" lon="19.76939664222300052642822265625">
        <ele>1628.800048828125</ele>
        <time>2026-06-18T11:25:28.000Z</time>
        <extensions>
          <ns3:TrackPointExtension>
            <ns3:atemp>21.0</ns3:atemp>
          </ns3:TrackPointExtension>
        </extensions>
      </trkpt>
      <trkpt lat="42.52284460701048374176025390625" lon="19.76939664222300052642822265625">
        <ele>1628.800048828125</ele>
        <time>2026-06-18T11:25:29.000Z</time>
        <extensions>
          <ns3:TrackPointExtension>
            <ns3:atemp>21.0</ns3:atemp>
          </ns3:TrackPointExtension>
        </extensions>
      </trkpt>
      <trkpt lat="42.52284460701048374176025390625" lon="19.76939664222300052642822265625">
        <ele>1628.800048828125</ele>
        <time>2026-06-18T11:25:30.000Z</time>
        <extensions>
          <ns3:TrackPointExtension>
            <ns3:atemp>21.0</ns3:atemp>
          </ns3:TrackPointExtension>
        </extensions>
      </trkpt>
      <trkpt lat="42.52284460701048374176025390625" lon="19.76939664222300052642822265625">
        <ele>1628.800048828125</ele>
        <time>2026-06-18T11:25:31.000Z</time>
        <extensions>
          <ns3:TrackPointExtension>
            <ns3:atemp>21.0</ns3:atemp>
          </ns3:TrackPointExtension>
        </extensions>
      </trkpt>
      <trkpt lat="42.52284460701048374176025390625" lon="19.76939664222300052642822265625">
        <ele>1629</ele>
        <time>2026-06-18T11:25:32.000Z</time>
        <extensions>
          <ns3:TrackPointExtension>
            <ns3:atemp>21.0</ns3:atemp>
          </ns3:TrackPointExtension>
        </extensions>
      </trkpt>
      <trkpt lat="42.52284460701048374176025390625" lon="19.76939664222300052642822265625">
        <ele>1629</ele>
        <time>2026-06-18T11:25:33.000Z</time>
        <extensions>
          <ns3:TrackPointExtension>
            <ns3:atemp>21.0</ns3:atemp>
          </ns3:TrackPointExtension>
        </extensions>
      </trkpt>
      <trkpt lat="42.52284460701048374176025390625" lon="19.76939664222300052642822265625">
        <ele>1629</ele>
        <time>2026-06-18T11:25:34.000Z</time>
        <extensions>
          <ns3:TrackPointExtension>
            <ns3:atemp>21.0</ns3:atemp>
          </ns3:TrackPointExtension>
        </extensions>
      </trkpt>
      <trkpt lat="42.52284460701048374176025390625" lon="19.76939664222300052642822265625">
        <ele>1629</ele>
        <time>2026-06-18T11:25:35.000Z</time>
        <extensions>
          <ns3:TrackPointExtension>
            <ns3:atemp>21.0</ns3:atemp>
          </ns3:TrackPointExtension>
        </extensions>
      </trkpt>
      <trkpt lat="42.52284460701048374176025390625" lon="19.76939664222300052642822265625">
        <ele>1629.199951171875</ele>
        <time>2026-06-18T11:25:36.000Z</time>
        <extensions>
          <ns3:TrackPointExtension>
            <ns3:atemp>21.0</ns3:atemp>
          </ns3:TrackPointExtension>
        </extensions>
      </trkpt>
      <trkpt lat="42.52284460701048374176025390625" lon="19.76939664222300052642822265625">
        <ele>1629.199951171875</ele>
        <time>2026-06-18T11:25:37.000Z</time>
        <extensions>
          <ns3:TrackPointExtension>
            <ns3:atemp>21.0</ns3:atemp>
          </ns3:TrackPointExtension>
        </extensions>
      </trkpt>
      <trkpt lat="42.52284460701048374176025390625" lon="19.76939664222300052642822265625">
        <ele>1629.199951171875</ele>
        <time>2026-06-18T11:25:38.000Z</time>
        <extensions>
          <ns3:TrackPointExtension>
            <ns3:atemp>21.0</ns3:atemp>
          </ns3:TrackPointExtension>
        </extensions>
      </trkpt>
      <trkpt lat="42.52284460701048374176025390625" lon="19.76939664222300052642822265625">
        <ele>1629.199951171875</ele>
        <time>2026-06-18T11:25:39.000Z</time>
        <extensions>
          <ns3:TrackPointExtension>
            <ns3:atemp>21.0</ns3:atemp>
          </ns3:TrackPointExtension>
        </extensions>
      </trkpt>
      <trkpt lat="42.52284460701048374176025390625" lon="19.76939664222300052642822265625">
        <ele>1629.4000244140625</ele>
        <time>2026-06-18T11:25:40.000Z</time>
        <extensions>
          <ns3:TrackPointExtension>
            <ns3:atemp>21.0</ns3:atemp>
          </ns3:TrackPointExtension>
        </extensions>
      </trkpt>
      <trkpt lat="42.52284460701048374176025390625" lon="19.76939664222300052642822265625">
        <ele>1629.4000244140625</ele>
        <time>2026-06-18T11:25:41.000Z</time>
        <extensions>
          <ns3:TrackPointExtension>
            <ns3:atemp>21.0</ns3:atemp>
          </ns3:TrackPointExtension>
        </extensions>
      </trkpt>
      <trkpt lat="42.52284460701048374176025390625" lon="19.76939664222300052642822265625">
        <ele>1629.4000244140625</ele>
        <time>2026-06-18T11:25:42.000Z</time>
        <extensions>
          <ns3:TrackPointExtension>
            <ns3:atemp>21.0</ns3:atemp>
          </ns3:TrackPointExtension>
        </extensions>
      </trkpt>
      <trkpt lat="42.52284460701048374176025390625" lon="19.76939664222300052642822265625">
        <ele>1629.4000244140625</ele>
        <time>2026-06-18T11:25:43.000Z</time>
        <extensions>
          <ns3:TrackPointExtension>
            <ns3:atemp>21.0</ns3:atemp>
          </ns3:TrackPointExtension>
        </extensions>
      </trkpt>
      <trkpt lat="42.52284460701048374176025390625" lon="19.76939664222300052642822265625">
        <ele>1629.4000244140625</ele>
        <time>2026-06-18T11:25:44.000Z</time>
        <extensions>
          <ns3:TrackPointExtension>
            <ns3:atemp>21.0</ns3:atemp>
          </ns3:TrackPointExtension>
        </extensions>
      </trkpt>
      <trkpt lat="42.52284460701048374176025390625" lon="19.76939664222300052642822265625">
        <ele>1629.5999755859375</ele>
        <time>2026-06-18T11:25:45.000Z</time>
        <extensions>
          <ns3:TrackPointExtension>
            <ns3:atemp>21.0</ns3:atemp>
          </ns3:TrackPointExtension>
        </extensions>
      </trkpt>
      <trkpt lat="42.52284460701048374176025390625" lon="19.76939664222300052642822265625">
        <ele>1629.5999755859375</ele>
        <time>2026-06-18T11:25:46.000Z</time>
        <extensions>
          <ns3:TrackPointExtension>
            <ns3:atemp>21.0</ns3:atemp>
          </ns3:TrackPointExtension>
        </extensions>
      </trkpt>
      <trkpt lat="42.52284460701048374176025390625" lon="19.76939664222300052642822265625">
        <ele>1629.5999755859375</ele>
        <time>2026-06-18T11:25:47.000Z</time>
        <extensions>
          <ns3:TrackPointExtension>
            <ns3:atemp>21.0</ns3:atemp>
          </ns3:TrackPointExtension>
        </extensions>
      </trkpt>
      <trkpt lat="42.52284460701048374176025390625" lon="19.76939664222300052642822265625">
        <ele>1629.5999755859375</ele>
        <time>2026-06-18T11:25:48.000Z</time>
        <extensions>
          <ns3:TrackPointExtension>
            <ns3:atemp>21.0</ns3:atemp>
          </ns3:TrackPointExtension>
        </extensions>
      </trkpt>
      <trkpt lat="42.52284460701048374176025390625" lon="19.76939664222300052642822265625">
        <ele>1629.5999755859375</ele>
        <time>2026-06-18T11:25:49.000Z</time>
        <extensions>
          <ns3:TrackPointExtension>
            <ns3:atemp>21.0</ns3:atemp>
          </ns3:TrackPointExtension>
        </extensions>
      </trkpt>
      <trkpt lat="42.52284460701048374176025390625" lon="19.76939664222300052642822265625">
        <ele>1629.5999755859375</ele>
        <time>2026-06-18T11:25:50.000Z</time>
        <extensions>
          <ns3:TrackPointExtension>
            <ns3:atemp>21.0</ns3:atemp>
          </ns3:TrackPointExtension>
        </extensions>
      </trkpt>
      <trkpt lat="42.52284460701048374176025390625" lon="19.76939664222300052642822265625">
        <ele>1629.5999755859375</ele>
        <time>2026-06-18T11:25:51.000Z</time>
        <extensions>
          <ns3:TrackPointExtension>
            <ns3:atemp>21.0</ns3:atemp>
          </ns3:TrackPointExtension>
        </extensions>
      </trkpt>
      <trkpt lat="42.52284460701048374176025390625" lon="19.76939664222300052642822265625">
        <ele>1629.5999755859375</ele>
        <time>2026-06-18T11:25:52.000Z</time>
        <extensions>
          <ns3:TrackPointExtension>
            <ns3:atemp>21.0</ns3:atemp>
          </ns3:TrackPointExtension>
        </extensions>
      </trkpt>
      <trkpt lat="42.52284460701048374176025390625" lon="19.76939664222300052642822265625">
        <ele>1629.5999755859375</ele>
        <time>2026-06-18T11:25:53.000Z</time>
        <extensions>
          <ns3:TrackPointExtension>
            <ns3:atemp>21.0</ns3:atemp>
          </ns3:TrackPointExtension>
        </extensions>
      </trkpt>
      <trkpt lat="42.52284460701048374176025390625" lon="19.76939664222300052642822265625">
        <ele>1629.5999755859375</ele>
        <time>2026-06-18T11:25:54.000Z</time>
        <extensions>
          <ns3:TrackPointExtension>
            <ns3:atemp>21.0</ns3:atemp>
          </ns3:TrackPointExtension>
        </extensions>
      </trkpt>
      <trkpt lat="42.52284460701048374176025390625" lon="19.76939664222300052642822265625">
        <ele>1629.5999755859375</ele>
        <time>2026-06-18T11:25:55.000Z</time>
        <extensions>
          <ns3:TrackPointExtension>
            <ns3:atemp>21.0</ns3:atemp>
          </ns3:TrackPointExtension>
        </extensions>
      </trkpt>
      <trkpt lat="42.52284460701048374176025390625" lon="19.76939664222300052642822265625">
        <ele>1629.800048828125</ele>
        <time>2026-06-18T11:25:56.000Z</time>
        <extensions>
          <ns3:TrackPointExtension>
            <ns3:atemp>21.0</ns3:atemp>
          </ns3:TrackPointExtension>
        </extensions>
      </trkpt>
      <trkpt lat="42.52284460701048374176025390625" lon="19.76939664222300052642822265625">
        <ele>1629.800048828125</ele>
        <time>2026-06-18T11:25:57.000Z</time>
        <extensions>
          <ns3:TrackPointExtension>
            <ns3:atemp>21.0</ns3:atemp>
          </ns3:TrackPointExtension>
        </extensions>
      </trkpt>
      <trkpt lat="42.52284460701048374176025390625" lon="19.76939664222300052642822265625">
        <ele>1629.800048828125</ele>
        <time>2026-06-18T11:25:58.000Z</time>
        <extensions>
          <ns3:TrackPointExtension>
            <ns3:atemp>21.0</ns3:atemp>
          </ns3:TrackPointExtension>
        </extensions>
      </trkpt>
      <trkpt lat="42.52284460701048374176025390625" lon="19.76939664222300052642822265625">
        <ele>1629.800048828125</ele>
        <time>2026-06-18T11:25:59.000Z</time>
        <extensions>
          <ns3:TrackPointExtension>
            <ns3:atemp>21.0</ns3:atemp>
          </ns3:TrackPointExtension>
        </extensions>
      </trkpt>
      <trkpt lat="42.52284460701048374176025390625" lon="19.76939664222300052642822265625">
        <ele>1629.800048828125</ele>
        <time>2026-06-18T11:26:00.000Z</time>
        <extensions>
          <ns3:TrackPointExtension>
            <ns3:atemp>21.0</ns3:atemp>
          </ns3:TrackPointExtension>
        </extensions>
      </trkpt>
      <trkpt lat="42.52284460701048374176025390625" lon="19.76939664222300052642822265625">
        <ele>1629.800048828125</ele>
        <time>2026-06-18T11:26:01.000Z</time>
        <extensions>
          <ns3:TrackPointExtension>
            <ns3:atemp>21.0</ns3:atemp>
          </ns3:TrackPointExtension>
        </extensions>
      </trkpt>
      <trkpt lat="42.52284460701048374176025390625" lon="19.76939664222300052642822265625">
        <ele>1629.5999755859375</ele>
        <time>2026-06-18T11:26:02.000Z</time>
        <extensions>
          <ns3:TrackPointExtension>
            <ns3:atemp>21.0</ns3:atemp>
          </ns3:TrackPointExtension>
        </extensions>
      </trkpt>
      <trkpt lat="42.52284460701048374176025390625" lon="19.76939664222300052642822265625">
        <ele>1629.5999755859375</ele>
        <time>2026-06-18T11:26:03.000Z</time>
        <extensions>
          <ns3:TrackPointExtension>
            <ns3:atemp>21.0</ns3:atemp>
          </ns3:TrackPointExtension>
        </extensions>
      </trkpt>
      <trkpt lat="42.52284460701048374176025390625" lon="19.76939664222300052642822265625">
        <ele>1629.5999755859375</ele>
        <time>2026-06-18T11:26:04.000Z</time>
        <extensions>
          <ns3:TrackPointExtension>
            <ns3:atemp>21.0</ns3:atemp>
          </ns3:TrackPointExtension>
        </extensions>
      </trkpt>
      <trkpt lat="42.52284460701048374176025390625" lon="19.76939664222300052642822265625">
        <ele>1629.5999755859375</ele>
        <time>2026-06-18T11:26:05.000Z</time>
        <extensions>
          <ns3:TrackPointExtension>
            <ns3:atemp>21.0</ns3:atemp>
          </ns3:TrackPointExtension>
        </extensions>
      </trkpt>
      <trkpt lat="42.52284460701048374176025390625" lon="19.76939664222300052642822265625">
        <ele>1629.5999755859375</ele>
        <time>2026-06-18T11:26:06.000Z</time>
        <extensions>
          <ns3:TrackPointExtension>
            <ns3:atemp>21.0</ns3:atemp>
          </ns3:TrackPointExtension>
        </extensions>
      </trkpt>
      <trkpt lat="42.52284460701048374176025390625" lon="19.76939664222300052642822265625">
        <ele>1629.5999755859375</ele>
        <time>2026-06-18T11:26:07.000Z</time>
        <extensions>
          <ns3:TrackPointExtension>
            <ns3:atemp>21.0</ns3:atemp>
          </ns3:TrackPointExtension>
        </extensions>
      </trkpt>
      <trkpt lat="42.52284460701048374176025390625" lon="19.76939664222300052642822265625">
        <ele>1629.5999755859375</ele>
        <time>2026-06-18T11:26:08.000Z</time>
        <extensions>
          <ns3:TrackPointExtension>
            <ns3:atemp>21.0</ns3:atemp>
          </ns3:TrackPointExtension>
        </extensions>
      </trkpt>
      <trkpt lat="42.52284460701048374176025390625" lon="19.76939664222300052642822265625">
        <ele>1629.5999755859375</ele>
        <time>2026-06-18T11:26:09.000Z</time>
        <extensions>
          <ns3:TrackPointExtension>
            <ns3:atemp>21.0</ns3:atemp>
          </ns3:TrackPointExtension>
        </extensions>
      </trkpt>
      <trkpt lat="42.52284460701048374176025390625" lon="19.76939664222300052642822265625">
        <ele>1629.5999755859375</ele>
        <time>2026-06-18T11:26:10.000Z</time>
        <extensions>
          <ns3:TrackPointExtension>
            <ns3:atemp>21.0</ns3:atemp>
          </ns3:TrackPointExtension>
        </extensions>
      </trkpt>
      <trkpt lat="42.52284460701048374176025390625" lon="19.76939664222300052642822265625">
        <ele>1629.5999755859375</ele>
        <time>2026-06-18T11:26:11.000Z</time>
        <extensions>
          <ns3:TrackPointExtension>
            <ns3:atemp>21.0</ns3:atemp>
          </ns3:TrackPointExtension>
        </extensions>
      </trkpt>
      <trkpt lat="42.52284460701048374176025390625" lon="19.76939664222300052642822265625">
        <ele>1629.4000244140625</ele>
        <time>2026-06-18T11:26:12.000Z</time>
        <extensions>
          <ns3:TrackPointExtension>
            <ns3:atemp>21.0</ns3:atemp>
          </ns3:TrackPointExtension>
        </extensions>
      </trkpt>
      <trkpt lat="42.52284460701048374176025390625" lon="19.76939664222300052642822265625">
        <ele>1629.4000244140625</ele>
        <time>2026-06-18T11:26:13.000Z</time>
        <extensions>
          <ns3:TrackPointExtension>
            <ns3:atemp>21.0</ns3:atemp>
          </ns3:TrackPointExtension>
        </extensions>
      </trkpt>
      <trkpt lat="42.52284460701048374176025390625" lon="19.76939664222300052642822265625">
        <ele>1629.199951171875</ele>
        <time>2026-06-18T11:26:14.000Z</time>
        <extensions>
          <ns3:TrackPointExtension>
            <ns3:atemp>21.0</ns3:atemp>
          </ns3:TrackPointExtension>
        </extensions>
      </trkpt>
      <trkpt lat="42.52284460701048374176025390625" lon="19.76939664222300052642822265625">
        <ele>1629.199951171875</ele>
        <time>2026-06-18T11:26:15.000Z</time>
        <extensions>
          <ns3:TrackPointExtension>
            <ns3:atemp>21.0</ns3:atemp>
          </ns3:TrackPointExtension>
        </extensions>
      </trkpt>
      <trkpt lat="42.52284460701048374176025390625" lon="19.76939664222300052642822265625">
        <ele>1629</ele>
        <time>2026-06-18T11:26:16.000Z</time>
        <extensions>
          <ns3:TrackPointExtension>
            <ns3:atemp>21.0</ns3:atemp>
          </ns3:TrackPointExtension>
        </extensions>
      </trkpt>
      <trkpt lat="42.52284460701048374176025390625" lon="19.76939664222300052642822265625">
        <ele>1629</ele>
        <time>2026-06-18T11:26:17.000Z</time>
        <extensions>
          <ns3:TrackPointExtension>
            <ns3:atemp>21.0</ns3:atemp>
          </ns3:TrackPointExtension>
        </extensions>
      </trkpt>
      <trkpt lat="42.52284460701048374176025390625" lon="19.76939664222300052642822265625">
        <ele>1629</ele>
        <time>2026-06-18T11:26:18.000Z</time>
        <extensions>
          <ns3:TrackPointExtension>
            <ns3:atemp>21.0</ns3:atemp>
          </ns3:TrackPointExtension>
        </extensions>
      </trkpt>
      <trkpt lat="42.52284460701048374176025390625" lon="19.76939664222300052642822265625">
        <ele>1628.800048828125</ele>
        <time>2026-06-18T11:26:19.000Z</time>
        <extensions>
          <ns3:TrackPointExtension>
            <ns3:atemp>22.0</ns3:atemp>
          </ns3:TrackPointExtension>
        </extensions>
      </trkpt>
      <trkpt lat="42.52284460701048374176025390625" lon="19.76939664222300052642822265625">
        <ele>1628.800048828125</ele>
        <time>2026-06-18T11:26:20.000Z</time>
        <extensions>
          <ns3:TrackPointExtension>
            <ns3:atemp>22.0</ns3:atemp>
          </ns3:TrackPointExtension>
        </extensions>
      </trkpt>
      <trkpt lat="42.52284460701048374176025390625" lon="19.76939664222300052642822265625">
        <ele>1628.800048828125</ele>
        <time>2026-06-18T11:26:21.000Z</time>
        <extensions>
          <ns3:TrackPointExtension>
            <ns3:atemp>22.0</ns3:atemp>
          </ns3:TrackPointExtension>
        </extensions>
      </trkpt>
      <trkpt lat="42.52284460701048374176025390625" lon="19.76939664222300052642822265625">
        <ele>1628.800048828125</ele>
        <time>2026-06-18T11:26:22.000Z</time>
        <extensions>
          <ns3:TrackPointExtension>
            <ns3:atemp>22.0</ns3:atemp>
          </ns3:TrackPointExtension>
        </extensions>
      </trkpt>
      <trkpt lat="42.52284460701048374176025390625" lon="19.76939664222300052642822265625">
        <ele>1628.800048828125</ele>
        <time>2026-06-18T11:26:23.000Z</time>
        <extensions>
          <ns3:TrackPointExtension>
            <ns3:atemp>22.0</ns3:atemp>
          </ns3:TrackPointExtension>
        </extensions>
      </trkpt>
      <trkpt lat="42.52284460701048374176025390625" lon="19.76939664222300052642822265625">
        <ele>1628.5999755859375</ele>
        <time>2026-06-18T11:26:24.000Z</time>
        <extensions>
          <ns3:TrackPointExtension>
            <ns3:atemp>22.0</ns3:atemp>
          </ns3:TrackPointExtension>
        </extensions>
      </trkpt>
      <trkpt lat="42.52284460701048374176025390625" lon="19.76939664222300052642822265625">
        <ele>1628.5999755859375</ele>
        <time>2026-06-18T11:26:25.000Z</time>
        <extensions>
          <ns3:TrackPointExtension>
            <ns3:atemp>22.0</ns3:atemp>
          </ns3:TrackPointExtension>
        </extensions>
      </trkpt>
      <trkpt lat="42.52284460701048374176025390625" lon="19.76939664222300052642822265625">
        <ele>1628.5999755859375</ele>
        <time>2026-06-18T11:26:26.000Z</time>
        <extensions>
          <ns3:TrackPointExtension>
            <ns3:atemp>22.0</ns3:atemp>
          </ns3:TrackPointExtension>
        </extensions>
      </trkpt>
      <trkpt lat="42.52284460701048374176025390625" lon="19.76939664222300052642822265625">
        <ele>1628.5999755859375</ele>
        <time>2026-06-18T11:26:27.000Z</time>
        <extensions>
          <ns3:TrackPointExtension>
            <ns3:atemp>22.0</ns3:atemp>
          </ns3:TrackPointExtension>
        </extensions>
      </trkpt>
      <trkpt lat="42.52284460701048374176025390625" lon="19.76939664222300052642822265625">
        <ele>1628.5999755859375</ele>
        <time>2026-06-18T11:26:28.000Z</time>
        <extensions>
          <ns3:TrackPointExtension>
            <ns3:atemp>22.0</ns3:atemp>
          </ns3:TrackPointExtension>
        </extensions>
      </trkpt>
      <trkpt lat="42.52284460701048374176025390625" lon="19.76939664222300052642822265625">
        <ele>1628.5999755859375</ele>
        <time>2026-06-18T11:26:29.000Z</time>
        <extensions>
          <ns3:TrackPointExtension>
            <ns3:atemp>22.0</ns3:atemp>
          </ns3:TrackPointExtension>
        </extensions>
      </trkpt>
      <trkpt lat="42.52284460701048374176025390625" lon="19.76939664222300052642822265625">
        <ele>1628.5999755859375</ele>
        <time>2026-06-18T11:26:30.000Z</time>
        <extensions>
          <ns3:TrackPointExtension>
            <ns3:atemp>22.0</ns3:atemp>
          </ns3:TrackPointExtension>
        </extensions>
      </trkpt>
      <trkpt lat="42.52284460701048374176025390625" lon="19.76939664222300052642822265625">
        <ele>1628.5999755859375</ele>
        <time>2026-06-18T11:26:31.000Z</time>
        <extensions>
          <ns3:TrackPointExtension>
            <ns3:atemp>22.0</ns3:atemp>
          </ns3:TrackPointExtension>
        </extensions>
      </trkpt>
      <trkpt lat="42.52284460701048374176025390625" lon="19.76939664222300052642822265625">
        <ele>1628.5999755859375</ele>
        <time>2026-06-18T11:26:32.000Z</time>
        <extensions>
          <ns3:TrackPointExtension>
            <ns3:atemp>22.0</ns3:atemp>
          </ns3:TrackPointExtension>
        </extensions>
      </trkpt>
      <trkpt lat="42.52284460701048374176025390625" lon="19.76939664222300052642822265625">
        <ele>1628.5999755859375</ele>
        <time>2026-06-18T11:26:33.000Z</time>
        <extensions>
          <ns3:TrackPointExtension>
            <ns3:atemp>22.0</ns3:atemp>
          </ns3:TrackPointExtension>
        </extensions>
      </trkpt>
      <trkpt lat="42.52284460701048374176025390625" lon="19.76939664222300052642822265625">
        <ele>1628.5999755859375</ele>
        <time>2026-06-18T11:26:34.000Z</time>
        <extensions>
          <ns3:TrackPointExtension>
            <ns3:atemp>22.0</ns3:atemp>
          </ns3:TrackPointExtension>
        </extensions>
      </trkpt>
      <trkpt lat="42.52284460701048374176025390625" lon="19.76939664222300052642822265625">
        <ele>1628.800048828125</ele>
        <time>2026-06-18T11:26:35.000Z</time>
        <extensions>
          <ns3:TrackPointExtension>
            <ns3:atemp>22.0</ns3:atemp>
          </ns3:TrackPointExtension>
        </extensions>
      </trkpt>
      <trkpt lat="42.52284460701048374176025390625" lon="19.76939664222300052642822265625">
        <ele>1628.800048828125</ele>
        <time>2026-06-18T11:26:36.000Z</time>
        <extensions>
          <ns3:TrackPointExtension>
            <ns3:atemp>22.0</ns3:atemp>
          </ns3:TrackPointExtension>
        </extensions>
      </trkpt>
      <trkpt lat="42.52284460701048374176025390625" lon="19.76939664222300052642822265625">
        <ele>1629.199951171875</ele>
        <time>2026-06-18T11:26:37.000Z</time>
        <extensions>
          <ns3:TrackPointExtension>
            <ns3:atemp>22.0</ns3:atemp>
          </ns3:TrackPointExtension>
        </extensions>
      </trkpt>
      <trkpt lat="42.52284460701048374176025390625" lon="19.76939664222300052642822265625">
        <ele>1629.199951171875</ele>
        <time>2026-06-18T11:26:38.000Z</time>
        <extensions>
          <ns3:TrackPointExtension>
            <ns3:atemp>22.0</ns3:atemp>
          </ns3:TrackPointExtension>
        </extensions>
      </trkpt>
      <trkpt lat="42.52284460701048374176025390625" lon="19.76939664222300052642822265625">
        <ele>1629.199951171875</ele>
        <time>2026-06-18T11:26:39.000Z</time>
        <extensions>
          <ns3:TrackPointExtension>
            <ns3:atemp>22.0</ns3:atemp>
          </ns3:TrackPointExtension>
        </extensions>
      </trkpt>
      <trkpt lat="42.52284460701048374176025390625" lon="19.76939664222300052642822265625">
        <ele>1629.199951171875</ele>
        <time>2026-06-18T11:26:40.000Z</time>
        <extensions>
          <ns3:TrackPointExtension>
            <ns3:atemp>22.0</ns3:atemp>
          </ns3:TrackPointExtension>
        </extensions>
      </trkpt>
      <trkpt lat="42.52284460701048374176025390625" lon="19.76939664222300052642822265625">
        <ele>1629.199951171875</ele>
        <time>2026-06-18T11:26:41.000Z</time>
        <extensions>
          <ns3:TrackPointExtension>
            <ns3:atemp>22.0</ns3:atemp>
          </ns3:TrackPointExtension>
        </extensions>
      </trkpt>
      <trkpt lat="42.52284460701048374176025390625" lon="19.76939664222300052642822265625">
        <ele>1629.199951171875</ele>
        <time>2026-06-18T11:26:42.000Z</time>
        <extensions>
          <ns3:TrackPointExtension>
            <ns3:atemp>22.0</ns3:atemp>
          </ns3:TrackPointExtension>
        </extensions>
      </trkpt>
      <trkpt lat="42.52284460701048374176025390625" lon="19.76939664222300052642822265625">
        <ele>1629.199951171875</ele>
        <time>2026-06-18T11:26:43.000Z</time>
        <extensions>
          <ns3:TrackPointExtension>
            <ns3:atemp>22.0</ns3:atemp>
          </ns3:TrackPointExtension>
        </extensions>
      </trkpt>
      <trkpt lat="42.52284460701048374176025390625" lon="19.76939664222300052642822265625">
        <ele>1629.199951171875</ele>
        <time>2026-06-18T11:26:44.000Z</time>
        <extensions>
          <ns3:TrackPointExtension>
            <ns3:atemp>22.0</ns3:atemp>
          </ns3:TrackPointExtension>
        </extensions>
      </trkpt>
      <trkpt lat="42.52284460701048374176025390625" lon="19.76939664222300052642822265625">
        <ele>1629.199951171875</ele>
        <time>2026-06-18T11:26:45.000Z</time>
        <extensions>
          <ns3:TrackPointExtension>
            <ns3:atemp>22.0</ns3:atemp>
          </ns3:TrackPointExtension>
        </extensions>
      </trkpt>
      <trkpt lat="42.52284460701048374176025390625" lon="19.76939664222300052642822265625">
        <ele>1629.199951171875</ele>
        <time>2026-06-18T11:26:46.000Z</time>
        <extensions>
          <ns3:TrackPointExtension>
            <ns3:atemp>22.0</ns3:atemp>
          </ns3:TrackPointExtension>
        </extensions>
      </trkpt>
      <trkpt lat="42.52284460701048374176025390625" lon="19.76939664222300052642822265625">
        <ele>1629.199951171875</ele>
        <time>2026-06-18T11:26:47.000Z</time>
        <extensions>
          <ns3:TrackPointExtension>
            <ns3:atemp>22.0</ns3:atemp>
          </ns3:TrackPointExtension>
        </extensions>
      </trkpt>
      <trkpt lat="42.52284460701048374176025390625" lon="19.76939664222300052642822265625">
        <ele>1629.199951171875</ele>
        <time>2026-06-18T11:26:48.000Z</time>
        <extensions>
          <ns3:TrackPointExtension>
            <ns3:atemp>22.0</ns3:atemp>
          </ns3:TrackPointExtension>
        </extensions>
      </trkpt>
      <trkpt lat="42.52284460701048374176025390625" lon="19.76939664222300052642822265625">
        <ele>1629.199951171875</ele>
        <time>2026-06-18T11:26:49.000Z</time>
        <extensions>
          <ns3:TrackPointExtension>
            <ns3:atemp>22.0</ns3:atemp>
          </ns3:TrackPointExtension>
        </extensions>
      </trkpt>
      <trkpt lat="42.52284460701048374176025390625" lon="19.76939664222300052642822265625">
        <ele>1629.199951171875</ele>
        <time>2026-06-18T11:26:50.000Z</time>
        <extensions>
          <ns3:TrackPointExtension>
            <ns3:atemp>22.0</ns3:atemp>
          </ns3:TrackPointExtension>
        </extensions>
      </trkpt>
      <trkpt lat="42.52284460701048374176025390625" lon="19.76939664222300052642822265625">
        <ele>1629.199951171875</ele>
        <time>2026-06-18T11:26:51.000Z</time>
        <extensions>
          <ns3:TrackPointExtension>
            <ns3:atemp>22.0</ns3:atemp>
          </ns3:TrackPointExtension>
        </extensions>
      </trkpt>
      <trkpt lat="42.52284460701048374176025390625" lon="19.76939664222300052642822265625">
        <ele>1629.199951171875</ele>
        <time>2026-06-18T11:26:52.000Z</time>
        <extensions>
          <ns3:TrackPointExtension>
            <ns3:atemp>22.0</ns3:atemp>
          </ns3:TrackPointExtension>
        </extensions>
      </trkpt>
      <trkpt lat="42.52284460701048374176025390625" lon="19.76939664222300052642822265625">
        <ele>1629.199951171875</ele>
        <time>2026-06-18T11:26:53.000Z</time>
        <extensions>
          <ns3:TrackPointExtension>
            <ns3:atemp>22.0</ns3:atemp>
          </ns3:TrackPointExtension>
        </extensions>
      </trkpt>
      <trkpt lat="42.52284460701048374176025390625" lon="19.76939664222300052642822265625">
        <ele>1629.199951171875</ele>
        <time>2026-06-18T11:26:54.000Z</time>
        <extensions>
          <ns3:TrackPointExtension>
            <ns3:atemp>22.0</ns3:atemp>
          </ns3:TrackPointExtension>
        </extensions>
      </trkpt>
      <trkpt lat="42.52284460701048374176025390625" lon="19.76939664222300052642822265625">
        <ele>1629.199951171875</ele>
        <time>2026-06-18T11:26:55.000Z</time>
        <extensions>
          <ns3:TrackPointExtension>
            <ns3:atemp>22.0</ns3:atemp>
          </ns3:TrackPointExtension>
        </extensions>
      </trkpt>
      <trkpt lat="42.52284460701048374176025390625" lon="19.76939664222300052642822265625">
        <ele>1629.199951171875</ele>
        <time>2026-06-18T11:26:56.000Z</time>
        <extensions>
          <ns3:TrackPointExtension>
            <ns3:atemp>22.0</ns3:atemp>
          </ns3:TrackPointExtension>
        </extensions>
      </trkpt>
      <trkpt lat="42.52284460701048374176025390625" lon="19.76939664222300052642822265625">
        <ele>1629.199951171875</ele>
        <time>2026-06-18T11:26:57.000Z</time>
        <extensions>
          <ns3:TrackPointExtension>
            <ns3:atemp>22.0</ns3:atemp>
          </ns3:TrackPointExtension>
        </extensions>
      </trkpt>
      <trkpt lat="42.52284460701048374176025390625" lon="19.76939664222300052642822265625">
        <ele>1629.199951171875</ele>
        <time>2026-06-18T11:26:58.000Z</time>
        <extensions>
          <ns3:TrackPointExtension>
            <ns3:atemp>22.0</ns3:atemp>
          </ns3:TrackPointExtension>
        </extensions>
      </trkpt>
      <trkpt lat="42.52284460701048374176025390625" lon="19.76939664222300052642822265625">
        <ele>1629.199951171875</ele>
        <time>2026-06-18T11:26:59.000Z</time>
        <extensions>
          <ns3:TrackPointExtension>
            <ns3:atemp>22.0</ns3:atemp>
          </ns3:TrackPointExtension>
        </extensions>
      </trkpt>
      <trkpt lat="42.52284460701048374176025390625" lon="19.76939664222300052642822265625">
        <ele>1629.199951171875</ele>
        <time>2026-06-18T11:27:00.000Z</time>
        <extensions>
          <ns3:TrackPointExtension>
            <ns3:atemp>22.0</ns3:atemp>
          </ns3:TrackPointExtension>
        </extensions>
      </trkpt>
      <trkpt lat="42.52284460701048374176025390625" lon="19.76939664222300052642822265625">
        <ele>1629.199951171875</ele>
        <time>2026-06-18T11:27:01.000Z</time>
        <extensions>
          <ns3:TrackPointExtension>
            <ns3:atemp>22.0</ns3:atemp>
          </ns3:TrackPointExtension>
        </extensions>
      </trkpt>
      <trkpt lat="42.52284460701048374176025390625" lon="19.76939664222300052642822265625">
        <ele>1629.199951171875</ele>
        <time>2026-06-18T11:27:02.000Z</time>
        <extensions>
          <ns3:TrackPointExtension>
            <ns3:atemp>22.0</ns3:atemp>
          </ns3:TrackPointExtension>
        </extensions>
      </trkpt>
      <trkpt lat="42.52284460701048374176025390625" lon="19.76939664222300052642822265625">
        <ele>1629.199951171875</ele>
        <time>2026-06-18T11:27:03.000Z</time>
        <extensions>
          <ns3:TrackPointExtension>
            <ns3:atemp>22.0</ns3:atemp>
          </ns3:TrackPointExtension>
        </extensions>
      </trkpt>
      <trkpt lat="42.52284460701048374176025390625" lon="19.76939664222300052642822265625">
        <ele>1629.199951171875</ele>
        <time>2026-06-18T11:27:04.000Z</time>
        <extensions>
          <ns3:TrackPointExtension>
            <ns3:atemp>22.0</ns3:atemp>
          </ns3:TrackPointExtension>
        </extensions>
      </trkpt>
      <trkpt lat="42.52284460701048374176025390625" lon="19.76939664222300052642822265625">
        <ele>1629.199951171875</ele>
        <time>2026-06-18T11:27:05.000Z</time>
        <extensions>
          <ns3:TrackPointExtension>
            <ns3:atemp>22.0</ns3:atemp>
          </ns3:TrackPointExtension>
        </extensions>
      </trkpt>
      <trkpt lat="42.52284460701048374176025390625" lon="19.76939664222300052642822265625">
        <ele>1629.199951171875</ele>
        <time>2026-06-18T11:27:06.000Z</time>
        <extensions>
          <ns3:TrackPointExtension>
            <ns3:atemp>22.0</ns3:atemp>
          </ns3:TrackPointExtension>
        </extensions>
      </trkpt>
      <trkpt lat="42.52284460701048374176025390625" lon="19.76939664222300052642822265625">
        <ele>1629.199951171875</ele>
        <time>2026-06-18T11:27:07.000Z</time>
        <extensions>
          <ns3:TrackPointExtension>
            <ns3:atemp>22.0</ns3:atemp>
          </ns3:TrackPointExtension>
        </extensions>
      </trkpt>
      <trkpt lat="42.52284460701048374176025390625" lon="19.76939664222300052642822265625">
        <ele>1629.199951171875</ele>
        <time>2026-06-18T11:27:08.000Z</time>
        <extensions>
          <ns3:TrackPointExtension>
            <ns3:atemp>22.0</ns3:atemp>
          </ns3:TrackPointExtension>
        </extensions>
      </trkpt>
      <trkpt lat="42.52284460701048374176025390625" lon="19.76939664222300052642822265625">
        <ele>1629.199951171875</ele>
        <time>2026-06-18T11:27:09.000Z</time>
        <extensions>
          <ns3:TrackPointExtension>
            <ns3:atemp>22.0</ns3:atemp>
          </ns3:TrackPointExtension>
        </extensions>
      </trkpt>
      <trkpt lat="42.52284460701048374176025390625" lon="19.76939664222300052642822265625">
        <ele>1629.199951171875</ele>
        <time>2026-06-18T11:27:10.000Z</time>
        <extensions>
          <ns3:TrackPointExtension>
            <ns3:atemp>22.0</ns3:atemp>
          </ns3:TrackPointExtension>
        </extensions>
      </trkpt>
      <trkpt lat="42.52284460701048374176025390625" lon="19.76939664222300052642822265625">
        <ele>1629.199951171875</ele>
        <time>2026-06-18T11:27:11.000Z</time>
        <extensions>
          <ns3:TrackPointExtension>
            <ns3:atemp>22.0</ns3:atemp>
          </ns3:TrackPointExtension>
        </extensions>
      </trkpt>
      <trkpt lat="42.52284460701048374176025390625" lon="19.76939664222300052642822265625">
        <ele>1629.199951171875</ele>
        <time>2026-06-18T11:27:12.000Z</time>
        <extensions>
          <ns3:TrackPointExtension>
            <ns3:atemp>22.0</ns3:atemp>
          </ns3:TrackPointExtension>
        </extensions>
      </trkpt>
      <trkpt lat="42.52284460701048374176025390625" lon="19.76939664222300052642822265625">
        <ele>1629.199951171875</ele>
        <time>2026-06-18T11:27:13.000Z</time>
        <extensions>
          <ns3:TrackPointExtension>
            <ns3:atemp>22.0</ns3:atemp>
          </ns3:TrackPointExtension>
        </extensions>
      </trkpt>
      <trkpt lat="42.52284460701048374176025390625" lon="19.76939664222300052642822265625">
        <ele>1629.199951171875</ele>
        <time>2026-06-18T11:27:14.000Z</time>
        <extensions>
          <ns3:TrackPointExtension>
            <ns3:atemp>22.0</ns3:atemp>
          </ns3:TrackPointExtension>
        </extensions>
      </trkpt>
      <trkpt lat="42.52284460701048374176025390625" lon="19.76939664222300052642822265625">
        <ele>1629.199951171875</ele>
        <time>2026-06-18T11:27:15.000Z</time>
        <extensions>
          <ns3:TrackPointExtension>
            <ns3:atemp>22.0</ns3:atemp>
          </ns3:TrackPointExtension>
        </extensions>
      </trkpt>
      <trkpt lat="42.52284460701048374176025390625" lon="19.76939664222300052642822265625">
        <ele>1629.199951171875</ele>
        <time>2026-06-18T11:27:16.000Z</time>
        <extensions>
          <ns3:TrackPointExtension>
            <ns3:atemp>22.0</ns3:atemp>
          </ns3:TrackPointExtension>
        </extensions>
      </trkpt>
      <trkpt lat="42.52284460701048374176025390625" lon="19.76939664222300052642822265625">
        <ele>1629.199951171875</ele>
        <time>2026-06-18T11:27:17.000Z</time>
        <extensions>
          <ns3:TrackPointExtension>
            <ns3:atemp>22.0</ns3:atemp>
          </ns3:TrackPointExtension>
        </extensions>
      </trkpt>
      <trkpt lat="42.52284460701048374176025390625" lon="19.76939664222300052642822265625">
        <ele>1629.199951171875</ele>
        <time>2026-06-18T11:27:18.000Z</time>
        <extensions>
          <ns3:TrackPointExtension>
            <ns3:atemp>22.0</ns3:atemp>
          </ns3:TrackPointExtension>
        </extensions>
      </trkpt>
      <trkpt lat="42.52284460701048374176025390625" lon="19.76939664222300052642822265625">
        <ele>1629.199951171875</ele>
        <time>2026-06-18T11:27:19.000Z</time>
        <extensions>
          <ns3:TrackPointExtension>
            <ns3:atemp>22.0</ns3:atemp>
          </ns3:TrackPointExtension>
        </extensions>
      </trkpt>
      <trkpt lat="42.52284460701048374176025390625" lon="19.76939664222300052642822265625">
        <ele>1629.199951171875</ele>
        <time>2026-06-18T11:27:20.000Z</time>
        <extensions>
          <ns3:TrackPointExtension>
            <ns3:atemp>22.0</ns3:atemp>
          </ns3:TrackPointExtension>
        </extensions>
      </trkpt>
      <trkpt lat="42.52284460701048374176025390625" lon="19.76939664222300052642822265625">
        <ele>1629.199951171875</ele>
        <time>2026-06-18T11:27:21.000Z</time>
        <extensions>
          <ns3:TrackPointExtension>
            <ns3:atemp>22.0</ns3:atemp>
          </ns3:TrackPointExtension>
        </extensions>
      </trkpt>
      <trkpt lat="42.52284460701048374176025390625" lon="19.76939664222300052642822265625">
        <ele>1629.199951171875</ele>
        <time>2026-06-18T11:27:22.000Z</time>
        <extensions>
          <ns3:TrackPointExtension>
            <ns3:atemp>22.0</ns3:atemp>
          </ns3:TrackPointExtension>
        </extensions>
      </trkpt>
      <trkpt lat="42.52284460701048374176025390625" lon="19.76939664222300052642822265625">
        <ele>1629.199951171875</ele>
        <time>2026-06-18T11:27:23.000Z</time>
        <extensions>
          <ns3:TrackPointExtension>
            <ns3:atemp>22.0</ns3:atemp>
          </ns3:TrackPointExtension>
        </extensions>
      </trkpt>
      <trkpt lat="42.52284460701048374176025390625" lon="19.76939664222300052642822265625">
        <ele>1629.199951171875</ele>
        <time>2026-06-18T11:27:24.000Z</time>
        <extensions>
          <ns3:TrackPointExtension>
            <ns3:atemp>22.0</ns3:atemp>
          </ns3:TrackPointExtension>
        </extensions>
      </trkpt>
      <trkpt lat="42.52284460701048374176025390625" lon="19.76939664222300052642822265625">
        <ele>1629.199951171875</ele>
        <time>2026-06-18T11:27:25.000Z</time>
        <extensions>
          <ns3:TrackPointExtension>
            <ns3:atemp>22.0</ns3:atemp>
          </ns3:TrackPointExtension>
        </extensions>
      </trkpt>
      <trkpt lat="42.52284460701048374176025390625" lon="19.76939664222300052642822265625">
        <ele>1629.199951171875</ele>
        <time>2026-06-18T11:27:26.000Z</time>
        <extensions>
          <ns3:TrackPointExtension>
            <ns3:atemp>22.0</ns3:atemp>
          </ns3:TrackPointExtension>
        </extensions>
      </trkpt>
      <trkpt lat="42.52284460701048374176025390625" lon="19.76939664222300052642822265625">
        <ele>1629.199951171875</ele>
        <time>2026-06-18T11:27:27.000Z</time>
        <extensions>
          <ns3:TrackPointExtension>
            <ns3:atemp>22.0</ns3:atemp>
          </ns3:TrackPointExtension>
        </extensions>
      </trkpt>
      <trkpt lat="42.52284460701048374176025390625" lon="19.76939664222300052642822265625">
        <ele>1629.199951171875</ele>
        <time>2026-06-18T11:27:28.000Z</time>
        <extensions>
          <ns3:TrackPointExtension>
            <ns3:atemp>22.0</ns3:atemp>
          </ns3:TrackPointExtension>
        </extensions>
      </trkpt>
      <trkpt lat="42.52284460701048374176025390625" lon="19.76939664222300052642822265625">
        <ele>1629.199951171875</ele>
        <time>2026-06-18T11:27:29.000Z</time>
        <extensions>
          <ns3:TrackPointExtension>
            <ns3:atemp>22.0</ns3:atemp>
          </ns3:TrackPointExtension>
        </extensions>
      </trkpt>
      <trkpt lat="42.52284460701048374176025390625" lon="19.76939664222300052642822265625">
        <ele>1629.199951171875</ele>
        <time>2026-06-18T11:27:30.000Z</time>
        <extensions>
          <ns3:TrackPointExtension>
            <ns3:atemp>22.0</ns3:atemp>
          </ns3:TrackPointExtension>
        </extensions>
      </trkpt>
      <trkpt lat="42.52284460701048374176025390625" lon="19.76939664222300052642822265625">
        <ele>1629.199951171875</ele>
        <time>2026-06-18T11:27:31.000Z</time>
        <extensions>
          <ns3:TrackPointExtension>
            <ns3:atemp>22.0</ns3:atemp>
          </ns3:TrackPointExtension>
        </extensions>
      </trkpt>
      <trkpt lat="42.52284460701048374176025390625" lon="19.76939664222300052642822265625">
        <ele>1629.199951171875</ele>
        <time>2026-06-18T11:27:32.000Z</time>
        <extensions>
          <ns3:TrackPointExtension>
            <ns3:atemp>22.0</ns3:atemp>
          </ns3:TrackPointExtension>
        </extensions>
      </trkpt>
      <trkpt lat="42.52284460701048374176025390625" lon="19.76939664222300052642822265625">
        <ele>1629.199951171875</ele>
        <time>2026-06-18T11:27:33.000Z</time>
        <extensions>
          <ns3:TrackPointExtension>
            <ns3:atemp>22.0</ns3:atemp>
          </ns3:TrackPointExtension>
        </extensions>
      </trkpt>
      <trkpt lat="42.52284460701048374176025390625" lon="19.76939664222300052642822265625">
        <ele>1629.199951171875</ele>
        <time>2026-06-18T11:27:34.000Z</time>
        <extensions>
          <ns3:TrackPointExtension>
            <ns3:atemp>22.0</ns3:atemp>
          </ns3:TrackPointExtension>
        </extensions>
      </trkpt>
      <trkpt lat="42.52284460701048374176025390625" lon="19.76939664222300052642822265625">
        <ele>1629.199951171875</ele>
        <time>2026-06-18T11:27:35.000Z</time>
        <extensions>
          <ns3:TrackPointExtension>
            <ns3:atemp>22.0</ns3:atemp>
          </ns3:TrackPointExtension>
        </extensions>
      </trkpt>
      <trkpt lat="42.52284460701048374176025390625" lon="19.76939664222300052642822265625">
        <ele>1629.199951171875</ele>
        <time>2026-06-18T11:27:36.000Z</time>
        <extensions>
          <ns3:TrackPointExtension>
            <ns3:atemp>22.0</ns3:atemp>
          </ns3:TrackPointExtension>
        </extensions>
      </trkpt>
      <trkpt lat="42.52284460701048374176025390625" lon="19.76939664222300052642822265625">
        <ele>1629.199951171875</ele>
        <time>2026-06-18T11:27:37.000Z</time>
        <extensions>
          <ns3:TrackPointExtension>
            <ns3:atemp>22.0</ns3:atemp>
          </ns3:TrackPointExtension>
        </extensions>
      </trkpt>
      <trkpt lat="42.52284460701048374176025390625" lon="19.76939664222300052642822265625">
        <ele>1629.199951171875</ele>
        <time>2026-06-18T11:27:38.000Z</time>
        <extensions>
          <ns3:TrackPointExtension>
            <ns3:atemp>22.0</ns3:atemp>
          </ns3:TrackPointExtension>
        </extensions>
      </trkpt>
      <trkpt lat="42.52284460701048374176025390625" lon="19.76939664222300052642822265625">
        <ele>1629.199951171875</ele>
        <time>2026-06-18T11:27:39.000Z</time>
        <extensions>
          <ns3:TrackPointExtension>
            <ns3:atemp>22.0</ns3:atemp>
          </ns3:TrackPointExtension>
        </extensions>
      </trkpt>
      <trkpt lat="42.52284460701048374176025390625" lon="19.76939664222300052642822265625">
        <ele>1629.199951171875</ele>
        <time>2026-06-18T11:27:40.000Z</time>
        <extensions>
          <ns3:TrackPointExtension>
            <ns3:atemp>22.0</ns3:atemp>
          </ns3:TrackPointExtension>
        </extensions>
      </trkpt>
      <trkpt lat="42.52284460701048374176025390625" lon="19.76939664222300052642822265625">
        <ele>1629.199951171875</ele>
        <time>2026-06-18T11:27:41.000Z</time>
        <extensions>
          <ns3:TrackPointExtension>
            <ns3:atemp>22.0</ns3:atemp>
          </ns3:TrackPointExtension>
        </extensions>
      </trkpt>
      <trkpt lat="42.52284460701048374176025390625" lon="19.76939664222300052642822265625">
        <ele>1629.199951171875</ele>
        <time>2026-06-18T11:27:42.000Z</time>
        <extensions>
          <ns3:TrackPointExtension>
            <ns3:atemp>22.0</ns3:atemp>
          </ns3:TrackPointExtension>
        </extensions>
      </trkpt>
      <trkpt lat="42.52284460701048374176025390625" lon="19.76939664222300052642822265625">
        <ele>1629.199951171875</ele>
        <time>2026-06-18T11:27:43.000Z</time>
        <extensions>
          <ns3:TrackPointExtension>
            <ns3:atemp>22.0</ns3:atemp>
          </ns3:TrackPointExtension>
        </extensions>
      </trkpt>
      <trkpt lat="42.52284460701048374176025390625" lon="19.76939664222300052642822265625">
        <ele>1629.199951171875</ele>
        <time>2026-06-18T11:27:44.000Z</time>
        <extensions>
          <ns3:TrackPointExtension>
            <ns3:atemp>22.0</ns3:atemp>
          </ns3:TrackPointExtension>
        </extensions>
      </trkpt>
      <trkpt lat="42.52284460701048374176025390625" lon="19.76939664222300052642822265625">
        <ele>1629.199951171875</ele>
        <time>2026-06-18T11:27:45.000Z</time>
        <extensions>
          <ns3:TrackPointExtension>
            <ns3:atemp>22.0</ns3:atemp>
          </ns3:TrackPointExtension>
        </extensions>
      </trkpt>
      <trkpt lat="42.52284460701048374176025390625" lon="19.76939664222300052642822265625">
        <ele>1629.199951171875</ele>
        <time>2026-06-18T11:27:46.000Z</time>
        <extensions>
          <ns3:TrackPointExtension>
            <ns3:atemp>22.0</ns3:atemp>
          </ns3:TrackPointExtension>
        </extensions>
      </trkpt>
      <trkpt lat="42.52284460701048374176025390625" lon="19.76939664222300052642822265625">
        <ele>1629.199951171875</ele>
        <time>2026-06-18T11:27:47.000Z</time>
        <extensions>
          <ns3:TrackPointExtension>
            <ns3:atemp>22.0</ns3:atemp>
          </ns3:TrackPointExtension>
        </extensions>
      </trkpt>
      <trkpt lat="42.52284460701048374176025390625" lon="19.76939664222300052642822265625">
        <ele>1629.199951171875</ele>
        <time>2026-06-18T11:27:48.000Z</time>
        <extensions>
          <ns3:TrackPointExtension>
            <ns3:atemp>22.0</ns3:atemp>
          </ns3:TrackPointExtension>
        </extensions>
      </trkpt>
      <trkpt lat="42.52284460701048374176025390625" lon="19.76939664222300052642822265625">
        <ele>1629.199951171875</ele>
        <time>2026-06-18T11:27:49.000Z</time>
        <extensions>
          <ns3:TrackPointExtension>
            <ns3:atemp>22.0</ns3:atemp>
          </ns3:TrackPointExtension>
        </extensions>
      </trkpt>
      <trkpt lat="42.52284460701048374176025390625" lon="19.76939664222300052642822265625">
        <ele>1629.199951171875</ele>
        <time>2026-06-18T11:27:50.000Z</time>
        <extensions>
          <ns3:TrackPointExtension>
            <ns3:atemp>22.0</ns3:atemp>
          </ns3:TrackPointExtension>
        </extensions>
      </trkpt>
      <trkpt lat="42.52284460701048374176025390625" lon="19.76939664222300052642822265625">
        <ele>1629.199951171875</ele>
        <time>2026-06-18T11:27:51.000Z</time>
        <extensions>
          <ns3:TrackPointExtension>
            <ns3:atemp>22.0</ns3:atemp>
          </ns3:TrackPointExtension>
        </extensions>
      </trkpt>
      <trkpt lat="42.52284460701048374176025390625" lon="19.76939664222300052642822265625">
        <ele>1629.199951171875</ele>
        <time>2026-06-18T11:27:52.000Z</time>
        <extensions>
          <ns3:TrackPointExtension>
            <ns3:atemp>22.0</ns3:atemp>
          </ns3:TrackPointExtension>
        </extensions>
      </trkpt>
      <trkpt lat="42.52284460701048374176025390625" lon="19.76939664222300052642822265625">
        <ele>1629.199951171875</ele>
        <time>2026-06-18T11:27:53.000Z</time>
        <extensions>
          <ns3:TrackPointExtension>
            <ns3:atemp>22.0</ns3:atemp>
          </ns3:TrackPointExtension>
        </extensions>
      </trkpt>
      <trkpt lat="42.52284460701048374176025390625" lon="19.76939664222300052642822265625">
        <ele>1629.199951171875</ele>
        <time>2026-06-18T11:27:54.000Z</time>
        <extensions>
          <ns3:TrackPointExtension>
            <ns3:atemp>22.0</ns3:atemp>
          </ns3:TrackPointExtension>
        </extensions>
      </trkpt>
      <trkpt lat="42.52284460701048374176025390625" lon="19.76939664222300052642822265625">
        <ele>1629.199951171875</ele>
        <time>2026-06-18T11:27:55.000Z</time>
        <extensions>
          <ns3:TrackPointExtension>
            <ns3:atemp>22.0</ns3:atemp>
          </ns3:TrackPointExtension>
        </extensions>
      </trkpt>
      <trkpt lat="42.52284460701048374176025390625" lon="19.76939664222300052642822265625">
        <ele>1629.199951171875</ele>
        <time>2026-06-18T11:27:56.000Z</time>
        <extensions>
          <ns3:TrackPointExtension>
            <ns3:atemp>22.0</ns3:atemp>
          </ns3:TrackPointExtension>
        </extensions>
      </trkpt>
      <trkpt lat="42.52284460701048374176025390625" lon="19.76939664222300052642822265625">
        <ele>1629.199951171875</ele>
        <time>2026-06-18T11:27:57.000Z</time>
        <extensions>
          <ns3:TrackPointExtension>
            <ns3:atemp>22.0</ns3:atemp>
          </ns3:TrackPointExtension>
        </extensions>
      </trkpt>
      <trkpt lat="42.52284460701048374176025390625" lon="19.76939664222300052642822265625">
        <ele>1629.199951171875</ele>
        <time>2026-06-18T11:27:58.000Z</time>
        <extensions>
          <ns3:TrackPointExtension>
            <ns3:atemp>22.0</ns3:atemp>
          </ns3:TrackPointExtension>
        </extensions>
      </trkpt>
      <trkpt lat="42.52284460701048374176025390625" lon="19.76939664222300052642822265625">
        <ele>1629.199951171875</ele>
        <time>2026-06-18T11:27:59.000Z</time>
        <extensions>
          <ns3:TrackPointExtension>
            <ns3:atemp>22.0</ns3:atemp>
          </ns3:TrackPointExtension>
        </extensions>
      </trkpt>
      <trkpt lat="42.52284460701048374176025390625" lon="19.76939664222300052642822265625">
        <ele>1629.199951171875</ele>
        <time>2026-06-18T11:28:00.000Z</time>
        <extensions>
          <ns3:TrackPointExtension>
            <ns3:atemp>22.0</ns3:atemp>
          </ns3:TrackPointExtension>
        </extensions>
      </trkpt>
      <trkpt lat="42.52284460701048374176025390625" lon="19.76939664222300052642822265625">
        <ele>1629.199951171875</ele>
        <time>2026-06-18T11:28:01.000Z</time>
        <extensions>
          <ns3:TrackPointExtension>
            <ns3:atemp>22.0</ns3:atemp>
          </ns3:TrackPointExtension>
        </extensions>
      </trkpt>
      <trkpt lat="42.52284460701048374176025390625" lon="19.76939664222300052642822265625">
        <ele>1629.199951171875</ele>
        <time>2026-06-18T11:28:02.000Z</time>
        <extensions>
          <ns3:TrackPointExtension>
            <ns3:atemp>22.0</ns3:atemp>
          </ns3:TrackPointExtension>
        </extensions>
      </trkpt>
      <trkpt lat="42.52284460701048374176025390625" lon="19.76939664222300052642822265625">
        <ele>1629.199951171875</ele>
        <time>2026-06-18T11:28:03.000Z</time>
        <extensions>
          <ns3:TrackPointExtension>
            <ns3:atemp>22.0</ns3:atemp>
          </ns3:TrackPointExtension>
        </extensions>
      </trkpt>
      <trkpt lat="42.52284460701048374176025390625" lon="19.76939664222300052642822265625">
        <ele>1629.199951171875</ele>
        <time>2026-06-18T11:28:04.000Z</time>
        <extensions>
          <ns3:TrackPointExtension>
            <ns3:atemp>22.0</ns3:atemp>
          </ns3:TrackPointExtension>
        </extensions>
      </trkpt>
      <trkpt lat="42.52284460701048374176025390625" lon="19.76939664222300052642822265625">
        <ele>1629.199951171875</ele>
        <time>2026-06-18T11:28:05.000Z</time>
        <extensions>
          <ns3:TrackPointExtension>
            <ns3:atemp>22.0</ns3:atemp>
          </ns3:TrackPointExtension>
        </extensions>
      </trkpt>
      <trkpt lat="42.52284460701048374176025390625" lon="19.76939664222300052642822265625">
        <ele>1629.199951171875</ele>
        <time>2026-06-18T11:28:06.000Z</time>
        <extensions>
          <ns3:TrackPointExtension>
            <ns3:atemp>22.0</ns3:atemp>
          </ns3:TrackPointExtension>
        </extensions>
      </trkpt>
      <trkpt lat="42.52284460701048374176025390625" lon="19.76939664222300052642822265625">
        <ele>1629.199951171875</ele>
        <time>2026-06-18T11:28:07.000Z</time>
        <extensions>
          <ns3:TrackPointExtension>
            <ns3:atemp>22.0</ns3:atemp>
          </ns3:TrackPointExtension>
        </extensions>
      </trkpt>
      <trkpt lat="42.52284460701048374176025390625" lon="19.76939664222300052642822265625">
        <ele>1629.199951171875</ele>
        <time>2026-06-18T11:28:08.000Z</time>
        <extensions>
          <ns3:TrackPointExtension>
            <ns3:atemp>22.0</ns3:atemp>
          </ns3:TrackPointExtension>
        </extensions>
      </trkpt>
      <trkpt lat="42.52284460701048374176025390625" lon="19.76939664222300052642822265625">
        <ele>1629.199951171875</ele>
        <time>2026-06-18T11:28:09.000Z</time>
        <extensions>
          <ns3:TrackPointExtension>
            <ns3:atemp>22.0</ns3:atemp>
          </ns3:TrackPointExtension>
        </extensions>
      </trkpt>
      <trkpt lat="42.52284460701048374176025390625" lon="19.76939664222300052642822265625">
        <ele>1629.199951171875</ele>
        <time>2026-06-18T11:28:10.000Z</time>
        <extensions>
          <ns3:TrackPointExtension>
            <ns3:atemp>22.0</ns3:atemp>
          </ns3:TrackPointExtension>
        </extensions>
      </trkpt>
      <trkpt lat="42.52284460701048374176025390625" lon="19.76939664222300052642822265625">
        <ele>1629.199951171875</ele>
        <time>2026-06-18T11:28:11.000Z</time>
        <extensions>
          <ns3:TrackPointExtension>
            <ns3:atemp>22.0</ns3:atemp>
          </ns3:TrackPointExtension>
        </extensions>
      </trkpt>
      <trkpt lat="42.52284460701048374176025390625" lon="19.76939664222300052642822265625">
        <ele>1629.199951171875</ele>
        <time>2026-06-18T11:28:12.000Z</time>
        <extensions>
          <ns3:TrackPointExtension>
            <ns3:atemp>22.0</ns3:atemp>
          </ns3:TrackPointExtension>
        </extensions>
      </trkpt>
      <trkpt lat="42.52284460701048374176025390625" lon="19.76939664222300052642822265625">
        <ele>1629.199951171875</ele>
        <time>2026-06-18T11:28:13.000Z</time>
        <extensions>
          <ns3:TrackPointExtension>
            <ns3:atemp>22.0</ns3:atemp>
          </ns3:TrackPointExtension>
        </extensions>
      </trkpt>
      <trkpt lat="42.52284460701048374176025390625" lon="19.76939664222300052642822265625">
        <ele>1629.199951171875</ele>
        <time>2026-06-18T11:28:14.000Z</time>
        <extensions>
          <ns3:TrackPointExtension>
            <ns3:atemp>22.0</ns3:atemp>
          </ns3:TrackPointExtension>
        </extensions>
      </trkpt>
      <trkpt lat="42.52284460701048374176025390625" lon="19.76939664222300052642822265625">
        <ele>1629.199951171875</ele>
        <time>2026-06-18T11:28:15.000Z</time>
        <extensions>
          <ns3:TrackPointExtension>
            <ns3:atemp>22.0</ns3:atemp>
          </ns3:TrackPointExtension>
        </extensions>
      </trkpt>
      <trkpt lat="42.52284460701048374176025390625" lon="19.76939664222300052642822265625">
        <ele>1629.199951171875</ele>
        <time>2026-06-18T11:28:16.000Z</time>
        <extensions>
          <ns3:TrackPointExtension>
            <ns3:atemp>22.0</ns3:atemp>
          </ns3:TrackPointExtension>
        </extensions>
      </trkpt>
      <trkpt lat="42.52284460701048374176025390625" lon="19.76939664222300052642822265625">
        <ele>1629.199951171875</ele>
        <time>2026-06-18T11:28:17.000Z</time>
        <extensions>
          <ns3:TrackPointExtension>
            <ns3:atemp>22.0</ns3:atemp>
          </ns3:TrackPointExtension>
        </extensions>
      </trkpt>
      <trkpt lat="42.52284460701048374176025390625" lon="19.76939664222300052642822265625">
        <ele>1629.199951171875</ele>
        <time>2026-06-18T11:28:18.000Z</time>
        <extensions>
          <ns3:TrackPointExtension>
            <ns3:atemp>22.0</ns3:atemp>
          </ns3:TrackPointExtension>
        </extensions>
      </trkpt>
      <trkpt lat="42.52284460701048374176025390625" lon="19.76939664222300052642822265625">
        <ele>1629.199951171875</ele>
        <time>2026-06-18T11:28:19.000Z</time>
        <extensions>
          <ns3:TrackPointExtension>
            <ns3:atemp>22.0</ns3:atemp>
          </ns3:TrackPointExtension>
        </extensions>
      </trkpt>
      <trkpt lat="42.52284460701048374176025390625" lon="19.76939664222300052642822265625">
        <ele>1629.199951171875</ele>
        <time>2026-06-18T11:28:20.000Z</time>
        <extensions>
          <ns3:TrackPointExtension>
            <ns3:atemp>22.0</ns3:atemp>
          </ns3:TrackPointExtension>
        </extensions>
      </trkpt>
      <trkpt lat="42.52284460701048374176025390625" lon="19.76939664222300052642822265625">
        <ele>1629.199951171875</ele>
        <time>2026-06-18T11:28:21.000Z</time>
        <extensions>
          <ns3:TrackPointExtension>
            <ns3:atemp>22.0</ns3:atemp>
          </ns3:TrackPointExtension>
        </extensions>
      </trkpt>
      <trkpt lat="42.522847540676593780517578125" lon="19.769396893680095672607421875">
        <ele>1629.199951171875</ele>
        <time>2026-06-18T11:28:22.000Z</time>
        <extensions>
          <ns3:TrackPointExtension>
            <ns3:atemp>22.0</ns3:atemp>
          </ns3:TrackPointExtension>
        </extensions>
      </trkpt>
      <trkpt lat="42.5228591077029705047607421875" lon="19.769406281411647796630859375">
        <ele>1629.199951171875</ele>
        <time>2026-06-18T11:28:23.000Z</time>
        <extensions>
          <ns3:TrackPointExtension>
            <ns3:atemp>22.0</ns3:atemp>
          </ns3:TrackPointExtension>
        </extensions>
      </trkpt>
      <trkpt lat="42.52286086790263652801513671875" lon="19.7694081254303455352783203125">
        <ele>1629.199951171875</ele>
        <time>2026-06-18T11:28:24.000Z</time>
        <extensions>
          <ns3:TrackPointExtension>
            <ns3:atemp>22.0</ns3:atemp>
          </ns3:TrackPointExtension>
        </extensions>
      </trkpt>
      <trkpt lat="42.52286304719746112823486328125" lon="19.769412986934185028076171875">
        <ele>1629.199951171875</ele>
        <time>2026-06-18T11:28:25.000Z</time>
        <extensions>
          <ns3:TrackPointExtension>
            <ns3:atemp>22.0</ns3:atemp>
          </ns3:TrackPointExtension>
        </extensions>
      </trkpt>
      <trkpt lat="42.52286422066390514373779296875" lon="19.76941877044737339019775390625">
        <ele>1629.199951171875</ele>
        <time>2026-06-18T11:28:26.000Z</time>
        <extensions>
          <ns3:TrackPointExtension>
            <ns3:atemp>22.0</ns3:atemp>
          </ns3:TrackPointExtension>
        </extensions>
      </trkpt>
      <trkpt lat="42.52286405302584171295166015625" lon="19.7694188542664051055908203125">
        <ele>1629.199951171875</ele>
        <time>2026-06-18T11:28:27.000Z</time>
        <extensions>
          <ns3:TrackPointExtension>
            <ns3:atemp>22.0</ns3:atemp>
          </ns3:TrackPointExtension>
        </extensions>
      </trkpt>
      <trkpt lat="42.522864639759063720703125" lon="19.76943670772016048431396484375">
        <ele>1629.199951171875</ele>
        <time>2026-06-18T11:28:28.000Z</time>
        <extensions>
          <ns3:TrackPointExtension>
            <ns3:atemp>22.0</ns3:atemp>
          </ns3:TrackPointExtension>
        </extensions>
      </trkpt>
      <trkpt lat="42.52287377603352069854736328125" lon="19.76945129223167896270751953125">
        <ele>1629.199951171875</ele>
        <time>2026-06-18T11:28:29.000Z</time>
        <extensions>
          <ns3:TrackPointExtension>
            <ns3:atemp>22.0</ns3:atemp>
          </ns3:TrackPointExtension>
        </extensions>
      </trkpt>
      <trkpt lat="42.5228889472782611846923828125" lon="19.769463948905467987060546875">
        <ele>1629.4000244140625</ele>
        <time>2026-06-18T11:28:30.000Z</time>
        <extensions>
          <ns3:TrackPointExtension>
            <ns3:atemp>22.0</ns3:atemp>
          </ns3:TrackPointExtension>
        </extensions>
      </trkpt>
      <trkpt lat="42.52290462143719196319580078125" lon="19.76947107352316379547119140625">
        <ele>1629.4000244140625</ele>
        <time>2026-06-18T11:28:31.000Z</time>
        <extensions>
          <ns3:TrackPointExtension>
            <ns3:atemp>22.0</ns3:atemp>
          </ns3:TrackPointExtension>
        </extensions>
      </trkpt>
      <trkpt lat="42.52292591147124767303466796875" lon="19.76947979070246219635009765625">
        <ele>1629.199951171875</ele>
        <time>2026-06-18T11:28:32.000Z</time>
        <extensions>
          <ns3:TrackPointExtension>
            <ns3:atemp>22.0</ns3:atemp>
          </ns3:TrackPointExtension>
        </extensions>
      </trkpt>
      <trkpt lat="42.522945106029510498046875" lon="19.76948507130146026611328125">
        <ele>1629</ele>
        <time>2026-06-18T11:28:33.000Z</time>
        <extensions>
          <ns3:TrackPointExtension>
            <ns3:atemp>22.0</ns3:atemp>
          </ns3:TrackPointExtension>
        </extensions>
      </trkpt>
      <trkpt lat="42.5229660607874393463134765625" lon="19.76949202828109264373779296875">
        <ele>1629</ele>
        <time>2026-06-18T11:28:34.000Z</time>
        <extensions>
          <ns3:TrackPointExtension>
            <ns3:atemp>22.0</ns3:atemp>
          </ns3:TrackPointExtension>
        </extensions>
      </trkpt>
      <trkpt lat="42.5229858420789241790771484375" lon="19.769487082958221435546875">
        <ele>1629</ele>
        <time>2026-06-18T11:28:35.000Z</time>
        <extensions>
          <ns3:TrackPointExtension>
            <ns3:atemp>22.0</ns3:atemp>
          </ns3:TrackPointExtension>
        </extensions>
      </trkpt>
      <trkpt lat="42.5230135023593902587890625" lon="19.7694683074951171875">
        <ele>1629</ele>
        <time>2026-06-18T11:28:36.000Z</time>
        <extensions>
          <ns3:TrackPointExtension>
            <ns3:atemp>22.0</ns3:atemp>
          </ns3:TrackPointExtension>
        </extensions>
      </trkpt>
      <trkpt lat="42.523035295307636260986328125" lon="19.769453890621662139892578125">
        <ele>1629.199951171875</ele>
        <time>2026-06-18T11:28:37.000Z</time>
        <extensions>
          <ns3:TrackPointExtension>
            <ns3:atemp>22.0</ns3:atemp>
          </ns3:TrackPointExtension>
        </extensions>
      </trkpt>
      <trkpt lat="42.5230642966926097869873046875" lon="19.769441820681095123291015625">
        <ele>1629.199951171875</ele>
        <time>2026-06-18T11:28:38.000Z</time>
        <extensions>
          <ns3:TrackPointExtension>
            <ns3:atemp>22.0</ns3:atemp>
          </ns3:TrackPointExtension>
        </extensions>
      </trkpt>
      <trkpt lat="42.52309639938175678253173828125" lon="19.76942463777959346771240234375">
        <ele>1629.199951171875</ele>
        <time>2026-06-18T11:28:39.000Z</time>
        <extensions>
          <ns3:TrackPointExtension>
            <ns3:atemp>22.0</ns3:atemp>
          </ns3:TrackPointExtension>
        </extensions>
      </trkpt>
      <trkpt lat="42.52312548458576202392578125" lon="19.76940594613552093505859375">
        <ele>1629.199951171875</ele>
        <time>2026-06-18T11:28:40.000Z</time>
        <extensions>
          <ns3:TrackPointExtension>
            <ns3:atemp>22.0</ns3:atemp>
          </ns3:TrackPointExtension>
        </extensions>
      </trkpt>
      <trkpt lat="42.5231645442545413970947265625" lon="19.76938574574887752532958984375">
        <ele>1629.199951171875</ele>
        <time>2026-06-18T11:28:41.000Z</time>
        <extensions>
          <ns3:TrackPointExtension>
            <ns3:atemp>22.0</ns3:atemp>
          </ns3:TrackPointExtension>
        </extensions>
      </trkpt>
      <trkpt lat="42.5231927074491977691650390625" lon="19.76937711238861083984375">
        <ele>1629.199951171875</ele>
        <time>2026-06-18T11:28:42.000Z</time>
        <extensions>
          <ns3:TrackPointExtension>
            <ns3:atemp>22.0</ns3:atemp>
          </ns3:TrackPointExtension>
        </extensions>
      </trkpt>
      <trkpt lat="42.52321726642549037933349609375" lon="19.7693811357021331787109375">
        <ele>1629.4000244140625</ele>
        <time>2026-06-18T11:28:43.000Z</time>
        <extensions>
          <ns3:TrackPointExtension>
            <ns3:atemp>22.0</ns3:atemp>
          </ns3:TrackPointExtension>
        </extensions>
      </trkpt>
      <trkpt lat="42.5232329405844211578369140625" lon="19.7693839855492115020751953125">
        <ele>1629.5999755859375</ele>
        <time>2026-06-18T11:28:44.000Z</time>
        <extensions>
          <ns3:TrackPointExtension>
            <ns3:atemp>22.0</ns3:atemp>
          </ns3:TrackPointExtension>
        </extensions>
      </trkpt>
      <trkpt lat="42.52324660308659076690673828125" lon="19.76938054896891117095947265625">
        <ele>1629.5999755859375</ele>
        <time>2026-06-18T11:28:45.000Z</time>
        <extensions>
          <ns3:TrackPointExtension>
            <ns3:atemp>22.0</ns3:atemp>
          </ns3:TrackPointExtension>
        </extensions>
      </trkpt>
      <trkpt lat="42.52326361835002899169921875" lon="19.76937786675989627838134765625">
        <ele>1629.800048828125</ele>
        <time>2026-06-18T11:28:46.000Z</time>
        <extensions>
          <ns3:TrackPointExtension>
            <ns3:atemp>22.0</ns3:atemp>
          </ns3:TrackPointExtension>
        </extensions>
      </trkpt>
      <trkpt lat="42.5232782028615474700927734375" lon="19.76936931721866130828857421875">
        <ele>1629.800048828125</ele>
        <time>2026-06-18T11:28:47.000Z</time>
        <extensions>
          <ns3:TrackPointExtension>
            <ns3:atemp>22.0</ns3:atemp>
          </ns3:TrackPointExtension>
        </extensions>
      </trkpt>
      <trkpt lat="42.52329421229660511016845703125" lon="19.76935523562133312225341796875">
        <ele>1629.800048828125</ele>
        <time>2026-06-18T11:28:48.000Z</time>
        <extensions>
          <ns3:TrackPointExtension>
            <ns3:atemp>22.0</ns3:atemp>
          </ns3:TrackPointExtension>
        </extensions>
      </trkpt>
      <trkpt lat="42.5233093835413455963134765625" lon="19.769343249499797821044921875">
        <ele>1629.800048828125</ele>
        <time>2026-06-18T11:28:49.000Z</time>
        <extensions>
          <ns3:TrackPointExtension>
            <ns3:atemp>22.0</ns3:atemp>
          </ns3:TrackPointExtension>
        </extensions>
      </trkpt>
      <trkpt lat="42.52332799136638641357421875" lon="19.76933411322534084320068359375">
        <ele>1629.5999755859375</ele>
        <time>2026-06-18T11:28:50.000Z</time>
        <extensions>
          <ns3:TrackPointExtension>
            <ns3:atemp>22.0</ns3:atemp>
          </ns3:TrackPointExtension>
        </extensions>
      </trkpt>
      <trkpt lat="42.5233502872288227081298828125" lon="19.7693222947418689727783203125">
        <ele>1629.5999755859375</ele>
        <time>2026-06-18T11:28:51.000Z</time>
        <extensions>
          <ns3:TrackPointExtension>
            <ns3:atemp>22.0</ns3:atemp>
          </ns3:TrackPointExtension>
        </extensions>
      </trkpt>
      <trkpt lat="42.52336747013032436370849609375" lon="19.76931517012417316436767578125">
        <ele>1629.199951171875</ele>
        <time>2026-06-18T11:28:52.000Z</time>
        <extensions>
          <ns3:TrackPointExtension>
            <ns3:atemp>22.0</ns3:atemp>
          </ns3:TrackPointExtension>
        </extensions>
      </trkpt>
      <trkpt lat="42.52338163554668426513671875" lon="19.76931131444871425628662109375">
        <ele>1629</ele>
        <time>2026-06-18T11:28:53.000Z</time>
        <extensions>
          <ns3:TrackPointExtension>
            <ns3:atemp>22.0</ns3:atemp>
          </ns3:TrackPointExtension>
        </extensions>
      </trkpt>
      <trkpt lat="42.52338926307857036590576171875" lon="19.769310392439365386962890625">
        <ele>1628.800048828125</ele>
        <time>2026-06-18T11:28:54.000Z</time>
        <extensions>
          <ns3:TrackPointExtension>
            <ns3:atemp>22.0</ns3:atemp>
          </ns3:TrackPointExtension>
        </extensions>
      </trkpt>
      <trkpt lat="42.52338926307857036590576171875" lon="19.769310392439365386962890625">
        <ele>1628.5999755859375</ele>
        <time>2026-06-18T11:28:55.000Z</time>
        <extensions>
          <ns3:TrackPointExtension>
            <ns3:atemp>22.0</ns3:atemp>
          </ns3:TrackPointExtension>
        </extensions>
      </trkpt>
      <trkpt lat="42.52338926307857036590576171875" lon="19.769310392439365386962890625">
        <ele>1628.4000244140625</ele>
        <time>2026-06-18T11:28:56.000Z</time>
        <extensions>
          <ns3:TrackPointExtension>
            <ns3:atemp>22.0</ns3:atemp>
          </ns3:TrackPointExtension>
        </extensions>
      </trkpt>
      <trkpt lat="42.52338926307857036590576171875" lon="19.769310392439365386962890625">
        <ele>1628.4000244140625</ele>
        <time>2026-06-18T11:28:57.000Z</time>
        <extensions>
          <ns3:TrackPointExtension>
            <ns3:atemp>22.0</ns3:atemp>
          </ns3:TrackPointExtension>
        </extensions>
      </trkpt>
      <trkpt lat="42.52338926307857036590576171875" lon="19.769310392439365386962890625">
        <ele>1628.4000244140625</ele>
        <time>2026-06-18T11:28:58.000Z</time>
        <extensions>
          <ns3:TrackPointExtension>
            <ns3:atemp>22.0</ns3:atemp>
          </ns3:TrackPointExtension>
        </extensions>
      </trkpt>
      <trkpt lat="42.52338926307857036590576171875" lon="19.769310392439365386962890625">
        <ele>1628.4000244140625</ele>
        <time>2026-06-18T11:28:59.000Z</time>
        <extensions>
          <ns3:TrackPointExtension>
            <ns3:atemp>22.0</ns3:atemp>
          </ns3:TrackPointExtension>
        </extensions>
      </trkpt>
      <trkpt lat="42.52338926307857036590576171875" lon="19.769310392439365386962890625">
        <ele>1628.4000244140625</ele>
        <time>2026-06-18T11:29:00.000Z</time>
        <extensions>
          <ns3:TrackPointExtension>
            <ns3:atemp>22.0</ns3:atemp>
          </ns3:TrackPointExtension>
        </extensions>
      </trkpt>
      <trkpt lat="42.52338926307857036590576171875" lon="19.769310392439365386962890625">
        <ele>1628.199951171875</ele>
        <time>2026-06-18T11:29:01.000Z</time>
        <extensions>
          <ns3:TrackPointExtension>
            <ns3:atemp>22.0</ns3:atemp>
          </ns3:TrackPointExtension>
        </extensions>
      </trkpt>
      <trkpt lat="42.52338926307857036590576171875" lon="19.769310392439365386962890625">
        <ele>1628.199951171875</ele>
        <time>2026-06-18T11:29:02.000Z</time>
        <extensions>
          <ns3:TrackPointExtension>
            <ns3:atemp>22.0</ns3:atemp>
          </ns3:TrackPointExtension>
        </extensions>
      </trkpt>
      <trkpt lat="42.52338926307857036590576171875" lon="19.769310392439365386962890625">
        <ele>1628.199951171875</ele>
        <time>2026-06-18T11:29:03.000Z</time>
        <extensions>
          <ns3:TrackPointExtension>
            <ns3:atemp>22.0</ns3:atemp>
          </ns3:TrackPointExtension>
        </extensions>
      </trkpt>
      <trkpt lat="42.52338926307857036590576171875" lon="19.769310392439365386962890625">
        <ele>1628.199951171875</ele>
        <time>2026-06-18T11:29:04.000Z</time>
        <extensions>
          <ns3:TrackPointExtension>
            <ns3:atemp>22.0</ns3:atemp>
          </ns3:TrackPointExtension>
        </extensions>
      </trkpt>
      <trkpt lat="42.52338926307857036590576171875" lon="19.769310392439365386962890625">
        <ele>1628.199951171875</ele>
        <time>2026-06-18T11:29:05.000Z</time>
        <extensions>
          <ns3:TrackPointExtension>
            <ns3:atemp>22.0</ns3:atemp>
          </ns3:TrackPointExtension>
        </extensions>
      </trkpt>
      <trkpt lat="42.52338926307857036590576171875" lon="19.769310392439365386962890625">
        <ele>1628.199951171875</ele>
        <time>2026-06-18T11:29:06.000Z</time>
        <extensions>
          <ns3:TrackPointExtension>
            <ns3:atemp>22.0</ns3:atemp>
          </ns3:TrackPointExtension>
        </extensions>
      </trkpt>
      <trkpt lat="42.5233921967446804046630859375" lon="19.76930997334420680999755859375">
        <ele>1628.199951171875</ele>
        <time>2026-06-18T11:29:07.000Z</time>
        <extensions>
          <ns3:TrackPointExtension>
            <ns3:atemp>22.0</ns3:atemp>
          </ns3:TrackPointExtension>
        </extensions>
      </trkpt>
      <trkpt lat="42.52340066246688365936279296875" lon="19.769313745200634002685546875">
        <ele>1628.199951171875</ele>
        <time>2026-06-18T11:29:08.000Z</time>
        <extensions>
          <ns3:TrackPointExtension>
            <ns3:atemp>22.0</ns3:atemp>
          </ns3:TrackPointExtension>
        </extensions>
      </trkpt>
      <trkpt lat="42.523408792912960052490234375" lon="19.769312404096126556396484375">
        <ele>1628.199951171875</ele>
        <time>2026-06-18T11:29:09.000Z</time>
        <extensions>
          <ns3:TrackPointExtension>
            <ns3:atemp>23.0</ns3:atemp>
          </ns3:TrackPointExtension>
        </extensions>
      </trkpt>
      <trkpt lat="42.5234091281890869140625" lon="19.769313074648380279541015625">
        <ele>1628.199951171875</ele>
        <time>2026-06-18T11:29:10.000Z</time>
        <extensions>
          <ns3:TrackPointExtension>
            <ns3:atemp>23.0</ns3:atemp>
          </ns3:TrackPointExtension>
        </extensions>
      </trkpt>
      <trkpt lat="42.5234091281890869140625" lon="19.769313074648380279541015625">
        <ele>1628.199951171875</ele>
        <time>2026-06-18T11:29:11.000Z</time>
        <extensions>
          <ns3:TrackPointExtension>
            <ns3:atemp>23.0</ns3:atemp>
          </ns3:TrackPointExtension>
        </extensions>
      </trkpt>
      <trkpt lat="42.52340979874134063720703125" lon="19.769313745200634002685546875">
        <ele>1628.199951171875</ele>
        <time>2026-06-18T11:29:12.000Z</time>
        <extensions>
          <ns3:TrackPointExtension>
            <ns3:atemp>23.0</ns3:atemp>
          </ns3:TrackPointExtension>
        </extensions>
      </trkpt>
      <trkpt lat="42.52342547290027141571044921875" lon="19.76930293254554271697998046875">
        <ele>1628.199951171875</ele>
        <time>2026-06-18T11:29:13.000Z</time>
        <extensions>
          <ns3:TrackPointExtension>
            <ns3:atemp>23.0</ns3:atemp>
          </ns3:TrackPointExtension>
        </extensions>
      </trkpt>
      <trkpt lat="42.52343201078474521636962890625" lon="19.76929924450814723968505859375">
        <ele>1628.199951171875</ele>
        <time>2026-06-18T11:29:14.000Z</time>
        <extensions>
          <ns3:TrackPointExtension>
            <ns3:atemp>23.0</ns3:atemp>
          </ns3:TrackPointExtension>
        </extensions>
      </trkpt>
      <trkpt lat="42.52343184314668178558349609375" lon="19.7692994959652423858642578125">
        <ele>1628</ele>
        <time>2026-06-18T11:29:15.000Z</time>
        <extensions>
          <ns3:TrackPointExtension>
            <ns3:atemp>23.0</ns3:atemp>
          </ns3:TrackPointExtension>
        </extensions>
      </trkpt>
      <trkpt lat="42.52343184314668178558349609375" lon="19.7692994959652423858642578125">
        <ele>1628</ele>
        <time>2026-06-18T11:29:16.000Z</time>
        <extensions>
          <ns3:TrackPointExtension>
            <ns3:atemp>23.0</ns3:atemp>
          </ns3:TrackPointExtension>
        </extensions>
      </trkpt>
      <trkpt lat="42.52343184314668178558349609375" lon="19.7692994959652423858642578125">
        <ele>1628</ele>
        <time>2026-06-18T11:29:17.000Z</time>
        <extensions>
          <ns3:TrackPointExtension>
            <ns3:atemp>23.0</ns3:atemp>
          </ns3:TrackPointExtension>
        </extensions>
      </trkpt>
      <trkpt lat="42.52343184314668178558349609375" lon="19.7692994959652423858642578125">
        <ele>1628</ele>
        <time>2026-06-18T11:29:18.000Z</time>
        <extensions>
          <ns3:TrackPointExtension>
            <ns3:atemp>23.0</ns3:atemp>
          </ns3:TrackPointExtension>
        </extensions>
      </trkpt>
      <trkpt lat="42.52343184314668178558349609375" lon="19.7692994959652423858642578125">
        <ele>1628</ele>
        <time>2026-06-18T11:29:19.000Z</time>
        <extensions>
          <ns3:TrackPointExtension>
            <ns3:atemp>23.0</ns3:atemp>
          </ns3:TrackPointExtension>
        </extensions>
      </trkpt>
      <trkpt lat="42.52343184314668178558349609375" lon="19.7692994959652423858642578125">
        <ele>1628</ele>
        <time>2026-06-18T11:29:20.000Z</time>
        <extensions>
          <ns3:TrackPointExtension>
            <ns3:atemp>23.0</ns3:atemp>
          </ns3:TrackPointExtension>
        </extensions>
      </trkpt>
      <trkpt lat="42.52343184314668178558349609375" lon="19.7692994959652423858642578125">
        <ele>1628</ele>
        <time>2026-06-18T11:29:21.000Z</time>
        <extensions>
          <ns3:TrackPointExtension>
            <ns3:atemp>23.0</ns3:atemp>
          </ns3:TrackPointExtension>
        </extensions>
      </trkpt>
      <trkpt lat="42.52343184314668178558349609375" lon="19.7692994959652423858642578125">
        <ele>1628</ele>
        <time>2026-06-18T11:29:22.000Z</time>
        <extensions>
          <ns3:TrackPointExtension>
            <ns3:atemp>23.0</ns3:atemp>
          </ns3:TrackPointExtension>
        </extensions>
      </trkpt>
      <trkpt lat="42.52343184314668178558349609375" lon="19.7692994959652423858642578125">
        <ele>1628</ele>
        <time>2026-06-18T11:29:23.000Z</time>
        <extensions>
          <ns3:TrackPointExtension>
            <ns3:atemp>23.0</ns3:atemp>
          </ns3:TrackPointExtension>
        </extensions>
      </trkpt>
      <trkpt lat="42.52343184314668178558349609375" lon="19.7692994959652423858642578125">
        <ele>1628</ele>
        <time>2026-06-18T11:29:24.000Z</time>
        <extensions>
          <ns3:TrackPointExtension>
            <ns3:atemp>23.0</ns3:atemp>
          </ns3:TrackPointExtension>
        </extensions>
      </trkpt>
      <trkpt lat="42.52343184314668178558349609375" lon="19.7692994959652423858642578125">
        <ele>1628</ele>
        <time>2026-06-18T11:29:25.000Z</time>
        <extensions>
          <ns3:TrackPointExtension>
            <ns3:atemp>23.0</ns3:atemp>
          </ns3:TrackPointExtension>
        </extensions>
      </trkpt>
      <trkpt lat="42.52343184314668178558349609375" lon="19.7692994959652423858642578125">
        <ele>1628.199951171875</ele>
        <time>2026-06-18T11:29:26.000Z</time>
        <extensions>
          <ns3:TrackPointExtension>
            <ns3:atemp>23.0</ns3:atemp>
          </ns3:TrackPointExtension>
        </extensions>
      </trkpt>
      <trkpt lat="42.52343184314668178558349609375" lon="19.7692994959652423858642578125">
        <ele>1628.199951171875</ele>
        <time>2026-06-18T11:29:27.000Z</time>
        <extensions>
          <ns3:TrackPointExtension>
            <ns3:atemp>23.0</ns3:atemp>
          </ns3:TrackPointExtension>
        </extensions>
      </trkpt>
      <trkpt lat="42.52343184314668178558349609375" lon="19.7692994959652423858642578125">
        <ele>1628.199951171875</ele>
        <time>2026-06-18T11:29:28.000Z</time>
        <extensions>
          <ns3:TrackPointExtension>
            <ns3:atemp>23.0</ns3:atemp>
          </ns3:TrackPointExtension>
        </extensions>
      </trkpt>
      <trkpt lat="42.52343184314668178558349609375" lon="19.7692994959652423858642578125">
        <ele>1628.199951171875</ele>
        <time>2026-06-18T11:29:29.000Z</time>
        <extensions>
          <ns3:TrackPointExtension>
            <ns3:atemp>23.0</ns3:atemp>
          </ns3:TrackPointExtension>
        </extensions>
      </trkpt>
      <trkpt lat="42.52343184314668178558349609375" lon="19.7692994959652423858642578125">
        <ele>1628.199951171875</ele>
        <time>2026-06-18T11:29:30.000Z</time>
        <extensions>
          <ns3:TrackPointExtension>
            <ns3:atemp>23.0</ns3:atemp>
          </ns3:TrackPointExtension>
        </extensions>
      </trkpt>
      <trkpt lat="42.5234334357082843780517578125" lon="19.76929287426173686981201171875">
        <ele>1628.199951171875</ele>
        <time>2026-06-18T11:29:31.000Z</time>
        <extensions>
          <ns3:TrackPointExtension>
            <ns3:atemp>23.0</ns3:atemp>
          </ns3:TrackPointExtension>
        </extensions>
      </trkpt>
      <trkpt lat="42.5234424881637096405029296875" lon="19.7692904435098171234130859375">
        <ele>1628.199951171875</ele>
        <time>2026-06-18T11:29:32.000Z</time>
        <extensions>
          <ns3:TrackPointExtension>
            <ns3:atemp>23.0</ns3:atemp>
          </ns3:TrackPointExtension>
        </extensions>
      </trkpt>
      <trkpt lat="42.52346101216971874237060546875" lon="19.76928382180631160736083984375">
        <ele>1628</ele>
        <time>2026-06-18T11:29:33.000Z</time>
        <extensions>
          <ns3:TrackPointExtension>
            <ns3:atemp>23.0</ns3:atemp>
          </ns3:TrackPointExtension>
        </extensions>
      </trkpt>
      <trkpt lat="42.52347459085285663604736328125" lon="19.7692901082336902618408203125">
        <ele>1628</ele>
        <time>2026-06-18T11:29:34.000Z</time>
        <extensions>
          <ns3:TrackPointExtension>
            <ns3:atemp>23.0</ns3:atemp>
          </ns3:TrackPointExtension>
        </extensions>
      </trkpt>
      <trkpt lat="42.52349428832530975341796875" lon="19.7692921198904514312744140625">
        <ele>1627.800048828125</ele>
        <time>2026-06-18T11:29:35.000Z</time>
        <extensions>
          <ns3:TrackPointExtension>
            <ns3:atemp>23.0</ns3:atemp>
          </ns3:TrackPointExtension>
        </extensions>
      </trkpt>
      <trkpt lat="42.5235115550458431243896484375" lon="19.7692964784801006317138671875">
        <ele>1627.5999755859375</ele>
        <time>2026-06-18T11:29:36.000Z</time>
        <extensions>
          <ns3:TrackPointExtension>
            <ns3:atemp>23.0</ns3:atemp>
          </ns3:TrackPointExtension>
        </extensions>
      </trkpt>
      <trkpt lat="42.5235189311206340789794921875" lon="19.7693035192787647247314453125">
        <ele>1627.4000244140625</ele>
        <time>2026-06-18T11:29:37.000Z</time>
        <extensions>
          <ns3:TrackPointExtension>
            <ns3:atemp>23.0</ns3:atemp>
          </ns3:TrackPointExtension>
        </extensions>
      </trkpt>
      <trkpt lat="42.52352102659642696380615234375" lon="19.76931206881999969482421875">
        <ele>1627.199951171875</ele>
        <time>2026-06-18T11:29:38.000Z</time>
        <extensions>
          <ns3:TrackPointExtension>
            <ns3:atemp>23.0</ns3:atemp>
          </ns3:TrackPointExtension>
        </extensions>
      </trkpt>
      <trkpt lat="42.52352253533899784088134765625" lon="19.769325144588947296142578125">
        <ele>1627</ele>
        <time>2026-06-18T11:29:39.000Z</time>
        <extensions>
          <ns3:TrackPointExtension>
            <ns3:atemp>23.0</ns3:atemp>
          </ns3:TrackPointExtension>
        </extensions>
      </trkpt>
      <trkpt lat="42.5235132314264774322509765625" lon="19.76933998055756092071533203125">
        <ele>1626.800048828125</ele>
        <time>2026-06-18T11:29:40.000Z</time>
        <extensions>
          <ns3:TrackPointExtension>
            <ns3:atemp>23.0</ns3:atemp>
          </ns3:TrackPointExtension>
        </extensions>
      </trkpt>
      <trkpt lat="42.523505352437496185302734375" lon="19.7693427465856075286865234375">
        <ele>1626.4000244140625</ele>
        <time>2026-06-18T11:29:41.000Z</time>
        <extensions>
          <ns3:TrackPointExtension>
            <ns3:atemp>23.0</ns3:atemp>
          </ns3:TrackPointExtension>
        </extensions>
      </trkpt>
      <trkpt lat="42.52349822781980037689208984375" lon="19.7693447582423686981201171875">
        <ele>1626.199951171875</ele>
        <time>2026-06-18T11:29:42.000Z</time>
        <extensions>
          <ns3:TrackPointExtension>
            <ns3:atemp>23.0</ns3:atemp>
          </ns3:TrackPointExtension>
        </extensions>
      </trkpt>
      <trkpt lat="42.52349806018173694610595703125" lon="19.7693447582423686981201171875">
        <ele>1626</ele>
        <time>2026-06-18T11:29:43.000Z</time>
        <extensions>
          <ns3:TrackPointExtension>
            <ns3:atemp>23.0</ns3:atemp>
          </ns3:TrackPointExtension>
        </extensions>
      </trkpt>
      <trkpt lat="42.5234927795827388763427734375" lon="19.76935540325939655303955078125">
        <ele>1626</ele>
        <time>2026-06-18T11:29:44.000Z</time>
        <extensions>
          <ns3:TrackPointExtension>
            <ns3:atemp>23.0</ns3:atemp>
          </ns3:TrackPointExtension>
        </extensions>
      </trkpt>
      <trkpt lat="42.5234927795827388763427734375" lon="19.76935540325939655303955078125">
        <ele>1625.800048828125</ele>
        <time>2026-06-18T11:29:45.000Z</time>
        <extensions>
          <ns3:TrackPointExtension>
            <ns3:atemp>23.0</ns3:atemp>
          </ns3:TrackPointExtension>
        </extensions>
      </trkpt>
      <trkpt lat="42.5234927795827388763427734375" lon="19.76935540325939655303955078125">
        <ele>1625.800048828125</ele>
        <time>2026-06-18T11:29:46.000Z</time>
        <extensions>
          <ns3:TrackPointExtension>
            <ns3:atemp>23.0</ns3:atemp>
          </ns3:TrackPointExtension>
        </extensions>
      </trkpt>
      <trkpt lat="42.52349219284951686859130859375" lon="19.7693548165261745452880859375">
        <ele>1625.800048828125</ele>
        <time>2026-06-18T11:29:47.000Z</time>
        <extensions>
          <ns3:TrackPointExtension>
            <ns3:atemp>23.0</ns3:atemp>
          </ns3:TrackPointExtension>
        </extensions>
      </trkpt>
      <trkpt lat="42.52348900772631168365478515625" lon="19.769345261156558990478515625">
        <ele>1626</ele>
        <time>2026-06-18T11:29:48.000Z</time>
        <extensions>
          <ns3:TrackPointExtension>
            <ns3:atemp>23.0</ns3:atemp>
          </ns3:TrackPointExtension>
        </extensions>
      </trkpt>
      <trkpt lat="42.523481212556362152099609375" lon="19.76934366859495639801025390625">
        <ele>1626</ele>
        <time>2026-06-18T11:29:49.000Z</time>
        <extensions>
          <ns3:TrackPointExtension>
            <ns3:atemp>23.0</ns3:atemp>
          </ns3:TrackPointExtension>
        </extensions>
      </trkpt>
      <trkpt lat="42.5234793685376644134521484375" lon="19.7693367116153240203857421875">
        <ele>1626.199951171875</ele>
        <time>2026-06-18T11:29:50.000Z</time>
        <extensions>
          <ns3:TrackPointExtension>
            <ns3:atemp>23.0</ns3:atemp>
          </ns3:TrackPointExtension>
        </extensions>
      </trkpt>
      <trkpt lat="42.52347677014768123626708984375" lon="19.76932539604604244232177734375">
        <ele>1626.4000244140625</ele>
        <time>2026-06-18T11:29:51.000Z</time>
        <extensions>
          <ns3:TrackPointExtension>
            <ns3:atemp>23.0</ns3:atemp>
          </ns3:TrackPointExtension>
        </extensions>
      </trkpt>
      <trkpt lat="42.52346771769225597381591796875" lon="19.7693192772567272186279296875">
        <ele>1626.800048828125</ele>
        <time>2026-06-18T11:29:52.000Z</time>
        <extensions>
          <ns3:TrackPointExtension>
            <ns3:atemp>23.0</ns3:atemp>
          </ns3:TrackPointExtension>
        </extensions>
      </trkpt>
      <trkpt lat="42.52346218563616275787353515625" lon="19.769313745200634002685546875">
        <ele>1627</ele>
        <time>2026-06-18T11:29:53.000Z</time>
        <extensions>
          <ns3:TrackPointExtension>
            <ns3:atemp>23.0</ns3:atemp>
          </ns3:TrackPointExtension>
        </extensions>
      </trkpt>
      <trkpt lat="42.52345212735235691070556640625" lon="19.7693105600774288177490234375">
        <ele>1627.4000244140625</ele>
        <time>2026-06-18T11:29:54.000Z</time>
        <extensions>
          <ns3:TrackPointExtension>
            <ns3:atemp>23.0</ns3:atemp>
          </ns3:TrackPointExtension>
        </extensions>
      </trkpt>
      <trkpt lat="42.5234480202198028564453125" lon="19.76930796168744564056396484375">
        <ele>1628</ele>
        <time>2026-06-18T11:29:55.000Z</time>
        <extensions>
          <ns3:TrackPointExtension>
            <ns3:atemp>23.0</ns3:atemp>
          </ns3:TrackPointExtension>
        </extensions>
      </trkpt>
      <trkpt lat="42.52344441600143909454345703125" lon="19.76930108852684497833251953125">
        <ele>1628</ele>
        <time>2026-06-18T11:29:56.000Z</time>
        <extensions>
          <ns3:TrackPointExtension>
            <ns3:atemp>23.0</ns3:atemp>
          </ns3:TrackPointExtension>
        </extensions>
      </trkpt>
      <trkpt lat="42.52344458363950252532958984375" lon="19.7693008370697498321533203125">
        <ele>1628</ele>
        <time>2026-06-18T11:29:57.000Z</time>
        <extensions>
          <ns3:TrackPointExtension>
            <ns3:atemp>23.0</ns3:atemp>
          </ns3:TrackPointExtension>
        </extensions>
      </trkpt>
      <trkpt lat="42.52344458363950252532958984375" lon="19.7693008370697498321533203125">
        <ele>1628</ele>
        <time>2026-06-18T11:29:58.000Z</time>
        <extensions>
          <ns3:TrackPointExtension>
            <ns3:atemp>23.0</ns3:atemp>
          </ns3:TrackPointExtension>
        </extensions>
      </trkpt>
      <trkpt lat="42.52344458363950252532958984375" lon="19.7693008370697498321533203125">
        <ele>1628</ele>
        <time>2026-06-18T11:29:59.000Z</time>
        <extensions>
          <ns3:TrackPointExtension>
            <ns3:atemp>23.0</ns3:atemp>
          </ns3:TrackPointExtension>
        </extensions>
      </trkpt>
      <trkpt lat="42.5234453380107879638671875" lon="19.7693018428981304168701171875">
        <ele>1628</ele>
        <time>2026-06-18T11:30:00.000Z</time>
        <extensions>
          <ns3:TrackPointExtension>
            <ns3:atemp>23.0</ns3:atemp>
          </ns3:TrackPointExtension>
        </extensions>
      </trkpt>
      <trkpt lat="42.523450367152690887451171875" lon="19.76930896751582622528076171875">
        <ele>1628</ele>
        <time>2026-06-18T11:30:01.000Z</time>
        <extensions>
          <ns3:TrackPointExtension>
            <ns3:atemp>23.0</ns3:atemp>
          </ns3:TrackPointExtension>
        </extensions>
      </trkpt>
      <trkpt lat="42.52344458363950252532958984375" lon="19.7693008370697498321533203125">
        <ele>1628</ele>
        <time>2026-06-18T11:30:02.000Z</time>
        <extensions>
          <ns3:TrackPointExtension>
            <ns3:atemp>23.0</ns3:atemp>
          </ns3:TrackPointExtension>
        </extensions>
      </trkpt>
      <trkpt lat="42.52344458363950252532958984375" lon="19.7693008370697498321533203125">
        <ele>1628</ele>
        <time>2026-06-18T11:30:03.000Z</time>
        <extensions>
          <ns3:TrackPointExtension>
            <ns3:atemp>23.0</ns3:atemp>
          </ns3:TrackPointExtension>
        </extensions>
      </trkpt>
      <trkpt lat="42.52344458363950252532958984375" lon="19.7693008370697498321533203125">
        <ele>1628</ele>
        <time>2026-06-18T11:30:04.000Z</time>
        <extensions>
          <ns3:TrackPointExtension>
            <ns3:atemp>23.0</ns3:atemp>
          </ns3:TrackPointExtension>
        </extensions>
      </trkpt>
      <trkpt lat="42.52344458363950252532958984375" lon="19.7693008370697498321533203125">
        <ele>1628</ele>
        <time>2026-06-18T11:30:05.000Z</time>
        <extensions>
          <ns3:TrackPointExtension>
            <ns3:atemp>23.0</ns3:atemp>
          </ns3:TrackPointExtension>
        </extensions>
      </trkpt>
      <trkpt lat="42.52344458363950252532958984375" lon="19.7693008370697498321533203125">
        <ele>1628</ele>
        <time>2026-06-18T11:30:06.000Z</time>
        <extensions>
          <ns3:TrackPointExtension>
            <ns3:atemp>23.0</ns3:atemp>
          </ns3:TrackPointExtension>
        </extensions>
      </trkpt>
      <trkpt lat="42.52344458363950252532958984375" lon="19.7693008370697498321533203125">
        <ele>1628</ele>
        <time>2026-06-18T11:30:07.000Z</time>
        <extensions>
          <ns3:TrackPointExtension>
            <ns3:atemp>23.0</ns3:atemp>
          </ns3:TrackPointExtension>
        </extensions>
      </trkpt>
      <trkpt lat="42.52345162443816661834716796875" lon="19.769300334155559539794921875">
        <ele>1628</ele>
        <time>2026-06-18T11:30:08.000Z</time>
        <extensions>
          <ns3:TrackPointExtension>
            <ns3:atemp>23.0</ns3:atemp>
          </ns3:TrackPointExtension>
        </extensions>
      </trkpt>
      <trkpt lat="42.523461766541004180908203125" lon="19.7693025134503841400146484375">
        <ele>1628</ele>
        <time>2026-06-18T11:30:09.000Z</time>
        <extensions>
          <ns3:TrackPointExtension>
            <ns3:atemp>23.0</ns3:atemp>
          </ns3:TrackPointExtension>
        </extensions>
      </trkpt>
      <trkpt lat="42.5234729982912540435791015625" lon="19.76930628530681133270263671875">
        <ele>1628</ele>
        <time>2026-06-18T11:30:10.000Z</time>
        <extensions>
          <ns3:TrackPointExtension>
            <ns3:atemp>23.0</ns3:atemp>
          </ns3:TrackPointExtension>
        </extensions>
      </trkpt>
      <trkpt lat="42.523486912250518798828125" lon="19.76930460892617702484130859375">
        <ele>1628</ele>
        <time>2026-06-18T11:30:11.000Z</time>
        <extensions>
          <ns3:TrackPointExtension>
            <ns3:atemp>23.0</ns3:atemp>
          </ns3:TrackPointExtension>
        </extensions>
      </trkpt>
      <trkpt lat="42.52349428832530975341796875" lon="19.76931483484804630279541015625">
        <ele>1628</ele>
        <time>2026-06-18T11:30:12.000Z</time>
        <extensions>
          <ns3:TrackPointExtension>
            <ns3:atemp>23.0</ns3:atemp>
          </ns3:TrackPointExtension>
        </extensions>
      </trkpt>
      <trkpt lat="42.52348900772631168365478515625" lon="19.76931340992450714111328125">
        <ele>1628.4000244140625</ele>
        <time>2026-06-18T11:30:13.000Z</time>
        <extensions>
          <ns3:TrackPointExtension>
            <ns3:atemp>23.0</ns3:atemp>
          </ns3:TrackPointExtension>
        </extensions>
      </trkpt>
      <trkpt lat="42.52348884008824825286865234375" lon="19.7693132422864437103271484375">
        <ele>1628.199951171875</ele>
        <time>2026-06-18T11:30:14.000Z</time>
        <extensions>
          <ns3:TrackPointExtension>
            <ns3:atemp>23.0</ns3:atemp>
          </ns3:TrackPointExtension>
        </extensions>
      </trkpt>
      <trkpt lat="42.52348632551729679107666015625" lon="19.76931768469512462615966796875">
        <ele>1628</ele>
        <time>2026-06-18T11:30:15.000Z</time>
        <extensions>
          <ns3:TrackPointExtension>
            <ns3:atemp>23.0</ns3:atemp>
          </ns3:TrackPointExtension>
        </extensions>
      </trkpt>
      <trkpt lat="42.52348615787923336029052734375" lon="19.76931734941899776458740234375">
        <ele>1627.800048828125</ele>
        <time>2026-06-18T11:30:16.000Z</time>
        <extensions>
          <ns3:TrackPointExtension>
            <ns3:atemp>23.0</ns3:atemp>
          </ns3:TrackPointExtension>
        </extensions>
      </trkpt>
      <trkpt lat="42.5234716571867465972900390625" lon="19.76933076046407222747802734375">
        <ele>1627.5999755859375</ele>
        <time>2026-06-18T11:30:17.000Z</time>
        <extensions>
          <ns3:TrackPointExtension>
            <ns3:atemp>23.0</ns3:atemp>
          </ns3:TrackPointExtension>
        </extensions>
      </trkpt>
      <trkpt lat="42.52346838824450969696044921875" lon="19.7693303413689136505126953125">
        <ele>1627.4000244140625</ele>
        <time>2026-06-18T11:30:18.000Z</time>
        <extensions>
          <ns3:TrackPointExtension>
            <ns3:atemp>23.0</ns3:atemp>
          </ns3:TrackPointExtension>
        </extensions>
      </trkpt>
      <trkpt lat="42.5234683044254779815673828125" lon="19.7693306766450405120849609375">
        <ele>1627.199951171875</ele>
        <time>2026-06-18T11:30:19.000Z</time>
        <extensions>
          <ns3:TrackPointExtension>
            <ns3:atemp>23.0</ns3:atemp>
          </ns3:TrackPointExtension>
        </extensions>
      </trkpt>
      <trkpt lat="42.5234683044254779815673828125" lon="19.7693306766450405120849609375">
        <ele>1627</ele>
        <time>2026-06-18T11:30:20.000Z</time>
        <extensions>
          <ns3:TrackPointExtension>
            <ns3:atemp>23.0</ns3:atemp>
          </ns3:TrackPointExtension>
        </extensions>
      </trkpt>
      <trkpt lat="42.5234683044254779815673828125" lon="19.7693306766450405120849609375">
        <ele>1626.800048828125</ele>
        <time>2026-06-18T11:30:21.000Z</time>
        <extensions>
          <ns3:TrackPointExtension>
            <ns3:atemp>23.0</ns3:atemp>
          </ns3:TrackPointExtension>
        </extensions>
      </trkpt>
      <trkpt lat="42.5234683044254779815673828125" lon="19.7693306766450405120849609375">
        <ele>1626.800048828125</ele>
        <time>2026-06-18T11:30:22.000Z</time>
        <extensions>
          <ns3:TrackPointExtension>
            <ns3:atemp>23.0</ns3:atemp>
          </ns3:TrackPointExtension>
        </extensions>
      </trkpt>
      <trkpt lat="42.5234683044254779815673828125" lon="19.7693306766450405120849609375">
        <ele>1626.800048828125</ele>
        <time>2026-06-18T11:30:23.000Z</time>
        <extensions>
          <ns3:TrackPointExtension>
            <ns3:atemp>23.0</ns3:atemp>
          </ns3:TrackPointExtension>
        </extensions>
      </trkpt>
      <trkpt lat="42.5234683044254779815673828125" lon="19.7693306766450405120849609375">
        <ele>1626.5999755859375</ele>
        <time>2026-06-18T11:30:24.000Z</time>
        <extensions>
          <ns3:TrackPointExtension>
            <ns3:atemp>23.0</ns3:atemp>
          </ns3:TrackPointExtension>
        </extensions>
      </trkpt>
      <trkpt lat="42.5234683044254779815673828125" lon="19.7693306766450405120849609375">
        <ele>1626.5999755859375</ele>
        <time>2026-06-18T11:30:25.000Z</time>
        <extensions>
          <ns3:TrackPointExtension>
            <ns3:atemp>23.0</ns3:atemp>
          </ns3:TrackPointExtension>
        </extensions>
      </trkpt>
      <trkpt lat="42.5234683044254779815673828125" lon="19.7693306766450405120849609375">
        <ele>1626.5999755859375</ele>
        <time>2026-06-18T11:30:26.000Z</time>
        <extensions>
          <ns3:TrackPointExtension>
            <ns3:atemp>23.0</ns3:atemp>
          </ns3:TrackPointExtension>
        </extensions>
      </trkpt>
      <trkpt lat="42.5234683044254779815673828125" lon="19.7693306766450405120849609375">
        <ele>1626.5999755859375</ele>
        <time>2026-06-18T11:30:27.000Z</time>
        <extensions>
          <ns3:TrackPointExtension>
            <ns3:atemp>23.0</ns3:atemp>
          </ns3:TrackPointExtension>
        </extensions>
      </trkpt>
      <trkpt lat="42.5234683044254779815673828125" lon="19.7693306766450405120849609375">
        <ele>1626.5999755859375</ele>
        <time>2026-06-18T11:30:28.000Z</time>
        <extensions>
          <ns3:TrackPointExtension>
            <ns3:atemp>23.0</ns3:atemp>
          </ns3:TrackPointExtension>
        </extensions>
      </trkpt>
      <trkpt lat="42.5234683044254779815673828125" lon="19.7693306766450405120849609375">
        <ele>1626.5999755859375</ele>
        <time>2026-06-18T11:30:29.000Z</time>
        <extensions>
          <ns3:TrackPointExtension>
            <ns3:atemp>23.0</ns3:atemp>
          </ns3:TrackPointExtension>
        </extensions>
      </trkpt>
      <trkpt lat="42.5234683044254779815673828125" lon="19.7693306766450405120849609375">
        <ele>1626.5999755859375</ele>
        <time>2026-06-18T11:30:30.000Z</time>
        <extensions>
          <ns3:TrackPointExtension>
            <ns3:atemp>23.0</ns3:atemp>
          </ns3:TrackPointExtension>
        </extensions>
      </trkpt>
      <trkpt lat="42.5234683044254779815673828125" lon="19.7693306766450405120849609375">
        <ele>1626.4000244140625</ele>
        <time>2026-06-18T11:30:31.000Z</time>
        <extensions>
          <ns3:TrackPointExtension>
            <ns3:atemp>23.0</ns3:atemp>
          </ns3:TrackPointExtension>
        </extensions>
      </trkpt>
      <trkpt lat="42.5234683044254779815673828125" lon="19.7693306766450405120849609375">
        <ele>1626.4000244140625</ele>
        <time>2026-06-18T11:30:32.000Z</time>
        <extensions>
          <ns3:TrackPointExtension>
            <ns3:atemp>23.0</ns3:atemp>
          </ns3:TrackPointExtension>
        </extensions>
      </trkpt>
      <trkpt lat="42.5234683044254779815673828125" lon="19.7693306766450405120849609375">
        <ele>1626.4000244140625</ele>
        <time>2026-06-18T11:30:33.000Z</time>
        <extensions>
          <ns3:TrackPointExtension>
            <ns3:atemp>23.0</ns3:atemp>
          </ns3:TrackPointExtension>
        </extensions>
      </trkpt>
      <trkpt lat="42.5234683044254779815673828125" lon="19.7693306766450405120849609375">
        <ele>1626.199951171875</ele>
        <time>2026-06-18T11:30:34.000Z</time>
        <extensions>
          <ns3:TrackPointExtension>
            <ns3:atemp>23.0</ns3:atemp>
          </ns3:TrackPointExtension>
        </extensions>
      </trkpt>
      <trkpt lat="42.52346872352063655853271484375" lon="19.769326485693454742431640625">
        <ele>1626.199951171875</ele>
        <time>2026-06-18T11:30:35.000Z</time>
        <extensions>
          <ns3:TrackPointExtension>
            <ns3:atemp>23.0</ns3:atemp>
          </ns3:TrackPointExtension>
        </extensions>
      </trkpt>
      <trkpt lat="42.5234636105597019195556640625" lon="19.76933377794921398162841796875">
        <ele>1626.199951171875</ele>
        <time>2026-06-18T11:30:36.000Z</time>
        <extensions>
          <ns3:TrackPointExtension>
            <ns3:atemp>23.0</ns3:atemp>
          </ns3:TrackPointExtension>
        </extensions>
      </trkpt>
      <trkpt lat="42.52345732413232326507568359375" lon="19.769347943365573883056640625">
        <ele>1626.4000244140625</ele>
        <time>2026-06-18T11:30:37.000Z</time>
        <extensions>
          <ns3:TrackPointExtension>
            <ns3:atemp>23.0</ns3:atemp>
          </ns3:TrackPointExtension>
        </extensions>
      </trkpt>
      <trkpt lat="42.52345128916203975677490234375" lon="19.7693645395338535308837890625">
        <ele>1626.199951171875</ele>
        <time>2026-06-18T11:30:38.000Z</time>
        <extensions>
          <ns3:TrackPointExtension>
            <ns3:atemp>23.0</ns3:atemp>
          </ns3:TrackPointExtension>
        </extensions>
      </trkpt>
      <trkpt lat="42.52344843931496143341064453125" lon="19.7693866677582263946533203125">
        <ele>1626.199951171875</ele>
        <time>2026-06-18T11:30:39.000Z</time>
        <extensions>
          <ns3:TrackPointExtension>
            <ns3:atemp>23.0</ns3:atemp>
          </ns3:TrackPointExtension>
        </extensions>
      </trkpt>
      <trkpt lat="42.523440979421138763427734375" lon="19.76941608823835849761962890625">
        <ele>1626</ele>
        <time>2026-06-18T11:30:40.000Z</time>
        <extensions>
          <ns3:TrackPointExtension>
            <ns3:atemp>23.0</ns3:atemp>
          </ns3:TrackPointExtension>
        </extensions>
      </trkpt>
      <trkpt lat="42.52342748455703258514404296875" lon="19.76944089867174625396728515625">
        <ele>1625.5999755859375</ele>
        <time>2026-06-18T11:30:41.000Z</time>
        <extensions>
          <ns3:TrackPointExtension>
            <ns3:atemp>23.0</ns3:atemp>
          </ns3:TrackPointExtension>
        </extensions>
      </trkpt>
      <trkpt lat="42.523409463465213775634765625" lon="19.7694671340286731719970703125">
        <ele>1625.199951171875</ele>
        <time>2026-06-18T11:30:42.000Z</time>
        <extensions>
          <ns3:TrackPointExtension>
            <ns3:atemp>23.0</ns3:atemp>
          </ns3:TrackPointExtension>
        </extensions>
      </trkpt>
      <trkpt lat="42.5233797915279865264892578125" lon="19.76949772797524929046630859375">
        <ele>1625</ele>
        <time>2026-06-18T11:30:43.000Z</time>
        <extensions>
          <ns3:TrackPointExtension>
            <ns3:atemp>23.0</ns3:atemp>
          </ns3:TrackPointExtension>
        </extensions>
      </trkpt>
      <trkpt lat="42.52336210571229457855224609375" lon="19.76953066885471343994140625">
        <ele>1624.800048828125</ele>
        <time>2026-06-18T11:30:44.000Z</time>
        <extensions>
          <ns3:TrackPointExtension>
            <ns3:atemp>23.0</ns3:atemp>
          </ns3:TrackPointExtension>
        </extensions>
      </trkpt>
      <trkpt lat="42.5233496166765689849853515625" lon="19.7695526294410228729248046875">
        <ele>1624.5999755859375</ele>
        <time>2026-06-18T11:30:45.000Z</time>
        <extensions>
          <ns3:TrackPointExtension>
            <ns3:atemp>23.0</ns3:atemp>
          </ns3:TrackPointExtension>
        </extensions>
      </trkpt>
      <trkpt lat="42.52333763055503368377685546875" lon="19.76957266218960285186767578125">
        <ele>1624.4000244140625</ele>
        <time>2026-06-18T11:30:46.000Z</time>
        <extensions>
          <ns3:TrackPointExtension>
            <ns3:atemp>23.0</ns3:atemp>
          </ns3:TrackPointExtension>
        </extensions>
      </trkpt>
      <trkpt lat="42.52332958392798900604248046875" lon="19.76959127001464366912841796875">
        <ele>1624.199951171875</ele>
        <time>2026-06-18T11:30:47.000Z</time>
        <extensions>
          <ns3:TrackPointExtension>
            <ns3:atemp>23.0</ns3:atemp>
          </ns3:TrackPointExtension>
        </extensions>
      </trkpt>
      <trkpt lat="42.52331919036805629730224609375" lon="19.76960711181163787841796875">
        <ele>1624.199951171875</ele>
        <time>2026-06-18T11:30:48.000Z</time>
        <extensions>
          <ns3:TrackPointExtension>
            <ns3:atemp>23.0</ns3:atemp>
          </ns3:TrackPointExtension>
        </extensions>
      </trkpt>
      <trkpt lat="42.52331784926354885101318359375" lon="19.76961784064769744873046875">
        <ele>1624.199951171875</ele>
        <time>2026-06-18T11:30:49.000Z</time>
        <extensions>
          <ns3:TrackPointExtension>
            <ns3:atemp>23.0</ns3:atemp>
          </ns3:TrackPointExtension>
        </extensions>
      </trkpt>
      <trkpt lat="42.52331818453967571258544921875" lon="19.76962613873183727264404296875">
        <ele>1624</ele>
        <time>2026-06-18T11:30:50.000Z</time>
        <extensions>
          <ns3:TrackPointExtension>
            <ns3:atemp>23.0</ns3:atemp>
          </ns3:TrackPointExtension>
        </extensions>
      </trkpt>
      <trkpt lat="42.52331801690161228179931640625" lon="19.76962630636990070343017578125">
        <ele>1624</ele>
        <time>2026-06-18T11:30:51.000Z</time>
        <extensions>
          <ns3:TrackPointExtension>
            <ns3:atemp>23.0</ns3:atemp>
          </ns3:TrackPointExtension>
        </extensions>
      </trkpt>
      <trkpt lat="42.52330720424652099609375" lon="19.76963787339627742767333984375">
        <ele>1623.800048828125</ele>
        <time>2026-06-18T11:30:52.000Z</time>
        <extensions>
          <ns3:TrackPointExtension>
            <ns3:atemp>23.0</ns3:atemp>
          </ns3:TrackPointExtension>
        </extensions>
      </trkpt>
      <trkpt lat="42.52329655922949314117431640625" lon="19.7696431539952754974365234375">
        <ele>1623.800048828125</ele>
        <time>2026-06-18T11:30:53.000Z</time>
        <extensions>
          <ns3:TrackPointExtension>
            <ns3:atemp>23.0</ns3:atemp>
          </ns3:TrackPointExtension>
        </extensions>
      </trkpt>
      <trkpt lat="42.52328775823116302490234375" lon="19.76964340545237064361572265625">
        <ele>1623.5999755859375</ele>
        <time>2026-06-18T11:30:54.000Z</time>
        <extensions>
          <ns3:TrackPointExtension>
            <ns3:atemp>23.0</ns3:atemp>
          </ns3:TrackPointExtension>
        </extensions>
      </trkpt>
      <trkpt lat="42.52328775823116302490234375" lon="19.76964340545237064361572265625">
        <ele>1623.4000244140625</ele>
        <time>2026-06-18T11:30:55.000Z</time>
        <extensions>
          <ns3:TrackPointExtension>
            <ns3:atemp>23.0</ns3:atemp>
          </ns3:TrackPointExtension>
        </extensions>
      </trkpt>
      <trkpt lat="42.5232870876789093017578125" lon="19.7696434892714023590087890625">
        <ele>1623.4000244140625</ele>
        <time>2026-06-18T11:30:56.000Z</time>
        <extensions>
          <ns3:TrackPointExtension>
            <ns3:atemp>23.0</ns3:atemp>
          </ns3:TrackPointExtension>
        </extensions>
      </trkpt>
      <trkpt lat="42.52328775823116302490234375" lon="19.76964340545237064361572265625">
        <ele>1623.199951171875</ele>
        <time>2026-06-18T11:30:57.000Z</time>
        <extensions>
          <ns3:TrackPointExtension>
            <ns3:atemp>23.0</ns3:atemp>
          </ns3:TrackPointExtension>
        </extensions>
      </trkpt>
      <trkpt lat="42.5232748501002788543701171875" lon="19.76964474655687808990478515625">
        <ele>1623</ele>
        <time>2026-06-18T11:30:58.000Z</time>
        <extensions>
          <ns3:TrackPointExtension>
            <ns3:atemp>23.0</ns3:atemp>
          </ns3:TrackPointExtension>
        </extensions>
      </trkpt>
      <trkpt lat="42.523254565894603729248046875" lon="19.7696602530777454376220703125">
        <ele>1622.800048828125</ele>
        <time>2026-06-18T11:30:59.000Z</time>
        <extensions>
          <ns3:TrackPointExtension>
            <ns3:atemp>23.0</ns3:atemp>
          </ns3:TrackPointExtension>
        </extensions>
      </trkpt>
      <trkpt lat="42.52323822118341922760009765625" lon="19.76968414150178432464599609375">
        <ele>1622.5999755859375</ele>
        <time>2026-06-18T11:31:00.000Z</time>
        <extensions>
          <ns3:TrackPointExtension>
            <ns3:atemp>23.0</ns3:atemp>
          </ns3:TrackPointExtension>
        </extensions>
      </trkpt>
      <trkpt lat="42.52323688007891178131103515625" lon="19.7697108797729015350341796875">
        <ele>1622.199951171875</ele>
        <time>2026-06-18T11:31:01.000Z</time>
        <extensions>
          <ns3:TrackPointExtension>
            <ns3:atemp>23.0</ns3:atemp>
          </ns3:TrackPointExtension>
        </extensions>
      </trkpt>
      <trkpt lat="42.52323587425053119659423828125" lon="19.76973309181630611419677734375">
        <ele>1621.800048828125</ele>
        <time>2026-06-18T11:31:02.000Z</time>
        <extensions>
          <ns3:TrackPointExtension>
            <ns3:atemp>23.0</ns3:atemp>
          </ns3:TrackPointExtension>
        </extensions>
      </trkpt>
      <trkpt lat="42.52323084510862827301025390625" lon="19.76975354366004467010498046875">
        <ele>1621.4000244140625</ele>
        <time>2026-06-18T11:31:03.000Z</time>
        <extensions>
          <ns3:TrackPointExtension>
            <ns3:atemp>23.0</ns3:atemp>
          </ns3:TrackPointExtension>
        </extensions>
      </trkpt>
      <trkpt lat="42.52323017455637454986572265625" lon="19.7697822935879230499267578125">
        <ele>1620.800048828125</ele>
        <time>2026-06-18T11:31:04.000Z</time>
        <extensions>
          <ns3:TrackPointExtension>
            <ns3:atemp>23.0</ns3:atemp>
          </ns3:TrackPointExtension>
        </extensions>
      </trkpt>
      <trkpt lat="42.52323168329894542694091796875" lon="19.76979847066104412078857421875">
        <ele>1620.4000244140625</ele>
        <time>2026-06-18T11:31:05.000Z</time>
        <extensions>
          <ns3:TrackPointExtension>
            <ns3:atemp>23.0</ns3:atemp>
          </ns3:TrackPointExtension>
        </extensions>
      </trkpt>
      <trkpt lat="42.523238472640514373779296875" lon="19.7698044218122959136962890625">
        <ele>1620</ele>
        <time>2026-06-18T11:31:06.000Z</time>
        <extensions>
          <ns3:TrackPointExtension>
            <ns3:atemp>23.0</ns3:atemp>
          </ns3:TrackPointExtension>
        </extensions>
      </trkpt>
      <trkpt lat="42.5232372991740703582763671875" lon="19.7697990573942661285400390625">
        <ele>1619.5999755859375</ele>
        <time>2026-06-18T11:31:07.000Z</time>
        <extensions>
          <ns3:TrackPointExtension>
            <ns3:atemp>23.0</ns3:atemp>
          </ns3:TrackPointExtension>
        </extensions>
      </trkpt>
      <trkpt lat="42.5232376344501972198486328125" lon="19.769799225032329559326171875">
        <ele>1619.199951171875</ele>
        <time>2026-06-18T11:31:08.000Z</time>
        <extensions>
          <ns3:TrackPointExtension>
            <ns3:atemp>23.0</ns3:atemp>
          </ns3:TrackPointExtension>
        </extensions>
      </trkpt>
      <trkpt lat="42.5232376344501972198486328125" lon="19.769799225032329559326171875">
        <ele>1619</ele>
        <time>2026-06-18T11:31:09.000Z</time>
        <extensions>
          <ns3:TrackPointExtension>
            <ns3:atemp>23.0</ns3:atemp>
          </ns3:TrackPointExtension>
        </extensions>
      </trkpt>
      <trkpt lat="42.5232376344501972198486328125" lon="19.769799225032329559326171875">
        <ele>1618.800048828125</ele>
        <time>2026-06-18T11:31:10.000Z</time>
        <extensions>
          <ns3:TrackPointExtension>
            <ns3:atemp>23.0</ns3:atemp>
          </ns3:TrackPointExtension>
        </extensions>
      </trkpt>
      <trkpt lat="42.5232376344501972198486328125" lon="19.769799225032329559326171875">
        <ele>1618.5999755859375</ele>
        <time>2026-06-18T11:31:11.000Z</time>
        <extensions>
          <ns3:TrackPointExtension>
            <ns3:atemp>23.0</ns3:atemp>
          </ns3:TrackPointExtension>
        </extensions>
      </trkpt>
      <trkpt lat="42.5232376344501972198486328125" lon="19.769799225032329559326171875">
        <ele>1618.5999755859375</ele>
        <time>2026-06-18T11:31:12.000Z</time>
        <extensions>
          <ns3:TrackPointExtension>
            <ns3:atemp>23.0</ns3:atemp>
          </ns3:TrackPointExtension>
        </extensions>
      </trkpt>
      <trkpt lat="42.5232376344501972198486328125" lon="19.769799225032329559326171875">
        <ele>1618.4000244140625</ele>
        <time>2026-06-18T11:31:13.000Z</time>
        <extensions>
          <ns3:TrackPointExtension>
            <ns3:atemp>23.0</ns3:atemp>
          </ns3:TrackPointExtension>
        </extensions>
      </trkpt>
      <trkpt lat="42.5232376344501972198486328125" lon="19.769799225032329559326171875">
        <ele>1618.4000244140625</ele>
        <time>2026-06-18T11:31:14.000Z</time>
        <extensions>
          <ns3:TrackPointExtension>
            <ns3:atemp>23.0</ns3:atemp>
          </ns3:TrackPointExtension>
        </extensions>
      </trkpt>
      <trkpt lat="42.5232376344501972198486328125" lon="19.769799225032329559326171875">
        <ele>1618.199951171875</ele>
        <time>2026-06-18T11:31:15.000Z</time>
        <extensions>
          <ns3:TrackPointExtension>
            <ns3:atemp>23.0</ns3:atemp>
          </ns3:TrackPointExtension>
        </extensions>
      </trkpt>
      <trkpt lat="42.5232376344501972198486328125" lon="19.769799225032329559326171875">
        <ele>1618.199951171875</ele>
        <time>2026-06-18T11:31:16.000Z</time>
        <extensions>
          <ns3:TrackPointExtension>
            <ns3:atemp>23.0</ns3:atemp>
          </ns3:TrackPointExtension>
        </extensions>
      </trkpt>
      <trkpt lat="42.5232376344501972198486328125" lon="19.769799225032329559326171875">
        <ele>1618.199951171875</ele>
        <time>2026-06-18T11:31:17.000Z</time>
        <extensions>
          <ns3:TrackPointExtension>
            <ns3:atemp>23.0</ns3:atemp>
          </ns3:TrackPointExtension>
        </extensions>
      </trkpt>
      <trkpt lat="42.5232376344501972198486328125" lon="19.769799225032329559326171875">
        <ele>1618.199951171875</ele>
        <time>2026-06-18T11:31:18.000Z</time>
        <extensions>
          <ns3:TrackPointExtension>
            <ns3:atemp>23.0</ns3:atemp>
          </ns3:TrackPointExtension>
        </extensions>
      </trkpt>
      <trkpt lat="42.5232396461069583892822265625" lon="19.769797213375568389892578125">
        <ele>1618.199951171875</ele>
        <time>2026-06-18T11:31:19.000Z</time>
        <extensions>
          <ns3:TrackPointExtension>
            <ns3:atemp>23.0</ns3:atemp>
          </ns3:TrackPointExtension>
        </extensions>
      </trkpt>
      <trkpt lat="42.5232554040849208831787109375" lon="19.76979562081396579742431640625">
        <ele>1618</ele>
        <time>2026-06-18T11:31:20.000Z</time>
        <extensions>
          <ns3:TrackPointExtension>
            <ns3:atemp>23.0</ns3:atemp>
          </ns3:TrackPointExtension>
        </extensions>
      </trkpt>
      <trkpt lat="42.5232684798538684844970703125" lon="19.769795201718807220458984375">
        <ele>1618</ele>
        <time>2026-06-18T11:31:21.000Z</time>
        <extensions>
          <ns3:TrackPointExtension>
            <ns3:atemp>23.0</ns3:atemp>
          </ns3:TrackPointExtension>
        </extensions>
      </trkpt>
      <trkpt lat="42.52327912487089633941650390625" lon="19.769797213375568389892578125">
        <ele>1617.800048828125</ele>
        <time>2026-06-18T11:31:22.000Z</time>
        <extensions>
          <ns3:TrackPointExtension>
            <ns3:atemp>23.0</ns3:atemp>
          </ns3:TrackPointExtension>
        </extensions>
      </trkpt>
      <trkpt lat="42.52328574657440185546875" lon="19.76979981176555156707763671875">
        <ele>1617.4000244140625</ele>
        <time>2026-06-18T11:31:23.000Z</time>
        <extensions>
          <ns3:TrackPointExtension>
            <ns3:atemp>23.0</ns3:atemp>
          </ns3:TrackPointExtension>
        </extensions>
      </trkpt>
      <trkpt lat="42.5232892669737339019775390625" lon="19.7698003984987735748291015625">
        <ele>1617.199951171875</ele>
        <time>2026-06-18T11:31:24.000Z</time>
        <extensions>
          <ns3:TrackPointExtension>
            <ns3:atemp>23.0</ns3:atemp>
          </ns3:TrackPointExtension>
        </extensions>
      </trkpt>
      <trkpt lat="42.52328951843082904815673828125" lon="19.76980048231780529022216796875">
        <ele>1617.199951171875</ele>
        <time>2026-06-18T11:31:25.000Z</time>
        <extensions>
          <ns3:TrackPointExtension>
            <ns3:atemp>23.0</ns3:atemp>
          </ns3:TrackPointExtension>
        </extensions>
      </trkpt>
      <trkpt lat="42.52328951843082904815673828125" lon="19.76980048231780529022216796875">
        <ele>1617</ele>
        <time>2026-06-18T11:31:26.000Z</time>
        <extensions>
          <ns3:TrackPointExtension>
            <ns3:atemp>23.0</ns3:atemp>
          </ns3:TrackPointExtension>
        </extensions>
      </trkpt>
      <trkpt lat="42.523290105164051055908203125" lon="19.7698007337749004364013671875">
        <ele>1617</ele>
        <time>2026-06-18T11:31:27.000Z</time>
        <extensions>
          <ns3:TrackPointExtension>
            <ns3:atemp>23.0</ns3:atemp>
          </ns3:TrackPointExtension>
        </extensions>
      </trkpt>
      <trkpt lat="42.52329454757273197174072265625" lon="19.769832082092761993408203125">
        <ele>1616.800048828125</ele>
        <time>2026-06-18T11:31:28.000Z</time>
        <extensions>
          <ns3:TrackPointExtension>
            <ns3:atemp>23.0</ns3:atemp>
          </ns3:TrackPointExtension>
        </extensions>
      </trkpt>
      <trkpt lat="42.52329354174435138702392578125" lon="19.76984155364334583282470703125">
        <ele>1616.5999755859375</ele>
        <time>2026-06-18T11:31:29.000Z</time>
        <extensions>
          <ns3:TrackPointExtension>
            <ns3:atemp>23.0</ns3:atemp>
          </ns3:TrackPointExtension>
        </extensions>
      </trkpt>
      <trkpt lat="42.5232936255633831024169921875" lon="19.76984172128140926361083984375">
        <ele>1616.4000244140625</ele>
        <time>2026-06-18T11:31:30.000Z</time>
        <extensions>
          <ns3:TrackPointExtension>
            <ns3:atemp>23.0</ns3:atemp>
          </ns3:TrackPointExtension>
        </extensions>
      </trkpt>
      <trkpt lat="42.52330276183784008026123046875" lon="19.7698523662984371185302734375">
        <ele>1616.199951171875</ele>
        <time>2026-06-18T11:31:31.000Z</time>
        <extensions>
          <ns3:TrackPointExtension>
            <ns3:atemp>23.0</ns3:atemp>
          </ns3:TrackPointExtension>
        </extensions>
      </trkpt>
      <trkpt lat="42.5233124010264873504638671875" lon="19.76985630579292774200439453125">
        <ele>1615.800048828125</ele>
        <time>2026-06-18T11:31:32.000Z</time>
        <extensions>
          <ns3:TrackPointExtension>
            <ns3:atemp>23.0</ns3:atemp>
          </ns3:TrackPointExtension>
        </extensions>
      </trkpt>
      <trkpt lat="42.52331634052097797393798828125" lon="19.7698557190597057342529296875">
        <ele>1615.5999755859375</ele>
        <time>2026-06-18T11:31:33.000Z</time>
        <extensions>
          <ns3:TrackPointExtension>
            <ns3:atemp>23.0</ns3:atemp>
          </ns3:TrackPointExtension>
        </extensions>
      </trkpt>
      <trkpt lat="42.5233291648328304290771484375" lon="19.7698570601642131805419921875">
        <ele>1615.4000244140625</ele>
        <time>2026-06-18T11:31:34.000Z</time>
        <extensions>
          <ns3:TrackPointExtension>
            <ns3:atemp>23.0</ns3:atemp>
          </ns3:TrackPointExtension>
        </extensions>
      </trkpt>
      <trkpt lat="42.523342408239841461181640625" lon="19.7698614187538623809814453125">
        <ele>1615.199951171875</ele>
        <time>2026-06-18T11:31:35.000Z</time>
        <extensions>
          <ns3:TrackPointExtension>
            <ns3:atemp>23.0</ns3:atemp>
          </ns3:TrackPointExtension>
        </extensions>
      </trkpt>
      <trkpt lat="42.523354478180408477783203125" lon="19.76986133493483066558837890625">
        <ele>1615</ele>
        <time>2026-06-18T11:31:36.000Z</time>
        <extensions>
          <ns3:TrackPointExtension>
            <ns3:atemp>23.0</ns3:atemp>
          </ns3:TrackPointExtension>
        </extensions>
      </trkpt>
      <trkpt lat="42.52336679957807064056396484375" lon="19.76986535824835300445556640625">
        <ele>1614.5999755859375</ele>
        <time>2026-06-18T11:31:37.000Z</time>
        <extensions>
          <ns3:TrackPointExtension>
            <ns3:atemp>23.0</ns3:atemp>
          </ns3:TrackPointExtension>
        </extensions>
      </trkpt>
      <trkpt lat="42.52337358891963958740234375" lon="19.76986351422965526580810546875">
        <ele>1614.199951171875</ele>
        <time>2026-06-18T11:31:38.000Z</time>
        <extensions>
          <ns3:TrackPointExtension>
            <ns3:atemp>23.0</ns3:atemp>
          </ns3:TrackPointExtension>
        </extensions>
      </trkpt>
      <trkpt lat="42.5233844853937625885009765625" lon="19.76985999383032321929931640625">
        <ele>1614</ele>
        <time>2026-06-18T11:31:39.000Z</time>
        <extensions>
          <ns3:TrackPointExtension>
            <ns3:atemp>23.0</ns3:atemp>
          </ns3:TrackPointExtension>
        </extensions>
      </trkpt>
      <trkpt lat="42.52339261583983898162841796875" lon="19.76986267603933811187744140625">
        <ele>1613.800048828125</ele>
        <time>2026-06-18T11:31:40.000Z</time>
        <extensions>
          <ns3:TrackPointExtension>
            <ns3:atemp>23.0</ns3:atemp>
          </ns3:TrackPointExtension>
        </extensions>
      </trkpt>
      <trkpt lat="42.5233972258865833282470703125" lon="19.7698684595525264739990234375">
        <ele>1613.5999755859375</ele>
        <time>2026-06-18T11:31:41.000Z</time>
        <extensions>
          <ns3:TrackPointExtension>
            <ns3:atemp>23.0</ns3:atemp>
          </ns3:TrackPointExtension>
        </extensions>
      </trkpt>
      <trkpt lat="42.52340032719075679779052734375" lon="19.76988178677856922149658203125">
        <ele>1613.4000244140625</ele>
        <time>2026-06-18T11:31:42.000Z</time>
        <extensions>
          <ns3:TrackPointExtension>
            <ns3:atemp>23.0</ns3:atemp>
          </ns3:TrackPointExtension>
        </extensions>
      </trkpt>
      <trkpt lat="42.52340485341846942901611328125" lon="19.76989922113716602325439453125">
        <ele>1613.199951171875</ele>
        <time>2026-06-18T11:31:43.000Z</time>
        <extensions>
          <ns3:TrackPointExtension>
            <ns3:atemp>23.0</ns3:atemp>
          </ns3:TrackPointExtension>
        </extensions>
      </trkpt>
      <trkpt lat="42.52340854145586490631103515625" lon="19.76992168463766574859619140625">
        <ele>1612.800048828125</ele>
        <time>2026-06-18T11:31:44.000Z</time>
        <extensions>
          <ns3:TrackPointExtension>
            <ns3:atemp>23.0</ns3:atemp>
          </ns3:TrackPointExtension>
        </extensions>
      </trkpt>
      <trkpt lat="42.5234136544167995452880859375" lon="19.769940041005611419677734375">
        <ele>1612.4000244140625</ele>
        <time>2026-06-18T11:31:45.000Z</time>
        <extensions>
          <ns3:TrackPointExtension>
            <ns3:atemp>23.0</ns3:atemp>
          </ns3:TrackPointExtension>
        </extensions>
      </trkpt>
      <trkpt lat="42.52342295832931995391845703125" lon="19.7699502669274806976318359375">
        <ele>1612</ele>
        <time>2026-06-18T11:31:46.000Z</time>
        <extensions>
          <ns3:TrackPointExtension>
            <ns3:atemp>23.0</ns3:atemp>
          </ns3:TrackPointExtension>
        </extensions>
      </trkpt>
      <trkpt lat="42.52342564053833484649658203125" lon="19.7699573077261447906494140625">
        <ele>1611.4000244140625</ele>
        <time>2026-06-18T11:31:47.000Z</time>
        <extensions>
          <ns3:TrackPointExtension>
            <ns3:atemp>23.0</ns3:atemp>
          </ns3:TrackPointExtension>
        </extensions>
      </trkpt>
      <trkpt lat="42.52342614345252513885498046875" lon="19.76996275596320629119873046875">
        <ele>1610.800048828125</ele>
        <time>2026-06-18T11:31:48.000Z</time>
        <extensions>
          <ns3:TrackPointExtension>
            <ns3:atemp>23.0</ns3:atemp>
          </ns3:TrackPointExtension>
        </extensions>
      </trkpt>
      <trkpt lat="42.52342798747122287750244140625" lon="19.76997180841863155364990234375">
        <ele>1610.199951171875</ele>
        <time>2026-06-18T11:31:49.000Z</time>
        <extensions>
          <ns3:TrackPointExtension>
            <ns3:atemp>23.0</ns3:atemp>
          </ns3:TrackPointExtension>
        </extensions>
      </trkpt>
      <trkpt lat="42.523433268070220947265625" lon="19.7699874825775623321533203125">
        <ele>1609.800048828125</ele>
        <time>2026-06-18T11:31:50.000Z</time>
        <extensions>
          <ns3:TrackPointExtension>
            <ns3:atemp>23.0</ns3:atemp>
          </ns3:TrackPointExtension>
        </extensions>
      </trkpt>
      <trkpt lat="42.52344106324017047882080078125" lon="19.769997708499431610107421875">
        <ele>1609.4000244140625</ele>
        <time>2026-06-18T11:31:51.000Z</time>
        <extensions>
          <ns3:TrackPointExtension>
            <ns3:atemp>23.0</ns3:atemp>
          </ns3:TrackPointExtension>
        </extensions>
      </trkpt>
      <trkpt lat="42.52345061860978603363037109375" lon="19.7700086049735546112060546875">
        <ele>1608.800048828125</ele>
        <time>2026-06-18T11:31:52.000Z</time>
        <extensions>
          <ns3:TrackPointExtension>
            <ns3:atemp>23.0</ns3:atemp>
          </ns3:TrackPointExtension>
        </extensions>
      </trkpt>
      <trkpt lat="42.52345413900911808013916015625" lon="19.77001271210610866546630859375">
        <ele>1608.4000244140625</ele>
        <time>2026-06-18T11:31:53.000Z</time>
        <extensions>
          <ns3:TrackPointExtension>
            <ns3:atemp>23.0</ns3:atemp>
          </ns3:TrackPointExtension>
        </extensions>
      </trkpt>
      <trkpt lat="42.52345765940845012664794921875" lon="19.77001774124801158905029296875">
        <ele>1607.5999755859375</ele>
        <time>2026-06-18T11:31:54.000Z</time>
        <extensions>
          <ns3:TrackPointExtension>
            <ns3:atemp>23.0</ns3:atemp>
          </ns3:TrackPointExtension>
        </extensions>
      </trkpt>
      <trkpt lat="42.52346151508390903472900390625" lon="19.770022518932819366455078125">
        <ele>1607.199951171875</ele>
        <time>2026-06-18T11:31:55.000Z</time>
        <extensions>
          <ns3:TrackPointExtension>
            <ns3:atemp>23.0</ns3:atemp>
          </ns3:TrackPointExtension>
        </extensions>
      </trkpt>
      <trkpt lat="42.52346402965486049652099609375" lon="19.7700290568172931671142578125">
        <ele>1606.5999755859375</ele>
        <time>2026-06-18T11:31:56.000Z</time>
        <extensions>
          <ns3:TrackPointExtension>
            <ns3:atemp>23.0</ns3:atemp>
          </ns3:TrackPointExtension>
        </extensions>
      </trkpt>
      <trkpt lat="42.52346402965486049652099609375" lon="19.7700290568172931671142578125">
        <ele>1606.199951171875</ele>
        <time>2026-06-18T11:31:57.000Z</time>
        <extensions>
          <ns3:TrackPointExtension>
            <ns3:atemp>23.0</ns3:atemp>
          </ns3:TrackPointExtension>
        </extensions>
      </trkpt>
      <trkpt lat="42.5234642811119556427001953125" lon="19.7700287215411663055419921875">
        <ele>1606</ele>
        <time>2026-06-18T11:31:58.000Z</time>
        <extensions>
          <ns3:TrackPointExtension>
            <ns3:atemp>23.0</ns3:atemp>
          </ns3:TrackPointExtension>
        </extensions>
      </trkpt>
      <trkpt lat="42.5234820507466793060302734375" lon="19.77003299631178379058837890625">
        <ele>1605.5999755859375</ele>
        <time>2026-06-18T11:31:59.000Z</time>
        <extensions>
          <ns3:TrackPointExtension>
            <ns3:atemp>23.0</ns3:atemp>
          </ns3:TrackPointExtension>
        </extensions>
      </trkpt>
      <trkpt lat="42.52349537797272205352783203125" lon="19.77003735490143299102783203125">
        <ele>1605.199951171875</ele>
        <time>2026-06-18T11:32:00.000Z</time>
        <extensions>
          <ns3:TrackPointExtension>
            <ns3:atemp>23.0</ns3:atemp>
          </ns3:TrackPointExtension>
        </extensions>
      </trkpt>
      <trkpt lat="42.52352119423449039459228515625" lon="19.770047329366207122802734375">
        <ele>1605</ele>
        <time>2026-06-18T11:32:01.000Z</time>
        <extensions>
          <ns3:TrackPointExtension>
            <ns3:atemp>23.0</ns3:atemp>
          </ns3:TrackPointExtension>
        </extensions>
      </trkpt>
      <trkpt lat="42.52353963442146778106689453125" lon="19.77005478926002979278564453125">
        <ele>1604.5999755859375</ele>
        <time>2026-06-18T11:32:02.000Z</time>
        <extensions>
          <ns3:TrackPointExtension>
            <ns3:atemp>23.0</ns3:atemp>
          </ns3:TrackPointExtension>
        </extensions>
      </trkpt>
      <trkpt lat="42.52354902215301990509033203125" lon="19.77005260996520519256591796875">
        <ele>1604</ele>
        <time>2026-06-18T11:32:03.000Z</time>
        <extensions>
          <ns3:TrackPointExtension>
            <ns3:atemp>23.0</ns3:atemp>
          </ns3:TrackPointExtension>
        </extensions>
      </trkpt>
      <trkpt lat="42.52355673350393772125244140625" lon="19.7700485028326511383056640625">
        <ele>1603.5999755859375</ele>
        <time>2026-06-18T11:32:04.000Z</time>
        <extensions>
          <ns3:TrackPointExtension>
            <ns3:atemp>23.0</ns3:atemp>
          </ns3:TrackPointExtension>
        </extensions>
      </trkpt>
      <trkpt lat="42.52357182092964649200439453125" lon="19.770050346851348876953125">
        <ele>1603.199951171875</ele>
        <time>2026-06-18T11:32:05.000Z</time>
        <extensions>
          <ns3:TrackPointExtension>
            <ns3:atemp>23.0</ns3:atemp>
          </ns3:TrackPointExtension>
        </extensions>
      </trkpt>
      <trkpt lat="42.52358280122280120849609375" lon="19.77005906403064727783203125">
        <ele>1602.5999755859375</ele>
        <time>2026-06-18T11:32:06.000Z</time>
        <extensions>
          <ns3:TrackPointExtension>
            <ns3:atemp>23.0</ns3:atemp>
          </ns3:TrackPointExtension>
        </extensions>
      </trkpt>
      <trkpt lat="42.52358724363148212432861328125" lon="19.7700679488480091094970703125">
        <ele>1602.4000244140625</ele>
        <time>2026-06-18T11:32:07.000Z</time>
        <extensions>
          <ns3:TrackPointExtension>
            <ns3:atemp>23.0</ns3:atemp>
          </ns3:TrackPointExtension>
        </extensions>
      </trkpt>
      <trkpt lat="42.5235873274505138397216796875" lon="19.77006803266704082489013671875">
        <ele>1602.199951171875</ele>
        <time>2026-06-18T11:32:08.000Z</time>
        <extensions>
          <ns3:TrackPointExtension>
            <ns3:atemp>23.0</ns3:atemp>
          </ns3:TrackPointExtension>
        </extensions>
      </trkpt>
      <trkpt lat="42.5235873274505138397216796875" lon="19.77006803266704082489013671875">
        <ele>1602</ele>
        <time>2026-06-18T11:32:09.000Z</time>
        <extensions>
          <ns3:TrackPointExtension>
            <ns3:atemp>23.0</ns3:atemp>
          </ns3:TrackPointExtension>
        </extensions>
      </trkpt>
      <trkpt lat="42.5235873274505138397216796875" lon="19.77006803266704082489013671875">
        <ele>1601.5999755859375</ele>
        <time>2026-06-18T11:32:10.000Z</time>
        <extensions>
          <ns3:TrackPointExtension>
            <ns3:atemp>23.0</ns3:atemp>
          </ns3:TrackPointExtension>
        </extensions>
      </trkpt>
      <trkpt lat="42.52358841709792613983154296875" lon="19.77006853558123111724853515625">
        <ele>1601.5999755859375</ele>
        <time>2026-06-18T11:32:11.000Z</time>
        <extensions>
          <ns3:TrackPointExtension>
            <ns3:atemp>23.0</ns3:atemp>
          </ns3:TrackPointExtension>
        </extensions>
      </trkpt>
      <trkpt lat="42.5236062705516815185546875" lon="19.77007624693214893341064453125">
        <ele>1601.4000244140625</ele>
        <time>2026-06-18T11:32:12.000Z</time>
        <extensions>
          <ns3:TrackPointExtension>
            <ns3:atemp>23.0</ns3:atemp>
          </ns3:TrackPointExtension>
        </extensions>
      </trkpt>
      <trkpt lat="42.52361741848289966583251953125" lon="19.770070128142833709716796875">
        <ele>1601.199951171875</ele>
        <time>2026-06-18T11:32:13.000Z</time>
        <extensions>
          <ns3:TrackPointExtension>
            <ns3:atemp>23.0</ns3:atemp>
          </ns3:TrackPointExtension>
        </extensions>
      </trkpt>
      <trkpt lat="42.5236237049102783203125" lon="19.77006250061094760894775390625">
        <ele>1601</ele>
        <time>2026-06-18T11:32:14.000Z</time>
        <extensions>
          <ns3:TrackPointExtension>
            <ns3:atemp>23.0</ns3:atemp>
          </ns3:TrackPointExtension>
        </extensions>
      </trkpt>
      <trkpt lat="42.52363485284149646759033203125" lon="19.770056717097759246826171875">
        <ele>1600.5999755859375</ele>
        <time>2026-06-18T11:32:15.000Z</time>
        <extensions>
          <ns3:TrackPointExtension>
            <ns3:atemp>23.0</ns3:atemp>
          </ns3:TrackPointExtension>
        </extensions>
      </trkpt>
      <trkpt lat="42.52364859916269779205322265625" lon="19.770058058202266693115234375">
        <ele>1600.199951171875</ele>
        <time>2026-06-18T11:32:16.000Z</time>
        <extensions>
          <ns3:TrackPointExtension>
            <ns3:atemp>23.0</ns3:atemp>
          </ns3:TrackPointExtension>
        </extensions>
      </trkpt>
      <trkpt lat="42.52365916036069393157958984375" lon="19.7700650990009307861328125">
        <ele>1599.800048828125</ele>
        <time>2026-06-18T11:32:17.000Z</time>
        <extensions>
          <ns3:TrackPointExtension>
            <ns3:atemp>23.0</ns3:atemp>
          </ns3:TrackPointExtension>
        </extensions>
      </trkpt>
      <trkpt lat="42.523670978844165802001953125" lon="19.7700713016092777252197265625">
        <ele>1599.4000244140625</ele>
        <time>2026-06-18T11:32:18.000Z</time>
        <extensions>
          <ns3:TrackPointExtension>
            <ns3:atemp>23.0</ns3:atemp>
          </ns3:TrackPointExtension>
        </extensions>
      </trkpt>
      <trkpt lat="42.52368045039474964141845703125" lon="19.77007658220827579498291015625">
        <ele>1599</ele>
        <time>2026-06-18T11:32:19.000Z</time>
        <extensions>
          <ns3:TrackPointExtension>
            <ns3:atemp>23.0</ns3:atemp>
          </ns3:TrackPointExtension>
        </extensions>
      </trkpt>
      <trkpt lat="42.52369872294366359710693359375" lon="19.77007674984633922576904296875">
        <ele>1598.5999755859375</ele>
        <time>2026-06-18T11:32:20.000Z</time>
        <extensions>
          <ns3:TrackPointExtension>
            <ns3:atemp>23.0</ns3:atemp>
          </ns3:TrackPointExtension>
        </extensions>
      </trkpt>
      <trkpt lat="42.523706853389739990234375" lon="19.77006434462964534759521484375">
        <ele>1598</ele>
        <time>2026-06-18T11:32:21.000Z</time>
        <extensions>
          <ns3:TrackPointExtension>
            <ns3:atemp>23.0</ns3:atemp>
          </ns3:TrackPointExtension>
        </extensions>
      </trkpt>
      <trkpt lat="42.52372118644416332244873046875" lon="19.77005797438323497772216796875">
        <ele>1597.5999755859375</ele>
        <time>2026-06-18T11:32:22.000Z</time>
        <extensions>
          <ns3:TrackPointExtension>
            <ns3:atemp>23.0</ns3:atemp>
          </ns3:TrackPointExtension>
        </extensions>
      </trkpt>
      <trkpt lat="42.52373895607888698577880859375" lon="19.77004774846136569976806640625">
        <ele>1597.199951171875</ele>
        <time>2026-06-18T11:32:23.000Z</time>
        <extensions>
          <ns3:TrackPointExtension>
            <ns3:atemp>23.0</ns3:atemp>
          </ns3:TrackPointExtension>
        </extensions>
      </trkpt>
      <trkpt lat="42.5237506069242954254150390625" lon="19.77004204876720905303955078125">
        <ele>1597</ele>
        <time>2026-06-18T11:32:24.000Z</time>
        <extensions>
          <ns3:TrackPointExtension>
            <ns3:atemp>23.0</ns3:atemp>
          </ns3:TrackPointExtension>
        </extensions>
      </trkpt>
      <trkpt lat="42.523753456771373748779296875" lon="19.7700411267578601837158203125">
        <ele>1596.5999755859375</ele>
        <time>2026-06-18T11:32:25.000Z</time>
        <extensions>
          <ns3:TrackPointExtension>
            <ns3:atemp>23.0</ns3:atemp>
          </ns3:TrackPointExtension>
        </extensions>
      </trkpt>
      <trkpt lat="42.5237640179693698883056640625" lon="19.77004573680460453033447265625">
        <ele>1596.4000244140625</ele>
        <time>2026-06-18T11:32:26.000Z</time>
        <extensions>
          <ns3:TrackPointExtension>
            <ns3:atemp>23.0</ns3:atemp>
          </ns3:TrackPointExtension>
        </extensions>
      </trkpt>
      <trkpt lat="42.5237739086151123046875" lon="19.77005126886069774627685546875">
        <ele>1596.199951171875</ele>
        <time>2026-06-18T11:32:27.000Z</time>
        <extensions>
          <ns3:TrackPointExtension>
            <ns3:atemp>23.0</ns3:atemp>
          </ns3:TrackPointExtension>
        </extensions>
      </trkpt>
      <trkpt lat="42.5237780995666980743408203125" lon="19.770047999918460845947265625">
        <ele>1596</ele>
        <time>2026-06-18T11:32:28.000Z</time>
        <extensions>
          <ns3:TrackPointExtension>
            <ns3:atemp>23.0</ns3:atemp>
          </ns3:TrackPointExtension>
        </extensions>
      </trkpt>
      <trkpt lat="42.5237891636788845062255859375" lon="19.77005328051745891571044921875">
        <ele>1595.800048828125</ele>
        <time>2026-06-18T11:32:29.000Z</time>
        <extensions>
          <ns3:TrackPointExtension>
            <ns3:atemp>23.0</ns3:atemp>
          </ns3:TrackPointExtension>
        </extensions>
      </trkpt>
      <trkpt lat="42.52379603683948516845703125" lon="19.77004925720393657684326171875">
        <ele>1595.5999755859375</ele>
        <time>2026-06-18T11:32:30.000Z</time>
        <extensions>
          <ns3:TrackPointExtension>
            <ns3:atemp>23.0</ns3:atemp>
          </ns3:TrackPointExtension>
        </extensions>
      </trkpt>
      <trkpt lat="42.52379695884883403778076171875" lon="19.7700434736907482147216796875">
        <ele>1595.4000244140625</ele>
        <time>2026-06-18T11:32:31.000Z</time>
        <extensions>
          <ns3:TrackPointExtension>
            <ns3:atemp>23.0</ns3:atemp>
          </ns3:TrackPointExtension>
        </extensions>
      </trkpt>
      <trkpt lat="42.52380701713263988494873046875" lon="19.77004573680460453033447265625">
        <ele>1595.199951171875</ele>
        <time>2026-06-18T11:32:32.000Z</time>
        <extensions>
          <ns3:TrackPointExtension>
            <ns3:atemp>23.0</ns3:atemp>
          </ns3:TrackPointExtension>
        </extensions>
      </trkpt>
      <trkpt lat="42.52380701713263988494873046875" lon="19.7700451500713825225830078125">
        <ele>1595.199951171875</ele>
        <time>2026-06-18T11:32:33.000Z</time>
        <extensions>
          <ns3:TrackPointExtension>
            <ns3:atemp>23.0</ns3:atemp>
          </ns3:TrackPointExtension>
        </extensions>
      </trkpt>
      <trkpt lat="42.52380701713263988494873046875" lon="19.7700451500713825225830078125">
        <ele>1595</ele>
        <time>2026-06-18T11:32:34.000Z</time>
        <extensions>
          <ns3:TrackPointExtension>
            <ns3:atemp>23.0</ns3:atemp>
          </ns3:TrackPointExtension>
        </extensions>
      </trkpt>
      <trkpt lat="42.52380701713263988494873046875" lon="19.7700451500713825225830078125">
        <ele>1595</ele>
        <time>2026-06-18T11:32:35.000Z</time>
        <extensions>
          <ns3:TrackPointExtension>
            <ns3:atemp>23.0</ns3:atemp>
          </ns3:TrackPointExtension>
        </extensions>
      </trkpt>
      <trkpt lat="42.52380701713263988494873046875" lon="19.7700451500713825225830078125">
        <ele>1595</ele>
        <time>2026-06-18T11:32:36.000Z</time>
        <extensions>
          <ns3:TrackPointExtension>
            <ns3:atemp>23.0</ns3:atemp>
          </ns3:TrackPointExtension>
        </extensions>
      </trkpt>
      <trkpt lat="42.52381087280809879302978515625" lon="19.77004699409008026123046875">
        <ele>1594.800048828125</ele>
        <time>2026-06-18T11:32:37.000Z</time>
        <extensions>
          <ns3:TrackPointExtension>
            <ns3:atemp>23.0</ns3:atemp>
          </ns3:TrackPointExtension>
        </extensions>
      </trkpt>
      <trkpt lat="42.523832581937313079833984375" lon="19.77005981840193271636962890625">
        <ele>1594.800048828125</ele>
        <time>2026-06-18T11:32:38.000Z</time>
        <extensions>
          <ns3:TrackPointExtension>
            <ns3:atemp>23.0</ns3:atemp>
          </ns3:TrackPointExtension>
        </extensions>
      </trkpt>
      <trkpt lat="42.52383283339440822601318359375" lon="19.7700599022209644317626953125">
        <ele>1594.800048828125</ele>
        <time>2026-06-18T11:32:39.000Z</time>
        <extensions>
          <ns3:TrackPointExtension>
            <ns3:atemp>23.0</ns3:atemp>
          </ns3:TrackPointExtension>
        </extensions>
      </trkpt>
      <trkpt lat="42.52383283339440822601318359375" lon="19.7700599022209644317626953125">
        <ele>1594.800048828125</ele>
        <time>2026-06-18T11:32:40.000Z</time>
        <extensions>
          <ns3:TrackPointExtension>
            <ns3:atemp>23.0</ns3:atemp>
          </ns3:TrackPointExtension>
        </extensions>
      </trkpt>
      <trkpt lat="42.52383283339440822601318359375" lon="19.7700599022209644317626953125">
        <ele>1594.800048828125</ele>
        <time>2026-06-18T11:32:41.000Z</time>
        <extensions>
          <ns3:TrackPointExtension>
            <ns3:atemp>23.0</ns3:atemp>
          </ns3:TrackPointExtension>
        </extensions>
      </trkpt>
      <trkpt lat="42.52383283339440822601318359375" lon="19.7700599022209644317626953125">
        <ele>1594.800048828125</ele>
        <time>2026-06-18T11:32:42.000Z</time>
        <extensions>
          <ns3:TrackPointExtension>
            <ns3:atemp>23.0</ns3:atemp>
          </ns3:TrackPointExtension>
        </extensions>
      </trkpt>
      <trkpt lat="42.52383283339440822601318359375" lon="19.7700599022209644317626953125">
        <ele>1594.800048828125</ele>
        <time>2026-06-18T11:32:43.000Z</time>
        <extensions>
          <ns3:TrackPointExtension>
            <ns3:atemp>23.0</ns3:atemp>
          </ns3:TrackPointExtension>
        </extensions>
      </trkpt>
      <trkpt lat="42.52383283339440822601318359375" lon="19.7700599022209644317626953125">
        <ele>1594.800048828125</ele>
        <time>2026-06-18T11:32:44.000Z</time>
        <extensions>
          <ns3:TrackPointExtension>
            <ns3:atemp>23.0</ns3:atemp>
          </ns3:TrackPointExtension>
        </extensions>
      </trkpt>
      <trkpt lat="42.52383501268923282623291015625" lon="19.7700595669448375701904296875">
        <ele>1594.800048828125</ele>
        <time>2026-06-18T11:32:45.000Z</time>
        <extensions>
          <ns3:TrackPointExtension>
            <ns3:atemp>23.0</ns3:atemp>
          </ns3:TrackPointExtension>
        </extensions>
      </trkpt>
      <trkpt lat="42.523851692676544189453125" lon="19.770061075687408447265625">
        <ele>1594.800048828125</ele>
        <time>2026-06-18T11:32:46.000Z</time>
        <extensions>
          <ns3:TrackPointExtension>
            <ns3:atemp>23.0</ns3:atemp>
          </ns3:TrackPointExtension>
        </extensions>
      </trkpt>
      <trkpt lat="42.5238592363893985748291015625" lon="19.770066104829311370849609375">
        <ele>1594.5999755859375</ele>
        <time>2026-06-18T11:32:47.000Z</time>
        <extensions>
          <ns3:TrackPointExtension>
            <ns3:atemp>23.0</ns3:atemp>
          </ns3:TrackPointExtension>
        </extensions>
      </trkpt>
      <trkpt lat="42.52386686392128467559814453125" lon="19.77006576955318450927734375">
        <ele>1594.5999755859375</ele>
        <time>2026-06-18T11:32:48.000Z</time>
        <extensions>
          <ns3:TrackPointExtension>
            <ns3:atemp>23.0</ns3:atemp>
          </ns3:TrackPointExtension>
        </extensions>
      </trkpt>
      <trkpt lat="42.52387323416769504547119140625" lon="19.7700625844299793243408203125">
        <ele>1594.4000244140625</ele>
        <time>2026-06-18T11:32:49.000Z</time>
        <extensions>
          <ns3:TrackPointExtension>
            <ns3:atemp>23.0</ns3:atemp>
          </ns3:TrackPointExtension>
        </extensions>
      </trkpt>
      <trkpt lat="42.52387340180575847625732421875" lon="19.77006250061094760894775390625">
        <ele>1594.199951171875</ele>
        <time>2026-06-18T11:32:50.000Z</time>
        <extensions>
          <ns3:TrackPointExtension>
            <ns3:atemp>23.0</ns3:atemp>
          </ns3:TrackPointExtension>
        </extensions>
      </trkpt>
      <trkpt lat="42.52387340180575847625732421875" lon="19.77006250061094760894775390625">
        <ele>1594.199951171875</ele>
        <time>2026-06-18T11:32:51.000Z</time>
        <extensions>
          <ns3:TrackPointExtension>
            <ns3:atemp>23.0</ns3:atemp>
          </ns3:TrackPointExtension>
        </extensions>
      </trkpt>
      <trkpt lat="42.52387340180575847625732421875" lon="19.77006250061094760894775390625">
        <ele>1594</ele>
        <time>2026-06-18T11:32:52.000Z</time>
        <extensions>
          <ns3:TrackPointExtension>
            <ns3:atemp>23.0</ns3:atemp>
          </ns3:TrackPointExtension>
        </extensions>
      </trkpt>
      <trkpt lat="42.52387340180575847625732421875" lon="19.77006250061094760894775390625">
        <ele>1594</ele>
        <time>2026-06-18T11:32:53.000Z</time>
        <extensions>
          <ns3:TrackPointExtension>
            <ns3:atemp>23.0</ns3:atemp>
          </ns3:TrackPointExtension>
        </extensions>
      </trkpt>
      <trkpt lat="42.52387340180575847625732421875" lon="19.77006250061094760894775390625">
        <ele>1594</ele>
        <time>2026-06-18T11:32:54.000Z</time>
        <extensions>
          <ns3:TrackPointExtension>
            <ns3:atemp>23.0</ns3:atemp>
          </ns3:TrackPointExtension>
        </extensions>
      </trkpt>
      <trkpt lat="42.52387340180575847625732421875" lon="19.77006250061094760894775390625">
        <ele>1594</ele>
        <time>2026-06-18T11:32:55.000Z</time>
        <extensions>
          <ns3:TrackPointExtension>
            <ns3:atemp>23.0</ns3:atemp>
          </ns3:TrackPointExtension>
        </extensions>
      </trkpt>
      <trkpt lat="42.52387516200542449951171875" lon="19.77006317116320133209228515625">
        <ele>1594</ele>
        <time>2026-06-18T11:32:56.000Z</time>
        <extensions>
          <ns3:TrackPointExtension>
            <ns3:atemp>23.0</ns3:atemp>
          </ns3:TrackPointExtension>
        </extensions>
      </trkpt>
      <trkpt lat="42.52389527857303619384765625" lon="19.77008722722530364990234375">
        <ele>1594</ele>
        <time>2026-06-18T11:32:57.000Z</time>
        <extensions>
          <ns3:TrackPointExtension>
            <ns3:atemp>23.0</ns3:atemp>
          </ns3:TrackPointExtension>
        </extensions>
      </trkpt>
      <trkpt lat="42.523905001580715179443359375" lon="19.77010189555585384368896484375">
        <ele>1593.800048828125</ele>
        <time>2026-06-18T11:32:58.000Z</time>
        <extensions>
          <ns3:TrackPointExtension>
            <ns3:atemp>23.0</ns3:atemp>
          </ns3:TrackPointExtension>
        </extensions>
      </trkpt>
      <trkpt lat="42.52390944398939609527587890625" lon="19.77011648006737232208251953125">
        <ele>1593.4000244140625</ele>
        <time>2026-06-18T11:32:59.000Z</time>
        <extensions>
          <ns3:TrackPointExtension>
            <ns3:atemp>23.0</ns3:atemp>
          </ns3:TrackPointExtension>
        </extensions>
      </trkpt>
      <trkpt lat="42.52390877343714237213134765625" lon="19.77013559080660343170166015625">
        <ele>1593.199951171875</ele>
        <time>2026-06-18T11:33:00.000Z</time>
        <extensions>
          <ns3:TrackPointExtension>
            <ns3:atemp>23.0</ns3:atemp>
          </ns3:TrackPointExtension>
        </extensions>
      </trkpt>
      <trkpt lat="42.52391137182712554931640625" lon="19.77014095522463321685791015625">
        <ele>1592.5999755859375</ele>
        <time>2026-06-18T11:33:01.000Z</time>
        <extensions>
          <ns3:TrackPointExtension>
            <ns3:atemp>23.0</ns3:atemp>
          </ns3:TrackPointExtension>
        </extensions>
      </trkpt>
      <trkpt lat="42.5239132158458232879638671875" lon="19.7701420448720455169677734375">
        <ele>1592.4000244140625</ele>
        <time>2026-06-18T11:33:02.000Z</time>
        <extensions>
          <ns3:TrackPointExtension>
            <ns3:atemp>23.0</ns3:atemp>
          </ns3:TrackPointExtension>
        </extensions>
      </trkpt>
      <trkpt lat="42.5239132158458232879638671875" lon="19.7701420448720455169677734375">
        <ele>1592</ele>
        <time>2026-06-18T11:33:03.000Z</time>
        <extensions>
          <ns3:TrackPointExtension>
            <ns3:atemp>23.0</ns3:atemp>
          </ns3:TrackPointExtension>
        </extensions>
      </trkpt>
      <trkpt lat="42.5239138863980770111083984375" lon="19.77013994939625263214111328125">
        <ele>1591.800048828125</ele>
        <time>2026-06-18T11:33:04.000Z</time>
        <extensions>
          <ns3:TrackPointExtension>
            <ns3:atemp>23.0</ns3:atemp>
          </ns3:TrackPointExtension>
        </extensions>
      </trkpt>
      <trkpt lat="42.5239132158458232879638671875" lon="19.7701420448720455169677734375">
        <ele>1591.800048828125</ele>
        <time>2026-06-18T11:33:05.000Z</time>
        <extensions>
          <ns3:TrackPointExtension>
            <ns3:atemp>23.0</ns3:atemp>
          </ns3:TrackPointExtension>
        </extensions>
      </trkpt>
      <trkpt lat="42.5239132158458232879638671875" lon="19.7701420448720455169677734375">
        <ele>1591.5999755859375</ele>
        <time>2026-06-18T11:33:06.000Z</time>
        <extensions>
          <ns3:TrackPointExtension>
            <ns3:atemp>23.0</ns3:atemp>
          </ns3:TrackPointExtension>
        </extensions>
      </trkpt>
      <trkpt lat="42.5239132158458232879638671875" lon="19.7701420448720455169677734375">
        <ele>1591.5999755859375</ele>
        <time>2026-06-18T11:33:07.000Z</time>
        <extensions>
          <ns3:TrackPointExtension>
            <ns3:atemp>23.0</ns3:atemp>
          </ns3:TrackPointExtension>
        </extensions>
      </trkpt>
      <trkpt lat="42.5239132158458232879638671875" lon="19.7701420448720455169677734375">
        <ele>1591.5999755859375</ele>
        <time>2026-06-18T11:33:08.000Z</time>
        <extensions>
          <ns3:TrackPointExtension>
            <ns3:atemp>23.0</ns3:atemp>
          </ns3:TrackPointExtension>
        </extensions>
      </trkpt>
      <trkpt lat="42.5239132158458232879638671875" lon="19.7701420448720455169677734375">
        <ele>1591.5999755859375</ele>
        <time>2026-06-18T11:33:09.000Z</time>
        <extensions>
          <ns3:TrackPointExtension>
            <ns3:atemp>23.0</ns3:atemp>
          </ns3:TrackPointExtension>
        </extensions>
      </trkpt>
      <trkpt lat="42.5239132158458232879638671875" lon="19.7701420448720455169677734375">
        <ele>1591.4000244140625</ele>
        <time>2026-06-18T11:33:10.000Z</time>
        <extensions>
          <ns3:TrackPointExtension>
            <ns3:atemp>23.0</ns3:atemp>
          </ns3:TrackPointExtension>
        </extensions>
      </trkpt>
      <trkpt lat="42.5239132158458232879638671875" lon="19.7701420448720455169677734375">
        <ele>1591.4000244140625</ele>
        <time>2026-06-18T11:33:11.000Z</time>
        <extensions>
          <ns3:TrackPointExtension>
            <ns3:atemp>23.0</ns3:atemp>
          </ns3:TrackPointExtension>
        </extensions>
      </trkpt>
      <trkpt lat="42.5239132158458232879638671875" lon="19.7701420448720455169677734375">
        <ele>1591.4000244140625</ele>
        <time>2026-06-18T11:33:12.000Z</time>
        <extensions>
          <ns3:TrackPointExtension>
            <ns3:atemp>23.0</ns3:atemp>
          </ns3:TrackPointExtension>
        </extensions>
      </trkpt>
      <trkpt lat="42.5239132158458232879638671875" lon="19.7701420448720455169677734375">
        <ele>1591.4000244140625</ele>
        <time>2026-06-18T11:33:13.000Z</time>
        <extensions>
          <ns3:TrackPointExtension>
            <ns3:atemp>23.0</ns3:atemp>
          </ns3:TrackPointExtension>
        </extensions>
      </trkpt>
      <trkpt lat="42.5239132158458232879638671875" lon="19.7701420448720455169677734375">
        <ele>1591.4000244140625</ele>
        <time>2026-06-18T11:33:14.000Z</time>
        <extensions>
          <ns3:TrackPointExtension>
            <ns3:atemp>23.0</ns3:atemp>
          </ns3:TrackPointExtension>
        </extensions>
      </trkpt>
      <trkpt lat="42.52391916699707508087158203125" lon="19.770147241652011871337890625">
        <ele>1591.199951171875</ele>
        <time>2026-06-18T11:33:15.000Z</time>
        <extensions>
          <ns3:TrackPointExtension>
            <ns3:atemp>23.0</ns3:atemp>
          </ns3:TrackPointExtension>
        </extensions>
      </trkpt>
      <trkpt lat="42.5239340029656887054443359375" lon="19.7701500914990901947021484375">
        <ele>1591.199951171875</ele>
        <time>2026-06-18T11:33:16.000Z</time>
        <extensions>
          <ns3:TrackPointExtension>
            <ns3:atemp>23.0</ns3:atemp>
          </ns3:TrackPointExtension>
        </extensions>
      </trkpt>
      <trkpt lat="42.52394012175500392913818359375" lon="19.77014766074717044830322265625">
        <ele>1591.199951171875</ele>
        <time>2026-06-18T11:33:17.000Z</time>
        <extensions>
          <ns3:TrackPointExtension>
            <ns3:atemp>23.0</ns3:atemp>
          </ns3:TrackPointExtension>
        </extensions>
      </trkpt>
      <trkpt lat="42.5239386968314647674560546875" lon="19.7701457329094409942626953125">
        <ele>1591</ele>
        <time>2026-06-18T11:33:18.000Z</time>
        <extensions>
          <ns3:TrackPointExtension>
            <ns3:atemp>23.0</ns3:atemp>
          </ns3:TrackPointExtension>
        </extensions>
      </trkpt>
      <trkpt lat="42.52393878065049648284912109375" lon="19.77014548145234584808349609375">
        <ele>1591</ele>
        <time>2026-06-18T11:33:19.000Z</time>
        <extensions>
          <ns3:TrackPointExtension>
            <ns3:atemp>23.0</ns3:atemp>
          </ns3:TrackPointExtension>
        </extensions>
      </trkpt>
      <trkpt lat="42.52393878065049648284912109375" lon="19.77014548145234584808349609375">
        <ele>1591</ele>
        <time>2026-06-18T11:33:20.000Z</time>
        <extensions>
          <ns3:TrackPointExtension>
            <ns3:atemp>23.0</ns3:atemp>
          </ns3:TrackPointExtension>
        </extensions>
      </trkpt>
      <trkpt lat="42.52393878065049648284912109375" lon="19.77014548145234584808349609375">
        <ele>1591</ele>
        <time>2026-06-18T11:33:21.000Z</time>
        <extensions>
          <ns3:TrackPointExtension>
            <ns3:atemp>23.0</ns3:atemp>
          </ns3:TrackPointExtension>
        </extensions>
      </trkpt>
      <trkpt lat="42.52393878065049648284912109375" lon="19.77014548145234584808349609375">
        <ele>1591</ele>
        <time>2026-06-18T11:33:22.000Z</time>
        <extensions>
          <ns3:TrackPointExtension>
            <ns3:atemp>23.0</ns3:atemp>
          </ns3:TrackPointExtension>
        </extensions>
      </trkpt>
      <trkpt lat="42.52393878065049648284912109375" lon="19.77014548145234584808349609375">
        <ele>1591</ele>
        <time>2026-06-18T11:33:23.000Z</time>
        <extensions>
          <ns3:TrackPointExtension>
            <ns3:atemp>23.0</ns3:atemp>
          </ns3:TrackPointExtension>
        </extensions>
      </trkpt>
      <trkpt lat="42.52393878065049648284912109375" lon="19.77014548145234584808349609375">
        <ele>1591</ele>
        <time>2026-06-18T11:33:24.000Z</time>
        <extensions>
          <ns3:TrackPointExtension>
            <ns3:atemp>23.0</ns3:atemp>
          </ns3:TrackPointExtension>
        </extensions>
      </trkpt>
      <trkpt lat="42.52393878065049648284912109375" lon="19.77014548145234584808349609375">
        <ele>1591</ele>
        <time>2026-06-18T11:33:25.000Z</time>
        <extensions>
          <ns3:TrackPointExtension>
            <ns3:atemp>23.0</ns3:atemp>
          </ns3:TrackPointExtension>
        </extensions>
      </trkpt>
      <trkpt lat="42.52393878065049648284912109375" lon="19.77014548145234584808349609375">
        <ele>1591</ele>
        <time>2026-06-18T11:33:26.000Z</time>
        <extensions>
          <ns3:TrackPointExtension>
            <ns3:atemp>23.0</ns3:atemp>
          </ns3:TrackPointExtension>
        </extensions>
      </trkpt>
      <trkpt lat="42.52393878065049648284912109375" lon="19.770144559442996978759765625">
        <ele>1591</ele>
        <time>2026-06-18T11:33:27.000Z</time>
        <extensions>
          <ns3:TrackPointExtension>
            <ns3:atemp>23.0</ns3:atemp>
          </ns3:TrackPointExtension>
        </extensions>
      </trkpt>
      <trkpt lat="42.52395068295300006866455078125" lon="19.77016626857221126556396484375">
        <ele>1590.800048828125</ele>
        <time>2026-06-18T11:33:28.000Z</time>
        <extensions>
          <ns3:TrackPointExtension>
            <ns3:atemp>23.0</ns3:atemp>
          </ns3:TrackPointExtension>
        </extensions>
      </trkpt>
      <trkpt lat="42.5239655189216136932373046875" lon="19.77017984725534915924072265625">
        <ele>1590.800048828125</ele>
        <time>2026-06-18T11:33:29.000Z</time>
        <extensions>
          <ns3:TrackPointExtension>
            <ns3:atemp>23.0</ns3:atemp>
          </ns3:TrackPointExtension>
        </extensions>
      </trkpt>
      <trkpt lat="42.52398110926151275634765625" lon="19.77020583115518093109130859375">
        <ele>1590.5999755859375</ele>
        <time>2026-06-18T11:33:30.000Z</time>
        <extensions>
          <ns3:TrackPointExtension>
            <ns3:atemp>23.0</ns3:atemp>
          </ns3:TrackPointExtension>
        </extensions>
      </trkpt>
      <trkpt lat="42.5239951908588409423828125" lon="19.77023072540760040283203125">
        <ele>1590.199951171875</ele>
        <time>2026-06-18T11:33:31.000Z</time>
        <extensions>
          <ns3:TrackPointExtension>
            <ns3:atemp>23.0</ns3:atemp>
          </ns3:TrackPointExtension>
        </extensions>
      </trkpt>
      <trkpt lat="42.524007260799407958984375" lon="19.77024740539491176605224609375">
        <ele>1589.5999755859375</ele>
        <time>2026-06-18T11:33:32.000Z</time>
        <extensions>
          <ns3:TrackPointExtension>
            <ns3:atemp>23.0</ns3:atemp>
          </ns3:TrackPointExtension>
        </extensions>
      </trkpt>
      <trkpt lat="42.52401773817837238311767578125" lon="19.7702593915164470672607421875">
        <ele>1589.199951171875</ele>
        <time>2026-06-18T11:33:33.000Z</time>
        <extensions>
          <ns3:TrackPointExtension>
            <ns3:atemp>23.0</ns3:atemp>
          </ns3:TrackPointExtension>
        </extensions>
      </trkpt>
      <trkpt lat="42.5240300595760345458984375" lon="19.77026802487671375274658203125">
        <ele>1588.800048828125</ele>
        <time>2026-06-18T11:33:34.000Z</time>
        <extensions>
          <ns3:TrackPointExtension>
            <ns3:atemp>23.0</ns3:atemp>
          </ns3:TrackPointExtension>
        </extensions>
      </trkpt>
      <trkpt lat="42.52404053695499897003173828125" lon="19.77026827633380889892578125">
        <ele>1588.199951171875</ele>
        <time>2026-06-18T11:33:35.000Z</time>
        <extensions>
          <ns3:TrackPointExtension>
            <ns3:atemp>23.0</ns3:atemp>
          </ns3:TrackPointExtension>
        </extensions>
      </trkpt>
      <trkpt lat="42.524037770926952362060546875" lon="19.77026953361928462982177734375">
        <ele>1587.800048828125</ele>
        <time>2026-06-18T11:33:36.000Z</time>
        <extensions>
          <ns3:TrackPointExtension>
            <ns3:atemp>23.0</ns3:atemp>
          </ns3:TrackPointExtension>
        </extensions>
      </trkpt>
      <trkpt lat="42.524037770926952362060546875" lon="19.77026970125734806060791015625">
        <ele>1587.5999755859375</ele>
        <time>2026-06-18T11:33:37.000Z</time>
        <extensions>
          <ns3:TrackPointExtension>
            <ns3:atemp>23.0</ns3:atemp>
          </ns3:TrackPointExtension>
        </extensions>
      </trkpt>
      <trkpt lat="42.524037770926952362060546875" lon="19.77026970125734806060791015625">
        <ele>1587.4000244140625</ele>
        <time>2026-06-18T11:33:38.000Z</time>
        <extensions>
          <ns3:TrackPointExtension>
            <ns3:atemp>23.0</ns3:atemp>
          </ns3:TrackPointExtension>
        </extensions>
      </trkpt>
      <trkpt lat="42.524037770926952362060546875" lon="19.77026970125734806060791015625">
        <ele>1587.199951171875</ele>
        <time>2026-06-18T11:33:39.000Z</time>
        <extensions>
          <ns3:TrackPointExtension>
            <ns3:atemp>23.0</ns3:atemp>
          </ns3:TrackPointExtension>
        </extensions>
      </trkpt>
      <trkpt lat="42.524037770926952362060546875" lon="19.77026970125734806060791015625">
        <ele>1587.199951171875</ele>
        <time>2026-06-18T11:33:40.000Z</time>
        <extensions>
          <ns3:TrackPointExtension>
            <ns3:atemp>23.0</ns3:atemp>
          </ns3:TrackPointExtension>
        </extensions>
      </trkpt>
      <trkpt lat="42.524037770926952362060546875" lon="19.77026970125734806060791015625">
        <ele>1587.199951171875</ele>
        <time>2026-06-18T11:33:41.000Z</time>
        <extensions>
          <ns3:TrackPointExtension>
            <ns3:atemp>23.0</ns3:atemp>
          </ns3:TrackPointExtension>
        </extensions>
      </trkpt>
      <trkpt lat="42.524037770926952362060546875" lon="19.77026970125734806060791015625">
        <ele>1587</ele>
        <time>2026-06-18T11:33:42.000Z</time>
        <extensions>
          <ns3:TrackPointExtension>
            <ns3:atemp>23.0</ns3:atemp>
          </ns3:TrackPointExtension>
        </extensions>
      </trkpt>
      <trkpt lat="42.524037770926952362060546875" lon="19.77026970125734806060791015625">
        <ele>1587</ele>
        <time>2026-06-18T11:33:43.000Z</time>
        <extensions>
          <ns3:TrackPointExtension>
            <ns3:atemp>23.0</ns3:atemp>
          </ns3:TrackPointExtension>
        </extensions>
      </trkpt>
      <trkpt lat="42.524037770926952362060546875" lon="19.77026970125734806060791015625">
        <ele>1587</ele>
        <time>2026-06-18T11:33:44.000Z</time>
        <extensions>
          <ns3:TrackPointExtension>
            <ns3:atemp>23.0</ns3:atemp>
          </ns3:TrackPointExtension>
        </extensions>
      </trkpt>
      <trkpt lat="42.524037770926952362060546875" lon="19.77026970125734806060791015625">
        <ele>1587</ele>
        <time>2026-06-18T11:33:45.000Z</time>
        <extensions>
          <ns3:TrackPointExtension>
            <ns3:atemp>23.0</ns3:atemp>
          </ns3:TrackPointExtension>
        </extensions>
      </trkpt>
      <trkpt lat="42.524037770926952362060546875" lon="19.77026970125734806060791015625">
        <ele>1587</ele>
        <time>2026-06-18T11:33:46.000Z</time>
        <extensions>
          <ns3:TrackPointExtension>
            <ns3:atemp>23.0</ns3:atemp>
          </ns3:TrackPointExtension>
        </extensions>
      </trkpt>
      <trkpt lat="42.524037770926952362060546875" lon="19.77026970125734806060791015625">
        <ele>1587</ele>
        <time>2026-06-18T11:33:47.000Z</time>
        <extensions>
          <ns3:TrackPointExtension>
            <ns3:atemp>23.0</ns3:atemp>
          </ns3:TrackPointExtension>
        </extensions>
      </trkpt>
      <trkpt lat="42.524037770926952362060546875" lon="19.77026970125734806060791015625">
        <ele>1587</ele>
        <time>2026-06-18T11:33:48.000Z</time>
        <extensions>
          <ns3:TrackPointExtension>
            <ns3:atemp>23.0</ns3:atemp>
          </ns3:TrackPointExtension>
        </extensions>
      </trkpt>
      <trkpt lat="42.524037770926952362060546875" lon="19.77026970125734806060791015625">
        <ele>1587</ele>
        <time>2026-06-18T11:33:49.000Z</time>
        <extensions>
          <ns3:TrackPointExtension>
            <ns3:atemp>23.0</ns3:atemp>
          </ns3:TrackPointExtension>
        </extensions>
      </trkpt>
      <trkpt lat="42.524037770926952362060546875" lon="19.77026970125734806060791015625">
        <ele>1587</ele>
        <time>2026-06-18T11:33:50.000Z</time>
        <extensions>
          <ns3:TrackPointExtension>
            <ns3:atemp>23.0</ns3:atemp>
          </ns3:TrackPointExtension>
        </extensions>
      </trkpt>
      <trkpt lat="42.524037770926952362060546875" lon="19.77026970125734806060791015625">
        <ele>1587.199951171875</ele>
        <time>2026-06-18T11:33:51.000Z</time>
        <extensions>
          <ns3:TrackPointExtension>
            <ns3:atemp>23.0</ns3:atemp>
          </ns3:TrackPointExtension>
        </extensions>
      </trkpt>
      <trkpt lat="42.524037770926952362060546875" lon="19.77026970125734806060791015625">
        <ele>1587.199951171875</ele>
        <time>2026-06-18T11:33:52.000Z</time>
        <extensions>
          <ns3:TrackPointExtension>
            <ns3:atemp>23.0</ns3:atemp>
          </ns3:TrackPointExtension>
        </extensions>
      </trkpt>
      <trkpt lat="42.524037770926952362060546875" lon="19.77026970125734806060791015625">
        <ele>1587.199951171875</ele>
        <time>2026-06-18T11:33:53.000Z</time>
        <extensions>
          <ns3:TrackPointExtension>
            <ns3:atemp>23.0</ns3:atemp>
          </ns3:TrackPointExtension>
        </extensions>
      </trkpt>
      <trkpt lat="42.524037770926952362060546875" lon="19.77026970125734806060791015625">
        <ele>1587.199951171875</ele>
        <time>2026-06-18T11:33:54.000Z</time>
        <extensions>
          <ns3:TrackPointExtension>
            <ns3:atemp>23.0</ns3:atemp>
          </ns3:TrackPointExtension>
        </extensions>
      </trkpt>
      <trkpt lat="42.524037770926952362060546875" lon="19.77026970125734806060791015625">
        <ele>1587.199951171875</ele>
        <time>2026-06-18T11:33:55.000Z</time>
        <extensions>
          <ns3:TrackPointExtension>
            <ns3:atemp>23.0</ns3:atemp>
          </ns3:TrackPointExtension>
        </extensions>
      </trkpt>
      <trkpt lat="42.524037770926952362060546875" lon="19.77026970125734806060791015625">
        <ele>1587.199951171875</ele>
        <time>2026-06-18T11:33:56.000Z</time>
        <extensions>
          <ns3:TrackPointExtension>
            <ns3:atemp>23.0</ns3:atemp>
          </ns3:TrackPointExtension>
        </extensions>
      </trkpt>
      <trkpt lat="42.524037770926952362060546875" lon="19.77026970125734806060791015625">
        <ele>1587.199951171875</ele>
        <time>2026-06-18T11:33:57.000Z</time>
        <extensions>
          <ns3:TrackPointExtension>
            <ns3:atemp>23.0</ns3:atemp>
          </ns3:TrackPointExtension>
        </extensions>
      </trkpt>
      <trkpt lat="42.524037770926952362060546875" lon="19.77026970125734806060791015625">
        <ele>1587.199951171875</ele>
        <time>2026-06-18T11:33:58.000Z</time>
        <extensions>
          <ns3:TrackPointExtension>
            <ns3:atemp>23.0</ns3:atemp>
          </ns3:TrackPointExtension>
        </extensions>
      </trkpt>
      <trkpt lat="42.524037770926952362060546875" lon="19.77026970125734806060791015625">
        <ele>1587.199951171875</ele>
        <time>2026-06-18T11:33:59.000Z</time>
        <extensions>
          <ns3:TrackPointExtension>
            <ns3:atemp>23.0</ns3:atemp>
          </ns3:TrackPointExtension>
        </extensions>
      </trkpt>
      <trkpt lat="42.524037770926952362060546875" lon="19.77026970125734806060791015625">
        <ele>1587.199951171875</ele>
        <time>2026-06-18T11:34:00.000Z</time>
        <extensions>
          <ns3:TrackPointExtension>
            <ns3:atemp>23.0</ns3:atemp>
          </ns3:TrackPointExtension>
        </extensions>
      </trkpt>
      <trkpt lat="42.524037770926952362060546875" lon="19.77026970125734806060791015625">
        <ele>1587.4000244140625</ele>
        <time>2026-06-18T11:34:01.000Z</time>
        <extensions>
          <ns3:TrackPointExtension>
            <ns3:atemp>23.0</ns3:atemp>
          </ns3:TrackPointExtension>
        </extensions>
      </trkpt>
      <trkpt lat="42.524037770926952362060546875" lon="19.77026970125734806060791015625">
        <ele>1587.199951171875</ele>
        <time>2026-06-18T11:34:02.000Z</time>
        <extensions>
          <ns3:TrackPointExtension>
            <ns3:atemp>23.0</ns3:atemp>
          </ns3:TrackPointExtension>
        </extensions>
      </trkpt>
      <trkpt lat="42.524037770926952362060546875" lon="19.77026970125734806060791015625">
        <ele>1587.199951171875</ele>
        <time>2026-06-18T11:34:03.000Z</time>
        <extensions>
          <ns3:TrackPointExtension>
            <ns3:atemp>23.0</ns3:atemp>
          </ns3:TrackPointExtension>
        </extensions>
      </trkpt>
      <trkpt lat="42.524037770926952362060546875" lon="19.77026970125734806060791015625">
        <ele>1587.199951171875</ele>
        <time>2026-06-18T11:34:04.000Z</time>
        <extensions>
          <ns3:TrackPointExtension>
            <ns3:atemp>23.0</ns3:atemp>
          </ns3:TrackPointExtension>
        </extensions>
      </trkpt>
      <trkpt lat="42.524037770926952362060546875" lon="19.77026970125734806060791015625">
        <ele>1587.199951171875</ele>
        <time>2026-06-18T11:34:05.000Z</time>
        <extensions>
          <ns3:TrackPointExtension>
            <ns3:atemp>23.0</ns3:atemp>
          </ns3:TrackPointExtension>
        </extensions>
      </trkpt>
      <trkpt lat="42.524037770926952362060546875" lon="19.77026970125734806060791015625">
        <ele>1587.199951171875</ele>
        <time>2026-06-18T11:34:06.000Z</time>
        <extensions>
          <ns3:TrackPointExtension>
            <ns3:atemp>23.0</ns3:atemp>
          </ns3:TrackPointExtension>
        </extensions>
      </trkpt>
      <trkpt lat="42.524037770926952362060546875" lon="19.77026970125734806060791015625">
        <ele>1587.199951171875</ele>
        <time>2026-06-18T11:34:07.000Z</time>
        <extensions>
          <ns3:TrackPointExtension>
            <ns3:atemp>23.0</ns3:atemp>
          </ns3:TrackPointExtension>
        </extensions>
      </trkpt>
      <trkpt lat="42.524037770926952362060546875" lon="19.77026970125734806060791015625">
        <ele>1587.199951171875</ele>
        <time>2026-06-18T11:34:08.000Z</time>
        <extensions>
          <ns3:TrackPointExtension>
            <ns3:atemp>23.0</ns3:atemp>
          </ns3:TrackPointExtension>
        </extensions>
      </trkpt>
      <trkpt lat="42.524037770926952362060546875" lon="19.77026970125734806060791015625">
        <ele>1587.199951171875</ele>
        <time>2026-06-18T11:34:09.000Z</time>
        <extensions>
          <ns3:TrackPointExtension>
            <ns3:atemp>23.0</ns3:atemp>
          </ns3:TrackPointExtension>
        </extensions>
      </trkpt>
      <trkpt lat="42.524037770926952362060546875" lon="19.77026970125734806060791015625">
        <ele>1587.199951171875</ele>
        <time>2026-06-18T11:34:10.000Z</time>
        <extensions>
          <ns3:TrackPointExtension>
            <ns3:atemp>23.0</ns3:atemp>
          </ns3:TrackPointExtension>
        </extensions>
      </trkpt>
      <trkpt lat="42.524037770926952362060546875" lon="19.77026970125734806060791015625">
        <ele>1587.199951171875</ele>
        <time>2026-06-18T11:34:11.000Z</time>
        <extensions>
          <ns3:TrackPointExtension>
            <ns3:atemp>23.0</ns3:atemp>
          </ns3:TrackPointExtension>
        </extensions>
      </trkpt>
      <trkpt lat="42.524037770926952362060546875" lon="19.77026970125734806060791015625">
        <ele>1587.199951171875</ele>
        <time>2026-06-18T11:34:12.000Z</time>
        <extensions>
          <ns3:TrackPointExtension>
            <ns3:atemp>23.0</ns3:atemp>
          </ns3:TrackPointExtension>
        </extensions>
      </trkpt>
      <trkpt lat="42.524037770926952362060546875" lon="19.77026970125734806060791015625">
        <ele>1587.4000244140625</ele>
        <time>2026-06-18T11:34:13.000Z</time>
        <extensions>
          <ns3:TrackPointExtension>
            <ns3:atemp>23.0</ns3:atemp>
          </ns3:TrackPointExtension>
        </extensions>
      </trkpt>
      <trkpt lat="42.524037770926952362060546875" lon="19.77026970125734806060791015625">
        <ele>1587.4000244140625</ele>
        <time>2026-06-18T11:34:14.000Z</time>
        <extensions>
          <ns3:TrackPointExtension>
            <ns3:atemp>23.0</ns3:atemp>
          </ns3:TrackPointExtension>
        </extensions>
      </trkpt>
      <trkpt lat="42.524037770926952362060546875" lon="19.77026970125734806060791015625">
        <ele>1587.4000244140625</ele>
        <time>2026-06-18T11:34:15.000Z</time>
        <extensions>
          <ns3:TrackPointExtension>
            <ns3:atemp>23.0</ns3:atemp>
          </ns3:TrackPointExtension>
        </extensions>
      </trkpt>
      <trkpt lat="42.524037770926952362060546875" lon="19.77026970125734806060791015625">
        <ele>1587.4000244140625</ele>
        <time>2026-06-18T11:34:16.000Z</time>
        <extensions>
          <ns3:TrackPointExtension>
            <ns3:atemp>23.0</ns3:atemp>
          </ns3:TrackPointExtension>
        </extensions>
      </trkpt>
      <trkpt lat="42.524037770926952362060546875" lon="19.77026970125734806060791015625">
        <ele>1587.4000244140625</ele>
        <time>2026-06-18T11:34:17.000Z</time>
        <extensions>
          <ns3:TrackPointExtension>
            <ns3:atemp>23.0</ns3:atemp>
          </ns3:TrackPointExtension>
        </extensions>
      </trkpt>
      <trkpt lat="42.524037770926952362060546875" lon="19.77026970125734806060791015625">
        <ele>1587.4000244140625</ele>
        <time>2026-06-18T11:34:18.000Z</time>
        <extensions>
          <ns3:TrackPointExtension>
            <ns3:atemp>23.0</ns3:atemp>
          </ns3:TrackPointExtension>
        </extensions>
      </trkpt>
      <trkpt lat="42.524037770926952362060546875" lon="19.77026970125734806060791015625">
        <ele>1587.4000244140625</ele>
        <time>2026-06-18T11:34:19.000Z</time>
        <extensions>
          <ns3:TrackPointExtension>
            <ns3:atemp>23.0</ns3:atemp>
          </ns3:TrackPointExtension>
        </extensions>
      </trkpt>
      <trkpt lat="42.524037770926952362060546875" lon="19.77026970125734806060791015625">
        <ele>1587.4000244140625</ele>
        <time>2026-06-18T11:34:20.000Z</time>
        <extensions>
          <ns3:TrackPointExtension>
            <ns3:atemp>23.0</ns3:atemp>
          </ns3:TrackPointExtension>
        </extensions>
      </trkpt>
      <trkpt lat="42.524037770926952362060546875" lon="19.77026970125734806060791015625">
        <ele>1587.4000244140625</ele>
        <time>2026-06-18T11:34:21.000Z</time>
        <extensions>
          <ns3:TrackPointExtension>
            <ns3:atemp>23.0</ns3:atemp>
          </ns3:TrackPointExtension>
        </extensions>
      </trkpt>
      <trkpt lat="42.524037770926952362060546875" lon="19.77026970125734806060791015625">
        <ele>1587.4000244140625</ele>
        <time>2026-06-18T11:34:22.000Z</time>
        <extensions>
          <ns3:TrackPointExtension>
            <ns3:atemp>23.0</ns3:atemp>
          </ns3:TrackPointExtension>
        </extensions>
      </trkpt>
      <trkpt lat="42.524037770926952362060546875" lon="19.77026970125734806060791015625">
        <ele>1587.4000244140625</ele>
        <time>2026-06-18T11:34:23.000Z</time>
        <extensions>
          <ns3:TrackPointExtension>
            <ns3:atemp>23.0</ns3:atemp>
          </ns3:TrackPointExtension>
        </extensions>
      </trkpt>
      <trkpt lat="42.524037770926952362060546875" lon="19.77026970125734806060791015625">
        <ele>1587.4000244140625</ele>
        <time>2026-06-18T11:34:24.000Z</time>
        <extensions>
          <ns3:TrackPointExtension>
            <ns3:atemp>23.0</ns3:atemp>
          </ns3:TrackPointExtension>
        </extensions>
      </trkpt>
      <trkpt lat="42.524037770926952362060546875" lon="19.77026970125734806060791015625">
        <ele>1587.4000244140625</ele>
        <time>2026-06-18T11:34:25.000Z</time>
        <extensions>
          <ns3:TrackPointExtension>
            <ns3:atemp>23.0</ns3:atemp>
          </ns3:TrackPointExtension>
        </extensions>
      </trkpt>
      <trkpt lat="42.524037770926952362060546875" lon="19.77026970125734806060791015625">
        <ele>1587.4000244140625</ele>
        <time>2026-06-18T11:34:26.000Z</time>
        <extensions>
          <ns3:TrackPointExtension>
            <ns3:atemp>23.0</ns3:atemp>
          </ns3:TrackPointExtension>
        </extensions>
      </trkpt>
      <trkpt lat="42.524037770926952362060546875" lon="19.77026970125734806060791015625">
        <ele>1587.5999755859375</ele>
        <time>2026-06-18T11:34:27.000Z</time>
        <extensions>
          <ns3:TrackPointExtension>
            <ns3:atemp>23.0</ns3:atemp>
          </ns3:TrackPointExtension>
        </extensions>
      </trkpt>
      <trkpt lat="42.524037770926952362060546875" lon="19.77026970125734806060791015625">
        <ele>1587.5999755859375</ele>
        <time>2026-06-18T11:34:28.000Z</time>
        <extensions>
          <ns3:TrackPointExtension>
            <ns3:atemp>23.0</ns3:atemp>
          </ns3:TrackPointExtension>
        </extensions>
      </trkpt>
      <trkpt lat="42.524037770926952362060546875" lon="19.77026970125734806060791015625">
        <ele>1587.5999755859375</ele>
        <time>2026-06-18T11:34:29.000Z</time>
        <extensions>
          <ns3:TrackPointExtension>
            <ns3:atemp>23.0</ns3:atemp>
          </ns3:TrackPointExtension>
        </extensions>
      </trkpt>
      <trkpt lat="42.524037770926952362060546875" lon="19.77026970125734806060791015625">
        <ele>1587.5999755859375</ele>
        <time>2026-06-18T11:34:30.000Z</time>
        <extensions>
          <ns3:TrackPointExtension>
            <ns3:atemp>23.0</ns3:atemp>
          </ns3:TrackPointExtension>
        </extensions>
      </trkpt>
      <trkpt lat="42.524037770926952362060546875" lon="19.77026970125734806060791015625">
        <ele>1587.5999755859375</ele>
        <time>2026-06-18T11:34:31.000Z</time>
        <extensions>
          <ns3:TrackPointExtension>
            <ns3:atemp>23.0</ns3:atemp>
          </ns3:TrackPointExtension>
        </extensions>
      </trkpt>
      <trkpt lat="42.524037770926952362060546875" lon="19.77026970125734806060791015625">
        <ele>1587.5999755859375</ele>
        <time>2026-06-18T11:34:32.000Z</time>
        <extensions>
          <ns3:TrackPointExtension>
            <ns3:atemp>23.0</ns3:atemp>
          </ns3:TrackPointExtension>
        </extensions>
      </trkpt>
      <trkpt lat="42.524037770926952362060546875" lon="19.77026970125734806060791015625">
        <ele>1587.5999755859375</ele>
        <time>2026-06-18T11:34:33.000Z</time>
        <extensions>
          <ns3:TrackPointExtension>
            <ns3:atemp>23.0</ns3:atemp>
          </ns3:TrackPointExtension>
        </extensions>
      </trkpt>
      <trkpt lat="42.524037770926952362060546875" lon="19.77026970125734806060791015625">
        <ele>1587.5999755859375</ele>
        <time>2026-06-18T11:34:34.000Z</time>
        <extensions>
          <ns3:TrackPointExtension>
            <ns3:atemp>23.0</ns3:atemp>
          </ns3:TrackPointExtension>
        </extensions>
      </trkpt>
      <trkpt lat="42.524037770926952362060546875" lon="19.77026970125734806060791015625">
        <ele>1587.5999755859375</ele>
        <time>2026-06-18T11:34:35.000Z</time>
        <extensions>
          <ns3:TrackPointExtension>
            <ns3:atemp>23.0</ns3:atemp>
          </ns3:TrackPointExtension>
        </extensions>
      </trkpt>
      <trkpt lat="42.524037770926952362060546875" lon="19.77026970125734806060791015625">
        <ele>1587.5999755859375</ele>
        <time>2026-06-18T11:34:36.000Z</time>
        <extensions>
          <ns3:TrackPointExtension>
            <ns3:atemp>23.0</ns3:atemp>
          </ns3:TrackPointExtension>
        </extensions>
      </trkpt>
      <trkpt lat="42.524037770926952362060546875" lon="19.77026970125734806060791015625">
        <ele>1587.5999755859375</ele>
        <time>2026-06-18T11:34:37.000Z</time>
        <extensions>
          <ns3:TrackPointExtension>
            <ns3:atemp>23.0</ns3:atemp>
          </ns3:TrackPointExtension>
        </extensions>
      </trkpt>
      <trkpt lat="42.524037770926952362060546875" lon="19.77026970125734806060791015625">
        <ele>1587.5999755859375</ele>
        <time>2026-06-18T11:34:38.000Z</time>
        <extensions>
          <ns3:TrackPointExtension>
            <ns3:atemp>23.0</ns3:atemp>
          </ns3:TrackPointExtension>
        </extensions>
      </trkpt>
      <trkpt lat="42.524037770926952362060546875" lon="19.77026970125734806060791015625">
        <ele>1587.5999755859375</ele>
        <time>2026-06-18T11:34:39.000Z</time>
        <extensions>
          <ns3:TrackPointExtension>
            <ns3:atemp>23.0</ns3:atemp>
          </ns3:TrackPointExtension>
        </extensions>
      </trkpt>
      <trkpt lat="42.524037770926952362060546875" lon="19.77026970125734806060791015625">
        <ele>1587.5999755859375</ele>
        <time>2026-06-18T11:34:40.000Z</time>
        <extensions>
          <ns3:TrackPointExtension>
            <ns3:atemp>23.0</ns3:atemp>
          </ns3:TrackPointExtension>
        </extensions>
      </trkpt>
      <trkpt lat="42.524037770926952362060546875" lon="19.77026970125734806060791015625">
        <ele>1587.800048828125</ele>
        <time>2026-06-18T11:34:41.000Z</time>
        <extensions>
          <ns3:TrackPointExtension>
            <ns3:atemp>23.0</ns3:atemp>
          </ns3:TrackPointExtension>
        </extensions>
      </trkpt>
      <trkpt lat="42.524037770926952362060546875" lon="19.77026970125734806060791015625">
        <ele>1587.800048828125</ele>
        <time>2026-06-18T11:34:42.000Z</time>
        <extensions>
          <ns3:TrackPointExtension>
            <ns3:atemp>23.0</ns3:atemp>
          </ns3:TrackPointExtension>
        </extensions>
      </trkpt>
      <trkpt lat="42.524037770926952362060546875" lon="19.77026970125734806060791015625">
        <ele>1587.800048828125</ele>
        <time>2026-06-18T11:34:43.000Z</time>
        <extensions>
          <ns3:TrackPointExtension>
            <ns3:atemp>23.0</ns3:atemp>
          </ns3:TrackPointExtension>
        </extensions>
      </trkpt>
      <trkpt lat="42.524037770926952362060546875" lon="19.77026970125734806060791015625">
        <ele>1587.800048828125</ele>
        <time>2026-06-18T11:34:44.000Z</time>
        <extensions>
          <ns3:TrackPointExtension>
            <ns3:atemp>23.0</ns3:atemp>
          </ns3:TrackPointExtension>
        </extensions>
      </trkpt>
      <trkpt lat="42.524037770926952362060546875" lon="19.77026970125734806060791015625">
        <ele>1587.800048828125</ele>
        <time>2026-06-18T11:34:45.000Z</time>
        <extensions>
          <ns3:TrackPointExtension>
            <ns3:atemp>23.0</ns3:atemp>
          </ns3:TrackPointExtension>
        </extensions>
      </trkpt>
      <trkpt lat="42.524037770926952362060546875" lon="19.77026970125734806060791015625">
        <ele>1587.800048828125</ele>
        <time>2026-06-18T11:34:46.000Z</time>
        <extensions>
          <ns3:TrackPointExtension>
            <ns3:atemp>23.0</ns3:atemp>
          </ns3:TrackPointExtension>
        </extensions>
      </trkpt>
      <trkpt lat="42.524037770926952362060546875" lon="19.77026970125734806060791015625">
        <ele>1587.800048828125</ele>
        <time>2026-06-18T11:34:47.000Z</time>
        <extensions>
          <ns3:TrackPointExtension>
            <ns3:atemp>23.0</ns3:atemp>
          </ns3:TrackPointExtension>
        </extensions>
      </trkpt>
      <trkpt lat="42.524039112031459808349609375" lon="19.7702781669795513153076171875">
        <ele>1587.800048828125</ele>
        <time>2026-06-18T11:34:48.000Z</time>
        <extensions>
          <ns3:TrackPointExtension>
            <ns3:atemp>23.0</ns3:atemp>
          </ns3:TrackPointExtension>
        </extensions>
      </trkpt>
      <trkpt lat="42.52404154278337955474853515625" lon="19.7702922485768795013427734375">
        <ele>1587.800048828125</ele>
        <time>2026-06-18T11:34:49.000Z</time>
        <extensions>
          <ns3:TrackPointExtension>
            <ns3:atemp>23.0</ns3:atemp>
          </ns3:TrackPointExtension>
        </extensions>
      </trkpt>
      <trkpt lat="42.5240416266024112701416015625" lon="19.7702922485768795013427734375">
        <ele>1587.800048828125</ele>
        <time>2026-06-18T11:34:50.000Z</time>
        <extensions>
          <ns3:TrackPointExtension>
            <ns3:atemp>23.0</ns3:atemp>
          </ns3:TrackPointExtension>
        </extensions>
      </trkpt>
      <trkpt lat="42.5240416266024112701416015625" lon="19.7702922485768795013427734375">
        <ele>1588</ele>
        <time>2026-06-18T11:34:51.000Z</time>
        <extensions>
          <ns3:TrackPointExtension>
            <ns3:atemp>23.0</ns3:atemp>
          </ns3:TrackPointExtension>
        </extensions>
      </trkpt>
      <trkpt lat="42.5240416266024112701416015625" lon="19.7702922485768795013427734375">
        <ele>1588</ele>
        <time>2026-06-18T11:34:52.000Z</time>
        <extensions>
          <ns3:TrackPointExtension>
            <ns3:atemp>23.0</ns3:atemp>
          </ns3:TrackPointExtension>
        </extensions>
      </trkpt>
      <trkpt lat="42.5240416266024112701416015625" lon="19.7702922485768795013427734375">
        <ele>1588</ele>
        <time>2026-06-18T11:34:53.000Z</time>
        <extensions>
          <ns3:TrackPointExtension>
            <ns3:atemp>23.0</ns3:atemp>
          </ns3:TrackPointExtension>
        </extensions>
      </trkpt>
      <trkpt lat="42.5240416266024112701416015625" lon="19.7702922485768795013427734375">
        <ele>1588.199951171875</ele>
        <time>2026-06-18T11:34:54.000Z</time>
        <extensions>
          <ns3:TrackPointExtension>
            <ns3:atemp>23.0</ns3:atemp>
          </ns3:TrackPointExtension>
        </extensions>
      </trkpt>
      <trkpt lat="42.5240416266024112701416015625" lon="19.7702922485768795013427734375">
        <ele>1588.199951171875</ele>
        <time>2026-06-18T11:34:55.000Z</time>
        <extensions>
          <ns3:TrackPointExtension>
            <ns3:atemp>23.0</ns3:atemp>
          </ns3:TrackPointExtension>
        </extensions>
      </trkpt>
      <trkpt lat="42.52404280006885528564453125" lon="19.77029065601527690887451171875">
        <ele>1588.199951171875</ele>
        <time>2026-06-18T11:34:56.000Z</time>
        <extensions>
          <ns3:TrackPointExtension>
            <ns3:atemp>23.0</ns3:atemp>
          </ns3:TrackPointExtension>
        </extensions>
      </trkpt>
      <trkpt lat="42.524053193628787994384765625" lon="19.770300798118114471435546875">
        <ele>1588.199951171875</ele>
        <time>2026-06-18T11:34:57.000Z</time>
        <extensions>
          <ns3:TrackPointExtension>
            <ns3:atemp>23.0</ns3:atemp>
          </ns3:TrackPointExtension>
        </extensions>
      </trkpt>
      <trkpt lat="42.5240676105022430419921875" lon="19.77031546644866466522216796875">
        <ele>1588.199951171875</ele>
        <time>2026-06-18T11:34:58.000Z</time>
        <extensions>
          <ns3:TrackPointExtension>
            <ns3:atemp>23.0</ns3:atemp>
          </ns3:TrackPointExtension>
        </extensions>
      </trkpt>
      <trkpt lat="42.5240855477750301361083984375" lon="19.7703274525701999664306640625">
        <ele>1588</ele>
        <time>2026-06-18T11:34:59.000Z</time>
        <extensions>
          <ns3:TrackPointExtension>
            <ns3:atemp>23.0</ns3:atemp>
          </ns3:TrackPointExtension>
        </extensions>
      </trkpt>
      <trkpt lat="42.524105496704578399658203125" lon="19.77032988332211971282958984375">
        <ele>1587.800048828125</ele>
        <time>2026-06-18T11:35:00.000Z</time>
        <extensions>
          <ns3:TrackPointExtension>
            <ns3:atemp>23.0</ns3:atemp>
          </ns3:TrackPointExtension>
        </extensions>
      </trkpt>
      <trkpt lat="42.52412938512861728668212890625" lon="19.77035402320325374603271484375">
        <ele>1587.199951171875</ele>
        <time>2026-06-18T11:35:01.000Z</time>
        <extensions>
          <ns3:TrackPointExtension>
            <ns3:atemp>23.0</ns3:atemp>
          </ns3:TrackPointExtension>
        </extensions>
      </trkpt>
      <trkpt lat="42.52413860522210597991943359375" lon="19.77038520388305187225341796875">
        <ele>1586.800048828125</ele>
        <time>2026-06-18T11:35:02.000Z</time>
        <extensions>
          <ns3:TrackPointExtension>
            <ns3:atemp>23.0</ns3:atemp>
          </ns3:TrackPointExtension>
        </extensions>
      </trkpt>
      <trkpt lat="42.52413441427052021026611328125" lon="19.7704223357141017913818359375">
        <ele>1586.4000244140625</ele>
        <time>2026-06-18T11:35:03.000Z</time>
        <extensions>
          <ns3:TrackPointExtension>
            <ns3:atemp>23.0</ns3:atemp>
          </ns3:TrackPointExtension>
        </extensions>
      </trkpt>
      <trkpt lat="42.52413659356534481048583984375" lon="19.77046533487737178802490234375">
        <ele>1586</ele>
        <time>2026-06-18T11:35:04.000Z</time>
        <extensions>
          <ns3:TrackPointExtension>
            <ns3:atemp>23.0</ns3:atemp>
          </ns3:TrackPointExtension>
        </extensions>
      </trkpt>
      <trkpt lat="42.52414765767753124237060546875" lon="19.7704964317381381988525390625">
        <ele>1585.4000244140625</ele>
        <time>2026-06-18T11:35:05.000Z</time>
        <extensions>
          <ns3:TrackPointExtension>
            <ns3:atemp>23.0</ns3:atemp>
          </ns3:TrackPointExtension>
        </extensions>
      </trkpt>
      <trkpt lat="42.52415671013295650482177734375" lon="19.770532138645648956298828125">
        <ele>1584.800048828125</ele>
        <time>2026-06-18T11:35:06.000Z</time>
        <extensions>
          <ns3:TrackPointExtension>
            <ns3:atemp>23.0</ns3:atemp>
          </ns3:TrackPointExtension>
        </extensions>
      </trkpt>
      <trkpt lat="42.5241653434932231903076171875" lon="19.770565330982208251953125">
        <ele>1584.199951171875</ele>
        <time>2026-06-18T11:35:07.000Z</time>
        <extensions>
          <ns3:TrackPointExtension>
            <ns3:atemp>23.0</ns3:atemp>
          </ns3:TrackPointExtension>
        </extensions>
      </trkpt>
      <trkpt lat="42.52415972761809825897216796875" lon="19.77059776894748210906982421875">
        <ele>1583.800048828125</ele>
        <time>2026-06-18T11:35:08.000Z</time>
        <extensions>
          <ns3:TrackPointExtension>
            <ns3:atemp>23.0</ns3:atemp>
          </ns3:TrackPointExtension>
        </extensions>
      </trkpt>
      <trkpt lat="42.5241670198738574981689453125" lon="19.7706551849842071533203125">
        <ele>1583</ele>
        <time>2026-06-18T11:35:09.000Z</time>
        <extensions>
          <ns3:TrackPointExtension>
            <ns3:atemp>23.0</ns3:atemp>
          </ns3:TrackPointExtension>
        </extensions>
      </trkpt>
      <trkpt lat="42.5241936743259429931640625" lon="19.77070170454680919647216796875">
        <ele>1582.4000244140625</ele>
        <time>2026-06-18T11:35:10.000Z</time>
        <extensions>
          <ns3:TrackPointExtension>
            <ns3:atemp>23.0</ns3:atemp>
          </ns3:TrackPointExtension>
        </extensions>
      </trkpt>
      <trkpt lat="42.52421848475933074951171875" lon="19.77073305286467075347900390625">
        <ele>1581.5999755859375</ele>
        <time>2026-06-18T11:35:11.000Z</time>
        <extensions>
          <ns3:TrackPointExtension>
            <ns3:atemp>23.0</ns3:atemp>
          </ns3:TrackPointExtension>
        </extensions>
      </trkpt>
      <trkpt lat="42.52423432655632495880126953125" lon="19.77077144198119640350341796875">
        <ele>1580.5999755859375</ele>
        <time>2026-06-18T11:35:12.000Z</time>
        <extensions>
          <ns3:TrackPointExtension>
            <ns3:atemp>23.0</ns3:atemp>
          </ns3:TrackPointExtension>
        </extensions>
      </trkpt>
      <trkpt lat="42.52424555830657482147216796875" lon="19.77080413140356540679931640625">
        <ele>1580</ele>
        <time>2026-06-18T11:35:13.000Z</time>
        <extensions>
          <ns3:TrackPointExtension>
            <ns3:atemp>23.0</ns3:atemp>
          </ns3:TrackPointExtension>
        </extensions>
      </trkpt>
      <trkpt lat="42.5242553651332855224609375" lon="19.77084034122526645660400390625">
        <ele>1579.4000244140625</ele>
        <time>2026-06-18T11:35:14.000Z</time>
        <extensions>
          <ns3:TrackPointExtension>
            <ns3:atemp>23.0</ns3:atemp>
          </ns3:TrackPointExtension>
        </extensions>
      </trkpt>
      <trkpt lat="42.524251006543636322021484375" lon="19.7708642296493053436279296875">
        <ele>1578.5999755859375</ele>
        <time>2026-06-18T11:35:15.000Z</time>
        <extensions>
          <ns3:TrackPointExtension>
            <ns3:atemp>23.0</ns3:atemp>
          </ns3:TrackPointExtension>
        </extensions>
      </trkpt>
      <trkpt lat="42.5242461450397968292236328125" lon="19.77089365012943744659423828125">
        <ele>1578</ele>
        <time>2026-06-18T11:35:16.000Z</time>
        <extensions>
          <ns3:TrackPointExtension>
            <ns3:atemp>23.0</ns3:atemp>
          </ns3:TrackPointExtension>
        </extensions>
      </trkpt>
      <trkpt lat="42.52424522303044795989990234375" lon="19.770927764475345611572265625">
        <ele>1577.199951171875</ele>
        <time>2026-06-18T11:35:17.000Z</time>
        <extensions>
          <ns3:TrackPointExtension>
            <ns3:atemp>23.0</ns3:atemp>
          </ns3:TrackPointExtension>
        </extensions>
      </trkpt>
      <trkpt lat="42.52425779588520526885986328125" lon="19.7709621302783489227294921875">
        <ele>1576</ele>
        <time>2026-06-18T11:35:18.000Z</time>
        <extensions>
          <ns3:TrackPointExtension>
            <ns3:atemp>23.0</ns3:atemp>
          </ns3:TrackPointExtension>
        </extensions>
      </trkpt>
      <trkpt lat="42.52426986582577228546142578125" lon="19.77099590934813022613525390625">
        <ele>1575</ele>
        <time>2026-06-18T11:35:19.000Z</time>
        <extensions>
          <ns3:TrackPointExtension>
            <ns3:atemp>23.0</ns3:atemp>
          </ns3:TrackPointExtension>
        </extensions>
      </trkpt>
      <trkpt lat="42.52430138178169727325439453125" lon="19.7710151039063930511474609375">
        <ele>1574</ele>
        <time>2026-06-18T11:35:20.000Z</time>
        <extensions>
          <ns3:TrackPointExtension>
            <ns3:atemp>23.0</ns3:atemp>
          </ns3:TrackPointExtension>
        </extensions>
      </trkpt>
      <trkpt lat="42.5243170559406280517578125" lon="19.771043099462985992431640625">
        <ele>1573</ele>
        <time>2026-06-18T11:35:21.000Z</time>
        <extensions>
          <ns3:TrackPointExtension>
            <ns3:atemp>23.0</ns3:atemp>
          </ns3:TrackPointExtension>
        </extensions>
      </trkpt>
      <trkpt lat="42.52432770095765590667724609375" lon="19.7710754536092281341552734375">
        <ele>1572.199951171875</ele>
        <time>2026-06-18T11:35:22.000Z</time>
        <extensions>
          <ns3:TrackPointExtension>
            <ns3:atemp>23.0</ns3:atemp>
          </ns3:TrackPointExtension>
        </extensions>
      </trkpt>
      <trkpt lat="42.52434496767818927764892578125" lon="19.771108813583850860595703125">
        <ele>1571.5999755859375</ele>
        <time>2026-06-18T11:35:23.000Z</time>
        <extensions>
          <ns3:TrackPointExtension>
            <ns3:atemp>23.0</ns3:atemp>
          </ns3:TrackPointExtension>
        </extensions>
      </trkpt>
      <trkpt lat="42.5243661738932132720947265625" lon="19.77115030400454998016357421875">
        <ele>1570.5999755859375</ele>
        <time>2026-06-18T11:35:24.000Z</time>
        <extensions>
          <ns3:TrackPointExtension>
            <ns3:atemp>23.0</ns3:atemp>
          </ns3:TrackPointExtension>
        </extensions>
      </trkpt>
      <trkpt lat="42.52439827658236026763916015625" lon="19.77118684910237789154052734375">
        <ele>1569.5999755859375</ele>
        <time>2026-06-18T11:35:25.000Z</time>
        <extensions>
          <ns3:TrackPointExtension>
            <ns3:atemp>23.0</ns3:atemp>
          </ns3:TrackPointExtension>
        </extensions>
      </trkpt>
      <trkpt lat="42.52441537566483020782470703125" lon="19.771228171885013580322265625">
        <ele>1568.800048828125</ele>
        <time>2026-06-18T11:35:26.000Z</time>
        <extensions>
          <ns3:TrackPointExtension>
            <ns3:atemp>23.0</ns3:atemp>
          </ns3:TrackPointExtension>
        </extensions>
      </trkpt>
      <trkpt lat="42.52441554330289363861083984375" lon="19.77126337587833404541015625">
        <ele>1567.800048828125</ele>
        <time>2026-06-18T11:35:27.000Z</time>
        <extensions>
          <ns3:TrackPointExtension>
            <ns3:atemp>23.0</ns3:atemp>
          </ns3:TrackPointExtension>
        </extensions>
      </trkpt>
      <trkpt lat="42.52440162934362888336181640625" lon="19.77127603255212306976318359375">
        <ele>1567</ele>
        <time>2026-06-18T11:35:28.000Z</time>
        <extensions>
          <ns3:TrackPointExtension>
            <ns3:atemp>23.0</ns3:atemp>
          </ns3:TrackPointExtension>
        </extensions>
      </trkpt>
      <trkpt lat="42.52438285388052463531494140625" lon="19.7713014297187328338623046875">
        <ele>1566.4000244140625</ele>
        <time>2026-06-18T11:35:29.000Z</time>
        <extensions>
          <ns3:TrackPointExtension>
            <ns3:atemp>23.0</ns3:atemp>
          </ns3:TrackPointExtension>
        </extensions>
      </trkpt>
      <trkpt lat="42.52436039038002490997314453125" lon="19.77131291292607784271240234375">
        <ele>1565.5999755859375</ele>
        <time>2026-06-18T11:35:30.000Z</time>
        <extensions>
          <ns3:TrackPointExtension>
            <ns3:atemp>23.0</ns3:atemp>
          </ns3:TrackPointExtension>
        </extensions>
      </trkpt>
      <trkpt lat="42.5243484042584896087646484375" lon="19.7713329456746578216552734375">
        <ele>1564.800048828125</ele>
        <time>2026-06-18T11:35:31.000Z</time>
        <extensions>
          <ns3:TrackPointExtension>
            <ns3:atemp>23.0</ns3:atemp>
          </ns3:TrackPointExtension>
        </extensions>
      </trkpt>
      <trkpt lat="42.524349577724933624267578125" lon="19.77135096676647663116455078125">
        <ele>1564.199951171875</ele>
        <time>2026-06-18T11:35:32.000Z</time>
        <extensions>
          <ns3:TrackPointExtension>
            <ns3:atemp>23.0</ns3:atemp>
          </ns3:TrackPointExtension>
        </extensions>
      </trkpt>
      <trkpt lat="42.5243473984301090240478515625" lon="19.77136689238250255584716796875">
        <ele>1563.5999755859375</ele>
        <time>2026-06-18T11:35:33.000Z</time>
        <extensions>
          <ns3:TrackPointExtension>
            <ns3:atemp>23.0</ns3:atemp>
          </ns3:TrackPointExtension>
        </extensions>
      </trkpt>
      <trkpt lat="42.52435385249555110931396484375" lon="19.77139589376747608184814453125">
        <ele>1563</ele>
        <time>2026-06-18T11:35:34.000Z</time>
        <extensions>
          <ns3:TrackPointExtension>
            <ns3:atemp>23.0</ns3:atemp>
          </ns3:TrackPointExtension>
        </extensions>
      </trkpt>
      <trkpt lat="42.52435863018035888671875" lon="19.77141869254410266876220703125">
        <ele>1562.4000244140625</ele>
        <time>2026-06-18T11:35:35.000Z</time>
        <extensions>
          <ns3:TrackPointExtension>
            <ns3:atemp>23.0</ns3:atemp>
          </ns3:TrackPointExtension>
        </extensions>
      </trkpt>
      <trkpt lat="42.524365670979022979736328125" lon="19.771451465785503387451171875">
        <ele>1561.800048828125</ele>
        <time>2026-06-18T11:35:36.000Z</time>
        <extensions>
          <ns3:TrackPointExtension>
            <ns3:atemp>23.0</ns3:atemp>
          </ns3:TrackPointExtension>
        </extensions>
      </trkpt>
      <trkpt lat="42.5243628211319446563720703125" lon="19.771486334502696990966796875">
        <ele>1561.199951171875</ele>
        <time>2026-06-18T11:35:37.000Z</time>
        <extensions>
          <ns3:TrackPointExtension>
            <ns3:atemp>23.0</ns3:atemp>
          </ns3:TrackPointExtension>
        </extensions>
      </trkpt>
      <trkpt lat="42.524356953799724578857421875" lon="19.771527908742427825927734375">
        <ele>1560.4000244140625</ele>
        <time>2026-06-18T11:35:38.000Z</time>
        <extensions>
          <ns3:TrackPointExtension>
            <ns3:atemp>23.0</ns3:atemp>
          </ns3:TrackPointExtension>
        </extensions>
      </trkpt>
      <trkpt lat="42.52436935901641845703125" lon="19.77156453765928745269775390625">
        <ele>1559.800048828125</ele>
        <time>2026-06-18T11:35:39.000Z</time>
        <extensions>
          <ns3:TrackPointExtension>
            <ns3:atemp>23.0</ns3:atemp>
          </ns3:TrackPointExtension>
        </extensions>
      </trkpt>
      <trkpt lat="42.524388469755649566650390625" lon="19.77160007692873477935791015625">
        <ele>1559</ele>
        <time>2026-06-18T11:35:40.000Z</time>
        <extensions>
          <ns3:TrackPointExtension>
            <ns3:atemp>22.0</ns3:atemp>
          </ns3:TrackPointExtension>
        </extensions>
      </trkpt>
      <trkpt lat="42.5244010426104068756103515625" lon="19.77164827287197113037109375">
        <ele>1558</ele>
        <time>2026-06-18T11:35:41.000Z</time>
        <extensions>
          <ns3:TrackPointExtension>
            <ns3:atemp>22.0</ns3:atemp>
          </ns3:TrackPointExtension>
        </extensions>
      </trkpt>
      <trkpt lat="42.524419315159320831298828125" lon="19.77168942801654338836669921875">
        <ele>1557.199951171875</ele>
        <time>2026-06-18T11:35:42.000Z</time>
        <extensions>
          <ns3:TrackPointExtension>
            <ns3:atemp>22.0</ns3:atemp>
          </ns3:TrackPointExtension>
        </extensions>
      </trkpt>
      <trkpt lat="42.52442635595798492431640625" lon="19.7717235423624515533447265625">
        <ele>1556.4000244140625</ele>
        <time>2026-06-18T11:35:43.000Z</time>
        <extensions>
          <ns3:TrackPointExtension>
            <ns3:atemp>23.0</ns3:atemp>
          </ns3:TrackPointExtension>
        </extensions>
      </trkpt>
      <trkpt lat="42.52443574368953704833984375" lon="19.771757237613201141357421875">
        <ele>1555.5999755859375</ele>
        <time>2026-06-18T11:35:44.000Z</time>
        <extensions>
          <ns3:TrackPointExtension>
            <ns3:atemp>23.0</ns3:atemp>
          </ns3:TrackPointExtension>
        </extensions>
      </trkpt>
      <trkpt lat="42.52445854246616363525390625" lon="19.771788083016872406005859375">
        <ele>1554.800048828125</ele>
        <time>2026-06-18T11:35:45.000Z</time>
        <extensions>
          <ns3:TrackPointExtension>
            <ns3:atemp>23.0</ns3:atemp>
          </ns3:TrackPointExtension>
        </extensions>
      </trkpt>
      <trkpt lat="42.524490393698215484619140625" lon="19.7718264721333980560302734375">
        <ele>1554</ele>
        <time>2026-06-18T11:35:46.000Z</time>
        <extensions>
          <ns3:TrackPointExtension>
            <ns3:atemp>23.0</ns3:atemp>
          </ns3:TrackPointExtension>
        </extensions>
      </trkpt>
      <trkpt lat="42.524513863027095794677734375" lon="19.7718764282763004302978515625">
        <ele>1552.800048828125</ele>
        <time>2026-06-18T11:35:47.000Z</time>
        <extensions>
          <ns3:TrackPointExtension>
            <ns3:atemp>22.0</ns3:atemp>
          </ns3:TrackPointExtension>
        </extensions>
      </trkpt>
      <trkpt lat="42.52455317415297031402587890625" lon="19.77191054262220859527587890625">
        <ele>1552</ele>
        <time>2026-06-18T11:35:48.000Z</time>
        <extensions>
          <ns3:TrackPointExtension>
            <ns3:atemp>22.0</ns3:atemp>
          </ns3:TrackPointExtension>
        </extensions>
      </trkpt>
      <trkpt lat="42.52459960989654064178466796875" lon="19.77194423787295818328857421875">
        <ele>1551</ele>
        <time>2026-06-18T11:35:49.000Z</time>
        <extensions>
          <ns3:TrackPointExtension>
            <ns3:atemp>22.0</ns3:atemp>
          </ns3:TrackPointExtension>
        </extensions>
      </trkpt>
      <trkpt lat="42.5246523320674896240234375" lon="19.7719568945467472076416015625">
        <ele>1550.199951171875</ele>
        <time>2026-06-18T11:35:50.000Z</time>
        <extensions>
          <ns3:TrackPointExtension>
            <ns3:atemp>22.0</ns3:atemp>
          </ns3:TrackPointExtension>
        </extensions>
      </trkpt>
      <trkpt lat="42.524704299867153167724609375" lon="19.77197390981018543243408203125">
        <ele>1549.4000244140625</ele>
        <time>2026-06-18T11:35:51.000Z</time>
        <extensions>
          <ns3:TrackPointExtension>
            <ns3:atemp>22.0</ns3:atemp>
          </ns3:TrackPointExtension>
        </extensions>
      </trkpt>
      <trkpt lat="42.52475081942975521087646484375" lon="19.77197692729532718658447265625">
        <ele>1548.5999755859375</ele>
        <time>2026-06-18T11:35:52.000Z</time>
        <extensions>
          <ns3:TrackPointExtension>
            <ns3:atemp>22.0</ns3:atemp>
          </ns3:TrackPointExtension>
        </extensions>
      </trkpt>
      <trkpt lat="42.524787448346614837646484375" lon="19.771990589797496795654296875">
        <ele>1548</ele>
        <time>2026-06-18T11:35:53.000Z</time>
        <extensions>
          <ns3:TrackPointExtension>
            <ns3:atemp>22.0</ns3:atemp>
          </ns3:TrackPointExtension>
        </extensions>
      </trkpt>
      <trkpt lat="42.52481234259903430938720703125" lon="19.77200634777545928955078125">
        <ele>1547.5999755859375</ele>
        <time>2026-06-18T11:35:54.000Z</time>
        <extensions>
          <ns3:TrackPointExtension>
            <ns3:atemp>22.0</ns3:atemp>
          </ns3:TrackPointExtension>
        </extensions>
      </trkpt>
      <trkpt lat="42.52484209835529327392578125" lon="19.77202914655208587646484375">
        <ele>1547.199951171875</ele>
        <time>2026-06-18T11:35:55.000Z</time>
        <extensions>
          <ns3:TrackPointExtension>
            <ns3:atemp>22.0</ns3:atemp>
          </ns3:TrackPointExtension>
        </extensions>
      </trkpt>
      <trkpt lat="42.5248781405389308929443359375" lon="19.77203392423689365386962890625">
        <ele>1546.800048828125</ele>
        <time>2026-06-18T11:35:56.000Z</time>
        <extensions>
          <ns3:TrackPointExtension>
            <ns3:atemp>22.0</ns3:atemp>
          </ns3:TrackPointExtension>
        </extensions>
      </trkpt>
      <trkpt lat="42.5249223969876766204833984375" lon="19.77204431779682636260986328125">
        <ele>1546.199951171875</ele>
        <time>2026-06-18T11:35:57.000Z</time>
        <extensions>
          <ns3:TrackPointExtension>
            <ns3:atemp>22.0</ns3:atemp>
          </ns3:TrackPointExtension>
        </extensions>
      </trkpt>
      <trkpt lat="42.52496279776096343994140625" lon="19.7720792703330516815185546875">
        <ele>1545.5999755859375</ele>
        <time>2026-06-18T11:35:58.000Z</time>
        <extensions>
          <ns3:TrackPointExtension>
            <ns3:atemp>22.0</ns3:atemp>
          </ns3:TrackPointExtension>
        </extensions>
      </trkpt>
      <trkpt lat="42.52500210888683795928955078125" lon="19.77211087010800838470458984375">
        <ele>1545</ele>
        <time>2026-06-18T11:35:59.000Z</time>
        <extensions>
          <ns3:TrackPointExtension>
            <ns3:atemp>22.0</ns3:atemp>
          </ns3:TrackPointExtension>
        </extensions>
      </trkpt>
      <trkpt lat="42.52504385076463222503662109375" lon="19.7721345908939838409423828125">
        <ele>1544.4000244140625</ele>
        <time>2026-06-18T11:36:00.000Z</time>
        <extensions>
          <ns3:TrackPointExtension>
            <ns3:atemp>22.0</ns3:atemp>
          </ns3:TrackPointExtension>
        </extensions>
      </trkpt>
      <trkpt lat="42.525079138576984405517578125" lon="19.77212511934340000152587890625">
        <ele>1543.800048828125</ele>
        <time>2026-06-18T11:36:01.000Z</time>
        <extensions>
          <ns3:TrackPointExtension>
            <ns3:atemp>22.0</ns3:atemp>
          </ns3:TrackPointExtension>
        </extensions>
      </trkpt>
      <trkpt lat="42.52511861734092235565185546875" lon="19.7721221856772899627685546875">
        <ele>1543.4000244140625</ele>
        <time>2026-06-18T11:36:02.000Z</time>
        <extensions>
          <ns3:TrackPointExtension>
            <ns3:atemp>22.0</ns3:atemp>
          </ns3:TrackPointExtension>
        </extensions>
      </trkpt>
      <trkpt lat="42.5251565873622894287109375" lon="19.77211765944957733154296875">
        <ele>1543.199951171875</ele>
        <time>2026-06-18T11:36:03.000Z</time>
        <extensions>
          <ns3:TrackPointExtension>
            <ns3:atemp>22.0</ns3:atemp>
          </ns3:TrackPointExtension>
        </extensions>
      </trkpt>
      <trkpt lat="42.5251986645162105560302734375" lon="19.77210751734673976898193359375">
        <ele>1543</ele>
        <time>2026-06-18T11:36:04.000Z</time>
        <extensions>
          <ns3:TrackPointExtension>
            <ns3:atemp>22.0</ns3:atemp>
          </ns3:TrackPointExtension>
        </extensions>
      </trkpt>
      <trkpt lat="42.52524040639400482177734375" lon="19.7721114568412303924560546875">
        <ele>1542.5999755859375</ele>
        <time>2026-06-18T11:36:05.000Z</time>
        <extensions>
          <ns3:TrackPointExtension>
            <ns3:atemp>22.0</ns3:atemp>
          </ns3:TrackPointExtension>
        </extensions>
      </trkpt>
      <trkpt lat="42.5252905301749706268310546875" lon="19.77212126366794109344482421875">
        <ele>1542.4000244140625</ele>
        <time>2026-06-18T11:36:06.000Z</time>
        <extensions>
          <ns3:TrackPointExtension>
            <ns3:atemp>22.0</ns3:atemp>
          </ns3:TrackPointExtension>
        </extensions>
      </trkpt>
      <trkpt lat="42.525336630642414093017578125" lon="19.77212411351501941680908203125">
        <ele>1542</ele>
        <time>2026-06-18T11:36:07.000Z</time>
        <extensions>
          <ns3:TrackPointExtension>
            <ns3:atemp>22.0</ns3:atemp>
          </ns3:TrackPointExtension>
        </extensions>
      </trkpt>
      <trkpt lat="42.52537812106311321258544921875" lon="19.77212176658213138580322265625">
        <ele>1541.800048828125</ele>
        <time>2026-06-18T11:36:08.000Z</time>
        <extensions>
          <ns3:TrackPointExtension>
            <ns3:atemp>22.0</ns3:atemp>
          </ns3:TrackPointExtension>
        </extensions>
      </trkpt>
      <trkpt lat="42.52541743218898773193359375" lon="19.77210617624223232269287109375">
        <ele>1541.800048828125</ele>
        <time>2026-06-18T11:36:09.000Z</time>
        <extensions>
          <ns3:TrackPointExtension>
            <ns3:atemp>22.0</ns3:atemp>
          </ns3:TrackPointExtension>
        </extensions>
      </trkpt>
      <trkpt lat="42.52545556984841823577880859375" lon="19.77209343574941158294677734375">
        <ele>1541.5999755859375</ele>
        <time>2026-06-18T11:36:10.000Z</time>
        <extensions>
          <ns3:TrackPointExtension>
            <ns3:atemp>22.0</ns3:atemp>
          </ns3:TrackPointExtension>
        </extensions>
      </trkpt>
      <trkpt lat="42.5254859961569309234619140625" lon="19.7720886580646038055419921875">
        <ele>1541.4000244140625</ele>
        <time>2026-06-18T11:36:11.000Z</time>
        <extensions>
          <ns3:TrackPointExtension>
            <ns3:atemp>22.0</ns3:atemp>
          </ns3:TrackPointExtension>
        </extensions>
      </trkpt>
      <trkpt lat="42.52551843412220478057861328125" lon="19.7720839641988277435302734375">
        <ele>1541.5999755859375</ele>
        <time>2026-06-18T11:36:12.000Z</time>
        <extensions>
          <ns3:TrackPointExtension>
            <ns3:atemp>22.0</ns3:atemp>
          </ns3:TrackPointExtension>
        </extensions>
      </trkpt>
      <trkpt lat="42.5255429930984973907470703125" lon="19.77207851596176624298095703125">
        <ele>1541.5999755859375</ele>
        <time>2026-06-18T11:36:13.000Z</time>
        <extensions>
          <ns3:TrackPointExtension>
            <ns3:atemp>22.0</ns3:atemp>
          </ns3:TrackPointExtension>
        </extensions>
      </trkpt>
      <trkpt lat="42.52556604333221912384033203125" lon="19.7720718942582607269287109375">
        <ele>1541.4000244140625</ele>
        <time>2026-06-18T11:36:14.000Z</time>
        <extensions>
          <ns3:TrackPointExtension>
            <ns3:atemp>22.0</ns3:atemp>
          </ns3:TrackPointExtension>
        </extensions>
      </trkpt>
      <trkpt lat="42.52557693980634212493896484375" lon="19.77207005023956298828125">
        <ele>1541.4000244140625</ele>
        <time>2026-06-18T11:36:15.000Z</time>
        <extensions>
          <ns3:TrackPointExtension>
            <ns3:atemp>22.0</ns3:atemp>
          </ns3:TrackPointExtension>
        </extensions>
      </trkpt>
      <trkpt lat="42.525582052767276763916015625" lon="19.7720682062208652496337890625">
        <ele>1541.199951171875</ele>
        <time>2026-06-18T11:36:16.000Z</time>
        <extensions>
          <ns3:TrackPointExtension>
            <ns3:atemp>22.0</ns3:atemp>
          </ns3:TrackPointExtension>
        </extensions>
      </trkpt>
      <trkpt lat="42.52558213658630847930908203125" lon="19.77206795476377010345458984375">
        <ele>1541.199951171875</ele>
        <time>2026-06-18T11:36:17.000Z</time>
        <extensions>
          <ns3:TrackPointExtension>
            <ns3:atemp>22.0</ns3:atemp>
          </ns3:TrackPointExtension>
        </extensions>
      </trkpt>
      <trkpt lat="42.52558213658630847930908203125" lon="19.77206795476377010345458984375">
        <ele>1541</ele>
        <time>2026-06-18T11:36:18.000Z</time>
        <extensions>
          <ns3:TrackPointExtension>
            <ns3:atemp>22.0</ns3:atemp>
          </ns3:TrackPointExtension>
        </extensions>
      </trkpt>
      <trkpt lat="42.52558213658630847930908203125" lon="19.77206795476377010345458984375">
        <ele>1541</ele>
        <time>2026-06-18T11:36:19.000Z</time>
        <extensions>
          <ns3:TrackPointExtension>
            <ns3:atemp>22.0</ns3:atemp>
          </ns3:TrackPointExtension>
        </extensions>
      </trkpt>
      <trkpt lat="42.52558213658630847930908203125" lon="19.77206795476377010345458984375">
        <ele>1540.800048828125</ele>
        <time>2026-06-18T11:36:20.000Z</time>
        <extensions>
          <ns3:TrackPointExtension>
            <ns3:atemp>22.0</ns3:atemp>
          </ns3:TrackPointExtension>
        </extensions>
      </trkpt>
      <trkpt lat="42.52558213658630847930908203125" lon="19.77206795476377010345458984375">
        <ele>1540.800048828125</ele>
        <time>2026-06-18T11:36:21.000Z</time>
        <extensions>
          <ns3:TrackPointExtension>
            <ns3:atemp>22.0</ns3:atemp>
          </ns3:TrackPointExtension>
        </extensions>
      </trkpt>
      <trkpt lat="42.52558213658630847930908203125" lon="19.77206795476377010345458984375">
        <ele>1540.5999755859375</ele>
        <time>2026-06-18T11:36:22.000Z</time>
        <extensions>
          <ns3:TrackPointExtension>
            <ns3:atemp>22.0</ns3:atemp>
          </ns3:TrackPointExtension>
        </extensions>
      </trkpt>
      <trkpt lat="42.52558213658630847930908203125" lon="19.77206795476377010345458984375">
        <ele>1540.4000244140625</ele>
        <time>2026-06-18T11:36:23.000Z</time>
        <extensions>
          <ns3:TrackPointExtension>
            <ns3:atemp>22.0</ns3:atemp>
          </ns3:TrackPointExtension>
        </extensions>
      </trkpt>
      <trkpt lat="42.52558213658630847930908203125" lon="19.77206795476377010345458984375">
        <ele>1540.4000244140625</ele>
        <time>2026-06-18T11:36:24.000Z</time>
        <extensions>
          <ns3:TrackPointExtension>
            <ns3:atemp>22.0</ns3:atemp>
          </ns3:TrackPointExtension>
        </extensions>
      </trkpt>
      <trkpt lat="42.52558213658630847930908203125" lon="19.77206795476377010345458984375">
        <ele>1540.199951171875</ele>
        <time>2026-06-18T11:36:25.000Z</time>
        <extensions>
          <ns3:TrackPointExtension>
            <ns3:atemp>22.0</ns3:atemp>
          </ns3:TrackPointExtension>
        </extensions>
      </trkpt>
      <trkpt lat="42.52558213658630847930908203125" lon="19.77206795476377010345458984375">
        <ele>1540.199951171875</ele>
        <time>2026-06-18T11:36:26.000Z</time>
        <extensions>
          <ns3:TrackPointExtension>
            <ns3:atemp>22.0</ns3:atemp>
          </ns3:TrackPointExtension>
        </extensions>
      </trkpt>
      <trkpt lat="42.52558213658630847930908203125" lon="19.77206795476377010345458984375">
        <ele>1540</ele>
        <time>2026-06-18T11:36:27.000Z</time>
        <extensions>
          <ns3:TrackPointExtension>
            <ns3:atemp>22.0</ns3:atemp>
          </ns3:TrackPointExtension>
        </extensions>
      </trkpt>
      <trkpt lat="42.52558213658630847930908203125" lon="19.77206795476377010345458984375">
        <ele>1540</ele>
        <time>2026-06-18T11:36:28.000Z</time>
        <extensions>
          <ns3:TrackPointExtension>
            <ns3:atemp>22.0</ns3:atemp>
          </ns3:TrackPointExtension>
        </extensions>
      </trkpt>
      <trkpt lat="42.52558213658630847930908203125" lon="19.77206795476377010345458984375">
        <ele>1539.800048828125</ele>
        <time>2026-06-18T11:36:29.000Z</time>
        <extensions>
          <ns3:TrackPointExtension>
            <ns3:atemp>22.0</ns3:atemp>
          </ns3:TrackPointExtension>
        </extensions>
      </trkpt>
      <trkpt lat="42.52558213658630847930908203125" lon="19.77206795476377010345458984375">
        <ele>1539.800048828125</ele>
        <time>2026-06-18T11:36:30.000Z</time>
        <extensions>
          <ns3:TrackPointExtension>
            <ns3:atemp>22.0</ns3:atemp>
          </ns3:TrackPointExtension>
        </extensions>
      </trkpt>
      <trkpt lat="42.52558213658630847930908203125" lon="19.77206795476377010345458984375">
        <ele>1539.800048828125</ele>
        <time>2026-06-18T11:36:31.000Z</time>
        <extensions>
          <ns3:TrackPointExtension>
            <ns3:atemp>22.0</ns3:atemp>
          </ns3:TrackPointExtension>
        </extensions>
      </trkpt>
      <trkpt lat="42.52558213658630847930908203125" lon="19.77206795476377010345458984375">
        <ele>1539.5999755859375</ele>
        <time>2026-06-18T11:36:32.000Z</time>
        <extensions>
          <ns3:TrackPointExtension>
            <ns3:atemp>22.0</ns3:atemp>
          </ns3:TrackPointExtension>
        </extensions>
      </trkpt>
      <trkpt lat="42.52558213658630847930908203125" lon="19.77206795476377010345458984375">
        <ele>1539.5999755859375</ele>
        <time>2026-06-18T11:36:33.000Z</time>
        <extensions>
          <ns3:TrackPointExtension>
            <ns3:atemp>22.0</ns3:atemp>
          </ns3:TrackPointExtension>
        </extensions>
      </trkpt>
      <trkpt lat="42.52558213658630847930908203125" lon="19.77206795476377010345458984375">
        <ele>1539.5999755859375</ele>
        <time>2026-06-18T11:36:34.000Z</time>
        <extensions>
          <ns3:TrackPointExtension>
            <ns3:atemp>22.0</ns3:atemp>
          </ns3:TrackPointExtension>
        </extensions>
      </trkpt>
      <trkpt lat="42.52558213658630847930908203125" lon="19.77206795476377010345458984375">
        <ele>1539.4000244140625</ele>
        <time>2026-06-18T11:36:35.000Z</time>
        <extensions>
          <ns3:TrackPointExtension>
            <ns3:atemp>22.0</ns3:atemp>
          </ns3:TrackPointExtension>
        </extensions>
      </trkpt>
      <trkpt lat="42.52558213658630847930908203125" lon="19.77206795476377010345458984375">
        <ele>1539.4000244140625</ele>
        <time>2026-06-18T11:36:36.000Z</time>
        <extensions>
          <ns3:TrackPointExtension>
            <ns3:atemp>22.0</ns3:atemp>
          </ns3:TrackPointExtension>
        </extensions>
      </trkpt>
      <trkpt lat="42.52558213658630847930908203125" lon="19.77206795476377010345458984375">
        <ele>1539.4000244140625</ele>
        <time>2026-06-18T11:36:37.000Z</time>
        <extensions>
          <ns3:TrackPointExtension>
            <ns3:atemp>22.0</ns3:atemp>
          </ns3:TrackPointExtension>
        </extensions>
      </trkpt>
      <trkpt lat="42.52558213658630847930908203125" lon="19.77206795476377010345458984375">
        <ele>1539.4000244140625</ele>
        <time>2026-06-18T11:36:38.000Z</time>
        <extensions>
          <ns3:TrackPointExtension>
            <ns3:atemp>22.0</ns3:atemp>
          </ns3:TrackPointExtension>
        </extensions>
      </trkpt>
      <trkpt lat="42.52558213658630847930908203125" lon="19.77206795476377010345458984375">
        <ele>1539.4000244140625</ele>
        <time>2026-06-18T11:36:39.000Z</time>
        <extensions>
          <ns3:TrackPointExtension>
            <ns3:atemp>22.0</ns3:atemp>
          </ns3:TrackPointExtension>
        </extensions>
      </trkpt>
      <trkpt lat="42.52558213658630847930908203125" lon="19.77206795476377010345458984375">
        <ele>1539.4000244140625</ele>
        <time>2026-06-18T11:36:40.000Z</time>
        <extensions>
          <ns3:TrackPointExtension>
            <ns3:atemp>22.0</ns3:atemp>
          </ns3:TrackPointExtension>
        </extensions>
      </trkpt>
      <trkpt lat="42.52558213658630847930908203125" lon="19.77206795476377010345458984375">
        <ele>1539.4000244140625</ele>
        <time>2026-06-18T11:36:41.000Z</time>
        <extensions>
          <ns3:TrackPointExtension>
            <ns3:atemp>22.0</ns3:atemp>
          </ns3:TrackPointExtension>
        </extensions>
      </trkpt>
      <trkpt lat="42.52558213658630847930908203125" lon="19.77206795476377010345458984375">
        <ele>1539.4000244140625</ele>
        <time>2026-06-18T11:36:42.000Z</time>
        <extensions>
          <ns3:TrackPointExtension>
            <ns3:atemp>22.0</ns3:atemp>
          </ns3:TrackPointExtension>
        </extensions>
      </trkpt>
      <trkpt lat="42.52558213658630847930908203125" lon="19.77206795476377010345458984375">
        <ele>1539.4000244140625</ele>
        <time>2026-06-18T11:36:43.000Z</time>
        <extensions>
          <ns3:TrackPointExtension>
            <ns3:atemp>22.0</ns3:atemp>
          </ns3:TrackPointExtension>
        </extensions>
      </trkpt>
      <trkpt lat="42.52558213658630847930908203125" lon="19.77206795476377010345458984375">
        <ele>1539.5999755859375</ele>
        <time>2026-06-18T11:36:44.000Z</time>
        <extensions>
          <ns3:TrackPointExtension>
            <ns3:atemp>22.0</ns3:atemp>
          </ns3:TrackPointExtension>
        </extensions>
      </trkpt>
      <trkpt lat="42.52558213658630847930908203125" lon="19.77206795476377010345458984375">
        <ele>1539.5999755859375</ele>
        <time>2026-06-18T11:36:45.000Z</time>
        <extensions>
          <ns3:TrackPointExtension>
            <ns3:atemp>22.0</ns3:atemp>
          </ns3:TrackPointExtension>
        </extensions>
      </trkpt>
      <trkpt lat="42.52558213658630847930908203125" lon="19.77206795476377010345458984375">
        <ele>1539.4000244140625</ele>
        <time>2026-06-18T11:36:46.000Z</time>
        <extensions>
          <ns3:TrackPointExtension>
            <ns3:atemp>22.0</ns3:atemp>
          </ns3:TrackPointExtension>
        </extensions>
      </trkpt>
      <trkpt lat="42.52558213658630847930908203125" lon="19.77206795476377010345458984375">
        <ele>1539.4000244140625</ele>
        <time>2026-06-18T11:36:47.000Z</time>
        <extensions>
          <ns3:TrackPointExtension>
            <ns3:atemp>22.0</ns3:atemp>
          </ns3:TrackPointExtension>
        </extensions>
      </trkpt>
      <trkpt lat="42.5255956314504146575927734375" lon="19.77206669747829437255859375">
        <ele>1539.199951171875</ele>
        <time>2026-06-18T11:36:48.000Z</time>
        <extensions>
          <ns3:TrackPointExtension>
            <ns3:atemp>22.0</ns3:atemp>
          </ns3:TrackPointExtension>
        </extensions>
      </trkpt>
      <trkpt lat="42.5256311707198619842529296875" lon="19.77207248099148273468017578125">
        <ele>1539.199951171875</ele>
        <time>2026-06-18T11:36:49.000Z</time>
        <extensions>
          <ns3:TrackPointExtension>
            <ns3:atemp>22.0</ns3:atemp>
          </ns3:TrackPointExtension>
        </extensions>
      </trkpt>
      <trkpt lat="42.52565640024840831756591796875" lon="19.77206560783088207244873046875">
        <ele>1539.199951171875</ele>
        <time>2026-06-18T11:36:50.000Z</time>
        <extensions>
          <ns3:TrackPointExtension>
            <ns3:atemp>22.0</ns3:atemp>
          </ns3:TrackPointExtension>
        </extensions>
      </trkpt>
      <trkpt lat="42.5256801210343837738037109375" lon="19.7720524482429027557373046875">
        <ele>1539</ele>
        <time>2026-06-18T11:36:51.000Z</time>
        <extensions>
          <ns3:TrackPointExtension>
            <ns3:atemp>22.0</ns3:atemp>
          </ns3:TrackPointExtension>
        </extensions>
      </trkpt>
      <trkpt lat="42.52570535056293010711669921875" lon="19.7720531187951564788818359375">
        <ele>1538.800048828125</ele>
        <time>2026-06-18T11:36:52.000Z</time>
        <extensions>
          <ns3:TrackPointExtension>
            <ns3:atemp>22.0</ns3:atemp>
          </ns3:TrackPointExtension>
        </extensions>
      </trkpt>
      <trkpt lat="42.52572814933955669403076171875" lon="19.7720511071383953094482421875">
        <ele>1538.5999755859375</ele>
        <time>2026-06-18T11:36:53.000Z</time>
        <extensions>
          <ns3:TrackPointExtension>
            <ns3:atemp>22.0</ns3:atemp>
          </ns3:TrackPointExtension>
        </extensions>
      </trkpt>
      <trkpt lat="42.52574726007878780364990234375" lon="19.77206401526927947998046875">
        <ele>1538.4000244140625</ele>
        <time>2026-06-18T11:36:54.000Z</time>
        <extensions>
          <ns3:TrackPointExtension>
            <ns3:atemp>22.0</ns3:atemp>
          </ns3:TrackPointExtension>
        </extensions>
      </trkpt>
      <trkpt lat="42.52575807273387908935546875" lon="19.77209083735942840576171875">
        <ele>1538.199951171875</ele>
        <time>2026-06-18T11:36:55.000Z</time>
        <extensions>
          <ns3:TrackPointExtension>
            <ns3:atemp>22.0</ns3:atemp>
          </ns3:TrackPointExtension>
        </extensions>
      </trkpt>
      <trkpt lat="42.52576821483671665191650390625" lon="19.77211900055408477783203125">
        <ele>1538</ele>
        <time>2026-06-18T11:36:56.000Z</time>
        <extensions>
          <ns3:TrackPointExtension>
            <ns3:atemp>22.0</ns3:atemp>
          </ns3:TrackPointExtension>
        </extensions>
      </trkpt>
      <trkpt lat="42.52577626146376132965087890625" lon="19.7721533663570880889892578125">
        <ele>1537.4000244140625</ele>
        <time>2026-06-18T11:36:57.000Z</time>
        <extensions>
          <ns3:TrackPointExtension>
            <ns3:atemp>22.0</ns3:atemp>
          </ns3:TrackPointExtension>
        </extensions>
      </trkpt>
      <trkpt lat="42.5257976353168487548828125" lon="19.7721771709620952606201171875">
        <ele>1537</ele>
        <time>2026-06-18T11:36:58.000Z</time>
        <extensions>
          <ns3:TrackPointExtension>
            <ns3:atemp>22.0</ns3:atemp>
          </ns3:TrackPointExtension>
        </extensions>
      </trkpt>
      <trkpt lat="42.5258182547986507415771484375" lon="19.77218697778880596160888671875">
        <ele>1536.5999755859375</ele>
        <time>2026-06-18T11:36:59.000Z</time>
        <extensions>
          <ns3:TrackPointExtension>
            <ns3:atemp>22.0</ns3:atemp>
          </ns3:TrackPointExtension>
        </extensions>
      </trkpt>
      <trkpt lat="42.52583392895758152008056640625" lon="19.7722003050148487091064453125">
        <ele>1536.4000244140625</ele>
        <time>2026-06-18T11:37:00.000Z</time>
        <extensions>
          <ns3:TrackPointExtension>
            <ns3:atemp>22.0</ns3:atemp>
          </ns3:TrackPointExtension>
        </extensions>
      </trkpt>
      <trkpt lat="42.5258566439151763916015625" lon="19.77220214903354644775390625">
        <ele>1536</ele>
        <time>2026-06-18T11:37:01.000Z</time>
        <extensions>
          <ns3:TrackPointExtension>
            <ns3:atemp>22.0</ns3:atemp>
          </ns3:TrackPointExtension>
        </extensions>
      </trkpt>
      <trkpt lat="42.525886483490467071533203125" lon="19.77219133637845516204833984375">
        <ele>1535.5999755859375</ele>
        <time>2026-06-18T11:37:02.000Z</time>
        <extensions>
          <ns3:TrackPointExtension>
            <ns3:atemp>22.0</ns3:atemp>
          </ns3:TrackPointExtension>
        </extensions>
      </trkpt>
      <trkpt lat="42.52590534277260303497314453125" lon="19.7721962817013263702392578125">
        <ele>1535.199951171875</ele>
        <time>2026-06-18T11:37:03.000Z</time>
        <extensions>
          <ns3:TrackPointExtension>
            <ns3:atemp>22.0</ns3:atemp>
          </ns3:TrackPointExtension>
        </extensions>
      </trkpt>
      <trkpt lat="42.52591137774288654327392578125" lon="19.77220944128930568695068359375">
        <ele>1535</ele>
        <time>2026-06-18T11:37:04.000Z</time>
        <extensions>
          <ns3:TrackPointExtension>
            <ns3:atemp>22.0</ns3:atemp>
          </ns3:TrackPointExtension>
        </extensions>
      </trkpt>
      <trkpt lat="42.5259221903979778289794921875" lon="19.7722271271049976348876953125">
        <ele>1534.5999755859375</ele>
        <time>2026-06-18T11:37:05.000Z</time>
        <extensions>
          <ns3:TrackPointExtension>
            <ns3:atemp>22.0</ns3:atemp>
          </ns3:TrackPointExtension>
        </extensions>
      </trkpt>
      <trkpt lat="42.5259362719953060150146484375" lon="19.77223861031234264373779296875">
        <ele>1534.4000244140625</ele>
        <time>2026-06-18T11:37:06.000Z</time>
        <extensions>
          <ns3:TrackPointExtension>
            <ns3:atemp>22.0</ns3:atemp>
          </ns3:TrackPointExtension>
        </extensions>
      </trkpt>
      <trkpt lat="42.52594825811684131622314453125" lon="19.77224347181618213653564453125">
        <ele>1534.199951171875</ele>
        <time>2026-06-18T11:37:07.000Z</time>
        <extensions>
          <ns3:TrackPointExtension>
            <ns3:atemp>22.0</ns3:atemp>
          </ns3:TrackPointExtension>
        </extensions>
      </trkpt>
      <trkpt lat="42.52596451900899410247802734375" lon="19.77225051261484622955322265625">
        <ele>1534</ele>
        <time>2026-06-18T11:37:08.000Z</time>
        <extensions>
          <ns3:TrackPointExtension>
            <ns3:atemp>22.0</ns3:atemp>
          </ns3:TrackPointExtension>
        </extensions>
      </trkpt>
      <trkpt lat="42.52597541548311710357666015625" lon="19.7722542844712734222412109375">
        <ele>1533.5999755859375</ele>
        <time>2026-06-18T11:37:09.000Z</time>
        <extensions>
          <ns3:TrackPointExtension>
            <ns3:atemp>22.0</ns3:atemp>
          </ns3:TrackPointExtension>
        </extensions>
      </trkpt>
      <trkpt lat="42.5259915925562381744384765625" lon="19.77226006798446178436279296875">
        <ele>1533.4000244140625</ele>
        <time>2026-06-18T11:37:10.000Z</time>
        <extensions>
          <ns3:TrackPointExtension>
            <ns3:atemp>22.0</ns3:atemp>
          </ns3:TrackPointExtension>
        </extensions>
      </trkpt>
      <trkpt lat="42.52599687315523624420166015625" lon="19.772268198430538177490234375">
        <ele>1533.199951171875</ele>
        <time>2026-06-18T11:37:11.000Z</time>
        <extensions>
          <ns3:TrackPointExtension>
            <ns3:atemp>22.0</ns3:atemp>
          </ns3:TrackPointExtension>
        </extensions>
      </trkpt>
      <trkpt lat="42.5260083563625812530517578125" lon="19.772281609475612640380859375">
        <ele>1533</ele>
        <time>2026-06-18T11:37:12.000Z</time>
        <extensions>
          <ns3:TrackPointExtension>
            <ns3:atemp>22.0</ns3:atemp>
          </ns3:TrackPointExtension>
        </extensions>
      </trkpt>
      <trkpt lat="42.52602403052151203155517578125" lon="19.77228437550365924835205078125">
        <ele>1532.800048828125</ele>
        <time>2026-06-18T11:37:13.000Z</time>
        <extensions>
          <ns3:TrackPointExtension>
            <ns3:atemp>22.0</ns3:atemp>
          </ns3:TrackPointExtension>
        </extensions>
      </trkpt>
      <trkpt lat="42.52603308297693729400634765625" lon="19.772287644445896148681640625">
        <ele>1532.5999755859375</ele>
        <time>2026-06-18T11:37:14.000Z</time>
        <extensions>
          <ns3:TrackPointExtension>
            <ns3:atemp>22.0</ns3:atemp>
          </ns3:TrackPointExtension>
        </extensions>
      </trkpt>
      <trkpt lat="42.526033334434032440185546875" lon="19.7722874768078327178955078125">
        <ele>1532.199951171875</ele>
        <time>2026-06-18T11:37:15.000Z</time>
        <extensions>
          <ns3:TrackPointExtension>
            <ns3:atemp>22.0</ns3:atemp>
          </ns3:TrackPointExtension>
        </extensions>
      </trkpt>
      <trkpt lat="42.526048086583614349365234375" lon="19.7722955234348773956298828125">
        <ele>1532</ele>
        <time>2026-06-18T11:37:16.000Z</time>
        <extensions>
          <ns3:TrackPointExtension>
            <ns3:atemp>22.0</ns3:atemp>
          </ns3:TrackPointExtension>
        </extensions>
      </trkpt>
      <trkpt lat="42.52606610767543315887451171875" lon="19.77231991477310657501220703125">
        <ele>1531.800048828125</ele>
        <time>2026-06-18T11:37:17.000Z</time>
        <extensions>
          <ns3:TrackPointExtension>
            <ns3:atemp>22.0</ns3:atemp>
          </ns3:TrackPointExtension>
        </extensions>
      </trkpt>
      <trkpt lat="42.52608002163469791412353515625" lon="19.77234723977744579315185546875">
        <ele>1531.800048828125</ele>
        <time>2026-06-18T11:37:18.000Z</time>
        <extensions>
          <ns3:TrackPointExtension>
            <ns3:atemp>22.0</ns3:atemp>
          </ns3:TrackPointExtension>
        </extensions>
      </trkpt>
      <trkpt lat="42.52609946765005588531494140625" lon="19.77238143794238567352294921875">
        <ele>1531.5999755859375</ele>
        <time>2026-06-18T11:37:19.000Z</time>
        <extensions>
          <ns3:TrackPointExtension>
            <ns3:atemp>22.0</ns3:atemp>
          </ns3:TrackPointExtension>
        </extensions>
      </trkpt>
      <trkpt lat="42.52612561918795108795166015625" lon="19.7723967768251895904541015625">
        <ele>1531.199951171875</ele>
        <time>2026-06-18T11:37:20.000Z</time>
        <extensions>
          <ns3:TrackPointExtension>
            <ns3:atemp>22.0</ns3:atemp>
          </ns3:TrackPointExtension>
        </extensions>
      </trkpt>
      <trkpt lat="42.52614774741232395172119140625" lon="19.77242250926792621612548828125">
        <ele>1530.800048828125</ele>
        <time>2026-06-18T11:37:21.000Z</time>
        <extensions>
          <ns3:TrackPointExtension>
            <ns3:atemp>22.0</ns3:atemp>
          </ns3:TrackPointExtension>
        </extensions>
      </trkpt>
      <trkpt lat="42.5261729769408702850341796875" lon="19.77246475405991077423095703125">
        <ele>1530.5999755859375</ele>
        <time>2026-06-18T11:37:22.000Z</time>
        <extensions>
          <ns3:TrackPointExtension>
            <ns3:atemp>22.0</ns3:atemp>
          </ns3:TrackPointExtension>
        </extensions>
      </trkpt>
      <trkpt lat="42.52619921229779720306396484375" lon="19.77251060307025909423828125">
        <ele>1530</ele>
        <time>2026-06-18T11:37:23.000Z</time>
        <extensions>
          <ns3:TrackPointExtension>
            <ns3:atemp>22.0</ns3:atemp>
          </ns3:TrackPointExtension>
        </extensions>
      </trkpt>
      <trkpt lat="42.52622720785439014434814453125" lon="19.7725650854408740997314453125">
        <ele>1529.4000244140625</ele>
        <time>2026-06-18T11:37:24.000Z</time>
        <extensions>
          <ns3:TrackPointExtension>
            <ns3:atemp>22.0</ns3:atemp>
          </ns3:TrackPointExtension>
        </extensions>
      </trkpt>
      <trkpt lat="42.5262567959725856781005859375" lon="19.77261177264153957366943359375">
        <ele>1528.800048828125</ele>
        <time>2026-06-18T11:37:25.000Z</time>
        <extensions>
          <ns3:TrackPointExtension>
            <ns3:atemp>22.0</ns3:atemp>
          </ns3:TrackPointExtension>
        </extensions>
      </trkpt>
      <trkpt lat="42.5262765772640705108642578125" lon="19.7726381756365299224853515625">
        <ele>1528</ele>
        <time>2026-06-18T11:37:26.000Z</time>
        <extensions>
          <ns3:TrackPointExtension>
            <ns3:atemp>22.0</ns3:atemp>
          </ns3:TrackPointExtension>
        </extensions>
      </trkpt>
      <trkpt lat="42.52631471492350101470947265625" lon="19.77266424335539340972900390625">
        <ele>1526.800048828125</ele>
        <time>2026-06-18T11:37:27.000Z</time>
        <extensions>
          <ns3:TrackPointExtension>
            <ns3:atemp>22.0</ns3:atemp>
          </ns3:TrackPointExtension>
        </extensions>
      </trkpt>
      <trkpt lat="42.5263386033475399017333984375" lon="19.77268888615071773529052734375">
        <ele>1526</ele>
        <time>2026-06-18T11:37:28.000Z</time>
        <extensions>
          <ns3:TrackPointExtension>
            <ns3:atemp>22.0</ns3:atemp>
          </ns3:TrackPointExtension>
        </extensions>
      </trkpt>
      <trkpt lat="42.52633742988109588623046875" lon="19.7727297060191631317138671875">
        <ele>1525.199951171875</ele>
        <time>2026-06-18T11:37:29.000Z</time>
        <extensions>
          <ns3:TrackPointExtension>
            <ns3:atemp>22.0</ns3:atemp>
          </ns3:TrackPointExtension>
        </extensions>
      </trkpt>
      <trkpt lat="42.52633851952850818634033203125" lon="19.7727900557219982147216796875">
        <ele>1524.4000244140625</ele>
        <time>2026-06-18T11:37:30.000Z</time>
        <extensions>
          <ns3:TrackPointExtension>
            <ns3:atemp>22.0</ns3:atemp>
          </ns3:TrackPointExtension>
        </extensions>
      </trkpt>
      <trkpt lat="42.5263409502804279327392578125" lon="19.77284093387424945831298828125">
        <ele>1523.800048828125</ele>
        <time>2026-06-18T11:37:31.000Z</time>
        <extensions>
          <ns3:TrackPointExtension>
            <ns3:atemp>22.0</ns3:atemp>
          </ns3:TrackPointExtension>
        </extensions>
      </trkpt>
      <trkpt lat="42.52635888755321502685546875" lon="19.77290631271898746490478515625">
        <ele>1522.800048828125</ele>
        <time>2026-06-18T11:37:32.000Z</time>
        <extensions>
          <ns3:TrackPointExtension>
            <ns3:atemp>22.0</ns3:atemp>
          </ns3:TrackPointExtension>
        </extensions>
      </trkpt>
      <trkpt lat="42.5263758189976215362548828125" lon="19.7729654051363468170166015625">
        <ele>1522</ele>
        <time>2026-06-18T11:37:33.000Z</time>
        <extensions>
          <ns3:TrackPointExtension>
            <ns3:atemp>22.0</ns3:atemp>
          </ns3:TrackPointExtension>
        </extensions>
      </trkpt>
      <trkpt lat="42.526382692158222198486328125" lon="19.7730190493166446685791015625">
        <ele>1521.4000244140625</ele>
        <time>2026-06-18T11:37:34.000Z</time>
        <extensions>
          <ns3:TrackPointExtension>
            <ns3:atemp>22.0</ns3:atemp>
          </ns3:TrackPointExtension>
        </extensions>
      </trkpt>
      <trkpt lat="42.52639216370880603790283203125" lon="19.77306447923183441162109375">
        <ele>1521</ele>
        <time>2026-06-18T11:37:35.000Z</time>
        <extensions>
          <ns3:TrackPointExtension>
            <ns3:atemp>22.0</ns3:atemp>
          </ns3:TrackPointExtension>
        </extensions>
      </trkpt>
      <trkpt lat="42.5264194048941135406494140625" lon="19.7730944864451885223388671875">
        <ele>1520.5999755859375</ele>
        <time>2026-06-18T11:37:36.000Z</time>
        <extensions>
          <ns3:TrackPointExtension>
            <ns3:atemp>22.0</ns3:atemp>
          </ns3:TrackPointExtension>
        </extensions>
      </trkpt>
      <trkpt lat="42.52645410597324371337890625" lon="19.773124493658542633056640625">
        <ele>1520.5999755859375</ele>
        <time>2026-06-18T11:37:37.000Z</time>
        <extensions>
          <ns3:TrackPointExtension>
            <ns3:atemp>22.0</ns3:atemp>
          </ns3:TrackPointExtension>
        </extensions>
      </trkpt>
      <trkpt lat="42.52649299800395965576171875" lon="19.7731481306254863739013671875">
        <ele>1520.5999755859375</ele>
        <time>2026-06-18T11:37:38.000Z</time>
        <extensions>
          <ns3:TrackPointExtension>
            <ns3:atemp>22.0</ns3:atemp>
          </ns3:TrackPointExtension>
        </extensions>
      </trkpt>
      <trkpt lat="42.52651336602866649627685546875" lon="19.77319230325520038604736328125">
        <ele>1520.5999755859375</ele>
        <time>2026-06-18T11:37:39.000Z</time>
        <extensions>
          <ns3:TrackPointExtension>
            <ns3:atemp>22.0</ns3:atemp>
          </ns3:TrackPointExtension>
        </extensions>
      </trkpt>
      <trkpt lat="42.52651470713317394256591796875" lon="19.77323840372264385223388671875">
        <ele>1520.4000244140625</ele>
        <time>2026-06-18T11:37:40.000Z</time>
        <extensions>
          <ns3:TrackPointExtension>
            <ns3:atemp>22.0</ns3:atemp>
          </ns3:TrackPointExtension>
        </extensions>
      </trkpt>
      <trkpt lat="42.5265152938663959503173828125" lon="19.77327729575335979461669921875">
        <ele>1520.199951171875</ele>
        <time>2026-06-18T11:37:41.000Z</time>
        <extensions>
          <ns3:TrackPointExtension>
            <ns3:atemp>22.0</ns3:atemp>
          </ns3:TrackPointExtension>
        </extensions>
      </trkpt>
      <trkpt lat="42.52652116119861602783203125" lon="19.77331660687923431396484375">
        <ele>1520.199951171875</ele>
        <time>2026-06-18T11:37:42.000Z</time>
        <extensions>
          <ns3:TrackPointExtension>
            <ns3:atemp>22.0</ns3:atemp>
          </ns3:TrackPointExtension>
        </extensions>
      </trkpt>
      <trkpt lat="42.52651923336088657379150390625" lon="19.7733566723763942718505859375">
        <ele>1520</ele>
        <time>2026-06-18T11:37:43.000Z</time>
        <extensions>
          <ns3:TrackPointExtension>
            <ns3:atemp>22.0</ns3:atemp>
          </ns3:TrackPointExtension>
        </extensions>
      </trkpt>
      <trkpt lat="42.5265109352767467498779296875" lon="19.7733868472278118133544921875">
        <ele>1519.800048828125</ele>
        <time>2026-06-18T11:37:44.000Z</time>
        <extensions>
          <ns3:TrackPointExtension>
            <ns3:atemp>22.0</ns3:atemp>
          </ns3:TrackPointExtension>
        </extensions>
      </trkpt>
      <trkpt lat="42.52650314010679721832275390625" lon="19.77341844700276851654052734375">
        <ele>1519.4000244140625</ele>
        <time>2026-06-18T11:37:45.000Z</time>
        <extensions>
          <ns3:TrackPointExtension>
            <ns3:atemp>22.0</ns3:atemp>
          </ns3:TrackPointExtension>
        </extensions>
      </trkpt>
      <trkpt lat="42.52649475820362567901611328125" lon="19.77345666848123073577880859375">
        <ele>1518.800048828125</ele>
        <time>2026-06-18T11:37:46.000Z</time>
        <extensions>
          <ns3:TrackPointExtension>
            <ns3:atemp>22.0</ns3:atemp>
          </ns3:TrackPointExtension>
        </extensions>
      </trkpt>
      <trkpt lat="42.5264847837388515472412109375" lon="19.77349254302680492401123046875">
        <ele>1518</ele>
        <time>2026-06-18T11:37:47.000Z</time>
        <extensions>
          <ns3:TrackPointExtension>
            <ns3:atemp>22.0</ns3:atemp>
          </ns3:TrackPointExtension>
        </extensions>
      </trkpt>
      <trkpt lat="42.52647430635988712310791015625" lon="19.773533530533313751220703125">
        <ele>1517</ele>
        <time>2026-06-18T11:37:48.000Z</time>
        <extensions>
          <ns3:TrackPointExtension>
            <ns3:atemp>22.0</ns3:atemp>
          </ns3:TrackPointExtension>
        </extensions>
      </trkpt>
      <trkpt lat="42.52646257169544696807861328125" lon="19.7735680639743804931640625">
        <ele>1515.800048828125</ele>
        <time>2026-06-18T11:37:49.000Z</time>
        <extensions>
          <ns3:TrackPointExtension>
            <ns3:atemp>22.0</ns3:atemp>
          </ns3:TrackPointExtension>
        </extensions>
      </trkpt>
      <trkpt lat="42.52645787782967090606689453125" lon="19.77360636927187442779541015625">
        <ele>1514.4000244140625</ele>
        <time>2026-06-18T11:37:50.000Z</time>
        <extensions>
          <ns3:TrackPointExtension>
            <ns3:atemp>22.0</ns3:atemp>
          </ns3:TrackPointExtension>
        </extensions>
      </trkpt>
      <trkpt lat="42.5264405272901058197021484375" lon="19.77363822050392627716064453125">
        <ele>1513.4000244140625</ele>
        <time>2026-06-18T11:37:51.000Z</time>
        <extensions>
          <ns3:TrackPointExtension>
            <ns3:atemp>22.0</ns3:atemp>
          </ns3:TrackPointExtension>
        </extensions>
      </trkpt>
      <trkpt lat="42.5264324806630611419677734375" lon="19.7736771963536739349365234375">
        <ele>1512</ele>
        <time>2026-06-18T11:37:52.000Z</time>
        <extensions>
          <ns3:TrackPointExtension>
            <ns3:atemp>22.0</ns3:atemp>
          </ns3:TrackPointExtension>
        </extensions>
      </trkpt>
      <trkpt lat="42.526438347995281219482421875" lon="19.7737144120037555694580078125">
        <ele>1510.800048828125</ele>
        <time>2026-06-18T11:37:53.000Z</time>
        <extensions>
          <ns3:TrackPointExtension>
            <ns3:atemp>22.0</ns3:atemp>
          </ns3:TrackPointExtension>
        </extensions>
      </trkpt>
      <trkpt lat="42.5264358334243297576904296875" lon="19.773755483329296112060546875">
        <ele>1509.5999755859375</ele>
        <time>2026-06-18T11:37:54.000Z</time>
        <extensions>
          <ns3:TrackPointExtension>
            <ns3:atemp>22.0</ns3:atemp>
          </ns3:TrackPointExtension>
        </extensions>
      </trkpt>
      <trkpt lat="42.5264341570436954498291015625" lon="19.7737995721399784088134765625">
        <ele>1508.4000244140625</ele>
        <time>2026-06-18T11:37:55.000Z</time>
        <extensions>
          <ns3:TrackPointExtension>
            <ns3:atemp>22.0</ns3:atemp>
          </ns3:TrackPointExtension>
        </extensions>
      </trkpt>
      <trkpt lat="42.52643876709043979644775390625" lon="19.77383402176201343536376953125">
        <ele>1507</ele>
        <time>2026-06-18T11:37:56.000Z</time>
        <extensions>
          <ns3:TrackPointExtension>
            <ns3:atemp>22.0</ns3:atemp>
          </ns3:TrackPointExtension>
        </extensions>
      </trkpt>
      <trkpt lat="42.5264344923198223114013671875" lon="19.77387073449790477752685546875">
        <ele>1506</ele>
        <time>2026-06-18T11:37:57.000Z</time>
        <extensions>
          <ns3:TrackPointExtension>
            <ns3:atemp>22.0</ns3:atemp>
          </ns3:TrackPointExtension>
        </extensions>
      </trkpt>
      <trkpt lat="42.52642887644469738006591796875" lon="19.7739247977733612060546875">
        <ele>1505.199951171875</ele>
        <time>2026-06-18T11:37:58.000Z</time>
        <extensions>
          <ns3:TrackPointExtension>
            <ns3:atemp>22.0</ns3:atemp>
          </ns3:TrackPointExtension>
        </extensions>
      </trkpt>
      <trkpt lat="42.5264267809689044952392578125" lon="19.77396863512694835662841796875">
        <ele>1504</ele>
        <time>2026-06-18T11:37:59.000Z</time>
        <extensions>
          <ns3:TrackPointExtension>
            <ns3:atemp>22.0</ns3:atemp>
          </ns3:TrackPointExtension>
        </extensions>
      </trkpt>
      <trkpt lat="42.52641923725605010986328125" lon="19.77400551550090312957763671875">
        <ele>1503</ele>
        <time>2026-06-18T11:38:00.000Z</time>
        <extensions>
          <ns3:TrackPointExtension>
            <ns3:atemp>22.0</ns3:atemp>
          </ns3:TrackPointExtension>
        </extensions>
      </trkpt>
      <trkpt lat="42.52640155144035816192626953125" lon="19.77404088713228702545166015625">
        <ele>1502</ele>
        <time>2026-06-18T11:38:01.000Z</time>
        <extensions>
          <ns3:TrackPointExtension>
            <ns3:atemp>22.0</ns3:atemp>
          </ns3:TrackPointExtension>
        </extensions>
      </trkpt>
      <trkpt lat="42.52639937214553356170654296875" lon="19.77407240308821201324462890625">
        <ele>1500.800048828125</ele>
        <time>2026-06-18T11:38:02.000Z</time>
        <extensions>
          <ns3:TrackPointExtension>
            <ns3:atemp>22.0</ns3:atemp>
          </ns3:TrackPointExtension>
        </extensions>
      </trkpt>
      <trkpt lat="42.52640088088810443878173828125" lon="19.7741050086915493011474609375">
        <ele>1499.5999755859375</ele>
        <time>2026-06-18T11:38:03.000Z</time>
        <extensions>
          <ns3:TrackPointExtension>
            <ns3:atemp>22.0</ns3:atemp>
          </ns3:TrackPointExtension>
        </extensions>
      </trkpt>
      <trkpt lat="42.52640339545905590057373046875" lon="19.7741375304758548736572265625">
        <ele>1498.800048828125</ele>
        <time>2026-06-18T11:38:04.000Z</time>
        <extensions>
          <ns3:TrackPointExtension>
            <ns3:atemp>22.0</ns3:atemp>
          </ns3:TrackPointExtension>
        </extensions>
      </trkpt>
      <trkpt lat="42.52639920450747013092041015625" lon="19.774177260696887969970703125">
        <ele>1497.800048828125</ele>
        <time>2026-06-18T11:38:05.000Z</time>
        <extensions>
          <ns3:TrackPointExtension>
            <ns3:atemp>22.0</ns3:atemp>
          </ns3:TrackPointExtension>
        </extensions>
      </trkpt>
      <trkpt lat="42.52640222199261188507080078125" lon="19.77419846691191196441650390625">
        <ele>1497</ele>
        <time>2026-06-18T11:38:06.000Z</time>
        <extensions>
          <ns3:TrackPointExtension>
            <ns3:atemp>22.0</ns3:atemp>
          </ns3:TrackPointExtension>
        </extensions>
      </trkpt>
      <trkpt lat="42.52640943042933940887451171875" lon="19.77422897703945636749267578125">
        <ele>1496.199951171875</ele>
        <time>2026-06-18T11:38:07.000Z</time>
        <extensions>
          <ns3:TrackPointExtension>
            <ns3:atemp>22.0</ns3:atemp>
          </ns3:TrackPointExtension>
        </extensions>
      </trkpt>
      <trkpt lat="42.52640456892549991607666015625" lon="19.774257726967334747314453125">
        <ele>1495.5999755859375</ele>
        <time>2026-06-18T11:38:08.000Z</time>
        <extensions>
          <ns3:TrackPointExtension>
            <ns3:atemp>22.0</ns3:atemp>
          </ns3:TrackPointExtension>
        </extensions>
      </trkpt>
      <trkpt lat="42.526392750442028045654296875" lon="19.77428781799972057342529296875">
        <ele>1495.199951171875</ele>
        <time>2026-06-18T11:38:09.000Z</time>
        <extensions>
          <ns3:TrackPointExtension>
            <ns3:atemp>22.0</ns3:atemp>
          </ns3:TrackPointExtension>
        </extensions>
      </trkpt>
      <trkpt lat="42.52637472935020923614501953125" lon="19.77433584630489349365234375">
        <ele>1494.4000244140625</ele>
        <time>2026-06-18T11:38:10.000Z</time>
        <extensions>
          <ns3:TrackPointExtension>
            <ns3:atemp>22.0</ns3:atemp>
          </ns3:TrackPointExtension>
        </extensions>
      </trkpt>
      <trkpt lat="42.52636651508510112762451171875" lon="19.77438672445714473724365234375">
        <ele>1493.800048828125</ele>
        <time>2026-06-18T11:38:11.000Z</time>
        <extensions>
          <ns3:TrackPointExtension>
            <ns3:atemp>22.0</ns3:atemp>
          </ns3:TrackPointExtension>
        </extensions>
      </trkpt>
      <trkpt lat="42.52635293640196323394775390625" lon="19.77443399839103221893310546875">
        <ele>1493</ele>
        <time>2026-06-18T11:38:12.000Z</time>
        <extensions>
          <ns3:TrackPointExtension>
            <ns3:atemp>22.0</ns3:atemp>
          </ns3:TrackPointExtension>
        </extensions>
      </trkpt>
      <trkpt lat="42.5263503380119800567626953125" lon="19.774480350315570831298828125">
        <ele>1492</ele>
        <time>2026-06-18T11:38:13.000Z</time>
        <extensions>
          <ns3:TrackPointExtension>
            <ns3:atemp>22.0</ns3:atemp>
          </ns3:TrackPointExtension>
        </extensions>
      </trkpt>
      <trkpt lat="42.526339106261730194091796875" lon="19.77450256235897541046142578125">
        <ele>1491</ele>
        <time>2026-06-18T11:38:14.000Z</time>
        <extensions>
          <ns3:TrackPointExtension>
            <ns3:atemp>22.0</ns3:atemp>
          </ns3:TrackPointExtension>
        </extensions>
      </trkpt>
      <trkpt lat="42.5263204984366893768310546875" lon="19.77451815269887447357177734375">
        <ele>1490.199951171875</ele>
        <time>2026-06-18T11:38:15.000Z</time>
        <extensions>
          <ns3:TrackPointExtension>
            <ns3:atemp>22.0</ns3:atemp>
          </ns3:TrackPointExtension>
        </extensions>
      </trkpt>
      <trkpt lat="42.5263178162276744842529296875" lon="19.77454279549419879913330078125">
        <ele>1489.4000244140625</ele>
        <time>2026-06-18T11:38:16.000Z</time>
        <extensions>
          <ns3:TrackPointExtension>
            <ns3:atemp>22.0</ns3:atemp>
          </ns3:TrackPointExtension>
        </extensions>
      </trkpt>
      <trkpt lat="42.526323683559894561767578125" lon="19.77457095868885517120361328125">
        <ele>1488.5999755859375</ele>
        <time>2026-06-18T11:38:17.000Z</time>
        <extensions>
          <ns3:TrackPointExtension>
            <ns3:atemp>22.0</ns3:atemp>
          </ns3:TrackPointExtension>
        </extensions>
      </trkpt>
      <trkpt lat="42.52633466385304927825927734375" lon="19.7746213339269161224365234375">
        <ele>1487.800048828125</ele>
        <time>2026-06-18T11:38:18.000Z</time>
        <extensions>
          <ns3:TrackPointExtension>
            <ns3:atemp>22.0</ns3:atemp>
          </ns3:TrackPointExtension>
        </extensions>
      </trkpt>
      <trkpt lat="42.52633072435855865478515625" lon="19.77467422373592853546142578125">
        <ele>1487</ele>
        <time>2026-06-18T11:38:19.000Z</time>
        <extensions>
          <ns3:TrackPointExtension>
            <ns3:atemp>22.0</ns3:atemp>
          </ns3:TrackPointExtension>
        </extensions>
      </trkpt>
      <trkpt lat="42.526335418224334716796875" lon="19.774722754955291748046875">
        <ele>1485.800048828125</ele>
        <time>2026-06-18T11:38:20.000Z</time>
        <extensions>
          <ns3:TrackPointExtension>
            <ns3:atemp>22.0</ns3:atemp>
          </ns3:TrackPointExtension>
        </extensions>
      </trkpt>
      <trkpt lat="42.52634338103234767913818359375" lon="19.7747591324150562286376953125">
        <ele>1485</ele>
        <time>2026-06-18T11:38:21.000Z</time>
        <extensions>
          <ns3:TrackPointExtension>
            <ns3:atemp>22.0</ns3:atemp>
          </ns3:TrackPointExtension>
        </extensions>
      </trkpt>
      <trkpt lat="42.5263409502804279327392578125" lon="19.77478511631488800048828125">
        <ele>1484.4000244140625</ele>
        <time>2026-06-18T11:38:22.000Z</time>
        <extensions>
          <ns3:TrackPointExtension>
            <ns3:atemp>22.0</ns3:atemp>
          </ns3:TrackPointExtension>
        </extensions>
      </trkpt>
      <trkpt lat="42.5263369269669055938720703125" lon="19.77479861117899417877197265625">
        <ele>1484</ele>
        <time>2026-06-18T11:38:23.000Z</time>
        <extensions>
          <ns3:TrackPointExtension>
            <ns3:atemp>22.0</ns3:atemp>
          </ns3:TrackPointExtension>
        </extensions>
      </trkpt>
      <trkpt lat="42.52633717842400074005126953125" lon="19.77479986846446990966796875">
        <ele>1483.5999755859375</ele>
        <time>2026-06-18T11:38:24.000Z</time>
        <extensions>
          <ns3:TrackPointExtension>
            <ns3:atemp>22.0</ns3:atemp>
          </ns3:TrackPointExtension>
        </extensions>
      </trkpt>
      <trkpt lat="42.52633717842400074005126953125" lon="19.77479986846446990966796875">
        <ele>1483.4000244140625</ele>
        <time>2026-06-18T11:38:25.000Z</time>
        <extensions>
          <ns3:TrackPointExtension>
            <ns3:atemp>22.0</ns3:atemp>
          </ns3:TrackPointExtension>
        </extensions>
      </trkpt>
      <trkpt lat="42.52633717842400074005126953125" lon="19.77479986846446990966796875">
        <ele>1483.199951171875</ele>
        <time>2026-06-18T11:38:26.000Z</time>
        <extensions>
          <ns3:TrackPointExtension>
            <ns3:atemp>22.0</ns3:atemp>
          </ns3:TrackPointExtension>
        </extensions>
      </trkpt>
      <trkpt lat="42.52633717842400074005126953125" lon="19.77479986846446990966796875">
        <ele>1483</ele>
        <time>2026-06-18T11:38:27.000Z</time>
        <extensions>
          <ns3:TrackPointExtension>
            <ns3:atemp>22.0</ns3:atemp>
          </ns3:TrackPointExtension>
        </extensions>
      </trkpt>
      <trkpt lat="42.52633717842400074005126953125" lon="19.77479986846446990966796875">
        <ele>1482.5999755859375</ele>
        <time>2026-06-18T11:38:28.000Z</time>
        <extensions>
          <ns3:TrackPointExtension>
            <ns3:atemp>22.0</ns3:atemp>
          </ns3:TrackPointExtension>
        </extensions>
      </trkpt>
      <trkpt lat="42.52633717842400074005126953125" lon="19.77479986846446990966796875">
        <ele>1482.4000244140625</ele>
        <time>2026-06-18T11:38:29.000Z</time>
        <extensions>
          <ns3:TrackPointExtension>
            <ns3:atemp>22.0</ns3:atemp>
          </ns3:TrackPointExtension>
        </extensions>
      </trkpt>
      <trkpt lat="42.52633717842400074005126953125" lon="19.77479986846446990966796875">
        <ele>1482.199951171875</ele>
        <time>2026-06-18T11:38:30.000Z</time>
        <extensions>
          <ns3:TrackPointExtension>
            <ns3:atemp>22.0</ns3:atemp>
          </ns3:TrackPointExtension>
        </extensions>
      </trkpt>
      <trkpt lat="42.52633717842400074005126953125" lon="19.77479986846446990966796875">
        <ele>1482</ele>
        <time>2026-06-18T11:38:31.000Z</time>
        <extensions>
          <ns3:TrackPointExtension>
            <ns3:atemp>22.0</ns3:atemp>
          </ns3:TrackPointExtension>
        </extensions>
      </trkpt>
      <trkpt lat="42.52633717842400074005126953125" lon="19.77479986846446990966796875">
        <ele>1482</ele>
        <time>2026-06-18T11:38:32.000Z</time>
        <extensions>
          <ns3:TrackPointExtension>
            <ns3:atemp>22.0</ns3:atemp>
          </ns3:TrackPointExtension>
        </extensions>
      </trkpt>
      <trkpt lat="42.52633717842400074005126953125" lon="19.77479986846446990966796875">
        <ele>1482</ele>
        <time>2026-06-18T11:38:33.000Z</time>
        <extensions>
          <ns3:TrackPointExtension>
            <ns3:atemp>22.0</ns3:atemp>
          </ns3:TrackPointExtension>
        </extensions>
      </trkpt>
      <trkpt lat="42.52633717842400074005126953125" lon="19.77479986846446990966796875">
        <ele>1482</ele>
        <time>2026-06-18T11:38:34.000Z</time>
        <extensions>
          <ns3:TrackPointExtension>
            <ns3:atemp>22.0</ns3:atemp>
          </ns3:TrackPointExtension>
        </extensions>
      </trkpt>
      <trkpt lat="42.52633717842400074005126953125" lon="19.77479986846446990966796875">
        <ele>1482</ele>
        <time>2026-06-18T11:38:35.000Z</time>
        <extensions>
          <ns3:TrackPointExtension>
            <ns3:atemp>22.0</ns3:atemp>
          </ns3:TrackPointExtension>
        </extensions>
      </trkpt>
      <trkpt lat="42.5263382680714130401611328125" lon="19.77480397559702396392822265625">
        <ele>1482</ele>
        <time>2026-06-18T11:38:36.000Z</time>
        <extensions>
          <ns3:TrackPointExtension>
            <ns3:atemp>22.0</ns3:atemp>
          </ns3:TrackPointExtension>
        </extensions>
      </trkpt>
      <trkpt lat="42.52633332274854183197021484375" lon="19.7748302109539508819580078125">
        <ele>1481.800048828125</ele>
        <time>2026-06-18T11:38:37.000Z</time>
        <extensions>
          <ns3:TrackPointExtension>
            <ns3:atemp>22.0</ns3:atemp>
          </ns3:TrackPointExtension>
        </extensions>
      </trkpt>
      <trkpt lat="42.52631622366607189178466796875" lon="19.77485326118767261505126953125">
        <ele>1481.5999755859375</ele>
        <time>2026-06-18T11:38:38.000Z</time>
        <extensions>
          <ns3:TrackPointExtension>
            <ns3:atemp>22.0</ns3:atemp>
          </ns3:TrackPointExtension>
        </extensions>
      </trkpt>
      <trkpt lat="42.52630968578159809112548828125" lon="19.7748808376491069793701171875">
        <ele>1481.4000244140625</ele>
        <time>2026-06-18T11:38:39.000Z</time>
        <extensions>
          <ns3:TrackPointExtension>
            <ns3:atemp>21.0</ns3:atemp>
          </ns3:TrackPointExtension>
        </extensions>
      </trkpt>
      <trkpt lat="42.5263045728206634521484375" lon="19.7749011218547821044921875">
        <ele>1481</ele>
        <time>2026-06-18T11:38:40.000Z</time>
        <extensions>
          <ns3:TrackPointExtension>
            <ns3:atemp>21.0</ns3:atemp>
          </ns3:TrackPointExtension>
        </extensions>
      </trkpt>
      <trkpt lat="42.52629996277391910552978515625" lon="19.7749334760010242462158203125">
        <ele>1480.5999755859375</ele>
        <time>2026-06-18T11:38:41.000Z</time>
        <extensions>
          <ns3:TrackPointExtension>
            <ns3:atemp>21.0</ns3:atemp>
          </ns3:TrackPointExtension>
        </extensions>
      </trkpt>
      <trkpt lat="42.52629443071782588958740234375" lon="19.7749572806060314178466796875">
        <ele>1480.199951171875</ele>
        <time>2026-06-18T11:38:42.000Z</time>
        <extensions>
          <ns3:TrackPointExtension>
            <ns3:atemp>21.0</ns3:atemp>
          </ns3:TrackPointExtension>
        </extensions>
      </trkpt>
      <trkpt lat="42.52627716399729251861572265625" lon="19.77497513405978679656982421875">
        <ele>1479.5999755859375</ele>
        <time>2026-06-18T11:38:43.000Z</time>
        <extensions>
          <ns3:TrackPointExtension>
            <ns3:atemp>21.0</ns3:atemp>
          </ns3:TrackPointExtension>
        </extensions>
      </trkpt>
      <trkpt lat="42.5262723863124847412109375" lon="19.77500639855861663818359375">
        <ele>1479</ele>
        <time>2026-06-18T11:38:44.000Z</time>
        <extensions>
          <ns3:TrackPointExtension>
            <ns3:atemp>21.0</ns3:atemp>
          </ns3:TrackPointExtension>
        </extensions>
      </trkpt>
      <trkpt lat="42.52626928500831127166748046875" lon="19.77504126727581024169921875">
        <ele>1478.4000244140625</ele>
        <time>2026-06-18T11:38:45.000Z</time>
        <extensions>
          <ns3:TrackPointExtension>
            <ns3:atemp>21.0</ns3:atemp>
          </ns3:TrackPointExtension>
        </extensions>
      </trkpt>
      <trkpt lat="42.52626257948577404022216796875" lon="19.775080494582653045654296875">
        <ele>1477.5999755859375</ele>
        <time>2026-06-18T11:38:46.000Z</time>
        <extensions>
          <ns3:TrackPointExtension>
            <ns3:atemp>21.0</ns3:atemp>
          </ns3:TrackPointExtension>
        </extensions>
      </trkpt>
      <trkpt lat="42.52625872381031513214111328125" lon="19.7751009464263916015625">
        <ele>1477</ele>
        <time>2026-06-18T11:38:47.000Z</time>
        <extensions>
          <ns3:TrackPointExtension>
            <ns3:atemp>21.0</ns3:atemp>
          </ns3:TrackPointExtension>
        </extensions>
      </trkpt>
      <trkpt lat="42.5262618251144886016845703125" lon="19.77510295808315277099609375">
        <ele>1476.199951171875</ele>
        <time>2026-06-18T11:38:48.000Z</time>
        <extensions>
          <ns3:TrackPointExtension>
            <ns3:atemp>21.0</ns3:atemp>
          </ns3:TrackPointExtension>
        </extensions>
      </trkpt>
      <trkpt lat="42.526262663304805755615234375" lon="19.7750977613031864166259765625">
        <ele>1475.5999755859375</ele>
        <time>2026-06-18T11:38:49.000Z</time>
        <extensions>
          <ns3:TrackPointExtension>
            <ns3:atemp>21.0</ns3:atemp>
          </ns3:TrackPointExtension>
        </extensions>
      </trkpt>
      <trkpt lat="42.52625922672450542449951171875" lon="19.77509633637964725494384765625">
        <ele>1475.199951171875</ele>
        <time>2026-06-18T11:38:50.000Z</time>
        <extensions>
          <ns3:TrackPointExtension>
            <ns3:atemp>21.0</ns3:atemp>
          </ns3:TrackPointExtension>
        </extensions>
      </trkpt>
      <trkpt lat="42.52625922672450542449951171875" lon="19.77509633637964725494384765625">
        <ele>1475</ele>
        <time>2026-06-18T11:38:51.000Z</time>
        <extensions>
          <ns3:TrackPointExtension>
            <ns3:atemp>21.0</ns3:atemp>
          </ns3:TrackPointExtension>
        </extensions>
      </trkpt>
      <trkpt lat="42.52625922672450542449951171875" lon="19.77509633637964725494384765625">
        <ele>1475</ele>
        <time>2026-06-18T11:38:52.000Z</time>
        <extensions>
          <ns3:TrackPointExtension>
            <ns3:atemp>21.0</ns3:atemp>
          </ns3:TrackPointExtension>
        </extensions>
      </trkpt>
      <trkpt lat="42.52625922672450542449951171875" lon="19.77509633637964725494384765625">
        <ele>1474.800048828125</ele>
        <time>2026-06-18T11:38:53.000Z</time>
        <extensions>
          <ns3:TrackPointExtension>
            <ns3:atemp>21.0</ns3:atemp>
          </ns3:TrackPointExtension>
        </extensions>
      </trkpt>
      <trkpt lat="42.52625922672450542449951171875" lon="19.77509633637964725494384765625">
        <ele>1474.800048828125</ele>
        <time>2026-06-18T11:38:54.000Z</time>
        <extensions>
          <ns3:TrackPointExtension>
            <ns3:atemp>21.0</ns3:atemp>
          </ns3:TrackPointExtension>
        </extensions>
      </trkpt>
      <trkpt lat="42.52625922672450542449951171875" lon="19.77509633637964725494384765625">
        <ele>1474.5999755859375</ele>
        <time>2026-06-18T11:38:55.000Z</time>
        <extensions>
          <ns3:TrackPointExtension>
            <ns3:atemp>21.0</ns3:atemp>
          </ns3:TrackPointExtension>
        </extensions>
      </trkpt>
      <trkpt lat="42.52625922672450542449951171875" lon="19.77509633637964725494384765625">
        <ele>1474.5999755859375</ele>
        <time>2026-06-18T11:38:56.000Z</time>
        <extensions>
          <ns3:TrackPointExtension>
            <ns3:atemp>21.0</ns3:atemp>
          </ns3:TrackPointExtension>
        </extensions>
      </trkpt>
      <trkpt lat="42.52625922672450542449951171875" lon="19.77509633637964725494384765625">
        <ele>1474.5999755859375</ele>
        <time>2026-06-18T11:38:57.000Z</time>
        <extensions>
          <ns3:TrackPointExtension>
            <ns3:atemp>21.0</ns3:atemp>
          </ns3:TrackPointExtension>
        </extensions>
      </trkpt>
      <trkpt lat="42.52625922672450542449951171875" lon="19.77509633637964725494384765625">
        <ele>1474.4000244140625</ele>
        <time>2026-06-18T11:38:58.000Z</time>
        <extensions>
          <ns3:TrackPointExtension>
            <ns3:atemp>21.0</ns3:atemp>
          </ns3:TrackPointExtension>
        </extensions>
      </trkpt>
      <trkpt lat="42.52625922672450542449951171875" lon="19.77509633637964725494384765625">
        <ele>1474.4000244140625</ele>
        <time>2026-06-18T11:38:59.000Z</time>
        <extensions>
          <ns3:TrackPointExtension>
            <ns3:atemp>21.0</ns3:atemp>
          </ns3:TrackPointExtension>
        </extensions>
      </trkpt>
      <trkpt lat="42.52625922672450542449951171875" lon="19.77509633637964725494384765625">
        <ele>1474.4000244140625</ele>
        <time>2026-06-18T11:39:00.000Z</time>
        <extensions>
          <ns3:TrackPointExtension>
            <ns3:atemp>21.0</ns3:atemp>
          </ns3:TrackPointExtension>
        </extensions>
      </trkpt>
      <trkpt lat="42.52625922672450542449951171875" lon="19.77509633637964725494384765625">
        <ele>1474.4000244140625</ele>
        <time>2026-06-18T11:39:01.000Z</time>
        <extensions>
          <ns3:TrackPointExtension>
            <ns3:atemp>21.0</ns3:atemp>
          </ns3:TrackPointExtension>
        </extensions>
      </trkpt>
      <trkpt lat="42.52625922672450542449951171875" lon="19.77509633637964725494384765625">
        <ele>1474.4000244140625</ele>
        <time>2026-06-18T11:39:02.000Z</time>
        <extensions>
          <ns3:TrackPointExtension>
            <ns3:atemp>21.0</ns3:atemp>
          </ns3:TrackPointExtension>
        </extensions>
      </trkpt>
      <trkpt lat="42.52625587396323680877685546875" lon="19.77509901858866214752197265625">
        <ele>1474.4000244140625</ele>
        <time>2026-06-18T11:39:03.000Z</time>
        <extensions>
          <ns3:TrackPointExtension>
            <ns3:atemp>21.0</ns3:atemp>
          </ns3:TrackPointExtension>
        </extensions>
      </trkpt>
      <trkpt lat="42.52625922672450542449951171875" lon="19.77509633637964725494384765625">
        <ele>1474.4000244140625</ele>
        <time>2026-06-18T11:39:04.000Z</time>
        <extensions>
          <ns3:TrackPointExtension>
            <ns3:atemp>21.0</ns3:atemp>
          </ns3:TrackPointExtension>
        </extensions>
      </trkpt>
      <trkpt lat="42.52625922672450542449951171875" lon="19.77509633637964725494384765625">
        <ele>1474.5999755859375</ele>
        <time>2026-06-18T11:39:05.000Z</time>
        <extensions>
          <ns3:TrackPointExtension>
            <ns3:atemp>21.0</ns3:atemp>
          </ns3:TrackPointExtension>
        </extensions>
      </trkpt>
      <trkpt lat="42.52625922672450542449951171875" lon="19.77509633637964725494384765625">
        <ele>1474.5999755859375</ele>
        <time>2026-06-18T11:39:06.000Z</time>
        <extensions>
          <ns3:TrackPointExtension>
            <ns3:atemp>21.0</ns3:atemp>
          </ns3:TrackPointExtension>
        </extensions>
      </trkpt>
      <trkpt lat="42.52625922672450542449951171875" lon="19.77509633637964725494384765625">
        <ele>1474.5999755859375</ele>
        <time>2026-06-18T11:39:07.000Z</time>
        <extensions>
          <ns3:TrackPointExtension>
            <ns3:atemp>21.0</ns3:atemp>
          </ns3:TrackPointExtension>
        </extensions>
      </trkpt>
      <trkpt lat="42.52625922672450542449951171875" lon="19.77509633637964725494384765625">
        <ele>1474.5999755859375</ele>
        <time>2026-06-18T11:39:08.000Z</time>
        <extensions>
          <ns3:TrackPointExtension>
            <ns3:atemp>21.0</ns3:atemp>
          </ns3:TrackPointExtension>
        </extensions>
      </trkpt>
      <trkpt lat="42.52625922672450542449951171875" lon="19.77509633637964725494384765625">
        <ele>1474.5999755859375</ele>
        <time>2026-06-18T11:39:09.000Z</time>
        <extensions>
          <ns3:TrackPointExtension>
            <ns3:atemp>21.0</ns3:atemp>
          </ns3:TrackPointExtension>
        </extensions>
      </trkpt>
      <trkpt lat="42.52625922672450542449951171875" lon="19.77509633637964725494384765625">
        <ele>1474.5999755859375</ele>
        <time>2026-06-18T11:39:10.000Z</time>
        <extensions>
          <ns3:TrackPointExtension>
            <ns3:atemp>21.0</ns3:atemp>
          </ns3:TrackPointExtension>
        </extensions>
      </trkpt>
      <trkpt lat="42.52625922672450542449951171875" lon="19.77509633637964725494384765625">
        <ele>1474.5999755859375</ele>
        <time>2026-06-18T11:39:11.000Z</time>
        <extensions>
          <ns3:TrackPointExtension>
            <ns3:atemp>21.0</ns3:atemp>
          </ns3:TrackPointExtension>
        </extensions>
      </trkpt>
      <trkpt lat="42.52625922672450542449951171875" lon="19.77509633637964725494384765625">
        <ele>1474.5999755859375</ele>
        <time>2026-06-18T11:39:12.000Z</time>
        <extensions>
          <ns3:TrackPointExtension>
            <ns3:atemp>21.0</ns3:atemp>
          </ns3:TrackPointExtension>
        </extensions>
      </trkpt>
      <trkpt lat="42.52624866552650928497314453125" lon="19.77510773576796054840087890625">
        <ele>1474.5999755859375</ele>
        <time>2026-06-18T11:39:13.000Z</time>
        <extensions>
          <ns3:TrackPointExtension>
            <ns3:atemp>21.0</ns3:atemp>
          </ns3:TrackPointExtension>
        </extensions>
      </trkpt>
      <trkpt lat="42.52624866552650928497314453125" lon="19.7751081548631191253662109375">
        <ele>1474.5999755859375</ele>
        <time>2026-06-18T11:39:14.000Z</time>
        <extensions>
          <ns3:TrackPointExtension>
            <ns3:atemp>21.0</ns3:atemp>
          </ns3:TrackPointExtension>
        </extensions>
      </trkpt>
      <trkpt lat="42.52624866552650928497314453125" lon="19.7751081548631191253662109375">
        <ele>1474.800048828125</ele>
        <time>2026-06-18T11:39:15.000Z</time>
        <extensions>
          <ns3:TrackPointExtension>
            <ns3:atemp>21.0</ns3:atemp>
          </ns3:TrackPointExtension>
        </extensions>
      </trkpt>
      <trkpt lat="42.52624866552650928497314453125" lon="19.7751081548631191253662109375">
        <ele>1474.800048828125</ele>
        <time>2026-06-18T11:39:16.000Z</time>
        <extensions>
          <ns3:TrackPointExtension>
            <ns3:atemp>21.0</ns3:atemp>
          </ns3:TrackPointExtension>
        </extensions>
      </trkpt>
      <trkpt lat="42.52624866552650928497314453125" lon="19.7751081548631191253662109375">
        <ele>1474.800048828125</ele>
        <time>2026-06-18T11:39:17.000Z</time>
        <extensions>
          <ns3:TrackPointExtension>
            <ns3:atemp>21.0</ns3:atemp>
          </ns3:TrackPointExtension>
        </extensions>
      </trkpt>
      <trkpt lat="42.52624866552650928497314453125" lon="19.7751081548631191253662109375">
        <ele>1474.800048828125</ele>
        <time>2026-06-18T11:39:18.000Z</time>
        <extensions>
          <ns3:TrackPointExtension>
            <ns3:atemp>21.0</ns3:atemp>
          </ns3:TrackPointExtension>
        </extensions>
      </trkpt>
      <trkpt lat="42.52624866552650928497314453125" lon="19.7751081548631191253662109375">
        <ele>1474.800048828125</ele>
        <time>2026-06-18T11:39:19.000Z</time>
        <extensions>
          <ns3:TrackPointExtension>
            <ns3:atemp>21.0</ns3:atemp>
          </ns3:TrackPointExtension>
        </extensions>
      </trkpt>
      <trkpt lat="42.52624866552650928497314453125" lon="19.7751081548631191253662109375">
        <ele>1474.800048828125</ele>
        <time>2026-06-18T11:39:20.000Z</time>
        <extensions>
          <ns3:TrackPointExtension>
            <ns3:atemp>21.0</ns3:atemp>
          </ns3:TrackPointExtension>
        </extensions>
      </trkpt>
      <trkpt lat="42.52624866552650928497314453125" lon="19.7751081548631191253662109375">
        <ele>1474.800048828125</ele>
        <time>2026-06-18T11:39:21.000Z</time>
        <extensions>
          <ns3:TrackPointExtension>
            <ns3:atemp>21.0</ns3:atemp>
          </ns3:TrackPointExtension>
        </extensions>
      </trkpt>
      <trkpt lat="42.52624866552650928497314453125" lon="19.7751081548631191253662109375">
        <ele>1474.800048828125</ele>
        <time>2026-06-18T11:39:22.000Z</time>
        <extensions>
          <ns3:TrackPointExtension>
            <ns3:atemp>21.0</ns3:atemp>
          </ns3:TrackPointExtension>
        </extensions>
      </trkpt>
      <trkpt lat="42.52624866552650928497314453125" lon="19.7751081548631191253662109375">
        <ele>1474.800048828125</ele>
        <time>2026-06-18T11:39:23.000Z</time>
        <extensions>
          <ns3:TrackPointExtension>
            <ns3:atemp>21.0</ns3:atemp>
          </ns3:TrackPointExtension>
        </extensions>
      </trkpt>
      <trkpt lat="42.52624866552650928497314453125" lon="19.7751081548631191253662109375">
        <ele>1474.800048828125</ele>
        <time>2026-06-18T11:39:24.000Z</time>
        <extensions>
          <ns3:TrackPointExtension>
            <ns3:atemp>21.0</ns3:atemp>
          </ns3:TrackPointExtension>
        </extensions>
      </trkpt>
      <trkpt lat="42.52624866552650928497314453125" lon="19.7751081548631191253662109375">
        <ele>1474.800048828125</ele>
        <time>2026-06-18T11:39:25.000Z</time>
        <extensions>
          <ns3:TrackPointExtension>
            <ns3:atemp>21.0</ns3:atemp>
          </ns3:TrackPointExtension>
        </extensions>
      </trkpt>
      <trkpt lat="42.52624866552650928497314453125" lon="19.7751081548631191253662109375">
        <ele>1474.800048828125</ele>
        <time>2026-06-18T11:39:26.000Z</time>
        <extensions>
          <ns3:TrackPointExtension>
            <ns3:atemp>21.0</ns3:atemp>
          </ns3:TrackPointExtension>
        </extensions>
      </trkpt>
      <trkpt lat="42.52624866552650928497314453125" lon="19.7751081548631191253662109375">
        <ele>1474.800048828125</ele>
        <time>2026-06-18T11:39:27.000Z</time>
        <extensions>
          <ns3:TrackPointExtension>
            <ns3:atemp>21.0</ns3:atemp>
          </ns3:TrackPointExtension>
        </extensions>
      </trkpt>
      <trkpt lat="42.52624866552650928497314453125" lon="19.7751081548631191253662109375">
        <ele>1474.5999755859375</ele>
        <time>2026-06-18T11:39:28.000Z</time>
        <extensions>
          <ns3:TrackPointExtension>
            <ns3:atemp>21.0</ns3:atemp>
          </ns3:TrackPointExtension>
        </extensions>
      </trkpt>
      <trkpt lat="42.52624866552650928497314453125" lon="19.7751081548631191253662109375">
        <ele>1474.5999755859375</ele>
        <time>2026-06-18T11:39:29.000Z</time>
        <extensions>
          <ns3:TrackPointExtension>
            <ns3:atemp>21.0</ns3:atemp>
          </ns3:TrackPointExtension>
        </extensions>
      </trkpt>
      <trkpt lat="42.52624866552650928497314453125" lon="19.7751081548631191253662109375">
        <ele>1474.5999755859375</ele>
        <time>2026-06-18T11:39:30.000Z</time>
        <extensions>
          <ns3:TrackPointExtension>
            <ns3:atemp>21.0</ns3:atemp>
          </ns3:TrackPointExtension>
        </extensions>
      </trkpt>
      <trkpt lat="42.52624866552650928497314453125" lon="19.7751081548631191253662109375">
        <ele>1474.5999755859375</ele>
        <time>2026-06-18T11:39:31.000Z</time>
        <extensions>
          <ns3:TrackPointExtension>
            <ns3:atemp>21.0</ns3:atemp>
          </ns3:TrackPointExtension>
        </extensions>
      </trkpt>
      <trkpt lat="42.52624866552650928497314453125" lon="19.7751081548631191253662109375">
        <ele>1474.5999755859375</ele>
        <time>2026-06-18T11:39:32.000Z</time>
        <extensions>
          <ns3:TrackPointExtension>
            <ns3:atemp>21.0</ns3:atemp>
          </ns3:TrackPointExtension>
        </extensions>
      </trkpt>
      <trkpt lat="42.52624866552650928497314453125" lon="19.7751081548631191253662109375">
        <ele>1474.5999755859375</ele>
        <time>2026-06-18T11:39:33.000Z</time>
        <extensions>
          <ns3:TrackPointExtension>
            <ns3:atemp>21.0</ns3:atemp>
          </ns3:TrackPointExtension>
        </extensions>
      </trkpt>
      <trkpt lat="42.52624866552650928497314453125" lon="19.7751081548631191253662109375">
        <ele>1474.5999755859375</ele>
        <time>2026-06-18T11:39:34.000Z</time>
        <extensions>
          <ns3:TrackPointExtension>
            <ns3:atemp>21.0</ns3:atemp>
          </ns3:TrackPointExtension>
        </extensions>
      </trkpt>
      <trkpt lat="42.52624866552650928497314453125" lon="19.7751081548631191253662109375">
        <ele>1474.4000244140625</ele>
        <time>2026-06-18T11:39:35.000Z</time>
        <extensions>
          <ns3:TrackPointExtension>
            <ns3:atemp>21.0</ns3:atemp>
          </ns3:TrackPointExtension>
        </extensions>
      </trkpt>
      <trkpt lat="42.52624866552650928497314453125" lon="19.7751081548631191253662109375">
        <ele>1474.4000244140625</ele>
        <time>2026-06-18T11:39:36.000Z</time>
        <extensions>
          <ns3:TrackPointExtension>
            <ns3:atemp>21.0</ns3:atemp>
          </ns3:TrackPointExtension>
        </extensions>
      </trkpt>
      <trkpt lat="42.52624866552650928497314453125" lon="19.7751081548631191253662109375">
        <ele>1474.4000244140625</ele>
        <time>2026-06-18T11:39:37.000Z</time>
        <extensions>
          <ns3:TrackPointExtension>
            <ns3:atemp>21.0</ns3:atemp>
          </ns3:TrackPointExtension>
        </extensions>
      </trkpt>
      <trkpt lat="42.52624866552650928497314453125" lon="19.7751081548631191253662109375">
        <ele>1474.4000244140625</ele>
        <time>2026-06-18T11:39:38.000Z</time>
        <extensions>
          <ns3:TrackPointExtension>
            <ns3:atemp>21.0</ns3:atemp>
          </ns3:TrackPointExtension>
        </extensions>
      </trkpt>
      <trkpt lat="42.52624866552650928497314453125" lon="19.7751081548631191253662109375">
        <ele>1474.4000244140625</ele>
        <time>2026-06-18T11:39:39.000Z</time>
        <extensions>
          <ns3:TrackPointExtension>
            <ns3:atemp>21.0</ns3:atemp>
          </ns3:TrackPointExtension>
        </extensions>
      </trkpt>
      <trkpt lat="42.52624866552650928497314453125" lon="19.7751081548631191253662109375">
        <ele>1474.4000244140625</ele>
        <time>2026-06-18T11:39:40.000Z</time>
        <extensions>
          <ns3:TrackPointExtension>
            <ns3:atemp>21.0</ns3:atemp>
          </ns3:TrackPointExtension>
        </extensions>
      </trkpt>
      <trkpt lat="42.52624866552650928497314453125" lon="19.7751081548631191253662109375">
        <ele>1474.4000244140625</ele>
        <time>2026-06-18T11:39:41.000Z</time>
        <extensions>
          <ns3:TrackPointExtension>
            <ns3:atemp>21.0</ns3:atemp>
          </ns3:TrackPointExtension>
        </extensions>
      </trkpt>
      <trkpt lat="42.52624866552650928497314453125" lon="19.7751081548631191253662109375">
        <ele>1474.4000244140625</ele>
        <time>2026-06-18T11:39:42.000Z</time>
        <extensions>
          <ns3:TrackPointExtension>
            <ns3:atemp>21.0</ns3:atemp>
          </ns3:TrackPointExtension>
        </extensions>
      </trkpt>
      <trkpt lat="42.52624866552650928497314453125" lon="19.7751081548631191253662109375">
        <ele>1474.4000244140625</ele>
        <time>2026-06-18T11:39:43.000Z</time>
        <extensions>
          <ns3:TrackPointExtension>
            <ns3:atemp>21.0</ns3:atemp>
          </ns3:TrackPointExtension>
        </extensions>
      </trkpt>
      <trkpt lat="42.52624866552650928497314453125" lon="19.7751081548631191253662109375">
        <ele>1474.4000244140625</ele>
        <time>2026-06-18T11:39:44.000Z</time>
        <extensions>
          <ns3:TrackPointExtension>
            <ns3:atemp>22.0</ns3:atemp>
          </ns3:TrackPointExtension>
        </extensions>
      </trkpt>
      <trkpt lat="42.52624866552650928497314453125" lon="19.7751081548631191253662109375">
        <ele>1474.199951171875</ele>
        <time>2026-06-18T11:39:45.000Z</time>
        <extensions>
          <ns3:TrackPointExtension>
            <ns3:atemp>22.0</ns3:atemp>
          </ns3:TrackPointExtension>
        </extensions>
      </trkpt>
      <trkpt lat="42.526249922811985015869140625" lon="19.77510471828281879425048828125">
        <ele>1474.199951171875</ele>
        <time>2026-06-18T11:39:46.000Z</time>
        <extensions>
          <ns3:TrackPointExtension>
            <ns3:atemp>22.0</ns3:atemp>
          </ns3:TrackPointExtension>
        </extensions>
      </trkpt>
      <trkpt lat="42.52624548040330410003662109375" lon="19.775128103792667388916015625">
        <ele>1474</ele>
        <time>2026-06-18T11:39:47.000Z</time>
        <extensions>
          <ns3:TrackPointExtension>
            <ns3:atemp>22.0</ns3:atemp>
          </ns3:TrackPointExtension>
        </extensions>
      </trkpt>
      <trkpt lat="42.52623860724270343780517578125" lon="19.7751507349312305450439453125">
        <ele>1474</ele>
        <time>2026-06-18T11:39:48.000Z</time>
        <extensions>
          <ns3:TrackPointExtension>
            <ns3:atemp>22.0</ns3:atemp>
          </ns3:TrackPointExtension>
        </extensions>
      </trkpt>
      <trkpt lat="42.52623307518661022186279296875" lon="19.775187112390995025634765625">
        <ele>1474</ele>
        <time>2026-06-18T11:39:49.000Z</time>
        <extensions>
          <ns3:TrackPointExtension>
            <ns3:atemp>22.0</ns3:atemp>
          </ns3:TrackPointExtension>
        </extensions>
      </trkpt>
      <trkpt lat="42.52623843960464000701904296875" lon="19.7752124257385730743408203125">
        <ele>1473.800048828125</ele>
        <time>2026-06-18T11:39:50.000Z</time>
        <extensions>
          <ns3:TrackPointExtension>
            <ns3:atemp>22.0</ns3:atemp>
          </ns3:TrackPointExtension>
        </extensions>
      </trkpt>
      <trkpt lat="42.5262299738824367523193359375" lon="19.77524570189416408538818359375">
        <ele>1473.4000244140625</ele>
        <time>2026-06-18T11:39:51.000Z</time>
        <extensions>
          <ns3:TrackPointExtension>
            <ns3:atemp>22.0</ns3:atemp>
          </ns3:TrackPointExtension>
        </extensions>
      </trkpt>
      <trkpt lat="42.5262209214270114898681640625" lon="19.7752757929265499114990234375">
        <ele>1472.5999755859375</ele>
        <time>2026-06-18T11:39:52.000Z</time>
        <extensions>
          <ns3:TrackPointExtension>
            <ns3:atemp>21.0</ns3:atemp>
          </ns3:TrackPointExtension>
        </extensions>
      </trkpt>
      <trkpt lat="42.5262187421321868896484375" lon="19.77530236355960369110107421875">
        <ele>1471.5999755859375</ele>
        <time>2026-06-18T11:39:53.000Z</time>
        <extensions>
          <ns3:TrackPointExtension>
            <ns3:atemp>21.0</ns3:atemp>
          </ns3:TrackPointExtension>
        </extensions>
      </trkpt>
      <trkpt lat="42.526217401027679443359375" lon="19.7753217257559299468994140625">
        <ele>1471.199951171875</ele>
        <time>2026-06-18T11:39:54.000Z</time>
        <extensions>
          <ns3:TrackPointExtension>
            <ns3:atemp>21.0</ns3:atemp>
          </ns3:TrackPointExtension>
        </extensions>
      </trkpt>
      <trkpt lat="42.5262158922851085662841796875" lon="19.7753425128757953643798828125">
        <ele>1470.5999755859375</ele>
        <time>2026-06-18T11:39:55.000Z</time>
        <extensions>
          <ns3:TrackPointExtension>
            <ns3:atemp>21.0</ns3:atemp>
          </ns3:TrackPointExtension>
        </extensions>
      </trkpt>
      <trkpt lat="42.52621647901833057403564453125" lon="19.77537662722170352935791015625">
        <ele>1469.800048828125</ele>
        <time>2026-06-18T11:39:56.000Z</time>
        <extensions>
          <ns3:TrackPointExtension>
            <ns3:atemp>21.0</ns3:atemp>
          </ns3:TrackPointExtension>
        </extensions>
      </trkpt>
      <trkpt lat="42.52621698193252086639404296875" lon="19.775412082672119140625">
        <ele>1469.199951171875</ele>
        <time>2026-06-18T11:39:57.000Z</time>
        <extensions>
          <ns3:TrackPointExtension>
            <ns3:atemp>21.0</ns3:atemp>
          </ns3:TrackPointExtension>
        </extensions>
      </trkpt>
      <trkpt lat="42.5262101925909519195556640625" lon="19.7754330374300479888916015625">
        <ele>1468.800048828125</ele>
        <time>2026-06-18T11:39:58.000Z</time>
        <extensions>
          <ns3:TrackPointExtension>
            <ns3:atemp>21.0</ns3:atemp>
          </ns3:TrackPointExtension>
        </extensions>
      </trkpt>
      <trkpt lat="42.52620424143970012664794921875" lon="19.77545700967311859130859375">
        <ele>1468.199951171875</ele>
        <time>2026-06-18T11:39:59.000Z</time>
        <extensions>
          <ns3:TrackPointExtension>
            <ns3:atemp>21.0</ns3:atemp>
          </ns3:TrackPointExtension>
        </extensions>
      </trkpt>
      <trkpt lat="42.52619954757392406463623046875" lon="19.77548140101134777069091796875">
        <ele>1467.4000244140625</ele>
        <time>2026-06-18T11:40:00.000Z</time>
        <extensions>
          <ns3:TrackPointExtension>
            <ns3:atemp>21.0</ns3:atemp>
          </ns3:TrackPointExtension>
        </extensions>
      </trkpt>
      <trkpt lat="42.52619753591716289520263671875" lon="19.77550772018730640411376953125">
        <ele>1466.800048828125</ele>
        <time>2026-06-18T11:40:01.000Z</time>
        <extensions>
          <ns3:TrackPointExtension>
            <ns3:atemp>21.0</ns3:atemp>
          </ns3:TrackPointExtension>
        </extensions>
      </trkpt>
      <trkpt lat="42.52619937993586063385009765625" lon="19.77553755976259708404541015625">
        <ele>1466.199951171875</ele>
        <time>2026-06-18T11:40:02.000Z</time>
        <extensions>
          <ns3:TrackPointExtension>
            <ns3:atemp>21.0</ns3:atemp>
          </ns3:TrackPointExtension>
        </extensions>
      </trkpt>
      <trkpt lat="42.5261967815458774566650390625" lon="19.7755708359181880950927734375">
        <ele>1465.5999755859375</ele>
        <time>2026-06-18T11:40:03.000Z</time>
        <extensions>
          <ns3:TrackPointExtension>
            <ns3:atemp>21.0</ns3:atemp>
          </ns3:TrackPointExtension>
        </extensions>
      </trkpt>
      <trkpt lat="42.526193596422672271728515625" lon="19.7755986638367176055908203125">
        <ele>1465.199951171875</ele>
        <time>2026-06-18T11:40:04.000Z</time>
        <extensions>
          <ns3:TrackPointExtension>
            <ns3:atemp>21.0</ns3:atemp>
          </ns3:TrackPointExtension>
        </extensions>
      </trkpt>
      <trkpt lat="42.5261863879859447479248046875" lon="19.77562892250716686248779296875">
        <ele>1464.5999755859375</ele>
        <time>2026-06-18T11:40:05.000Z</time>
        <extensions>
          <ns3:TrackPointExtension>
            <ns3:atemp>21.0</ns3:atemp>
          </ns3:TrackPointExtension>
        </extensions>
      </trkpt>
      <trkpt lat="42.526175491511821746826171875" lon="19.77566060610115528106689453125">
        <ele>1463.800048828125</ele>
        <time>2026-06-18T11:40:06.000Z</time>
        <extensions>
          <ns3:TrackPointExtension>
            <ns3:atemp>21.0</ns3:atemp>
          </ns3:TrackPointExtension>
        </extensions>
      </trkpt>
      <trkpt lat="42.52616333775222301483154296875" lon="19.7756922058761119842529296875">
        <ele>1463.199951171875</ele>
        <time>2026-06-18T11:40:07.000Z</time>
        <extensions>
          <ns3:TrackPointExtension>
            <ns3:atemp>21.0</ns3:atemp>
          </ns3:TrackPointExtension>
        </extensions>
      </trkpt>
      <trkpt lat="42.52614724449813365936279296875" lon="19.77571173571050167083740234375">
        <ele>1462.4000244140625</ele>
        <time>2026-06-18T11:40:08.000Z</time>
        <extensions>
          <ns3:TrackPointExtension>
            <ns3:atemp>21.0</ns3:atemp>
          </ns3:TrackPointExtension>
        </extensions>
      </trkpt>
      <trkpt lat="42.52613165415823459625244140625" lon="19.7757371328771114349365234375">
        <ele>1461.5999755859375</ele>
        <time>2026-06-18T11:40:09.000Z</time>
        <extensions>
          <ns3:TrackPointExtension>
            <ns3:atemp>21.0</ns3:atemp>
          </ns3:TrackPointExtension>
        </extensions>
      </trkpt>
      <trkpt lat="42.52611421979963779449462890625" lon="19.77575900964438915252685546875">
        <ele>1460.800048828125</ele>
        <time>2026-06-18T11:40:10.000Z</time>
        <extensions>
          <ns3:TrackPointExtension>
            <ns3:atemp>21.0</ns3:atemp>
          </ns3:TrackPointExtension>
        </extensions>
      </trkpt>
      <trkpt lat="42.526091672480106353759765625" lon="19.77577040903270244598388671875">
        <ele>1460</ele>
        <time>2026-06-18T11:40:11.000Z</time>
        <extensions>
          <ns3:TrackPointExtension>
            <ns3:atemp>21.0</ns3:atemp>
          </ns3:TrackPointExtension>
        </extensions>
      </trkpt>
      <trkpt lat="42.526077926158905029296875" lon="19.77577577345073223114013671875">
        <ele>1458.800048828125</ele>
        <time>2026-06-18T11:40:12.000Z</time>
        <extensions>
          <ns3:TrackPointExtension>
            <ns3:atemp>21.0</ns3:atemp>
          </ns3:TrackPointExtension>
        </extensions>
      </trkpt>
      <trkpt lat="42.52605604939162731170654296875" lon="19.77578650228679180145263671875">
        <ele>1458</ele>
        <time>2026-06-18T11:40:13.000Z</time>
        <extensions>
          <ns3:TrackPointExtension>
            <ns3:atemp>21.0</ns3:atemp>
          </ns3:TrackPointExtension>
        </extensions>
      </trkpt>
      <trkpt lat="42.526045739650726318359375" lon="19.7758072055876255035400390625">
        <ele>1457.199951171875</ele>
        <time>2026-06-18T11:40:14.000Z</time>
        <extensions>
          <ns3:TrackPointExtension>
            <ns3:atemp>21.0</ns3:atemp>
          </ns3:TrackPointExtension>
        </extensions>
      </trkpt>
      <trkpt lat="42.5260425545275211334228515625" lon="19.77582179009914398193359375">
        <ele>1456.4000244140625</ele>
        <time>2026-06-18T11:40:15.000Z</time>
        <extensions>
          <ns3:TrackPointExtension>
            <ns3:atemp>21.0</ns3:atemp>
          </ns3:TrackPointExtension>
        </extensions>
      </trkpt>
      <trkpt lat="42.5260425545275211334228515625" lon="19.77584249339997768402099609375">
        <ele>1455.5999755859375</ele>
        <time>2026-06-18T11:40:16.000Z</time>
        <extensions>
          <ns3:TrackPointExtension>
            <ns3:atemp>21.0</ns3:atemp>
          </ns3:TrackPointExtension>
        </extensions>
      </trkpt>
      <trkpt lat="42.5260398723185062408447265625" lon="19.7758655436336994171142578125">
        <ele>1455</ele>
        <time>2026-06-18T11:40:17.000Z</time>
        <extensions>
          <ns3:TrackPointExtension>
            <ns3:atemp>21.0</ns3:atemp>
          </ns3:TrackPointExtension>
        </extensions>
      </trkpt>
      <trkpt lat="42.526040039956569671630859375" lon="19.7758963890373706817626953125">
        <ele>1454</ele>
        <time>2026-06-18T11:40:18.000Z</time>
        <extensions>
          <ns3:TrackPointExtension>
            <ns3:atemp>21.0</ns3:atemp>
          </ns3:TrackPointExtension>
        </extensions>
      </trkpt>
      <trkpt lat="42.5260335020720958709716796875" lon="19.77592782117426395416259765625">
        <ele>1453.4000244140625</ele>
        <time>2026-06-18T11:40:19.000Z</time>
        <extensions>
          <ns3:TrackPointExtension>
            <ns3:atemp>21.0</ns3:atemp>
          </ns3:TrackPointExtension>
        </extensions>
      </trkpt>
      <trkpt lat="42.52602118067443370819091796875" lon="19.77596084587275981903076171875">
        <ele>1452.800048828125</ele>
        <time>2026-06-18T11:40:20.000Z</time>
        <extensions>
          <ns3:TrackPointExtension>
            <ns3:atemp>21.0</ns3:atemp>
          </ns3:TrackPointExtension>
        </extensions>
      </trkpt>
      <trkpt lat="42.52600776962935924530029296875" lon="19.77598833851516246795654296875">
        <ele>1452.199951171875</ele>
        <time>2026-06-18T11:40:21.000Z</time>
        <extensions>
          <ns3:TrackPointExtension>
            <ns3:atemp>21.0</ns3:atemp>
          </ns3:TrackPointExtension>
        </extensions>
      </trkpt>
      <trkpt lat="42.525995783507823944091796875" lon="19.776017256081104278564453125">
        <ele>1451.4000244140625</ele>
        <time>2026-06-18T11:40:22.000Z</time>
        <extensions>
          <ns3:TrackPointExtension>
            <ns3:atemp>21.0</ns3:atemp>
          </ns3:TrackPointExtension>
        </extensions>
      </trkpt>
      <trkpt lat="42.5259929336607456207275390625" lon="19.77603913284838199615478515625">
        <ele>1450.800048828125</ele>
        <time>2026-06-18T11:40:23.000Z</time>
        <extensions>
          <ns3:TrackPointExtension>
            <ns3:atemp>21.0</ns3:atemp>
          </ns3:TrackPointExtension>
        </extensions>
      </trkpt>
      <trkpt lat="42.525981366634368896484375" lon="19.7760613448917865753173828125">
        <ele>1449.800048828125</ele>
        <time>2026-06-18T11:40:24.000Z</time>
        <extensions>
          <ns3:TrackPointExtension>
            <ns3:atemp>21.0</ns3:atemp>
          </ns3:TrackPointExtension>
        </extensions>
      </trkpt>
      <trkpt lat="42.52596150152385234832763671875" lon="19.77608003653585910797119140625">
        <ele>1449.199951171875</ele>
        <time>2026-06-18T11:40:25.000Z</time>
        <extensions>
          <ns3:TrackPointExtension>
            <ns3:atemp>21.0</ns3:atemp>
          </ns3:TrackPointExtension>
        </extensions>
      </trkpt>
      <trkpt lat="42.52595412544906139373779296875" lon="19.7760973870754241943359375">
        <ele>1448.4000244140625</ele>
        <time>2026-06-18T11:40:26.000Z</time>
        <extensions>
          <ns3:TrackPointExtension>
            <ns3:atemp>21.0</ns3:atemp>
          </ns3:TrackPointExtension>
        </extensions>
      </trkpt>
      <trkpt lat="42.52594725228846073150634765625" lon="19.776109121739864349365234375">
        <ele>1447.5999755859375</ele>
        <time>2026-06-18T11:40:27.000Z</time>
        <extensions>
          <ns3:TrackPointExtension>
            <ns3:atemp>21.0</ns3:atemp>
          </ns3:TrackPointExtension>
        </extensions>
      </trkpt>
      <trkpt lat="42.52593887038528919219970703125" lon="19.77610250003635883331298828125">
        <ele>1446.800048828125</ele>
        <time>2026-06-18T11:40:28.000Z</time>
        <extensions>
          <ns3:TrackPointExtension>
            <ns3:atemp>21.0</ns3:atemp>
          </ns3:TrackPointExtension>
        </extensions>
      </trkpt>
      <trkpt lat="42.5259228609502315521240234375" lon="19.77608925662934780120849609375">
        <ele>1446.199951171875</ele>
        <time>2026-06-18T11:40:29.000Z</time>
        <extensions>
          <ns3:TrackPointExtension>
            <ns3:atemp>21.0</ns3:atemp>
          </ns3:TrackPointExtension>
        </extensions>
      </trkpt>
      <trkpt lat="42.5259091146290302276611328125" lon="19.77609193883836269378662109375">
        <ele>1445.199951171875</ele>
        <time>2026-06-18T11:40:30.000Z</time>
        <extensions>
          <ns3:TrackPointExtension>
            <ns3:atemp>21.0</ns3:atemp>
          </ns3:TrackPointExtension>
        </extensions>
      </trkpt>
      <trkpt lat="42.5259014032781124114990234375" lon="19.77610786445438861846923828125">
        <ele>1444.5999755859375</ele>
        <time>2026-06-18T11:40:31.000Z</time>
        <extensions>
          <ns3:TrackPointExtension>
            <ns3:atemp>21.0</ns3:atemp>
          </ns3:TrackPointExtension>
        </extensions>
      </trkpt>
      <trkpt lat="42.52588992007076740264892578125" lon="19.77612747810781002044677734375">
        <ele>1444</ele>
        <time>2026-06-18T11:40:32.000Z</time>
        <extensions>
          <ns3:TrackPointExtension>
            <ns3:atemp>21.0</ns3:atemp>
          </ns3:TrackPointExtension>
        </extensions>
      </trkpt>
      <trkpt lat="42.5258836336433887481689453125" lon="19.7761429846286773681640625">
        <ele>1443.4000244140625</ele>
        <time>2026-06-18T11:40:33.000Z</time>
        <extensions>
          <ns3:TrackPointExtension>
            <ns3:atemp>21.0</ns3:atemp>
          </ns3:TrackPointExtension>
        </extensions>
      </trkpt>
      <trkpt lat="42.52588891424238681793212890625" lon="19.77615999989211559295654296875">
        <ele>1442.800048828125</ele>
        <time>2026-06-18T11:40:34.000Z</time>
        <extensions>
          <ns3:TrackPointExtension>
            <ns3:atemp>21.0</ns3:atemp>
          </ns3:TrackPointExtension>
        </extensions>
      </trkpt>
      <trkpt lat="42.52589411102235317230224609375" lon="19.7761760093271732330322265625">
        <ele>1442.4000244140625</ele>
        <time>2026-06-18T11:40:35.000Z</time>
        <extensions>
          <ns3:TrackPointExtension>
            <ns3:atemp>21.0</ns3:atemp>
          </ns3:TrackPointExtension>
        </extensions>
      </trkpt>
      <trkpt lat="42.5259030796587467193603515625" lon="19.77619000710546970367431640625">
        <ele>1441.800048828125</ele>
        <time>2026-06-18T11:40:36.000Z</time>
        <extensions>
          <ns3:TrackPointExtension>
            <ns3:atemp>21.0</ns3:atemp>
          </ns3:TrackPointExtension>
        </extensions>
      </trkpt>
      <trkpt lat="42.52590500749647617340087890625" lon="19.77622470818459987640380859375">
        <ele>1441.4000244140625</ele>
        <time>2026-06-18T11:40:37.000Z</time>
        <extensions>
          <ns3:TrackPointExtension>
            <ns3:atemp>21.0</ns3:atemp>
          </ns3:TrackPointExtension>
        </extensions>
      </trkpt>
      <trkpt lat="42.52591070719063282012939453125" lon="19.77626435458660125732421875">
        <ele>1440.800048828125</ele>
        <time>2026-06-18T11:40:38.000Z</time>
        <extensions>
          <ns3:TrackPointExtension>
            <ns3:atemp>21.0</ns3:atemp>
          </ns3:TrackPointExtension>
        </extensions>
      </trkpt>
      <trkpt lat="42.525908946990966796875" lon="19.77630383335053920745849609375">
        <ele>1440.199951171875</ele>
        <time>2026-06-18T11:40:39.000Z</time>
        <extensions>
          <ns3:TrackPointExtension>
            <ns3:atemp>21.0</ns3:atemp>
          </ns3:TrackPointExtension>
        </extensions>
      </trkpt>
      <trkpt lat="42.52589662559330463409423828125" lon="19.77632939815521240234375">
        <ele>1439.5999755859375</ele>
        <time>2026-06-18T11:40:40.000Z</time>
        <extensions>
          <ns3:TrackPointExtension>
            <ns3:atemp>21.0</ns3:atemp>
          </ns3:TrackPointExtension>
        </extensions>
      </trkpt>
      <trkpt lat="42.5258782692253589630126953125" lon="19.77634406648576259613037109375">
        <ele>1439</ele>
        <time>2026-06-18T11:40:41.000Z</time>
        <extensions>
          <ns3:TrackPointExtension>
            <ns3:atemp>21.0</ns3:atemp>
          </ns3:TrackPointExtension>
        </extensions>
      </trkpt>
      <trkpt lat="42.5258578173816204071044921875" lon="19.77634356357157230377197265625">
        <ele>1438.199951171875</ele>
        <time>2026-06-18T11:40:42.000Z</time>
        <extensions>
          <ns3:TrackPointExtension>
            <ns3:atemp>21.0</ns3:atemp>
          </ns3:TrackPointExtension>
        </extensions>
      </trkpt>
      <trkpt lat="42.5258447416126728057861328125" lon="19.77633601985871791839599609375">
        <ele>1437.5999755859375</ele>
        <time>2026-06-18T11:40:43.000Z</time>
        <extensions>
          <ns3:TrackPointExtension>
            <ns3:atemp>21.0</ns3:atemp>
          </ns3:TrackPointExtension>
        </extensions>
      </trkpt>
      <trkpt lat="42.5258199311792850494384765625" lon="19.7763238660991191864013671875">
        <ele>1437</ele>
        <time>2026-06-18T11:40:44.000Z</time>
        <extensions>
          <ns3:TrackPointExtension>
            <ns3:atemp>21.0</ns3:atemp>
          </ns3:TrackPointExtension>
        </extensions>
      </trkpt>
      <trkpt lat="42.5258055143058300018310546875" lon="19.776317663490772247314453125">
        <ele>1436.4000244140625</ele>
        <time>2026-06-18T11:40:45.000Z</time>
        <extensions>
          <ns3:TrackPointExtension>
            <ns3:atemp>21.0</ns3:atemp>
          </ns3:TrackPointExtension>
        </extensions>
      </trkpt>
      <trkpt lat="42.52578782849013805389404296875" lon="19.77631372399628162384033203125">
        <ele>1436</ele>
        <time>2026-06-18T11:40:46.000Z</time>
        <extensions>
          <ns3:TrackPointExtension>
            <ns3:atemp>21.0</ns3:atemp>
          </ns3:TrackPointExtension>
        </extensions>
      </trkpt>
      <trkpt lat="42.5257734954357147216796875" lon="19.7763144783675670623779296875">
        <ele>1435.4000244140625</ele>
        <time>2026-06-18T11:40:47.000Z</time>
        <extensions>
          <ns3:TrackPointExtension>
            <ns3:atemp>21.0</ns3:atemp>
          </ns3:TrackPointExtension>
        </extensions>
      </trkpt>
      <trkpt lat="42.5257681310176849365234375" lon="19.776323027908802032470703125">
        <ele>1434.800048828125</ele>
        <time>2026-06-18T11:40:48.000Z</time>
        <extensions>
          <ns3:TrackPointExtension>
            <ns3:atemp>21.0</ns3:atemp>
          </ns3:TrackPointExtension>
        </extensions>
      </trkpt>
      <trkpt lat="42.5257681310176849365234375" lon="19.77632378228008747100830078125">
        <ele>1434.199951171875</ele>
        <time>2026-06-18T11:40:49.000Z</time>
        <extensions>
          <ns3:TrackPointExtension>
            <ns3:atemp>21.0</ns3:atemp>
          </ns3:TrackPointExtension>
        </extensions>
      </trkpt>
      <trkpt lat="42.5257681310176849365234375" lon="19.77632445283234119415283203125">
        <ele>1433.800048828125</ele>
        <time>2026-06-18T11:40:50.000Z</time>
        <extensions>
          <ns3:TrackPointExtension>
            <ns3:atemp>21.0</ns3:atemp>
          </ns3:TrackPointExtension>
        </extensions>
      </trkpt>
      <trkpt lat="42.5257662869989871978759765625" lon="19.776351191103458404541015625">
        <ele>1433.4000244140625</ele>
        <time>2026-06-18T11:40:51.000Z</time>
        <extensions>
          <ns3:TrackPointExtension>
            <ns3:atemp>21.0</ns3:atemp>
          </ns3:TrackPointExtension>
        </extensions>
      </trkpt>
      <trkpt lat="42.52576905302703380584716796875" lon="19.77636896073818206787109375">
        <ele>1433</ele>
        <time>2026-06-18T11:40:52.000Z</time>
        <extensions>
          <ns3:TrackPointExtension>
            <ns3:atemp>21.0</ns3:atemp>
          </ns3:TrackPointExtension>
        </extensions>
      </trkpt>
      <trkpt lat="42.52576855011284351348876953125" lon="19.77637524716556072235107421875">
        <ele>1432.800048828125</ele>
        <time>2026-06-18T11:40:53.000Z</time>
        <extensions>
          <ns3:TrackPointExtension>
            <ns3:atemp>21.0</ns3:atemp>
          </ns3:TrackPointExtension>
        </extensions>
      </trkpt>
      <trkpt lat="42.5257686339318752288818359375" lon="19.77637541480362415313720703125">
        <ele>1432.4000244140625</ele>
        <time>2026-06-18T11:40:54.000Z</time>
        <extensions>
          <ns3:TrackPointExtension>
            <ns3:atemp>21.0</ns3:atemp>
          </ns3:TrackPointExtension>
        </extensions>
      </trkpt>
      <trkpt lat="42.5257686339318752288818359375" lon="19.77637541480362415313720703125">
        <ele>1432.4000244140625</ele>
        <time>2026-06-18T11:40:55.000Z</time>
        <extensions>
          <ns3:TrackPointExtension>
            <ns3:atemp>21.0</ns3:atemp>
          </ns3:TrackPointExtension>
        </extensions>
      </trkpt>
      <trkpt lat="42.5257686339318752288818359375" lon="19.77637541480362415313720703125">
        <ele>1432.199951171875</ele>
        <time>2026-06-18T11:40:56.000Z</time>
        <extensions>
          <ns3:TrackPointExtension>
            <ns3:atemp>21.0</ns3:atemp>
          </ns3:TrackPointExtension>
        </extensions>
      </trkpt>
      <trkpt lat="42.5257686339318752288818359375" lon="19.77637541480362415313720703125">
        <ele>1432.199951171875</ele>
        <time>2026-06-18T11:40:57.000Z</time>
        <extensions>
          <ns3:TrackPointExtension>
            <ns3:atemp>21.0</ns3:atemp>
          </ns3:TrackPointExtension>
        </extensions>
      </trkpt>
      <trkpt lat="42.5257686339318752288818359375" lon="19.77637541480362415313720703125">
        <ele>1432.199951171875</ele>
        <time>2026-06-18T11:40:58.000Z</time>
        <extensions>
          <ns3:TrackPointExtension>
            <ns3:atemp>21.0</ns3:atemp>
          </ns3:TrackPointExtension>
        </extensions>
      </trkpt>
      <trkpt lat="42.5257686339318752288818359375" lon="19.77637541480362415313720703125">
        <ele>1432.199951171875</ele>
        <time>2026-06-18T11:40:59.000Z</time>
        <extensions>
          <ns3:TrackPointExtension>
            <ns3:atemp>21.0</ns3:atemp>
          </ns3:TrackPointExtension>
        </extensions>
      </trkpt>
      <trkpt lat="42.5257686339318752288818359375" lon="19.77637541480362415313720703125">
        <ele>1432.199951171875</ele>
        <time>2026-06-18T11:41:00.000Z</time>
        <extensions>
          <ns3:TrackPointExtension>
            <ns3:atemp>21.0</ns3:atemp>
          </ns3:TrackPointExtension>
        </extensions>
      </trkpt>
      <trkpt lat="42.5257686339318752288818359375" lon="19.77637541480362415313720703125">
        <ele>1432.199951171875</ele>
        <time>2026-06-18T11:41:01.000Z</time>
        <extensions>
          <ns3:TrackPointExtension>
            <ns3:atemp>21.0</ns3:atemp>
          </ns3:TrackPointExtension>
        </extensions>
      </trkpt>
      <trkpt lat="42.5257686339318752288818359375" lon="19.77637541480362415313720703125">
        <ele>1432.199951171875</ele>
        <time>2026-06-18T11:41:02.000Z</time>
        <extensions>
          <ns3:TrackPointExtension>
            <ns3:atemp>21.0</ns3:atemp>
          </ns3:TrackPointExtension>
        </extensions>
      </trkpt>
      <trkpt lat="42.5257686339318752288818359375" lon="19.77637541480362415313720703125">
        <ele>1432</ele>
        <time>2026-06-18T11:41:03.000Z</time>
        <extensions>
          <ns3:TrackPointExtension>
            <ns3:atemp>21.0</ns3:atemp>
          </ns3:TrackPointExtension>
        </extensions>
      </trkpt>
      <trkpt lat="42.5257686339318752288818359375" lon="19.77637541480362415313720703125">
        <ele>1432</ele>
        <time>2026-06-18T11:41:04.000Z</time>
        <extensions>
          <ns3:TrackPointExtension>
            <ns3:atemp>21.0</ns3:atemp>
          </ns3:TrackPointExtension>
        </extensions>
      </trkpt>
      <trkpt lat="42.5257686339318752288818359375" lon="19.77637541480362415313720703125">
        <ele>1432</ele>
        <time>2026-06-18T11:41:05.000Z</time>
        <extensions>
          <ns3:TrackPointExtension>
            <ns3:atemp>21.0</ns3:atemp>
          </ns3:TrackPointExtension>
        </extensions>
      </trkpt>
      <trkpt lat="42.5257686339318752288818359375" lon="19.77637541480362415313720703125">
        <ele>1432</ele>
        <time>2026-06-18T11:41:06.000Z</time>
        <extensions>
          <ns3:TrackPointExtension>
            <ns3:atemp>21.0</ns3:atemp>
          </ns3:TrackPointExtension>
        </extensions>
      </trkpt>
      <trkpt lat="42.5257686339318752288818359375" lon="19.77637541480362415313720703125">
        <ele>1432</ele>
        <time>2026-06-18T11:41:07.000Z</time>
        <extensions>
          <ns3:TrackPointExtension>
            <ns3:atemp>21.0</ns3:atemp>
          </ns3:TrackPointExtension>
        </extensions>
      </trkpt>
      <trkpt lat="42.5257686339318752288818359375" lon="19.77637541480362415313720703125">
        <ele>1432</ele>
        <time>2026-06-18T11:41:08.000Z</time>
        <extensions>
          <ns3:TrackPointExtension>
            <ns3:atemp>21.0</ns3:atemp>
          </ns3:TrackPointExtension>
        </extensions>
      </trkpt>
      <trkpt lat="42.5257686339318752288818359375" lon="19.77637541480362415313720703125">
        <ele>1432</ele>
        <time>2026-06-18T11:41:09.000Z</time>
        <extensions>
          <ns3:TrackPointExtension>
            <ns3:atemp>21.0</ns3:atemp>
          </ns3:TrackPointExtension>
        </extensions>
      </trkpt>
      <trkpt lat="42.5257686339318752288818359375" lon="19.77637541480362415313720703125">
        <ele>1432.199951171875</ele>
        <time>2026-06-18T11:41:10.000Z</time>
        <extensions>
          <ns3:TrackPointExtension>
            <ns3:atemp>21.0</ns3:atemp>
          </ns3:TrackPointExtension>
        </extensions>
      </trkpt>
      <trkpt lat="42.5257686339318752288818359375" lon="19.77637541480362415313720703125">
        <ele>1432.199951171875</ele>
        <time>2026-06-18T11:41:11.000Z</time>
        <extensions>
          <ns3:TrackPointExtension>
            <ns3:atemp>21.0</ns3:atemp>
          </ns3:TrackPointExtension>
        </extensions>
      </trkpt>
      <trkpt lat="42.5257686339318752288818359375" lon="19.77637541480362415313720703125">
        <ele>1432.199951171875</ele>
        <time>2026-06-18T11:41:12.000Z</time>
        <extensions>
          <ns3:TrackPointExtension>
            <ns3:atemp>21.0</ns3:atemp>
          </ns3:TrackPointExtension>
        </extensions>
      </trkpt>
      <trkpt lat="42.5257686339318752288818359375" lon="19.77637541480362415313720703125">
        <ele>1432.199951171875</ele>
        <time>2026-06-18T11:41:13.000Z</time>
        <extensions>
          <ns3:TrackPointExtension>
            <ns3:atemp>21.0</ns3:atemp>
          </ns3:TrackPointExtension>
        </extensions>
      </trkpt>
      <trkpt lat="42.5257686339318752288818359375" lon="19.77637541480362415313720703125">
        <ele>1432.199951171875</ele>
        <time>2026-06-18T11:41:14.000Z</time>
        <extensions>
          <ns3:TrackPointExtension>
            <ns3:atemp>21.0</ns3:atemp>
          </ns3:TrackPointExtension>
        </extensions>
      </trkpt>
      <trkpt lat="42.5257686339318752288818359375" lon="19.77637541480362415313720703125">
        <ele>1432.199951171875</ele>
        <time>2026-06-18T11:41:15.000Z</time>
        <extensions>
          <ns3:TrackPointExtension>
            <ns3:atemp>21.0</ns3:atemp>
          </ns3:TrackPointExtension>
        </extensions>
      </trkpt>
      <trkpt lat="42.5257686339318752288818359375" lon="19.77637541480362415313720703125">
        <ele>1432.199951171875</ele>
        <time>2026-06-18T11:41:16.000Z</time>
        <extensions>
          <ns3:TrackPointExtension>
            <ns3:atemp>21.0</ns3:atemp>
          </ns3:TrackPointExtension>
        </extensions>
      </trkpt>
      <trkpt lat="42.5257686339318752288818359375" lon="19.77637541480362415313720703125">
        <ele>1432.199951171875</ele>
        <time>2026-06-18T11:41:17.000Z</time>
        <extensions>
          <ns3:TrackPointExtension>
            <ns3:atemp>21.0</ns3:atemp>
          </ns3:TrackPointExtension>
        </extensions>
      </trkpt>
      <trkpt lat="42.5257686339318752288818359375" lon="19.77637541480362415313720703125">
        <ele>1432.199951171875</ele>
        <time>2026-06-18T11:41:18.000Z</time>
        <extensions>
          <ns3:TrackPointExtension>
            <ns3:atemp>21.0</ns3:atemp>
          </ns3:TrackPointExtension>
        </extensions>
      </trkpt>
      <trkpt lat="42.5257686339318752288818359375" lon="19.77637541480362415313720703125">
        <ele>1432.199951171875</ele>
        <time>2026-06-18T11:41:19.000Z</time>
        <extensions>
          <ns3:TrackPointExtension>
            <ns3:atemp>21.0</ns3:atemp>
          </ns3:TrackPointExtension>
        </extensions>
      </trkpt>
      <trkpt lat="42.5257686339318752288818359375" lon="19.77637541480362415313720703125">
        <ele>1432.199951171875</ele>
        <time>2026-06-18T11:41:20.000Z</time>
        <extensions>
          <ns3:TrackPointExtension>
            <ns3:atemp>21.0</ns3:atemp>
          </ns3:TrackPointExtension>
        </extensions>
      </trkpt>
      <trkpt lat="42.5257686339318752288818359375" lon="19.77637541480362415313720703125">
        <ele>1432.199951171875</ele>
        <time>2026-06-18T11:41:21.000Z</time>
        <extensions>
          <ns3:TrackPointExtension>
            <ns3:atemp>21.0</ns3:atemp>
          </ns3:TrackPointExtension>
        </extensions>
      </trkpt>
      <trkpt lat="42.5257686339318752288818359375" lon="19.77637541480362415313720703125">
        <ele>1432.199951171875</ele>
        <time>2026-06-18T11:41:22.000Z</time>
        <extensions>
          <ns3:TrackPointExtension>
            <ns3:atemp>21.0</ns3:atemp>
          </ns3:TrackPointExtension>
        </extensions>
      </trkpt>
      <trkpt lat="42.5257686339318752288818359375" lon="19.77637541480362415313720703125">
        <ele>1432.199951171875</ele>
        <time>2026-06-18T11:41:23.000Z</time>
        <extensions>
          <ns3:TrackPointExtension>
            <ns3:atemp>21.0</ns3:atemp>
          </ns3:TrackPointExtension>
        </extensions>
      </trkpt>
      <trkpt lat="42.5257686339318752288818359375" lon="19.77637541480362415313720703125">
        <ele>1432.199951171875</ele>
        <time>2026-06-18T11:41:24.000Z</time>
        <extensions>
          <ns3:TrackPointExtension>
            <ns3:atemp>21.0</ns3:atemp>
          </ns3:TrackPointExtension>
        </extensions>
      </trkpt>
      <trkpt lat="42.5257686339318752288818359375" lon="19.77637541480362415313720703125">
        <ele>1432.199951171875</ele>
        <time>2026-06-18T11:41:25.000Z</time>
        <extensions>
          <ns3:TrackPointExtension>
            <ns3:atemp>21.0</ns3:atemp>
          </ns3:TrackPointExtension>
        </extensions>
      </trkpt>
      <trkpt lat="42.5257686339318752288818359375" lon="19.77637541480362415313720703125">
        <ele>1432.199951171875</ele>
        <time>2026-06-18T11:41:26.000Z</time>
        <extensions>
          <ns3:TrackPointExtension>
            <ns3:atemp>21.0</ns3:atemp>
          </ns3:TrackPointExtension>
        </extensions>
      </trkpt>
      <trkpt lat="42.5257686339318752288818359375" lon="19.77637541480362415313720703125">
        <ele>1432.199951171875</ele>
        <time>2026-06-18T11:41:27.000Z</time>
        <extensions>
          <ns3:TrackPointExtension>
            <ns3:atemp>21.0</ns3:atemp>
          </ns3:TrackPointExtension>
        </extensions>
      </trkpt>
      <trkpt lat="42.5257686339318752288818359375" lon="19.77637541480362415313720703125">
        <ele>1432.199951171875</ele>
        <time>2026-06-18T11:41:28.000Z</time>
        <extensions>
          <ns3:TrackPointExtension>
            <ns3:atemp>21.0</ns3:atemp>
          </ns3:TrackPointExtension>
        </extensions>
      </trkpt>
      <trkpt lat="42.5257686339318752288818359375" lon="19.77637541480362415313720703125">
        <ele>1432.199951171875</ele>
        <time>2026-06-18T11:41:29.000Z</time>
        <extensions>
          <ns3:TrackPointExtension>
            <ns3:atemp>21.0</ns3:atemp>
          </ns3:TrackPointExtension>
        </extensions>
      </trkpt>
      <trkpt lat="42.5257686339318752288818359375" lon="19.77637541480362415313720703125">
        <ele>1432.199951171875</ele>
        <time>2026-06-18T11:41:30.000Z</time>
        <extensions>
          <ns3:TrackPointExtension>
            <ns3:atemp>21.0</ns3:atemp>
          </ns3:TrackPointExtension>
        </extensions>
      </trkpt>
      <trkpt lat="42.5257686339318752288818359375" lon="19.77637541480362415313720703125">
        <ele>1432.199951171875</ele>
        <time>2026-06-18T11:41:31.000Z</time>
        <extensions>
          <ns3:TrackPointExtension>
            <ns3:atemp>21.0</ns3:atemp>
          </ns3:TrackPointExtension>
        </extensions>
      </trkpt>
      <trkpt lat="42.5257686339318752288818359375" lon="19.77637541480362415313720703125">
        <ele>1432.199951171875</ele>
        <time>2026-06-18T11:41:32.000Z</time>
        <extensions>
          <ns3:TrackPointExtension>
            <ns3:atemp>21.0</ns3:atemp>
          </ns3:TrackPointExtension>
        </extensions>
      </trkpt>
      <trkpt lat="42.5257686339318752288818359375" lon="19.77637541480362415313720703125">
        <ele>1432</ele>
        <time>2026-06-18T11:41:33.000Z</time>
        <extensions>
          <ns3:TrackPointExtension>
            <ns3:atemp>21.0</ns3:atemp>
          </ns3:TrackPointExtension>
        </extensions>
      </trkpt>
      <trkpt lat="42.5257686339318752288818359375" lon="19.77637541480362415313720703125">
        <ele>1432</ele>
        <time>2026-06-18T11:41:34.000Z</time>
        <extensions>
          <ns3:TrackPointExtension>
            <ns3:atemp>21.0</ns3:atemp>
          </ns3:TrackPointExtension>
        </extensions>
      </trkpt>
      <trkpt lat="42.5257686339318752288818359375" lon="19.77637541480362415313720703125">
        <ele>1432</ele>
        <time>2026-06-18T11:41:35.000Z</time>
        <extensions>
          <ns3:TrackPointExtension>
            <ns3:atemp>21.0</ns3:atemp>
          </ns3:TrackPointExtension>
        </extensions>
      </trkpt>
      <trkpt lat="42.52576586790382862091064453125" lon="19.7763575613498687744140625">
        <ele>1432.199951171875</ele>
        <time>2026-06-18T11:41:36.000Z</time>
        <extensions>
          <ns3:TrackPointExtension>
            <ns3:atemp>21.0</ns3:atemp>
          </ns3:TrackPointExtension>
        </extensions>
      </trkpt>
      <trkpt lat="42.52576570026576519012451171875" lon="19.77635714225471019744873046875">
        <ele>1432.199951171875</ele>
        <time>2026-06-18T11:41:37.000Z</time>
        <extensions>
          <ns3:TrackPointExtension>
            <ns3:atemp>21.0</ns3:atemp>
          </ns3:TrackPointExtension>
        </extensions>
      </trkpt>
      <trkpt lat="42.52576570026576519012451171875" lon="19.77635714225471019744873046875">
        <ele>1432</ele>
        <time>2026-06-18T11:41:38.000Z</time>
        <extensions>
          <ns3:TrackPointExtension>
            <ns3:atemp>21.0</ns3:atemp>
          </ns3:TrackPointExtension>
        </extensions>
      </trkpt>
      <trkpt lat="42.52576570026576519012451171875" lon="19.77635714225471019744873046875">
        <ele>1432</ele>
        <time>2026-06-18T11:41:39.000Z</time>
        <extensions>
          <ns3:TrackPointExtension>
            <ns3:atemp>21.0</ns3:atemp>
          </ns3:TrackPointExtension>
        </extensions>
      </trkpt>
      <trkpt lat="42.52576570026576519012451171875" lon="19.77635714225471019744873046875">
        <ele>1432</ele>
        <time>2026-06-18T11:41:40.000Z</time>
        <extensions>
          <ns3:TrackPointExtension>
            <ns3:atemp>21.0</ns3:atemp>
          </ns3:TrackPointExtension>
        </extensions>
      </trkpt>
      <trkpt lat="42.52576570026576519012451171875" lon="19.77635714225471019744873046875">
        <ele>1432</ele>
        <time>2026-06-18T11:41:41.000Z</time>
        <extensions>
          <ns3:TrackPointExtension>
            <ns3:atemp>21.0</ns3:atemp>
          </ns3:TrackPointExtension>
        </extensions>
      </trkpt>
      <trkpt lat="42.5257649458944797515869140625" lon="19.7763537056744098663330078125">
        <ele>1432</ele>
        <time>2026-06-18T11:41:42.000Z</time>
        <extensions>
          <ns3:TrackPointExtension>
            <ns3:atemp>21.0</ns3:atemp>
          </ns3:TrackPointExtension>
        </extensions>
      </trkpt>
      <trkpt lat="42.525764442980289459228515625" lon="19.7763523645699024200439453125">
        <ele>1432</ele>
        <time>2026-06-18T11:41:43.000Z</time>
        <extensions>
          <ns3:TrackPointExtension>
            <ns3:atemp>21.0</ns3:atemp>
          </ns3:TrackPointExtension>
        </extensions>
      </trkpt>
      <trkpt lat="42.5257672928273677825927734375" lon="19.77636770345270633697509765625">
        <ele>1432</ele>
        <time>2026-06-18T11:41:44.000Z</time>
        <extensions>
          <ns3:TrackPointExtension>
            <ns3:atemp>21.0</ns3:atemp>
          </ns3:TrackPointExtension>
        </extensions>
      </trkpt>
      <trkpt lat="42.525773830711841583251953125" lon="19.776390083134174346923828125">
        <ele>1432</ele>
        <time>2026-06-18T11:41:45.000Z</time>
        <extensions>
          <ns3:TrackPointExtension>
            <ns3:atemp>21.0</ns3:atemp>
          </ns3:TrackPointExtension>
        </extensions>
      </trkpt>
      <trkpt lat="42.52577274106442928314208984375" lon="19.7764331661164760589599609375">
        <ele>1431.800048828125</ele>
        <time>2026-06-18T11:41:46.000Z</time>
        <extensions>
          <ns3:TrackPointExtension>
            <ns3:atemp>21.0</ns3:atemp>
          </ns3:TrackPointExtension>
        </extensions>
      </trkpt>
      <trkpt lat="42.52578447572886943817138671875" lon="19.77648521773517131805419921875">
        <ele>1431.5999755859375</ele>
        <time>2026-06-18T11:41:47.000Z</time>
        <extensions>
          <ns3:TrackPointExtension>
            <ns3:atemp>21.0</ns3:atemp>
          </ns3:TrackPointExtension>
        </extensions>
      </trkpt>
      <trkpt lat="42.52579084597527980804443359375" lon="19.7765438072383403778076171875">
        <ele>1431.199951171875</ele>
        <time>2026-06-18T11:41:48.000Z</time>
        <extensions>
          <ns3:TrackPointExtension>
            <ns3:atemp>21.0</ns3:atemp>
          </ns3:TrackPointExtension>
        </extensions>
      </trkpt>
      <trkpt lat="42.52580023370683193206787109375" lon="19.7765927575528621673583984375">
        <ele>1431</ele>
        <time>2026-06-18T11:41:49.000Z</time>
        <extensions>
          <ns3:TrackPointExtension>
            <ns3:atemp>21.0</ns3:atemp>
          </ns3:TrackPointExtension>
        </extensions>
      </trkpt>
      <trkpt lat="42.525824122130870819091796875" lon="19.77663089521229267120361328125">
        <ele>1430</ele>
        <time>2026-06-18T11:41:50.000Z</time>
        <extensions>
          <ns3:TrackPointExtension>
            <ns3:atemp>21.0</ns3:atemp>
          </ns3:TrackPointExtension>
        </extensions>
      </trkpt>
      <trkpt lat="42.52584784291684627532958984375" lon="19.7766484133899211883544921875">
        <ele>1429.4000244140625</ele>
        <time>2026-06-18T11:41:51.000Z</time>
        <extensions>
          <ns3:TrackPointExtension>
            <ns3:atemp>21.0</ns3:atemp>
          </ns3:TrackPointExtension>
        </extensions>
      </trkpt>
      <trkpt lat="42.5258812867105007171630859375" lon="19.7766648419201374053955078125">
        <ele>1428.5999755859375</ele>
        <time>2026-06-18T11:41:52.000Z</time>
        <extensions>
          <ns3:TrackPointExtension>
            <ns3:atemp>21.0</ns3:atemp>
          </ns3:TrackPointExtension>
        </extensions>
      </trkpt>
      <trkpt lat="42.5259030796587467193603515625" lon="19.7766903229057788848876953125">
        <ele>1427.5999755859375</ele>
        <time>2026-06-18T11:41:53.000Z</time>
        <extensions>
          <ns3:TrackPointExtension>
            <ns3:atemp>21.0</ns3:atemp>
          </ns3:TrackPointExtension>
        </extensions>
      </trkpt>
      <trkpt lat="42.52590752206742763519287109375" lon="19.776716642081737518310546875">
        <ele>1427</ele>
        <time>2026-06-18T11:41:54.000Z</time>
        <extensions>
          <ns3:TrackPointExtension>
            <ns3:atemp>21.0</ns3:atemp>
          </ns3:TrackPointExtension>
        </extensions>
      </trkpt>
      <trkpt lat="42.5259040854871273040771484375" lon="19.77673985995352268218994140625">
        <ele>1426.5999755859375</ele>
        <time>2026-06-18T11:41:55.000Z</time>
        <extensions>
          <ns3:TrackPointExtension>
            <ns3:atemp>21.0</ns3:atemp>
          </ns3:TrackPointExtension>
        </extensions>
      </trkpt>
      <trkpt lat="42.52589285373687744140625" lon="19.776770286262035369873046875">
        <ele>1426</ele>
        <time>2026-06-18T11:41:56.000Z</time>
        <extensions>
          <ns3:TrackPointExtension>
            <ns3:atemp>21.0</ns3:atemp>
          </ns3:TrackPointExtension>
        </extensions>
      </trkpt>
      <trkpt lat="42.52588958479464054107666015625" lon="19.7768063284456729888916015625">
        <ele>1425.800048828125</ele>
        <time>2026-06-18T11:41:57.000Z</time>
        <extensions>
          <ns3:TrackPointExtension>
            <ns3:atemp>21.0</ns3:atemp>
          </ns3:TrackPointExtension>
        </extensions>
      </trkpt>
      <trkpt lat="42.52588589675724506378173828125" lon="19.77685921825468540191650390625">
        <ele>1425.5999755859375</ele>
        <time>2026-06-18T11:41:58.000Z</time>
        <extensions>
          <ns3:TrackPointExtension>
            <ns3:atemp>21.0</ns3:atemp>
          </ns3:TrackPointExtension>
        </extensions>
      </trkpt>
      <trkpt lat="42.52588606439530849456787109375" lon="19.77691319771111011505126953125">
        <ele>1425</ele>
        <time>2026-06-18T11:41:59.000Z</time>
        <extensions>
          <ns3:TrackPointExtension>
            <ns3:atemp>21.0</ns3:atemp>
          </ns3:TrackPointExtension>
        </extensions>
      </trkpt>
      <trkpt lat="42.52588472329080104827880859375" lon="19.77698159404098987579345703125">
        <ele>1424.800048828125</ele>
        <time>2026-06-18T11:42:00.000Z</time>
        <extensions>
          <ns3:TrackPointExtension>
            <ns3:atemp>21.0</ns3:atemp>
          </ns3:TrackPointExtension>
        </extensions>
      </trkpt>
      <trkpt lat="42.52588212490081787109375" lon="19.77702802978456020355224609375">
        <ele>1424.4000244140625</ele>
        <time>2026-06-18T11:42:01.000Z</time>
        <extensions>
          <ns3:TrackPointExtension>
            <ns3:atemp>21.0</ns3:atemp>
          </ns3:TrackPointExtension>
        </extensions>
      </trkpt>
      <trkpt lat="42.5258675403892993927001953125" lon="19.7770748846232891082763671875">
        <ele>1424.199951171875</ele>
        <time>2026-06-18T11:42:02.000Z</time>
        <extensions>
          <ns3:TrackPointExtension>
            <ns3:atemp>21.0</ns3:atemp>
          </ns3:TrackPointExtension>
        </extensions>
      </trkpt>
      <trkpt lat="42.5258547998964786529541015625" lon="19.77713632397353649139404296875">
        <ele>1423.4000244140625</ele>
        <time>2026-06-18T11:42:03.000Z</time>
        <extensions>
          <ns3:TrackPointExtension>
            <ns3:atemp>21.0</ns3:atemp>
          </ns3:TrackPointExtension>
        </extensions>
      </trkpt>
      <trkpt lat="42.5258665345609188079833984375" lon="19.7771855257451534271240234375">
        <ele>1423</ele>
        <time>2026-06-18T11:42:04.000Z</time>
        <extensions>
          <ns3:TrackPointExtension>
            <ns3:atemp>21.0</ns3:atemp>
          </ns3:TrackPointExtension>
        </extensions>
      </trkpt>
      <trkpt lat="42.52588120289146900177001953125" lon="19.7772395052015781402587890625">
        <ele>1422.4000244140625</ele>
        <time>2026-06-18T11:42:05.000Z</time>
        <extensions>
          <ns3:TrackPointExtension>
            <ns3:atemp>21.0</ns3:atemp>
          </ns3:TrackPointExtension>
        </extensions>
      </trkpt>
      <trkpt lat="42.525883130729198455810546875" lon="19.77728954516351222991943359375">
        <ele>1422.199951171875</ele>
        <time>2026-06-18T11:42:06.000Z</time>
        <extensions>
          <ns3:TrackPointExtension>
            <ns3:atemp>21.0</ns3:atemp>
          </ns3:TrackPointExtension>
        </extensions>
      </trkpt>
      <trkpt lat="42.5258941948413848876953125" lon="19.77734402753412723541259765625">
        <ele>1422</ele>
        <time>2026-06-18T11:42:07.000Z</time>
        <extensions>
          <ns3:TrackPointExtension>
            <ns3:atemp>21.0</ns3:atemp>
          </ns3:TrackPointExtension>
        </extensions>
      </trkpt>
      <trkpt lat="42.52590559422969818115234375" lon="19.77739264257252216339111328125">
        <ele>1421.800048828125</ele>
        <time>2026-06-18T11:42:08.000Z</time>
        <extensions>
          <ns3:TrackPointExtension>
            <ns3:atemp>21.0</ns3:atemp>
          </ns3:TrackPointExtension>
        </extensions>
      </trkpt>
      <trkpt lat="42.52592244185507297515869140625" lon="19.7774570994079113006591796875">
        <ele>1421.4000244140625</ele>
        <time>2026-06-18T11:42:09.000Z</time>
        <extensions>
          <ns3:TrackPointExtension>
            <ns3:atemp>21.0</ns3:atemp>
          </ns3:TrackPointExtension>
        </extensions>
      </trkpt>
      <trkpt lat="42.52592344768345355987548828125" lon="19.77751828730106353759765625">
        <ele>1421</ele>
        <time>2026-06-18T11:42:10.000Z</time>
        <extensions>
          <ns3:TrackPointExtension>
            <ns3:atemp>21.0</ns3:atemp>
          </ns3:TrackPointExtension>
        </extensions>
      </trkpt>
      <trkpt lat="42.525940798223018646240234375" lon="19.77757033891975879669189453125">
        <ele>1420.199951171875</ele>
        <time>2026-06-18T11:42:11.000Z</time>
        <extensions>
          <ns3:TrackPointExtension>
            <ns3:atemp>21.0</ns3:atemp>
          </ns3:TrackPointExtension>
        </extensions>
      </trkpt>
      <trkpt lat="42.52595848403871059417724609375" lon="19.77761752903461456298828125">
        <ele>1419.4000244140625</ele>
        <time>2026-06-18T11:42:12.000Z</time>
        <extensions>
          <ns3:TrackPointExtension>
            <ns3:atemp>21.0</ns3:atemp>
          </ns3:TrackPointExtension>
        </extensions>
      </trkpt>
      <trkpt lat="42.52598614431917667388916015625" lon="19.77765030227601528167724609375">
        <ele>1418.800048828125</ele>
        <time>2026-06-18T11:42:13.000Z</time>
        <extensions>
          <ns3:TrackPointExtension>
            <ns3:atemp>21.0</ns3:atemp>
          </ns3:TrackPointExtension>
        </extensions>
      </trkpt>
      <trkpt lat="42.5260014832019805908203125" lon="19.7776844166219234466552734375">
        <ele>1418.4000244140625</ele>
        <time>2026-06-18T11:42:14.000Z</time>
        <extensions>
          <ns3:TrackPointExtension>
            <ns3:atemp>21.0</ns3:atemp>
          </ns3:TrackPointExtension>
        </extensions>
      </trkpt>
      <trkpt lat="42.52601916901767253875732421875" lon="19.77772557176649570465087890625">
        <ele>1417.5999755859375</ele>
        <time>2026-06-18T11:42:15.000Z</time>
        <extensions>
          <ns3:TrackPointExtension>
            <ns3:atemp>21.0</ns3:atemp>
          </ns3:TrackPointExtension>
        </extensions>
      </trkpt>
      <trkpt lat="42.5260475836694240570068359375" lon="19.77778072468936443328857421875">
        <ele>1416.800048828125</ele>
        <time>2026-06-18T11:42:16.000Z</time>
        <extensions>
          <ns3:TrackPointExtension>
            <ns3:atemp>21.0</ns3:atemp>
          </ns3:TrackPointExtension>
        </extensions>
      </trkpt>
      <trkpt lat="42.526037693023681640625" lon="19.77782732807099819183349609375">
        <ele>1416</ele>
        <time>2026-06-18T11:42:17.000Z</time>
        <extensions>
          <ns3:TrackPointExtension>
            <ns3:atemp>21.0</ns3:atemp>
          </ns3:TrackPointExtension>
        </extensions>
      </trkpt>
      <trkpt lat="42.52604029141366481781005859375" lon="19.7778832353651523590087890625">
        <ele>1415.4000244140625</ele>
        <time>2026-06-18T11:42:18.000Z</time>
        <extensions>
          <ns3:TrackPointExtension>
            <ns3:atemp>21.0</ns3:atemp>
          </ns3:TrackPointExtension>
        </extensions>
      </trkpt>
      <trkpt lat="42.52604649402201175689697265625" lon="19.77793679572641849517822265625">
        <ele>1414.800048828125</ele>
        <time>2026-06-18T11:42:19.000Z</time>
        <extensions>
          <ns3:TrackPointExtension>
            <ns3:atemp>21.0</ns3:atemp>
          </ns3:TrackPointExtension>
        </extensions>
      </trkpt>
      <trkpt lat="42.5260512717068195343017578125" lon="19.778003431856632232666015625">
        <ele>1414.199951171875</ele>
        <time>2026-06-18T11:42:20.000Z</time>
        <extensions>
          <ns3:TrackPointExtension>
            <ns3:atemp>21.0</ns3:atemp>
          </ns3:TrackPointExtension>
        </extensions>
      </trkpt>
      <trkpt lat="42.52606116235256195068359375" lon="19.7780532203614711761474609375">
        <ele>1413.800048828125</ele>
        <time>2026-06-18T11:42:21.000Z</time>
        <extensions>
          <ns3:TrackPointExtension>
            <ns3:atemp>21.0</ns3:atemp>
          </ns3:TrackPointExtension>
        </extensions>
      </trkpt>
      <trkpt lat="42.526077590882778167724609375" lon="19.77809890173375606536865234375">
        <ele>1413.4000244140625</ele>
        <time>2026-06-18T11:42:22.000Z</time>
        <extensions>
          <ns3:TrackPointExtension>
            <ns3:atemp>21.0</ns3:atemp>
          </ns3:TrackPointExtension>
        </extensions>
      </trkpt>
      <trkpt lat="42.52609158866107463836669921875" lon="19.7781680524349212646484375">
        <ele>1412.4000244140625</ele>
        <time>2026-06-18T11:42:23.000Z</time>
        <extensions>
          <ns3:TrackPointExtension>
            <ns3:atemp>21.0</ns3:atemp>
          </ns3:TrackPointExtension>
        </extensions>
      </trkpt>
      <trkpt lat="42.52611815929412841796875" lon="19.77822831831872463226318359375">
        <ele>1411.5999755859375</ele>
        <time>2026-06-18T11:42:24.000Z</time>
        <extensions>
          <ns3:TrackPointExtension>
            <ns3:atemp>21.0</ns3:atemp>
          </ns3:TrackPointExtension>
        </extensions>
      </trkpt>
      <trkpt lat="42.5261236913502216339111328125" lon="19.7782795317471027374267578125">
        <ele>1411</ele>
        <time>2026-06-18T11:42:25.000Z</time>
        <extensions>
          <ns3:TrackPointExtension>
            <ns3:atemp>21.0</ns3:atemp>
          </ns3:TrackPointExtension>
        </extensions>
      </trkpt>
      <trkpt lat="42.52611346542835235595703125" lon="19.778330661356449127197265625">
        <ele>1410.199951171875</ele>
        <time>2026-06-18T11:42:26.000Z</time>
        <extensions>
          <ns3:TrackPointExtension>
            <ns3:atemp>21.0</ns3:atemp>
          </ns3:TrackPointExtension>
        </extensions>
      </trkpt>
      <trkpt lat="42.52609561197459697723388671875" lon="19.778364859521389007568359375">
        <ele>1409.4000244140625</ele>
        <time>2026-06-18T11:42:27.000Z</time>
        <extensions>
          <ns3:TrackPointExtension>
            <ns3:atemp>21.0</ns3:atemp>
          </ns3:TrackPointExtension>
        </extensions>
      </trkpt>
      <trkpt lat="42.52608262002468109130859375" lon="19.77840936742722988128662109375">
        <ele>1408.4000244140625</ele>
        <time>2026-06-18T11:42:28.000Z</time>
        <extensions>
          <ns3:TrackPointExtension>
            <ns3:atemp>21.0</ns3:atemp>
          </ns3:TrackPointExtension>
        </extensions>
      </trkpt>
      <trkpt lat="42.52606845460832118988037109375" lon="19.77846720255911350250244140625">
        <ele>1407.4000244140625</ele>
        <time>2026-06-18T11:42:29.000Z</time>
        <extensions>
          <ns3:TrackPointExtension>
            <ns3:atemp>21.0</ns3:atemp>
          </ns3:TrackPointExtension>
        </extensions>
      </trkpt>
      <trkpt lat="42.5260687060654163360595703125" lon="19.77854297496378421783447265625">
        <ele>1406.4000244140625</ele>
        <time>2026-06-18T11:42:30.000Z</time>
        <extensions>
          <ns3:TrackPointExtension>
            <ns3:atemp>21.0</ns3:atemp>
          </ns3:TrackPointExtension>
        </extensions>
      </trkpt>
      <trkpt lat="42.52606241963803768157958984375" lon="19.77860617451369762420654296875">
        <ele>1405.4000244140625</ele>
        <time>2026-06-18T11:42:31.000Z</time>
        <extensions>
          <ns3:TrackPointExtension>
            <ns3:atemp>21.0</ns3:atemp>
          </ns3:TrackPointExtension>
        </extensions>
      </trkpt>
      <trkpt lat="42.5260551273822784423828125" lon="19.7786768339574337005615234375">
        <ele>1404.4000244140625</ele>
        <time>2026-06-18T11:42:32.000Z</time>
        <extensions>
          <ns3:TrackPointExtension>
            <ns3:atemp>21.0</ns3:atemp>
          </ns3:TrackPointExtension>
        </extensions>
      </trkpt>
      <trkpt lat="42.52604884095489978790283203125" lon="19.7787459008395671844482421875">
        <ele>1403</ele>
        <time>2026-06-18T11:42:33.000Z</time>
        <extensions>
          <ns3:TrackPointExtension>
            <ns3:atemp>21.0</ns3:atemp>
          </ns3:TrackPointExtension>
        </extensions>
      </trkpt>
      <trkpt lat="42.5260459072887897491455078125" lon="19.77881153114140033721923828125">
        <ele>1401.5999755859375</ele>
        <time>2026-06-18T11:42:34.000Z</time>
        <extensions>
          <ns3:TrackPointExtension>
            <ns3:atemp>21.0</ns3:atemp>
          </ns3:TrackPointExtension>
        </extensions>
      </trkpt>
      <trkpt lat="42.526065520942211151123046875" lon="19.77886701934039592742919921875">
        <ele>1400.4000244140625</ele>
        <time>2026-06-18T11:42:35.000Z</time>
        <extensions>
          <ns3:TrackPointExtension>
            <ns3:atemp>21.0</ns3:atemp>
          </ns3:TrackPointExtension>
        </extensions>
      </trkpt>
      <trkpt lat="42.52609460614621639251708984375" lon="19.77890742011368274688720703125">
        <ele>1399.4000244140625</ele>
        <time>2026-06-18T11:42:36.000Z</time>
        <extensions>
          <ns3:TrackPointExtension>
            <ns3:atemp>21.0</ns3:atemp>
          </ns3:TrackPointExtension>
        </extensions>
      </trkpt>
      <trkpt lat="42.5261250324547290802001953125" lon="19.778933487832546234130859375">
        <ele>1398.800048828125</ele>
        <time>2026-06-18T11:42:37.000Z</time>
        <extensions>
          <ns3:TrackPointExtension>
            <ns3:atemp>21.0</ns3:atemp>
          </ns3:TrackPointExtension>
        </extensions>
      </trkpt>
      <trkpt lat="42.52616040408611297607421875" lon="19.7789450548589229583740234375">
        <ele>1398</ele>
        <time>2026-06-18T11:42:38.000Z</time>
        <extensions>
          <ns3:TrackPointExtension>
            <ns3:atemp>21.0</ns3:atemp>
          </ns3:TrackPointExtension>
        </extensions>
      </trkpt>
      <trkpt lat="42.526180855929851531982421875" lon="19.77896106429398059844970703125">
        <ele>1397.4000244140625</ele>
        <time>2026-06-18T11:42:39.000Z</time>
        <extensions>
          <ns3:TrackPointExtension>
            <ns3:atemp>21.0</ns3:atemp>
          </ns3:TrackPointExtension>
        </extensions>
      </trkpt>
      <trkpt lat="42.52620122395455837249755859375" lon="19.7789715416729450225830078125">
        <ele>1396.800048828125</ele>
        <time>2026-06-18T11:42:40.000Z</time>
        <extensions>
          <ns3:TrackPointExtension>
            <ns3:atemp>21.0</ns3:atemp>
          </ns3:TrackPointExtension>
        </extensions>
      </trkpt>
      <trkpt lat="42.52621614374220371246337890625" lon="19.7789839468896389007568359375">
        <ele>1396.4000244140625</ele>
        <time>2026-06-18T11:42:41.000Z</time>
        <extensions>
          <ns3:TrackPointExtension>
            <ns3:atemp>21.0</ns3:atemp>
          </ns3:TrackPointExtension>
        </extensions>
      </trkpt>
      <trkpt lat="42.52622871659696102142333984375" lon="19.77899341844022274017333984375">
        <ele>1396</ele>
        <time>2026-06-18T11:42:42.000Z</time>
        <extensions>
          <ns3:TrackPointExtension>
            <ns3:atemp>21.0</ns3:atemp>
          </ns3:TrackPointExtension>
        </extensions>
      </trkpt>
      <trkpt lat="42.52623726613819599151611328125" lon="19.7790037281811237335205078125">
        <ele>1395.800048828125</ele>
        <time>2026-06-18T11:42:43.000Z</time>
        <extensions>
          <ns3:TrackPointExtension>
            <ns3:atemp>21.0</ns3:atemp>
          </ns3:TrackPointExtension>
        </extensions>
      </trkpt>
      <trkpt lat="42.526243887841701507568359375" lon="19.779013283550739288330078125">
        <ele>1395.4000244140625</ele>
        <time>2026-06-18T11:42:44.000Z</time>
        <extensions>
          <ns3:TrackPointExtension>
            <ns3:atemp>21.0</ns3:atemp>
          </ns3:TrackPointExtension>
        </extensions>
      </trkpt>
      <trkpt lat="42.52624799497425556182861328125" lon="19.779018647968769073486328125">
        <ele>1395</ele>
        <time>2026-06-18T11:42:45.000Z</time>
        <extensions>
          <ns3:TrackPointExtension>
            <ns3:atemp>21.0</ns3:atemp>
          </ns3:TrackPointExtension>
        </extensions>
      </trkpt>
      <trkpt lat="42.526257298886775970458984375" lon="19.77903381921350955963134765625">
        <ele>1394.5999755859375</ele>
        <time>2026-06-18T11:42:46.000Z</time>
        <extensions>
          <ns3:TrackPointExtension>
            <ns3:atemp>21.0</ns3:atemp>
          </ns3:TrackPointExtension>
        </extensions>
      </trkpt>
      <trkpt lat="42.52626375295221805572509765625" lon="19.77904773317277431488037109375">
        <ele>1394.4000244140625</ele>
        <time>2026-06-18T11:42:47.000Z</time>
        <extensions>
          <ns3:TrackPointExtension>
            <ns3:atemp>21.0</ns3:atemp>
          </ns3:TrackPointExtension>
        </extensions>
      </trkpt>
      <trkpt lat="42.5262792594730854034423828125" lon="19.77906399406492710113525390625">
        <ele>1394.199951171875</ele>
        <time>2026-06-18T11:42:48.000Z</time>
        <extensions>
          <ns3:TrackPointExtension>
            <ns3:atemp>21.0</ns3:atemp>
          </ns3:TrackPointExtension>
        </extensions>
      </trkpt>
      <trkpt lat="42.52629325725138187408447265625" lon="19.77906701155006885528564453125">
        <ele>1393.800048828125</ele>
        <time>2026-06-18T11:42:49.000Z</time>
        <extensions>
          <ns3:TrackPointExtension>
            <ns3:atemp>21.0</ns3:atemp>
          </ns3:TrackPointExtension>
        </extensions>
      </trkpt>
      <trkpt lat="42.526300884783267974853515625" lon="19.77908092550933361053466796875">
        <ele>1393.5999755859375</ele>
        <time>2026-06-18T11:42:50.000Z</time>
        <extensions>
          <ns3:TrackPointExtension>
            <ns3:atemp>21.0</ns3:atemp>
          </ns3:TrackPointExtension>
        </extensions>
      </trkpt>
      <trkpt lat="42.52631287090480327606201171875" lon="19.779094755649566650390625">
        <ele>1393.199951171875</ele>
        <time>2026-06-18T11:42:51.000Z</time>
        <extensions>
          <ns3:TrackPointExtension>
            <ns3:atemp>21.0</ns3:atemp>
          </ns3:TrackPointExtension>
        </extensions>
      </trkpt>
      <trkpt lat="42.52632577903568744659423828125" lon="19.77910741232335567474365234375">
        <ele>1392.800048828125</ele>
        <time>2026-06-18T11:42:52.000Z</time>
        <extensions>
          <ns3:TrackPointExtension>
            <ns3:atemp>21.0</ns3:atemp>
          </ns3:TrackPointExtension>
        </extensions>
      </trkpt>
      <trkpt lat="42.52633315511047840118408203125" lon="19.77911420166492462158203125">
        <ele>1392.5999755859375</ele>
        <time>2026-06-18T11:42:53.000Z</time>
        <extensions>
          <ns3:TrackPointExtension>
            <ns3:atemp>21.0</ns3:atemp>
          </ns3:TrackPointExtension>
        </extensions>
      </trkpt>
      <trkpt lat="42.52634136937558650970458984375" lon="19.77912132628262042999267578125">
        <ele>1392.199951171875</ele>
        <time>2026-06-18T11:42:54.000Z</time>
        <extensions>
          <ns3:TrackPointExtension>
            <ns3:atemp>21.0</ns3:atemp>
          </ns3:TrackPointExtension>
        </extensions>
      </trkpt>
      <trkpt lat="42.526343800127506256103515625" lon="19.77912786416709423065185546875">
        <ele>1392</ele>
        <time>2026-06-18T11:42:55.000Z</time>
        <extensions>
          <ns3:TrackPointExtension>
            <ns3:atemp>21.0</ns3:atemp>
          </ns3:TrackPointExtension>
        </extensions>
      </trkpt>
      <trkpt lat="42.52635126002132892608642578125" lon="19.779135994613170623779296875">
        <ele>1391.5999755859375</ele>
        <time>2026-06-18T11:42:56.000Z</time>
        <extensions>
          <ns3:TrackPointExtension>
            <ns3:atemp>21.0</ns3:atemp>
          </ns3:TrackPointExtension>
        </extensions>
      </trkpt>
      <trkpt lat="42.52635913901031017303466796875" lon="19.779144711792469024658203125">
        <ele>1391.4000244140625</ele>
        <time>2026-06-18T11:42:57.000Z</time>
        <extensions>
          <ns3:TrackPointExtension>
            <ns3:atemp>21.0</ns3:atemp>
          </ns3:TrackPointExtension>
        </extensions>
      </trkpt>
      <trkpt lat="42.526367940008640289306640625" lon="19.77915175259113311767578125">
        <ele>1391</ele>
        <time>2026-06-18T11:42:58.000Z</time>
        <extensions>
          <ns3:TrackPointExtension>
            <ns3:atemp>21.0</ns3:atemp>
          </ns3:TrackPointExtension>
        </extensions>
      </trkpt>
      <trkpt lat="42.5263795070350170135498046875" lon="19.779160134494304656982421875">
        <ele>1390.5999755859375</ele>
        <time>2026-06-18T11:42:59.000Z</time>
        <extensions>
          <ns3:TrackPointExtension>
            <ns3:atemp>21.0</ns3:atemp>
          </ns3:TrackPointExtension>
        </extensions>
      </trkpt>
      <trkpt lat="42.52639736048877239227294921875" lon="19.7791686840355396270751953125">
        <ele>1390.4000244140625</ele>
        <time>2026-06-18T11:43:00.000Z</time>
        <extensions>
          <ns3:TrackPointExtension>
            <ns3:atemp>21.0</ns3:atemp>
          </ns3:TrackPointExtension>
        </extensions>
      </trkpt>
      <trkpt lat="42.52641429193317890167236328125" lon="19.77917446754872798919677734375">
        <ele>1389.800048828125</ele>
        <time>2026-06-18T11:43:01.000Z</time>
        <extensions>
          <ns3:TrackPointExtension>
            <ns3:atemp>21.0</ns3:atemp>
          </ns3:TrackPointExtension>
        </extensions>
      </trkpt>
      <trkpt lat="42.526432313024997711181640625" lon="19.779202044010162353515625">
        <ele>1389.4000244140625</ele>
        <time>2026-06-18T11:43:02.000Z</time>
        <extensions>
          <ns3:TrackPointExtension>
            <ns3:atemp>21.0</ns3:atemp>
          </ns3:TrackPointExtension>
        </extensions>
      </trkpt>
      <trkpt lat="42.5264593027532100677490234375" lon="19.779235906898975372314453125">
        <ele>1388.5999755859375</ele>
        <time>2026-06-18T11:43:03.000Z</time>
        <extensions>
          <ns3:TrackPointExtension>
            <ns3:atemp>21.0</ns3:atemp>
          </ns3:TrackPointExtension>
        </extensions>
      </trkpt>
      <trkpt lat="42.5264968536794185638427734375" lon="19.77926842868328094482421875">
        <ele>1387.800048828125</ele>
        <time>2026-06-18T11:43:04.000Z</time>
        <extensions>
          <ns3:TrackPointExtension>
            <ns3:atemp>21.0</ns3:atemp>
          </ns3:TrackPointExtension>
        </extensions>
      </trkpt>
      <trkpt lat="42.5265271961688995361328125" lon="19.779296927154064178466796875">
        <ele>1386.800048828125</ele>
        <time>2026-06-18T11:43:05.000Z</time>
        <extensions>
          <ns3:TrackPointExtension>
            <ns3:atemp>21.0</ns3:atemp>
          </ns3:TrackPointExtension>
        </extensions>
      </trkpt>
      <trkpt lat="42.5265598855912685394287109375" lon="19.77932534180581569671630859375">
        <ele>1385.800048828125</ele>
        <time>2026-06-18T11:43:06.000Z</time>
        <extensions>
          <ns3:TrackPointExtension>
            <ns3:atemp>21.0</ns3:atemp>
          </ns3:TrackPointExtension>
        </extensions>
      </trkpt>
      <trkpt lat="42.526595592498779296875" lon="19.779353924095630645751953125">
        <ele>1385</ele>
        <time>2026-06-18T11:43:07.000Z</time>
        <extensions>
          <ns3:TrackPointExtension>
            <ns3:atemp>21.0</ns3:atemp>
          </ns3:TrackPointExtension>
        </extensions>
      </trkpt>
      <trkpt lat="42.52663993276655673980712890625" lon="19.7793862782418727874755859375">
        <ele>1384</ele>
        <time>2026-06-18T11:43:08.000Z</time>
        <extensions>
          <ns3:TrackPointExtension>
            <ns3:atemp>21.0</ns3:atemp>
          </ns3:TrackPointExtension>
        </extensions>
      </trkpt>
      <trkpt lat="42.5266879610717296600341796875" lon="19.77941385470330715179443359375">
        <ele>1383</ele>
        <time>2026-06-18T11:43:09.000Z</time>
        <extensions>
          <ns3:TrackPointExtension>
            <ns3:atemp>21.0</ns3:atemp>
          </ns3:TrackPointExtension>
        </extensions>
      </trkpt>
      <trkpt lat="42.52673012204468250274658203125" lon="19.77942793630063533782958984375">
        <ele>1381.5999755859375</ele>
        <time>2026-06-18T11:43:10.000Z</time>
        <extensions>
          <ns3:TrackPointExtension>
            <ns3:atemp>21.0</ns3:atemp>
          </ns3:TrackPointExtension>
        </extensions>
      </trkpt>
      <trkpt lat="42.5267657451331615447998046875" lon="19.779453836381435394287109375">
        <ele>1380.800048828125</ele>
        <time>2026-06-18T11:43:11.000Z</time>
        <extensions>
          <ns3:TrackPointExtension>
            <ns3:atemp>21.0</ns3:atemp>
          </ns3:TrackPointExtension>
        </extensions>
      </trkpt>
      <trkpt lat="42.52679885365068912506103515625" lon="19.7794717736542224884033203125">
        <ele>1379.800048828125</ele>
        <time>2026-06-18T11:43:12.000Z</time>
        <extensions>
          <ns3:TrackPointExtension>
            <ns3:atemp>21.0</ns3:atemp>
          </ns3:TrackPointExtension>
        </extensions>
      </trkpt>
      <trkpt lat="42.5268311239778995513916015625" lon="19.77950320579111576080322265625">
        <ele>1378.800048828125</ele>
        <time>2026-06-18T11:43:13.000Z</time>
        <extensions>
          <ns3:TrackPointExtension>
            <ns3:atemp>21.0</ns3:atemp>
          </ns3:TrackPointExtension>
        </extensions>
      </trkpt>
      <trkpt lat="42.52686121501028537750244140625" lon="19.77953757159411907196044921875">
        <ele>1378</ele>
        <time>2026-06-18T11:43:14.000Z</time>
        <extensions>
          <ns3:TrackPointExtension>
            <ns3:atemp>21.0</ns3:atemp>
          </ns3:TrackPointExtension>
        </extensions>
      </trkpt>
      <trkpt lat="42.526872865855693817138671875" lon="19.77958333678543567657470703125">
        <ele>1377</ele>
        <time>2026-06-18T11:43:15.000Z</time>
        <extensions>
          <ns3:TrackPointExtension>
            <ns3:atemp>21.0</ns3:atemp>
          </ns3:TrackPointExtension>
        </extensions>
      </trkpt>
      <trkpt lat="42.5268931500613689422607421875" lon="19.7796280123293399810791015625">
        <ele>1376</ele>
        <time>2026-06-18T11:43:16.000Z</time>
        <extensions>
          <ns3:TrackPointExtension>
            <ns3:atemp>21.0</ns3:atemp>
          </ns3:TrackPointExtension>
        </extensions>
      </trkpt>
      <trkpt lat="42.52690513618290424346923828125" lon="19.77966673672199249267578125">
        <ele>1375.199951171875</ele>
        <time>2026-06-18T11:43:17.000Z</time>
        <extensions>
          <ns3:TrackPointExtension>
            <ns3:atemp>21.0</ns3:atemp>
          </ns3:TrackPointExtension>
        </extensions>
      </trkpt>
      <trkpt lat="42.52691033296287059783935546875" lon="19.77969347499310970306396484375">
        <ele>1374.199951171875</ele>
        <time>2026-06-18T11:43:18.000Z</time>
        <extensions>
          <ns3:TrackPointExtension>
            <ns3:atemp>21.0</ns3:atemp>
          </ns3:TrackPointExtension>
        </extensions>
      </trkpt>
      <trkpt lat="42.52691552974283695220947265625" lon="19.77970655076205730438232421875">
        <ele>1373.4000244140625</ele>
        <time>2026-06-18T11:43:19.000Z</time>
        <extensions>
          <ns3:TrackPointExtension>
            <ns3:atemp>21.0</ns3:atemp>
          </ns3:TrackPointExtension>
        </extensions>
      </trkpt>
      <trkpt lat="42.52691142261028289794921875" lon="19.77972063235938549041748046875">
        <ele>1372.800048828125</ele>
        <time>2026-06-18T11:43:20.000Z</time>
        <extensions>
          <ns3:TrackPointExtension>
            <ns3:atemp>21.0</ns3:atemp>
          </ns3:TrackPointExtension>
        </extensions>
      </trkpt>
      <trkpt lat="42.526896335184574127197265625" lon="19.77974225766956806182861328125">
        <ele>1372.199951171875</ele>
        <time>2026-06-18T11:43:21.000Z</time>
        <extensions>
          <ns3:TrackPointExtension>
            <ns3:atemp>21.0</ns3:atemp>
          </ns3:TrackPointExtension>
        </extensions>
      </trkpt>
      <trkpt lat="42.52687395550310611724853515625" lon="19.77975902147591114044189453125">
        <ele>1371.4000244140625</ele>
        <time>2026-06-18T11:43:22.000Z</time>
        <extensions>
          <ns3:TrackPointExtension>
            <ns3:atemp>21.0</ns3:atemp>
          </ns3:TrackPointExtension>
        </extensions>
      </trkpt>
      <trkpt lat="42.5268535874783992767333984375" lon="19.779758267104625701904296875">
        <ele>1371</ele>
        <time>2026-06-18T11:43:23.000Z</time>
        <extensions>
          <ns3:TrackPointExtension>
            <ns3:atemp>21.0</ns3:atemp>
          </ns3:TrackPointExtension>
        </extensions>
      </trkpt>
      <trkpt lat="42.52683766186237335205078125" lon="19.77976120077073574066162109375">
        <ele>1370.4000244140625</ele>
        <time>2026-06-18T11:43:24.000Z</time>
        <extensions>
          <ns3:TrackPointExtension>
            <ns3:atemp>21.0</ns3:atemp>
          </ns3:TrackPointExtension>
        </extensions>
      </trkpt>
      <trkpt lat="42.526820562779903411865234375" lon="19.77976455353200435638427734375">
        <ele>1369.800048828125</ele>
        <time>2026-06-18T11:43:25.000Z</time>
        <extensions>
          <ns3:TrackPointExtension>
            <ns3:atemp>21.0</ns3:atemp>
          </ns3:TrackPointExtension>
        </extensions>
      </trkpt>
      <trkpt lat="42.5267989374697208404541015625" lon="19.7797694988548755645751953125">
        <ele>1369</ele>
        <time>2026-06-18T11:43:26.000Z</time>
        <extensions>
          <ns3:TrackPointExtension>
            <ns3:atemp>21.0</ns3:atemp>
          </ns3:TrackPointExtension>
        </extensions>
      </trkpt>
      <trkpt lat="42.5267714448273181915283203125" lon="19.7797681577503681182861328125">
        <ele>1368.199951171875</ele>
        <time>2026-06-18T11:43:27.000Z</time>
        <extensions>
          <ns3:TrackPointExtension>
            <ns3:atemp>22.0</ns3:atemp>
          </ns3:TrackPointExtension>
        </extensions>
      </trkpt>
      <trkpt lat="42.52674889750778675079345703125" lon="19.779770337045192718505859375">
        <ele>1367.199951171875</ele>
        <time>2026-06-18T11:43:28.000Z</time>
        <extensions>
          <ns3:TrackPointExtension>
            <ns3:atemp>21.0</ns3:atemp>
          </ns3:TrackPointExtension>
        </extensions>
      </trkpt>
      <trkpt lat="42.5267379172146320343017578125" lon="19.7797819040715694427490234375">
        <ele>1366.4000244140625</ele>
        <time>2026-06-18T11:43:29.000Z</time>
        <extensions>
          <ns3:TrackPointExtension>
            <ns3:atemp>21.0</ns3:atemp>
          </ns3:TrackPointExtension>
        </extensions>
      </trkpt>
      <trkpt lat="42.526736073195934295654296875" lon="19.779787100851535797119140625">
        <ele>1365.5999755859375</ele>
        <time>2026-06-18T11:43:30.000Z</time>
        <extensions>
          <ns3:TrackPointExtension>
            <ns3:atemp>21.0</ns3:atemp>
          </ns3:TrackPointExtension>
        </extensions>
      </trkpt>
      <trkpt lat="42.526736073195934295654296875" lon="19.77978701703250408172607421875">
        <ele>1364.800048828125</ele>
        <time>2026-06-18T11:43:31.000Z</time>
        <extensions>
          <ns3:TrackPointExtension>
            <ns3:atemp>21.0</ns3:atemp>
          </ns3:TrackPointExtension>
        </extensions>
      </trkpt>
      <trkpt lat="42.5267365761101245880126953125" lon="19.779789447784423828125">
        <ele>1364.199951171875</ele>
        <time>2026-06-18T11:43:32.000Z</time>
        <extensions>
          <ns3:TrackPointExtension>
            <ns3:atemp>21.0</ns3:atemp>
          </ns3:TrackPointExtension>
        </extensions>
      </trkpt>
      <trkpt lat="42.5267325527966022491455078125" lon="19.77979573421180248260498046875">
        <ele>1363.5999755859375</ele>
        <time>2026-06-18T11:43:33.000Z</time>
        <extensions>
          <ns3:TrackPointExtension>
            <ns3:atemp>21.0</ns3:atemp>
          </ns3:TrackPointExtension>
        </extensions>
      </trkpt>
      <trkpt lat="42.52673364244401454925537109375" lon="19.77981400676071643829345703125">
        <ele>1363.199951171875</ele>
        <time>2026-06-18T11:43:34.000Z</time>
        <extensions>
          <ns3:TrackPointExtension>
            <ns3:atemp>22.0</ns3:atemp>
          </ns3:TrackPointExtension>
        </extensions>
      </trkpt>
      <trkpt lat="42.5267342291772365570068359375" lon="19.77984066121280193328857421875">
        <ele>1362.800048828125</ele>
        <time>2026-06-18T11:43:35.000Z</time>
        <extensions>
          <ns3:TrackPointExtension>
            <ns3:atemp>21.0</ns3:atemp>
          </ns3:TrackPointExtension>
        </extensions>
      </trkpt>
      <trkpt lat="42.5267337262630462646484375" lon="19.779853485524654388427734375">
        <ele>1362.4000244140625</ele>
        <time>2026-06-18T11:43:36.000Z</time>
        <extensions>
          <ns3:TrackPointExtension>
            <ns3:atemp>21.0</ns3:atemp>
          </ns3:TrackPointExtension>
        </extensions>
      </trkpt>
      <trkpt lat="42.5267325527966022491455078125" lon="19.77987192571163177490234375">
        <ele>1362</ele>
        <time>2026-06-18T11:43:37.000Z</time>
        <extensions>
          <ns3:TrackPointExtension>
            <ns3:atemp>21.0</ns3:atemp>
          </ns3:TrackPointExtension>
        </extensions>
      </trkpt>
      <trkpt lat="42.526732049882411956787109375" lon="19.779891707003116607666015625">
        <ele>1361.5999755859375</ele>
        <time>2026-06-18T11:43:38.000Z</time>
        <extensions>
          <ns3:TrackPointExtension>
            <ns3:atemp>21.0</ns3:atemp>
          </ns3:TrackPointExtension>
        </extensions>
      </trkpt>
      <trkpt lat="42.52673615701496601104736328125" lon="19.7799136675894260406494140625">
        <ele>1361.199951171875</ele>
        <time>2026-06-18T11:43:39.000Z</time>
        <extensions>
          <ns3:TrackPointExtension>
            <ns3:atemp>21.0</ns3:atemp>
          </ns3:TrackPointExtension>
        </extensions>
      </trkpt>
      <trkpt lat="42.52674135379493236541748046875" lon="19.7799414955079555511474609375">
        <ele>1360.800048828125</ele>
        <time>2026-06-18T11:43:40.000Z</time>
        <extensions>
          <ns3:TrackPointExtension>
            <ns3:atemp>22.0</ns3:atemp>
          </ns3:TrackPointExtension>
        </extensions>
      </trkpt>
      <trkpt lat="42.526736073195934295654296875" lon="19.7799683175981044769287109375">
        <ele>1360.4000244140625</ele>
        <time>2026-06-18T11:43:41.000Z</time>
        <extensions>
          <ns3:TrackPointExtension>
            <ns3:atemp>22.0</ns3:atemp>
          </ns3:TrackPointExtension>
        </extensions>
      </trkpt>
      <trkpt lat="42.5267310440540313720703125" lon="19.77998332120478153228759765625">
        <ele>1359.800048828125</ele>
        <time>2026-06-18T11:43:42.000Z</time>
        <extensions>
          <ns3:TrackPointExtension>
            <ns3:atemp>22.0</ns3:atemp>
          </ns3:TrackPointExtension>
        </extensions>
      </trkpt>
      <trkpt lat="42.526709921658039093017578125" lon="19.7799937985837459564208984375">
        <ele>1359.199951171875</ele>
        <time>2026-06-18T11:43:43.000Z</time>
        <extensions>
          <ns3:TrackPointExtension>
            <ns3:atemp>22.0</ns3:atemp>
          </ns3:TrackPointExtension>
        </extensions>
      </trkpt>
      <trkpt lat="42.526678740978240966796875" lon="19.7800095565617084503173828125">
        <ele>1358.5999755859375</ele>
        <time>2026-06-18T11:43:44.000Z</time>
        <extensions>
          <ns3:TrackPointExtension>
            <ns3:atemp>22.0</ns3:atemp>
          </ns3:TrackPointExtension>
        </extensions>
      </trkpt>
      <trkpt lat="42.5266463868319988250732421875" lon="19.7800139151513576507568359375">
        <ele>1358</ele>
        <time>2026-06-18T11:43:45.000Z</time>
        <extensions>
          <ns3:TrackPointExtension>
            <ns3:atemp>22.0</ns3:atemp>
          </ns3:TrackPointExtension>
        </extensions>
      </trkpt>
      <trkpt lat="42.5266272760927677154541015625" lon="19.7800062038004398345947265625">
        <ele>1357.4000244140625</ele>
        <time>2026-06-18T11:43:46.000Z</time>
        <extensions>
          <ns3:TrackPointExtension>
            <ns3:atemp>22.0</ns3:atemp>
          </ns3:TrackPointExtension>
        </extensions>
      </trkpt>
      <trkpt lat="42.52661361359059810638427734375" lon="19.77999036200344562530517578125">
        <ele>1356.800048828125</ele>
        <time>2026-06-18T11:43:47.000Z</time>
        <extensions>
          <ns3:TrackPointExtension>
            <ns3:atemp>22.0</ns3:atemp>
          </ns3:TrackPointExtension>
        </extensions>
      </trkpt>
      <trkpt lat="42.52659500576555728912353515625" lon="19.7799793817102909088134765625">
        <ele>1356.199951171875</ele>
        <time>2026-06-18T11:43:48.000Z</time>
        <extensions>
          <ns3:TrackPointExtension>
            <ns3:atemp>21.0</ns3:atemp>
          </ns3:TrackPointExtension>
        </extensions>
      </trkpt>
      <trkpt lat="42.5265846960246562957763671875" lon="19.779966138303279876708984375">
        <ele>1355.5999755859375</ele>
        <time>2026-06-18T11:43:49.000Z</time>
        <extensions>
          <ns3:TrackPointExtension>
            <ns3:atemp>21.0</ns3:atemp>
          </ns3:TrackPointExtension>
        </extensions>
      </trkpt>
      <trkpt lat="42.52657287754118442535400390625" lon="19.7799482010304927825927734375">
        <ele>1355.199951171875</ele>
        <time>2026-06-18T11:43:50.000Z</time>
        <extensions>
          <ns3:TrackPointExtension>
            <ns3:atemp>21.0</ns3:atemp>
          </ns3:TrackPointExtension>
        </extensions>
      </trkpt>
      <trkpt lat="42.52655737102031707763671875" lon="19.77993537671864032745361328125">
        <ele>1354.5999755859375</ele>
        <time>2026-06-18T11:43:51.000Z</time>
        <extensions>
          <ns3:TrackPointExtension>
            <ns3:atemp>21.0</ns3:atemp>
          </ns3:TrackPointExtension>
        </extensions>
      </trkpt>
      <trkpt lat="42.52654664218425750732421875" lon="19.77992615662515163421630859375">
        <ele>1354</ele>
        <time>2026-06-18T11:43:52.000Z</time>
        <extensions>
          <ns3:TrackPointExtension>
            <ns3:atemp>21.0</ns3:atemp>
          </ns3:TrackPointExtension>
        </extensions>
      </trkpt>
      <trkpt lat="42.52652308903634548187255859375" lon="19.77991961874067783355712890625">
        <ele>1353.5999755859375</ele>
        <time>2026-06-18T11:43:53.000Z</time>
        <extensions>
          <ns3:TrackPointExtension>
            <ns3:atemp>21.0</ns3:atemp>
          </ns3:TrackPointExtension>
        </extensions>
      </trkpt>
      <trkpt lat="42.52652141265571117401123046875" lon="19.7799297608435153961181640625">
        <ele>1353</ele>
        <time>2026-06-18T11:43:54.000Z</time>
        <extensions>
          <ns3:TrackPointExtension>
            <ns3:atemp>21.0</ns3:atemp>
          </ns3:TrackPointExtension>
        </extensions>
      </trkpt>
      <trkpt lat="42.52651982009410858154296875" lon="19.77995515801012516021728515625">
        <ele>1352.5999755859375</ele>
        <time>2026-06-18T11:43:55.000Z</time>
        <extensions>
          <ns3:TrackPointExtension>
            <ns3:atemp>21.0</ns3:atemp>
          </ns3:TrackPointExtension>
        </extensions>
      </trkpt>
      <trkpt lat="42.5265116058290004730224609375" lon="19.7799785435199737548828125">
        <ele>1352</ele>
        <time>2026-06-18T11:43:56.000Z</time>
        <extensions>
          <ns3:TrackPointExtension>
            <ns3:atemp>21.0</ns3:atemp>
          </ns3:TrackPointExtension>
        </extensions>
      </trkpt>
      <trkpt lat="42.5265012122690677642822265625" lon="19.7800098918378353118896484375">
        <ele>1351.4000244140625</ele>
        <time>2026-06-18T11:43:57.000Z</time>
        <extensions>
          <ns3:TrackPointExtension>
            <ns3:atemp>21.0</ns3:atemp>
          </ns3:TrackPointExtension>
        </extensions>
      </trkpt>
      <trkpt lat="42.52649542875587940216064453125" lon="19.7800454311072826385498046875">
        <ele>1350.5999755859375</ele>
        <time>2026-06-18T11:43:58.000Z</time>
        <extensions>
          <ns3:TrackPointExtension>
            <ns3:atemp>21.0</ns3:atemp>
          </ns3:TrackPointExtension>
        </extensions>
      </trkpt>
      <trkpt lat="42.52649291418492794036865234375" lon="19.78007820434868335723876953125">
        <ele>1349.800048828125</ele>
        <time>2026-06-18T11:43:59.000Z</time>
        <extensions>
          <ns3:TrackPointExtension>
            <ns3:atemp>22.0</ns3:atemp>
          </ns3:TrackPointExtension>
        </extensions>
      </trkpt>
      <trkpt lat="42.52648754976689815521240234375" lon="19.78010871447622776031494140625">
        <ele>1349.199951171875</ele>
        <time>2026-06-18T11:44:00.000Z</time>
        <extensions>
          <ns3:TrackPointExtension>
            <ns3:atemp>22.0</ns3:atemp>
          </ns3:TrackPointExtension>
        </extensions>
      </trkpt>
      <trkpt lat="42.52649056725203990936279296875" lon="19.78014240972697734832763671875">
        <ele>1348.5999755859375</ele>
        <time>2026-06-18T11:44:01.000Z</time>
        <extensions>
          <ns3:TrackPointExtension>
            <ns3:atemp>21.0</ns3:atemp>
          </ns3:TrackPointExtension>
        </extensions>
      </trkpt>
      <trkpt lat="42.5264921598136425018310546875" lon="19.780168645083904266357421875">
        <ele>1348.4000244140625</ele>
        <time>2026-06-18T11:44:02.000Z</time>
        <extensions>
          <ns3:TrackPointExtension>
            <ns3:atemp>21.0</ns3:atemp>
          </ns3:TrackPointExtension>
        </extensions>
      </trkpt>
      <trkpt lat="42.5264921598136425018310546875" lon="19.7801782004535198211669921875">
        <ele>1347.800048828125</ele>
        <time>2026-06-18T11:44:03.000Z</time>
        <extensions>
          <ns3:TrackPointExtension>
            <ns3:atemp>21.0</ns3:atemp>
          </ns3:TrackPointExtension>
        </extensions>
      </trkpt>
      <trkpt lat="42.52648738212883472442626953125" lon="19.78018683381378650665283203125">
        <ele>1347.199951171875</ele>
        <time>2026-06-18T11:44:04.000Z</time>
        <extensions>
          <ns3:TrackPointExtension>
            <ns3:atemp>21.0</ns3:atemp>
          </ns3:TrackPointExtension>
        </extensions>
      </trkpt>
      <trkpt lat="42.5264842808246612548828125" lon="19.78018884547054767608642578125">
        <ele>1346.800048828125</ele>
        <time>2026-06-18T11:44:05.000Z</time>
        <extensions>
          <ns3:TrackPointExtension>
            <ns3:atemp>21.0</ns3:atemp>
          </ns3:TrackPointExtension>
        </extensions>
      </trkpt>
      <trkpt lat="42.5264842808246612548828125" lon="19.78018884547054767608642578125">
        <ele>1346.4000244140625</ele>
        <time>2026-06-18T11:44:06.000Z</time>
        <extensions>
          <ns3:TrackPointExtension>
            <ns3:atemp>21.0</ns3:atemp>
          </ns3:TrackPointExtension>
        </extensions>
      </trkpt>
      <trkpt lat="42.5264842808246612548828125" lon="19.78018884547054767608642578125">
        <ele>1346.199951171875</ele>
        <time>2026-06-18T11:44:07.000Z</time>
        <extensions>
          <ns3:TrackPointExtension>
            <ns3:atemp>21.0</ns3:atemp>
          </ns3:TrackPointExtension>
        </extensions>
      </trkpt>
      <trkpt lat="42.5264842808246612548828125" lon="19.78018884547054767608642578125">
        <ele>1346</ele>
        <time>2026-06-18T11:44:08.000Z</time>
        <extensions>
          <ns3:TrackPointExtension>
            <ns3:atemp>21.0</ns3:atemp>
          </ns3:TrackPointExtension>
        </extensions>
      </trkpt>
      <trkpt lat="42.5264842808246612548828125" lon="19.78018884547054767608642578125">
        <ele>1345.800048828125</ele>
        <time>2026-06-18T11:44:09.000Z</time>
        <extensions>
          <ns3:TrackPointExtension>
            <ns3:atemp>21.0</ns3:atemp>
          </ns3:TrackPointExtension>
        </extensions>
      </trkpt>
      <trkpt lat="42.5264842808246612548828125" lon="19.78018884547054767608642578125">
        <ele>1345.800048828125</ele>
        <time>2026-06-18T11:44:10.000Z</time>
        <extensions>
          <ns3:TrackPointExtension>
            <ns3:atemp>21.0</ns3:atemp>
          </ns3:TrackPointExtension>
        </extensions>
      </trkpt>
      <trkpt lat="42.5264842808246612548828125" lon="19.78018884547054767608642578125">
        <ele>1345.5999755859375</ele>
        <time>2026-06-18T11:44:11.000Z</time>
        <extensions>
          <ns3:TrackPointExtension>
            <ns3:atemp>21.0</ns3:atemp>
          </ns3:TrackPointExtension>
        </extensions>
      </trkpt>
      <trkpt lat="42.5264842808246612548828125" lon="19.78018884547054767608642578125">
        <ele>1345.5999755859375</ele>
        <time>2026-06-18T11:44:12.000Z</time>
        <extensions>
          <ns3:TrackPointExtension>
            <ns3:atemp>21.0</ns3:atemp>
          </ns3:TrackPointExtension>
        </extensions>
      </trkpt>
      <trkpt lat="42.5264842808246612548828125" lon="19.78018884547054767608642578125">
        <ele>1345.5999755859375</ele>
        <time>2026-06-18T11:44:13.000Z</time>
        <extensions>
          <ns3:TrackPointExtension>
            <ns3:atemp>21.0</ns3:atemp>
          </ns3:TrackPointExtension>
        </extensions>
      </trkpt>
      <trkpt lat="42.5264842808246612548828125" lon="19.78018884547054767608642578125">
        <ele>1345.5999755859375</ele>
        <time>2026-06-18T11:44:14.000Z</time>
        <extensions>
          <ns3:TrackPointExtension>
            <ns3:atemp>21.0</ns3:atemp>
          </ns3:TrackPointExtension>
        </extensions>
      </trkpt>
      <trkpt lat="42.5264842808246612548828125" lon="19.78018884547054767608642578125">
        <ele>1345.5999755859375</ele>
        <time>2026-06-18T11:44:15.000Z</time>
        <extensions>
          <ns3:TrackPointExtension>
            <ns3:atemp>21.0</ns3:atemp>
          </ns3:TrackPointExtension>
        </extensions>
      </trkpt>
      <trkpt lat="42.5264842808246612548828125" lon="19.78018884547054767608642578125">
        <ele>1345.5999755859375</ele>
        <time>2026-06-18T11:44:16.000Z</time>
        <extensions>
          <ns3:TrackPointExtension>
            <ns3:atemp>21.0</ns3:atemp>
          </ns3:TrackPointExtension>
        </extensions>
      </trkpt>
      <trkpt lat="42.526480257511138916015625" lon="19.78019471280276775360107421875">
        <ele>1345.4000244140625</ele>
        <time>2026-06-18T11:44:17.000Z</time>
        <extensions>
          <ns3:TrackPointExtension>
            <ns3:atemp>21.0</ns3:atemp>
          </ns3:TrackPointExtension>
        </extensions>
      </trkpt>
      <trkpt lat="42.52647262997925281524658203125" lon="19.78020963259041309356689453125">
        <ele>1345.4000244140625</ele>
        <time>2026-06-18T11:44:18.000Z</time>
        <extensions>
          <ns3:TrackPointExtension>
            <ns3:atemp>21.0</ns3:atemp>
          </ns3:TrackPointExtension>
        </extensions>
      </trkpt>
      <trkpt lat="42.526463158428668975830078125" lon="19.78021524846553802490234375">
        <ele>1345.4000244140625</ele>
        <time>2026-06-18T11:44:19.000Z</time>
        <extensions>
          <ns3:TrackPointExtension>
            <ns3:atemp>21.0</ns3:atemp>
          </ns3:TrackPointExtension>
        </extensions>
      </trkpt>
      <trkpt lat="42.5264519266784191131591796875" lon="19.78022220544517040252685546875">
        <ele>1345.4000244140625</ele>
        <time>2026-06-18T11:44:20.000Z</time>
        <extensions>
          <ns3:TrackPointExtension>
            <ns3:atemp>21.0</ns3:atemp>
          </ns3:TrackPointExtension>
        </extensions>
      </trkpt>
      <trkpt lat="42.52645184285938739776611328125" lon="19.780222289264202117919921875">
        <ele>1345.4000244140625</ele>
        <time>2026-06-18T11:44:21.000Z</time>
        <extensions>
          <ns3:TrackPointExtension>
            <ns3:atemp>21.0</ns3:atemp>
          </ns3:TrackPointExtension>
        </extensions>
      </trkpt>
      <trkpt lat="42.52645184285938739776611328125" lon="19.780222289264202117919921875">
        <ele>1345.199951171875</ele>
        <time>2026-06-18T11:44:22.000Z</time>
        <extensions>
          <ns3:TrackPointExtension>
            <ns3:atemp>21.0</ns3:atemp>
          </ns3:TrackPointExtension>
        </extensions>
      </trkpt>
      <trkpt lat="42.52645184285938739776611328125" lon="19.780222289264202117919921875">
        <ele>1345.199951171875</ele>
        <time>2026-06-18T11:44:23.000Z</time>
        <extensions>
          <ns3:TrackPointExtension>
            <ns3:atemp>21.0</ns3:atemp>
          </ns3:TrackPointExtension>
        </extensions>
      </trkpt>
      <trkpt lat="42.52645184285938739776611328125" lon="19.780222289264202117919921875">
        <ele>1345.199951171875</ele>
        <time>2026-06-18T11:44:24.000Z</time>
        <extensions>
          <ns3:TrackPointExtension>
            <ns3:atemp>21.0</ns3:atemp>
          </ns3:TrackPointExtension>
        </extensions>
      </trkpt>
      <trkpt lat="42.52645184285938739776611328125" lon="19.780222289264202117919921875">
        <ele>1345.199951171875</ele>
        <time>2026-06-18T11:44:25.000Z</time>
        <extensions>
          <ns3:TrackPointExtension>
            <ns3:atemp>21.0</ns3:atemp>
          </ns3:TrackPointExtension>
        </extensions>
      </trkpt>
      <trkpt lat="42.52645184285938739776611328125" lon="19.780222289264202117919921875">
        <ele>1345.199951171875</ele>
        <time>2026-06-18T11:44:26.000Z</time>
        <extensions>
          <ns3:TrackPointExtension>
            <ns3:atemp>21.0</ns3:atemp>
          </ns3:TrackPointExtension>
        </extensions>
      </trkpt>
      <trkpt lat="42.52645184285938739776611328125" lon="19.780222289264202117919921875">
        <ele>1345.199951171875</ele>
        <time>2026-06-18T11:44:27.000Z</time>
        <extensions>
          <ns3:TrackPointExtension>
            <ns3:atemp>21.0</ns3:atemp>
          </ns3:TrackPointExtension>
        </extensions>
      </trkpt>
      <trkpt lat="42.52645184285938739776611328125" lon="19.780222289264202117919921875">
        <ele>1345.199951171875</ele>
        <time>2026-06-18T11:44:28.000Z</time>
        <extensions>
          <ns3:TrackPointExtension>
            <ns3:atemp>21.0</ns3:atemp>
          </ns3:TrackPointExtension>
        </extensions>
      </trkpt>
      <trkpt lat="42.52645184285938739776611328125" lon="19.780222289264202117919921875">
        <ele>1345.199951171875</ele>
        <time>2026-06-18T11:44:29.000Z</time>
        <extensions>
          <ns3:TrackPointExtension>
            <ns3:atemp>21.0</ns3:atemp>
          </ns3:TrackPointExtension>
        </extensions>
      </trkpt>
      <trkpt lat="42.52645184285938739776611328125" lon="19.780222289264202117919921875">
        <ele>1345.199951171875</ele>
        <time>2026-06-18T11:44:30.000Z</time>
        <extensions>
          <ns3:TrackPointExtension>
            <ns3:atemp>21.0</ns3:atemp>
          </ns3:TrackPointExtension>
        </extensions>
      </trkpt>
      <trkpt lat="42.52645184285938739776611328125" lon="19.780222289264202117919921875">
        <ele>1345.199951171875</ele>
        <time>2026-06-18T11:44:31.000Z</time>
        <extensions>
          <ns3:TrackPointExtension>
            <ns3:atemp>21.0</ns3:atemp>
          </ns3:TrackPointExtension>
        </extensions>
      </trkpt>
      <trkpt lat="42.52645184285938739776611328125" lon="19.780222289264202117919921875">
        <ele>1345.199951171875</ele>
        <time>2026-06-18T11:44:32.000Z</time>
        <extensions>
          <ns3:TrackPointExtension>
            <ns3:atemp>21.0</ns3:atemp>
          </ns3:TrackPointExtension>
        </extensions>
      </trkpt>
      <trkpt lat="42.52645184285938739776611328125" lon="19.780222289264202117919921875">
        <ele>1345.199951171875</ele>
        <time>2026-06-18T11:44:33.000Z</time>
        <extensions>
          <ns3:TrackPointExtension>
            <ns3:atemp>21.0</ns3:atemp>
          </ns3:TrackPointExtension>
        </extensions>
      </trkpt>
      <trkpt lat="42.52645184285938739776611328125" lon="19.780222289264202117919921875">
        <ele>1345</ele>
        <time>2026-06-18T11:44:34.000Z</time>
        <extensions>
          <ns3:TrackPointExtension>
            <ns3:atemp>21.0</ns3:atemp>
          </ns3:TrackPointExtension>
        </extensions>
      </trkpt>
      <trkpt lat="42.52645184285938739776611328125" lon="19.780222289264202117919921875">
        <ele>1345</ele>
        <time>2026-06-18T11:44:35.000Z</time>
        <extensions>
          <ns3:TrackPointExtension>
            <ns3:atemp>21.0</ns3:atemp>
          </ns3:TrackPointExtension>
        </extensions>
      </trkpt>
      <trkpt lat="42.52645184285938739776611328125" lon="19.780222289264202117919921875">
        <ele>1345</ele>
        <time>2026-06-18T11:44:36.000Z</time>
        <extensions>
          <ns3:TrackPointExtension>
            <ns3:atemp>21.0</ns3:atemp>
          </ns3:TrackPointExtension>
        </extensions>
      </trkpt>
      <trkpt lat="42.52645184285938739776611328125" lon="19.780222289264202117919921875">
        <ele>1345</ele>
        <time>2026-06-18T11:44:37.000Z</time>
        <extensions>
          <ns3:TrackPointExtension>
            <ns3:atemp>21.0</ns3:atemp>
          </ns3:TrackPointExtension>
        </extensions>
      </trkpt>
      <trkpt lat="42.52645184285938739776611328125" lon="19.780222289264202117919921875">
        <ele>1345</ele>
        <time>2026-06-18T11:44:38.000Z</time>
        <extensions>
          <ns3:TrackPointExtension>
            <ns3:atemp>21.0</ns3:atemp>
          </ns3:TrackPointExtension>
        </extensions>
      </trkpt>
      <trkpt lat="42.52645184285938739776611328125" lon="19.780222289264202117919921875">
        <ele>1345</ele>
        <time>2026-06-18T11:44:39.000Z</time>
        <extensions>
          <ns3:TrackPointExtension>
            <ns3:atemp>21.0</ns3:atemp>
          </ns3:TrackPointExtension>
        </extensions>
      </trkpt>
      <trkpt lat="42.52645184285938739776611328125" lon="19.780222289264202117919921875">
        <ele>1345</ele>
        <time>2026-06-18T11:44:40.000Z</time>
        <extensions>
          <ns3:TrackPointExtension>
            <ns3:atemp>21.0</ns3:atemp>
          </ns3:TrackPointExtension>
        </extensions>
      </trkpt>
      <trkpt lat="42.52645184285938739776611328125" lon="19.780222289264202117919921875">
        <ele>1345</ele>
        <time>2026-06-18T11:44:41.000Z</time>
        <extensions>
          <ns3:TrackPointExtension>
            <ns3:atemp>21.0</ns3:atemp>
          </ns3:TrackPointExtension>
        </extensions>
      </trkpt>
      <trkpt lat="42.52645184285938739776611328125" lon="19.780222289264202117919921875">
        <ele>1345</ele>
        <time>2026-06-18T11:44:42.000Z</time>
        <extensions>
          <ns3:TrackPointExtension>
            <ns3:atemp>21.0</ns3:atemp>
          </ns3:TrackPointExtension>
        </extensions>
      </trkpt>
      <trkpt lat="42.52645184285938739776611328125" lon="19.780222289264202117919921875">
        <ele>1345</ele>
        <time>2026-06-18T11:44:43.000Z</time>
        <extensions>
          <ns3:TrackPointExtension>
            <ns3:atemp>21.0</ns3:atemp>
          </ns3:TrackPointExtension>
        </extensions>
      </trkpt>
      <trkpt lat="42.52645184285938739776611328125" lon="19.780222289264202117919921875">
        <ele>1345</ele>
        <time>2026-06-18T11:44:44.000Z</time>
        <extensions>
          <ns3:TrackPointExtension>
            <ns3:atemp>21.0</ns3:atemp>
          </ns3:TrackPointExtension>
        </extensions>
      </trkpt>
      <trkpt lat="42.52645184285938739776611328125" lon="19.780222289264202117919921875">
        <ele>1345</ele>
        <time>2026-06-18T11:44:45.000Z</time>
        <extensions>
          <ns3:TrackPointExtension>
            <ns3:atemp>21.0</ns3:atemp>
          </ns3:TrackPointExtension>
        </extensions>
      </trkpt>
      <trkpt lat="42.52645184285938739776611328125" lon="19.780222289264202117919921875">
        <ele>1345</ele>
        <time>2026-06-18T11:44:46.000Z</time>
        <extensions>
          <ns3:TrackPointExtension>
            <ns3:atemp>21.0</ns3:atemp>
          </ns3:TrackPointExtension>
        </extensions>
      </trkpt>
      <trkpt lat="42.52645184285938739776611328125" lon="19.780222289264202117919921875">
        <ele>1345</ele>
        <time>2026-06-18T11:44:47.000Z</time>
        <extensions>
          <ns3:TrackPointExtension>
            <ns3:atemp>21.0</ns3:atemp>
          </ns3:TrackPointExtension>
        </extensions>
      </trkpt>
      <trkpt lat="42.52645184285938739776611328125" lon="19.780222289264202117919921875">
        <ele>1345</ele>
        <time>2026-06-18T11:44:48.000Z</time>
        <extensions>
          <ns3:TrackPointExtension>
            <ns3:atemp>21.0</ns3:atemp>
          </ns3:TrackPointExtension>
        </extensions>
      </trkpt>
      <trkpt lat="42.52645184285938739776611328125" lon="19.780222289264202117919921875">
        <ele>1345</ele>
        <time>2026-06-18T11:44:49.000Z</time>
        <extensions>
          <ns3:TrackPointExtension>
            <ns3:atemp>21.0</ns3:atemp>
          </ns3:TrackPointExtension>
        </extensions>
      </trkpt>
      <trkpt lat="42.52645184285938739776611328125" lon="19.780222289264202117919921875">
        <ele>1345</ele>
        <time>2026-06-18T11:44:50.000Z</time>
        <extensions>
          <ns3:TrackPointExtension>
            <ns3:atemp>21.0</ns3:atemp>
          </ns3:TrackPointExtension>
        </extensions>
      </trkpt>
      <trkpt lat="42.52645184285938739776611328125" lon="19.780222289264202117919921875">
        <ele>1345</ele>
        <time>2026-06-18T11:44:51.000Z</time>
        <extensions>
          <ns3:TrackPointExtension>
            <ns3:atemp>21.0</ns3:atemp>
          </ns3:TrackPointExtension>
        </extensions>
      </trkpt>
      <trkpt lat="42.52645184285938739776611328125" lon="19.780222289264202117919921875">
        <ele>1345</ele>
        <time>2026-06-18T11:44:52.000Z</time>
        <extensions>
          <ns3:TrackPointExtension>
            <ns3:atemp>21.0</ns3:atemp>
          </ns3:TrackPointExtension>
        </extensions>
      </trkpt>
      <trkpt lat="42.52645184285938739776611328125" lon="19.780222289264202117919921875">
        <ele>1344.800048828125</ele>
        <time>2026-06-18T11:44:53.000Z</time>
        <extensions>
          <ns3:TrackPointExtension>
            <ns3:atemp>21.0</ns3:atemp>
          </ns3:TrackPointExtension>
        </extensions>
      </trkpt>
      <trkpt lat="42.52645184285938739776611328125" lon="19.780222289264202117919921875">
        <ele>1344.800048828125</ele>
        <time>2026-06-18T11:44:54.000Z</time>
        <extensions>
          <ns3:TrackPointExtension>
            <ns3:atemp>21.0</ns3:atemp>
          </ns3:TrackPointExtension>
        </extensions>
      </trkpt>
      <trkpt lat="42.52645184285938739776611328125" lon="19.780222289264202117919921875">
        <ele>1344.800048828125</ele>
        <time>2026-06-18T11:44:55.000Z</time>
        <extensions>
          <ns3:TrackPointExtension>
            <ns3:atemp>21.0</ns3:atemp>
          </ns3:TrackPointExtension>
        </extensions>
      </trkpt>
      <trkpt lat="42.52645184285938739776611328125" lon="19.780222289264202117919921875">
        <ele>1344.800048828125</ele>
        <time>2026-06-18T11:44:56.000Z</time>
        <extensions>
          <ns3:TrackPointExtension>
            <ns3:atemp>21.0</ns3:atemp>
          </ns3:TrackPointExtension>
        </extensions>
      </trkpt>
      <trkpt lat="42.52645184285938739776611328125" lon="19.780222289264202117919921875">
        <ele>1344.800048828125</ele>
        <time>2026-06-18T11:44:57.000Z</time>
        <extensions>
          <ns3:TrackPointExtension>
            <ns3:atemp>21.0</ns3:atemp>
          </ns3:TrackPointExtension>
        </extensions>
      </trkpt>
      <trkpt lat="42.52645184285938739776611328125" lon="19.780222289264202117919921875">
        <ele>1344.800048828125</ele>
        <time>2026-06-18T11:44:58.000Z</time>
        <extensions>
          <ns3:TrackPointExtension>
            <ns3:atemp>21.0</ns3:atemp>
          </ns3:TrackPointExtension>
        </extensions>
      </trkpt>
      <trkpt lat="42.52645184285938739776611328125" lon="19.780222289264202117919921875">
        <ele>1344.800048828125</ele>
        <time>2026-06-18T11:44:59.000Z</time>
        <extensions>
          <ns3:TrackPointExtension>
            <ns3:atemp>21.0</ns3:atemp>
          </ns3:TrackPointExtension>
        </extensions>
      </trkpt>
      <trkpt lat="42.52645184285938739776611328125" lon="19.780222289264202117919921875">
        <ele>1344.800048828125</ele>
        <time>2026-06-18T11:45:00.000Z</time>
        <extensions>
          <ns3:TrackPointExtension>
            <ns3:atemp>21.0</ns3:atemp>
          </ns3:TrackPointExtension>
        </extensions>
      </trkpt>
      <trkpt lat="42.52645184285938739776611328125" lon="19.780222289264202117919921875">
        <ele>1344.800048828125</ele>
        <time>2026-06-18T11:45:01.000Z</time>
        <extensions>
          <ns3:TrackPointExtension>
            <ns3:atemp>21.0</ns3:atemp>
          </ns3:TrackPointExtension>
        </extensions>
      </trkpt>
      <trkpt lat="42.52645184285938739776611328125" lon="19.780222289264202117919921875">
        <ele>1344.800048828125</ele>
        <time>2026-06-18T11:45:02.000Z</time>
        <extensions>
          <ns3:TrackPointExtension>
            <ns3:atemp>21.0</ns3:atemp>
          </ns3:TrackPointExtension>
        </extensions>
      </trkpt>
      <trkpt lat="42.52645184285938739776611328125" lon="19.780222289264202117919921875">
        <ele>1344.5999755859375</ele>
        <time>2026-06-18T11:45:03.000Z</time>
        <extensions>
          <ns3:TrackPointExtension>
            <ns3:atemp>21.0</ns3:atemp>
          </ns3:TrackPointExtension>
        </extensions>
      </trkpt>
      <trkpt lat="42.52645184285938739776611328125" lon="19.780222289264202117919921875">
        <ele>1344.5999755859375</ele>
        <time>2026-06-18T11:45:04.000Z</time>
        <extensions>
          <ns3:TrackPointExtension>
            <ns3:atemp>21.0</ns3:atemp>
          </ns3:TrackPointExtension>
        </extensions>
      </trkpt>
      <trkpt lat="42.52645184285938739776611328125" lon="19.780222289264202117919921875">
        <ele>1344.5999755859375</ele>
        <time>2026-06-18T11:45:05.000Z</time>
        <extensions>
          <ns3:TrackPointExtension>
            <ns3:atemp>21.0</ns3:atemp>
          </ns3:TrackPointExtension>
        </extensions>
      </trkpt>
      <trkpt lat="42.52645184285938739776611328125" lon="19.780222289264202117919921875">
        <ele>1344.5999755859375</ele>
        <time>2026-06-18T11:45:06.000Z</time>
        <extensions>
          <ns3:TrackPointExtension>
            <ns3:atemp>21.0</ns3:atemp>
          </ns3:TrackPointExtension>
        </extensions>
      </trkpt>
      <trkpt lat="42.52645184285938739776611328125" lon="19.780222289264202117919921875">
        <ele>1344.5999755859375</ele>
        <time>2026-06-18T11:45:07.000Z</time>
        <extensions>
          <ns3:TrackPointExtension>
            <ns3:atemp>21.0</ns3:atemp>
          </ns3:TrackPointExtension>
        </extensions>
      </trkpt>
      <trkpt lat="42.52645184285938739776611328125" lon="19.780222289264202117919921875">
        <ele>1344.5999755859375</ele>
        <time>2026-06-18T11:45:08.000Z</time>
        <extensions>
          <ns3:TrackPointExtension>
            <ns3:atemp>21.0</ns3:atemp>
          </ns3:TrackPointExtension>
        </extensions>
      </trkpt>
      <trkpt lat="42.52645184285938739776611328125" lon="19.780222289264202117919921875">
        <ele>1344.5999755859375</ele>
        <time>2026-06-18T11:45:09.000Z</time>
        <extensions>
          <ns3:TrackPointExtension>
            <ns3:atemp>21.0</ns3:atemp>
          </ns3:TrackPointExtension>
        </extensions>
      </trkpt>
      <trkpt lat="42.52645184285938739776611328125" lon="19.780222289264202117919921875">
        <ele>1344.5999755859375</ele>
        <time>2026-06-18T11:45:10.000Z</time>
        <extensions>
          <ns3:TrackPointExtension>
            <ns3:atemp>21.0</ns3:atemp>
          </ns3:TrackPointExtension>
        </extensions>
      </trkpt>
      <trkpt lat="42.52645184285938739776611328125" lon="19.780222289264202117919921875">
        <ele>1344.5999755859375</ele>
        <time>2026-06-18T11:45:11.000Z</time>
        <extensions>
          <ns3:TrackPointExtension>
            <ns3:atemp>21.0</ns3:atemp>
          </ns3:TrackPointExtension>
        </extensions>
      </trkpt>
      <trkpt lat="42.52645184285938739776611328125" lon="19.780222289264202117919921875">
        <ele>1344.5999755859375</ele>
        <time>2026-06-18T11:45:12.000Z</time>
        <extensions>
          <ns3:TrackPointExtension>
            <ns3:atemp>21.0</ns3:atemp>
          </ns3:TrackPointExtension>
        </extensions>
      </trkpt>
      <trkpt lat="42.52645184285938739776611328125" lon="19.780222289264202117919921875">
        <ele>1344.5999755859375</ele>
        <time>2026-06-18T11:45:13.000Z</time>
        <extensions>
          <ns3:TrackPointExtension>
            <ns3:atemp>21.0</ns3:atemp>
          </ns3:TrackPointExtension>
        </extensions>
      </trkpt>
      <trkpt lat="42.52645184285938739776611328125" lon="19.780222289264202117919921875">
        <ele>1344.5999755859375</ele>
        <time>2026-06-18T11:45:14.000Z</time>
        <extensions>
          <ns3:TrackPointExtension>
            <ns3:atemp>21.0</ns3:atemp>
          </ns3:TrackPointExtension>
        </extensions>
      </trkpt>
      <trkpt lat="42.52645184285938739776611328125" lon="19.780222289264202117919921875">
        <ele>1344.5999755859375</ele>
        <time>2026-06-18T11:45:15.000Z</time>
        <extensions>
          <ns3:TrackPointExtension>
            <ns3:atemp>21.0</ns3:atemp>
          </ns3:TrackPointExtension>
        </extensions>
      </trkpt>
      <trkpt lat="42.52645184285938739776611328125" lon="19.780222289264202117919921875">
        <ele>1344.5999755859375</ele>
        <time>2026-06-18T11:45:16.000Z</time>
        <extensions>
          <ns3:TrackPointExtension>
            <ns3:atemp>21.0</ns3:atemp>
          </ns3:TrackPointExtension>
        </extensions>
      </trkpt>
      <trkpt lat="42.52645184285938739776611328125" lon="19.780222289264202117919921875">
        <ele>1344.5999755859375</ele>
        <time>2026-06-18T11:45:17.000Z</time>
        <extensions>
          <ns3:TrackPointExtension>
            <ns3:atemp>21.0</ns3:atemp>
          </ns3:TrackPointExtension>
        </extensions>
      </trkpt>
      <trkpt lat="42.52645184285938739776611328125" lon="19.780222289264202117919921875">
        <ele>1344.5999755859375</ele>
        <time>2026-06-18T11:45:18.000Z</time>
        <extensions>
          <ns3:TrackPointExtension>
            <ns3:atemp>21.0</ns3:atemp>
          </ns3:TrackPointExtension>
        </extensions>
      </trkpt>
      <trkpt lat="42.52645184285938739776611328125" lon="19.780222289264202117919921875">
        <ele>1344.5999755859375</ele>
        <time>2026-06-18T11:45:19.000Z</time>
        <extensions>
          <ns3:TrackPointExtension>
            <ns3:atemp>21.0</ns3:atemp>
          </ns3:TrackPointExtension>
        </extensions>
      </trkpt>
      <trkpt lat="42.52645184285938739776611328125" lon="19.780222289264202117919921875">
        <ele>1344.5999755859375</ele>
        <time>2026-06-18T11:45:20.000Z</time>
        <extensions>
          <ns3:TrackPointExtension>
            <ns3:atemp>21.0</ns3:atemp>
          </ns3:TrackPointExtension>
        </extensions>
      </trkpt>
      <trkpt lat="42.52645184285938739776611328125" lon="19.780222289264202117919921875">
        <ele>1344.5999755859375</ele>
        <time>2026-06-18T11:45:21.000Z</time>
        <extensions>
          <ns3:TrackPointExtension>
            <ns3:atemp>21.0</ns3:atemp>
          </ns3:TrackPointExtension>
        </extensions>
      </trkpt>
      <trkpt lat="42.52645184285938739776611328125" lon="19.780222289264202117919921875">
        <ele>1344.5999755859375</ele>
        <time>2026-06-18T11:45:22.000Z</time>
        <extensions>
          <ns3:TrackPointExtension>
            <ns3:atemp>21.0</ns3:atemp>
          </ns3:TrackPointExtension>
        </extensions>
      </trkpt>
      <trkpt lat="42.52645184285938739776611328125" lon="19.780222289264202117919921875">
        <ele>1344.5999755859375</ele>
        <time>2026-06-18T11:45:23.000Z</time>
        <extensions>
          <ns3:TrackPointExtension>
            <ns3:atemp>21.0</ns3:atemp>
          </ns3:TrackPointExtension>
        </extensions>
      </trkpt>
      <trkpt lat="42.52645184285938739776611328125" lon="19.780222289264202117919921875">
        <ele>1344.5999755859375</ele>
        <time>2026-06-18T11:45:24.000Z</time>
        <extensions>
          <ns3:TrackPointExtension>
            <ns3:atemp>21.0</ns3:atemp>
          </ns3:TrackPointExtension>
        </extensions>
      </trkpt>
      <trkpt lat="42.52645184285938739776611328125" lon="19.780222289264202117919921875">
        <ele>1344.5999755859375</ele>
        <time>2026-06-18T11:45:25.000Z</time>
        <extensions>
          <ns3:TrackPointExtension>
            <ns3:atemp>21.0</ns3:atemp>
          </ns3:TrackPointExtension>
        </extensions>
      </trkpt>
      <trkpt lat="42.52645184285938739776611328125" lon="19.780222289264202117919921875">
        <ele>1344.5999755859375</ele>
        <time>2026-06-18T11:45:26.000Z</time>
        <extensions>
          <ns3:TrackPointExtension>
            <ns3:atemp>21.0</ns3:atemp>
          </ns3:TrackPointExtension>
        </extensions>
      </trkpt>
      <trkpt lat="42.52645184285938739776611328125" lon="19.780222289264202117919921875">
        <ele>1344.5999755859375</ele>
        <time>2026-06-18T11:45:27.000Z</time>
        <extensions>
          <ns3:TrackPointExtension>
            <ns3:atemp>21.0</ns3:atemp>
          </ns3:TrackPointExtension>
        </extensions>
      </trkpt>
      <trkpt lat="42.52645184285938739776611328125" lon="19.780222289264202117919921875">
        <ele>1344.5999755859375</ele>
        <time>2026-06-18T11:45:28.000Z</time>
        <extensions>
          <ns3:TrackPointExtension>
            <ns3:atemp>21.0</ns3:atemp>
          </ns3:TrackPointExtension>
        </extensions>
      </trkpt>
      <trkpt lat="42.52645184285938739776611328125" lon="19.780222289264202117919921875">
        <ele>1344.5999755859375</ele>
        <time>2026-06-18T11:45:29.000Z</time>
        <extensions>
          <ns3:TrackPointExtension>
            <ns3:atemp>21.0</ns3:atemp>
          </ns3:TrackPointExtension>
        </extensions>
      </trkpt>
      <trkpt lat="42.52645184285938739776611328125" lon="19.780222289264202117919921875">
        <ele>1344.5999755859375</ele>
        <time>2026-06-18T11:45:30.000Z</time>
        <extensions>
          <ns3:TrackPointExtension>
            <ns3:atemp>21.0</ns3:atemp>
          </ns3:TrackPointExtension>
        </extensions>
      </trkpt>
      <trkpt lat="42.52645184285938739776611328125" lon="19.780222289264202117919921875">
        <ele>1344.5999755859375</ele>
        <time>2026-06-18T11:45:31.000Z</time>
        <extensions>
          <ns3:TrackPointExtension>
            <ns3:atemp>21.0</ns3:atemp>
          </ns3:TrackPointExtension>
        </extensions>
      </trkpt>
      <trkpt lat="42.52645184285938739776611328125" lon="19.780222289264202117919921875">
        <ele>1344.4000244140625</ele>
        <time>2026-06-18T11:45:32.000Z</time>
        <extensions>
          <ns3:TrackPointExtension>
            <ns3:atemp>21.0</ns3:atemp>
          </ns3:TrackPointExtension>
        </extensions>
      </trkpt>
      <trkpt lat="42.52645184285938739776611328125" lon="19.780222289264202117919921875">
        <ele>1344.4000244140625</ele>
        <time>2026-06-18T11:45:33.000Z</time>
        <extensions>
          <ns3:TrackPointExtension>
            <ns3:atemp>21.0</ns3:atemp>
          </ns3:TrackPointExtension>
        </extensions>
      </trkpt>
      <trkpt lat="42.52645184285938739776611328125" lon="19.780222289264202117919921875">
        <ele>1344.4000244140625</ele>
        <time>2026-06-18T11:45:34.000Z</time>
        <extensions>
          <ns3:TrackPointExtension>
            <ns3:atemp>21.0</ns3:atemp>
          </ns3:TrackPointExtension>
        </extensions>
      </trkpt>
      <trkpt lat="42.52645184285938739776611328125" lon="19.780222289264202117919921875">
        <ele>1344.4000244140625</ele>
        <time>2026-06-18T11:45:35.000Z</time>
        <extensions>
          <ns3:TrackPointExtension>
            <ns3:atemp>21.0</ns3:atemp>
          </ns3:TrackPointExtension>
        </extensions>
      </trkpt>
      <trkpt lat="42.52645184285938739776611328125" lon="19.780222289264202117919921875">
        <ele>1344.4000244140625</ele>
        <time>2026-06-18T11:45:36.000Z</time>
        <extensions>
          <ns3:TrackPointExtension>
            <ns3:atemp>21.0</ns3:atemp>
          </ns3:TrackPointExtension>
        </extensions>
      </trkpt>
      <trkpt lat="42.52645184285938739776611328125" lon="19.780222289264202117919921875">
        <ele>1344.4000244140625</ele>
        <time>2026-06-18T11:45:37.000Z</time>
        <extensions>
          <ns3:TrackPointExtension>
            <ns3:atemp>21.0</ns3:atemp>
          </ns3:TrackPointExtension>
        </extensions>
      </trkpt>
      <trkpt lat="42.52645184285938739776611328125" lon="19.780222289264202117919921875">
        <ele>1344.4000244140625</ele>
        <time>2026-06-18T11:45:38.000Z</time>
        <extensions>
          <ns3:TrackPointExtension>
            <ns3:atemp>21.0</ns3:atemp>
          </ns3:TrackPointExtension>
        </extensions>
      </trkpt>
      <trkpt lat="42.52645184285938739776611328125" lon="19.780222289264202117919921875">
        <ele>1344.4000244140625</ele>
        <time>2026-06-18T11:45:39.000Z</time>
        <extensions>
          <ns3:TrackPointExtension>
            <ns3:atemp>21.0</ns3:atemp>
          </ns3:TrackPointExtension>
        </extensions>
      </trkpt>
      <trkpt lat="42.52645184285938739776611328125" lon="19.780222289264202117919921875">
        <ele>1344.4000244140625</ele>
        <time>2026-06-18T11:45:40.000Z</time>
        <extensions>
          <ns3:TrackPointExtension>
            <ns3:atemp>21.0</ns3:atemp>
          </ns3:TrackPointExtension>
        </extensions>
      </trkpt>
      <trkpt lat="42.52645184285938739776611328125" lon="19.780222289264202117919921875">
        <ele>1344.4000244140625</ele>
        <time>2026-06-18T11:45:41.000Z</time>
        <extensions>
          <ns3:TrackPointExtension>
            <ns3:atemp>21.0</ns3:atemp>
          </ns3:TrackPointExtension>
        </extensions>
      </trkpt>
      <trkpt lat="42.52645184285938739776611328125" lon="19.780222289264202117919921875">
        <ele>1344.4000244140625</ele>
        <time>2026-06-18T11:45:42.000Z</time>
        <extensions>
          <ns3:TrackPointExtension>
            <ns3:atemp>21.0</ns3:atemp>
          </ns3:TrackPointExtension>
        </extensions>
      </trkpt>
      <trkpt lat="42.52645184285938739776611328125" lon="19.780222289264202117919921875">
        <ele>1344.4000244140625</ele>
        <time>2026-06-18T11:45:43.000Z</time>
        <extensions>
          <ns3:TrackPointExtension>
            <ns3:atemp>21.0</ns3:atemp>
          </ns3:TrackPointExtension>
        </extensions>
      </trkpt>
      <trkpt lat="42.52645184285938739776611328125" lon="19.780222289264202117919921875">
        <ele>1344.4000244140625</ele>
        <time>2026-06-18T11:45:44.000Z</time>
        <extensions>
          <ns3:TrackPointExtension>
            <ns3:atemp>21.0</ns3:atemp>
          </ns3:TrackPointExtension>
        </extensions>
      </trkpt>
      <trkpt lat="42.52645184285938739776611328125" lon="19.780222289264202117919921875">
        <ele>1344.4000244140625</ele>
        <time>2026-06-18T11:45:45.000Z</time>
        <extensions>
          <ns3:TrackPointExtension>
            <ns3:atemp>21.0</ns3:atemp>
          </ns3:TrackPointExtension>
        </extensions>
      </trkpt>
      <trkpt lat="42.52645184285938739776611328125" lon="19.780222289264202117919921875">
        <ele>1344.4000244140625</ele>
        <time>2026-06-18T11:45:46.000Z</time>
        <extensions>
          <ns3:TrackPointExtension>
            <ns3:atemp>21.0</ns3:atemp>
          </ns3:TrackPointExtension>
        </extensions>
      </trkpt>
      <trkpt lat="42.52645184285938739776611328125" lon="19.780222289264202117919921875">
        <ele>1344.4000244140625</ele>
        <time>2026-06-18T11:45:47.000Z</time>
        <extensions>
          <ns3:TrackPointExtension>
            <ns3:atemp>21.0</ns3:atemp>
          </ns3:TrackPointExtension>
        </extensions>
      </trkpt>
      <trkpt lat="42.52645184285938739776611328125" lon="19.780222289264202117919921875">
        <ele>1344.4000244140625</ele>
        <time>2026-06-18T11:45:48.000Z</time>
        <extensions>
          <ns3:TrackPointExtension>
            <ns3:atemp>21.0</ns3:atemp>
          </ns3:TrackPointExtension>
        </extensions>
      </trkpt>
      <trkpt lat="42.52645184285938739776611328125" lon="19.780222289264202117919921875">
        <ele>1344.4000244140625</ele>
        <time>2026-06-18T11:45:49.000Z</time>
        <extensions>
          <ns3:TrackPointExtension>
            <ns3:atemp>21.0</ns3:atemp>
          </ns3:TrackPointExtension>
        </extensions>
      </trkpt>
      <trkpt lat="42.52645184285938739776611328125" lon="19.780222289264202117919921875">
        <ele>1344.4000244140625</ele>
        <time>2026-06-18T11:45:50.000Z</time>
        <extensions>
          <ns3:TrackPointExtension>
            <ns3:atemp>21.0</ns3:atemp>
          </ns3:TrackPointExtension>
        </extensions>
      </trkpt>
      <trkpt lat="42.52645184285938739776611328125" lon="19.780222289264202117919921875">
        <ele>1344.199951171875</ele>
        <time>2026-06-18T11:45:51.000Z</time>
        <extensions>
          <ns3:TrackPointExtension>
            <ns3:atemp>21.0</ns3:atemp>
          </ns3:TrackPointExtension>
        </extensions>
      </trkpt>
      <trkpt lat="42.52645184285938739776611328125" lon="19.780222289264202117919921875">
        <ele>1344.199951171875</ele>
        <time>2026-06-18T11:45:52.000Z</time>
        <extensions>
          <ns3:TrackPointExtension>
            <ns3:atemp>21.0</ns3:atemp>
          </ns3:TrackPointExtension>
        </extensions>
      </trkpt>
      <trkpt lat="42.52645184285938739776611328125" lon="19.780222289264202117919921875">
        <ele>1344.199951171875</ele>
        <time>2026-06-18T11:45:53.000Z</time>
        <extensions>
          <ns3:TrackPointExtension>
            <ns3:atemp>21.0</ns3:atemp>
          </ns3:TrackPointExtension>
        </extensions>
      </trkpt>
      <trkpt lat="42.52645184285938739776611328125" lon="19.780222289264202117919921875">
        <ele>1344.199951171875</ele>
        <time>2026-06-18T11:45:54.000Z</time>
        <extensions>
          <ns3:TrackPointExtension>
            <ns3:atemp>21.0</ns3:atemp>
          </ns3:TrackPointExtension>
        </extensions>
      </trkpt>
      <trkpt lat="42.52645184285938739776611328125" lon="19.780222289264202117919921875">
        <ele>1344.199951171875</ele>
        <time>2026-06-18T11:45:55.000Z</time>
        <extensions>
          <ns3:TrackPointExtension>
            <ns3:atemp>21.0</ns3:atemp>
          </ns3:TrackPointExtension>
        </extensions>
      </trkpt>
      <trkpt lat="42.52645184285938739776611328125" lon="19.780222289264202117919921875">
        <ele>1344</ele>
        <time>2026-06-18T11:45:56.000Z</time>
        <extensions>
          <ns3:TrackPointExtension>
            <ns3:atemp>21.0</ns3:atemp>
          </ns3:TrackPointExtension>
        </extensions>
      </trkpt>
      <trkpt lat="42.52645184285938739776611328125" lon="19.780222289264202117919921875">
        <ele>1344</ele>
        <time>2026-06-18T11:45:57.000Z</time>
        <extensions>
          <ns3:TrackPointExtension>
            <ns3:atemp>21.0</ns3:atemp>
          </ns3:TrackPointExtension>
        </extensions>
      </trkpt>
      <trkpt lat="42.52645184285938739776611328125" lon="19.780222289264202117919921875">
        <ele>1344</ele>
        <time>2026-06-18T11:45:58.000Z</time>
        <extensions>
          <ns3:TrackPointExtension>
            <ns3:atemp>21.0</ns3:atemp>
          </ns3:TrackPointExtension>
        </extensions>
      </trkpt>
      <trkpt lat="42.52645184285938739776611328125" lon="19.780222289264202117919921875">
        <ele>1344</ele>
        <time>2026-06-18T11:45:59.000Z</time>
        <extensions>
          <ns3:TrackPointExtension>
            <ns3:atemp>21.0</ns3:atemp>
          </ns3:TrackPointExtension>
        </extensions>
      </trkpt>
      <trkpt lat="42.52645184285938739776611328125" lon="19.780222289264202117919921875">
        <ele>1343.800048828125</ele>
        <time>2026-06-18T11:46:00.000Z</time>
        <extensions>
          <ns3:TrackPointExtension>
            <ns3:atemp>21.0</ns3:atemp>
          </ns3:TrackPointExtension>
        </extensions>
      </trkpt>
      <trkpt lat="42.52645184285938739776611328125" lon="19.780222289264202117919921875">
        <ele>1343.800048828125</ele>
        <time>2026-06-18T11:46:01.000Z</time>
        <extensions>
          <ns3:TrackPointExtension>
            <ns3:atemp>21.0</ns3:atemp>
          </ns3:TrackPointExtension>
        </extensions>
      </trkpt>
      <trkpt lat="42.52645184285938739776611328125" lon="19.780222289264202117919921875">
        <ele>1343.800048828125</ele>
        <time>2026-06-18T11:46:02.000Z</time>
        <extensions>
          <ns3:TrackPointExtension>
            <ns3:atemp>21.0</ns3:atemp>
          </ns3:TrackPointExtension>
        </extensions>
      </trkpt>
      <trkpt lat="42.52645184285938739776611328125" lon="19.780222289264202117919921875">
        <ele>1343.800048828125</ele>
        <time>2026-06-18T11:46:03.000Z</time>
        <extensions>
          <ns3:TrackPointExtension>
            <ns3:atemp>21.0</ns3:atemp>
          </ns3:TrackPointExtension>
        </extensions>
      </trkpt>
      <trkpt lat="42.52645184285938739776611328125" lon="19.780222289264202117919921875">
        <ele>1343.5999755859375</ele>
        <time>2026-06-18T11:46:04.000Z</time>
        <extensions>
          <ns3:TrackPointExtension>
            <ns3:atemp>21.0</ns3:atemp>
          </ns3:TrackPointExtension>
        </extensions>
      </trkpt>
      <trkpt lat="42.52645184285938739776611328125" lon="19.780222289264202117919921875">
        <ele>1343.5999755859375</ele>
        <time>2026-06-18T11:46:05.000Z</time>
        <extensions>
          <ns3:TrackPointExtension>
            <ns3:atemp>21.0</ns3:atemp>
          </ns3:TrackPointExtension>
        </extensions>
      </trkpt>
      <trkpt lat="42.52645184285938739776611328125" lon="19.780222289264202117919921875">
        <ele>1343.5999755859375</ele>
        <time>2026-06-18T11:46:06.000Z</time>
        <extensions>
          <ns3:TrackPointExtension>
            <ns3:atemp>21.0</ns3:atemp>
          </ns3:TrackPointExtension>
        </extensions>
      </trkpt>
      <trkpt lat="42.52645184285938739776611328125" lon="19.780222289264202117919921875">
        <ele>1343.5999755859375</ele>
        <time>2026-06-18T11:46:07.000Z</time>
        <extensions>
          <ns3:TrackPointExtension>
            <ns3:atemp>21.0</ns3:atemp>
          </ns3:TrackPointExtension>
        </extensions>
      </trkpt>
      <trkpt lat="42.52645184285938739776611328125" lon="19.780222289264202117919921875">
        <ele>1343.5999755859375</ele>
        <time>2026-06-18T11:46:08.000Z</time>
        <extensions>
          <ns3:TrackPointExtension>
            <ns3:atemp>21.0</ns3:atemp>
          </ns3:TrackPointExtension>
        </extensions>
      </trkpt>
      <trkpt lat="42.52645184285938739776611328125" lon="19.780222289264202117919921875">
        <ele>1343.5999755859375</ele>
        <time>2026-06-18T11:46:09.000Z</time>
        <extensions>
          <ns3:TrackPointExtension>
            <ns3:atemp>21.0</ns3:atemp>
          </ns3:TrackPointExtension>
        </extensions>
      </trkpt>
      <trkpt lat="42.52645184285938739776611328125" lon="19.780222289264202117919921875">
        <ele>1343.5999755859375</ele>
        <time>2026-06-18T11:46:10.000Z</time>
        <extensions>
          <ns3:TrackPointExtension>
            <ns3:atemp>21.0</ns3:atemp>
          </ns3:TrackPointExtension>
        </extensions>
      </trkpt>
      <trkpt lat="42.52645184285938739776611328125" lon="19.780222289264202117919921875">
        <ele>1343.4000244140625</ele>
        <time>2026-06-18T11:46:11.000Z</time>
        <extensions>
          <ns3:TrackPointExtension>
            <ns3:atemp>21.0</ns3:atemp>
          </ns3:TrackPointExtension>
        </extensions>
      </trkpt>
      <trkpt lat="42.52645184285938739776611328125" lon="19.780222289264202117919921875">
        <ele>1343.4000244140625</ele>
        <time>2026-06-18T11:46:12.000Z</time>
        <extensions>
          <ns3:TrackPointExtension>
            <ns3:atemp>21.0</ns3:atemp>
          </ns3:TrackPointExtension>
        </extensions>
      </trkpt>
      <trkpt lat="42.52645184285938739776611328125" lon="19.780222289264202117919921875">
        <ele>1343.4000244140625</ele>
        <time>2026-06-18T11:46:13.000Z</time>
        <extensions>
          <ns3:TrackPointExtension>
            <ns3:atemp>21.0</ns3:atemp>
          </ns3:TrackPointExtension>
        </extensions>
      </trkpt>
      <trkpt lat="42.52645184285938739776611328125" lon="19.780222289264202117919921875">
        <ele>1343.4000244140625</ele>
        <time>2026-06-18T11:46:14.000Z</time>
        <extensions>
          <ns3:TrackPointExtension>
            <ns3:atemp>21.0</ns3:atemp>
          </ns3:TrackPointExtension>
        </extensions>
      </trkpt>
      <trkpt lat="42.52645184285938739776611328125" lon="19.780222289264202117919921875">
        <ele>1343.4000244140625</ele>
        <time>2026-06-18T11:46:15.000Z</time>
        <extensions>
          <ns3:TrackPointExtension>
            <ns3:atemp>21.0</ns3:atemp>
          </ns3:TrackPointExtension>
        </extensions>
      </trkpt>
      <trkpt lat="42.52645184285938739776611328125" lon="19.780222289264202117919921875">
        <ele>1343.4000244140625</ele>
        <time>2026-06-18T11:46:16.000Z</time>
        <extensions>
          <ns3:TrackPointExtension>
            <ns3:atemp>21.0</ns3:atemp>
          </ns3:TrackPointExtension>
        </extensions>
      </trkpt>
      <trkpt lat="42.52645184285938739776611328125" lon="19.780222289264202117919921875">
        <ele>1343.4000244140625</ele>
        <time>2026-06-18T11:46:17.000Z</time>
        <extensions>
          <ns3:TrackPointExtension>
            <ns3:atemp>21.0</ns3:atemp>
          </ns3:TrackPointExtension>
        </extensions>
      </trkpt>
      <trkpt lat="42.52645184285938739776611328125" lon="19.780222289264202117919921875">
        <ele>1343.4000244140625</ele>
        <time>2026-06-18T11:46:18.000Z</time>
        <extensions>
          <ns3:TrackPointExtension>
            <ns3:atemp>21.0</ns3:atemp>
          </ns3:TrackPointExtension>
        </extensions>
      </trkpt>
      <trkpt lat="42.52645184285938739776611328125" lon="19.780222289264202117919921875">
        <ele>1343.4000244140625</ele>
        <time>2026-06-18T11:46:19.000Z</time>
        <extensions>
          <ns3:TrackPointExtension>
            <ns3:atemp>21.0</ns3:atemp>
          </ns3:TrackPointExtension>
        </extensions>
      </trkpt>
      <trkpt lat="42.52645184285938739776611328125" lon="19.780222289264202117919921875">
        <ele>1343.4000244140625</ele>
        <time>2026-06-18T11:46:20.000Z</time>
        <extensions>
          <ns3:TrackPointExtension>
            <ns3:atemp>21.0</ns3:atemp>
          </ns3:TrackPointExtension>
        </extensions>
      </trkpt>
      <trkpt lat="42.52645184285938739776611328125" lon="19.780222289264202117919921875">
        <ele>1343.4000244140625</ele>
        <time>2026-06-18T11:46:21.000Z</time>
        <extensions>
          <ns3:TrackPointExtension>
            <ns3:atemp>21.0</ns3:atemp>
          </ns3:TrackPointExtension>
        </extensions>
      </trkpt>
      <trkpt lat="42.52645184285938739776611328125" lon="19.780222289264202117919921875">
        <ele>1343.4000244140625</ele>
        <time>2026-06-18T11:46:22.000Z</time>
        <extensions>
          <ns3:TrackPointExtension>
            <ns3:atemp>21.0</ns3:atemp>
          </ns3:TrackPointExtension>
        </extensions>
      </trkpt>
      <trkpt lat="42.52645184285938739776611328125" lon="19.780222289264202117919921875">
        <ele>1343.4000244140625</ele>
        <time>2026-06-18T11:46:23.000Z</time>
        <extensions>
          <ns3:TrackPointExtension>
            <ns3:atemp>21.0</ns3:atemp>
          </ns3:TrackPointExtension>
        </extensions>
      </trkpt>
      <trkpt lat="42.52645184285938739776611328125" lon="19.780222289264202117919921875">
        <ele>1343.4000244140625</ele>
        <time>2026-06-18T11:46:24.000Z</time>
        <extensions>
          <ns3:TrackPointExtension>
            <ns3:atemp>21.0</ns3:atemp>
          </ns3:TrackPointExtension>
        </extensions>
      </trkpt>
      <trkpt lat="42.52645184285938739776611328125" lon="19.780222289264202117919921875">
        <ele>1343.4000244140625</ele>
        <time>2026-06-18T11:46:25.000Z</time>
        <extensions>
          <ns3:TrackPointExtension>
            <ns3:atemp>21.0</ns3:atemp>
          </ns3:TrackPointExtension>
        </extensions>
      </trkpt>
      <trkpt lat="42.52645184285938739776611328125" lon="19.780222289264202117919921875">
        <ele>1343.199951171875</ele>
        <time>2026-06-18T11:46:26.000Z</time>
        <extensions>
          <ns3:TrackPointExtension>
            <ns3:atemp>21.0</ns3:atemp>
          </ns3:TrackPointExtension>
        </extensions>
      </trkpt>
      <trkpt lat="42.52645184285938739776611328125" lon="19.780222289264202117919921875">
        <ele>1343.199951171875</ele>
        <time>2026-06-18T11:46:27.000Z</time>
        <extensions>
          <ns3:TrackPointExtension>
            <ns3:atemp>21.0</ns3:atemp>
          </ns3:TrackPointExtension>
        </extensions>
      </trkpt>
      <trkpt lat="42.52645184285938739776611328125" lon="19.780222289264202117919921875">
        <ele>1343.199951171875</ele>
        <time>2026-06-18T11:46:28.000Z</time>
        <extensions>
          <ns3:TrackPointExtension>
            <ns3:atemp>21.0</ns3:atemp>
          </ns3:TrackPointExtension>
        </extensions>
      </trkpt>
      <trkpt lat="42.52645184285938739776611328125" lon="19.780222289264202117919921875">
        <ele>1343.199951171875</ele>
        <time>2026-06-18T11:46:29.000Z</time>
        <extensions>
          <ns3:TrackPointExtension>
            <ns3:atemp>21.0</ns3:atemp>
          </ns3:TrackPointExtension>
        </extensions>
      </trkpt>
      <trkpt lat="42.52645184285938739776611328125" lon="19.780222289264202117919921875">
        <ele>1343.199951171875</ele>
        <time>2026-06-18T11:46:30.000Z</time>
        <extensions>
          <ns3:TrackPointExtension>
            <ns3:atemp>21.0</ns3:atemp>
          </ns3:TrackPointExtension>
        </extensions>
      </trkpt>
      <trkpt lat="42.52645184285938739776611328125" lon="19.780222289264202117919921875">
        <ele>1343.199951171875</ele>
        <time>2026-06-18T11:46:31.000Z</time>
        <extensions>
          <ns3:TrackPointExtension>
            <ns3:atemp>21.0</ns3:atemp>
          </ns3:TrackPointExtension>
        </extensions>
      </trkpt>
      <trkpt lat="42.52645184285938739776611328125" lon="19.780222289264202117919921875">
        <ele>1343.199951171875</ele>
        <time>2026-06-18T11:46:32.000Z</time>
        <extensions>
          <ns3:TrackPointExtension>
            <ns3:atemp>21.0</ns3:atemp>
          </ns3:TrackPointExtension>
        </extensions>
      </trkpt>
      <trkpt lat="42.52645184285938739776611328125" lon="19.780222289264202117919921875">
        <ele>1343.199951171875</ele>
        <time>2026-06-18T11:46:33.000Z</time>
        <extensions>
          <ns3:TrackPointExtension>
            <ns3:atemp>21.0</ns3:atemp>
          </ns3:TrackPointExtension>
        </extensions>
      </trkpt>
      <trkpt lat="42.52645184285938739776611328125" lon="19.780222289264202117919921875">
        <ele>1343.199951171875</ele>
        <time>2026-06-18T11:46:34.000Z</time>
        <extensions>
          <ns3:TrackPointExtension>
            <ns3:atemp>21.0</ns3:atemp>
          </ns3:TrackPointExtension>
        </extensions>
      </trkpt>
      <trkpt lat="42.5264489091932773590087890625" lon="19.7802127338945865631103515625">
        <ele>1343.199951171875</ele>
        <time>2026-06-18T11:46:35.000Z</time>
        <extensions>
          <ns3:TrackPointExtension>
            <ns3:atemp>21.0</ns3:atemp>
          </ns3:TrackPointExtension>
        </extensions>
      </trkpt>
      <trkpt lat="42.52642820589244365692138671875" lon="19.780203513801097869873046875">
        <ele>1343</ele>
        <time>2026-06-18T11:46:36.000Z</time>
        <extensions>
          <ns3:TrackPointExtension>
            <ns3:atemp>21.0</ns3:atemp>
          </ns3:TrackPointExtension>
        </extensions>
      </trkpt>
      <trkpt lat="42.52640808932483196258544921875" lon="19.78020527400076389312744140625">
        <ele>1343</ele>
        <time>2026-06-18T11:46:37.000Z</time>
        <extensions>
          <ns3:TrackPointExtension>
            <ns3:atemp>21.0</ns3:atemp>
          </ns3:TrackPointExtension>
        </extensions>
      </trkpt>
      <trkpt lat="42.52639115788042545318603515625" lon="19.78020493872463703155517578125">
        <ele>1342.5999755859375</ele>
        <time>2026-06-18T11:46:38.000Z</time>
        <extensions>
          <ns3:TrackPointExtension>
            <ns3:atemp>21.0</ns3:atemp>
          </ns3:TrackPointExtension>
        </extensions>
      </trkpt>
      <trkpt lat="42.52637372352182865142822265625" lon="19.78019488044083118438720703125">
        <ele>1342.4000244140625</ele>
        <time>2026-06-18T11:46:39.000Z</time>
        <extensions>
          <ns3:TrackPointExtension>
            <ns3:atemp>21.0</ns3:atemp>
          </ns3:TrackPointExtension>
        </extensions>
      </trkpt>
      <trkpt lat="42.52636265940964221954345703125" lon="19.78017811663448810577392578125">
        <ele>1342</ele>
        <time>2026-06-18T11:46:40.000Z</time>
        <extensions>
          <ns3:TrackPointExtension>
            <ns3:atemp>21.0</ns3:atemp>
          </ns3:TrackPointExtension>
        </extensions>
      </trkpt>
      <trkpt lat="42.52634681761264801025390625" lon="19.780158586800098419189453125">
        <ele>1341.4000244140625</ele>
        <time>2026-06-18T11:46:41.000Z</time>
        <extensions>
          <ns3:TrackPointExtension>
            <ns3:atemp>21.0</ns3:atemp>
          </ns3:TrackPointExtension>
        </extensions>
      </trkpt>
      <trkpt lat="42.526339106261730194091796875" lon="19.78013989515602588653564453125">
        <ele>1340.800048828125</ele>
        <time>2026-06-18T11:46:42.000Z</time>
        <extensions>
          <ns3:TrackPointExtension>
            <ns3:atemp>21.0</ns3:atemp>
          </ns3:TrackPointExtension>
        </extensions>
      </trkpt>
      <trkpt lat="42.5263206660747528076171875" lon="19.7801181860268115997314453125">
        <ele>1340.199951171875</ele>
        <time>2026-06-18T11:46:43.000Z</time>
        <extensions>
          <ns3:TrackPointExtension>
            <ns3:atemp>21.0</ns3:atemp>
          </ns3:TrackPointExtension>
        </extensions>
      </trkpt>
      <trkpt lat="42.5262916646897792816162109375" lon="19.78009723126888275146484375">
        <ele>1339.5999755859375</ele>
        <time>2026-06-18T11:46:44.000Z</time>
        <extensions>
          <ns3:TrackPointExtension>
            <ns3:atemp>21.0</ns3:atemp>
          </ns3:TrackPointExtension>
        </extensions>
      </trkpt>
      <trkpt lat="42.52626257948577404022216796875" lon="19.780097901821136474609375">
        <ele>1339</ele>
        <time>2026-06-18T11:46:45.000Z</time>
        <extensions>
          <ns3:TrackPointExtension>
            <ns3:atemp>21.0</ns3:atemp>
          </ns3:TrackPointExtension>
        </extensions>
      </trkpt>
      <trkpt lat="42.52623550593852996826171875" lon="19.7801044397056102752685546875">
        <ele>1338.4000244140625</ele>
        <time>2026-06-18T11:46:46.000Z</time>
        <extensions>
          <ns3:TrackPointExtension>
            <ns3:atemp>21.0</ns3:atemp>
          </ns3:TrackPointExtension>
        </extensions>
      </trkpt>
      <trkpt lat="42.526216395199298858642578125" lon="19.78011600673198699951171875">
        <ele>1337.4000244140625</ele>
        <time>2026-06-18T11:46:47.000Z</time>
        <extensions>
          <ns3:TrackPointExtension>
            <ns3:atemp>21.0</ns3:atemp>
          </ns3:TrackPointExtension>
        </extensions>
      </trkpt>
      <trkpt lat="42.5262078456580638885498046875" lon="19.780134446918964385986328125">
        <ele>1336.800048828125</ele>
        <time>2026-06-18T11:46:48.000Z</time>
        <extensions>
          <ns3:TrackPointExtension>
            <ns3:atemp>21.0</ns3:atemp>
          </ns3:TrackPointExtension>
        </extensions>
      </trkpt>
      <trkpt lat="42.52620424143970012664794921875" lon="19.78015850298106670379638671875">
        <ele>1336.199951171875</ele>
        <time>2026-06-18T11:46:49.000Z</time>
        <extensions>
          <ns3:TrackPointExtension>
            <ns3:atemp>21.0</ns3:atemp>
          </ns3:TrackPointExtension>
        </extensions>
      </trkpt>
      <trkpt lat="42.52619602717459201812744140625" lon="19.78018498979508876800537109375">
        <ele>1335.4000244140625</ele>
        <time>2026-06-18T11:46:50.000Z</time>
        <extensions>
          <ns3:TrackPointExtension>
            <ns3:atemp>21.0</ns3:atemp>
          </ns3:TrackPointExtension>
        </extensions>
      </trkpt>
      <trkpt lat="42.52617591060698032379150390625" lon="19.7802207805216312408447265625">
        <ele>1334.5999755859375</ele>
        <time>2026-06-18T11:46:51.000Z</time>
        <extensions>
          <ns3:TrackPointExtension>
            <ns3:atemp>21.0</ns3:atemp>
          </ns3:TrackPointExtension>
        </extensions>
      </trkpt>
      <trkpt lat="42.52615026198327541351318359375" lon="19.7802449204027652740478515625">
        <ele>1333.800048828125</ele>
        <time>2026-06-18T11:46:52.000Z</time>
        <extensions>
          <ns3:TrackPointExtension>
            <ns3:atemp>21.0</ns3:atemp>
          </ns3:TrackPointExtension>
        </extensions>
      </trkpt>
      <trkpt lat="42.52612260170280933380126953125" lon="19.78023427538573741912841796875">
        <ele>1333</ele>
        <time>2026-06-18T11:46:53.000Z</time>
        <extensions>
          <ns3:TrackPointExtension>
            <ns3:atemp>21.0</ns3:atemp>
          </ns3:TrackPointExtension>
        </extensions>
      </trkpt>
      <trkpt lat="42.52610298804938793182373046875" lon="19.78021927177906036376953125">
        <ele>1332.199951171875</ele>
        <time>2026-06-18T11:46:54.000Z</time>
        <extensions>
          <ns3:TrackPointExtension>
            <ns3:atemp>21.0</ns3:atemp>
          </ns3:TrackPointExtension>
        </extensions>
      </trkpt>
      <trkpt lat="42.526084296405315399169921875" lon="19.78019890375435352325439453125">
        <ele>1331.800048828125</ele>
        <time>2026-06-18T11:46:55.000Z</time>
        <extensions>
          <ns3:TrackPointExtension>
            <ns3:atemp>21.0</ns3:atemp>
          </ns3:TrackPointExtension>
        </extensions>
      </trkpt>
      <trkpt lat="42.5260685384273529052734375" lon="19.78017359040677547454833984375">
        <ele>1331.199951171875</ele>
        <time>2026-06-18T11:46:56.000Z</time>
        <extensions>
          <ns3:TrackPointExtension>
            <ns3:atemp>21.0</ns3:atemp>
          </ns3:TrackPointExtension>
        </extensions>
      </trkpt>
      <trkpt lat="42.5260365195572376251220703125" lon="19.78016386739909648895263671875">
        <ele>1330.5999755859375</ele>
        <time>2026-06-18T11:46:57.000Z</time>
        <extensions>
          <ns3:TrackPointExtension>
            <ns3:atemp>21.0</ns3:atemp>
          </ns3:TrackPointExtension>
        </extensions>
      </trkpt>
      <trkpt lat="42.52599335275590419769287109375" lon="19.7801510430872440338134765625">
        <ele>1330</ele>
        <time>2026-06-18T11:46:58.000Z</time>
        <extensions>
          <ns3:TrackPointExtension>
            <ns3:atemp>21.0</ns3:atemp>
          </ns3:TrackPointExtension>
        </extensions>
      </trkpt>
      <trkpt lat="42.52594222314655780792236328125" lon="19.78015230037271976470947265625">
        <ele>1329</ele>
        <time>2026-06-18T11:46:59.000Z</time>
        <extensions>
          <ns3:TrackPointExtension>
            <ns3:atemp>21.0</ns3:atemp>
          </ns3:TrackPointExtension>
        </extensions>
      </trkpt>
      <trkpt lat="42.5258816219866275787353515625" lon="19.780140481889247894287109375">
        <ele>1328</ele>
        <time>2026-06-18T11:47:00.000Z</time>
        <extensions>
          <ns3:TrackPointExtension>
            <ns3:atemp>21.0</ns3:atemp>
          </ns3:TrackPointExtension>
        </extensions>
      </trkpt>
      <trkpt lat="42.52583443187177181243896484375" lon="19.78015749715268611907958984375">
        <ele>1327</ele>
        <time>2026-06-18T11:47:01.000Z</time>
        <extensions>
          <ns3:TrackPointExtension>
            <ns3:atemp>21.0</ns3:atemp>
          </ns3:TrackPointExtension>
        </extensions>
      </trkpt>
      <trkpt lat="42.52581431530416011810302734375" lon="19.780182056128978729248046875">
        <ele>1325.800048828125</ele>
        <time>2026-06-18T11:47:02.000Z</time>
        <extensions>
          <ns3:TrackPointExtension>
            <ns3:atemp>21.0</ns3:atemp>
          </ns3:TrackPointExtension>
        </extensions>
      </trkpt>
      <trkpt lat="42.525813393294811248779296875" lon="19.78022337891161441802978515625">
        <ele>1324.800048828125</ele>
        <time>2026-06-18T11:47:03.000Z</time>
        <extensions>
          <ns3:TrackPointExtension>
            <ns3:atemp>21.0</ns3:atemp>
          </ns3:TrackPointExtension>
        </extensions>
      </trkpt>
      <trkpt lat="42.525813393294811248779296875" lon="19.7802610136568546295166015625">
        <ele>1323.800048828125</ele>
        <time>2026-06-18T11:47:04.000Z</time>
        <extensions>
          <ns3:TrackPointExtension>
            <ns3:atemp>21.0</ns3:atemp>
          </ns3:TrackPointExtension>
        </extensions>
      </trkpt>
      <trkpt lat="42.52581783570349216461181640625" lon="19.780301414430141448974609375">
        <ele>1322.5999755859375</ele>
        <time>2026-06-18T11:47:05.000Z</time>
        <extensions>
          <ns3:TrackPointExtension>
            <ns3:atemp>21.0</ns3:atemp>
          </ns3:TrackPointExtension>
        </extensions>
      </trkpt>
      <trkpt lat="42.5258259661495685577392578125" lon="19.78035950101912021636962890625">
        <ele>1321.5999755859375</ele>
        <time>2026-06-18T11:47:06.000Z</time>
        <extensions>
          <ns3:TrackPointExtension>
            <ns3:atemp>21.0</ns3:atemp>
          </ns3:TrackPointExtension>
        </extensions>
      </trkpt>
      <trkpt lat="42.5258397124707698822021484375" lon="19.78042018599808216094970703125">
        <ele>1320.5999755859375</ele>
        <time>2026-06-18T11:47:07.000Z</time>
        <extensions>
          <ns3:TrackPointExtension>
            <ns3:atemp>21.0</ns3:atemp>
          </ns3:TrackPointExtension>
        </extensions>
      </trkpt>
      <trkpt lat="42.5258628465235233306884765625" lon="19.7804876603186130523681640625">
        <ele>1320</ele>
        <time>2026-06-18T11:47:08.000Z</time>
        <extensions>
          <ns3:TrackPointExtension>
            <ns3:atemp>21.0</ns3:atemp>
          </ns3:TrackPointExtension>
        </extensions>
      </trkpt>
      <trkpt lat="42.52587474882602691650390625" lon="19.78057005442678928375244140625">
        <ele>1319</ele>
        <time>2026-06-18T11:47:09.000Z</time>
        <extensions>
          <ns3:TrackPointExtension>
            <ns3:atemp>21.0</ns3:atemp>
          </ns3:TrackPointExtension>
        </extensions>
      </trkpt>
      <trkpt lat="42.52589478157460689544677734375" lon="19.78062856011092662811279296875">
        <ele>1318.199951171875</ele>
        <time>2026-06-18T11:47:10.000Z</time>
        <extensions>
          <ns3:TrackPointExtension>
            <ns3:atemp>21.0</ns3:atemp>
          </ns3:TrackPointExtension>
        </extensions>
      </trkpt>
      <trkpt lat="42.52590131945908069610595703125" lon="19.78069662116467952728271484375">
        <ele>1317</ele>
        <time>2026-06-18T11:47:11.000Z</time>
        <extensions>
          <ns3:TrackPointExtension>
            <ns3:atemp>21.0</ns3:atemp>
          </ns3:TrackPointExtension>
        </extensions>
      </trkpt>
      <trkpt lat="42.5258946977555751800537109375" lon="19.780752025544643402099609375">
        <ele>1316.199951171875</ele>
        <time>2026-06-18T11:47:12.000Z</time>
        <extensions>
          <ns3:TrackPointExtension>
            <ns3:atemp>21.0</ns3:atemp>
          </ns3:TrackPointExtension>
        </extensions>
      </trkpt>
      <trkpt lat="42.52585873939096927642822265625" lon="19.7807776741683483123779296875">
        <ele>1315.4000244140625</ele>
        <time>2026-06-18T11:47:13.000Z</time>
        <extensions>
          <ns3:TrackPointExtension>
            <ns3:atemp>21.0</ns3:atemp>
          </ns3:TrackPointExtension>
        </extensions>
      </trkpt>
      <trkpt lat="42.525824792683124542236328125" lon="19.7807733155786991119384765625">
        <ele>1314.5999755859375</ele>
        <time>2026-06-18T11:47:14.000Z</time>
        <extensions>
          <ns3:TrackPointExtension>
            <ns3:atemp>21.0</ns3:atemp>
          </ns3:TrackPointExtension>
        </extensions>
      </trkpt>
      <trkpt lat="42.525775842368602752685546875" lon="19.78076535277068614959716796875">
        <ele>1313.4000244140625</ele>
        <time>2026-06-18T11:47:15.000Z</time>
        <extensions>
          <ns3:TrackPointExtension>
            <ns3:atemp>21.0</ns3:atemp>
          </ns3:TrackPointExtension>
        </extensions>
      </trkpt>
      <trkpt lat="42.52572588622570037841796875" lon="19.7807619161903858184814453125">
        <ele>1312.199951171875</ele>
        <time>2026-06-18T11:47:16.000Z</time>
        <extensions>
          <ns3:TrackPointExtension>
            <ns3:atemp>21.0</ns3:atemp>
          </ns3:TrackPointExtension>
        </extensions>
      </trkpt>
      <trkpt lat="42.525671906769275665283203125" lon="19.7807622514665126800537109375">
        <ele>1310.800048828125</ele>
        <time>2026-06-18T11:47:17.000Z</time>
        <extensions>
          <ns3:TrackPointExtension>
            <ns3:atemp>21.0</ns3:atemp>
          </ns3:TrackPointExtension>
        </extensions>
      </trkpt>
      <trkpt lat="42.5256144069135189056396484375" lon="19.7807595692574977874755859375">
        <ele>1309.5999755859375</ele>
        <time>2026-06-18T11:47:18.000Z</time>
        <extensions>
          <ns3:TrackPointExtension>
            <ns3:atemp>21.0</ns3:atemp>
          </ns3:TrackPointExtension>
        </extensions>
      </trkpt>
      <trkpt lat="42.52555749379098415374755859375" lon="19.78074557147920131683349609375">
        <ele>1308.199951171875</ele>
        <time>2026-06-18T11:47:19.000Z</time>
        <extensions>
          <ns3:TrackPointExtension>
            <ns3:atemp>21.0</ns3:atemp>
          </ns3:TrackPointExtension>
        </extensions>
      </trkpt>
      <trkpt lat="42.52551407553255558013916015625" lon="19.78072176687419414520263671875">
        <ele>1307</ele>
        <time>2026-06-18T11:47:20.000Z</time>
        <extensions>
          <ns3:TrackPointExtension>
            <ns3:atemp>21.0</ns3:atemp>
          </ns3:TrackPointExtension>
        </extensions>
      </trkpt>
      <trkpt lat="42.52547241747379302978515625" lon="19.78070299141108989715576171875">
        <ele>1306</ele>
        <time>2026-06-18T11:47:21.000Z</time>
        <extensions>
          <ns3:TrackPointExtension>
            <ns3:atemp>21.0</ns3:atemp>
          </ns3:TrackPointExtension>
        </extensions>
      </trkpt>
      <trkpt lat="42.525437884032726287841796875" lon="19.7806804440915584564208984375">
        <ele>1304.800048828125</ele>
        <time>2026-06-18T11:47:22.000Z</time>
        <extensions>
          <ns3:TrackPointExtension>
            <ns3:atemp>21.0</ns3:atemp>
          </ns3:TrackPointExtension>
        </extensions>
      </trkpt>
      <trkpt lat="42.52540393732488155364990234375" lon="19.78065689094364643096923828125">
        <ele>1303.199951171875</ele>
        <time>2026-06-18T11:47:23.000Z</time>
        <extensions>
          <ns3:TrackPointExtension>
            <ns3:atemp>21.0</ns3:atemp>
          </ns3:TrackPointExtension>
        </extensions>
      </trkpt>
      <trkpt lat="42.5253676436841487884521484375" lon="19.78062939830124378204345703125">
        <ele>1302.199951171875</ele>
        <time>2026-06-18T11:47:24.000Z</time>
        <extensions>
          <ns3:TrackPointExtension>
            <ns3:atemp>21.0</ns3:atemp>
          </ns3:TrackPointExtension>
        </extensions>
      </trkpt>
      <trkpt lat="42.5253317691385746002197265625" lon="19.780618585646152496337890625">
        <ele>1301</ele>
        <time>2026-06-18T11:47:25.000Z</time>
        <extensions>
          <ns3:TrackPointExtension>
            <ns3:atemp>21.0</ns3:atemp>
          </ns3:TrackPointExtension>
        </extensions>
      </trkpt>
      <trkpt lat="42.5252925418317317962646484375" lon="19.7806214354932308197021484375">
        <ele>1299.800048828125</ele>
        <time>2026-06-18T11:47:26.000Z</time>
        <extensions>
          <ns3:TrackPointExtension>
            <ns3:atemp>21.0</ns3:atemp>
          </ns3:TrackPointExtension>
        </extensions>
      </trkpt>
      <trkpt lat="42.52526865340769290924072265625" lon="19.78063635528087615966796875">
        <ele>1298.5999755859375</ele>
        <time>2026-06-18T11:47:27.000Z</time>
        <extensions>
          <ns3:TrackPointExtension>
            <ns3:atemp>21.0</ns3:atemp>
          </ns3:TrackPointExtension>
        </extensions>
      </trkpt>
      <trkpt lat="42.525262199342250823974609375" lon="19.78066728450357913970947265625">
        <ele>1297.4000244140625</ele>
        <time>2026-06-18T11:47:28.000Z</time>
        <extensions>
          <ns3:TrackPointExtension>
            <ns3:atemp>21.0</ns3:atemp>
          </ns3:TrackPointExtension>
        </extensions>
      </trkpt>
      <trkpt lat="42.52525054849684238433837890625" lon="19.780705757439136505126953125">
        <ele>1296.4000244140625</ele>
        <time>2026-06-18T11:47:29.000Z</time>
        <extensions>
          <ns3:TrackPointExtension>
            <ns3:atemp>21.0</ns3:atemp>
          </ns3:TrackPointExtension>
        </extensions>
      </trkpt>
      <trkpt lat="42.5252415798604488372802734375" lon="19.780757389962673187255859375">
        <ele>1295.5999755859375</ele>
        <time>2026-06-18T11:47:30.000Z</time>
        <extensions>
          <ns3:TrackPointExtension>
            <ns3:atemp>21.0</ns3:atemp>
          </ns3:TrackPointExtension>
        </extensions>
      </trkpt>
      <trkpt lat="42.5252316892147064208984375" lon="19.78081799112260341644287109375">
        <ele>1294.800048828125</ele>
        <time>2026-06-18T11:47:31.000Z</time>
        <extensions>
          <ns3:TrackPointExtension>
            <ns3:atemp>21.0</ns3:atemp>
          </ns3:TrackPointExtension>
        </extensions>
      </trkpt>
      <trkpt lat="42.52521953545510768890380859375" lon="19.78088119067251682281494140625">
        <ele>1294.199951171875</ele>
        <time>2026-06-18T11:47:32.000Z</time>
        <extensions>
          <ns3:TrackPointExtension>
            <ns3:atemp>21.0</ns3:atemp>
          </ns3:TrackPointExtension>
        </extensions>
      </trkpt>
      <trkpt lat="42.5252154283225536346435546875" lon="19.78093005716800689697265625">
        <ele>1293.5999755859375</ele>
        <time>2026-06-18T11:47:33.000Z</time>
        <extensions>
          <ns3:TrackPointExtension>
            <ns3:atemp>21.0</ns3:atemp>
          </ns3:TrackPointExtension>
        </extensions>
      </trkpt>
      <trkpt lat="42.52522406168282032012939453125" lon="19.7809872217476367950439453125">
        <ele>1292.800048828125</ele>
        <time>2026-06-18T11:47:34.000Z</time>
        <extensions>
          <ns3:TrackPointExtension>
            <ns3:atemp>21.0</ns3:atemp>
          </ns3:TrackPointExtension>
        </extensions>
      </trkpt>
      <trkpt lat="42.52521785907447338104248046875" lon="19.78103935718536376953125">
        <ele>1291.800048828125</ele>
        <time>2026-06-18T11:47:35.000Z</time>
        <extensions>
          <ns3:TrackPointExtension>
            <ns3:atemp>21.0</ns3:atemp>
          </ns3:TrackPointExtension>
        </extensions>
      </trkpt>
      <trkpt lat="42.5252097286283969879150390625" lon="19.7810898162424564361572265625">
        <ele>1291.199951171875</ele>
        <time>2026-06-18T11:47:36.000Z</time>
        <extensions>
          <ns3:TrackPointExtension>
            <ns3:atemp>21.0</ns3:atemp>
          </ns3:TrackPointExtension>
        </extensions>
      </trkpt>
      <trkpt lat="42.52520327456295490264892578125" lon="19.78113331831991672515869140625">
        <ele>1290.4000244140625</ele>
        <time>2026-06-18T11:47:37.000Z</time>
        <extensions>
          <ns3:TrackPointExtension>
            <ns3:atemp>21.0</ns3:atemp>
          </ns3:TrackPointExtension>
        </extensions>
      </trkpt>
      <trkpt lat="42.52519707195460796356201171875" lon="19.781173132359981536865234375">
        <ele>1289.5999755859375</ele>
        <time>2026-06-18T11:47:38.000Z</time>
        <extensions>
          <ns3:TrackPointExtension>
            <ns3:atemp>21.0</ns3:atemp>
          </ns3:TrackPointExtension>
        </extensions>
      </trkpt>
      <trkpt lat="42.52518751658499240875244140625" lon="19.7811947576701641082763671875">
        <ele>1288.800048828125</ele>
        <time>2026-06-18T11:47:39.000Z</time>
        <extensions>
          <ns3:TrackPointExtension>
            <ns3:atemp>21.0</ns3:atemp>
          </ns3:TrackPointExtension>
        </extensions>
      </trkpt>
      <trkpt lat="42.52518944442272186279296875" lon="19.78120020590722560882568359375">
        <ele>1288.199951171875</ele>
        <time>2026-06-18T11:47:40.000Z</time>
        <extensions>
          <ns3:TrackPointExtension>
            <ns3:atemp>21.0</ns3:atemp>
          </ns3:TrackPointExtension>
        </extensions>
      </trkpt>
      <trkpt lat="42.5251892767846584320068359375" lon="19.7812004573643207550048828125">
        <ele>1287.5999755859375</ele>
        <time>2026-06-18T11:47:41.000Z</time>
        <extensions>
          <ns3:TrackPointExtension>
            <ns3:atemp>21.0</ns3:atemp>
          </ns3:TrackPointExtension>
        </extensions>
      </trkpt>
      <trkpt lat="42.5251892767846584320068359375" lon="19.7812004573643207550048828125">
        <ele>1287.199951171875</ele>
        <time>2026-06-18T11:47:42.000Z</time>
        <extensions>
          <ns3:TrackPointExtension>
            <ns3:atemp>21.0</ns3:atemp>
          </ns3:TrackPointExtension>
        </extensions>
      </trkpt>
      <trkpt lat="42.5251892767846584320068359375" lon="19.7812004573643207550048828125">
        <ele>1286.800048828125</ele>
        <time>2026-06-18T11:47:43.000Z</time>
        <extensions>
          <ns3:TrackPointExtension>
            <ns3:atemp>21.0</ns3:atemp>
          </ns3:TrackPointExtension>
        </extensions>
      </trkpt>
      <trkpt lat="42.5251892767846584320068359375" lon="19.7812004573643207550048828125">
        <ele>1286.5999755859375</ele>
        <time>2026-06-18T11:47:44.000Z</time>
        <extensions>
          <ns3:TrackPointExtension>
            <ns3:atemp>21.0</ns3:atemp>
          </ns3:TrackPointExtension>
        </extensions>
      </trkpt>
      <trkpt lat="42.5251892767846584320068359375" lon="19.7812004573643207550048828125">
        <ele>1286.4000244140625</ele>
        <time>2026-06-18T11:47:45.000Z</time>
        <extensions>
          <ns3:TrackPointExtension>
            <ns3:atemp>21.0</ns3:atemp>
          </ns3:TrackPointExtension>
        </extensions>
      </trkpt>
      <trkpt lat="42.5251892767846584320068359375" lon="19.7812004573643207550048828125">
        <ele>1286.199951171875</ele>
        <time>2026-06-18T11:47:46.000Z</time>
        <extensions>
          <ns3:TrackPointExtension>
            <ns3:atemp>21.0</ns3:atemp>
          </ns3:TrackPointExtension>
        </extensions>
      </trkpt>
      <trkpt lat="42.5251892767846584320068359375" lon="19.7812004573643207550048828125">
        <ele>1286</ele>
        <time>2026-06-18T11:47:47.000Z</time>
        <extensions>
          <ns3:TrackPointExtension>
            <ns3:atemp>21.0</ns3:atemp>
          </ns3:TrackPointExtension>
        </extensions>
      </trkpt>
      <trkpt lat="42.5251892767846584320068359375" lon="19.7812004573643207550048828125">
        <ele>1286</ele>
        <time>2026-06-18T11:47:48.000Z</time>
        <extensions>
          <ns3:TrackPointExtension>
            <ns3:atemp>21.0</ns3:atemp>
          </ns3:TrackPointExtension>
        </extensions>
      </trkpt>
      <trkpt lat="42.5251892767846584320068359375" lon="19.7812004573643207550048828125">
        <ele>1285.800048828125</ele>
        <time>2026-06-18T11:47:49.000Z</time>
        <extensions>
          <ns3:TrackPointExtension>
            <ns3:atemp>21.0</ns3:atemp>
          </ns3:TrackPointExtension>
        </extensions>
      </trkpt>
      <trkpt lat="42.5251892767846584320068359375" lon="19.7812004573643207550048828125">
        <ele>1285.800048828125</ele>
        <time>2026-06-18T11:47:50.000Z</time>
        <extensions>
          <ns3:TrackPointExtension>
            <ns3:atemp>21.0</ns3:atemp>
          </ns3:TrackPointExtension>
        </extensions>
      </trkpt>
      <trkpt lat="42.5251892767846584320068359375" lon="19.7812004573643207550048828125">
        <ele>1285.800048828125</ele>
        <time>2026-06-18T11:47:51.000Z</time>
        <extensions>
          <ns3:TrackPointExtension>
            <ns3:atemp>21.0</ns3:atemp>
          </ns3:TrackPointExtension>
        </extensions>
      </trkpt>
      <trkpt lat="42.5251892767846584320068359375" lon="19.7812004573643207550048828125">
        <ele>1285.5999755859375</ele>
        <time>2026-06-18T11:47:52.000Z</time>
        <extensions>
          <ns3:TrackPointExtension>
            <ns3:atemp>21.0</ns3:atemp>
          </ns3:TrackPointExtension>
        </extensions>
      </trkpt>
      <trkpt lat="42.5251892767846584320068359375" lon="19.7812004573643207550048828125">
        <ele>1285.5999755859375</ele>
        <time>2026-06-18T11:47:53.000Z</time>
        <extensions>
          <ns3:TrackPointExtension>
            <ns3:atemp>21.0</ns3:atemp>
          </ns3:TrackPointExtension>
        </extensions>
      </trkpt>
      <trkpt lat="42.5251892767846584320068359375" lon="19.7812004573643207550048828125">
        <ele>1285.5999755859375</ele>
        <time>2026-06-18T11:47:54.000Z</time>
        <extensions>
          <ns3:TrackPointExtension>
            <ns3:atemp>21.0</ns3:atemp>
          </ns3:TrackPointExtension>
        </extensions>
      </trkpt>
      <trkpt lat="42.5251892767846584320068359375" lon="19.7812004573643207550048828125">
        <ele>1285.4000244140625</ele>
        <time>2026-06-18T11:47:55.000Z</time>
        <extensions>
          <ns3:TrackPointExtension>
            <ns3:atemp>21.0</ns3:atemp>
          </ns3:TrackPointExtension>
        </extensions>
      </trkpt>
      <trkpt lat="42.5251892767846584320068359375" lon="19.7812004573643207550048828125">
        <ele>1285.4000244140625</ele>
        <time>2026-06-18T11:47:56.000Z</time>
        <extensions>
          <ns3:TrackPointExtension>
            <ns3:atemp>21.0</ns3:atemp>
          </ns3:TrackPointExtension>
        </extensions>
      </trkpt>
      <trkpt lat="42.5251892767846584320068359375" lon="19.7812004573643207550048828125">
        <ele>1285.199951171875</ele>
        <time>2026-06-18T11:47:57.000Z</time>
        <extensions>
          <ns3:TrackPointExtension>
            <ns3:atemp>21.0</ns3:atemp>
          </ns3:TrackPointExtension>
        </extensions>
      </trkpt>
      <trkpt lat="42.5251892767846584320068359375" lon="19.7812004573643207550048828125">
        <ele>1285.199951171875</ele>
        <time>2026-06-18T11:47:58.000Z</time>
        <extensions>
          <ns3:TrackPointExtension>
            <ns3:atemp>21.0</ns3:atemp>
          </ns3:TrackPointExtension>
        </extensions>
      </trkpt>
      <trkpt lat="42.5251892767846584320068359375" lon="19.7812004573643207550048828125">
        <ele>1285.199951171875</ele>
        <time>2026-06-18T11:47:59.000Z</time>
        <extensions>
          <ns3:TrackPointExtension>
            <ns3:atemp>21.0</ns3:atemp>
          </ns3:TrackPointExtension>
        </extensions>
      </trkpt>
      <trkpt lat="42.5251892767846584320068359375" lon="19.7812004573643207550048828125">
        <ele>1285</ele>
        <time>2026-06-18T11:48:00.000Z</time>
        <extensions>
          <ns3:TrackPointExtension>
            <ns3:atemp>21.0</ns3:atemp>
          </ns3:TrackPointExtension>
        </extensions>
      </trkpt>
      <trkpt lat="42.5251892767846584320068359375" lon="19.7812004573643207550048828125">
        <ele>1285</ele>
        <time>2026-06-18T11:48:01.000Z</time>
        <extensions>
          <ns3:TrackPointExtension>
            <ns3:atemp>21.0</ns3:atemp>
          </ns3:TrackPointExtension>
        </extensions>
      </trkpt>
      <trkpt lat="42.5251892767846584320068359375" lon="19.7812004573643207550048828125">
        <ele>1285</ele>
        <time>2026-06-18T11:48:02.000Z</time>
        <extensions>
          <ns3:TrackPointExtension>
            <ns3:atemp>21.0</ns3:atemp>
          </ns3:TrackPointExtension>
        </extensions>
      </trkpt>
      <trkpt lat="42.5251892767846584320068359375" lon="19.7812004573643207550048828125">
        <ele>1285</ele>
        <time>2026-06-18T11:48:03.000Z</time>
        <extensions>
          <ns3:TrackPointExtension>
            <ns3:atemp>21.0</ns3:atemp>
          </ns3:TrackPointExtension>
        </extensions>
      </trkpt>
      <trkpt lat="42.5251892767846584320068359375" lon="19.7812004573643207550048828125">
        <ele>1284.800048828125</ele>
        <time>2026-06-18T11:48:04.000Z</time>
        <extensions>
          <ns3:TrackPointExtension>
            <ns3:atemp>21.0</ns3:atemp>
          </ns3:TrackPointExtension>
        </extensions>
      </trkpt>
      <trkpt lat="42.5251892767846584320068359375" lon="19.7812004573643207550048828125">
        <ele>1284.800048828125</ele>
        <time>2026-06-18T11:48:05.000Z</time>
        <extensions>
          <ns3:TrackPointExtension>
            <ns3:atemp>21.0</ns3:atemp>
          </ns3:TrackPointExtension>
        </extensions>
      </trkpt>
      <trkpt lat="42.5251892767846584320068359375" lon="19.7812004573643207550048828125">
        <ele>1284.5999755859375</ele>
        <time>2026-06-18T11:48:06.000Z</time>
        <extensions>
          <ns3:TrackPointExtension>
            <ns3:atemp>21.0</ns3:atemp>
          </ns3:TrackPointExtension>
        </extensions>
      </trkpt>
      <trkpt lat="42.5251892767846584320068359375" lon="19.7812004573643207550048828125">
        <ele>1284.5999755859375</ele>
        <time>2026-06-18T11:48:07.000Z</time>
        <extensions>
          <ns3:TrackPointExtension>
            <ns3:atemp>21.0</ns3:atemp>
          </ns3:TrackPointExtension>
        </extensions>
      </trkpt>
      <trkpt lat="42.5251892767846584320068359375" lon="19.7812004573643207550048828125">
        <ele>1284.5999755859375</ele>
        <time>2026-06-18T11:48:08.000Z</time>
        <extensions>
          <ns3:TrackPointExtension>
            <ns3:atemp>21.0</ns3:atemp>
          </ns3:TrackPointExtension>
        </extensions>
      </trkpt>
      <trkpt lat="42.5251892767846584320068359375" lon="19.7812004573643207550048828125">
        <ele>1284.5999755859375</ele>
        <time>2026-06-18T11:48:09.000Z</time>
        <extensions>
          <ns3:TrackPointExtension>
            <ns3:atemp>21.0</ns3:atemp>
          </ns3:TrackPointExtension>
        </extensions>
      </trkpt>
      <trkpt lat="42.5251892767846584320068359375" lon="19.7812004573643207550048828125">
        <ele>1284.5999755859375</ele>
        <time>2026-06-18T11:48:10.000Z</time>
        <extensions>
          <ns3:TrackPointExtension>
            <ns3:atemp>21.0</ns3:atemp>
          </ns3:TrackPointExtension>
        </extensions>
      </trkpt>
      <trkpt lat="42.5251892767846584320068359375" lon="19.7812004573643207550048828125">
        <ele>1284.5999755859375</ele>
        <time>2026-06-18T11:48:11.000Z</time>
        <extensions>
          <ns3:TrackPointExtension>
            <ns3:atemp>21.0</ns3:atemp>
          </ns3:TrackPointExtension>
        </extensions>
      </trkpt>
      <trkpt lat="42.5251892767846584320068359375" lon="19.7812004573643207550048828125">
        <ele>1284.5999755859375</ele>
        <time>2026-06-18T11:48:12.000Z</time>
        <extensions>
          <ns3:TrackPointExtension>
            <ns3:atemp>21.0</ns3:atemp>
          </ns3:TrackPointExtension>
        </extensions>
      </trkpt>
      <trkpt lat="42.5251892767846584320068359375" lon="19.7812004573643207550048828125">
        <ele>1284.4000244140625</ele>
        <time>2026-06-18T11:48:13.000Z</time>
        <extensions>
          <ns3:TrackPointExtension>
            <ns3:atemp>21.0</ns3:atemp>
          </ns3:TrackPointExtension>
        </extensions>
      </trkpt>
      <trkpt lat="42.5251892767846584320068359375" lon="19.7812004573643207550048828125">
        <ele>1284.4000244140625</ele>
        <time>2026-06-18T11:48:14.000Z</time>
        <extensions>
          <ns3:TrackPointExtension>
            <ns3:atemp>21.0</ns3:atemp>
          </ns3:TrackPointExtension>
        </extensions>
      </trkpt>
      <trkpt lat="42.5251892767846584320068359375" lon="19.7812004573643207550048828125">
        <ele>1284.4000244140625</ele>
        <time>2026-06-18T11:48:15.000Z</time>
        <extensions>
          <ns3:TrackPointExtension>
            <ns3:atemp>21.0</ns3:atemp>
          </ns3:TrackPointExtension>
        </extensions>
      </trkpt>
      <trkpt lat="42.5251892767846584320068359375" lon="19.7812004573643207550048828125">
        <ele>1284.4000244140625</ele>
        <time>2026-06-18T11:48:16.000Z</time>
        <extensions>
          <ns3:TrackPointExtension>
            <ns3:atemp>21.0</ns3:atemp>
          </ns3:TrackPointExtension>
        </extensions>
      </trkpt>
      <trkpt lat="42.5251892767846584320068359375" lon="19.7812004573643207550048828125">
        <ele>1284.4000244140625</ele>
        <time>2026-06-18T11:48:17.000Z</time>
        <extensions>
          <ns3:TrackPointExtension>
            <ns3:atemp>21.0</ns3:atemp>
          </ns3:TrackPointExtension>
        </extensions>
      </trkpt>
      <trkpt lat="42.5251892767846584320068359375" lon="19.7812004573643207550048828125">
        <ele>1284.199951171875</ele>
        <time>2026-06-18T11:48:18.000Z</time>
        <extensions>
          <ns3:TrackPointExtension>
            <ns3:atemp>21.0</ns3:atemp>
          </ns3:TrackPointExtension>
        </extensions>
      </trkpt>
      <trkpt lat="42.5251892767846584320068359375" lon="19.7812004573643207550048828125">
        <ele>1284.199951171875</ele>
        <time>2026-06-18T11:48:19.000Z</time>
        <extensions>
          <ns3:TrackPointExtension>
            <ns3:atemp>21.0</ns3:atemp>
          </ns3:TrackPointExtension>
        </extensions>
      </trkpt>
      <trkpt lat="42.5251892767846584320068359375" lon="19.7812004573643207550048828125">
        <ele>1284.199951171875</ele>
        <time>2026-06-18T11:48:20.000Z</time>
        <extensions>
          <ns3:TrackPointExtension>
            <ns3:atemp>21.0</ns3:atemp>
          </ns3:TrackPointExtension>
        </extensions>
      </trkpt>
      <trkpt lat="42.5251892767846584320068359375" lon="19.7812004573643207550048828125">
        <ele>1284.199951171875</ele>
        <time>2026-06-18T11:48:21.000Z</time>
        <extensions>
          <ns3:TrackPointExtension>
            <ns3:atemp>21.0</ns3:atemp>
          </ns3:TrackPointExtension>
        </extensions>
      </trkpt>
      <trkpt lat="42.5251892767846584320068359375" lon="19.7812004573643207550048828125">
        <ele>1284.199951171875</ele>
        <time>2026-06-18T11:48:22.000Z</time>
        <extensions>
          <ns3:TrackPointExtension>
            <ns3:atemp>21.0</ns3:atemp>
          </ns3:TrackPointExtension>
        </extensions>
      </trkpt>
      <trkpt lat="42.5251892767846584320068359375" lon="19.7812004573643207550048828125">
        <ele>1284.199951171875</ele>
        <time>2026-06-18T11:48:23.000Z</time>
        <extensions>
          <ns3:TrackPointExtension>
            <ns3:atemp>21.0</ns3:atemp>
          </ns3:TrackPointExtension>
        </extensions>
      </trkpt>
      <trkpt lat="42.5251892767846584320068359375" lon="19.7812004573643207550048828125">
        <ele>1284</ele>
        <time>2026-06-18T11:48:24.000Z</time>
        <extensions>
          <ns3:TrackPointExtension>
            <ns3:atemp>21.0</ns3:atemp>
          </ns3:TrackPointExtension>
        </extensions>
      </trkpt>
      <trkpt lat="42.5251892767846584320068359375" lon="19.7812004573643207550048828125">
        <ele>1284</ele>
        <time>2026-06-18T11:48:25.000Z</time>
        <extensions>
          <ns3:TrackPointExtension>
            <ns3:atemp>21.0</ns3:atemp>
          </ns3:TrackPointExtension>
        </extensions>
      </trkpt>
      <trkpt lat="42.5251892767846584320068359375" lon="19.7812004573643207550048828125">
        <ele>1284</ele>
        <time>2026-06-18T11:48:26.000Z</time>
        <extensions>
          <ns3:TrackPointExtension>
            <ns3:atemp>21.0</ns3:atemp>
          </ns3:TrackPointExtension>
        </extensions>
      </trkpt>
      <trkpt lat="42.5251892767846584320068359375" lon="19.7812004573643207550048828125">
        <ele>1284</ele>
        <time>2026-06-18T11:48:27.000Z</time>
        <extensions>
          <ns3:TrackPointExtension>
            <ns3:atemp>21.0</ns3:atemp>
          </ns3:TrackPointExtension>
        </extensions>
      </trkpt>
      <trkpt lat="42.5251892767846584320068359375" lon="19.7812004573643207550048828125">
        <ele>1284</ele>
        <time>2026-06-18T11:48:28.000Z</time>
        <extensions>
          <ns3:TrackPointExtension>
            <ns3:atemp>21.0</ns3:atemp>
          </ns3:TrackPointExtension>
        </extensions>
      </trkpt>
      <trkpt lat="42.5251892767846584320068359375" lon="19.7812004573643207550048828125">
        <ele>1284</ele>
        <time>2026-06-18T11:48:29.000Z</time>
        <extensions>
          <ns3:TrackPointExtension>
            <ns3:atemp>21.0</ns3:atemp>
          </ns3:TrackPointExtension>
        </extensions>
      </trkpt>
      <trkpt lat="42.5251892767846584320068359375" lon="19.7812004573643207550048828125">
        <ele>1284</ele>
        <time>2026-06-18T11:48:30.000Z</time>
        <extensions>
          <ns3:TrackPointExtension>
            <ns3:atemp>21.0</ns3:atemp>
          </ns3:TrackPointExtension>
        </extensions>
      </trkpt>
      <trkpt lat="42.5251892767846584320068359375" lon="19.7812004573643207550048828125">
        <ele>1284</ele>
        <time>2026-06-18T11:48:31.000Z</time>
        <extensions>
          <ns3:TrackPointExtension>
            <ns3:atemp>21.0</ns3:atemp>
          </ns3:TrackPointExtension>
        </extensions>
      </trkpt>
      <trkpt lat="42.5251892767846584320068359375" lon="19.7812004573643207550048828125">
        <ele>1283.800048828125</ele>
        <time>2026-06-18T11:48:32.000Z</time>
        <extensions>
          <ns3:TrackPointExtension>
            <ns3:atemp>21.0</ns3:atemp>
          </ns3:TrackPointExtension>
        </extensions>
      </trkpt>
      <trkpt lat="42.5251892767846584320068359375" lon="19.7812004573643207550048828125">
        <ele>1283.800048828125</ele>
        <time>2026-06-18T11:48:33.000Z</time>
        <extensions>
          <ns3:TrackPointExtension>
            <ns3:atemp>21.0</ns3:atemp>
          </ns3:TrackPointExtension>
        </extensions>
      </trkpt>
      <trkpt lat="42.5251892767846584320068359375" lon="19.7812004573643207550048828125">
        <ele>1283.800048828125</ele>
        <time>2026-06-18T11:48:34.000Z</time>
        <extensions>
          <ns3:TrackPointExtension>
            <ns3:atemp>21.0</ns3:atemp>
          </ns3:TrackPointExtension>
        </extensions>
      </trkpt>
      <trkpt lat="42.5251892767846584320068359375" lon="19.7812004573643207550048828125">
        <ele>1283.800048828125</ele>
        <time>2026-06-18T11:48:35.000Z</time>
        <extensions>
          <ns3:TrackPointExtension>
            <ns3:atemp>21.0</ns3:atemp>
          </ns3:TrackPointExtension>
        </extensions>
      </trkpt>
      <trkpt lat="42.5251892767846584320068359375" lon="19.7812004573643207550048828125">
        <ele>1283.5999755859375</ele>
        <time>2026-06-18T11:48:36.000Z</time>
        <extensions>
          <ns3:TrackPointExtension>
            <ns3:atemp>21.0</ns3:atemp>
          </ns3:TrackPointExtension>
        </extensions>
      </trkpt>
      <trkpt lat="42.5251892767846584320068359375" lon="19.7812004573643207550048828125">
        <ele>1283.5999755859375</ele>
        <time>2026-06-18T11:48:37.000Z</time>
        <extensions>
          <ns3:TrackPointExtension>
            <ns3:atemp>21.0</ns3:atemp>
          </ns3:TrackPointExtension>
        </extensions>
      </trkpt>
      <trkpt lat="42.5251892767846584320068359375" lon="19.7812004573643207550048828125">
        <ele>1283.5999755859375</ele>
        <time>2026-06-18T11:48:38.000Z</time>
        <extensions>
          <ns3:TrackPointExtension>
            <ns3:atemp>21.0</ns3:atemp>
          </ns3:TrackPointExtension>
        </extensions>
      </trkpt>
      <trkpt lat="42.5251892767846584320068359375" lon="19.7812004573643207550048828125">
        <ele>1283.5999755859375</ele>
        <time>2026-06-18T11:48:39.000Z</time>
        <extensions>
          <ns3:TrackPointExtension>
            <ns3:atemp>21.0</ns3:atemp>
          </ns3:TrackPointExtension>
        </extensions>
      </trkpt>
      <trkpt lat="42.5251892767846584320068359375" lon="19.7812004573643207550048828125">
        <ele>1283.5999755859375</ele>
        <time>2026-06-18T11:48:40.000Z</time>
        <extensions>
          <ns3:TrackPointExtension>
            <ns3:atemp>21.0</ns3:atemp>
          </ns3:TrackPointExtension>
        </extensions>
      </trkpt>
      <trkpt lat="42.5251892767846584320068359375" lon="19.7812004573643207550048828125">
        <ele>1283.5999755859375</ele>
        <time>2026-06-18T11:48:41.000Z</time>
        <extensions>
          <ns3:TrackPointExtension>
            <ns3:atemp>21.0</ns3:atemp>
          </ns3:TrackPointExtension>
        </extensions>
      </trkpt>
      <trkpt lat="42.5251892767846584320068359375" lon="19.7812004573643207550048828125">
        <ele>1283.5999755859375</ele>
        <time>2026-06-18T11:48:42.000Z</time>
        <extensions>
          <ns3:TrackPointExtension>
            <ns3:atemp>21.0</ns3:atemp>
          </ns3:TrackPointExtension>
        </extensions>
      </trkpt>
      <trkpt lat="42.5251892767846584320068359375" lon="19.7812004573643207550048828125">
        <ele>1283.5999755859375</ele>
        <time>2026-06-18T11:48:43.000Z</time>
        <extensions>
          <ns3:TrackPointExtension>
            <ns3:atemp>21.0</ns3:atemp>
          </ns3:TrackPointExtension>
        </extensions>
      </trkpt>
      <trkpt lat="42.5251892767846584320068359375" lon="19.7812004573643207550048828125">
        <ele>1283.4000244140625</ele>
        <time>2026-06-18T11:48:44.000Z</time>
        <extensions>
          <ns3:TrackPointExtension>
            <ns3:atemp>21.0</ns3:atemp>
          </ns3:TrackPointExtension>
        </extensions>
      </trkpt>
      <trkpt lat="42.5251892767846584320068359375" lon="19.7812004573643207550048828125">
        <ele>1283.4000244140625</ele>
        <time>2026-06-18T11:48:45.000Z</time>
        <extensions>
          <ns3:TrackPointExtension>
            <ns3:atemp>21.0</ns3:atemp>
          </ns3:TrackPointExtension>
        </extensions>
      </trkpt>
      <trkpt lat="42.5251892767846584320068359375" lon="19.7812004573643207550048828125">
        <ele>1283.4000244140625</ele>
        <time>2026-06-18T11:48:46.000Z</time>
        <extensions>
          <ns3:TrackPointExtension>
            <ns3:atemp>21.0</ns3:atemp>
          </ns3:TrackPointExtension>
        </extensions>
      </trkpt>
      <trkpt lat="42.5251892767846584320068359375" lon="19.7812004573643207550048828125">
        <ele>1283.4000244140625</ele>
        <time>2026-06-18T11:48:47.000Z</time>
        <extensions>
          <ns3:TrackPointExtension>
            <ns3:atemp>21.0</ns3:atemp>
          </ns3:TrackPointExtension>
        </extensions>
      </trkpt>
      <trkpt lat="42.5251892767846584320068359375" lon="19.7812004573643207550048828125">
        <ele>1283.4000244140625</ele>
        <time>2026-06-18T11:48:48.000Z</time>
        <extensions>
          <ns3:TrackPointExtension>
            <ns3:atemp>21.0</ns3:atemp>
          </ns3:TrackPointExtension>
        </extensions>
      </trkpt>
      <trkpt lat="42.5251892767846584320068359375" lon="19.7812004573643207550048828125">
        <ele>1283.4000244140625</ele>
        <time>2026-06-18T11:48:49.000Z</time>
        <extensions>
          <ns3:TrackPointExtension>
            <ns3:atemp>21.0</ns3:atemp>
          </ns3:TrackPointExtension>
        </extensions>
      </trkpt>
      <trkpt lat="42.5251892767846584320068359375" lon="19.7812004573643207550048828125">
        <ele>1283.199951171875</ele>
        <time>2026-06-18T11:48:50.000Z</time>
        <extensions>
          <ns3:TrackPointExtension>
            <ns3:atemp>21.0</ns3:atemp>
          </ns3:TrackPointExtension>
        </extensions>
      </trkpt>
      <trkpt lat="42.5251892767846584320068359375" lon="19.7812004573643207550048828125">
        <ele>1283.199951171875</ele>
        <time>2026-06-18T11:48:51.000Z</time>
        <extensions>
          <ns3:TrackPointExtension>
            <ns3:atemp>21.0</ns3:atemp>
          </ns3:TrackPointExtension>
        </extensions>
      </trkpt>
      <trkpt lat="42.5251892767846584320068359375" lon="19.7812004573643207550048828125">
        <ele>1283.199951171875</ele>
        <time>2026-06-18T11:48:52.000Z</time>
        <extensions>
          <ns3:TrackPointExtension>
            <ns3:atemp>21.0</ns3:atemp>
          </ns3:TrackPointExtension>
        </extensions>
      </trkpt>
      <trkpt lat="42.5251892767846584320068359375" lon="19.7812004573643207550048828125">
        <ele>1283.199951171875</ele>
        <time>2026-06-18T11:48:53.000Z</time>
        <extensions>
          <ns3:TrackPointExtension>
            <ns3:atemp>21.0</ns3:atemp>
          </ns3:TrackPointExtension>
        </extensions>
      </trkpt>
      <trkpt lat="42.5251892767846584320068359375" lon="19.7812004573643207550048828125">
        <ele>1283.199951171875</ele>
        <time>2026-06-18T11:48:54.000Z</time>
        <extensions>
          <ns3:TrackPointExtension>
            <ns3:atemp>21.0</ns3:atemp>
          </ns3:TrackPointExtension>
        </extensions>
      </trkpt>
      <trkpt lat="42.5251892767846584320068359375" lon="19.7812004573643207550048828125">
        <ele>1283.199951171875</ele>
        <time>2026-06-18T11:48:55.000Z</time>
        <extensions>
          <ns3:TrackPointExtension>
            <ns3:atemp>21.0</ns3:atemp>
          </ns3:TrackPointExtension>
        </extensions>
      </trkpt>
      <trkpt lat="42.5251892767846584320068359375" lon="19.7812004573643207550048828125">
        <ele>1283.199951171875</ele>
        <time>2026-06-18T11:48:56.000Z</time>
        <extensions>
          <ns3:TrackPointExtension>
            <ns3:atemp>21.0</ns3:atemp>
          </ns3:TrackPointExtension>
        </extensions>
      </trkpt>
      <trkpt lat="42.5251892767846584320068359375" lon="19.7812004573643207550048828125">
        <ele>1283</ele>
        <time>2026-06-18T11:48:57.000Z</time>
        <extensions>
          <ns3:TrackPointExtension>
            <ns3:atemp>21.0</ns3:atemp>
          </ns3:TrackPointExtension>
        </extensions>
      </trkpt>
      <trkpt lat="42.5251892767846584320068359375" lon="19.7812004573643207550048828125">
        <ele>1283</ele>
        <time>2026-06-18T11:48:58.000Z</time>
        <extensions>
          <ns3:TrackPointExtension>
            <ns3:atemp>21.0</ns3:atemp>
          </ns3:TrackPointExtension>
        </extensions>
      </trkpt>
      <trkpt lat="42.5251892767846584320068359375" lon="19.7812004573643207550048828125">
        <ele>1283</ele>
        <time>2026-06-18T11:48:59.000Z</time>
        <extensions>
          <ns3:TrackPointExtension>
            <ns3:atemp>21.0</ns3:atemp>
          </ns3:TrackPointExtension>
        </extensions>
      </trkpt>
      <trkpt lat="42.5251892767846584320068359375" lon="19.7812004573643207550048828125">
        <ele>1283</ele>
        <time>2026-06-18T11:49:00.000Z</time>
        <extensions>
          <ns3:TrackPointExtension>
            <ns3:atemp>21.0</ns3:atemp>
          </ns3:TrackPointExtension>
        </extensions>
      </trkpt>
      <trkpt lat="42.5251892767846584320068359375" lon="19.7812004573643207550048828125">
        <ele>1283</ele>
        <time>2026-06-18T11:49:01.000Z</time>
        <extensions>
          <ns3:TrackPointExtension>
            <ns3:atemp>21.0</ns3:atemp>
          </ns3:TrackPointExtension>
        </extensions>
      </trkpt>
      <trkpt lat="42.5251892767846584320068359375" lon="19.7812004573643207550048828125">
        <ele>1283</ele>
        <time>2026-06-18T11:49:02.000Z</time>
        <extensions>
          <ns3:TrackPointExtension>
            <ns3:atemp>21.0</ns3:atemp>
          </ns3:TrackPointExtension>
        </extensions>
      </trkpt>
      <trkpt lat="42.5251892767846584320068359375" lon="19.7812004573643207550048828125">
        <ele>1283</ele>
        <time>2026-06-18T11:49:03.000Z</time>
        <extensions>
          <ns3:TrackPointExtension>
            <ns3:atemp>21.0</ns3:atemp>
          </ns3:TrackPointExtension>
        </extensions>
      </trkpt>
      <trkpt lat="42.5251892767846584320068359375" lon="19.7812004573643207550048828125">
        <ele>1282.800048828125</ele>
        <time>2026-06-18T11:49:04.000Z</time>
        <extensions>
          <ns3:TrackPointExtension>
            <ns3:atemp>21.0</ns3:atemp>
          </ns3:TrackPointExtension>
        </extensions>
      </trkpt>
      <trkpt lat="42.5251892767846584320068359375" lon="19.7812004573643207550048828125">
        <ele>1282.800048828125</ele>
        <time>2026-06-18T11:49:05.000Z</time>
        <extensions>
          <ns3:TrackPointExtension>
            <ns3:atemp>21.0</ns3:atemp>
          </ns3:TrackPointExtension>
        </extensions>
      </trkpt>
      <trkpt lat="42.5251892767846584320068359375" lon="19.7812004573643207550048828125">
        <ele>1282.800048828125</ele>
        <time>2026-06-18T11:49:06.000Z</time>
        <extensions>
          <ns3:TrackPointExtension>
            <ns3:atemp>21.0</ns3:atemp>
          </ns3:TrackPointExtension>
        </extensions>
      </trkpt>
      <trkpt lat="42.5251892767846584320068359375" lon="19.7812004573643207550048828125">
        <ele>1282.800048828125</ele>
        <time>2026-06-18T11:49:07.000Z</time>
        <extensions>
          <ns3:TrackPointExtension>
            <ns3:atemp>21.0</ns3:atemp>
          </ns3:TrackPointExtension>
        </extensions>
      </trkpt>
      <trkpt lat="42.5251892767846584320068359375" lon="19.7812004573643207550048828125">
        <ele>1282.800048828125</ele>
        <time>2026-06-18T11:49:08.000Z</time>
        <extensions>
          <ns3:TrackPointExtension>
            <ns3:atemp>21.0</ns3:atemp>
          </ns3:TrackPointExtension>
        </extensions>
      </trkpt>
      <trkpt lat="42.5251892767846584320068359375" lon="19.7812004573643207550048828125">
        <ele>1282.800048828125</ele>
        <time>2026-06-18T11:49:09.000Z</time>
        <extensions>
          <ns3:TrackPointExtension>
            <ns3:atemp>21.0</ns3:atemp>
          </ns3:TrackPointExtension>
        </extensions>
      </trkpt>
      <trkpt lat="42.5251892767846584320068359375" lon="19.7812004573643207550048828125">
        <ele>1282.800048828125</ele>
        <time>2026-06-18T11:49:10.000Z</time>
        <extensions>
          <ns3:TrackPointExtension>
            <ns3:atemp>21.0</ns3:atemp>
          </ns3:TrackPointExtension>
        </extensions>
      </trkpt>
      <trkpt lat="42.5251892767846584320068359375" lon="19.7812004573643207550048828125">
        <ele>1282.800048828125</ele>
        <time>2026-06-18T11:49:11.000Z</time>
        <extensions>
          <ns3:TrackPointExtension>
            <ns3:atemp>21.0</ns3:atemp>
          </ns3:TrackPointExtension>
        </extensions>
      </trkpt>
      <trkpt lat="42.5251892767846584320068359375" lon="19.7812004573643207550048828125">
        <ele>1282.5999755859375</ele>
        <time>2026-06-18T11:49:12.000Z</time>
        <extensions>
          <ns3:TrackPointExtension>
            <ns3:atemp>21.0</ns3:atemp>
          </ns3:TrackPointExtension>
        </extensions>
      </trkpt>
      <trkpt lat="42.5251892767846584320068359375" lon="19.7812004573643207550048828125">
        <ele>1282.5999755859375</ele>
        <time>2026-06-18T11:49:13.000Z</time>
        <extensions>
          <ns3:TrackPointExtension>
            <ns3:atemp>21.0</ns3:atemp>
          </ns3:TrackPointExtension>
        </extensions>
      </trkpt>
      <trkpt lat="42.5251892767846584320068359375" lon="19.7812004573643207550048828125">
        <ele>1282.5999755859375</ele>
        <time>2026-06-18T11:49:14.000Z</time>
        <extensions>
          <ns3:TrackPointExtension>
            <ns3:atemp>21.0</ns3:atemp>
          </ns3:TrackPointExtension>
        </extensions>
      </trkpt>
      <trkpt lat="42.5251892767846584320068359375" lon="19.7812004573643207550048828125">
        <ele>1282.5999755859375</ele>
        <time>2026-06-18T11:49:15.000Z</time>
        <extensions>
          <ns3:TrackPointExtension>
            <ns3:atemp>21.0</ns3:atemp>
          </ns3:TrackPointExtension>
        </extensions>
      </trkpt>
      <trkpt lat="42.5251892767846584320068359375" lon="19.7812004573643207550048828125">
        <ele>1282.5999755859375</ele>
        <time>2026-06-18T11:49:16.000Z</time>
        <extensions>
          <ns3:TrackPointExtension>
            <ns3:atemp>21.0</ns3:atemp>
          </ns3:TrackPointExtension>
        </extensions>
      </trkpt>
      <trkpt lat="42.5251892767846584320068359375" lon="19.7812004573643207550048828125">
        <ele>1282.5999755859375</ele>
        <time>2026-06-18T11:49:17.000Z</time>
        <extensions>
          <ns3:TrackPointExtension>
            <ns3:atemp>21.0</ns3:atemp>
          </ns3:TrackPointExtension>
        </extensions>
      </trkpt>
      <trkpt lat="42.5251892767846584320068359375" lon="19.7812004573643207550048828125">
        <ele>1282.5999755859375</ele>
        <time>2026-06-18T11:49:18.000Z</time>
        <extensions>
          <ns3:TrackPointExtension>
            <ns3:atemp>21.0</ns3:atemp>
          </ns3:TrackPointExtension>
        </extensions>
      </trkpt>
      <trkpt lat="42.5251892767846584320068359375" lon="19.7812004573643207550048828125">
        <ele>1282.5999755859375</ele>
        <time>2026-06-18T11:49:19.000Z</time>
        <extensions>
          <ns3:TrackPointExtension>
            <ns3:atemp>21.0</ns3:atemp>
          </ns3:TrackPointExtension>
        </extensions>
      </trkpt>
      <trkpt lat="42.5251892767846584320068359375" lon="19.7812004573643207550048828125">
        <ele>1282.4000244140625</ele>
        <time>2026-06-18T11:49:20.000Z</time>
        <extensions>
          <ns3:TrackPointExtension>
            <ns3:atemp>21.0</ns3:atemp>
          </ns3:TrackPointExtension>
        </extensions>
      </trkpt>
      <trkpt lat="42.5251892767846584320068359375" lon="19.7812004573643207550048828125">
        <ele>1282.4000244140625</ele>
        <time>2026-06-18T11:49:21.000Z</time>
        <extensions>
          <ns3:TrackPointExtension>
            <ns3:atemp>21.0</ns3:atemp>
          </ns3:TrackPointExtension>
        </extensions>
      </trkpt>
      <trkpt lat="42.5251892767846584320068359375" lon="19.7812004573643207550048828125">
        <ele>1282.4000244140625</ele>
        <time>2026-06-18T11:49:22.000Z</time>
        <extensions>
          <ns3:TrackPointExtension>
            <ns3:atemp>21.0</ns3:atemp>
          </ns3:TrackPointExtension>
        </extensions>
      </trkpt>
      <trkpt lat="42.5251892767846584320068359375" lon="19.7812004573643207550048828125">
        <ele>1282.4000244140625</ele>
        <time>2026-06-18T11:49:23.000Z</time>
        <extensions>
          <ns3:TrackPointExtension>
            <ns3:atemp>21.0</ns3:atemp>
          </ns3:TrackPointExtension>
        </extensions>
      </trkpt>
      <trkpt lat="42.5251892767846584320068359375" lon="19.7812004573643207550048828125">
        <ele>1282.4000244140625</ele>
        <time>2026-06-18T11:49:24.000Z</time>
        <extensions>
          <ns3:TrackPointExtension>
            <ns3:atemp>21.0</ns3:atemp>
          </ns3:TrackPointExtension>
        </extensions>
      </trkpt>
      <trkpt lat="42.5251892767846584320068359375" lon="19.7812004573643207550048828125">
        <ele>1282.4000244140625</ele>
        <time>2026-06-18T11:49:25.000Z</time>
        <extensions>
          <ns3:TrackPointExtension>
            <ns3:atemp>21.0</ns3:atemp>
          </ns3:TrackPointExtension>
        </extensions>
      </trkpt>
      <trkpt lat="42.5251892767846584320068359375" lon="19.7812004573643207550048828125">
        <ele>1282.4000244140625</ele>
        <time>2026-06-18T11:49:26.000Z</time>
        <extensions>
          <ns3:TrackPointExtension>
            <ns3:atemp>21.0</ns3:atemp>
          </ns3:TrackPointExtension>
        </extensions>
      </trkpt>
      <trkpt lat="42.5251892767846584320068359375" lon="19.7812004573643207550048828125">
        <ele>1282.4000244140625</ele>
        <time>2026-06-18T11:49:27.000Z</time>
        <extensions>
          <ns3:TrackPointExtension>
            <ns3:atemp>21.0</ns3:atemp>
          </ns3:TrackPointExtension>
        </extensions>
      </trkpt>
      <trkpt lat="42.5251892767846584320068359375" lon="19.7812004573643207550048828125">
        <ele>1282.199951171875</ele>
        <time>2026-06-18T11:49:28.000Z</time>
        <extensions>
          <ns3:TrackPointExtension>
            <ns3:atemp>21.0</ns3:atemp>
          </ns3:TrackPointExtension>
        </extensions>
      </trkpt>
      <trkpt lat="42.5251892767846584320068359375" lon="19.7812004573643207550048828125">
        <ele>1282.199951171875</ele>
        <time>2026-06-18T11:49:29.000Z</time>
        <extensions>
          <ns3:TrackPointExtension>
            <ns3:atemp>21.0</ns3:atemp>
          </ns3:TrackPointExtension>
        </extensions>
      </trkpt>
      <trkpt lat="42.5251892767846584320068359375" lon="19.7812004573643207550048828125">
        <ele>1282.199951171875</ele>
        <time>2026-06-18T11:49:30.000Z</time>
        <extensions>
          <ns3:TrackPointExtension>
            <ns3:atemp>21.0</ns3:atemp>
          </ns3:TrackPointExtension>
        </extensions>
      </trkpt>
      <trkpt lat="42.5251892767846584320068359375" lon="19.7812004573643207550048828125">
        <ele>1282.199951171875</ele>
        <time>2026-06-18T11:49:31.000Z</time>
        <extensions>
          <ns3:TrackPointExtension>
            <ns3:atemp>21.0</ns3:atemp>
          </ns3:TrackPointExtension>
        </extensions>
      </trkpt>
      <trkpt lat="42.5251892767846584320068359375" lon="19.7812004573643207550048828125">
        <ele>1282.199951171875</ele>
        <time>2026-06-18T11:49:32.000Z</time>
        <extensions>
          <ns3:TrackPointExtension>
            <ns3:atemp>21.0</ns3:atemp>
          </ns3:TrackPointExtension>
        </extensions>
      </trkpt>
      <trkpt lat="42.5251892767846584320068359375" lon="19.7812004573643207550048828125">
        <ele>1282.199951171875</ele>
        <time>2026-06-18T11:49:33.000Z</time>
        <extensions>
          <ns3:TrackPointExtension>
            <ns3:atemp>21.0</ns3:atemp>
          </ns3:TrackPointExtension>
        </extensions>
      </trkpt>
      <trkpt lat="42.5251892767846584320068359375" lon="19.7812004573643207550048828125">
        <ele>1282.199951171875</ele>
        <time>2026-06-18T11:49:34.000Z</time>
        <extensions>
          <ns3:TrackPointExtension>
            <ns3:atemp>21.0</ns3:atemp>
          </ns3:TrackPointExtension>
        </extensions>
      </trkpt>
      <trkpt lat="42.5251892767846584320068359375" lon="19.7812004573643207550048828125">
        <ele>1282.199951171875</ele>
        <time>2026-06-18T11:49:35.000Z</time>
        <extensions>
          <ns3:TrackPointExtension>
            <ns3:atemp>21.0</ns3:atemp>
          </ns3:TrackPointExtension>
        </extensions>
      </trkpt>
      <trkpt lat="42.5251892767846584320068359375" lon="19.7812004573643207550048828125">
        <ele>1282.199951171875</ele>
        <time>2026-06-18T11:49:36.000Z</time>
        <extensions>
          <ns3:TrackPointExtension>
            <ns3:atemp>21.0</ns3:atemp>
          </ns3:TrackPointExtension>
        </extensions>
      </trkpt>
      <trkpt lat="42.5251892767846584320068359375" lon="19.7812004573643207550048828125">
        <ele>1282.199951171875</ele>
        <time>2026-06-18T11:49:37.000Z</time>
        <extensions>
          <ns3:TrackPointExtension>
            <ns3:atemp>21.0</ns3:atemp>
          </ns3:TrackPointExtension>
        </extensions>
      </trkpt>
      <trkpt lat="42.5251892767846584320068359375" lon="19.7812004573643207550048828125">
        <ele>1282</ele>
        <time>2026-06-18T11:49:38.000Z</time>
        <extensions>
          <ns3:TrackPointExtension>
            <ns3:atemp>21.0</ns3:atemp>
          </ns3:TrackPointExtension>
        </extensions>
      </trkpt>
      <trkpt lat="42.5251892767846584320068359375" lon="19.7812004573643207550048828125">
        <ele>1282</ele>
        <time>2026-06-18T11:49:39.000Z</time>
        <extensions>
          <ns3:TrackPointExtension>
            <ns3:atemp>21.0</ns3:atemp>
          </ns3:TrackPointExtension>
        </extensions>
      </trkpt>
      <trkpt lat="42.5251892767846584320068359375" lon="19.7812004573643207550048828125">
        <ele>1282</ele>
        <time>2026-06-18T11:49:40.000Z</time>
        <extensions>
          <ns3:TrackPointExtension>
            <ns3:atemp>21.0</ns3:atemp>
          </ns3:TrackPointExtension>
        </extensions>
      </trkpt>
      <trkpt lat="42.5251892767846584320068359375" lon="19.7812004573643207550048828125">
        <ele>1282</ele>
        <time>2026-06-18T11:49:41.000Z</time>
        <extensions>
          <ns3:TrackPointExtension>
            <ns3:atemp>21.0</ns3:atemp>
          </ns3:TrackPointExtension>
        </extensions>
      </trkpt>
      <trkpt lat="42.5251892767846584320068359375" lon="19.7812004573643207550048828125">
        <ele>1282</ele>
        <time>2026-06-18T11:49:42.000Z</time>
        <extensions>
          <ns3:TrackPointExtension>
            <ns3:atemp>21.0</ns3:atemp>
          </ns3:TrackPointExtension>
        </extensions>
      </trkpt>
      <trkpt lat="42.5251892767846584320068359375" lon="19.7812004573643207550048828125">
        <ele>1282</ele>
        <time>2026-06-18T11:49:43.000Z</time>
        <extensions>
          <ns3:TrackPointExtension>
            <ns3:atemp>21.0</ns3:atemp>
          </ns3:TrackPointExtension>
        </extensions>
      </trkpt>
      <trkpt lat="42.5251892767846584320068359375" lon="19.7812004573643207550048828125">
        <ele>1282</ele>
        <time>2026-06-18T11:49:44.000Z</time>
        <extensions>
          <ns3:TrackPointExtension>
            <ns3:atemp>21.0</ns3:atemp>
          </ns3:TrackPointExtension>
        </extensions>
      </trkpt>
      <trkpt lat="42.5251892767846584320068359375" lon="19.7812004573643207550048828125">
        <ele>1281.800048828125</ele>
        <time>2026-06-18T11:49:45.000Z</time>
        <extensions>
          <ns3:TrackPointExtension>
            <ns3:atemp>21.0</ns3:atemp>
          </ns3:TrackPointExtension>
        </extensions>
      </trkpt>
      <trkpt lat="42.5251892767846584320068359375" lon="19.7812004573643207550048828125">
        <ele>1281.800048828125</ele>
        <time>2026-06-18T11:49:46.000Z</time>
        <extensions>
          <ns3:TrackPointExtension>
            <ns3:atemp>21.0</ns3:atemp>
          </ns3:TrackPointExtension>
        </extensions>
      </trkpt>
      <trkpt lat="42.5251892767846584320068359375" lon="19.7812004573643207550048828125">
        <ele>1281.800048828125</ele>
        <time>2026-06-18T11:49:47.000Z</time>
        <extensions>
          <ns3:TrackPointExtension>
            <ns3:atemp>21.0</ns3:atemp>
          </ns3:TrackPointExtension>
        </extensions>
      </trkpt>
      <trkpt lat="42.5251892767846584320068359375" lon="19.7812004573643207550048828125">
        <ele>1281.800048828125</ele>
        <time>2026-06-18T11:49:48.000Z</time>
        <extensions>
          <ns3:TrackPointExtension>
            <ns3:atemp>21.0</ns3:atemp>
          </ns3:TrackPointExtension>
        </extensions>
      </trkpt>
      <trkpt lat="42.5251892767846584320068359375" lon="19.7812004573643207550048828125">
        <ele>1281.800048828125</ele>
        <time>2026-06-18T11:49:49.000Z</time>
        <extensions>
          <ns3:TrackPointExtension>
            <ns3:atemp>21.0</ns3:atemp>
          </ns3:TrackPointExtension>
        </extensions>
      </trkpt>
      <trkpt lat="42.525187768042087554931640625" lon="19.7812148742377758026123046875">
        <ele>1281.5999755859375</ele>
        <time>2026-06-18T11:49:50.000Z</time>
        <extensions>
          <ns3:TrackPointExtension>
            <ns3:atemp>21.0</ns3:atemp>
          </ns3:TrackPointExtension>
        </extensions>
      </trkpt>
      <trkpt lat="42.52519053407013416290283203125" lon="19.78124446235597133636474609375">
        <ele>1281.5999755859375</ele>
        <time>2026-06-18T11:49:51.000Z</time>
        <extensions>
          <ns3:TrackPointExtension>
            <ns3:atemp>21.0</ns3:atemp>
          </ns3:TrackPointExtension>
        </extensions>
      </trkpt>
      <trkpt lat="42.52519614994525909423828125" lon="19.78127279318869113922119140625">
        <ele>1281.5999755859375</ele>
        <time>2026-06-18T11:49:52.000Z</time>
        <extensions>
          <ns3:TrackPointExtension>
            <ns3:atemp>21.0</ns3:atemp>
          </ns3:TrackPointExtension>
        </extensions>
      </trkpt>
      <trkpt lat="42.52520059235394001007080078125" lon="19.78129492141306400299072265625">
        <ele>1281.4000244140625</ele>
        <time>2026-06-18T11:49:53.000Z</time>
        <extensions>
          <ns3:TrackPointExtension>
            <ns3:atemp>21.0</ns3:atemp>
          </ns3:TrackPointExtension>
        </extensions>
      </trkpt>
      <trkpt lat="42.5252048671245574951171875" lon="19.78131788782775402069091796875">
        <ele>1281.199951171875</ele>
        <time>2026-06-18T11:49:54.000Z</time>
        <extensions>
          <ns3:TrackPointExtension>
            <ns3:atemp>21.0</ns3:atemp>
          </ns3:TrackPointExtension>
        </extensions>
      </trkpt>
      <trkpt lat="42.5252110697329044342041015625" lon="19.78134538047015666961669921875">
        <ele>1280.800048828125</ele>
        <time>2026-06-18T11:49:55.000Z</time>
        <extensions>
          <ns3:TrackPointExtension>
            <ns3:atemp>21.0</ns3:atemp>
          </ns3:TrackPointExtension>
        </extensions>
      </trkpt>
      <trkpt lat="42.52521936781704425811767578125" lon="19.7813617251813411712646484375">
        <ele>1280.4000244140625</ele>
        <time>2026-06-18T11:49:56.000Z</time>
        <extensions>
          <ns3:TrackPointExtension>
            <ns3:atemp>21.0</ns3:atemp>
          </ns3:TrackPointExtension>
        </extensions>
      </trkpt>
      <trkpt lat="42.52522255294024944305419921875" lon="19.78137798607349395751953125">
        <ele>1279.800048828125</ele>
        <time>2026-06-18T11:49:57.000Z</time>
        <extensions>
          <ns3:TrackPointExtension>
            <ns3:atemp>21.0</ns3:atemp>
          </ns3:TrackPointExtension>
        </extensions>
      </trkpt>
      <trkpt lat="42.52521869726479053497314453125" lon="19.78140489198267459869384765625">
        <ele>1279.199951171875</ele>
        <time>2026-06-18T11:49:58.000Z</time>
        <extensions>
          <ns3:TrackPointExtension>
            <ns3:atemp>21.0</ns3:atemp>
          </ns3:TrackPointExtension>
        </extensions>
      </trkpt>
      <trkpt lat="42.52520528621971607208251953125" lon="19.78142215870320796966552734375">
        <ele>1278.5999755859375</ele>
        <time>2026-06-18T11:49:59.000Z</time>
        <extensions>
          <ns3:TrackPointExtension>
            <ns3:atemp>21.0</ns3:atemp>
          </ns3:TrackPointExtension>
        </extensions>
      </trkpt>
      <trkpt lat="42.525203190743923187255859375" lon="19.78144395165145397186279296875">
        <ele>1277.800048828125</ele>
        <time>2026-06-18T11:50:00.000Z</time>
        <extensions>
          <ns3:TrackPointExtension>
            <ns3:atemp>21.0</ns3:atemp>
          </ns3:TrackPointExtension>
        </extensions>
      </trkpt>
      <trkpt lat="42.5251968204975128173828125" lon="19.78147856891155242919921875">
        <ele>1277.199951171875</ele>
        <time>2026-06-18T11:50:01.000Z</time>
        <extensions>
          <ns3:TrackPointExtension>
            <ns3:atemp>21.0</ns3:atemp>
          </ns3:TrackPointExtension>
        </extensions>
      </trkpt>
      <trkpt lat="42.5251902826130390167236328125" lon="19.78150807321071624755859375">
        <ele>1276.5999755859375</ele>
        <time>2026-06-18T11:50:02.000Z</time>
        <extensions>
          <ns3:TrackPointExtension>
            <ns3:atemp>21.0</ns3:atemp>
          </ns3:TrackPointExtension>
        </extensions>
      </trkpt>
      <trkpt lat="42.5251829065382480621337890625" lon="19.7815313749015331268310546875">
        <ele>1276</ele>
        <time>2026-06-18T11:50:03.000Z</time>
        <extensions>
          <ns3:TrackPointExtension>
            <ns3:atemp>21.0</ns3:atemp>
          </ns3:TrackPointExtension>
        </extensions>
      </trkpt>
      <trkpt lat="42.52516974695026874542236328125" lon="19.78155576623976230621337890625">
        <ele>1275.5999755859375</ele>
        <time>2026-06-18T11:50:04.000Z</time>
        <extensions>
          <ns3:TrackPointExtension>
            <ns3:atemp>21.0</ns3:atemp>
          </ns3:TrackPointExtension>
        </extensions>
      </trkpt>
      <trkpt lat="42.525156922638416290283203125" lon="19.7815806604921817779541015625">
        <ele>1275.199951171875</ele>
        <time>2026-06-18T11:50:05.000Z</time>
        <extensions>
          <ns3:TrackPointExtension>
            <ns3:atemp>21.0</ns3:atemp>
          </ns3:TrackPointExtension>
        </extensions>
      </trkpt>
      <trkpt lat="42.5251584313809871673583984375" lon="19.7816054709255695343017578125">
        <ele>1274.800048828125</ele>
        <time>2026-06-18T11:50:06.000Z</time>
        <extensions>
          <ns3:TrackPointExtension>
            <ns3:atemp>21.0</ns3:atemp>
          </ns3:TrackPointExtension>
        </extensions>
      </trkpt>
      <trkpt lat="42.52515784464776515960693359375" lon="19.78163371793925762176513671875">
        <ele>1274.4000244140625</ele>
        <time>2026-06-18T11:50:07.000Z</time>
        <extensions>
          <ns3:TrackPointExtension>
            <ns3:atemp>21.0</ns3:atemp>
          </ns3:TrackPointExtension>
        </extensions>
      </trkpt>
      <trkpt lat="42.52515323460102081298828125" lon="19.78165919892489910125732421875">
        <ele>1274</ele>
        <time>2026-06-18T11:50:08.000Z</time>
        <extensions>
          <ns3:TrackPointExtension>
            <ns3:atemp>21.0</ns3:atemp>
          </ns3:TrackPointExtension>
        </extensions>
      </trkpt>
      <trkpt lat="42.52514627762138843536376953125" lon="19.78168585337698459625244140625">
        <ele>1273.4000244140625</ele>
        <time>2026-06-18T11:50:09.000Z</time>
        <extensions>
          <ns3:TrackPointExtension>
            <ns3:atemp>21.0</ns3:atemp>
          </ns3:TrackPointExtension>
        </extensions>
      </trkpt>
      <trkpt lat="42.52513823099434375762939453125" lon="19.7817191295325756072998046875">
        <ele>1272.800048828125</ele>
        <time>2026-06-18T11:50:10.000Z</time>
        <extensions>
          <ns3:TrackPointExtension>
            <ns3:atemp>21.0</ns3:atemp>
          </ns3:TrackPointExtension>
        </extensions>
      </trkpt>
      <trkpt lat="42.5251324474811553955078125" lon="19.781755171716213226318359375">
        <ele>1272</ele>
        <time>2026-06-18T11:50:11.000Z</time>
        <extensions>
          <ns3:TrackPointExtension>
            <ns3:atemp>21.0</ns3:atemp>
          </ns3:TrackPointExtension>
        </extensions>
      </trkpt>
      <trkpt lat="42.52512414939701557159423828125" lon="19.7817845083773136138916015625">
        <ele>1271.4000244140625</ele>
        <time>2026-06-18T11:50:12.000Z</time>
        <extensions>
          <ns3:TrackPointExtension>
            <ns3:atemp>21.0</ns3:atemp>
          </ns3:TrackPointExtension>
        </extensions>
      </trkpt>
      <trkpt lat="42.5251098163425922393798828125" lon="19.78180621750652790069580078125">
        <ele>1270.4000244140625</ele>
        <time>2026-06-18T11:50:13.000Z</time>
        <extensions>
          <ns3:TrackPointExtension>
            <ns3:atemp>21.0</ns3:atemp>
          </ns3:TrackPointExtension>
        </extensions>
      </trkpt>
      <trkpt lat="42.5251021049916744232177734375" lon="19.78183018974959850311279296875">
        <ele>1269.800048828125</ele>
        <time>2026-06-18T11:50:14.000Z</time>
        <extensions>
          <ns3:TrackPointExtension>
            <ns3:atemp>21.0</ns3:atemp>
          </ns3:TrackPointExtension>
        </extensions>
      </trkpt>
      <trkpt lat="42.5250948965549468994140625" lon="19.7818539105355739593505859375">
        <ele>1269</ele>
        <time>2026-06-18T11:50:15.000Z</time>
        <extensions>
          <ns3:TrackPointExtension>
            <ns3:atemp>21.0</ns3:atemp>
          </ns3:TrackPointExtension>
        </extensions>
      </trkpt>
      <trkpt lat="42.52509330399334430694580078125" lon="19.78187897242605686187744140625">
        <ele>1268.4000244140625</ele>
        <time>2026-06-18T11:50:16.000Z</time>
        <extensions>
          <ns3:TrackPointExtension>
            <ns3:atemp>21.0</ns3:atemp>
          </ns3:TrackPointExtension>
        </extensions>
      </trkpt>
      <trkpt lat="42.52508626319468021392822265625" lon="19.78190311230719089508056640625">
        <ele>1267.800048828125</ele>
        <time>2026-06-18T11:50:17.000Z</time>
        <extensions>
          <ns3:TrackPointExtension>
            <ns3:atemp>21.0</ns3:atemp>
          </ns3:TrackPointExtension>
        </extensions>
      </trkpt>
      <trkpt lat="42.52507234923541545867919921875" lon="19.78192440234124660491943359375">
        <ele>1267.199951171875</ele>
        <time>2026-06-18T11:50:18.000Z</time>
        <extensions>
          <ns3:TrackPointExtension>
            <ns3:atemp>21.0</ns3:atemp>
          </ns3:TrackPointExtension>
        </extensions>
      </trkpt>
      <trkpt lat="42.5250598601996898651123046875" lon="19.78195021860301494598388671875">
        <ele>1266.4000244140625</ele>
        <time>2026-06-18T11:50:19.000Z</time>
        <extensions>
          <ns3:TrackPointExtension>
            <ns3:atemp>21.0</ns3:atemp>
          </ns3:TrackPointExtension>
        </extensions>
      </trkpt>
      <trkpt lat="42.52505893819034099578857421875" lon="19.78196631185710430145263671875">
        <ele>1265.800048828125</ele>
        <time>2026-06-18T11:50:20.000Z</time>
        <extensions>
          <ns3:TrackPointExtension>
            <ns3:atemp>21.0</ns3:atemp>
          </ns3:TrackPointExtension>
        </extensions>
      </trkpt>
      <trkpt lat="42.52506631426513195037841796875" lon="19.781982488930225372314453125">
        <ele>1265.199951171875</ele>
        <time>2026-06-18T11:50:21.000Z</time>
        <extensions>
          <ns3:TrackPointExtension>
            <ns3:atemp>21.0</ns3:atemp>
          </ns3:TrackPointExtension>
        </extensions>
      </trkpt>
      <trkpt lat="42.52506597898900508880615234375" lon="19.78198349475860595703125">
        <ele>1264.5999755859375</ele>
        <time>2026-06-18T11:50:22.000Z</time>
        <extensions>
          <ns3:TrackPointExtension>
            <ns3:atemp>21.0</ns3:atemp>
          </ns3:TrackPointExtension>
        </extensions>
      </trkpt>
      <trkpt lat="42.52506597898900508880615234375" lon="19.78198349475860595703125">
        <ele>1264.199951171875</ele>
        <time>2026-06-18T11:50:23.000Z</time>
        <extensions>
          <ns3:TrackPointExtension>
            <ns3:atemp>21.0</ns3:atemp>
          </ns3:TrackPointExtension>
        </extensions>
      </trkpt>
      <trkpt lat="42.52506597898900508880615234375" lon="19.78198349475860595703125">
        <ele>1264</ele>
        <time>2026-06-18T11:50:24.000Z</time>
        <extensions>
          <ns3:TrackPointExtension>
            <ns3:atemp>21.0</ns3:atemp>
          </ns3:TrackPointExtension>
        </extensions>
      </trkpt>
      <trkpt lat="42.52506597898900508880615234375" lon="19.78198349475860595703125">
        <ele>1263.800048828125</ele>
        <time>2026-06-18T11:50:25.000Z</time>
        <extensions>
          <ns3:TrackPointExtension>
            <ns3:atemp>21.0</ns3:atemp>
          </ns3:TrackPointExtension>
        </extensions>
      </trkpt>
      <trkpt lat="42.52506597898900508880615234375" lon="19.78198349475860595703125">
        <ele>1263.5999755859375</ele>
        <time>2026-06-18T11:50:26.000Z</time>
        <extensions>
          <ns3:TrackPointExtension>
            <ns3:atemp>21.0</ns3:atemp>
          </ns3:TrackPointExtension>
        </extensions>
      </trkpt>
      <trkpt lat="42.52506597898900508880615234375" lon="19.78198349475860595703125">
        <ele>1263.4000244140625</ele>
        <time>2026-06-18T11:50:27.000Z</time>
        <extensions>
          <ns3:TrackPointExtension>
            <ns3:atemp>21.0</ns3:atemp>
          </ns3:TrackPointExtension>
        </extensions>
      </trkpt>
      <trkpt lat="42.52506597898900508880615234375" lon="19.78198349475860595703125">
        <ele>1263.4000244140625</ele>
        <time>2026-06-18T11:50:28.000Z</time>
        <extensions>
          <ns3:TrackPointExtension>
            <ns3:atemp>21.0</ns3:atemp>
          </ns3:TrackPointExtension>
        </extensions>
      </trkpt>
      <trkpt lat="42.5250648893415927886962890625" lon="19.78198978118598461151123046875">
        <ele>1263.199951171875</ele>
        <time>2026-06-18T11:50:29.000Z</time>
        <extensions>
          <ns3:TrackPointExtension>
            <ns3:atemp>21.0</ns3:atemp>
          </ns3:TrackPointExtension>
        </extensions>
      </trkpt>
      <trkpt lat="42.52505927346646785736083984375" lon="19.78201945312321186065673828125">
        <ele>1263.199951171875</ele>
        <time>2026-06-18T11:50:30.000Z</time>
        <extensions>
          <ns3:TrackPointExtension>
            <ns3:atemp>21.0</ns3:atemp>
          </ns3:TrackPointExtension>
        </extensions>
      </trkpt>
      <trkpt lat="42.5250501371920108795166015625" lon="19.7820386476814746856689453125">
        <ele>1263</ele>
        <time>2026-06-18T11:50:31.000Z</time>
        <extensions>
          <ns3:TrackPointExtension>
            <ns3:atemp>21.0</ns3:atemp>
          </ns3:TrackPointExtension>
        </extensions>
      </trkpt>
      <trkpt lat="42.52505055628716945648193359375" lon="19.782040826976299285888671875">
        <ele>1262.800048828125</ele>
        <time>2026-06-18T11:50:32.000Z</time>
        <extensions>
          <ns3:TrackPointExtension>
            <ns3:atemp>21.0</ns3:atemp>
          </ns3:TrackPointExtension>
        </extensions>
      </trkpt>
      <trkpt lat="42.525050304830074310302734375" lon="19.78204124607145786285400390625">
        <ele>1262.800048828125</ele>
        <time>2026-06-18T11:50:33.000Z</time>
        <extensions>
          <ns3:TrackPointExtension>
            <ns3:atemp>21.0</ns3:atemp>
          </ns3:TrackPointExtension>
        </extensions>
      </trkpt>
      <trkpt lat="42.525050304830074310302734375" lon="19.78204124607145786285400390625">
        <ele>1262.5999755859375</ele>
        <time>2026-06-18T11:50:34.000Z</time>
        <extensions>
          <ns3:TrackPointExtension>
            <ns3:atemp>21.0</ns3:atemp>
          </ns3:TrackPointExtension>
        </extensions>
      </trkpt>
      <trkpt lat="42.52504971809685230255126953125" lon="19.78204241953790187835693359375">
        <ele>1262.5999755859375</ele>
        <time>2026-06-18T11:50:35.000Z</time>
        <extensions>
          <ns3:TrackPointExtension>
            <ns3:atemp>21.0</ns3:atemp>
          </ns3:TrackPointExtension>
        </extensions>
      </trkpt>
      <trkpt lat="42.52503865398466587066650390625" lon="19.782068990170955657958984375">
        <ele>1262.4000244140625</ele>
        <time>2026-06-18T11:50:36.000Z</time>
        <extensions>
          <ns3:TrackPointExtension>
            <ns3:atemp>21.0</ns3:atemp>
          </ns3:TrackPointExtension>
        </extensions>
      </trkpt>
      <trkpt lat="42.52503630705177783966064453125" lon="19.7820748575031757354736328125">
        <ele>1262.199951171875</ele>
        <time>2026-06-18T11:50:37.000Z</time>
        <extensions>
          <ns3:TrackPointExtension>
            <ns3:atemp>21.0</ns3:atemp>
          </ns3:TrackPointExtension>
        </extensions>
      </trkpt>
      <trkpt lat="42.52503630705177783966064453125" lon="19.78207510896027088165283203125">
        <ele>1262.199951171875</ele>
        <time>2026-06-18T11:50:38.000Z</time>
        <extensions>
          <ns3:TrackPointExtension>
            <ns3:atemp>21.0</ns3:atemp>
          </ns3:TrackPointExtension>
        </extensions>
      </trkpt>
      <trkpt lat="42.52503630705177783966064453125" lon="19.78207510896027088165283203125">
        <ele>1262</ele>
        <time>2026-06-18T11:50:39.000Z</time>
        <extensions>
          <ns3:TrackPointExtension>
            <ns3:atemp>21.0</ns3:atemp>
          </ns3:TrackPointExtension>
        </extensions>
      </trkpt>
      <trkpt lat="42.52503630705177783966064453125" lon="19.78207510896027088165283203125">
        <ele>1261.800048828125</ele>
        <time>2026-06-18T11:50:40.000Z</time>
        <extensions>
          <ns3:TrackPointExtension>
            <ns3:atemp>21.0</ns3:atemp>
          </ns3:TrackPointExtension>
        </extensions>
      </trkpt>
      <trkpt lat="42.5250358879566192626953125" lon="19.78207594715058803558349609375">
        <ele>1261.5999755859375</ele>
        <time>2026-06-18T11:50:41.000Z</time>
        <extensions>
          <ns3:TrackPointExtension>
            <ns3:atemp>21.0</ns3:atemp>
          </ns3:TrackPointExtension>
        </extensions>
      </trkpt>
      <trkpt lat="42.52503630705177783966064453125" lon="19.78207510896027088165283203125">
        <ele>1261.5999755859375</ele>
        <time>2026-06-18T11:50:42.000Z</time>
        <extensions>
          <ns3:TrackPointExtension>
            <ns3:atemp>21.0</ns3:atemp>
          </ns3:TrackPointExtension>
        </extensions>
      </trkpt>
      <trkpt lat="42.5250296853482723236083984375" lon="19.78208751417696475982666015625">
        <ele>1261.4000244140625</ele>
        <time>2026-06-18T11:50:43.000Z</time>
        <extensions>
          <ns3:TrackPointExtension>
            <ns3:atemp>21.0</ns3:atemp>
          </ns3:TrackPointExtension>
        </extensions>
      </trkpt>
      <trkpt lat="42.5250182859599590301513671875" lon="19.782106541097164154052734375">
        <ele>1261.199951171875</ele>
        <time>2026-06-18T11:50:44.000Z</time>
        <extensions>
          <ns3:TrackPointExtension>
            <ns3:atemp>21.0</ns3:atemp>
          </ns3:TrackPointExtension>
        </extensions>
      </trkpt>
      <trkpt lat="42.52500303089618682861328125" lon="19.78211735375225543975830078125">
        <ele>1261</ele>
        <time>2026-06-18T11:50:45.000Z</time>
        <extensions>
          <ns3:TrackPointExtension>
            <ns3:atemp>21.0</ns3:atemp>
          </ns3:TrackPointExtension>
        </extensions>
      </trkpt>
      <trkpt lat="42.524991966784000396728515625" lon="19.782125651836395263671875">
        <ele>1260.800048828125</ele>
        <time>2026-06-18T11:50:46.000Z</time>
        <extensions>
          <ns3:TrackPointExtension>
            <ns3:atemp>21.0</ns3:atemp>
          </ns3:TrackPointExtension>
        </extensions>
      </trkpt>
      <trkpt lat="42.52498668618500232696533203125" lon="19.78212590329349040985107421875">
        <ele>1260.5999755859375</ele>
        <time>2026-06-18T11:50:47.000Z</time>
        <extensions>
          <ns3:TrackPointExtension>
            <ns3:atemp>21.0</ns3:atemp>
          </ns3:TrackPointExtension>
        </extensions>
      </trkpt>
      <trkpt lat="42.52498718909919261932373046875" lon="19.78213897906243801116943359375">
        <ele>1260.4000244140625</ele>
        <time>2026-06-18T11:50:48.000Z</time>
        <extensions>
          <ns3:TrackPointExtension>
            <ns3:atemp>21.0</ns3:atemp>
          </ns3:TrackPointExtension>
        </extensions>
      </trkpt>
      <trkpt lat="42.52499163150787353515625" lon="19.78214803151786327362060546875">
        <ele>1260.199951171875</ele>
        <time>2026-06-18T11:50:49.000Z</time>
        <extensions>
          <ns3:TrackPointExtension>
            <ns3:atemp>21.0</ns3:atemp>
          </ns3:TrackPointExtension>
        </extensions>
      </trkpt>
      <trkpt lat="42.52499070949852466583251953125" lon="19.78214736096560955047607421875">
        <ele>1260.199951171875</ele>
        <time>2026-06-18T11:50:50.000Z</time>
        <extensions>
          <ns3:TrackPointExtension>
            <ns3:atemp>21.0</ns3:atemp>
          </ns3:TrackPointExtension>
        </extensions>
      </trkpt>
      <trkpt lat="42.5249907933175563812255859375" lon="19.782147444784641265869140625">
        <ele>1260</ele>
        <time>2026-06-18T11:50:51.000Z</time>
        <extensions>
          <ns3:TrackPointExtension>
            <ns3:atemp>21.0</ns3:atemp>
          </ns3:TrackPointExtension>
        </extensions>
      </trkpt>
      <trkpt lat="42.5249907933175563812255859375" lon="19.782147444784641265869140625">
        <ele>1260</ele>
        <time>2026-06-18T11:50:52.000Z</time>
        <extensions>
          <ns3:TrackPointExtension>
            <ns3:atemp>21.0</ns3:atemp>
          </ns3:TrackPointExtension>
        </extensions>
      </trkpt>
      <trkpt lat="42.5249907933175563812255859375" lon="19.782147444784641265869140625">
        <ele>1259.800048828125</ele>
        <time>2026-06-18T11:50:53.000Z</time>
        <extensions>
          <ns3:TrackPointExtension>
            <ns3:atemp>21.0</ns3:atemp>
          </ns3:TrackPointExtension>
        </extensions>
      </trkpt>
      <trkpt lat="42.5249907933175563812255859375" lon="19.782147444784641265869140625">
        <ele>1259.800048828125</ele>
        <time>2026-06-18T11:50:54.000Z</time>
        <extensions>
          <ns3:TrackPointExtension>
            <ns3:atemp>21.0</ns3:atemp>
          </ns3:TrackPointExtension>
        </extensions>
      </trkpt>
      <trkpt lat="42.5249907933175563812255859375" lon="19.782147444784641265869140625">
        <ele>1259.5999755859375</ele>
        <time>2026-06-18T11:50:55.000Z</time>
        <extensions>
          <ns3:TrackPointExtension>
            <ns3:atemp>21.0</ns3:atemp>
          </ns3:TrackPointExtension>
        </extensions>
      </trkpt>
      <trkpt lat="42.5249907933175563812255859375" lon="19.782147444784641265869140625">
        <ele>1259.5999755859375</ele>
        <time>2026-06-18T11:50:56.000Z</time>
        <extensions>
          <ns3:TrackPointExtension>
            <ns3:atemp>21.0</ns3:atemp>
          </ns3:TrackPointExtension>
        </extensions>
      </trkpt>
      <trkpt lat="42.5249907933175563812255859375" lon="19.782147444784641265869140625">
        <ele>1259.4000244140625</ele>
        <time>2026-06-18T11:50:57.000Z</time>
        <extensions>
          <ns3:TrackPointExtension>
            <ns3:atemp>21.0</ns3:atemp>
          </ns3:TrackPointExtension>
        </extensions>
      </trkpt>
      <trkpt lat="42.5249907933175563812255859375" lon="19.782147444784641265869140625">
        <ele>1259.199951171875</ele>
        <time>2026-06-18T11:50:58.000Z</time>
        <extensions>
          <ns3:TrackPointExtension>
            <ns3:atemp>21.0</ns3:atemp>
          </ns3:TrackPointExtension>
        </extensions>
      </trkpt>
      <trkpt lat="42.5249907933175563812255859375" lon="19.782147444784641265869140625">
        <ele>1259.199951171875</ele>
        <time>2026-06-18T11:50:59.000Z</time>
        <extensions>
          <ns3:TrackPointExtension>
            <ns3:atemp>21.0</ns3:atemp>
          </ns3:TrackPointExtension>
        </extensions>
      </trkpt>
      <trkpt lat="42.5249907933175563812255859375" lon="19.782147444784641265869140625">
        <ele>1259.199951171875</ele>
        <time>2026-06-18T11:51:00.000Z</time>
        <extensions>
          <ns3:TrackPointExtension>
            <ns3:atemp>21.0</ns3:atemp>
          </ns3:TrackPointExtension>
        </extensions>
      </trkpt>
      <trkpt lat="42.5249907933175563812255859375" lon="19.782147444784641265869140625">
        <ele>1259</ele>
        <time>2026-06-18T11:51:01.000Z</time>
        <extensions>
          <ns3:TrackPointExtension>
            <ns3:atemp>21.0</ns3:atemp>
          </ns3:TrackPointExtension>
        </extensions>
      </trkpt>
      <trkpt lat="42.5249907933175563812255859375" lon="19.782147444784641265869140625">
        <ele>1259</ele>
        <time>2026-06-18T11:51:02.000Z</time>
        <extensions>
          <ns3:TrackPointExtension>
            <ns3:atemp>21.0</ns3:atemp>
          </ns3:TrackPointExtension>
        </extensions>
      </trkpt>
      <trkpt lat="42.5249907933175563812255859375" lon="19.782147444784641265869140625">
        <ele>1259</ele>
        <time>2026-06-18T11:51:03.000Z</time>
        <extensions>
          <ns3:TrackPointExtension>
            <ns3:atemp>21.0</ns3:atemp>
          </ns3:TrackPointExtension>
        </extensions>
      </trkpt>
      <trkpt lat="42.5249907933175563812255859375" lon="19.782147444784641265869140625">
        <ele>1258.800048828125</ele>
        <time>2026-06-18T11:51:04.000Z</time>
        <extensions>
          <ns3:TrackPointExtension>
            <ns3:atemp>21.0</ns3:atemp>
          </ns3:TrackPointExtension>
        </extensions>
      </trkpt>
      <trkpt lat="42.5249907933175563812255859375" lon="19.782147444784641265869140625">
        <ele>1258.800048828125</ele>
        <time>2026-06-18T11:51:05.000Z</time>
        <extensions>
          <ns3:TrackPointExtension>
            <ns3:atemp>21.0</ns3:atemp>
          </ns3:TrackPointExtension>
        </extensions>
      </trkpt>
      <trkpt lat="42.5249907933175563812255859375" lon="19.782147444784641265869140625">
        <ele>1258.800048828125</ele>
        <time>2026-06-18T11:51:06.000Z</time>
        <extensions>
          <ns3:TrackPointExtension>
            <ns3:atemp>21.0</ns3:atemp>
          </ns3:TrackPointExtension>
        </extensions>
      </trkpt>
      <trkpt lat="42.5249907933175563812255859375" lon="19.782147444784641265869140625">
        <ele>1258.800048828125</ele>
        <time>2026-06-18T11:51:07.000Z</time>
        <extensions>
          <ns3:TrackPointExtension>
            <ns3:atemp>21.0</ns3:atemp>
          </ns3:TrackPointExtension>
        </extensions>
      </trkpt>
      <trkpt lat="42.5249907933175563812255859375" lon="19.782147444784641265869140625">
        <ele>1258.800048828125</ele>
        <time>2026-06-18T11:51:08.000Z</time>
        <extensions>
          <ns3:TrackPointExtension>
            <ns3:atemp>21.0</ns3:atemp>
          </ns3:TrackPointExtension>
        </extensions>
      </trkpt>
      <trkpt lat="42.5249907933175563812255859375" lon="19.782147444784641265869140625">
        <ele>1258.800048828125</ele>
        <time>2026-06-18T11:51:09.000Z</time>
        <extensions>
          <ns3:TrackPointExtension>
            <ns3:atemp>21.0</ns3:atemp>
          </ns3:TrackPointExtension>
        </extensions>
      </trkpt>
      <trkpt lat="42.5249907933175563812255859375" lon="19.782147444784641265869140625">
        <ele>1258.5999755859375</ele>
        <time>2026-06-18T11:51:10.000Z</time>
        <extensions>
          <ns3:TrackPointExtension>
            <ns3:atemp>21.0</ns3:atemp>
          </ns3:TrackPointExtension>
        </extensions>
      </trkpt>
      <trkpt lat="42.5249907933175563812255859375" lon="19.782147444784641265869140625">
        <ele>1258.5999755859375</ele>
        <time>2026-06-18T11:51:11.000Z</time>
        <extensions>
          <ns3:TrackPointExtension>
            <ns3:atemp>22.0</ns3:atemp>
          </ns3:TrackPointExtension>
        </extensions>
      </trkpt>
      <trkpt lat="42.5249907933175563812255859375" lon="19.782147444784641265869140625">
        <ele>1258.800048828125</ele>
        <time>2026-06-18T11:51:12.000Z</time>
        <extensions>
          <ns3:TrackPointExtension>
            <ns3:atemp>22.0</ns3:atemp>
          </ns3:TrackPointExtension>
        </extensions>
      </trkpt>
      <trkpt lat="42.5249907933175563812255859375" lon="19.782147444784641265869140625">
        <ele>1258.800048828125</ele>
        <time>2026-06-18T11:51:13.000Z</time>
        <extensions>
          <ns3:TrackPointExtension>
            <ns3:atemp>21.0</ns3:atemp>
          </ns3:TrackPointExtension>
        </extensions>
      </trkpt>
      <trkpt lat="42.5249907933175563812255859375" lon="19.782147444784641265869140625">
        <ele>1259</ele>
        <time>2026-06-18T11:51:14.000Z</time>
        <extensions>
          <ns3:TrackPointExtension>
            <ns3:atemp>21.0</ns3:atemp>
          </ns3:TrackPointExtension>
        </extensions>
      </trkpt>
      <trkpt lat="42.5249907933175563812255859375" lon="19.782147444784641265869140625">
        <ele>1259</ele>
        <time>2026-06-18T11:51:15.000Z</time>
        <extensions>
          <ns3:TrackPointExtension>
            <ns3:atemp>21.0</ns3:atemp>
          </ns3:TrackPointExtension>
        </extensions>
      </trkpt>
      <trkpt lat="42.5249907933175563812255859375" lon="19.782147444784641265869140625">
        <ele>1259</ele>
        <time>2026-06-18T11:51:16.000Z</time>
        <extensions>
          <ns3:TrackPointExtension>
            <ns3:atemp>21.0</ns3:atemp>
          </ns3:TrackPointExtension>
        </extensions>
      </trkpt>
      <trkpt lat="42.5249907933175563812255859375" lon="19.782147444784641265869140625">
        <ele>1259</ele>
        <time>2026-06-18T11:51:17.000Z</time>
        <extensions>
          <ns3:TrackPointExtension>
            <ns3:atemp>21.0</ns3:atemp>
          </ns3:TrackPointExtension>
        </extensions>
      </trkpt>
      <trkpt lat="42.5249907933175563812255859375" lon="19.782147444784641265869140625">
        <ele>1259</ele>
        <time>2026-06-18T11:51:18.000Z</time>
        <extensions>
          <ns3:TrackPointExtension>
            <ns3:atemp>21.0</ns3:atemp>
          </ns3:TrackPointExtension>
        </extensions>
      </trkpt>
      <trkpt lat="42.52499171532690525054931640625" lon="19.78215188719332218170166015625">
        <ele>1259</ele>
        <time>2026-06-18T11:51:19.000Z</time>
        <extensions>
          <ns3:TrackPointExtension>
            <ns3:atemp>21.0</ns3:atemp>
          </ns3:TrackPointExtension>
        </extensions>
      </trkpt>
      <trkpt lat="42.52499188296496868133544921875" lon="19.78216119110584259033203125">
        <ele>1259</ele>
        <time>2026-06-18T11:51:20.000Z</time>
        <extensions>
          <ns3:TrackPointExtension>
            <ns3:atemp>21.0</ns3:atemp>
          </ns3:TrackPointExtension>
        </extensions>
      </trkpt>
      <trkpt lat="42.5249934755265712738037109375" lon="19.7821714170277118682861328125">
        <ele>1258.800048828125</ele>
        <time>2026-06-18T11:51:21.000Z</time>
        <extensions>
          <ns3:TrackPointExtension>
            <ns3:atemp>21.0</ns3:atemp>
          </ns3:TrackPointExtension>
        </extensions>
      </trkpt>
      <trkpt lat="42.5249998457729816436767578125" lon="19.78217518888413906097412109375">
        <ele>1258.800048828125</ele>
        <time>2026-06-18T11:51:22.000Z</time>
        <extensions>
          <ns3:TrackPointExtension>
            <ns3:atemp>21.0</ns3:atemp>
          </ns3:TrackPointExtension>
        </extensions>
      </trkpt>
      <trkpt lat="42.52499992959201335906982421875" lon="19.7821754403412342071533203125">
        <ele>1258.5999755859375</ele>
        <time>2026-06-18T11:51:23.000Z</time>
        <extensions>
          <ns3:TrackPointExtension>
            <ns3:atemp>21.0</ns3:atemp>
          </ns3:TrackPointExtension>
        </extensions>
      </trkpt>
      <trkpt lat="42.52499992959201335906982421875" lon="19.7821757756173610687255859375">
        <ele>1258.5999755859375</ele>
        <time>2026-06-18T11:51:24.000Z</time>
        <extensions>
          <ns3:TrackPointExtension>
            <ns3:atemp>21.0</ns3:atemp>
          </ns3:TrackPointExtension>
        </extensions>
      </trkpt>
      <trkpt lat="42.52500780858099460601806640625" lon="19.78218826465308666229248046875">
        <ele>1258.4000244140625</ele>
        <time>2026-06-18T11:51:25.000Z</time>
        <extensions>
          <ns3:TrackPointExtension>
            <ns3:atemp>21.0</ns3:atemp>
          </ns3:TrackPointExtension>
        </extensions>
      </trkpt>
      <trkpt lat="42.52501216717064380645751953125" lon="19.78219471871852874755859375">
        <ele>1258.199951171875</ele>
        <time>2026-06-18T11:51:26.000Z</time>
        <extensions>
          <ns3:TrackPointExtension>
            <ns3:atemp>21.0</ns3:atemp>
          </ns3:TrackPointExtension>
        </extensions>
      </trkpt>
      <trkpt lat="42.5250172801315784454345703125" lon="19.78219564072787761688232421875">
        <ele>1258</ele>
        <time>2026-06-18T11:51:27.000Z</time>
        <extensions>
          <ns3:TrackPointExtension>
            <ns3:atemp>22.0</ns3:atemp>
          </ns3:TrackPointExtension>
        </extensions>
      </trkpt>
      <trkpt lat="42.52502926625311374664306640625" lon="19.78219748474657535552978515625">
        <ele>1257.5999755859375</ele>
        <time>2026-06-18T11:51:28.000Z</time>
        <extensions>
          <ns3:TrackPointExtension>
            <ns3:atemp>22.0</ns3:atemp>
          </ns3:TrackPointExtension>
        </extensions>
      </trkpt>
      <trkpt lat="42.525048293173313140869140625" lon="19.7821948863565921783447265625">
        <ele>1257.199951171875</ele>
        <time>2026-06-18T11:51:29.000Z</time>
        <extensions>
          <ns3:TrackPointExtension>
            <ns3:atemp>22.0</ns3:atemp>
          </ns3:TrackPointExtension>
        </extensions>
      </trkpt>
      <trkpt lat="42.5250662304461002349853515625" lon="19.7821965627372264862060546875">
        <ele>1256.5999755859375</ele>
        <time>2026-06-18T11:51:30.000Z</time>
        <extensions>
          <ns3:TrackPointExtension>
            <ns3:atemp>22.0</ns3:atemp>
          </ns3:TrackPointExtension>
        </extensions>
      </trkpt>
      <trkpt lat="42.52508190460503101348876953125" lon="19.7821999154984951019287109375">
        <ele>1255.800048828125</ele>
        <time>2026-06-18T11:51:31.000Z</time>
        <extensions>
          <ns3:TrackPointExtension>
            <ns3:atemp>21.0</ns3:atemp>
          </ns3:TrackPointExtension>
        </extensions>
      </trkpt>
      <trkpt lat="42.5250970758497714996337890625" lon="19.78220142424106597900390625">
        <ele>1255.199951171875</ele>
        <time>2026-06-18T11:51:32.000Z</time>
        <extensions>
          <ns3:TrackPointExtension>
            <ns3:atemp>21.0</ns3:atemp>
          </ns3:TrackPointExtension>
        </extensions>
      </trkpt>
      <trkpt lat="42.52510805614292621612548828125" lon="19.78221206925809383392333984375">
        <ele>1254.5999755859375</ele>
        <time>2026-06-18T11:51:33.000Z</time>
        <extensions>
          <ns3:TrackPointExtension>
            <ns3:atemp>21.0</ns3:atemp>
          </ns3:TrackPointExtension>
        </extensions>
      </trkpt>
      <trkpt lat="42.5251111574470996856689453125" lon="19.7822284139692783355712890625">
        <ele>1254</ele>
        <time>2026-06-18T11:51:34.000Z</time>
        <extensions>
          <ns3:TrackPointExtension>
            <ns3:atemp>21.0</ns3:atemp>
          </ns3:TrackPointExtension>
        </extensions>
      </trkpt>
      <trkpt lat="42.5251181982457637786865234375" lon="19.78226043283939361572265625">
        <ele>1253.4000244140625</ele>
        <time>2026-06-18T11:51:35.000Z</time>
        <extensions>
          <ns3:TrackPointExtension>
            <ns3:atemp>21.0</ns3:atemp>
          </ns3:TrackPointExtension>
        </extensions>
      </trkpt>
      <trkpt lat="42.52512867562472820281982421875" lon="19.782291948795318603515625">
        <ele>1253</ele>
        <time>2026-06-18T11:51:36.000Z</time>
        <extensions>
          <ns3:TrackPointExtension>
            <ns3:atemp>22.0</ns3:atemp>
          </ns3:TrackPointExtension>
        </extensions>
      </trkpt>
      <trkpt lat="42.52514191903173923492431640625" lon="19.78232187218964099884033203125">
        <ele>1252.5999755859375</ele>
        <time>2026-06-18T11:51:37.000Z</time>
        <extensions>
          <ns3:TrackPointExtension>
            <ns3:atemp>22.0</ns3:atemp>
          </ns3:TrackPointExtension>
        </extensions>
      </trkpt>
      <trkpt lat="42.52515432424843311309814453125" lon="19.7823346965014934539794921875">
        <ele>1252.199951171875</ele>
        <time>2026-06-18T11:51:38.000Z</time>
        <extensions>
          <ns3:TrackPointExtension>
            <ns3:atemp>21.0</ns3:atemp>
          </ns3:TrackPointExtension>
        </extensions>
      </trkpt>
      <trkpt lat="42.525156922638416290283203125" lon="19.7823491133749485015869140625">
        <ele>1252</ele>
        <time>2026-06-18T11:51:39.000Z</time>
        <extensions>
          <ns3:TrackPointExtension>
            <ns3:atemp>21.0</ns3:atemp>
          </ns3:TrackPointExtension>
        </extensions>
      </trkpt>
      <trkpt lat="42.52515700645744800567626953125" lon="19.782349281013011932373046875">
        <ele>1251.800048828125</ele>
        <time>2026-06-18T11:51:40.000Z</time>
        <extensions>
          <ns3:TrackPointExtension>
            <ns3:atemp>22.0</ns3:atemp>
          </ns3:TrackPointExtension>
        </extensions>
      </trkpt>
      <trkpt lat="42.52515700645744800567626953125" lon="19.782349281013011932373046875">
        <ele>1251.800048828125</ele>
        <time>2026-06-18T11:51:41.000Z</time>
        <extensions>
          <ns3:TrackPointExtension>
            <ns3:atemp>22.0</ns3:atemp>
          </ns3:TrackPointExtension>
        </extensions>
      </trkpt>
      <trkpt lat="42.52515700645744800567626953125" lon="19.782349281013011932373046875">
        <ele>1251.800048828125</ele>
        <time>2026-06-18T11:51:42.000Z</time>
        <extensions>
          <ns3:TrackPointExtension>
            <ns3:atemp>21.0</ns3:atemp>
          </ns3:TrackPointExtension>
        </extensions>
      </trkpt>
      <trkpt lat="42.52515700645744800567626953125" lon="19.782349281013011932373046875">
        <ele>1252</ele>
        <time>2026-06-18T11:51:43.000Z</time>
        <extensions>
          <ns3:TrackPointExtension>
            <ns3:atemp>22.0</ns3:atemp>
          </ns3:TrackPointExtension>
        </extensions>
      </trkpt>
      <trkpt lat="42.52515700645744800567626953125" lon="19.782349281013011932373046875">
        <ele>1252</ele>
        <time>2026-06-18T11:51:44.000Z</time>
        <extensions>
          <ns3:TrackPointExtension>
            <ns3:atemp>22.0</ns3:atemp>
          </ns3:TrackPointExtension>
        </extensions>
      </trkpt>
      <trkpt lat="42.52515700645744800567626953125" lon="19.782349281013011932373046875">
        <ele>1252</ele>
        <time>2026-06-18T11:51:45.000Z</time>
        <extensions>
          <ns3:TrackPointExtension>
            <ns3:atemp>21.0</ns3:atemp>
          </ns3:TrackPointExtension>
        </extensions>
      </trkpt>
      <trkpt lat="42.52515700645744800567626953125" lon="19.782349281013011932373046875">
        <ele>1252</ele>
        <time>2026-06-18T11:51:46.000Z</time>
        <extensions>
          <ns3:TrackPointExtension>
            <ns3:atemp>21.0</ns3:atemp>
          </ns3:TrackPointExtension>
        </extensions>
      </trkpt>
      <trkpt lat="42.52515700645744800567626953125" lon="19.782349281013011932373046875">
        <ele>1251.800048828125</ele>
        <time>2026-06-18T11:51:47.000Z</time>
        <extensions>
          <ns3:TrackPointExtension>
            <ns3:atemp>21.0</ns3:atemp>
          </ns3:TrackPointExtension>
        </extensions>
      </trkpt>
      <trkpt lat="42.52515700645744800567626953125" lon="19.782349281013011932373046875">
        <ele>1251.800048828125</ele>
        <time>2026-06-18T11:51:48.000Z</time>
        <extensions>
          <ns3:TrackPointExtension>
            <ns3:atemp>21.0</ns3:atemp>
          </ns3:TrackPointExtension>
        </extensions>
      </trkpt>
      <trkpt lat="42.52515700645744800567626953125" lon="19.782349281013011932373046875">
        <ele>1251.800048828125</ele>
        <time>2026-06-18T11:51:49.000Z</time>
        <extensions>
          <ns3:TrackPointExtension>
            <ns3:atemp>21.0</ns3:atemp>
          </ns3:TrackPointExtension>
        </extensions>
      </trkpt>
      <trkpt lat="42.52515700645744800567626953125" lon="19.782349281013011932373046875">
        <ele>1251.800048828125</ele>
        <time>2026-06-18T11:51:50.000Z</time>
        <extensions>
          <ns3:TrackPointExtension>
            <ns3:atemp>21.0</ns3:atemp>
          </ns3:TrackPointExtension>
        </extensions>
      </trkpt>
      <trkpt lat="42.52515700645744800567626953125" lon="19.782349281013011932373046875">
        <ele>1251.800048828125</ele>
        <time>2026-06-18T11:51:51.000Z</time>
        <extensions>
          <ns3:TrackPointExtension>
            <ns3:atemp>21.0</ns3:atemp>
          </ns3:TrackPointExtension>
        </extensions>
      </trkpt>
      <trkpt lat="42.52515700645744800567626953125" lon="19.782349281013011932373046875">
        <ele>1251.800048828125</ele>
        <time>2026-06-18T11:51:52.000Z</time>
        <extensions>
          <ns3:TrackPointExtension>
            <ns3:atemp>21.0</ns3:atemp>
          </ns3:TrackPointExtension>
        </extensions>
      </trkpt>
      <trkpt lat="42.52515700645744800567626953125" lon="19.782349281013011932373046875">
        <ele>1251.5999755859375</ele>
        <time>2026-06-18T11:51:53.000Z</time>
        <extensions>
          <ns3:TrackPointExtension>
            <ns3:atemp>21.0</ns3:atemp>
          </ns3:TrackPointExtension>
        </extensions>
      </trkpt>
      <trkpt lat="42.52515700645744800567626953125" lon="19.782349281013011932373046875">
        <ele>1251.5999755859375</ele>
        <time>2026-06-18T11:51:54.000Z</time>
        <extensions>
          <ns3:TrackPointExtension>
            <ns3:atemp>21.0</ns3:atemp>
          </ns3:TrackPointExtension>
        </extensions>
      </trkpt>
      <trkpt lat="42.52515700645744800567626953125" lon="19.782349281013011932373046875">
        <ele>1251.5999755859375</ele>
        <time>2026-06-18T11:51:55.000Z</time>
        <extensions>
          <ns3:TrackPointExtension>
            <ns3:atemp>21.0</ns3:atemp>
          </ns3:TrackPointExtension>
        </extensions>
      </trkpt>
      <trkpt lat="42.52515700645744800567626953125" lon="19.782349281013011932373046875">
        <ele>1251.5999755859375</ele>
        <time>2026-06-18T11:51:56.000Z</time>
        <extensions>
          <ns3:TrackPointExtension>
            <ns3:atemp>21.0</ns3:atemp>
          </ns3:TrackPointExtension>
        </extensions>
      </trkpt>
      <trkpt lat="42.52515700645744800567626953125" lon="19.782349281013011932373046875">
        <ele>1251.5999755859375</ele>
        <time>2026-06-18T11:51:57.000Z</time>
        <extensions>
          <ns3:TrackPointExtension>
            <ns3:atemp>22.0</ns3:atemp>
          </ns3:TrackPointExtension>
        </extensions>
      </trkpt>
      <trkpt lat="42.52515700645744800567626953125" lon="19.782349281013011932373046875">
        <ele>1251.5999755859375</ele>
        <time>2026-06-18T11:51:58.000Z</time>
        <extensions>
          <ns3:TrackPointExtension>
            <ns3:atemp>22.0</ns3:atemp>
          </ns3:TrackPointExtension>
        </extensions>
      </trkpt>
      <trkpt lat="42.52515700645744800567626953125" lon="19.782349281013011932373046875">
        <ele>1251.5999755859375</ele>
        <time>2026-06-18T11:51:59.000Z</time>
        <extensions>
          <ns3:TrackPointExtension>
            <ns3:atemp>22.0</ns3:atemp>
          </ns3:TrackPointExtension>
        </extensions>
      </trkpt>
      <trkpt lat="42.52515700645744800567626953125" lon="19.782349281013011932373046875">
        <ele>1251.5999755859375</ele>
        <time>2026-06-18T11:52:00.000Z</time>
        <extensions>
          <ns3:TrackPointExtension>
            <ns3:atemp>22.0</ns3:atemp>
          </ns3:TrackPointExtension>
        </extensions>
      </trkpt>
      <trkpt lat="42.52515700645744800567626953125" lon="19.782349281013011932373046875">
        <ele>1251.5999755859375</ele>
        <time>2026-06-18T11:52:01.000Z</time>
        <extensions>
          <ns3:TrackPointExtension>
            <ns3:atemp>21.0</ns3:atemp>
          </ns3:TrackPointExtension>
        </extensions>
      </trkpt>
      <trkpt lat="42.52515700645744800567626953125" lon="19.782349281013011932373046875">
        <ele>1251.4000244140625</ele>
        <time>2026-06-18T11:52:02.000Z</time>
        <extensions>
          <ns3:TrackPointExtension>
            <ns3:atemp>21.0</ns3:atemp>
          </ns3:TrackPointExtension>
        </extensions>
      </trkpt>
      <trkpt lat="42.525155581533908843994140625" lon="19.7823514603078365325927734375">
        <ele>1251.4000244140625</ele>
        <time>2026-06-18T11:52:03.000Z</time>
        <extensions>
          <ns3:TrackPointExtension>
            <ns3:atemp>22.0</ns3:atemp>
          </ns3:TrackPointExtension>
        </extensions>
      </trkpt>
      <trkpt lat="42.52516203559935092926025390625" lon="19.78237149305641651153564453125">
        <ele>1251.4000244140625</ele>
        <time>2026-06-18T11:52:04.000Z</time>
        <extensions>
          <ns3:TrackPointExtension>
            <ns3:atemp>22.0</ns3:atemp>
          </ns3:TrackPointExtension>
        </extensions>
      </trkpt>
      <trkpt lat="42.52516371197998523712158203125" lon="19.782386161386966705322265625">
        <ele>1251.4000244140625</ele>
        <time>2026-06-18T11:52:05.000Z</time>
        <extensions>
          <ns3:TrackPointExtension>
            <ns3:atemp>22.0</ns3:atemp>
          </ns3:TrackPointExtension>
        </extensions>
      </trkpt>
      <trkpt lat="42.5251762010157108306884765625" lon="19.78240887634456157684326171875">
        <ele>1251.199951171875</ele>
        <time>2026-06-18T11:52:06.000Z</time>
        <extensions>
          <ns3:TrackPointExtension>
            <ns3:atemp>22.0</ns3:atemp>
          </ns3:TrackPointExtension>
        </extensions>
      </trkpt>
      <trkpt lat="42.5251879356801509857177734375" lon="19.78243553079664707183837890625">
        <ele>1251</ele>
        <time>2026-06-18T11:52:07.000Z</time>
        <extensions>
          <ns3:TrackPointExtension>
            <ns3:atemp>22.0</ns3:atemp>
          </ns3:TrackPointExtension>
        </extensions>
      </trkpt>
      <trkpt lat="42.525187768042087554931640625" lon="19.7824708186089992523193359375">
        <ele>1250.5999755859375</ele>
        <time>2026-06-18T11:52:08.000Z</time>
        <extensions>
          <ns3:TrackPointExtension>
            <ns3:atemp>22.0</ns3:atemp>
          </ns3:TrackPointExtension>
        </extensions>
      </trkpt>
      <trkpt lat="42.5251792185008525848388671875" lon="19.782503508031368255615234375">
        <ele>1250.199951171875</ele>
        <time>2026-06-18T11:52:09.000Z</time>
        <extensions>
          <ns3:TrackPointExtension>
            <ns3:atemp>21.0</ns3:atemp>
          </ns3:TrackPointExtension>
        </extensions>
      </trkpt>
      <trkpt lat="42.52517427317798137664794921875" lon="19.7825268097221851348876953125">
        <ele>1249.5999755859375</ele>
        <time>2026-06-18T11:52:10.000Z</time>
        <extensions>
          <ns3:TrackPointExtension>
            <ns3:atemp>21.0</ns3:atemp>
          </ns3:TrackPointExtension>
        </extensions>
      </trkpt>
      <trkpt lat="42.52518198452889919281005859375" lon="19.78255354799330234527587890625">
        <ele>1249</ele>
        <time>2026-06-18T11:52:11.000Z</time>
        <extensions>
          <ns3:TrackPointExtension>
            <ns3:atemp>22.0</ns3:atemp>
          </ns3:TrackPointExtension>
        </extensions>
      </trkpt>
      <trkpt lat="42.52519723959267139434814453125" lon="19.78259394876658916473388671875">
        <ele>1248.4000244140625</ele>
        <time>2026-06-18T11:52:12.000Z</time>
        <extensions>
          <ns3:TrackPointExtension>
            <ns3:atemp>21.0</ns3:atemp>
          </ns3:TrackPointExtension>
        </extensions>
      </trkpt>
      <trkpt lat="42.52521132118999958038330078125" lon="19.782624542713165283203125">
        <ele>1247.5999755859375</ele>
        <time>2026-06-18T11:52:13.000Z</time>
        <extensions>
          <ns3:TrackPointExtension>
            <ns3:atemp>21.0</ns3:atemp>
          </ns3:TrackPointExtension>
        </extensions>
      </trkpt>
      <trkpt lat="42.52523445524275302886962890625" lon="19.78264658711850643157958984375">
        <ele>1246.800048828125</ele>
        <time>2026-06-18T11:52:14.000Z</time>
        <extensions>
          <ns3:TrackPointExtension>
            <ns3:atemp>21.0</ns3:atemp>
          </ns3:TrackPointExtension>
        </extensions>
      </trkpt>
      <trkpt lat="42.52525205723941326141357421875" lon="19.78266008198261260986328125">
        <ele>1246</ele>
        <time>2026-06-18T11:52:15.000Z</time>
        <extensions>
          <ns3:TrackPointExtension>
            <ns3:atemp>21.0</ns3:atemp>
          </ns3:TrackPointExtension>
        </extensions>
      </trkpt>
      <trkpt lat="42.52526680938899517059326171875" lon="19.7826741635799407958984375">
        <ele>1245.199951171875</ele>
        <time>2026-06-18T11:52:16.000Z</time>
        <extensions>
          <ns3:TrackPointExtension>
            <ns3:atemp>22.0</ns3:atemp>
          </ns3:TrackPointExtension>
        </extensions>
      </trkpt>
      <trkpt lat="42.5252784602344036102294921875" lon="19.78270039893686771392822265625">
        <ele>1244.199951171875</ele>
        <time>2026-06-18T11:52:17.000Z</time>
        <extensions>
          <ns3:TrackPointExtension>
            <ns3:atemp>22.0</ns3:atemp>
          </ns3:TrackPointExtension>
        </extensions>
      </trkpt>
      <trkpt lat="42.525285668671131134033203125" lon="19.78274054825305938720703125">
        <ele>1243.4000244140625</ele>
        <time>2026-06-18T11:52:18.000Z</time>
        <extensions>
          <ns3:TrackPointExtension>
            <ns3:atemp>21.0</ns3:atemp>
          </ns3:TrackPointExtension>
        </extensions>
      </trkpt>
      <trkpt lat="42.5252955593168735504150390625" lon="19.78278421796858310699462890625">
        <ele>1242.199951171875</ele>
        <time>2026-06-18T11:52:19.000Z</time>
        <extensions>
          <ns3:TrackPointExtension>
            <ns3:atemp>22.0</ns3:atemp>
          </ns3:TrackPointExtension>
        </extensions>
      </trkpt>
      <trkpt lat="42.5253133289515972137451171875" lon="19.782805927097797393798828125">
        <ele>1241.199951171875</ele>
        <time>2026-06-18T11:52:20.000Z</time>
        <extensions>
          <ns3:TrackPointExtension>
            <ns3:atemp>21.0</ns3:atemp>
          </ns3:TrackPointExtension>
        </extensions>
      </trkpt>
      <trkpt lat="42.525332272052764892578125" lon="19.7828238643705844879150390625">
        <ele>1240.199951171875</ele>
        <time>2026-06-18T11:52:21.000Z</time>
        <extensions>
          <ns3:TrackPointExtension>
            <ns3:atemp>21.0</ns3:atemp>
          </ns3:TrackPointExtension>
        </extensions>
      </trkpt>
      <trkpt lat="42.5253468565642833709716796875" lon="19.78284691460430622100830078125">
        <ele>1239.199951171875</ele>
        <time>2026-06-18T11:52:22.000Z</time>
        <extensions>
          <ns3:TrackPointExtension>
            <ns3:atemp>21.0</ns3:atemp>
          </ns3:TrackPointExtension>
        </extensions>
      </trkpt>
      <trkpt lat="42.52535180188715457916259765625" lon="19.7828825376927852630615234375">
        <ele>1238.199951171875</ele>
        <time>2026-06-18T11:52:23.000Z</time>
        <extensions>
          <ns3:TrackPointExtension>
            <ns3:atemp>21.0</ns3:atemp>
          </ns3:TrackPointExtension>
        </extensions>
      </trkpt>
      <trkpt lat="42.52535968087613582611083984375" lon="19.782922267913818359375">
        <ele>1237.4000244140625</ele>
        <time>2026-06-18T11:52:24.000Z</time>
        <extensions>
          <ns3:TrackPointExtension>
            <ns3:atemp>21.0</ns3:atemp>
          </ns3:TrackPointExtension>
        </extensions>
      </trkpt>
      <trkpt lat="42.52538792788982391357421875" lon="19.782948084175586700439453125">
        <ele>1236.199951171875</ele>
        <time>2026-06-18T11:52:25.000Z</time>
        <extensions>
          <ns3:TrackPointExtension>
            <ns3:atemp>21.0</ns3:atemp>
          </ns3:TrackPointExtension>
        </extensions>
      </trkpt>
      <trkpt lat="42.5254167616367340087890625" lon="19.78296526707708835601806640625">
        <ele>1235.4000244140625</ele>
        <time>2026-06-18T11:52:26.000Z</time>
        <extensions>
          <ns3:TrackPointExtension>
            <ns3:atemp>21.0</ns3:atemp>
          </ns3:TrackPointExtension>
        </extensions>
      </trkpt>
      <trkpt lat="42.5254437513649463653564453125" lon="19.78299259208142757415771484375">
        <ele>1234.5999755859375</ele>
        <time>2026-06-18T11:52:27.000Z</time>
        <extensions>
          <ns3:TrackPointExtension>
            <ns3:atemp>21.0</ns3:atemp>
          </ns3:TrackPointExtension>
        </extensions>
      </trkpt>
      <trkpt lat="42.525459341704845428466796875" lon="19.78302243165671825408935546875">
        <ele>1233.800048828125</ele>
        <time>2026-06-18T11:52:28.000Z</time>
        <extensions>
          <ns3:TrackPointExtension>
            <ns3:atemp>21.0</ns3:atemp>
          </ns3:TrackPointExtension>
        </extensions>
      </trkpt>
      <trkpt lat="42.52547887153923511505126953125" lon="19.78305512107908725738525390625">
        <ele>1232.800048828125</ele>
        <time>2026-06-18T11:52:29.000Z</time>
        <extensions>
          <ns3:TrackPointExtension>
            <ns3:atemp>22.0</ns3:atemp>
          </ns3:TrackPointExtension>
        </extensions>
      </trkpt>
      <trkpt lat="42.52550326287746429443359375" lon="19.78308881632983684539794921875">
        <ele>1231.800048828125</ele>
        <time>2026-06-18T11:52:30.000Z</time>
        <extensions>
          <ns3:TrackPointExtension>
            <ns3:atemp>21.0</ns3:atemp>
          </ns3:TrackPointExtension>
        </extensions>
      </trkpt>
      <trkpt lat="42.52551801502704620361328125" lon="19.78312888182699680328369140625">
        <ele>1230.5999755859375</ele>
        <time>2026-06-18T11:52:31.000Z</time>
        <extensions>
          <ns3:TrackPointExtension>
            <ns3:atemp>21.0</ns3:atemp>
          </ns3:TrackPointExtension>
        </extensions>
      </trkpt>
      <trkpt lat="42.525545172393321990966796875" lon="19.78314581327140331268310546875">
        <ele>1229.5999755859375</ele>
        <time>2026-06-18T11:52:32.000Z</time>
        <extensions>
          <ns3:TrackPointExtension>
            <ns3:atemp>21.0</ns3:atemp>
          </ns3:TrackPointExtension>
        </extensions>
      </trkpt>
      <trkpt lat="42.5255681388080120086669921875" lon="19.7831665165722370147705078125">
        <ele>1228.800048828125</ele>
        <time>2026-06-18T11:52:33.000Z</time>
        <extensions>
          <ns3:TrackPointExtension>
            <ns3:atemp>21.0</ns3:atemp>
          </ns3:TrackPointExtension>
        </extensions>
      </trkpt>
      <trkpt lat="42.5255802087485790252685546875" lon="19.7831926681101322174072265625">
        <ele>1228</ele>
        <time>2026-06-18T11:52:34.000Z</time>
        <extensions>
          <ns3:TrackPointExtension>
            <ns3:atemp>21.0</ns3:atemp>
          </ns3:TrackPointExtension>
        </extensions>
      </trkpt>
      <trkpt lat="42.5255937874317169189453125" lon="19.78321773000061511993408203125">
        <ele>1227</ele>
        <time>2026-06-18T11:52:35.000Z</time>
        <extensions>
          <ns3:TrackPointExtension>
            <ns3:atemp>21.0</ns3:atemp>
          </ns3:TrackPointExtension>
        </extensions>
      </trkpt>
      <trkpt lat="42.52560560591518878936767578125" lon="19.7832486592233180999755859375">
        <ele>1226.199951171875</ele>
        <time>2026-06-18T11:52:36.000Z</time>
        <extensions>
          <ns3:TrackPointExtension>
            <ns3:atemp>21.0</ns3:atemp>
          </ns3:TrackPointExtension>
        </extensions>
      </trkpt>
      <trkpt lat="42.52560250461101531982421875" lon="19.78329417295753955841064453125">
        <ele>1225</ele>
        <time>2026-06-18T11:52:37.000Z</time>
        <extensions>
          <ns3:TrackPointExtension>
            <ns3:atemp>22.0</ns3:atemp>
          </ns3:TrackPointExtension>
        </extensions>
      </trkpt>
      <trkpt lat="42.52561323344707489013671875" lon="19.783337004482746124267578125">
        <ele>1224</ele>
        <time>2026-06-18T11:52:38.000Z</time>
        <extensions>
          <ns3:TrackPointExtension>
            <ns3:atemp>22.0</ns3:atemp>
          </ns3:TrackPointExtension>
        </extensions>
      </trkpt>
      <trkpt lat="42.5256351940333843231201171875" lon="19.7833844460546970367431640625">
        <ele>1223.199951171875</ele>
        <time>2026-06-18T11:52:39.000Z</time>
        <extensions>
          <ns3:TrackPointExtension>
            <ns3:atemp>22.0</ns3:atemp>
          </ns3:TrackPointExtension>
        </extensions>
      </trkpt>
      <trkpt lat="42.52566075883805751800537109375" lon="19.78342761285603046417236328125">
        <ele>1222.4000244140625</ele>
        <time>2026-06-18T11:52:40.000Z</time>
        <extensions>
          <ns3:TrackPointExtension>
            <ns3:atemp>22.0</ns3:atemp>
          </ns3:TrackPointExtension>
        </extensions>
      </trkpt>
      <trkpt lat="42.52567266114056110382080078125" lon="19.7834736295044422149658203125">
        <ele>1221.4000244140625</ele>
        <time>2026-06-18T11:52:41.000Z</time>
        <extensions>
          <ns3:TrackPointExtension>
            <ns3:atemp>22.0</ns3:atemp>
          </ns3:TrackPointExtension>
        </extensions>
      </trkpt>
      <trkpt lat="42.525677941739559173583984375" lon="19.78351159952580928802490234375">
        <ele>1220.5999755859375</ele>
        <time>2026-06-18T11:52:42.000Z</time>
        <extensions>
          <ns3:TrackPointExtension>
            <ns3:atemp>22.0</ns3:atemp>
          </ns3:TrackPointExtension>
        </extensions>
      </trkpt>
      <trkpt lat="42.5256878323853015899658203125" lon="19.7835383377969264984130859375">
        <ele>1219.4000244140625</ele>
        <time>2026-06-18T11:52:43.000Z</time>
        <extensions>
          <ns3:TrackPointExtension>
            <ns3:atemp>22.0</ns3:atemp>
          </ns3:TrackPointExtension>
        </extensions>
      </trkpt>
      <trkpt lat="42.52570501528680324554443359375" lon="19.7835738770663738250732421875">
        <ele>1218.199951171875</ele>
        <time>2026-06-18T11:52:44.000Z</time>
        <extensions>
          <ns3:TrackPointExtension>
            <ns3:atemp>22.0</ns3:atemp>
          </ns3:TrackPointExtension>
        </extensions>
      </trkpt>
      <trkpt lat="42.52571624703705310821533203125" lon="19.7836238332092761993408203125">
        <ele>1217.199951171875</ele>
        <time>2026-06-18T11:52:45.000Z</time>
        <extensions>
          <ns3:TrackPointExtension>
            <ns3:atemp>21.0</ns3:atemp>
          </ns3:TrackPointExtension>
        </extensions>
      </trkpt>
      <trkpt lat="42.52573602832853794097900390625" lon="19.7836791537702083587646484375">
        <ele>1216.199951171875</ele>
        <time>2026-06-18T11:52:46.000Z</time>
        <extensions>
          <ns3:TrackPointExtension>
            <ns3:atemp>21.0</ns3:atemp>
          </ns3:TrackPointExtension>
        </extensions>
      </trkpt>
      <trkpt lat="42.5257454998791217803955078125" lon="19.7837282717227935791015625">
        <ele>1215.199951171875</ele>
        <time>2026-06-18T11:52:47.000Z</time>
        <extensions>
          <ns3:TrackPointExtension>
            <ns3:atemp>21.0</ns3:atemp>
          </ns3:TrackPointExtension>
        </extensions>
      </trkpt>
      <trkpt lat="42.5257441587746143341064453125" lon="19.78377428837120532989501953125">
        <ele>1214.199951171875</ele>
        <time>2026-06-18T11:52:48.000Z</time>
        <extensions>
          <ns3:TrackPointExtension>
            <ns3:atemp>21.0</ns3:atemp>
          </ns3:TrackPointExtension>
        </extensions>
      </trkpt>
      <trkpt lat="42.52577408216893672943115234375" lon="19.78380530141294002532958984375">
        <ele>1213</ele>
        <time>2026-06-18T11:52:49.000Z</time>
        <extensions>
          <ns3:TrackPointExtension>
            <ns3:atemp>21.0</ns3:atemp>
          </ns3:TrackPointExtension>
        </extensions>
      </trkpt>
      <trkpt lat="42.52580693922936916351318359375" lon="19.78382684290409088134765625">
        <ele>1212.199951171875</ele>
        <time>2026-06-18T11:52:50.000Z</time>
        <extensions>
          <ns3:TrackPointExtension>
            <ns3:atemp>21.0</ns3:atemp>
          </ns3:TrackPointExtension>
        </extensions>
      </trkpt>
      <trkpt lat="42.5258356891572475433349609375" lon="19.783856011927127838134765625">
        <ele>1211.4000244140625</ele>
        <time>2026-06-18T11:52:51.000Z</time>
        <extensions>
          <ns3:TrackPointExtension>
            <ns3:atemp>21.0</ns3:atemp>
          </ns3:TrackPointExtension>
        </extensions>
      </trkpt>
      <trkpt lat="42.525862343609333038330078125" lon="19.783895909786224365234375">
        <ele>1210.5999755859375</ele>
        <time>2026-06-18T11:52:52.000Z</time>
        <extensions>
          <ns3:TrackPointExtension>
            <ns3:atemp>22.0</ns3:atemp>
          </ns3:TrackPointExtension>
        </extensions>
      </trkpt>
      <trkpt lat="42.52588992007076740264892578125" lon="19.783933795988559722900390625">
        <ele>1209.800048828125</ele>
        <time>2026-06-18T11:52:53.000Z</time>
        <extensions>
          <ns3:TrackPointExtension>
            <ns3:atemp>21.0</ns3:atemp>
          </ns3:TrackPointExtension>
        </extensions>
      </trkpt>
      <trkpt lat="42.52590618096292018890380859375" lon="19.7839664854109287261962890625">
        <ele>1209</ele>
        <time>2026-06-18T11:52:54.000Z</time>
        <extensions>
          <ns3:TrackPointExtension>
            <ns3:atemp>21.0</ns3:atemp>
          </ns3:TrackPointExtension>
        </extensions>
      </trkpt>
      <trkpt lat="42.52591900527477264404296875" lon="19.78399825282394886016845703125">
        <ele>1208.199951171875</ele>
        <time>2026-06-18T11:52:55.000Z</time>
        <extensions>
          <ns3:TrackPointExtension>
            <ns3:atemp>21.0</ns3:atemp>
          </ns3:TrackPointExtension>
        </extensions>
      </trkpt>
      <trkpt lat="42.5259317457675933837890625" lon="19.78402197360992431640625">
        <ele>1207.5999755859375</ele>
        <time>2026-06-18T11:52:56.000Z</time>
        <extensions>
          <ns3:TrackPointExtension>
            <ns3:atemp>21.0</ns3:atemp>
          </ns3:TrackPointExtension>
        </extensions>
      </trkpt>
      <trkpt lat="42.52593803219497203826904296875" lon="19.78403873741626739501953125">
        <ele>1206.800048828125</ele>
        <time>2026-06-18T11:52:57.000Z</time>
        <extensions>
          <ns3:TrackPointExtension>
            <ns3:atemp>21.0</ns3:atemp>
          </ns3:TrackPointExtension>
        </extensions>
      </trkpt>
      <trkpt lat="42.52594792284071445465087890625" lon="19.784056842327117919921875">
        <ele>1206.199951171875</ele>
        <time>2026-06-18T11:52:58.000Z</time>
        <extensions>
          <ns3:TrackPointExtension>
            <ns3:atemp>21.0</ns3:atemp>
          </ns3:TrackPointExtension>
        </extensions>
      </trkpt>
      <trkpt lat="42.525949180126190185546875" lon="19.784078299999237060546875">
        <ele>1205.5999755859375</ele>
        <time>2026-06-18T11:52:59.000Z</time>
        <extensions>
          <ns3:TrackPointExtension>
            <ns3:atemp>21.0</ns3:atemp>
          </ns3:TrackPointExtension>
        </extensions>
      </trkpt>
      <trkpt lat="42.52596066333353519439697265625" lon="19.78411115705966949462890625">
        <ele>1204.800048828125</ele>
        <time>2026-06-18T11:53:00.000Z</time>
        <extensions>
          <ns3:TrackPointExtension>
            <ns3:atemp>21.0</ns3:atemp>
          </ns3:TrackPointExtension>
        </extensions>
      </trkpt>
      <trkpt lat="42.525981366634368896484375" lon="19.7841438464820384979248046875">
        <ele>1204</ele>
        <time>2026-06-18T11:53:01.000Z</time>
        <extensions>
          <ns3:TrackPointExtension>
            <ns3:atemp>21.0</ns3:atemp>
          </ns3:TrackPointExtension>
        </extensions>
      </trkpt>
      <trkpt lat="42.5260063447058200836181640625" lon="19.78418114595115184783935546875">
        <ele>1203.4000244140625</ele>
        <time>2026-06-18T11:53:02.000Z</time>
        <extensions>
          <ns3:TrackPointExtension>
            <ns3:atemp>21.0</ns3:atemp>
          </ns3:TrackPointExtension>
        </extensions>
      </trkpt>
      <trkpt lat="42.52603777684271335601806640625" lon="19.78421433828771114349365234375">
        <ele>1202.800048828125</ele>
        <time>2026-06-18T11:53:03.000Z</time>
        <extensions>
          <ns3:TrackPointExtension>
            <ns3:atemp>21.0</ns3:atemp>
          </ns3:TrackPointExtension>
        </extensions>
      </trkpt>
      <trkpt lat="42.52606342546641826629638671875" lon="19.78425038047134876251220703125">
        <ele>1202</ele>
        <time>2026-06-18T11:53:04.000Z</time>
        <extensions>
          <ns3:TrackPointExtension>
            <ns3:atemp>21.0</ns3:atemp>
          </ns3:TrackPointExtension>
        </extensions>
      </trkpt>
      <trkpt lat="42.5260767526924610137939453125" lon="19.7842917032539844512939453125">
        <ele>1201.4000244140625</ele>
        <time>2026-06-18T11:53:05.000Z</time>
        <extensions>
          <ns3:TrackPointExtension>
            <ns3:atemp>21.0</ns3:atemp>
          </ns3:TrackPointExtension>
        </extensions>
      </trkpt>
      <trkpt lat="42.52608555369079113006591796875" lon="19.7843292541801929473876953125">
        <ele>1200.800048828125</ele>
        <time>2026-06-18T11:53:06.000Z</time>
        <extensions>
          <ns3:TrackPointExtension>
            <ns3:atemp>21.0</ns3:atemp>
          </ns3:TrackPointExtension>
        </extensions>
      </trkpt>
      <trkpt lat="42.52608538605272769927978515625" lon="19.78437024168670177459716796875">
        <ele>1199.800048828125</ele>
        <time>2026-06-18T11:53:07.000Z</time>
        <extensions>
          <ns3:TrackPointExtension>
            <ns3:atemp>21.0</ns3:atemp>
          </ns3:TrackPointExtension>
        </extensions>
      </trkpt>
      <trkpt lat="42.5260854698717594146728515625" lon="19.78441282175481319427490234375">
        <ele>1199.199951171875</ele>
        <time>2026-06-18T11:53:08.000Z</time>
        <extensions>
          <ns3:TrackPointExtension>
            <ns3:atemp>21.0</ns3:atemp>
          </ns3:TrackPointExtension>
        </extensions>
      </trkpt>
      <trkpt lat="42.52608974464237689971923828125" lon="19.784460850059986114501953125">
        <ele>1198.5999755859375</ele>
        <time>2026-06-18T11:53:09.000Z</time>
        <extensions>
          <ns3:TrackPointExtension>
            <ns3:atemp>21.0</ns3:atemp>
          </ns3:TrackPointExtension>
        </extensions>
      </trkpt>
      <trkpt lat="42.52608153037726879119873046875" lon="19.784514494240283966064453125">
        <ele>1197.800048828125</ele>
        <time>2026-06-18T11:53:10.000Z</time>
        <extensions>
          <ns3:TrackPointExtension>
            <ns3:atemp>21.0</ns3:atemp>
          </ns3:TrackPointExtension>
        </extensions>
      </trkpt>
      <trkpt lat="42.52607700414955615997314453125" lon="19.78455665521323680877685546875">
        <ele>1197</ele>
        <time>2026-06-18T11:53:11.000Z</time>
        <extensions>
          <ns3:TrackPointExtension>
            <ns3:atemp>21.0</ns3:atemp>
          </ns3:TrackPointExtension>
        </extensions>
      </trkpt>
      <trkpt lat="42.52607993781566619873046875" lon="19.78459722362458705902099609375">
        <ele>1196.4000244140625</ele>
        <time>2026-06-18T11:53:12.000Z</time>
        <extensions>
          <ns3:TrackPointExtension>
            <ns3:atemp>21.0</ns3:atemp>
          </ns3:TrackPointExtension>
        </extensions>
      </trkpt>
      <trkpt lat="42.52607884816825389862060546875" lon="19.78462614119052886962890625">
        <ele>1195.800048828125</ele>
        <time>2026-06-18T11:53:13.000Z</time>
        <extensions>
          <ns3:TrackPointExtension>
            <ns3:atemp>21.0</ns3:atemp>
          </ns3:TrackPointExtension>
        </extensions>
      </trkpt>
      <trkpt lat="42.52608169801533222198486328125" lon="19.78464550338685512542724609375">
        <ele>1195.199951171875</ele>
        <time>2026-06-18T11:53:14.000Z</time>
        <extensions>
          <ns3:TrackPointExtension>
            <ns3:atemp>21.0</ns3:atemp>
          </ns3:TrackPointExtension>
        </extensions>
      </trkpt>
      <trkpt lat="42.52608488313853740692138671875" lon="19.784660674631595611572265625">
        <ele>1194.5999755859375</ele>
        <time>2026-06-18T11:53:15.000Z</time>
        <extensions>
          <ns3:TrackPointExtension>
            <ns3:atemp>21.0</ns3:atemp>
          </ns3:TrackPointExtension>
        </extensions>
      </trkpt>
      <trkpt lat="42.52608572132885456085205078125" lon="19.7846725769340991973876953125">
        <ele>1194.199951171875</ele>
        <time>2026-06-18T11:53:16.000Z</time>
        <extensions>
          <ns3:TrackPointExtension>
            <ns3:atemp>21.0</ns3:atemp>
          </ns3:TrackPointExtension>
        </extensions>
      </trkpt>
      <trkpt lat="42.52608739770948886871337890625" lon="19.78467919863760471343994140625">
        <ele>1193.800048828125</ele>
        <time>2026-06-18T11:53:17.000Z</time>
        <extensions>
          <ns3:TrackPointExtension>
            <ns3:atemp>21.0</ns3:atemp>
          </ns3:TrackPointExtension>
        </extensions>
      </trkpt>
      <trkpt lat="42.52608471550047397613525390625" lon="19.78468892164528369903564453125">
        <ele>1193.4000244140625</ele>
        <time>2026-06-18T11:53:18.000Z</time>
        <extensions>
          <ns3:TrackPointExtension>
            <ns3:atemp>21.0</ns3:atemp>
          </ns3:TrackPointExtension>
        </extensions>
      </trkpt>
      <trkpt lat="42.52608823589980602264404296875" lon="19.7847144864499568939208984375">
        <ele>1193</ele>
        <time>2026-06-18T11:53:19.000Z</time>
        <extensions>
          <ns3:TrackPointExtension>
            <ns3:atemp>21.0</ns3:atemp>
          </ns3:TrackPointExtension>
        </extensions>
      </trkpt>
      <trkpt lat="42.52609393559396266937255859375" lon="19.784751869738101959228515625">
        <ele>1192.5999755859375</ele>
        <time>2026-06-18T11:53:20.000Z</time>
        <extensions>
          <ns3:TrackPointExtension>
            <ns3:atemp>21.0</ns3:atemp>
          </ns3:TrackPointExtension>
        </extensions>
      </trkpt>
      <trkpt lat="42.52609561197459697723388671875" lon="19.784792773425579071044921875">
        <ele>1192.199951171875</ele>
        <time>2026-06-18T11:53:21.000Z</time>
        <extensions>
          <ns3:TrackPointExtension>
            <ns3:atemp>21.0</ns3:atemp>
          </ns3:TrackPointExtension>
        </extensions>
      </trkpt>
      <trkpt lat="42.52609209157526493072509765625" lon="19.78484298102557659149169921875">
        <ele>1191.800048828125</ele>
        <time>2026-06-18T11:53:22.000Z</time>
        <extensions>
          <ns3:TrackPointExtension>
            <ns3:atemp>21.0</ns3:atemp>
          </ns3:TrackPointExtension>
        </extensions>
      </trkpt>
      <trkpt lat="42.52609494142234325408935546875" lon="19.784896373748779296875">
        <ele>1191.199951171875</ele>
        <time>2026-06-18T11:53:23.000Z</time>
        <extensions>
          <ns3:TrackPointExtension>
            <ns3:atemp>21.0</ns3:atemp>
          </ns3:TrackPointExtension>
        </extensions>
      </trkpt>
      <trkpt lat="42.52609896473586559295654296875" lon="19.7849464975297451019287109375">
        <ele>1190.800048828125</ele>
        <time>2026-06-18T11:53:24.000Z</time>
        <extensions>
          <ns3:TrackPointExtension>
            <ns3:atemp>21.0</ns3:atemp>
          </ns3:TrackPointExtension>
        </extensions>
      </trkpt>
      <trkpt lat="42.526092343032360076904296875" lon="19.78498932905495166778564453125">
        <ele>1190.199951171875</ele>
        <time>2026-06-18T11:53:25.000Z</time>
        <extensions>
          <ns3:TrackPointExtension>
            <ns3:atemp>21.0</ns3:atemp>
          </ns3:TrackPointExtension>
        </extensions>
      </trkpt>
      <trkpt lat="42.52610231749713420867919921875" lon="19.7850202582776546478271484375">
        <ele>1189.800048828125</ele>
        <time>2026-06-18T11:53:26.000Z</time>
        <extensions>
          <ns3:TrackPointExtension>
            <ns3:atemp>21.0</ns3:atemp>
          </ns3:TrackPointExtension>
        </extensions>
      </trkpt>
      <trkpt lat="42.5261025689542293548583984375" lon="19.78505806066095829010009765625">
        <ele>1189.4000244140625</ele>
        <time>2026-06-18T11:53:27.000Z</time>
        <extensions>
          <ns3:TrackPointExtension>
            <ns3:atemp>21.0</ns3:atemp>
          </ns3:TrackPointExtension>
        </extensions>
      </trkpt>
      <trkpt lat="42.52608723007142543792724609375" lon="19.78509527631103992462158203125">
        <ele>1189</ele>
        <time>2026-06-18T11:53:28.000Z</time>
        <extensions>
          <ns3:TrackPointExtension>
            <ns3:atemp>21.0</ns3:atemp>
          </ns3:TrackPointExtension>
        </extensions>
      </trkpt>
      <trkpt lat="42.52607532776892185211181640625" lon="19.78515244089066982269287109375">
        <ele>1188.199951171875</ele>
        <time>2026-06-18T11:53:29.000Z</time>
        <extensions>
          <ns3:TrackPointExtension>
            <ns3:atemp>21.0</ns3:atemp>
          </ns3:TrackPointExtension>
        </extensions>
      </trkpt>
      <trkpt lat="42.52605554647743701934814453125" lon="19.78520591743290424346923828125">
        <ele>1187.4000244140625</ele>
        <time>2026-06-18T11:53:30.000Z</time>
        <extensions>
          <ns3:TrackPointExtension>
            <ns3:atemp>21.0</ns3:atemp>
          </ns3:TrackPointExtension>
        </extensions>
      </trkpt>
      <trkpt lat="42.52603643573820590972900390625" lon="19.785253442823886871337890625">
        <ele>1186.5999755859375</ele>
        <time>2026-06-18T11:53:31.000Z</time>
        <extensions>
          <ns3:TrackPointExtension>
            <ns3:atemp>21.0</ns3:atemp>
          </ns3:TrackPointExtension>
        </extensions>
      </trkpt>
      <trkpt lat="42.52603090368211269378662109375" lon="19.78529761545360088348388671875">
        <ele>1185.800048828125</ele>
        <time>2026-06-18T11:53:32.000Z</time>
        <extensions>
          <ns3:TrackPointExtension>
            <ns3:atemp>21.0</ns3:atemp>
          </ns3:TrackPointExtension>
        </extensions>
      </trkpt>
      <trkpt lat="42.5260257907211780548095703125" lon="19.78533064015209674835205078125">
        <ele>1184.800048828125</ele>
        <time>2026-06-18T11:53:33.000Z</time>
        <extensions>
          <ns3:TrackPointExtension>
            <ns3:atemp>21.0</ns3:atemp>
          </ns3:TrackPointExtension>
        </extensions>
      </trkpt>
      <trkpt lat="42.52601313404738903045654296875" lon="19.78537858463823795318603515625">
        <ele>1184.5999755859375</ele>
        <time>2026-06-18T11:53:34.000Z</time>
        <extensions>
          <ns3:TrackPointExtension>
            <ns3:atemp>21.0</ns3:atemp>
          </ns3:TrackPointExtension>
        </extensions>
      </trkpt>
      <trkpt lat="42.52600575797259807586669921875" lon="19.7854155488312244415283203125">
        <ele>1183.800048828125</ele>
        <time>2026-06-18T11:53:35.000Z</time>
        <extensions>
          <ns3:TrackPointExtension>
            <ns3:atemp>21.0</ns3:atemp>
          </ns3:TrackPointExtension>
        </extensions>
      </trkpt>
      <trkpt lat="42.5260050036013126373291015625" lon="19.78543390519917011260986328125">
        <ele>1183.199951171875</ele>
        <time>2026-06-18T11:53:36.000Z</time>
        <extensions>
          <ns3:TrackPointExtension>
            <ns3:atemp>21.0</ns3:atemp>
          </ns3:TrackPointExtension>
        </extensions>
      </trkpt>
      <trkpt lat="42.52600324340164661407470703125" lon="19.78543172590434551239013671875">
        <ele>1182.800048828125</ele>
        <time>2026-06-18T11:53:37.000Z</time>
        <extensions>
          <ns3:TrackPointExtension>
            <ns3:atemp>21.0</ns3:atemp>
          </ns3:TrackPointExtension>
        </extensions>
      </trkpt>
      <trkpt lat="42.52600324340164661407470703125" lon="19.78543172590434551239013671875">
        <ele>1182.5999755859375</ele>
        <time>2026-06-18T11:53:38.000Z</time>
        <extensions>
          <ns3:TrackPointExtension>
            <ns3:atemp>21.0</ns3:atemp>
          </ns3:TrackPointExtension>
        </extensions>
      </trkpt>
      <trkpt lat="42.52600156702101230621337890625" lon="19.785436503589153289794921875">
        <ele>1182.5999755859375</ele>
        <time>2026-06-18T11:53:39.000Z</time>
        <extensions>
          <ns3:TrackPointExtension>
            <ns3:atemp>21.0</ns3:atemp>
          </ns3:TrackPointExtension>
        </extensions>
      </trkpt>
      <trkpt lat="42.5260053388774394989013671875" lon="19.78544346056878566741943359375">
        <ele>1182.4000244140625</ele>
        <time>2026-06-18T11:53:40.000Z</time>
        <extensions>
          <ns3:TrackPointExtension>
            <ns3:atemp>21.0</ns3:atemp>
          </ns3:TrackPointExtension>
        </extensions>
      </trkpt>
      <trkpt lat="42.5260056741535663604736328125" lon="19.78545217774808406829833984375">
        <ele>1182.4000244140625</ele>
        <time>2026-06-18T11:53:41.000Z</time>
        <extensions>
          <ns3:TrackPointExtension>
            <ns3:atemp>21.0</ns3:atemp>
          </ns3:TrackPointExtension>
        </extensions>
      </trkpt>
      <trkpt lat="42.5260006450116634368896484375" lon="19.785459972918033599853515625">
        <ele>1182.199951171875</ele>
        <time>2026-06-18T11:53:42.000Z</time>
        <extensions>
          <ns3:TrackPointExtension>
            <ns3:atemp>21.0</ns3:atemp>
          </ns3:TrackPointExtension>
        </extensions>
      </trkpt>
      <trkpt lat="42.52599804662168025970458984375" lon="19.785460643470287322998046875">
        <ele>1182.199951171875</ele>
        <time>2026-06-18T11:53:43.000Z</time>
        <extensions>
          <ns3:TrackPointExtension>
            <ns3:atemp>21.0</ns3:atemp>
          </ns3:TrackPointExtension>
        </extensions>
      </trkpt>
      <trkpt lat="42.52599821425974369049072265625" lon="19.78546257130801677703857421875">
        <ele>1182.199951171875</ele>
        <time>2026-06-18T11:53:44.000Z</time>
        <extensions>
          <ns3:TrackPointExtension>
            <ns3:atemp>21.0</ns3:atemp>
          </ns3:TrackPointExtension>
        </extensions>
      </trkpt>
      <trkpt lat="42.52599804662168025970458984375" lon="19.78546424768865108489990234375">
        <ele>1182.199951171875</ele>
        <time>2026-06-18T11:53:45.000Z</time>
        <extensions>
          <ns3:TrackPointExtension>
            <ns3:atemp>21.0</ns3:atemp>
          </ns3:TrackPointExtension>
        </extensions>
      </trkpt>
      <trkpt lat="42.5259979628026485443115234375" lon="19.78546433150768280029296875">
        <ele>1182.199951171875</ele>
        <time>2026-06-18T11:53:46.000Z</time>
        <extensions>
          <ns3:TrackPointExtension>
            <ns3:atemp>21.0</ns3:atemp>
          </ns3:TrackPointExtension>
        </extensions>
      </trkpt>
      <trkpt lat="42.5259979628026485443115234375" lon="19.78546433150768280029296875">
        <ele>1182</ele>
        <time>2026-06-18T11:53:47.000Z</time>
        <extensions>
          <ns3:TrackPointExtension>
            <ns3:atemp>21.0</ns3:atemp>
          </ns3:TrackPointExtension>
        </extensions>
      </trkpt>
      <trkpt lat="42.5259979628026485443115234375" lon="19.78546433150768280029296875">
        <ele>1182</ele>
        <time>2026-06-18T11:53:48.000Z</time>
        <extensions>
          <ns3:TrackPointExtension>
            <ns3:atemp>21.0</ns3:atemp>
          </ns3:TrackPointExtension>
        </extensions>
      </trkpt>
      <trkpt lat="42.5259979628026485443115234375" lon="19.78546433150768280029296875">
        <ele>1182</ele>
        <time>2026-06-18T11:53:49.000Z</time>
        <extensions>
          <ns3:TrackPointExtension>
            <ns3:atemp>21.0</ns3:atemp>
          </ns3:TrackPointExtension>
        </extensions>
      </trkpt>
      <trkpt lat="42.5259979628026485443115234375" lon="19.78546433150768280029296875">
        <ele>1182</ele>
        <time>2026-06-18T11:53:50.000Z</time>
        <extensions>
          <ns3:TrackPointExtension>
            <ns3:atemp>21.0</ns3:atemp>
          </ns3:TrackPointExtension>
        </extensions>
      </trkpt>
      <trkpt lat="42.5259979628026485443115234375" lon="19.78546433150768280029296875">
        <ele>1182</ele>
        <time>2026-06-18T11:53:51.000Z</time>
        <extensions>
          <ns3:TrackPointExtension>
            <ns3:atemp>21.0</ns3:atemp>
          </ns3:TrackPointExtension>
        </extensions>
      </trkpt>
      <trkpt lat="42.5259979628026485443115234375" lon="19.78546433150768280029296875">
        <ele>1182</ele>
        <time>2026-06-18T11:53:52.000Z</time>
        <extensions>
          <ns3:TrackPointExtension>
            <ns3:atemp>21.0</ns3:atemp>
          </ns3:TrackPointExtension>
        </extensions>
      </trkpt>
      <trkpt lat="42.5259979628026485443115234375" lon="19.78546433150768280029296875">
        <ele>1182</ele>
        <time>2026-06-18T11:53:53.000Z</time>
        <extensions>
          <ns3:TrackPointExtension>
            <ns3:atemp>21.0</ns3:atemp>
          </ns3:TrackPointExtension>
        </extensions>
      </trkpt>
      <trkpt lat="42.5259979628026485443115234375" lon="19.78546433150768280029296875">
        <ele>1181.800048828125</ele>
        <time>2026-06-18T11:53:54.000Z</time>
        <extensions>
          <ns3:TrackPointExtension>
            <ns3:atemp>21.0</ns3:atemp>
          </ns3:TrackPointExtension>
        </extensions>
      </trkpt>
      <trkpt lat="42.5259979628026485443115234375" lon="19.78546433150768280029296875">
        <ele>1181.800048828125</ele>
        <time>2026-06-18T11:53:55.000Z</time>
        <extensions>
          <ns3:TrackPointExtension>
            <ns3:atemp>21.0</ns3:atemp>
          </ns3:TrackPointExtension>
        </extensions>
      </trkpt>
      <trkpt lat="42.5259979628026485443115234375" lon="19.78546433150768280029296875">
        <ele>1181.800048828125</ele>
        <time>2026-06-18T11:53:56.000Z</time>
        <extensions>
          <ns3:TrackPointExtension>
            <ns3:atemp>21.0</ns3:atemp>
          </ns3:TrackPointExtension>
        </extensions>
      </trkpt>
      <trkpt lat="42.5259979628026485443115234375" lon="19.78546433150768280029296875">
        <ele>1181.800048828125</ele>
        <time>2026-06-18T11:53:57.000Z</time>
        <extensions>
          <ns3:TrackPointExtension>
            <ns3:atemp>21.0</ns3:atemp>
          </ns3:TrackPointExtension>
        </extensions>
      </trkpt>
      <trkpt lat="42.5259979628026485443115234375" lon="19.78546433150768280029296875">
        <ele>1181.800048828125</ele>
        <time>2026-06-18T11:53:58.000Z</time>
        <extensions>
          <ns3:TrackPointExtension>
            <ns3:atemp>21.0</ns3:atemp>
          </ns3:TrackPointExtension>
        </extensions>
      </trkpt>
      <trkpt lat="42.5259979628026485443115234375" lon="19.78546433150768280029296875">
        <ele>1181.5999755859375</ele>
        <time>2026-06-18T11:53:59.000Z</time>
        <extensions>
          <ns3:TrackPointExtension>
            <ns3:atemp>21.0</ns3:atemp>
          </ns3:TrackPointExtension>
        </extensions>
      </trkpt>
      <trkpt lat="42.5259979628026485443115234375" lon="19.78546433150768280029296875">
        <ele>1181.5999755859375</ele>
        <time>2026-06-18T11:54:00.000Z</time>
        <extensions>
          <ns3:TrackPointExtension>
            <ns3:atemp>21.0</ns3:atemp>
          </ns3:TrackPointExtension>
        </extensions>
      </trkpt>
      <trkpt lat="42.5259979628026485443115234375" lon="19.78546433150768280029296875">
        <ele>1181.5999755859375</ele>
        <time>2026-06-18T11:54:01.000Z</time>
        <extensions>
          <ns3:TrackPointExtension>
            <ns3:atemp>21.0</ns3:atemp>
          </ns3:TrackPointExtension>
        </extensions>
      </trkpt>
      <trkpt lat="42.5259979628026485443115234375" lon="19.78546433150768280029296875">
        <ele>1181.4000244140625</ele>
        <time>2026-06-18T11:54:02.000Z</time>
        <extensions>
          <ns3:TrackPointExtension>
            <ns3:atemp>21.0</ns3:atemp>
          </ns3:TrackPointExtension>
        </extensions>
      </trkpt>
      <trkpt lat="42.5259979628026485443115234375" lon="19.78546433150768280029296875">
        <ele>1181.4000244140625</ele>
        <time>2026-06-18T11:54:03.000Z</time>
        <extensions>
          <ns3:TrackPointExtension>
            <ns3:atemp>21.0</ns3:atemp>
          </ns3:TrackPointExtension>
        </extensions>
      </trkpt>
      <trkpt lat="42.5259979628026485443115234375" lon="19.78546433150768280029296875">
        <ele>1181.4000244140625</ele>
        <time>2026-06-18T11:54:04.000Z</time>
        <extensions>
          <ns3:TrackPointExtension>
            <ns3:atemp>21.0</ns3:atemp>
          </ns3:TrackPointExtension>
        </extensions>
      </trkpt>
      <trkpt lat="42.5259979628026485443115234375" lon="19.78546433150768280029296875">
        <ele>1181.4000244140625</ele>
        <time>2026-06-18T11:54:05.000Z</time>
        <extensions>
          <ns3:TrackPointExtension>
            <ns3:atemp>21.0</ns3:atemp>
          </ns3:TrackPointExtension>
        </extensions>
      </trkpt>
      <trkpt lat="42.5259979628026485443115234375" lon="19.78546433150768280029296875">
        <ele>1181.199951171875</ele>
        <time>2026-06-18T11:54:06.000Z</time>
        <extensions>
          <ns3:TrackPointExtension>
            <ns3:atemp>21.0</ns3:atemp>
          </ns3:TrackPointExtension>
        </extensions>
      </trkpt>
      <trkpt lat="42.5259979628026485443115234375" lon="19.78546433150768280029296875">
        <ele>1181.199951171875</ele>
        <time>2026-06-18T11:54:07.000Z</time>
        <extensions>
          <ns3:TrackPointExtension>
            <ns3:atemp>21.0</ns3:atemp>
          </ns3:TrackPointExtension>
        </extensions>
      </trkpt>
      <trkpt lat="42.5259979628026485443115234375" lon="19.78546433150768280029296875">
        <ele>1181.199951171875</ele>
        <time>2026-06-18T11:54:08.000Z</time>
        <extensions>
          <ns3:TrackPointExtension>
            <ns3:atemp>21.0</ns3:atemp>
          </ns3:TrackPointExtension>
        </extensions>
      </trkpt>
      <trkpt lat="42.5259979628026485443115234375" lon="19.78546433150768280029296875">
        <ele>1181.199951171875</ele>
        <time>2026-06-18T11:54:09.000Z</time>
        <extensions>
          <ns3:TrackPointExtension>
            <ns3:atemp>21.0</ns3:atemp>
          </ns3:TrackPointExtension>
        </extensions>
      </trkpt>
      <trkpt lat="42.5259979628026485443115234375" lon="19.78546433150768280029296875">
        <ele>1181.4000244140625</ele>
        <time>2026-06-18T11:54:10.000Z</time>
        <extensions>
          <ns3:TrackPointExtension>
            <ns3:atemp>21.0</ns3:atemp>
          </ns3:TrackPointExtension>
        </extensions>
      </trkpt>
      <trkpt lat="42.52599720843136310577392578125" lon="19.78546223603188991546630859375">
        <ele>1181.4000244140625</ele>
        <time>2026-06-18T11:54:11.000Z</time>
        <extensions>
          <ns3:TrackPointExtension>
            <ns3:atemp>21.0</ns3:atemp>
          </ns3:TrackPointExtension>
        </extensions>
      </trkpt>
      <trkpt lat="42.52599083818495273590087890625" lon="19.78545804508030414581298828125">
        <ele>1181.4000244140625</ele>
        <time>2026-06-18T11:54:12.000Z</time>
        <extensions>
          <ns3:TrackPointExtension>
            <ns3:atemp>21.0</ns3:atemp>
          </ns3:TrackPointExtension>
        </extensions>
      </trkpt>
      <trkpt lat="42.5259805284440517425537109375" lon="19.78545838035643100738525390625">
        <ele>1181.4000244140625</ele>
        <time>2026-06-18T11:54:13.000Z</time>
        <extensions>
          <ns3:TrackPointExtension>
            <ns3:atemp>21.0</ns3:atemp>
          </ns3:TrackPointExtension>
        </extensions>
      </trkpt>
      <trkpt lat="42.5259647704660892486572265625" lon="19.78546374477446079254150390625">
        <ele>1181.4000244140625</ele>
        <time>2026-06-18T11:54:14.000Z</time>
        <extensions>
          <ns3:TrackPointExtension>
            <ns3:atemp>21.0</ns3:atemp>
          </ns3:TrackPointExtension>
        </extensions>
      </trkpt>
      <trkpt lat="42.52595395781099796295166015625" lon="19.7854648344218730926513671875">
        <ele>1181.4000244140625</ele>
        <time>2026-06-18T11:54:15.000Z</time>
        <extensions>
          <ns3:TrackPointExtension>
            <ns3:atemp>21.0</ns3:atemp>
          </ns3:TrackPointExtension>
        </extensions>
      </trkpt>
      <trkpt lat="42.5259376130998134613037109375" lon="19.78547229431569576263427734375">
        <ele>1181.4000244140625</ele>
        <time>2026-06-18T11:54:16.000Z</time>
        <extensions>
          <ns3:TrackPointExtension>
            <ns3:atemp>21.0</ns3:atemp>
          </ns3:TrackPointExtension>
        </extensions>
      </trkpt>
      <trkpt lat="42.52592378295958042144775390625" lon="19.7854936681687831878662109375">
        <ele>1181.4000244140625</ele>
        <time>2026-06-18T11:54:17.000Z</time>
        <extensions>
          <ns3:TrackPointExtension>
            <ns3:atemp>21.0</ns3:atemp>
          </ns3:TrackPointExtension>
        </extensions>
      </trkpt>
      <trkpt lat="42.52592579461634159088134765625" lon="19.78551931679248809814453125">
        <ele>1181.199951171875</ele>
        <time>2026-06-18T11:54:18.000Z</time>
        <extensions>
          <ns3:TrackPointExtension>
            <ns3:atemp>21.0</ns3:atemp>
          </ns3:TrackPointExtension>
        </extensions>
      </trkpt>
      <trkpt lat="42.52592973411083221435546875" lon="19.78554035536944866180419921875">
        <ele>1180.800048828125</ele>
        <time>2026-06-18T11:54:19.000Z</time>
        <extensions>
          <ns3:TrackPointExtension>
            <ns3:atemp>21.0</ns3:atemp>
          </ns3:TrackPointExtension>
        </extensions>
      </trkpt>
      <trkpt lat="42.52593987621366977691650390625" lon="19.78554747998714447021484375">
        <ele>1180.5999755859375</ele>
        <time>2026-06-18T11:54:20.000Z</time>
        <extensions>
          <ns3:TrackPointExtension>
            <ns3:atemp>21.0</ns3:atemp>
          </ns3:TrackPointExtension>
        </extensions>
      </trkpt>
      <trkpt lat="42.5259419716894626617431640625" lon="19.7855442948639392852783203125">
        <ele>1180.4000244140625</ele>
        <time>2026-06-18T11:54:21.000Z</time>
        <extensions>
          <ns3:TrackPointExtension>
            <ns3:atemp>21.0</ns3:atemp>
          </ns3:TrackPointExtension>
        </extensions>
      </trkpt>
      <trkpt lat="42.5259419716894626617431640625" lon="19.78554454632103443145751953125">
        <ele>1180.4000244140625</ele>
        <time>2026-06-18T11:54:22.000Z</time>
        <extensions>
          <ns3:TrackPointExtension>
            <ns3:atemp>21.0</ns3:atemp>
          </ns3:TrackPointExtension>
        </extensions>
      </trkpt>
      <trkpt lat="42.5259419716894626617431640625" lon="19.78554454632103443145751953125">
        <ele>1180.4000244140625</ele>
        <time>2026-06-18T11:54:23.000Z</time>
        <extensions>
          <ns3:TrackPointExtension>
            <ns3:atemp>21.0</ns3:atemp>
          </ns3:TrackPointExtension>
        </extensions>
      </trkpt>
      <trkpt lat="42.5259419716894626617431640625" lon="19.78554454632103443145751953125">
        <ele>1180.4000244140625</ele>
        <time>2026-06-18T11:54:24.000Z</time>
        <extensions>
          <ns3:TrackPointExtension>
            <ns3:atemp>21.0</ns3:atemp>
          </ns3:TrackPointExtension>
        </extensions>
      </trkpt>
      <trkpt lat="42.5259419716894626617431640625" lon="19.78554454632103443145751953125">
        <ele>1180.5999755859375</ele>
        <time>2026-06-18T11:54:25.000Z</time>
        <extensions>
          <ns3:TrackPointExtension>
            <ns3:atemp>21.0</ns3:atemp>
          </ns3:TrackPointExtension>
        </extensions>
      </trkpt>
      <trkpt lat="42.5259419716894626617431640625" lon="19.78554454632103443145751953125">
        <ele>1180.4000244140625</ele>
        <time>2026-06-18T11:54:26.000Z</time>
        <extensions>
          <ns3:TrackPointExtension>
            <ns3:atemp>21.0</ns3:atemp>
          </ns3:TrackPointExtension>
        </extensions>
      </trkpt>
      <trkpt lat="42.5259419716894626617431640625" lon="19.78554454632103443145751953125">
        <ele>1180.4000244140625</ele>
        <time>2026-06-18T11:54:27.000Z</time>
        <extensions>
          <ns3:TrackPointExtension>
            <ns3:atemp>21.0</ns3:atemp>
          </ns3:TrackPointExtension>
        </extensions>
      </trkpt>
      <trkpt lat="42.5259419716894626617431640625" lon="19.78554454632103443145751953125">
        <ele>1180.199951171875</ele>
        <time>2026-06-18T11:54:28.000Z</time>
        <extensions>
          <ns3:TrackPointExtension>
            <ns3:atemp>21.0</ns3:atemp>
          </ns3:TrackPointExtension>
        </extensions>
      </trkpt>
      <trkpt lat="42.5259419716894626617431640625" lon="19.78554454632103443145751953125">
        <ele>1180</ele>
        <time>2026-06-18T11:54:29.000Z</time>
        <extensions>
          <ns3:TrackPointExtension>
            <ns3:atemp>21.0</ns3:atemp>
          </ns3:TrackPointExtension>
        </extensions>
      </trkpt>
      <trkpt lat="42.5259419716894626617431640625" lon="19.78554454632103443145751953125">
        <ele>1179.800048828125</ele>
        <time>2026-06-18T11:54:30.000Z</time>
        <extensions>
          <ns3:TrackPointExtension>
            <ns3:atemp>21.0</ns3:atemp>
          </ns3:TrackPointExtension>
        </extensions>
      </trkpt>
      <trkpt lat="42.5259419716894626617431640625" lon="19.78554454632103443145751953125">
        <ele>1179.5999755859375</ele>
        <time>2026-06-18T11:54:31.000Z</time>
        <extensions>
          <ns3:TrackPointExtension>
            <ns3:atemp>21.0</ns3:atemp>
          </ns3:TrackPointExtension>
        </extensions>
      </trkpt>
      <trkpt lat="42.5259419716894626617431640625" lon="19.78554454632103443145751953125">
        <ele>1179.5999755859375</ele>
        <time>2026-06-18T11:54:32.000Z</time>
        <extensions>
          <ns3:TrackPointExtension>
            <ns3:atemp>21.0</ns3:atemp>
          </ns3:TrackPointExtension>
        </extensions>
      </trkpt>
      <trkpt lat="42.5259419716894626617431640625" lon="19.78554454632103443145751953125">
        <ele>1179.4000244140625</ele>
        <time>2026-06-18T11:54:33.000Z</time>
        <extensions>
          <ns3:TrackPointExtension>
            <ns3:atemp>21.0</ns3:atemp>
          </ns3:TrackPointExtension>
        </extensions>
      </trkpt>
      <trkpt lat="42.5259419716894626617431640625" lon="19.78554454632103443145751953125">
        <ele>1179.4000244140625</ele>
        <time>2026-06-18T11:54:34.000Z</time>
        <extensions>
          <ns3:TrackPointExtension>
            <ns3:atemp>21.0</ns3:atemp>
          </ns3:TrackPointExtension>
        </extensions>
      </trkpt>
      <trkpt lat="42.5259419716894626617431640625" lon="19.78554454632103443145751953125">
        <ele>1179.4000244140625</ele>
        <time>2026-06-18T11:54:35.000Z</time>
        <extensions>
          <ns3:TrackPointExtension>
            <ns3:atemp>21.0</ns3:atemp>
          </ns3:TrackPointExtension>
        </extensions>
      </trkpt>
      <trkpt lat="42.52593920566141605377197265625" lon="19.78554756380617618560791015625">
        <ele>1179.4000244140625</ele>
        <time>2026-06-18T11:54:36.000Z</time>
        <extensions>
          <ns3:TrackPointExtension>
            <ns3:atemp>21.0</ns3:atemp>
          </ns3:TrackPointExtension>
        </extensions>
      </trkpt>
      <trkpt lat="42.5259402953088283538818359375" lon="19.7855553589761257171630859375">
        <ele>1179.5999755859375</ele>
        <time>2026-06-18T11:54:37.000Z</time>
        <extensions>
          <ns3:TrackPointExtension>
            <ns3:atemp>21.0</ns3:atemp>
          </ns3:TrackPointExtension>
        </extensions>
      </trkpt>
      <trkpt lat="42.5259419716894626617431640625" lon="19.78554454632103443145751953125">
        <ele>1179.5999755859375</ele>
        <time>2026-06-18T11:54:38.000Z</time>
        <extensions>
          <ns3:TrackPointExtension>
            <ns3:atemp>21.0</ns3:atemp>
          </ns3:TrackPointExtension>
        </extensions>
      </trkpt>
      <trkpt lat="42.5259419716894626617431640625" lon="19.78554454632103443145751953125">
        <ele>1179.800048828125</ele>
        <time>2026-06-18T11:54:39.000Z</time>
        <extensions>
          <ns3:TrackPointExtension>
            <ns3:atemp>21.0</ns3:atemp>
          </ns3:TrackPointExtension>
        </extensions>
      </trkpt>
      <trkpt lat="42.5259419716894626617431640625" lon="19.78554454632103443145751953125">
        <ele>1180</ele>
        <time>2026-06-18T11:54:40.000Z</time>
        <extensions>
          <ns3:TrackPointExtension>
            <ns3:atemp>21.0</ns3:atemp>
          </ns3:TrackPointExtension>
        </extensions>
      </trkpt>
      <trkpt lat="42.5259419716894626617431640625" lon="19.78554454632103443145751953125">
        <ele>1180</ele>
        <time>2026-06-18T11:54:41.000Z</time>
        <extensions>
          <ns3:TrackPointExtension>
            <ns3:atemp>21.0</ns3:atemp>
          </ns3:TrackPointExtension>
        </extensions>
      </trkpt>
      <trkpt lat="42.5259419716894626617431640625" lon="19.78554454632103443145751953125">
        <ele>1180</ele>
        <time>2026-06-18T11:54:42.000Z</time>
        <extensions>
          <ns3:TrackPointExtension>
            <ns3:atemp>21.0</ns3:atemp>
          </ns3:TrackPointExtension>
        </extensions>
      </trkpt>
      <trkpt lat="42.5259419716894626617431640625" lon="19.78554454632103443145751953125">
        <ele>1180</ele>
        <time>2026-06-18T11:54:43.000Z</time>
        <extensions>
          <ns3:TrackPointExtension>
            <ns3:atemp>21.0</ns3:atemp>
          </ns3:TrackPointExtension>
        </extensions>
      </trkpt>
      <trkpt lat="42.52594104968011379241943359375" lon="19.78556533344089984893798828125">
        <ele>1180</ele>
        <time>2026-06-18T11:54:44.000Z</time>
        <extensions>
          <ns3:TrackPointExtension>
            <ns3:atemp>21.0</ns3:atemp>
          </ns3:TrackPointExtension>
        </extensions>
      </trkpt>
      <trkpt lat="42.52594121731817722320556640625" lon="19.78556566871702671051025390625">
        <ele>1180</ele>
        <time>2026-06-18T11:54:45.000Z</time>
        <extensions>
          <ns3:TrackPointExtension>
            <ns3:atemp>21.0</ns3:atemp>
          </ns3:TrackPointExtension>
        </extensions>
      </trkpt>
      <trkpt lat="42.52594121731817722320556640625" lon="19.78556566871702671051025390625">
        <ele>1180</ele>
        <time>2026-06-18T11:54:46.000Z</time>
        <extensions>
          <ns3:TrackPointExtension>
            <ns3:atemp>21.0</ns3:atemp>
          </ns3:TrackPointExtension>
        </extensions>
      </trkpt>
      <trkpt lat="42.52594121731817722320556640625" lon="19.78556566871702671051025390625">
        <ele>1180.199951171875</ele>
        <time>2026-06-18T11:54:47.000Z</time>
        <extensions>
          <ns3:TrackPointExtension>
            <ns3:atemp>21.0</ns3:atemp>
          </ns3:TrackPointExtension>
        </extensions>
      </trkpt>
      <trkpt lat="42.52594121731817722320556640625" lon="19.78556566871702671051025390625">
        <ele>1180.199951171875</ele>
        <time>2026-06-18T11:54:48.000Z</time>
        <extensions>
          <ns3:TrackPointExtension>
            <ns3:atemp>21.0</ns3:atemp>
          </ns3:TrackPointExtension>
        </extensions>
      </trkpt>
      <trkpt lat="42.52594121731817722320556640625" lon="19.78556566871702671051025390625">
        <ele>1180.199951171875</ele>
        <time>2026-06-18T11:54:49.000Z</time>
        <extensions>
          <ns3:TrackPointExtension>
            <ns3:atemp>21.0</ns3:atemp>
          </ns3:TrackPointExtension>
        </extensions>
      </trkpt>
      <trkpt lat="42.52594121731817722320556640625" lon="19.78556566871702671051025390625">
        <ele>1180.199951171875</ele>
        <time>2026-06-18T11:54:50.000Z</time>
        <extensions>
          <ns3:TrackPointExtension>
            <ns3:atemp>21.0</ns3:atemp>
          </ns3:TrackPointExtension>
        </extensions>
      </trkpt>
      <trkpt lat="42.52594121731817722320556640625" lon="19.78556566871702671051025390625">
        <ele>1180.199951171875</ele>
        <time>2026-06-18T11:54:51.000Z</time>
        <extensions>
          <ns3:TrackPointExtension>
            <ns3:atemp>21.0</ns3:atemp>
          </ns3:TrackPointExtension>
        </extensions>
      </trkpt>
      <trkpt lat="42.52594121731817722320556640625" lon="19.78556566871702671051025390625">
        <ele>1180.199951171875</ele>
        <time>2026-06-18T11:54:52.000Z</time>
        <extensions>
          <ns3:TrackPointExtension>
            <ns3:atemp>21.0</ns3:atemp>
          </ns3:TrackPointExtension>
        </extensions>
      </trkpt>
      <trkpt lat="42.52594121731817722320556640625" lon="19.78556566871702671051025390625">
        <ele>1180.4000244140625</ele>
        <time>2026-06-18T11:54:53.000Z</time>
        <extensions>
          <ns3:TrackPointExtension>
            <ns3:atemp>21.0</ns3:atemp>
          </ns3:TrackPointExtension>
        </extensions>
      </trkpt>
      <trkpt lat="42.52594121731817722320556640625" lon="19.78556566871702671051025390625">
        <ele>1180.4000244140625</ele>
        <time>2026-06-18T11:54:54.000Z</time>
        <extensions>
          <ns3:TrackPointExtension>
            <ns3:atemp>21.0</ns3:atemp>
          </ns3:TrackPointExtension>
        </extensions>
      </trkpt>
      <trkpt lat="42.52594121731817722320556640625" lon="19.78556566871702671051025390625">
        <ele>1180.4000244140625</ele>
        <time>2026-06-18T11:54:55.000Z</time>
        <extensions>
          <ns3:TrackPointExtension>
            <ns3:atemp>21.0</ns3:atemp>
          </ns3:TrackPointExtension>
        </extensions>
      </trkpt>
      <trkpt lat="42.52594121731817722320556640625" lon="19.78556566871702671051025390625">
        <ele>1180.4000244140625</ele>
        <time>2026-06-18T11:54:56.000Z</time>
        <extensions>
          <ns3:TrackPointExtension>
            <ns3:atemp>21.0</ns3:atemp>
          </ns3:TrackPointExtension>
        </extensions>
      </trkpt>
      <trkpt lat="42.52594046294689178466796875" lon="19.7855660878121852874755859375">
        <ele>1180.4000244140625</ele>
        <time>2026-06-18T11:54:57.000Z</time>
        <extensions>
          <ns3:TrackPointExtension>
            <ns3:atemp>21.0</ns3:atemp>
          </ns3:TrackPointExtension>
        </extensions>
      </trkpt>
      <trkpt lat="42.5259413011372089385986328125" lon="19.785585701465606689453125">
        <ele>1180.4000244140625</ele>
        <time>2026-06-18T11:54:58.000Z</time>
        <extensions>
          <ns3:TrackPointExtension>
            <ns3:atemp>21.0</ns3:atemp>
          </ns3:TrackPointExtension>
        </extensions>
      </trkpt>
      <trkpt lat="42.52593912184238433837890625" lon="19.7856076620519161224365234375">
        <ele>1180.199951171875</ele>
        <time>2026-06-18T11:54:59.000Z</time>
        <extensions>
          <ns3:TrackPointExtension>
            <ns3:atemp>21.0</ns3:atemp>
          </ns3:TrackPointExtension>
        </extensions>
      </trkpt>
      <trkpt lat="42.52592981792986392974853515625" lon="19.78563004173338413238525390625">
        <ele>1180</ele>
        <time>2026-06-18T11:55:00.000Z</time>
        <extensions>
          <ns3:TrackPointExtension>
            <ns3:atemp>21.0</ns3:atemp>
          </ns3:TrackPointExtension>
        </extensions>
      </trkpt>
      <trkpt lat="42.525919340550899505615234375" lon="19.785654433071613311767578125">
        <ele>1180</ele>
        <time>2026-06-18T11:55:01.000Z</time>
        <extensions>
          <ns3:TrackPointExtension>
            <ns3:atemp>21.0</ns3:atemp>
          </ns3:TrackPointExtension>
        </extensions>
      </trkpt>
      <trkpt lat="42.5259030796587467193603515625" lon="19.78568167425692081451416015625">
        <ele>1179.5999755859375</ele>
        <time>2026-06-18T11:55:02.000Z</time>
        <extensions>
          <ns3:TrackPointExtension>
            <ns3:atemp>21.0</ns3:atemp>
          </ns3:TrackPointExtension>
        </extensions>
      </trkpt>
      <trkpt lat="42.52588304691016674041748046875" lon="19.7857156209647655487060546875">
        <ele>1179.199951171875</ele>
        <time>2026-06-18T11:55:03.000Z</time>
        <extensions>
          <ns3:TrackPointExtension>
            <ns3:atemp>21.0</ns3:atemp>
          </ns3:TrackPointExtension>
        </extensions>
      </trkpt>
      <trkpt lat="42.5258673727512359619140625" lon="19.7857521660625934600830078125">
        <ele>1178.5999755859375</ele>
        <time>2026-06-18T11:55:04.000Z</time>
        <extensions>
          <ns3:TrackPointExtension>
            <ns3:atemp>21.0</ns3:atemp>
          </ns3:TrackPointExtension>
        </extensions>
      </trkpt>
      <trkpt lat="42.52584884874522686004638671875" lon="19.78577907197177410125732421875">
        <ele>1178</ele>
        <time>2026-06-18T11:55:05.000Z</time>
        <extensions>
          <ns3:TrackPointExtension>
            <ns3:atemp>21.0</ns3:atemp>
          </ns3:TrackPointExtension>
        </extensions>
      </trkpt>
      <trkpt lat="42.5258333422243595123291015625" lon="19.78579617105424404144287109375">
        <ele>1177.800048828125</ele>
        <time>2026-06-18T11:55:06.000Z</time>
        <extensions>
          <ns3:TrackPointExtension>
            <ns3:atemp>21.0</ns3:atemp>
          </ns3:TrackPointExtension>
        </extensions>
      </trkpt>
      <trkpt lat="42.52581976354122161865234375" lon="19.78581109084188938140869140625">
        <ele>1177.4000244140625</ele>
        <time>2026-06-18T11:55:07.000Z</time>
        <extensions>
          <ns3:TrackPointExtension>
            <ns3:atemp>21.0</ns3:atemp>
          </ns3:TrackPointExtension>
        </extensions>
      </trkpt>
      <trkpt lat="42.52581548877060413360595703125" lon="19.7858297824859619140625">
        <ele>1177.199951171875</ele>
        <time>2026-06-18T11:55:08.000Z</time>
        <extensions>
          <ns3:TrackPointExtension>
            <ns3:atemp>21.0</ns3:atemp>
          </ns3:TrackPointExtension>
        </extensions>
      </trkpt>
      <trkpt lat="42.525817416608333587646484375" lon="19.78583757765591144561767578125">
        <ele>1177</ele>
        <time>2026-06-18T11:55:09.000Z</time>
        <extensions>
          <ns3:TrackPointExtension>
            <ns3:atemp>21.0</ns3:atemp>
          </ns3:TrackPointExtension>
        </extensions>
      </trkpt>
      <trkpt lat="42.5258159078657627105712890625" lon="19.78584009222686290740966796875">
        <ele>1176.800048828125</ele>
        <time>2026-06-18T11:55:10.000Z</time>
        <extensions>
          <ns3:TrackPointExtension>
            <ns3:atemp>21.0</ns3:atemp>
          </ns3:TrackPointExtension>
        </extensions>
      </trkpt>
      <trkpt lat="42.5258159078657627105712890625" lon="19.785840176045894622802734375">
        <ele>1176.5999755859375</ele>
        <time>2026-06-18T11:55:11.000Z</time>
        <extensions>
          <ns3:TrackPointExtension>
            <ns3:atemp>21.0</ns3:atemp>
          </ns3:TrackPointExtension>
        </extensions>
      </trkpt>
      <trkpt lat="42.5258159078657627105712890625" lon="19.785840176045894622802734375">
        <ele>1176.5999755859375</ele>
        <time>2026-06-18T11:55:12.000Z</time>
        <extensions>
          <ns3:TrackPointExtension>
            <ns3:atemp>21.0</ns3:atemp>
          </ns3:TrackPointExtension>
        </extensions>
      </trkpt>
      <trkpt lat="42.5258159078657627105712890625" lon="19.785840176045894622802734375">
        <ele>1176.800048828125</ele>
        <time>2026-06-18T11:55:13.000Z</time>
        <extensions>
          <ns3:TrackPointExtension>
            <ns3:atemp>21.0</ns3:atemp>
          </ns3:TrackPointExtension>
        </extensions>
      </trkpt>
      <trkpt lat="42.5258159078657627105712890625" lon="19.785840176045894622802734375">
        <ele>1176.800048828125</ele>
        <time>2026-06-18T11:55:14.000Z</time>
        <extensions>
          <ns3:TrackPointExtension>
            <ns3:atemp>21.0</ns3:atemp>
          </ns3:TrackPointExtension>
        </extensions>
      </trkpt>
      <trkpt lat="42.5258159078657627105712890625" lon="19.785840176045894622802734375">
        <ele>1176.800048828125</ele>
        <time>2026-06-18T11:55:15.000Z</time>
        <extensions>
          <ns3:TrackPointExtension>
            <ns3:atemp>21.0</ns3:atemp>
          </ns3:TrackPointExtension>
        </extensions>
      </trkpt>
      <trkpt lat="42.5258159078657627105712890625" lon="19.785840176045894622802734375">
        <ele>1176.800048828125</ele>
        <time>2026-06-18T11:55:16.000Z</time>
        <extensions>
          <ns3:TrackPointExtension>
            <ns3:atemp>21.0</ns3:atemp>
          </ns3:TrackPointExtension>
        </extensions>
      </trkpt>
      <trkpt lat="42.5258159078657627105712890625" lon="19.785840176045894622802734375">
        <ele>1176.5999755859375</ele>
        <time>2026-06-18T11:55:17.000Z</time>
        <extensions>
          <ns3:TrackPointExtension>
            <ns3:atemp>21.0</ns3:atemp>
          </ns3:TrackPointExtension>
        </extensions>
      </trkpt>
      <trkpt lat="42.5258159078657627105712890625" lon="19.785840176045894622802734375">
        <ele>1176.4000244140625</ele>
        <time>2026-06-18T11:55:18.000Z</time>
        <extensions>
          <ns3:TrackPointExtension>
            <ns3:atemp>21.0</ns3:atemp>
          </ns3:TrackPointExtension>
        </extensions>
      </trkpt>
      <trkpt lat="42.5258159078657627105712890625" lon="19.785840176045894622802734375">
        <ele>1176.4000244140625</ele>
        <time>2026-06-18T11:55:19.000Z</time>
        <extensions>
          <ns3:TrackPointExtension>
            <ns3:atemp>21.0</ns3:atemp>
          </ns3:TrackPointExtension>
        </extensions>
      </trkpt>
      <trkpt lat="42.5258159078657627105712890625" lon="19.785840176045894622802734375">
        <ele>1176.4000244140625</ele>
        <time>2026-06-18T11:55:20.000Z</time>
        <extensions>
          <ns3:TrackPointExtension>
            <ns3:atemp>21.0</ns3:atemp>
          </ns3:TrackPointExtension>
        </extensions>
      </trkpt>
      <trkpt lat="42.5258159078657627105712890625" lon="19.785840176045894622802734375">
        <ele>1176.199951171875</ele>
        <time>2026-06-18T11:55:21.000Z</time>
        <extensions>
          <ns3:TrackPointExtension>
            <ns3:atemp>21.0</ns3:atemp>
          </ns3:TrackPointExtension>
        </extensions>
      </trkpt>
      <trkpt lat="42.5258159078657627105712890625" lon="19.785840176045894622802734375">
        <ele>1176.199951171875</ele>
        <time>2026-06-18T11:55:22.000Z</time>
        <extensions>
          <ns3:TrackPointExtension>
            <ns3:atemp>21.0</ns3:atemp>
          </ns3:TrackPointExtension>
        </extensions>
      </trkpt>
      <trkpt lat="42.5258159078657627105712890625" lon="19.785840176045894622802734375">
        <ele>1176.199951171875</ele>
        <time>2026-06-18T11:55:23.000Z</time>
        <extensions>
          <ns3:TrackPointExtension>
            <ns3:atemp>21.0</ns3:atemp>
          </ns3:TrackPointExtension>
        </extensions>
      </trkpt>
      <trkpt lat="42.5258159078657627105712890625" lon="19.785840176045894622802734375">
        <ele>1176.199951171875</ele>
        <time>2026-06-18T11:55:24.000Z</time>
        <extensions>
          <ns3:TrackPointExtension>
            <ns3:atemp>21.0</ns3:atemp>
          </ns3:TrackPointExtension>
        </extensions>
      </trkpt>
      <trkpt lat="42.5258159078657627105712890625" lon="19.785840176045894622802734375">
        <ele>1176.199951171875</ele>
        <time>2026-06-18T11:55:25.000Z</time>
        <extensions>
          <ns3:TrackPointExtension>
            <ns3:atemp>21.0</ns3:atemp>
          </ns3:TrackPointExtension>
        </extensions>
      </trkpt>
      <trkpt lat="42.5258169136941432952880859375" lon="19.78584160096943378448486328125">
        <ele>1176.199951171875</ele>
        <time>2026-06-18T11:55:26.000Z</time>
        <extensions>
          <ns3:TrackPointExtension>
            <ns3:atemp>21.0</ns3:atemp>
          </ns3:TrackPointExtension>
        </extensions>
      </trkpt>
      <trkpt lat="42.52581465058028697967529296875" lon="19.78585249744355678558349609375">
        <ele>1176.199951171875</ele>
        <time>2026-06-18T11:55:27.000Z</time>
        <extensions>
          <ns3:TrackPointExtension>
            <ns3:atemp>21.0</ns3:atemp>
          </ns3:TrackPointExtension>
        </extensions>
      </trkpt>
      <trkpt lat="42.5258159078657627105712890625" lon="19.785840176045894622802734375">
        <ele>1176</ele>
        <time>2026-06-18T11:55:28.000Z</time>
        <extensions>
          <ns3:TrackPointExtension>
            <ns3:atemp>21.0</ns3:atemp>
          </ns3:TrackPointExtension>
        </extensions>
      </trkpt>
      <trkpt lat="42.52581113018095493316650390625" lon="19.78585325181484222412109375">
        <ele>1175.800048828125</ele>
        <time>2026-06-18T11:55:29.000Z</time>
        <extensions>
          <ns3:TrackPointExtension>
            <ns3:atemp>21.0</ns3:atemp>
          </ns3:TrackPointExtension>
        </extensions>
      </trkpt>
      <trkpt lat="42.5258095376193523406982421875" lon="19.785853922367095947265625">
        <ele>1175.5999755859375</ele>
        <time>2026-06-18T11:55:30.000Z</time>
        <extensions>
          <ns3:TrackPointExtension>
            <ns3:atemp>21.0</ns3:atemp>
          </ns3:TrackPointExtension>
        </extensions>
      </trkpt>
      <trkpt lat="42.52580744214355945587158203125" lon="19.785856939852237701416015625">
        <ele>1175.4000244140625</ele>
        <time>2026-06-18T11:55:31.000Z</time>
        <extensions>
          <ns3:TrackPointExtension>
            <ns3:atemp>21.0</ns3:atemp>
          </ns3:TrackPointExtension>
        </extensions>
      </trkpt>
      <trkpt lat="42.52580635249614715576171875" lon="19.78585987351834774017333984375">
        <ele>1175.4000244140625</ele>
        <time>2026-06-18T11:55:32.000Z</time>
        <extensions>
          <ns3:TrackPointExtension>
            <ns3:atemp>21.0</ns3:atemp>
          </ns3:TrackPointExtension>
        </extensions>
      </trkpt>
      <trkpt lat="42.525808028876781463623046875" lon="19.78580254130065441131591796875">
        <ele>1172.5999755859375</ele>
        <time>2026-06-18T12:55:35.000Z</time>
        <extensions>
          <ns3:TrackPointExtension>
            <ns3:atemp>32.0</ns3:atemp>
          </ns3:TrackPointExtension>
        </extensions>
      </trkpt>
      <trkpt lat="42.52581481821835041046142578125" lon="19.78580421768128871917724609375">
        <ele>1172.800048828125</ele>
        <time>2026-06-18T12:55:36.000Z</time>
        <extensions>
          <ns3:TrackPointExtension>
            <ns3:atemp>32.0</ns3:atemp>
          </ns3:TrackPointExtension>
        </extensions>
      </trkpt>
      <trkpt lat="42.525806687772274017333984375" lon="19.7858212329447269439697265625">
        <ele>1172.800048828125</ele>
        <time>2026-06-18T12:55:37.000Z</time>
        <extensions>
          <ns3:TrackPointExtension>
            <ns3:atemp>32.0</ns3:atemp>
          </ns3:TrackPointExtension>
        </extensions>
      </trkpt>
      <trkpt lat="42.52580123953521251678466796875" lon="19.78580790571868419647216796875">
        <ele>1172.800048828125</ele>
        <time>2026-06-18T12:55:38.000Z</time>
        <extensions>
          <ns3:TrackPointExtension>
            <ns3:atemp>32.0</ns3:atemp>
          </ns3:TrackPointExtension>
        </extensions>
      </trkpt>
      <trkpt lat="42.5257897563278675079345703125" lon="19.7858118452131748199462890625">
        <ele>1173</ele>
        <time>2026-06-18T12:55:39.000Z</time>
        <extensions>
          <ns3:TrackPointExtension>
            <ns3:atemp>32.0</ns3:atemp>
          </ns3:TrackPointExtension>
        </extensions>
      </trkpt>
      <trkpt lat="42.5257853977382183074951171875" lon="19.785814024507999420166015625">
        <ele>1173</ele>
        <time>2026-06-18T12:55:40.000Z</time>
        <extensions>
          <ns3:TrackPointExtension>
            <ns3:atemp>32.0</ns3:atemp>
          </ns3:TrackPointExtension>
        </extensions>
      </trkpt>
      <trkpt lat="42.52578481100499629974365234375" lon="19.785812683403491973876953125">
        <ele>1172.800048828125</ele>
        <time>2026-06-18T12:55:41.000Z</time>
        <extensions>
          <ns3:TrackPointExtension>
            <ns3:atemp>32.0</ns3:atemp>
          </ns3:TrackPointExtension>
        </extensions>
      </trkpt>
      <trkpt lat="42.5257853977382183074951171875" lon="19.7858115099370479583740234375">
        <ele>1172.800048828125</ele>
        <time>2026-06-18T12:55:42.000Z</time>
        <extensions>
          <ns3:TrackPointExtension>
            <ns3:atemp>32.0</ns3:atemp>
          </ns3:TrackPointExtension>
        </extensions>
      </trkpt>
      <trkpt lat="42.5257853977382183074951171875" lon="19.7858115099370479583740234375">
        <ele>1172.800048828125</ele>
        <time>2026-06-18T12:55:43.000Z</time>
        <extensions>
          <ns3:TrackPointExtension>
            <ns3:atemp>32.0</ns3:atemp>
          </ns3:TrackPointExtension>
        </extensions>
      </trkpt>
      <trkpt lat="42.5257853977382183074951171875" lon="19.7858115099370479583740234375">
        <ele>1172.800048828125</ele>
        <time>2026-06-18T12:55:44.000Z</time>
        <extensions>
          <ns3:TrackPointExtension>
            <ns3:atemp>32.0</ns3:atemp>
          </ns3:TrackPointExtension>
        </extensions>
      </trkpt>
      <trkpt lat="42.5257853977382183074951171875" lon="19.7858115099370479583740234375">
        <ele>1172.5999755859375</ele>
        <time>2026-06-18T12:55:45.000Z</time>
        <extensions>
          <ns3:TrackPointExtension>
            <ns3:atemp>32.0</ns3:atemp>
          </ns3:TrackPointExtension>
        </extensions>
      </trkpt>
      <trkpt lat="42.5257853977382183074951171875" lon="19.7858115099370479583740234375">
        <ele>1172.5999755859375</ele>
        <time>2026-06-18T12:55:46.000Z</time>
        <extensions>
          <ns3:TrackPointExtension>
            <ns3:atemp>32.0</ns3:atemp>
          </ns3:TrackPointExtension>
        </extensions>
      </trkpt>
      <trkpt lat="42.5257853977382183074951171875" lon="19.7858115099370479583740234375">
        <ele>1172.4000244140625</ele>
        <time>2026-06-18T12:55:47.000Z</time>
        <extensions>
          <ns3:TrackPointExtension>
            <ns3:atemp>32.0</ns3:atemp>
          </ns3:TrackPointExtension>
        </extensions>
      </trkpt>
      <trkpt lat="42.5257853977382183074951171875" lon="19.7858115099370479583740234375">
        <ele>1172.199951171875</ele>
        <time>2026-06-18T12:55:48.000Z</time>
        <extensions>
          <ns3:TrackPointExtension>
            <ns3:atemp>32.0</ns3:atemp>
          </ns3:TrackPointExtension>
        </extensions>
      </trkpt>
      <trkpt lat="42.5257853977382183074951171875" lon="19.7858115099370479583740234375">
        <ele>1172</ele>
        <time>2026-06-18T12:55:49.000Z</time>
        <extensions>
          <ns3:TrackPointExtension>
            <ns3:atemp>32.0</ns3:atemp>
          </ns3:TrackPointExtension>
        </extensions>
      </trkpt>
      <trkpt lat="42.5257853977382183074951171875" lon="19.7858115099370479583740234375">
        <ele>1172</ele>
        <time>2026-06-18T12:55:50.000Z</time>
        <extensions>
          <ns3:TrackPointExtension>
            <ns3:atemp>32.0</ns3:atemp>
          </ns3:TrackPointExtension>
        </extensions>
      </trkpt>
      <trkpt lat="42.5257853977382183074951171875" lon="19.7858115099370479583740234375">
        <ele>1172</ele>
        <time>2026-06-18T12:55:51.000Z</time>
        <extensions>
          <ns3:TrackPointExtension>
            <ns3:atemp>31.0</ns3:atemp>
          </ns3:TrackPointExtension>
        </extensions>
      </trkpt>
      <trkpt lat="42.5257853977382183074951171875" lon="19.7858115099370479583740234375">
        <ele>1172</ele>
        <time>2026-06-18T12:55:52.000Z</time>
        <extensions>
          <ns3:TrackPointExtension>
            <ns3:atemp>31.0</ns3:atemp>
          </ns3:TrackPointExtension>
        </extensions>
      </trkpt>
      <trkpt lat="42.5257853977382183074951171875" lon="19.7858115099370479583740234375">
        <ele>1171.800048828125</ele>
        <time>2026-06-18T12:55:53.000Z</time>
        <extensions>
          <ns3:TrackPointExtension>
            <ns3:atemp>32.0</ns3:atemp>
          </ns3:TrackPointExtension>
        </extensions>
      </trkpt>
      <trkpt lat="42.5257853977382183074951171875" lon="19.7858115099370479583740234375">
        <ele>1171.800048828125</ele>
        <time>2026-06-18T12:55:54.000Z</time>
        <extensions>
          <ns3:TrackPointExtension>
            <ns3:atemp>32.0</ns3:atemp>
          </ns3:TrackPointExtension>
        </extensions>
      </trkpt>
      <trkpt lat="42.5257853977382183074951171875" lon="19.7858115099370479583740234375">
        <ele>1171.5999755859375</ele>
        <time>2026-06-18T12:55:55.000Z</time>
        <extensions>
          <ns3:TrackPointExtension>
            <ns3:atemp>31.0</ns3:atemp>
          </ns3:TrackPointExtension>
        </extensions>
      </trkpt>
      <trkpt lat="42.5257853977382183074951171875" lon="19.7858115099370479583740234375">
        <ele>1171.4000244140625</ele>
        <time>2026-06-18T12:55:56.000Z</time>
        <extensions>
          <ns3:TrackPointExtension>
            <ns3:atemp>31.0</ns3:atemp>
          </ns3:TrackPointExtension>
        </extensions>
      </trkpt>
      <trkpt lat="42.5257853977382183074951171875" lon="19.7858115099370479583740234375">
        <ele>1171.4000244140625</ele>
        <time>2026-06-18T12:55:57.000Z</time>
        <extensions>
          <ns3:TrackPointExtension>
            <ns3:atemp>31.0</ns3:atemp>
          </ns3:TrackPointExtension>
        </extensions>
      </trkpt>
      <trkpt lat="42.5257853977382183074951171875" lon="19.7858115099370479583740234375">
        <ele>1171.199951171875</ele>
        <time>2026-06-18T12:55:58.000Z</time>
        <extensions>
          <ns3:TrackPointExtension>
            <ns3:atemp>31.0</ns3:atemp>
          </ns3:TrackPointExtension>
        </extensions>
      </trkpt>
      <trkpt lat="42.5257853977382183074951171875" lon="19.7858115099370479583740234375">
        <ele>1171.199951171875</ele>
        <time>2026-06-18T12:55:59.000Z</time>
        <extensions>
          <ns3:TrackPointExtension>
            <ns3:atemp>31.0</ns3:atemp>
          </ns3:TrackPointExtension>
        </extensions>
      </trkpt>
      <trkpt lat="42.5257853977382183074951171875" lon="19.7858115099370479583740234375">
        <ele>1171.199951171875</ele>
        <time>2026-06-18T12:56:00.000Z</time>
        <extensions>
          <ns3:TrackPointExtension>
            <ns3:atemp>31.0</ns3:atemp>
          </ns3:TrackPointExtension>
        </extensions>
      </trkpt>
      <trkpt lat="42.5257853977382183074951171875" lon="19.7858115099370479583740234375">
        <ele>1171.199951171875</ele>
        <time>2026-06-18T12:56:01.000Z</time>
        <extensions>
          <ns3:TrackPointExtension>
            <ns3:atemp>31.0</ns3:atemp>
          </ns3:TrackPointExtension>
        </extensions>
      </trkpt>
      <trkpt lat="42.5257853977382183074951171875" lon="19.7858115099370479583740234375">
        <ele>1171</ele>
        <time>2026-06-18T12:56:02.000Z</time>
        <extensions>
          <ns3:TrackPointExtension>
            <ns3:atemp>31.0</ns3:atemp>
          </ns3:TrackPointExtension>
        </extensions>
      </trkpt>
      <trkpt lat="42.5257853977382183074951171875" lon="19.7858115099370479583740234375">
        <ele>1171</ele>
        <time>2026-06-18T12:56:03.000Z</time>
        <extensions>
          <ns3:TrackPointExtension>
            <ns3:atemp>31.0</ns3:atemp>
          </ns3:TrackPointExtension>
        </extensions>
      </trkpt>
      <trkpt lat="42.5257853977382183074951171875" lon="19.7858115099370479583740234375">
        <ele>1170.800048828125</ele>
        <time>2026-06-18T12:56:04.000Z</time>
        <extensions>
          <ns3:TrackPointExtension>
            <ns3:atemp>31.0</ns3:atemp>
          </ns3:TrackPointExtension>
        </extensions>
      </trkpt>
      <trkpt lat="42.5257853977382183074951171875" lon="19.7858115099370479583740234375">
        <ele>1170.800048828125</ele>
        <time>2026-06-18T12:56:05.000Z</time>
        <extensions>
          <ns3:TrackPointExtension>
            <ns3:atemp>31.0</ns3:atemp>
          </ns3:TrackPointExtension>
        </extensions>
      </trkpt>
      <trkpt lat="42.5257853977382183074951171875" lon="19.7858115099370479583740234375">
        <ele>1170.5999755859375</ele>
        <time>2026-06-18T12:56:06.000Z</time>
        <extensions>
          <ns3:TrackPointExtension>
            <ns3:atemp>31.0</ns3:atemp>
          </ns3:TrackPointExtension>
        </extensions>
      </trkpt>
      <trkpt lat="42.5257853977382183074951171875" lon="19.7858115099370479583740234375">
        <ele>1170.5999755859375</ele>
        <time>2026-06-18T12:56:07.000Z</time>
        <extensions>
          <ns3:TrackPointExtension>
            <ns3:atemp>31.0</ns3:atemp>
          </ns3:TrackPointExtension>
        </extensions>
      </trkpt>
      <trkpt lat="42.5257853977382183074951171875" lon="19.7858115099370479583740234375">
        <ele>1170.5999755859375</ele>
        <time>2026-06-18T12:56:08.000Z</time>
        <extensions>
          <ns3:TrackPointExtension>
            <ns3:atemp>31.0</ns3:atemp>
          </ns3:TrackPointExtension>
        </extensions>
      </trkpt>
      <trkpt lat="42.5257853977382183074951171875" lon="19.7858115099370479583740234375">
        <ele>1170.4000244140625</ele>
        <time>2026-06-18T12:56:09.000Z</time>
        <extensions>
          <ns3:TrackPointExtension>
            <ns3:atemp>31.0</ns3:atemp>
          </ns3:TrackPointExtension>
        </extensions>
      </trkpt>
      <trkpt lat="42.5257853977382183074951171875" lon="19.7858115099370479583740234375">
        <ele>1170.4000244140625</ele>
        <time>2026-06-18T12:56:10.000Z</time>
        <extensions>
          <ns3:TrackPointExtension>
            <ns3:atemp>31.0</ns3:atemp>
          </ns3:TrackPointExtension>
        </extensions>
      </trkpt>
      <trkpt lat="42.5257853977382183074951171875" lon="19.7858115099370479583740234375">
        <ele>1170.4000244140625</ele>
        <time>2026-06-18T12:56:11.000Z</time>
        <extensions>
          <ns3:TrackPointExtension>
            <ns3:atemp>31.0</ns3:atemp>
          </ns3:TrackPointExtension>
        </extensions>
      </trkpt>
      <trkpt lat="42.5257853977382183074951171875" lon="19.7858115099370479583740234375">
        <ele>1170.4000244140625</ele>
        <time>2026-06-18T12:56:12.000Z</time>
        <extensions>
          <ns3:TrackPointExtension>
            <ns3:atemp>31.0</ns3:atemp>
          </ns3:TrackPointExtension>
        </extensions>
      </trkpt>
      <trkpt lat="42.5257853977382183074951171875" lon="19.7858115099370479583740234375">
        <ele>1170.199951171875</ele>
        <time>2026-06-18T12:56:13.000Z</time>
        <extensions>
          <ns3:TrackPointExtension>
            <ns3:atemp>31.0</ns3:atemp>
          </ns3:TrackPointExtension>
        </extensions>
      </trkpt>
      <trkpt lat="42.5257853977382183074951171875" lon="19.7858115099370479583740234375">
        <ele>1170.199951171875</ele>
        <time>2026-06-18T12:56:14.000Z</time>
        <extensions>
          <ns3:TrackPointExtension>
            <ns3:atemp>31.0</ns3:atemp>
          </ns3:TrackPointExtension>
        </extensions>
      </trkpt>
      <trkpt lat="42.5257853977382183074951171875" lon="19.7858115099370479583740234375">
        <ele>1170.199951171875</ele>
        <time>2026-06-18T12:56:15.000Z</time>
        <extensions>
          <ns3:TrackPointExtension>
            <ns3:atemp>31.0</ns3:atemp>
          </ns3:TrackPointExtension>
        </extensions>
      </trkpt>
      <trkpt lat="42.5257853977382183074951171875" lon="19.7858115099370479583740234375">
        <ele>1170.199951171875</ele>
        <time>2026-06-18T12:56:16.000Z</time>
        <extensions>
          <ns3:TrackPointExtension>
            <ns3:atemp>31.0</ns3:atemp>
          </ns3:TrackPointExtension>
        </extensions>
      </trkpt>
      <trkpt lat="42.5257853977382183074951171875" lon="19.7858115099370479583740234375">
        <ele>1170</ele>
        <time>2026-06-18T12:56:17.000Z</time>
        <extensions>
          <ns3:TrackPointExtension>
            <ns3:atemp>31.0</ns3:atemp>
          </ns3:TrackPointExtension>
        </extensions>
      </trkpt>
      <trkpt lat="42.5257853977382183074951171875" lon="19.7858115099370479583740234375">
        <ele>1170</ele>
        <time>2026-06-18T12:56:18.000Z</time>
        <extensions>
          <ns3:TrackPointExtension>
            <ns3:atemp>31.0</ns3:atemp>
          </ns3:TrackPointExtension>
        </extensions>
      </trkpt>
      <trkpt lat="42.5257853977382183074951171875" lon="19.7858115099370479583740234375">
        <ele>1170</ele>
        <time>2026-06-18T12:56:19.000Z</time>
        <extensions>
          <ns3:TrackPointExtension>
            <ns3:atemp>31.0</ns3:atemp>
          </ns3:TrackPointExtension>
        </extensions>
      </trkpt>
      <trkpt lat="42.5257853977382183074951171875" lon="19.7858115099370479583740234375">
        <ele>1169.800048828125</ele>
        <time>2026-06-18T12:56:20.000Z</time>
        <extensions>
          <ns3:TrackPointExtension>
            <ns3:atemp>31.0</ns3:atemp>
          </ns3:TrackPointExtension>
        </extensions>
      </trkpt>
      <trkpt lat="42.5257853977382183074951171875" lon="19.7858115099370479583740234375">
        <ele>1169.800048828125</ele>
        <time>2026-06-18T12:56:21.000Z</time>
        <extensions>
          <ns3:TrackPointExtension>
            <ns3:atemp>31.0</ns3:atemp>
          </ns3:TrackPointExtension>
        </extensions>
      </trkpt>
      <trkpt lat="42.5257853977382183074951171875" lon="19.7858115099370479583740234375">
        <ele>1169.800048828125</ele>
        <time>2026-06-18T12:56:22.000Z</time>
        <extensions>
          <ns3:TrackPointExtension>
            <ns3:atemp>31.0</ns3:atemp>
          </ns3:TrackPointExtension>
        </extensions>
      </trkpt>
      <trkpt lat="42.5257853977382183074951171875" lon="19.7858115099370479583740234375">
        <ele>1169.800048828125</ele>
        <time>2026-06-18T12:56:23.000Z</time>
        <extensions>
          <ns3:TrackPointExtension>
            <ns3:atemp>31.0</ns3:atemp>
          </ns3:TrackPointExtension>
        </extensions>
      </trkpt>
      <trkpt lat="42.5257853977382183074951171875" lon="19.7858115099370479583740234375">
        <ele>1169.800048828125</ele>
        <time>2026-06-18T12:56:24.000Z</time>
        <extensions>
          <ns3:TrackPointExtension>
            <ns3:atemp>31.0</ns3:atemp>
          </ns3:TrackPointExtension>
        </extensions>
      </trkpt>
      <trkpt lat="42.5257853977382183074951171875" lon="19.7858115099370479583740234375">
        <ele>1169.800048828125</ele>
        <time>2026-06-18T12:56:25.000Z</time>
        <extensions>
          <ns3:TrackPointExtension>
            <ns3:atemp>31.0</ns3:atemp>
          </ns3:TrackPointExtension>
        </extensions>
      </trkpt>
      <trkpt lat="42.5257853977382183074951171875" lon="19.7858115099370479583740234375">
        <ele>1169.800048828125</ele>
        <time>2026-06-18T12:56:26.000Z</time>
        <extensions>
          <ns3:TrackPointExtension>
            <ns3:atemp>31.0</ns3:atemp>
          </ns3:TrackPointExtension>
        </extensions>
      </trkpt>
      <trkpt lat="42.525781206786632537841796875" lon="19.78581964038312435150146484375">
        <ele>1169.800048828125</ele>
        <time>2026-06-18T12:56:27.000Z</time>
        <extensions>
          <ns3:TrackPointExtension>
            <ns3:atemp>31.0</ns3:atemp>
          </ns3:TrackPointExtension>
        </extensions>
      </trkpt>
      <trkpt lat="42.5257656164467334747314453125" lon="19.78584646247327327728271484375">
        <ele>1169.800048828125</ele>
        <time>2026-06-18T12:56:28.000Z</time>
        <extensions>
          <ns3:TrackPointExtension>
            <ns3:atemp>31.0</ns3:atemp>
          </ns3:TrackPointExtension>
        </extensions>
      </trkpt>
      <trkpt lat="42.5257558934390544891357421875" lon="19.785871021449565887451171875">
        <ele>1169.800048828125</ele>
        <time>2026-06-18T12:56:29.000Z</time>
        <extensions>
          <ns3:TrackPointExtension>
            <ns3:atemp>31.0</ns3:atemp>
          </ns3:TrackPointExtension>
        </extensions>
      </trkpt>
      <trkpt lat="42.52574357204139232635498046875" lon="19.785895831882953643798828125">
        <ele>1169.800048828125</ele>
        <time>2026-06-18T12:56:30.000Z</time>
        <extensions>
          <ns3:TrackPointExtension>
            <ns3:atemp>31.0</ns3:atemp>
          </ns3:TrackPointExtension>
        </extensions>
      </trkpt>
      <trkpt lat="42.52573049627244472503662109375" lon="19.7859234921634197235107421875">
        <ele>1169.800048828125</ele>
        <time>2026-06-18T12:56:31.000Z</time>
        <extensions>
          <ns3:TrackPointExtension>
            <ns3:atemp>31.0</ns3:atemp>
          </ns3:TrackPointExtension>
        </extensions>
      </trkpt>
      <trkpt lat="42.52572127617895603179931640625" lon="19.78595274500548839569091796875">
        <ele>1169.800048828125</ele>
        <time>2026-06-18T12:56:32.000Z</time>
        <extensions>
          <ns3:TrackPointExtension>
            <ns3:atemp>31.0</ns3:atemp>
          </ns3:TrackPointExtension>
        </extensions>
      </trkpt>
      <trkpt lat="42.52571557648479938507080078125" lon="19.7859868593513965606689453125">
        <ele>1169.800048828125</ele>
        <time>2026-06-18T12:56:33.000Z</time>
        <extensions>
          <ns3:TrackPointExtension>
            <ns3:atemp>31.0</ns3:atemp>
          </ns3:TrackPointExtension>
        </extensions>
      </trkpt>
      <trkpt lat="42.5257146544754505157470703125" lon="19.786020219326019287109375">
        <ele>1169.5999755859375</ele>
        <time>2026-06-18T12:56:34.000Z</time>
        <extensions>
          <ns3:TrackPointExtension>
            <ns3:atemp>31.0</ns3:atemp>
          </ns3:TrackPointExtension>
        </extensions>
      </trkpt>
      <trkpt lat="42.52571607939898967742919921875" lon="19.78605064563453197479248046875">
        <ele>1169.4000244140625</ele>
        <time>2026-06-18T12:56:35.000Z</time>
        <extensions>
          <ns3:TrackPointExtension>
            <ns3:atemp>31.0</ns3:atemp>
          </ns3:TrackPointExtension>
        </extensions>
      </trkpt>
      <trkpt lat="42.52571540884673595428466796875" lon="19.78607947938144207000732421875">
        <ele>1169.199951171875</ele>
        <time>2026-06-18T12:56:36.000Z</time>
        <extensions>
          <ns3:TrackPointExtension>
            <ns3:atemp>31.0</ns3:atemp>
          </ns3:TrackPointExtension>
        </extensions>
      </trkpt>
      <trkpt lat="42.52571155317127704620361328125" lon="19.786105044186115264892578125">
        <ele>1169</ele>
        <time>2026-06-18T12:56:37.000Z</time>
        <extensions>
          <ns3:TrackPointExtension>
            <ns3:atemp>31.0</ns3:atemp>
          </ns3:TrackPointExtension>
        </extensions>
      </trkpt>
      <trkpt lat="42.52570736221969127655029296875" lon="19.78613563813269138336181640625">
        <ele>1168.800048828125</ele>
        <time>2026-06-18T12:56:38.000Z</time>
        <extensions>
          <ns3:TrackPointExtension>
            <ns3:atemp>31.0</ns3:atemp>
          </ns3:TrackPointExtension>
        </extensions>
      </trkpt>
      <trkpt lat="42.525696046650409698486328125" lon="19.78616799227893352508544921875">
        <ele>1168.5999755859375</ele>
        <time>2026-06-18T12:56:39.000Z</time>
        <extensions>
          <ns3:TrackPointExtension>
            <ns3:atemp>31.0</ns3:atemp>
          </ns3:TrackPointExtension>
        </extensions>
      </trkpt>
      <trkpt lat="42.5256791152060031890869140625" lon="19.78620017878711223602294921875">
        <ele>1168.199951171875</ele>
        <time>2026-06-18T12:56:40.000Z</time>
        <extensions>
          <ns3:TrackPointExtension>
            <ns3:atemp>31.0</ns3:atemp>
          </ns3:TrackPointExtension>
        </extensions>
      </trkpt>
      <trkpt lat="42.52565883100032806396484375" lon="19.78623203001916408538818359375">
        <ele>1168</ele>
        <time>2026-06-18T12:56:41.000Z</time>
        <extensions>
          <ns3:TrackPointExtension>
            <ns3:atemp>31.0</ns3:atemp>
          </ns3:TrackPointExtension>
        </extensions>
      </trkpt>
      <trkpt lat="42.52563661895692348480224609375" lon="19.78627310134470462799072265625">
        <ele>1167.5999755859375</ele>
        <time>2026-06-18T12:56:42.000Z</time>
        <extensions>
          <ns3:TrackPointExtension>
            <ns3:atemp>31.0</ns3:atemp>
          </ns3:TrackPointExtension>
        </extensions>
      </trkpt>
      <trkpt lat="42.5256123952567577362060546875" lon="19.78631819598376750946044921875">
        <ele>1167.199951171875</ele>
        <time>2026-06-18T12:56:43.000Z</time>
        <extensions>
          <ns3:TrackPointExtension>
            <ns3:atemp>31.0</ns3:atemp>
          </ns3:TrackPointExtension>
        </extensions>
      </trkpt>
      <trkpt lat="42.5255852378904819488525390625" lon="19.78637033142149448394775390625">
        <ele>1167</ele>
        <time>2026-06-18T12:56:44.000Z</time>
        <extensions>
          <ns3:TrackPointExtension>
            <ns3:atemp>31.0</ns3:atemp>
          </ns3:TrackPointExtension>
        </extensions>
      </trkpt>
      <trkpt lat="42.52556319348514080047607421875" lon="19.78642548434436321258544921875">
        <ele>1166.5999755859375</ele>
        <time>2026-06-18T12:56:45.000Z</time>
        <extensions>
          <ns3:TrackPointExtension>
            <ns3:atemp>31.0</ns3:atemp>
          </ns3:TrackPointExtension>
        </extensions>
      </trkpt>
      <trkpt lat="42.525537796318531036376953125" lon="19.78648633696138858795166015625">
        <ele>1166.199951171875</ele>
        <time>2026-06-18T12:56:46.000Z</time>
        <extensions>
          <ns3:TrackPointExtension>
            <ns3:atemp>31.0</ns3:atemp>
          </ns3:TrackPointExtension>
        </extensions>
      </trkpt>
      <trkpt lat="42.5255121476948261260986328125" lon="19.7865437529981136322021484375">
        <ele>1165.800048828125</ele>
        <time>2026-06-18T12:56:47.000Z</time>
        <extensions>
          <ns3:TrackPointExtension>
            <ns3:atemp>31.0</ns3:atemp>
          </ns3:TrackPointExtension>
        </extensions>
      </trkpt>
      <trkpt lat="42.52548356540501117706298828125" lon="19.78660871274769306182861328125">
        <ele>1165.199951171875</ele>
        <time>2026-06-18T12:56:48.000Z</time>
        <extensions>
          <ns3:TrackPointExtension>
            <ns3:atemp>31.0</ns3:atemp>
          </ns3:TrackPointExtension>
        </extensions>
      </trkpt>
      <trkpt lat="42.52544785849750041961669921875" lon="19.78667509742081165313720703125">
        <ele>1164.5999755859375</ele>
        <time>2026-06-18T12:56:49.000Z</time>
        <extensions>
          <ns3:TrackPointExtension>
            <ns3:atemp>31.0</ns3:atemp>
          </ns3:TrackPointExtension>
        </extensions>
      </trkpt>
      <trkpt lat="42.525405697524547576904296875" lon="19.7867472656071186065673828125">
        <ele>1164</ele>
        <time>2026-06-18T12:56:50.000Z</time>
        <extensions>
          <ns3:TrackPointExtension>
            <ns3:atemp>31.0</ns3:atemp>
          </ns3:TrackPointExtension>
        </extensions>
      </trkpt>
      <trkpt lat="42.52536219544708728790283203125" lon="19.78682546876370906829833984375">
        <ele>1163.800048828125</ele>
        <time>2026-06-18T12:56:51.000Z</time>
        <extensions>
          <ns3:TrackPointExtension>
            <ns3:atemp>31.0</ns3:atemp>
          </ns3:TrackPointExtension>
        </extensions>
      </trkpt>
      <trkpt lat="42.52532313577830791473388671875" lon="19.78691012598574161529541015625">
        <ele>1163.199951171875</ele>
        <time>2026-06-18T12:56:52.000Z</time>
        <extensions>
          <ns3:TrackPointExtension>
            <ns3:atemp>31.0</ns3:atemp>
          </ns3:TrackPointExtension>
        </extensions>
      </trkpt>
      <trkpt lat="42.5252945534884929656982421875" lon="19.787002243101596832275390625">
        <ele>1162.5999755859375</ele>
        <time>2026-06-18T12:56:53.000Z</time>
        <extensions>
          <ns3:TrackPointExtension>
            <ns3:atemp>31.0</ns3:atemp>
          </ns3:TrackPointExtension>
        </extensions>
      </trkpt>
      <trkpt lat="42.52527267672121524810791015625" lon="19.78710458613932132720947265625">
        <ele>1162</ele>
        <time>2026-06-18T12:56:54.000Z</time>
        <extensions>
          <ns3:TrackPointExtension>
            <ns3:atemp>31.0</ns3:atemp>
          </ns3:TrackPointExtension>
        </extensions>
      </trkpt>
      <trkpt lat="42.52525541000068187713623046875" lon="19.78720768354833126068115234375">
        <ele>1161</ele>
        <time>2026-06-18T12:56:55.000Z</time>
        <extensions>
          <ns3:TrackPointExtension>
            <ns3:atemp>31.0</ns3:atemp>
          </ns3:TrackPointExtension>
        </extensions>
      </trkpt>
      <trkpt lat="42.5252422504127025604248046875" lon="19.78731212206184864044189453125">
        <ele>1160.800048828125</ele>
        <time>2026-06-18T12:56:56.000Z</time>
        <extensions>
          <ns3:TrackPointExtension>
            <ns3:atemp>31.0</ns3:atemp>
          </ns3:TrackPointExtension>
        </extensions>
      </trkpt>
      <trkpt lat="42.52522992901504039764404296875" lon="19.7874188236892223358154296875">
        <ele>1159.5999755859375</ele>
        <time>2026-06-18T12:56:57.000Z</time>
        <extensions>
          <ns3:TrackPointExtension>
            <ns3:atemp>31.0</ns3:atemp>
          </ns3:TrackPointExtension>
        </extensions>
      </trkpt>
      <trkpt lat="42.5252167694270610809326171875" lon="19.7875153832137584686279296875">
        <ele>1158.800048828125</ele>
        <time>2026-06-18T12:56:58.000Z</time>
        <extensions>
          <ns3:TrackPointExtension>
            <ns3:atemp>31.0</ns3:atemp>
          </ns3:TrackPointExtension>
        </extensions>
      </trkpt>
      <trkpt lat="42.52520863898098468780517578125" lon="19.78759962134063243865966796875">
        <ele>1157.800048828125</ele>
        <time>2026-06-18T12:56:59.000Z</time>
        <extensions>
          <ns3:TrackPointExtension>
            <ns3:atemp>31.0</ns3:atemp>
          </ns3:TrackPointExtension>
        </extensions>
      </trkpt>
      <trkpt lat="42.5252003408968448638916015625" lon="19.7876840271055698394775390625">
        <ele>1156.800048828125</ele>
        <time>2026-06-18T12:57:00.000Z</time>
        <extensions>
          <ns3:TrackPointExtension>
            <ns3:atemp>31.0</ns3:atemp>
          </ns3:TrackPointExtension>
        </extensions>
      </trkpt>
      <trkpt lat="42.52518433146178722381591796875" lon="19.7877608053386211395263671875">
        <ele>1156.4000244140625</ele>
        <time>2026-06-18T12:57:01.000Z</time>
        <extensions>
          <ns3:TrackPointExtension>
            <ns3:atemp>31.0</ns3:atemp>
          </ns3:TrackPointExtension>
        </extensions>
      </trkpt>
      <trkpt lat="42.52515600062906742095947265625" lon="19.7878241725265979766845703125">
        <ele>1155.800048828125</ele>
        <time>2026-06-18T12:57:02.000Z</time>
        <extensions>
          <ns3:TrackPointExtension>
            <ns3:atemp>31.0</ns3:atemp>
          </ns3:TrackPointExtension>
        </extensions>
      </trkpt>
      <trkpt lat="42.52511710859835147857666015625" lon="19.78786650113761425018310546875">
        <ele>1155</ele>
        <time>2026-06-18T12:57:03.000Z</time>
        <extensions>
          <ns3:TrackPointExtension>
            <ns3:atemp>31.0</ns3:atemp>
          </ns3:TrackPointExtension>
        </extensions>
      </trkpt>
      <trkpt lat="42.52507050521671772003173828125" lon="19.7878939099609851837158203125">
        <ele>1154.5999755859375</ele>
        <time>2026-06-18T12:57:04.000Z</time>
        <extensions>
          <ns3:TrackPointExtension>
            <ns3:atemp>31.0</ns3:atemp>
          </ns3:TrackPointExtension>
        </extensions>
      </trkpt>
      <trkpt lat="42.525026500225067138671875" lon="19.7879274375736713409423828125">
        <ele>1154</ele>
        <time>2026-06-18T12:57:05.000Z</time>
        <extensions>
          <ns3:TrackPointExtension>
            <ns3:atemp>31.0</ns3:atemp>
          </ns3:TrackPointExtension>
        </extensions>
      </trkpt>
      <trkpt lat="42.5249961577355861663818359375" lon="19.78796817362308502197265625">
        <ele>1153.4000244140625</ele>
        <time>2026-06-18T12:57:06.000Z</time>
        <extensions>
          <ns3:TrackPointExtension>
            <ns3:atemp>31.0</ns3:atemp>
          </ns3:TrackPointExtension>
        </extensions>
      </trkpt>
      <trkpt lat="42.5249797292053699493408203125" lon="19.78802106343209743499755859375">
        <ele>1152.5999755859375</ele>
        <time>2026-06-18T12:57:07.000Z</time>
        <extensions>
          <ns3:TrackPointExtension>
            <ns3:atemp>31.0</ns3:atemp>
          </ns3:TrackPointExtension>
        </extensions>
      </trkpt>
      <trkpt lat="42.5249803997576236724853515625" lon="19.788095243275165557861328125">
        <ele>1152.199951171875</ele>
        <time>2026-06-18T12:57:08.000Z</time>
        <extensions>
          <ns3:TrackPointExtension>
            <ns3:atemp>31.0</ns3:atemp>
          </ns3:TrackPointExtension>
        </extensions>
      </trkpt>
      <trkpt lat="42.52499741502106189727783203125" lon="19.788161627948284149169921875">
        <ele>1151.5999755859375</ele>
        <time>2026-06-18T12:57:09.000Z</time>
        <extensions>
          <ns3:TrackPointExtension>
            <ns3:atemp>31.0</ns3:atemp>
          </ns3:TrackPointExtension>
        </extensions>
      </trkpt>
      <trkpt lat="42.52502088434994220733642578125" lon="19.78820747695863246917724609375">
        <ele>1151.199951171875</ele>
        <time>2026-06-18T12:57:10.000Z</time>
        <extensions>
          <ns3:TrackPointExtension>
            <ns3:atemp>31.0</ns3:atemp>
          </ns3:TrackPointExtension>
        </extensions>
      </trkpt>
      <trkpt lat="42.52505826763808727264404296875" lon="19.78823781944811344146728515625">
        <ele>1150.5999755859375</ele>
        <time>2026-06-18T12:57:11.000Z</time>
        <extensions>
          <ns3:TrackPointExtension>
            <ns3:atemp>31.0</ns3:atemp>
          </ns3:TrackPointExtension>
        </extensions>
      </trkpt>
      <trkpt lat="42.5250948965549468994140625" lon="19.78824553079903125762939453125">
        <ele>1150</ele>
        <time>2026-06-18T12:57:12.000Z</time>
        <extensions>
          <ns3:TrackPointExtension>
            <ns3:atemp>31.0</ns3:atemp>
          </ns3:TrackPointExtension>
        </extensions>
      </trkpt>
      <trkpt lat="42.52513311803340911865234375" lon="19.78826715610921382904052734375">
        <ele>1149.5999755859375</ele>
        <time>2026-06-18T12:57:13.000Z</time>
        <extensions>
          <ns3:TrackPointExtension>
            <ns3:atemp>31.0</ns3:atemp>
          </ns3:TrackPointExtension>
        </extensions>
      </trkpt>
      <trkpt lat="42.52516672946512699127197265625" lon="19.78829205036163330078125">
        <ele>1149.199951171875</ele>
        <time>2026-06-18T12:57:14.000Z</time>
        <extensions>
          <ns3:TrackPointExtension>
            <ns3:atemp>31.0</ns3:atemp>
          </ns3:TrackPointExtension>
        </extensions>
      </trkpt>
      <trkpt lat="42.5251996703445911407470703125" lon="19.78831510059535503387451171875">
        <ele>1148.5999755859375</ele>
        <time>2026-06-18T12:57:15.000Z</time>
        <extensions>
          <ns3:TrackPointExtension>
            <ns3:atemp>31.0</ns3:atemp>
          </ns3:TrackPointExtension>
        </extensions>
      </trkpt>
      <trkpt lat="42.52523428760468959808349609375" lon="19.78834041394293308258056640625">
        <ele>1148.199951171875</ele>
        <time>2026-06-18T12:57:16.000Z</time>
        <extensions>
          <ns3:TrackPointExtension>
            <ns3:atemp>31.0</ns3:atemp>
          </ns3:TrackPointExtension>
        </extensions>
      </trkpt>
      <trkpt lat="42.52526999451220035552978515625" lon="19.78836187161505222320556640625">
        <ele>1148</ele>
        <time>2026-06-18T12:57:17.000Z</time>
        <extensions>
          <ns3:TrackPointExtension>
            <ns3:atemp>31.0</ns3:atemp>
          </ns3:TrackPointExtension>
        </extensions>
      </trkpt>
      <trkpt lat="42.52531274221837520599365234375" lon="19.78837410919368267059326171875">
        <ele>1147.800048828125</ele>
        <time>2026-06-18T12:57:18.000Z</time>
        <extensions>
          <ns3:TrackPointExtension>
            <ns3:atemp>31.0</ns3:atemp>
          </ns3:TrackPointExtension>
        </extensions>
      </trkpt>
      <trkpt lat="42.52535171806812286376953125" lon="19.78839472867548465728759765625">
        <ele>1147.800048828125</ele>
        <time>2026-06-18T12:57:19.000Z</time>
        <extensions>
          <ns3:TrackPointExtension>
            <ns3:atemp>31.0</ns3:atemp>
          </ns3:TrackPointExtension>
        </extensions>
      </trkpt>
      <trkpt lat="42.52540762536227703094482421875" lon="19.78841744363307952880859375">
        <ele>1147.800048828125</ele>
        <time>2026-06-18T12:57:20.000Z</time>
        <extensions>
          <ns3:TrackPointExtension>
            <ns3:atemp>31.0</ns3:atemp>
          </ns3:TrackPointExtension>
        </extensions>
      </trkpt>
      <trkpt lat="42.52546428702771663665771484375" lon="19.78844116441905498504638671875">
        <ele>1147.5999755859375</ele>
        <time>2026-06-18T12:57:21.000Z</time>
        <extensions>
          <ns3:TrackPointExtension>
            <ns3:atemp>31.0</ns3:atemp>
          </ns3:TrackPointExtension>
        </extensions>
      </trkpt>
      <trkpt lat="42.5255225412547588348388671875" lon="19.788459353148937225341796875">
        <ele>1147.4000244140625</ele>
        <time>2026-06-18T12:57:22.000Z</time>
        <extensions>
          <ns3:TrackPointExtension>
            <ns3:atemp>31.0</ns3:atemp>
          </ns3:TrackPointExtension>
        </extensions>
      </trkpt>
      <trkpt lat="42.52557693980634212493896484375" lon="19.78847242891788482666015625">
        <ele>1147.199951171875</ele>
        <time>2026-06-18T12:57:23.000Z</time>
        <extensions>
          <ns3:TrackPointExtension>
            <ns3:atemp>31.0</ns3:atemp>
          </ns3:TrackPointExtension>
        </extensions>
      </trkpt>
      <trkpt lat="42.525627315044403076171875" lon="19.78848793543875217437744140625">
        <ele>1147</ele>
        <time>2026-06-18T12:57:24.000Z</time>
        <extensions>
          <ns3:TrackPointExtension>
            <ns3:atemp>31.0</ns3:atemp>
          </ns3:TrackPointExtension>
        </extensions>
      </trkpt>
      <trkpt lat="42.52566847018897533416748046875" lon="19.78850335814058780670166015625">
        <ele>1146.800048828125</ele>
        <time>2026-06-18T12:57:25.000Z</time>
        <extensions>
          <ns3:TrackPointExtension>
            <ns3:atemp>31.0</ns3:atemp>
          </ns3:TrackPointExtension>
        </extensions>
      </trkpt>
      <trkpt lat="42.52569277770817279815673828125" lon="19.7885158471763134002685546875">
        <ele>1146.800048828125</ele>
        <time>2026-06-18T12:57:26.000Z</time>
        <extensions>
          <ns3:TrackPointExtension>
            <ns3:atemp>31.0</ns3:atemp>
          </ns3:TrackPointExtension>
        </extensions>
      </trkpt>
      <trkpt lat="42.52571339718997478485107421875" lon="19.7885294258594512939453125">
        <ele>1146.800048828125</ele>
        <time>2026-06-18T12:57:27.000Z</time>
        <extensions>
          <ns3:TrackPointExtension>
            <ns3:atemp>31.0</ns3:atemp>
          </ns3:TrackPointExtension>
        </extensions>
      </trkpt>
      <trkpt lat="42.52572261728346347808837890625" lon="19.78854208253324031829833984375">
        <ele>1146.800048828125</ele>
        <time>2026-06-18T12:57:28.000Z</time>
        <extensions>
          <ns3:TrackPointExtension>
            <ns3:atemp>31.0</ns3:atemp>
          </ns3:TrackPointExtension>
        </extensions>
      </trkpt>
      <trkpt lat="42.5257206894457340240478515625" lon="19.78855683468282222747802734375">
        <ele>1146.800048828125</ele>
        <time>2026-06-18T12:57:29.000Z</time>
        <extensions>
          <ns3:TrackPointExtension>
            <ns3:atemp>31.0</ns3:atemp>
          </ns3:TrackPointExtension>
        </extensions>
      </trkpt>
      <trkpt lat="42.52572043798863887786865234375" lon="19.78857167065143585205078125">
        <ele>1146.800048828125</ele>
        <time>2026-06-18T12:57:30.000Z</time>
        <extensions>
          <ns3:TrackPointExtension>
            <ns3:atemp>31.0</ns3:atemp>
          </ns3:TrackPointExtension>
        </extensions>
      </trkpt>
      <trkpt lat="42.52572052180767059326171875" lon="19.7885798849165439605712890625">
        <ele>1146.5999755859375</ele>
        <time>2026-06-18T12:57:31.000Z</time>
        <extensions>
          <ns3:TrackPointExtension>
            <ns3:atemp>31.0</ns3:atemp>
          </ns3:TrackPointExtension>
        </extensions>
      </trkpt>
      <trkpt lat="42.52572052180767059326171875" lon="19.78857996873557567596435546875">
        <ele>1146.5999755859375</ele>
        <time>2026-06-18T12:57:32.000Z</time>
        <extensions>
          <ns3:TrackPointExtension>
            <ns3:atemp>31.0</ns3:atemp>
          </ns3:TrackPointExtension>
        </extensions>
      </trkpt>
      <trkpt lat="42.525723874568939208984375" lon="19.78857276029884815216064453125">
        <ele>1146.4000244140625</ele>
        <time>2026-06-18T12:57:33.000Z</time>
        <extensions>
          <ns3:TrackPointExtension>
            <ns3:atemp>31.0</ns3:atemp>
          </ns3:TrackPointExtension>
        </extensions>
      </trkpt>
      <trkpt lat="42.525723874568939208984375" lon="19.78857292793691158294677734375">
        <ele>1146.199951171875</ele>
        <time>2026-06-18T12:57:34.000Z</time>
        <extensions>
          <ns3:TrackPointExtension>
            <ns3:atemp>31.0</ns3:atemp>
          </ns3:TrackPointExtension>
        </extensions>
      </trkpt>
      <trkpt lat="42.525723874568939208984375" lon="19.78857292793691158294677734375">
        <ele>1146</ele>
        <time>2026-06-18T12:57:35.000Z</time>
        <extensions>
          <ns3:TrackPointExtension>
            <ns3:atemp>31.0</ns3:atemp>
          </ns3:TrackPointExtension>
        </extensions>
      </trkpt>
      <trkpt lat="42.525723874568939208984375" lon="19.78857292793691158294677734375">
        <ele>1146</ele>
        <time>2026-06-18T12:57:36.000Z</time>
        <extensions>
          <ns3:TrackPointExtension>
            <ns3:atemp>31.0</ns3:atemp>
          </ns3:TrackPointExtension>
        </extensions>
      </trkpt>
      <trkpt lat="42.525723874568939208984375" lon="19.78857292793691158294677734375">
        <ele>1145.800048828125</ele>
        <time>2026-06-18T12:57:37.000Z</time>
        <extensions>
          <ns3:TrackPointExtension>
            <ns3:atemp>31.0</ns3:atemp>
          </ns3:TrackPointExtension>
        </extensions>
      </trkpt>
      <trkpt lat="42.525723874568939208984375" lon="19.78857292793691158294677734375">
        <ele>1145.5999755859375</ele>
        <time>2026-06-18T12:57:38.000Z</time>
        <extensions>
          <ns3:TrackPointExtension>
            <ns3:atemp>31.0</ns3:atemp>
          </ns3:TrackPointExtension>
        </extensions>
      </trkpt>
      <trkpt lat="42.525723874568939208984375" lon="19.78857292793691158294677734375">
        <ele>1145.4000244140625</ele>
        <time>2026-06-18T12:57:39.000Z</time>
        <extensions>
          <ns3:TrackPointExtension>
            <ns3:atemp>31.0</ns3:atemp>
          </ns3:TrackPointExtension>
        </extensions>
      </trkpt>
      <trkpt lat="42.525723874568939208984375" lon="19.78857292793691158294677734375">
        <ele>1145.4000244140625</ele>
        <time>2026-06-18T12:57:40.000Z</time>
        <extensions>
          <ns3:TrackPointExtension>
            <ns3:atemp>31.0</ns3:atemp>
          </ns3:TrackPointExtension>
        </extensions>
      </trkpt>
      <trkpt lat="42.525723874568939208984375" lon="19.78857292793691158294677734375">
        <ele>1145.4000244140625</ele>
        <time>2026-06-18T12:57:41.000Z</time>
        <extensions>
          <ns3:TrackPointExtension>
            <ns3:atemp>31.0</ns3:atemp>
          </ns3:TrackPointExtension>
        </extensions>
      </trkpt>
      <trkpt lat="42.525723874568939208984375" lon="19.78857292793691158294677734375">
        <ele>1145.199951171875</ele>
        <time>2026-06-18T12:57:42.000Z</time>
        <extensions>
          <ns3:TrackPointExtension>
            <ns3:atemp>31.0</ns3:atemp>
          </ns3:TrackPointExtension>
        </extensions>
      </trkpt>
      <trkpt lat="42.525723874568939208984375" lon="19.78857292793691158294677734375">
        <ele>1145.199951171875</ele>
        <time>2026-06-18T12:57:43.000Z</time>
        <extensions>
          <ns3:TrackPointExtension>
            <ns3:atemp>31.0</ns3:atemp>
          </ns3:TrackPointExtension>
        </extensions>
      </trkpt>
      <trkpt lat="42.525723874568939208984375" lon="19.78857292793691158294677734375">
        <ele>1145.199951171875</ele>
        <time>2026-06-18T12:57:44.000Z</time>
        <extensions>
          <ns3:TrackPointExtension>
            <ns3:atemp>31.0</ns3:atemp>
          </ns3:TrackPointExtension>
        </extensions>
      </trkpt>
      <trkpt lat="42.525723874568939208984375" lon="19.78857292793691158294677734375">
        <ele>1145</ele>
        <time>2026-06-18T12:57:45.000Z</time>
        <extensions>
          <ns3:TrackPointExtension>
            <ns3:atemp>31.0</ns3:atemp>
          </ns3:TrackPointExtension>
        </extensions>
      </trkpt>
      <trkpt lat="42.525723874568939208984375" lon="19.78857292793691158294677734375">
        <ele>1145</ele>
        <time>2026-06-18T12:57:46.000Z</time>
        <extensions>
          <ns3:TrackPointExtension>
            <ns3:atemp>30.0</ns3:atemp>
          </ns3:TrackPointExtension>
        </extensions>
      </trkpt>
      <trkpt lat="42.525723874568939208984375" lon="19.78857292793691158294677734375">
        <ele>1145</ele>
        <time>2026-06-18T12:57:47.000Z</time>
        <extensions>
          <ns3:TrackPointExtension>
            <ns3:atemp>31.0</ns3:atemp>
          </ns3:TrackPointExtension>
        </extensions>
      </trkpt>
      <trkpt lat="42.525723874568939208984375" lon="19.78857292793691158294677734375">
        <ele>1145</ele>
        <time>2026-06-18T12:57:48.000Z</time>
        <extensions>
          <ns3:TrackPointExtension>
            <ns3:atemp>31.0</ns3:atemp>
          </ns3:TrackPointExtension>
        </extensions>
      </trkpt>
      <trkpt lat="42.525723874568939208984375" lon="19.78857292793691158294677734375">
        <ele>1144.800048828125</ele>
        <time>2026-06-18T12:57:49.000Z</time>
        <extensions>
          <ns3:TrackPointExtension>
            <ns3:atemp>31.0</ns3:atemp>
          </ns3:TrackPointExtension>
        </extensions>
      </trkpt>
      <trkpt lat="42.525723874568939208984375" lon="19.78857292793691158294677734375">
        <ele>1144.800048828125</ele>
        <time>2026-06-18T12:57:50.000Z</time>
        <extensions>
          <ns3:TrackPointExtension>
            <ns3:atemp>30.0</ns3:atemp>
          </ns3:TrackPointExtension>
        </extensions>
      </trkpt>
      <trkpt lat="42.525723874568939208984375" lon="19.78857292793691158294677734375">
        <ele>1144.800048828125</ele>
        <time>2026-06-18T12:57:51.000Z</time>
        <extensions>
          <ns3:TrackPointExtension>
            <ns3:atemp>30.0</ns3:atemp>
          </ns3:TrackPointExtension>
        </extensions>
      </trkpt>
      <trkpt lat="42.525723874568939208984375" lon="19.78857292793691158294677734375">
        <ele>1144.5999755859375</ele>
        <time>2026-06-18T12:57:52.000Z</time>
        <extensions>
          <ns3:TrackPointExtension>
            <ns3:atemp>30.0</ns3:atemp>
          </ns3:TrackPointExtension>
        </extensions>
      </trkpt>
      <trkpt lat="42.525723874568939208984375" lon="19.78857292793691158294677734375">
        <ele>1144.5999755859375</ele>
        <time>2026-06-18T12:57:53.000Z</time>
        <extensions>
          <ns3:TrackPointExtension>
            <ns3:atemp>30.0</ns3:atemp>
          </ns3:TrackPointExtension>
        </extensions>
      </trkpt>
      <trkpt lat="42.525723874568939208984375" lon="19.78857292793691158294677734375">
        <ele>1144.4000244140625</ele>
        <time>2026-06-18T12:57:54.000Z</time>
        <extensions>
          <ns3:TrackPointExtension>
            <ns3:atemp>31.0</ns3:atemp>
          </ns3:TrackPointExtension>
        </extensions>
      </trkpt>
      <trkpt lat="42.525723874568939208984375" lon="19.78857292793691158294677734375">
        <ele>1144.4000244140625</ele>
        <time>2026-06-18T12:57:55.000Z</time>
        <extensions>
          <ns3:TrackPointExtension>
            <ns3:atemp>31.0</ns3:atemp>
          </ns3:TrackPointExtension>
        </extensions>
      </trkpt>
      <trkpt lat="42.525723874568939208984375" lon="19.78857292793691158294677734375">
        <ele>1144.4000244140625</ele>
        <time>2026-06-18T12:57:56.000Z</time>
        <extensions>
          <ns3:TrackPointExtension>
            <ns3:atemp>31.0</ns3:atemp>
          </ns3:TrackPointExtension>
        </extensions>
      </trkpt>
      <trkpt lat="42.525723874568939208984375" lon="19.78857292793691158294677734375">
        <ele>1144.199951171875</ele>
        <time>2026-06-18T12:57:57.000Z</time>
        <extensions>
          <ns3:TrackPointExtension>
            <ns3:atemp>31.0</ns3:atemp>
          </ns3:TrackPointExtension>
        </extensions>
      </trkpt>
      <trkpt lat="42.525723874568939208984375" lon="19.78857292793691158294677734375">
        <ele>1144.199951171875</ele>
        <time>2026-06-18T12:57:58.000Z</time>
        <extensions>
          <ns3:TrackPointExtension>
            <ns3:atemp>31.0</ns3:atemp>
          </ns3:TrackPointExtension>
        </extensions>
      </trkpt>
      <trkpt lat="42.525723874568939208984375" lon="19.78857292793691158294677734375">
        <ele>1144.199951171875</ele>
        <time>2026-06-18T12:57:59.000Z</time>
        <extensions>
          <ns3:TrackPointExtension>
            <ns3:atemp>31.0</ns3:atemp>
          </ns3:TrackPointExtension>
        </extensions>
      </trkpt>
      <trkpt lat="42.525723874568939208984375" lon="19.78857292793691158294677734375">
        <ele>1144.199951171875</ele>
        <time>2026-06-18T12:58:00.000Z</time>
        <extensions>
          <ns3:TrackPointExtension>
            <ns3:atemp>31.0</ns3:atemp>
          </ns3:TrackPointExtension>
        </extensions>
      </trkpt>
      <trkpt lat="42.525723874568939208984375" lon="19.78857292793691158294677734375">
        <ele>1144</ele>
        <time>2026-06-18T12:58:01.000Z</time>
        <extensions>
          <ns3:TrackPointExtension>
            <ns3:atemp>31.0</ns3:atemp>
          </ns3:TrackPointExtension>
        </extensions>
      </trkpt>
      <trkpt lat="42.525723874568939208984375" lon="19.78857292793691158294677734375">
        <ele>1144</ele>
        <time>2026-06-18T12:58:02.000Z</time>
        <extensions>
          <ns3:TrackPointExtension>
            <ns3:atemp>31.0</ns3:atemp>
          </ns3:TrackPointExtension>
        </extensions>
      </trkpt>
      <trkpt lat="42.525723874568939208984375" lon="19.78857292793691158294677734375">
        <ele>1144</ele>
        <time>2026-06-18T12:58:03.000Z</time>
        <extensions>
          <ns3:TrackPointExtension>
            <ns3:atemp>31.0</ns3:atemp>
          </ns3:TrackPointExtension>
        </extensions>
      </trkpt>
      <trkpt lat="42.525723874568939208984375" lon="19.78857292793691158294677734375">
        <ele>1144</ele>
        <time>2026-06-18T12:58:04.000Z</time>
        <extensions>
          <ns3:TrackPointExtension>
            <ns3:atemp>31.0</ns3:atemp>
          </ns3:TrackPointExtension>
        </extensions>
      </trkpt>
      <trkpt lat="42.525723874568939208984375" lon="19.78857292793691158294677734375">
        <ele>1144</ele>
        <time>2026-06-18T12:58:05.000Z</time>
        <extensions>
          <ns3:TrackPointExtension>
            <ns3:atemp>31.0</ns3:atemp>
          </ns3:TrackPointExtension>
        </extensions>
      </trkpt>
      <trkpt lat="42.525723874568939208984375" lon="19.78857292793691158294677734375">
        <ele>1144</ele>
        <time>2026-06-18T12:58:06.000Z</time>
        <extensions>
          <ns3:TrackPointExtension>
            <ns3:atemp>31.0</ns3:atemp>
          </ns3:TrackPointExtension>
        </extensions>
      </trkpt>
      <trkpt lat="42.525723874568939208984375" lon="19.78857292793691158294677734375">
        <ele>1143.800048828125</ele>
        <time>2026-06-18T12:58:07.000Z</time>
        <extensions>
          <ns3:TrackPointExtension>
            <ns3:atemp>31.0</ns3:atemp>
          </ns3:TrackPointExtension>
        </extensions>
      </trkpt>
      <trkpt lat="42.525723874568939208984375" lon="19.78857292793691158294677734375">
        <ele>1143.800048828125</ele>
        <time>2026-06-18T12:58:08.000Z</time>
        <extensions>
          <ns3:TrackPointExtension>
            <ns3:atemp>31.0</ns3:atemp>
          </ns3:TrackPointExtension>
        </extensions>
      </trkpt>
      <trkpt lat="42.5257250480353832244873046875" lon="19.78857426904141902923583984375">
        <ele>1143.800048828125</ele>
        <time>2026-06-18T12:58:09.000Z</time>
        <extensions>
          <ns3:TrackPointExtension>
            <ns3:atemp>31.0</ns3:atemp>
          </ns3:TrackPointExtension>
        </extensions>
      </trkpt>
      <trkpt lat="42.52573921345174312591552734375" lon="19.78858550079166889190673828125">
        <ele>1143.5999755859375</ele>
        <time>2026-06-18T12:58:10.000Z</time>
        <extensions>
          <ns3:TrackPointExtension>
            <ns3:atemp>31.0</ns3:atemp>
          </ns3:TrackPointExtension>
        </extensions>
      </trkpt>
      <trkpt lat="42.5257555581629276275634765625" lon="19.78858717717230319976806640625">
        <ele>1143.4000244140625</ele>
        <time>2026-06-18T12:58:11.000Z</time>
        <extensions>
          <ns3:TrackPointExtension>
            <ns3:atemp>31.0</ns3:atemp>
          </ns3:TrackPointExtension>
        </extensions>
      </trkpt>
      <trkpt lat="42.5257723219692707061767578125" lon="19.78858281858265399932861328125">
        <ele>1143.199951171875</ele>
        <time>2026-06-18T12:58:12.000Z</time>
        <extensions>
          <ns3:TrackPointExtension>
            <ns3:atemp>31.0</ns3:atemp>
          </ns3:TrackPointExtension>
        </extensions>
      </trkpt>
      <trkpt lat="42.52579218707978725433349609375" lon="19.78858080692589282989501953125">
        <ele>1143</ele>
        <time>2026-06-18T12:58:13.000Z</time>
        <extensions>
          <ns3:TrackPointExtension>
            <ns3:atemp>31.0</ns3:atemp>
          </ns3:TrackPointExtension>
        </extensions>
      </trkpt>
      <trkpt lat="42.52581305801868438720703125" lon="19.788581393659114837646484375">
        <ele>1143</ele>
        <time>2026-06-18T12:58:14.000Z</time>
        <extensions>
          <ns3:TrackPointExtension>
            <ns3:atemp>31.0</ns3:atemp>
          </ns3:TrackPointExtension>
        </extensions>
      </trkpt>
      <trkpt lat="42.525836527347564697265625" lon="19.78858566842973232269287109375">
        <ele>1142.800048828125</ele>
        <time>2026-06-18T12:58:15.000Z</time>
        <extensions>
          <ns3:TrackPointExtension>
            <ns3:atemp>31.0</ns3:atemp>
          </ns3:TrackPointExtension>
        </extensions>
      </trkpt>
      <trkpt lat="42.5258621759712696075439453125" lon="19.78858617134392261505126953125">
        <ele>1142.5999755859375</ele>
        <time>2026-06-18T12:58:16.000Z</time>
        <extensions>
          <ns3:TrackPointExtension>
            <ns3:atemp>31.0</ns3:atemp>
          </ns3:TrackPointExtension>
        </extensions>
      </trkpt>
      <trkpt lat="42.525895200669765472412109375" lon="19.7885879315435886383056640625">
        <ele>1142.5999755859375</ele>
        <time>2026-06-18T12:58:17.000Z</time>
        <extensions>
          <ns3:TrackPointExtension>
            <ns3:atemp>31.0</ns3:atemp>
          </ns3:TrackPointExtension>
        </extensions>
      </trkpt>
      <trkpt lat="42.52593417651951313018798828125" lon="19.788592122495174407958984375">
        <ele>1142.4000244140625</ele>
        <time>2026-06-18T12:58:18.000Z</time>
        <extensions>
          <ns3:TrackPointExtension>
            <ns3:atemp>31.0</ns3:atemp>
          </ns3:TrackPointExtension>
        </extensions>
      </trkpt>
      <trkpt lat="42.5259687937796115875244140625" lon="19.788612239062786102294921875">
        <ele>1142.4000244140625</ele>
        <time>2026-06-18T12:58:19.000Z</time>
        <extensions>
          <ns3:TrackPointExtension>
            <ns3:atemp>31.0</ns3:atemp>
          </ns3:TrackPointExtension>
        </extensions>
      </trkpt>
      <trkpt lat="42.5260153971612453460693359375" lon="19.78862254880368709564208984375">
        <ele>1142.199951171875</ele>
        <time>2026-06-18T12:58:20.000Z</time>
        <extensions>
          <ns3:TrackPointExtension>
            <ns3:atemp>31.0</ns3:atemp>
          </ns3:TrackPointExtension>
        </extensions>
      </trkpt>
      <trkpt lat="42.5260626710951328277587890625" lon="19.7886325232684612274169921875">
        <ele>1142.199951171875</ele>
        <time>2026-06-18T12:58:21.000Z</time>
        <extensions>
          <ns3:TrackPointExtension>
            <ns3:atemp>31.0</ns3:atemp>
          </ns3:TrackPointExtension>
        </extensions>
      </trkpt>
      <trkpt lat="42.5261129625141620635986328125" lon="19.7886412404477596282958984375">
        <ele>1142</ele>
        <time>2026-06-18T12:58:22.000Z</time>
        <extensions>
          <ns3:TrackPointExtension>
            <ns3:atemp>31.0</ns3:atemp>
          </ns3:TrackPointExtension>
        </extensions>
      </trkpt>
      <trkpt lat="42.5261629186570644378662109375" lon="19.78864417411386966705322265625">
        <ele>1141.800048828125</ele>
        <time>2026-06-18T12:58:23.000Z</time>
        <extensions>
          <ns3:TrackPointExtension>
            <ns3:atemp>31.0</ns3:atemp>
          </ns3:TrackPointExtension>
        </extensions>
      </trkpt>
      <trkpt lat="42.52620943821966648101806640625" lon="19.78864316828548908233642578125">
        <ele>1141.800048828125</ele>
        <time>2026-06-18T12:58:24.000Z</time>
        <extensions>
          <ns3:TrackPointExtension>
            <ns3:atemp>31.0</ns3:atemp>
          </ns3:TrackPointExtension>
        </extensions>
      </trkpt>
      <trkpt lat="42.52625067718327045440673828125" lon="19.78863336145877838134765625">
        <ele>1141.5999755859375</ele>
        <time>2026-06-18T12:58:25.000Z</time>
        <extensions>
          <ns3:TrackPointExtension>
            <ns3:atemp>31.0</ns3:atemp>
          </ns3:TrackPointExtension>
        </extensions>
      </trkpt>
      <trkpt lat="42.52628806047141551971435546875" lon="19.7886233031749725341796875">
        <ele>1141.800048828125</ele>
        <time>2026-06-18T12:58:26.000Z</time>
        <extensions>
          <ns3:TrackPointExtension>
            <ns3:atemp>31.0</ns3:atemp>
          </ns3:TrackPointExtension>
        </extensions>
      </trkpt>
      <trkpt lat="42.526330389082431793212890625" lon="19.78862137533724308013916015625">
        <ele>1141.800048828125</ele>
        <time>2026-06-18T12:58:27.000Z</time>
        <extensions>
          <ns3:TrackPointExtension>
            <ns3:atemp>31.0</ns3:atemp>
          </ns3:TrackPointExtension>
        </extensions>
      </trkpt>
      <trkpt lat="42.526367269456386566162109375" lon="19.7886144183576107025146484375">
        <ele>1141.5999755859375</ele>
        <time>2026-06-18T12:58:28.000Z</time>
        <extensions>
          <ns3:TrackPointExtension>
            <ns3:atemp>31.0</ns3:atemp>
          </ns3:TrackPointExtension>
        </extensions>
      </trkpt>
      <trkpt lat="42.52640959806740283966064453125" lon="19.7886177711188793182373046875">
        <ele>1141.5999755859375</ele>
        <time>2026-06-18T12:58:29.000Z</time>
        <extensions>
          <ns3:TrackPointExtension>
            <ns3:atemp>31.0</ns3:atemp>
          </ns3:TrackPointExtension>
        </extensions>
      </trkpt>
      <trkpt lat="42.52645854838192462921142578125" lon="19.7886179387569427490234375">
        <ele>1141.4000244140625</ele>
        <time>2026-06-18T12:58:30.000Z</time>
        <extensions>
          <ns3:TrackPointExtension>
            <ns3:atemp>31.0</ns3:atemp>
          </ns3:TrackPointExtension>
        </extensions>
      </trkpt>
      <trkpt lat="42.52651034854352474212646484375" lon="19.78861886076629161834716796875">
        <ele>1141.199951171875</ele>
        <time>2026-06-18T12:58:31.000Z</time>
        <extensions>
          <ns3:TrackPointExtension>
            <ns3:atemp>31.0</ns3:atemp>
          </ns3:TrackPointExtension>
        </extensions>
      </trkpt>
      <trkpt lat="42.526563741266727447509765625" lon="19.78862372227013111114501953125">
        <ele>1140.800048828125</ele>
        <time>2026-06-18T12:58:32.000Z</time>
        <extensions>
          <ns3:TrackPointExtension>
            <ns3:atemp>31.0</ns3:atemp>
          </ns3:TrackPointExtension>
        </extensions>
      </trkpt>
      <trkpt lat="42.52662710845470428466796875" lon="19.78861919604241847991943359375">
        <ele>1140.199951171875</ele>
        <time>2026-06-18T12:58:33.000Z</time>
        <extensions>
          <ns3:TrackPointExtension>
            <ns3:atemp>31.0</ns3:atemp>
          </ns3:TrackPointExtension>
        </extensions>
      </trkpt>
      <trkpt lat="42.52668879926204681396484375" lon="19.78859975002706050872802734375">
        <ele>1139.5999755859375</ele>
        <time>2026-06-18T12:58:34.000Z</time>
        <extensions>
          <ns3:TrackPointExtension>
            <ns3:atemp>31.0</ns3:atemp>
          </ns3:TrackPointExtension>
        </extensions>
      </trkpt>
      <trkpt lat="42.526754848659038543701171875" lon="19.78856370784342288970947265625">
        <ele>1138.800048828125</ele>
        <time>2026-06-18T12:58:35.000Z</time>
        <extensions>
          <ns3:TrackPointExtension>
            <ns3:atemp>31.0</ns3:atemp>
          </ns3:TrackPointExtension>
        </extensions>
      </trkpt>
      <trkpt lat="42.52682768739759922027587890625" lon="19.7885171882808208465576171875">
        <ele>1138</ele>
        <time>2026-06-18T12:58:36.000Z</time>
        <extensions>
          <ns3:TrackPointExtension>
            <ns3:atemp>31.0</ns3:atemp>
          </ns3:TrackPointExtension>
        </extensions>
      </trkpt>
      <trkpt lat="42.52690413035452365875244140625" lon="19.78849656879901885986328125">
        <ele>1137.199951171875</ele>
        <time>2026-06-18T12:58:37.000Z</time>
        <extensions>
          <ns3:TrackPointExtension>
            <ns3:atemp>31.0</ns3:atemp>
          </ns3:TrackPointExtension>
        </extensions>
      </trkpt>
      <trkpt lat="42.526981830596923828125" lon="19.7885021008551120758056640625">
        <ele>1136.4000244140625</ele>
        <time>2026-06-18T12:58:38.000Z</time>
        <extensions>
          <ns3:TrackPointExtension>
            <ns3:atemp>31.0</ns3:atemp>
          </ns3:TrackPointExtension>
        </extensions>
      </trkpt>
      <trkpt lat="42.52706523053348064422607421875" lon="19.78850704617798328399658203125">
        <ele>1135.4000244140625</ele>
        <time>2026-06-18T12:58:39.000Z</time>
        <extensions>
          <ns3:TrackPointExtension>
            <ns3:atemp>31.0</ns3:atemp>
          </ns3:TrackPointExtension>
        </extensions>
      </trkpt>
      <trkpt lat="42.52715240232646465301513671875" lon="19.78850704617798328399658203125">
        <ele>1134.5999755859375</ele>
        <time>2026-06-18T12:58:40.000Z</time>
        <extensions>
          <ns3:TrackPointExtension>
            <ns3:atemp>31.0</ns3:atemp>
          </ns3:TrackPointExtension>
        </extensions>
      </trkpt>
      <trkpt lat="42.52723705954849720001220703125" lon="19.7885091416537761688232421875">
        <ele>1133.800048828125</ele>
        <time>2026-06-18T12:58:41.000Z</time>
        <extensions>
          <ns3:TrackPointExtension>
            <ns3:atemp>31.0</ns3:atemp>
          </ns3:TrackPointExtension>
        </extensions>
      </trkpt>
      <trkpt lat="42.52730964682996273040771484375" lon="19.78847770951688289642333984375">
        <ele>1132.5999755859375</ele>
        <time>2026-06-18T12:58:42.000Z</time>
        <extensions>
          <ns3:TrackPointExtension>
            <ns3:atemp>30.0</ns3:atemp>
          </ns3:TrackPointExtension>
        </extensions>
      </trkpt>
      <trkpt lat="42.527358345687389373779296875" lon="19.788413755595684051513671875">
        <ele>1131.5999755859375</ele>
        <time>2026-06-18T12:58:43.000Z</time>
        <extensions>
          <ns3:TrackPointExtension>
            <ns3:atemp>30.0</ns3:atemp>
          </ns3:TrackPointExtension>
        </extensions>
      </trkpt>
      <trkpt lat="42.52737251110374927520751953125" lon="19.7883284278213977813720703125">
        <ele>1130</ele>
        <time>2026-06-18T12:58:44.000Z</time>
        <extensions>
          <ns3:TrackPointExtension>
            <ns3:atemp>30.0</ns3:atemp>
          </ns3:TrackPointExtension>
        </extensions>
      </trkpt>
      <trkpt lat="42.5273585133254528045654296875" lon="19.78823580779135227203369140625">
        <ele>1128.5999755859375</ele>
        <time>2026-06-18T12:58:45.000Z</time>
        <extensions>
          <ns3:TrackPointExtension>
            <ns3:atemp>30.0</ns3:atemp>
          </ns3:TrackPointExtension>
        </extensions>
      </trkpt>
      <trkpt lat="42.527365386486053466796875" lon="19.78814058937132358551025390625">
        <ele>1127.4000244140625</ele>
        <time>2026-06-18T12:58:46.000Z</time>
        <extensions>
          <ns3:TrackPointExtension>
            <ns3:atemp>30.0</ns3:atemp>
          </ns3:TrackPointExtension>
        </extensions>
      </trkpt>
      <trkpt lat="42.52740201540291309356689453125" lon="19.78805459104478359222412109375">
        <ele>1126</ele>
        <time>2026-06-18T12:58:47.000Z</time>
        <extensions>
          <ns3:TrackPointExtension>
            <ns3:atemp>30.0</ns3:atemp>
          </ns3:TrackPointExtension>
        </extensions>
      </trkpt>
      <trkpt lat="42.5274671427905559539794921875" lon="19.78801016695797443389892578125">
        <ele>1124.4000244140625</ele>
        <time>2026-06-18T12:58:48.000Z</time>
        <extensions>
          <ns3:TrackPointExtension>
            <ns3:atemp>30.0</ns3:atemp>
          </ns3:TrackPointExtension>
        </extensions>
      </trkpt>
      <trkpt lat="42.52752925269305706024169921875" lon="19.78803011588752269744873046875">
        <ele>1123.199951171875</ele>
        <time>2026-06-18T12:58:49.000Z</time>
        <extensions>
          <ns3:TrackPointExtension>
            <ns3:atemp>30.0</ns3:atemp>
          </ns3:TrackPointExtension>
        </extensions>
      </trkpt>
      <trkpt lat="42.52758323214948177337646484375" lon="19.7880863584578037261962890625">
        <ele>1122.199951171875</ele>
        <time>2026-06-18T12:58:50.000Z</time>
        <extensions>
          <ns3:TrackPointExtension>
            <ns3:atemp>30.0</ns3:atemp>
          </ns3:TrackPointExtension>
        </extensions>
      </trkpt>
      <trkpt lat="42.5276458449661731719970703125" lon="19.78816129267215728759765625">
        <ele>1121</ele>
        <time>2026-06-18T12:58:51.000Z</time>
        <extensions>
          <ns3:TrackPointExtension>
            <ns3:atemp>30.0</ns3:atemp>
          </ns3:TrackPointExtension>
        </extensions>
      </trkpt>
      <trkpt lat="42.5277316756546497344970703125" lon="19.78820814751088619232177734375">
        <ele>1120</ele>
        <time>2026-06-18T12:58:52.000Z</time>
        <extensions>
          <ns3:TrackPointExtension>
            <ns3:atemp>30.0</ns3:atemp>
          </ns3:TrackPointExtension>
        </extensions>
      </trkpt>
      <trkpt lat="42.52781289629638195037841796875" lon="19.78828257881104946136474609375">
        <ele>1118.4000244140625</ele>
        <time>2026-06-18T12:58:53.000Z</time>
        <extensions>
          <ns3:TrackPointExtension>
            <ns3:atemp>30.0</ns3:atemp>
          </ns3:TrackPointExtension>
        </extensions>
      </trkpt>
      <trkpt lat="42.52790258266031742095947265625" lon="19.788354746997356414794921875">
        <ele>1117.199951171875</ele>
        <time>2026-06-18T12:58:54.000Z</time>
        <extensions>
          <ns3:TrackPointExtension>
            <ns3:atemp>30.0</ns3:atemp>
          </ns3:TrackPointExtension>
        </extensions>
      </trkpt>
      <trkpt lat="42.527969218790531158447265625" lon="19.7884194552898406982421875">
        <ele>1116</ele>
        <time>2026-06-18T12:58:55.000Z</time>
        <extensions>
          <ns3:TrackPointExtension>
            <ns3:atemp>30.0</ns3:atemp>
          </ns3:TrackPointExtension>
        </extensions>
      </trkpt>
      <trkpt lat="42.52801825292408466339111328125" lon="19.78846714831888675689697265625">
        <ele>1114.800048828125</ele>
        <time>2026-06-18T12:58:56.000Z</time>
        <extensions>
          <ns3:TrackPointExtension>
            <ns3:atemp>30.0</ns3:atemp>
          </ns3:TrackPointExtension>
        </extensions>
      </trkpt>
      <trkpt lat="42.52806653268635272979736328125" lon="19.7884803079068660736083984375">
        <ele>1114</ele>
        <time>2026-06-18T12:58:57.000Z</time>
        <extensions>
          <ns3:TrackPointExtension>
            <ns3:atemp>30.0</ns3:atemp>
          </ns3:TrackPointExtension>
        </extensions>
      </trkpt>
      <trkpt lat="42.52812688238918781280517578125" lon="19.7884850017726421356201171875">
        <ele>1112.800048828125</ele>
        <time>2026-06-18T12:58:58.000Z</time>
        <extensions>
          <ns3:TrackPointExtension>
            <ns3:atemp>30.0</ns3:atemp>
          </ns3:TrackPointExtension>
        </extensions>
      </trkpt>
      <trkpt lat="42.5281906686723232269287109375" lon="19.78848542086780071258544921875">
        <ele>1112</ele>
        <time>2026-06-18T12:58:59.000Z</time>
        <extensions>
          <ns3:TrackPointExtension>
            <ns3:atemp>30.0</ns3:atemp>
          </ns3:TrackPointExtension>
        </extensions>
      </trkpt>
      <trkpt lat="42.52826333977282047271728515625" lon="19.78849028237164020538330078125">
        <ele>1111.199951171875</ele>
        <time>2026-06-18T12:59:00.000Z</time>
        <extensions>
          <ns3:TrackPointExtension>
            <ns3:atemp>30.0</ns3:atemp>
          </ns3:TrackPointExtension>
        </extensions>
      </trkpt>
      <trkpt lat="42.5283385254442691802978515625" lon="19.78853722102940082550048828125">
        <ele>1110.199951171875</ele>
        <time>2026-06-18T12:59:01.000Z</time>
        <extensions>
          <ns3:TrackPointExtension>
            <ns3:atemp>30.0</ns3:atemp>
          </ns3:TrackPointExtension>
        </extensions>
      </trkpt>
      <trkpt lat="42.5284119509160518646240234375" lon="19.7886114008724689483642578125">
        <ele>1108.5999755859375</ele>
        <time>2026-06-18T12:59:02.000Z</time>
        <extensions>
          <ns3:TrackPointExtension>
            <ns3:atemp>30.0</ns3:atemp>
          </ns3:TrackPointExtension>
        </extensions>
      </trkpt>
      <trkpt lat="42.5284897349774837493896484375" lon="19.7887019254267215728759765625">
        <ele>1107.4000244140625</ele>
        <time>2026-06-18T12:59:03.000Z</time>
        <extensions>
          <ns3:TrackPointExtension>
            <ns3:atemp>30.0</ns3:atemp>
          </ns3:TrackPointExtension>
        </extensions>
      </trkpt>
      <trkpt lat="42.5285809300839900970458984375" lon="19.788788594305515289306640625">
        <ele>1106.199951171875</ele>
        <time>2026-06-18T12:59:04.000Z</time>
        <extensions>
          <ns3:TrackPointExtension>
            <ns3:atemp>30.0</ns3:atemp>
          </ns3:TrackPointExtension>
        </extensions>
      </trkpt>
      <trkpt lat="42.52867857925593852996826171875" lon="19.78887618519365787506103515625">
        <ele>1105</ele>
        <time>2026-06-18T12:59:05.000Z</time>
        <extensions>
          <ns3:TrackPointExtension>
            <ns3:atemp>30.0</ns3:atemp>
          </ns3:TrackPointExtension>
        </extensions>
      </trkpt>
      <trkpt lat="42.5287717022001743316650390625" lon="19.78897266089916229248046875">
        <ele>1103.5999755859375</ele>
        <time>2026-06-18T12:59:06.000Z</time>
        <extensions>
          <ns3:TrackPointExtension>
            <ns3:atemp>30.0</ns3:atemp>
          </ns3:TrackPointExtension>
        </extensions>
      </trkpt>
      <trkpt lat="42.52885040827095508575439453125" lon="19.7890739142894744873046875">
        <ele>1102.199951171875</ele>
        <time>2026-06-18T12:59:07.000Z</time>
        <extensions>
          <ns3:TrackPointExtension>
            <ns3:atemp>30.0</ns3:atemp>
          </ns3:TrackPointExtension>
        </extensions>
      </trkpt>
      <trkpt lat="42.5289038009941577911376953125" lon="19.78918480686843395233154296875">
        <ele>1101.199951171875</ele>
        <time>2026-06-18T12:59:08.000Z</time>
        <extensions>
          <ns3:TrackPointExtension>
            <ns3:atemp>30.0</ns3:atemp>
          </ns3:TrackPointExtension>
        </extensions>
      </trkpt>
      <trkpt lat="42.5289467163383960723876953125" lon="19.7893040813505649566650390625">
        <ele>1100.199951171875</ele>
        <time>2026-06-18T12:59:09.000Z</time>
        <extensions>
          <ns3:TrackPointExtension>
            <ns3:atemp>30.0</ns3:atemp>
          </ns3:TrackPointExtension>
        </extensions>
      </trkpt>
      <trkpt lat="42.52900145016610622406005859375" lon="19.7894264571368694305419921875">
        <ele>1099.4000244140625</ele>
        <time>2026-06-18T12:59:10.000Z</time>
        <extensions>
          <ns3:TrackPointExtension>
            <ns3:atemp>30.0</ns3:atemp>
          </ns3:TrackPointExtension>
        </extensions>
      </trkpt>
      <trkpt lat="42.52906917594373226165771484375" lon="19.7895407862961292266845703125">
        <ele>1098.5999755859375</ele>
        <time>2026-06-18T12:59:11.000Z</time>
        <extensions>
          <ns3:TrackPointExtension>
            <ns3:atemp>30.0</ns3:atemp>
          </ns3:TrackPointExtension>
        </extensions>
      </trkpt>
      <trkpt lat="42.529138661921024322509765625" lon="19.78965050540864467620849609375">
        <ele>1097.800048828125</ele>
        <time>2026-06-18T12:59:12.000Z</time>
        <extensions>
          <ns3:TrackPointExtension>
            <ns3:atemp>30.0</ns3:atemp>
          </ns3:TrackPointExtension>
        </extensions>
      </trkpt>
      <trkpt lat="42.52920730970799922943115234375" lon="19.789759218692779541015625">
        <ele>1097</ele>
        <time>2026-06-18T12:59:13.000Z</time>
        <extensions>
          <ns3:TrackPointExtension>
            <ns3:atemp>30.0</ns3:atemp>
          </ns3:TrackPointExtension>
        </extensions>
      </trkpt>
      <trkpt lat="42.529272772371768951416015625" lon="19.7898770682513713836669921875">
        <ele>1096.4000244140625</ele>
        <time>2026-06-18T12:59:14.000Z</time>
        <extensions>
          <ns3:TrackPointExtension>
            <ns3:atemp>30.0</ns3:atemp>
          </ns3:TrackPointExtension>
        </extensions>
      </trkpt>
      <trkpt lat="42.52932800911366939544677734375" lon="19.79000925086438655853271484375">
        <ele>1095.5999755859375</ele>
        <time>2026-06-18T12:59:15.000Z</time>
        <extensions>
          <ns3:TrackPointExtension>
            <ns3:atemp>30.0</ns3:atemp>
          </ns3:TrackPointExtension>
        </extensions>
      </trkpt>
      <trkpt lat="42.529375366866588592529296875" lon="19.79014503769576549530029296875">
        <ele>1094.5999755859375</ele>
        <time>2026-06-18T12:59:16.000Z</time>
        <extensions>
          <ns3:TrackPointExtension>
            <ns3:atemp>30.0</ns3:atemp>
          </ns3:TrackPointExtension>
        </extensions>
      </trkpt>
      <trkpt lat="42.5294266641139984130859375" lon="19.79028082452714443206787109375">
        <ele>1093.800048828125</ele>
        <time>2026-06-18T12:59:17.000Z</time>
        <extensions>
          <ns3:TrackPointExtension>
            <ns3:atemp>30.0</ns3:atemp>
          </ns3:TrackPointExtension>
        </extensions>
      </trkpt>
      <trkpt lat="42.52948609180748462677001953125" lon="19.790412001311779022216796875">
        <ele>1093</ele>
        <time>2026-06-18T12:59:18.000Z</time>
        <extensions>
          <ns3:TrackPointExtension>
            <ns3:atemp>30.0</ns3:atemp>
          </ns3:TrackPointExtension>
        </extensions>
      </trkpt>
      <trkpt lat="42.52954778261482715606689453125" lon="19.79054116643965244293212890625">
        <ele>1092</ele>
        <time>2026-06-18T12:59:19.000Z</time>
        <extensions>
          <ns3:TrackPointExtension>
            <ns3:atemp>30.0</ns3:atemp>
          </ns3:TrackPointExtension>
        </extensions>
      </trkpt>
      <trkpt lat="42.529612742364406585693359375" lon="19.7906686551868915557861328125">
        <ele>1091</ele>
        <time>2026-06-18T12:59:20.000Z</time>
        <extensions>
          <ns3:TrackPointExtension>
            <ns3:atemp>30.0</ns3:atemp>
          </ns3:TrackPointExtension>
        </extensions>
      </trkpt>
      <trkpt lat="42.5296762771904468536376953125" lon="19.79079253971576690673828125">
        <ele>1089.800048828125</ele>
        <time>2026-06-18T12:59:21.000Z</time>
        <extensions>
          <ns3:TrackPointExtension>
            <ns3:atemp>30.0</ns3:atemp>
          </ns3:TrackPointExtension>
        </extensions>
      </trkpt>
      <trkpt lat="42.52974442206323146820068359375" lon="19.790912233293056488037109375">
        <ele>1088.800048828125</ele>
        <time>2026-06-18T12:59:22.000Z</time>
        <extensions>
          <ns3:TrackPointExtension>
            <ns3:atemp>30.0</ns3:atemp>
          </ns3:TrackPointExtension>
        </extensions>
      </trkpt>
      <trkpt lat="42.5298180989921092987060546875" lon="19.79102899320423603057861328125">
        <ele>1087.5999755859375</ele>
        <time>2026-06-18T12:59:23.000Z</time>
        <extensions>
          <ns3:TrackPointExtension>
            <ns3:atemp>30.0</ns3:atemp>
          </ns3:TrackPointExtension>
        </extensions>
      </trkpt>
      <trkpt lat="42.5298962183296680450439453125" lon="19.7911400534212589263916015625">
        <ele>1086.5999755859375</ele>
        <time>2026-06-18T12:59:24.000Z</time>
        <extensions>
          <ns3:TrackPointExtension>
            <ns3:atemp>30.0</ns3:atemp>
          </ns3:TrackPointExtension>
        </extensions>
      </trkpt>
      <trkpt lat="42.5299797020852565765380859375" lon="19.791238121688365936279296875">
        <ele>1085.4000244140625</ele>
        <time>2026-06-18T12:59:25.000Z</time>
        <extensions>
          <ns3:TrackPointExtension>
            <ns3:atemp>30.0</ns3:atemp>
          </ns3:TrackPointExtension>
        </extensions>
      </trkpt>
      <trkpt lat="42.53006947226822376251220703125" lon="19.79132940061390399932861328125">
        <ele>1084.4000244140625</ele>
        <time>2026-06-18T12:59:26.000Z</time>
        <extensions>
          <ns3:TrackPointExtension>
            <ns3:atemp>30.0</ns3:atemp>
          </ns3:TrackPointExtension>
        </extensions>
      </trkpt>
      <trkpt lat="42.53015513531863689422607421875" lon="19.791425205767154693603515625">
        <ele>1083.5999755859375</ele>
        <time>2026-06-18T12:59:27.000Z</time>
        <extensions>
          <ns3:TrackPointExtension>
            <ns3:atemp>30.0</ns3:atemp>
          </ns3:TrackPointExtension>
        </extensions>
      </trkpt>
      <trkpt lat="42.53024247474968433380126953125" lon="19.79151883162558078765869140625">
        <ele>1083</ele>
        <time>2026-06-18T12:59:28.000Z</time>
        <extensions>
          <ns3:TrackPointExtension>
            <ns3:atemp>30.0</ns3:atemp>
          </ns3:TrackPointExtension>
        </extensions>
      </trkpt>
      <trkpt lat="42.5303300656378269195556640625" lon="19.791600219905376434326171875">
        <ele>1082.4000244140625</ele>
        <time>2026-06-18T12:59:29.000Z</time>
        <extensions>
          <ns3:TrackPointExtension>
            <ns3:atemp>30.0</ns3:atemp>
          </ns3:TrackPointExtension>
        </extensions>
      </trkpt>
      <trkpt lat="42.5304128788411617279052734375" lon="19.79167900979518890380859375">
        <ele>1081.5999755859375</ele>
        <time>2026-06-18T12:59:30.000Z</time>
        <extensions>
          <ns3:TrackPointExtension>
            <ns3:atemp>30.0</ns3:atemp>
          </ns3:TrackPointExtension>
        </extensions>
      </trkpt>
      <trkpt lat="42.53048680722713470458984375" lon="19.79176844470202922821044921875">
        <ele>1081.199951171875</ele>
        <time>2026-06-18T12:59:31.000Z</time>
        <extensions>
          <ns3:TrackPointExtension>
            <ns3:atemp>30.0</ns3:atemp>
          </ns3:TrackPointExtension>
        </extensions>
      </trkpt>
      <trkpt lat="42.530550844967365264892578125" lon="19.79186366312205791473388671875">
        <ele>1080.800048828125</ele>
        <time>2026-06-18T12:59:32.000Z</time>
        <extensions>
          <ns3:TrackPointExtension>
            <ns3:atemp>30.0</ns3:atemp>
          </ns3:TrackPointExtension>
        </extensions>
      </trkpt>
      <trkpt lat="42.53061111085116863250732421875" lon="19.79195795953273773193359375">
        <ele>1080.5999755859375</ele>
        <time>2026-06-18T12:59:33.000Z</time>
        <extensions>
          <ns3:TrackPointExtension>
            <ns3:atemp>30.0</ns3:atemp>
          </ns3:TrackPointExtension>
        </extensions>
      </trkpt>
      <trkpt lat="42.53066651523113250732421875" lon="19.79205326177179813385009765625">
        <ele>1080.4000244140625</ele>
        <time>2026-06-18T12:59:34.000Z</time>
        <extensions>
          <ns3:TrackPointExtension>
            <ns3:atemp>30.0</ns3:atemp>
          </ns3:TrackPointExtension>
        </extensions>
      </trkpt>
      <trkpt lat="42.530718147754669189453125" lon="19.7921505756676197052001953125">
        <ele>1080.199951171875</ele>
        <time>2026-06-18T12:59:35.000Z</time>
        <extensions>
          <ns3:TrackPointExtension>
            <ns3:atemp>30.0</ns3:atemp>
          </ns3:TrackPointExtension>
        </extensions>
      </trkpt>
      <trkpt lat="42.53076399676501750946044921875" lon="19.79224738664925098419189453125">
        <ele>1080.199951171875</ele>
        <time>2026-06-18T12:59:36.000Z</time>
        <extensions>
          <ns3:TrackPointExtension>
            <ns3:atemp>30.0</ns3:atemp>
          </ns3:TrackPointExtension>
        </extensions>
      </trkpt>
      <trkpt lat="42.530809678137302398681640625" lon="19.792343191802501678466796875">
        <ele>1080</ele>
        <time>2026-06-18T12:59:37.000Z</time>
        <extensions>
          <ns3:TrackPointExtension>
            <ns3:atemp>30.0</ns3:atemp>
          </ns3:TrackPointExtension>
        </extensions>
      </trkpt>
      <trkpt lat="42.5308554433286190032958984375" lon="19.792430698871612548828125">
        <ele>1080</ele>
        <time>2026-06-18T12:59:38.000Z</time>
        <extensions>
          <ns3:TrackPointExtension>
            <ns3:atemp>30.0</ns3:atemp>
          </ns3:TrackPointExtension>
        </extensions>
      </trkpt>
      <trkpt lat="42.53089944832026958465576171875" lon="19.79251627810299396514892578125">
        <ele>1080</ele>
        <time>2026-06-18T12:59:39.000Z</time>
        <extensions>
          <ns3:TrackPointExtension>
            <ns3:atemp>30.0</ns3:atemp>
          </ns3:TrackPointExtension>
        </extensions>
      </trkpt>
      <trkpt lat="42.5309446267783641815185546875" lon="19.7926038689911365509033203125">
        <ele>1080</ele>
        <time>2026-06-18T12:59:40.000Z</time>
        <extensions>
          <ns3:TrackPointExtension>
            <ns3:atemp>30.0</ns3:atemp>
          </ns3:TrackPointExtension>
        </extensions>
      </trkpt>
      <trkpt lat="42.53098594956099987030029296875" lon="19.79268508963286876678466796875">
        <ele>1080</ele>
        <time>2026-06-18T12:59:41.000Z</time>
        <extensions>
          <ns3:TrackPointExtension>
            <ns3:atemp>30.0</ns3:atemp>
          </ns3:TrackPointExtension>
        </extensions>
      </trkpt>
      <trkpt lat="42.53102232702076435089111328125" lon="19.79276488535106182098388671875">
        <ele>1080</ele>
        <time>2026-06-18T12:59:42.000Z</time>
        <extensions>
          <ns3:TrackPointExtension>
            <ns3:atemp>30.0</ns3:atemp>
          </ns3:TrackPointExtension>
        </extensions>
      </trkpt>
      <trkpt lat="42.53106339834630489349365234375" lon="19.79283411987125873565673828125">
        <ele>1080</ele>
        <time>2026-06-18T12:59:43.000Z</time>
        <extensions>
          <ns3:TrackPointExtension>
            <ns3:atemp>30.0</ns3:atemp>
          </ns3:TrackPointExtension>
        </extensions>
      </trkpt>
      <trkpt lat="42.531108073890209197998046875" lon="19.79289312846958637237548828125">
        <ele>1080</ele>
        <time>2026-06-18T12:59:44.000Z</time>
        <extensions>
          <ns3:TrackPointExtension>
            <ns3:atemp>30.0</ns3:atemp>
          </ns3:TrackPointExtension>
        </extensions>
      </trkpt>
      <trkpt lat="42.53115358762443065643310546875" lon="19.792945683002471923828125">
        <ele>1080.199951171875</ele>
        <time>2026-06-18T12:59:45.000Z</time>
        <extensions>
          <ns3:TrackPointExtension>
            <ns3:atemp>30.0</ns3:atemp>
          </ns3:TrackPointExtension>
        </extensions>
      </trkpt>
      <trkpt lat="42.53119893372058868408203125" lon="19.79299689643085002899169921875">
        <ele>1080.199951171875</ele>
        <time>2026-06-18T12:59:46.000Z</time>
        <extensions>
          <ns3:TrackPointExtension>
            <ns3:atemp>30.0</ns3:atemp>
          </ns3:TrackPointExtension>
        </extensions>
      </trkpt>
      <trkpt lat="42.5312426872551441192626953125" lon="19.793050624430179595947265625">
        <ele>1080.4000244140625</ele>
        <time>2026-06-18T12:59:47.000Z</time>
        <extensions>
          <ns3:TrackPointExtension>
            <ns3:atemp>30.0</ns3:atemp>
          </ns3:TrackPointExtension>
        </extensions>
      </trkpt>
      <trkpt lat="42.5312869437038898468017578125" lon="19.7931057773530483245849609375">
        <ele>1080.4000244140625</ele>
        <time>2026-06-18T12:59:48.000Z</time>
        <extensions>
          <ns3:TrackPointExtension>
            <ns3:atemp>30.0</ns3:atemp>
          </ns3:TrackPointExtension>
        </extensions>
      </trkpt>
      <trkpt lat="42.5313295237720012664794921875" lon="19.79315917007625102996826171875">
        <ele>1080.5999755859375</ele>
        <time>2026-06-18T12:59:49.000Z</time>
        <extensions>
          <ns3:TrackPointExtension>
            <ns3:atemp>30.0</ns3:atemp>
          </ns3:TrackPointExtension>
        </extensions>
      </trkpt>
      <trkpt lat="42.53137285821139812469482421875" lon="19.79320912621915340423583984375">
        <ele>1080.800048828125</ele>
        <time>2026-06-18T12:59:50.000Z</time>
        <extensions>
          <ns3:TrackPointExtension>
            <ns3:atemp>30.0</ns3:atemp>
          </ns3:TrackPointExtension>
        </extensions>
      </trkpt>
      <trkpt lat="42.5314166955649852752685546875" lon="19.793255813419818878173828125">
        <ele>1080.800048828125</ele>
        <time>2026-06-18T12:59:51.000Z</time>
        <extensions>
          <ns3:TrackPointExtension>
            <ns3:atemp>30.0</ns3:atemp>
          </ns3:TrackPointExtension>
        </extensions>
      </trkpt>
      <trkpt lat="42.531462796032428741455078125" lon="19.79329797439277172088623046875">
        <ele>1081</ele>
        <time>2026-06-18T12:59:52.000Z</time>
        <extensions>
          <ns3:TrackPointExtension>
            <ns3:atemp>30.0</ns3:atemp>
          </ns3:TrackPointExtension>
        </extensions>
      </trkpt>
      <trkpt lat="42.5315102376043796539306640625" lon="19.79333653114736080169677734375">
        <ele>1081.199951171875</ele>
        <time>2026-06-18T12:59:53.000Z</time>
        <extensions>
          <ns3:TrackPointExtension>
            <ns3:atemp>30.0</ns3:atemp>
          </ns3:TrackPointExtension>
        </extensions>
      </trkpt>
      <trkpt lat="42.53155357204377651214599609375" lon="19.79337408207356929779052734375">
        <ele>1081.4000244140625</ele>
        <time>2026-06-18T12:59:54.000Z</time>
        <extensions>
          <ns3:TrackPointExtension>
            <ns3:atemp>30.0</ns3:atemp>
          </ns3:TrackPointExtension>
        </extensions>
      </trkpt>
      <trkpt lat="42.53160118125379085540771484375" lon="19.79341574013233184814453125">
        <ele>1081.5999755859375</ele>
        <time>2026-06-18T12:59:55.000Z</time>
        <extensions>
          <ns3:TrackPointExtension>
            <ns3:atemp>30.0</ns3:atemp>
          </ns3:TrackPointExtension>
        </extensions>
      </trkpt>
      <trkpt lat="42.5316502153873443603515625" lon="19.79346225969493389129638671875">
        <ele>1081.5999755859375</ele>
        <time>2026-06-18T12:59:56.000Z</time>
        <extensions>
          <ns3:TrackPointExtension>
            <ns3:atemp>30.0</ns3:atemp>
          </ns3:TrackPointExtension>
        </extensions>
      </trkpt>
      <trkpt lat="42.53169824369251728057861328125" lon="19.79351221583783626556396484375">
        <ele>1081.4000244140625</ele>
        <time>2026-06-18T12:59:57.000Z</time>
        <extensions>
          <ns3:TrackPointExtension>
            <ns3:atemp>30.0</ns3:atemp>
          </ns3:TrackPointExtension>
        </extensions>
      </trkpt>
      <trkpt lat="42.5317472778260707855224609375" lon="19.7935637645423412322998046875">
        <ele>1081.4000244140625</ele>
        <time>2026-06-18T12:59:58.000Z</time>
        <extensions>
          <ns3:TrackPointExtension>
            <ns3:atemp>30.0</ns3:atemp>
          </ns3:TrackPointExtension>
        </extensions>
      </trkpt>
      <trkpt lat="42.53179664723575115203857421875" lon="19.79361162520945072174072265625">
        <ele>1081.4000244140625</ele>
        <time>2026-06-18T12:59:59.000Z</time>
        <extensions>
          <ns3:TrackPointExtension>
            <ns3:atemp>30.0</ns3:atemp>
          </ns3:TrackPointExtension>
        </extensions>
      </trkpt>
      <trkpt lat="42.531847693026065826416015625" lon="19.793660156428813934326171875">
        <ele>1081.199951171875</ele>
        <time>2026-06-18T13:00:00.000Z</time>
        <extensions>
          <ns3:TrackPointExtension>
            <ns3:atemp>30.0</ns3:atemp>
          </ns3:TrackPointExtension>
        </extensions>
      </trkpt>
      <trkpt lat="42.53189739771187305450439453125" lon="19.7937089391052722930908203125">
        <ele>1081</ele>
        <time>2026-06-18T13:00:01.000Z</time>
        <extensions>
          <ns3:TrackPointExtension>
            <ns3:atemp>30.0</ns3:atemp>
          </ns3:TrackPointExtension>
        </extensions>
      </trkpt>
      <trkpt lat="42.53194727003574371337890625" lon="19.793755710124969482421875">
        <ele>1081</ele>
        <time>2026-06-18T13:00:02.000Z</time>
        <extensions>
          <ns3:TrackPointExtension>
            <ns3:atemp>30.0</ns3:atemp>
          </ns3:TrackPointExtension>
        </extensions>
      </trkpt>
      <trkpt lat="42.53199747763574123382568359375" lon="19.79380273260176181793212890625">
        <ele>1080.800048828125</ele>
        <time>2026-06-18T13:00:03.000Z</time>
        <extensions>
          <ns3:TrackPointExtension>
            <ns3:atemp>30.0</ns3:atemp>
          </ns3:TrackPointExtension>
        </extensions>
      </trkpt>
      <trkpt lat="42.53204709850251674652099609375" lon="19.7938464023172855377197265625">
        <ele>1080.5999755859375</ele>
        <time>2026-06-18T13:00:04.000Z</time>
        <extensions>
          <ns3:TrackPointExtension>
            <ns3:atemp>30.0</ns3:atemp>
          </ns3:TrackPointExtension>
        </extensions>
      </trkpt>
      <trkpt lat="42.5320946238934993743896484375" lon="19.793886132538318634033203125">
        <ele>1080.4000244140625</ele>
        <time>2026-06-18T13:00:05.000Z</time>
        <extensions>
          <ns3:TrackPointExtension>
            <ns3:atemp>30.0</ns3:atemp>
          </ns3:TrackPointExtension>
        </extensions>
      </trkpt>
      <trkpt lat="42.53214315511286258697509765625" lon="19.79392795823514461517333984375">
        <ele>1080.4000244140625</ele>
        <time>2026-06-18T13:00:06.000Z</time>
        <extensions>
          <ns3:TrackPointExtension>
            <ns3:atemp>30.0</ns3:atemp>
          </ns3:TrackPointExtension>
        </extensions>
      </trkpt>
      <trkpt lat="42.53218908794224262237548828125" lon="19.79396400041878223419189453125">
        <ele>1080.199951171875</ele>
        <time>2026-06-18T13:00:07.000Z</time>
        <extensions>
          <ns3:TrackPointExtension>
            <ns3:atemp>30.0</ns3:atemp>
          </ns3:TrackPointExtension>
        </extensions>
      </trkpt>
      <trkpt lat="42.532239295542240142822265625" lon="19.79400306008756160736083984375">
        <ele>1080.199951171875</ele>
        <time>2026-06-18T13:00:08.000Z</time>
        <extensions>
          <ns3:TrackPointExtension>
            <ns3:atemp>30.0</ns3:atemp>
          </ns3:TrackPointExtension>
        </extensions>
      </trkpt>
      <trkpt lat="42.53229050897061824798583984375" lon="19.79403642006218433380126953125">
        <ele>1080.199951171875</ele>
        <time>2026-06-18T13:00:09.000Z</time>
        <extensions>
          <ns3:TrackPointExtension>
            <ns3:atemp>30.0</ns3:atemp>
          </ns3:TrackPointExtension>
        </extensions>
      </trkpt>
      <trkpt lat="42.53234515897929668426513671875" lon="19.79406508617103099822998046875">
        <ele>1080.199951171875</ele>
        <time>2026-06-18T13:00:10.000Z</time>
        <extensions>
          <ns3:TrackPointExtension>
            <ns3:atemp>30.0</ns3:atemp>
          </ns3:TrackPointExtension>
        </extensions>
      </trkpt>
      <trkpt lat="42.53240852616727352142333984375" lon="19.79409442283213138580322265625">
        <ele>1080.199951171875</ele>
        <time>2026-06-18T13:00:11.000Z</time>
        <extensions>
          <ns3:TrackPointExtension>
            <ns3:atemp>29.0</ns3:atemp>
          </ns3:TrackPointExtension>
        </extensions>
      </trkpt>
      <trkpt lat="42.53247306682169437408447265625" lon="19.79411805979907512664794921875">
        <ele>1080.199951171875</ele>
        <time>2026-06-18T13:00:12.000Z</time>
        <extensions>
          <ns3:TrackPointExtension>
            <ns3:atemp>29.0</ns3:atemp>
          </ns3:TrackPointExtension>
        </extensions>
      </trkpt>
      <trkpt lat="42.5325381942093372344970703125" lon="19.7941352427005767822265625">
        <ele>1080</ele>
        <time>2026-06-18T13:00:13.000Z</time>
        <extensions>
          <ns3:TrackPointExtension>
            <ns3:atemp>29.0</ns3:atemp>
          </ns3:TrackPointExtension>
        </extensions>
      </trkpt>
      <trkpt lat="42.5326025672256946563720703125" lon="19.79414664208889007568359375">
        <ele>1079.800048828125</ele>
        <time>2026-06-18T13:00:14.000Z</time>
        <extensions>
          <ns3:TrackPointExtension>
            <ns3:atemp>29.0</ns3:atemp>
          </ns3:TrackPointExtension>
        </extensions>
      </trkpt>
      <trkpt lat="42.53266610205173492431640625" lon="19.7941551916301250457763671875">
        <ele>1079.800048828125</ele>
        <time>2026-06-18T13:00:15.000Z</time>
        <extensions>
          <ns3:TrackPointExtension>
            <ns3:atemp>29.0</ns3:atemp>
          </ns3:TrackPointExtension>
        </extensions>
      </trkpt>
      <trkpt lat="42.53273005597293376922607421875" lon="19.79416365735232830047607421875">
        <ele>1079.5999755859375</ele>
        <time>2026-06-18T13:00:16.000Z</time>
        <extensions>
          <ns3:TrackPointExtension>
            <ns3:atemp>29.0</ns3:atemp>
          </ns3:TrackPointExtension>
        </extensions>
      </trkpt>
      <trkpt lat="42.53279459662735462188720703125" lon="19.79417539201676845550537109375">
        <ele>1079.4000244140625</ele>
        <time>2026-06-18T13:00:17.000Z</time>
        <extensions>
          <ns3:TrackPointExtension>
            <ns3:atemp>29.0</ns3:atemp>
          </ns3:TrackPointExtension>
        </extensions>
      </trkpt>
      <trkpt lat="42.53285997547209262847900390625" lon="19.79418712668120861053466796875">
        <ele>1079.199951171875</ele>
        <time>2026-06-18T13:00:18.000Z</time>
        <extensions>
          <ns3:TrackPointExtension>
            <ns3:atemp>29.0</ns3:atemp>
          </ns3:TrackPointExtension>
        </extensions>
      </trkpt>
      <trkpt lat="42.53292853944003582000732421875" lon="19.794199280440807342529296875">
        <ele>1078.800048828125</ele>
        <time>2026-06-18T13:00:19.000Z</time>
        <extensions>
          <ns3:TrackPointExtension>
            <ns3:atemp>29.0</ns3:atemp>
          </ns3:TrackPointExtension>
        </extensions>
      </trkpt>
      <trkpt lat="42.53299458883702754974365234375" lon="19.79421101510524749755859375">
        <ele>1078.5999755859375</ele>
        <time>2026-06-18T13:00:20.000Z</time>
        <extensions>
          <ns3:TrackPointExtension>
            <ns3:atemp>29.0</ns3:atemp>
          </ns3:TrackPointExtension>
        </extensions>
      </trkpt>
      <trkpt lat="42.53306466154754161834716796875" lon="19.7942239232361316680908203125">
        <ele>1078.5999755859375</ele>
        <time>2026-06-18T13:00:21.000Z</time>
        <extensions>
          <ns3:TrackPointExtension>
            <ns3:atemp>29.0</ns3:atemp>
          </ns3:TrackPointExtension>
        </extensions>
      </trkpt>
      <trkpt lat="42.53313674591481685638427734375" lon="19.79422937147319316864013671875">
        <ele>1078.199951171875</ele>
        <time>2026-06-18T13:00:22.000Z</time>
        <extensions>
          <ns3:TrackPointExtension>
            <ns3:atemp>29.0</ns3:atemp>
          </ns3:TrackPointExtension>
        </extensions>
      </trkpt>
      <trkpt lat="42.5332080759108066558837890625" lon="19.79423725046217441558837890625">
        <ele>1077.800048828125</ele>
        <time>2026-06-18T13:00:23.000Z</time>
        <extensions>
          <ns3:TrackPointExtension>
            <ns3:atemp>29.0</ns3:atemp>
          </ns3:TrackPointExtension>
        </extensions>
      </trkpt>
      <trkpt lat="42.533279322087764739990234375" lon="19.79424244724214076995849609375">
        <ele>1077.4000244140625</ele>
        <time>2026-06-18T13:00:24.000Z</time>
        <extensions>
          <ns3:TrackPointExtension>
            <ns3:atemp>29.0</ns3:atemp>
          </ns3:TrackPointExtension>
        </extensions>
      </trkpt>
      <trkpt lat="42.53335408866405487060546875" lon="19.7942497394979000091552734375">
        <ele>1077</ele>
        <time>2026-06-18T13:00:25.000Z</time>
        <extensions>
          <ns3:TrackPointExtension>
            <ns3:atemp>29.0</ns3:atemp>
          </ns3:TrackPointExtension>
        </extensions>
      </trkpt>
      <trkpt lat="42.5334293581545352935791015625" lon="19.79425619356334209442138671875">
        <ele>1076.4000244140625</ele>
        <time>2026-06-18T13:00:26.000Z</time>
        <extensions>
          <ns3:TrackPointExtension>
            <ns3:atemp>29.0</ns3:atemp>
          </ns3:TrackPointExtension>
        </extensions>
      </trkpt>
      <trkpt lat="42.53351326100528240203857421875" lon="19.79425954632461071014404296875">
        <ele>1075.800048828125</ele>
        <time>2026-06-18T13:00:27.000Z</time>
        <extensions>
          <ns3:TrackPointExtension>
            <ns3:atemp>29.0</ns3:atemp>
          </ns3:TrackPointExtension>
        </extensions>
      </trkpt>
      <trkpt lat="42.53360630013048648834228515625" lon="19.79425686411559581756591796875">
        <ele>1075</ele>
        <time>2026-06-18T13:00:28.000Z</time>
        <extensions>
          <ns3:TrackPointExtension>
            <ns3:atemp>29.0</ns3:atemp>
          </ns3:TrackPointExtension>
        </extensions>
      </trkpt>
      <trkpt lat="42.5336962379515171051025390625" lon="19.79426340200006961822509765625">
        <ele>1074.4000244140625</ele>
        <time>2026-06-18T13:00:29.000Z</time>
        <extensions>
          <ns3:TrackPointExtension>
            <ns3:atemp>29.0</ns3:atemp>
          </ns3:TrackPointExtension>
        </extensions>
      </trkpt>
      <trkpt lat="42.533794976770877838134765625" lon="19.79426960460841655731201171875">
        <ele>1073.4000244140625</ele>
        <time>2026-06-18T13:00:30.000Z</time>
        <extensions>
          <ns3:TrackPointExtension>
            <ns3:atemp>29.0</ns3:atemp>
          </ns3:TrackPointExtension>
        </extensions>
      </trkpt>
      <trkpt lat="42.53389455378055572509765625" lon="19.79427379556000232696533203125">
        <ele>1072.5999755859375</ele>
        <time>2026-06-18T13:00:31.000Z</time>
        <extensions>
          <ns3:TrackPointExtension>
            <ns3:atemp>29.0</ns3:atemp>
          </ns3:TrackPointExtension>
        </extensions>
      </trkpt>
      <trkpt lat="42.53399119712412357330322265625" lon="19.7942869551479816436767578125">
        <ele>1071.5999755859375</ele>
        <time>2026-06-18T13:00:32.000Z</time>
        <extensions>
          <ns3:TrackPointExtension>
            <ns3:atemp>29.0</ns3:atemp>
          </ns3:TrackPointExtension>
        </extensions>
      </trkpt>
      <trkpt lat="42.534087002277374267578125" lon="19.7943017072975635528564453125">
        <ele>1070.800048828125</ele>
        <time>2026-06-18T13:00:33.000Z</time>
        <extensions>
          <ns3:TrackPointExtension>
            <ns3:atemp>29.0</ns3:atemp>
          </ns3:TrackPointExtension>
        </extensions>
      </trkpt>
      <trkpt lat="42.53418498672544956207275390625" lon="19.7943154536187648773193359375">
        <ele>1070</ele>
        <time>2026-06-18T13:00:34.000Z</time>
        <extensions>
          <ns3:TrackPointExtension>
            <ns3:atemp>29.0</ns3:atemp>
          </ns3:TrackPointExtension>
        </extensions>
      </trkpt>
      <trkpt lat="42.534287832677364349365234375" lon="19.7943345643579959869384765625">
        <ele>1069.199951171875</ele>
        <time>2026-06-18T13:00:35.000Z</time>
        <extensions>
          <ns3:TrackPointExtension>
            <ns3:atemp>29.0</ns3:atemp>
          </ns3:TrackPointExtension>
        </extensions>
      </trkpt>
      <trkpt lat="42.53438967280089855194091796875" lon="19.79434940032660961151123046875">
        <ele>1068.4000244140625</ele>
        <time>2026-06-18T13:00:36.000Z</time>
        <extensions>
          <ns3:TrackPointExtension>
            <ns3:atemp>29.0</ns3:atemp>
          </ns3:TrackPointExtension>
        </extensions>
      </trkpt>
      <trkpt lat="42.53448824398219585418701171875" lon="19.79434269480407238006591796875">
        <ele>1067.4000244140625</ele>
        <time>2026-06-18T13:00:37.000Z</time>
        <extensions>
          <ns3:TrackPointExtension>
            <ns3:atemp>29.0</ns3:atemp>
          </ns3:TrackPointExtension>
        </extensions>
      </trkpt>
      <trkpt lat="42.53458865918219089508056640625" lon="19.794347472488880157470703125">
        <ele>1066.800048828125</ele>
        <time>2026-06-18T13:00:38.000Z</time>
        <extensions>
          <ns3:TrackPointExtension>
            <ns3:atemp>29.0</ns3:atemp>
          </ns3:TrackPointExtension>
        </extensions>
      </trkpt>
      <trkpt lat="42.53468873910605907440185546875" lon="19.79435727931559085845947265625">
        <ele>1066.199951171875</ele>
        <time>2026-06-18T13:00:39.000Z</time>
        <extensions>
          <ns3:TrackPointExtension>
            <ns3:atemp>29.0</ns3:atemp>
          </ns3:TrackPointExtension>
        </extensions>
      </trkpt>
      <trkpt lat="42.53478772938251495361328125" lon="19.79436398483812808990478515625">
        <ele>1065.5999755859375</ele>
        <time>2026-06-18T13:00:40.000Z</time>
        <extensions>
          <ns3:TrackPointExtension>
            <ns3:atemp>29.0</ns3:atemp>
          </ns3:TrackPointExtension>
        </extensions>
      </trkpt>
      <trkpt lat="42.5348868034780025482177734375" lon="19.79436415247619152069091796875">
        <ele>1065</ele>
        <time>2026-06-18T13:00:41.000Z</time>
        <extensions>
          <ns3:TrackPointExtension>
            <ns3:atemp>29.0</ns3:atemp>
          </ns3:TrackPointExtension>
        </extensions>
      </trkpt>
      <trkpt lat="42.5349853746592998504638671875" lon="19.79435711167752742767333984375">
        <ele>1064.4000244140625</ele>
        <time>2026-06-18T13:00:42.000Z</time>
        <extensions>
          <ns3:TrackPointExtension>
            <ns3:atemp>29.0</ns3:atemp>
          </ns3:TrackPointExtension>
        </extensions>
      </trkpt>
      <trkpt lat="42.53507933579385280609130859375" lon="19.794350825250148773193359375">
        <ele>1063.800048828125</ele>
        <time>2026-06-18T13:00:43.000Z</time>
        <extensions>
          <ns3:TrackPointExtension>
            <ns3:atemp>29.0</ns3:atemp>
          </ns3:TrackPointExtension>
        </extensions>
      </trkpt>
      <trkpt lat="42.53516918979585170745849609375" lon="19.79434101842343807220458984375">
        <ele>1063.4000244140625</ele>
        <time>2026-06-18T13:00:44.000Z</time>
        <extensions>
          <ns3:TrackPointExtension>
            <ns3:atemp>29.0</ns3:atemp>
          </ns3:TrackPointExtension>
        </extensions>
      </trkpt>
      <trkpt lat="42.53525971435010433197021484375" lon="19.794332720339298248291015625">
        <ele>1063</ele>
        <time>2026-06-18T13:00:45.000Z</time>
        <extensions>
          <ns3:TrackPointExtension>
            <ns3:atemp>29.0</ns3:atemp>
          </ns3:TrackPointExtension>
        </extensions>
      </trkpt>
      <trkpt lat="42.53534956835210323333740234375" lon="19.7943229973316192626953125">
        <ele>1062.800048828125</ele>
        <time>2026-06-18T13:00:46.000Z</time>
        <extensions>
          <ns3:TrackPointExtension>
            <ns3:atemp>29.0</ns3:atemp>
          </ns3:TrackPointExtension>
        </extensions>
      </trkpt>
      <trkpt lat="42.53544009290635585784912109375" lon="19.79432492516934871673583984375">
        <ele>1062.4000244140625</ele>
        <time>2026-06-18T13:00:47.000Z</time>
        <extensions>
          <ns3:TrackPointExtension>
            <ns3:atemp>29.0</ns3:atemp>
          </ns3:TrackPointExtension>
        </extensions>
      </trkpt>
      <trkpt lat="42.5355271808803081512451171875" lon="19.79433313943445682525634765625">
        <ele>1062.199951171875</ele>
        <time>2026-06-18T13:00:48.000Z</time>
        <extensions>
          <ns3:TrackPointExtension>
            <ns3:atemp>29.0</ns3:atemp>
          </ns3:TrackPointExtension>
        </extensions>
      </trkpt>
      <trkpt lat="42.53560907207429409027099609375" lon="19.7943516634404659271240234375">
        <ele>1061.800048828125</ele>
        <time>2026-06-18T13:00:49.000Z</time>
        <extensions>
          <ns3:TrackPointExtension>
            <ns3:atemp>29.0</ns3:atemp>
          </ns3:TrackPointExtension>
        </extensions>
      </trkpt>
      <trkpt lat="42.53569222055375576019287109375" lon="19.79437504895031452178955078125">
        <ele>1061.5999755859375</ele>
        <time>2026-06-18T13:00:50.000Z</time>
        <extensions>
          <ns3:TrackPointExtension>
            <ns3:atemp>29.0</ns3:atemp>
          </ns3:TrackPointExtension>
        </extensions>
      </trkpt>
      <trkpt lat="42.53577344119548797607421875" lon="19.79439835064113140106201171875">
        <ele>1061.4000244140625</ele>
        <time>2026-06-18T13:00:51.000Z</time>
        <extensions>
          <ns3:TrackPointExtension>
            <ns3:atemp>29.0</ns3:atemp>
          </ns3:TrackPointExtension>
        </extensions>
      </trkpt>
      <trkpt lat="42.53584577701985836029052734375" lon="19.79441796429455280303955078125">
        <ele>1061.199951171875</ele>
        <time>2026-06-18T13:00:52.000Z</time>
        <extensions>
          <ns3:TrackPointExtension>
            <ns3:atemp>29.0</ns3:atemp>
          </ns3:TrackPointExtension>
        </extensions>
      </trkpt>
      <trkpt lat="42.5359144248068332672119140625" lon="19.79444109834730625152587890625">
        <ele>1061</ele>
        <time>2026-06-18T13:00:53.000Z</time>
        <extensions>
          <ns3:TrackPointExtension>
            <ns3:atemp>29.0</ns3:atemp>
          </ns3:TrackPointExtension>
        </extensions>
      </trkpt>
      <trkpt lat="42.53598039038479328155517578125" lon="19.7944723628461360931396484375">
        <ele>1061</ele>
        <time>2026-06-18T13:00:54.000Z</time>
        <extensions>
          <ns3:TrackPointExtension>
            <ns3:atemp>29.0</ns3:atemp>
          </ns3:TrackPointExtension>
        </extensions>
      </trkpt>
      <trkpt lat="42.5360401533544063568115234375" lon="19.79450211860239505767822265625">
        <ele>1060.800048828125</ele>
        <time>2026-06-18T13:00:55.000Z</time>
        <extensions>
          <ns3:TrackPointExtension>
            <ns3:atemp>29.0</ns3:atemp>
          </ns3:TrackPointExtension>
        </extensions>
      </trkpt>
      <trkpt lat="42.53609597682952880859375" lon="19.794535897672176361083984375">
        <ele>1060.800048828125</ele>
        <time>2026-06-18T13:00:56.000Z</time>
        <extensions>
          <ns3:TrackPointExtension>
            <ns3:atemp>29.0</ns3:atemp>
          </ns3:TrackPointExtension>
        </extensions>
      </trkpt>
      <trkpt lat="42.5361509621143341064453125" lon="19.79456917382776737213134765625">
        <ele>1060.800048828125</ele>
        <time>2026-06-18T13:00:57.000Z</time>
        <extensions>
          <ns3:TrackPointExtension>
            <ns3:atemp>29.0</ns3:atemp>
          </ns3:TrackPointExtension>
        </extensions>
      </trkpt>
      <trkpt lat="42.53620385192334651947021484375" lon="19.7946091555058956146240234375">
        <ele>1060.5999755859375</ele>
        <time>2026-06-18T13:00:58.000Z</time>
        <extensions>
          <ns3:TrackPointExtension>
            <ns3:atemp>29.0</ns3:atemp>
          </ns3:TrackPointExtension>
        </extensions>
      </trkpt>
      <trkpt lat="42.53625732846558094024658203125" lon="19.79464964009821414947509765625">
        <ele>1060.4000244140625</ele>
        <time>2026-06-18T13:00:59.000Z</time>
        <extensions>
          <ns3:TrackPointExtension>
            <ns3:atemp>29.0</ns3:atemp>
          </ns3:TrackPointExtension>
        </extensions>
      </trkpt>
      <trkpt lat="42.53631181083619594573974609375" lon="19.7946882806718349456787109375">
        <ele>1060.4000244140625</ele>
        <time>2026-06-18T13:01:00.000Z</time>
        <extensions>
          <ns3:TrackPointExtension>
            <ns3:atemp>29.0</ns3:atemp>
          </ns3:TrackPointExtension>
        </extensions>
      </trkpt>
      <trkpt lat="42.53636528737843036651611328125" lon="19.7947251610457897186279296875">
        <ele>1060.199951171875</ele>
        <time>2026-06-18T13:01:01.000Z</time>
        <extensions>
          <ns3:TrackPointExtension>
            <ns3:atemp>29.0</ns3:atemp>
          </ns3:TrackPointExtension>
        </extensions>
      </trkpt>
      <trkpt lat="42.5364173389971256256103515625" lon="19.79476212523877620697021484375">
        <ele>1060</ele>
        <time>2026-06-18T13:01:02.000Z</time>
        <extensions>
          <ns3:TrackPointExtension>
            <ns3:atemp>29.0</ns3:atemp>
          </ns3:TrackPointExtension>
        </extensions>
      </trkpt>
      <trkpt lat="42.53646737895905971527099609375" lon="19.794800765812397003173828125">
        <ele>1060</ele>
        <time>2026-06-18T13:01:03.000Z</time>
        <extensions>
          <ns3:TrackPointExtension>
            <ns3:atemp>29.0</ns3:atemp>
          </ns3:TrackPointExtension>
        </extensions>
      </trkpt>
      <trkpt lat="42.53651775419712066650390625" lon="19.794838987290859222412109375">
        <ele>1060</ele>
        <time>2026-06-18T13:01:04.000Z</time>
        <extensions>
          <ns3:TrackPointExtension>
            <ns3:atemp>29.0</ns3:atemp>
          </ns3:TrackPointExtension>
        </extensions>
      </trkpt>
      <trkpt lat="42.53656812943518161773681640625" lon="19.7948770411312580108642578125">
        <ele>1059.800048828125</ele>
        <time>2026-06-18T13:01:05.000Z</time>
        <extensions>
          <ns3:TrackPointExtension>
            <ns3:atemp>29.0</ns3:atemp>
          </ns3:TrackPointExtension>
        </extensions>
      </trkpt>
      <trkpt lat="42.5366154871881008148193359375" lon="19.7949152626097202301025390625">
        <ele>1059.800048828125</ele>
        <time>2026-06-18T13:01:06.000Z</time>
        <extensions>
          <ns3:TrackPointExtension>
            <ns3:atemp>29.0</ns3:atemp>
          </ns3:TrackPointExtension>
        </extensions>
      </trkpt>
      <trkpt lat="42.5366654433310031890869140625" lon="19.79495172388851642608642578125">
        <ele>1059.5999755859375</ele>
        <time>2026-06-18T13:01:07.000Z</time>
        <extensions>
          <ns3:TrackPointExtension>
            <ns3:atemp>29.0</ns3:atemp>
          </ns3:TrackPointExtension>
        </extensions>
      </trkpt>
      <trkpt lat="42.53671330399811267852783203125" lon="19.79498726315796375274658203125">
        <ele>1059.800048828125</ele>
        <time>2026-06-18T13:01:08.000Z</time>
        <extensions>
          <ns3:TrackPointExtension>
            <ns3:atemp>29.0</ns3:atemp>
          </ns3:TrackPointExtension>
        </extensions>
      </trkpt>
      <trkpt lat="42.536763511598110198974609375" lon="19.79502372443675994873046875">
        <ele>1059.800048828125</ele>
        <time>2026-06-18T13:01:09.000Z</time>
        <extensions>
          <ns3:TrackPointExtension>
            <ns3:atemp>29.0</ns3:atemp>
          </ns3:TrackPointExtension>
        </extensions>
      </trkpt>
      <trkpt lat="42.536813132464885711669921875" lon="19.7950606048107147216796875">
        <ele>1059.800048828125</ele>
        <time>2026-06-18T13:01:10.000Z</time>
        <extensions>
          <ns3:TrackPointExtension>
            <ns3:atemp>29.0</ns3:atemp>
          </ns3:TrackPointExtension>
        </extensions>
      </trkpt>
      <trkpt lat="42.53686065785586833953857421875" lon="19.79509740136563777923583984375">
        <ele>1060</ele>
        <time>2026-06-18T13:01:11.000Z</time>
        <extensions>
          <ns3:TrackPointExtension>
            <ns3:atemp>29.0</ns3:atemp>
          </ns3:TrackPointExtension>
        </extensions>
      </trkpt>
      <trkpt lat="42.53690776415169239044189453125" lon="19.7951301746070384979248046875">
        <ele>1060</ele>
        <time>2026-06-18T13:01:12.000Z</time>
        <extensions>
          <ns3:TrackPointExtension>
            <ns3:atemp>29.0</ns3:atemp>
          </ns3:TrackPointExtension>
        </extensions>
      </trkpt>
      <trkpt lat="42.53695428371429443359375" lon="19.79516563005745410919189453125">
        <ele>1060</ele>
        <time>2026-06-18T13:01:13.000Z</time>
        <extensions>
          <ns3:TrackPointExtension>
            <ns3:atemp>29.0</ns3:atemp>
          </ns3:TrackPointExtension>
        </extensions>
      </trkpt>
      <trkpt lat="42.53699962981045246124267578125" lon="19.7952012531459331512451171875">
        <ele>1060</ele>
        <time>2026-06-18T13:01:14.000Z</time>
        <extensions>
          <ns3:TrackPointExtension>
            <ns3:atemp>29.0</ns3:atemp>
          </ns3:TrackPointExtension>
        </extensions>
      </trkpt>
      <trkpt lat="42.53704480826854705810546875" lon="19.79523360729217529296875">
        <ele>1060.199951171875</ele>
        <time>2026-06-18T13:01:15.000Z</time>
        <extensions>
          <ns3:TrackPointExtension>
            <ns3:atemp>29.0</ns3:atemp>
          </ns3:TrackPointExtension>
        </extensions>
      </trkpt>
      <trkpt lat="42.53708965145051479339599609375" lon="19.7952629439532756805419921875">
        <ele>1060.199951171875</ele>
        <time>2026-06-18T13:01:16.000Z</time>
        <extensions>
          <ns3:TrackPointExtension>
            <ns3:atemp>29.0</ns3:atemp>
          </ns3:TrackPointExtension>
        </extensions>
      </trkpt>
      <trkpt lat="42.53713156096637248992919921875" lon="19.795286245644092559814453125">
        <ele>1060.4000244140625</ele>
        <time>2026-06-18T13:01:17.000Z</time>
        <extensions>
          <ns3:TrackPointExtension>
            <ns3:atemp>29.0</ns3:atemp>
          </ns3:TrackPointExtension>
        </extensions>
      </trkpt>
      <trkpt lat="42.53717313520610332489013671875" lon="19.795309714972972869873046875">
        <ele>1060.5999755859375</ele>
        <time>2026-06-18T13:01:18.000Z</time>
        <extensions>
          <ns3:TrackPointExtension>
            <ns3:atemp>29.0</ns3:atemp>
          </ns3:TrackPointExtension>
        </extensions>
      </trkpt>
      <trkpt lat="42.537212111055850982666015625" lon="19.7953363694250583648681640625">
        <ele>1060.800048828125</ele>
        <time>2026-06-18T13:01:19.000Z</time>
        <extensions>
          <ns3:TrackPointExtension>
            <ns3:atemp>29.0</ns3:atemp>
          </ns3:TrackPointExtension>
        </extensions>
      </trkpt>
      <trkpt lat="42.537253014743328094482421875" lon="19.79536411352455615997314453125">
        <ele>1061</ele>
        <time>2026-06-18T13:01:20.000Z</time>
        <extensions>
          <ns3:TrackPointExtension>
            <ns3:atemp>29.0</ns3:atemp>
          </ns3:TrackPointExtension>
        </extensions>
      </trkpt>
      <trkpt lat="42.53729534335434436798095703125" lon="19.7953953780233860015869140625">
        <ele>1061.199951171875</ele>
        <time>2026-06-18T13:01:21.000Z</time>
        <extensions>
          <ns3:TrackPointExtension>
            <ns3:atemp>29.0</ns3:atemp>
          </ns3:TrackPointExtension>
        </extensions>
      </trkpt>
      <trkpt lat="42.53733222372829914093017578125" lon="19.79542245157063007354736328125">
        <ele>1061.4000244140625</ele>
        <time>2026-06-18T13:01:22.000Z</time>
        <extensions>
          <ns3:TrackPointExtension>
            <ns3:atemp>29.0</ns3:atemp>
          </ns3:TrackPointExtension>
        </extensions>
      </trkpt>
      <trkpt lat="42.5373658351600170135498046875" lon="19.795451201498508453369140625">
        <ele>1061.5999755859375</ele>
        <time>2026-06-18T13:01:23.000Z</time>
        <extensions>
          <ns3:TrackPointExtension>
            <ns3:atemp>29.0</ns3:atemp>
          </ns3:TrackPointExtension>
        </extensions>
      </trkpt>
      <trkpt lat="42.53739760257303714752197265625" lon="19.79548129253089427947998046875">
        <ele>1062</ele>
        <time>2026-06-18T13:01:24.000Z</time>
        <extensions>
          <ns3:TrackPointExtension>
            <ns3:atemp>29.0</ns3:atemp>
          </ns3:TrackPointExtension>
        </extensions>
      </trkpt>
      <trkpt lat="42.537429034709930419921875" lon="19.79551414959132671356201171875">
        <ele>1062.199951171875</ele>
        <time>2026-06-18T13:01:25.000Z</time>
        <extensions>
          <ns3:TrackPointExtension>
            <ns3:atemp>29.0</ns3:atemp>
          </ns3:TrackPointExtension>
        </extensions>
      </trkpt>
      <trkpt lat="42.537464238703250885009765625" lon="19.795539714395999908447265625">
        <ele>1062.4000244140625</ele>
        <time>2026-06-18T13:01:26.000Z</time>
        <extensions>
          <ns3:TrackPointExtension>
            <ns3:atemp>29.0</ns3:atemp>
          </ns3:TrackPointExtension>
        </extensions>
      </trkpt>
      <trkpt lat="42.5374996103346347808837890625" lon="19.79557349346578121185302734375">
        <ele>1062.5999755859375</ele>
        <time>2026-06-18T13:01:27.000Z</time>
        <extensions>
          <ns3:TrackPointExtension>
            <ns3:atemp>28.0</ns3:atemp>
          </ns3:TrackPointExtension>
        </extensions>
      </trkpt>
      <trkpt lat="42.5375374965369701385498046875" lon="19.7956035844981670379638671875">
        <ele>1062.800048828125</ele>
        <time>2026-06-18T13:01:28.000Z</time>
        <extensions>
          <ns3:TrackPointExtension>
            <ns3:atemp>28.0</ns3:atemp>
          </ns3:TrackPointExtension>
        </extensions>
      </trkpt>
      <trkpt lat="42.53758133389055728912353515625" lon="19.79563795030117034912109375">
        <ele>1062.800048828125</ele>
        <time>2026-06-18T13:01:29.000Z</time>
        <extensions>
          <ns3:TrackPointExtension>
            <ns3:atemp>28.0</ns3:atemp>
          </ns3:TrackPointExtension>
        </extensions>
      </trkpt>
      <trkpt lat="42.53762458451092243194580078125" lon="19.7956733219325542449951171875">
        <ele>1062.800048828125</ele>
        <time>2026-06-18T13:01:30.000Z</time>
        <extensions>
          <ns3:TrackPointExtension>
            <ns3:atemp>29.0</ns3:atemp>
          </ns3:TrackPointExtension>
        </extensions>
      </trkpt>
      <trkpt lat="42.53766733221709728240966796875" lon="19.7957081906497478485107421875">
        <ele>1062.5999755859375</ele>
        <time>2026-06-18T13:01:31.000Z</time>
        <extensions>
          <ns3:TrackPointExtension>
            <ns3:atemp>28.0</ns3:atemp>
          </ns3:TrackPointExtension>
        </extensions>
      </trkpt>
      <trkpt lat="42.537715695798397064208984375" lon="19.7957571409642696380615234375">
        <ele>1062.5999755859375</ele>
        <time>2026-06-18T13:01:32.000Z</time>
        <extensions>
          <ns3:TrackPointExtension>
            <ns3:atemp>28.0</ns3:atemp>
          </ns3:TrackPointExtension>
        </extensions>
      </trkpt>
      <trkpt lat="42.53776405937969684600830078125" lon="19.79581237770617008209228515625">
        <ele>1062.4000244140625</ele>
        <time>2026-06-18T13:01:33.000Z</time>
        <extensions>
          <ns3:TrackPointExtension>
            <ns3:atemp>28.0</ns3:atemp>
          </ns3:TrackPointExtension>
        </extensions>
      </trkpt>
      <trkpt lat="42.53781166858971118927001953125" lon="19.79586987756192684173583984375">
        <ele>1062.199951171875</ele>
        <time>2026-06-18T13:01:34.000Z</time>
        <extensions>
          <ns3:TrackPointExtension>
            <ns3:atemp>28.0</ns3:atemp>
          </ns3:TrackPointExtension>
        </extensions>
      </trkpt>
      <trkpt lat="42.53786196000874042510986328125" lon="19.7959308139979839324951171875">
        <ele>1062</ele>
        <time>2026-06-18T13:01:35.000Z</time>
        <extensions>
          <ns3:TrackPointExtension>
            <ns3:atemp>28.0</ns3:atemp>
          </ns3:TrackPointExtension>
        </extensions>
      </trkpt>
      <trkpt lat="42.53791845403611660003662109375" lon="19.7959913313388824462890625">
        <ele>1061.5999755859375</ele>
        <time>2026-06-18T13:01:36.000Z</time>
        <extensions>
          <ns3:TrackPointExtension>
            <ns3:atemp>28.0</ns3:atemp>
          </ns3:TrackPointExtension>
        </extensions>
      </trkpt>
      <trkpt lat="42.5379788875579833984375" lon="19.7960478253662586212158203125">
        <ele>1061.4000244140625</ele>
        <time>2026-06-18T13:01:37.000Z</time>
        <extensions>
          <ns3:TrackPointExtension>
            <ns3:atemp>28.0</ns3:atemp>
          </ns3:TrackPointExtension>
        </extensions>
      </trkpt>
      <trkpt lat="42.53803546540439128875732421875" lon="19.7961004637181758880615234375">
        <ele>1061</ele>
        <time>2026-06-18T13:01:38.000Z</time>
        <extensions>
          <ns3:TrackPointExtension>
            <ns3:atemp>28.0</ns3:atemp>
          </ns3:TrackPointExtension>
        </extensions>
      </trkpt>
      <trkpt lat="42.53809631802141666412353515625" lon="19.7961598075926303863525390625">
        <ele>1060.800048828125</ele>
        <time>2026-06-18T13:01:39.000Z</time>
        <extensions>
          <ns3:TrackPointExtension>
            <ns3:atemp>28.0</ns3:atemp>
          </ns3:TrackPointExtension>
        </extensions>
      </trkpt>
      <trkpt lat="42.53815591335296630859375" lon="19.79621470905840396881103515625">
        <ele>1060.4000244140625</ele>
        <time>2026-06-18T13:01:40.000Z</time>
        <extensions>
          <ns3:TrackPointExtension>
            <ns3:atemp>28.0</ns3:atemp>
          </ns3:TrackPointExtension>
        </extensions>
      </trkpt>
      <trkpt lat="42.53820930607616901397705078125" lon="19.79626600630581378936767578125">
        <ele>1059.800048828125</ele>
        <time>2026-06-18T13:01:41.000Z</time>
        <extensions>
          <ns3:TrackPointExtension>
            <ns3:atemp>28.0</ns3:atemp>
          </ns3:TrackPointExtension>
        </extensions>
      </trkpt>
      <trkpt lat="42.53826043568551540374755859375" lon="19.79631378315389156341552734375">
        <ele>1059.5999755859375</ele>
        <time>2026-06-18T13:01:42.000Z</time>
        <extensions>
          <ns3:TrackPointExtension>
            <ns3:atemp>28.0</ns3:atemp>
          </ns3:TrackPointExtension>
        </extensions>
      </trkpt>
      <trkpt lat="42.538311816751956939697265625" lon="19.79635988362133502960205078125">
        <ele>1059.199951171875</ele>
        <time>2026-06-18T13:01:43.000Z</time>
        <extensions>
          <ns3:TrackPointExtension>
            <ns3:atemp>28.0</ns3:atemp>
          </ns3:TrackPointExtension>
        </extensions>
      </trkpt>
      <trkpt lat="42.53836269490420818328857421875" lon="19.7964002005755901336669921875">
        <ele>1059</ele>
        <time>2026-06-18T13:01:44.000Z</time>
        <extensions>
          <ns3:TrackPointExtension>
            <ns3:atemp>28.0</ns3:atemp>
          </ns3:TrackPointExtension>
        </extensions>
      </trkpt>
      <trkpt lat="42.53841876983642578125" lon="19.79643850587308406829833984375">
        <ele>1058.5999755859375</ele>
        <time>2026-06-18T13:01:45.000Z</time>
        <extensions>
          <ns3:TrackPointExtension>
            <ns3:atemp>28.0</ns3:atemp>
          </ns3:TrackPointExtension>
        </extensions>
      </trkpt>
      <trkpt lat="42.538483478128910064697265625" lon="19.79646901600062847137451171875">
        <ele>1058.199951171875</ele>
        <time>2026-06-18T13:01:46.000Z</time>
        <extensions>
          <ns3:TrackPointExtension>
            <ns3:atemp>28.0</ns3:atemp>
          </ns3:TrackPointExtension>
        </extensions>
      </trkpt>
      <trkpt lat="42.538567297160625457763671875" lon="19.7964947484433650970458984375">
        <ele>1058</ele>
        <time>2026-06-18T13:01:47.000Z</time>
        <extensions>
          <ns3:TrackPointExtension>
            <ns3:atemp>28.0</ns3:atemp>
          </ns3:TrackPointExtension>
        </extensions>
      </trkpt>
      <trkpt lat="42.538651786744594573974609375" lon="19.7965081594884395599365234375">
        <ele>1057.5999755859375</ele>
        <time>2026-06-18T13:01:48.000Z</time>
        <extensions>
          <ns3:TrackPointExtension>
            <ns3:atemp>28.0</ns3:atemp>
          </ns3:TrackPointExtension>
        </extensions>
      </trkpt>
      <trkpt lat="42.53874055109918117523193359375" lon="19.796513356268405914306640625">
        <ele>1057</ele>
        <time>2026-06-18T13:01:49.000Z</time>
        <extensions>
          <ns3:TrackPointExtension>
            <ns3:atemp>28.0</ns3:atemp>
          </ns3:TrackPointExtension>
        </extensions>
      </trkpt>
      <trkpt lat="42.53883526660501956939697265625" lon="19.79651637375354766845703125">
        <ele>1056.4000244140625</ele>
        <time>2026-06-18T13:01:50.000Z</time>
        <extensions>
          <ns3:TrackPointExtension>
            <ns3:atemp>28.0</ns3:atemp>
          </ns3:TrackPointExtension>
        </extensions>
      </trkpt>
      <trkpt lat="42.53893568180501461029052734375" lon="19.79652442038059234619140625">
        <ele>1055.4000244140625</ele>
        <time>2026-06-18T13:01:51.000Z</time>
        <extensions>
          <ns3:TrackPointExtension>
            <ns3:atemp>28.0</ns3:atemp>
          </ns3:TrackPointExtension>
        </extensions>
      </trkpt>
      <trkpt lat="42.53904162906110286712646484375" lon="19.79654185473918914794921875">
        <ele>1054.5999755859375</ele>
        <time>2026-06-18T13:01:52.000Z</time>
        <extensions>
          <ns3:TrackPointExtension>
            <ns3:atemp>28.0</ns3:atemp>
          </ns3:TrackPointExtension>
        </extensions>
      </trkpt>
      <trkpt lat="42.5391448102891445159912109375" lon="19.7965507395565509796142578125">
        <ele>1054</ele>
        <time>2026-06-18T13:01:53.000Z</time>
        <extensions>
          <ns3:TrackPointExtension>
            <ns3:atemp>28.0</ns3:atemp>
          </ns3:TrackPointExtension>
        </extensions>
      </trkpt>
      <trkpt lat="42.5392515957355499267578125" lon="19.79656063020229339599609375">
        <ele>1052.800048828125</ele>
        <time>2026-06-18T13:01:54.000Z</time>
        <extensions>
          <ns3:TrackPointExtension>
            <ns3:atemp>28.0</ns3:atemp>
          </ns3:TrackPointExtension>
        </extensions>
      </trkpt>
      <trkpt lat="42.539359219372272491455078125" lon="19.7965653240680694580078125">
        <ele>1051.800048828125</ele>
        <time>2026-06-18T13:01:55.000Z</time>
        <extensions>
          <ns3:TrackPointExtension>
            <ns3:atemp>28.0</ns3:atemp>
          </ns3:TrackPointExtension>
        </extensions>
      </trkpt>
      <trkpt lat="42.53946055658161640167236328125" lon="19.79654663242399692535400390625">
        <ele>1050.800048828125</ele>
        <time>2026-06-18T13:01:56.000Z</time>
        <extensions>
          <ns3:TrackPointExtension>
            <ns3:atemp>28.0</ns3:atemp>
          </ns3:TrackPointExtension>
        </extensions>
      </trkpt>
      <trkpt lat="42.53955929540097713470458984375" lon="19.796516709029674530029296875">
        <ele>1049.5999755859375</ele>
        <time>2026-06-18T13:01:57.000Z</time>
        <extensions>
          <ns3:TrackPointExtension>
            <ns3:atemp>28.0</ns3:atemp>
          </ns3:TrackPointExtension>
        </extensions>
      </trkpt>
      <trkpt lat="42.53965971060097217559814453125" lon="19.79648443870246410369873046875">
        <ele>1048.4000244140625</ele>
        <time>2026-06-18T13:01:58.000Z</time>
        <extensions>
          <ns3:TrackPointExtension>
            <ns3:atemp>28.0</ns3:atemp>
          </ns3:TrackPointExtension>
        </extensions>
      </trkpt>
      <trkpt lat="42.53975241445004940032958984375" lon="19.79649298824369907379150390625">
        <ele>1047.199951171875</ele>
        <time>2026-06-18T13:01:59.000Z</time>
        <extensions>
          <ns3:TrackPointExtension>
            <ns3:atemp>28.0</ns3:atemp>
          </ns3:TrackPointExtension>
        </extensions>
      </trkpt>
      <trkpt lat="42.53984042443335056304931640625" lon="19.79652148671448230743408203125">
        <ele>1046</ele>
        <time>2026-06-18T13:02:00.000Z</time>
        <extensions>
          <ns3:TrackPointExtension>
            <ns3:atemp>28.0</ns3:atemp>
          </ns3:TrackPointExtension>
        </extensions>
      </trkpt>
      <trkpt lat="42.53992139361798763275146484375" lon="19.79658016003668308258056640625">
        <ele>1044.800048828125</ele>
        <time>2026-06-18T13:02:01.000Z</time>
        <extensions>
          <ns3:TrackPointExtension>
            <ns3:atemp>28.0</ns3:atemp>
          </ns3:TrackPointExtension>
        </extensions>
      </trkpt>
      <trkpt lat="42.54000370390713214874267578125" lon="19.7966576926410198211669921875">
        <ele>1043.800048828125</ele>
        <time>2026-06-18T13:02:02.000Z</time>
        <extensions>
          <ns3:TrackPointExtension>
            <ns3:atemp>28.0</ns3:atemp>
          </ns3:TrackPointExtension>
        </extensions>
      </trkpt>
      <trkpt lat="42.54009506665170192718505859375" lon="19.796729274094104766845703125">
        <ele>1042.5999755859375</ele>
        <time>2026-06-18T13:02:03.000Z</time>
        <extensions>
          <ns3:TrackPointExtension>
            <ns3:atemp>28.0</ns3:atemp>
          </ns3:TrackPointExtension>
        </extensions>
      </trkpt>
      <trkpt lat="42.54019439220428466796875" lon="19.79678115807473659515380859375">
        <ele>1041.4000244140625</ele>
        <time>2026-06-18T13:02:04.000Z</time>
        <extensions>
          <ns3:TrackPointExtension>
            <ns3:atemp>28.0</ns3:atemp>
          </ns3:TrackPointExtension>
        </extensions>
      </trkpt>
      <trkpt lat="42.5403035245835781097412109375" lon="19.79682256467640399932861328125">
        <ele>1040.199951171875</ele>
        <time>2026-06-18T13:02:05.000Z</time>
        <extensions>
          <ns3:TrackPointExtension>
            <ns3:atemp>28.0</ns3:atemp>
          </ns3:TrackPointExtension>
        </extensions>
      </trkpt>
      <trkpt lat="42.5404171831905841827392578125" lon="19.796872772276401519775390625">
        <ele>1038.4000244140625</ele>
        <time>2026-06-18T13:02:06.000Z</time>
        <extensions>
          <ns3:TrackPointExtension>
            <ns3:atemp>28.0</ns3:atemp>
          </ns3:TrackPointExtension>
        </extensions>
      </trkpt>
      <trkpt lat="42.54052975215017795562744140625" lon="19.79693857021629810333251953125">
        <ele>1036.800048828125</ele>
        <time>2026-06-18T13:02:07.000Z</time>
        <extensions>
          <ns3:TrackPointExtension>
            <ns3:atemp>28.0</ns3:atemp>
          </ns3:TrackPointExtension>
        </extensions>
      </trkpt>
      <trkpt lat="42.54062765277922153472900390625" lon="19.796996153891086578369140625">
        <ele>1035.4000244140625</ele>
        <time>2026-06-18T13:02:08.000Z</time>
        <extensions>
          <ns3:TrackPointExtension>
            <ns3:atemp>28.0</ns3:atemp>
          </ns3:TrackPointExtension>
        </extensions>
      </trkpt>
      <trkpt lat="42.540725804865360260009765625" lon="19.7970174439251422882080078125">
        <ele>1034</ele>
        <time>2026-06-18T13:02:09.000Z</time>
        <extensions>
          <ns3:TrackPointExtension>
            <ns3:atemp>28.0</ns3:atemp>
          </ns3:TrackPointExtension>
        </extensions>
      </trkpt>
      <trkpt lat="42.5408299081027507781982421875" lon="19.79700587689876556396484375">
        <ele>1032.5999755859375</ele>
        <time>2026-06-18T13:02:10.000Z</time>
        <extensions>
          <ns3:TrackPointExtension>
            <ns3:atemp>28.0</ns3:atemp>
          </ns3:TrackPointExtension>
        </extensions>
      </trkpt>
      <trkpt lat="42.54093644209206104278564453125" lon="19.7969748638570308685302734375">
        <ele>1031</ele>
        <time>2026-06-18T13:02:11.000Z</time>
        <extensions>
          <ns3:TrackPointExtension>
            <ns3:atemp>28.0</ns3:atemp>
          </ns3:TrackPointExtension>
        </extensions>
      </trkpt>
      <trkpt lat="42.54104523919522762298583984375" lon="19.796940498054027557373046875">
        <ele>1029.5999755859375</ele>
        <time>2026-06-18T13:02:12.000Z</time>
        <extensions>
          <ns3:TrackPointExtension>
            <ns3:atemp>28.0</ns3:atemp>
          </ns3:TrackPointExtension>
        </extensions>
      </trkpt>
      <trkpt lat="42.5411584787070751190185546875" lon="19.79692365042865276336669921875">
        <ele>1028.4000244140625</ele>
        <time>2026-06-18T13:02:13.000Z</time>
        <extensions>
          <ns3:TrackPointExtension>
            <ns3:atemp>28.0</ns3:atemp>
          </ns3:TrackPointExtension>
        </extensions>
      </trkpt>
      <trkpt lat="42.5412637554109096527099609375" lon="19.7969296015799045562744140625">
        <ele>1027.4000244140625</ele>
        <time>2026-06-18T13:02:14.000Z</time>
        <extensions>
          <ns3:TrackPointExtension>
            <ns3:atemp>28.0</ns3:atemp>
          </ns3:TrackPointExtension>
        </extensions>
      </trkpt>
      <trkpt lat="42.54136593081057071685791015625" lon="19.79696589522063732147216796875">
        <ele>1026.4000244140625</ele>
        <time>2026-06-18T13:02:15.000Z</time>
        <extensions>
          <ns3:TrackPointExtension>
            <ns3:atemp>28.0</ns3:atemp>
          </ns3:TrackPointExtension>
        </extensions>
      </trkpt>
      <trkpt lat="42.54146240651607513427734375" lon="19.7970266640186309814453125">
        <ele>1025</ele>
        <time>2026-06-18T13:02:16.000Z</time>
        <extensions>
          <ns3:TrackPointExtension>
            <ns3:atemp>28.0</ns3:atemp>
          </ns3:TrackPointExtension>
        </extensions>
      </trkpt>
      <trkpt lat="42.54155251197516918182373046875" lon="19.79708927683532238006591796875">
        <ele>1024.199951171875</ele>
        <time>2026-06-18T13:02:17.000Z</time>
        <extensions>
          <ns3:TrackPointExtension>
            <ns3:atemp>28.0</ns3:atemp>
          </ns3:TrackPointExtension>
        </extensions>
      </trkpt>
      <trkpt lat="42.54164077341556549072265625" lon="19.797153063118457794189453125">
        <ele>1023.4000244140625</ele>
        <time>2026-06-18T13:02:18.000Z</time>
        <extensions>
          <ns3:TrackPointExtension>
            <ns3:atemp>28.0</ns3:atemp>
          </ns3:TrackPointExtension>
        </extensions>
      </trkpt>
      <trkpt lat="42.54172551445662975311279296875" lon="19.7972045280039310455322265625">
        <ele>1022.79998779296875</ele>
        <time>2026-06-18T13:02:19.000Z</time>
        <extensions>
          <ns3:TrackPointExtension>
            <ns3:atemp>28.0</ns3:atemp>
          </ns3:TrackPointExtension>
        </extensions>
      </trkpt>
      <trkpt lat="42.54181184805929660797119140625" lon="19.7972377203404903411865234375">
        <ele>1022.20001220703125</ele>
        <time>2026-06-18T13:02:20.000Z</time>
        <extensions>
          <ns3:TrackPointExtension>
            <ns3:atemp>28.0</ns3:atemp>
          </ns3:TrackPointExtension>
        </extensions>
      </trkpt>
      <trkpt lat="42.54190086387097835540771484375" lon="19.79725959710776805877685546875">
        <ele>1021.79998779296875</ele>
        <time>2026-06-18T13:02:21.000Z</time>
        <extensions>
          <ns3:TrackPointExtension>
            <ns3:atemp>28.0</ns3:atemp>
          </ns3:TrackPointExtension>
        </extensions>
      </trkpt>
      <trkpt lat="42.5419869460165500640869140625" lon="19.79729128070175647735595703125">
        <ele>1021.4000244140625</ele>
        <time>2026-06-18T13:02:22.000Z</time>
        <extensions>
          <ns3:TrackPointExtension>
            <ns3:atemp>28.0</ns3:atemp>
          </ns3:TrackPointExtension>
        </extensions>
      </trkpt>
      <trkpt lat="42.54208208061754703521728515625" lon="19.79732749052345752716064453125">
        <ele>1021.20001220703125</ele>
        <time>2026-06-18T13:02:23.000Z</time>
        <extensions>
          <ns3:TrackPointExtension>
            <ns3:atemp>28.0</ns3:atemp>
          </ns3:TrackPointExtension>
        </extensions>
      </trkpt>
      <trkpt lat="42.54218651913106441497802734375" lon="19.79734442196786403656005859375">
        <ele>1020.5999755859375</ele>
        <time>2026-06-18T13:02:24.000Z</time>
        <extensions>
          <ns3:TrackPointExtension>
            <ns3:atemp>28.0</ns3:atemp>
          </ns3:TrackPointExtension>
        </extensions>
      </trkpt>
      <trkpt lat="42.54228978417813777923583984375" lon="19.7973356209695339202880859375">
        <ele>1020.20001220703125</ele>
        <time>2026-06-18T13:02:25.000Z</time>
        <extensions>
          <ns3:TrackPointExtension>
            <ns3:atemp>28.0</ns3:atemp>
          </ns3:TrackPointExtension>
        </extensions>
      </trkpt>
      <trkpt lat="42.54239539615809917449951171875" lon="19.7973131574690341949462890625">
        <ele>1019.4000244140625</ele>
        <time>2026-06-18T13:02:26.000Z</time>
        <extensions>
          <ns3:TrackPointExtension>
            <ns3:atemp>28.0</ns3:atemp>
          </ns3:TrackPointExtension>
        </extensions>
      </trkpt>
      <trkpt lat="42.54250016994774341583251953125" lon="19.79729144833981990814208984375">
        <ele>1018.5999755859375</ele>
        <time>2026-06-18T13:02:27.000Z</time>
        <extensions>
          <ns3:TrackPointExtension>
            <ns3:atemp>28.0</ns3:atemp>
          </ns3:TrackPointExtension>
        </extensions>
      </trkpt>
      <trkpt lat="42.54260309971868991851806640625" lon="19.7972752712666988372802734375">
        <ele>1018</ele>
        <time>2026-06-18T13:02:28.000Z</time>
        <extensions>
          <ns3:TrackPointExtension>
            <ns3:atemp>28.0</ns3:atemp>
          </ns3:TrackPointExtension>
        </extensions>
      </trkpt>
      <trkpt lat="42.54270653240382671356201171875" lon="19.7972678951919078826904296875">
        <ele>1017.4000244140625</ele>
        <time>2026-06-18T13:02:29.000Z</time>
        <extensions>
          <ns3:TrackPointExtension>
            <ns3:atemp>28.0</ns3:atemp>
          </ns3:TrackPointExtension>
        </extensions>
      </trkpt>
      <trkpt lat="42.54281113855540752410888671875" lon="19.7972685657441616058349609375">
        <ele>1016.79998779296875</ele>
        <time>2026-06-18T13:02:30.000Z</time>
        <extensions>
          <ns3:TrackPointExtension>
            <ns3:atemp>28.0</ns3:atemp>
          </ns3:TrackPointExtension>
        </extensions>
      </trkpt>
      <trkpt lat="42.542915828526020050048828125" lon="19.7972692362964153289794921875">
        <ele>1016.20001220703125</ele>
        <time>2026-06-18T13:02:31.000Z</time>
        <extensions>
          <ns3:TrackPointExtension>
            <ns3:atemp>28.0</ns3:atemp>
          </ns3:TrackPointExtension>
        </extensions>
      </trkpt>
      <trkpt lat="42.54301900975406169891357421875" lon="19.79726747609674930572509765625">
        <ele>1015.79998779296875</ele>
        <time>2026-06-18T13:02:32.000Z</time>
        <extensions>
          <ns3:TrackPointExtension>
            <ns3:atemp>28.0</ns3:atemp>
          </ns3:TrackPointExtension>
        </extensions>
      </trkpt>
      <trkpt lat="42.543121688067913055419921875" lon="19.79725934565067291259765625">
        <ele>1015.5999755859375</ele>
        <time>2026-06-18T13:02:33.000Z</time>
        <extensions>
          <ns3:TrackPointExtension>
            <ns3:atemp>28.0</ns3:atemp>
          </ns3:TrackPointExtension>
        </extensions>
      </trkpt>
      <trkpt lat="42.543222941458225250244140625" lon="19.79724350385367870330810546875">
        <ele>1015.4000244140625</ele>
        <time>2026-06-18T13:02:34.000Z</time>
        <extensions>
          <ns3:TrackPointExtension>
            <ns3:atemp>28.0</ns3:atemp>
          </ns3:TrackPointExtension>
        </extensions>
      </trkpt>
      <trkpt lat="42.54332276992499828338623046875" lon="19.79723520576953887939453125">
        <ele>1015</ele>
        <time>2026-06-18T13:02:35.000Z</time>
        <extensions>
          <ns3:TrackPointExtension>
            <ns3:atemp>28.0</ns3:atemp>
          </ns3:TrackPointExtension>
        </extensions>
      </trkpt>
      <trkpt lat="42.54341983236372470855712890625" lon="19.79723344556987285614013671875">
        <ele>1014.4000244140625</ele>
        <time>2026-06-18T13:02:36.000Z</time>
        <extensions>
          <ns3:TrackPointExtension>
            <ns3:atemp>28.0</ns3:atemp>
          </ns3:TrackPointExtension>
        </extensions>
      </trkpt>
      <trkpt lat="42.54351018927991390228271484375" lon="19.7972430847585201263427734375">
        <ele>1014.20001220703125</ele>
        <time>2026-06-18T13:02:37.000Z</time>
        <extensions>
          <ns3:TrackPointExtension>
            <ns3:atemp>28.0</ns3:atemp>
          </ns3:TrackPointExtension>
        </extensions>
      </trkpt>
      <trkpt lat="42.54360322840511798858642578125" lon="19.7972507961094379425048828125">
        <ele>1014</ele>
        <time>2026-06-18T13:02:38.000Z</time>
        <extensions>
          <ns3:TrackPointExtension>
            <ns3:atemp>28.0</ns3:atemp>
          </ns3:TrackPointExtension>
        </extensions>
      </trkpt>
      <trkpt lat="42.5436960160732269287109375" lon="19.797258339822292327880859375">
        <ele>1013.5999755859375</ele>
        <time>2026-06-18T13:02:39.000Z</time>
        <extensions>
          <ns3:TrackPointExtension>
            <ns3:atemp>28.0</ns3:atemp>
          </ns3:TrackPointExtension>
        </extensions>
      </trkpt>
      <trkpt lat="42.54378494806587696075439453125" lon="19.79726982302963733673095703125">
        <ele>1013.5999755859375</ele>
        <time>2026-06-18T13:02:40.000Z</time>
        <extensions>
          <ns3:TrackPointExtension>
            <ns3:atemp>28.0</ns3:atemp>
          </ns3:TrackPointExtension>
        </extensions>
      </trkpt>
      <trkpt lat="42.54387195222079753875732421875" lon="19.79729396291077136993408203125">
        <ele>1013.20001220703125</ele>
        <time>2026-06-18T13:02:41.000Z</time>
        <extensions>
          <ns3:TrackPointExtension>
            <ns3:atemp>28.0</ns3:atemp>
          </ns3:TrackPointExtension>
        </extensions>
      </trkpt>
      <trkpt lat="42.543956525623798370361328125" lon="19.79732380248606204986572265625">
        <ele>1013</ele>
        <time>2026-06-18T13:02:42.000Z</time>
        <extensions>
          <ns3:TrackPointExtension>
            <ns3:atemp>28.0</ns3:atemp>
          </ns3:TrackPointExtension>
        </extensions>
      </trkpt>
      <trkpt lat="42.544040344655513763427734375" lon="19.797346182167530059814453125">
        <ele>1012.79998779296875</ele>
        <time>2026-06-18T13:02:43.000Z</time>
        <extensions>
          <ns3:TrackPointExtension>
            <ns3:atemp>28.0</ns3:atemp>
          </ns3:TrackPointExtension>
        </extensions>
      </trkpt>
      <trkpt lat="42.5441229902207851409912109375" lon="19.79737157933413982391357421875">
        <ele>1012.5999755859375</ele>
        <time>2026-06-18T13:02:44.000Z</time>
        <extensions>
          <ns3:TrackPointExtension>
            <ns3:atemp>28.0</ns3:atemp>
          </ns3:TrackPointExtension>
        </extensions>
      </trkpt>
      <trkpt lat="42.54420739598572254180908203125" lon="19.797385744750499725341796875">
        <ele>1012.4000244140625</ele>
        <time>2026-06-18T13:02:45.000Z</time>
        <extensions>
          <ns3:TrackPointExtension>
            <ns3:atemp>28.0</ns3:atemp>
          </ns3:TrackPointExtension>
        </extensions>
      </trkpt>
      <trkpt lat="42.5442936457693576812744140625" lon="19.797387756407260894775390625">
        <ele>1012</ele>
        <time>2026-06-18T13:02:46.000Z</time>
        <extensions>
          <ns3:TrackPointExtension>
            <ns3:atemp>28.0</ns3:atemp>
          </ns3:TrackPointExtension>
        </extensions>
      </trkpt>
      <trkpt lat="42.54438207484781742095947265625" lon="19.79738163761794567108154296875">
        <ele>1011.79998779296875</ele>
        <time>2026-06-18T13:02:47.000Z</time>
        <extensions>
          <ns3:TrackPointExtension>
            <ns3:atemp>28.0</ns3:atemp>
          </ns3:TrackPointExtension>
        </extensions>
      </trkpt>
      <trkpt lat="42.54447184503078460693359375" lon="19.79737308807671070098876953125">
        <ele>1011.5999755859375</ele>
        <time>2026-06-18T13:02:48.000Z</time>
        <extensions>
          <ns3:TrackPointExtension>
            <ns3:atemp>28.0</ns3:atemp>
          </ns3:TrackPointExtension>
        </extensions>
      </trkpt>
      <trkpt lat="42.54455943591892719268798828125" lon="19.79735749773681163787841796875">
        <ele>1011.4000244140625</ele>
        <time>2026-06-18T13:02:49.000Z</time>
        <extensions>
          <ns3:TrackPointExtension>
            <ns3:atemp>28.0</ns3:atemp>
          </ns3:TrackPointExtension>
        </extensions>
      </trkpt>
      <trkpt lat="42.5446446798741817474365234375" lon="19.7973389737308025360107421875">
        <ele>1011</ele>
        <time>2026-06-18T13:02:50.000Z</time>
        <extensions>
          <ns3:TrackPointExtension>
            <ns3:atemp>28.0</ns3:atemp>
          </ns3:TrackPointExtension>
        </extensions>
      </trkpt>
      <trkpt lat="42.544727660715579986572265625" lon="19.79732246138155460357666015625">
        <ele>1010.5999755859375</ele>
        <time>2026-06-18T13:02:51.000Z</time>
        <extensions>
          <ns3:TrackPointExtension>
            <ns3:atemp>28.0</ns3:atemp>
          </ns3:TrackPointExtension>
        </extensions>
      </trkpt>
      <trkpt lat="42.544812150299549102783203125" lon="19.79730955325067043304443359375">
        <ele>1010.20001220703125</ele>
        <time>2026-06-18T13:02:52.000Z</time>
        <extensions>
          <ns3:TrackPointExtension>
            <ns3:atemp>28.0</ns3:atemp>
          </ns3:TrackPointExtension>
        </extensions>
      </trkpt>
      <trkpt lat="42.5448949635028839111328125" lon="19.79730033315718173980712890625">
        <ele>1010</ele>
        <time>2026-06-18T13:02:53.000Z</time>
        <extensions>
          <ns3:TrackPointExtension>
            <ns3:atemp>28.0</ns3:atemp>
          </ns3:TrackPointExtension>
        </extensions>
      </trkpt>
      <trkpt lat="42.5449779443442821502685546875" lon="19.797286503016948699951171875">
        <ele>1009.5999755859375</ele>
        <time>2026-06-18T13:02:54.000Z</time>
        <extensions>
          <ns3:TrackPointExtension>
            <ns3:atemp>27.0</ns3:atemp>
          </ns3:TrackPointExtension>
        </extensions>
      </trkpt>
      <trkpt lat="42.54505665041506290435791015625" lon="19.79726764373481273651123046875">
        <ele>1009.20001220703125</ele>
        <time>2026-06-18T13:02:55.000Z</time>
        <extensions>
          <ns3:TrackPointExtension>
            <ns3:atemp>27.0</ns3:atemp>
          </ns3:TrackPointExtension>
        </extensions>
      </trkpt>
      <trkpt lat="42.54513443447649478912353515625" lon="19.797255992889404296875">
        <ele>1009</ele>
        <time>2026-06-18T13:02:56.000Z</time>
        <extensions>
          <ns3:TrackPointExtension>
            <ns3:atemp>27.0</ns3:atemp>
          </ns3:TrackPointExtension>
        </extensions>
      </trkpt>
      <trkpt lat="42.5452079437673091888427734375" lon="19.79724635370075702667236328125">
        <ele>1008.79998779296875</ele>
        <time>2026-06-18T13:02:57.000Z</time>
        <extensions>
          <ns3:TrackPointExtension>
            <ns3:atemp>27.0</ns3:atemp>
          </ns3:TrackPointExtension>
        </extensions>
      </trkpt>
      <trkpt lat="42.5452813692390918731689453125" lon="19.79723813943564891815185546875">
        <ele>1008.20001220703125</ele>
        <time>2026-06-18T13:02:58.000Z</time>
        <extensions>
          <ns3:TrackPointExtension>
            <ns3:atemp>27.0</ns3:atemp>
          </ns3:TrackPointExtension>
        </extensions>
      </trkpt>
      <trkpt lat="42.54535253159701824188232421875" lon="19.797232188284397125244140625">
        <ele>1008</ele>
        <time>2026-06-18T13:02:59.000Z</time>
        <extensions>
          <ns3:TrackPointExtension>
            <ns3:atemp>27.0</ns3:atemp>
          </ns3:TrackPointExtension>
        </extensions>
      </trkpt>
      <trkpt lat="42.54542578943073749542236328125" lon="19.7972279973328113555908203125">
        <ele>1007.79998779296875</ele>
        <time>2026-06-18T13:03:00.000Z</time>
        <extensions>
          <ns3:TrackPointExtension>
            <ns3:atemp>27.0</ns3:atemp>
          </ns3:TrackPointExtension>
        </extensions>
      </trkpt>
      <trkpt lat="42.54549887962639331817626953125" lon="19.79721534065902233123779296875">
        <ele>1007.5999755859375</ele>
        <time>2026-06-18T13:03:01.000Z</time>
        <extensions>
          <ns3:TrackPointExtension>
            <ns3:atemp>27.0</ns3:atemp>
          </ns3:TrackPointExtension>
        </extensions>
      </trkpt>
      <trkpt lat="42.545573897659778594970703125" lon="19.79720142669975757598876953125">
        <ele>1007.4000244140625</ele>
        <time>2026-06-18T13:03:02.000Z</time>
        <extensions>
          <ns3:TrackPointExtension>
            <ns3:atemp>27.0</ns3:atemp>
          </ns3:TrackPointExtension>
        </extensions>
      </trkpt>
      <trkpt lat="42.54564288072288036346435546875" lon="19.79720972478389739990234375">
        <ele>1007.20001220703125</ele>
        <time>2026-06-18T13:03:03.000Z</time>
        <extensions>
          <ns3:TrackPointExtension>
            <ns3:atemp>27.0</ns3:atemp>
          </ns3:TrackPointExtension>
        </extensions>
      </trkpt>
      <trkpt lat="42.5457078404724597930908203125" lon="19.7972313500940799713134765625">
        <ele>1007</ele>
        <time>2026-06-18T13:03:04.000Z</time>
        <extensions>
          <ns3:TrackPointExtension>
            <ns3:atemp>27.0</ns3:atemp>
          </ns3:TrackPointExtension>
        </extensions>
      </trkpt>
      <trkpt lat="42.5457634963095188140869140625" lon="19.797279797494411468505859375">
        <ele>1006.79998779296875</ele>
        <time>2026-06-18T13:03:05.000Z</time>
        <extensions>
          <ns3:TrackPointExtension>
            <ns3:atemp>27.0</ns3:atemp>
          </ns3:TrackPointExtension>
        </extensions>
      </trkpt>
      <trkpt lat="42.54581387154757976531982421875" lon="19.7973309271037578582763671875">
        <ele>1006.79998779296875</ele>
        <time>2026-06-18T13:03:06.000Z</time>
        <extensions>
          <ns3:TrackPointExtension>
            <ns3:atemp>27.0</ns3:atemp>
          </ns3:TrackPointExtension>
        </extensions>
      </trkpt>
      <trkpt lat="42.54586047492921352386474609375" lon="19.797384403645992279052734375">
        <ele>1006.5999755859375</ele>
        <time>2026-06-18T13:03:07.000Z</time>
        <extensions>
          <ns3:TrackPointExtension>
            <ns3:atemp>27.0</ns3:atemp>
          </ns3:TrackPointExtension>
        </extensions>
      </trkpt>
      <trkpt lat="42.545912526547908782958984375" lon="19.7974311746656894683837890625">
        <ele>1006.5999755859375</ele>
        <time>2026-06-18T13:03:08.000Z</time>
        <extensions>
          <ns3:TrackPointExtension>
            <ns3:atemp>27.0</ns3:atemp>
          </ns3:TrackPointExtension>
        </extensions>
      </trkpt>
      <trkpt lat="42.54596449434757232666015625" lon="19.79747585020959377288818359375">
        <ele>1006.79998779296875</ele>
        <time>2026-06-18T13:03:09.000Z</time>
        <extensions>
          <ns3:TrackPointExtension>
            <ns3:atemp>27.0</ns3:atemp>
          </ns3:TrackPointExtension>
        </extensions>
      </trkpt>
      <trkpt lat="42.5460152886807918548583984375" lon="19.79751792736351490020751953125">
        <ele>1006.5999755859375</ele>
        <time>2026-06-18T13:03:10.000Z</time>
        <extensions>
          <ns3:TrackPointExtension>
            <ns3:atemp>27.0</ns3:atemp>
          </ns3:TrackPointExtension>
        </extensions>
      </trkpt>
      <trkpt lat="42.546066753566265106201171875" lon="19.79756645858287811279296875">
        <ele>1006.79998779296875</ele>
        <time>2026-06-18T13:03:11.000Z</time>
        <extensions>
          <ns3:TrackPointExtension>
            <ns3:atemp>27.0</ns3:atemp>
          </ns3:TrackPointExtension>
        </extensions>
      </trkpt>
      <trkpt lat="42.5461180508136749267578125" lon="19.79762353934347629547119140625">
        <ele>1006.79998779296875</ele>
        <time>2026-06-18T13:03:12.000Z</time>
        <extensions>
          <ns3:TrackPointExtension>
            <ns3:atemp>27.0</ns3:atemp>
          </ns3:TrackPointExtension>
        </extensions>
      </trkpt>
      <trkpt lat="42.54617194645106792449951171875" lon="19.797678776085376739501953125">
        <ele>1006.5999755859375</ele>
        <time>2026-06-18T13:03:13.000Z</time>
        <extensions>
          <ns3:TrackPointExtension>
            <ns3:atemp>27.0</ns3:atemp>
          </ns3:TrackPointExtension>
        </extensions>
      </trkpt>
      <trkpt lat="42.54622324369847774505615234375" lon="19.797730408608913421630859375">
        <ele>1006.5999755859375</ele>
        <time>2026-06-18T13:03:14.000Z</time>
        <extensions>
          <ns3:TrackPointExtension>
            <ns3:atemp>27.0</ns3:atemp>
          </ns3:TrackPointExtension>
        </extensions>
      </trkpt>
      <trkpt lat="42.54627370275557041168212890625" lon="19.7977872379124164581298828125">
        <ele>1006.79998779296875</ele>
        <time>2026-06-18T13:03:15.000Z</time>
        <extensions>
          <ns3:TrackPointExtension>
            <ns3:atemp>27.0</ns3:atemp>
          </ns3:TrackPointExtension>
        </extensions>
      </trkpt>
      <trkpt lat="42.54632784985005855560302734375" lon="19.79784280993044376373291015625">
        <ele>1006.5999755859375</ele>
        <time>2026-06-18T13:03:16.000Z</time>
        <extensions>
          <ns3:TrackPointExtension>
            <ns3:atemp>27.0</ns3:atemp>
          </ns3:TrackPointExtension>
        </extensions>
      </trkpt>
      <trkpt lat="42.5463810749351978302001953125" lon="19.7978889942169189453125">
        <ele>1006.5999755859375</ele>
        <time>2026-06-18T13:03:17.000Z</time>
        <extensions>
          <ns3:TrackPointExtension>
            <ns3:atemp>27.0</ns3:atemp>
          </ns3:TrackPointExtension>
        </extensions>
      </trkpt>
      <trkpt lat="42.54643983207643032073974609375" lon="19.79793719016015529632568359375">
        <ele>1006.5999755859375</ele>
        <time>2026-06-18T13:03:18.000Z</time>
        <extensions>
          <ns3:TrackPointExtension>
            <ns3:atemp>27.0</ns3:atemp>
          </ns3:TrackPointExtension>
        </extensions>
      </trkpt>
      <trkpt lat="42.54650353454053401947021484375" lon="19.79798831976950168609619140625">
        <ele>1006.4000244140625</ele>
        <time>2026-06-18T13:03:19.000Z</time>
        <extensions>
          <ns3:TrackPointExtension>
            <ns3:atemp>27.0</ns3:atemp>
          </ns3:TrackPointExtension>
        </extensions>
      </trkpt>
      <trkpt lat="42.5465681590139865875244140625" lon="19.79804347269237041473388671875">
        <ele>1006</ele>
        <time>2026-06-18T13:03:20.000Z</time>
        <extensions>
          <ns3:TrackPointExtension>
            <ns3:atemp>27.0</ns3:atemp>
          </ns3:TrackPointExtension>
        </extensions>
      </trkpt>
      <trkpt lat="42.5466291792690753936767578125" lon="19.79810516349971294403076171875">
        <ele>1005.5999755859375</ele>
        <time>2026-06-18T13:03:21.000Z</time>
        <extensions>
          <ns3:TrackPointExtension>
            <ns3:atemp>27.0</ns3:atemp>
          </ns3:TrackPointExtension>
        </extensions>
      </trkpt>
      <trkpt lat="42.54668441601097583770751953125" lon="19.798165597021579742431640625">
        <ele>1005.4000244140625</ele>
        <time>2026-06-18T13:03:22.000Z</time>
        <extensions>
          <ns3:TrackPointExtension>
            <ns3:atemp>27.0</ns3:atemp>
          </ns3:TrackPointExtension>
        </extensions>
      </trkpt>
      <trkpt lat="42.546741999685764312744140625" lon="19.79822100140154361724853515625">
        <ele>1005</ele>
        <time>2026-06-18T13:03:23.000Z</time>
        <extensions>
          <ns3:TrackPointExtension>
            <ns3:atemp>27.0</ns3:atemp>
          </ns3:TrackPointExtension>
        </extensions>
      </trkpt>
      <trkpt lat="42.54679790697991847991943359375" lon="19.7982760705053806304931640625">
        <ele>1004.79998779296875</ele>
        <time>2026-06-18T13:03:24.000Z</time>
        <extensions>
          <ns3:TrackPointExtension>
            <ns3:atemp>27.0</ns3:atemp>
          </ns3:TrackPointExtension>
        </extensions>
      </trkpt>
      <trkpt lat="42.54685456864535808563232421875" lon="19.798325859010219573974609375">
        <ele>1004.5999755859375</ele>
        <time>2026-06-18T13:03:25.000Z</time>
        <extensions>
          <ns3:TrackPointExtension>
            <ns3:atemp>27.0</ns3:atemp>
          </ns3:TrackPointExtension>
        </extensions>
      </trkpt>
      <trkpt lat="42.54691625945270061492919921875" lon="19.79836869053542613983154296875">
        <ele>1004.20001220703125</ele>
        <time>2026-06-18T13:03:26.000Z</time>
        <extensions>
          <ns3:TrackPointExtension>
            <ns3:atemp>27.0</ns3:atemp>
          </ns3:TrackPointExtension>
        </extensions>
      </trkpt>
      <trkpt lat="42.54697727970778942108154296875" lon="19.7984034754335880279541015625">
        <ele>1004</ele>
        <time>2026-06-18T13:03:27.000Z</time>
        <extensions>
          <ns3:TrackPointExtension>
            <ns3:atemp>27.0</ns3:atemp>
          </ns3:TrackPointExtension>
        </extensions>
      </trkpt>
      <trkpt lat="42.547042071819305419921875" lon="19.7984339855611324310302734375">
        <ele>1004</ele>
        <time>2026-06-18T13:03:28.000Z</time>
        <extensions>
          <ns3:TrackPointExtension>
            <ns3:atemp>27.0</ns3:atemp>
          </ns3:TrackPointExtension>
        </extensions>
      </trkpt>
      <trkpt lat="42.5471089594066143035888671875" lon="19.798459969460964202880859375">
        <ele>1003.79998779296875</ele>
        <time>2026-06-18T13:03:29.000Z</time>
        <extensions>
          <ns3:TrackPointExtension>
            <ns3:atemp>27.0</ns3:atemp>
          </ns3:TrackPointExtension>
        </extensions>
      </trkpt>
      <trkpt lat="42.5471766851842403411865234375" lon="19.79848033748567104339599609375">
        <ele>1003.5999755859375</ele>
        <time>2026-06-18T13:03:30.000Z</time>
        <extensions>
          <ns3:TrackPointExtension>
            <ns3:atemp>27.0</ns3:atemp>
          </ns3:TrackPointExtension>
        </extensions>
      </trkpt>
      <trkpt lat="42.54724449478089809417724609375" lon="19.79850514791905879974365234375">
        <ele>1003.5999755859375</ele>
        <time>2026-06-18T13:03:31.000Z</time>
        <extensions>
          <ns3:TrackPointExtension>
            <ns3:atemp>27.0</ns3:atemp>
          </ns3:TrackPointExtension>
        </extensions>
      </trkpt>
      <trkpt lat="42.54730953834950923919677734375" lon="19.7985352389514446258544921875">
        <ele>1003.4000244140625</ele>
        <time>2026-06-18T13:03:32.000Z</time>
        <extensions>
          <ns3:TrackPointExtension>
            <ns3:atemp>27.0</ns3:atemp>
          </ns3:TrackPointExtension>
        </extensions>
      </trkpt>
      <trkpt lat="42.54737458191812038421630859375" lon="19.798566587269306182861328125">
        <ele>1003.20001220703125</ele>
        <time>2026-06-18T13:03:33.000Z</time>
        <extensions>
          <ns3:TrackPointExtension>
            <ns3:atemp>27.0</ns3:atemp>
          </ns3:TrackPointExtension>
        </extensions>
      </trkpt>
      <trkpt lat="42.5474388711154460906982421875" lon="19.79859936051070690155029296875">
        <ele>1003</ele>
        <time>2026-06-18T13:03:34.000Z</time>
        <extensions>
          <ns3:TrackPointExtension>
            <ns3:atemp>27.0</ns3:atemp>
          </ns3:TrackPointExtension>
        </extensions>
      </trkpt>
      <trkpt lat="42.54749997518956661224365234375" lon="19.798627607524394989013671875">
        <ele>1003</ele>
        <time>2026-06-18T13:03:35.000Z</time>
        <extensions>
          <ns3:TrackPointExtension>
            <ns3:atemp>27.0</ns3:atemp>
          </ns3:TrackPointExtension>
        </extensions>
      </trkpt>
      <trkpt lat="42.5475632585585117340087890625" lon="19.79865300469100475311279296875">
        <ele>1002.79998779296875</ele>
        <time>2026-06-18T13:03:36.000Z</time>
        <extensions>
          <ns3:TrackPointExtension>
            <ns3:atemp>27.0</ns3:atemp>
          </ns3:TrackPointExtension>
        </extensions>
      </trkpt>
      <trkpt lat="42.5476276315748691558837890625" lon="19.7986706905066967010498046875">
        <ele>1002.79998779296875</ele>
        <time>2026-06-18T13:03:37.000Z</time>
        <extensions>
          <ns3:TrackPointExtension>
            <ns3:atemp>27.0</ns3:atemp>
          </ns3:TrackPointExtension>
        </extensions>
      </trkpt>
      <trkpt lat="42.54769242368638515472412109375" lon="19.79868787340819835662841796875">
        <ele>1002.5999755859375</ele>
        <time>2026-06-18T13:03:38.000Z</time>
        <extensions>
          <ns3:TrackPointExtension>
            <ns3:atemp>27.0</ns3:atemp>
          </ns3:TrackPointExtension>
        </extensions>
      </trkpt>
      <trkpt lat="42.5477568805217742919921875" lon="19.7987075708806514739990234375">
        <ele>1002.5999755859375</ele>
        <time>2026-06-18T13:03:39.000Z</time>
        <extensions>
          <ns3:TrackPointExtension>
            <ns3:atemp>27.0</ns3:atemp>
          </ns3:TrackPointExtension>
        </extensions>
      </trkpt>
      <trkpt lat="42.547820918262004852294921875" lon="19.79873095639050006866455078125">
        <ele>1002.4000244140625</ele>
        <time>2026-06-18T13:03:40.000Z</time>
        <extensions>
          <ns3:TrackPointExtension>
            <ns3:atemp>27.0</ns3:atemp>
          </ns3:TrackPointExtension>
        </extensions>
      </trkpt>
      <trkpt lat="42.54788604564964771270751953125" lon="19.7987467981874942779541015625">
        <ele>1002.20001220703125</ele>
        <time>2026-06-18T13:03:41.000Z</time>
        <extensions>
          <ns3:TrackPointExtension>
            <ns3:atemp>27.0</ns3:atemp>
          </ns3:TrackPointExtension>
        </extensions>
      </trkpt>
      <trkpt lat="42.54795997403562068939208984375" lon="19.79875811375677585601806640625">
        <ele>1001.79998779296875</ele>
        <time>2026-06-18T13:03:42.000Z</time>
        <extensions>
          <ns3:TrackPointExtension>
            <ns3:atemp>27.0</ns3:atemp>
          </ns3:TrackPointExtension>
        </extensions>
      </trkpt>
      <trkpt lat="42.54803775809705257415771484375" lon="19.79876272380352020263671875">
        <ele>1001.5999755859375</ele>
        <time>2026-06-18T13:03:43.000Z</time>
        <extensions>
          <ns3:TrackPointExtension>
            <ns3:atemp>27.0</ns3:atemp>
          </ns3:TrackPointExtension>
        </extensions>
      </trkpt>
      <trkpt lat="42.5481214933097362518310546875" lon="19.79879331775009632110595703125">
        <ele>1001.20001220703125</ele>
        <time>2026-06-18T13:03:44.000Z</time>
        <extensions>
          <ns3:TrackPointExtension>
            <ns3:atemp>27.0</ns3:atemp>
          </ns3:TrackPointExtension>
        </extensions>
      </trkpt>
      <trkpt lat="42.54820187576115131378173828125" lon="19.7988242469727993011474609375">
        <ele>1000.79998779296875</ele>
        <time>2026-06-18T13:03:45.000Z</time>
        <extensions>
          <ns3:TrackPointExtension>
            <ns3:atemp>27.0</ns3:atemp>
          </ns3:TrackPointExtension>
        </extensions>
      </trkpt>
      <trkpt lat="42.5482825934886932373046875" lon="19.7988517396152019500732421875">
        <ele>1000.4000244140625</ele>
        <time>2026-06-18T13:03:46.000Z</time>
        <extensions>
          <ns3:TrackPointExtension>
            <ns3:atemp>27.0</ns3:atemp>
          </ns3:TrackPointExtension>
        </extensions>
      </trkpt>
      <trkpt lat="42.54836238920688629150390625" lon="19.79887277819216251373291015625">
        <ele>999.79998779296875</ele>
        <time>2026-06-18T13:03:47.000Z</time>
        <extensions>
          <ns3:TrackPointExtension>
            <ns3:atemp>27.0</ns3:atemp>
          </ns3:TrackPointExtension>
        </extensions>
      </trkpt>
      <trkpt lat="42.54844461567699909210205078125" lon="19.79888803325593471527099609375">
        <ele>999.20001220703125</ele>
        <time>2026-06-18T13:03:48.000Z</time>
        <extensions>
          <ns3:TrackPointExtension>
            <ns3:atemp>27.0</ns3:atemp>
          </ns3:TrackPointExtension>
        </extensions>
      </trkpt>
      <trkpt lat="42.54852508194744586944580078125" lon="19.7988896258175373077392578125">
        <ele>998.79998779296875</ele>
        <time>2026-06-18T13:03:49.000Z</time>
        <extensions>
          <ns3:TrackPointExtension>
            <ns3:atemp>27.0</ns3:atemp>
          </ns3:TrackPointExtension>
        </extensions>
      </trkpt>
      <trkpt lat="42.54861275665462017059326171875" lon="19.79888870380818843841552734375">
        <ele>998.20001220703125</ele>
        <time>2026-06-18T13:03:50.000Z</time>
        <extensions>
          <ns3:TrackPointExtension>
            <ns3:atemp>27.0</ns3:atemp>
          </ns3:TrackPointExtension>
        </extensions>
      </trkpt>
      <trkpt lat="42.54870428703725337982177734375" lon="19.7989053837954998016357421875">
        <ele>997.5999755859375</ele>
        <time>2026-06-18T13:03:51.000Z</time>
        <extensions>
          <ns3:TrackPointExtension>
            <ns3:atemp>27.0</ns3:atemp>
          </ns3:TrackPointExtension>
        </extensions>
      </trkpt>
      <trkpt lat="42.548785172402858734130859375" lon="19.79894352145493030548095703125">
        <ele>996.79998779296875</ele>
        <time>2026-06-18T13:03:52.000Z</time>
        <extensions>
          <ns3:TrackPointExtension>
            <ns3:atemp>27.0</ns3:atemp>
          </ns3:TrackPointExtension>
        </extensions>
      </trkpt>
      <trkpt lat="42.54885331727564334869384765625" lon="19.7989940643310546875">
        <ele>996.4000244140625</ele>
        <time>2026-06-18T13:03:53.000Z</time>
        <extensions>
          <ns3:TrackPointExtension>
            <ns3:atemp>27.0</ns3:atemp>
          </ns3:TrackPointExtension>
        </extensions>
      </trkpt>
      <trkpt lat="42.54892573691904544830322265625" lon="19.7990311123430728912353515625">
        <ele>995.79998779296875</ele>
        <time>2026-06-18T13:03:54.000Z</time>
        <extensions>
          <ns3:TrackPointExtension>
            <ns3:atemp>27.0</ns3:atemp>
          </ns3:TrackPointExtension>
        </extensions>
      </trkpt>
      <trkpt lat="42.54900938831269741058349609375" lon="19.799062795937061309814453125">
        <ele>995.20001220703125</ele>
        <time>2026-06-18T13:03:55.000Z</time>
        <extensions>
          <ns3:TrackPointExtension>
            <ns3:atemp>27.0</ns3:atemp>
          </ns3:TrackPointExtension>
        </extensions>
      </trkpt>
      <trkpt lat="42.5490914471447467803955078125" lon="19.79908014647662639617919921875">
        <ele>994.5999755859375</ele>
        <time>2026-06-18T13:03:56.000Z</time>
        <extensions>
          <ns3:TrackPointExtension>
            <ns3:atemp>27.0</ns3:atemp>
          </ns3:TrackPointExtension>
        </extensions>
      </trkpt>
      <trkpt lat="42.54917065612971782684326171875" lon="19.799093641340732574462890625">
        <ele>994.4000244140625</ele>
        <time>2026-06-18T13:03:57.000Z</time>
        <extensions>
          <ns3:TrackPointExtension>
            <ns3:atemp>27.0</ns3:atemp>
          </ns3:TrackPointExtension>
        </extensions>
      </trkpt>
      <trkpt lat="42.5492486916482448577880859375" lon="19.79911434464156627655029296875">
        <ele>993.79998779296875</ele>
        <time>2026-06-18T13:03:58.000Z</time>
        <extensions>
          <ns3:TrackPointExtension>
            <ns3:atemp>27.0</ns3:atemp>
          </ns3:TrackPointExtension>
        </extensions>
      </trkpt>
      <trkpt lat="42.5493231229484081268310546875" lon="19.79913362301886081695556640625">
        <ele>993.4000244140625</ele>
        <time>2026-06-18T13:03:59.000Z</time>
        <extensions>
          <ns3:TrackPointExtension>
            <ns3:atemp>27.0</ns3:atemp>
          </ns3:TrackPointExtension>
        </extensions>
      </trkpt>
      <trkpt lat="42.549396045506000518798828125" lon="19.79915491305291652679443359375">
        <ele>993.20001220703125</ele>
        <time>2026-06-18T13:04:00.000Z</time>
        <extensions>
          <ns3:TrackPointExtension>
            <ns3:atemp>27.0</ns3:atemp>
          </ns3:TrackPointExtension>
        </extensions>
      </trkpt>
      <trkpt lat="42.549469470977783203125" lon="19.79918248951435089111328125">
        <ele>993</ele>
        <time>2026-06-18T13:04:01.000Z</time>
        <extensions>
          <ns3:TrackPointExtension>
            <ns3:atemp>27.0</ns3:atemp>
          </ns3:TrackPointExtension>
        </extensions>
      </trkpt>
      <trkpt lat="42.54953795112669467926025390625" lon="19.799216352403163909912109375">
        <ele>992.79998779296875</ele>
        <time>2026-06-18T13:04:02.000Z</time>
        <extensions>
          <ns3:TrackPointExtension>
            <ns3:atemp>27.0</ns3:atemp>
          </ns3:TrackPointExtension>
        </extensions>
      </trkpt>
      <trkpt lat="42.54960450343787670135498046875" lon="19.79925968684256076812744140625">
        <ele>992.79998779296875</ele>
        <time>2026-06-18T13:04:03.000Z</time>
        <extensions>
          <ns3:TrackPointExtension>
            <ns3:atemp>27.0</ns3:atemp>
          </ns3:TrackPointExtension>
        </extensions>
      </trkpt>
      <trkpt lat="42.5496708042919635772705078125" lon="19.79930159635841846466064453125">
        <ele>992.5999755859375</ele>
        <time>2026-06-18T13:04:04.000Z</time>
        <extensions>
          <ns3:TrackPointExtension>
            <ns3:atemp>27.0</ns3:atemp>
          </ns3:TrackPointExtension>
        </extensions>
      </trkpt>
      <trkpt lat="42.54973978735506534576416015625" lon="19.79935004375874996185302734375">
        <ele>992.4000244140625</ele>
        <time>2026-06-18T13:04:05.000Z</time>
        <extensions>
          <ns3:TrackPointExtension>
            <ns3:atemp>27.0</ns3:atemp>
          </ns3:TrackPointExtension>
        </extensions>
      </trkpt>
      <trkpt lat="42.54980809986591339111328125" lon="19.7993968985974788665771484375">
        <ele>992.4000244140625</ele>
        <time>2026-06-18T13:04:06.000Z</time>
        <extensions>
          <ns3:TrackPointExtension>
            <ns3:atemp>27.0</ns3:atemp>
          </ns3:TrackPointExtension>
        </extensions>
      </trkpt>
      <trkpt lat="42.54987725056707859039306640625" lon="19.7994438372552394866943359375">
        <ele>992.4000244140625</ele>
        <time>2026-06-18T13:04:07.000Z</time>
        <extensions>
          <ns3:TrackPointExtension>
            <ns3:atemp>27.0</ns3:atemp>
          </ns3:TrackPointExtension>
        </extensions>
      </trkpt>
      <trkpt lat="42.549947239458560943603515625" lon="19.79948566295206546783447265625">
        <ele>992</ele>
        <time>2026-06-18T13:04:08.000Z</time>
        <extensions>
          <ns3:TrackPointExtension>
            <ns3:atemp>27.0</ns3:atemp>
          </ns3:TrackPointExtension>
        </extensions>
      </trkpt>
      <trkpt lat="42.55001840181648731231689453125" lon="19.79952304624021053314208984375">
        <ele>991.79998779296875</ele>
        <time>2026-06-18T13:04:09.000Z</time>
        <extensions>
          <ns3:TrackPointExtension>
            <ns3:atemp>27.0</ns3:atemp>
          </ns3:TrackPointExtension>
        </extensions>
      </trkpt>
      <trkpt lat="42.550089396536350250244140625" lon="19.7995605133473873138427734375">
        <ele>991.5999755859375</ele>
        <time>2026-06-18T13:04:10.000Z</time>
        <extensions>
          <ns3:TrackPointExtension>
            <ns3:atemp>27.0</ns3:atemp>
          </ns3:TrackPointExtension>
        </extensions>
      </trkpt>
      <trkpt lat="42.55015921778976917266845703125" lon="19.79959680698812007904052734375">
        <ele>991.20001220703125</ele>
        <time>2026-06-18T13:04:11.000Z</time>
        <extensions>
          <ns3:TrackPointExtension>
            <ns3:atemp>27.0</ns3:atemp>
          </ns3:TrackPointExtension>
        </extensions>
      </trkpt>
      <trkpt lat="42.55022929050028324127197265625" lon="19.7996275685727596282958984375">
        <ele>991</ele>
        <time>2026-06-18T13:04:12.000Z</time>
        <extensions>
          <ns3:TrackPointExtension>
            <ns3:atemp>27.0</ns3:atemp>
          </ns3:TrackPointExtension>
        </extensions>
      </trkpt>
      <trkpt lat="42.55030171014368534088134765625" lon="19.79965833015739917755126953125">
        <ele>990.79998779296875</ele>
        <time>2026-06-18T13:04:13.000Z</time>
        <extensions>
          <ns3:TrackPointExtension>
            <ns3:atemp>27.0</ns3:atemp>
          </ns3:TrackPointExtension>
        </extensions>
      </trkpt>
      <trkpt lat="42.55037463270127773284912109375" lon="19.79968649335205554962158203125">
        <ele>990.5999755859375</ele>
        <time>2026-06-18T13:04:14.000Z</time>
        <extensions>
          <ns3:TrackPointExtension>
            <ns3:atemp>27.0</ns3:atemp>
          </ns3:TrackPointExtension>
        </extensions>
      </trkpt>
      <trkpt lat="42.5504506565630435943603515625" lon="19.79971147142350673675537109375">
        <ele>990.4000244140625</ele>
        <time>2026-06-18T13:04:15.000Z</time>
        <extensions>
          <ns3:TrackPointExtension>
            <ns3:atemp>27.0</ns3:atemp>
          </ns3:TrackPointExtension>
        </extensions>
      </trkpt>
      <trkpt lat="42.55052684806287288665771484375" lon="19.79973829351365566253662109375">
        <ele>990.4000244140625</ele>
        <time>2026-06-18T13:04:16.000Z</time>
        <extensions>
          <ns3:TrackPointExtension>
            <ns3:atemp>27.0</ns3:atemp>
          </ns3:TrackPointExtension>
        </extensions>
      </trkpt>
      <trkpt lat="42.55060069262981414794921875" lon="19.799763858318328857421875">
        <ele>990.20001220703125</ele>
        <time>2026-06-18T13:04:17.000Z</time>
        <extensions>
          <ns3:TrackPointExtension>
            <ns3:atemp>27.0</ns3:atemp>
          </ns3:TrackPointExtension>
        </extensions>
      </trkpt>
      <trkpt lat="42.55067101679742336273193359375" lon="19.799802415072917938232421875">
        <ele>990</ele>
        <time>2026-06-18T13:04:18.000Z</time>
        <extensions>
          <ns3:TrackPointExtension>
            <ns3:atemp>26.0</ns3:atemp>
          </ns3:TrackPointExtension>
        </extensions>
      </trkpt>
      <trkpt lat="42.550735808908939361572265625" lon="19.79985170066356658935546875">
        <ele>989.5999755859375</ele>
        <time>2026-06-18T13:04:19.000Z</time>
        <extensions>
          <ns3:TrackPointExtension>
            <ns3:atemp>26.0</ns3:atemp>
          </ns3:TrackPointExtension>
        </extensions>
      </trkpt>
      <trkpt lat="42.55079708062112331390380859375" lon="19.79990676976740360260009765625">
        <ele>989.4000244140625</ele>
        <time>2026-06-18T13:04:20.000Z</time>
        <extensions>
          <ns3:TrackPointExtension>
            <ns3:atemp>26.0</ns3:atemp>
          </ns3:TrackPointExtension>
        </extensions>
      </trkpt>
      <trkpt lat="42.55086044780910015106201171875" lon="19.79995739646255970001220703125">
        <ele>989.20001220703125</ele>
        <time>2026-06-18T13:04:21.000Z</time>
        <extensions>
          <ns3:TrackPointExtension>
            <ns3:atemp>26.0</ns3:atemp>
          </ns3:TrackPointExtension>
        </extensions>
      </trkpt>
      <trkpt lat="42.550922892987728118896484375" lon="19.79999997653067111968994140625">
        <ele>989</ele>
        <time>2026-06-18T13:04:22.000Z</time>
        <extensions>
          <ns3:TrackPointExtension>
            <ns3:atemp>26.0</ns3:atemp>
          </ns3:TrackPointExtension>
        </extensions>
      </trkpt>
      <trkpt lat="42.55098802037537097930908203125" lon="19.80003098957240581512451171875">
        <ele>988.79998779296875</ele>
        <time>2026-06-18T13:04:23.000Z</time>
        <extensions>
          <ns3:TrackPointExtension>
            <ns3:atemp>26.0</ns3:atemp>
          </ns3:TrackPointExtension>
        </extensions>
      </trkpt>
      <trkpt lat="42.55105691961944103240966796875" lon="19.80005010031163692474365234375">
        <ele>988.79998779296875</ele>
        <time>2026-06-18T13:04:24.000Z</time>
        <extensions>
          <ns3:TrackPointExtension>
            <ns3:atemp>26.0</ns3:atemp>
          </ns3:TrackPointExtension>
        </extensions>
      </trkpt>
      <trkpt lat="42.55112548358738422393798828125" lon="19.80006837286055088043212890625">
        <ele>988.79998779296875</ele>
        <time>2026-06-18T13:04:25.000Z</time>
        <extensions>
          <ns3:TrackPointExtension>
            <ns3:atemp>26.0</ns3:atemp>
          </ns3:TrackPointExtension>
        </extensions>
      </trkpt>
      <trkpt lat="42.551193125545978546142578125" lon="19.80008773505687713623046875">
        <ele>988.79998779296875</ele>
        <time>2026-06-18T13:04:26.000Z</time>
        <extensions>
          <ns3:TrackPointExtension>
            <ns3:atemp>26.0</ns3:atemp>
          </ns3:TrackPointExtension>
        </extensions>
      </trkpt>
      <trkpt lat="42.55126344971358776092529296875" lon="19.80010424740612506866455078125">
        <ele>988.79998779296875</ele>
        <time>2026-06-18T13:04:27.000Z</time>
        <extensions>
          <ns3:TrackPointExtension>
            <ns3:atemp>26.0</ns3:atemp>
          </ns3:TrackPointExtension>
        </extensions>
      </trkpt>
      <trkpt lat="42.55133251659572124481201171875" lon="19.8001180775463581085205078125">
        <ele>988.5999755859375</ele>
        <time>2026-06-18T13:04:28.000Z</time>
        <extensions>
          <ns3:TrackPointExtension>
            <ns3:atemp>26.0</ns3:atemp>
          </ns3:TrackPointExtension>
        </extensions>
      </trkpt>
      <trkpt lat="42.55140141583979129791259765625" lon="19.8001331649720668792724609375">
        <ele>988.5999755859375</ele>
        <time>2026-06-18T13:04:29.000Z</time>
        <extensions>
          <ns3:TrackPointExtension>
            <ns3:atemp>26.0</ns3:atemp>
          </ns3:TrackPointExtension>
        </extensions>
      </trkpt>
      <trkpt lat="42.55146997980773448944091796875" lon="19.800151772797107696533203125">
        <ele>988.4000244140625</ele>
        <time>2026-06-18T13:04:30.000Z</time>
        <extensions>
          <ns3:TrackPointExtension>
            <ns3:atemp>26.0</ns3:atemp>
          </ns3:TrackPointExtension>
        </extensions>
      </trkpt>
      <trkpt lat="42.5515414774417877197265625" lon="19.80016174726188182830810546875">
        <ele>988.20001220703125</ele>
        <time>2026-06-18T13:04:31.000Z</time>
        <extensions>
          <ns3:TrackPointExtension>
            <ns3:atemp>26.0</ns3:atemp>
          </ns3:TrackPointExtension>
        </extensions>
      </trkpt>
      <trkpt lat="42.551613561809062957763671875" lon="19.80017381720244884490966796875">
        <ele>988</ele>
        <time>2026-06-18T13:04:32.000Z</time>
        <extensions>
          <ns3:TrackPointExtension>
            <ns3:atemp>26.0</ns3:atemp>
          </ns3:TrackPointExtension>
        </extensions>
      </trkpt>
      <trkpt lat="42.55168497562408447265625" lon="19.8001834563910961151123046875">
        <ele>987.79998779296875</ele>
        <time>2026-06-18T13:04:33.000Z</time>
        <extensions>
          <ns3:TrackPointExtension>
            <ns3:atemp>26.0</ns3:atemp>
          </ns3:TrackPointExtension>
        </extensions>
      </trkpt>
      <trkpt lat="42.55175613798201084136962890625" lon="19.80019611306488513946533203125">
        <ele>987.4000244140625</ele>
        <time>2026-06-18T13:04:34.000Z</time>
        <extensions>
          <ns3:TrackPointExtension>
            <ns3:atemp>26.0</ns3:atemp>
          </ns3:TrackPointExtension>
        </extensions>
      </trkpt>
      <trkpt lat="42.55182621069252490997314453125" lon="19.80021036230027675628662109375">
        <ele>987.20001220703125</ele>
        <time>2026-06-18T13:04:35.000Z</time>
        <extensions>
          <ns3:TrackPointExtension>
            <ns3:atemp>26.0</ns3:atemp>
          </ns3:TrackPointExtension>
        </extensions>
      </trkpt>
      <trkpt lat="42.551896534860134124755859375" lon="19.8002260364592075347900390625">
        <ele>987</ele>
        <time>2026-06-18T13:04:36.000Z</time>
        <extensions>
          <ns3:TrackPointExtension>
            <ns3:atemp>26.0</ns3:atemp>
          </ns3:TrackPointExtension>
        </extensions>
      </trkpt>
      <trkpt lat="42.5519661046564579010009765625" lon="19.80024439282715320587158203125">
        <ele>986.79998779296875</ele>
        <time>2026-06-18T13:04:37.000Z</time>
        <extensions>
          <ns3:TrackPointExtension>
            <ns3:atemp>26.0</ns3:atemp>
          </ns3:TrackPointExtension>
        </extensions>
      </trkpt>
      <trkpt lat="42.55203609354794025421142578125" lon="19.80026987381279468536376953125">
        <ele>986.5999755859375</ele>
        <time>2026-06-18T13:04:38.000Z</time>
        <extensions>
          <ns3:TrackPointExtension>
            <ns3:atemp>26.0</ns3:atemp>
          </ns3:TrackPointExtension>
        </extensions>
      </trkpt>
      <trkpt lat="42.55210281349718570709228515625" lon="19.800295270979404449462890625">
        <ele>986.4000244140625</ele>
        <time>2026-06-18T13:04:39.000Z</time>
        <extensions>
          <ns3:TrackPointExtension>
            <ns3:atemp>26.0</ns3:atemp>
          </ns3:TrackPointExtension>
        </extensions>
      </trkpt>
      <trkpt lat="42.5521691143512725830078125" lon="19.8003199137747287750244140625">
        <ele>986</ele>
        <time>2026-06-18T13:04:40.000Z</time>
        <extensions>
          <ns3:TrackPointExtension>
            <ns3:atemp>26.0</ns3:atemp>
          </ns3:TrackPointExtension>
        </extensions>
      </trkpt>
      <trkpt lat="42.552235834300518035888671875" lon="19.8003396950662136077880859375">
        <ele>985.79998779296875</ele>
        <time>2026-06-18T13:04:41.000Z</time>
        <extensions>
          <ns3:TrackPointExtension>
            <ns3:atemp>26.0</ns3:atemp>
          </ns3:TrackPointExtension>
        </extensions>
      </trkpt>
      <trkpt lat="42.552300877869129180908203125" lon="19.8003526031970977783203125">
        <ele>985.5999755859375</ele>
        <time>2026-06-18T13:04:42.000Z</time>
        <extensions>
          <ns3:TrackPointExtension>
            <ns3:atemp>26.0</ns3:atemp>
          </ns3:TrackPointExtension>
        </extensions>
      </trkpt>
      <trkpt lat="42.5523675978183746337890625" lon="19.80035738088190555572509765625">
        <ele>985.4000244140625</ele>
        <time>2026-06-18T13:04:43.000Z</time>
        <extensions>
          <ns3:TrackPointExtension>
            <ns3:atemp>26.0</ns3:atemp>
          </ns3:TrackPointExtension>
        </extensions>
      </trkpt>
      <trkpt lat="42.55243574269115924835205078125" lon="19.800362996757030487060546875">
        <ele>985.20001220703125</ele>
        <time>2026-06-18T13:04:44.000Z</time>
        <extensions>
          <ns3:TrackPointExtension>
            <ns3:atemp>26.0</ns3:atemp>
          </ns3:TrackPointExtension>
        </extensions>
      </trkpt>
      <trkpt lat="42.55249810405075550079345703125" lon="19.80036475695669651031494140625">
        <ele>985.20001220703125</ele>
        <time>2026-06-18T13:04:45.000Z</time>
        <extensions>
          <ns3:TrackPointExtension>
            <ns3:atemp>26.0</ns3:atemp>
          </ns3:TrackPointExtension>
        </extensions>
      </trkpt>
      <trkpt lat="42.5525588728487491607666015625" lon="19.800371713936328887939453125">
        <ele>985.20001220703125</ele>
        <time>2026-06-18T13:04:46.000Z</time>
        <extensions>
          <ns3:TrackPointExtension>
            <ns3:atemp>26.0</ns3:atemp>
          </ns3:TrackPointExtension>
        </extensions>
      </trkpt>
      <trkpt lat="42.5526178814470767974853515625" lon="19.8003782518208026885986328125">
        <ele>985.20001220703125</ele>
        <time>2026-06-18T13:04:47.000Z</time>
        <extensions>
          <ns3:TrackPointExtension>
            <ns3:atemp>26.0</ns3:atemp>
          </ns3:TrackPointExtension>
        </extensions>
      </trkpt>
      <trkpt lat="42.55267462693154811859130859375" lon="19.8003842867910861968994140625">
        <ele>985.20001220703125</ele>
        <time>2026-06-18T13:04:48.000Z</time>
        <extensions>
          <ns3:TrackPointExtension>
            <ns3:atemp>26.0</ns3:atemp>
          </ns3:TrackPointExtension>
        </extensions>
      </trkpt>
      <trkpt lat="42.552733719348907470703125" lon="19.8003876395523548126220703125">
        <ele>985.4000244140625</ele>
        <time>2026-06-18T13:04:49.000Z</time>
        <extensions>
          <ns3:TrackPointExtension>
            <ns3:atemp>26.0</ns3:atemp>
          </ns3:TrackPointExtension>
        </extensions>
      </trkpt>
      <trkpt lat="42.5527925603091716766357421875" lon="19.80038956739008426666259765625">
        <ele>985.5999755859375</ele>
        <time>2026-06-18T13:04:50.000Z</time>
        <extensions>
          <ns3:TrackPointExtension>
            <ns3:atemp>26.0</ns3:atemp>
          </ns3:TrackPointExtension>
        </extensions>
      </trkpt>
      <trkpt lat="42.5528532452881336212158203125" lon="19.8003893159329891204833984375">
        <ele>985.5999755859375</ele>
        <time>2026-06-18T13:04:51.000Z</time>
        <extensions>
          <ns3:TrackPointExtension>
            <ns3:atemp>26.0</ns3:atemp>
          </ns3:TrackPointExtension>
        </extensions>
      </trkpt>
      <trkpt lat="42.55291367881000041961669921875" lon="19.80039082467555999755859375">
        <ele>985.5999755859375</ele>
        <time>2026-06-18T13:04:52.000Z</time>
        <extensions>
          <ns3:TrackPointExtension>
            <ns3:atemp>26.0</ns3:atemp>
          </ns3:TrackPointExtension>
        </extensions>
      </trkpt>
      <trkpt lat="42.55297285504639148712158203125" lon="19.800395853817462921142578125">
        <ele>985.5999755859375</ele>
        <time>2026-06-18T13:04:53.000Z</time>
        <extensions>
          <ns3:TrackPointExtension>
            <ns3:atemp>26.0</ns3:atemp>
          </ns3:TrackPointExtension>
        </extensions>
      </trkpt>
      <trkpt lat="42.553031779825687408447265625" lon="19.800407588481903076171875">
        <ele>985.4000244140625</ele>
        <time>2026-06-18T13:04:54.000Z</time>
        <extensions>
          <ns3:TrackPointExtension>
            <ns3:atemp>26.0</ns3:atemp>
          </ns3:TrackPointExtension>
        </extensions>
      </trkpt>
      <trkpt lat="42.55308978259563446044921875" lon="19.8004285432398319244384765625">
        <ele>985.4000244140625</ele>
        <time>2026-06-18T13:04:55.000Z</time>
        <extensions>
          <ns3:TrackPointExtension>
            <ns3:atemp>26.0</ns3:atemp>
          </ns3:TrackPointExtension>
        </extensions>
      </trkpt>
      <trkpt lat="42.5531489588320255279541015625" lon="19.800450839102268218994140625">
        <ele>985.20001220703125</ele>
        <time>2026-06-18T13:04:56.000Z</time>
        <extensions>
          <ns3:TrackPointExtension>
            <ns3:atemp>26.0</ns3:atemp>
          </ns3:TrackPointExtension>
        </extensions>
      </trkpt>
      <trkpt lat="42.55321240983903408050537109375" lon="19.8004791699349880218505859375">
        <ele>985.20001220703125</ele>
        <time>2026-06-18T13:04:57.000Z</time>
        <extensions>
          <ns3:TrackPointExtension>
            <ns3:atemp>26.0</ns3:atemp>
          </ns3:TrackPointExtension>
        </extensions>
      </trkpt>
      <trkpt lat="42.553277201950550079345703125" lon="19.8005108535289764404296875">
        <ele>985</ele>
        <time>2026-06-18T13:04:58.000Z</time>
        <extensions>
          <ns3:TrackPointExtension>
            <ns3:atemp>26.0</ns3:atemp>
          </ns3:TrackPointExtension>
        </extensions>
      </trkpt>
      <trkpt lat="42.553344927728176116943359375" lon="19.8005408607423305511474609375">
        <ele>984.79998779296875</ele>
        <time>2026-06-18T13:04:59.000Z</time>
        <extensions>
          <ns3:TrackPointExtension>
            <ns3:atemp>26.0</ns3:atemp>
          </ns3:TrackPointExtension>
        </extensions>
      </trkpt>
      <trkpt lat="42.5534098036587238311767578125" lon="19.80057463981211185455322265625">
        <ele>984.79998779296875</ele>
        <time>2026-06-18T13:05:00.000Z</time>
        <extensions>
          <ns3:TrackPointExtension>
            <ns3:atemp>26.0</ns3:atemp>
          </ns3:TrackPointExtension>
        </extensions>
      </trkpt>
      <trkpt lat="42.55347023718059062957763671875" lon="19.8006156273186206817626953125">
        <ele>984.4000244140625</ele>
        <time>2026-06-18T13:05:01.000Z</time>
        <extensions>
          <ns3:TrackPointExtension>
            <ns3:atemp>26.0</ns3:atemp>
          </ns3:TrackPointExtension>
        </extensions>
      </trkpt>
      <trkpt lat="42.55352606065571308135986328125" lon="19.80066482909023761749267578125">
        <ele>984.4000244140625</ele>
        <time>2026-06-18T13:05:02.000Z</time>
        <extensions>
          <ns3:TrackPointExtension>
            <ns3:atemp>26.0</ns3:atemp>
          </ns3:TrackPointExtension>
        </extensions>
      </trkpt>
      <trkpt lat="42.5535804592072963714599609375" lon="19.80072031728923320770263671875">
        <ele>984.20001220703125</ele>
        <time>2026-06-18T13:05:03.000Z</time>
        <extensions>
          <ns3:TrackPointExtension>
            <ns3:atemp>26.0</ns3:atemp>
          </ns3:TrackPointExtension>
        </extensions>
      </trkpt>
      <trkpt lat="42.553633265197277069091796875" lon="19.8007732070982456207275390625">
        <ele>984</ele>
        <time>2026-06-18T13:05:04.000Z</time>
        <extensions>
          <ns3:TrackPointExtension>
            <ns3:atemp>26.0</ns3:atemp>
          </ns3:TrackPointExtension>
        </extensions>
      </trkpt>
      <trkpt lat="42.55368389189243316650390625" lon="19.800825007259845733642578125">
        <ele>984</ele>
        <time>2026-06-18T13:05:05.000Z</time>
        <extensions>
          <ns3:TrackPointExtension>
            <ns3:atemp>26.0</ns3:atemp>
          </ns3:TrackPointExtension>
        </extensions>
      </trkpt>
      <trkpt lat="42.55372990854084491729736328125" lon="19.800880663096904754638671875">
        <ele>984</ele>
        <time>2026-06-18T13:05:06.000Z</time>
        <extensions>
          <ns3:TrackPointExtension>
            <ns3:atemp>26.0</ns3:atemp>
          </ns3:TrackPointExtension>
        </extensions>
      </trkpt>
      <trkpt lat="42.55377852357923984527587890625" lon="19.80093724094331264495849609375">
        <ele>983.79998779296875</ele>
        <time>2026-06-18T13:05:07.000Z</time>
        <extensions>
          <ns3:TrackPointExtension>
            <ns3:atemp>26.0</ns3:atemp>
          </ns3:TrackPointExtension>
        </extensions>
      </trkpt>
      <trkpt lat="42.55382881499826908111572265625" lon="19.80099298059940338134765625">
        <ele>983.79998779296875</ele>
        <time>2026-06-18T13:05:08.000Z</time>
        <extensions>
          <ns3:TrackPointExtension>
            <ns3:atemp>26.0</ns3:atemp>
          </ns3:TrackPointExtension>
        </extensions>
      </trkpt>
      <trkpt lat="42.5538852252066135406494140625" lon="19.80104939080774784088134765625">
        <ele>983.5999755859375</ele>
        <time>2026-06-18T13:05:09.000Z</time>
        <extensions>
          <ns3:TrackPointExtension>
            <ns3:atemp>26.0</ns3:atemp>
          </ns3:TrackPointExtension>
        </extensions>
      </trkpt>
      <trkpt lat="42.5539422221481800079345703125" lon="19.80110655538737773895263671875">
        <ele>983.4000244140625</ele>
        <time>2026-06-18T13:05:10.000Z</time>
        <extensions>
          <ns3:TrackPointExtension>
            <ns3:atemp>26.0</ns3:atemp>
          </ns3:TrackPointExtension>
        </extensions>
      </trkpt>
      <trkpt lat="42.5539995543658733367919921875" lon="19.80116623453795909881591796875">
        <ele>983</ele>
        <time>2026-06-18T13:05:11.000Z</time>
        <extensions>
          <ns3:TrackPointExtension>
            <ns3:atemp>26.0</ns3:atemp>
          </ns3:TrackPointExtension>
        </extensions>
      </trkpt>
      <trkpt lat="42.55405730567872524261474609375" lon="19.80122490786015987396240234375">
        <ele>982.79998779296875</ele>
        <time>2026-06-18T13:05:12.000Z</time>
        <extensions>
          <ns3:TrackPointExtension>
            <ns3:atemp>26.0</ns3:atemp>
          </ns3:TrackPointExtension>
        </extensions>
      </trkpt>
      <trkpt lat="42.554115392267704010009765625" lon="19.8012804798781871795654296875">
        <ele>982.5999755859375</ele>
        <time>2026-06-18T13:05:13.000Z</time>
        <extensions>
          <ns3:TrackPointExtension>
            <ns3:atemp>26.0</ns3:atemp>
          </ns3:TrackPointExtension>
        </extensions>
      </trkpt>
      <trkpt lat="42.5541738979518413543701171875" lon="19.80133496224880218505859375">
        <ele>982.4000244140625</ele>
        <time>2026-06-18T13:05:14.000Z</time>
        <extensions>
          <ns3:TrackPointExtension>
            <ns3:atemp>26.0</ns3:atemp>
          </ns3:TrackPointExtension>
        </extensions>
      </trkpt>
      <trkpt lat="42.55422569811344146728515625" lon="19.80138215236365795135498046875">
        <ele>982.4000244140625</ele>
        <time>2026-06-18T13:05:15.000Z</time>
        <extensions>
          <ns3:TrackPointExtension>
            <ns3:atemp>26.0</ns3:atemp>
          </ns3:TrackPointExtension>
        </extensions>
      </trkpt>
      <trkpt lat="42.5542768277227878570556640625" lon="19.80142674408853054046630859375">
        <ele>982.20001220703125</ele>
        <time>2026-06-18T13:05:16.000Z</time>
        <extensions>
          <ns3:TrackPointExtension>
            <ns3:atemp>26.0</ns3:atemp>
          </ns3:TrackPointExtension>
        </extensions>
      </trkpt>
      <trkpt lat="42.5543254427611827850341796875" lon="19.8014746047556400299072265625">
        <ele>982.20001220703125</ele>
        <time>2026-06-18T13:05:17.000Z</time>
        <extensions>
          <ns3:TrackPointExtension>
            <ns3:atemp>26.0</ns3:atemp>
          </ns3:TrackPointExtension>
        </extensions>
      </trkpt>
      <trkpt lat="42.5543727166950702667236328125" lon="19.8015342839062213897705078125">
        <ele>982.20001220703125</ele>
        <time>2026-06-18T13:05:18.000Z</time>
        <extensions>
          <ns3:TrackPointExtension>
            <ns3:atemp>26.0</ns3:atemp>
          </ns3:TrackPointExtension>
        </extensions>
      </trkpt>
      <trkpt lat="42.55441839806735515594482421875" lon="19.80160293169319629669189453125">
        <ele>982.20001220703125</ele>
        <time>2026-06-18T13:05:19.000Z</time>
        <extensions>
          <ns3:TrackPointExtension>
            <ns3:atemp>26.0</ns3:atemp>
          </ns3:TrackPointExtension>
        </extensions>
      </trkpt>
      <trkpt lat="42.55446634255349636077880859375" lon="19.801672585308551788330078125">
        <ele>982</ele>
        <time>2026-06-18T13:05:20.000Z</time>
        <extensions>
          <ns3:TrackPointExtension>
            <ns3:atemp>26.0</ns3:atemp>
          </ns3:TrackPointExtension>
        </extensions>
      </trkpt>
      <trkpt lat="42.5545160472393035888671875" lon="19.801741652190685272216796875">
        <ele>981.79998779296875</ele>
        <time>2026-06-18T13:05:21.000Z</time>
        <extensions>
          <ns3:TrackPointExtension>
            <ns3:atemp>26.0</ns3:atemp>
          </ns3:TrackPointExtension>
        </extensions>
      </trkpt>
      <trkpt lat="42.554566003382205963134765625" lon="19.80181398801505565643310546875">
        <ele>981.4000244140625</ele>
        <time>2026-06-18T13:05:22.000Z</time>
        <extensions>
          <ns3:TrackPointExtension>
            <ns3:atemp>26.0</ns3:atemp>
          </ns3:TrackPointExtension>
        </extensions>
      </trkpt>
      <trkpt lat="42.55461537279188632965087890625" lon="19.80188590474426746368408203125">
        <ele>981.20001220703125</ele>
        <time>2026-06-18T13:05:23.000Z</time>
        <extensions>
          <ns3:TrackPointExtension>
            <ns3:atemp>26.0</ns3:atemp>
          </ns3:TrackPointExtension>
        </extensions>
      </trkpt>
      <trkpt lat="42.55466482602059841156005859375" lon="19.80195798911154270172119140625">
        <ele>981</ele>
        <time>2026-06-18T13:05:24.000Z</time>
        <extensions>
          <ns3:TrackPointExtension>
            <ns3:atemp>26.0</ns3:atemp>
          </ns3:TrackPointExtension>
        </extensions>
      </trkpt>
      <trkpt lat="42.55471360869705677032470703125" lon="19.80203501880168914794921875">
        <ele>980.79998779296875</ele>
        <time>2026-06-18T13:05:25.000Z</time>
        <extensions>
          <ns3:TrackPointExtension>
            <ns3:atemp>26.0</ns3:atemp>
          </ns3:TrackPointExtension>
        </extensions>
      </trkpt>
      <trkpt lat="42.5547663308680057525634765625" lon="19.8021166585385799407958984375">
        <ele>980.4000244140625</ele>
        <time>2026-06-18T13:05:26.000Z</time>
        <extensions>
          <ns3:TrackPointExtension>
            <ns3:atemp>26.0</ns3:atemp>
          </ns3:TrackPointExtension>
        </extensions>
      </trkpt>
      <trkpt lat="42.55481720902025699615478515625" lon="19.8021941073238849639892578125">
        <ele>980</ele>
        <time>2026-06-18T13:05:27.000Z</time>
        <extensions>
          <ns3:TrackPointExtension>
            <ns3:atemp>26.0</ns3:atemp>
          </ns3:TrackPointExtension>
        </extensions>
      </trkpt>
      <trkpt lat="42.55487169139087200164794921875" lon="19.8022715561091899871826171875">
        <ele>979.79998779296875</ele>
        <time>2026-06-18T13:05:28.000Z</time>
        <extensions>
          <ns3:TrackPointExtension>
            <ns3:atemp>26.0</ns3:atemp>
          </ns3:TrackPointExtension>
        </extensions>
      </trkpt>
      <trkpt lat="42.55493287928402423858642578125" lon="19.8023374378681182861328125">
        <ele>979.5999755859375</ele>
        <time>2026-06-18T13:05:29.000Z</time>
        <extensions>
          <ns3:TrackPointExtension>
            <ns3:atemp>26.0</ns3:atemp>
          </ns3:TrackPointExtension>
        </extensions>
      </trkpt>
      <trkpt lat="42.554999850690364837646484375" lon="19.80240105651319026947021484375">
        <ele>979.4000244140625</ele>
        <time>2026-06-18T13:05:30.000Z</time>
        <extensions>
          <ns3:TrackPointExtension>
            <ns3:atemp>26.0</ns3:atemp>
          </ns3:TrackPointExtension>
        </extensions>
      </trkpt>
      <trkpt lat="42.55507436580955982208251953125" lon="19.8024593107402324676513671875">
        <ele>979.20001220703125</ele>
        <time>2026-06-18T13:05:31.000Z</time>
        <extensions>
          <ns3:TrackPointExtension>
            <ns3:atemp>26.0</ns3:atemp>
          </ns3:TrackPointExtension>
        </extensions>
      </trkpt>
      <trkpt lat="42.55515315569937229156494140625" lon="19.80250800959765911102294921875">
        <ele>978.79998779296875</ele>
        <time>2026-06-18T13:05:32.000Z</time>
        <extensions>
          <ns3:TrackPointExtension>
            <ns3:atemp>26.0</ns3:atemp>
          </ns3:TrackPointExtension>
        </extensions>
      </trkpt>
      <trkpt lat="42.55523244850337505340576171875" lon="19.80255528353154659271240234375">
        <ele>978.4000244140625</ele>
        <time>2026-06-18T13:05:33.000Z</time>
        <extensions>
          <ns3:TrackPointExtension>
            <ns3:atemp>26.0</ns3:atemp>
          </ns3:TrackPointExtension>
        </extensions>
      </trkpt>
      <trkpt lat="42.55530755035579204559326171875" lon="19.8026056587696075439453125">
        <ele>978</ele>
        <time>2026-06-18T13:05:34.000Z</time>
        <extensions>
          <ns3:TrackPointExtension>
            <ns3:atemp>26.0</ns3:atemp>
          </ns3:TrackPointExtension>
        </extensions>
      </trkpt>
      <trkpt lat="42.5553768686950206756591796875" lon="19.8026604764163494110107421875">
        <ele>977.5999755859375</ele>
        <time>2026-06-18T13:05:35.000Z</time>
        <extensions>
          <ns3:TrackPointExtension>
            <ns3:atemp>26.0</ns3:atemp>
          </ns3:TrackPointExtension>
        </extensions>
      </trkpt>
      <trkpt lat="42.55544400773942470550537109375" lon="19.80272124521434307098388671875">
        <ele>977.20001220703125</ele>
        <time>2026-06-18T13:05:36.000Z</time>
        <extensions>
          <ns3:TrackPointExtension>
            <ns3:atemp>26.0</ns3:atemp>
          </ns3:TrackPointExtension>
        </extensions>
      </trkpt>
      <trkpt lat="42.555508129298686981201171875" lon="19.8027826845645904541015625">
        <ele>976.79998779296875</ele>
        <time>2026-06-18T13:05:37.000Z</time>
        <extensions>
          <ns3:TrackPointExtension>
            <ns3:atemp>26.0</ns3:atemp>
          </ns3:TrackPointExtension>
        </extensions>
      </trkpt>
      <trkpt lat="42.55557040683925151824951171875" lon="19.80284345336258411407470703125">
        <ele>976.5999755859375</ele>
        <time>2026-06-18T13:05:38.000Z</time>
        <extensions>
          <ns3:TrackPointExtension>
            <ns3:atemp>26.0</ns3:atemp>
          </ns3:TrackPointExtension>
        </extensions>
      </trkpt>
      <trkpt lat="42.55562807433307170867919921875" lon="19.8029092513024806976318359375">
        <ele>976.4000244140625</ele>
        <time>2026-06-18T13:05:39.000Z</time>
        <extensions>
          <ns3:TrackPointExtension>
            <ns3:atemp>26.0</ns3:atemp>
          </ns3:TrackPointExtension>
        </extensions>
      </trkpt>
      <trkpt lat="42.55567953921854496002197265625" lon="19.80298242531716823577880859375">
        <ele>976.20001220703125</ele>
        <time>2026-06-18T13:05:40.000Z</time>
        <extensions>
          <ns3:TrackPointExtension>
            <ns3:atemp>26.0</ns3:atemp>
          </ns3:TrackPointExtension>
        </extensions>
      </trkpt>
      <trkpt lat="42.5557238794863224029541015625" lon="19.80306138284504413604736328125">
        <ele>976</ele>
        <time>2026-06-18T13:05:41.000Z</time>
        <extensions>
          <ns3:TrackPointExtension>
            <ns3:atemp>26.0</ns3:atemp>
          </ns3:TrackPointExtension>
        </extensions>
      </trkpt>
      <trkpt lat="42.55575983785092830657958984375" lon="19.80314075946807861328125">
        <ele>975.79998779296875</ele>
        <time>2026-06-18T13:05:42.000Z</time>
        <extensions>
          <ns3:TrackPointExtension>
            <ns3:atemp>26.0</ns3:atemp>
          </ns3:TrackPointExtension>
        </extensions>
      </trkpt>
      <trkpt lat="42.55580225028097629547119140625" lon="19.80321980081498622894287109375">
        <ele>975.79998779296875</ele>
        <time>2026-06-18T13:05:43.000Z</time>
        <extensions>
          <ns3:TrackPointExtension>
            <ns3:atemp>26.0</ns3:atemp>
          </ns3:TrackPointExtension>
        </extensions>
      </trkpt>
      <trkpt lat="42.55584918893873691558837890625" lon="19.8032941482961177825927734375">
        <ele>975.5999755859375</ele>
        <time>2026-06-18T13:05:44.000Z</time>
        <extensions>
          <ns3:TrackPointExtension>
            <ns3:atemp>26.0</ns3:atemp>
          </ns3:TrackPointExtension>
        </extensions>
      </trkpt>
      <trkpt lat="42.55590266548097133636474609375" lon="19.80336447246372699737548828125">
        <ele>975.5999755859375</ele>
        <time>2026-06-18T13:05:45.000Z</time>
        <extensions>
          <ns3:TrackPointExtension>
            <ns3:atemp>26.0</ns3:atemp>
          </ns3:TrackPointExtension>
        </extensions>
      </trkpt>
      <trkpt lat="42.55596083588898181915283203125" lon="19.80342901311814785003662109375">
        <ele>975.5999755859375</ele>
        <time>2026-06-18T13:05:46.000Z</time>
        <extensions>
          <ns3:TrackPointExtension>
            <ns3:atemp>26.0</ns3:atemp>
          </ns3:TrackPointExtension>
        </extensions>
      </trkpt>
      <trkpt lat="42.556022442877292633056640625" lon="19.803481064736843109130859375">
        <ele>975.4000244140625</ele>
        <time>2026-06-18T13:05:47.000Z</time>
        <extensions>
          <ns3:TrackPointExtension>
            <ns3:atemp>26.0</ns3:atemp>
          </ns3:TrackPointExtension>
        </extensions>
      </trkpt>
      <trkpt lat="42.55608706735074520111083984375" lon="19.8035298474133014678955078125">
        <ele>975</ele>
        <time>2026-06-18T13:05:48.000Z</time>
        <extensions>
          <ns3:TrackPointExtension>
            <ns3:atemp>26.0</ns3:atemp>
          </ns3:TrackPointExtension>
        </extensions>
      </trkpt>
      <trkpt lat="42.55614959634840488433837890625" lon="19.80357435531914234161376953125">
        <ele>975</ele>
        <time>2026-06-18T13:05:49.000Z</time>
        <extensions>
          <ns3:TrackPointExtension>
            <ns3:atemp>26.0</ns3:atemp>
          </ns3:TrackPointExtension>
        </extensions>
      </trkpt>
      <trkpt lat="42.55621564574539661407470703125" lon="19.803626239299774169921875">
        <ele>974.79998779296875</ele>
        <time>2026-06-18T13:05:50.000Z</time>
        <extensions>
          <ns3:TrackPointExtension>
            <ns3:atemp>26.0</ns3:atemp>
          </ns3:TrackPointExtension>
        </extensions>
      </trkpt>
      <trkpt lat="42.55628135986626148223876953125" lon="19.8036736808717250823974609375">
        <ele>974.5999755859375</ele>
        <time>2026-06-18T13:05:51.000Z</time>
        <extensions>
          <ns3:TrackPointExtension>
            <ns3:atemp>26.0</ns3:atemp>
          </ns3:TrackPointExtension>
        </extensions>
      </trkpt>
      <trkpt lat="42.556349337100982666015625" lon="19.8037212900817394256591796875">
        <ele>974.4000244140625</ele>
        <time>2026-06-18T13:05:52.000Z</time>
        <extensions>
          <ns3:TrackPointExtension>
            <ns3:atemp>26.0</ns3:atemp>
          </ns3:TrackPointExtension>
        </extensions>
      </trkpt>
      <trkpt lat="42.5564165599644184112548828125" lon="19.8037608526647090911865234375">
        <ele>974.20001220703125</ele>
        <time>2026-06-18T13:05:53.000Z</time>
        <extensions>
          <ns3:TrackPointExtension>
            <ns3:atemp>26.0</ns3:atemp>
          </ns3:TrackPointExtension>
        </extensions>
      </trkpt>
      <trkpt lat="42.55648168735206127166748046875" lon="19.8038037680089473724365234375">
        <ele>974</ele>
        <time>2026-06-18T13:05:54.000Z</time>
        <extensions>
          <ns3:TrackPointExtension>
            <ns3:atemp>26.0</ns3:atemp>
          </ns3:TrackPointExtension>
        </extensions>
      </trkpt>
      <trkpt lat="42.55654312670230865478515625" lon="19.80386755429208278656005859375">
        <ele>974</ele>
        <time>2026-06-18T13:05:55.000Z</time>
        <extensions>
          <ns3:TrackPointExtension>
            <ns3:atemp>26.0</ns3:atemp>
          </ns3:TrackPointExtension>
        </extensions>
      </trkpt>
      <trkpt lat="42.55658805370330810546875" lon="19.80394735001027584075927734375">
        <ele>973.79998779296875</ele>
        <time>2026-06-18T13:05:56.000Z</time>
        <extensions>
          <ns3:TrackPointExtension>
            <ns3:atemp>26.0</ns3:atemp>
          </ns3:TrackPointExtension>
        </extensions>
      </trkpt>
      <trkpt lat="42.5566167198121547698974609375" lon="19.80404072441160678863525390625">
        <ele>973.79998779296875</ele>
        <time>2026-06-18T13:05:57.000Z</time>
        <extensions>
          <ns3:TrackPointExtension>
            <ns3:atemp>26.0</ns3:atemp>
          </ns3:TrackPointExtension>
        </extensions>
      </trkpt>
      <trkpt lat="42.55663826130330562591552734375" lon="19.8041360266506671905517578125">
        <ele>973.5999755859375</ele>
        <time>2026-06-18T13:05:58.000Z</time>
        <extensions>
          <ns3:TrackPointExtension>
            <ns3:atemp>26.0</ns3:atemp>
          </ns3:TrackPointExtension>
        </extensions>
      </trkpt>
      <trkpt lat="42.55667162127792835235595703125" lon="19.8042282275855541229248046875">
        <ele>973.4000244140625</ele>
        <time>2026-06-18T13:05:59.000Z</time>
        <extensions>
          <ns3:TrackPointExtension>
            <ns3:atemp>26.0</ns3:atemp>
          </ns3:TrackPointExtension>
        </extensions>
      </trkpt>
      <trkpt lat="42.55671721883118152618408203125" lon="19.8043100349605083465576171875">
        <ele>973.20001220703125</ele>
        <time>2026-06-18T13:06:00.000Z</time>
        <extensions>
          <ns3:TrackPointExtension>
            <ns3:atemp>26.0</ns3:atemp>
          </ns3:TrackPointExtension>
        </extensions>
      </trkpt>
      <trkpt lat="42.5567682646214962005615234375" lon="19.80438823811709880828857421875">
        <ele>973</ele>
        <time>2026-06-18T13:06:01.000Z</time>
        <extensions>
          <ns3:TrackPointExtension>
            <ns3:atemp>26.0</ns3:atemp>
          </ns3:TrackPointExtension>
        </extensions>
      </trkpt>
      <trkpt lat="42.5568202324211597442626953125" lon="19.80446510016918182373046875">
        <ele>972.79998779296875</ele>
        <time>2026-06-18T13:06:02.000Z</time>
        <extensions>
          <ns3:TrackPointExtension>
            <ns3:atemp>26.0</ns3:atemp>
          </ns3:TrackPointExtension>
        </extensions>
      </trkpt>
      <trkpt lat="42.55686708725988864898681640625" lon="19.80453894473612308502197265625">
        <ele>972.5999755859375</ele>
        <time>2026-06-18T13:06:03.000Z</time>
        <extensions>
          <ns3:TrackPointExtension>
            <ns3:atemp>26.0</ns3:atemp>
          </ns3:TrackPointExtension>
        </extensions>
      </trkpt>
      <trkpt lat="42.55691637285053730010986328125" lon="19.80460616759955883026123046875">
        <ele>972.5999755859375</ele>
        <time>2026-06-18T13:06:04.000Z</time>
        <extensions>
          <ns3:TrackPointExtension>
            <ns3:atemp>26.0</ns3:atemp>
          </ns3:TrackPointExtension>
        </extensions>
      </trkpt>
      <trkpt lat="42.55696800537407398223876953125" lon="19.80467372573912143707275390625">
        <ele>972.5999755859375</ele>
        <time>2026-06-18T13:06:05.000Z</time>
        <extensions>
          <ns3:TrackPointExtension>
            <ns3:atemp>26.0</ns3:atemp>
          </ns3:TrackPointExtension>
        </extensions>
      </trkpt>
      <trkpt lat="42.55701796151697635650634765625" lon="19.804741032421588897705078125">
        <ele>972.5999755859375</ele>
        <time>2026-06-18T13:06:06.000Z</time>
        <extensions>
          <ns3:TrackPointExtension>
            <ns3:atemp>26.0</ns3:atemp>
          </ns3:TrackPointExtension>
        </extensions>
      </trkpt>
      <trkpt lat="42.55706573836505413055419921875" lon="19.80480615980923175811767578125">
        <ele>972.5999755859375</ele>
        <time>2026-06-18T13:06:07.000Z</time>
        <extensions>
          <ns3:TrackPointExtension>
            <ns3:atemp>26.0</ns3:atemp>
          </ns3:TrackPointExtension>
        </extensions>
      </trkpt>
      <trkpt lat="42.5571152754127979278564453125" lon="19.80487346649169921875">
        <ele>972.4000244140625</ele>
        <time>2026-06-18T13:06:08.000Z</time>
        <extensions>
          <ns3:TrackPointExtension>
            <ns3:atemp>26.0</ns3:atemp>
          </ns3:TrackPointExtension>
        </extensions>
      </trkpt>
      <trkpt lat="42.557166405022144317626953125" lon="19.80493993498384952545166015625">
        <ele>972.4000244140625</ele>
        <time>2026-06-18T13:06:09.000Z</time>
        <extensions>
          <ns3:TrackPointExtension>
            <ns3:atemp>26.0</ns3:atemp>
          </ns3:TrackPointExtension>
        </extensions>
      </trkpt>
      <trkpt lat="42.55721996538341045379638671875" lon="19.80500481091439723968505859375">
        <ele>972.4000244140625</ele>
        <time>2026-06-18T13:06:10.000Z</time>
        <extensions>
          <ns3:TrackPointExtension>
            <ns3:atemp>25.0</ns3:atemp>
          </ns3:TrackPointExtension>
        </extensions>
      </trkpt>
      <trkpt lat="42.55727461539208889007568359375" lon="19.80507236905395984649658203125">
        <ele>972.20001220703125</ele>
        <time>2026-06-18T13:06:11.000Z</time>
        <extensions>
          <ns3:TrackPointExtension>
            <ns3:atemp>25.0</ns3:atemp>
          </ns3:TrackPointExtension>
        </extensions>
      </trkpt>
      <trkpt lat="42.55732993595302104949951171875" lon="19.80514193885028362274169921875">
        <ele>972</ele>
        <time>2026-06-18T13:06:12.000Z</time>
        <extensions>
          <ns3:TrackPointExtension>
            <ns3:atemp>25.0</ns3:atemp>
          </ns3:TrackPointExtension>
        </extensions>
      </trkpt>
      <trkpt lat="42.557389698922634124755859375" lon="19.8052095808088779449462890625">
        <ele>971.79998779296875</ele>
        <time>2026-06-18T13:06:13.000Z</time>
        <extensions>
          <ns3:TrackPointExtension>
            <ns3:atemp>25.0</ns3:atemp>
          </ns3:TrackPointExtension>
        </extensions>
      </trkpt>
      <trkpt lat="42.5574465282261371612548828125" lon="19.80527780950069427490234375">
        <ele>971.5999755859375</ele>
        <time>2026-06-18T13:06:14.000Z</time>
        <extensions>
          <ns3:TrackPointExtension>
            <ns3:atemp>25.0</ns3:atemp>
          </ns3:TrackPointExtension>
        </extensions>
      </trkpt>
      <trkpt lat="42.55749774165451526641845703125" lon="19.80535282753407955169677734375">
        <ele>971.4000244140625</ele>
        <time>2026-06-18T13:06:15.000Z</time>
        <extensions>
          <ns3:TrackPointExtension>
            <ns3:atemp>25.0</ns3:atemp>
          </ns3:TrackPointExtension>
        </extensions>
      </trkpt>
      <trkpt lat="42.55754451267421245574951171875" lon="19.80543161742389202117919921875">
        <ele>971.4000244140625</ele>
        <time>2026-06-18T13:06:16.000Z</time>
        <extensions>
          <ns3:TrackPointExtension>
            <ns3:atemp>25.0</ns3:atemp>
          </ns3:TrackPointExtension>
        </extensions>
      </trkpt>
      <trkpt lat="42.5575906969606876373291015625" lon="19.80551543645560741424560546875">
        <ele>971.20001220703125</ele>
        <time>2026-06-18T13:06:17.000Z</time>
        <extensions>
          <ns3:TrackPointExtension>
            <ns3:atemp>25.0</ns3:atemp>
          </ns3:TrackPointExtension>
        </extensions>
      </trkpt>
      <trkpt lat="42.55763654597103595733642578125" lon="19.80559959076344966888427734375">
        <ele>971.20001220703125</ele>
        <time>2026-06-18T13:06:18.000Z</time>
        <extensions>
          <ns3:TrackPointExtension>
            <ns3:atemp>25.0</ns3:atemp>
          </ns3:TrackPointExtension>
        </extensions>
      </trkpt>
      <trkpt lat="42.557678036391735076904296875" lon="19.8056870140135288238525390625">
        <ele>971</ele>
        <time>2026-06-18T13:06:19.000Z</time>
        <extensions>
          <ns3:TrackPointExtension>
            <ns3:atemp>25.0</ns3:atemp>
          </ns3:TrackPointExtension>
        </extensions>
      </trkpt>
      <trkpt lat="42.55771617405116558074951171875" lon="19.80577695183455944061279296875">
        <ele>970.79998779296875</ele>
        <time>2026-06-18T13:06:20.000Z</time>
        <extensions>
          <ns3:TrackPointExtension>
            <ns3:atemp>25.0</ns3:atemp>
          </ns3:TrackPointExtension>
        </extensions>
      </trkpt>
      <trkpt lat="42.5577529706060886383056640625" lon="19.80587217025458812713623046875">
        <ele>970.5999755859375</ele>
        <time>2026-06-18T13:06:21.000Z</time>
        <extensions>
          <ns3:TrackPointExtension>
            <ns3:atemp>25.0</ns3:atemp>
          </ns3:TrackPointExtension>
        </extensions>
      </trkpt>
      <trkpt lat="42.55778708495199680328369140625" lon="19.80596990324556827545166015625">
        <ele>970.4000244140625</ele>
        <time>2026-06-18T13:06:22.000Z</time>
        <extensions>
          <ns3:TrackPointExtension>
            <ns3:atemp>25.0</ns3:atemp>
          </ns3:TrackPointExtension>
        </extensions>
      </trkpt>
      <trkpt lat="42.5578227080404758453369140625" lon="19.80606864206492900848388671875">
        <ele>970.20001220703125</ele>
        <time>2026-06-18T13:06:23.000Z</time>
        <extensions>
          <ns3:TrackPointExtension>
            <ns3:atemp>25.0</ns3:atemp>
          </ns3:TrackPointExtension>
        </extensions>
      </trkpt>
      <trkpt lat="42.5578565709292888641357421875" lon="19.806165285408496856689453125">
        <ele>970</ele>
        <time>2026-06-18T13:06:24.000Z</time>
        <extensions>
          <ns3:TrackPointExtension>
            <ns3:atemp>25.0</ns3:atemp>
          </ns3:TrackPointExtension>
        </extensions>
      </trkpt>
      <trkpt lat="42.5578937865793704986572265625" lon="19.80626058764755725860595703125">
        <ele>969.5999755859375</ele>
        <time>2026-06-18T13:06:25.000Z</time>
        <extensions>
          <ns3:TrackPointExtension>
            <ns3:atemp>25.0</ns3:atemp>
          </ns3:TrackPointExtension>
        </extensions>
      </trkpt>
      <trkpt lat="42.55793175660073757171630859375" lon="19.80635614134371280670166015625">
        <ele>969.20001220703125</ele>
        <time>2026-06-18T13:06:26.000Z</time>
        <extensions>
          <ns3:TrackPointExtension>
            <ns3:atemp>25.0</ns3:atemp>
          </ns3:TrackPointExtension>
        </extensions>
      </trkpt>
      <trkpt lat="42.5579652003943920135498046875" lon="19.8064558021724224090576171875">
        <ele>969</ele>
        <time>2026-06-18T13:06:27.000Z</time>
        <extensions>
          <ns3:TrackPointExtension>
            <ns3:atemp>25.0</ns3:atemp>
          </ns3:TrackPointExtension>
        </extensions>
      </trkpt>
      <trkpt lat="42.55800099112093448638916015625" lon="19.80655227787792682647705078125">
        <ele>968.79998779296875</ele>
        <time>2026-06-18T13:06:28.000Z</time>
        <extensions>
          <ns3:TrackPointExtension>
            <ns3:atemp>25.0</ns3:atemp>
          </ns3:TrackPointExtension>
        </extensions>
      </trkpt>
      <trkpt lat="42.5580376200377941131591796875" lon="19.80664749629795551300048828125">
        <ele>968.79998779296875</ele>
        <time>2026-06-18T13:06:29.000Z</time>
        <extensions>
          <ns3:TrackPointExtension>
            <ns3:atemp>25.0</ns3:atemp>
          </ns3:TrackPointExtension>
        </extensions>
      </trkpt>
      <trkpt lat="42.55807005800306797027587890625" lon="19.80673399753868579864501953125">
        <ele>968.5999755859375</ele>
        <time>2026-06-18T13:06:30.000Z</time>
        <extensions>
          <ns3:TrackPointExtension>
            <ns3:atemp>25.0</ns3:atemp>
          </ns3:TrackPointExtension>
        </extensions>
      </trkpt>
      <trkpt lat="42.55810123868286609649658203125" lon="19.80681764893233776092529296875">
        <ele>968.4000244140625</ele>
        <time>2026-06-18T13:06:31.000Z</time>
        <extensions>
          <ns3:TrackPointExtension>
            <ns3:atemp>25.0</ns3:atemp>
          </ns3:TrackPointExtension>
        </extensions>
      </trkpt>
      <trkpt lat="42.55812697112560272216796875" lon="19.80689945630729198455810546875">
        <ele>968.4000244140625</ele>
        <time>2026-06-18T13:06:32.000Z</time>
        <extensions>
          <ns3:TrackPointExtension>
            <ns3:atemp>25.0</ns3:atemp>
          </ns3:TrackPointExtension>
        </extensions>
      </trkpt>
      <trkpt lat="42.558152787387371063232421875" lon="19.8069858737289905548095703125">
        <ele>968.4000244140625</ele>
        <time>2026-06-18T13:06:33.000Z</time>
        <extensions>
          <ns3:TrackPointExtension>
            <ns3:atemp>25.0</ns3:atemp>
          </ns3:TrackPointExtension>
        </extensions>
      </trkpt>
      <trkpt lat="42.5581787712872028350830078125" lon="19.807067848742008209228515625">
        <ele>968.4000244140625</ele>
        <time>2026-06-18T13:06:34.000Z</time>
        <extensions>
          <ns3:TrackPointExtension>
            <ns3:atemp>25.0</ns3:atemp>
          </ns3:TrackPointExtension>
        </extensions>
      </trkpt>
      <trkpt lat="42.558203078806400299072265625" lon="19.80714856646955013275146484375">
        <ele>968.5999755859375</ele>
        <time>2026-06-18T13:06:35.000Z</time>
        <extensions>
          <ns3:TrackPointExtension>
            <ns3:atemp>25.0</ns3:atemp>
          </ns3:TrackPointExtension>
        </extensions>
      </trkpt>
      <trkpt lat="42.55822462029755115509033203125" lon="19.80722785927355289459228515625">
        <ele>968.79998779296875</ele>
        <time>2026-06-18T13:06:36.000Z</time>
        <extensions>
          <ns3:TrackPointExtension>
            <ns3:atemp>25.0</ns3:atemp>
          </ns3:TrackPointExtension>
        </extensions>
      </trkpt>
      <trkpt lat="42.558243982493877410888671875" lon="19.80730949901044368743896484375">
        <ele>968.79998779296875</ele>
        <time>2026-06-18T13:06:37.000Z</time>
        <extensions>
          <ns3:TrackPointExtension>
            <ns3:atemp>25.0</ns3:atemp>
          </ns3:TrackPointExtension>
        </extensions>
      </trkpt>
      <trkpt lat="42.558258064091205596923828125" lon="19.80738845653831958770751953125">
        <ele>969</ele>
        <time>2026-06-18T13:06:38.000Z</time>
        <extensions>
          <ns3:TrackPointExtension>
            <ns3:atemp>25.0</ns3:atemp>
          </ns3:TrackPointExtension>
        </extensions>
      </trkpt>
      <trkpt lat="42.55826954729855060577392578125" lon="19.80747009627521038055419921875">
        <ele>969</ele>
        <time>2026-06-18T13:06:39.000Z</time>
        <extensions>
          <ns3:TrackPointExtension>
            <ns3:atemp>25.0</ns3:atemp>
          </ns3:TrackPointExtension>
        </extensions>
      </trkpt>
      <trkpt lat="42.5582818686962127685546875" lon="19.80755031108856201171875">
        <ele>969</ele>
        <time>2026-06-18T13:06:40.000Z</time>
        <extensions>
          <ns3:TrackPointExtension>
            <ns3:atemp>25.0</ns3:atemp>
          </ns3:TrackPointExtension>
        </extensions>
      </trkpt>
      <trkpt lat="42.5582925975322723388671875" lon="19.80763354338705539703369140625">
        <ele>969.20001220703125</ele>
        <time>2026-06-18T13:06:41.000Z</time>
        <extensions>
          <ns3:TrackPointExtension>
            <ns3:atemp>25.0</ns3:atemp>
          </ns3:TrackPointExtension>
        </extensions>
      </trkpt>
      <trkpt lat="42.558304332196712493896484375" lon="19.807718284428119659423828125">
        <ele>969.20001220703125</ele>
        <time>2026-06-18T13:06:42.000Z</time>
        <extensions>
          <ns3:TrackPointExtension>
            <ns3:atemp>25.0</ns3:atemp>
          </ns3:TrackPointExtension>
        </extensions>
      </trkpt>
      <trkpt lat="42.55831497721374034881591796875" lon="19.807810820639133453369140625">
        <ele>969.20001220703125</ele>
        <time>2026-06-18T13:06:43.000Z</time>
        <extensions>
          <ns3:TrackPointExtension>
            <ns3:atemp>25.0</ns3:atemp>
          </ns3:TrackPointExtension>
        </extensions>
      </trkpt>
      <trkpt lat="42.55832134746015071868896484375" lon="19.807912744581699371337890625">
        <ele>969</ele>
        <time>2026-06-18T13:06:44.000Z</time>
        <extensions>
          <ns3:TrackPointExtension>
            <ns3:atemp>25.0</ns3:atemp>
          </ns3:TrackPointExtension>
        </extensions>
      </trkpt>
      <trkpt lat="42.55831816233694553375244140625" lon="19.80801894329488277435302734375">
        <ele>968.79998779296875</ele>
        <time>2026-06-18T13:06:45.000Z</time>
        <extensions>
          <ns3:TrackPointExtension>
            <ns3:atemp>25.0</ns3:atemp>
          </ns3:TrackPointExtension>
        </extensions>
      </trkpt>
      <trkpt lat="42.5583044998347759246826171875" lon="19.8081318475306034088134765625">
        <ele>968.4000244140625</ele>
        <time>2026-06-18T13:06:46.000Z</time>
        <extensions>
          <ns3:TrackPointExtension>
            <ns3:atemp>25.0</ns3:atemp>
          </ns3:TrackPointExtension>
        </extensions>
      </trkpt>
      <trkpt lat="42.55828077904880046844482421875" lon="19.8082424886524677276611328125">
        <ele>968</ele>
        <time>2026-06-18T13:06:47.000Z</time>
        <extensions>
          <ns3:TrackPointExtension>
            <ns3:atemp>25.0</ns3:atemp>
          </ns3:TrackPointExtension>
        </extensions>
      </trkpt>
      <trkpt lat="42.5582612492144107818603515625" lon="19.808345921337604522705078125">
        <ele>967.5999755859375</ele>
        <time>2026-06-18T13:06:48.000Z</time>
        <extensions>
          <ns3:TrackPointExtension>
            <ns3:atemp>25.0</ns3:atemp>
          </ns3:TrackPointExtension>
        </extensions>
      </trkpt>
      <trkpt lat="42.558242641389369964599609375" lon="19.80844574980437755584716796875">
        <ele>967.4000244140625</ele>
        <time>2026-06-18T13:06:49.000Z</time>
        <extensions>
          <ns3:TrackPointExtension>
            <ns3:atemp>25.0</ns3:atemp>
          </ns3:TrackPointExtension>
        </extensions>
      </trkpt>
      <trkpt lat="42.55823618732392787933349609375" lon="19.808556139469146728515625">
        <ele>967</ele>
        <time>2026-06-18T13:06:50.000Z</time>
        <extensions>
          <ns3:TrackPointExtension>
            <ns3:atemp>25.0</ns3:atemp>
          </ns3:TrackPointExtension>
        </extensions>
      </trkpt>
      <trkpt lat="42.55823048762977123260498046875" lon="19.8086679540574550628662109375">
        <ele>966.79998779296875</ele>
        <time>2026-06-18T13:06:51.000Z</time>
        <extensions>
          <ns3:TrackPointExtension>
            <ns3:atemp>25.0</ns3:atemp>
          </ns3:TrackPointExtension>
        </extensions>
      </trkpt>
      <trkpt lat="42.5582139752805233001708984375" lon="19.80876761488616466522216796875">
        <ele>966.5999755859375</ele>
        <time>2026-06-18T13:06:52.000Z</time>
        <extensions>
          <ns3:TrackPointExtension>
            <ns3:atemp>25.0</ns3:atemp>
          </ns3:TrackPointExtension>
        </extensions>
      </trkpt>
      <trkpt lat="42.55820031277835369110107421875" lon="19.80886702425777912139892578125">
        <ele>966.4000244140625</ele>
        <time>2026-06-18T13:06:53.000Z</time>
        <extensions>
          <ns3:TrackPointExtension>
            <ns3:atemp>25.0</ns3:atemp>
          </ns3:TrackPointExtension>
        </extensions>
      </trkpt>
      <trkpt lat="42.55819293670356273651123046875" lon="19.80896316468715667724609375">
        <ele>966.4000244140625</ele>
        <time>2026-06-18T13:06:54.000Z</time>
        <extensions>
          <ns3:TrackPointExtension>
            <ns3:atemp>25.0</ns3:atemp>
          </ns3:TrackPointExtension>
        </extensions>
      </trkpt>
      <trkpt lat="42.55818991921842098236083984375" lon="19.80905796401202678680419921875">
        <ele>966.20001220703125</ele>
        <time>2026-06-18T13:06:55.000Z</time>
        <extensions>
          <ns3:TrackPointExtension>
            <ns3:atemp>25.0</ns3:atemp>
          </ns3:TrackPointExtension>
        </extensions>
      </trkpt>
      <trkpt lat="42.558183968067169189453125" lon="19.80915435589849948883056640625">
        <ele>966.20001220703125</ele>
        <time>2026-06-18T13:06:56.000Z</time>
        <extensions>
          <ns3:TrackPointExtension>
            <ns3:atemp>25.0</ns3:atemp>
          </ns3:TrackPointExtension>
        </extensions>
      </trkpt>
      <trkpt lat="42.55818237550556659698486328125" lon="19.80925150215625762939453125">
        <ele>966.20001220703125</ele>
        <time>2026-06-18T13:06:57.000Z</time>
        <extensions>
          <ns3:TrackPointExtension>
            <ns3:atemp>25.0</ns3:atemp>
          </ns3:TrackPointExtension>
        </extensions>
      </trkpt>
      <trkpt lat="42.558182962238788604736328125" lon="19.80935317464172840118408203125">
        <ele>966</ele>
        <time>2026-06-18T13:06:58.000Z</time>
        <extensions>
          <ns3:TrackPointExtension>
            <ns3:atemp>25.0</ns3:atemp>
          </ns3:TrackPointExtension>
        </extensions>
      </trkpt>
      <trkpt lat="42.55818195641040802001953125" lon="19.8094508238136768341064453125">
        <ele>966</ele>
        <time>2026-06-18T13:06:59.000Z</time>
        <extensions>
          <ns3:TrackPointExtension>
            <ns3:atemp>25.0</ns3:atemp>
          </ns3:TrackPointExtension>
        </extensions>
      </trkpt>
      <trkpt lat="42.55818187259137630462646484375" lon="19.8095445334911346435546875">
        <ele>965.79998779296875</ele>
        <time>2026-06-18T13:07:00.000Z</time>
        <extensions>
          <ns3:TrackPointExtension>
            <ns3:atemp>25.0</ns3:atemp>
          </ns3:TrackPointExtension>
        </extensions>
      </trkpt>
      <trkpt lat="42.558186315000057220458984375" lon="19.809640087187290191650390625">
        <ele>965.5999755859375</ele>
        <time>2026-06-18T13:07:01.000Z</time>
        <extensions>
          <ns3:TrackPointExtension>
            <ns3:atemp>25.0</ns3:atemp>
          </ns3:TrackPointExtension>
        </extensions>
      </trkpt>
      <trkpt lat="42.55819612182676792144775390625" lon="19.80973840691149234771728515625">
        <ele>965.5999755859375</ele>
        <time>2026-06-18T13:07:02.000Z</time>
        <extensions>
          <ns3:TrackPointExtension>
            <ns3:atemp>25.0</ns3:atemp>
          </ns3:TrackPointExtension>
        </extensions>
      </trkpt>
      <trkpt lat="42.55821053870022296905517578125" lon="19.809829853475093841552734375">
        <ele>965.4000244140625</ele>
        <time>2026-06-18T13:07:03.000Z</time>
        <extensions>
          <ns3:TrackPointExtension>
            <ns3:atemp>25.0</ns3:atemp>
          </ns3:TrackPointExtension>
        </extensions>
      </trkpt>
      <trkpt lat="42.5582310743629932403564453125" lon="19.80991744436323642730712890625">
        <ele>965.20001220703125</ele>
        <time>2026-06-18T13:07:04.000Z</time>
        <extensions>
          <ns3:TrackPointExtension>
            <ns3:atemp>25.0</ns3:atemp>
          </ns3:TrackPointExtension>
        </extensions>
      </trkpt>
      <trkpt lat="42.55825580097734928131103515625" lon="19.8100050352513790130615234375">
        <ele>965.20001220703125</ele>
        <time>2026-06-18T13:07:05.000Z</time>
        <extensions>
          <ns3:TrackPointExtension>
            <ns3:atemp>25.0</ns3:atemp>
          </ns3:TrackPointExtension>
        </extensions>
      </trkpt>
      <trkpt lat="42.5582847185432910919189453125" lon="19.81008893810212612152099609375">
        <ele>965.20001220703125</ele>
        <time>2026-06-18T13:07:06.000Z</time>
        <extensions>
          <ns3:TrackPointExtension>
            <ns3:atemp>25.0</ns3:atemp>
          </ns3:TrackPointExtension>
        </extensions>
      </trkpt>
      <trkpt lat="42.5583122111856937408447265625" lon="19.8101659677922725677490234375">
        <ele>965.20001220703125</ele>
        <time>2026-06-18T13:07:07.000Z</time>
        <extensions>
          <ns3:TrackPointExtension>
            <ns3:atemp>25.0</ns3:atemp>
          </ns3:TrackPointExtension>
        </extensions>
      </trkpt>
      <trkpt lat="42.5583380274474620819091796875" lon="19.8102407343685626983642578125">
        <ele>965.20001220703125</ele>
        <time>2026-06-18T13:07:08.000Z</time>
        <extensions>
          <ns3:TrackPointExtension>
            <ns3:atemp>25.0</ns3:atemp>
          </ns3:TrackPointExtension>
        </extensions>
      </trkpt>
      <trkpt lat="42.558359317481517791748046875" lon="19.81031273491680622100830078125">
        <ele>965.4000244140625</ele>
        <time>2026-06-18T13:07:09.000Z</time>
        <extensions>
          <ns3:TrackPointExtension>
            <ns3:atemp>25.0</ns3:atemp>
          </ns3:TrackPointExtension>
        </extensions>
      </trkpt>
      <trkpt lat="42.5583757460117340087890625" lon="19.81038180179893970489501953125">
        <ele>965.4000244140625</ele>
        <time>2026-06-18T13:07:10.000Z</time>
        <extensions>
          <ns3:TrackPointExtension>
            <ns3:atemp>25.0</ns3:atemp>
          </ns3:TrackPointExtension>
        </extensions>
      </trkpt>
      <trkpt lat="42.5583923421800136566162109375" lon="19.81045472435653209686279296875">
        <ele>965.5999755859375</ele>
        <time>2026-06-18T13:07:11.000Z</time>
        <extensions>
          <ns3:TrackPointExtension>
            <ns3:atemp>25.0</ns3:atemp>
          </ns3:TrackPointExtension>
        </extensions>
      </trkpt>
      <trkpt lat="42.5584079325199127197265625" lon="19.8105223663151264190673828125">
        <ele>965.79998779296875</ele>
        <time>2026-06-18T13:07:12.000Z</time>
        <extensions>
          <ns3:TrackPointExtension>
            <ns3:atemp>25.0</ns3:atemp>
          </ns3:TrackPointExtension>
        </extensions>
      </trkpt>
      <trkpt lat="42.55842176266014575958251953125" lon="19.81058816425502300262451171875">
        <ele>966.20001220703125</ele>
        <time>2026-06-18T13:07:13.000Z</time>
        <extensions>
          <ns3:TrackPointExtension>
            <ns3:atemp>25.0</ns3:atemp>
          </ns3:TrackPointExtension>
        </extensions>
      </trkpt>
      <trkpt lat="42.5584342516958713531494140625" lon="19.81065823696553707122802734375">
        <ele>966.5999755859375</ele>
        <time>2026-06-18T13:07:14.000Z</time>
        <extensions>
          <ns3:TrackPointExtension>
            <ns3:atemp>25.0</ns3:atemp>
          </ns3:TrackPointExtension>
        </extensions>
      </trkpt>
      <trkpt lat="42.558441460132598876953125" lon="19.8107322491705417633056640625">
        <ele>967.20001220703125</ele>
        <time>2026-06-18T13:07:15.000Z</time>
        <extensions>
          <ns3:TrackPointExtension>
            <ns3:atemp>25.0</ns3:atemp>
          </ns3:TrackPointExtension>
        </extensions>
      </trkpt>
      <trkpt lat="42.55844472907483577728271484375" lon="19.81080508790910243988037109375">
        <ele>967.5999755859375</ele>
        <time>2026-06-18T13:07:16.000Z</time>
        <extensions>
          <ns3:TrackPointExtension>
            <ns3:atemp>25.0</ns3:atemp>
          </ns3:TrackPointExtension>
        </extensions>
      </trkpt>
      <trkpt lat="42.55844213068485260009765625" lon="19.81087532825767993927001953125">
        <ele>968</ele>
        <time>2026-06-18T13:07:17.000Z</time>
        <extensions>
          <ns3:TrackPointExtension>
            <ns3:atemp>25.0</ns3:atemp>
          </ns3:TrackPointExtension>
        </extensions>
      </trkpt>
      <trkpt lat="42.55843685008585453033447265625" lon="19.81094271875917911529541015625">
        <ele>968.5999755859375</ele>
        <time>2026-06-18T13:07:18.000Z</time>
        <extensions>
          <ns3:TrackPointExtension>
            <ns3:atemp>25.0</ns3:atemp>
          </ns3:TrackPointExtension>
        </extensions>
      </trkpt>
      <trkpt lat="42.55843601189553737640380859375" lon="19.81101580895483493804931640625">
        <ele>969</ele>
        <time>2026-06-18T13:07:19.000Z</time>
        <extensions>
          <ns3:TrackPointExtension>
            <ns3:atemp>25.0</ns3:atemp>
          </ns3:TrackPointExtension>
        </extensions>
      </trkpt>
      <trkpt lat="42.55843869410455226898193359375" lon="19.8110883124172687530517578125">
        <ele>969.5999755859375</ele>
        <time>2026-06-18T13:07:20.000Z</time>
        <extensions>
          <ns3:TrackPointExtension>
            <ns3:atemp>25.0</ns3:atemp>
          </ns3:TrackPointExtension>
        </extensions>
      </trkpt>
      <trkpt lat="42.5584453158080577850341796875" lon="19.8111614026129245758056640625">
        <ele>970</ele>
        <time>2026-06-18T13:07:21.000Z</time>
        <extensions>
          <ns3:TrackPointExtension>
            <ns3:atemp>25.0</ns3:atemp>
          </ns3:TrackPointExtension>
        </extensions>
      </trkpt>
      <trkpt lat="42.55845193751156330108642578125" lon="19.8112356662750244140625">
        <ele>970.4000244140625</ele>
        <time>2026-06-18T13:07:22.000Z</time>
        <extensions>
          <ns3:TrackPointExtension>
            <ns3:atemp>25.0</ns3:atemp>
          </ns3:TrackPointExtension>
        </extensions>
      </trkpt>
      <trkpt lat="42.55846199579536914825439453125" lon="19.81130951084196567535400390625">
        <ele>970.5999755859375</ele>
        <time>2026-06-18T13:07:23.000Z</time>
        <extensions>
          <ns3:TrackPointExtension>
            <ns3:atemp>25.0</ns3:atemp>
          </ns3:TrackPointExtension>
        </extensions>
      </trkpt>
      <trkpt lat="42.55847507156431674957275390625" lon="19.81138226576149463653564453125">
        <ele>970.79998779296875</ele>
        <time>2026-06-18T13:07:24.000Z</time>
        <extensions>
          <ns3:TrackPointExtension>
            <ns3:atemp>25.0</ns3:atemp>
          </ns3:TrackPointExtension>
        </extensions>
      </trkpt>
      <trkpt lat="42.5584899075329303741455078125" lon="19.81145736761391162872314453125">
        <ele>971.20001220703125</ele>
        <time>2026-06-18T13:07:25.000Z</time>
        <extensions>
          <ns3:TrackPointExtension>
            <ns3:atemp>25.0</ns3:atemp>
          </ns3:TrackPointExtension>
        </extensions>
      </trkpt>
      <trkpt lat="42.55850474350154399871826171875" lon="19.8115342296659946441650390625">
        <ele>971.4000244140625</ele>
        <time>2026-06-18T13:07:26.000Z</time>
        <extensions>
          <ns3:TrackPointExtension>
            <ns3:atemp>25.0</ns3:atemp>
          </ns3:TrackPointExtension>
        </extensions>
      </trkpt>
      <trkpt lat="42.55852083675563335418701171875" lon="19.811607487499713897705078125">
        <ele>971.5999755859375</ele>
        <time>2026-06-18T13:07:27.000Z</time>
        <extensions>
          <ns3:TrackPointExtension>
            <ns3:atemp>25.0</ns3:atemp>
          </ns3:TrackPointExtension>
        </extensions>
      </trkpt>
      <trkpt lat="42.558537013828754425048828125" lon="19.81167864985764026641845703125">
        <ele>971.79998779296875</ele>
        <time>2026-06-18T13:07:28.000Z</time>
        <extensions>
          <ns3:TrackPointExtension>
            <ns3:atemp>25.0</ns3:atemp>
          </ns3:TrackPointExtension>
        </extensions>
      </trkpt>
      <trkpt lat="42.55855419673025608062744140625" lon="19.81174595654010772705078125">
        <ele>972</ele>
        <time>2026-06-18T13:07:29.000Z</time>
        <extensions>
          <ns3:TrackPointExtension>
            <ns3:atemp>25.0</ns3:atemp>
          </ns3:TrackPointExtension>
        </extensions>
      </trkpt>
      <trkpt lat="42.5585710443556308746337890625" lon="19.8118141852319240570068359375">
        <ele>972.20001220703125</ele>
        <time>2026-06-18T13:07:30.000Z</time>
        <extensions>
          <ns3:TrackPointExtension>
            <ns3:atemp>25.0</ns3:atemp>
          </ns3:TrackPointExtension>
        </extensions>
      </trkpt>
      <trkpt lat="42.55858873017132282257080078125" lon="19.81188677251338958740234375">
        <ele>972.5999755859375</ele>
        <time>2026-06-18T13:07:31.000Z</time>
        <extensions>
          <ns3:TrackPointExtension>
            <ns3:atemp>25.0</ns3:atemp>
          </ns3:TrackPointExtension>
        </extensions>
      </trkpt>
      <trkpt lat="42.5586037337779998779296875" lon="19.811953492462635040283203125">
        <ele>973</ele>
        <time>2026-06-18T13:07:32.000Z</time>
        <extensions>
          <ns3:TrackPointExtension>
            <ns3:atemp>25.0</ns3:atemp>
          </ns3:TrackPointExtension>
        </extensions>
      </trkpt>
      <trkpt lat="42.5586251914501190185546875" lon="19.81202624738216400146484375">
        <ele>973.20001220703125</ele>
        <time>2026-06-18T13:07:33.000Z</time>
        <extensions>
          <ns3:TrackPointExtension>
            <ns3:atemp>25.0</ns3:atemp>
          </ns3:TrackPointExtension>
        </extensions>
      </trkpt>
      <trkpt lat="42.5586468167603015899658203125" lon="19.812099002301692962646484375">
        <ele>973.5999755859375</ele>
        <time>2026-06-18T13:07:34.000Z</time>
        <extensions>
          <ns3:TrackPointExtension>
            <ns3:atemp>25.0</ns3:atemp>
          </ns3:TrackPointExtension>
        </extensions>
      </trkpt>
      <trkpt lat="42.558670453727245330810546875" lon="19.81217318214476108551025390625">
        <ele>973.79998779296875</ele>
        <time>2026-06-18T13:07:35.000Z</time>
        <extensions>
          <ns3:TrackPointExtension>
            <ns3:atemp>25.0</ns3:atemp>
          </ns3:TrackPointExtension>
        </extensions>
      </trkpt>
      <trkpt lat="42.55869165994226932525634765625" lon="19.8122446797788143157958984375">
        <ele>974.20001220703125</ele>
        <time>2026-06-18T13:07:36.000Z</time>
        <extensions>
          <ns3:TrackPointExtension>
            <ns3:atemp>25.0</ns3:atemp>
          </ns3:TrackPointExtension>
        </extensions>
      </trkpt>
      <trkpt lat="42.55871127359569072723388671875" lon="19.81231190264225006103515625">
        <ele>974.4000244140625</ele>
        <time>2026-06-18T13:07:37.000Z</time>
        <extensions>
          <ns3:TrackPointExtension>
            <ns3:atemp>25.0</ns3:atemp>
          </ns3:TrackPointExtension>
        </extensions>
      </trkpt>
      <trkpt lat="42.55873046815395355224609375" lon="19.81238205917179584503173828125">
        <ele>974.79998779296875</ele>
        <time>2026-06-18T13:07:38.000Z</time>
        <extensions>
          <ns3:TrackPointExtension>
            <ns3:atemp>25.0</ns3:atemp>
          </ns3:TrackPointExtension>
        </extensions>
      </trkpt>
      <trkpt lat="42.558749578893184661865234375" lon="19.81245162896811962127685546875">
        <ele>975</ele>
        <time>2026-06-18T13:07:39.000Z</time>
        <extensions>
          <ns3:TrackPointExtension>
            <ns3:atemp>25.0</ns3:atemp>
          </ns3:TrackPointExtension>
        </extensions>
      </trkpt>
      <trkpt lat="42.55877095274627208709716796875" lon="19.81251918710768222808837890625">
        <ele>975.4000244140625</ele>
        <time>2026-06-18T13:07:40.000Z</time>
        <extensions>
          <ns3:TrackPointExtension>
            <ns3:atemp>25.0</ns3:atemp>
          </ns3:TrackPointExtension>
        </extensions>
      </trkpt>
      <trkpt lat="42.5587926618754863739013671875" lon="19.812583141028881072998046875">
        <ele>975.5999755859375</ele>
        <time>2026-06-18T13:07:41.000Z</time>
        <extensions>
          <ns3:TrackPointExtension>
            <ns3:atemp>25.0</ns3:atemp>
          </ns3:TrackPointExtension>
        </extensions>
      </trkpt>
      <trkpt lat="42.5588184781372547149658203125" lon="19.8126490227878093719482421875">
        <ele>976</ele>
        <time>2026-06-18T13:07:42.000Z</time>
        <extensions>
          <ns3:TrackPointExtension>
            <ns3:atemp>25.0</ns3:atemp>
          </ns3:TrackPointExtension>
        </extensions>
      </trkpt>
      <trkpt lat="42.5588424503803253173828125" lon="19.81271264143288135528564453125">
        <ele>976.4000244140625</ele>
        <time>2026-06-18T13:07:43.000Z</time>
        <extensions>
          <ns3:TrackPointExtension>
            <ns3:atemp>25.0</ns3:atemp>
          </ns3:TrackPointExtension>
        </extensions>
      </trkpt>
      <trkpt lat="42.55886633880436420440673828125" lon="19.81277382932603359222412109375">
        <ele>976.79998779296875</ele>
        <time>2026-06-18T13:07:44.000Z</time>
        <extensions>
          <ns3:TrackPointExtension>
            <ns3:atemp>25.0</ns3:atemp>
          </ns3:TrackPointExtension>
        </extensions>
      </trkpt>
      <trkpt lat="42.558889724314212799072265625" lon="19.81283761560916900634765625">
        <ele>977</ele>
        <time>2026-06-18T13:07:45.000Z</time>
        <extensions>
          <ns3:TrackPointExtension>
            <ns3:atemp>25.0</ns3:atemp>
          </ns3:TrackPointExtension>
        </extensions>
      </trkpt>
      <trkpt lat="42.55891176871955394744873046875" lon="19.81290274299681186676025390625">
        <ele>977.4000244140625</ele>
        <time>2026-06-18T13:07:46.000Z</time>
        <extensions>
          <ns3:TrackPointExtension>
            <ns3:atemp>25.0</ns3:atemp>
          </ns3:TrackPointExtension>
        </extensions>
      </trkpt>
      <trkpt lat="42.55893557332456111907958984375" lon="19.812963344156742095947265625">
        <ele>978</ele>
        <time>2026-06-18T13:07:47.000Z</time>
        <extensions>
          <ns3:TrackPointExtension>
            <ns3:atemp>25.0</ns3:atemp>
          </ns3:TrackPointExtension>
        </extensions>
      </trkpt>
      <trkpt lat="42.55895602516829967498779296875" lon="19.8130272142589092254638671875">
        <ele>978.4000244140625</ele>
        <time>2026-06-18T13:07:48.000Z</time>
        <extensions>
          <ns3:TrackPointExtension>
            <ns3:atemp>25.0</ns3:atemp>
          </ns3:TrackPointExtension>
        </extensions>
      </trkpt>
      <trkpt lat="42.55897815339267253875732421875" lon="19.813093431293964385986328125">
        <ele>978.79998779296875</ele>
        <time>2026-06-18T13:07:49.000Z</time>
        <extensions>
          <ns3:TrackPointExtension>
            <ns3:atemp>25.0</ns3:atemp>
          </ns3:TrackPointExtension>
        </extensions>
      </trkpt>
      <trkpt lat="42.55900028161704540252685546875" lon="19.813162498176097869873046875">
        <ele>979.20001220703125</ele>
        <time>2026-06-18T13:07:50.000Z</time>
        <extensions>
          <ns3:TrackPointExtension>
            <ns3:atemp>25.0</ns3:atemp>
          </ns3:TrackPointExtension>
        </extensions>
      </trkpt>
      <trkpt lat="42.559023164212703704833984375" lon="19.8132283799350261688232421875">
        <ele>979.4000244140625</ele>
        <time>2026-06-18T13:07:51.000Z</time>
        <extensions>
          <ns3:TrackPointExtension>
            <ns3:atemp>25.0</ns3:atemp>
          </ns3:TrackPointExtension>
        </extensions>
      </trkpt>
      <trkpt lat="42.55904504097998142242431640625" lon="19.81329090893268585205078125">
        <ele>979.79998779296875</ele>
        <time>2026-06-18T13:07:52.000Z</time>
        <extensions>
          <ns3:TrackPointExtension>
            <ns3:atemp>25.0</ns3:atemp>
          </ns3:TrackPointExtension>
        </extensions>
      </trkpt>
      <trkpt lat="42.55906582809984683990478515625" lon="19.813357293605804443359375">
        <ele>980.20001220703125</ele>
        <time>2026-06-18T13:07:53.000Z</time>
        <extensions>
          <ns3:TrackPointExtension>
            <ns3:atemp>25.0</ns3:atemp>
          </ns3:TrackPointExtension>
        </extensions>
      </trkpt>
      <trkpt lat="42.55908787250518798828125" lon="19.8134238459169864654541015625">
        <ele>980.5999755859375</ele>
        <time>2026-06-18T13:07:54.000Z</time>
        <extensions>
          <ns3:TrackPointExtension>
            <ns3:atemp>25.0</ns3:atemp>
          </ns3:TrackPointExtension>
        </extensions>
      </trkpt>
      <trkpt lat="42.55910958163440227508544921875" lon="19.8134868778288364410400390625">
        <ele>980.79998779296875</ele>
        <time>2026-06-18T13:07:55.000Z</time>
        <extensions>
          <ns3:TrackPointExtension>
            <ns3:atemp>25.0</ns3:atemp>
          </ns3:TrackPointExtension>
        </extensions>
      </trkpt>
      <trkpt lat="42.55913279950618743896484375" lon="19.8135519213974475860595703125">
        <ele>981.20001220703125</ele>
        <time>2026-06-18T13:07:56.000Z</time>
        <extensions>
          <ns3:TrackPointExtension>
            <ns3:atemp>25.0</ns3:atemp>
          </ns3:TrackPointExtension>
        </extensions>
      </trkpt>
      <trkpt lat="42.559157274663448333740234375" lon="19.81361738406121730804443359375">
        <ele>981.5999755859375</ele>
        <time>2026-06-18T13:07:57.000Z</time>
        <extensions>
          <ns3:TrackPointExtension>
            <ns3:atemp>25.0</ns3:atemp>
          </ns3:TrackPointExtension>
        </extensions>
      </trkpt>
      <trkpt lat="42.55918082781136035919189453125" lon="19.8136873729526996612548828125">
        <ele>982</ele>
        <time>2026-06-18T13:07:58.000Z</time>
        <extensions>
          <ns3:TrackPointExtension>
            <ns3:atemp>25.0</ns3:atemp>
          </ns3:TrackPointExtension>
        </extensions>
      </trkpt>
      <trkpt lat="42.55920521914958953857421875" lon="19.813759289681911468505859375">
        <ele>982.20001220703125</ele>
        <time>2026-06-18T13:07:59.000Z</time>
        <extensions>
          <ns3:TrackPointExtension>
            <ns3:atemp>25.0</ns3:atemp>
          </ns3:TrackPointExtension>
        </extensions>
      </trkpt>
      <trkpt lat="42.559231705963611602783203125" lon="19.81383137404918670654296875">
        <ele>982.4000244140625</ele>
        <time>2026-06-18T13:08:00.000Z</time>
        <extensions>
          <ns3:TrackPointExtension>
            <ns3:atemp>25.0</ns3:atemp>
          </ns3:TrackPointExtension>
        </extensions>
      </trkpt>
      <trkpt lat="42.55925827659666538238525390625" lon="19.813902787864208221435546875">
        <ele>982.5999755859375</ele>
        <time>2026-06-18T13:08:01.000Z</time>
        <extensions>
          <ns3:TrackPointExtension>
            <ns3:atemp>25.0</ns3:atemp>
          </ns3:TrackPointExtension>
        </extensions>
      </trkpt>
      <trkpt lat="42.5592868588864803314208984375" lon="19.81397009454667568206787109375">
        <ele>982.79998779296875</ele>
        <time>2026-06-18T13:08:02.000Z</time>
        <extensions>
          <ns3:TrackPointExtension>
            <ns3:atemp>25.0</ns3:atemp>
          </ns3:TrackPointExtension>
        </extensions>
      </trkpt>
      <trkpt lat="42.5593136809766292572021484375" lon="19.81403983198106288909912109375">
        <ele>983</ele>
        <time>2026-06-18T13:08:03.000Z</time>
        <extensions>
          <ns3:TrackPointExtension>
            <ns3:atemp>25.0</ns3:atemp>
          </ns3:TrackPointExtension>
        </extensions>
      </trkpt>
      <trkpt lat="42.55933874286711215972900390625" lon="19.814111329615116119384765625">
        <ele>983.20001220703125</ele>
        <time>2026-06-18T13:08:04.000Z</time>
        <extensions>
          <ns3:TrackPointExtension>
            <ns3:atemp>25.0</ns3:atemp>
          </ns3:TrackPointExtension>
        </extensions>
      </trkpt>
      <trkpt lat="42.5593643076717853546142578125" lon="19.8141845874488353729248046875">
        <ele>983.4000244140625</ele>
        <time>2026-06-18T13:08:05.000Z</time>
        <extensions>
          <ns3:TrackPointExtension>
            <ns3:atemp>25.0</ns3:atemp>
          </ns3:TrackPointExtension>
        </extensions>
      </trkpt>
      <trkpt lat="42.559386603534221649169921875" lon="19.81425222940742969512939453125">
        <ele>983.4000244140625</ele>
        <time>2026-06-18T13:08:06.000Z</time>
        <extensions>
          <ns3:TrackPointExtension>
            <ns3:atemp>25.0</ns3:atemp>
          </ns3:TrackPointExtension>
        </extensions>
      </trkpt>
      <trkpt lat="42.5594065524637699127197265625" lon="19.814317189157009124755859375">
        <ele>983.5999755859375</ele>
        <time>2026-06-18T13:08:07.000Z</time>
        <extensions>
          <ns3:TrackPointExtension>
            <ns3:atemp>25.0</ns3:atemp>
          </ns3:TrackPointExtension>
        </extensions>
      </trkpt>
      <trkpt lat="42.55942909978330135345458984375" lon="19.81438122689723968505859375">
        <ele>983.79998779296875</ele>
        <time>2026-06-18T13:08:08.000Z</time>
        <extensions>
          <ns3:TrackPointExtension>
            <ns3:atemp>25.0</ns3:atemp>
          </ns3:TrackPointExtension>
        </extensions>
      </trkpt>
      <trkpt lat="42.55945407785475254058837890625" lon="19.81443478725850582122802734375">
        <ele>984.20001220703125</ele>
        <time>2026-06-18T13:08:09.000Z</time>
        <extensions>
          <ns3:TrackPointExtension>
            <ns3:atemp>25.0</ns3:atemp>
          </ns3:TrackPointExtension>
        </extensions>
      </trkpt>
      <trkpt lat="42.559478469192981719970703125" lon="19.81448256410658359527587890625">
        <ele>984.4000244140625</ele>
        <time>2026-06-18T13:08:10.000Z</time>
        <extensions>
          <ns3:TrackPointExtension>
            <ns3:atemp>25.0</ns3:atemp>
          </ns3:TrackPointExtension>
        </extensions>
      </trkpt>
      <trkpt lat="42.55950629711151123046875" lon="19.8145369626581668853759765625">
        <ele>984.4000244140625</ele>
        <time>2026-06-18T13:08:11.000Z</time>
        <extensions>
          <ns3:TrackPointExtension>
            <ns3:atemp>25.0</ns3:atemp>
          </ns3:TrackPointExtension>
        </extensions>
      </trkpt>
      <trkpt lat="42.5595346279442310333251953125" lon="19.81459655798971652984619140625">
        <ele>984.5999755859375</ele>
        <time>2026-06-18T13:08:12.000Z</time>
        <extensions>
          <ns3:TrackPointExtension>
            <ns3:atemp>25.0</ns3:atemp>
          </ns3:TrackPointExtension>
        </extensions>
      </trkpt>
      <trkpt lat="42.55956656299531459808349609375" lon="19.81466931290924549102783203125">
        <ele>984.4000244140625</ele>
        <time>2026-06-18T13:08:13.000Z</time>
        <extensions>
          <ns3:TrackPointExtension>
            <ns3:atemp>25.0</ns3:atemp>
          </ns3:TrackPointExtension>
        </extensions>
      </trkpt>
      <trkpt lat="42.5595993362367153167724609375" lon="19.814749024808406829833984375">
        <ele>984.20001220703125</ele>
        <time>2026-06-18T13:08:14.000Z</time>
        <extensions>
          <ns3:TrackPointExtension>
            <ns3:atemp>25.0</ns3:atemp>
          </ns3:TrackPointExtension>
        </extensions>
      </trkpt>
      <trkpt lat="42.55963093601167201995849609375" lon="19.8148309998214244842529296875">
        <ele>984</ele>
        <time>2026-06-18T13:08:15.000Z</time>
        <extensions>
          <ns3:TrackPointExtension>
            <ns3:atemp>25.0</ns3:atemp>
          </ns3:TrackPointExtension>
        </extensions>
      </trkpt>
      <trkpt lat="42.55966027267277240753173828125" lon="19.814918003976345062255859375">
        <ele>983.5999755859375</ele>
        <time>2026-06-18T13:08:16.000Z</time>
        <extensions>
          <ns3:TrackPointExtension>
            <ns3:atemp>25.0</ns3:atemp>
          </ns3:TrackPointExtension>
        </extensions>
      </trkpt>
      <trkpt lat="42.5596858374774456024169921875" lon="19.81501146219670772552490234375">
        <ele>983.20001220703125</ele>
        <time>2026-06-18T13:08:17.000Z</time>
        <extensions>
          <ns3:TrackPointExtension>
            <ns3:atemp>25.0</ns3:atemp>
          </ns3:TrackPointExtension>
        </extensions>
      </trkpt>
      <trkpt lat="42.55970788188278675079345703125" lon="19.81510274112224578857421875">
        <ele>983</ele>
        <time>2026-06-18T13:08:18.000Z</time>
        <extensions>
          <ns3:TrackPointExtension>
            <ns3:atemp>25.0</ns3:atemp>
          </ns3:TrackPointExtension>
        </extensions>
      </trkpt>
      <trkpt lat="42.5597250647842884063720703125" lon="19.81520558707416057586669921875">
        <ele>982.4000244140625</ele>
        <time>2026-06-18T13:08:19.000Z</time>
        <extensions>
          <ns3:TrackPointExtension>
            <ns3:atemp>25.0</ns3:atemp>
          </ns3:TrackPointExtension>
        </extensions>
      </trkpt>
      <trkpt lat="42.55973453633487224578857421875" lon="19.81531798839569091796875">
        <ele>982</ele>
        <time>2026-06-18T13:08:20.000Z</time>
        <extensions>
          <ns3:TrackPointExtension>
            <ns3:atemp>25.0</ns3:atemp>
          </ns3:TrackPointExtension>
        </extensions>
      </trkpt>
      <trkpt lat="42.55973897874355316162109375" lon="19.81543240137398242950439453125">
        <ele>981.4000244140625</ele>
        <time>2026-06-18T13:08:21.000Z</time>
        <extensions>
          <ns3:TrackPointExtension>
            <ns3:atemp>25.0</ns3:atemp>
          </ns3:TrackPointExtension>
        </extensions>
      </trkpt>
      <trkpt lat="42.5597411580383777618408203125" lon="19.8155478201806545257568359375">
        <ele>980.79998779296875</ele>
        <time>2026-06-18T13:08:22.000Z</time>
        <extensions>
          <ns3:TrackPointExtension>
            <ns3:atemp>25.0</ns3:atemp>
          </ns3:TrackPointExtension>
        </extensions>
      </trkpt>
      <trkpt lat="42.5597465224564075469970703125" lon="19.81566709466278553009033203125">
        <ele>980.20001220703125</ele>
        <time>2026-06-18T13:08:23.000Z</time>
        <extensions>
          <ns3:TrackPointExtension>
            <ns3:atemp>25.0</ns3:atemp>
          </ns3:TrackPointExtension>
        </extensions>
      </trkpt>
      <trkpt lat="42.55976052023470401763916015625" lon="19.81578796170651912689208984375">
        <ele>979.5999755859375</ele>
        <time>2026-06-18T13:08:24.000Z</time>
        <extensions>
          <ns3:TrackPointExtension>
            <ns3:atemp>25.0</ns3:atemp>
          </ns3:TrackPointExtension>
        </extensions>
      </trkpt>
      <trkpt lat="42.5597844086587429046630859375" lon="19.81590815819799900054931640625">
        <ele>979</ele>
        <time>2026-06-18T13:08:25.000Z</time>
        <extensions>
          <ns3:TrackPointExtension>
            <ns3:atemp>25.0</ns3:atemp>
          </ns3:TrackPointExtension>
        </extensions>
      </trkpt>
      <trkpt lat="42.55981064401566982269287109375" lon="19.8160232417285442352294921875">
        <ele>978.20001220703125</ele>
        <time>2026-06-18T13:08:26.000Z</time>
        <extensions>
          <ns3:TrackPointExtension>
            <ns3:atemp>25.0</ns3:atemp>
          </ns3:TrackPointExtension>
        </extensions>
      </trkpt>
      <trkpt lat="42.55984090268611907958984375" lon="19.8161429353058338165283203125">
        <ele>977.79998779296875</ele>
        <time>2026-06-18T13:08:27.000Z</time>
        <extensions>
          <ns3:TrackPointExtension>
            <ns3:atemp>25.0</ns3:atemp>
          </ns3:TrackPointExtension>
        </extensions>
      </trkpt>
      <trkpt lat="42.55988189019262790679931640625" lon="19.81626640073955059051513671875">
        <ele>977.20001220703125</ele>
        <time>2026-06-18T13:08:28.000Z</time>
        <extensions>
          <ns3:TrackPointExtension>
            <ns3:atemp>25.0</ns3:atemp>
          </ns3:TrackPointExtension>
        </extensions>
      </trkpt>
      <trkpt lat="42.55992296151816844940185546875" lon="19.8163893632590770721435546875">
        <ele>976.5999755859375</ele>
        <time>2026-06-18T13:08:29.000Z</time>
        <extensions>
          <ns3:TrackPointExtension>
            <ns3:atemp>25.0</ns3:atemp>
          </ns3:TrackPointExtension>
        </extensions>
      </trkpt>
      <trkpt lat="42.55996294319629669189453125" lon="19.81651584617793560028076171875">
        <ele>976</ele>
        <time>2026-06-18T13:08:30.000Z</time>
        <extensions>
          <ns3:TrackPointExtension>
            <ns3:atemp>25.0</ns3:atemp>
          </ns3:TrackPointExtension>
        </extensions>
      </trkpt>
      <trkpt lat="42.56000091321766376495361328125" lon="19.81664207763969898223876953125">
        <ele>975.20001220703125</ele>
        <time>2026-06-18T13:08:31.000Z</time>
        <extensions>
          <ns3:TrackPointExtension>
            <ns3:atemp>25.0</ns3:atemp>
          </ns3:TrackPointExtension>
        </extensions>
      </trkpt>
      <trkpt lat="42.56004273891448974609375" lon="19.81676847673952579498291015625">
        <ele>974.5999755859375</ele>
        <time>2026-06-18T13:08:32.000Z</time>
        <extensions>
          <ns3:TrackPointExtension>
            <ns3:atemp>25.0</ns3:atemp>
          </ns3:TrackPointExtension>
        </extensions>
      </trkpt>
      <trkpt lat="42.56008976139128208160400390625" lon="19.81689169071614742279052734375">
        <ele>973.79998779296875</ele>
        <time>2026-06-18T13:08:33.000Z</time>
        <extensions>
          <ns3:TrackPointExtension>
            <ns3:atemp>25.0</ns3:atemp>
          </ns3:TrackPointExtension>
        </extensions>
      </trkpt>
      <trkpt lat="42.56013058125972747802734375" lon="19.81701239012181758880615234375">
        <ele>973.20001220703125</ele>
        <time>2026-06-18T13:08:34.000Z</time>
        <extensions>
          <ns3:TrackPointExtension>
            <ns3:atemp>25.0</ns3:atemp>
          </ns3:TrackPointExtension>
        </extensions>
      </trkpt>
      <trkpt lat="42.56016679108142852783203125" lon="19.81714834459125995635986328125">
        <ele>972.79998779296875</ele>
        <time>2026-06-18T13:08:35.000Z</time>
        <extensions>
          <ns3:TrackPointExtension>
            <ns3:atemp>25.0</ns3:atemp>
          </ns3:TrackPointExtension>
        </extensions>
      </trkpt>
      <trkpt lat="42.5601957924664020538330078125" lon="19.81729410588741302490234375">
        <ele>972</ele>
        <time>2026-06-18T13:08:36.000Z</time>
        <extensions>
          <ns3:TrackPointExtension>
            <ns3:atemp>25.0</ns3:atemp>
          </ns3:TrackPointExtension>
        </extensions>
      </trkpt>
      <trkpt lat="42.56021867506206035614013671875" lon="19.817438609898090362548828125">
        <ele>971.20001220703125</ele>
        <time>2026-06-18T13:08:37.000Z</time>
        <extensions>
          <ns3:TrackPointExtension>
            <ns3:atemp>25.0</ns3:atemp>
          </ns3:TrackPointExtension>
        </extensions>
      </trkpt>
      <trkpt lat="42.5602366961538791656494140625" lon="19.81758378446102142333984375">
        <ele>970.4000244140625</ele>
        <time>2026-06-18T13:08:38.000Z</time>
        <extensions>
          <ns3:TrackPointExtension>
            <ns3:atemp>25.0</ns3:atemp>
          </ns3:TrackPointExtension>
        </extensions>
      </trkpt>
      <trkpt lat="42.56024197675287723541259765625" lon="19.8177281208336353302001953125">
        <ele>969.5999755859375</ele>
        <time>2026-06-18T13:08:39.000Z</time>
        <extensions>
          <ns3:TrackPointExtension>
            <ns3:atemp>25.0</ns3:atemp>
          </ns3:TrackPointExtension>
        </extensions>
      </trkpt>
      <trkpt lat="42.56024164147675037384033203125" lon="19.81788561679422855377197265625">
        <ele>968.5999755859375</ele>
        <time>2026-06-18T13:08:40.000Z</time>
        <extensions>
          <ns3:TrackPointExtension>
            <ns3:atemp>25.0</ns3:atemp>
          </ns3:TrackPointExtension>
        </extensions>
      </trkpt>
      <trkpt lat="42.560239546000957489013671875" lon="19.81804512441158294677734375">
        <ele>967.5999755859375</ele>
        <time>2026-06-18T13:08:41.000Z</time>
        <extensions>
          <ns3:TrackPointExtension>
            <ns3:atemp>25.0</ns3:atemp>
          </ns3:TrackPointExtension>
        </extensions>
      </trkpt>
      <trkpt lat="42.56023460067808628082275390625" lon="19.81820563785731792449951171875">
        <ele>966.79998779296875</ele>
        <time>2026-06-18T13:08:42.000Z</time>
        <extensions>
          <ns3:TrackPointExtension>
            <ns3:atemp>25.0</ns3:atemp>
          </ns3:TrackPointExtension>
        </extensions>
      </trkpt>
      <trkpt lat="42.56023057736456394195556640625" lon="19.818376041948795318603515625">
        <ele>966</ele>
        <time>2026-06-18T13:08:43.000Z</time>
        <extensions>
          <ns3:TrackPointExtension>
            <ns3:atemp>25.0</ns3:atemp>
          </ns3:TrackPointExtension>
        </extensions>
      </trkpt>
      <trkpt lat="42.56021976470947265625" lon="19.8185351304709911346435546875">
        <ele>965.20001220703125</ele>
        <time>2026-06-18T13:08:44.000Z</time>
        <extensions>
          <ns3:TrackPointExtension>
            <ns3:atemp>25.0</ns3:atemp>
          </ns3:TrackPointExtension>
        </extensions>
      </trkpt>
      <trkpt lat="42.56019897758960723876953125" lon="19.8186935484409332275390625">
        <ele>964.5999755859375</ele>
        <time>2026-06-18T13:08:45.000Z</time>
        <extensions>
          <ns3:TrackPointExtension>
            <ns3:atemp>25.0</ns3:atemp>
          </ns3:TrackPointExtension>
        </extensions>
      </trkpt>
      <trkpt lat="42.56017391569912433624267578125" lon="19.81885305605828762054443359375">
        <ele>963.79998779296875</ele>
        <time>2026-06-18T13:08:46.000Z</time>
        <extensions>
          <ns3:TrackPointExtension>
            <ns3:atemp>25.0</ns3:atemp>
          </ns3:TrackPointExtension>
        </extensions>
      </trkpt>
      <trkpt lat="42.560138292610645294189453125" lon="19.81900560669600963592529296875">
        <ele>963</ele>
        <time>2026-06-18T13:08:47.000Z</time>
        <extensions>
          <ns3:TrackPointExtension>
            <ns3:atemp>25.0</ns3:atemp>
          </ns3:TrackPointExtension>
        </extensions>
      </trkpt>
      <trkpt lat="42.56009009666740894317626953125" lon="19.81915949843823909759521484375">
        <ele>962.4000244140625</ele>
        <time>2026-06-18T13:08:48.000Z</time>
        <extensions>
          <ns3:TrackPointExtension>
            <ns3:atemp>25.0</ns3:atemp>
          </ns3:TrackPointExtension>
        </extensions>
      </trkpt>
      <trkpt lat="42.56003427319228649139404296875" lon="19.8193024098873138427734375">
        <ele>961.79998779296875</ele>
        <time>2026-06-18T13:08:49.000Z</time>
        <extensions>
          <ns3:TrackPointExtension>
            <ns3:atemp>25.0</ns3:atemp>
          </ns3:TrackPointExtension>
        </extensions>
      </trkpt>
      <trkpt lat="42.55998431704938411712646484375" lon="19.81944196857511997222900390625">
        <ele>961.20001220703125</ele>
        <time>2026-06-18T13:08:50.000Z</time>
        <extensions>
          <ns3:TrackPointExtension>
            <ns3:atemp>25.0</ns3:atemp>
          </ns3:TrackPointExtension>
        </extensions>
      </trkpt>
      <trkpt lat="42.55994475446641445159912109375" lon="19.81958932243287563323974609375">
        <ele>960.4000244140625</ele>
        <time>2026-06-18T13:08:51.000Z</time>
        <extensions>
          <ns3:TrackPointExtension>
            <ns3:atemp>25.0</ns3:atemp>
          </ns3:TrackPointExtension>
        </extensions>
      </trkpt>
      <trkpt lat="42.55990603007376194000244140625" lon="19.81973935849964618682861328125">
        <ele>959.5999755859375</ele>
        <time>2026-06-18T13:08:52.000Z</time>
        <extensions>
          <ns3:TrackPointExtension>
            <ns3:atemp>25.0</ns3:atemp>
          </ns3:TrackPointExtension>
        </extensions>
      </trkpt>
      <trkpt lat="42.55986697040498256683349609375" lon="19.81988067738711833953857421875">
        <ele>959.20001220703125</ele>
        <time>2026-06-18T13:08:53.000Z</time>
        <extensions>
          <ns3:TrackPointExtension>
            <ns3:atemp>25.0</ns3:atemp>
          </ns3:TrackPointExtension>
        </extensions>
      </trkpt>
      <trkpt lat="42.55982841365039348602294921875" lon="19.82002551667392253875732421875">
        <ele>958.5999755859375</ele>
        <time>2026-06-18T13:08:54.000Z</time>
        <extensions>
          <ns3:TrackPointExtension>
            <ns3:atemp>25.0</ns3:atemp>
          </ns3:TrackPointExtension>
        </extensions>
      </trkpt>
      <trkpt lat="42.55979287438094615936279296875" lon="19.82016867958009243011474609375">
        <ele>958.20001220703125</ele>
        <time>2026-06-18T13:08:55.000Z</time>
        <extensions>
          <ns3:TrackPointExtension>
            <ns3:atemp>25.0</ns3:atemp>
          </ns3:TrackPointExtension>
        </extensions>
      </trkpt>
      <trkpt lat="42.5597570836544036865234375" lon="19.82030731625854969024658203125">
        <ele>957.79998779296875</ele>
        <time>2026-06-18T13:08:56.000Z</time>
        <extensions>
          <ns3:TrackPointExtension>
            <ns3:atemp>25.0</ns3:atemp>
          </ns3:TrackPointExtension>
        </extensions>
      </trkpt>
      <trkpt lat="42.5597220472991466522216796875" lon="19.82044377364218235015869140625">
        <ele>957.20001220703125</ele>
        <time>2026-06-18T13:08:57.000Z</time>
        <extensions>
          <ns3:TrackPointExtension>
            <ns3:atemp>25.0</ns3:atemp>
          </ns3:TrackPointExtension>
        </extensions>
      </trkpt>
      <trkpt lat="42.5596868433058261871337890625" lon="19.82057821936905384063720703125">
        <ele>956.5999755859375</ele>
        <time>2026-06-18T13:08:58.000Z</time>
        <extensions>
          <ns3:TrackPointExtension>
            <ns3:atemp>25.0</ns3:atemp>
          </ns3:TrackPointExtension>
        </extensions>
      </trkpt>
      <trkpt lat="42.5596596859395503997802734375" lon="19.82071383856236934661865234375">
        <ele>956.20001220703125</ele>
        <time>2026-06-18T13:08:59.000Z</time>
        <extensions>
          <ns3:TrackPointExtension>
            <ns3:atemp>25.0</ns3:atemp>
          </ns3:TrackPointExtension>
        </extensions>
      </trkpt>
      <trkpt lat="42.55964350886642932891845703125" lon="19.82084224931895732879638671875">
        <ele>955.5999755859375</ele>
        <time>2026-06-18T13:09:00.000Z</time>
        <extensions>
          <ns3:TrackPointExtension>
            <ns3:atemp>25.0</ns3:atemp>
          </ns3:TrackPointExtension>
        </extensions>
      </trkpt>
      <trkpt lat="42.559639401733875274658203125" lon="19.8209836520254611968994140625">
        <ele>955.20001220703125</ele>
        <time>2026-06-18T13:09:01.000Z</time>
        <extensions>
          <ns3:TrackPointExtension>
            <ns3:atemp>25.0</ns3:atemp>
          </ns3:TrackPointExtension>
        </extensions>
      </trkpt>
      <trkpt lat="42.55963680334389209747314453125" lon="19.821123965084552764892578125">
        <ele>954.79998779296875</ele>
        <time>2026-06-18T13:09:02.000Z</time>
        <extensions>
          <ns3:TrackPointExtension>
            <ns3:atemp>25.0</ns3:atemp>
          </ns3:TrackPointExtension>
        </extensions>
      </trkpt>
      <trkpt lat="42.55962272174656391143798828125" lon="19.82126888819038867950439453125">
        <ele>954.20001220703125</ele>
        <time>2026-06-18T13:09:03.000Z</time>
        <extensions>
          <ns3:TrackPointExtension>
            <ns3:atemp>25.0</ns3:atemp>
          </ns3:TrackPointExtension>
        </extensions>
      </trkpt>
      <trkpt lat="42.55960059352219104766845703125" lon="19.82141590677201747894287109375">
        <ele>953.5999755859375</ele>
        <time>2026-06-18T13:09:04.000Z</time>
        <extensions>
          <ns3:TrackPointExtension>
            <ns3:atemp>25.0</ns3:atemp>
          </ns3:TrackPointExtension>
        </extensions>
      </trkpt>
      <trkpt lat="42.55956874229013919830322265625" lon="19.82155705802142620086669921875">
        <ele>953.20001220703125</ele>
        <time>2026-06-18T13:09:05.000Z</time>
        <extensions>
          <ns3:TrackPointExtension>
            <ns3:atemp>25.0</ns3:atemp>
          </ns3:TrackPointExtension>
        </extensions>
      </trkpt>
      <trkpt lat="42.5595262460410594940185546875" lon="19.82169653289020061492919921875">
        <ele>952.5999755859375</ele>
        <time>2026-06-18T13:09:06.000Z</time>
        <extensions>
          <ns3:TrackPointExtension>
            <ns3:atemp>25.0</ns3:atemp>
          </ns3:TrackPointExtension>
        </extensions>
      </trkpt>
      <trkpt lat="42.55948106758296489715576171875" lon="19.8218251951038837432861328125">
        <ele>951.79998779296875</ele>
        <time>2026-06-18T13:09:07.000Z</time>
        <extensions>
          <ns3:TrackPointExtension>
            <ns3:atemp>25.0</ns3:atemp>
          </ns3:TrackPointExtension>
        </extensions>
      </trkpt>
      <trkpt lat="42.55944234319031238555908203125" lon="19.82194882817566394805908203125">
        <ele>950.79998779296875</ele>
        <time>2026-06-18T13:09:08.000Z</time>
        <extensions>
          <ns3:TrackPointExtension>
            <ns3:atemp>25.0</ns3:atemp>
          </ns3:TrackPointExtension>
        </extensions>
      </trkpt>
      <trkpt lat="42.55940630100667476654052734375" lon="19.82207153923809528350830078125">
        <ele>950</ele>
        <time>2026-06-18T13:09:09.000Z</time>
        <extensions>
          <ns3:TrackPointExtension>
            <ns3:atemp>25.0</ns3:atemp>
          </ns3:TrackPointExtension>
        </extensions>
      </trkpt>
      <trkpt lat="42.559370510280132293701171875" lon="19.8221991956233978271484375">
        <ele>949.20001220703125</ele>
        <time>2026-06-18T13:09:10.000Z</time>
        <extensions>
          <ns3:TrackPointExtension>
            <ns3:atemp>25.0</ns3:atemp>
          </ns3:TrackPointExtension>
        </extensions>
      </trkpt>
      <trkpt lat="42.5593354739248752593994140625" lon="19.8223264329135417938232421875">
        <ele>948.4000244140625</ele>
        <time>2026-06-18T13:09:11.000Z</time>
        <extensions>
          <ns3:TrackPointExtension>
            <ns3:atemp>25.0</ns3:atemp>
          </ns3:TrackPointExtension>
        </extensions>
      </trkpt>
      <trkpt lat="42.55930135957896709442138671875" lon="19.8224370740354061126708984375">
        <ele>947.79998779296875</ele>
        <time>2026-06-18T13:09:12.000Z</time>
        <extensions>
          <ns3:TrackPointExtension>
            <ns3:atemp>25.0</ns3:atemp>
          </ns3:TrackPointExtension>
        </extensions>
      </trkpt>
      <trkpt lat="42.5592680834233760833740234375" lon="19.822546541690826416015625">
        <ele>947.20001220703125</ele>
        <time>2026-06-18T13:09:13.000Z</time>
        <extensions>
          <ns3:TrackPointExtension>
            <ns3:atemp>25.0</ns3:atemp>
          </ns3:TrackPointExtension>
        </extensions>
      </trkpt>
      <trkpt lat="42.55923849530518054962158203125" lon="19.82264184392988681793212890625">
        <ele>946.79998779296875</ele>
        <time>2026-06-18T13:09:14.000Z</time>
        <extensions>
          <ns3:TrackPointExtension>
            <ns3:atemp>25.0</ns3:atemp>
          </ns3:TrackPointExtension>
        </extensions>
      </trkpt>
      <trkpt lat="42.559215612709522247314453125" lon="19.8227270878851413726806640625">
        <ele>946.20001220703125</ele>
        <time>2026-06-18T13:09:15.000Z</time>
        <extensions>
          <ns3:TrackPointExtension>
            <ns3:atemp>25.0</ns3:atemp>
          </ns3:TrackPointExtension>
        </extensions>
      </trkpt>
      <trkpt lat="42.5592151097953319549560546875" lon="19.822819121181964874267578125">
        <ele>946</ele>
        <time>2026-06-18T13:09:16.000Z</time>
        <extensions>
          <ns3:TrackPointExtension>
            <ns3:atemp>25.0</ns3:atemp>
          </ns3:TrackPointExtension>
        </extensions>
      </trkpt>
      <trkpt lat="42.5592436082661151885986328125" lon="19.8228970728814601898193359375">
        <ele>945.79998779296875</ele>
        <time>2026-06-18T13:09:17.000Z</time>
        <extensions>
          <ns3:TrackPointExtension>
            <ns3:atemp>25.0</ns3:atemp>
          </ns3:TrackPointExtension>
        </extensions>
      </trkpt>
      <trkpt lat="42.5592878647148609161376953125" lon="19.8229555785655975341796875">
        <ele>945.4000244140625</ele>
        <time>2026-06-18T13:09:18.000Z</time>
        <extensions>
          <ns3:TrackPointExtension>
            <ns3:atemp>25.0</ns3:atemp>
          </ns3:TrackPointExtension>
        </extensions>
      </trkpt>
      <trkpt lat="42.559315860271453857421875" lon="19.82300050556659698486328125">
        <ele>945.20001220703125</ele>
        <time>2026-06-18T13:09:19.000Z</time>
        <extensions>
          <ns3:TrackPointExtension>
            <ns3:atemp>25.0</ns3:atemp>
          </ns3:TrackPointExtension>
        </extensions>
      </trkpt>
      <trkpt lat="42.5593408383429050445556640625" lon="19.82302992604672908782958984375">
        <ele>945</ele>
        <time>2026-06-18T13:09:20.000Z</time>
        <extensions>
          <ns3:TrackPointExtension>
            <ns3:atemp>25.0</ns3:atemp>
          </ns3:TrackPointExtension>
        </extensions>
      </trkpt>
      <trkpt lat="42.5593666546046733856201171875" lon="19.82304400764405727386474609375">
        <ele>944.79998779296875</ele>
        <time>2026-06-18T13:09:21.000Z</time>
        <extensions>
          <ns3:TrackPointExtension>
            <ns3:atemp>25.0</ns3:atemp>
          </ns3:TrackPointExtension>
        </extensions>
      </trkpt>
      <trkpt lat="42.55940211005508899688720703125" lon="19.823065884411334991455078125">
        <ele>944.5999755859375</ele>
        <time>2026-06-18T13:09:22.000Z</time>
        <extensions>
          <ns3:TrackPointExtension>
            <ns3:atemp>25.0</ns3:atemp>
          </ns3:TrackPointExtension>
        </extensions>
      </trkpt>
      <trkpt lat="42.55943781696259975433349609375" lon="19.82308960519731044769287109375">
        <ele>944.5999755859375</ele>
        <time>2026-06-18T13:09:23.000Z</time>
        <extensions>
          <ns3:TrackPointExtension>
            <ns3:atemp>25.0</ns3:atemp>
          </ns3:TrackPointExtension>
        </extensions>
      </trkpt>
      <trkpt lat="42.55947469733655452728271484375" lon="19.82311693020164966583251953125">
        <ele>944.5999755859375</ele>
        <time>2026-06-18T13:09:24.000Z</time>
        <extensions>
          <ns3:TrackPointExtension>
            <ns3:atemp>25.0</ns3:atemp>
          </ns3:TrackPointExtension>
        </extensions>
      </trkpt>
      <trkpt lat="42.55951191298663616180419921875" lon="19.8231498710811138153076171875">
        <ele>944.4000244140625</ele>
        <time>2026-06-18T13:09:25.000Z</time>
        <extensions>
          <ns3:TrackPointExtension>
            <ns3:atemp>25.0</ns3:atemp>
          </ns3:TrackPointExtension>
        </extensions>
      </trkpt>
      <trkpt lat="42.55955382250249385833740234375" lon="19.82318331487476825714111328125">
        <ele>944.4000244140625</ele>
        <time>2026-06-18T13:09:26.000Z</time>
        <extensions>
          <ns3:TrackPointExtension>
            <ns3:atemp>25.0</ns3:atemp>
          </ns3:TrackPointExtension>
        </extensions>
      </trkpt>
      <trkpt lat="42.55960092879831790924072265625" lon="19.8232212848961353302001953125">
        <ele>944.20001220703125</ele>
        <time>2026-06-18T13:09:27.000Z</time>
        <extensions>
          <ns3:TrackPointExtension>
            <ns3:atemp>25.0</ns3:atemp>
          </ns3:TrackPointExtension>
        </extensions>
      </trkpt>
      <trkpt lat="42.559650801122188568115234375" lon="19.82326394878327846527099609375">
        <ele>944</ele>
        <time>2026-06-18T13:09:28.000Z</time>
        <extensions>
          <ns3:TrackPointExtension>
            <ns3:atemp>25.0</ns3:atemp>
          </ns3:TrackPointExtension>
        </extensions>
      </trkpt>
      <trkpt lat="42.55969941616058349609375" lon="19.8233067803084850311279296875">
        <ele>943.5999755859375</ele>
        <time>2026-06-18T13:09:29.000Z</time>
        <extensions>
          <ns3:TrackPointExtension>
            <ns3:atemp>25.0</ns3:atemp>
          </ns3:TrackPointExtension>
        </extensions>
      </trkpt>
      <trkpt lat="42.55974945612251758575439453125" lon="19.82335455715656280517578125">
        <ele>943.4000244140625</ele>
        <time>2026-06-18T13:09:30.000Z</time>
        <extensions>
          <ns3:TrackPointExtension>
            <ns3:atemp>25.0</ns3:atemp>
          </ns3:TrackPointExtension>
        </extensions>
      </trkpt>
      <trkpt lat="42.5598005019128322601318359375" lon="19.8234093748033046722412109375">
        <ele>943</ele>
        <time>2026-06-18T13:09:31.000Z</time>
        <extensions>
          <ns3:TrackPointExtension>
            <ns3:atemp>25.0</ns3:atemp>
          </ns3:TrackPointExtension>
        </extensions>
      </trkpt>
      <trkpt lat="42.55984987132251262664794921875" lon="19.82346176169812679290771484375">
        <ele>942.79998779296875</ele>
        <time>2026-06-18T13:09:32.000Z</time>
        <extensions>
          <ns3:TrackPointExtension>
            <ns3:atemp>25.0</ns3:atemp>
          </ns3:TrackPointExtension>
        </extensions>
      </trkpt>
      <trkpt lat="42.55989857017993927001953125" lon="19.82350752688944339752197265625">
        <ele>942.5999755859375</ele>
        <time>2026-06-18T13:09:33.000Z</time>
        <extensions>
          <ns3:TrackPointExtension>
            <ns3:atemp>25.0</ns3:atemp>
          </ns3:TrackPointExtension>
        </extensions>
      </trkpt>
      <trkpt lat="42.55994643084704875946044921875" lon="19.82354826293885707855224609375">
        <ele>942.4000244140625</ele>
        <time>2026-06-18T13:09:34.000Z</time>
        <extensions>
          <ns3:TrackPointExtension>
            <ns3:atemp>25.0</ns3:atemp>
          </ns3:TrackPointExtension>
        </extensions>
      </trkpt>
      <trkpt lat="42.55999135784804821014404296875" lon="19.82358430512249469757080078125">
        <ele>942</ele>
        <time>2026-06-18T13:09:35.000Z</time>
        <extensions>
          <ns3:TrackPointExtension>
            <ns3:atemp>25.0</ns3:atemp>
          </ns3:TrackPointExtension>
        </extensions>
      </trkpt>
      <trkpt lat="42.5600385479629039764404296875" lon="19.8236262984573841094970703125">
        <ele>941.79998779296875</ele>
        <time>2026-06-18T13:09:36.000Z</time>
        <extensions>
          <ns3:TrackPointExtension>
            <ns3:atemp>25.0</ns3:atemp>
          </ns3:TrackPointExtension>
        </extensions>
      </trkpt>
      <trkpt lat="42.5600834749639034271240234375" lon="19.82366946525871753692626953125">
        <ele>941.79998779296875</ele>
        <time>2026-06-18T13:09:37.000Z</time>
        <extensions>
          <ns3:TrackPointExtension>
            <ns3:atemp>25.0</ns3:atemp>
          </ns3:TrackPointExtension>
        </extensions>
      </trkpt>
      <trkpt lat="42.56012613885104656219482421875" lon="19.823719002306461334228515625">
        <ele>941.5999755859375</ele>
        <time>2026-06-18T13:09:38.000Z</time>
        <extensions>
          <ns3:TrackPointExtension>
            <ns3:atemp>25.0</ns3:atemp>
          </ns3:TrackPointExtension>
        </extensions>
      </trkpt>
      <trkpt lat="42.56016067229211330413818359375" lon="19.823770634829998016357421875">
        <ele>941.4000244140625</ele>
        <time>2026-06-18T13:09:39.000Z</time>
        <extensions>
          <ns3:TrackPointExtension>
            <ns3:atemp>25.0</ns3:atemp>
          </ns3:TrackPointExtension>
        </extensions>
      </trkpt>
      <trkpt lat="42.5601954571902751922607421875" lon="19.82382302172482013702392578125">
        <ele>941.4000244140625</ele>
        <time>2026-06-18T13:09:40.000Z</time>
        <extensions>
          <ns3:TrackPointExtension>
            <ns3:atemp>25.0</ns3:atemp>
          </ns3:TrackPointExtension>
        </extensions>
      </trkpt>
      <trkpt lat="42.56022806279361248016357421875" lon="19.82387222349643707275390625">
        <ele>941.20001220703125</ele>
        <time>2026-06-18T13:09:41.000Z</time>
        <extensions>
          <ns3:TrackPointExtension>
            <ns3:atemp>25.0</ns3:atemp>
          </ns3:TrackPointExtension>
        </extensions>
      </trkpt>
      <trkpt lat="42.56025664508342742919921875" lon="19.823925197124481201171875">
        <ele>941.20001220703125</ele>
        <time>2026-06-18T13:09:42.000Z</time>
        <extensions>
          <ns3:TrackPointExtension>
            <ns3:atemp>25.0</ns3:atemp>
          </ns3:TrackPointExtension>
        </extensions>
      </trkpt>
      <trkpt lat="42.56028480827808380126953125" lon="19.82397993095219135284423828125">
        <ele>941</ele>
        <time>2026-06-18T13:09:43.000Z</time>
        <extensions>
          <ns3:TrackPointExtension>
            <ns3:atemp>25.0</ns3:atemp>
          </ns3:TrackPointExtension>
        </extensions>
      </trkpt>
      <trkpt lat="42.56031322292983531951904296875" lon="19.82403659261763095855712890625">
        <ele>941</ele>
        <time>2026-06-18T13:09:44.000Z</time>
        <extensions>
          <ns3:TrackPointExtension>
            <ns3:atemp>25.0</ns3:atemp>
          </ns3:TrackPointExtension>
        </extensions>
      </trkpt>
      <trkpt lat="42.56034323014318943023681640625" lon="19.8240987025201320648193359375">
        <ele>941</ele>
        <time>2026-06-18T13:09:45.000Z</time>
        <extensions>
          <ns3:TrackPointExtension>
            <ns3:atemp>25.0</ns3:atemp>
          </ns3:TrackPointExtension>
        </extensions>
      </trkpt>
      <trkpt lat="42.5603728182613849639892578125" lon="19.8241664282977581024169921875">
        <ele>940.79998779296875</ele>
        <time>2026-06-18T13:09:46.000Z</time>
        <extensions>
          <ns3:TrackPointExtension>
            <ns3:atemp>25.0</ns3:atemp>
          </ns3:TrackPointExtension>
        </extensions>
      </trkpt>
      <trkpt lat="42.5603996403515338897705078125" lon="19.82423256151378154754638671875">
        <ele>940.79998779296875</ele>
        <time>2026-06-18T13:09:47.000Z</time>
        <extensions>
          <ns3:TrackPointExtension>
            <ns3:atemp>25.0</ns3:atemp>
          </ns3:TrackPointExtension>
        </extensions>
      </trkpt>
      <trkpt lat="42.56042771972715854644775390625" lon="19.82430246658623218536376953125">
        <ele>940.79998779296875</ele>
        <time>2026-06-18T13:09:48.000Z</time>
        <extensions>
          <ns3:TrackPointExtension>
            <ns3:atemp>25.0</ns3:atemp>
          </ns3:TrackPointExtension>
        </extensions>
      </trkpt>
      <trkpt lat="42.56045487709343433380126953125" lon="19.82437505386769771575927734375">
        <ele>940.79998779296875</ele>
        <time>2026-06-18T13:09:49.000Z</time>
        <extensions>
          <ns3:TrackPointExtension>
            <ns3:atemp>25.0</ns3:atemp>
          </ns3:TrackPointExtension>
        </extensions>
      </trkpt>
      <trkpt lat="42.5604817830026149749755859375" lon="19.82444479130208492279052734375">
        <ele>940.5999755859375</ele>
        <time>2026-06-18T13:09:50.000Z</time>
        <extensions>
          <ns3:TrackPointExtension>
            <ns3:atemp>25.0</ns3:atemp>
          </ns3:TrackPointExtension>
        </extensions>
      </trkpt>
      <trkpt lat="42.5605107843875885009765625" lon="19.8245174624025821685791015625">
        <ele>940.5999755859375</ele>
        <time>2026-06-18T13:09:51.000Z</time>
        <extensions>
          <ns3:TrackPointExtension>
            <ns3:atemp>25.0</ns3:atemp>
          </ns3:TrackPointExtension>
        </extensions>
      </trkpt>
      <trkpt lat="42.56054003722965717315673828125" lon="19.82458728365600109100341796875">
        <ele>940.4000244140625</ele>
        <time>2026-06-18T13:09:52.000Z</time>
        <extensions>
          <ns3:TrackPointExtension>
            <ns3:atemp>25.0</ns3:atemp>
          </ns3:TrackPointExtension>
        </extensions>
      </trkpt>
      <trkpt lat="42.560570798814296722412109375" lon="19.82465249486267566680908203125">
        <ele>940.20001220703125</ele>
        <time>2026-06-18T13:09:53.000Z</time>
        <extensions>
          <ns3:TrackPointExtension>
            <ns3:atemp>25.0</ns3:atemp>
          </ns3:TrackPointExtension>
        </extensions>
      </trkpt>
      <trkpt lat="42.56060290150344371795654296875" lon="19.824724160134792327880859375">
        <ele>940</ele>
        <time>2026-06-18T13:09:54.000Z</time>
        <extensions>
          <ns3:TrackPointExtension>
            <ns3:atemp>25.0</ns3:atemp>
          </ns3:TrackPointExtension>
        </extensions>
      </trkpt>
      <trkpt lat="42.560635171830654144287109375" lon="19.8247969150543212890625">
        <ele>939.79998779296875</ele>
        <time>2026-06-18T13:09:55.000Z</time>
        <extensions>
          <ns3:TrackPointExtension>
            <ns3:atemp>25.0</ns3:atemp>
          </ns3:TrackPointExtension>
        </extensions>
      </trkpt>
      <trkpt lat="42.56066543050110340118408203125" lon="19.82486774213612079620361328125">
        <ele>939.79998779296875</ele>
        <time>2026-06-18T13:09:56.000Z</time>
        <extensions>
          <ns3:TrackPointExtension>
            <ns3:atemp>24.0</ns3:atemp>
          </ns3:TrackPointExtension>
        </extensions>
      </trkpt>
      <trkpt lat="42.56069476716220378875732421875" lon="19.82493798248469829559326171875">
        <ele>939.5999755859375</ele>
        <time>2026-06-18T13:09:57.000Z</time>
        <extensions>
          <ns3:TrackPointExtension>
            <ns3:atemp>24.0</ns3:atemp>
          </ns3:TrackPointExtension>
        </extensions>
      </trkpt>
      <trkpt lat="42.56072510965168476104736328125" lon="19.825008474290370941162109375">
        <ele>939.5999755859375</ele>
        <time>2026-06-18T13:09:58.000Z</time>
        <extensions>
          <ns3:TrackPointExtension>
            <ns3:atemp>24.0</ns3:atemp>
          </ns3:TrackPointExtension>
        </extensions>
      </trkpt>
      <trkpt lat="42.56075561977922916412353515625" lon="19.8250750266015529632568359375">
        <ele>939.4000244140625</ele>
        <time>2026-06-18T13:09:59.000Z</time>
        <extensions>
          <ns3:TrackPointExtension>
            <ns3:atemp>24.0</ns3:atemp>
          </ns3:TrackPointExtension>
        </extensions>
      </trkpt>
      <trkpt lat="42.5607878901064395904541015625" lon="19.8251424171030521392822265625">
        <ele>939.4000244140625</ele>
        <time>2026-06-18T13:10:00.000Z</time>
        <extensions>
          <ns3:TrackPointExtension>
            <ns3:atemp>24.0</ns3:atemp>
          </ns3:TrackPointExtension>
        </extensions>
      </trkpt>
      <trkpt lat="42.56081848405301570892333984375" lon="19.8252114839851856231689453125">
        <ele>939.4000244140625</ele>
        <time>2026-06-18T13:10:01.000Z</time>
        <extensions>
          <ns3:TrackPointExtension>
            <ns3:atemp>24.0</ns3:atemp>
          </ns3:TrackPointExtension>
        </extensions>
      </trkpt>
      <trkpt lat="42.56084865890443325042724609375" lon="19.8252828978002071380615234375">
        <ele>939.4000244140625</ele>
        <time>2026-06-18T13:10:02.000Z</time>
        <extensions>
          <ns3:TrackPointExtension>
            <ns3:atemp>24.0</ns3:atemp>
          </ns3:TrackPointExtension>
        </extensions>
      </trkpt>
      <trkpt lat="42.56087782792747020721435546875" lon="19.8253548145294189453125">
        <ele>939.20001220703125</ele>
        <time>2026-06-18T13:10:03.000Z</time>
        <extensions>
          <ns3:TrackPointExtension>
            <ns3:atemp>24.0</ns3:atemp>
          </ns3:TrackPointExtension>
        </extensions>
      </trkpt>
      <trkpt lat="42.560906745493412017822265625" lon="19.82542698271572589874267578125">
        <ele>939.20001220703125</ele>
        <time>2026-06-18T13:10:04.000Z</time>
        <extensions>
          <ns3:TrackPointExtension>
            <ns3:atemp>24.0</ns3:atemp>
          </ns3:TrackPointExtension>
        </extensions>
      </trkpt>
      <trkpt lat="42.5609357468783855438232421875" lon="19.82549806125462055206298828125">
        <ele>939</ele>
        <time>2026-06-18T13:10:05.000Z</time>
        <extensions>
          <ns3:TrackPointExtension>
            <ns3:atemp>24.0</ns3:atemp>
          </ns3:TrackPointExtension>
        </extensions>
      </trkpt>
      <trkpt lat="42.56096483208239078521728515625" lon="19.825569726526737213134765625">
        <ele>938.79998779296875</ele>
        <time>2026-06-18T13:10:06.000Z</time>
        <extensions>
          <ns3:TrackPointExtension>
            <ns3:atemp>24.0</ns3:atemp>
          </ns3:TrackPointExtension>
        </extensions>
      </trkpt>
      <trkpt lat="42.5609930790960788726806640625" lon="19.82563979923725128173828125">
        <ele>938.5999755859375</ele>
        <time>2026-06-18T13:10:07.000Z</time>
        <extensions>
          <ns3:TrackPointExtension>
            <ns3:atemp>24.0</ns3:atemp>
          </ns3:TrackPointExtension>
        </extensions>
      </trkpt>
      <trkpt lat="42.5610222481191158294677734375" lon="19.82570677064359188079833984375">
        <ele>938.4000244140625</ele>
        <time>2026-06-18T13:10:08.000Z</time>
        <extensions>
          <ns3:TrackPointExtension>
            <ns3:atemp>25.0</ns3:atemp>
          </ns3:TrackPointExtension>
        </extensions>
      </trkpt>
      <trkpt lat="42.5610527582466602325439453125" lon="19.8257727362215518951416015625">
        <ele>938.20001220703125</ele>
        <time>2026-06-18T13:10:09.000Z</time>
        <extensions>
          <ns3:TrackPointExtension>
            <ns3:atemp>25.0</ns3:atemp>
          </ns3:TrackPointExtension>
        </extensions>
      </trkpt>
      <trkpt lat="42.56108167581260204315185546875" lon="19.8258416354656219482421875">
        <ele>938</ele>
        <time>2026-06-18T13:10:10.000Z</time>
        <extensions>
          <ns3:TrackPointExtension>
            <ns3:atemp>25.0</ns3:atemp>
          </ns3:TrackPointExtension>
        </extensions>
      </trkpt>
      <trkpt lat="42.561109252274036407470703125" lon="19.82591548003256320953369140625">
        <ele>938</ele>
        <time>2026-06-18T13:10:11.000Z</time>
        <extensions>
          <ns3:TrackPointExtension>
            <ns3:atemp>25.0</ns3:atemp>
          </ns3:TrackPointExtension>
        </extensions>
      </trkpt>
      <trkpt lat="42.56113649345934391021728515625" lon="19.825985133647918701171875">
        <ele>938</ele>
        <time>2026-06-18T13:10:12.000Z</time>
        <extensions>
          <ns3:TrackPointExtension>
            <ns3:atemp>24.0</ns3:atemp>
          </ns3:TrackPointExtension>
        </extensions>
      </trkpt>
      <trkpt lat="42.56116465665400028228759765625" lon="19.82605461962521076202392578125">
        <ele>938</ele>
        <time>2026-06-18T13:10:13.000Z</time>
        <extensions>
          <ns3:TrackPointExtension>
            <ns3:atemp>24.0</ns3:atemp>
          </ns3:TrackPointExtension>
        </extensions>
      </trkpt>
      <trkpt lat="42.56119634024798870086669921875" lon="19.8261318169534206390380859375">
        <ele>938</ele>
        <time>2026-06-18T13:10:14.000Z</time>
        <extensions>
          <ns3:TrackPointExtension>
            <ns3:atemp>24.0</ns3:atemp>
          </ns3:TrackPointExtension>
        </extensions>
      </trkpt>
      <trkpt lat="42.5612291134893894195556640625" lon="19.8262069188058376312255859375">
        <ele>938.20001220703125</ele>
        <time>2026-06-18T13:10:15.000Z</time>
        <extensions>
          <ns3:TrackPointExtension>
            <ns3:atemp>24.0</ns3:atemp>
          </ns3:TrackPointExtension>
        </extensions>
      </trkpt>
      <trkpt lat="42.56126188673079013824462890625" lon="19.8262761533260345458984375">
        <ele>938.20001220703125</ele>
        <time>2026-06-18T13:10:16.000Z</time>
        <extensions>
          <ns3:TrackPointExtension>
            <ns3:atemp>24.0</ns3:atemp>
          </ns3:TrackPointExtension>
        </extensions>
      </trkpt>
      <trkpt lat="42.56129591725766658782958984375" lon="19.82634530402719974517822265625">
        <ele>938</ele>
        <time>2026-06-18T13:10:17.000Z</time>
        <extensions>
          <ns3:TrackPointExtension>
            <ns3:atemp>24.0</ns3:atemp>
          </ns3:TrackPointExtension>
        </extensions>
      </trkpt>
      <trkpt lat="42.5613303668797016143798828125" lon="19.8264147900044918060302734375">
        <ele>938</ele>
        <time>2026-06-18T13:10:18.000Z</time>
        <extensions>
          <ns3:TrackPointExtension>
            <ns3:atemp>24.0</ns3:atemp>
          </ns3:TrackPointExtension>
        </extensions>
      </trkpt>
      <trkpt lat="42.56136448122560977935791015625" lon="19.82648603618144989013671875">
        <ele>937.79998779296875</ele>
        <time>2026-06-18T13:10:19.000Z</time>
        <extensions>
          <ns3:TrackPointExtension>
            <ns3:atemp>24.0</ns3:atemp>
          </ns3:TrackPointExtension>
        </extensions>
      </trkpt>
      <trkpt lat="42.56139616481959819793701171875" lon="19.8265535943210124969482421875">
        <ele>937.79998779296875</ele>
        <time>2026-06-18T13:10:20.000Z</time>
        <extensions>
          <ns3:TrackPointExtension>
            <ns3:atemp>24.0</ns3:atemp>
          </ns3:TrackPointExtension>
        </extensions>
      </trkpt>
      <trkpt lat="42.5614279322326183319091796875" lon="19.82661545276641845703125">
        <ele>937.5999755859375</ele>
        <time>2026-06-18T13:10:21.000Z</time>
        <extensions>
          <ns3:TrackPointExtension>
            <ns3:atemp>24.0</ns3:atemp>
          </ns3:TrackPointExtension>
        </extensions>
      </trkpt>
      <trkpt lat="42.56145886145532131195068359375" lon="19.8266773112118244171142578125">
        <ele>937.5999755859375</ele>
        <time>2026-06-18T13:10:22.000Z</time>
        <extensions>
          <ns3:TrackPointExtension>
            <ns3:atemp>24.0</ns3:atemp>
          </ns3:TrackPointExtension>
        </extensions>
      </trkpt>
      <trkpt lat="42.561493813991546630859375" lon="19.82674646191298961639404296875">
        <ele>937.5999755859375</ele>
        <time>2026-06-18T13:10:23.000Z</time>
        <extensions>
          <ns3:TrackPointExtension>
            <ns3:atemp>24.0</ns3:atemp>
          </ns3:TrackPointExtension>
        </extensions>
      </trkpt>
      <trkpt lat="42.56153144873678684234619140625" lon="19.8268164508044719696044921875">
        <ele>937.4000244140625</ele>
        <time>2026-06-18T13:10:24.000Z</time>
        <extensions>
          <ns3:TrackPointExtension>
            <ns3:atemp>24.0</ns3:atemp>
          </ns3:TrackPointExtension>
        </extensions>
      </trkpt>
      <trkpt lat="42.56156682036817073822021484375" lon="19.8268928937613964080810546875">
        <ele>937.4000244140625</ele>
        <time>2026-06-18T13:10:25.000Z</time>
        <extensions>
          <ns3:TrackPointExtension>
            <ns3:atemp>24.0</ns3:atemp>
          </ns3:TrackPointExtension>
        </extensions>
      </trkpt>
      <trkpt lat="42.56160235963761806488037109375" lon="19.8269622959196567535400390625">
        <ele>937.4000244140625</ele>
        <time>2026-06-18T13:10:26.000Z</time>
        <extensions>
          <ns3:TrackPointExtension>
            <ns3:atemp>24.0</ns3:atemp>
          </ns3:TrackPointExtension>
        </extensions>
      </trkpt>
      <trkpt lat="42.5616364739835262298583984375" lon="19.82703899033367633819580078125">
        <ele>937.4000244140625</ele>
        <time>2026-06-18T13:10:27.000Z</time>
        <extensions>
          <ns3:TrackPointExtension>
            <ns3:atemp>24.0</ns3:atemp>
          </ns3:TrackPointExtension>
        </extensions>
      </trkpt>
      <trkpt lat="42.56166882812976837158203125" lon="19.82711291871964931488037109375">
        <ele>937.4000244140625</ele>
        <time>2026-06-18T13:10:28.000Z</time>
        <extensions>
          <ns3:TrackPointExtension>
            <ns3:atemp>24.0</ns3:atemp>
          </ns3:TrackPointExtension>
        </extensions>
      </trkpt>
      <trkpt lat="42.56170076318085193634033203125" lon="19.82718450017273426055908203125">
        <ele>937.4000244140625</ele>
        <time>2026-06-18T13:10:29.000Z</time>
        <extensions>
          <ns3:TrackPointExtension>
            <ns3:atemp>24.0</ns3:atemp>
          </ns3:TrackPointExtension>
        </extensions>
      </trkpt>
      <trkpt lat="42.56173462606966495513916015625" lon="19.82725457288324832916259765625">
        <ele>937.20001220703125</ele>
        <time>2026-06-18T13:10:30.000Z</time>
        <extensions>
          <ns3:TrackPointExtension>
            <ns3:atemp>24.0</ns3:atemp>
          </ns3:TrackPointExtension>
        </extensions>
      </trkpt>
      <trkpt lat="42.5617702491581439971923828125" lon="19.8273307643830776214599609375">
        <ele>937.20001220703125</ele>
        <time>2026-06-18T13:10:31.000Z</time>
        <extensions>
          <ns3:TrackPointExtension>
            <ns3:atemp>24.0</ns3:atemp>
          </ns3:TrackPointExtension>
        </extensions>
      </trkpt>
      <trkpt lat="42.561807967722415924072265625" lon="19.82739890925586223602294921875">
        <ele>937.20001220703125</ele>
        <time>2026-06-18T13:10:32.000Z</time>
        <extensions>
          <ns3:TrackPointExtension>
            <ns3:atemp>24.0</ns3:atemp>
          </ns3:TrackPointExtension>
        </extensions>
      </trkpt>
      <trkpt lat="42.5618463568389415740966796875" lon="19.82746629975736141204833984375">
        <ele>937.20001220703125</ele>
        <time>2026-06-18T13:10:33.000Z</time>
        <extensions>
          <ns3:TrackPointExtension>
            <ns3:atemp>24.0</ns3:atemp>
          </ns3:TrackPointExtension>
        </extensions>
      </trkpt>
      <trkpt lat="42.56188466213643550872802734375" lon="19.8275295831263065338134765625">
        <ele>937</ele>
        <time>2026-06-18T13:10:34.000Z</time>
        <extensions>
          <ns3:TrackPointExtension>
            <ns3:atemp>24.0</ns3:atemp>
          </ns3:TrackPointExtension>
        </extensions>
      </trkpt>
      <trkpt lat="42.56192388944327831268310546875" lon="19.82759605161845684051513671875">
        <ele>937</ele>
        <time>2026-06-18T13:10:35.000Z</time>
        <extensions>
          <ns3:TrackPointExtension>
            <ns3:atemp>24.0</ns3:atemp>
          </ns3:TrackPointExtension>
        </extensions>
      </trkpt>
      <trkpt lat="42.56196361966431140899658203125" lon="19.8276657052338123321533203125">
        <ele>937</ele>
        <time>2026-06-18T13:10:36.000Z</time>
        <extensions>
          <ns3:TrackPointExtension>
            <ns3:atemp>24.0</ns3:atemp>
          </ns3:TrackPointExtension>
        </extensions>
      </trkpt>
      <trkpt lat="42.56200385279953479766845703125" lon="19.82773049734532833099365234375">
        <ele>936.79998779296875</ele>
        <time>2026-06-18T13:10:37.000Z</time>
        <extensions>
          <ns3:TrackPointExtension>
            <ns3:atemp>24.0</ns3:atemp>
          </ns3:TrackPointExtension>
        </extensions>
      </trkpt>
      <trkpt lat="42.56204408593475818634033203125" lon="19.827791266143321990966796875">
        <ele>936.79998779296875</ele>
        <time>2026-06-18T13:10:38.000Z</time>
        <extensions>
          <ns3:TrackPointExtension>
            <ns3:atemp>24.0</ns3:atemp>
          </ns3:TrackPointExtension>
        </extensions>
      </trkpt>
      <trkpt lat="42.562084235250949859619140625" lon="19.8278504423797130584716796875">
        <ele>936.5999755859375</ele>
        <time>2026-06-18T13:10:39.000Z</time>
        <extensions>
          <ns3:TrackPointExtension>
            <ns3:atemp>24.0</ns3:atemp>
          </ns3:TrackPointExtension>
        </extensions>
      </trkpt>
      <trkpt lat="42.5621227920055389404296875" lon="19.82790752314031124114990234375">
        <ele>936.4000244140625</ele>
        <time>2026-06-18T13:10:40.000Z</time>
        <extensions>
          <ns3:TrackPointExtension>
            <ns3:atemp>24.0</ns3:atemp>
          </ns3:TrackPointExtension>
        </extensions>
      </trkpt>
      <trkpt lat="42.56216176785528659820556640625" lon="19.8279713094234466552734375">
        <ele>936.20001220703125</ele>
        <time>2026-06-18T13:10:41.000Z</time>
        <extensions>
          <ns3:TrackPointExtension>
            <ns3:atemp>24.0</ns3:atemp>
          </ns3:TrackPointExtension>
        </extensions>
      </trkpt>
      <trkpt lat="42.56220049224793910980224609375" lon="19.828037358820438385009765625">
        <ele>936.20001220703125</ele>
        <time>2026-06-18T13:10:42.000Z</time>
        <extensions>
          <ns3:TrackPointExtension>
            <ns3:atemp>24.0</ns3:atemp>
          </ns3:TrackPointExtension>
        </extensions>
      </trkpt>
      <trkpt lat="42.562234103679656982421875" lon="19.82809829525649547576904296875">
        <ele>936</ele>
        <time>2026-06-18T13:10:43.000Z</time>
        <extensions>
          <ns3:TrackPointExtension>
            <ns3:atemp>24.0</ns3:atemp>
          </ns3:TrackPointExtension>
        </extensions>
      </trkpt>
      <trkpt lat="42.5622688047587871551513671875" lon="19.82816467992961406707763671875">
        <ele>936</ele>
        <time>2026-06-18T13:10:44.000Z</time>
        <extensions>
          <ns3:TrackPointExtension>
            <ns3:atemp>24.0</ns3:atemp>
          </ns3:TrackPointExtension>
        </extensions>
      </trkpt>
      <trkpt lat="42.56230878643691539764404296875" lon="19.82823307625949382781982421875">
        <ele>936</ele>
        <time>2026-06-18T13:10:45.000Z</time>
        <extensions>
          <ns3:TrackPointExtension>
            <ns3:atemp>24.0</ns3:atemp>
          </ns3:TrackPointExtension>
        </extensions>
      </trkpt>
      <trkpt lat="42.56235153414309024810791015625" lon="19.82829711399972438812255859375">
        <ele>936</ele>
        <time>2026-06-18T13:10:46.000Z</time>
        <extensions>
          <ns3:TrackPointExtension>
            <ns3:atemp>24.0</ns3:atemp>
          </ns3:TrackPointExtension>
        </extensions>
      </trkpt>
      <trkpt lat="42.5623935274779796600341796875" lon="19.82835729606449604034423828125">
        <ele>936</ele>
        <time>2026-06-18T13:10:47.000Z</time>
        <extensions>
          <ns3:TrackPointExtension>
            <ns3:atemp>24.0</ns3:atemp>
          </ns3:TrackPointExtension>
        </extensions>
      </trkpt>
      <trkpt lat="42.56243669427931308746337890625" lon="19.82841999270021915435791015625">
        <ele>935.79998779296875</ele>
        <time>2026-06-18T13:10:48.000Z</time>
        <extensions>
          <ns3:TrackPointExtension>
            <ns3:atemp>24.0</ns3:atemp>
          </ns3:TrackPointExtension>
        </extensions>
      </trkpt>
      <trkpt lat="42.56248145364224910736083984375" lon="19.82848101295530796051025390625">
        <ele>935.79998779296875</ele>
        <time>2026-06-18T13:10:49.000Z</time>
        <extensions>
          <ns3:TrackPointExtension>
            <ns3:atemp>24.0</ns3:atemp>
          </ns3:TrackPointExtension>
        </extensions>
      </trkpt>
      <trkpt lat="42.5625262968242168426513671875" lon="19.82854404486715793609619140625">
        <ele>935.5999755859375</ele>
        <time>2026-06-18T13:10:50.000Z</time>
        <extensions>
          <ns3:TrackPointExtension>
            <ns3:atemp>24.0</ns3:atemp>
          </ns3:TrackPointExtension>
        </extensions>
      </trkpt>
      <trkpt lat="42.56256594322621822357177734375" lon="19.82860104180872440338134765625">
        <ele>935.4000244140625</ele>
        <time>2026-06-18T13:10:51.000Z</time>
        <extensions>
          <ns3:TrackPointExtension>
            <ns3:atemp>24.0</ns3:atemp>
          </ns3:TrackPointExtension>
        </extensions>
      </trkpt>
      <trkpt lat="42.5626077689230442047119140625" lon="19.82866239733994007110595703125">
        <ele>935.4000244140625</ele>
        <time>2026-06-18T13:10:52.000Z</time>
        <extensions>
          <ns3:TrackPointExtension>
            <ns3:atemp>24.0</ns3:atemp>
          </ns3:TrackPointExtension>
        </extensions>
      </trkpt>
      <trkpt lat="42.56265345029532909393310546875" lon="19.82872526161372661590576171875">
        <ele>935.20001220703125</ele>
        <time>2026-06-18T13:10:53.000Z</time>
        <extensions>
          <ns3:TrackPointExtension>
            <ns3:atemp>24.0</ns3:atemp>
          </ns3:TrackPointExtension>
        </extensions>
      </trkpt>
      <trkpt lat="42.56269133649766445159912109375" lon="19.828794412314891815185546875">
        <ele>935</ele>
        <time>2026-06-18T13:10:54.000Z</time>
        <extensions>
          <ns3:TrackPointExtension>
            <ns3:atemp>24.0</ns3:atemp>
          </ns3:TrackPointExtension>
        </extensions>
      </trkpt>
      <trkpt lat="42.56273358128964900970458984375" lon="19.82885710895061492919921875">
        <ele>934.79998779296875</ele>
        <time>2026-06-18T13:10:55.000Z</time>
        <extensions>
          <ns3:TrackPointExtension>
            <ns3:atemp>24.0</ns3:atemp>
          </ns3:TrackPointExtension>
        </extensions>
      </trkpt>
      <trkpt lat="42.5627747364342212677001953125" lon="19.82892625965178012847900390625">
        <ele>934.5999755859375</ele>
        <time>2026-06-18T13:10:56.000Z</time>
        <extensions>
          <ns3:TrackPointExtension>
            <ns3:atemp>24.0</ns3:atemp>
          </ns3:TrackPointExtension>
        </extensions>
      </trkpt>
      <trkpt lat="42.562815807759761810302734375" lon="19.8289960809051990509033203125">
        <ele>934.5999755859375</ele>
        <time>2026-06-18T13:10:57.000Z</time>
        <extensions>
          <ns3:TrackPointExtension>
            <ns3:atemp>24.0</ns3:atemp>
          </ns3:TrackPointExtension>
        </extensions>
      </trkpt>
      <trkpt lat="42.56285947747528553009033203125" lon="19.82906171120703220367431640625">
        <ele>934.5999755859375</ele>
        <time>2026-06-18T13:10:58.000Z</time>
        <extensions>
          <ns3:TrackPointExtension>
            <ns3:atemp>24.0</ns3:atemp>
          </ns3:TrackPointExtension>
        </extensions>
      </trkpt>
      <trkpt lat="42.56290038116276264190673828125" lon="19.829127006232738494873046875">
        <ele>934.4000244140625</ele>
        <time>2026-06-18T13:10:59.000Z</time>
        <extensions>
          <ns3:TrackPointExtension>
            <ns3:atemp>24.0</ns3:atemp>
          </ns3:TrackPointExtension>
        </extensions>
      </trkpt>
      <trkpt lat="42.56294178776443004608154296875" lon="19.82919330708682537078857421875">
        <ele>934.4000244140625</ele>
        <time>2026-06-18T13:11:00.000Z</time>
        <extensions>
          <ns3:TrackPointExtension>
            <ns3:atemp>24.0</ns3:atemp>
          </ns3:TrackPointExtension>
        </extensions>
      </trkpt>
      <trkpt lat="42.56298453547060489654541015625" lon="19.82926069758832454681396484375">
        <ele>934.20001220703125</ele>
        <time>2026-06-18T13:11:01.000Z</time>
        <extensions>
          <ns3:TrackPointExtension>
            <ns3:atemp>24.0</ns3:atemp>
          </ns3:TrackPointExtension>
        </extensions>
      </trkpt>
      <trkpt lat="42.56302594207227230072021484375" lon="19.82932406477630138397216796875">
        <ele>934</ele>
        <time>2026-06-18T13:11:02.000Z</time>
        <extensions>
          <ns3:TrackPointExtension>
            <ns3:atemp>24.0</ns3:atemp>
          </ns3:TrackPointExtension>
        </extensions>
      </trkpt>
      <trkpt lat="42.56306382827460765838623046875" lon="19.829382486641407012939453125">
        <ele>934</ele>
        <time>2026-06-18T13:11:03.000Z</time>
        <extensions>
          <ns3:TrackPointExtension>
            <ns3:atemp>24.0</ns3:atemp>
          </ns3:TrackPointExtension>
        </extensions>
      </trkpt>
      <trkpt lat="42.56310439668595790863037109375" lon="19.82944677583873271942138671875">
        <ele>933.79998779296875</ele>
        <time>2026-06-18T13:11:04.000Z</time>
        <extensions>
          <ns3:TrackPointExtension>
            <ns3:atemp>24.0</ns3:atemp>
          </ns3:TrackPointExtension>
        </extensions>
      </trkpt>
      <trkpt lat="42.56314613856375217437744140625" lon="19.8295100592076778411865234375">
        <ele>933.5999755859375</ele>
        <time>2026-06-18T13:11:05.000Z</time>
        <extensions>
          <ns3:TrackPointExtension>
            <ns3:atemp>24.0</ns3:atemp>
          </ns3:TrackPointExtension>
        </extensions>
      </trkpt>
      <trkpt lat="42.56318704225122928619384765625" lon="19.82957216911017894744873046875">
        <ele>933.4000244140625</ele>
        <time>2026-06-18T13:11:06.000Z</time>
        <extensions>
          <ns3:TrackPointExtension>
            <ns3:atemp>24.0</ns3:atemp>
          </ns3:TrackPointExtension>
        </extensions>
      </trkpt>
      <trkpt lat="42.56322962231934070587158203125" lon="19.82963335700333118438720703125">
        <ele>933.4000244140625</ele>
        <time>2026-06-18T13:11:07.000Z</time>
        <extensions>
          <ns3:TrackPointExtension>
            <ns3:atemp>24.0</ns3:atemp>
          </ns3:TrackPointExtension>
        </extensions>
      </trkpt>
      <trkpt lat="42.56327119655907154083251953125" lon="19.829698987305164337158203125">
        <ele>933.4000244140625</ele>
        <time>2026-06-18T13:11:08.000Z</time>
        <extensions>
          <ns3:TrackPointExtension>
            <ns3:atemp>24.0</ns3:atemp>
          </ns3:TrackPointExtension>
        </extensions>
      </trkpt>
      <trkpt lat="42.56331008858978748321533203125" lon="19.82976436614990234375">
        <ele>933.20001220703125</ele>
        <time>2026-06-18T13:11:09.000Z</time>
        <extensions>
          <ns3:TrackPointExtension>
            <ns3:atemp>24.0</ns3:atemp>
          </ns3:TrackPointExtension>
        </extensions>
      </trkpt>
      <trkpt lat="42.56334847770631313323974609375" lon="19.82982806861400604248046875">
        <ele>933.20001220703125</ele>
        <time>2026-06-18T13:11:10.000Z</time>
        <extensions>
          <ns3:TrackPointExtension>
            <ns3:atemp>24.0</ns3:atemp>
          </ns3:TrackPointExtension>
        </extensions>
      </trkpt>
      <trkpt lat="42.5633852742612361907958984375" lon="19.8298909328877925872802734375">
        <ele>933.20001220703125</ele>
        <time>2026-06-18T13:11:11.000Z</time>
        <extensions>
          <ns3:TrackPointExtension>
            <ns3:atemp>24.0</ns3:atemp>
          </ns3:TrackPointExtension>
        </extensions>
      </trkpt>
      <trkpt lat="42.56342207081615924835205078125" lon="19.82995010912418365478515625">
        <ele>933</ele>
        <time>2026-06-18T13:11:12.000Z</time>
        <extensions>
          <ns3:TrackPointExtension>
            <ns3:atemp>24.0</ns3:atemp>
          </ns3:TrackPointExtension>
        </extensions>
      </trkpt>
      <trkpt lat="42.5634566880762577056884765625" lon="19.83001272194087505340576171875">
        <ele>933</ele>
        <time>2026-06-18T13:11:13.000Z</time>
        <extensions>
          <ns3:TrackPointExtension>
            <ns3:atemp>24.0</ns3:atemp>
          </ns3:TrackPointExtension>
        </extensions>
      </trkpt>
      <trkpt lat="42.56348728202283382415771484375" lon="19.83008019626140594482421875">
        <ele>932.79998779296875</ele>
        <time>2026-06-18T13:11:14.000Z</time>
        <extensions>
          <ns3:TrackPointExtension>
            <ns3:atemp>24.0</ns3:atemp>
          </ns3:TrackPointExtension>
        </extensions>
      </trkpt>
      <trkpt lat="42.56351980380713939666748046875" lon="19.830147586762905120849609375">
        <ele>932.79998779296875</ele>
        <time>2026-06-18T13:11:15.000Z</time>
        <extensions>
          <ns3:TrackPointExtension>
            <ns3:atemp>24.0</ns3:atemp>
          </ns3:TrackPointExtension>
        </extensions>
      </trkpt>
      <trkpt lat="42.5635535828769207000732421875" lon="19.83021296560764312744140625">
        <ele>932.5999755859375</ele>
        <time>2026-06-18T13:11:16.000Z</time>
        <extensions>
          <ns3:TrackPointExtension>
            <ns3:atemp>24.0</ns3:atemp>
          </ns3:TrackPointExtension>
        </extensions>
      </trkpt>
      <trkpt lat="42.5635944865643978118896484375" lon="19.8302758298814296722412109375">
        <ele>932.5999755859375</ele>
        <time>2026-06-18T13:11:17.000Z</time>
        <extensions>
          <ns3:TrackPointExtension>
            <ns3:atemp>24.0</ns3:atemp>
          </ns3:TrackPointExtension>
        </extensions>
      </trkpt>
      <trkpt lat="42.56363631226122379302978515625" lon="19.8303385265171527862548828125">
        <ele>932.4000244140625</ele>
        <time>2026-06-18T13:11:18.000Z</time>
        <extensions>
          <ns3:TrackPointExtension>
            <ns3:atemp>24.0</ns3:atemp>
          </ns3:TrackPointExtension>
        </extensions>
      </trkpt>
      <trkpt lat="42.56367377936840057373046875" lon="19.83039946295320987701416015625">
        <ele>932.4000244140625</ele>
        <time>2026-06-18T13:11:19.000Z</time>
        <extensions>
          <ns3:TrackPointExtension>
            <ns3:atemp>24.0</ns3:atemp>
          </ns3:TrackPointExtension>
        </extensions>
      </trkpt>
      <trkpt lat="42.5637052953243255615234375" lon="19.8304595611989498138427734375">
        <ele>932.4000244140625</ele>
        <time>2026-06-18T13:11:20.000Z</time>
        <extensions>
          <ns3:TrackPointExtension>
            <ns3:atemp>24.0</ns3:atemp>
          </ns3:TrackPointExtension>
        </extensions>
      </trkpt>
      <trkpt lat="42.56373521871864795684814453125" lon="19.830516390502452850341796875">
        <ele>932.4000244140625</ele>
        <time>2026-06-18T13:11:21.000Z</time>
        <extensions>
          <ns3:TrackPointExtension>
            <ns3:atemp>24.0</ns3:atemp>
          </ns3:TrackPointExtension>
        </extensions>
      </trkpt>
      <trkpt lat="42.56376086734235286712646484375" lon="19.8305702023208141326904296875">
        <ele>932.4000244140625</ele>
        <time>2026-06-18T13:11:22.000Z</time>
        <extensions>
          <ns3:TrackPointExtension>
            <ns3:atemp>24.0</ns3:atemp>
          </ns3:TrackPointExtension>
        </extensions>
      </trkpt>
      <trkpt lat="42.5637879408895969390869140625" lon="19.83062007464468479156494140625">
        <ele>932.20001220703125</ele>
        <time>2026-06-18T13:11:23.000Z</time>
        <extensions>
          <ns3:TrackPointExtension>
            <ns3:atemp>24.0</ns3:atemp>
          </ns3:TrackPointExtension>
        </extensions>
      </trkpt>
      <trkpt lat="42.563816942274570465087890625" lon="19.8306734673678874969482421875">
        <ele>932.20001220703125</ele>
        <time>2026-06-18T13:11:24.000Z</time>
        <extensions>
          <ns3:TrackPointExtension>
            <ns3:atemp>24.0</ns3:atemp>
          </ns3:TrackPointExtension>
        </extensions>
      </trkpt>
      <trkpt lat="42.5638452731072902679443359375" lon="19.83070825226604938507080078125">
        <ele>932.20001220703125</ele>
        <time>2026-06-18T13:11:25.000Z</time>
        <extensions>
          <ns3:TrackPointExtension>
            <ns3:atemp>24.0</ns3:atemp>
          </ns3:TrackPointExtension>
        </extensions>
      </trkpt>
      <trkpt lat="42.5638630427420139312744140625" lon="19.83073255978524684906005859375">
        <ele>932.20001220703125</ele>
        <time>2026-06-18T13:11:26.000Z</time>
        <extensions>
          <ns3:TrackPointExtension>
            <ns3:atemp>24.0</ns3:atemp>
          </ns3:TrackPointExtension>
        </extensions>
      </trkpt>
      <trkpt lat="42.56387067027390003204345703125" lon="19.8307552747428417205810546875">
        <ele>932.20001220703125</ele>
        <time>2026-06-18T13:11:27.000Z</time>
        <extensions>
          <ns3:TrackPointExtension>
            <ns3:atemp>24.0</ns3:atemp>
          </ns3:TrackPointExtension>
        </extensions>
      </trkpt>
      <trkpt lat="42.563874609768390655517578125" lon="19.83077849261462688446044921875">
        <ele>932.20001220703125</ele>
        <time>2026-06-18T13:11:28.000Z</time>
        <extensions>
          <ns3:TrackPointExtension>
            <ns3:atemp>24.0</ns3:atemp>
          </ns3:TrackPointExtension>
        </extensions>
      </trkpt>
      <trkpt lat="42.5638811476528644561767578125" lon="19.8308037221431732177734375">
        <ele>932.20001220703125</ele>
        <time>2026-06-18T13:11:29.000Z</time>
        <extensions>
          <ns3:TrackPointExtension>
            <ns3:atemp>24.0</ns3:atemp>
          </ns3:TrackPointExtension>
        </extensions>
      </trkpt>
      <trkpt lat="42.5638952292501926422119140625" lon="19.8308230005204677581787109375">
        <ele>932.20001220703125</ele>
        <time>2026-06-18T13:11:30.000Z</time>
        <extensions>
          <ns3:TrackPointExtension>
            <ns3:atemp>24.0</ns3:atemp>
          </ns3:TrackPointExtension>
        </extensions>
      </trkpt>
      <trkpt lat="42.56391341798007488250732421875" lon="19.8308491520583629608154296875">
        <ele>932</ele>
        <time>2026-06-18T13:11:31.000Z</time>
        <extensions>
          <ns3:TrackPointExtension>
            <ns3:atemp>24.0</ns3:atemp>
          </ns3:TrackPointExtension>
        </extensions>
      </trkpt>
      <trkpt lat="42.56393873132765293121337890625" lon="19.83086566440761089324951171875">
        <ele>932</ele>
        <time>2026-06-18T13:11:32.000Z</time>
        <extensions>
          <ns3:TrackPointExtension>
            <ns3:atemp>24.0</ns3:atemp>
          </ns3:TrackPointExtension>
        </extensions>
      </trkpt>
      <trkpt lat="42.56396018899977207183837890625" lon="19.8308910615742206573486328125">
        <ele>932</ele>
        <time>2026-06-18T13:11:33.000Z</time>
        <extensions>
          <ns3:TrackPointExtension>
            <ns3:atemp>24.0</ns3:atemp>
          </ns3:TrackPointExtension>
        </extensions>
      </trkpt>
      <trkpt lat="42.56397125311195850372314453125" lon="19.8309351503849029541015625">
        <ele>931.79998779296875</ele>
        <time>2026-06-18T13:11:34.000Z</time>
        <extensions>
          <ns3:TrackPointExtension>
            <ns3:atemp>24.0</ns3:atemp>
          </ns3:TrackPointExtension>
        </extensions>
      </trkpt>
      <trkpt lat="42.563975863158702850341796875" lon="19.83098141849040985107421875">
        <ele>931.79998779296875</ele>
        <time>2026-06-18T13:11:35.000Z</time>
        <extensions>
          <ns3:TrackPointExtension>
            <ns3:atemp>24.0</ns3:atemp>
          </ns3:TrackPointExtension>
        </extensions>
      </trkpt>
      <trkpt lat="42.5639815628528594970703125" lon="19.83102726750075817108154296875">
        <ele>931.79998779296875</ele>
        <time>2026-06-18T13:11:36.000Z</time>
        <extensions>
          <ns3:TrackPointExtension>
            <ns3:atemp>24.0</ns3:atemp>
          </ns3:TrackPointExtension>
        </extensions>
      </trkpt>
      <trkpt lat="42.56399338133633136749267578125" lon="19.83108107931911945343017578125">
        <ele>931.79998779296875</ele>
        <time>2026-06-18T13:11:37.000Z</time>
        <extensions>
          <ns3:TrackPointExtension>
            <ns3:atemp>24.0</ns3:atemp>
          </ns3:TrackPointExtension>
        </extensions>
      </trkpt>
      <trkpt lat="42.5640055350959300994873046875" lon="19.8311260901391506195068359375">
        <ele>931.79998779296875</ele>
        <time>2026-06-18T13:11:38.000Z</time>
        <extensions>
          <ns3:TrackPointExtension>
            <ns3:atemp>24.0</ns3:atemp>
          </ns3:TrackPointExtension>
        </extensions>
      </trkpt>
      <trkpt lat="42.56402187980711460113525390625" lon="19.8311698436737060546875">
        <ele>931.79998779296875</ele>
        <time>2026-06-18T13:11:39.000Z</time>
        <extensions>
          <ns3:TrackPointExtension>
            <ns3:atemp>24.0</ns3:atemp>
          </ns3:TrackPointExtension>
        </extensions>
      </trkpt>
      <trkpt lat="42.564038895070552825927734375" lon="19.8312099091708660125732421875">
        <ele>931.79998779296875</ele>
        <time>2026-06-18T13:11:40.000Z</time>
        <extensions>
          <ns3:TrackPointExtension>
            <ns3:atemp>24.0</ns3:atemp>
          </ns3:TrackPointExtension>
        </extensions>
      </trkpt>
      <trkpt lat="42.56406261585652828216552734375" lon="19.83125156722962856292724609375">
        <ele>931.79998779296875</ele>
        <time>2026-06-18T13:11:41.000Z</time>
        <extensions>
          <ns3:TrackPointExtension>
            <ns3:atemp>24.0</ns3:atemp>
          </ns3:TrackPointExtension>
        </extensions>
      </trkpt>
      <trkpt lat="42.56408273242413997650146484375" lon="19.83129465021193027496337890625">
        <ele>931.79998779296875</ele>
        <time>2026-06-18T13:11:42.000Z</time>
        <extensions>
          <ns3:TrackPointExtension>
            <ns3:atemp>24.0</ns3:atemp>
          </ns3:TrackPointExtension>
        </extensions>
      </trkpt>
      <trkpt lat="42.56409698165953159332275390625" lon="19.83134477399289608001708984375">
        <ele>931.79998779296875</ele>
        <time>2026-06-18T13:11:43.000Z</time>
        <extensions>
          <ns3:TrackPointExtension>
            <ns3:atemp>24.0</ns3:atemp>
          </ns3:TrackPointExtension>
        </extensions>
      </trkpt>
      <trkpt lat="42.564099244773387908935546875" lon="19.83139255084097385406494140625">
        <ele>931.79998779296875</ele>
        <time>2026-06-18T13:11:44.000Z</time>
        <extensions>
          <ns3:TrackPointExtension>
            <ns3:atemp>24.0</ns3:atemp>
          </ns3:TrackPointExtension>
        </extensions>
      </trkpt>
      <trkpt lat="42.56408776156604290008544921875" lon="19.8314462788403034210205078125">
        <ele>931.79998779296875</ele>
        <time>2026-06-18T13:11:45.000Z</time>
        <extensions>
          <ns3:TrackPointExtension>
            <ns3:atemp>24.0</ns3:atemp>
          </ns3:TrackPointExtension>
        </extensions>
      </trkpt>
      <trkpt lat="42.56406479515135288238525390625" lon="19.831486009061336517333984375">
        <ele>931.5999755859375</ele>
        <time>2026-06-18T13:11:46.000Z</time>
        <extensions>
          <ns3:TrackPointExtension>
            <ns3:atemp>24.0</ns3:atemp>
          </ns3:TrackPointExtension>
        </extensions>
      </trkpt>
      <trkpt lat="42.56403394974768161773681640625" lon="19.83152347616851329803466796875">
        <ele>931.5999755859375</ele>
        <time>2026-06-18T13:11:47.000Z</time>
        <extensions>
          <ns3:TrackPointExtension>
            <ns3:atemp>24.0</ns3:atemp>
          </ns3:TrackPointExtension>
        </extensions>
      </trkpt>
      <trkpt lat="42.5640031881630420684814453125" lon="19.8315535672008991241455078125">
        <ele>931.5999755859375</ele>
        <time>2026-06-18T13:11:48.000Z</time>
        <extensions>
          <ns3:TrackPointExtension>
            <ns3:atemp>24.0</ns3:atemp>
          </ns3:TrackPointExtension>
        </extensions>
      </trkpt>
      <trkpt lat="42.5639693252742290496826171875" lon="19.83159354887902736663818359375">
        <ele>931.5999755859375</ele>
        <time>2026-06-18T13:11:49.000Z</time>
        <extensions>
          <ns3:TrackPointExtension>
            <ns3:atemp>24.0</ns3:atemp>
          </ns3:TrackPointExtension>
        </extensions>
      </trkpt>
      <trkpt lat="42.5639304332435131072998046875" lon="19.83162489719688892364501953125">
        <ele>931.5999755859375</ele>
        <time>2026-06-18T13:11:50.000Z</time>
        <extensions>
          <ns3:TrackPointExtension>
            <ns3:atemp>24.0</ns3:atemp>
          </ns3:TrackPointExtension>
        </extensions>
      </trkpt>
      <trkpt lat="42.56389413960278034210205078125" lon="19.83165876008570194244384765625">
        <ele>931.4000244140625</ele>
        <time>2026-06-18T13:11:51.000Z</time>
        <extensions>
          <ns3:TrackPointExtension>
            <ns3:atemp>24.0</ns3:atemp>
          </ns3:TrackPointExtension>
        </extensions>
      </trkpt>
      <trkpt lat="42.563859187066555023193359375" lon="19.83170159161090850830078125">
        <ele>931.4000244140625</ele>
        <time>2026-06-18T13:11:52.000Z</time>
        <extensions>
          <ns3:TrackPointExtension>
            <ns3:atemp>24.0</ns3:atemp>
          </ns3:TrackPointExtension>
        </extensions>
      </trkpt>
      <trkpt lat="42.56382272578775882720947265625" lon="19.83173956163227558135986328125">
        <ele>931.4000244140625</ele>
        <time>2026-06-18T13:11:53.000Z</time>
        <extensions>
          <ns3:TrackPointExtension>
            <ns3:atemp>24.0</ns3:atemp>
          </ns3:TrackPointExtension>
        </extensions>
      </trkpt>
      <trkpt lat="42.56378685124218463897705078125" lon="19.83177593909204006195068359375">
        <ele>931.20001220703125</ele>
        <time>2026-06-18T13:11:54.000Z</time>
        <extensions>
          <ns3:TrackPointExtension>
            <ns3:atemp>24.0</ns3:atemp>
          </ns3:TrackPointExtension>
        </extensions>
      </trkpt>
      <trkpt lat="42.563751228153705596923828125" lon="19.83180913142859935760498046875">
        <ele>931.20001220703125</ele>
        <time>2026-06-18T13:11:55.000Z</time>
        <extensions>
          <ns3:TrackPointExtension>
            <ns3:atemp>24.0</ns3:atemp>
          </ns3:TrackPointExtension>
        </extensions>
      </trkpt>
      <trkpt lat="42.56371644325554370880126953125" lon="19.83183612115681171417236328125">
        <ele>931.20001220703125</ele>
        <time>2026-06-18T13:11:56.000Z</time>
        <extensions>
          <ns3:TrackPointExtension>
            <ns3:atemp>24.0</ns3:atemp>
          </ns3:TrackPointExtension>
        </extensions>
      </trkpt>
      <trkpt lat="42.56368258036673069000244140625" lon="19.83186696656048297882080078125">
        <ele>931</ele>
        <time>2026-06-18T13:11:57.000Z</time>
        <extensions>
          <ns3:TrackPointExtension>
            <ns3:atemp>24.0</ns3:atemp>
          </ns3:TrackPointExtension>
        </extensions>
      </trkpt>
      <trkpt lat="42.56364888511598110198974609375" lon="19.83189211226999759674072265625">
        <ele>931</ele>
        <time>2026-06-18T13:11:58.000Z</time>
        <extensions>
          <ns3:TrackPointExtension>
            <ns3:atemp>24.0</ns3:atemp>
          </ns3:TrackPointExtension>
        </extensions>
      </trkpt>
      <trkpt lat="42.56361787207424640655517578125" lon="19.83191709034144878387451171875">
        <ele>931</ele>
        <time>2026-06-18T13:11:59.000Z</time>
        <extensions>
          <ns3:TrackPointExtension>
            <ns3:atemp>24.0</ns3:atemp>
          </ns3:TrackPointExtension>
        </extensions>
      </trkpt>
      <trkpt lat="42.5635897926986217498779296875" lon="19.83194575645029544830322265625">
        <ele>930.79998779296875</ele>
        <time>2026-06-18T13:12:00.000Z</time>
        <extensions>
          <ns3:TrackPointExtension>
            <ns3:atemp>24.0</ns3:atemp>
          </ns3:TrackPointExtension>
        </extensions>
      </trkpt>
      <trkpt lat="42.56356305442750453948974609375" lon="19.831974841654300689697265625">
        <ele>930.79998779296875</ele>
        <time>2026-06-18T13:12:01.000Z</time>
        <extensions>
          <ns3:TrackPointExtension>
            <ns3:atemp>24.0</ns3:atemp>
          </ns3:TrackPointExtension>
        </extensions>
      </trkpt>
      <trkpt lat="42.56353539414703845977783203125" lon="19.83200057409703731536865234375">
        <ele>930.79998779296875</ele>
        <time>2026-06-18T13:12:02.000Z</time>
        <extensions>
          <ns3:TrackPointExtension>
            <ns3:atemp>24.0</ns3:atemp>
          </ns3:TrackPointExtension>
        </extensions>
      </trkpt>
      <trkpt lat="42.56351309828460216522216796875" lon="19.83202253468334674835205078125">
        <ele>930.79998779296875</ele>
        <time>2026-06-18T13:12:03.000Z</time>
        <extensions>
          <ns3:TrackPointExtension>
            <ns3:atemp>24.0</ns3:atemp>
          </ns3:TrackPointExtension>
        </extensions>
      </trkpt>
      <trkpt lat="42.56349147297441959381103515625" lon="19.83204625546932220458984375">
        <ele>930.79998779296875</ele>
        <time>2026-06-18T13:12:04.000Z</time>
        <extensions>
          <ns3:TrackPointExtension>
            <ns3:atemp>24.0</ns3:atemp>
          </ns3:TrackPointExtension>
        </extensions>
      </trkpt>
      <trkpt lat="42.56346951238811016082763671875" lon="19.83207014389336109161376953125">
        <ele>930.79998779296875</ele>
        <time>2026-06-18T13:12:05.000Z</time>
        <extensions>
          <ns3:TrackPointExtension>
            <ns3:atemp>24.0</ns3:atemp>
          </ns3:TrackPointExtension>
        </extensions>
      </trkpt>
      <trkpt lat="42.563446797430515289306640625" lon="19.832092188298702239990234375">
        <ele>930.5999755859375</ele>
        <time>2026-06-18T13:12:06.000Z</time>
        <extensions>
          <ns3:TrackPointExtension>
            <ns3:atemp>24.0</ns3:atemp>
          </ns3:TrackPointExtension>
        </extensions>
      </trkpt>
      <trkpt lat="42.5634245015680789947509765625" lon="19.832113645970821380615234375">
        <ele>930.5999755859375</ele>
        <time>2026-06-18T13:12:07.000Z</time>
        <extensions>
          <ns3:TrackPointExtension>
            <ns3:atemp>24.0</ns3:atemp>
          </ns3:TrackPointExtension>
        </extensions>
      </trkpt>
      <trkpt lat="42.5633990205824375152587890625" lon="19.832131750881671905517578125">
        <ele>930.4000244140625</ele>
        <time>2026-06-18T13:12:08.000Z</time>
        <extensions>
          <ns3:TrackPointExtension>
            <ns3:atemp>24.0</ns3:atemp>
          </ns3:TrackPointExtension>
        </extensions>
      </trkpt>
      <trkpt lat="42.56337747909128665924072265625" lon="19.8321399651467800140380859375">
        <ele>930.4000244140625</ele>
        <time>2026-06-18T13:12:09.000Z</time>
        <extensions>
          <ns3:TrackPointExtension>
            <ns3:atemp>24.0</ns3:atemp>
          </ns3:TrackPointExtension>
        </extensions>
      </trkpt>
      <trkpt lat="42.56335836835205554962158203125" lon="19.832150526344776153564453125">
        <ele>930.4000244140625</ele>
        <time>2026-06-18T13:12:10.000Z</time>
        <extensions>
          <ns3:TrackPointExtension>
            <ns3:atemp>24.0</ns3:atemp>
          </ns3:TrackPointExtension>
        </extensions>
      </trkpt>
      <trkpt lat="42.5633416883647441864013671875" lon="19.83217022381722927093505859375">
        <ele>930.4000244140625</ele>
        <time>2026-06-18T13:12:11.000Z</time>
        <extensions>
          <ns3:TrackPointExtension>
            <ns3:atemp>24.0</ns3:atemp>
          </ns3:TrackPointExtension>
        </extensions>
      </trkpt>
      <trkpt lat="42.5633239187300205230712890625" lon="19.8321892507374286651611328125">
        <ele>930.4000244140625</ele>
        <time>2026-06-18T13:12:12.000Z</time>
        <extensions>
          <ns3:TrackPointExtension>
            <ns3:atemp>24.0</ns3:atemp>
          </ns3:TrackPointExtension>
        </extensions>
      </trkpt>
      <trkpt lat="42.56331344135105609893798828125" lon="19.83221791684627532958984375">
        <ele>930.4000244140625</ele>
        <time>2026-06-18T13:12:13.000Z</time>
        <extensions>
          <ns3:TrackPointExtension>
            <ns3:atemp>24.0</ns3:atemp>
          </ns3:TrackPointExtension>
        </extensions>
      </trkpt>
      <trkpt lat="42.5633095018565654754638671875" lon="19.83224750496447086334228515625">
        <ele>930.4000244140625</ele>
        <time>2026-06-18T13:12:14.000Z</time>
        <extensions>
          <ns3:TrackPointExtension>
            <ns3:atemp>24.0</ns3:atemp>
          </ns3:TrackPointExtension>
        </extensions>
      </trkpt>
      <trkpt lat="42.56330958567559719085693359375" lon="19.83227667398750782012939453125">
        <ele>930.20001220703125</ele>
        <time>2026-06-18T13:12:15.000Z</time>
        <extensions>
          <ns3:TrackPointExtension>
            <ns3:atemp>24.0</ns3:atemp>
          </ns3:TrackPointExtension>
        </extensions>
      </trkpt>
      <trkpt lat="42.5633148662745952606201171875" lon="19.8323129676282405853271484375">
        <ele>930.20001220703125</ele>
        <time>2026-06-18T13:12:16.000Z</time>
        <extensions>
          <ns3:TrackPointExtension>
            <ns3:atemp>24.0</ns3:atemp>
          </ns3:TrackPointExtension>
        </extensions>
      </trkpt>
      <trkpt lat="42.5633302889764308929443359375" lon="19.832352362573146820068359375">
        <ele>930</ele>
        <time>2026-06-18T13:12:17.000Z</time>
        <extensions>
          <ns3:TrackPointExtension>
            <ns3:atemp>24.0</ns3:atemp>
          </ns3:TrackPointExtension>
        </extensions>
      </trkpt>
      <trkpt lat="42.5633480586111545562744140625" lon="19.83238966204226016998291015625">
        <ele>930</ele>
        <time>2026-06-18T13:12:18.000Z</time>
        <extensions>
          <ns3:TrackPointExtension>
            <ns3:atemp>24.0</ns3:atemp>
          </ns3:TrackPointExtension>
        </extensions>
      </trkpt>
      <trkpt lat="42.5633624754846096038818359375" lon="19.8324283026158809661865234375">
        <ele>929.79998779296875</ele>
        <time>2026-06-18T13:12:19.000Z</time>
        <extensions>
          <ns3:TrackPointExtension>
            <ns3:atemp>24.0</ns3:atemp>
          </ns3:TrackPointExtension>
        </extensions>
      </trkpt>
      <trkpt lat="42.56337764672935009002685546875" lon="19.832463003695011138916015625">
        <ele>929.79998779296875</ele>
        <time>2026-06-18T13:12:20.000Z</time>
        <extensions>
          <ns3:TrackPointExtension>
            <ns3:atemp>24.0</ns3:atemp>
          </ns3:TrackPointExtension>
        </extensions>
      </trkpt>
      <trkpt lat="42.5633929856121540069580078125" lon="19.832495190203189849853515625">
        <ele>929.79998779296875</ele>
        <time>2026-06-18T13:12:21.000Z</time>
        <extensions>
          <ns3:TrackPointExtension>
            <ns3:atemp>24.0</ns3:atemp>
          </ns3:TrackPointExtension>
        </extensions>
      </trkpt>
      <trkpt lat="42.563406564295291900634765625" lon="19.83253248967230319976806640625">
        <ele>929.79998779296875</ele>
        <time>2026-06-18T13:12:22.000Z</time>
        <extensions>
          <ns3:TrackPointExtension>
            <ns3:atemp>24.0</ns3:atemp>
          </ns3:TrackPointExtension>
        </extensions>
      </trkpt>
      <trkpt lat="42.563424669206142425537109375" lon="19.83256903477013111114501953125">
        <ele>929.79998779296875</ele>
        <time>2026-06-18T13:12:23.000Z</time>
        <extensions>
          <ns3:TrackPointExtension>
            <ns3:atemp>24.0</ns3:atemp>
          </ns3:TrackPointExtension>
        </extensions>
      </trkpt>
      <trkpt lat="42.56344235502183437347412109375" lon="19.8326046578586101531982421875">
        <ele>929.79998779296875</ele>
        <time>2026-06-18T13:12:24.000Z</time>
        <extensions>
          <ns3:TrackPointExtension>
            <ns3:atemp>24.0</ns3:atemp>
          </ns3:TrackPointExtension>
        </extensions>
      </trkpt>
      <trkpt lat="42.56346196867525577545166015625" lon="19.83263592235743999481201171875">
        <ele>929.79998779296875</ele>
        <time>2026-06-18T13:12:25.000Z</time>
        <extensions>
          <ns3:TrackPointExtension>
            <ns3:atemp>24.0</ns3:atemp>
          </ns3:TrackPointExtension>
        </extensions>
      </trkpt>
      <trkpt lat="42.5634773075580596923828125" lon="19.8326710425317287445068359375">
        <ele>929.79998779296875</ele>
        <time>2026-06-18T13:12:26.000Z</time>
        <extensions>
          <ns3:TrackPointExtension>
            <ns3:atemp>24.0</ns3:atemp>
          </ns3:TrackPointExtension>
        </extensions>
      </trkpt>
      <trkpt lat="42.56349147297441959381103515625" lon="19.83270532451570034027099609375">
        <ele>929.79998779296875</ele>
        <time>2026-06-18T13:12:27.000Z</time>
        <extensions>
          <ns3:TrackPointExtension>
            <ns3:atemp>24.0</ns3:atemp>
          </ns3:TrackPointExtension>
        </extensions>
      </trkpt>
      <trkpt lat="42.5635042972862720489501953125" lon="19.83274723403155803680419921875">
        <ele>929.5999755859375</ele>
        <time>2026-06-18T13:12:28.000Z</time>
        <extensions>
          <ns3:TrackPointExtension>
            <ns3:atemp>24.0</ns3:atemp>
          </ns3:TrackPointExtension>
        </extensions>
      </trkpt>
      <trkpt lat="42.563521228730678558349609375" lon="19.83278310857713222503662109375">
        <ele>929.5999755859375</ele>
        <time>2026-06-18T13:12:29.000Z</time>
        <extensions>
          <ns3:TrackPointExtension>
            <ns3:atemp>24.0</ns3:atemp>
          </ns3:TrackPointExtension>
        </extensions>
      </trkpt>
      <trkpt lat="42.56353572942316532135009765625" lon="19.83281848020851612091064453125">
        <ele>929.4000244140625</ele>
        <time>2026-06-18T13:12:30.000Z</time>
        <extensions>
          <ns3:TrackPointExtension>
            <ns3:atemp>24.0</ns3:atemp>
          </ns3:TrackPointExtension>
        </extensions>
      </trkpt>
      <trkpt lat="42.563550062477588653564453125" lon="19.83285619877278804779052734375">
        <ele>929.4000244140625</ele>
        <time>2026-06-18T13:12:31.000Z</time>
        <extensions>
          <ns3:TrackPointExtension>
            <ns3:atemp>24.0</ns3:atemp>
          </ns3:TrackPointExtension>
        </extensions>
      </trkpt>
      <trkpt lat="42.56356640718877315521240234375" lon="19.8328958451747894287109375">
        <ele>929.4000244140625</ele>
        <time>2026-06-18T13:12:32.000Z</time>
        <extensions>
          <ns3:TrackPointExtension>
            <ns3:atemp>24.0</ns3:atemp>
          </ns3:TrackPointExtension>
        </extensions>
      </trkpt>
      <trkpt lat="42.5635845959186553955078125" lon="19.83293465338647365570068359375">
        <ele>929.4000244140625</ele>
        <time>2026-06-18T13:12:33.000Z</time>
        <extensions>
          <ns3:TrackPointExtension>
            <ns3:atemp>24.0</ns3:atemp>
          </ns3:TrackPointExtension>
        </extensions>
      </trkpt>
      <trkpt lat="42.5635991804301738739013671875" lon="19.83296985737979412078857421875">
        <ele>929.4000244140625</ele>
        <time>2026-06-18T13:12:34.000Z</time>
        <extensions>
          <ns3:TrackPointExtension>
            <ns3:atemp>24.0</ns3:atemp>
          </ns3:TrackPointExtension>
        </extensions>
      </trkpt>
      <trkpt lat="42.56361334584653377532958984375" lon="19.8330116830766201019287109375">
        <ele>929.20001220703125</ele>
        <time>2026-06-18T13:12:35.000Z</time>
        <extensions>
          <ns3:TrackPointExtension>
            <ns3:atemp>24.0</ns3:atemp>
          </ns3:TrackPointExtension>
        </extensions>
      </trkpt>
      <trkpt lat="42.56362642161548137664794921875" lon="19.8330529220402240753173828125">
        <ele>929.20001220703125</ele>
        <time>2026-06-18T13:12:36.000Z</time>
        <extensions>
          <ns3:TrackPointExtension>
            <ns3:atemp>24.0</ns3:atemp>
          </ns3:TrackPointExtension>
        </extensions>
      </trkpt>
      <trkpt lat="42.5636424310505390167236328125" lon="19.8330881260335445404052734375">
        <ele>929.20001220703125</ele>
        <time>2026-06-18T13:12:37.000Z</time>
        <extensions>
          <ns3:TrackPointExtension>
            <ns3:atemp>24.0</ns3:atemp>
          </ns3:TrackPointExtension>
        </extensions>
      </trkpt>
      <trkpt lat="42.56366346962749958038330078125" lon="19.833108745515346527099609375">
        <ele>929.20001220703125</ele>
        <time>2026-06-18T13:12:38.000Z</time>
        <extensions>
          <ns3:TrackPointExtension>
            <ns3:atemp>24.0</ns3:atemp>
          </ns3:TrackPointExtension>
        </extensions>
      </trkpt>
      <trkpt lat="42.56368375383317470550537109375" lon="19.83310480602085590362548828125">
        <ele>929</ele>
        <time>2026-06-18T13:12:39.000Z</time>
        <extensions>
          <ns3:TrackPointExtension>
            <ns3:atemp>24.0</ns3:atemp>
          </ns3:TrackPointExtension>
        </extensions>
      </trkpt>
      <trkpt lat="42.56368794478476047515869140625" lon="19.8330857791006565093994140625">
        <ele>929</ele>
        <time>2026-06-18T13:12:40.000Z</time>
        <extensions>
          <ns3:TrackPointExtension>
            <ns3:atemp>24.0</ns3:atemp>
          </ns3:TrackPointExtension>
        </extensions>
      </trkpt>
      <trkpt lat="42.563688866794109344482421875" lon="19.8330924846231937408447265625">
        <ele>929</ele>
        <time>2026-06-18T13:12:41.000Z</time>
        <extensions>
          <ns3:TrackPointExtension>
            <ns3:atemp>24.0</ns3:atemp>
          </ns3:TrackPointExtension>
        </extensions>
      </trkpt>
      <trkpt lat="42.563688866794109344482421875" lon="19.83309231698513031005859375">
        <ele>929</ele>
        <time>2026-06-18T13:12:42.000Z</time>
        <extensions>
          <ns3:TrackPointExtension>
            <ns3:atemp>24.0</ns3:atemp>
          </ns3:TrackPointExtension>
        </extensions>
      </trkpt>
      <trkpt lat="42.563688866794109344482421875" lon="19.83309231698513031005859375">
        <ele>929</ele>
        <time>2026-06-18T13:12:43.000Z</time>
        <extensions>
          <ns3:TrackPointExtension>
            <ns3:atemp>24.0</ns3:atemp>
          </ns3:TrackPointExtension>
        </extensions>
      </trkpt>
      <trkpt lat="42.563688866794109344482421875" lon="19.83309231698513031005859375">
        <ele>929.20001220703125</ele>
        <time>2026-06-18T13:12:44.000Z</time>
        <extensions>
          <ns3:TrackPointExtension>
            <ns3:atemp>24.0</ns3:atemp>
          </ns3:TrackPointExtension>
        </extensions>
      </trkpt>
      <trkpt lat="42.563688866794109344482421875" lon="19.83309231698513031005859375">
        <ele>929.20001220703125</ele>
        <time>2026-06-18T13:12:45.000Z</time>
        <extensions>
          <ns3:TrackPointExtension>
            <ns3:atemp>24.0</ns3:atemp>
          </ns3:TrackPointExtension>
        </extensions>
      </trkpt>
      <trkpt lat="42.563688866794109344482421875" lon="19.83309231698513031005859375">
        <ele>929</ele>
        <time>2026-06-18T13:12:46.000Z</time>
        <extensions>
          <ns3:TrackPointExtension>
            <ns3:atemp>24.0</ns3:atemp>
          </ns3:TrackPointExtension>
        </extensions>
      </trkpt>
      <trkpt lat="42.563688866794109344482421875" lon="19.83309231698513031005859375">
        <ele>929</ele>
        <time>2026-06-18T13:12:47.000Z</time>
        <extensions>
          <ns3:TrackPointExtension>
            <ns3:atemp>24.0</ns3:atemp>
          </ns3:TrackPointExtension>
        </extensions>
      </trkpt>
      <trkpt lat="42.563688866794109344482421875" lon="19.83309231698513031005859375">
        <ele>929</ele>
        <time>2026-06-18T13:12:48.000Z</time>
        <extensions>
          <ns3:TrackPointExtension>
            <ns3:atemp>24.0</ns3:atemp>
          </ns3:TrackPointExtension>
        </extensions>
      </trkpt>
      <trkpt lat="42.563688866794109344482421875" lon="19.83309231698513031005859375">
        <ele>929</ele>
        <time>2026-06-18T13:12:49.000Z</time>
        <extensions>
          <ns3:TrackPointExtension>
            <ns3:atemp>24.0</ns3:atemp>
          </ns3:TrackPointExtension>
        </extensions>
      </trkpt>
      <trkpt lat="42.563688866794109344482421875" lon="19.83309231698513031005859375">
        <ele>929</ele>
        <time>2026-06-18T13:12:50.000Z</time>
        <extensions>
          <ns3:TrackPointExtension>
            <ns3:atemp>24.0</ns3:atemp>
          </ns3:TrackPointExtension>
        </extensions>
      </trkpt>
      <trkpt lat="42.563688866794109344482421875" lon="19.83309231698513031005859375">
        <ele>929</ele>
        <time>2026-06-18T13:12:51.000Z</time>
        <extensions>
          <ns3:TrackPointExtension>
            <ns3:atemp>24.0</ns3:atemp>
          </ns3:TrackPointExtension>
        </extensions>
      </trkpt>
      <trkpt lat="42.563688866794109344482421875" lon="19.83309231698513031005859375">
        <ele>929</ele>
        <time>2026-06-18T13:12:52.000Z</time>
        <extensions>
          <ns3:TrackPointExtension>
            <ns3:atemp>24.0</ns3:atemp>
          </ns3:TrackPointExtension>
        </extensions>
      </trkpt>
      <trkpt lat="42.563688866794109344482421875" lon="19.83309231698513031005859375">
        <ele>929</ele>
        <time>2026-06-18T13:12:53.000Z</time>
        <extensions>
          <ns3:TrackPointExtension>
            <ns3:atemp>24.0</ns3:atemp>
          </ns3:TrackPointExtension>
        </extensions>
      </trkpt>
      <trkpt lat="42.563688866794109344482421875" lon="19.83309231698513031005859375">
        <ele>929</ele>
        <time>2026-06-18T13:12:54.000Z</time>
        <extensions>
          <ns3:TrackPointExtension>
            <ns3:atemp>24.0</ns3:atemp>
          </ns3:TrackPointExtension>
        </extensions>
      </trkpt>
      <trkpt lat="42.563688866794109344482421875" lon="19.83309231698513031005859375">
        <ele>929</ele>
        <time>2026-06-18T13:12:55.000Z</time>
        <extensions>
          <ns3:TrackPointExtension>
            <ns3:atemp>24.0</ns3:atemp>
          </ns3:TrackPointExtension>
        </extensions>
      </trkpt>
      <trkpt lat="42.563688866794109344482421875" lon="19.83309231698513031005859375">
        <ele>929</ele>
        <time>2026-06-18T13:12:56.000Z</time>
        <extensions>
          <ns3:TrackPointExtension>
            <ns3:atemp>24.0</ns3:atemp>
          </ns3:TrackPointExtension>
        </extensions>
      </trkpt>
      <trkpt lat="42.563688866794109344482421875" lon="19.83309231698513031005859375">
        <ele>929</ele>
        <time>2026-06-18T13:12:57.000Z</time>
        <extensions>
          <ns3:TrackPointExtension>
            <ns3:atemp>24.0</ns3:atemp>
          </ns3:TrackPointExtension>
        </extensions>
      </trkpt>
      <trkpt lat="42.563688866794109344482421875" lon="19.83309231698513031005859375">
        <ele>929</ele>
        <time>2026-06-18T13:12:58.000Z</time>
        <extensions>
          <ns3:TrackPointExtension>
            <ns3:atemp>24.0</ns3:atemp>
          </ns3:TrackPointExtension>
        </extensions>
      </trkpt>
      <trkpt lat="42.563688866794109344482421875" lon="19.83309231698513031005859375">
        <ele>929</ele>
        <time>2026-06-18T13:12:59.000Z</time>
        <extensions>
          <ns3:TrackPointExtension>
            <ns3:atemp>24.0</ns3:atemp>
          </ns3:TrackPointExtension>
        </extensions>
      </trkpt>
      <trkpt lat="42.563688866794109344482421875" lon="19.83309231698513031005859375">
        <ele>929</ele>
        <time>2026-06-18T13:13:00.000Z</time>
        <extensions>
          <ns3:TrackPointExtension>
            <ns3:atemp>24.0</ns3:atemp>
          </ns3:TrackPointExtension>
        </extensions>
      </trkpt>
      <trkpt lat="42.563688866794109344482421875" lon="19.83309231698513031005859375">
        <ele>929</ele>
        <time>2026-06-18T13:13:01.000Z</time>
        <extensions>
          <ns3:TrackPointExtension>
            <ns3:atemp>24.0</ns3:atemp>
          </ns3:TrackPointExtension>
        </extensions>
      </trkpt>
      <trkpt lat="42.563688866794109344482421875" lon="19.83309231698513031005859375">
        <ele>929</ele>
        <time>2026-06-18T13:13:02.000Z</time>
        <extensions>
          <ns3:TrackPointExtension>
            <ns3:atemp>24.0</ns3:atemp>
          </ns3:TrackPointExtension>
        </extensions>
      </trkpt>
      <trkpt lat="42.563688866794109344482421875" lon="19.83309231698513031005859375">
        <ele>929</ele>
        <time>2026-06-18T13:13:03.000Z</time>
        <extensions>
          <ns3:TrackPointExtension>
            <ns3:atemp>24.0</ns3:atemp>
          </ns3:TrackPointExtension>
        </extensions>
      </trkpt>
      <trkpt lat="42.563688866794109344482421875" lon="19.83309231698513031005859375">
        <ele>929</ele>
        <time>2026-06-18T13:13:04.000Z</time>
        <extensions>
          <ns3:TrackPointExtension>
            <ns3:atemp>24.0</ns3:atemp>
          </ns3:TrackPointExtension>
        </extensions>
      </trkpt>
      <trkpt lat="42.563688866794109344482421875" lon="19.83309231698513031005859375">
        <ele>929</ele>
        <time>2026-06-18T13:13:05.000Z</time>
        <extensions>
          <ns3:TrackPointExtension>
            <ns3:atemp>24.0</ns3:atemp>
          </ns3:TrackPointExtension>
        </extensions>
      </trkpt>
      <trkpt lat="42.563688866794109344482421875" lon="19.83309231698513031005859375">
        <ele>929</ele>
        <time>2026-06-18T13:13:06.000Z</time>
        <extensions>
          <ns3:TrackPointExtension>
            <ns3:atemp>25.0</ns3:atemp>
          </ns3:TrackPointExtension>
        </extensions>
      </trkpt>
      <trkpt lat="42.563688866794109344482421875" lon="19.83309231698513031005859375">
        <ele>929</ele>
        <time>2026-06-18T13:13:07.000Z</time>
        <extensions>
          <ns3:TrackPointExtension>
            <ns3:atemp>24.0</ns3:atemp>
          </ns3:TrackPointExtension>
        </extensions>
      </trkpt>
      <trkpt lat="42.563688866794109344482421875" lon="19.83309231698513031005859375">
        <ele>929</ele>
        <time>2026-06-18T13:13:08.000Z</time>
        <extensions>
          <ns3:TrackPointExtension>
            <ns3:atemp>24.0</ns3:atemp>
          </ns3:TrackPointExtension>
        </extensions>
      </trkpt>
      <trkpt lat="42.56368442438542842864990234375" lon="19.833091311156749725341796875">
        <ele>929</ele>
        <time>2026-06-18T13:13:09.000Z</time>
        <extensions>
          <ns3:TrackPointExtension>
            <ns3:atemp>24.0</ns3:atemp>
          </ns3:TrackPointExtension>
        </extensions>
      </trkpt>
      <trkpt lat="42.5636695884168148040771484375" lon="19.83307756483554840087890625">
        <ele>929</ele>
        <time>2026-06-18T13:13:10.000Z</time>
        <extensions>
          <ns3:TrackPointExtension>
            <ns3:atemp>24.0</ns3:atemp>
          </ns3:TrackPointExtension>
        </extensions>
      </trkpt>
      <trkpt lat="42.56366346962749958038330078125" lon="19.833071865141391754150390625">
        <ele>929</ele>
        <time>2026-06-18T13:13:11.000Z</time>
        <extensions>
          <ns3:TrackPointExtension>
            <ns3:atemp>24.0</ns3:atemp>
          </ns3:TrackPointExtension>
        </extensions>
      </trkpt>
      <trkpt lat="42.56366036832332611083984375" lon="19.83306440524756908416748046875">
        <ele>929</ele>
        <time>2026-06-18T13:13:12.000Z</time>
        <extensions>
          <ns3:TrackPointExtension>
            <ns3:atemp>25.0</ns3:atemp>
          </ns3:TrackPointExtension>
        </extensions>
      </trkpt>
      <trkpt lat="42.56365760229527950286865234375" lon="19.833057783544063568115234375">
        <ele>929</ele>
        <time>2026-06-18T13:13:13.000Z</time>
        <extensions>
          <ns3:TrackPointExtension>
            <ns3:atemp>25.0</ns3:atemp>
          </ns3:TrackPointExtension>
        </extensions>
      </trkpt>
      <trkpt lat="42.5636568479239940643310546875" lon="19.833050072193145751953125">
        <ele>929</ele>
        <time>2026-06-18T13:13:14.000Z</time>
        <extensions>
          <ns3:TrackPointExtension>
            <ns3:atemp>25.0</ns3:atemp>
          </ns3:TrackPointExtension>
        </extensions>
      </trkpt>
      <trkpt lat="42.56365642882883548736572265625" lon="19.83303506858646869659423828125">
        <ele>928.79998779296875</ele>
        <time>2026-06-18T13:13:15.000Z</time>
        <extensions>
          <ns3:TrackPointExtension>
            <ns3:atemp>25.0</ns3:atemp>
          </ns3:TrackPointExtension>
        </extensions>
      </trkpt>
      <trkpt lat="42.563656009733676910400390625" lon="19.8330247588455677032470703125">
        <ele>928.79998779296875</ele>
        <time>2026-06-18T13:13:16.000Z</time>
        <extensions>
          <ns3:TrackPointExtension>
            <ns3:atemp>25.0</ns3:atemp>
          </ns3:TrackPointExtension>
        </extensions>
      </trkpt>
      <trkpt lat="42.5636521540582180023193359375" lon="19.83301377855241298675537109375">
        <ele>928.79998779296875</ele>
        <time>2026-06-18T13:13:17.000Z</time>
        <extensions>
          <ns3:TrackPointExtension>
            <ns3:atemp>25.0</ns3:atemp>
          </ns3:TrackPointExtension>
        </extensions>
      </trkpt>
      <trkpt lat="42.5636441074311733245849609375" lon="19.8330033011734485626220703125">
        <ele>928.79998779296875</ele>
        <time>2026-06-18T13:13:18.000Z</time>
        <extensions>
          <ns3:TrackPointExtension>
            <ns3:atemp>25.0</ns3:atemp>
          </ns3:TrackPointExtension>
        </extensions>
      </trkpt>
      <trkpt lat="42.5636427663266658782958984375" lon="19.83300187624990940093994140625">
        <ele>928.79998779296875</ele>
        <time>2026-06-18T13:13:19.000Z</time>
        <extensions>
          <ns3:TrackPointExtension>
            <ns3:atemp>25.0</ns3:atemp>
          </ns3:TrackPointExtension>
        </extensions>
      </trkpt>
      <trkpt lat="42.56364067085087299346923828125" lon="19.833008833229541778564453125">
        <ele>929</ele>
        <time>2026-06-18T13:13:20.000Z</time>
        <extensions>
          <ns3:TrackPointExtension>
            <ns3:atemp>25.0</ns3:atemp>
          </ns3:TrackPointExtension>
        </extensions>
      </trkpt>
      <trkpt lat="42.563640587031841278076171875" lon="19.83300874941051006317138671875">
        <ele>929</ele>
        <time>2026-06-18T13:13:21.000Z</time>
        <extensions>
          <ns3:TrackPointExtension>
            <ns3:atemp>25.0</ns3:atemp>
          </ns3:TrackPointExtension>
        </extensions>
      </trkpt>
      <trkpt lat="42.563640587031841278076171875" lon="19.83300874941051006317138671875">
        <ele>929</ele>
        <time>2026-06-18T13:13:22.000Z</time>
        <extensions>
          <ns3:TrackPointExtension>
            <ns3:atemp>25.0</ns3:atemp>
          </ns3:TrackPointExtension>
        </extensions>
      </trkpt>
      <trkpt lat="42.563640587031841278076171875" lon="19.83300874941051006317138671875">
        <ele>929</ele>
        <time>2026-06-18T13:13:23.000Z</time>
        <extensions>
          <ns3:TrackPointExtension>
            <ns3:atemp>25.0</ns3:atemp>
          </ns3:TrackPointExtension>
        </extensions>
      </trkpt>
      <trkpt lat="42.563640587031841278076171875" lon="19.83300874941051006317138671875">
        <ele>929</ele>
        <time>2026-06-18T13:13:24.000Z</time>
        <extensions>
          <ns3:TrackPointExtension>
            <ns3:atemp>25.0</ns3:atemp>
          </ns3:TrackPointExtension>
        </extensions>
      </trkpt>
      <trkpt lat="42.563640587031841278076171875" lon="19.83300874941051006317138671875">
        <ele>929</ele>
        <time>2026-06-18T13:13:25.000Z</time>
        <extensions>
          <ns3:TrackPointExtension>
            <ns3:atemp>25.0</ns3:atemp>
          </ns3:TrackPointExtension>
        </extensions>
      </trkpt>
      <trkpt lat="42.5636179558932781219482421875" lon="19.83318678103387355804443359375">
        <ele>927.5999755859375</ele>
        <time>2026-06-18T13:41:01.000Z</time>
        <extensions>
          <ns3:TrackPointExtension>
            <ns3:atemp>32.0</ns3:atemp>
          </ns3:TrackPointExtension>
        </extensions>
      </trkpt>
      <trkpt lat="42.56361351348459720611572265625" lon="19.83320471830666065216064453125">
        <ele>927.4000244140625</ele>
        <time>2026-06-18T13:41:02.000Z</time>
        <extensions>
          <ns3:TrackPointExtension>
            <ns3:atemp>32.0</ns3:atemp>
          </ns3:TrackPointExtension>
        </extensions>
      </trkpt>
      <trkpt lat="42.56364419125020503997802734375" lon="19.8332239128649234771728515625">
        <ele>927.4000244140625</ele>
        <time>2026-06-18T13:41:03.000Z</time>
        <extensions>
          <ns3:TrackPointExtension>
            <ns3:atemp>32.0</ns3:atemp>
          </ns3:TrackPointExtension>
        </extensions>
      </trkpt>
      <trkpt lat="42.56364419125020503997802734375" lon="19.8332239128649234771728515625">
        <ele>927.4000244140625</ele>
        <time>2026-06-18T13:41:04.000Z</time>
        <extensions>
          <ns3:TrackPointExtension>
            <ns3:atemp>32.0</ns3:atemp>
          </ns3:TrackPointExtension>
        </extensions>
      </trkpt>
      <trkpt lat="42.56367822177708148956298828125" lon="19.833222739398479461669921875">
        <ele>927.20001220703125</ele>
        <time>2026-06-18T13:41:05.000Z</time>
        <extensions>
          <ns3:TrackPointExtension>
            <ns3:atemp>32.0</ns3:atemp>
          </ns3:TrackPointExtension>
        </extensions>
      </trkpt>
      <trkpt lat="42.5636974163353443145751953125" lon="19.83320605941116809844970703125">
        <ele>927</ele>
        <time>2026-06-18T13:41:06.000Z</time>
        <extensions>
          <ns3:TrackPointExtension>
            <ns3:atemp>32.0</ns3:atemp>
          </ns3:TrackPointExtension>
        </extensions>
      </trkpt>
      <trkpt lat="42.56370470859110355377197265625" lon="19.8332091607153415679931640625">
        <ele>926.79998779296875</ele>
        <time>2026-06-18T13:41:07.000Z</time>
        <extensions>
          <ns3:TrackPointExtension>
            <ns3:atemp>32.0</ns3:atemp>
          </ns3:TrackPointExtension>
        </extensions>
      </trkpt>
      <trkpt lat="42.56371225230395793914794921875" lon="19.8332212306559085845947265625">
        <ele>926.79998779296875</ele>
        <time>2026-06-18T13:41:08.000Z</time>
        <extensions>
          <ns3:TrackPointExtension>
            <ns3:atemp>32.0</ns3:atemp>
          </ns3:TrackPointExtension>
        </extensions>
      </trkpt>
      <trkpt lat="42.563717700541019439697265625" lon="19.83323581516742706298828125">
        <ele>926.79998779296875</ele>
        <time>2026-06-18T13:41:09.000Z</time>
        <extensions>
          <ns3:TrackPointExtension>
            <ns3:atemp>32.0</ns3:atemp>
          </ns3:TrackPointExtension>
        </extensions>
      </trkpt>
      <trkpt lat="42.56371401250362396240234375" lon="19.83324386179447174072265625">
        <ele>926.79998779296875</ele>
        <time>2026-06-18T13:41:10.000Z</time>
        <extensions>
          <ns3:TrackPointExtension>
            <ns3:atemp>32.0</ns3:atemp>
          </ns3:TrackPointExtension>
        </extensions>
      </trkpt>
      <trkpt lat="42.56370806135237216949462890625" lon="19.83326129615306854248046875">
        <ele>927</ele>
        <time>2026-06-18T13:41:11.000Z</time>
        <extensions>
          <ns3:TrackPointExtension>
            <ns3:atemp>32.0</ns3:atemp>
          </ns3:TrackPointExtension>
        </extensions>
      </trkpt>
      <trkpt lat="42.56370194256305694580078125" lon="19.83326255343854427337646484375">
        <ele>927</ele>
        <time>2026-06-18T13:41:12.000Z</time>
        <extensions>
          <ns3:TrackPointExtension>
            <ns3:atemp>32.0</ns3:atemp>
          </ns3:TrackPointExtension>
        </extensions>
      </trkpt>
      <trkpt lat="42.56369682960212230682373046875" lon="19.83325886540114879608154296875">
        <ele>927</ele>
        <time>2026-06-18T13:41:13.000Z</time>
        <extensions>
          <ns3:TrackPointExtension>
            <ns3:atemp>32.0</ns3:atemp>
          </ns3:TrackPointExtension>
        </extensions>
      </trkpt>
      <trkpt lat="42.56369129754602909088134765625" lon="19.83325014822185039520263671875">
        <ele>927</ele>
        <time>2026-06-18T13:41:14.000Z</time>
        <extensions>
          <ns3:TrackPointExtension>
            <ns3:atemp>32.0</ns3:atemp>
          </ns3:TrackPointExtension>
        </extensions>
      </trkpt>
      <trkpt lat="42.56369146518409252166748046875" lon="19.833231456577777862548828125">
        <ele>926.79998779296875</ele>
        <time>2026-06-18T13:41:15.000Z</time>
        <extensions>
          <ns3:TrackPointExtension>
            <ns3:atemp>32.0</ns3:atemp>
          </ns3:TrackPointExtension>
        </extensions>
      </trkpt>
      <trkpt lat="42.56368459202349185943603515625" lon="19.8332279361784458160400390625">
        <ele>926.5999755859375</ele>
        <time>2026-06-18T13:41:16.000Z</time>
        <extensions>
          <ns3:TrackPointExtension>
            <ns3:atemp>32.0</ns3:atemp>
          </ns3:TrackPointExtension>
        </extensions>
      </trkpt>
      <trkpt lat="42.5636784732341766357421875" lon="19.8332257568836212158203125">
        <ele>926.5999755859375</ele>
        <time>2026-06-18T13:41:17.000Z</time>
        <extensions>
          <ns3:TrackPointExtension>
            <ns3:atemp>32.0</ns3:atemp>
          </ns3:TrackPointExtension>
        </extensions>
      </trkpt>
      <trkpt lat="42.56367134861648082733154296875" lon="19.8332312889397144317626953125">
        <ele>926.4000244140625</ele>
        <time>2026-06-18T13:41:18.000Z</time>
        <extensions>
          <ns3:TrackPointExtension>
            <ns3:atemp>32.0</ns3:atemp>
          </ns3:TrackPointExtension>
        </extensions>
      </trkpt>
      <trkpt lat="42.563674449920654296875" lon="19.83321863226592540740966796875">
        <ele>926.4000244140625</ele>
        <time>2026-06-18T13:41:19.000Z</time>
        <extensions>
          <ns3:TrackPointExtension>
            <ns3:atemp>32.0</ns3:atemp>
          </ns3:TrackPointExtension>
        </extensions>
      </trkpt>
      <trkpt lat="42.56367470137774944305419921875" lon="19.83320170082151889801025390625">
        <ele>926.5999755859375</ele>
        <time>2026-06-18T13:41:20.000Z</time>
        <extensions>
          <ns3:TrackPointExtension>
            <ns3:atemp>32.0</ns3:atemp>
          </ns3:TrackPointExtension>
        </extensions>
      </trkpt>
      <trkpt lat="42.56367755122482776641845703125" lon="19.83317655511200428009033203125">
        <ele>926.5999755859375</ele>
        <time>2026-06-18T13:41:21.000Z</time>
        <extensions>
          <ns3:TrackPointExtension>
            <ns3:atemp>32.0</ns3:atemp>
          </ns3:TrackPointExtension>
        </extensions>
      </trkpt>
      <trkpt lat="42.5636809878051280975341796875" lon="19.8331726156175136566162109375">
        <ele>926.79998779296875</ele>
        <time>2026-06-18T13:41:22.000Z</time>
        <extensions>
          <ns3:TrackPointExtension>
            <ns3:atemp>32.0</ns3:atemp>
          </ns3:TrackPointExtension>
        </extensions>
      </trkpt>
      <trkpt lat="42.563670091331005096435546875" lon="19.83317420817911624908447265625">
        <ele>926.79998779296875</ele>
        <time>2026-06-18T13:41:23.000Z</time>
        <extensions>
          <ns3:TrackPointExtension>
            <ns3:atemp>32.0</ns3:atemp>
          </ns3:TrackPointExtension>
        </extensions>
      </trkpt>
      <trkpt lat="42.5636558420956134796142578125" lon="19.8331801593303680419921875">
        <ele>927</ele>
        <time>2026-06-18T13:41:24.000Z</time>
        <extensions>
          <ns3:TrackPointExtension>
            <ns3:atemp>32.0</ns3:atemp>
          </ns3:TrackPointExtension>
        </extensions>
      </trkpt>
      <trkpt lat="42.5636488012969493865966796875" lon="19.833181165158748626708984375">
        <ele>927</ele>
        <time>2026-06-18T13:41:25.000Z</time>
        <extensions>
          <ns3:TrackPointExtension>
            <ns3:atemp>31.0</ns3:atemp>
          </ns3:TrackPointExtension>
        </extensions>
      </trkpt>
      <trkpt lat="42.56364771164953708648681640625" lon="19.83317077159881591796875">
        <ele>927</ele>
        <time>2026-06-18T13:41:26.000Z</time>
        <extensions>
          <ns3:TrackPointExtension>
            <ns3:atemp>31.0</ns3:atemp>
          </ns3:TrackPointExtension>
        </extensions>
      </trkpt>
      <trkpt lat="42.56363530643284320831298828125" lon="19.83316716738045215606689453125">
        <ele>927</ele>
        <time>2026-06-18T13:41:27.000Z</time>
        <extensions>
          <ns3:TrackPointExtension>
            <ns3:atemp>31.0</ns3:atemp>
          </ns3:TrackPointExtension>
        </extensions>
      </trkpt>
      <trkpt lat="42.563633210957050323486328125" lon="19.83315895311534404754638671875">
        <ele>926.79998779296875</ele>
        <time>2026-06-18T13:41:28.000Z</time>
        <extensions>
          <ns3:TrackPointExtension>
            <ns3:atemp>31.0</ns3:atemp>
          </ns3:TrackPointExtension>
        </extensions>
      </trkpt>
      <trkpt lat="42.5636333785951137542724609375" lon="19.83315124176442623138427734375">
        <ele>926.79998779296875</ele>
        <time>2026-06-18T13:41:29.000Z</time>
        <extensions>
          <ns3:TrackPointExtension>
            <ns3:atemp>31.0</ns3:atemp>
          </ns3:TrackPointExtension>
        </extensions>
      </trkpt>
      <trkpt lat="42.56362893618643283843994140625" lon="19.8331439495086669921875">
        <ele>926.79998779296875</ele>
        <time>2026-06-18T13:41:30.000Z</time>
        <extensions>
          <ns3:TrackPointExtension>
            <ns3:atemp>31.0</ns3:atemp>
          </ns3:TrackPointExtension>
        </extensions>
      </trkpt>
      <trkpt lat="42.563626505434513092041015625" lon="19.83313347212970256805419921875">
        <ele>926.79998779296875</ele>
        <time>2026-06-18T13:41:31.000Z</time>
        <extensions>
          <ns3:TrackPointExtension>
            <ns3:atemp>31.0</ns3:atemp>
          </ns3:TrackPointExtension>
        </extensions>
      </trkpt>
      <trkpt lat="42.5636296905577182769775390625" lon="19.83312307856976985931396484375">
        <ele>926.79998779296875</ele>
        <time>2026-06-18T13:41:32.000Z</time>
        <extensions>
          <ns3:TrackPointExtension>
            <ns3:atemp>31.0</ns3:atemp>
          </ns3:TrackPointExtension>
        </extensions>
      </trkpt>
      <trkpt lat="42.56363756954669952392578125" lon="19.833112768828868865966796875">
        <ele>926.79998779296875</ele>
        <time>2026-06-18T13:41:33.000Z</time>
        <extensions>
          <ns3:TrackPointExtension>
            <ns3:atemp>31.0</ns3:atemp>
          </ns3:TrackPointExtension>
        </extensions>
      </trkpt>
      <trkpt lat="42.56363882683217525482177734375" lon="19.83309290371835231781005859375">
        <ele>927</ele>
        <time>2026-06-18T13:41:34.000Z</time>
        <extensions>
          <ns3:TrackPointExtension>
            <ns3:atemp>31.0</ns3:atemp>
          </ns3:TrackPointExtension>
        </extensions>
      </trkpt>
      <trkpt lat="42.5636330433189868927001953125" lon="19.83308024704456329345703125">
        <ele>927</ele>
        <time>2026-06-18T13:41:35.000Z</time>
        <extensions>
          <ns3:TrackPointExtension>
            <ns3:atemp>31.0</ns3:atemp>
          </ns3:TrackPointExtension>
        </extensions>
      </trkpt>
      <trkpt lat="42.56362818181514739990234375" lon="19.83306675218045711517333984375">
        <ele>927</ele>
        <time>2026-06-18T13:41:36.000Z</time>
        <extensions>
          <ns3:TrackPointExtension>
            <ns3:atemp>31.0</ns3:atemp>
          </ns3:TrackPointExtension>
        </extensions>
      </trkpt>
      <trkpt lat="42.5636328756809234619140625" lon="19.83304127119481563568115234375">
        <ele>926.79998779296875</ele>
        <time>2026-06-18T13:41:37.000Z</time>
        <extensions>
          <ns3:TrackPointExtension>
            <ns3:atemp>31.0</ns3:atemp>
          </ns3:TrackPointExtension>
        </extensions>
      </trkpt>
      <trkpt lat="42.56362290121614933013916015625" lon="19.83300983905792236328125">
        <ele>926.79998779296875</ele>
        <time>2026-06-18T13:41:38.000Z</time>
        <extensions>
          <ns3:TrackPointExtension>
            <ns3:atemp>31.0</ns3:atemp>
          </ns3:TrackPointExtension>
        </extensions>
      </trkpt>
      <trkpt lat="42.56360672414302825927734375" lon="19.83297706581652164459228515625">
        <ele>926.79998779296875</ele>
        <time>2026-06-18T13:41:39.000Z</time>
        <extensions>
          <ns3:TrackPointExtension>
            <ns3:atemp>31.0</ns3:atemp>
          </ns3:TrackPointExtension>
        </extensions>
      </trkpt>
      <trkpt lat="42.56359205581247806549072265625" lon="19.83294806443154811859130859375">
        <ele>926.79998779296875</ele>
        <time>2026-06-18T13:41:40.000Z</time>
        <extensions>
          <ns3:TrackPointExtension>
            <ns3:atemp>31.0</ns3:atemp>
          </ns3:TrackPointExtension>
        </extensions>
      </trkpt>
      <trkpt lat="42.56358099170029163360595703125" lon="19.832912944257259368896484375">
        <ele>927</ele>
        <time>2026-06-18T13:41:41.000Z</time>
        <extensions>
          <ns3:TrackPointExtension>
            <ns3:atemp>31.0</ns3:atemp>
          </ns3:TrackPointExtension>
        </extensions>
      </trkpt>
      <trkpt lat="42.563569843769073486328125" lon="19.83287639915943145751953125">
        <ele>927</ele>
        <time>2026-06-18T13:41:42.000Z</time>
        <extensions>
          <ns3:TrackPointExtension>
            <ns3:atemp>31.0</ns3:atemp>
          </ns3:TrackPointExtension>
        </extensions>
      </trkpt>
      <trkpt lat="42.56355215795338153839111328125" lon="19.83284555375576019287109375">
        <ele>926.79998779296875</ele>
        <time>2026-06-18T13:41:43.000Z</time>
        <extensions>
          <ns3:TrackPointExtension>
            <ns3:atemp>31.0</ns3:atemp>
          </ns3:TrackPointExtension>
        </extensions>
      </trkpt>
      <trkpt lat="42.56352433003485202789306640625" lon="19.83282317407429218292236328125">
        <ele>927</ele>
        <time>2026-06-18T13:41:44.000Z</time>
        <extensions>
          <ns3:TrackPointExtension>
            <ns3:atemp>31.0</ns3:atemp>
          </ns3:TrackPointExtension>
        </extensions>
      </trkpt>
      <trkpt lat="42.5634965859353542327880859375" lon="19.83280657790601253509521484375">
        <ele>927</ele>
        <time>2026-06-18T13:41:45.000Z</time>
        <extensions>
          <ns3:TrackPointExtension>
            <ns3:atemp>31.0</ns3:atemp>
          </ns3:TrackPointExtension>
        </extensions>
      </trkpt>
      <trkpt lat="42.56346582435071468353271484375" lon="19.83280708082020282745361328125">
        <ele>927</ele>
        <time>2026-06-18T13:41:46.000Z</time>
        <extensions>
          <ns3:TrackPointExtension>
            <ns3:atemp>31.0</ns3:atemp>
          </ns3:TrackPointExtension>
        </extensions>
      </trkpt>
      <trkpt lat="42.56343296729028224945068359375" lon="19.8328182287514209747314453125">
        <ele>927.20001220703125</ele>
        <time>2026-06-18T13:41:47.000Z</time>
        <extensions>
          <ns3:TrackPointExtension>
            <ns3:atemp>31.0</ns3:atemp>
          </ns3:TrackPointExtension>
        </extensions>
      </trkpt>
      <trkpt lat="42.56340145133435726165771484375" lon="19.83282753266394138336181640625">
        <ele>927.5999755859375</ele>
        <time>2026-06-18T13:41:48.000Z</time>
        <extensions>
          <ns3:TrackPointExtension>
            <ns3:atemp>31.0</ns3:atemp>
          </ns3:TrackPointExtension>
        </extensions>
      </trkpt>
      <trkpt lat="42.56336473859846591949462890625" lon="19.8328484036028385162353515625">
        <ele>927.79998779296875</ele>
        <time>2026-06-18T13:41:49.000Z</time>
        <extensions>
          <ns3:TrackPointExtension>
            <ns3:atemp>31.0</ns3:atemp>
          </ns3:TrackPointExtension>
        </extensions>
      </trkpt>
      <trkpt lat="42.56332777440547943115234375" lon="19.832853935658931732177734375">
        <ele>928</ele>
        <time>2026-06-18T13:41:50.000Z</time>
        <extensions>
          <ns3:TrackPointExtension>
            <ns3:atemp>31.0</ns3:atemp>
          </ns3:TrackPointExtension>
        </extensions>
      </trkpt>
      <trkpt lat="42.5632895529270172119140625" lon="19.8328594677150249481201171875">
        <ele>928.20001220703125</ele>
        <time>2026-06-18T13:41:51.000Z</time>
        <extensions>
          <ns3:TrackPointExtension>
            <ns3:atemp>31.0</ns3:atemp>
          </ns3:TrackPointExtension>
        </extensions>
      </trkpt>
      <trkpt lat="42.56325535476207733154296875" lon="19.83286173082888126373291015625">
        <ele>928.4000244140625</ele>
        <time>2026-06-18T13:41:52.000Z</time>
        <extensions>
          <ns3:TrackPointExtension>
            <ns3:atemp>31.0</ns3:atemp>
          </ns3:TrackPointExtension>
        </extensions>
      </trkpt>
      <trkpt lat="42.56321512162685394287109375" lon="19.8328752256929874420166015625">
        <ele>928.4000244140625</ele>
        <time>2026-06-18T13:41:53.000Z</time>
        <extensions>
          <ns3:TrackPointExtension>
            <ns3:atemp>31.0</ns3:atemp>
          </ns3:TrackPointExtension>
        </extensions>
      </trkpt>
      <trkpt lat="42.5631750561296939849853515625" lon="19.83288302086293697357177734375">
        <ele>928.4000244140625</ele>
        <time>2026-06-18T13:41:54.000Z</time>
        <extensions>
          <ns3:TrackPointExtension>
            <ns3:atemp>31.0</ns3:atemp>
          </ns3:TrackPointExtension>
        </extensions>
      </trkpt>
      <trkpt lat="42.56314010359346866607666015625" lon="19.8328960128128528594970703125">
        <ele>928.4000244140625</ele>
        <time>2026-06-18T13:41:55.000Z</time>
        <extensions>
          <ns3:TrackPointExtension>
            <ns3:atemp>31.0</ns3:atemp>
          </ns3:TrackPointExtension>
        </extensions>
      </trkpt>
      <trkpt lat="42.56309702061116695404052734375" lon="19.8328976891934871673583984375">
        <ele>928.5999755859375</ele>
        <time>2026-06-18T13:41:56.000Z</time>
        <extensions>
          <ns3:TrackPointExtension>
            <ns3:atemp>31.0</ns3:atemp>
          </ns3:TrackPointExtension>
        </extensions>
      </trkpt>
      <trkpt lat="42.56305544637143611907958984375" lon="19.83290481381118297576904296875">
        <ele>928.5999755859375</ele>
        <time>2026-06-18T13:41:57.000Z</time>
        <extensions>
          <ns3:TrackPointExtension>
            <ns3:atemp>31.0</ns3:atemp>
          </ns3:TrackPointExtension>
        </extensions>
      </trkpt>
      <trkpt lat="42.56301756016910076141357421875" lon="19.832914955914020538330078125">
        <ele>928.5999755859375</ele>
        <time>2026-06-18T13:41:58.000Z</time>
        <extensions>
          <ns3:TrackPointExtension>
            <ns3:atemp>31.0</ns3:atemp>
          </ns3:TrackPointExtension>
        </extensions>
      </trkpt>
      <trkpt lat="42.56297782994806766510009765625" lon="19.83292912133038043975830078125">
        <ele>928.4000244140625</ele>
        <time>2026-06-18T13:41:59.000Z</time>
        <extensions>
          <ns3:TrackPointExtension>
            <ns3:atemp>31.0</ns3:atemp>
          </ns3:TrackPointExtension>
        </extensions>
      </trkpt>
      <trkpt lat="42.562939859926700592041015625" lon="19.832942448556423187255859375">
        <ele>928.20001220703125</ele>
        <time>2026-06-18T13:42:00.000Z</time>
        <extensions>
          <ns3:TrackPointExtension>
            <ns3:atemp>31.0</ns3:atemp>
          </ns3:TrackPointExtension>
        </extensions>
      </trkpt>
      <trkpt lat="42.56290473975241184234619140625" lon="19.8329543508589267730712890625">
        <ele>928.20001220703125</ele>
        <time>2026-06-18T13:42:01.000Z</time>
        <extensions>
          <ns3:TrackPointExtension>
            <ns3:atemp>31.0</ns3:atemp>
          </ns3:TrackPointExtension>
        </extensions>
      </trkpt>
      <trkpt lat="42.56286970339715480804443359375" lon="19.83296717517077922821044921875">
        <ele>928.20001220703125</ele>
        <time>2026-06-18T13:42:02.000Z</time>
        <extensions>
          <ns3:TrackPointExtension>
            <ns3:atemp>31.0</ns3:atemp>
          </ns3:TrackPointExtension>
        </extensions>
      </trkpt>
      <trkpt lat="42.56282913498580455780029296875" lon="19.83297840692102909088134765625">
        <ele>928</ele>
        <time>2026-06-18T13:42:03.000Z</time>
        <extensions>
          <ns3:TrackPointExtension>
            <ns3:atemp>31.0</ns3:atemp>
          </ns3:TrackPointExtension>
        </extensions>
      </trkpt>
      <trkpt lat="42.56278554908931255340576171875" lon="19.83299466781318187713623046875">
        <ele>928</ele>
        <time>2026-06-18T13:42:04.000Z</time>
        <extensions>
          <ns3:TrackPointExtension>
            <ns3:atemp>30.0</ns3:atemp>
          </ns3:TrackPointExtension>
        </extensions>
      </trkpt>
      <trkpt lat="42.562743723392486572265625" lon="19.833012856543064117431640625">
        <ele>928</ele>
        <time>2026-06-18T13:42:05.000Z</time>
        <extensions>
          <ns3:TrackPointExtension>
            <ns3:atemp>30.0</ns3:atemp>
          </ns3:TrackPointExtension>
        </extensions>
      </trkpt>
      <trkpt lat="42.56270072422921657562255859375" lon="19.83303003944456577301025390625">
        <ele>928</ele>
        <time>2026-06-18T13:42:06.000Z</time>
        <extensions>
          <ns3:TrackPointExtension>
            <ns3:atemp>30.0</ns3:atemp>
          </ns3:TrackPointExtension>
        </extensions>
      </trkpt>
      <trkpt lat="42.5626600719988346099853515625" lon="19.83304579742252826690673828125">
        <ele>927.79998779296875</ele>
        <time>2026-06-18T13:42:07.000Z</time>
        <extensions>
          <ns3:TrackPointExtension>
            <ns3:atemp>30.0</ns3:atemp>
          </ns3:TrackPointExtension>
        </extensions>
      </trkpt>
      <trkpt lat="42.56261992268264293670654296875" lon="19.8330621421337127685546875">
        <ele>928</ele>
        <time>2026-06-18T13:42:08.000Z</time>
        <extensions>
          <ns3:TrackPointExtension>
            <ns3:atemp>30.0</ns3:atemp>
          </ns3:TrackPointExtension>
        </extensions>
      </trkpt>
      <trkpt lat="42.56257918663322925567626953125" lon="19.83307647518813610076904296875">
        <ele>928</ele>
        <time>2026-06-18T13:42:09.000Z</time>
        <extensions>
          <ns3:TrackPointExtension>
            <ns3:atemp>30.0</ns3:atemp>
          </ns3:TrackPointExtension>
        </extensions>
      </trkpt>
      <trkpt lat="42.56253660656511783599853515625" lon="19.8330864496529102325439453125">
        <ele>928</ele>
        <time>2026-06-18T13:42:10.000Z</time>
        <extensions>
          <ns3:TrackPointExtension>
            <ns3:atemp>30.0</ns3:atemp>
          </ns3:TrackPointExtension>
        </extensions>
      </trkpt>
      <trkpt lat="42.56249360740184783935546875" lon="19.83309692703187465667724609375">
        <ele>928</ele>
        <time>2026-06-18T13:42:11.000Z</time>
        <extensions>
          <ns3:TrackPointExtension>
            <ns3:atemp>30.0</ns3:atemp>
          </ns3:TrackPointExtension>
        </extensions>
      </trkpt>
      <trkpt lat="42.56245278753340244293212890625" lon="19.83311570249497890472412109375">
        <ele>928</ele>
        <time>2026-06-18T13:42:12.000Z</time>
        <extensions>
          <ns3:TrackPointExtension>
            <ns3:atemp>30.0</ns3:atemp>
          </ns3:TrackPointExtension>
        </extensions>
      </trkpt>
      <trkpt lat="42.5624059326946735382080078125" lon="19.83312944881618022918701171875">
        <ele>928</ele>
        <time>2026-06-18T13:42:13.000Z</time>
        <extensions>
          <ns3:TrackPointExtension>
            <ns3:atemp>30.0</ns3:atemp>
          </ns3:TrackPointExtension>
        </extensions>
      </trkpt>
      <trkpt lat="42.562355138361454010009765625" lon="19.83314462006092071533203125">
        <ele>927.79998779296875</ele>
        <time>2026-06-18T13:42:14.000Z</time>
        <extensions>
          <ns3:TrackPointExtension>
            <ns3:atemp>30.0</ns3:atemp>
          </ns3:TrackPointExtension>
        </extensions>
      </trkpt>
      <trkpt lat="42.56230543367564678192138671875" lon="19.83315157704055309295654296875">
        <ele>927.79998779296875</ele>
        <time>2026-06-18T13:42:15.000Z</time>
        <extensions>
          <ns3:TrackPointExtension>
            <ns3:atemp>30.0</ns3:atemp>
          </ns3:TrackPointExtension>
        </extensions>
      </trkpt>
      <trkpt lat="42.56225815974175930023193359375" lon="19.8331669159233570098876953125">
        <ele>927.79998779296875</ele>
        <time>2026-06-18T13:42:16.000Z</time>
        <extensions>
          <ns3:TrackPointExtension>
            <ns3:atemp>30.0</ns3:atemp>
          </ns3:TrackPointExtension>
        </extensions>
      </trkpt>
      <trkpt lat="42.562213651835918426513671875" lon="19.83317890204489231109619140625">
        <ele>927.79998779296875</ele>
        <time>2026-06-18T13:42:17.000Z</time>
        <extensions>
          <ns3:TrackPointExtension>
            <ns3:atemp>30.0</ns3:atemp>
          </ns3:TrackPointExtension>
        </extensions>
      </trkpt>
      <trkpt lat="42.56217216141521930694580078125" lon="19.83319918625056743621826171875">
        <ele>927.79998779296875</ele>
        <time>2026-06-18T13:42:18.000Z</time>
        <extensions>
          <ns3:TrackPointExtension>
            <ns3:atemp>30.0</ns3:atemp>
          </ns3:TrackPointExtension>
        </extensions>
      </trkpt>
      <trkpt lat="42.5621293298900127410888671875" lon="19.83321008272469043731689453125">
        <ele>928</ele>
        <time>2026-06-18T13:42:19.000Z</time>
        <extensions>
          <ns3:TrackPointExtension>
            <ns3:atemp>30.0</ns3:atemp>
          </ns3:TrackPointExtension>
        </extensions>
      </trkpt>
      <trkpt lat="42.562083564698696136474609375" lon="19.83321745879948139190673828125">
        <ele>928.20001220703125</ele>
        <time>2026-06-18T13:42:20.000Z</time>
        <extensions>
          <ns3:TrackPointExtension>
            <ns3:atemp>30.0</ns3:atemp>
          </ns3:TrackPointExtension>
        </extensions>
      </trkpt>
      <trkpt lat="42.56203972734510898590087890625" lon="19.83323606662452220916748046875">
        <ele>928.20001220703125</ele>
        <time>2026-06-18T13:42:21.000Z</time>
        <extensions>
          <ns3:TrackPointExtension>
            <ns3:atemp>30.0</ns3:atemp>
          </ns3:TrackPointExtension>
        </extensions>
      </trkpt>
      <trkpt lat="42.561996392905712127685546875" lon="19.833253584802150726318359375">
        <ele>928.4000244140625</ele>
        <time>2026-06-18T13:42:22.000Z</time>
        <extensions>
          <ns3:TrackPointExtension>
            <ns3:atemp>30.0</ns3:atemp>
          </ns3:TrackPointExtension>
        </extensions>
      </trkpt>
      <trkpt lat="42.56195247173309326171875" lon="19.83326691202819347381591796875">
        <ele>928.5999755859375</ele>
        <time>2026-06-18T13:42:23.000Z</time>
        <extensions>
          <ns3:TrackPointExtension>
            <ns3:atemp>30.0</ns3:atemp>
          </ns3:TrackPointExtension>
        </extensions>
      </trkpt>
      <trkpt lat="42.56190846674144268035888671875" lon="19.833281077444553375244140625">
        <ele>928.5999755859375</ele>
        <time>2026-06-18T13:42:24.000Z</time>
        <extensions>
          <ns3:TrackPointExtension>
            <ns3:atemp>30.0</ns3:atemp>
          </ns3:TrackPointExtension>
        </extensions>
      </trkpt>
      <trkpt lat="42.5618674792349338531494140625" lon="19.83329473994672298431396484375">
        <ele>928.79998779296875</ele>
        <time>2026-06-18T13:42:25.000Z</time>
        <extensions>
          <ns3:TrackPointExtension>
            <ns3:atemp>30.0</ns3:atemp>
          </ns3:TrackPointExtension>
        </extensions>
      </trkpt>
      <trkpt lat="42.56182707846164703369140625" lon="19.83330965973436832427978515625">
        <ele>928.79998779296875</ele>
        <time>2026-06-18T13:42:26.000Z</time>
        <extensions>
          <ns3:TrackPointExtension>
            <ns3:atemp>30.0</ns3:atemp>
          </ns3:TrackPointExtension>
        </extensions>
      </trkpt>
      <trkpt lat="42.56178307346999645233154296875" lon="19.83332407660782337188720703125">
        <ele>928.79998779296875</ele>
        <time>2026-06-18T13:42:27.000Z</time>
        <extensions>
          <ns3:TrackPointExtension>
            <ns3:atemp>30.0</ns3:atemp>
          </ns3:TrackPointExtension>
        </extensions>
      </trkpt>
      <trkpt lat="42.5617407448589801788330078125" lon="19.83333312906324863433837890625">
        <ele>929</ele>
        <time>2026-06-18T13:42:28.000Z</time>
        <extensions>
          <ns3:TrackPointExtension>
            <ns3:atemp>30.0</ns3:atemp>
          </ns3:TrackPointExtension>
        </extensions>
      </trkpt>
      <trkpt lat="42.56169288419187068939208984375" lon="19.83333983458578586578369140625">
        <ele>929</ele>
        <time>2026-06-18T13:42:29.000Z</time>
        <extensions>
          <ns3:TrackPointExtension>
            <ns3:atemp>30.0</ns3:atemp>
          </ns3:TrackPointExtension>
        </extensions>
      </trkpt>
      <trkpt lat="42.56164929829537868499755859375" lon="19.83334871940314769744873046875">
        <ele>929</ele>
        <time>2026-06-18T13:42:30.000Z</time>
        <extensions>
          <ns3:TrackPointExtension>
            <ns3:atemp>30.0</ns3:atemp>
          </ns3:TrackPointExtension>
        </extensions>
      </trkpt>
      <trkpt lat="42.5616083107888698577880859375" lon="19.8333607055246829986572265625">
        <ele>929.20001220703125</ele>
        <time>2026-06-18T13:42:31.000Z</time>
        <extensions>
          <ns3:TrackPointExtension>
            <ns3:atemp>30.0</ns3:atemp>
          </ns3:TrackPointExtension>
        </extensions>
      </trkpt>
      <trkpt lat="42.56156799383461475372314453125" lon="19.833371601998805999755859375">
        <ele>929.20001220703125</ele>
        <time>2026-06-18T13:42:32.000Z</time>
        <extensions>
          <ns3:TrackPointExtension>
            <ns3:atemp>30.0</ns3:atemp>
          </ns3:TrackPointExtension>
        </extensions>
      </trkpt>
      <trkpt lat="42.56152591668069362640380859375" lon="19.8333840072154998779296875">
        <ele>929.20001220703125</ele>
        <time>2026-06-18T13:42:33.000Z</time>
        <extensions>
          <ns3:TrackPointExtension>
            <ns3:atemp>30.0</ns3:atemp>
          </ns3:TrackPointExtension>
        </extensions>
      </trkpt>
      <trkpt lat="42.56148518063127994537353515625" lon="19.8333969153463840484619140625">
        <ele>929</ele>
        <time>2026-06-18T13:42:34.000Z</time>
        <extensions>
          <ns3:TrackPointExtension>
            <ns3:atemp>30.0</ns3:atemp>
          </ns3:TrackPointExtension>
        </extensions>
      </trkpt>
      <trkpt lat="42.56144176237285137176513671875" lon="19.833406470715999603271484375">
        <ele>929</ele>
        <time>2026-06-18T13:42:35.000Z</time>
        <extensions>
          <ns3:TrackPointExtension>
            <ns3:atemp>30.0</ns3:atemp>
          </ns3:TrackPointExtension>
        </extensions>
      </trkpt>
      <trkpt lat="42.56139918230473995208740234375" lon="19.83342130668461322784423828125">
        <ele>929</ele>
        <time>2026-06-18T13:42:36.000Z</time>
        <extensions>
          <ns3:TrackPointExtension>
            <ns3:atemp>30.0</ns3:atemp>
          </ns3:TrackPointExtension>
        </extensions>
      </trkpt>
      <trkpt lat="42.5613571889698505401611328125" lon="19.8334391601383686065673828125">
        <ele>929</ele>
        <time>2026-06-18T13:42:37.000Z</time>
        <extensions>
          <ns3:TrackPointExtension>
            <ns3:atemp>30.0</ns3:atemp>
          </ns3:TrackPointExtension>
        </extensions>
      </trkpt>
      <trkpt lat="42.56131368689239025115966796875" lon="19.83345868997275829315185546875">
        <ele>928.79998779296875</ele>
        <time>2026-06-18T13:42:38.000Z</time>
        <extensions>
          <ns3:TrackPointExtension>
            <ns3:atemp>30.0</ns3:atemp>
          </ns3:TrackPointExtension>
        </extensions>
      </trkpt>
      <trkpt lat="42.561272867023944854736328125" lon="19.8334767110645771026611328125">
        <ele>928.79998779296875</ele>
        <time>2026-06-18T13:42:39.000Z</time>
        <extensions>
          <ns3:TrackPointExtension>
            <ns3:atemp>30.0</ns3:atemp>
          </ns3:TrackPointExtension>
        </extensions>
      </trkpt>
      <trkpt lat="42.5612296164035797119140625" lon="19.8334944806993007659912109375">
        <ele>928.79998779296875</ele>
        <time>2026-06-18T13:42:40.000Z</time>
        <extensions>
          <ns3:TrackPointExtension>
            <ns3:atemp>30.0</ns3:atemp>
          </ns3:TrackPointExtension>
        </extensions>
      </trkpt>
      <trkpt lat="42.56118896417319774627685546875" lon="19.833517782390117645263671875">
        <ele>928.79998779296875</ele>
        <time>2026-06-18T13:42:41.000Z</time>
        <extensions>
          <ns3:TrackPointExtension>
            <ns3:atemp>30.0</ns3:atemp>
          </ns3:TrackPointExtension>
        </extensions>
      </trkpt>
      <trkpt lat="42.56114990450441837310791015625" lon="19.83354284428060054779052734375">
        <ele>928.79998779296875</ele>
        <time>2026-06-18T13:42:42.000Z</time>
        <extensions>
          <ns3:TrackPointExtension>
            <ns3:atemp>30.0</ns3:atemp>
          </ns3:TrackPointExtension>
        </extensions>
      </trkpt>
      <trkpt lat="42.561109252274036407470703125" lon="19.8335645534098148345947265625">
        <ele>928.5999755859375</ele>
        <time>2026-06-18T13:42:43.000Z</time>
        <extensions>
          <ns3:TrackPointExtension>
            <ns3:atemp>30.0</ns3:atemp>
          </ns3:TrackPointExtension>
        </extensions>
      </trkpt>
      <trkpt lat="42.56107245571911334991455078125" lon="19.83358827419579029083251953125">
        <ele>928.5999755859375</ele>
        <time>2026-06-18T13:42:44.000Z</time>
        <extensions>
          <ns3:TrackPointExtension>
            <ns3:atemp>30.0</ns3:atemp>
          </ns3:TrackPointExtension>
        </extensions>
      </trkpt>
      <trkpt lat="42.56103674881160259246826171875" lon="19.83361073769629001617431640625">
        <ele>928.4000244140625</ele>
        <time>2026-06-18T13:42:45.000Z</time>
        <extensions>
          <ns3:TrackPointExtension>
            <ns3:atemp>30.0</ns3:atemp>
          </ns3:TrackPointExtension>
        </extensions>
      </trkpt>
      <trkpt lat="42.56099903024733066558837890625" lon="19.83362666331231594085693359375">
        <ele>928.4000244140625</ele>
        <time>2026-06-18T13:42:46.000Z</time>
        <extensions>
          <ns3:TrackPointExtension>
            <ns3:atemp>30.0</ns3:atemp>
          </ns3:TrackPointExtension>
        </extensions>
      </trkpt>
      <trkpt lat="42.56096047349274158477783203125" lon="19.83363940380513668060302734375">
        <ele>928.20001220703125</ele>
        <time>2026-06-18T13:42:47.000Z</time>
        <extensions>
          <ns3:TrackPointExtension>
            <ns3:atemp>30.0</ns3:atemp>
          </ns3:TrackPointExtension>
        </extensions>
      </trkpt>
      <trkpt lat="42.56092325784265995025634765625" lon="19.83365214429795742034912109375">
        <ele>928.20001220703125</ele>
        <time>2026-06-18T13:42:48.000Z</time>
        <extensions>
          <ns3:TrackPointExtension>
            <ns3:atemp>30.0</ns3:atemp>
          </ns3:TrackPointExtension>
        </extensions>
      </trkpt>
      <trkpt lat="42.56088503636419773101806640625" lon="19.83366941101849079132080078125">
        <ele>928.20001220703125</ele>
        <time>2026-06-18T13:42:49.000Z</time>
        <extensions>
          <ns3:TrackPointExtension>
            <ns3:atemp>30.0</ns3:atemp>
          </ns3:TrackPointExtension>
        </extensions>
      </trkpt>
      <trkpt lat="42.5608482398092746734619140625" lon="19.8336932994425296783447265625">
        <ele>928.20001220703125</ele>
        <time>2026-06-18T13:42:50.000Z</time>
        <extensions>
          <ns3:TrackPointExtension>
            <ns3:atemp>30.0</ns3:atemp>
          </ns3:TrackPointExtension>
        </extensions>
      </trkpt>
      <trkpt lat="42.56081194616854190826416015625" lon="19.83371836133301258087158203125">
        <ele>928.20001220703125</ele>
        <time>2026-06-18T13:42:51.000Z</time>
        <extensions>
          <ns3:TrackPointExtension>
            <ns3:atemp>30.0</ns3:atemp>
          </ns3:TrackPointExtension>
        </extensions>
      </trkpt>
      <trkpt lat="42.560773976147174835205078125" lon="19.83374149538576602935791015625">
        <ele>928.20001220703125</ele>
        <time>2026-06-18T13:42:52.000Z</time>
        <extensions>
          <ns3:TrackPointExtension>
            <ns3:atemp>30.0</ns3:atemp>
          </ns3:TrackPointExtension>
        </extensions>
      </trkpt>
      <trkpt lat="42.56073416210711002349853515625" lon="19.83376194722950458526611328125">
        <ele>928.20001220703125</ele>
        <time>2026-06-18T13:42:53.000Z</time>
        <extensions>
          <ns3:TrackPointExtension>
            <ns3:atemp>30.0</ns3:atemp>
          </ns3:TrackPointExtension>
        </extensions>
      </trkpt>
      <trkpt lat="42.560691498219966888427734375" lon="19.83378474600613117218017578125">
        <ele>928</ele>
        <time>2026-06-18T13:42:54.000Z</time>
        <extensions>
          <ns3:TrackPointExtension>
            <ns3:atemp>30.0</ns3:atemp>
          </ns3:TrackPointExtension>
        </extensions>
      </trkpt>
      <trkpt lat="42.56065017543733119964599609375" lon="19.8338076286017894744873046875">
        <ele>928</ele>
        <time>2026-06-18T13:42:55.000Z</time>
        <extensions>
          <ns3:TrackPointExtension>
            <ns3:atemp>30.0</ns3:atemp>
          </ns3:TrackPointExtension>
        </extensions>
      </trkpt>
      <trkpt lat="42.5606091879308223724365234375" lon="19.8338319361209869384765625">
        <ele>928</ele>
        <time>2026-06-18T13:42:56.000Z</time>
        <extensions>
          <ns3:TrackPointExtension>
            <ns3:atemp>30.0</ns3:atemp>
          </ns3:TrackPointExtension>
        </extensions>
      </trkpt>
      <trkpt lat="42.5605671107769012451171875" lon="19.83385481871664524078369140625">
        <ele>928</ele>
        <time>2026-06-18T13:42:57.000Z</time>
        <extensions>
          <ns3:TrackPointExtension>
            <ns3:atemp>30.0</ns3:atemp>
          </ns3:TrackPointExtension>
        </extensions>
      </trkpt>
      <trkpt lat="42.5605257041752338409423828125" lon="19.833879210054874420166015625">
        <ele>928</ele>
        <time>2026-06-18T13:42:58.000Z</time>
        <extensions>
          <ns3:TrackPointExtension>
            <ns3:atemp>30.0</ns3:atemp>
          </ns3:TrackPointExtension>
        </extensions>
      </trkpt>
      <trkpt lat="42.5604884885251522064208984375" lon="19.83391097746789455413818359375">
        <ele>928</ele>
        <time>2026-06-18T13:42:59.000Z</time>
        <extensions>
          <ns3:TrackPointExtension>
            <ns3:atemp>30.0</ns3:atemp>
          </ns3:TrackPointExtension>
        </extensions>
      </trkpt>
      <trkpt lat="42.5604512728750705718994140625" lon="19.8339370451867580413818359375">
        <ele>928</ele>
        <time>2026-06-18T13:43:00.000Z</time>
        <extensions>
          <ns3:TrackPointExtension>
            <ns3:atemp>30.0</ns3:atemp>
          </ns3:TrackPointExtension>
        </extensions>
      </trkpt>
      <trkpt lat="42.5604140572249889373779296875" lon="19.8339702375233173370361328125">
        <ele>927.79998779296875</ele>
        <time>2026-06-18T13:43:01.000Z</time>
        <extensions>
          <ns3:TrackPointExtension>
            <ns3:atemp>30.0</ns3:atemp>
          </ns3:TrackPointExtension>
        </extensions>
      </trkpt>
      <trkpt lat="42.56037868559360504150390625" lon="19.834005273878574371337890625">
        <ele>927.5999755859375</ele>
        <time>2026-06-18T13:43:02.000Z</time>
        <extensions>
          <ns3:TrackPointExtension>
            <ns3:atemp>30.0</ns3:atemp>
          </ns3:TrackPointExtension>
        </extensions>
      </trkpt>
      <trkpt lat="42.5603463314473628997802734375" lon="19.83404408209025859832763671875">
        <ele>927.5999755859375</ele>
        <time>2026-06-18T13:43:03.000Z</time>
        <extensions>
          <ns3:TrackPointExtension>
            <ns3:atemp>30.0</ns3:atemp>
          </ns3:TrackPointExtension>
        </extensions>
      </trkpt>
      <trkpt lat="42.56031624041497707366943359375" lon="19.83408850617706775665283203125">
        <ele>927.5999755859375</ele>
        <time>2026-06-18T13:43:04.000Z</time>
        <extensions>
          <ns3:TrackPointExtension>
            <ns3:atemp>30.0</ns3:atemp>
          </ns3:TrackPointExtension>
        </extensions>
      </trkpt>
      <trkpt lat="42.56028975360095500946044921875" lon="19.8341375403106212615966796875">
        <ele>927.4000244140625</ele>
        <time>2026-06-18T13:43:05.000Z</time>
        <extensions>
          <ns3:TrackPointExtension>
            <ns3:atemp>30.0</ns3:atemp>
          </ns3:TrackPointExtension>
        </extensions>
      </trkpt>
      <trkpt lat="42.5602625124156475067138671875" lon="19.83418372459709644317626953125">
        <ele>927.4000244140625</ele>
        <time>2026-06-18T13:43:06.000Z</time>
        <extensions>
          <ns3:TrackPointExtension>
            <ns3:atemp>30.0</ns3:atemp>
          </ns3:TrackPointExtension>
        </extensions>
      </trkpt>
      <trkpt lat="42.56023225374519824981689453125" lon="19.8342354409396648406982421875">
        <ele>927.4000244140625</ele>
        <time>2026-06-18T13:43:07.000Z</time>
        <extensions>
          <ns3:TrackPointExtension>
            <ns3:atemp>30.0</ns3:atemp>
          </ns3:TrackPointExtension>
        </extensions>
      </trkpt>
      <trkpt lat="42.56020392291247844696044921875" lon="19.83428330160677433013916015625">
        <ele>927.20001220703125</ele>
        <time>2026-06-18T13:43:08.000Z</time>
        <extensions>
          <ns3:TrackPointExtension>
            <ns3:atemp>30.0</ns3:atemp>
          </ns3:TrackPointExtension>
        </extensions>
      </trkpt>
      <trkpt lat="42.56017391569912433624267578125" lon="19.83433577232062816619873046875">
        <ele>927.20001220703125</ele>
        <time>2026-06-18T13:43:09.000Z</time>
        <extensions>
          <ns3:TrackPointExtension>
            <ns3:atemp>30.0</ns3:atemp>
          </ns3:TrackPointExtension>
        </extensions>
      </trkpt>
      <trkpt lat="42.560142986476421356201171875" lon="19.83438757248222827911376953125">
        <ele>927.20001220703125</ele>
        <time>2026-06-18T13:43:10.000Z</time>
        <extensions>
          <ns3:TrackPointExtension>
            <ns3:atemp>30.0</ns3:atemp>
          </ns3:TrackPointExtension>
        </extensions>
      </trkpt>
      <trkpt lat="42.5601116381585597991943359375" lon="19.83443970791995525360107421875">
        <ele>927</ele>
        <time>2026-06-18T13:43:11.000Z</time>
        <extensions>
          <ns3:TrackPointExtension>
            <ns3:atemp>30.0</ns3:atemp>
          </ns3:TrackPointExtension>
        </extensions>
      </trkpt>
      <trkpt lat="42.56007693707942962646484375" lon="19.8344932682812213897705078125">
        <ele>927</ele>
        <time>2026-06-18T13:43:12.000Z</time>
        <extensions>
          <ns3:TrackPointExtension>
            <ns3:atemp>30.0</ns3:atemp>
          </ns3:TrackPointExtension>
        </extensions>
      </trkpt>
      <trkpt lat="42.5600425712764263153076171875" lon="19.8345462419092655181884765625">
        <ele>926.79998779296875</ele>
        <time>2026-06-18T13:43:13.000Z</time>
        <extensions>
          <ns3:TrackPointExtension>
            <ns3:atemp>30.0</ns3:atemp>
          </ns3:TrackPointExtension>
        </extensions>
      </trkpt>
      <trkpt lat="42.56000661291182041168212890625" lon="19.83459829352796077728271484375">
        <ele>926.5999755859375</ele>
        <time>2026-06-18T13:43:14.000Z</time>
        <extensions>
          <ns3:TrackPointExtension>
            <ns3:atemp>30.0</ns3:atemp>
          </ns3:TrackPointExtension>
        </extensions>
      </trkpt>
      <trkpt lat="42.55997207947075366973876953125" lon="19.83465478755533695220947265625">
        <ele>926.4000244140625</ele>
        <time>2026-06-18T13:43:15.000Z</time>
        <extensions>
          <ns3:TrackPointExtension>
            <ns3:atemp>30.0</ns3:atemp>
          </ns3:TrackPointExtension>
        </extensions>
      </trkpt>
      <trkpt lat="42.5599389709532260894775390625" lon="19.8347158916294574737548828125">
        <ele>926.20001220703125</ele>
        <time>2026-06-18T13:43:16.000Z</time>
        <extensions>
          <ns3:TrackPointExtension>
            <ns3:atemp>30.0</ns3:atemp>
          </ns3:TrackPointExtension>
        </extensions>
      </trkpt>
      <trkpt lat="42.55990670062601566314697265625" lon="19.8347749002277851104736328125">
        <ele>926.20001220703125</ele>
        <time>2026-06-18T13:43:17.000Z</time>
        <extensions>
          <ns3:TrackPointExtension>
            <ns3:atemp>30.0</ns3:atemp>
          </ns3:TrackPointExtension>
        </extensions>
      </trkpt>
      <trkpt lat="42.55987183190882205963134765625" lon="19.8348332382738590240478515625">
        <ele>926.20001220703125</ele>
        <time>2026-06-18T13:43:18.000Z</time>
        <extensions>
          <ns3:TrackPointExtension>
            <ns3:atemp>30.0</ns3:atemp>
          </ns3:TrackPointExtension>
        </extensions>
      </trkpt>
      <trkpt lat="42.559835202991962432861328125" lon="19.83488663099706172943115234375">
        <ele>926</ele>
        <time>2026-06-18T13:43:19.000Z</time>
        <extensions>
          <ns3:TrackPointExtension>
            <ns3:atemp>30.0</ns3:atemp>
          </ns3:TrackPointExtension>
        </extensions>
      </trkpt>
      <trkpt lat="42.55979664623737335205078125" lon="19.83494102954864501953125">
        <ele>925.79998779296875</ele>
        <time>2026-06-18T13:43:20.000Z</time>
        <extensions>
          <ns3:TrackPointExtension>
            <ns3:atemp>30.0</ns3:atemp>
          </ns3:TrackPointExtension>
        </extensions>
      </trkpt>
      <trkpt lat="42.55975775420665740966796875" lon="19.8349945060908794403076171875">
        <ele>925.79998779296875</ele>
        <time>2026-06-18T13:43:21.000Z</time>
        <extensions>
          <ns3:TrackPointExtension>
            <ns3:atemp>30.0</ns3:atemp>
          </ns3:TrackPointExtension>
        </extensions>
      </trkpt>
      <trkpt lat="42.55971877835690975189208984375" lon="19.8350441269576549530029296875">
        <ele>926</ele>
        <time>2026-06-18T13:43:22.000Z</time>
        <extensions>
          <ns3:TrackPointExtension>
            <ns3:atemp>30.0</ns3:atemp>
          </ns3:TrackPointExtension>
        </extensions>
      </trkpt>
      <trkpt lat="42.55967418663203716278076171875" lon="19.8350880481302738189697265625">
        <ele>926</ele>
        <time>2026-06-18T13:43:23.000Z</time>
        <extensions>
          <ns3:TrackPointExtension>
            <ns3:atemp>30.0</ns3:atemp>
          </ns3:TrackPointExtension>
        </extensions>
      </trkpt>
      <trkpt lat="42.55962573923170566558837890625" lon="19.83512886799871921539306640625">
        <ele>926</ele>
        <time>2026-06-18T13:43:24.000Z</time>
        <extensions>
          <ns3:TrackPointExtension>
            <ns3:atemp>30.0</ns3:atemp>
          </ns3:TrackPointExtension>
        </extensions>
      </trkpt>
      <trkpt lat="42.5595792196691036224365234375" lon="19.83516306616365909576416015625">
        <ele>926.20001220703125</ele>
        <time>2026-06-18T13:43:25.000Z</time>
        <extensions>
          <ns3:TrackPointExtension>
            <ns3:atemp>30.0</ns3:atemp>
          </ns3:TrackPointExtension>
        </extensions>
      </trkpt>
      <trkpt lat="42.55952750332653522491455078125" lon="19.83519122935831546783447265625">
        <ele>926</ele>
        <time>2026-06-18T13:43:26.000Z</time>
        <extensions>
          <ns3:TrackPointExtension>
            <ns3:atemp>30.0</ns3:atemp>
          </ns3:TrackPointExtension>
        </extensions>
      </trkpt>
      <trkpt lat="42.55947855301201343536376953125" lon="19.83521050773561000823974609375">
        <ele>926</ele>
        <time>2026-06-18T13:43:27.000Z</time>
        <extensions>
          <ns3:TrackPointExtension>
            <ns3:atemp>30.0</ns3:atemp>
          </ns3:TrackPointExtension>
        </extensions>
      </trkpt>
      <trkpt lat="42.5594280101358890533447265625" lon="19.83523003756999969482421875">
        <ele>926</ele>
        <time>2026-06-18T13:43:28.000Z</time>
        <extensions>
          <ns3:TrackPointExtension>
            <ns3:atemp>30.0</ns3:atemp>
          </ns3:TrackPointExtension>
        </extensions>
      </trkpt>
      <trkpt lat="42.55937327630817890167236328125" lon="19.8352466337382793426513671875">
        <ele>926</ele>
        <time>2026-06-18T13:43:29.000Z</time>
        <extensions>
          <ns3:TrackPointExtension>
            <ns3:atemp>30.0</ns3:atemp>
          </ns3:TrackPointExtension>
        </extensions>
      </trkpt>
      <trkpt lat="42.559317536652088165283203125" lon="19.83525845222175121307373046875">
        <ele>926</ele>
        <time>2026-06-18T13:43:30.000Z</time>
        <extensions>
          <ns3:TrackPointExtension>
            <ns3:atemp>30.0</ns3:atemp>
          </ns3:TrackPointExtension>
        </extensions>
      </trkpt>
      <trkpt lat="42.55925861187279224395751953125" lon="19.8352674208581447601318359375">
        <ele>926</ele>
        <time>2026-06-18T13:43:31.000Z</time>
        <extensions>
          <ns3:TrackPointExtension>
            <ns3:atemp>30.0</ns3:atemp>
          </ns3:TrackPointExtension>
        </extensions>
      </trkpt>
      <trkpt lat="42.55920530296862125396728515625" lon="19.83528099954128265380859375">
        <ele>926</ele>
        <time>2026-06-18T13:43:32.000Z</time>
        <extensions>
          <ns3:TrackPointExtension>
            <ns3:atemp>30.0</ns3:atemp>
          </ns3:TrackPointExtension>
        </extensions>
      </trkpt>
      <trkpt lat="42.55915098823606967926025390625" lon="19.8352939076721668243408203125">
        <ele>925.79998779296875</ele>
        <time>2026-06-18T13:43:33.000Z</time>
        <extensions>
          <ns3:TrackPointExtension>
            <ns3:atemp>30.0</ns3:atemp>
          </ns3:TrackPointExtension>
        </extensions>
      </trkpt>
      <trkpt lat="42.55909793078899383544921875" lon="19.83529231511056423187255859375">
        <ele>925.79998779296875</ele>
        <time>2026-06-18T13:43:34.000Z</time>
        <extensions>
          <ns3:TrackPointExtension>
            <ns3:atemp>30.0</ns3:atemp>
          </ns3:TrackPointExtension>
        </extensions>
      </trkpt>
      <trkpt lat="42.5590434484183788299560546875" lon="19.8352851904928684234619140625">
        <ele>925.5999755859375</ele>
        <time>2026-06-18T13:43:35.000Z</time>
        <extensions>
          <ns3:TrackPointExtension>
            <ns3:atemp>30.0</ns3:atemp>
          </ns3:TrackPointExtension>
        </extensions>
      </trkpt>
      <trkpt lat="42.55899072624742984771728515625" lon="19.8352774791419506072998046875">
        <ele>925.5999755859375</ele>
        <time>2026-06-18T13:43:36.000Z</time>
        <extensions>
          <ns3:TrackPointExtension>
            <ns3:atemp>29.0</ns3:atemp>
          </ns3:TrackPointExtension>
        </extensions>
      </trkpt>
      <trkpt lat="42.5589341484010219573974609375" lon="19.835267923772335052490234375">
        <ele>925.5999755859375</ele>
        <time>2026-06-18T13:43:37.000Z</time>
        <extensions>
          <ns3:TrackPointExtension>
            <ns3:atemp>29.0</ns3:atemp>
          </ns3:TrackPointExtension>
        </extensions>
      </trkpt>
      <trkpt lat="42.5588786602020263671875" lon="19.83525778166949748992919921875">
        <ele>925.5999755859375</ele>
        <time>2026-06-18T13:43:38.000Z</time>
        <extensions>
          <ns3:TrackPointExtension>
            <ns3:atemp>30.0</ns3:atemp>
          </ns3:TrackPointExtension>
        </extensions>
      </trkpt>
      <trkpt lat="42.5588248483836650848388671875" lon="19.83524881303310394287109375">
        <ele>925.5999755859375</ele>
        <time>2026-06-18T13:43:39.000Z</time>
        <extensions>
          <ns3:TrackPointExtension>
            <ns3:atemp>29.0</ns3:atemp>
          </ns3:TrackPointExtension>
        </extensions>
      </trkpt>
      <trkpt lat="42.55876910872757434844970703125" lon="19.835237748920917510986328125">
        <ele>925.79998779296875</ele>
        <time>2026-06-18T13:43:40.000Z</time>
        <extensions>
          <ns3:TrackPointExtension>
            <ns3:atemp>29.0</ns3:atemp>
          </ns3:TrackPointExtension>
        </extensions>
      </trkpt>
      <trkpt lat="42.5587155483663082122802734375" lon="19.8352238349616527557373046875">
        <ele>926</ele>
        <time>2026-06-18T13:43:41.000Z</time>
        <extensions>
          <ns3:TrackPointExtension>
            <ns3:atemp>29.0</ns3:atemp>
          </ns3:TrackPointExtension>
        </extensions>
      </trkpt>
      <trkpt lat="42.55866450257599353790283203125" lon="19.83521302230656147003173828125">
        <ele>926.20001220703125</ele>
        <time>2026-06-18T13:43:42.000Z</time>
        <extensions>
          <ns3:TrackPointExtension>
            <ns3:atemp>29.0</ns3:atemp>
          </ns3:TrackPointExtension>
        </extensions>
      </trkpt>
      <trkpt lat="42.5586109422147274017333984375" lon="19.83519206754863262176513671875">
        <ele>926.20001220703125</ele>
        <time>2026-06-18T13:43:43.000Z</time>
        <extensions>
          <ns3:TrackPointExtension>
            <ns3:atemp>29.0</ns3:atemp>
          </ns3:TrackPointExtension>
        </extensions>
      </trkpt>
      <trkpt lat="42.55855972878634929656982421875" lon="19.83516993932425975799560546875">
        <ele>926.20001220703125</ele>
        <time>2026-06-18T13:43:44.000Z</time>
        <extensions>
          <ns3:TrackPointExtension>
            <ns3:atemp>29.0</ns3:atemp>
          </ns3:TrackPointExtension>
        </extensions>
      </trkpt>
      <trkpt lat="42.5585083477199077606201171875" lon="19.8351480625569820404052734375">
        <ele>926</ele>
        <time>2026-06-18T13:43:45.000Z</time>
        <extensions>
          <ns3:TrackPointExtension>
            <ns3:atemp>29.0</ns3:atemp>
          </ns3:TrackPointExtension>
        </extensions>
      </trkpt>
      <trkpt lat="42.55845730192959308624267578125" lon="19.835126437246799468994140625">
        <ele>925.79998779296875</ele>
        <time>2026-06-18T13:43:46.000Z</time>
        <extensions>
          <ns3:TrackPointExtension>
            <ns3:atemp>29.0</ns3:atemp>
          </ns3:TrackPointExtension>
        </extensions>
      </trkpt>
      <trkpt lat="42.5584054179489612579345703125" lon="19.83510238118469715118408203125">
        <ele>925.79998779296875</ele>
        <time>2026-06-18T13:43:47.000Z</time>
        <extensions>
          <ns3:TrackPointExtension>
            <ns3:atemp>29.0</ns3:atemp>
          </ns3:TrackPointExtension>
        </extensions>
      </trkpt>
      <trkpt lat="42.55835831165313720703125" lon="19.83507723547518253326416015625">
        <ele>925.79998779296875</ele>
        <time>2026-06-18T13:43:48.000Z</time>
        <extensions>
          <ns3:TrackPointExtension>
            <ns3:atemp>29.0</ns3:atemp>
          </ns3:TrackPointExtension>
        </extensions>
      </trkpt>
      <trkpt lat="42.5583108700811862945556640625" lon="19.8350550234317779541015625">
        <ele>925.79998779296875</ele>
        <time>2026-06-18T13:43:49.000Z</time>
        <extensions>
          <ns3:TrackPointExtension>
            <ns3:atemp>29.0</ns3:atemp>
          </ns3:TrackPointExtension>
        </extensions>
      </trkpt>
      <trkpt lat="42.55826602689921855926513671875" lon="19.835031889379024505615234375">
        <ele>926</ele>
        <time>2026-06-18T13:43:50.000Z</time>
        <extensions>
          <ns3:TrackPointExtension>
            <ns3:atemp>29.0</ns3:atemp>
          </ns3:TrackPointExtension>
        </extensions>
      </trkpt>
      <trkpt lat="42.55822193808853626251220703125" lon="19.8350052349269390106201171875">
        <ele>926</ele>
        <time>2026-06-18T13:43:51.000Z</time>
        <extensions>
          <ns3:TrackPointExtension>
            <ns3:atemp>29.0</ns3:atemp>
          </ns3:TrackPointExtension>
        </extensions>
      </trkpt>
      <trkpt lat="42.5581744126975536346435546875" lon="19.834984950721263885498046875">
        <ele>926.20001220703125</ele>
        <time>2026-06-18T13:43:52.000Z</time>
        <extensions>
          <ns3:TrackPointExtension>
            <ns3:atemp>29.0</ns3:atemp>
          </ns3:TrackPointExtension>
        </extensions>
      </trkpt>
      <trkpt lat="42.55812521092593669891357421875" lon="19.83496122993528842926025390625">
        <ele>926.20001220703125</ele>
        <time>2026-06-18T13:43:53.000Z</time>
        <extensions>
          <ns3:TrackPointExtension>
            <ns3:atemp>29.0</ns3:atemp>
          </ns3:TrackPointExtension>
        </extensions>
      </trkpt>
      <trkpt lat="42.5580765120685100555419921875" lon="19.8349388502538204193115234375">
        <ele>926.20001220703125</ele>
        <time>2026-06-18T13:43:54.000Z</time>
        <extensions>
          <ns3:TrackPointExtension>
            <ns3:atemp>29.0</ns3:atemp>
          </ns3:TrackPointExtension>
        </extensions>
      </trkpt>
      <trkpt lat="42.55802747793495655059814453125" lon="19.8349183984100818634033203125">
        <ele>926.20001220703125</ele>
        <time>2026-06-18T13:43:55.000Z</time>
        <extensions>
          <ns3:TrackPointExtension>
            <ns3:atemp>29.0</ns3:atemp>
          </ns3:TrackPointExtension>
        </extensions>
      </trkpt>
      <trkpt lat="42.5579786114394664764404296875" lon="19.83489417470991611480712890625">
        <ele>926.20001220703125</ele>
        <time>2026-06-18T13:43:56.000Z</time>
        <extensions>
          <ns3:TrackPointExtension>
            <ns3:atemp>29.0</ns3:atemp>
          </ns3:TrackPointExtension>
        </extensions>
      </trkpt>
      <trkpt lat="42.55793058313429355621337890625" lon="19.83487196266651153564453125">
        <ele>926.20001220703125</ele>
        <time>2026-06-18T13:43:57.000Z</time>
        <extensions>
          <ns3:TrackPointExtension>
            <ns3:atemp>29.0</ns3:atemp>
          </ns3:TrackPointExtension>
        </extensions>
      </trkpt>
      <trkpt lat="42.5578833930194377899169921875" lon="19.83484421856701374053955078125">
        <ele>926.20001220703125</ele>
        <time>2026-06-18T13:43:58.000Z</time>
        <extensions>
          <ns3:TrackPointExtension>
            <ns3:atemp>29.0</ns3:atemp>
          </ns3:TrackPointExtension>
        </extensions>
      </trkpt>
      <trkpt lat="42.55783804692327976226806640625" lon="19.83481471426784992218017578125">
        <ele>926.4000244140625</ele>
        <time>2026-06-18T13:43:59.000Z</time>
        <extensions>
          <ns3:TrackPointExtension>
            <ns3:atemp>29.0</ns3:atemp>
          </ns3:TrackPointExtension>
        </extensions>
      </trkpt>
      <trkpt lat="42.55779395811259746551513671875" lon="19.83478168956935405731201171875">
        <ele>926.4000244140625</ele>
        <time>2026-06-18T13:44:00.000Z</time>
        <extensions>
          <ns3:TrackPointExtension>
            <ns3:atemp>29.0</ns3:atemp>
          </ns3:TrackPointExtension>
        </extensions>
      </trkpt>
      <trkpt lat="42.557751797139644622802734375" lon="19.83474321663379669189453125">
        <ele>926.4000244140625</ele>
        <time>2026-06-18T13:44:01.000Z</time>
        <extensions>
          <ns3:TrackPointExtension>
            <ns3:atemp>29.0</ns3:atemp>
          </ns3:TrackPointExtension>
        </extensions>
      </trkpt>
      <trkpt lat="42.55770980380475521087646484375" lon="19.83469267375767230987548828125">
        <ele>926.4000244140625</ele>
        <time>2026-06-18T13:44:02.000Z</time>
        <extensions>
          <ns3:TrackPointExtension>
            <ns3:atemp>29.0</ns3:atemp>
          </ns3:TrackPointExtension>
        </extensions>
      </trkpt>
      <trkpt lat="42.5576694868505001068115234375" lon="19.83463819138705730438232421875">
        <ele>926.4000244140625</ele>
        <time>2026-06-18T13:44:03.000Z</time>
        <extensions>
          <ns3:TrackPointExtension>
            <ns3:atemp>29.0</ns3:atemp>
          </ns3:TrackPointExtension>
        </extensions>
      </trkpt>
      <trkpt lat="42.557628415524959564208984375" lon="19.83458706177771091461181640625">
        <ele>926.5999755859375</ele>
        <time>2026-06-18T13:44:04.000Z</time>
        <extensions>
          <ns3:TrackPointExtension>
            <ns3:atemp>29.0</ns3:atemp>
          </ns3:TrackPointExtension>
        </extensions>
      </trkpt>
      <trkpt lat="42.55758809857070446014404296875" lon="19.83453400433063507080078125">
        <ele>926.5999755859375</ele>
        <time>2026-06-18T13:44:05.000Z</time>
        <extensions>
          <ns3:TrackPointExtension>
            <ns3:atemp>29.0</ns3:atemp>
          </ns3:TrackPointExtension>
        </extensions>
      </trkpt>
      <trkpt lat="42.55754920653998851776123046875" lon="19.83447658829391002655029296875">
        <ele>926.79998779296875</ele>
        <time>2026-06-18T13:44:06.000Z</time>
        <extensions>
          <ns3:TrackPointExtension>
            <ns3:atemp>29.0</ns3:atemp>
          </ns3:TrackPointExtension>
        </extensions>
      </trkpt>
      <trkpt lat="42.55751333199441432952880859375" lon="19.8344141431152820587158203125">
        <ele>926.79998779296875</ele>
        <time>2026-06-18T13:44:07.000Z</time>
        <extensions>
          <ns3:TrackPointExtension>
            <ns3:atemp>29.0</ns3:atemp>
          </ns3:TrackPointExtension>
        </extensions>
      </trkpt>
      <trkpt lat="42.5574798882007598876953125" lon="19.834349937736988067626953125">
        <ele>926.79998779296875</ele>
        <time>2026-06-18T13:44:08.000Z</time>
        <extensions>
          <ns3:TrackPointExtension>
            <ns3:atemp>29.0</ns3:atemp>
          </ns3:TrackPointExtension>
        </extensions>
      </trkpt>
      <trkpt lat="42.55744862370193004608154296875" lon="19.8342786915600299835205078125">
        <ele>926.79998779296875</ele>
        <time>2026-06-18T13:44:09.000Z</time>
        <extensions>
          <ns3:TrackPointExtension>
            <ns3:atemp>29.0</ns3:atemp>
          </ns3:TrackPointExtension>
        </extensions>
      </trkpt>
      <trkpt lat="42.5574223883450031280517578125" lon="19.83421205542981624603271484375">
        <ele>926.79998779296875</ele>
        <time>2026-06-18T13:44:10.000Z</time>
        <extensions>
          <ns3:TrackPointExtension>
            <ns3:atemp>29.0</ns3:atemp>
          </ns3:TrackPointExtension>
        </extensions>
      </trkpt>
      <trkpt lat="42.5573925487697124481201171875" lon="19.834144748747348785400390625">
        <ele>927</ele>
        <time>2026-06-18T13:44:11.000Z</time>
        <extensions>
          <ns3:TrackPointExtension>
            <ns3:atemp>29.0</ns3:atemp>
          </ns3:TrackPointExtension>
        </extensions>
      </trkpt>
      <trkpt lat="42.55736329592764377593994140625" lon="19.83408113010227680206298828125">
        <ele>927</ele>
        <time>2026-06-18T13:44:12.000Z</time>
        <extensions>
          <ns3:TrackPointExtension>
            <ns3:atemp>29.0</ns3:atemp>
          </ns3:TrackPointExtension>
        </extensions>
      </trkpt>
      <trkpt lat="42.55733345635235309600830078125" lon="19.8340198583900928497314453125">
        <ele>927.20001220703125</ele>
        <time>2026-06-18T13:44:13.000Z</time>
        <extensions>
          <ns3:TrackPointExtension>
            <ns3:atemp>29.0</ns3:atemp>
          </ns3:TrackPointExtension>
        </extensions>
      </trkpt>
      <trkpt lat="42.55730219185352325439453125" lon="19.83395724557340145111083984375">
        <ele>927.20001220703125</ele>
        <time>2026-06-18T13:44:14.000Z</time>
        <extensions>
          <ns3:TrackPointExtension>
            <ns3:atemp>29.0</ns3:atemp>
          </ns3:TrackPointExtension>
        </extensions>
      </trkpt>
      <trkpt lat="42.55726841278374195098876953125" lon="19.83389706350862979888916015625">
        <ele>927.20001220703125</ele>
        <time>2026-06-18T13:44:15.000Z</time>
        <extensions>
          <ns3:TrackPointExtension>
            <ns3:atemp>29.0</ns3:atemp>
          </ns3:TrackPointExtension>
        </extensions>
      </trkpt>
      <trkpt lat="42.55723320879042148590087890625" lon="19.83383671380579471588134765625">
        <ele>927.20001220703125</ele>
        <time>2026-06-18T13:44:16.000Z</time>
        <extensions>
          <ns3:TrackPointExtension>
            <ns3:atemp>29.0</ns3:atemp>
          </ns3:TrackPointExtension>
        </extensions>
      </trkpt>
      <trkpt lat="42.557194232940673828125" lon="19.83378239907324314117431640625">
        <ele>927.20001220703125</ele>
        <time>2026-06-18T13:44:17.000Z</time>
        <extensions>
          <ns3:TrackPointExtension>
            <ns3:atemp>29.0</ns3:atemp>
          </ns3:TrackPointExtension>
        </extensions>
      </trkpt>
      <trkpt lat="42.5571524910628795623779296875" lon="19.8337295092642307281494140625">
        <ele>927.20001220703125</ele>
        <time>2026-06-18T13:44:18.000Z</time>
        <extensions>
          <ns3:TrackPointExtension>
            <ns3:atemp>29.0</ns3:atemp>
          </ns3:TrackPointExtension>
        </extensions>
      </trkpt>
      <trkpt lat="42.5571089051663875579833984375" lon="19.83368282206356525421142578125">
        <ele>927.20001220703125</ele>
        <time>2026-06-18T13:44:19.000Z</time>
        <extensions>
          <ns3:TrackPointExtension>
            <ns3:atemp>29.0</ns3:atemp>
          </ns3:TrackPointExtension>
        </extensions>
      </trkpt>
      <trkpt lat="42.55706213414669036865234375" lon="19.8336420021951198577880859375">
        <ele>927.20001220703125</ele>
        <time>2026-06-18T13:44:20.000Z</time>
        <extensions>
          <ns3:TrackPointExtension>
            <ns3:atemp>29.0</ns3:atemp>
          </ns3:TrackPointExtension>
        </extensions>
      </trkpt>
      <trkpt lat="42.5570106692612171173095703125" lon="19.83360151760280132293701171875">
        <ele>927.20001220703125</ele>
        <time>2026-06-18T13:44:21.000Z</time>
        <extensions>
          <ns3:TrackPointExtension>
            <ns3:atemp>29.0</ns3:atemp>
          </ns3:TrackPointExtension>
        </extensions>
      </trkpt>
      <trkpt lat="42.55695912055671215057373046875" lon="19.8335658945143222808837890625">
        <ele>927.20001220703125</ele>
        <time>2026-06-18T13:44:22.000Z</time>
        <extensions>
          <ns3:TrackPointExtension>
            <ns3:atemp>29.0</ns3:atemp>
          </ns3:TrackPointExtension>
        </extensions>
      </trkpt>
      <trkpt lat="42.55690732039511203765869140625" lon="19.83353714458644390106201171875">
        <ele>927.4000244140625</ele>
        <time>2026-06-18T13:44:23.000Z</time>
        <extensions>
          <ns3:TrackPointExtension>
            <ns3:atemp>29.0</ns3:atemp>
          </ns3:TrackPointExtension>
        </extensions>
      </trkpt>
      <trkpt lat="42.5568540953099727630615234375" lon="19.83351350761950016021728515625">
        <ele>927.4000244140625</ele>
        <time>2026-06-18T13:44:24.000Z</time>
        <extensions>
          <ns3:TrackPointExtension>
            <ns3:atemp>29.0</ns3:atemp>
          </ns3:TrackPointExtension>
        </extensions>
      </trkpt>
      <trkpt lat="42.5568011216819286346435546875" lon="19.8334993422031402587890625">
        <ele>927.4000244140625</ele>
        <time>2026-06-18T13:44:25.000Z</time>
        <extensions>
          <ns3:TrackPointExtension>
            <ns3:atemp>29.0</ns3:atemp>
          </ns3:TrackPointExtension>
        </extensions>
      </trkpt>
      <trkpt lat="42.556745968759059906005859375" lon="19.8334939777851104736328125">
        <ele>927.4000244140625</ele>
        <time>2026-06-18T13:44:26.000Z</time>
        <extensions>
          <ns3:TrackPointExtension>
            <ns3:atemp>29.0</ns3:atemp>
          </ns3:TrackPointExtension>
        </extensions>
      </trkpt>
      <trkpt lat="42.5566874630749225616455078125" lon="19.833494313061237335205078125">
        <ele>927.4000244140625</ele>
        <time>2026-06-18T13:44:27.000Z</time>
        <extensions>
          <ns3:TrackPointExtension>
            <ns3:atemp>29.0</ns3:atemp>
          </ns3:TrackPointExtension>
        </extensions>
      </trkpt>
      <trkpt lat="42.5566277839243412017822265625" lon="19.833503030240535736083984375">
        <ele>927.20001220703125</ele>
        <time>2026-06-18T13:44:28.000Z</time>
        <extensions>
          <ns3:TrackPointExtension>
            <ns3:atemp>29.0</ns3:atemp>
          </ns3:TrackPointExtension>
        </extensions>
      </trkpt>
      <trkpt lat="42.5565717928111553192138671875" lon="19.833520464599132537841796875">
        <ele>927.20001220703125</ele>
        <time>2026-06-18T13:44:29.000Z</time>
        <extensions>
          <ns3:TrackPointExtension>
            <ns3:atemp>29.0</ns3:atemp>
          </ns3:TrackPointExtension>
        </extensions>
      </trkpt>
      <trkpt lat="42.55651605315506458282470703125" lon="19.833541922271251678466796875">
        <ele>927.20001220703125</ele>
        <time>2026-06-18T13:44:30.000Z</time>
        <extensions>
          <ns3:TrackPointExtension>
            <ns3:atemp>29.0</ns3:atemp>
          </ns3:TrackPointExtension>
        </extensions>
      </trkpt>
      <trkpt lat="42.55646425299346446990966796875" lon="19.833566062152385711669921875">
        <ele>927.20001220703125</ele>
        <time>2026-06-18T13:44:31.000Z</time>
        <extensions>
          <ns3:TrackPointExtension>
            <ns3:atemp>29.0</ns3:atemp>
          </ns3:TrackPointExtension>
        </extensions>
      </trkpt>
      <trkpt lat="42.55641060881316661834716796875" lon="19.83359523117542266845703125">
        <ele>927.20001220703125</ele>
        <time>2026-06-18T13:44:32.000Z</time>
        <extensions>
          <ns3:TrackPointExtension>
            <ns3:atemp>29.0</ns3:atemp>
          </ns3:TrackPointExtension>
        </extensions>
      </trkpt>
      <trkpt lat="42.556359060108661651611328125" lon="19.83362817205488681793212890625">
        <ele>927</ele>
        <time>2026-06-18T13:44:33.000Z</time>
        <extensions>
          <ns3:TrackPointExtension>
            <ns3:atemp>29.0</ns3:atemp>
          </ns3:TrackPointExtension>
        </extensions>
      </trkpt>
      <trkpt lat="42.5563072599470615386962890625" lon="19.833659939467906951904296875">
        <ele>927.20001220703125</ele>
        <time>2026-06-18T13:44:34.000Z</time>
        <extensions>
          <ns3:TrackPointExtension>
            <ns3:atemp>29.0</ns3:atemp>
          </ns3:TrackPointExtension>
        </extensions>
      </trkpt>
      <trkpt lat="42.55625621415674686431884765625" lon="19.83368164859712123870849609375">
        <ele>927.20001220703125</ele>
        <time>2026-06-18T13:44:35.000Z</time>
        <extensions>
          <ns3:TrackPointExtension>
            <ns3:atemp>29.0</ns3:atemp>
          </ns3:TrackPointExtension>
        </extensions>
      </trkpt>
      <trkpt lat="42.556204833090305328369140625" lon="19.83370411209762096405029296875">
        <ele>927.20001220703125</ele>
        <time>2026-06-18T13:44:36.000Z</time>
        <extensions>
          <ns3:TrackPointExtension>
            <ns3:atemp>29.0</ns3:atemp>
          </ns3:TrackPointExtension>
        </extensions>
      </trkpt>
      <trkpt lat="42.55614959634840488433837890625" lon="19.8337197862565517425537109375">
        <ele>927.20001220703125</ele>
        <time>2026-06-18T13:44:37.000Z</time>
        <extensions>
          <ns3:TrackPointExtension>
            <ns3:atemp>29.0</ns3:atemp>
          </ns3:TrackPointExtension>
        </extensions>
      </trkpt>
      <trkpt lat="42.5560926832258701324462890625" lon="19.83373344875872135162353515625">
        <ele>927.4000244140625</ele>
        <time>2026-06-18T13:44:38.000Z</time>
        <extensions>
          <ns3:TrackPointExtension>
            <ns3:atemp>29.0</ns3:atemp>
          </ns3:TrackPointExtension>
        </extensions>
      </trkpt>
      <trkpt lat="42.55603644065558910369873046875" lon="19.8337469436228275299072265625">
        <ele>927.4000244140625</ele>
        <time>2026-06-18T13:44:39.000Z</time>
        <extensions>
          <ns3:TrackPointExtension>
            <ns3:atemp>29.0</ns3:atemp>
          </ns3:TrackPointExtension>
        </extensions>
      </trkpt>
      <trkpt lat="42.55598195828497409820556640625" lon="19.833760522305965423583984375">
        <ele>927.4000244140625</ele>
        <time>2026-06-18T13:44:40.000Z</time>
        <extensions>
          <ns3:TrackPointExtension>
            <ns3:atemp>29.0</ns3:atemp>
          </ns3:TrackPointExtension>
        </extensions>
      </trkpt>
      <trkpt lat="42.5559247098863124847412109375" lon="19.83376697637140750885009765625">
        <ele>927.4000244140625</ele>
        <time>2026-06-18T13:44:41.000Z</time>
        <extensions>
          <ns3:TrackPointExtension>
            <ns3:atemp>29.0</ns3:atemp>
          </ns3:TrackPointExtension>
        </extensions>
      </trkpt>
      <trkpt lat="42.55586544983088970184326171875" lon="19.8337704129517078399658203125">
        <ele>927.4000244140625</ele>
        <time>2026-06-18T13:44:42.000Z</time>
        <extensions>
          <ns3:TrackPointExtension>
            <ns3:atemp>29.0</ns3:atemp>
          </ns3:TrackPointExtension>
        </extensions>
      </trkpt>
      <trkpt lat="42.55580610595643520355224609375" lon="19.8337707482278347015380859375">
        <ele>927.4000244140625</ele>
        <time>2026-06-18T13:44:43.000Z</time>
        <extensions>
          <ns3:TrackPointExtension>
            <ns3:atemp>29.0</ns3:atemp>
          </ns3:TrackPointExtension>
        </extensions>
      </trkpt>
      <trkpt lat="42.555746175348758697509765625" lon="19.8337637074291706085205078125">
        <ele>927.20001220703125</ele>
        <time>2026-06-18T13:44:44.000Z</time>
        <extensions>
          <ns3:TrackPointExtension>
            <ns3:atemp>29.0</ns3:atemp>
          </ns3:TrackPointExtension>
        </extensions>
      </trkpt>
      <trkpt lat="42.55568674765527248382568359375" lon="19.8337536491453647613525390625">
        <ele>927.20001220703125</ele>
        <time>2026-06-18T13:44:45.000Z</time>
        <extensions>
          <ns3:TrackPointExtension>
            <ns3:atemp>29.0</ns3:atemp>
          </ns3:TrackPointExtension>
        </extensions>
      </trkpt>
      <trkpt lat="42.55562924779951572418212890625" lon="19.833735711872577667236328125">
        <ele>927.20001220703125</ele>
        <time>2026-06-18T13:44:46.000Z</time>
        <extensions>
          <ns3:TrackPointExtension>
            <ns3:atemp>29.0</ns3:atemp>
          </ns3:TrackPointExtension>
        </extensions>
      </trkpt>
      <trkpt lat="42.555576525628566741943359375" lon="19.83371500857174396514892578125">
        <ele>927.4000244140625</ele>
        <time>2026-06-18T13:44:47.000Z</time>
        <extensions>
          <ns3:TrackPointExtension>
            <ns3:atemp>29.0</ns3:atemp>
          </ns3:TrackPointExtension>
        </extensions>
      </trkpt>
      <trkpt lat="42.55552128888666629791259765625" lon="19.8336959816515445709228515625">
        <ele>927.4000244140625</ele>
        <time>2026-06-18T13:44:48.000Z</time>
        <extensions>
          <ns3:TrackPointExtension>
            <ns3:atemp>29.0</ns3:atemp>
          </ns3:TrackPointExtension>
        </extensions>
      </trkpt>
      <trkpt lat="42.55546596832573413848876953125" lon="19.8336741887032985687255859375">
        <ele>927.4000244140625</ele>
        <time>2026-06-18T13:44:49.000Z</time>
        <extensions>
          <ns3:TrackPointExtension>
            <ns3:atemp>29.0</ns3:atemp>
          </ns3:TrackPointExtension>
        </extensions>
      </trkpt>
      <trkpt lat="42.5554092228412628173828125" lon="19.8336497135460376739501953125">
        <ele>927.5999755859375</ele>
        <time>2026-06-18T13:44:50.000Z</time>
        <extensions>
          <ns3:TrackPointExtension>
            <ns3:atemp>29.0</ns3:atemp>
          </ns3:TrackPointExtension>
        </extensions>
      </trkpt>
      <trkpt lat="42.55535482428967952728271484375" lon="19.83361677266657352447509765625">
        <ele>927.5999755859375</ele>
        <time>2026-06-18T13:44:51.000Z</time>
        <extensions>
          <ns3:TrackPointExtension>
            <ns3:atemp>29.0</ns3:atemp>
          </ns3:TrackPointExtension>
        </extensions>
      </trkpt>
      <trkpt lat="42.5553037784993648529052734375" lon="19.83357167802751064300537109375">
        <ele>927.5999755859375</ele>
        <time>2026-06-18T13:44:52.000Z</time>
        <extensions>
          <ns3:TrackPointExtension>
            <ns3:atemp>29.0</ns3:atemp>
          </ns3:TrackPointExtension>
        </extensions>
      </trkpt>
      <trkpt lat="42.555256672203540802001953125" lon="19.83351878821849822998046875">
        <ele>927.79998779296875</ele>
        <time>2026-06-18T13:44:53.000Z</time>
        <extensions>
          <ns3:TrackPointExtension>
            <ns3:atemp>29.0</ns3:atemp>
          </ns3:TrackPointExtension>
        </extensions>
      </trkpt>
      <trkpt lat="42.5552243180572986602783203125" lon="19.8334592767059803009033203125">
        <ele>927.79998779296875</ele>
        <time>2026-06-18T13:44:54.000Z</time>
        <extensions>
          <ns3:TrackPointExtension>
            <ns3:atemp>29.0</ns3:atemp>
          </ns3:TrackPointExtension>
        </extensions>
      </trkpt>
      <trkpt lat="42.5551995076239109039306640625" lon="19.83339096419513225555419921875">
        <ele>928</ele>
        <time>2026-06-18T13:44:55.000Z</time>
        <extensions>
          <ns3:TrackPointExtension>
            <ns3:atemp>29.0</ns3:atemp>
          </ns3:TrackPointExtension>
        </extensions>
      </trkpt>
      <trkpt lat="42.5551787205040454864501953125" lon="19.83331401832401752471923828125">
        <ele>928</ele>
        <time>2026-06-18T13:44:56.000Z</time>
        <extensions>
          <ns3:TrackPointExtension>
            <ns3:atemp>29.0</ns3:atemp>
          </ns3:TrackPointExtension>
        </extensions>
      </trkpt>
      <trkpt lat="42.55515885539352893829345703125" lon="19.83323724009096622467041015625">
        <ele>928</ele>
        <time>2026-06-18T13:44:57.000Z</time>
        <extensions>
          <ns3:TrackPointExtension>
            <ns3:atemp>29.0</ns3:atemp>
          </ns3:TrackPointExtension>
        </extensions>
      </trkpt>
      <trkpt lat="42.5551408343017101287841796875" lon="19.83316331170499324798583984375">
        <ele>928.20001220703125</ele>
        <time>2026-06-18T13:44:58.000Z</time>
        <extensions>
          <ns3:TrackPointExtension>
            <ns3:atemp>29.0</ns3:atemp>
          </ns3:TrackPointExtension>
        </extensions>
      </trkpt>
      <trkpt lat="42.5551203824579715728759765625" lon="19.83309273608028888702392578125">
        <ele>928.20001220703125</ele>
        <time>2026-06-18T13:44:59.000Z</time>
        <extensions>
          <ns3:TrackPointExtension>
            <ns3:atemp>29.0</ns3:atemp>
          </ns3:TrackPointExtension>
        </extensions>
      </trkpt>
      <trkpt lat="42.555103115737438201904296875" lon="19.83302266336977481842041015625">
        <ele>928.20001220703125</ele>
        <time>2026-06-18T13:45:00.000Z</time>
        <extensions>
          <ns3:TrackPointExtension>
            <ns3:atemp>29.0</ns3:atemp>
          </ns3:TrackPointExtension>
        </extensions>
      </trkpt>
      <trkpt lat="42.55508693866431713104248046875" lon="19.8329506628215312957763671875">
        <ele>928.4000244140625</ele>
        <time>2026-06-18T13:45:01.000Z</time>
        <extensions>
          <ns3:TrackPointExtension>
            <ns3:atemp>29.0</ns3:atemp>
          </ns3:TrackPointExtension>
        </extensions>
      </trkpt>
      <trkpt lat="42.55506455898284912109375" lon="19.832876734435558319091796875">
        <ele>928.4000244140625</ele>
        <time>2026-06-18T13:45:02.000Z</time>
        <extensions>
          <ns3:TrackPointExtension>
            <ns3:atemp>29.0</ns3:atemp>
          </ns3:TrackPointExtension>
        </extensions>
      </trkpt>
      <trkpt lat="42.55503438413143157958984375" lon="19.83281143940985202789306640625">
        <ele>928.4000244140625</ele>
        <time>2026-06-18T13:45:03.000Z</time>
        <extensions>
          <ns3:TrackPointExtension>
            <ns3:atemp>29.0</ns3:atemp>
          </ns3:TrackPointExtension>
        </extensions>
      </trkpt>
      <trkpt lat="42.5550023652613162994384765625" lon="19.8327536880970001220703125">
        <ele>928.4000244140625</ele>
        <time>2026-06-18T13:45:04.000Z</time>
        <extensions>
          <ns3:TrackPointExtension>
            <ns3:atemp>29.0</ns3:atemp>
          </ns3:TrackPointExtension>
        </extensions>
      </trkpt>
      <trkpt lat="42.55496372468769550323486328125" lon="19.832694344222545623779296875">
        <ele>928.4000244140625</ele>
        <time>2026-06-18T13:45:05.000Z</time>
        <extensions>
          <ns3:TrackPointExtension>
            <ns3:atemp>29.0</ns3:atemp>
          </ns3:TrackPointExtension>
        </extensions>
      </trkpt>
      <trkpt lat="42.55492231808602809906005859375" lon="19.8326378501951694488525390625">
        <ele>928.4000244140625</ele>
        <time>2026-06-18T13:45:06.000Z</time>
        <extensions>
          <ns3:TrackPointExtension>
            <ns3:atemp>29.0</ns3:atemp>
          </ns3:TrackPointExtension>
        </extensions>
      </trkpt>
      <trkpt lat="42.55487588234245777130126953125" lon="19.8325885646045207977294921875">
        <ele>928.4000244140625</ele>
        <time>2026-06-18T13:45:07.000Z</time>
        <extensions>
          <ns3:TrackPointExtension>
            <ns3:atemp>29.0</ns3:atemp>
          </ns3:TrackPointExtension>
        </extensions>
      </trkpt>
      <trkpt lat="42.55482542328536510467529296875" lon="19.83254648745059967041015625">
        <ele>928.4000244140625</ele>
        <time>2026-06-18T13:45:08.000Z</time>
        <extensions>
          <ns3:TrackPointExtension>
            <ns3:atemp>29.0</ns3:atemp>
          </ns3:TrackPointExtension>
        </extensions>
      </trkpt>
      <trkpt lat="42.55477546714246273040771484375" lon="19.8325087688863277435302734375">
        <ele>928.4000244140625</ele>
        <time>2026-06-18T13:45:09.000Z</time>
        <extensions>
          <ns3:TrackPointExtension>
            <ns3:atemp>29.0</ns3:atemp>
          </ns3:TrackPointExtension>
        </extensions>
      </trkpt>
      <trkpt lat="42.5547264330089092254638671875" lon="19.8324712179601192474365234375">
        <ele>928.4000244140625</ele>
        <time>2026-06-18T13:45:10.000Z</time>
        <extensions>
          <ns3:TrackPointExtension>
            <ns3:atemp>29.0</ns3:atemp>
          </ns3:TrackPointExtension>
        </extensions>
      </trkpt>
      <trkpt lat="42.554677985608577728271484375" lon="19.83243324793875217437744140625">
        <ele>928.5999755859375</ele>
        <time>2026-06-18T13:45:11.000Z</time>
        <extensions>
          <ns3:TrackPointExtension>
            <ns3:atemp>29.0</ns3:atemp>
          </ns3:TrackPointExtension>
        </extensions>
      </trkpt>
      <trkpt lat="42.5546281971037387847900390625" lon="19.8323954455554485321044921875">
        <ele>928.5999755859375</ele>
        <time>2026-06-18T13:45:12.000Z</time>
        <extensions>
          <ns3:TrackPointExtension>
            <ns3:atemp>29.0</ns3:atemp>
          </ns3:TrackPointExtension>
        </extensions>
      </trkpt>
      <trkpt lat="42.55457840859889984130859375" lon="19.8323605768382549285888671875">
        <ele>928.79998779296875</ele>
        <time>2026-06-18T13:45:13.000Z</time>
        <extensions>
          <ns3:TrackPointExtension>
            <ns3:atemp>29.0</ns3:atemp>
          </ns3:TrackPointExtension>
        </extensions>
      </trkpt>
      <trkpt lat="42.55452937446534633636474609375" lon="19.83232595957815647125244140625">
        <ele>929</ele>
        <time>2026-06-18T13:45:14.000Z</time>
        <extensions>
          <ns3:TrackPointExtension>
            <ns3:atemp>29.0</ns3:atemp>
          </ns3:TrackPointExtension>
        </extensions>
      </trkpt>
      <trkpt lat="42.55448025651276111602783203125" lon="19.8322911746799945831298828125">
        <ele>929.20001220703125</ele>
        <time>2026-06-18T13:45:15.000Z</time>
        <extensions>
          <ns3:TrackPointExtension>
            <ns3:atemp>29.0</ns3:atemp>
          </ns3:TrackPointExtension>
        </extensions>
      </trkpt>
      <trkpt lat="42.55443013273179531097412109375" lon="19.8322579823434352874755859375">
        <ele>929.20001220703125</ele>
        <time>2026-06-18T13:45:16.000Z</time>
        <extensions>
          <ns3:TrackPointExtension>
            <ns3:atemp>29.0</ns3:atemp>
          </ns3:TrackPointExtension>
        </extensions>
      </trkpt>
      <trkpt lat="42.554378919303417205810546875" lon="19.83222235925495624542236328125">
        <ele>929.4000244140625</ele>
        <time>2026-06-18T13:45:17.000Z</time>
        <extensions>
          <ns3:TrackPointExtension>
            <ns3:atemp>29.0</ns3:atemp>
          </ns3:TrackPointExtension>
        </extensions>
      </trkpt>
      <trkpt lat="42.5543282926082611083984375" lon="19.8321872390806674957275390625">
        <ele>929.4000244140625</ele>
        <time>2026-06-18T13:45:18.000Z</time>
        <extensions>
          <ns3:TrackPointExtension>
            <ns3:atemp>29.0</ns3:atemp>
          </ns3:TrackPointExtension>
        </extensions>
      </trkpt>
      <trkpt lat="42.5542798452079296112060546875" lon="19.83214960433542728424072265625">
        <ele>929.5999755859375</ele>
        <time>2026-06-18T13:45:19.000Z</time>
        <extensions>
          <ns3:TrackPointExtension>
            <ns3:atemp>29.0</ns3:atemp>
          </ns3:TrackPointExtension>
        </extensions>
      </trkpt>
      <trkpt lat="42.55423248745501041412353515625" lon="19.83211725018918514251708984375">
        <ele>930</ele>
        <time>2026-06-18T13:45:20.000Z</time>
        <extensions>
          <ns3:TrackPointExtension>
            <ns3:atemp>29.0</ns3:atemp>
          </ns3:TrackPointExtension>
        </extensions>
      </trkpt>
      <trkpt lat="42.5541832856833934783935546875" lon="19.832084812223911285400390625">
        <ele>930.20001220703125</ele>
        <time>2026-06-18T13:45:21.000Z</time>
        <extensions>
          <ns3:TrackPointExtension>
            <ns3:atemp>29.0</ns3:atemp>
          </ns3:TrackPointExtension>
        </extensions>
      </trkpt>
      <trkpt lat="42.5541350059211254119873046875" lon="19.83205203898251056671142578125">
        <ele>930.20001220703125</ele>
        <time>2026-06-18T13:45:22.000Z</time>
        <extensions>
          <ns3:TrackPointExtension>
            <ns3:atemp>29.0</ns3:atemp>
          </ns3:TrackPointExtension>
        </extensions>
      </trkpt>
      <trkpt lat="42.55408622324466705322265625" lon="19.83201951719820499420166015625">
        <ele>930.4000244140625</ele>
        <time>2026-06-18T13:45:23.000Z</time>
        <extensions>
          <ns3:TrackPointExtension>
            <ns3:atemp>29.0</ns3:atemp>
          </ns3:TrackPointExtension>
        </extensions>
      </trkpt>
      <trkpt lat="42.5540377758443355560302734375" lon="19.83199059963226318359375">
        <ele>930.5999755859375</ele>
        <time>2026-06-18T13:45:24.000Z</time>
        <extensions>
          <ns3:TrackPointExtension>
            <ns3:atemp>29.0</ns3:atemp>
          </ns3:TrackPointExtension>
        </extensions>
      </trkpt>
      <trkpt lat="42.5539891608059406280517578125" lon="19.8319609276950359344482421875">
        <ele>930.79998779296875</ele>
        <time>2026-06-18T13:45:25.000Z</time>
        <extensions>
          <ns3:TrackPointExtension>
            <ns3:atemp>29.0</ns3:atemp>
          </ns3:TrackPointExtension>
        </extensions>
      </trkpt>
      <trkpt lat="42.553940713405609130859375" lon="19.831928573548793792724609375">
        <ele>930.79998779296875</ele>
        <time>2026-06-18T13:45:26.000Z</time>
        <extensions>
          <ns3:TrackPointExtension>
            <ns3:atemp>29.0</ns3:atemp>
          </ns3:TrackPointExtension>
        </extensions>
      </trkpt>
      <trkpt lat="42.55389167927205562591552734375" lon="19.83189680613577365875244140625">
        <ele>930.79998779296875</ele>
        <time>2026-06-18T13:45:27.000Z</time>
        <extensions>
          <ns3:TrackPointExtension>
            <ns3:atemp>29.0</ns3:atemp>
          </ns3:TrackPointExtension>
        </extensions>
      </trkpt>
      <trkpt lat="42.55384004674851894378662109375" lon="19.8318606801331043243408203125">
        <ele>930.79998779296875</ele>
        <time>2026-06-18T13:45:28.000Z</time>
        <extensions>
          <ns3:TrackPointExtension>
            <ns3:atemp>29.0</ns3:atemp>
          </ns3:TrackPointExtension>
        </extensions>
      </trkpt>
      <trkpt lat="42.55379126407206058502197265625" lon="19.8318241350352764129638671875">
        <ele>930.79998779296875</ele>
        <time>2026-06-18T13:45:29.000Z</time>
        <extensions>
          <ns3:TrackPointExtension>
            <ns3:atemp>29.0</ns3:atemp>
          </ns3:TrackPointExtension>
        </extensions>
      </trkpt>
      <trkpt lat="42.55374290049076080322265625" lon="19.8317869193851947784423828125">
        <ele>930.79998779296875</ele>
        <time>2026-06-18T13:45:30.000Z</time>
        <extensions>
          <ns3:TrackPointExtension>
            <ns3:atemp>29.0</ns3:atemp>
          </ns3:TrackPointExtension>
        </extensions>
      </trkpt>
      <trkpt lat="42.553693614900112152099609375" lon="19.8317532241344451904296875">
        <ele>930.5999755859375</ele>
        <time>2026-06-18T13:45:31.000Z</time>
        <extensions>
          <ns3:TrackPointExtension>
            <ns3:atemp>29.0</ns3:atemp>
          </ns3:TrackPointExtension>
        </extensions>
      </trkpt>
      <trkpt lat="42.553644664585590362548828125" lon="19.83171902596950531005859375">
        <ele>930.79998779296875</ele>
        <time>2026-06-18T13:45:32.000Z</time>
        <extensions>
          <ns3:TrackPointExtension>
            <ns3:atemp>29.0</ns3:atemp>
          </ns3:TrackPointExtension>
        </extensions>
      </trkpt>
      <trkpt lat="42.55359713919460773468017578125" lon="19.83169220387935638427734375">
        <ele>930.79998779296875</ele>
        <time>2026-06-18T13:45:33.000Z</time>
        <extensions>
          <ns3:TrackPointExtension>
            <ns3:atemp>29.0</ns3:atemp>
          </ns3:TrackPointExtension>
        </extensions>
      </trkpt>
      <trkpt lat="42.5535516254603862762451171875" lon="19.8316645435988903045654296875">
        <ele>931</ele>
        <time>2026-06-18T13:45:34.000Z</time>
        <extensions>
          <ns3:TrackPointExtension>
            <ns3:atemp>29.0</ns3:atemp>
          </ns3:TrackPointExtension>
        </extensions>
      </trkpt>
      <trkpt lat="42.5535060279071331024169921875" lon="19.83163185417652130126953125">
        <ele>931.20001220703125</ele>
        <time>2026-06-18T13:45:35.000Z</time>
        <extensions>
          <ns3:TrackPointExtension>
            <ns3:atemp>29.0</ns3:atemp>
          </ns3:TrackPointExtension>
        </extensions>
      </trkpt>
      <trkpt lat="42.55345858633518218994140625" lon="19.8315887711942195892333984375">
        <ele>931.20001220703125</ele>
        <time>2026-06-18T13:45:36.000Z</time>
        <extensions>
          <ns3:TrackPointExtension>
            <ns3:atemp>29.0</ns3:atemp>
          </ns3:TrackPointExtension>
        </extensions>
      </trkpt>
      <trkpt lat="42.55341005511581897735595703125" lon="19.831539653241634368896484375">
        <ele>931.4000244140625</ele>
        <time>2026-06-18T13:45:37.000Z</time>
        <extensions>
          <ns3:TrackPointExtension>
            <ns3:atemp>29.0</ns3:atemp>
          </ns3:TrackPointExtension>
        </extensions>
      </trkpt>
      <trkpt lat="42.553361356258392333984375" lon="19.8314948938786983489990234375">
        <ele>931.5999755859375</ele>
        <time>2026-06-18T13:45:38.000Z</time>
        <extensions>
          <ns3:TrackPointExtension>
            <ns3:atemp>29.0</ns3:atemp>
          </ns3:TrackPointExtension>
        </extensions>
      </trkpt>
      <trkpt lat="42.55331282503902912139892578125" lon="19.8314553312957286834716796875">
        <ele>931.5999755859375</ele>
        <time>2026-06-18T13:45:39.000Z</time>
        <extensions>
          <ns3:TrackPointExtension>
            <ns3:atemp>29.0</ns3:atemp>
          </ns3:TrackPointExtension>
        </extensions>
      </trkpt>
      <trkpt lat="42.55326555110514163970947265625" lon="19.8314157687127590179443359375">
        <ele>931.5999755859375</ele>
        <time>2026-06-18T13:45:40.000Z</time>
        <extensions>
          <ns3:TrackPointExtension>
            <ns3:atemp>29.0</ns3:atemp>
          </ns3:TrackPointExtension>
        </extensions>
      </trkpt>
      <trkpt lat="42.553218863904476165771484375" lon="19.831374697387218475341796875">
        <ele>931.5999755859375</ele>
        <time>2026-06-18T13:45:41.000Z</time>
        <extensions>
          <ns3:TrackPointExtension>
            <ns3:atemp>29.0</ns3:atemp>
          </ns3:TrackPointExtension>
        </extensions>
      </trkpt>
      <trkpt lat="42.55317318253219127655029296875" lon="19.83133387751877307891845703125">
        <ele>931.5999755859375</ele>
        <time>2026-06-18T13:45:42.000Z</time>
        <extensions>
          <ns3:TrackPointExtension>
            <ns3:atemp>29.0</ns3:atemp>
          </ns3:TrackPointExtension>
        </extensions>
      </trkpt>
      <trkpt lat="42.55312473513185977935791015625" lon="19.8312897048890590667724609375">
        <ele>931.5999755859375</ele>
        <time>2026-06-18T13:45:43.000Z</time>
        <extensions>
          <ns3:TrackPointExtension>
            <ns3:atemp>29.0</ns3:atemp>
          </ns3:TrackPointExtension>
        </extensions>
      </trkpt>
      <trkpt lat="42.5530755333602428436279296875" lon="19.83124469406902790069580078125">
        <ele>931.4000244140625</ele>
        <time>2026-06-18T13:45:44.000Z</time>
        <extensions>
          <ns3:TrackPointExtension>
            <ns3:atemp>29.0</ns3:atemp>
          </ns3:TrackPointExtension>
        </extensions>
      </trkpt>
      <trkpt lat="42.5530228950083255767822265625" lon="19.83119775541126728057861328125">
        <ele>931.20001220703125</ele>
        <time>2026-06-18T13:45:45.000Z</time>
        <extensions>
          <ns3:TrackPointExtension>
            <ns3:atemp>29.0</ns3:atemp>
          </ns3:TrackPointExtension>
        </extensions>
      </trkpt>
      <trkpt lat="42.55296598188579082489013671875" lon="19.83115534298121929168701171875">
        <ele>931</ele>
        <time>2026-06-18T13:45:46.000Z</time>
        <extensions>
          <ns3:TrackPointExtension>
            <ns3:atemp>29.0</ns3:atemp>
          </ns3:TrackPointExtension>
        </extensions>
      </trkpt>
      <trkpt lat="42.5529058836400508880615234375" lon="19.8311240784823894500732421875">
        <ele>930.79998779296875</ele>
        <time>2026-06-18T13:45:47.000Z</time>
        <extensions>
          <ns3:TrackPointExtension>
            <ns3:atemp>29.0</ns3:atemp>
          </ns3:TrackPointExtension>
        </extensions>
      </trkpt>
      <trkpt lat="42.55284368991851806640625" lon="19.83110102824866771697998046875">
        <ele>930.5999755859375</ele>
        <time>2026-06-18T13:45:48.000Z</time>
        <extensions>
          <ns3:TrackPointExtension>
            <ns3:atemp>29.0</ns3:atemp>
          </ns3:TrackPointExtension>
        </extensions>
      </trkpt>
      <trkpt lat="42.55278266966342926025390625" lon="19.83109046705067157745361328125">
        <ele>930.5999755859375</ele>
        <time>2026-06-18T13:45:49.000Z</time>
        <extensions>
          <ns3:TrackPointExtension>
            <ns3:atemp>29.0</ns3:atemp>
          </ns3:TrackPointExtension>
        </extensions>
      </trkpt>
      <trkpt lat="42.5527241639792919158935546875" lon="19.83108409680426120758056640625">
        <ele>930.4000244140625</ele>
        <time>2026-06-18T13:45:50.000Z</time>
        <extensions>
          <ns3:TrackPointExtension>
            <ns3:atemp>29.0</ns3:atemp>
          </ns3:TrackPointExtension>
        </extensions>
      </trkpt>
      <trkpt lat="42.55266674794256687164306640625" lon="19.831088371574878692626953125">
        <ele>930.20001220703125</ele>
        <time>2026-06-18T13:45:51.000Z</time>
        <extensions>
          <ns3:TrackPointExtension>
            <ns3:atemp>29.0</ns3:atemp>
          </ns3:TrackPointExtension>
        </extensions>
      </trkpt>
      <trkpt lat="42.552607320249080657958984375" lon="19.83109130524098873138427734375">
        <ele>930.20001220703125</ele>
        <time>2026-06-18T13:45:52.000Z</time>
        <extensions>
          <ns3:TrackPointExtension>
            <ns3:atemp>29.0</ns3:atemp>
          </ns3:TrackPointExtension>
        </extensions>
      </trkpt>
      <trkpt lat="42.5525454618036746978759765625" lon="19.8310960829257965087890625">
        <ele>930</ele>
        <time>2026-06-18T13:45:53.000Z</time>
        <extensions>
          <ns3:TrackPointExtension>
            <ns3:atemp>29.0</ns3:atemp>
          </ns3:TrackPointExtension>
        </extensions>
      </trkpt>
      <trkpt lat="42.5524847768247127532958984375" lon="19.83110354281961917877197265625">
        <ele>930</ele>
        <time>2026-06-18T13:45:54.000Z</time>
        <extensions>
          <ns3:TrackPointExtension>
            <ns3:atemp>29.0</ns3:atemp>
          </ns3:TrackPointExtension>
        </extensions>
      </trkpt>
      <trkpt lat="42.55242266692221164703369140625" lon="19.83110756613314151763916015625">
        <ele>929.79998779296875</ele>
        <time>2026-06-18T13:45:55.000Z</time>
        <extensions>
          <ns3:TrackPointExtension>
            <ns3:atemp>29.0</ns3:atemp>
          </ns3:TrackPointExtension>
        </extensions>
      </trkpt>
      <trkpt lat="42.55235997028648853302001953125" lon="19.8311019502580165863037109375">
        <ele>929.79998779296875</ele>
        <time>2026-06-18T13:45:56.000Z</time>
        <extensions>
          <ns3:TrackPointExtension>
            <ns3:atemp>29.0</ns3:atemp>
          </ns3:TrackPointExtension>
        </extensions>
      </trkpt>
      <trkpt lat="42.552300207316875457763671875" lon="19.8310826718807220458984375">
        <ele>929.5999755859375</ele>
        <time>2026-06-18T13:45:57.000Z</time>
        <extensions>
          <ns3:TrackPointExtension>
            <ns3:atemp>29.0</ns3:atemp>
          </ns3:TrackPointExtension>
        </extensions>
      </trkpt>
      <trkpt lat="42.55223952233791351318359375" lon="19.83105811290442943572998046875">
        <ele>929.5999755859375</ele>
        <time>2026-06-18T13:45:58.000Z</time>
        <extensions>
          <ns3:TrackPointExtension>
            <ns3:atemp>29.0</ns3:atemp>
          </ns3:TrackPointExtension>
        </extensions>
      </trkpt>
      <trkpt lat="42.55218160338699817657470703125" lon="19.83103011734783649444580078125">
        <ele>929.4000244140625</ele>
        <time>2026-06-18T13:45:59.000Z</time>
        <extensions>
          <ns3:TrackPointExtension>
            <ns3:atemp>29.0</ns3:atemp>
          </ns3:TrackPointExtension>
        </extensions>
      </trkpt>
      <trkpt lat="42.552124522626399993896484375" lon="19.83100153505802154541015625">
        <ele>929.4000244140625</ele>
        <time>2026-06-18T13:46:00.000Z</time>
        <extensions>
          <ns3:TrackPointExtension>
            <ns3:atemp>29.0</ns3:atemp>
          </ns3:TrackPointExtension>
        </extensions>
      </trkpt>
      <trkpt lat="42.5520653463900089263916015625" lon="19.83097379095852375030517578125">
        <ele>929.20001220703125</ele>
        <time>2026-06-18T13:46:01.000Z</time>
        <extensions>
          <ns3:TrackPointExtension>
            <ns3:atemp>29.0</ns3:atemp>
          </ns3:TrackPointExtension>
        </extensions>
      </trkpt>
      <trkpt lat="42.55200843326747417449951171875" lon="19.830943532288074493408203125">
        <ele>929.20001220703125</ele>
        <time>2026-06-18T13:46:02.000Z</time>
        <extensions>
          <ns3:TrackPointExtension>
            <ns3:atemp>29.0</ns3:atemp>
          </ns3:TrackPointExtension>
        </extensions>
      </trkpt>
      <trkpt lat="42.5519533641636371612548828125" lon="19.8309141956269741058349609375">
        <ele>929</ele>
        <time>2026-06-18T13:46:03.000Z</time>
        <extensions>
          <ns3:TrackPointExtension>
            <ns3:atemp>29.0</ns3:atemp>
          </ns3:TrackPointExtension>
        </extensions>
      </trkpt>
      <trkpt lat="42.55189946852624416351318359375" lon="19.83088159002363681793212890625">
        <ele>929</ele>
        <time>2026-06-18T13:46:04.000Z</time>
        <extensions>
          <ns3:TrackPointExtension>
            <ns3:atemp>29.0</ns3:atemp>
          </ns3:TrackPointExtension>
        </extensions>
      </trkpt>
      <trkpt lat="42.55184389650821685791015625" lon="19.830846972763538360595703125">
        <ele>929</ele>
        <time>2026-06-18T13:46:05.000Z</time>
        <extensions>
          <ns3:TrackPointExtension>
            <ns3:atemp>29.0</ns3:atemp>
          </ns3:TrackPointExtension>
        </extensions>
      </trkpt>
      <trkpt lat="42.5517900846898555755615234375" lon="19.830809421837329864501953125">
        <ele>929</ele>
        <time>2026-06-18T13:46:06.000Z</time>
        <extensions>
          <ns3:TrackPointExtension>
            <ns3:atemp>29.0</ns3:atemp>
          </ns3:TrackPointExtension>
        </extensions>
      </trkpt>
      <trkpt lat="42.55173753015697002410888671875" lon="19.83076524920761585235595703125">
        <ele>929</ele>
        <time>2026-06-18T13:46:07.000Z</time>
        <extensions>
          <ns3:TrackPointExtension>
            <ns3:atemp>29.0</ns3:atemp>
          </ns3:TrackPointExtension>
        </extensions>
      </trkpt>
      <trkpt lat="42.551687657833099365234375" lon="19.8307254351675510406494140625">
        <ele>929</ele>
        <time>2026-06-18T13:46:08.000Z</time>
        <extensions>
          <ns3:TrackPointExtension>
            <ns3:atemp>29.0</ns3:atemp>
          </ns3:TrackPointExtension>
        </extensions>
      </trkpt>
      <trkpt lat="42.55163736641407012939453125" lon="19.830683358013629913330078125">
        <ele>929</ele>
        <time>2026-06-18T13:46:09.000Z</time>
        <extensions>
          <ns3:TrackPointExtension>
            <ns3:atemp>29.0</ns3:atemp>
          </ns3:TrackPointExtension>
        </extensions>
      </trkpt>
      <trkpt lat="42.5515835545957088470458984375" lon="19.8306453041732311248779296875">
        <ele>929</ele>
        <time>2026-06-18T13:46:10.000Z</time>
        <extensions>
          <ns3:TrackPointExtension>
            <ns3:atemp>29.0</ns3:atemp>
          </ns3:TrackPointExtension>
        </extensions>
      </trkpt>
      <trkpt lat="42.55152605473995208740234375" lon="19.83061806298792362213134765625">
        <ele>929</ele>
        <time>2026-06-18T13:46:11.000Z</time>
        <extensions>
          <ns3:TrackPointExtension>
            <ns3:atemp>29.0</ns3:atemp>
          </ns3:TrackPointExtension>
        </extensions>
      </trkpt>
      <trkpt lat="42.55146947689354419708251953125" lon="19.83059392310678958892822265625">
        <ele>929.20001220703125</ele>
        <time>2026-06-18T13:46:12.000Z</time>
        <extensions>
          <ns3:TrackPointExtension>
            <ns3:atemp>29.0</ns3:atemp>
          </ns3:TrackPointExtension>
        </extensions>
      </trkpt>
      <trkpt lat="42.55141365341842174530029296875" lon="19.8305705375969409942626953125">
        <ele>929.20001220703125</ele>
        <time>2026-06-18T13:46:13.000Z</time>
        <extensions>
          <ns3:TrackPointExtension>
            <ns3:atemp>29.0</ns3:atemp>
          </ns3:TrackPointExtension>
        </extensions>
      </trkpt>
      <trkpt lat="42.5513545610010623931884765625" lon="19.83054765500128269195556640625">
        <ele>929.20001220703125</ele>
        <time>2026-06-18T13:46:14.000Z</time>
        <extensions>
          <ns3:TrackPointExtension>
            <ns3:atemp>29.0</ns3:atemp>
          </ns3:TrackPointExtension>
        </extensions>
      </trkpt>
      <trkpt lat="42.55129664205014705657958984375" lon="19.83052485622465610504150390625">
        <ele>929.20001220703125</ele>
        <time>2026-06-18T13:46:15.000Z</time>
        <extensions>
          <ns3:TrackPointExtension>
            <ns3:atemp>29.0</ns3:atemp>
          </ns3:TrackPointExtension>
        </extensions>
      </trkpt>
      <trkpt lat="42.5512357056140899658203125" lon="19.83050373382866382598876953125">
        <ele>929.20001220703125</ele>
        <time>2026-06-18T13:46:16.000Z</time>
        <extensions>
          <ns3:TrackPointExtension>
            <ns3:atemp>29.0</ns3:atemp>
          </ns3:TrackPointExtension>
        </extensions>
      </trkpt>
      <trkpt lat="42.55117694847285747528076171875" lon="19.83048252761363983154296875">
        <ele>929.20001220703125</ele>
        <time>2026-06-18T13:46:17.000Z</time>
        <extensions>
          <ns3:TrackPointExtension>
            <ns3:atemp>29.0</ns3:atemp>
          </ns3:TrackPointExtension>
        </extensions>
      </trkpt>
      <trkpt lat="42.55111844278872013092041015625" lon="19.8304612375795841217041015625">
        <ele>929</ele>
        <time>2026-06-18T13:46:18.000Z</time>
        <extensions>
          <ns3:TrackPointExtension>
            <ns3:atemp>29.0</ns3:atemp>
          </ns3:TrackPointExtension>
        </extensions>
      </trkpt>
      <trkpt lat="42.5510568358004093170166015625" lon="19.8304397799074649810791015625">
        <ele>929</ele>
        <time>2026-06-18T13:46:19.000Z</time>
        <extensions>
          <ns3:TrackPointExtension>
            <ns3:atemp>29.0</ns3:atemp>
          </ns3:TrackPointExtension>
        </extensions>
      </trkpt>
      <trkpt lat="42.5509971566498279571533203125" lon="19.83042159117758274078369140625">
        <ele>928.79998779296875</ele>
        <time>2026-06-18T13:46:20.000Z</time>
        <extensions>
          <ns3:TrackPointExtension>
            <ns3:atemp>29.0</ns3:atemp>
          </ns3:TrackPointExtension>
        </extensions>
      </trkpt>
      <trkpt lat="42.55093596875667572021484375" lon="19.83040340244770050048828125">
        <ele>928.79998779296875</ele>
        <time>2026-06-18T13:46:21.000Z</time>
        <extensions>
          <ns3:TrackPointExtension>
            <ns3:atemp>29.0</ns3:atemp>
          </ns3:TrackPointExtension>
        </extensions>
      </trkpt>
      <trkpt lat="42.5508747808635234832763671875" lon="19.83038554899394512176513671875">
        <ele>928.79998779296875</ele>
        <time>2026-06-18T13:46:22.000Z</time>
        <extensions>
          <ns3:TrackPointExtension>
            <ns3:atemp>29.0</ns3:atemp>
          </ns3:TrackPointExtension>
        </extensions>
      </trkpt>
      <trkpt lat="42.55081585608422756195068359375" lon="19.830370880663394927978515625">
        <ele>928.79998779296875</ele>
        <time>2026-06-18T13:46:23.000Z</time>
        <extensions>
          <ns3:TrackPointExtension>
            <ns3:atemp>29.0</ns3:atemp>
          </ns3:TrackPointExtension>
        </extensions>
      </trkpt>
      <trkpt lat="42.55075450055301189422607421875" lon="19.83035906217992305755615234375">
        <ele>928.79998779296875</ele>
        <time>2026-06-18T13:46:24.000Z</time>
        <extensions>
          <ns3:TrackPointExtension>
            <ns3:atemp>29.0</ns3:atemp>
          </ns3:TrackPointExtension>
        </extensions>
      </trkpt>
      <trkpt lat="42.55069264210760593414306640625" lon="19.83034514822065830230712890625">
        <ele>928.79998779296875</ele>
        <time>2026-06-18T13:46:25.000Z</time>
        <extensions>
          <ns3:TrackPointExtension>
            <ns3:atemp>29.0</ns3:atemp>
          </ns3:TrackPointExtension>
        </extensions>
      </trkpt>
      <trkpt lat="42.5506323762238025665283203125" lon="19.83032570220530033111572265625">
        <ele>928.79998779296875</ele>
        <time>2026-06-18T13:46:26.000Z</time>
        <extensions>
          <ns3:TrackPointExtension>
            <ns3:atemp>29.0</ns3:atemp>
          </ns3:TrackPointExtension>
        </extensions>
      </trkpt>
      <trkpt lat="42.55057076923549175262451171875" lon="19.83030038885772228240966796875">
        <ele>928.5999755859375</ele>
        <time>2026-06-18T13:46:27.000Z</time>
        <extensions>
          <ns3:TrackPointExtension>
            <ns3:atemp>29.0</ns3:atemp>
          </ns3:TrackPointExtension>
        </extensions>
      </trkpt>
      <trkpt lat="42.55051176063716411590576171875" lon="19.83027289621531963348388671875">
        <ele>928.79998779296875</ele>
        <time>2026-06-18T13:46:28.000Z</time>
        <extensions>
          <ns3:TrackPointExtension>
            <ns3:atemp>29.0</ns3:atemp>
          </ns3:TrackPointExtension>
        </extensions>
      </trkpt>
      <trkpt lat="42.55045375786721706390380859375" lon="19.83024490065872669219970703125">
        <ele>928.79998779296875</ele>
        <time>2026-06-18T13:46:29.000Z</time>
        <extensions>
          <ns3:TrackPointExtension>
            <ns3:atemp>29.0</ns3:atemp>
          </ns3:TrackPointExtension>
        </extensions>
      </trkpt>
      <trkpt lat="42.5503943301737308502197265625" lon="19.8302225209772586822509765625">
        <ele>929</ele>
        <time>2026-06-18T13:46:30.000Z</time>
        <extensions>
          <ns3:TrackPointExtension>
            <ns3:atemp>29.0</ns3:atemp>
          </ns3:TrackPointExtension>
        </extensions>
      </trkpt>
      <trkpt lat="42.55033691413700580596923828125" lon="19.83019745908677577972412109375">
        <ele>929.20001220703125</ele>
        <time>2026-06-18T13:46:31.000Z</time>
        <extensions>
          <ns3:TrackPointExtension>
            <ns3:atemp>29.0</ns3:atemp>
          </ns3:TrackPointExtension>
        </extensions>
      </trkpt>
      <trkpt lat="42.5502793304622173309326171875" lon="19.83016611076891422271728515625">
        <ele>929.4000244140625</ele>
        <time>2026-06-18T13:46:32.000Z</time>
        <extensions>
          <ns3:TrackPointExtension>
            <ns3:atemp>29.0</ns3:atemp>
          </ns3:TrackPointExtension>
        </extensions>
      </trkpt>
      <trkpt lat="42.55022250115871429443359375" lon="19.83013107441365718841552734375">
        <ele>929.4000244140625</ele>
        <time>2026-06-18T13:46:33.000Z</time>
        <extensions>
          <ns3:TrackPointExtension>
            <ns3:atemp>29.0</ns3:atemp>
          </ns3:TrackPointExtension>
        </extensions>
      </trkpt>
      <trkpt lat="42.55016374401748180389404296875" lon="19.83009897172451019287109375">
        <ele>929.4000244140625</ele>
        <time>2026-06-18T13:46:34.000Z</time>
        <extensions>
          <ns3:TrackPointExtension>
            <ns3:atemp>29.0</ns3:atemp>
          </ns3:TrackPointExtension>
        </extensions>
      </trkpt>
      <trkpt lat="42.5501056574285030364990234375" lon="19.83006821013987064361572265625">
        <ele>929.4000244140625</ele>
        <time>2026-06-18T13:46:35.000Z</time>
        <extensions>
          <ns3:TrackPointExtension>
            <ns3:atemp>29.0</ns3:atemp>
          </ns3:TrackPointExtension>
        </extensions>
      </trkpt>
      <trkpt lat="42.55004815757274627685546875" lon="19.8300421424210071563720703125">
        <ele>929.4000244140625</ele>
        <time>2026-06-18T13:46:36.000Z</time>
        <extensions>
          <ns3:TrackPointExtension>
            <ns3:atemp>29.0</ns3:atemp>
          </ns3:TrackPointExtension>
        </extensions>
      </trkpt>
      <trkpt lat="42.5499899871647357940673828125" lon="19.8300124704837799072265625">
        <ele>929.5999755859375</ele>
        <time>2026-06-18T13:46:37.000Z</time>
        <extensions>
          <ns3:TrackPointExtension>
            <ns3:atemp>29.0</ns3:atemp>
          </ns3:TrackPointExtension>
        </extensions>
      </trkpt>
      <trkpt lat="42.5499299727380275726318359375" lon="19.82998170889914035797119140625">
        <ele>929.5999755859375</ele>
        <time>2026-06-18T13:46:38.000Z</time>
        <extensions>
          <ns3:TrackPointExtension>
            <ns3:atemp>29.0</ns3:atemp>
          </ns3:TrackPointExtension>
        </extensions>
      </trkpt>
      <trkpt lat="42.54986853338778018951416015625" lon="19.82995522208511829376220703125">
        <ele>929.5999755859375</ele>
        <time>2026-06-18T13:46:39.000Z</time>
        <extensions>
          <ns3:TrackPointExtension>
            <ns3:atemp>29.0</ns3:atemp>
          </ns3:TrackPointExtension>
        </extensions>
      </trkpt>
      <trkpt lat="42.54980675876140594482421875" lon="19.8299365304410457611083984375">
        <ele>929.5999755859375</ele>
        <time>2026-06-18T13:46:40.000Z</time>
        <extensions>
          <ns3:TrackPointExtension>
            <ns3:atemp>29.0</ns3:atemp>
          </ns3:TrackPointExtension>
        </extensions>
      </trkpt>
      <trkpt lat="42.54974464885890483856201171875" lon="19.82991213910281658172607421875">
        <ele>929.5999755859375</ele>
        <time>2026-06-18T13:46:41.000Z</time>
        <extensions>
          <ns3:TrackPointExtension>
            <ns3:atemp>29.0</ns3:atemp>
          </ns3:TrackPointExtension>
        </extensions>
      </trkpt>
      <trkpt lat="42.5496852211654186248779296875" lon="19.82988816685974597930908203125">
        <ele>929.5999755859375</ele>
        <time>2026-06-18T13:46:42.000Z</time>
        <extensions>
          <ns3:TrackPointExtension>
            <ns3:atemp>29.0</ns3:atemp>
          </ns3:TrackPointExtension>
        </extensions>
      </trkpt>
      <trkpt lat="42.54964557476341724395751953125" lon="19.829876013100147247314453125">
        <ele>929.5999755859375</ele>
        <time>2026-06-18T13:46:43.000Z</time>
        <extensions>
          <ns3:TrackPointExtension>
            <ns3:atemp>29.0</ns3:atemp>
          </ns3:TrackPointExtension>
        </extensions>
      </trkpt>
      <trkpt lat="42.54962327890098094940185546875" lon="19.82987291179597377777099609375">
        <ele>929.79998779296875</ele>
        <time>2026-06-18T13:46:44.000Z</time>
        <extensions>
          <ns3:TrackPointExtension>
            <ns3:atemp>29.0</ns3:atemp>
          </ns3:TrackPointExtension>
        </extensions>
      </trkpt>
      <trkpt lat="42.54961120896041393280029296875" lon="19.8298647813498973846435546875">
        <ele>930</ele>
        <time>2026-06-18T13:46:45.000Z</time>
        <extensions>
          <ns3:TrackPointExtension>
            <ns3:atemp>29.0</ns3:atemp>
          </ns3:TrackPointExtension>
        </extensions>
      </trkpt>
      <trkpt lat="42.54960299469530582427978515625" lon="19.82985631562769412994384765625">
        <ele>930</ele>
        <time>2026-06-18T13:46:46.000Z</time>
        <extensions>
          <ns3:TrackPointExtension>
            <ns3:atemp>29.0</ns3:atemp>
          </ns3:TrackPointExtension>
        </extensions>
      </trkpt>
      <trkpt lat="42.54959092475473880767822265625" lon="19.829854555428028106689453125">
        <ele>930.20001220703125</ele>
        <time>2026-06-18T13:46:47.000Z</time>
        <extensions>
          <ns3:TrackPointExtension>
            <ns3:atemp>29.0</ns3:atemp>
          </ns3:TrackPointExtension>
        </extensions>
      </trkpt>
      <trkpt lat="42.54958338104188442230224609375" lon="19.829856567084789276123046875">
        <ele>930.20001220703125</ele>
        <time>2026-06-18T13:46:48.000Z</time>
        <extensions>
          <ns3:TrackPointExtension>
            <ns3:atemp>29.0</ns3:atemp>
          </ns3:TrackPointExtension>
        </extensions>
      </trkpt>
      <trkpt lat="42.54957684315741062164306640625" lon="19.8298607580363750457763671875">
        <ele>930.20001220703125</ele>
        <time>2026-06-18T13:46:49.000Z</time>
        <extensions>
          <ns3:TrackPointExtension>
            <ns3:atemp>29.0</ns3:atemp>
          </ns3:TrackPointExtension>
        </extensions>
      </trkpt>
      <trkpt lat="42.549567036330699920654296875" lon="19.829868972301483154296875">
        <ele>930</ele>
        <time>2026-06-18T13:46:50.000Z</time>
        <extensions>
          <ns3:TrackPointExtension>
            <ns3:atemp>29.0</ns3:atemp>
          </ns3:TrackPointExtension>
        </extensions>
      </trkpt>
      <trkpt lat="42.549552284181118011474609375" lon="19.8298745043575763702392578125">
        <ele>930</ele>
        <time>2026-06-18T13:46:51.000Z</time>
        <extensions>
          <ns3:TrackPointExtension>
            <ns3:atemp>29.0</ns3:atemp>
          </ns3:TrackPointExtension>
        </extensions>
      </trkpt>
      <trkpt lat="42.5495313294231891632080078125" lon="19.8298848979175090789794921875">
        <ele>930</ele>
        <time>2026-06-18T13:46:52.000Z</time>
        <extensions>
          <ns3:TrackPointExtension>
            <ns3:atemp>29.0</ns3:atemp>
          </ns3:TrackPointExtension>
        </extensions>
      </trkpt>
      <trkpt lat="42.54950442351400852203369140625" lon="19.8298946209251880645751953125">
        <ele>930</ele>
        <time>2026-06-18T13:46:53.000Z</time>
        <extensions>
          <ns3:TrackPointExtension>
            <ns3:atemp>29.0</ns3:atemp>
          </ns3:TrackPointExtension>
        </extensions>
      </trkpt>
      <trkpt lat="42.54947223700582981109619140625" lon="19.829910881817340850830078125">
        <ele>929.79998779296875</ele>
        <time>2026-06-18T13:46:54.000Z</time>
        <extensions>
          <ns3:TrackPointExtension>
            <ns3:atemp>29.0</ns3:atemp>
          </ns3:TrackPointExtension>
        </extensions>
      </trkpt>
      <trkpt lat="42.549434266984462738037109375" lon="19.82993057928979396820068359375">
        <ele>929.5999755859375</ele>
        <time>2026-06-18T13:46:55.000Z</time>
        <extensions>
          <ns3:TrackPointExtension>
            <ns3:atemp>29.0</ns3:atemp>
          </ns3:TrackPointExtension>
        </extensions>
      </trkpt>
      <trkpt lat="42.5493911840021610260009765625" lon="19.82994751073420047760009765625">
        <ele>929.5999755859375</ele>
        <time>2026-06-18T13:46:56.000Z</time>
        <extensions>
          <ns3:TrackPointExtension>
            <ns3:atemp>29.0</ns3:atemp>
          </ns3:TrackPointExtension>
        </extensions>
      </trkpt>
      <trkpt lat="42.54934852011501789093017578125" lon="19.82996460981667041778564453125">
        <ele>929.4000244140625</ele>
        <time>2026-06-18T13:46:57.000Z</time>
        <extensions>
          <ns3:TrackPointExtension>
            <ns3:atemp>29.0</ns3:atemp>
          </ns3:TrackPointExtension>
        </extensions>
      </trkpt>
      <trkpt lat="42.5493056885898113250732421875" lon="19.8299787752330303192138671875">
        <ele>929.4000244140625</ele>
        <time>2026-06-18T13:46:58.000Z</time>
        <extensions>
          <ns3:TrackPointExtension>
            <ns3:atemp>29.0</ns3:atemp>
          </ns3:TrackPointExtension>
        </extensions>
      </trkpt>
      <trkpt lat="42.549265287816524505615234375" lon="19.8299968801438808441162109375">
        <ele>929.5999755859375</ele>
        <time>2026-06-18T13:46:59.000Z</time>
        <extensions>
          <ns3:TrackPointExtension>
            <ns3:atemp>29.0</ns3:atemp>
          </ns3:TrackPointExtension>
        </extensions>
      </trkpt>
      <trkpt lat="42.54922580905258655548095703125" lon="19.8300126381218433380126953125">
        <ele>929.5999755859375</ele>
        <time>2026-06-18T13:47:00.000Z</time>
        <extensions>
          <ns3:TrackPointExtension>
            <ns3:atemp>29.0</ns3:atemp>
          </ns3:TrackPointExtension>
        </extensions>
      </trkpt>
      <trkpt lat="42.549183480441570281982421875" lon="19.83002915047109127044677734375">
        <ele>929.79998779296875</ele>
        <time>2026-06-18T13:47:01.000Z</time>
        <extensions>
          <ns3:TrackPointExtension>
            <ns3:atemp>29.0</ns3:atemp>
          </ns3:TrackPointExtension>
        </extensions>
      </trkpt>
      <trkpt lat="42.5491382181644439697265625" lon="19.83004666864871978759765625">
        <ele>929.79998779296875</ele>
        <time>2026-06-18T13:47:02.000Z</time>
        <extensions>
          <ns3:TrackPointExtension>
            <ns3:atemp>29.0</ns3:atemp>
          </ns3:TrackPointExtension>
        </extensions>
      </trkpt>
      <trkpt lat="42.549093626439571380615234375" lon="19.83006603084504604339599609375">
        <ele>930</ele>
        <time>2026-06-18T13:47:03.000Z</time>
        <extensions>
          <ns3:TrackPointExtension>
            <ns3:atemp>29.0</ns3:atemp>
          </ns3:TrackPointExtension>
        </extensions>
      </trkpt>
      <trkpt lat="42.54904794506728649139404296875" lon="19.830082543194293975830078125">
        <ele>930</ele>
        <time>2026-06-18T13:47:04.000Z</time>
        <extensions>
          <ns3:TrackPointExtension>
            <ns3:atemp>29.0</ns3:atemp>
          </ns3:TrackPointExtension>
        </extensions>
      </trkpt>
      <trkpt lat="42.549000084400177001953125" lon="19.83009771443903446197509765625">
        <ele>930.20001220703125</ele>
        <time>2026-06-18T13:47:05.000Z</time>
        <extensions>
          <ns3:TrackPointExtension>
            <ns3:atemp>29.0</ns3:atemp>
          </ns3:TrackPointExtension>
        </extensions>
      </trkpt>
      <trkpt lat="42.54894283600151538848876953125" lon="19.8301169089972972869873046875">
        <ele>930</ele>
        <time>2026-06-18T13:47:06.000Z</time>
        <extensions>
          <ns3:TrackPointExtension>
            <ns3:atemp>29.0</ns3:atemp>
          </ns3:TrackPointExtension>
        </extensions>
      </trkpt>
      <trkpt lat="42.54888198338449001312255859375" lon="19.83014130033552646636962890625">
        <ele>930</ele>
        <time>2026-06-18T13:47:07.000Z</time>
        <extensions>
          <ns3:TrackPointExtension>
            <ns3:atemp>29.0</ns3:atemp>
          </ns3:TrackPointExtension>
        </extensions>
      </trkpt>
      <trkpt lat="42.54882113076746463775634765625" lon="19.8301648534834384918212890625">
        <ele>930</ele>
        <time>2026-06-18T13:47:08.000Z</time>
        <extensions>
          <ns3:TrackPointExtension>
            <ns3:atemp>29.0</ns3:atemp>
          </ns3:TrackPointExtension>
        </extensions>
      </trkpt>
      <trkpt lat="42.5487575121223926544189453125" lon="19.83018882572650909423828125">
        <ele>929.79998779296875</ele>
        <time>2026-06-18T13:47:09.000Z</time>
        <extensions>
          <ns3:TrackPointExtension>
            <ns3:atemp>29.0</ns3:atemp>
          </ns3:TrackPointExtension>
        </extensions>
      </trkpt>
      <trkpt lat="42.54869389347732067108154296875" lon="19.830212295055389404296875">
        <ele>929.5999755859375</ele>
        <time>2026-06-18T13:47:10.000Z</time>
        <extensions>
          <ns3:TrackPointExtension>
            <ns3:atemp>29.0</ns3:atemp>
          </ns3:TrackPointExtension>
        </extensions>
      </trkpt>
      <trkpt lat="42.54862784408032894134521484375" lon="19.83023148961365222930908203125">
        <ele>929.5999755859375</ele>
        <time>2026-06-18T13:47:11.000Z</time>
        <extensions>
          <ns3:TrackPointExtension>
            <ns3:atemp>29.0</ns3:atemp>
          </ns3:TrackPointExtension>
        </extensions>
      </trkpt>
      <trkpt lat="42.548563219606876373291015625" lon="19.83025009743869304656982421875">
        <ele>929.4000244140625</ele>
        <time>2026-06-18T13:47:12.000Z</time>
        <extensions>
          <ns3:TrackPointExtension>
            <ns3:atemp>29.0</ns3:atemp>
          </ns3:TrackPointExtension>
        </extensions>
      </trkpt>
      <trkpt lat="42.54849859513342380523681640625" lon="19.83026736415922641754150390625">
        <ele>929.4000244140625</ele>
        <time>2026-06-18T13:47:13.000Z</time>
        <extensions>
          <ns3:TrackPointExtension>
            <ns3:atemp>29.0</ns3:atemp>
          </ns3:TrackPointExtension>
        </extensions>
      </trkpt>
      <trkpt lat="42.548438496887683868408203125" lon="19.83028672635555267333984375">
        <ele>929.4000244140625</ele>
        <time>2026-06-18T13:47:14.000Z</time>
        <extensions>
          <ns3:TrackPointExtension>
            <ns3:atemp>29.0</ns3:atemp>
          </ns3:TrackPointExtension>
        </extensions>
      </trkpt>
      <trkpt lat="42.54837906919419765472412109375" lon="19.8303083516657352447509765625">
        <ele>929.4000244140625</ele>
        <time>2026-06-18T13:47:15.000Z</time>
        <extensions>
          <ns3:TrackPointExtension>
            <ns3:atemp>29.0</ns3:atemp>
          </ns3:TrackPointExtension>
        </extensions>
      </trkpt>
      <trkpt lat="42.54831637255847454071044921875" lon="19.830332659184932708740234375">
        <ele>929.20001220703125</ele>
        <time>2026-06-18T13:47:16.000Z</time>
        <extensions>
          <ns3:TrackPointExtension>
            <ns3:atemp>29.0</ns3:atemp>
          </ns3:TrackPointExtension>
        </extensions>
      </trkpt>
      <trkpt lat="42.5482562743127346038818359375" lon="19.83034984208643436431884765625">
        <ele>929.20001220703125</ele>
        <time>2026-06-18T13:47:17.000Z</time>
        <extensions>
          <ns3:TrackPointExtension>
            <ns3:atemp>29.0</ns3:atemp>
          </ns3:TrackPointExtension>
        </extensions>
      </trkpt>
      <trkpt lat="42.5481969304382801055908203125" lon="19.8303673602640628814697265625">
        <ele>929.20001220703125</ele>
        <time>2026-06-18T13:47:18.000Z</time>
        <extensions>
          <ns3:TrackPointExtension>
            <ns3:atemp>29.0</ns3:atemp>
          </ns3:TrackPointExtension>
        </extensions>
      </trkpt>
      <trkpt lat="42.54813767038285732269287109375" lon="19.83038135804235935211181640625">
        <ele>929.20001220703125</ele>
        <time>2026-06-18T13:47:19.000Z</time>
        <extensions>
          <ns3:TrackPointExtension>
            <ns3:atemp>29.0</ns3:atemp>
          </ns3:TrackPointExtension>
        </extensions>
      </trkpt>
      <trkpt lat="42.54807832650840282440185546875" lon="19.83039745129644870758056640625">
        <ele>929</ele>
        <time>2026-06-18T13:47:20.000Z</time>
        <extensions>
          <ns3:TrackPointExtension>
            <ns3:atemp>29.0</ns3:atemp>
          </ns3:TrackPointExtension>
        </extensions>
      </trkpt>
      <trkpt lat="42.54801931791007518768310546875" lon="19.83041455037891864776611328125">
        <ele>929</ele>
        <time>2026-06-18T13:47:21.000Z</time>
        <extensions>
          <ns3:TrackPointExtension>
            <ns3:atemp>29.0</ns3:atemp>
          </ns3:TrackPointExtension>
        </extensions>
      </trkpt>
      <trkpt lat="42.54796165041625499725341796875" lon="19.83042812906205654144287109375">
        <ele>929</ele>
        <time>2026-06-18T13:47:22.000Z</time>
        <extensions>
          <ns3:TrackPointExtension>
            <ns3:atemp>29.0</ns3:atemp>
          </ns3:TrackPointExtension>
        </extensions>
      </trkpt>
      <trkpt lat="42.547903396189212799072265625" lon="19.8304411210119724273681640625">
        <ele>929.20001220703125</ele>
        <time>2026-06-18T13:47:23.000Z</time>
        <extensions>
          <ns3:TrackPointExtension>
            <ns3:atemp>29.0</ns3:atemp>
          </ns3:TrackPointExtension>
        </extensions>
      </trkpt>
      <trkpt lat="42.54784564487636089324951171875" lon="19.83045101165771484375">
        <ele>929.20001220703125</ele>
        <time>2026-06-18T13:47:24.000Z</time>
        <extensions>
          <ns3:TrackPointExtension>
            <ns3:atemp>29.0</ns3:atemp>
          </ns3:TrackPointExtension>
        </extensions>
      </trkpt>
      <trkpt lat="42.54778839647769927978515625" lon="19.8304619081318378448486328125">
        <ele>929.4000244140625</ele>
        <time>2026-06-18T13:47:25.000Z</time>
        <extensions>
          <ns3:TrackPointExtension>
            <ns3:atemp>29.0</ns3:atemp>
          </ns3:TrackPointExtension>
        </extensions>
      </trkpt>
      <trkpt lat="42.547733746469020843505859375" lon="19.83047691173851490020751953125">
        <ele>929.5999755859375</ele>
        <time>2026-06-18T13:47:26.000Z</time>
        <extensions>
          <ns3:TrackPointExtension>
            <ns3:atemp>29.0</ns3:atemp>
          </ns3:TrackPointExtension>
        </extensions>
      </trkpt>
      <trkpt lat="42.54767850972712039947509765625" lon="19.8304971121251583099365234375">
        <ele>929.79998779296875</ele>
        <time>2026-06-18T13:47:27.000Z</time>
        <extensions>
          <ns3:TrackPointExtension>
            <ns3:atemp>29.0</ns3:atemp>
          </ns3:TrackPointExtension>
        </extensions>
      </trkpt>
      <trkpt lat="42.54761782474815845489501953125" lon="19.83051203191280364990234375">
        <ele>929.79998779296875</ele>
        <time>2026-06-18T13:47:28.000Z</time>
        <extensions>
          <ns3:TrackPointExtension>
            <ns3:atemp>29.0</ns3:atemp>
          </ns3:TrackPointExtension>
        </extensions>
      </trkpt>
      <trkpt lat="42.54756032489240169525146484375" lon="19.83053147792816162109375">
        <ele>930.20001220703125</ele>
        <time>2026-06-18T13:47:29.000Z</time>
        <extensions>
          <ns3:TrackPointExtension>
            <ns3:atemp>29.0</ns3:atemp>
          </ns3:TrackPointExtension>
        </extensions>
      </trkpt>
      <trkpt lat="42.54749963991343975067138671875" lon="19.83055436052381992340087890625">
        <ele>930.20001220703125</ele>
        <time>2026-06-18T13:47:30.000Z</time>
        <extensions>
          <ns3:TrackPointExtension>
            <ns3:atemp>29.0</ns3:atemp>
          </ns3:TrackPointExtension>
        </extensions>
      </trkpt>
      <trkpt lat="42.5474412180483341217041015625" lon="19.830578081309795379638671875">
        <ele>930.20001220703125</ele>
        <time>2026-06-18T13:47:31.000Z</time>
        <extensions>
          <ns3:TrackPointExtension>
            <ns3:atemp>29.0</ns3:atemp>
          </ns3:TrackPointExtension>
        </extensions>
      </trkpt>
      <trkpt lat="42.54738028161227703094482421875" lon="19.8305998742580413818359375">
        <ele>930</ele>
        <time>2026-06-18T13:47:32.000Z</time>
        <extensions>
          <ns3:TrackPointExtension>
            <ns3:atemp>29.0</ns3:atemp>
          </ns3:TrackPointExtension>
        </extensions>
      </trkpt>
      <trkpt lat="42.5473198480904102325439453125" lon="19.830623678863048553466796875">
        <ele>930</ele>
        <time>2026-06-18T13:47:33.000Z</time>
        <extensions>
          <ns3:TrackPointExtension>
            <ns3:atemp>29.0</ns3:atemp>
          </ns3:TrackPointExtension>
        </extensions>
      </trkpt>
      <trkpt lat="42.5472611747682094573974609375" lon="19.8306459747254848480224609375">
        <ele>929.79998779296875</ele>
        <time>2026-06-18T13:47:34.000Z</time>
        <extensions>
          <ns3:TrackPointExtension>
            <ns3:atemp>29.0</ns3:atemp>
          </ns3:TrackPointExtension>
        </extensions>
      </trkpt>
      <trkpt lat="42.547199986875057220458984375" lon="19.83066516928374767303466796875">
        <ele>929.79998779296875</ele>
        <time>2026-06-18T13:47:35.000Z</time>
        <extensions>
          <ns3:TrackPointExtension>
            <ns3:atemp>29.0</ns3:atemp>
          </ns3:TrackPointExtension>
        </extensions>
      </trkpt>
      <trkpt lat="42.54713955335319042205810546875" lon="19.830684363842010498046875">
        <ele>929.79998779296875</ele>
        <time>2026-06-18T13:47:36.000Z</time>
        <extensions>
          <ns3:TrackPointExtension>
            <ns3:atemp>29.0</ns3:atemp>
          </ns3:TrackPointExtension>
        </extensions>
      </trkpt>
      <trkpt lat="42.54707819782197475433349609375" lon="19.83070372603833675384521484375">
        <ele>929.5999755859375</ele>
        <time>2026-06-18T13:47:37.000Z</time>
        <extensions>
          <ns3:TrackPointExtension>
            <ns3:atemp>29.0</ns3:atemp>
          </ns3:TrackPointExtension>
        </extensions>
      </trkpt>
      <trkpt lat="42.54701902158558368682861328125" lon="19.83072199858725070953369140625">
        <ele>929.79998779296875</ele>
        <time>2026-06-18T13:47:38.000Z</time>
        <extensions>
          <ns3:TrackPointExtension>
            <ns3:atemp>29.0</ns3:atemp>
          </ns3:TrackPointExtension>
        </extensions>
      </trkpt>
      <trkpt lat="42.5469577498733997344970703125" lon="19.83073658309876918792724609375">
        <ele>929.79998779296875</ele>
        <time>2026-06-18T13:47:39.000Z</time>
        <extensions>
          <ns3:TrackPointExtension>
            <ns3:atemp>29.0</ns3:atemp>
          </ns3:TrackPointExtension>
        </extensions>
      </trkpt>
      <trkpt lat="42.54689513705670833587646484375" lon="19.8307522572576999664306640625">
        <ele>929.79998779296875</ele>
        <time>2026-06-18T13:47:40.000Z</time>
        <extensions>
          <ns3:TrackPointExtension>
            <ns3:atemp>29.0</ns3:atemp>
          </ns3:TrackPointExtension>
        </extensions>
      </trkpt>
      <trkpt lat="42.54683487117290496826171875" lon="19.83077128417789936065673828125">
        <ele>929.79998779296875</ele>
        <time>2026-06-18T13:47:41.000Z</time>
        <extensions>
          <ns3:TrackPointExtension>
            <ns3:atemp>29.0</ns3:atemp>
          </ns3:TrackPointExtension>
        </extensions>
      </trkpt>
      <trkpt lat="42.54677494056522846221923828125" lon="19.8307956755161285400390625">
        <ele>930</ele>
        <time>2026-06-18T13:47:42.000Z</time>
        <extensions>
          <ns3:TrackPointExtension>
            <ns3:atemp>29.0</ns3:atemp>
          </ns3:TrackPointExtension>
        </extensions>
      </trkpt>
      <trkpt lat="42.5467136688530445098876953125" lon="19.8308152891695499420166015625">
        <ele>930</ele>
        <time>2026-06-18T13:47:43.000Z</time>
        <extensions>
          <ns3:TrackPointExtension>
            <ns3:atemp>29.0</ns3:atemp>
          </ns3:TrackPointExtension>
        </extensions>
      </trkpt>
      <trkpt lat="42.54665407352149486541748046875" lon="19.83083180151879787445068359375">
        <ele>930</ele>
        <time>2026-06-18T13:47:44.000Z</time>
        <extensions>
          <ns3:TrackPointExtension>
            <ns3:atemp>29.0</ns3:atemp>
          </ns3:TrackPointExtension>
        </extensions>
      </trkpt>
      <trkpt lat="42.54659255035221576690673828125" lon="19.83084856532514095306396484375">
        <ele>930</ele>
        <time>2026-06-18T13:47:45.000Z</time>
        <extensions>
          <ns3:TrackPointExtension>
            <ns3:atemp>29.0</ns3:atemp>
          </ns3:TrackPointExtension>
        </extensions>
      </trkpt>
      <trkpt lat="42.54652918316423892974853515625" lon="19.83086734078824520111083984375">
        <ele>930</ele>
        <time>2026-06-18T13:47:46.000Z</time>
        <extensions>
          <ns3:TrackPointExtension>
            <ns3:atemp>29.0</ns3:atemp>
          </ns3:TrackPointExtension>
        </extensions>
      </trkpt>
      <trkpt lat="42.5464689172804355621337890625" lon="19.8308890499174594879150390625">
        <ele>930</ele>
        <time>2026-06-18T13:47:47.000Z</time>
        <extensions>
          <ns3:TrackPointExtension>
            <ns3:atemp>29.0</ns3:atemp>
          </ns3:TrackPointExtension>
        </extensions>
      </trkpt>
      <trkpt lat="42.54640932194888591766357421875" lon="19.83091109432280063629150390625">
        <ele>930</ele>
        <time>2026-06-18T13:47:48.000Z</time>
        <extensions>
          <ns3:TrackPointExtension>
            <ns3:atemp>29.0</ns3:atemp>
          </ns3:TrackPointExtension>
        </extensions>
      </trkpt>
      <trkpt lat="42.54634813405573368072509765625" lon="19.83092986978590488433837890625">
        <ele>930</ele>
        <time>2026-06-18T13:47:49.000Z</time>
        <extensions>
          <ns3:TrackPointExtension>
            <ns3:atemp>29.0</ns3:atemp>
          </ns3:TrackPointExtension>
        </extensions>
      </trkpt>
      <trkpt lat="42.54628728143870830535888671875" lon="19.8309436999261379241943359375">
        <ele>930</ele>
        <time>2026-06-18T13:47:50.000Z</time>
        <extensions>
          <ns3:TrackPointExtension>
            <ns3:atemp>29.0</ns3:atemp>
          </ns3:TrackPointExtension>
        </extensions>
      </trkpt>
      <trkpt lat="42.5462265126407146453857421875" lon="19.8309571109712123870849609375">
        <ele>930</ele>
        <time>2026-06-18T13:47:51.000Z</time>
        <extensions>
          <ns3:TrackPointExtension>
            <ns3:atemp>29.0</ns3:atemp>
          </ns3:TrackPointExtension>
        </extensions>
      </trkpt>
      <trkpt lat="42.546166665852069854736328125" lon="19.8309772275388240814208984375">
        <ele>930</ele>
        <time>2026-06-18T13:47:52.000Z</time>
        <extensions>
          <ns3:TrackPointExtension>
            <ns3:atemp>29.0</ns3:atemp>
          </ns3:TrackPointExtension>
        </extensions>
      </trkpt>
      <trkpt lat="42.54610924981534481048583984375" lon="19.83100513927638530731201171875">
        <ele>930.20001220703125</ele>
        <time>2026-06-18T13:47:53.000Z</time>
        <extensions>
          <ns3:TrackPointExtension>
            <ns3:atemp>29.0</ns3:atemp>
          </ns3:TrackPointExtension>
        </extensions>
      </trkpt>
      <trkpt lat="42.5460545159876346588134765625" lon="19.83104151673614978790283203125">
        <ele>930</ele>
        <time>2026-06-18T13:47:54.000Z</time>
        <extensions>
          <ns3:TrackPointExtension>
            <ns3:atemp>29.0</ns3:atemp>
          </ns3:TrackPointExtension>
        </extensions>
      </trkpt>
      <trkpt lat="42.54600129090249538421630859375" lon="19.83108376152813434600830078125">
        <ele>930</ele>
        <time>2026-06-18T13:47:55.000Z</time>
        <extensions>
          <ns3:TrackPointExtension>
            <ns3:atemp>29.0</ns3:atemp>
          </ns3:TrackPointExtension>
        </extensions>
      </trkpt>
      <trkpt lat="42.54595016129314899444580078125" lon="19.83112885616719722747802734375">
        <ele>930</ele>
        <time>2026-06-18T13:47:56.000Z</time>
        <extensions>
          <ns3:TrackPointExtension>
            <ns3:atemp>29.0</ns3:atemp>
          </ns3:TrackPointExtension>
        </extensions>
      </trkpt>
      <trkpt lat="42.54589986987411975860595703125" lon="19.83117428608238697052001953125">
        <ele>930.20001220703125</ele>
        <time>2026-06-18T13:47:57.000Z</time>
        <extensions>
          <ns3:TrackPointExtension>
            <ns3:atemp>29.0</ns3:atemp>
          </ns3:TrackPointExtension>
        </extensions>
      </trkpt>
      <trkpt lat="42.54584941081702709197998046875" lon="19.83121954835951328277587890625">
        <ele>930.20001220703125</ele>
        <time>2026-06-18T13:47:58.000Z</time>
        <extensions>
          <ns3:TrackPointExtension>
            <ns3:atemp>29.0</ns3:atemp>
          </ns3:TrackPointExtension>
        </extensions>
      </trkpt>
      <trkpt lat="42.54579358734190464019775390625" lon="19.83126061968505382537841796875">
        <ele>930.20001220703125</ele>
        <time>2026-06-18T13:47:59.000Z</time>
        <extensions>
          <ns3:TrackPointExtension>
            <ns3:atemp>29.0</ns3:atemp>
          </ns3:TrackPointExtension>
        </extensions>
      </trkpt>
      <trkpt lat="42.545738182961940765380859375" lon="19.8312903754413127899169921875">
        <ele>930.20001220703125</ele>
        <time>2026-06-18T13:48:00.000Z</time>
        <extensions>
          <ns3:TrackPointExtension>
            <ns3:atemp>29.0</ns3:atemp>
          </ns3:TrackPointExtension>
        </extensions>
      </trkpt>
      <trkpt lat="42.54567976109683513641357421875" lon="19.83132096938788890838623046875">
        <ele>930.20001220703125</ele>
        <time>2026-06-18T13:48:01.000Z</time>
        <extensions>
          <ns3:TrackPointExtension>
            <ns3:atemp>29.0</ns3:atemp>
          </ns3:TrackPointExtension>
        </extensions>
      </trkpt>
      <trkpt lat="42.54561823792755603790283203125" lon="19.83134745620191097259521484375">
        <ele>930.20001220703125</ele>
        <time>2026-06-18T13:48:02.000Z</time>
        <extensions>
          <ns3:TrackPointExtension>
            <ns3:atemp>29.0</ns3:atemp>
          </ns3:TrackPointExtension>
        </extensions>
      </trkpt>
      <trkpt lat="42.5455559603869915008544921875" lon="19.8313674889504909515380859375">
        <ele>930.20001220703125</ele>
        <time>2026-06-18T13:48:03.000Z</time>
        <extensions>
          <ns3:TrackPointExtension>
            <ns3:atemp>29.0</ns3:atemp>
          </ns3:TrackPointExtension>
        </extensions>
      </trkpt>
      <trkpt lat="42.5454952754080295562744140625" lon="19.8313849233090877532958984375">
        <ele>930.20001220703125</ele>
        <time>2026-06-18T13:48:04.000Z</time>
        <extensions>
          <ns3:TrackPointExtension>
            <ns3:atemp>29.0</ns3:atemp>
          </ns3:TrackPointExtension>
        </extensions>
      </trkpt>
      <trkpt lat="42.54543601535260677337646484375" lon="19.831400178372859954833984375">
        <ele>930.20001220703125</ele>
        <time>2026-06-18T13:48:05.000Z</time>
        <extensions>
          <ns3:TrackPointExtension>
            <ns3:atemp>29.0</ns3:atemp>
          </ns3:TrackPointExtension>
        </extensions>
      </trkpt>
      <trkpt lat="42.54537717439234256744384765625" lon="19.83140612952411174774169921875">
        <ele>930.20001220703125</ele>
        <time>2026-06-18T13:48:06.000Z</time>
        <extensions>
          <ns3:TrackPointExtension>
            <ns3:atemp>29.0</ns3:atemp>
          </ns3:TrackPointExtension>
        </extensions>
      </trkpt>
      <trkpt lat="42.54531749524176120758056640625" lon="19.83139975927770137786865234375">
        <ele>930.20001220703125</ele>
        <time>2026-06-18T13:48:07.000Z</time>
        <extensions>
          <ns3:TrackPointExtension>
            <ns3:atemp>28.0</ns3:atemp>
          </ns3:TrackPointExtension>
        </extensions>
      </trkpt>
      <trkpt lat="42.54525714553892612457275390625" lon="19.831392802298069000244140625">
        <ele>930.20001220703125</ele>
        <time>2026-06-18T13:48:08.000Z</time>
        <extensions>
          <ns3:TrackPointExtension>
            <ns3:atemp>28.0</ns3:atemp>
          </ns3:TrackPointExtension>
        </extensions>
      </trkpt>
      <trkpt lat="42.54519528709352016448974609375" lon="19.83139355666935443878173828125">
        <ele>930.20001220703125</ele>
        <time>2026-06-18T13:48:09.000Z</time>
        <extensions>
          <ns3:TrackPointExtension>
            <ns3:atemp>28.0</ns3:atemp>
          </ns3:TrackPointExtension>
        </extensions>
      </trkpt>
      <trkpt lat="42.5451325066387653350830078125" lon="19.83140118420124053955078125">
        <ele>930.20001220703125</ele>
        <time>2026-06-18T13:48:10.000Z</time>
        <extensions>
          <ns3:TrackPointExtension>
            <ns3:atemp>28.0</ns3:atemp>
          </ns3:TrackPointExtension>
        </extensions>
      </trkpt>
      <trkpt lat="42.54506939090788364410400390625" lon="19.8314224742352962493896484375">
        <ele>930.20001220703125</ele>
        <time>2026-06-18T13:48:11.000Z</time>
        <extensions>
          <ns3:TrackPointExtension>
            <ns3:atemp>28.0</ns3:atemp>
          </ns3:TrackPointExtension>
        </extensions>
      </trkpt>
      <trkpt lat="42.54501105286180973052978515625" lon="19.8314553312957286834716796875">
        <ele>930.20001220703125</ele>
        <time>2026-06-18T13:48:12.000Z</time>
        <extensions>
          <ns3:TrackPointExtension>
            <ns3:atemp>28.0</ns3:atemp>
          </ns3:TrackPointExtension>
        </extensions>
      </trkpt>
      <trkpt lat="42.54495891742408275604248046875" lon="19.8315002582967281341552734375">
        <ele>930.20001220703125</ele>
        <time>2026-06-18T13:48:13.000Z</time>
        <extensions>
          <ns3:TrackPointExtension>
            <ns3:atemp>28.0</ns3:atemp>
          </ns3:TrackPointExtension>
        </extensions>
      </trkpt>
      <trkpt lat="42.54490795545279979705810546875" lon="19.831553734838962554931640625">
        <ele>930.20001220703125</ele>
        <time>2026-06-18T13:48:14.000Z</time>
        <extensions>
          <ns3:TrackPointExtension>
            <ns3:atemp>28.0</ns3:atemp>
          </ns3:TrackPointExtension>
        </extensions>
      </trkpt>
      <trkpt lat="42.544854395091533660888671875" lon="19.83160058967769145965576171875">
        <ele>930.20001220703125</ele>
        <time>2026-06-18T13:48:15.000Z</time>
        <extensions>
          <ns3:TrackPointExtension>
            <ns3:atemp>28.0</ns3:atemp>
          </ns3:TrackPointExtension>
        </extensions>
      </trkpt>
      <trkpt lat="42.54480267874896526336669921875" lon="19.83164685778319835662841796875">
        <ele>930.4000244140625</ele>
        <time>2026-06-18T13:48:16.000Z</time>
        <extensions>
          <ns3:TrackPointExtension>
            <ns3:atemp>28.0</ns3:atemp>
          </ns3:TrackPointExtension>
        </extensions>
      </trkpt>
      <trkpt lat="42.544750459492206573486328125" lon="19.8316913656890392303466796875">
        <ele>930.4000244140625</ele>
        <time>2026-06-18T13:48:17.000Z</time>
        <extensions>
          <ns3:TrackPointExtension>
            <ns3:atemp>28.0</ns3:atemp>
          </ns3:TrackPointExtension>
        </extensions>
      </trkpt>
      <trkpt lat="42.5446989946067333221435546875" lon="19.83173704706132411956787109375">
        <ele>930.4000244140625</ele>
        <time>2026-06-18T13:48:18.000Z</time>
        <extensions>
          <ns3:TrackPointExtension>
            <ns3:atemp>28.0</ns3:atemp>
          </ns3:TrackPointExtension>
        </extensions>
      </trkpt>
      <trkpt lat="42.54465130157768726348876953125" lon="19.83179144561290740966796875">
        <ele>930.4000244140625</ele>
        <time>2026-06-18T13:48:19.000Z</time>
        <extensions>
          <ns3:TrackPointExtension>
            <ns3:atemp>28.0</ns3:atemp>
          </ns3:TrackPointExtension>
        </extensions>
      </trkpt>
      <trkpt lat="42.54460704512894153594970703125" lon="19.831850118935108184814453125">
        <ele>930.4000244140625</ele>
        <time>2026-06-18T13:48:20.000Z</time>
        <extensions>
          <ns3:TrackPointExtension>
            <ns3:atemp>28.0</ns3:atemp>
          </ns3:TrackPointExtension>
        </extensions>
      </trkpt>
      <trkpt lat="42.54456295631825923919677734375" lon="19.831909127533435821533203125">
        <ele>930.5999755859375</ele>
        <time>2026-06-18T13:48:21.000Z</time>
        <extensions>
          <ns3:TrackPointExtension>
            <ns3:atemp>28.0</ns3:atemp>
          </ns3:TrackPointExtension>
        </extensions>
      </trkpt>
      <trkpt lat="42.54451383836567401885986328125" lon="19.831964112818241119384765625">
        <ele>930.5999755859375</ele>
        <time>2026-06-18T13:48:22.000Z</time>
        <extensions>
          <ns3:TrackPointExtension>
            <ns3:atemp>28.0</ns3:atemp>
          </ns3:TrackPointExtension>
        </extensions>
      </trkpt>
      <trkpt lat="42.5444559194147586822509765625" lon="19.83200208283960819244384765625">
        <ele>930.5999755859375</ele>
        <time>2026-06-18T13:48:23.000Z</time>
        <extensions>
          <ns3:TrackPointExtension>
            <ns3:atemp>28.0</ns3:atemp>
          </ns3:TrackPointExtension>
        </extensions>
      </trkpt>
      <trkpt lat="42.54439531825482845306396484375" lon="19.8320303298532962799072265625">
        <ele>930.5999755859375</ele>
        <time>2026-06-18T13:48:24.000Z</time>
        <extensions>
          <ns3:TrackPointExtension>
            <ns3:atemp>28.0</ns3:atemp>
          </ns3:TrackPointExtension>
        </extensions>
      </trkpt>
      <trkpt lat="42.54433630965650081634521484375" lon="19.83205237425863742828369140625">
        <ele>930.79998779296875</ele>
        <time>2026-06-18T13:48:25.000Z</time>
        <extensions>
          <ns3:TrackPointExtension>
            <ns3:atemp>28.0</ns3:atemp>
          </ns3:TrackPointExtension>
        </extensions>
      </trkpt>
      <trkpt lat="42.54427612759172916412353515625" lon="19.83207031153142452239990234375">
        <ele>930.79998779296875</ele>
        <time>2026-06-18T13:48:26.000Z</time>
        <extensions>
          <ns3:TrackPointExtension>
            <ns3:atemp>28.0</ns3:atemp>
          </ns3:TrackPointExtension>
        </extensions>
      </trkpt>
      <trkpt lat="42.5442135147750377655029296875" lon="19.832089841365814208984375">
        <ele>931</ele>
        <time>2026-06-18T13:48:27.000Z</time>
        <extensions>
          <ns3:TrackPointExtension>
            <ns3:atemp>28.0</ns3:atemp>
          </ns3:TrackPointExtension>
        </extensions>
      </trkpt>
      <trkpt lat="42.5441508181393146514892578125" lon="19.83210853300988674163818359375">
        <ele>931</ele>
        <time>2026-06-18T13:48:28.000Z</time>
        <extensions>
          <ns3:TrackPointExtension>
            <ns3:atemp>28.0</ns3:atemp>
          </ns3:TrackPointExtension>
        </extensions>
      </trkpt>
      <trkpt lat="42.5440897978842258453369140625" lon="19.83212965540587902069091796875">
        <ele>931</ele>
        <time>2026-06-18T13:48:29.000Z</time>
        <extensions>
          <ns3:TrackPointExtension>
            <ns3:atemp>28.0</ns3:atemp>
          </ns3:TrackPointExtension>
        </extensions>
      </trkpt>
      <trkpt lat="42.54402969963848590850830078125" lon="19.83215781860053539276123046875">
        <ele>931</ele>
        <time>2026-06-18T13:48:30.000Z</time>
        <extensions>
          <ns3:TrackPointExtension>
            <ns3:atemp>28.0</ns3:atemp>
          </ns3:TrackPointExtension>
        </extensions>
      </trkpt>
      <trkpt lat="42.5439721159636974334716796875" lon="19.8321919329464435577392578125">
        <ele>931</ele>
        <time>2026-06-18T13:48:31.000Z</time>
        <extensions>
          <ns3:TrackPointExtension>
            <ns3:atemp>28.0</ns3:atemp>
          </ns3:TrackPointExtension>
        </extensions>
      </trkpt>
      <trkpt lat="42.5439211539924144744873046875" lon="19.83223275281488895416259765625">
        <ele>931</ele>
        <time>2026-06-18T13:48:32.000Z</time>
        <extensions>
          <ns3:TrackPointExtension>
            <ns3:atemp>28.0</ns3:atemp>
          </ns3:TrackPointExtension>
        </extensions>
      </trkpt>
      <trkpt lat="42.5438676774501800537109375" lon="19.8322626762092113494873046875">
        <ele>931</ele>
        <time>2026-06-18T13:48:33.000Z</time>
        <extensions>
          <ns3:TrackPointExtension>
            <ns3:atemp>28.0</ns3:atemp>
          </ns3:TrackPointExtension>
        </extensions>
      </trkpt>
      <trkpt lat="42.5438118539750576019287109375" lon="19.83229477889835834503173828125">
        <ele>931</ele>
        <time>2026-06-18T13:48:34.000Z</time>
        <extensions>
          <ns3:TrackPointExtension>
            <ns3:atemp>28.0</ns3:atemp>
          </ns3:TrackPointExtension>
        </extensions>
      </trkpt>
      <trkpt lat="42.54375292919576168060302734375" lon="19.832334257662296295166015625">
        <ele>931</ele>
        <time>2026-06-18T13:48:35.000Z</time>
        <extensions>
          <ns3:TrackPointExtension>
            <ns3:atemp>28.0</ns3:atemp>
          </ns3:TrackPointExtension>
        </extensions>
      </trkpt>
      <trkpt lat="42.5436914898455142974853515625" lon="19.83237206004559993743896484375">
        <ele>931</ele>
        <time>2026-06-18T13:48:36.000Z</time>
        <extensions>
          <ns3:TrackPointExtension>
            <ns3:atemp>28.0</ns3:atemp>
          </ns3:TrackPointExtension>
        </extensions>
      </trkpt>
      <trkpt lat="42.54363122396171092987060546875" lon="19.83240894041955471038818359375">
        <ele>931</ele>
        <time>2026-06-18T13:48:37.000Z</time>
        <extensions>
          <ns3:TrackPointExtension>
            <ns3:atemp>28.0</ns3:atemp>
          </ns3:TrackPointExtension>
        </extensions>
      </trkpt>
      <trkpt lat="42.5435697846114635467529296875" lon="19.8324423842132091522216796875">
        <ele>930.79998779296875</ele>
        <time>2026-06-18T13:48:38.000Z</time>
        <extensions>
          <ns3:TrackPointExtension>
            <ns3:atemp>28.0</ns3:atemp>
          </ns3:TrackPointExtension>
        </extensions>
      </trkpt>
      <trkpt lat="42.543505914509296417236328125" lon="19.83246602118015289306640625">
        <ele>930.79998779296875</ele>
        <time>2026-06-18T13:48:39.000Z</time>
        <extensions>
          <ns3:TrackPointExtension>
            <ns3:atemp>28.0</ns3:atemp>
          </ns3:TrackPointExtension>
        </extensions>
      </trkpt>
      <trkpt lat="42.54344179295003414154052734375" lon="19.83248052187263965606689453125">
        <ele>930.5999755859375</ele>
        <time>2026-06-18T13:48:40.000Z</time>
        <extensions>
          <ns3:TrackPointExtension>
            <ns3:atemp>28.0</ns3:atemp>
          </ns3:TrackPointExtension>
        </extensions>
      </trkpt>
      <trkpt lat="42.5433763302862644195556640625" lon="19.83248571865260601043701171875">
        <ele>930.5999755859375</ele>
        <time>2026-06-18T13:48:41.000Z</time>
        <extensions>
          <ns3:TrackPointExtension>
            <ns3:atemp>28.0</ns3:atemp>
          </ns3:TrackPointExtension>
        </extensions>
      </trkpt>
      <trkpt lat="42.54331313073635101318359375" lon="19.83248253352940082550048828125">
        <ele>930.4000244140625</ele>
        <time>2026-06-18T13:48:42.000Z</time>
        <extensions>
          <ns3:TrackPointExtension>
            <ns3:atemp>28.0</ns3:atemp>
          </ns3:TrackPointExtension>
        </extensions>
      </trkpt>
      <trkpt lat="42.543249428272247314453125" lon="19.8324747383594512939453125">
        <ele>930.4000244140625</ele>
        <time>2026-06-18T13:48:43.000Z</time>
        <extensions>
          <ns3:TrackPointExtension>
            <ns3:atemp>28.0</ns3:atemp>
          </ns3:TrackPointExtension>
        </extensions>
      </trkpt>
      <trkpt lat="42.54318530671298503875732421875" lon="19.83246065676212310791015625">
        <ele>930.4000244140625</ele>
        <time>2026-06-18T13:48:44.000Z</time>
        <extensions>
          <ns3:TrackPointExtension>
            <ns3:atemp>28.0</ns3:atemp>
          </ns3:TrackPointExtension>
        </extensions>
      </trkpt>
      <trkpt lat="42.5431248731911182403564453125" lon="19.8324433900415897369384765625">
        <ele>930.5999755859375</ele>
        <time>2026-06-18T13:48:45.000Z</time>
        <extensions>
          <ns3:TrackPointExtension>
            <ns3:atemp>28.0</ns3:atemp>
          </ns3:TrackPointExtension>
        </extensions>
      </trkpt>
      <trkpt lat="42.5430656969547271728515625" lon="19.83242335729300975799560546875">
        <ele>930.5999755859375</ele>
        <time>2026-06-18T13:48:46.000Z</time>
        <extensions>
          <ns3:TrackPointExtension>
            <ns3:atemp>28.0</ns3:atemp>
          </ns3:TrackPointExtension>
        </extensions>
      </trkpt>
      <trkpt lat="42.5430085323750972747802734375" lon="19.8324023187160491943359375">
        <ele>930.5999755859375</ele>
        <time>2026-06-18T13:48:47.000Z</time>
        <extensions>
          <ns3:TrackPointExtension>
            <ns3:atemp>28.0</ns3:atemp>
          </ns3:TrackPointExtension>
        </extensions>
      </trkpt>
      <trkpt lat="42.54294960759580135345458984375" lon="19.832387231290340423583984375">
        <ele>930.5999755859375</ele>
        <time>2026-06-18T13:48:48.000Z</time>
        <extensions>
          <ns3:TrackPointExtension>
            <ns3:atemp>28.0</ns3:atemp>
          </ns3:TrackPointExtension>
        </extensions>
      </trkpt>
      <trkpt lat="42.54288875497877597808837890625" lon="19.832377843558788299560546875">
        <ele>930.79998779296875</ele>
        <time>2026-06-18T13:48:49.000Z</time>
        <extensions>
          <ns3:TrackPointExtension>
            <ns3:atemp>28.0</ns3:atemp>
          </ns3:TrackPointExtension>
        </extensions>
      </trkpt>
      <trkpt lat="42.54282857291400432586669921875" lon="19.83237893320620059967041015625">
        <ele>930.79998779296875</ele>
        <time>2026-06-18T13:48:50.000Z</time>
        <extensions>
          <ns3:TrackPointExtension>
            <ns3:atemp>28.0</ns3:atemp>
          </ns3:TrackPointExtension>
        </extensions>
      </trkpt>
      <trkpt lat="42.5427681393921375274658203125" lon="19.83238697983324527740478515625">
        <ele>930.79998779296875</ele>
        <time>2026-06-18T13:48:51.000Z</time>
        <extensions>
          <ns3:TrackPointExtension>
            <ns3:atemp>28.0</ns3:atemp>
          </ns3:TrackPointExtension>
        </extensions>
      </trkpt>
      <trkpt lat="42.542705945670604705810546875" lon="19.83239988796412944793701171875">
        <ele>931</ele>
        <time>2026-06-18T13:48:52.000Z</time>
        <extensions>
          <ns3:TrackPointExtension>
            <ns3:atemp>28.0</ns3:atemp>
          </ns3:TrackPointExtension>
        </extensions>
      </trkpt>
      <trkpt lat="42.5426434166729450225830078125" lon="19.8324158973991870880126953125">
        <ele>931</ele>
        <time>2026-06-18T13:48:53.000Z</time>
        <extensions>
          <ns3:TrackPointExtension>
            <ns3:atemp>28.0</ns3:atemp>
          </ns3:TrackPointExtension>
        </extensions>
      </trkpt>
      <trkpt lat="42.54258248023688793182373046875" lon="19.83243978582322597503662109375">
        <ele>931.20001220703125</ele>
        <time>2026-06-18T13:48:54.000Z</time>
        <extensions>
          <ns3:TrackPointExtension>
            <ns3:atemp>28.0</ns3:atemp>
          </ns3:TrackPointExtension>
        </extensions>
      </trkpt>
      <trkpt lat="42.542524896562099456787109375" lon="19.8324666917324066162109375">
        <ele>931.20001220703125</ele>
        <time>2026-06-18T13:48:55.000Z</time>
        <extensions>
          <ns3:TrackPointExtension>
            <ns3:atemp>28.0</ns3:atemp>
          </ns3:TrackPointExtension>
        </extensions>
      </trkpt>
      <trkpt lat="42.5424675643444061279296875" lon="19.8324961960315704345703125">
        <ele>931.20001220703125</ele>
        <time>2026-06-18T13:48:56.000Z</time>
        <extensions>
          <ns3:TrackPointExtension>
            <ns3:atemp>28.0</ns3:atemp>
          </ns3:TrackPointExtension>
        </extensions>
      </trkpt>
      <trkpt lat="42.54240880720317363739013671875" lon="19.83252611942589282989501953125">
        <ele>931.20001220703125</ele>
        <time>2026-06-18T13:48:57.000Z</time>
        <extensions>
          <ns3:TrackPointExtension>
            <ns3:atemp>28.0</ns3:atemp>
          </ns3:TrackPointExtension>
        </extensions>
      </trkpt>
      <trkpt lat="42.542349211871623992919921875" lon="19.83255780301988124847412109375">
        <ele>931.20001220703125</ele>
        <time>2026-06-18T13:48:58.000Z</time>
        <extensions>
          <ns3:TrackPointExtension>
            <ns3:atemp>28.0</ns3:atemp>
          </ns3:TrackPointExtension>
        </extensions>
      </trkpt>
      <trkpt lat="42.54228995181620121002197265625" lon="19.8325902409851551055908203125">
        <ele>931.20001220703125</ele>
        <time>2026-06-18T13:48:59.000Z</time>
        <extensions>
          <ns3:TrackPointExtension>
            <ns3:atemp>28.0</ns3:atemp>
          </ns3:TrackPointExtension>
        </extensions>
      </trkpt>
      <trkpt lat="42.5422330386936664581298828125" lon="19.832623265683650970458984375">
        <ele>931.20001220703125</ele>
        <time>2026-06-18T13:49:00.000Z</time>
        <extensions>
          <ns3:TrackPointExtension>
            <ns3:atemp>28.0</ns3:atemp>
          </ns3:TrackPointExtension>
        </extensions>
      </trkpt>
      <trkpt lat="42.54217662848532199859619140625" lon="19.832656122744083404541015625">
        <ele>931.4000244140625</ele>
        <time>2026-06-18T13:49:01.000Z</time>
        <extensions>
          <ns3:TrackPointExtension>
            <ns3:atemp>28.0</ns3:atemp>
          </ns3:TrackPointExtension>
        </extensions>
      </trkpt>
      <trkpt lat="42.542119883000850677490234375" lon="19.8326878063380718231201171875">
        <ele>931.4000244140625</ele>
        <time>2026-06-18T13:49:02.000Z</time>
        <extensions>
          <ns3:TrackPointExtension>
            <ns3:atemp>28.0</ns3:atemp>
          </ns3:TrackPointExtension>
        </extensions>
      </trkpt>
      <trkpt lat="42.54206431098282337188720703125" lon="19.8327230103313922882080078125">
        <ele>931.4000244140625</ele>
        <time>2026-06-18T13:49:03.000Z</time>
        <extensions>
          <ns3:TrackPointExtension>
            <ns3:atemp>28.0</ns3:atemp>
          </ns3:TrackPointExtension>
        </extensions>
      </trkpt>
      <trkpt lat="42.54201083444058895111083984375" lon="19.8327578790485858917236328125">
        <ele>931.4000244140625</ele>
        <time>2026-06-18T13:49:04.000Z</time>
        <extensions>
          <ns3:TrackPointExtension>
            <ns3:atemp>28.0</ns3:atemp>
          </ns3:TrackPointExtension>
        </extensions>
      </trkpt>
      <trkpt lat="42.541956938803195953369140625" lon="19.83279056847095489501953125">
        <ele>931.5999755859375</ele>
        <time>2026-06-18T13:49:05.000Z</time>
        <extensions>
          <ns3:TrackPointExtension>
            <ns3:atemp>28.0</ns3:atemp>
          </ns3:TrackPointExtension>
        </extensions>
      </trkpt>
      <trkpt lat="42.54190287552773952484130859375" lon="19.83282837085425853729248046875">
        <ele>931.5999755859375</ele>
        <time>2026-06-18T13:49:06.000Z</time>
        <extensions>
          <ns3:TrackPointExtension>
            <ns3:atemp>28.0</ns3:atemp>
          </ns3:TrackPointExtension>
        </extensions>
      </trkpt>
      <trkpt lat="42.54184856079518795013427734375" lon="19.83286843635141849517822265625">
        <ele>931.5999755859375</ele>
        <time>2026-06-18T13:49:07.000Z</time>
        <extensions>
          <ns3:TrackPointExtension>
            <ns3:atemp>28.0</ns3:atemp>
          </ns3:TrackPointExtension>
        </extensions>
      </trkpt>
      <trkpt lat="42.54179743118584156036376953125" lon="19.83291235752403736114501953125">
        <ele>931.79998779296875</ele>
        <time>2026-06-18T13:49:08.000Z</time>
        <extensions>
          <ns3:TrackPointExtension>
            <ns3:atemp>28.0</ns3:atemp>
          </ns3:TrackPointExtension>
        </extensions>
      </trkpt>
      <trkpt lat="42.54174537956714630126953125" lon="19.83295326121151447296142578125">
        <ele>931.79998779296875</ele>
        <time>2026-06-18T13:49:09.000Z</time>
        <extensions>
          <ns3:TrackPointExtension>
            <ns3:atemp>28.0</ns3:atemp>
          </ns3:TrackPointExtension>
        </extensions>
      </trkpt>
      <trkpt lat="42.541692070662975311279296875" lon="19.8329908959567546844482421875">
        <ele>931.79998779296875</ele>
        <time>2026-06-18T13:49:10.000Z</time>
        <extensions>
          <ns3:TrackPointExtension>
            <ns3:atemp>28.0</ns3:atemp>
          </ns3:TrackPointExtension>
        </extensions>
      </trkpt>
      <trkpt lat="42.54163767211139202117919921875" lon="19.8330281116068363189697265625">
        <ele>931.79998779296875</ele>
        <time>2026-06-18T13:49:11.000Z</time>
        <extensions>
          <ns3:TrackPointExtension>
            <ns3:atemp>28.0</ns3:atemp>
          </ns3:TrackPointExtension>
        </extensions>
      </trkpt>
      <trkpt lat="42.541584111750125885009765625" lon="19.83306541107594966888427734375">
        <ele>931.79998779296875</ele>
        <time>2026-06-18T13:49:12.000Z</time>
        <extensions>
          <ns3:TrackPointExtension>
            <ns3:atemp>28.0</ns3:atemp>
          </ns3:TrackPointExtension>
        </extensions>
      </trkpt>
      <trkpt lat="42.541530467569828033447265625" lon="19.8331023752689361572265625">
        <ele>931.79998779296875</ele>
        <time>2026-06-18T13:49:13.000Z</time>
        <extensions>
          <ns3:TrackPointExtension>
            <ns3:atemp>28.0</ns3:atemp>
          </ns3:TrackPointExtension>
        </extensions>
      </trkpt>
      <trkpt lat="42.54147539846599102020263671875" lon="19.8331380821764469146728515625">
        <ele>931.79998779296875</ele>
        <time>2026-06-18T13:49:14.000Z</time>
        <extensions>
          <ns3:TrackPointExtension>
            <ns3:atemp>28.0</ns3:atemp>
          </ns3:TrackPointExtension>
        </extensions>
      </trkpt>
      <trkpt lat="42.5414203293621540069580078125" lon="19.8331699334084987640380859375">
        <ele>931.79998779296875</ele>
        <time>2026-06-18T13:49:15.000Z</time>
        <extensions>
          <ns3:TrackPointExtension>
            <ns3:atemp>28.0</ns3:atemp>
          </ns3:TrackPointExtension>
        </extensions>
      </trkpt>
      <trkpt lat="42.54136492498219013214111328125" lon="19.8331997729837894439697265625">
        <ele>931.79998779296875</ele>
        <time>2026-06-18T13:49:16.000Z</time>
        <extensions>
          <ns3:TrackPointExtension>
            <ns3:atemp>28.0</ns3:atemp>
          </ns3:TrackPointExtension>
        </extensions>
      </trkpt>
      <trkpt lat="42.541309185326099395751953125" lon="19.8332289420068264007568359375">
        <ele>931.79998779296875</ele>
        <time>2026-06-18T13:49:17.000Z</time>
        <extensions>
          <ns3:TrackPointExtension>
            <ns3:atemp>28.0</ns3:atemp>
          </ns3:TrackPointExtension>
        </extensions>
      </trkpt>
      <trkpt lat="42.54125344567000865936279296875" lon="19.83325819484889507293701171875">
        <ele>931.79998779296875</ele>
        <time>2026-06-18T13:49:18.000Z</time>
        <extensions>
          <ns3:TrackPointExtension>
            <ns3:atemp>28.0</ns3:atemp>
          </ns3:TrackPointExtension>
        </extensions>
      </trkpt>
      <trkpt lat="42.541197873651981353759765625" lon="19.833283759653568267822265625">
        <ele>932</ele>
        <time>2026-06-18T13:49:19.000Z</time>
        <extensions>
          <ns3:TrackPointExtension>
            <ns3:atemp>28.0</ns3:atemp>
          </ns3:TrackPointExtension>
        </extensions>
      </trkpt>
      <trkpt lat="42.541142217814922332763671875" lon="19.8333080671727657318115234375">
        <ele>932</ele>
        <time>2026-06-18T13:49:20.000Z</time>
        <extensions>
          <ns3:TrackPointExtension>
            <ns3:atemp>28.0</ns3:atemp>
          </ns3:TrackPointExtension>
        </extensions>
      </trkpt>
      <trkpt lat="42.54108689725399017333984375" lon="19.83333145268261432647705078125">
        <ele>932</ele>
        <time>2026-06-18T13:49:21.000Z</time>
        <extensions>
          <ns3:TrackPointExtension>
            <ns3:atemp>28.0</ns3:atemp>
          </ns3:TrackPointExtension>
        </extensions>
      </trkpt>
      <trkpt lat="42.54103048704564571380615234375" lon="19.8333540000021457672119140625">
        <ele>932</ele>
        <time>2026-06-18T13:49:22.000Z</time>
        <extensions>
          <ns3:TrackPointExtension>
            <ns3:atemp>28.0</ns3:atemp>
          </ns3:TrackPointExtension>
        </extensions>
      </trkpt>
      <trkpt lat="42.5409740768373012542724609375" lon="19.8333778046071529388427734375">
        <ele>932</ele>
        <time>2026-06-18T13:49:23.000Z</time>
        <extensions>
          <ns3:TrackPointExtension>
            <ns3:atemp>28.0</ns3:atemp>
          </ns3:TrackPointExtension>
        </extensions>
      </trkpt>
      <trkpt lat="42.54091733135282993316650390625" lon="19.833403788506984710693359375">
        <ele>932.20001220703125</ele>
        <time>2026-06-18T13:49:24.000Z</time>
        <extensions>
          <ns3:TrackPointExtension>
            <ns3:atemp>28.0</ns3:atemp>
          </ns3:TrackPointExtension>
        </extensions>
      </trkpt>
      <trkpt lat="42.5408634357154369354248046875" lon="19.83342968858778476715087890625">
        <ele>932.20001220703125</ele>
        <time>2026-06-18T13:49:25.000Z</time>
        <extensions>
          <ns3:TrackPointExtension>
            <ns3:atemp>28.0</ns3:atemp>
          </ns3:TrackPointExtension>
        </extensions>
      </trkpt>
      <trkpt lat="42.54081004299223423004150390625" lon="19.8334542475640773773193359375">
        <ele>932.20001220703125</ele>
        <time>2026-06-18T13:49:26.000Z</time>
        <extensions>
          <ns3:TrackPointExtension>
            <ns3:atemp>28.0</ns3:atemp>
          </ns3:TrackPointExtension>
        </extensions>
      </trkpt>
      <trkpt lat="42.5407534651458263397216796875" lon="19.8334746994078159332275390625">
        <ele>932.20001220703125</ele>
        <time>2026-06-18T13:49:27.000Z</time>
        <extensions>
          <ns3:TrackPointExtension>
            <ns3:atemp>28.0</ns3:atemp>
          </ns3:TrackPointExtension>
        </extensions>
      </trkpt>
      <trkpt lat="42.54069521091878414154052734375" lon="19.833488948643207550048828125">
        <ele>932.20001220703125</ele>
        <time>2026-06-18T13:49:28.000Z</time>
        <extensions>
          <ns3:TrackPointExtension>
            <ns3:atemp>28.0</ns3:atemp>
          </ns3:TrackPointExtension>
        </extensions>
      </trkpt>
      <trkpt lat="42.54063804633915424346923828125" lon="19.833510406315326690673828125">
        <ele>932</ele>
        <time>2026-06-18T13:49:29.000Z</time>
        <extensions>
          <ns3:TrackPointExtension>
            <ns3:atemp>28.0</ns3:atemp>
          </ns3:TrackPointExtension>
        </extensions>
      </trkpt>
      <trkpt lat="42.54058389924466609954833984375" lon="19.833531863987445831298828125">
        <ele>932</ele>
        <time>2026-06-18T13:49:30.000Z</time>
        <extensions>
          <ns3:TrackPointExtension>
            <ns3:atemp>28.0</ns3:atemp>
          </ns3:TrackPointExtension>
        </extensions>
      </trkpt>
      <trkpt lat="42.54052874632179737091064453125" lon="19.83355139382183551788330078125">
        <ele>932</ele>
        <time>2026-06-18T13:49:31.000Z</time>
        <extensions>
          <ns3:TrackPointExtension>
            <ns3:atemp>28.0</ns3:atemp>
          </ns3:TrackPointExtension>
        </extensions>
      </trkpt>
      <trkpt lat="42.5404714979231357574462890625" lon="19.8335638828575611114501953125">
        <ele>932.20001220703125</ele>
        <time>2026-06-18T13:49:32.000Z</time>
        <extensions>
          <ns3:TrackPointExtension>
            <ns3:atemp>28.0</ns3:atemp>
          </ns3:TrackPointExtension>
        </extensions>
      </trkpt>
      <trkpt lat="42.54041559062898159027099609375" lon="19.833572767674922943115234375">
        <ele>932.20001220703125</ele>
        <time>2026-06-18T13:49:33.000Z</time>
        <extensions>
          <ns3:TrackPointExtension>
            <ns3:atemp>28.0</ns3:atemp>
          </ns3:TrackPointExtension>
        </extensions>
      </trkpt>
      <trkpt lat="42.5403568334877490997314453125" lon="19.83357989229261875152587890625">
        <ele>932.20001220703125</ele>
        <time>2026-06-18T13:49:34.000Z</time>
        <extensions>
          <ns3:TrackPointExtension>
            <ns3:atemp>28.0</ns3:atemp>
          </ns3:TrackPointExtension>
        </extensions>
      </trkpt>
      <trkpt lat="42.54029723815619945526123046875" lon="19.83358777128159999847412109375">
        <ele>932.20001220703125</ele>
        <time>2026-06-18T13:49:35.000Z</time>
        <extensions>
          <ns3:TrackPointExtension>
            <ns3:atemp>28.0</ns3:atemp>
          </ns3:TrackPointExtension>
        </extensions>
      </trkpt>
      <trkpt lat="42.54023957066237926483154296875" lon="19.8335930518805980682373046875">
        <ele>932.20001220703125</ele>
        <time>2026-06-18T13:49:36.000Z</time>
        <extensions>
          <ns3:TrackPointExtension>
            <ns3:atemp>28.0</ns3:atemp>
          </ns3:TrackPointExtension>
        </extensions>
      </trkpt>
      <trkpt lat="42.54018140025436878204345703125" lon="19.833602607250213623046875">
        <ele>932.20001220703125</ele>
        <time>2026-06-18T13:49:37.000Z</time>
        <extensions>
          <ns3:TrackPointExtension>
            <ns3:atemp>28.0</ns3:atemp>
          </ns3:TrackPointExtension>
        </extensions>
      </trkpt>
      <trkpt lat="42.540124319493770599365234375" lon="19.83360956422984600067138671875">
        <ele>932.4000244140625</ele>
        <time>2026-06-18T13:49:38.000Z</time>
        <extensions>
          <ns3:TrackPointExtension>
            <ns3:atemp>28.0</ns3:atemp>
          </ns3:TrackPointExtension>
        </extensions>
      </trkpt>
      <trkpt lat="42.5400678254663944244384765625" lon="19.83361057005822658538818359375">
        <ele>932.4000244140625</ele>
        <time>2026-06-18T13:49:39.000Z</time>
        <extensions>
          <ns3:TrackPointExtension>
            <ns3:atemp>28.0</ns3:atemp>
          </ns3:TrackPointExtension>
        </extensions>
      </trkpt>
      <trkpt lat="42.5400094874203205108642578125" lon="19.83361057005822658538818359375">
        <ele>932.4000244140625</ele>
        <time>2026-06-18T13:49:40.000Z</time>
        <extensions>
          <ns3:TrackPointExtension>
            <ns3:atemp>28.0</ns3:atemp>
          </ns3:TrackPointExtension>
        </extensions>
      </trkpt>
      <trkpt lat="42.53995022736489772796630859375" lon="19.833615012466907501220703125">
        <ele>932.20001220703125</ele>
        <time>2026-06-18T13:49:41.000Z</time>
        <extensions>
          <ns3:TrackPointExtension>
            <ns3:atemp>28.0</ns3:atemp>
          </ns3:TrackPointExtension>
        </extensions>
      </trkpt>
      <trkpt lat="42.539892978966236114501953125" lon="19.8336228914558887481689453125">
        <ele>932.20001220703125</ele>
        <time>2026-06-18T13:49:42.000Z</time>
        <extensions>
          <ns3:TrackPointExtension>
            <ns3:atemp>28.0</ns3:atemp>
          </ns3:TrackPointExtension>
        </extensions>
      </trkpt>
      <trkpt lat="42.53983455710113048553466796875" lon="19.83363152481615543365478515625">
        <ele>932</ele>
        <time>2026-06-18T13:49:43.000Z</time>
        <extensions>
          <ns3:TrackPointExtension>
            <ns3:atemp>28.0</ns3:atemp>
          </ns3:TrackPointExtension>
        </extensions>
      </trkpt>
      <trkpt lat="42.539776973426342010498046875" lon="19.8336393199861049652099609375">
        <ele>932</ele>
        <time>2026-06-18T13:49:44.000Z</time>
        <extensions>
          <ns3:TrackPointExtension>
            <ns3:atemp>28.0</ns3:atemp>
          </ns3:TrackPointExtension>
        </extensions>
      </trkpt>
      <trkpt lat="42.53971938975155353546142578125" lon="19.83365365304052829742431640625">
        <ele>932</ele>
        <time>2026-06-18T13:49:45.000Z</time>
        <extensions>
          <ns3:TrackPointExtension>
            <ns3:atemp>28.0</ns3:atemp>
          </ns3:TrackPointExtension>
        </extensions>
      </trkpt>
      <trkpt lat="42.5396634824573993682861328125" lon="19.833668656647205352783203125">
        <ele>932</ele>
        <time>2026-06-18T13:49:46.000Z</time>
        <extensions>
          <ns3:TrackPointExtension>
            <ns3:atemp>28.0</ns3:atemp>
          </ns3:TrackPointExtension>
        </extensions>
      </trkpt>
      <trkpt lat="42.53960522823035717010498046875" lon="19.8336748592555522918701171875">
        <ele>932</ele>
        <time>2026-06-18T13:49:47.000Z</time>
        <extensions>
          <ns3:TrackPointExtension>
            <ns3:atemp>28.0</ns3:atemp>
          </ns3:TrackPointExtension>
        </extensions>
      </trkpt>
      <trkpt lat="42.53954286687076091766357421875" lon="19.8336897790431976318359375">
        <ele>932</ele>
        <time>2026-06-18T13:49:48.000Z</time>
        <extensions>
          <ns3:TrackPointExtension>
            <ns3:atemp>28.0</ns3:atemp>
          </ns3:TrackPointExtension>
        </extensions>
      </trkpt>
      <trkpt lat="42.53948218189179897308349609375" lon="19.83371349982917308807373046875">
        <ele>932</ele>
        <time>2026-06-18T13:49:49.000Z</time>
        <extensions>
          <ns3:TrackPointExtension>
            <ns3:atemp>28.0</ns3:atemp>
          </ns3:TrackPointExtension>
        </extensions>
      </trkpt>
      <trkpt lat="42.5394257716834545135498046875" lon="19.83374551869928836822509765625">
        <ele>932</ele>
        <time>2026-06-18T13:49:50.000Z</time>
        <extensions>
          <ns3:TrackPointExtension>
            <ns3:atemp>28.0</ns3:atemp>
          </ns3:TrackPointExtension>
        </extensions>
      </trkpt>
      <trkpt lat="42.5393717922270298004150390625" lon="19.8337836563587188720703125">
        <ele>932</ele>
        <time>2026-06-18T13:49:51.000Z</time>
        <extensions>
          <ns3:TrackPointExtension>
            <ns3:atemp>28.0</ns3:atemp>
          </ns3:TrackPointExtension>
        </extensions>
      </trkpt>
      <trkpt lat="42.53931957297027111053466796875" lon="19.8338304273784160614013671875">
        <ele>932</ele>
        <time>2026-06-18T13:49:52.000Z</time>
        <extensions>
          <ns3:TrackPointExtension>
            <ns3:atemp>28.0</ns3:atemp>
          </ns3:TrackPointExtension>
        </extensions>
      </trkpt>
      <trkpt lat="42.53927280195057392120361328125" lon="19.83388147316873073577880859375">
        <ele>932</ele>
        <time>2026-06-18T13:49:53.000Z</time>
        <extensions>
          <ns3:TrackPointExtension>
            <ns3:atemp>28.0</ns3:atemp>
          </ns3:TrackPointExtension>
        </extensions>
      </trkpt>
      <trkpt lat="42.53923072479665279388427734375" lon="19.83393344096839427947998046875">
        <ele>932</ele>
        <time>2026-06-18T13:49:54.000Z</time>
        <extensions>
          <ns3:TrackPointExtension>
            <ns3:atemp>28.0</ns3:atemp>
          </ns3:TrackPointExtension>
        </extensions>
      </trkpt>
      <trkpt lat="42.53918831236660480499267578125" lon="19.83398658223450183868408203125">
        <ele>932</ele>
        <time>2026-06-18T13:49:55.000Z</time>
        <extensions>
          <ns3:TrackPointExtension>
            <ns3:atemp>28.0</ns3:atemp>
          </ns3:TrackPointExtension>
        </extensions>
      </trkpt>
      <trkpt lat="42.5391444750130176544189453125" lon="19.834037125110626220703125">
        <ele>931.79998779296875</ele>
        <time>2026-06-18T13:49:56.000Z</time>
        <extensions>
          <ns3:TrackPointExtension>
            <ns3:atemp>28.0</ns3:atemp>
          </ns3:TrackPointExtension>
        </extensions>
      </trkpt>
      <trkpt lat="42.53910147584974765777587890625" lon="19.83409269712865352630615234375">
        <ele>931.79998779296875</ele>
        <time>2026-06-18T13:49:57.000Z</time>
        <extensions>
          <ns3:TrackPointExtension>
            <ns3:atemp>28.0</ns3:atemp>
          </ns3:TrackPointExtension>
        </extensions>
      </trkpt>
      <trkpt lat="42.5390573032200336456298828125" lon="19.83414634130895137786865234375">
        <ele>931.79998779296875</ele>
        <time>2026-06-18T13:49:58.000Z</time>
        <extensions>
          <ns3:TrackPointExtension>
            <ns3:atemp>28.0</ns3:atemp>
          </ns3:TrackPointExtension>
        </extensions>
      </trkpt>
      <trkpt lat="42.53901212476193904876708984375" lon="19.83419646508991718292236328125">
        <ele>931.79998779296875</ele>
        <time>2026-06-18T13:49:59.000Z</time>
        <extensions>
          <ns3:TrackPointExtension>
            <ns3:atemp>28.0</ns3:atemp>
          </ns3:TrackPointExtension>
        </extensions>
      </trkpt>
      <trkpt lat="42.538962252438068389892578125" lon="19.83424256555736064910888671875">
        <ele>931.79998779296875</ele>
        <time>2026-06-18T13:50:00.000Z</time>
        <extensions>
          <ns3:TrackPointExtension>
            <ns3:atemp>28.0</ns3:atemp>
          </ns3:TrackPointExtension>
        </extensions>
      </trkpt>
      <trkpt lat="42.538909949362277984619140625" lon="19.8342798650264739990234375">
        <ele>931.79998779296875</ele>
        <time>2026-06-18T13:50:01.000Z</time>
        <extensions>
          <ns3:TrackPointExtension>
            <ns3:atemp>28.0</ns3:atemp>
          </ns3:TrackPointExtension>
        </extensions>
      </trkpt>
      <trkpt lat="42.53885328769683837890625" lon="19.83431682921946048736572265625">
        <ele>931.79998779296875</ele>
        <time>2026-06-18T13:50:02.000Z</time>
        <extensions>
          <ns3:TrackPointExtension>
            <ns3:atemp>28.0</ns3:atemp>
          </ns3:TrackPointExtension>
        </extensions>
      </trkpt>
      <trkpt lat="42.53879821859300136566162109375" lon="19.83434851281344890594482421875">
        <ele>931.79998779296875</ele>
        <time>2026-06-18T13:50:03.000Z</time>
        <extensions>
          <ns3:TrackPointExtension>
            <ns3:atemp>28.0</ns3:atemp>
          </ns3:TrackPointExtension>
        </extensions>
      </trkpt>
      <trkpt lat="42.53874138928949832916259765625" lon="19.83437064103782176971435546875">
        <ele>931.79998779296875</ele>
        <time>2026-06-18T13:50:04.000Z</time>
        <extensions>
          <ns3:TrackPointExtension>
            <ns3:atemp>28.0</ns3:atemp>
          </ns3:TrackPointExtension>
        </extensions>
      </trkpt>
      <trkpt lat="42.53868171013891696929931640625" lon="19.83438053168356418609619140625">
        <ele>931.79998779296875</ele>
        <time>2026-06-18T13:50:05.000Z</time>
        <extensions>
          <ns3:TrackPointExtension>
            <ns3:atemp>28.0</ns3:atemp>
          </ns3:TrackPointExtension>
        </extensions>
      </trkpt>
      <trkpt lat="42.53861985169351100921630859375" lon="19.834387488663196563720703125">
        <ele>931.79998779296875</ele>
        <time>2026-06-18T13:50:06.000Z</time>
        <extensions>
          <ns3:TrackPointExtension>
            <ns3:atemp>28.0</ns3:atemp>
          </ns3:TrackPointExtension>
        </extensions>
      </trkpt>
      <trkpt lat="42.5385570712387561798095703125" lon="19.83438673429191112518310546875">
        <ele>931.79998779296875</ele>
        <time>2026-06-18T13:50:07.000Z</time>
        <extensions>
          <ns3:TrackPointExtension>
            <ns3:atemp>28.0</ns3:atemp>
          </ns3:TrackPointExtension>
        </extensions>
      </trkpt>
      <trkpt lat="42.53849479369819164276123046875" lon="19.83438304625451564788818359375">
        <ele>931.79998779296875</ele>
        <time>2026-06-18T13:50:08.000Z</time>
        <extensions>
          <ns3:TrackPointExtension>
            <ns3:atemp>28.0</ns3:atemp>
          </ns3:TrackPointExtension>
        </extensions>
      </trkpt>
      <trkpt lat="42.53843293525278568267822265625" lon="19.83437717892229557037353515625">
        <ele>931.79998779296875</ele>
        <time>2026-06-18T13:50:09.000Z</time>
        <extensions>
          <ns3:TrackPointExtension>
            <ns3:atemp>28.0</ns3:atemp>
          </ns3:TrackPointExtension>
        </extensions>
      </trkpt>
      <trkpt lat="42.5383719988167285919189453125" lon="19.8343698866665363311767578125">
        <ele>932</ele>
        <time>2026-06-18T13:50:10.000Z</time>
        <extensions>
          <ns3:TrackPointExtension>
            <ns3:atemp>28.0</ns3:atemp>
          </ns3:TrackPointExtension>
        </extensions>
      </trkpt>
      <trkpt lat="42.53831190057098865509033203125" lon="19.83436234295368194580078125">
        <ele>932</ele>
        <time>2026-06-18T13:50:11.000Z</time>
        <extensions>
          <ns3:TrackPointExtension>
            <ns3:atemp>28.0</ns3:atemp>
          </ns3:TrackPointExtension>
        </extensions>
      </trkpt>
      <trkpt lat="42.5382499583065509796142578125" lon="19.834353961050510406494140625">
        <ele>932</ele>
        <time>2026-06-18T13:50:12.000Z</time>
        <extensions>
          <ns3:TrackPointExtension>
            <ns3:atemp>28.0</ns3:atemp>
          </ns3:TrackPointExtension>
        </extensions>
      </trkpt>
      <trkpt lat="42.5381892733275890350341796875" lon="19.8343469202518463134765625">
        <ele>932</ele>
        <time>2026-06-18T13:50:13.000Z</time>
        <extensions>
          <ns3:TrackPointExtension>
            <ns3:atemp>28.0</ns3:atemp>
          </ns3:TrackPointExtension>
        </extensions>
      </trkpt>
      <trkpt lat="42.538128755986690521240234375" lon="19.8343373648822307586669921875">
        <ele>932</ele>
        <time>2026-06-18T13:50:14.000Z</time>
        <extensions>
          <ns3:TrackPointExtension>
            <ns3:atemp>28.0</ns3:atemp>
          </ns3:TrackPointExtension>
        </extensions>
      </trkpt>
      <trkpt lat="42.5380705855786800384521484375" lon="19.83432889916002750396728515625">
        <ele>932</ele>
        <time>2026-06-18T13:50:15.000Z</time>
        <extensions>
          <ns3:TrackPointExtension>
            <ns3:atemp>28.0</ns3:atemp>
          </ns3:TrackPointExtension>
        </extensions>
      </trkpt>
      <trkpt lat="42.53801132552325725555419921875" lon="19.83431917615234851837158203125">
        <ele>932.20001220703125</ele>
        <time>2026-06-18T13:50:16.000Z</time>
        <extensions>
          <ns3:TrackPointExtension>
            <ns3:atemp>28.0</ns3:atemp>
          </ns3:TrackPointExtension>
        </extensions>
      </trkpt>
      <trkpt lat="42.53794980235397815704345703125" lon="19.83431045897305011749267578125">
        <ele>932.20001220703125</ele>
        <time>2026-06-18T13:50:17.000Z</time>
        <extensions>
          <ns3:TrackPointExtension>
            <ns3:atemp>28.0</ns3:atemp>
          </ns3:TrackPointExtension>
        </extensions>
      </trkpt>
      <trkpt lat="42.5378890335559844970703125" lon="19.8342981375753879547119140625">
        <ele>932.20001220703125</ele>
        <time>2026-06-18T13:50:18.000Z</time>
        <extensions>
          <ns3:TrackPointExtension>
            <ns3:atemp>28.0</ns3:atemp>
          </ns3:TrackPointExtension>
        </extensions>
      </trkpt>
      <trkpt lat="42.53783228807151317596435546875" lon="19.83428749255836009979248046875">
        <ele>932.4000244140625</ele>
        <time>2026-06-18T13:50:19.000Z</time>
        <extensions>
          <ns3:TrackPointExtension>
            <ns3:atemp>28.0</ns3:atemp>
          </ns3:TrackPointExtension>
        </extensions>
      </trkpt>
      <trkpt lat="42.5377725251019001007080078125" lon="19.83427651226520538330078125">
        <ele>932.4000244140625</ele>
        <time>2026-06-18T13:50:20.000Z</time>
        <extensions>
          <ns3:TrackPointExtension>
            <ns3:atemp>28.0</ns3:atemp>
          </ns3:TrackPointExtension>
        </extensions>
      </trkpt>
      <trkpt lat="42.53771309740841388702392578125" lon="19.83426502905786037445068359375">
        <ele>932.4000244140625</ele>
        <time>2026-06-18T13:50:21.000Z</time>
        <extensions>
          <ns3:TrackPointExtension>
            <ns3:atemp>28.0</ns3:atemp>
          </ns3:TrackPointExtension>
        </extensions>
      </trkpt>
      <trkpt lat="42.5376571901142597198486328125" lon="19.8342532105743885040283203125">
        <ele>932.4000244140625</ele>
        <time>2026-06-18T13:50:22.000Z</time>
        <extensions>
          <ns3:TrackPointExtension>
            <ns3:atemp>28.0</ns3:atemp>
          </ns3:TrackPointExtension>
        </extensions>
      </trkpt>
      <trkpt lat="42.53759893588721752166748046875" lon="19.8342418111860752105712890625">
        <ele>932.4000244140625</ele>
        <time>2026-06-18T13:50:23.000Z</time>
        <extensions>
          <ns3:TrackPointExtension>
            <ns3:atemp>28.0</ns3:atemp>
          </ns3:TrackPointExtension>
        </extensions>
      </trkpt>
      <trkpt lat="42.53753992728888988494873046875" lon="19.83422932215034961700439453125">
        <ele>932.5999755859375</ele>
        <time>2026-06-18T13:50:24.000Z</time>
        <extensions>
          <ns3:TrackPointExtension>
            <ns3:atemp>28.0</ns3:atemp>
          </ns3:TrackPointExtension>
        </extensions>
      </trkpt>
      <trkpt lat="42.5374786555767059326171875" lon="19.8342154920101165771484375">
        <ele>932.5999755859375</ele>
        <time>2026-06-18T13:50:25.000Z</time>
        <extensions>
          <ns3:TrackPointExtension>
            <ns3:atemp>28.0</ns3:atemp>
          </ns3:TrackPointExtension>
        </extensions>
      </trkpt>
      <trkpt lat="42.53741922788321971893310546875" lon="19.83420451171696186065673828125">
        <ele>932.5999755859375</ele>
        <time>2026-06-18T13:50:26.000Z</time>
        <extensions>
          <ns3:TrackPointExtension>
            <ns3:atemp>28.0</ns3:atemp>
          </ns3:TrackPointExtension>
        </extensions>
      </trkpt>
      <trkpt lat="42.5373584590852260589599609375" lon="19.83419327996671199798583984375">
        <ele>932.79998779296875</ele>
        <time>2026-06-18T13:50:27.000Z</time>
        <extensions>
          <ns3:TrackPointExtension>
            <ns3:atemp>28.0</ns3:atemp>
          </ns3:TrackPointExtension>
        </extensions>
      </trkpt>
      <trkpt lat="42.5372957624495029449462890625" lon="19.83418665826320648193359375">
        <ele>932.79998779296875</ele>
        <time>2026-06-18T13:50:28.000Z</time>
        <extensions>
          <ns3:TrackPointExtension>
            <ns3:atemp>28.0</ns3:atemp>
          </ns3:TrackPointExtension>
        </extensions>
      </trkpt>
      <trkpt lat="42.5372313894331455230712890625" lon="19.8341797851026058197021484375">
        <ele>932.79998779296875</ele>
        <time>2026-06-18T13:50:29.000Z</time>
        <extensions>
          <ns3:TrackPointExtension>
            <ns3:atemp>28.0</ns3:atemp>
          </ns3:TrackPointExtension>
        </extensions>
      </trkpt>
      <trkpt lat="42.53716743551194667816162109375" lon="19.834176599979400634765625">
        <ele>932.79998779296875</ele>
        <time>2026-06-18T13:50:30.000Z</time>
        <extensions>
          <ns3:TrackPointExtension>
            <ns3:atemp>28.0</ns3:atemp>
          </ns3:TrackPointExtension>
        </extensions>
      </trkpt>
      <trkpt lat="42.5371043197810649871826171875" lon="19.83418070711195468902587890625">
        <ele>932.79998779296875</ele>
        <time>2026-06-18T13:50:31.000Z</time>
        <extensions>
          <ns3:TrackPointExtension>
            <ns3:atemp>28.0</ns3:atemp>
          </ns3:TrackPointExtension>
        </extensions>
      </trkpt>
      <trkpt lat="42.5370416231453418731689453125" lon="19.83419093303382396697998046875">
        <ele>932.79998779296875</ele>
        <time>2026-06-18T13:50:32.000Z</time>
        <extensions>
          <ns3:TrackPointExtension>
            <ns3:atemp>28.0</ns3:atemp>
          </ns3:TrackPointExtension>
        </extensions>
      </trkpt>
      <trkpt lat="42.53697901032865047454833984375" lon="19.8342113010585308074951171875">
        <ele>932.79998779296875</ele>
        <time>2026-06-18T13:50:33.000Z</time>
        <extensions>
          <ns3:TrackPointExtension>
            <ns3:atemp>28.0</ns3:atemp>
          </ns3:TrackPointExtension>
        </extensions>
      </trkpt>
      <trkpt lat="42.53691782243549823760986328125" lon="19.83423619531095027923583984375">
        <ele>932.79998779296875</ele>
        <time>2026-06-18T13:50:34.000Z</time>
        <extensions>
          <ns3:TrackPointExtension>
            <ns3:atemp>28.0</ns3:atemp>
          </ns3:TrackPointExtension>
        </extensions>
      </trkpt>
      <trkpt lat="42.53686099313199520111083984375" lon="19.83426846563816070556640625">
        <ele>932.79998779296875</ele>
        <time>2026-06-18T13:50:35.000Z</time>
        <extensions>
          <ns3:TrackPointExtension>
            <ns3:atemp>28.0</ns3:atemp>
          </ns3:TrackPointExtension>
        </extensions>
      </trkpt>
      <trkpt lat="42.53680684603750705718994140625" lon="19.8343071900308132171630859375">
        <ele>932.5999755859375</ele>
        <time>2026-06-18T13:50:36.000Z</time>
        <extensions>
          <ns3:TrackPointExtension>
            <ns3:atemp>28.0</ns3:atemp>
          </ns3:TrackPointExtension>
        </extensions>
      </trkpt>
      <trkpt lat="42.5367549620568752288818359375" lon="19.8343541286885738372802734375">
        <ele>932.5999755859375</ele>
        <time>2026-06-18T13:50:37.000Z</time>
        <extensions>
          <ns3:TrackPointExtension>
            <ns3:atemp>28.0</ns3:atemp>
          </ns3:TrackPointExtension>
        </extensions>
      </trkpt>
      <trkpt lat="42.5367063470184803009033203125" lon="19.83440400101244449615478515625">
        <ele>932.5999755859375</ele>
        <time>2026-06-18T13:50:38.000Z</time>
        <extensions>
          <ns3:TrackPointExtension>
            <ns3:atemp>28.0</ns3:atemp>
          </ns3:TrackPointExtension>
        </extensions>
      </trkpt>
      <trkpt lat="42.5366590730845928192138671875" lon="19.83446049503982067108154296875">
        <ele>932.5999755859375</ele>
        <time>2026-06-18T13:50:39.000Z</time>
        <extensions>
          <ns3:TrackPointExtension>
            <ns3:atemp>28.0</ns3:atemp>
          </ns3:TrackPointExtension>
        </extensions>
      </trkpt>
      <trkpt lat="42.53661490045487880706787109375" lon="19.83451749198138713836669921875">
        <ele>932.5999755859375</ele>
        <time>2026-06-18T13:50:40.000Z</time>
        <extensions>
          <ns3:TrackPointExtension>
            <ns3:atemp>28.0</ns3:atemp>
          </ns3:TrackPointExtension>
        </extensions>
      </trkpt>
      <trkpt lat="42.53657248802483081817626953125" lon="19.8345824517309665679931640625">
        <ele>932.5999755859375</ele>
        <time>2026-06-18T13:50:41.000Z</time>
        <extensions>
          <ns3:TrackPointExtension>
            <ns3:atemp>28.0</ns3:atemp>
          </ns3:TrackPointExtension>
        </extensions>
      </trkpt>
      <trkpt lat="42.5365320034325122833251953125" lon="19.83464824967086315155029296875">
        <ele>932.5999755859375</ele>
        <time>2026-06-18T13:50:42.000Z</time>
        <extensions>
          <ns3:TrackPointExtension>
            <ns3:atemp>28.0</ns3:atemp>
          </ns3:TrackPointExtension>
        </extensions>
      </trkpt>
      <trkpt lat="42.53649151884019374847412109375" lon="19.83470968902111053466796875">
        <ele>932.79998779296875</ele>
        <time>2026-06-18T13:50:43.000Z</time>
        <extensions>
          <ns3:TrackPointExtension>
            <ns3:atemp>28.0</ns3:atemp>
          </ns3:TrackPointExtension>
        </extensions>
      </trkpt>
      <trkpt lat="42.5364508666098117828369140625" lon="19.83477280475199222564697265625">
        <ele>932.5999755859375</ele>
        <time>2026-06-18T13:50:44.000Z</time>
        <extensions>
          <ns3:TrackPointExtension>
            <ns3:atemp>28.0</ns3:atemp>
          </ns3:TrackPointExtension>
        </extensions>
      </trkpt>
      <trkpt lat="42.53641021437942981719970703125" lon="19.83483449555933475494384765625">
        <ele>932.5999755859375</ele>
        <time>2026-06-18T13:50:45.000Z</time>
        <extensions>
          <ns3:TrackPointExtension>
            <ns3:atemp>28.0</ns3:atemp>
          </ns3:TrackPointExtension>
        </extensions>
      </trkpt>
      <trkpt lat="42.53637165762484073638916015625" lon="19.8348939232528209686279296875">
        <ele>932.5999755859375</ele>
        <time>2026-06-18T13:50:46.000Z</time>
        <extensions>
          <ns3:TrackPointExtension>
            <ns3:atemp>28.0</ns3:atemp>
          </ns3:TrackPointExtension>
        </extensions>
      </trkpt>
      <trkpt lat="42.53633134067058563232421875" lon="19.83495108783245086669921875">
        <ele>932.5999755859375</ele>
        <time>2026-06-18T13:50:47.000Z</time>
        <extensions>
          <ns3:TrackPointExtension>
            <ns3:atemp>28.0</ns3:atemp>
          </ns3:TrackPointExtension>
        </extensions>
      </trkpt>
      <trkpt lat="42.53628683276474475860595703125" lon="19.83501001261174678802490234375">
        <ele>932.79998779296875</ele>
        <time>2026-06-18T13:50:48.000Z</time>
        <extensions>
          <ns3:TrackPointExtension>
            <ns3:atemp>28.0</ns3:atemp>
          </ns3:TrackPointExtension>
        </extensions>
      </trkpt>
      <trkpt lat="42.53624123521149158477783203125" lon="19.8350655846297740936279296875">
        <ele>932.79998779296875</ele>
        <time>2026-06-18T13:50:49.000Z</time>
        <extensions>
          <ns3:TrackPointExtension>
            <ns3:atemp>28.0</ns3:atemp>
          </ns3:TrackPointExtension>
        </extensions>
      </trkpt>
      <trkpt lat="42.53619278781116008758544921875" lon="19.83511864207684993743896484375">
        <ele>932.79998779296875</ele>
        <time>2026-06-18T13:50:50.000Z</time>
        <extensions>
          <ns3:TrackPointExtension>
            <ns3:atemp>28.0</ns3:atemp>
          </ns3:TrackPointExtension>
        </extensions>
      </trkpt>
      <trkpt lat="42.5361402332782745361328125" lon="19.83516826294362545013427734375">
        <ele>932.79998779296875</ele>
        <time>2026-06-18T13:50:51.000Z</time>
        <extensions>
          <ns3:TrackPointExtension>
            <ns3:atemp>28.0</ns3:atemp>
          </ns3:TrackPointExtension>
        </extensions>
      </trkpt>
      <trkpt lat="42.53608399070799350738525390625" lon="19.8352146148681640625">
        <ele>932.79998779296875</ele>
        <time>2026-06-18T13:50:52.000Z</time>
        <extensions>
          <ns3:TrackPointExtension>
            <ns3:atemp>28.0</ns3:atemp>
          </ns3:TrackPointExtension>
        </extensions>
      </trkpt>
      <trkpt lat="42.53602632321417331695556640625" lon="19.83525090850889682769775390625">
        <ele>932.79998779296875</ele>
        <time>2026-06-18T13:50:53.000Z</time>
        <extensions>
          <ns3:TrackPointExtension>
            <ns3:atemp>28.0</ns3:atemp>
          </ns3:TrackPointExtension>
        </extensions>
      </trkpt>
      <trkpt lat="42.5359677337110042572021484375" lon="19.8352754674851894378662109375">
        <ele>932.79998779296875</ele>
        <time>2026-06-18T13:50:54.000Z</time>
        <extensions>
          <ns3:TrackPointExtension>
            <ns3:atemp>28.0</ns3:atemp>
          </ns3:TrackPointExtension>
        </extensions>
      </trkpt>
      <trkpt lat="42.535909228026866912841796875" lon="19.83530002646148204803466796875">
        <ele>932.79998779296875</ele>
        <time>2026-06-18T13:50:55.000Z</time>
        <extensions>
          <ns3:TrackPointExtension>
            <ns3:atemp>28.0</ns3:atemp>
          </ns3:TrackPointExtension>
        </extensions>
      </trkpt>
      <trkpt lat="42.53584728576242923736572265625" lon="19.835319556295871734619140625">
        <ele>933</ele>
        <time>2026-06-18T13:50:56.000Z</time>
        <extensions>
          <ns3:TrackPointExtension>
            <ns3:atemp>28.0</ns3:atemp>
          </ns3:TrackPointExtension>
        </extensions>
      </trkpt>
      <trkpt lat="42.535783834755420684814453125" lon="19.83533958904445171356201171875">
        <ele>933</ele>
        <time>2026-06-18T13:50:57.000Z</time>
        <extensions>
          <ns3:TrackPointExtension>
            <ns3:atemp>28.0</ns3:atemp>
          </ns3:TrackPointExtension>
        </extensions>
      </trkpt>
      <trkpt lat="42.53572273068130016326904296875" lon="19.83535383827984333038330078125">
        <ele>933</ele>
        <time>2026-06-18T13:50:58.000Z</time>
        <extensions>
          <ns3:TrackPointExtension>
            <ns3:atemp>28.0</ns3:atemp>
          </ns3:TrackPointExtension>
        </extensions>
      </trkpt>
      <trkpt lat="42.53566171042621135711669921875" lon="19.83536272309720516204833984375">
        <ele>933</ele>
        <time>2026-06-18T13:50:59.000Z</time>
        <extensions>
          <ns3:TrackPointExtension>
            <ns3:atemp>28.0</ns3:atemp>
          </ns3:TrackPointExtension>
        </extensions>
      </trkpt>
      <trkpt lat="42.5356009416282176971435546875" lon="19.83537546359002590179443359375">
        <ele>933</ele>
        <time>2026-06-18T13:51:00.000Z</time>
        <extensions>
          <ns3:TrackPointExtension>
            <ns3:atemp>28.0</ns3:atemp>
          </ns3:TrackPointExtension>
        </extensions>
      </trkpt>
      <trkpt lat="42.5355405919253826141357421875" lon="19.83539122156798839569091796875">
        <ele>933</ele>
        <time>2026-06-18T13:51:01.000Z</time>
        <extensions>
          <ns3:TrackPointExtension>
            <ns3:atemp>28.0</ns3:atemp>
          </ns3:TrackPointExtension>
        </extensions>
      </trkpt>
      <trkpt lat="42.53547915257513523101806640625" lon="19.83540697954595088958740234375">
        <ele>933.20001220703125</ele>
        <time>2026-06-18T13:51:02.000Z</time>
        <extensions>
          <ns3:TrackPointExtension>
            <ns3:atemp>28.0</ns3:atemp>
          </ns3:TrackPointExtension>
        </extensions>
      </trkpt>
      <trkpt lat="42.53541645593941211700439453125" lon="19.835427515208721160888671875">
        <ele>933.20001220703125</ele>
        <time>2026-06-18T13:51:03.000Z</time>
        <extensions>
          <ns3:TrackPointExtension>
            <ns3:atemp>28.0</ns3:atemp>
          </ns3:TrackPointExtension>
        </extensions>
      </trkpt>
      <trkpt lat="42.5353568606078624725341796875" lon="19.83545492403209209442138671875">
        <ele>933.4000244140625</ele>
        <time>2026-06-18T13:51:04.000Z</time>
        <extensions>
          <ns3:TrackPointExtension>
            <ns3:atemp>28.0</ns3:atemp>
          </ns3:TrackPointExtension>
        </extensions>
      </trkpt>
      <trkpt lat="42.53530212678015232086181640625" lon="19.835492558777332305908203125">
        <ele>933.4000244140625</ele>
        <time>2026-06-18T13:51:05.000Z</time>
        <extensions>
          <ns3:TrackPointExtension>
            <ns3:atemp>28.0</ns3:atemp>
          </ns3:TrackPointExtension>
        </extensions>
      </trkpt>
      <trkpt lat="42.53524839878082275390625" lon="19.83553111553192138671875">
        <ele>933.4000244140625</ele>
        <time>2026-06-18T13:51:06.000Z</time>
        <extensions>
          <ns3:TrackPointExtension>
            <ns3:atemp>28.0</ns3:atemp>
          </ns3:TrackPointExtension>
        </extensions>
      </trkpt>
      <trkpt lat="42.535194419324398040771484375" lon="19.83556422404944896697998046875">
        <ele>933.5999755859375</ele>
        <time>2026-06-18T13:51:07.000Z</time>
        <extensions>
          <ns3:TrackPointExtension>
            <ns3:atemp>28.0</ns3:atemp>
          </ns3:TrackPointExtension>
        </extensions>
      </trkpt>
      <trkpt lat="42.53514337353408336639404296875" lon="19.83559372834861278533935546875">
        <ele>933.5999755859375</ele>
        <time>2026-06-18T13:51:08.000Z</time>
        <extensions>
          <ns3:TrackPointExtension>
            <ns3:atemp>28.0</ns3:atemp>
          </ns3:TrackPointExtension>
        </extensions>
      </trkpt>
      <trkpt lat="42.53509375266730785369873046875" lon="19.835625328123569488525390625">
        <ele>933.5999755859375</ele>
        <time>2026-06-18T13:51:09.000Z</time>
        <extensions>
          <ns3:TrackPointExtension>
            <ns3:atemp>28.0</ns3:atemp>
          </ns3:TrackPointExtension>
        </extensions>
      </trkpt>
      <trkpt lat="42.53504631109535694122314453125" lon="19.83565927483141422271728515625">
        <ele>933.5999755859375</ele>
        <time>2026-06-18T13:51:10.000Z</time>
        <extensions>
          <ns3:TrackPointExtension>
            <ns3:atemp>28.0</ns3:atemp>
          </ns3:TrackPointExtension>
        </extensions>
      </trkpt>
      <trkpt lat="42.53499836660921573638916015625" lon="19.83569297008216381072998046875">
        <ele>933.79998779296875</ele>
        <time>2026-06-18T13:51:11.000Z</time>
        <extensions>
          <ns3:TrackPointExtension>
            <ns3:atemp>28.0</ns3:atemp>
          </ns3:TrackPointExtension>
        </extensions>
      </trkpt>
      <trkpt lat="42.53494723699986934661865234375" lon="19.8357307724654674530029296875">
        <ele>933.79998779296875</ele>
        <time>2026-06-18T13:51:12.000Z</time>
        <extensions>
          <ns3:TrackPointExtension>
            <ns3:atemp>28.0</ns3:atemp>
          </ns3:TrackPointExtension>
        </extensions>
      </trkpt>
      <trkpt lat="42.53489526920020580291748046875" lon="19.83577050268650054931640625">
        <ele>933.79998779296875</ele>
        <time>2026-06-18T13:51:13.000Z</time>
        <extensions>
          <ns3:TrackPointExtension>
            <ns3:atemp>28.0</ns3:atemp>
          </ns3:TrackPointExtension>
        </extensions>
      </trkpt>
      <trkpt lat="42.534843720495700836181640625" lon="19.83580847270786762237548828125">
        <ele>933.79998779296875</ele>
        <time>2026-06-18T13:51:14.000Z</time>
        <extensions>
          <ns3:TrackPointExtension>
            <ns3:atemp>28.0</ns3:atemp>
          </ns3:TrackPointExtension>
        </extensions>
      </trkpt>
      <trkpt lat="42.53479300998151302337646484375" lon="19.835841245949268341064453125">
        <ele>933.79998779296875</ele>
        <time>2026-06-18T13:51:15.000Z</time>
        <extensions>
          <ns3:TrackPointExtension>
            <ns3:atemp>28.0</ns3:atemp>
          </ns3:TrackPointExtension>
        </extensions>
      </trkpt>
      <trkpt lat="42.53474213182926177978515625" lon="19.835868068039417266845703125">
        <ele>933.79998779296875</ele>
        <time>2026-06-18T13:51:16.000Z</time>
        <extensions>
          <ns3:TrackPointExtension>
            <ns3:atemp>28.0</ns3:atemp>
          </ns3:TrackPointExtension>
        </extensions>
      </trkpt>
      <trkpt lat="42.53469091840088367462158203125" lon="19.8358906991779804229736328125">
        <ele>933.79998779296875</ele>
        <time>2026-06-18T13:51:17.000Z</time>
        <extensions>
          <ns3:TrackPointExtension>
            <ns3:atemp>28.0</ns3:atemp>
          </ns3:TrackPointExtension>
        </extensions>
      </trkpt>
      <trkpt lat="42.5346410460770130157470703125" lon="19.83591257594525814056396484375">
        <ele>933.79998779296875</ele>
        <time>2026-06-18T13:51:18.000Z</time>
        <extensions>
          <ns3:TrackPointExtension>
            <ns3:atemp>28.0</ns3:atemp>
          </ns3:TrackPointExtension>
        </extensions>
      </trkpt>
      <trkpt lat="42.53459385596215724945068359375" lon="19.83593881130218505859375">
        <ele>933.79998779296875</ele>
        <time>2026-06-18T13:51:19.000Z</time>
        <extensions>
          <ns3:TrackPointExtension>
            <ns3:atemp>28.0</ns3:atemp>
          </ns3:TrackPointExtension>
        </extensions>
      </trkpt>
      <trkpt lat="42.5345495156943798065185546875" lon="19.83595297671854496002197265625">
        <ele>933.79998779296875</ele>
        <time>2026-06-18T13:51:20.000Z</time>
        <extensions>
          <ns3:TrackPointExtension>
            <ns3:atemp>28.0</ns3:atemp>
          </ns3:TrackPointExtension>
        </extensions>
      </trkpt>
      <trkpt lat="42.5344992242753505706787109375" lon="19.835960604250431060791015625">
        <ele>934</ele>
        <time>2026-06-18T13:51:21.000Z</time>
        <extensions>
          <ns3:TrackPointExtension>
            <ns3:atemp>28.0</ns3:atemp>
          </ns3:TrackPointExtension>
        </extensions>
      </trkpt>
      <trkpt lat="42.5344504415988922119140625" lon="19.835965968668460845947265625">
        <ele>934</ele>
        <time>2026-06-18T13:51:22.000Z</time>
        <extensions>
          <ns3:TrackPointExtension>
            <ns3:atemp>28.0</ns3:atemp>
          </ns3:TrackPointExtension>
        </extensions>
      </trkpt>
      <trkpt lat="42.53439889289438724517822265625" lon="19.83597108162939548492431640625">
        <ele>934</ele>
        <time>2026-06-18T13:51:23.000Z</time>
        <extensions>
          <ns3:TrackPointExtension>
            <ns3:atemp>28.0</ns3:atemp>
          </ns3:TrackPointExtension>
        </extensions>
      </trkpt>
      <trkpt lat="42.53434524871408939361572265625" lon="19.83597225509583950042724609375">
        <ele>934</ele>
        <time>2026-06-18T13:51:24.000Z</time>
        <extensions>
          <ns3:TrackPointExtension>
            <ns3:atemp>28.0</ns3:atemp>
          </ns3:TrackPointExtension>
        </extensions>
      </trkpt>
      <trkpt lat="42.5342913530766963958740234375" lon="19.835970662534236907958984375">
        <ele>934.20001220703125</ele>
        <time>2026-06-18T13:51:25.000Z</time>
        <extensions>
          <ns3:TrackPointExtension>
            <ns3:atemp>28.0</ns3:atemp>
          </ns3:TrackPointExtension>
        </extensions>
      </trkpt>
      <trkpt lat="42.5342373736202716827392578125" lon="19.8359696567058563232421875">
        <ele>934.20001220703125</ele>
        <time>2026-06-18T13:51:26.000Z</time>
        <extensions>
          <ns3:TrackPointExtension>
            <ns3:atemp>28.0</ns3:atemp>
          </ns3:TrackPointExtension>
        </extensions>
      </trkpt>
      <trkpt lat="42.53418398089706897735595703125" lon="19.835973680019378662109375">
        <ele>934.4000244140625</ele>
        <time>2026-06-18T13:51:27.000Z</time>
        <extensions>
          <ns3:TrackPointExtension>
            <ns3:atemp>28.0</ns3:atemp>
          </ns3:TrackPointExtension>
        </extensions>
      </trkpt>
      <trkpt lat="42.53413368947803974151611328125" lon="19.83598449267446994781494140625">
        <ele>934.4000244140625</ele>
        <time>2026-06-18T13:51:28.000Z</time>
        <extensions>
          <ns3:TrackPointExtension>
            <ns3:atemp>28.0</ns3:atemp>
          </ns3:TrackPointExtension>
        </extensions>
      </trkpt>
      <trkpt lat="42.53408758901059627532958984375" lon="19.83599237166345119476318359375">
        <ele>934.5999755859375</ele>
        <time>2026-06-18T13:51:29.000Z</time>
        <extensions>
          <ns3:TrackPointExtension>
            <ns3:atemp>28.0</ns3:atemp>
          </ns3:TrackPointExtension>
        </extensions>
      </trkpt>
      <trkpt lat="42.5340402312576770782470703125" lon="19.83599723316729068756103515625">
        <ele>934.5999755859375</ele>
        <time>2026-06-18T13:51:30.000Z</time>
        <extensions>
          <ns3:TrackPointExtension>
            <ns3:atemp>27.0</ns3:atemp>
          </ns3:TrackPointExtension>
        </extensions>
      </trkpt>
      <trkpt lat="42.53398708999156951904296875" lon="19.8360020108520984649658203125">
        <ele>934.79998779296875</ele>
        <time>2026-06-18T13:51:31.000Z</time>
        <extensions>
          <ns3:TrackPointExtension>
            <ns3:atemp>27.0</ns3:atemp>
          </ns3:TrackPointExtension>
        </extensions>
      </trkpt>
      <trkpt lat="42.53393185324966907501220703125" lon="19.8360147513449192047119140625">
        <ele>934.79998779296875</ele>
        <time>2026-06-18T13:51:32.000Z</time>
        <extensions>
          <ns3:TrackPointExtension>
            <ns3:atemp>27.0</ns3:atemp>
          </ns3:TrackPointExtension>
        </extensions>
      </trkpt>
      <trkpt lat="42.533874772489070892333984375" lon="19.8360367119312286376953125">
        <ele>934.79998779296875</ele>
        <time>2026-06-18T13:51:33.000Z</time>
        <extensions>
          <ns3:TrackPointExtension>
            <ns3:atemp>27.0</ns3:atemp>
          </ns3:TrackPointExtension>
        </extensions>
      </trkpt>
      <trkpt lat="42.53381635062396526336669921875" lon="19.8360657133162021636962890625">
        <ele>934.79998779296875</ele>
        <time>2026-06-18T13:51:34.000Z</time>
        <extensions>
          <ns3:TrackPointExtension>
            <ns3:atemp>27.0</ns3:atemp>
          </ns3:TrackPointExtension>
        </extensions>
      </trkpt>
      <trkpt lat="42.53376404754817485809326171875" lon="19.8361049406230449676513671875">
        <ele>935</ele>
        <time>2026-06-18T13:51:35.000Z</time>
        <extensions>
          <ns3:TrackPointExtension>
            <ns3:atemp>27.0</ns3:atemp>
          </ns3:TrackPointExtension>
        </extensions>
      </trkpt>
      <trkpt lat="42.533711828291416168212890625" lon="19.836147017776966094970703125">
        <ele>935</ele>
        <time>2026-06-18T13:51:36.000Z</time>
        <extensions>
          <ns3:TrackPointExtension>
            <ns3:atemp>27.0</ns3:atemp>
          </ns3:TrackPointExtension>
        </extensions>
      </trkpt>
      <trkpt lat="42.5336687453091144561767578125" lon="19.83619906939566135406494140625">
        <ele>935</ele>
        <time>2026-06-18T13:51:37.000Z</time>
        <extensions>
          <ns3:TrackPointExtension>
            <ns3:atemp>27.0</ns3:atemp>
          </ns3:TrackPointExtension>
        </extensions>
      </trkpt>
      <trkpt lat="42.53362792544066905975341796875" lon="19.83625464141368865966796875">
        <ele>935</ele>
        <time>2026-06-18T13:51:38.000Z</time>
        <extensions>
          <ns3:TrackPointExtension>
            <ns3:atemp>28.0</ns3:atemp>
          </ns3:TrackPointExtension>
        </extensions>
      </trkpt>
      <trkpt lat="42.5335842557251453399658203125" lon="19.83629998750984668731689453125">
        <ele>935</ele>
        <time>2026-06-18T13:51:39.000Z</time>
        <extensions>
          <ns3:TrackPointExtension>
            <ns3:atemp>28.0</ns3:atemp>
          </ns3:TrackPointExtension>
        </extensions>
      </trkpt>
      <trkpt lat="42.53353974781930446624755859375" lon="19.83634843491017818450927734375">
        <ele>935</ele>
        <time>2026-06-18T13:51:40.000Z</time>
        <extensions>
          <ns3:TrackPointExtension>
            <ns3:atemp>27.0</ns3:atemp>
          </ns3:TrackPointExtension>
        </extensions>
      </trkpt>
      <trkpt lat="42.53349381498992443084716796875" lon="19.83640090562403202056884765625">
        <ele>935.20001220703125</ele>
        <time>2026-06-18T13:51:41.000Z</time>
        <extensions>
          <ns3:TrackPointExtension>
            <ns3:atemp>27.0</ns3:atemp>
          </ns3:TrackPointExtension>
        </extensions>
      </trkpt>
      <trkpt lat="42.53345240838825702667236328125" lon="19.836453460156917572021484375">
        <ele>935.20001220703125</ele>
        <time>2026-06-18T13:51:42.000Z</time>
        <extensions>
          <ns3:TrackPointExtension>
            <ns3:atemp>28.0</ns3:atemp>
          </ns3:TrackPointExtension>
        </extensions>
      </trkpt>
      <trkpt lat="42.5334105826914310455322265625" lon="19.83651372604072093963623046875">
        <ele>935.20001220703125</ele>
        <time>2026-06-18T13:51:43.000Z</time>
        <extensions>
          <ns3:TrackPointExtension>
            <ns3:atemp>28.0</ns3:atemp>
          </ns3:TrackPointExtension>
        </extensions>
      </trkpt>
      <trkpt lat="42.5333737023174762725830078125" lon="19.83657893724739551544189453125">
        <ele>935.4000244140625</ele>
        <time>2026-06-18T13:51:44.000Z</time>
        <extensions>
          <ns3:TrackPointExtension>
            <ns3:atemp>27.0</ns3:atemp>
          </ns3:TrackPointExtension>
        </extensions>
      </trkpt>
      <trkpt lat="42.5333398394286632537841796875" lon="19.8366517759859561920166015625">
        <ele>935.4000244140625</ele>
        <time>2026-06-18T13:51:45.000Z</time>
        <extensions>
          <ns3:TrackPointExtension>
            <ns3:atemp>27.0</ns3:atemp>
          </ns3:TrackPointExtension>
        </extensions>
      </trkpt>
      <trkpt lat="42.53330857492983341217041015625" lon="19.8367265425622463226318359375">
        <ele>935.5999755859375</ele>
        <time>2026-06-18T13:51:46.000Z</time>
        <extensions>
          <ns3:TrackPointExtension>
            <ns3:atemp>27.0</ns3:atemp>
          </ns3:TrackPointExtension>
        </extensions>
      </trkpt>
      <trkpt lat="42.53328141756355762481689453125" lon="19.83679971657693386077880859375">
        <ele>935.5999755859375</ele>
        <time>2026-06-18T13:51:47.000Z</time>
        <extensions>
          <ns3:TrackPointExtension>
            <ns3:atemp>27.0</ns3:atemp>
          </ns3:TrackPointExtension>
        </extensions>
      </trkpt>
      <trkpt lat="42.5332560203969478607177734375" lon="19.83687465079128742218017578125">
        <ele>935.79998779296875</ele>
        <time>2026-06-18T13:51:48.000Z</time>
        <extensions>
          <ns3:TrackPointExtension>
            <ns3:atemp>27.0</ns3:atemp>
          </ns3:TrackPointExtension>
        </extensions>
      </trkpt>
      <trkpt lat="42.53322961740195751190185546875" lon="19.836942292749881744384765625">
        <ele>936</ele>
        <time>2026-06-18T13:51:49.000Z</time>
        <extensions>
          <ns3:TrackPointExtension>
            <ns3:atemp>27.0</ns3:atemp>
          </ns3:TrackPointExtension>
        </extensions>
      </trkpt>
      <trkpt lat="42.5331976823508739471435546875" lon="19.83700297772884368896484375">
        <ele>936.4000244140625</ele>
        <time>2026-06-18T13:51:50.000Z</time>
        <extensions>
          <ns3:TrackPointExtension>
            <ns3:atemp>27.0</ns3:atemp>
          </ns3:TrackPointExtension>
        </extensions>
      </trkpt>
      <trkpt lat="42.53315803594887256622314453125" lon="19.83705821447074413299560546875">
        <ele>936.5999755859375</ele>
        <time>2026-06-18T13:51:51.000Z</time>
        <extensions>
          <ns3:TrackPointExtension>
            <ns3:atemp>27.0</ns3:atemp>
          </ns3:TrackPointExtension>
        </extensions>
      </trkpt>
      <trkpt lat="42.53311403095722198486328125" lon="19.83711185865104198455810546875">
        <ele>936.5999755859375</ele>
        <time>2026-06-18T13:51:52.000Z</time>
        <extensions>
          <ns3:TrackPointExtension>
            <ns3:atemp>27.0</ns3:atemp>
          </ns3:TrackPointExtension>
        </extensions>
      </trkpt>
      <trkpt lat="42.5330679304897785186767578125" lon="19.83716516755521297454833984375">
        <ele>936.79998779296875</ele>
        <time>2026-06-18T13:51:53.000Z</time>
        <extensions>
          <ns3:TrackPointExtension>
            <ns3:atemp>27.0</ns3:atemp>
          </ns3:TrackPointExtension>
        </extensions>
      </trkpt>
      <trkpt lat="42.53302275203168392181396484375" lon="19.83721948228776454925537109375">
        <ele>936.79998779296875</ele>
        <time>2026-06-18T13:51:54.000Z</time>
        <extensions>
          <ns3:TrackPointExtension>
            <ns3:atemp>27.0</ns3:atemp>
          </ns3:TrackPointExtension>
        </extensions>
      </trkpt>
      <trkpt lat="42.53297748975455760955810546875" lon="19.83727262355387210845947265625">
        <ele>936.79998779296875</ele>
        <time>2026-06-18T13:51:55.000Z</time>
        <extensions>
          <ns3:TrackPointExtension>
            <ns3:atemp>27.0</ns3:atemp>
          </ns3:TrackPointExtension>
        </extensions>
      </trkpt>
      <trkpt lat="42.532934658229351043701171875" lon="19.83733213506639003753662109375">
        <ele>936.5999755859375</ele>
        <time>2026-06-18T13:51:56.000Z</time>
        <extensions>
          <ns3:TrackPointExtension>
            <ns3:atemp>27.0</ns3:atemp>
          </ns3:TrackPointExtension>
        </extensions>
      </trkpt>
      <trkpt lat="42.53288830630481243133544921875" lon="19.8373897187411785125732421875">
        <ele>936.5999755859375</ele>
        <time>2026-06-18T13:51:57.000Z</time>
        <extensions>
          <ns3:TrackPointExtension>
            <ns3:atemp>27.0</ns3:atemp>
          </ns3:TrackPointExtension>
        </extensions>
      </trkpt>
      <trkpt lat="42.53283432684838771820068359375" lon="19.8374346457421779632568359375">
        <ele>936.4000244140625</ele>
        <time>2026-06-18T13:51:58.000Z</time>
        <extensions>
          <ns3:TrackPointExtension>
            <ns3:atemp>27.0</ns3:atemp>
          </ns3:TrackPointExtension>
        </extensions>
      </trkpt>
      <trkpt lat="42.5327738933265209197998046875" lon="19.83747160993516445159912109375">
        <ele>936.4000244140625</ele>
        <time>2026-06-18T13:51:59.000Z</time>
        <extensions>
          <ns3:TrackPointExtension>
            <ns3:atemp>27.0</ns3:atemp>
          </ns3:TrackPointExtension>
        </extensions>
      </trkpt>
      <trkpt lat="42.53271295689046382904052734375" lon="19.837498180568218231201171875">
        <ele>936.20001220703125</ele>
        <time>2026-06-18T13:52:00.000Z</time>
        <extensions>
          <ns3:TrackPointExtension>
            <ns3:atemp>27.0</ns3:atemp>
          </ns3:TrackPointExtension>
        </extensions>
      </trkpt>
      <trkpt lat="42.53265537321567535400390625" lon="19.83751905150711536407470703125">
        <ele>936.20001220703125</ele>
        <time>2026-06-18T13:52:01.000Z</time>
        <extensions>
          <ns3:TrackPointExtension>
            <ns3:atemp>27.0</ns3:atemp>
          </ns3:TrackPointExtension>
        </extensions>
      </trkpt>
      <trkpt lat="42.53259594552218914031982421875" lon="19.83754168264567852020263671875">
        <ele>936</ele>
        <time>2026-06-18T13:52:02.000Z</time>
        <extensions>
          <ns3:TrackPointExtension>
            <ns3:atemp>27.0</ns3:atemp>
          </ns3:TrackPointExtension>
        </extensions>
      </trkpt>
      <trkpt lat="42.5325402058660984039306640625" lon="19.83756682835519313812255859375">
        <ele>936</ele>
        <time>2026-06-18T13:52:03.000Z</time>
        <extensions>
          <ns3:TrackPointExtension>
            <ns3:atemp>27.0</ns3:atemp>
          </ns3:TrackPointExtension>
        </extensions>
      </trkpt>
      <trkpt lat="42.5324855558574199676513671875" lon="19.8375918902456760406494140625">
        <ele>935.79998779296875</ele>
        <time>2026-06-18T13:52:04.000Z</time>
        <extensions>
          <ns3:TrackPointExtension>
            <ns3:atemp>27.0</ns3:atemp>
          </ns3:TrackPointExtension>
        </extensions>
      </trkpt>
      <trkpt lat="42.5324295647442340850830078125" lon="19.83761242590844631195068359375">
        <ele>935.79998779296875</ele>
        <time>2026-06-18T13:52:05.000Z</time>
        <extensions>
          <ns3:TrackPointExtension>
            <ns3:atemp>27.0</ns3:atemp>
          </ns3:TrackPointExtension>
        </extensions>
      </trkpt>
      <trkpt lat="42.5323729030787944793701171875" lon="19.83763463795185089111328125">
        <ele>936</ele>
        <time>2026-06-18T13:52:06.000Z</time>
        <extensions>
          <ns3:TrackPointExtension>
            <ns3:atemp>27.0</ns3:atemp>
          </ns3:TrackPointExtension>
        </extensions>
      </trkpt>
      <trkpt lat="42.5323195941746234893798828125" lon="19.83766523189842700958251953125">
        <ele>936</ele>
        <time>2026-06-18T13:52:07.000Z</time>
        <extensions>
          <ns3:TrackPointExtension>
            <ns3:atemp>27.0</ns3:atemp>
          </ns3:TrackPointExtension>
        </extensions>
      </trkpt>
      <trkpt lat="42.532271482050418853759765625" lon="19.8376943171024322509765625">
        <ele>936.20001220703125</ele>
        <time>2026-06-18T13:52:08.000Z</time>
        <extensions>
          <ns3:TrackPointExtension>
            <ns3:atemp>27.0</ns3:atemp>
          </ns3:TrackPointExtension>
        </extensions>
      </trkpt>
      <trkpt lat="42.5322220288217067718505859375" lon="19.83772122301161289215087890625">
        <ele>936.4000244140625</ele>
        <time>2026-06-18T13:52:09.000Z</time>
        <extensions>
          <ns3:TrackPointExtension>
            <ns3:atemp>27.0</ns3:atemp>
          </ns3:TrackPointExtension>
        </extensions>
      </trkpt>
      <trkpt lat="42.53216930665075778961181640625" lon="19.837754331529140472412109375">
        <ele>936.4000244140625</ele>
        <time>2026-06-18T13:52:10.000Z</time>
        <extensions>
          <ns3:TrackPointExtension>
            <ns3:atemp>27.0</ns3:atemp>
          </ns3:TrackPointExtension>
        </extensions>
      </trkpt>
      <trkpt lat="42.53211365081369876861572265625" lon="19.8377930559217929840087890625">
        <ele>936.5999755859375</ele>
        <time>2026-06-18T13:52:11.000Z</time>
        <extensions>
          <ns3:TrackPointExtension>
            <ns3:atemp>27.0</ns3:atemp>
          </ns3:TrackPointExtension>
        </extensions>
      </trkpt>
      <trkpt lat="42.53205992281436920166015625" lon="19.83782985247671604156494140625">
        <ele>936.79998779296875</ele>
        <time>2026-06-18T13:52:12.000Z</time>
        <extensions>
          <ns3:TrackPointExtension>
            <ns3:atemp>27.0</ns3:atemp>
          </ns3:TrackPointExtension>
        </extensions>
      </trkpt>
      <trkpt lat="42.5320042669773101806640625" lon="19.83786664903163909912109375">
        <ele>936.79998779296875</ele>
        <time>2026-06-18T13:52:13.000Z</time>
        <extensions>
          <ns3:TrackPointExtension>
            <ns3:atemp>27.0</ns3:atemp>
          </ns3:TrackPointExtension>
        </extensions>
      </trkpt>
      <trkpt lat="42.5319474376738071441650390625" lon="19.83790285885334014892578125">
        <ele>936.79998779296875</ele>
        <time>2026-06-18T13:52:14.000Z</time>
        <extensions>
          <ns3:TrackPointExtension>
            <ns3:atemp>27.0</ns3:atemp>
          </ns3:TrackPointExtension>
        </extensions>
      </trkpt>
      <trkpt lat="42.53189186565577983856201171875" lon="19.83793412335216999053955078125">
        <ele>936.79998779296875</ele>
        <time>2026-06-18T13:52:15.000Z</time>
        <extensions>
          <ns3:TrackPointExtension>
            <ns3:atemp>27.0</ns3:atemp>
          </ns3:TrackPointExtension>
        </extensions>
      </trkpt>
      <trkpt lat="42.53183838911354541778564453125" lon="19.83796714805066585540771484375">
        <ele>937</ele>
        <time>2026-06-18T13:52:16.000Z</time>
        <extensions>
          <ns3:TrackPointExtension>
            <ns3:atemp>27.0</ns3:atemp>
          </ns3:TrackPointExtension>
        </extensions>
      </trkpt>
      <trkpt lat="42.5317841582000255584716796875" lon="19.83798592351377010345458984375">
        <ele>937.20001220703125</ele>
        <time>2026-06-18T13:52:17.000Z</time>
        <extensions>
          <ns3:TrackPointExtension>
            <ns3:atemp>27.0</ns3:atemp>
          </ns3:TrackPointExtension>
        </extensions>
      </trkpt>
      <trkpt lat="42.53173093311488628387451171875" lon="19.8379965685307979583740234375">
        <ele>937.4000244140625</ele>
        <time>2026-06-18T13:52:18.000Z</time>
        <extensions>
          <ns3:TrackPointExtension>
            <ns3:atemp>27.0</ns3:atemp>
          </ns3:TrackPointExtension>
        </extensions>
      </trkpt>
      <trkpt lat="42.531681396067142486572265625" lon="19.8380093090236186981201171875">
        <ele>937.79998779296875</ele>
        <time>2026-06-18T13:52:19.000Z</time>
        <extensions>
          <ns3:TrackPointExtension>
            <ns3:atemp>27.0</ns3:atemp>
          </ns3:TrackPointExtension>
        </extensions>
      </trkpt>
      <trkpt lat="42.53163336776196956634521484375" lon="19.83801844529807567596435546875">
        <ele>938.20001220703125</ele>
        <time>2026-06-18T13:52:20.000Z</time>
        <extensions>
          <ns3:TrackPointExtension>
            <ns3:atemp>27.0</ns3:atemp>
          </ns3:TrackPointExtension>
        </extensions>
      </trkpt>
      <trkpt lat="42.5315883569419384002685546875" lon="19.83803302980959415435791015625">
        <ele>938.5999755859375</ele>
        <time>2026-06-18T13:52:21.000Z</time>
        <extensions>
          <ns3:TrackPointExtension>
            <ns3:atemp>27.0</ns3:atemp>
          </ns3:TrackPointExtension>
        </extensions>
      </trkpt>
      <trkpt lat="42.53155231475830078125" lon="19.83805063180625438690185546875">
        <ele>939</ele>
        <time>2026-06-18T13:52:22.000Z</time>
        <extensions>
          <ns3:TrackPointExtension>
            <ns3:atemp>27.0</ns3:atemp>
          </ns3:TrackPointExtension>
        </extensions>
      </trkpt>
      <trkpt lat="42.5315202958881855010986328125" lon="19.838068149983882904052734375">
        <ele>939.5999755859375</ele>
        <time>2026-06-18T13:52:23.000Z</time>
        <extensions>
          <ns3:TrackPointExtension>
            <ns3:atemp>27.0</ns3:atemp>
          </ns3:TrackPointExtension>
        </extensions>
      </trkpt>
      <trkpt lat="42.531486935913562774658203125" lon="19.838086254894733428955078125">
        <ele>940</ele>
        <time>2026-06-18T13:52:24.000Z</time>
        <extensions>
          <ns3:TrackPointExtension>
            <ns3:atemp>27.0</ns3:atemp>
          </ns3:TrackPointExtension>
        </extensions>
      </trkpt>
      <trkpt lat="42.53145508468151092529296875" lon="19.838102348148822784423828125">
        <ele>940.5999755859375</ele>
        <time>2026-06-18T13:52:25.000Z</time>
        <extensions>
          <ns3:TrackPointExtension>
            <ns3:atemp>27.0</ns3:atemp>
          </ns3:TrackPointExtension>
        </extensions>
      </trkpt>
      <trkpt lat="42.53142382018268108367919921875" lon="19.83812841586768627166748046875">
        <ele>941.20001220703125</ele>
        <time>2026-06-18T13:52:26.000Z</time>
        <extensions>
          <ns3:TrackPointExtension>
            <ns3:atemp>27.0</ns3:atemp>
          </ns3:TrackPointExtension>
        </extensions>
      </trkpt>
      <trkpt lat="42.53138727508485317230224609375" lon="19.83815574087202548980712890625">
        <ele>941.5999755859375</ele>
        <time>2026-06-18T13:52:27.000Z</time>
        <extensions>
          <ns3:TrackPointExtension>
            <ns3:atemp>27.0</ns3:atemp>
          </ns3:TrackPointExtension>
        </extensions>
      </trkpt>
      <trkpt lat="42.53135106526315212249755859375" lon="19.83818407170474529266357421875">
        <ele>942</ele>
        <time>2026-06-18T13:52:28.000Z</time>
        <extensions>
          <ns3:TrackPointExtension>
            <ns3:atemp>27.0</ns3:atemp>
          </ns3:TrackPointExtension>
        </extensions>
      </trkpt>
      <trkpt lat="42.53130865283310413360595703125" lon="19.83821189962327480316162109375">
        <ele>942.20001220703125</ele>
        <time>2026-06-18T13:52:29.000Z</time>
        <extensions>
          <ns3:TrackPointExtension>
            <ns3:atemp>27.0</ns3:atemp>
          </ns3:TrackPointExtension>
        </extensions>
      </trkpt>
      <trkpt lat="42.5312666594982147216796875" lon="19.838241152465343475341796875">
        <ele>942.4000244140625</ele>
        <time>2026-06-18T13:52:30.000Z</time>
        <extensions>
          <ns3:TrackPointExtension>
            <ns3:atemp>27.0</ns3:atemp>
          </ns3:TrackPointExtension>
        </extensions>
      </trkpt>
      <trkpt lat="42.5312255881726741790771484375" lon="19.8382748477160930633544921875">
        <ele>942.5999755859375</ele>
        <time>2026-06-18T13:52:31.000Z</time>
        <extensions>
          <ns3:TrackPointExtension>
            <ns3:atemp>27.0</ns3:atemp>
          </ns3:TrackPointExtension>
        </extensions>
      </trkpt>
      <trkpt lat="42.5311870314180850982666015625" lon="19.83831466175615787506103515625">
        <ele>942.79998779296875</ele>
        <time>2026-06-18T13:52:32.000Z</time>
        <extensions>
          <ns3:TrackPointExtension>
            <ns3:atemp>27.0</ns3:atemp>
          </ns3:TrackPointExtension>
        </extensions>
      </trkpt>
      <trkpt lat="42.53115140832960605621337890625" lon="19.83835187740623950958251953125">
        <ele>943</ele>
        <time>2026-06-18T13:52:33.000Z</time>
        <extensions>
          <ns3:TrackPointExtension>
            <ns3:atemp>27.0</ns3:atemp>
          </ns3:TrackPointExtension>
        </extensions>
      </trkpt>
      <trkpt lat="42.53111838363111019134521484375" lon="19.83839060179889202117919921875">
        <ele>943.20001220703125</ele>
        <time>2026-06-18T13:52:34.000Z</time>
        <extensions>
          <ns3:TrackPointExtension>
            <ns3:atemp>27.0</ns3:atemp>
          </ns3:TrackPointExtension>
        </extensions>
      </trkpt>
      <trkpt lat="42.53108619712293148040771484375" lon="19.83842798508703708648681640625">
        <ele>943.5999755859375</ele>
        <time>2026-06-18T13:52:35.000Z</time>
        <extensions>
          <ns3:TrackPointExtension>
            <ns3:atemp>27.0</ns3:atemp>
          </ns3:TrackPointExtension>
        </extensions>
      </trkpt>
      <trkpt lat="42.53105501644313335418701171875" lon="19.83846880495548248291015625">
        <ele>943.79998779296875</ele>
        <time>2026-06-18T13:52:36.000Z</time>
        <extensions>
          <ns3:TrackPointExtension>
            <ns3:atemp>27.0</ns3:atemp>
          </ns3:TrackPointExtension>
        </extensions>
      </trkpt>
      <trkpt lat="42.53102651797235012054443359375" lon="19.8385150730609893798828125">
        <ele>944</ele>
        <time>2026-06-18T13:52:37.000Z</time>
        <extensions>
          <ns3:TrackPointExtension>
            <ns3:atemp>27.0</ns3:atemp>
          </ns3:TrackPointExtension>
        </extensions>
      </trkpt>
      <trkpt lat="42.5309979356825351715087890625" lon="19.8385611735284328460693359375">
        <ele>944.20001220703125</ele>
        <time>2026-06-18T13:52:38.000Z</time>
        <extensions>
          <ns3:TrackPointExtension>
            <ns3:atemp>27.0</ns3:atemp>
          </ns3:TrackPointExtension>
        </extensions>
      </trkpt>
      <trkpt lat="42.530971951782703399658203125" lon="19.8386057652533054351806640625">
        <ele>944.4000244140625</ele>
        <time>2026-06-18T13:52:39.000Z</time>
        <extensions>
          <ns3:TrackPointExtension>
            <ns3:atemp>27.0</ns3:atemp>
          </ns3:TrackPointExtension>
        </extensions>
      </trkpt>
      <trkpt lat="42.53094823099672794342041015625" lon="19.838647507131099700927734375">
        <ele>944.79998779296875</ele>
        <time>2026-06-18T13:52:40.000Z</time>
        <extensions>
          <ns3:TrackPointExtension>
            <ns3:atemp>27.0</ns3:atemp>
          </ns3:TrackPointExtension>
        </extensions>
      </trkpt>
      <trkpt lat="42.53092844970524311065673828125" lon="19.83868866227567195892333984375">
        <ele>945</ele>
        <time>2026-06-18T13:52:41.000Z</time>
        <extensions>
          <ns3:TrackPointExtension>
            <ns3:atemp>27.0</ns3:atemp>
          </ns3:TrackPointExtension>
        </extensions>
      </trkpt>
      <trkpt lat="42.53091118298470973968505859375" lon="19.8387308232486248016357421875">
        <ele>945.20001220703125</ele>
        <time>2026-06-18T13:52:42.000Z</time>
        <extensions>
          <ns3:TrackPointExtension>
            <ns3:atemp>27.0</ns3:atemp>
          </ns3:TrackPointExtension>
        </extensions>
      </trkpt>
      <trkpt lat="42.530895508825778961181640625" lon="19.83877298422157764434814453125">
        <ele>945.4000244140625</ele>
        <time>2026-06-18T13:52:43.000Z</time>
        <extensions>
          <ns3:TrackPointExtension>
            <ns3:atemp>27.0</ns3:atemp>
          </ns3:TrackPointExtension>
        </extensions>
      </trkpt>
      <trkpt lat="42.53087832592427730560302734375" lon="19.83881841413676738739013671875">
        <ele>945.5999755859375</ele>
        <time>2026-06-18T13:52:44.000Z</time>
        <extensions>
          <ns3:TrackPointExtension>
            <ns3:atemp>27.0</ns3:atemp>
          </ns3:TrackPointExtension>
        </extensions>
      </trkpt>
      <trkpt lat="42.53085988573729991912841796875" lon="19.83886853791773319244384765625">
        <ele>945.79998779296875</ele>
        <time>2026-06-18T13:52:45.000Z</time>
        <extensions>
          <ns3:TrackPointExtension>
            <ns3:atemp>27.0</ns3:atemp>
          </ns3:TrackPointExtension>
        </extensions>
      </trkpt>
      <trkpt lat="42.53083859570324420928955078125" lon="19.83892184682190418243408203125">
        <ele>946</ele>
        <time>2026-06-18T13:52:46.000Z</time>
        <extensions>
          <ns3:TrackPointExtension>
            <ns3:atemp>27.0</ns3:atemp>
          </ns3:TrackPointExtension>
        </extensions>
      </trkpt>
      <trkpt lat="42.53081462346017360687255859375" lon="19.83897163532674312591552734375">
        <ele>946.20001220703125</ele>
        <time>2026-06-18T13:52:47.000Z</time>
        <extensions>
          <ns3:TrackPointExtension>
            <ns3:atemp>27.0</ns3:atemp>
          </ns3:TrackPointExtension>
        </extensions>
      </trkpt>
      <trkpt lat="42.53078947775065898895263671875" lon="19.83902041800320148468017578125">
        <ele>946.4000244140625</ele>
        <time>2026-06-18T13:52:48.000Z</time>
        <extensions>
          <ns3:TrackPointExtension>
            <ns3:atemp>27.0</ns3:atemp>
          </ns3:TrackPointExtension>
        </extensions>
      </trkpt>
      <trkpt lat="42.53076600842177867889404296875" lon="19.8390667699277400970458984375">
        <ele>946.5999755859375</ele>
        <time>2026-06-18T13:52:49.000Z</time>
        <extensions>
          <ns3:TrackPointExtension>
            <ns3:atemp>27.0</ns3:atemp>
          </ns3:TrackPointExtension>
        </extensions>
      </trkpt>
      <trkpt lat="42.5307414494454860687255859375" lon="19.8391147144138813018798828125">
        <ele>946.79998779296875</ele>
        <time>2026-06-18T13:52:50.000Z</time>
        <extensions>
          <ns3:TrackPointExtension>
            <ns3:atemp>27.0</ns3:atemp>
          </ns3:TrackPointExtension>
        </extensions>
      </trkpt>
      <trkpt lat="42.530715800821781158447265625" lon="19.83916123397648334503173828125">
        <ele>947.20001220703125</ele>
        <time>2026-06-18T13:52:51.000Z</time>
        <extensions>
          <ns3:TrackPointExtension>
            <ns3:atemp>27.0</ns3:atemp>
          </ns3:TrackPointExtension>
        </extensions>
      </trkpt>
      <trkpt lat="42.5306891463696956634521484375" lon="19.83920775353908538818359375">
        <ele>947.4000244140625</ele>
        <time>2026-06-18T13:52:52.000Z</time>
        <extensions>
          <ns3:TrackPointExtension>
            <ns3:atemp>27.0</ns3:atemp>
          </ns3:TrackPointExtension>
        </extensions>
      </trkpt>
      <trkpt lat="42.53065804950892925262451171875" lon="19.839250333607196807861328125">
        <ele>947.5999755859375</ele>
        <time>2026-06-18T13:52:53.000Z</time>
        <extensions>
          <ns3:TrackPointExtension>
            <ns3:atemp>27.0</ns3:atemp>
          </ns3:TrackPointExtension>
        </extensions>
      </trkpt>
      <trkpt lat="42.530624605715274810791015625" lon="19.83928897418081760406494140625">
        <ele>948</ele>
        <time>2026-06-18T13:52:54.000Z</time>
        <extensions>
          <ns3:TrackPointExtension>
            <ns3:atemp>27.0</ns3:atemp>
          </ns3:TrackPointExtension>
        </extensions>
      </trkpt>
      <trkpt lat="42.5305902399122714996337890625" lon="19.8393237590789794921875">
        <ele>948.20001220703125</ele>
        <time>2026-06-18T13:52:55.000Z</time>
        <extensions>
          <ns3:TrackPointExtension>
            <ns3:atemp>27.0</ns3:atemp>
          </ns3:TrackPointExtension>
        </extensions>
      </trkpt>
      <trkpt lat="42.530556879937648773193359375" lon="19.83935737051069736480712890625">
        <ele>948.5999755859375</ele>
        <time>2026-06-18T13:52:56.000Z</time>
        <extensions>
          <ns3:TrackPointExtension>
            <ns3:atemp>27.0</ns3:atemp>
          </ns3:TrackPointExtension>
        </extensions>
      </trkpt>
      <trkpt lat="42.5305228494107723236083984375" lon="19.839389808475971221923828125">
        <ele>948.79998779296875</ele>
        <time>2026-06-18T13:52:57.000Z</time>
        <extensions>
          <ns3:TrackPointExtension>
            <ns3:atemp>27.0</ns3:atemp>
          </ns3:TrackPointExtension>
        </extensions>
      </trkpt>
      <trkpt lat="42.530487142503261566162109375" lon="19.83942543156445026397705078125">
        <ele>949</ele>
        <time>2026-06-18T13:52:58.000Z</time>
        <extensions>
          <ns3:TrackPointExtension>
            <ns3:atemp>27.0</ns3:atemp>
          </ns3:TrackPointExtension>
        </extensions>
      </trkpt>
      <trkpt lat="42.53045353107154369354248046875" lon="19.8394680954515933990478515625">
        <ele>949.20001220703125</ele>
        <time>2026-06-18T13:52:59.000Z</time>
        <extensions>
          <ns3:TrackPointExtension>
            <ns3:atemp>27.0</ns3:atemp>
          </ns3:TrackPointExtension>
        </extensions>
      </trkpt>
      <trkpt lat="42.53042385913431644439697265625" lon="19.83951645903289318084716796875">
        <ele>949.5999755859375</ele>
        <time>2026-06-18T13:53:00.000Z</time>
        <extensions>
          <ns3:TrackPointExtension>
            <ns3:atemp>27.0</ns3:atemp>
          </ns3:TrackPointExtension>
        </extensions>
      </trkpt>
      <trkpt lat="42.53039753995835781097412109375" lon="19.83956582844257354736328125">
        <ele>949.79998779296875</ele>
        <time>2026-06-18T13:53:01.000Z</time>
        <extensions>
          <ns3:TrackPointExtension>
            <ns3:atemp>27.0</ns3:atemp>
          </ns3:TrackPointExtension>
        </extensions>
      </trkpt>
      <trkpt lat="42.53037004731595516204833984375" lon="19.83962349593639373779296875">
        <ele>950.20001220703125</ele>
        <time>2026-06-18T13:53:02.000Z</time>
        <extensions>
          <ns3:TrackPointExtension>
            <ns3:atemp>27.0</ns3:atemp>
          </ns3:TrackPointExtension>
        </extensions>
      </trkpt>
      <trkpt lat="42.53034657798707485198974609375" lon="19.8396853543817996978759765625">
        <ele>950.4000244140625</ele>
        <time>2026-06-18T13:53:03.000Z</time>
        <extensions>
          <ns3:TrackPointExtension>
            <ns3:atemp>27.0</ns3:atemp>
          </ns3:TrackPointExtension>
        </extensions>
      </trkpt>
      <trkpt lat="42.53032981418073177337646484375" lon="19.839752577245235443115234375">
        <ele>950.79998779296875</ele>
        <time>2026-06-18T13:53:04.000Z</time>
        <extensions>
          <ns3:TrackPointExtension>
            <ns3:atemp>27.0</ns3:atemp>
          </ns3:TrackPointExtension>
        </extensions>
      </trkpt>
      <trkpt lat="42.5303159840404987335205078125" lon="19.8398238234221935272216796875">
        <ele>951</ele>
        <time>2026-06-18T13:53:05.000Z</time>
        <extensions>
          <ns3:TrackPointExtension>
            <ns3:atemp>27.0</ns3:atemp>
          </ns3:TrackPointExtension>
        </extensions>
      </trkpt>
      <trkpt lat="42.53030299209058284759521484375" lon="19.83989196829497814178466796875">
        <ele>951.4000244140625</ele>
        <time>2026-06-18T13:53:06.000Z</time>
        <extensions>
          <ns3:TrackPointExtension>
            <ns3:atemp>27.0</ns3:atemp>
          </ns3:TrackPointExtension>
        </extensions>
      </trkpt>
      <trkpt lat="42.5302908383309841156005859375" lon="19.8399634659290313720703125">
        <ele>951.5999755859375</ele>
        <time>2026-06-18T13:53:07.000Z</time>
        <extensions>
          <ns3:TrackPointExtension>
            <ns3:atemp>27.0</ns3:atemp>
          </ns3:TrackPointExtension>
        </extensions>
      </trkpt>
      <trkpt lat="42.53027918748557567596435546875" lon="19.84003010205924510955810546875">
        <ele>952</ele>
        <time>2026-06-18T13:53:08.000Z</time>
        <extensions>
          <ns3:TrackPointExtension>
            <ns3:atemp>27.0</ns3:atemp>
          </ns3:TrackPointExtension>
        </extensions>
      </trkpt>
      <trkpt lat="42.53027021884918212890625" lon="19.8400923795998096466064453125">
        <ele>952.4000244140625</ele>
        <time>2026-06-18T13:53:09.000Z</time>
        <extensions>
          <ns3:TrackPointExtension>
            <ns3:atemp>27.0</ns3:atemp>
          </ns3:TrackPointExtension>
        </extensions>
      </trkpt>
      <trkpt lat="42.53025923855602741241455078125" lon="19.84015717171132564544677734375">
        <ele>952.5999755859375</ele>
        <time>2026-06-18T13:53:10.000Z</time>
        <extensions>
          <ns3:TrackPointExtension>
            <ns3:atemp>27.0</ns3:atemp>
          </ns3:TrackPointExtension>
        </extensions>
      </trkpt>
      <trkpt lat="42.530247755348682403564453125" lon="19.84021953307092189788818359375">
        <ele>953.20001220703125</ele>
        <time>2026-06-18T13:53:11.000Z</time>
        <extensions>
          <ns3:TrackPointExtension>
            <ns3:atemp>27.0</ns3:atemp>
          </ns3:TrackPointExtension>
        </extensions>
      </trkpt>
      <trkpt lat="42.5302368588745594024658203125" lon="19.84028440900146961212158203125">
        <ele>953.4000244140625</ele>
        <time>2026-06-18T13:53:12.000Z</time>
        <extensions>
          <ns3:TrackPointExtension>
            <ns3:atemp>27.0</ns3:atemp>
          </ns3:TrackPointExtension>
        </extensions>
      </trkpt>
      <trkpt lat="42.5302281416952610015869140625" lon="19.8403525538742542266845703125">
        <ele>953.79998779296875</ele>
        <time>2026-06-18T13:53:13.000Z</time>
        <extensions>
          <ns3:TrackPointExtension>
            <ns3:atemp>27.0</ns3:atemp>
          </ns3:TrackPointExtension>
        </extensions>
      </trkpt>
      <trkpt lat="42.53022260963916778564453125" lon="19.8404199443757534027099609375">
        <ele>954.20001220703125</ele>
        <time>2026-06-18T13:53:14.000Z</time>
        <extensions>
          <ns3:TrackPointExtension>
            <ns3:atemp>27.0</ns3:atemp>
          </ns3:TrackPointExtension>
        </extensions>
      </trkpt>
      <trkpt lat="42.5302205979824066162109375" lon="19.8404920287430286407470703125">
        <ele>954.4000244140625</ele>
        <time>2026-06-18T13:53:15.000Z</time>
        <extensions>
          <ns3:TrackPointExtension>
            <ns3:atemp>27.0</ns3:atemp>
          </ns3:TrackPointExtension>
        </extensions>
      </trkpt>
      <trkpt lat="42.5302179157733917236328125" lon="19.84056235291063785552978515625">
        <ele>954.79998779296875</ele>
        <time>2026-06-18T13:53:16.000Z</time>
        <extensions>
          <ns3:TrackPointExtension>
            <ns3:atemp>27.0</ns3:atemp>
          </ns3:TrackPointExtension>
        </extensions>
      </trkpt>
      <trkpt lat="42.53021565265953540802001953125" lon="19.8406311683356761932373046875">
        <ele>955.20001220703125</ele>
        <time>2026-06-18T13:53:17.000Z</time>
        <extensions>
          <ns3:TrackPointExtension>
            <ns3:atemp>27.0</ns3:atemp>
          </ns3:TrackPointExtension>
        </extensions>
      </trkpt>
      <trkpt lat="42.53021665848791599273681640625" lon="19.8407005704939365386962890625">
        <ele>955.5999755859375</ele>
        <time>2026-06-18T13:53:18.000Z</time>
        <extensions>
          <ns3:TrackPointExtension>
            <ns3:atemp>27.0</ns3:atemp>
          </ns3:TrackPointExtension>
        </extensions>
      </trkpt>
      <trkpt lat="42.53021950833499431610107421875" lon="19.84076745808124542236328125">
        <ele>955.79998779296875</ele>
        <time>2026-06-18T13:53:19.000Z</time>
        <extensions>
          <ns3:TrackPointExtension>
            <ns3:atemp>27.0</ns3:atemp>
          </ns3:TrackPointExtension>
        </extensions>
      </trkpt>
      <trkpt lat="42.5302234478294849395751953125" lon="19.84083652496337890625">
        <ele>956.20001220703125</ele>
        <time>2026-06-18T13:53:20.000Z</time>
        <extensions>
          <ns3:TrackPointExtension>
            <ns3:atemp>27.0</ns3:atemp>
          </ns3:TrackPointExtension>
        </extensions>
      </trkpt>
      <trkpt lat="42.53022797405719757080078125" lon="19.84090425074100494384765625">
        <ele>956.5999755859375</ele>
        <time>2026-06-18T13:53:21.000Z</time>
        <extensions>
          <ns3:TrackPointExtension>
            <ns3:atemp>27.0</ns3:atemp>
          </ns3:TrackPointExtension>
        </extensions>
      </trkpt>
      <trkpt lat="42.5302340090274810791015625" lon="19.84097398817539215087890625">
        <ele>957</ele>
        <time>2026-06-18T13:53:22.000Z</time>
        <extensions>
          <ns3:TrackPointExtension>
            <ns3:atemp>27.0</ns3:atemp>
          </ns3:TrackPointExtension>
        </extensions>
      </trkpt>
      <trkpt lat="42.53023996017873287200927734375" lon="19.84104682691395282745361328125">
        <ele>957.4000244140625</ele>
        <time>2026-06-18T13:53:23.000Z</time>
        <extensions>
          <ns3:TrackPointExtension>
            <ns3:atemp>27.0</ns3:atemp>
          </ns3:TrackPointExtension>
        </extensions>
      </trkpt>
      <trkpt lat="42.5302475877106189727783203125" lon="19.84112285077571868896484375">
        <ele>957.79998779296875</ele>
        <time>2026-06-18T13:53:24.000Z</time>
        <extensions>
          <ns3:TrackPointExtension>
            <ns3:atemp>27.0</ns3:atemp>
          </ns3:TrackPointExtension>
        </extensions>
      </trkpt>
      <trkpt lat="42.53025437705218791961669921875" lon="19.84120122157037258148193359375">
        <ele>958</ele>
        <time>2026-06-18T13:53:25.000Z</time>
        <extensions>
          <ns3:TrackPointExtension>
            <ns3:atemp>27.0</ns3:atemp>
          </ns3:TrackPointExtension>
        </extensions>
      </trkpt>
      <trkpt lat="42.53026309423148632049560546875" lon="19.8412792570888996124267578125">
        <ele>958.4000244140625</ele>
        <time>2026-06-18T13:53:26.000Z</time>
        <extensions>
          <ns3:TrackPointExtension>
            <ns3:atemp>27.0</ns3:atemp>
          </ns3:TrackPointExtension>
        </extensions>
      </trkpt>
      <trkpt lat="42.5302710570394992828369140625" lon="19.8413563705980777740478515625">
        <ele>958.79998779296875</ele>
        <time>2026-06-18T13:53:27.000Z</time>
        <extensions>
          <ns3:TrackPointExtension>
            <ns3:atemp>27.0</ns3:atemp>
          </ns3:TrackPointExtension>
        </extensions>
      </trkpt>
      <trkpt lat="42.53027818165719509124755859375" lon="19.84143272973597049713134765625">
        <ele>959.20001220703125</ele>
        <time>2026-06-18T13:53:28.000Z</time>
        <extensions>
          <ns3:TrackPointExtension>
            <ns3:atemp>27.0</ns3:atemp>
          </ns3:TrackPointExtension>
        </extensions>
      </trkpt>
      <trkpt lat="42.5302884913980960845947265625" lon="19.84149643220007419586181640625">
        <ele>959.5999755859375</ele>
        <time>2026-06-18T13:53:29.000Z</time>
        <extensions>
          <ns3:TrackPointExtension>
            <ns3:atemp>27.0</ns3:atemp>
          </ns3:TrackPointExtension>
        </extensions>
      </trkpt>
      <trkpt lat="42.53030131570994853973388671875" lon="19.84156130813062191009521484375">
        <ele>960</ele>
        <time>2026-06-18T13:53:30.000Z</time>
        <extensions>
          <ns3:TrackPointExtension>
            <ns3:atemp>27.0</ns3:atemp>
          </ns3:TrackPointExtension>
        </extensions>
      </trkpt>
      <trkpt lat="42.5303146429359912872314453125" lon="19.8416255973279476165771484375">
        <ele>960.5999755859375</ele>
        <time>2026-06-18T13:53:31.000Z</time>
        <extensions>
          <ns3:TrackPointExtension>
            <ns3:atemp>27.0</ns3:atemp>
          </ns3:TrackPointExtension>
        </extensions>
      </trkpt>
      <trkpt lat="42.53033065237104892730712890625" lon="19.84168753959238529205322265625">
        <ele>961</ele>
        <time>2026-06-18T13:53:32.000Z</time>
        <extensions>
          <ns3:TrackPointExtension>
            <ns3:atemp>27.0</ns3:atemp>
          </ns3:TrackPointExtension>
        </extensions>
      </trkpt>
      <trkpt lat="42.5303414650261402130126953125" lon="19.84174621291458606719970703125">
        <ele>961.4000244140625</ele>
        <time>2026-06-18T13:53:33.000Z</time>
        <extensions>
          <ns3:TrackPointExtension>
            <ns3:atemp>27.0</ns3:atemp>
          </ns3:TrackPointExtension>
        </extensions>
      </trkpt>
      <trkpt lat="42.53035294823348522186279296875" lon="19.84180815517902374267578125">
        <ele>962</ele>
        <time>2026-06-18T13:53:34.000Z</time>
        <extensions>
          <ns3:TrackPointExtension>
            <ns3:atemp>27.0</ns3:atemp>
          </ns3:TrackPointExtension>
        </extensions>
      </trkpt>
      <trkpt lat="42.53036367706954479217529296875" lon="19.8418705165386199951171875">
        <ele>962.4000244140625</ele>
        <time>2026-06-18T13:53:35.000Z</time>
        <extensions>
          <ns3:TrackPointExtension>
            <ns3:atemp>27.0</ns3:atemp>
          </ns3:TrackPointExtension>
        </extensions>
      </trkpt>
      <trkpt lat="42.53037574701011180877685546875" lon="19.8419333808124065399169921875">
        <ele>962.79998779296875</ele>
        <time>2026-06-18T13:53:36.000Z</time>
        <extensions>
          <ns3:TrackPointExtension>
            <ns3:atemp>27.0</ns3:atemp>
          </ns3:TrackPointExtension>
        </extensions>
      </trkpt>
      <trkpt lat="42.5303853861987590789794921875" lon="19.8420004360377788543701171875">
        <ele>963.20001220703125</ele>
        <time>2026-06-18T13:53:37.000Z</time>
        <extensions>
          <ns3:TrackPointExtension>
            <ns3:atemp>27.0</ns3:atemp>
          </ns3:TrackPointExtension>
        </extensions>
      </trkpt>
      <trkpt lat="42.53039167262613773345947265625" lon="19.842067994177341461181640625">
        <ele>963.5999755859375</ele>
        <time>2026-06-18T13:53:38.000Z</time>
        <extensions>
          <ns3:TrackPointExtension>
            <ns3:atemp>27.0</ns3:atemp>
          </ns3:TrackPointExtension>
        </extensions>
      </trkpt>
      <trkpt lat="42.530391253530979156494140625" lon="19.84213731251657009124755859375">
        <ele>964</ele>
        <time>2026-06-18T13:53:39.000Z</time>
        <extensions>
          <ns3:TrackPointExtension>
            <ns3:atemp>27.0</ns3:atemp>
          </ns3:TrackPointExtension>
        </extensions>
      </trkpt>
      <trkpt lat="42.53038614057004451751708984375" lon="19.8422089777886867523193359375">
        <ele>964.4000244140625</ele>
        <time>2026-06-18T13:53:40.000Z</time>
        <extensions>
          <ns3:TrackPointExtension>
            <ns3:atemp>27.0</ns3:atemp>
          </ns3:TrackPointExtension>
        </extensions>
      </trkpt>
      <trkpt lat="42.53037474118173122406005859375" lon="19.84227242879569530487060546875">
        <ele>964.79998779296875</ele>
        <time>2026-06-18T13:53:41.000Z</time>
        <extensions>
          <ns3:TrackPointExtension>
            <ns3:atemp>27.0</ns3:atemp>
          </ns3:TrackPointExtension>
        </extensions>
      </trkpt>
      <trkpt lat="42.53035512752830982208251953125" lon="19.84233319759368896484375">
        <ele>965.20001220703125</ele>
        <time>2026-06-18T13:53:42.000Z</time>
        <extensions>
          <ns3:TrackPointExtension>
            <ns3:atemp>27.0</ns3:atemp>
          </ns3:TrackPointExtension>
        </extensions>
      </trkpt>
      <trkpt lat="42.53032931126654148101806640625" lon="19.84238776378333568572998046875">
        <ele>965.5999755859375</ele>
        <time>2026-06-18T13:53:43.000Z</time>
        <extensions>
          <ns3:TrackPointExtension>
            <ns3:atemp>27.0</ns3:atemp>
          </ns3:TrackPointExtension>
        </extensions>
      </trkpt>
      <trkpt lat="42.53029947169125080108642578125" lon="19.842436127364635467529296875">
        <ele>966.20001220703125</ele>
        <time>2026-06-18T13:53:44.000Z</time>
        <extensions>
          <ns3:TrackPointExtension>
            <ns3:atemp>27.0</ns3:atemp>
          </ns3:TrackPointExtension>
        </extensions>
      </trkpt>
      <trkpt lat="42.53026485443115234375" lon="19.84247812069952487945556640625">
        <ele>966.5999755859375</ele>
        <time>2026-06-18T13:53:45.000Z</time>
        <extensions>
          <ns3:TrackPointExtension>
            <ns3:atemp>27.0</ns3:atemp>
          </ns3:TrackPointExtension>
        </extensions>
      </trkpt>
      <trkpt lat="42.530228979885578155517578125" lon="19.8425221256911754608154296875">
        <ele>967.20001220703125</ele>
        <time>2026-06-18T13:53:46.000Z</time>
        <extensions>
          <ns3:TrackPointExtension>
            <ns3:atemp>27.0</ns3:atemp>
          </ns3:TrackPointExtension>
        </extensions>
      </trkpt>
      <trkpt lat="42.5301910936832427978515625" lon="19.84256529249250888824462890625">
        <ele>968</ele>
        <time>2026-06-18T13:53:47.000Z</time>
        <extensions>
          <ns3:TrackPointExtension>
            <ns3:atemp>27.0</ns3:atemp>
          </ns3:TrackPointExtension>
        </extensions>
      </trkpt>
      <trkpt lat="42.5301535427570343017578125" lon="19.842605777084827423095703125">
        <ele>968.4000244140625</ele>
        <time>2026-06-18T13:53:48.000Z</time>
        <extensions>
          <ns3:TrackPointExtension>
            <ns3:atemp>27.0</ns3:atemp>
          </ns3:TrackPointExtension>
        </extensions>
      </trkpt>
      <trkpt lat="42.5301185064017772674560546875" lon="19.84264676459133625030517578125">
        <ele>969</ele>
        <time>2026-06-18T13:53:49.000Z</time>
        <extensions>
          <ns3:TrackPointExtension>
            <ns3:atemp>27.0</ns3:atemp>
          </ns3:TrackPointExtension>
        </extensions>
      </trkpt>
      <trkpt lat="42.53008447587490081787109375" lon="19.842678867280483245849609375">
        <ele>969.5999755859375</ele>
        <time>2026-06-18T13:53:50.000Z</time>
        <extensions>
          <ns3:TrackPointExtension>
            <ns3:atemp>27.0</ns3:atemp>
          </ns3:TrackPointExtension>
        </extensions>
      </trkpt>
      <trkpt lat="42.5300541333854198455810546875" lon="19.84270979650318622589111328125">
        <ele>970</ele>
        <time>2026-06-18T13:53:51.000Z</time>
        <extensions>
          <ns3:TrackPointExtension>
            <ns3:atemp>27.0</ns3:atemp>
          </ns3:TrackPointExtension>
        </extensions>
      </trkpt>
      <trkpt lat="42.53002940677106380462646484375" lon="19.8427400551736354827880859375">
        <ele>970.79998779296875</ele>
        <time>2026-06-18T13:53:52.000Z</time>
        <extensions>
          <ns3:TrackPointExtension>
            <ns3:atemp>27.0</ns3:atemp>
          </ns3:TrackPointExtension>
        </extensions>
      </trkpt>
      <trkpt lat="42.53000266849994659423828125" lon="19.84277349896728992462158203125">
        <ele>971.4000244140625</ele>
        <time>2026-06-18T13:53:53.000Z</time>
        <extensions>
          <ns3:TrackPointExtension>
            <ns3:atemp>27.0</ns3:atemp>
          </ns3:TrackPointExtension>
        </extensions>
      </trkpt>
      <trkpt lat="42.52997911535203456878662109375" lon="19.84279830940067768096923828125">
        <ele>971.79998779296875</ele>
        <time>2026-06-18T13:53:54.000Z</time>
        <extensions>
          <ns3:TrackPointExtension>
            <ns3:atemp>27.0</ns3:atemp>
          </ns3:TrackPointExtension>
        </extensions>
      </trkpt>
      <trkpt lat="42.52995681948959827423095703125" lon="19.84281557612121105194091796875">
        <ele>972.4000244140625</ele>
        <time>2026-06-18T13:53:55.000Z</time>
        <extensions>
          <ns3:TrackPointExtension>
            <ns3:atemp>27.0</ns3:atemp>
          </ns3:TrackPointExtension>
        </extensions>
      </trkpt>
      <trkpt lat="42.5299330987036228179931640625" lon="19.84283770434558391571044921875">
        <ele>972.79998779296875</ele>
        <time>2026-06-18T13:53:56.000Z</time>
        <extensions>
          <ns3:TrackPointExtension>
            <ns3:atemp>27.0</ns3:atemp>
          </ns3:TrackPointExtension>
        </extensions>
      </trkpt>
      <trkpt lat="42.52990870736539363861083984375" lon="19.84286553226411342620849609375">
        <ele>973.20001220703125</ele>
        <time>2026-06-18T13:53:57.000Z</time>
        <extensions>
          <ns3:TrackPointExtension>
            <ns3:atemp>27.0</ns3:atemp>
          </ns3:TrackPointExtension>
        </extensions>
      </trkpt>
      <trkpt lat="42.5298828072845935821533203125" lon="19.84289637766778469085693359375">
        <ele>973.5999755859375</ele>
        <time>2026-06-18T13:53:58.000Z</time>
        <extensions>
          <ns3:TrackPointExtension>
            <ns3:atemp>27.0</ns3:atemp>
          </ns3:TrackPointExtension>
        </extensions>
      </trkpt>
      <trkpt lat="42.52986076287925243377685546875" lon="19.84293065965175628662109375">
        <ele>974</ele>
        <time>2026-06-18T13:53:59.000Z</time>
        <extensions>
          <ns3:TrackPointExtension>
            <ns3:atemp>27.0</ns3:atemp>
          </ns3:TrackPointExtension>
        </extensions>
      </trkpt>
      <trkpt lat="42.52983813174068927764892578125" lon="19.84296913258731365203857421875">
        <ele>974.4000244140625</ele>
        <time>2026-06-18T13:54:00.000Z</time>
        <extensions>
          <ns3:TrackPointExtension>
            <ns3:atemp>27.0</ns3:atemp>
          </ns3:TrackPointExtension>
        </extensions>
      </trkpt>
      <trkpt lat="42.52982052974402904510498046875" lon="19.8430092819035053253173828125">
        <ele>974.79998779296875</ele>
        <time>2026-06-18T13:54:01.000Z</time>
        <extensions>
          <ns3:TrackPointExtension>
            <ns3:atemp>27.0</ns3:atemp>
          </ns3:TrackPointExtension>
        </extensions>
      </trkpt>
      <trkpt lat="42.52980158664286136627197265625" lon="19.84304465353488922119140625">
        <ele>975.4000244140625</ele>
        <time>2026-06-18T13:54:02.000Z</time>
        <extensions>
          <ns3:TrackPointExtension>
            <ns3:atemp>27.0</ns3:atemp>
          </ns3:TrackPointExtension>
        </extensions>
      </trkpt>
      <trkpt lat="42.5297820568084716796875" lon="19.84308061189949512481689453125">
        <ele>975.79998779296875</ele>
        <time>2026-06-18T13:54:03.000Z</time>
        <extensions>
          <ns3:TrackPointExtension>
            <ns3:atemp>27.0</ns3:atemp>
          </ns3:TrackPointExtension>
        </extensions>
      </trkpt>
      <trkpt lat="42.5297621078789234161376953125" lon="19.84311967156827449798583984375">
        <ele>976.20001220703125</ele>
        <time>2026-06-18T13:54:04.000Z</time>
        <extensions>
          <ns3:TrackPointExtension>
            <ns3:atemp>27.0</ns3:atemp>
          </ns3:TrackPointExtension>
        </extensions>
      </trkpt>
      <trkpt lat="42.52974492497742176055908203125" lon="19.8431641794741153717041015625">
        <ele>976.5999755859375</ele>
        <time>2026-06-18T13:54:05.000Z</time>
        <extensions>
          <ns3:TrackPointExtension>
            <ns3:atemp>27.0</ns3:atemp>
          </ns3:TrackPointExtension>
        </extensions>
      </trkpt>
      <trkpt lat="42.529732100665569305419921875" lon="19.843208603560924530029296875">
        <ele>977.20001220703125</ele>
        <time>2026-06-18T13:54:06.000Z</time>
        <extensions>
          <ns3:TrackPointExtension>
            <ns3:atemp>27.0</ns3:atemp>
          </ns3:TrackPointExtension>
        </extensions>
      </trkpt>
      <trkpt lat="42.529721371829509735107421875" lon="19.84325042925775051116943359375">
        <ele>977.5999755859375</ele>
        <time>2026-06-18T13:54:07.000Z</time>
        <extensions>
          <ns3:TrackPointExtension>
            <ns3:atemp>27.0</ns3:atemp>
          </ns3:TrackPointExtension>
        </extensions>
      </trkpt>
      <trkpt lat="42.529720030725002288818359375" lon="19.84329435043036937713623046875">
        <ele>978</ele>
        <time>2026-06-18T13:54:08.000Z</time>
        <extensions>
          <ns3:TrackPointExtension>
            <ns3:atemp>27.0</ns3:atemp>
          </ns3:TrackPointExtension>
        </extensions>
      </trkpt>
      <trkpt lat="42.529730089008808135986328125" lon="19.84333743341267108917236328125">
        <ele>978.5999755859375</ele>
        <time>2026-06-18T13:54:09.000Z</time>
        <extensions>
          <ns3:TrackPointExtension>
            <ns3:atemp>27.0</ns3:atemp>
          </ns3:TrackPointExtension>
        </extensions>
      </trkpt>
      <trkpt lat="42.52974676899611949920654296875" lon="19.84337984584271907806396484375">
        <ele>979</ele>
        <time>2026-06-18T13:54:10.000Z</time>
        <extensions>
          <ns3:TrackPointExtension>
            <ns3:atemp>27.0</ns3:atemp>
          </ns3:TrackPointExtension>
        </extensions>
      </trkpt>
      <trkpt lat="42.52976235933601856231689453125" lon="19.84343047253787517547607421875">
        <ele>979.4000244140625</ele>
        <time>2026-06-18T13:54:11.000Z</time>
        <extensions>
          <ns3:TrackPointExtension>
            <ns3:atemp>27.0</ns3:atemp>
          </ns3:TrackPointExtension>
        </extensions>
      </trkpt>
      <trkpt lat="42.52977577038109302520751953125" lon="19.8434800095856189727783203125">
        <ele>979.79998779296875</ele>
        <time>2026-06-18T13:54:12.000Z</time>
        <extensions>
          <ns3:TrackPointExtension>
            <ns3:atemp>27.0</ns3:atemp>
          </ns3:TrackPointExtension>
        </extensions>
      </trkpt>
      <trkpt lat="42.5297839008271694183349609375" lon="19.84353491105139255523681640625">
        <ele>980.20001220703125</ele>
        <time>2026-06-18T13:54:13.000Z</time>
        <extensions>
          <ns3:TrackPointExtension>
            <ns3:atemp>27.0</ns3:atemp>
          </ns3:TrackPointExtension>
        </extensions>
      </trkpt>
      <trkpt lat="42.52978046424686908721923828125" lon="19.8435886390507221221923828125">
        <ele>980.5999755859375</ele>
        <time>2026-06-18T13:54:14.000Z</time>
        <extensions>
          <ns3:TrackPointExtension>
            <ns3:atemp>27.0</ns3:atemp>
          </ns3:TrackPointExtension>
        </extensions>
      </trkpt>
      <trkpt lat="42.52976923249661922454833984375" lon="19.8436352424323558807373046875">
        <ele>980.79998779296875</ele>
        <time>2026-06-18T13:54:15.000Z</time>
        <extensions>
          <ns3:TrackPointExtension>
            <ns3:atemp>27.0</ns3:atemp>
          </ns3:TrackPointExtension>
        </extensions>
      </trkpt>
      <trkpt lat="42.52975934185087680816650390625" lon="19.8436758108437061309814453125">
        <ele>981.4000244140625</ele>
        <time>2026-06-18T13:54:16.000Z</time>
        <extensions>
          <ns3:TrackPointExtension>
            <ns3:atemp>27.0</ns3:atemp>
          </ns3:TrackPointExtension>
        </extensions>
      </trkpt>
      <trkpt lat="42.52974391914904117584228515625" lon="19.84371512196958065032958984375">
        <ele>982</ele>
        <time>2026-06-18T13:54:17.000Z</time>
        <extensions>
          <ns3:TrackPointExtension>
            <ns3:atemp>27.0</ns3:atemp>
          </ns3:TrackPointExtension>
        </extensions>
      </trkpt>
      <trkpt lat="42.52972631715238094329833984375" lon="19.8437502421438694000244140625">
        <ele>982.5999755859375</ele>
        <time>2026-06-18T13:54:18.000Z</time>
        <extensions>
          <ns3:TrackPointExtension>
            <ns3:atemp>27.0</ns3:atemp>
          </ns3:TrackPointExtension>
        </extensions>
      </trkpt>
      <trkpt lat="42.52970435656607151031494140625" lon="19.84379089437425136566162109375">
        <ele>983.20001220703125</ele>
        <time>2026-06-18T13:54:19.000Z</time>
        <extensions>
          <ns3:TrackPointExtension>
            <ns3:atemp>27.0</ns3:atemp>
          </ns3:TrackPointExtension>
        </extensions>
      </trkpt>
      <trkpt lat="42.529687844216823577880859375" lon="19.84382593072950839996337890625">
        <ele>983.79998779296875</ele>
        <time>2026-06-18T13:54:20.000Z</time>
        <extensions>
          <ns3:TrackPointExtension>
            <ns3:atemp>27.0</ns3:atemp>
          </ns3:TrackPointExtension>
        </extensions>
      </trkpt>
      <trkpt lat="42.52966848202049732208251953125" lon="19.84385727904736995697021484375">
        <ele>984.20001220703125</ele>
        <time>2026-06-18T13:54:21.000Z</time>
        <extensions>
          <ns3:TrackPointExtension>
            <ns3:atemp>27.0</ns3:atemp>
          </ns3:TrackPointExtension>
        </extensions>
      </trkpt>
      <trkpt lat="42.52964819781482219696044921875" lon="19.84389281831681728363037109375">
        <ele>984.79998779296875</ele>
        <time>2026-06-18T13:54:22.000Z</time>
        <extensions>
          <ns3:TrackPointExtension>
            <ns3:atemp>27.0</ns3:atemp>
          </ns3:TrackPointExtension>
        </extensions>
      </trkpt>
      <trkpt lat="42.529629506170749664306640625" lon="19.84392668120563030242919921875">
        <ele>985.5999755859375</ele>
        <time>2026-06-18T13:54:23.000Z</time>
        <extensions>
          <ns3:TrackPointExtension>
            <ns3:atemp>27.0</ns3:atemp>
          </ns3:TrackPointExtension>
        </extensions>
      </trkpt>
      <trkpt lat="42.52960762940347194671630859375" lon="19.84396104700863361358642578125">
        <ele>986.20001220703125</ele>
        <time>2026-06-18T13:54:24.000Z</time>
        <extensions>
          <ns3:TrackPointExtension>
            <ns3:atemp>27.0</ns3:atemp>
          </ns3:TrackPointExtension>
        </extensions>
      </trkpt>
      <trkpt lat="42.52958633936941623687744140625" lon="19.84399574808776378631591796875">
        <ele>986.79998779296875</ele>
        <time>2026-06-18T13:54:25.000Z</time>
        <extensions>
          <ns3:TrackPointExtension>
            <ns3:atemp>27.0</ns3:atemp>
          </ns3:TrackPointExtension>
        </extensions>
      </trkpt>
      <trkpt lat="42.52956555224955081939697265625" lon="19.844035394489765167236328125">
        <ele>987.4000244140625</ele>
        <time>2026-06-18T13:54:26.000Z</time>
        <extensions>
          <ns3:TrackPointExtension>
            <ns3:atemp>27.0</ns3:atemp>
          </ns3:TrackPointExtension>
        </extensions>
      </trkpt>
      <trkpt lat="42.529547698795795440673828125" lon="19.84407269395887851715087890625">
        <ele>988</ele>
        <time>2026-06-18T13:54:27.000Z</time>
        <extensions>
          <ns3:TrackPointExtension>
            <ns3:atemp>27.0</ns3:atemp>
          </ns3:TrackPointExtension>
        </extensions>
      </trkpt>
      <trkpt lat="42.529532276093959808349609375" lon="19.8441079817712306976318359375">
        <ele>988.79998779296875</ele>
        <time>2026-06-18T13:54:28.000Z</time>
        <extensions>
          <ns3:TrackPointExtension>
            <ns3:atemp>27.0</ns3:atemp>
          </ns3:TrackPointExtension>
        </extensions>
      </trkpt>
      <trkpt lat="42.52951718866825103759765625" lon="19.8441410064697265625">
        <ele>989.5999755859375</ele>
        <time>2026-06-18T13:54:29.000Z</time>
        <extensions>
          <ns3:TrackPointExtension>
            <ns3:atemp>27.0</ns3:atemp>
          </ns3:TrackPointExtension>
        </extensions>
      </trkpt>
      <trkpt lat="42.52950252033770084381103515625" lon="19.84417662955820560455322265625">
        <ele>990.20001220703125</ele>
        <time>2026-06-18T13:54:30.000Z</time>
        <extensions>
          <ns3:TrackPointExtension>
            <ns3:atemp>27.0</ns3:atemp>
          </ns3:TrackPointExtension>
        </extensions>
      </trkpt>
      <trkpt lat="42.52949061803519725799560546875" lon="19.8442166112363338470458984375">
        <ele>991</ele>
        <time>2026-06-18T13:54:31.000Z</time>
        <extensions>
          <ns3:TrackPointExtension>
            <ns3:atemp>27.0</ns3:atemp>
          </ns3:TrackPointExtension>
        </extensions>
      </trkpt>
      <trkpt lat="42.52947871573269367218017578125" lon="19.84425826929509639739990234375">
        <ele>991.5999755859375</ele>
        <time>2026-06-18T13:54:32.000Z</time>
        <extensions>
          <ns3:TrackPointExtension>
            <ns3:atemp>27.0</ns3:atemp>
          </ns3:TrackPointExtension>
        </extensions>
      </trkpt>
      <trkpt lat="42.529467903077602386474609375" lon="19.84430001117289066314697265625">
        <ele>992.4000244140625</ele>
        <time>2026-06-18T13:54:33.000Z</time>
        <extensions>
          <ns3:TrackPointExtension>
            <ns3:atemp>27.0</ns3:atemp>
          </ns3:TrackPointExtension>
        </extensions>
      </trkpt>
      <trkpt lat="42.52945792861282825469970703125" lon="19.8443435132503509521484375">
        <ele>993</ele>
        <time>2026-06-18T13:54:34.000Z</time>
        <extensions>
          <ns3:TrackPointExtension>
            <ns3:atemp>27.0</ns3:atemp>
          </ns3:TrackPointExtension>
        </extensions>
      </trkpt>
      <trkpt lat="42.52944820560514926910400390625" lon="19.84438709914684295654296875">
        <ele>993.5999755859375</ele>
        <time>2026-06-18T13:54:35.000Z</time>
        <extensions>
          <ns3:TrackPointExtension>
            <ns3:atemp>27.0</ns3:atemp>
          </ns3:TrackPointExtension>
        </extensions>
      </trkpt>
      <trkpt lat="42.52944150008261203765869140625" lon="19.8444368876516819000244140625">
        <ele>994.20001220703125</ele>
        <time>2026-06-18T13:54:36.000Z</time>
        <extensions>
          <ns3:TrackPointExtension>
            <ns3:atemp>27.0</ns3:atemp>
          </ns3:TrackPointExtension>
        </extensions>
      </trkpt>
      <trkpt lat="42.52943395636975765228271484375" lon="19.8444891907274723052978515625">
        <ele>994.79998779296875</ele>
        <time>2026-06-18T13:54:37.000Z</time>
        <extensions>
          <ns3:TrackPointExtension>
            <ns3:atemp>27.0</ns3:atemp>
          </ns3:TrackPointExtension>
        </extensions>
      </trkpt>
      <trkpt lat="42.52942456863820552825927734375" lon="19.8445391468703746795654296875">
        <ele>995.4000244140625</ele>
        <time>2026-06-18T13:54:38.000Z</time>
        <extensions>
          <ns3:TrackPointExtension>
            <ns3:atemp>27.0</ns3:atemp>
          </ns3:TrackPointExtension>
        </extensions>
      </trkpt>
      <trkpt lat="42.52941585145890712738037109375" lon="19.84458751045167446136474609375">
        <ele>995.79998779296875</ele>
        <time>2026-06-18T13:54:39.000Z</time>
        <extensions>
          <ns3:TrackPointExtension>
            <ns3:atemp>27.0</ns3:atemp>
          </ns3:TrackPointExtension>
        </extensions>
      </trkpt>
      <trkpt lat="42.52940612845122814178466796875" lon="19.8446333594620227813720703125">
        <ele>996.4000244140625</ele>
        <time>2026-06-18T13:54:40.000Z</time>
        <extensions>
          <ns3:TrackPointExtension>
            <ns3:atemp>27.0</ns3:atemp>
          </ns3:TrackPointExtension>
        </extensions>
      </trkpt>
      <trkpt lat="42.52939623780548572540283203125" lon="19.8446789570152759552001953125">
        <ele>997</ele>
        <time>2026-06-18T13:54:41.000Z</time>
        <extensions>
          <ns3:TrackPointExtension>
            <ns3:atemp>27.0</ns3:atemp>
          </ns3:TrackPointExtension>
        </extensions>
      </trkpt>
      <trkpt lat="42.52938299439847469329833984375" lon="19.844723045825958251953125">
        <ele>997.4000244140625</ele>
        <time>2026-06-18T13:54:42.000Z</time>
        <extensions>
          <ns3:TrackPointExtension>
            <ns3:atemp>27.0</ns3:atemp>
          </ns3:TrackPointExtension>
        </extensions>
      </trkpt>
      <trkpt lat="42.529368661344051361083984375" lon="19.84476403333246707916259765625">
        <ele>998</ele>
        <time>2026-06-18T13:54:43.000Z</time>
        <extensions>
          <ns3:TrackPointExtension>
            <ns3:atemp>27.0</ns3:atemp>
          </ns3:TrackPointExtension>
        </extensions>
      </trkpt>
      <trkpt lat="42.52934544347226619720458984375" lon="19.84480359591543674468994140625">
        <ele>998.5999755859375</ele>
        <time>2026-06-18T13:54:44.000Z</time>
        <extensions>
          <ns3:TrackPointExtension>
            <ns3:atemp>27.0</ns3:atemp>
          </ns3:TrackPointExtension>
        </extensions>
      </trkpt>
      <trkpt lat="42.52931644208729267120361328125" lon="19.84483846463263034820556640625">
        <ele>999</ele>
        <time>2026-06-18T13:54:45.000Z</time>
        <extensions>
          <ns3:TrackPointExtension>
            <ns3:atemp>27.0</ns3:atemp>
          </ns3:TrackPointExtension>
        </extensions>
      </trkpt>
      <trkpt lat="42.5292850099503993988037109375" lon="19.844860173761844635009765625">
        <ele>999.4000244140625</ele>
        <time>2026-06-18T13:54:46.000Z</time>
        <extensions>
          <ns3:TrackPointExtension>
            <ns3:atemp>27.0</ns3:atemp>
          </ns3:TrackPointExtension>
        </extensions>
      </trkpt>
      <trkpt lat="42.529249303042888641357421875" lon="19.844870232045650482177734375">
        <ele>999.79998779296875</ele>
        <time>2026-06-18T13:54:47.000Z</time>
        <extensions>
          <ns3:TrackPointExtension>
            <ns3:atemp>27.0</ns3:atemp>
          </ns3:TrackPointExtension>
        </extensions>
      </trkpt>
      <trkpt lat="42.5292105786502361297607421875" lon="19.84487056732177734375">
        <ele>1000.20001220703125</ele>
        <time>2026-06-18T13:54:48.000Z</time>
        <extensions>
          <ns3:TrackPointExtension>
            <ns3:atemp>27.0</ns3:atemp>
          </ns3:TrackPointExtension>
        </extensions>
      </trkpt>
      <trkpt lat="42.52917294390499591827392578125" lon="19.84487115405499935150146484375">
        <ele>1000.79998779296875</ele>
        <time>2026-06-18T13:54:49.000Z</time>
        <extensions>
          <ns3:TrackPointExtension>
            <ns3:atemp>27.0</ns3:atemp>
          </ns3:TrackPointExtension>
        </extensions>
      </trkpt>
      <trkpt lat="42.5291364826261997222900390625" lon="19.84487132169306278228759765625">
        <ele>1001.20001220703125</ele>
        <time>2026-06-18T13:54:50.000Z</time>
        <extensions>
          <ns3:TrackPointExtension>
            <ns3:atemp>27.0</ns3:atemp>
          </ns3:TrackPointExtension>
        </extensions>
      </trkpt>
      <trkpt lat="42.529099099338054656982421875" lon="19.8448750935494899749755859375">
        <ele>1001.5999755859375</ele>
        <time>2026-06-18T13:54:51.000Z</time>
        <extensions>
          <ns3:TrackPointExtension>
            <ns3:atemp>27.0</ns3:atemp>
          </ns3:TrackPointExtension>
        </extensions>
      </trkpt>
      <trkpt lat="42.52906179986894130706787109375" lon="19.844876937568187713623046875">
        <ele>1002</ele>
        <time>2026-06-18T13:54:52.000Z</time>
        <extensions>
          <ns3:TrackPointExtension>
            <ns3:atemp>27.0</ns3:atemp>
          </ns3:TrackPointExtension>
        </extensions>
      </trkpt>
      <trkpt lat="42.52902374602854251861572265625" lon="19.8448777757585048675537109375">
        <ele>1002.4000244140625</ele>
        <time>2026-06-18T13:54:53.000Z</time>
        <extensions>
          <ns3:TrackPointExtension>
            <ns3:atemp>27.0</ns3:atemp>
          </ns3:TrackPointExtension>
        </extensions>
      </trkpt>
      <trkpt lat="42.5289876200258731842041015625" lon="19.84488205052912235260009765625">
        <ele>1003.20001220703125</ele>
        <time>2026-06-18T13:54:54.000Z</time>
        <extensions>
          <ns3:TrackPointExtension>
            <ns3:atemp>27.0</ns3:atemp>
          </ns3:TrackPointExtension>
        </extensions>
      </trkpt>
      <trkpt lat="42.52894965000450611114501953125" lon="19.84489076770842075347900390625">
        <ele>1003.79998779296875</ele>
        <time>2026-06-18T13:54:55.000Z</time>
        <extensions>
          <ns3:TrackPointExtension>
            <ns3:atemp>27.0</ns3:atemp>
          </ns3:TrackPointExtension>
        </extensions>
      </trkpt>
      <trkpt lat="42.52891478128731250762939453125" lon="19.84490099363029003143310546875">
        <ele>1004.20001220703125</ele>
        <time>2026-06-18T13:54:56.000Z</time>
        <extensions>
          <ns3:TrackPointExtension>
            <ns3:atemp>27.0</ns3:atemp>
          </ns3:TrackPointExtension>
        </extensions>
      </trkpt>
      <trkpt lat="42.52888041548430919647216796875" lon="19.8449148237705230712890625">
        <ele>1005</ele>
        <time>2026-06-18T13:54:57.000Z</time>
        <extensions>
          <ns3:TrackPointExtension>
            <ns3:atemp>27.0</ns3:atemp>
          </ns3:TrackPointExtension>
        </extensions>
      </trkpt>
      <trkpt lat="42.5288454629480838775634765625" lon="19.8449310846626758575439453125">
        <ele>1005.4000244140625</ele>
        <time>2026-06-18T13:54:58.000Z</time>
        <extensions>
          <ns3:TrackPointExtension>
            <ns3:atemp>27.0</ns3:atemp>
          </ns3:TrackPointExtension>
        </extensions>
      </trkpt>
      <trkpt lat="42.5288092531263828277587890625" lon="19.84495078213512897491455078125">
        <ele>1006.20001220703125</ele>
        <time>2026-06-18T13:54:59.000Z</time>
        <extensions>
          <ns3:TrackPointExtension>
            <ns3:atemp>27.0</ns3:atemp>
          </ns3:TrackPointExtension>
        </extensions>
      </trkpt>
      <trkpt lat="42.52877178601920604705810546875" lon="19.8449615947902202606201171875">
        <ele>1006.79998779296875</ele>
        <time>2026-06-18T13:55:00.000Z</time>
        <extensions>
          <ns3:TrackPointExtension>
            <ns3:atemp>27.0</ns3:atemp>
          </ns3:TrackPointExtension>
        </extensions>
      </trkpt>
      <trkpt lat="42.528733648359775543212890625" lon="19.8449709825217723846435546875">
        <ele>1007.20001220703125</ele>
        <time>2026-06-18T13:55:01.000Z</time>
        <extensions>
          <ns3:TrackPointExtension>
            <ns3:atemp>27.0</ns3:atemp>
          </ns3:TrackPointExtension>
        </extensions>
      </trkpt>
      <trkpt lat="42.52870121039450168609619140625" lon="19.84497710131108760833740234375">
        <ele>1007.79998779296875</ele>
        <time>2026-06-18T13:55:02.000Z</time>
        <extensions>
          <ns3:TrackPointExtension>
            <ns3:atemp>27.0</ns3:atemp>
          </ns3:TrackPointExtension>
        </extensions>
      </trkpt>
      <trkpt lat="42.5286610610783100128173828125" lon="19.8449791967868804931640625">
        <ele>1008.4000244140625</ele>
        <time>2026-06-18T13:55:03.000Z</time>
        <extensions>
          <ns3:TrackPointExtension>
            <ns3:atemp>27.0</ns3:atemp>
          </ns3:TrackPointExtension>
        </extensions>
      </trkpt>
      <trkpt lat="42.52862024120986461639404296875" lon="19.8449823819100856781005859375">
        <ele>1009</ele>
        <time>2026-06-18T13:55:04.000Z</time>
        <extensions>
          <ns3:TrackPointExtension>
            <ns3:atemp>27.0</ns3:atemp>
          </ns3:TrackPointExtension>
        </extensions>
      </trkpt>
      <trkpt lat="42.52857665531337261199951171875" lon="19.84498699195683002471923828125">
        <ele>1009.4000244140625</ele>
        <time>2026-06-18T13:55:05.000Z</time>
        <extensions>
          <ns3:TrackPointExtension>
            <ns3:atemp>27.0</ns3:atemp>
          </ns3:TrackPointExtension>
        </extensions>
      </trkpt>
      <trkpt lat="42.5285329855978488922119140625" lon="19.84499034471809864044189453125">
        <ele>1009.79998779296875</ele>
        <time>2026-06-18T13:55:06.000Z</time>
        <extensions>
          <ns3:TrackPointExtension>
            <ns3:atemp>27.0</ns3:atemp>
          </ns3:TrackPointExtension>
        </extensions>
      </trkpt>
      <trkpt lat="42.52849183045327663421630859375" lon="19.84499336220324039459228515625">
        <ele>1010.20001220703125</ele>
        <time>2026-06-18T13:55:07.000Z</time>
        <extensions>
          <ns3:TrackPointExtension>
            <ns3:atemp>27.0</ns3:atemp>
          </ns3:TrackPointExtension>
        </extensions>
      </trkpt>
      <trkpt lat="42.52844891510903835296630859375" lon="19.84498933888971805572509765625">
        <ele>1010.5999755859375</ele>
        <time>2026-06-18T13:55:08.000Z</time>
        <extensions>
          <ns3:TrackPointExtension>
            <ns3:atemp>27.0</ns3:atemp>
          </ns3:TrackPointExtension>
        </extensions>
      </trkpt>
      <trkpt lat="42.52840650267899036407470703125" lon="19.84498598612844944000244140625">
        <ele>1011.20001220703125</ele>
        <time>2026-06-18T13:55:09.000Z</time>
        <extensions>
          <ns3:TrackPointExtension>
            <ns3:atemp>27.0</ns3:atemp>
          </ns3:TrackPointExtension>
        </extensions>
      </trkpt>
      <trkpt lat="42.52836786210536956787109375" lon="19.84498347155749797821044921875">
        <ele>1011.5999755859375</ele>
        <time>2026-06-18T13:55:10.000Z</time>
        <extensions>
          <ns3:TrackPointExtension>
            <ns3:atemp>27.0</ns3:atemp>
          </ns3:TrackPointExtension>
        </extensions>
      </trkpt>
      <trkpt lat="42.5283304788172245025634765625" lon="19.84498665668070316314697265625">
        <ele>1012</ele>
        <time>2026-06-18T13:55:11.000Z</time>
        <extensions>
          <ns3:TrackPointExtension>
            <ns3:atemp>27.0</ns3:atemp>
          </ns3:TrackPointExtension>
        </extensions>
      </trkpt>
      <trkpt lat="42.52829016186296939849853515625" lon="19.84499000944197177886962890625">
        <ele>1012.4000244140625</ele>
        <time>2026-06-18T13:55:12.000Z</time>
        <extensions>
          <ns3:TrackPointExtension>
            <ns3:atemp>27.0</ns3:atemp>
          </ns3:TrackPointExtension>
        </extensions>
      </trkpt>
      <trkpt lat="42.52824573777616024017333984375" lon="19.8449952900409698486328125">
        <ele>1012.79998779296875</ele>
        <time>2026-06-18T13:55:13.000Z</time>
        <extensions>
          <ns3:TrackPointExtension>
            <ns3:atemp>27.0</ns3:atemp>
          </ns3:TrackPointExtension>
        </extensions>
      </trkpt>
      <trkpt lat="42.528202235698699951171875" lon="19.8450035043060779571533203125">
        <ele>1013.4000244140625</ele>
        <time>2026-06-18T13:55:14.000Z</time>
        <extensions>
          <ns3:TrackPointExtension>
            <ns3:atemp>27.0</ns3:atemp>
          </ns3:TrackPointExtension>
        </extensions>
      </trkpt>
      <trkpt lat="42.5281614996492862701416015625" lon="19.84501096419990062713623046875">
        <ele>1013.79998779296875</ele>
        <time>2026-06-18T13:55:15.000Z</time>
        <extensions>
          <ns3:TrackPointExtension>
            <ns3:atemp>27.0</ns3:atemp>
          </ns3:TrackPointExtension>
        </extensions>
      </trkpt>
      <trkpt lat="42.528123445808887481689453125" lon="19.84502001665532588958740234375">
        <ele>1014.20001220703125</ele>
        <time>2026-06-18T13:55:16.000Z</time>
        <extensions>
          <ns3:TrackPointExtension>
            <ns3:atemp>27.0</ns3:atemp>
          </ns3:TrackPointExtension>
        </extensions>
      </trkpt>
      <trkpt lat="42.52808581106364727020263671875" lon="19.8450303263962268829345703125">
        <ele>1014.5999755859375</ele>
        <time>2026-06-18T13:55:17.000Z</time>
        <extensions>
          <ns3:TrackPointExtension>
            <ns3:atemp>27.0</ns3:atemp>
          </ns3:TrackPointExtension>
        </extensions>
      </trkpt>
      <trkpt lat="42.52804809249937534332275390625" lon="19.84504080377519130706787109375">
        <ele>1015</ele>
        <time>2026-06-18T13:55:18.000Z</time>
        <extensions>
          <ns3:TrackPointExtension>
            <ns3:atemp>27.0</ns3:atemp>
          </ns3:TrackPointExtension>
        </extensions>
      </trkpt>
      <trkpt lat="42.52800987102091312408447265625" lon="19.84505371190607547760009765625">
        <ele>1015.5999755859375</ele>
        <time>2026-06-18T13:55:19.000Z</time>
        <extensions>
          <ns3:TrackPointExtension>
            <ns3:atemp>27.0</ns3:atemp>
          </ns3:TrackPointExtension>
        </extensions>
      </trkpt>
      <trkpt lat="42.52797081135213375091552734375" lon="19.84506879933178424835205078125">
        <ele>1016.20001220703125</ele>
        <time>2026-06-18T13:55:20.000Z</time>
        <extensions>
          <ns3:TrackPointExtension>
            <ns3:atemp>27.0</ns3:atemp>
          </ns3:TrackPointExtension>
        </extensions>
      </trkpt>
      <trkpt lat="42.5279353559017181396484375" lon="19.84508673660457134246826171875">
        <ele>1016.5999755859375</ele>
        <time>2026-06-18T13:55:21.000Z</time>
        <extensions>
          <ns3:TrackPointExtension>
            <ns3:atemp>27.0</ns3:atemp>
          </ns3:TrackPointExtension>
        </extensions>
      </trkpt>
      <trkpt lat="42.52790325321257114410400390625" lon="19.8451057635247707366943359375">
        <ele>1017.20001220703125</ele>
        <time>2026-06-18T13:55:22.000Z</time>
        <extensions>
          <ns3:TrackPointExtension>
            <ns3:atemp>27.0</ns3:atemp>
          </ns3:TrackPointExtension>
        </extensions>
      </trkpt>
      <trkpt lat="42.52786754630506038665771484375" lon="19.8451278917491436004638671875">
        <ele>1017.79998779296875</ele>
        <time>2026-06-18T13:55:23.000Z</time>
        <extensions>
          <ns3:TrackPointExtension>
            <ns3:atemp>26.0</ns3:atemp>
          </ns3:TrackPointExtension>
        </extensions>
      </trkpt>
      <trkpt lat="42.527831085026264190673828125" lon="19.8451473377645015716552734375">
        <ele>1018.4000244140625</ele>
        <time>2026-06-18T13:55:24.000Z</time>
        <extensions>
          <ns3:TrackPointExtension>
            <ns3:atemp>26.0</ns3:atemp>
          </ns3:TrackPointExtension>
        </extensions>
      </trkpt>
      <trkpt lat="42.5277957133948802947998046875" lon="19.84516770578920841217041015625">
        <ele>1019.20001220703125</ele>
        <time>2026-06-18T13:55:25.000Z</time>
        <extensions>
          <ns3:TrackPointExtension>
            <ns3:atemp>26.0</ns3:atemp>
          </ns3:TrackPointExtension>
        </extensions>
      </trkpt>
      <trkpt lat="42.52776025794446468353271484375" lon="19.84519000165164470672607421875">
        <ele>1019.79998779296875</ele>
        <time>2026-06-18T13:55:26.000Z</time>
        <extensions>
          <ns3:TrackPointExtension>
            <ns3:atemp>26.0</ns3:atemp>
          </ns3:TrackPointExtension>
        </extensions>
      </trkpt>
      <trkpt lat="42.5277263112366199493408203125" lon="19.8452117107808589935302734375">
        <ele>1020.4000244140625</ele>
        <time>2026-06-18T13:55:27.000Z</time>
        <extensions>
          <ns3:TrackPointExtension>
            <ns3:atemp>26.0</ns3:atemp>
          </ns3:TrackPointExtension>
        </extensions>
      </trkpt>
      <trkpt lat="42.5276931189000606536865234375" lon="19.84523199498653411865234375">
        <ele>1021</ele>
        <time>2026-06-18T13:55:28.000Z</time>
        <extensions>
          <ns3:TrackPointExtension>
            <ns3:atemp>26.0</ns3:atemp>
          </ns3:TrackPointExtension>
        </extensions>
      </trkpt>
      <trkpt lat="42.5276564061641693115234375" lon="19.84525202773511409759521484375">
        <ele>1021.4000244140625</ele>
        <time>2026-06-18T13:55:29.000Z</time>
        <extensions>
          <ns3:TrackPointExtension>
            <ns3:atemp>26.0</ns3:atemp>
          </ns3:TrackPointExtension>
        </extensions>
      </trkpt>
      <trkpt lat="42.5276203639805316925048828125" lon="19.8452688753604888916015625">
        <ele>1022.20001220703125</ele>
        <time>2026-06-18T13:55:30.000Z</time>
        <extensions>
          <ns3:TrackPointExtension>
            <ns3:atemp>27.0</ns3:atemp>
          </ns3:TrackPointExtension>
        </extensions>
      </trkpt>
      <trkpt lat="42.52758289687335491180419921875" lon="19.845281280577182769775390625">
        <ele>1022.79998779296875</ele>
        <time>2026-06-18T13:55:31.000Z</time>
        <extensions>
          <ns3:TrackPointExtension>
            <ns3:atemp>26.0</ns3:atemp>
          </ns3:TrackPointExtension>
        </extensions>
      </trkpt>
      <trkpt lat="42.5275464355945587158203125" lon="19.8452874831855297088623046875">
        <ele>1023.20001220703125</ele>
        <time>2026-06-18T13:55:32.000Z</time>
        <extensions>
          <ns3:TrackPointExtension>
            <ns3:atemp>26.0</ns3:atemp>
          </ns3:TrackPointExtension>
        </extensions>
      </trkpt>
      <trkpt lat="42.52751089632511138916015625" lon="19.84529427252709865570068359375">
        <ele>1023.5999755859375</ele>
        <time>2026-06-18T13:55:33.000Z</time>
        <extensions>
          <ns3:TrackPointExtension>
            <ns3:atemp>26.0</ns3:atemp>
          </ns3:TrackPointExtension>
        </extensions>
      </trkpt>
      <trkpt lat="42.52747309394180774688720703125" lon="19.84529770910739898681640625">
        <ele>1024.199951171875</ele>
        <time>2026-06-18T13:55:34.000Z</time>
        <extensions>
          <ns3:TrackPointExtension>
            <ns3:atemp>26.0</ns3:atemp>
          </ns3:TrackPointExtension>
        </extensions>
      </trkpt>
      <trkpt lat="42.52743487246334552764892578125" lon="19.845300726592540740966796875">
        <ele>1024.800048828125</ele>
        <time>2026-06-18T13:55:35.000Z</time>
        <extensions>
          <ns3:TrackPointExtension>
            <ns3:atemp>26.0</ns3:atemp>
          </ns3:TrackPointExtension>
        </extensions>
      </trkpt>
      <trkpt lat="42.52739665098488330841064453125" lon="19.84530416317284107208251953125">
        <ele>1025.199951171875</ele>
        <time>2026-06-18T13:55:36.000Z</time>
        <extensions>
          <ns3:TrackPointExtension>
            <ns3:atemp>26.0</ns3:atemp>
          </ns3:TrackPointExtension>
        </extensions>
      </trkpt>
      <trkpt lat="42.5273559987545013427734375" lon="19.84530701301991939544677734375">
        <ele>1025.800048828125</ele>
        <time>2026-06-18T13:55:37.000Z</time>
        <extensions>
          <ns3:TrackPointExtension>
            <ns3:atemp>26.0</ns3:atemp>
          </ns3:TrackPointExtension>
        </extensions>
      </trkpt>
      <trkpt lat="42.52731903456151485443115234375" lon="19.84530801884829998016357421875">
        <ele>1026.4000244140625</ele>
        <time>2026-06-18T13:55:38.000Z</time>
        <extensions>
          <ns3:TrackPointExtension>
            <ns3:atemp>26.0</ns3:atemp>
          </ns3:TrackPointExtension>
        </extensions>
      </trkpt>
      <trkpt lat="42.52728383056819438934326171875" lon="19.84531204216182231903076171875">
        <ele>1026.800048828125</ele>
        <time>2026-06-18T13:55:39.000Z</time>
        <extensions>
          <ns3:TrackPointExtension>
            <ns3:atemp>26.0</ns3:atemp>
          </ns3:TrackPointExtension>
        </extensions>
      </trkpt>
      <trkpt lat="42.52724938094615936279296875" lon="19.84531640075147151947021484375">
        <ele>1027.4000244140625</ele>
        <time>2026-06-18T13:55:40.000Z</time>
        <extensions>
          <ns3:TrackPointExtension>
            <ns3:atemp>26.0</ns3:atemp>
          </ns3:TrackPointExtension>
        </extensions>
      </trkpt>
      <trkpt lat="42.527210824191570281982421875" lon="19.8453149758279323577880859375">
        <ele>1027.800048828125</ele>
        <time>2026-06-18T13:55:41.000Z</time>
        <extensions>
          <ns3:TrackPointExtension>
            <ns3:atemp>26.0</ns3:atemp>
          </ns3:TrackPointExtension>
        </extensions>
      </trkpt>
      <trkpt lat="42.52716531045734882354736328125" lon="19.8453116230666637420654296875">
        <ele>1028.199951171875</ele>
        <time>2026-06-18T13:55:42.000Z</time>
        <extensions>
          <ns3:TrackPointExtension>
            <ns3:atemp>26.0</ns3:atemp>
          </ns3:TrackPointExtension>
        </extensions>
      </trkpt>
      <trkpt lat="42.527118958532810211181640625" lon="19.8453049175441265106201171875">
        <ele>1028.4000244140625</ele>
        <time>2026-06-18T13:55:43.000Z</time>
        <extensions>
          <ns3:TrackPointExtension>
            <ns3:atemp>26.0</ns3:atemp>
          </ns3:TrackPointExtension>
        </extensions>
      </trkpt>
      <trkpt lat="42.52707210369408130645751953125" lon="19.84529829584062099456787109375">
        <ele>1028.5999755859375</ele>
        <time>2026-06-18T13:55:44.000Z</time>
        <extensions>
          <ns3:TrackPointExtension>
            <ns3:atemp>26.0</ns3:atemp>
          </ns3:TrackPointExtension>
        </extensions>
      </trkpt>
      <trkpt lat="42.52702583558857440948486328125" lon="19.84529544599354267120361328125">
        <ele>1028.800048828125</ele>
        <time>2026-06-18T13:55:45.000Z</time>
        <extensions>
          <ns3:TrackPointExtension>
            <ns3:atemp>26.0</ns3:atemp>
          </ns3:TrackPointExtension>
        </extensions>
      </trkpt>
      <trkpt lat="42.52697973512113094329833984375" lon="19.84529997222125530242919921875">
        <ele>1029</ele>
        <time>2026-06-18T13:55:46.000Z</time>
        <extensions>
          <ns3:TrackPointExtension>
            <ns3:atemp>26.0</ns3:atemp>
          </ns3:TrackPointExtension>
        </extensions>
      </trkpt>
      <trkpt lat="42.526930533349514007568359375" lon="19.84531070105731487274169921875">
        <ele>1029</ele>
        <time>2026-06-18T13:55:47.000Z</time>
        <extensions>
          <ns3:TrackPointExtension>
            <ns3:atemp>26.0</ns3:atemp>
          </ns3:TrackPointExtension>
        </extensions>
      </trkpt>
      <trkpt lat="42.5268790684640407562255859375" lon="19.8453278839588165283203125">
        <ele>1028.800048828125</ele>
        <time>2026-06-18T13:55:48.000Z</time>
        <extensions>
          <ns3:TrackPointExtension>
            <ns3:atemp>26.0</ns3:atemp>
          </ns3:TrackPointExtension>
        </extensions>
      </trkpt>
      <trkpt lat="42.52682768739759922027587890625" lon="19.84534154646098613739013671875">
        <ele>1028.5999755859375</ele>
        <time>2026-06-18T13:55:49.000Z</time>
        <extensions>
          <ns3:TrackPointExtension>
            <ns3:atemp>26.0</ns3:atemp>
          </ns3:TrackPointExtension>
        </extensions>
      </trkpt>
      <trkpt lat="42.52677169628441333770751953125" lon="19.8453471623361110687255859375">
        <ele>1028.4000244140625</ele>
        <time>2026-06-18T13:55:50.000Z</time>
        <extensions>
          <ns3:TrackPointExtension>
            <ns3:atemp>26.0</ns3:atemp>
          </ns3:TrackPointExtension>
        </extensions>
      </trkpt>
      <trkpt lat="42.52671436406672000885009765625" lon="19.845353700220584869384765625">
        <ele>1028.199951171875</ele>
        <time>2026-06-18T13:55:51.000Z</time>
        <extensions>
          <ns3:TrackPointExtension>
            <ns3:atemp>26.0</ns3:atemp>
          </ns3:TrackPointExtension>
        </extensions>
      </trkpt>
      <trkpt lat="42.52665367908775806427001953125" lon="19.84535872936248779296875">
        <ele>1027.800048828125</ele>
        <time>2026-06-18T13:55:52.000Z</time>
        <extensions>
          <ns3:TrackPointExtension>
            <ns3:atemp>26.0</ns3:atemp>
          </ns3:TrackPointExtension>
        </extensions>
      </trkpt>
      <trkpt lat="42.5265907309949398040771484375" lon="19.8453555442392826080322265625">
        <ele>1027.5999755859375</ele>
        <time>2026-06-18T13:55:53.000Z</time>
        <extensions>
          <ns3:TrackPointExtension>
            <ns3:atemp>26.0</ns3:atemp>
          </ns3:TrackPointExtension>
        </extensions>
      </trkpt>
      <trkpt lat="42.5265243463218212127685546875" lon="19.845339953899383544921875">
        <ele>1027.199951171875</ele>
        <time>2026-06-18T13:55:54.000Z</time>
        <extensions>
          <ns3:TrackPointExtension>
            <ns3:atemp>26.0</ns3:atemp>
          </ns3:TrackPointExtension>
        </extensions>
      </trkpt>
      <trkpt lat="42.52645955421030521392822265625" lon="19.84530751593410968780517578125">
        <ele>1026.800048828125</ele>
        <time>2026-06-18T13:55:55.000Z</time>
        <extensions>
          <ns3:TrackPointExtension>
            <ns3:atemp>26.0</ns3:atemp>
          </ns3:TrackPointExtension>
        </extensions>
      </trkpt>
      <trkpt lat="42.5263904035091400146484375" lon="19.84526996500790119171142578125">
        <ele>1026.199951171875</ele>
        <time>2026-06-18T13:55:56.000Z</time>
        <extensions>
          <ns3:TrackPointExtension>
            <ns3:atemp>26.0</ns3:atemp>
          </ns3:TrackPointExtension>
        </extensions>
      </trkpt>
      <trkpt lat="42.5263265334069728851318359375" lon="19.84523425810039043426513671875">
        <ele>1025.800048828125</ele>
        <time>2026-06-18T13:55:57.000Z</time>
        <extensions>
          <ns3:TrackPointExtension>
            <ns3:atemp>26.0</ns3:atemp>
          </ns3:TrackPointExtension>
        </extensions>
      </trkpt>
      <trkpt lat="42.52626626752316951751708984375" lon="19.845195449888706207275390625">
        <ele>1025.4000244140625</ele>
        <time>2026-06-18T13:55:58.000Z</time>
        <extensions>
          <ns3:TrackPointExtension>
            <ns3:atemp>26.0</ns3:atemp>
          </ns3:TrackPointExtension>
        </extensions>
      </trkpt>
      <trkpt lat="42.5262038223445415496826171875" lon="19.84515831805765628814697265625">
        <ele>1025.199951171875</ele>
        <time>2026-06-18T13:55:59.000Z</time>
        <extensions>
          <ns3:TrackPointExtension>
            <ns3:atemp>26.0</ns3:atemp>
          </ns3:TrackPointExtension>
        </extensions>
      </trkpt>
      <trkpt lat="42.5261407904326915740966796875" lon="19.84511925838887691497802734375">
        <ele>1024.800048828125</ele>
        <time>2026-06-18T13:56:00.000Z</time>
        <extensions>
          <ns3:TrackPointExtension>
            <ns3:atemp>26.0</ns3:atemp>
          </ns3:TrackPointExtension>
        </extensions>
      </trkpt>
      <trkpt lat="42.5260792672634124755859375" lon="19.84507818706333637237548828125">
        <ele>1024.5999755859375</ele>
        <time>2026-06-18T13:56:01.000Z</time>
        <extensions>
          <ns3:TrackPointExtension>
            <ns3:atemp>26.0</ns3:atemp>
          </ns3:TrackPointExtension>
        </extensions>
      </trkpt>
      <trkpt lat="42.526019252836704254150390625" lon="19.84503275714814662933349609375">
        <ele>1024.4000244140625</ele>
        <time>2026-06-18T13:56:02.000Z</time>
        <extensions>
          <ns3:TrackPointExtension>
            <ns3:atemp>26.0</ns3:atemp>
          </ns3:TrackPointExtension>
        </extensions>
      </trkpt>
      <trkpt lat="42.525960244238376617431640625" lon="19.84499067999422550201416015625">
        <ele>1024.199951171875</ele>
        <time>2026-06-18T13:56:03.000Z</time>
        <extensions>
          <ns3:TrackPointExtension>
            <ns3:atemp>26.0</ns3:atemp>
          </ns3:TrackPointExtension>
        </extensions>
      </trkpt>
      <trkpt lat="42.5259049236774444580078125" lon="19.84494508244097232818603515625">
        <ele>1024</ele>
        <time>2026-06-18T13:56:04.000Z</time>
        <extensions>
          <ns3:TrackPointExtension>
            <ns3:atemp>26.0</ns3:atemp>
          </ns3:TrackPointExtension>
        </extensions>
      </trkpt>
      <trkpt lat="42.5258501060307025909423828125" lon="19.84490367583930492401123046875">
        <ele>1023.79998779296875</ele>
        <time>2026-06-18T13:56:05.000Z</time>
        <extensions>
          <ns3:TrackPointExtension>
            <ns3:atemp>26.0</ns3:atemp>
          </ns3:TrackPointExtension>
        </extensions>
      </trkpt>
      <trkpt lat="42.525796629488468170166015625" lon="19.84485841356217861175537109375">
        <ele>1023.4000244140625</ele>
        <time>2026-06-18T13:56:06.000Z</time>
        <extensions>
          <ns3:TrackPointExtension>
            <ns3:atemp>26.0</ns3:atemp>
          </ns3:TrackPointExtension>
        </extensions>
      </trkpt>
      <trkpt lat="42.5257438234984874725341796875" lon="19.84481197781860828399658203125">
        <ele>1023.20001220703125</ele>
        <time>2026-06-18T13:56:07.000Z</time>
        <extensions>
          <ns3:TrackPointExtension>
            <ns3:atemp>26.0</ns3:atemp>
          </ns3:TrackPointExtension>
        </extensions>
      </trkpt>
      <trkpt lat="42.52569093368947505950927734375" lon="19.8447604291141033172607421875">
        <ele>1023</ele>
        <time>2026-06-18T13:56:08.000Z</time>
        <extensions>
          <ns3:TrackPointExtension>
            <ns3:atemp>26.0</ns3:atemp>
          </ns3:TrackPointExtension>
        </extensions>
      </trkpt>
      <trkpt lat="42.525638043880462646484375" lon="19.8447084613144397735595703125">
        <ele>1022.79998779296875</ele>
        <time>2026-06-18T13:56:09.000Z</time>
        <extensions>
          <ns3:TrackPointExtension>
            <ns3:atemp>26.0</ns3:atemp>
          </ns3:TrackPointExtension>
        </extensions>
      </trkpt>
      <trkpt lat="42.52557861618697643280029296875" lon="19.84465423040091991424560546875">
        <ele>1022.4000244140625</ele>
        <time>2026-06-18T13:56:10.000Z</time>
        <extensions>
          <ns3:TrackPointExtension>
            <ns3:atemp>26.0</ns3:atemp>
          </ns3:TrackPointExtension>
        </extensions>
      </trkpt>
      <trkpt lat="42.52552245743572711944580078125" lon="19.84459572471678256988525390625">
        <ele>1022</ele>
        <time>2026-06-18T13:56:11.000Z</time>
        <extensions>
          <ns3:TrackPointExtension>
            <ns3:atemp>26.0</ns3:atemp>
          </ns3:TrackPointExtension>
        </extensions>
      </trkpt>
      <trkpt lat="42.52546244300901889801025390625" lon="19.84453604556620121002197265625">
        <ele>1021.79998779296875</ele>
        <time>2026-06-18T13:56:12.000Z</time>
        <extensions>
          <ns3:TrackPointExtension>
            <ns3:atemp>26.0</ns3:atemp>
          </ns3:TrackPointExtension>
        </extensions>
      </trkpt>
      <trkpt lat="42.5254006683826446533203125" lon="19.84447837807238101959228515625">
        <ele>1021.4000244140625</ele>
        <time>2026-06-18T13:56:13.000Z</time>
        <extensions>
          <ns3:TrackPointExtension>
            <ns3:atemp>26.0</ns3:atemp>
          </ns3:TrackPointExtension>
        </extensions>
      </trkpt>
      <trkpt lat="42.52532958984375" lon="19.84442238695919513702392578125">
        <ele>1020.79998779296875</ele>
        <time>2026-06-18T13:56:14.000Z</time>
        <extensions>
          <ns3:TrackPointExtension>
            <ns3:atemp>26.0</ns3:atemp>
          </ns3:TrackPointExtension>
        </extensions>
      </trkpt>
      <trkpt lat="42.5252558290958404541015625" lon="19.8443728499114513397216796875">
        <ele>1020.4000244140625</ele>
        <time>2026-06-18T13:56:15.000Z</time>
        <extensions>
          <ns3:TrackPointExtension>
            <ns3:atemp>26.0</ns3:atemp>
          </ns3:TrackPointExtension>
        </extensions>
      </trkpt>
      <trkpt lat="42.52518265508115291595458984375" lon="19.8443212173879146575927734375">
        <ele>1019.5999755859375</ele>
        <time>2026-06-18T13:56:16.000Z</time>
        <extensions>
          <ns3:TrackPointExtension>
            <ns3:atemp>26.0</ns3:atemp>
          </ns3:TrackPointExtension>
        </extensions>
      </trkpt>
      <trkpt lat="42.52510503865778446197509765625" lon="19.84426229260861873626708984375">
        <ele>1019</ele>
        <time>2026-06-18T13:56:17.000Z</time>
        <extensions>
          <ns3:TrackPointExtension>
            <ns3:atemp>26.0</ns3:atemp>
          </ns3:TrackPointExtension>
        </extensions>
      </trkpt>
      <trkpt lat="42.525028176605701446533203125" lon="19.84419641084969043731689453125">
        <ele>1018.4000244140625</ele>
        <time>2026-06-18T13:56:18.000Z</time>
        <extensions>
          <ns3:TrackPointExtension>
            <ns3:atemp>26.0</ns3:atemp>
          </ns3:TrackPointExtension>
        </extensions>
      </trkpt>
      <trkpt lat="42.5249495543539524078369140625" lon="19.844126589596271514892578125">
        <ele>1017.5999755859375</ele>
        <time>2026-06-18T13:56:19.000Z</time>
        <extensions>
          <ns3:TrackPointExtension>
            <ns3:atemp>26.0</ns3:atemp>
          </ns3:TrackPointExtension>
        </extensions>
      </trkpt>
      <trkpt lat="42.5248700939118862152099609375" lon="19.84406028874218463897705078125">
        <ele>1017</ele>
        <time>2026-06-18T13:56:20.000Z</time>
        <extensions>
          <ns3:TrackPointExtension>
            <ns3:atemp>26.0</ns3:atemp>
          </ns3:TrackPointExtension>
        </extensions>
      </trkpt>
      <trkpt lat="42.52478736452758312225341796875" lon="19.843989796936511993408203125">
        <ele>1016.20001220703125</ele>
        <time>2026-06-18T13:56:21.000Z</time>
        <extensions>
          <ns3:TrackPointExtension>
            <ns3:atemp>26.0</ns3:atemp>
          </ns3:TrackPointExtension>
        </extensions>
      </trkpt>
      <trkpt lat="42.52470396459102630615234375" lon="19.84392399899661540985107421875">
        <ele>1015.20001220703125</ele>
        <time>2026-06-18T13:56:22.000Z</time>
        <extensions>
          <ns3:TrackPointExtension>
            <ns3:atemp>26.0</ns3:atemp>
          </ns3:TrackPointExtension>
        </extensions>
      </trkpt>
      <trkpt lat="42.524618804454803466796875" lon="19.8438592068850994110107421875">
        <ele>1014.4000244140625</ele>
        <time>2026-06-18T13:56:23.000Z</time>
        <extensions>
          <ns3:TrackPointExtension>
            <ns3:atemp>26.0</ns3:atemp>
          </ns3:TrackPointExtension>
        </extensions>
      </trkpt>
      <trkpt lat="42.5245321355760097503662109375" lon="19.843789972364902496337890625">
        <ele>1013.79998779296875</ele>
        <time>2026-06-18T13:56:24.000Z</time>
        <extensions>
          <ns3:TrackPointExtension>
            <ns3:atemp>26.0</ns3:atemp>
          </ns3:TrackPointExtension>
        </extensions>
      </trkpt>
      <trkpt lat="42.52444018609821796417236328125" lon="19.8437234200537204742431640625">
        <ele>1013</ele>
        <time>2026-06-18T13:56:25.000Z</time>
        <extensions>
          <ns3:TrackPointExtension>
            <ns3:atemp>26.0</ns3:atemp>
          </ns3:TrackPointExtension>
        </extensions>
      </trkpt>
      <trkpt lat="42.5243457220494747161865234375" lon="19.843654520809650421142578125">
        <ele>1012.20001220703125</ele>
        <time>2026-06-18T13:56:26.000Z</time>
        <extensions>
          <ns3:TrackPointExtension>
            <ns3:atemp>26.0</ns3:atemp>
          </ns3:TrackPointExtension>
        </extensions>
      </trkpt>
      <trkpt lat="42.52424958162009716033935546875" lon="19.8435926623642444610595703125">
        <ele>1011.4000244140625</ele>
        <time>2026-06-18T13:56:27.000Z</time>
        <extensions>
          <ns3:TrackPointExtension>
            <ns3:atemp>26.0</ns3:atemp>
          </ns3:TrackPointExtension>
        </extensions>
      </trkpt>
      <trkpt lat="42.5241499207913875579833984375" lon="19.8435259424149990081787109375">
        <ele>1010.5999755859375</ele>
        <time>2026-06-18T13:56:28.000Z</time>
        <extensions>
          <ns3:TrackPointExtension>
            <ns3:atemp>26.0</ns3:atemp>
          </ns3:TrackPointExtension>
        </extensions>
      </trkpt>
      <trkpt lat="42.52404824830591678619384765625" lon="19.84346383251249790191650390625">
        <ele>1009.79998779296875</ele>
        <time>2026-06-18T13:56:29.000Z</time>
        <extensions>
          <ns3:TrackPointExtension>
            <ns3:atemp>26.0</ns3:atemp>
          </ns3:TrackPointExtension>
        </extensions>
      </trkpt>
      <trkpt lat="42.52395018003880977630615234375" lon="19.843399040400981903076171875">
        <ele>1008.79998779296875</ele>
        <time>2026-06-18T13:56:30.000Z</time>
        <extensions>
          <ns3:TrackPointExtension>
            <ns3:atemp>26.0</ns3:atemp>
          </ns3:TrackPointExtension>
        </extensions>
      </trkpt>
      <trkpt lat="42.523858733475208282470703125" lon="19.84333072789013385772705078125">
        <ele>1008</ele>
        <time>2026-06-18T13:56:31.000Z</time>
        <extensions>
          <ns3:TrackPointExtension>
            <ns3:atemp>26.0</ns3:atemp>
          </ns3:TrackPointExtension>
        </extensions>
      </trkpt>
      <trkpt lat="42.5237777642905712127685546875" lon="19.84325629658997058868408203125">
        <ele>1007</ele>
        <time>2026-06-18T13:56:32.000Z</time>
        <extensions>
          <ns3:TrackPointExtension>
            <ns3:atemp>26.0</ns3:atemp>
          </ns3:TrackPointExtension>
        </extensions>
      </trkpt>
      <trkpt lat="42.52370442263782024383544921875" lon="19.84318153001368045806884765625">
        <ele>1006.20001220703125</ele>
        <time>2026-06-18T13:56:33.000Z</time>
        <extensions>
          <ns3:TrackPointExtension>
            <ns3:atemp>26.0</ns3:atemp>
          </ns3:TrackPointExtension>
        </extensions>
      </trkpt>
      <trkpt lat="42.52363569103181362152099609375" lon="19.84310860745608806610107421875">
        <ele>1005.4000244140625</ele>
        <time>2026-06-18T13:56:34.000Z</time>
        <extensions>
          <ns3:TrackPointExtension>
            <ns3:atemp>26.0</ns3:atemp>
          </ns3:TrackPointExtension>
        </extensions>
      </trkpt>
      <trkpt lat="42.5235628522932529449462890625" lon="19.8430424742400646209716796875">
        <ele>1004.4000244140625</ele>
        <time>2026-06-18T13:56:35.000Z</time>
        <extensions>
          <ns3:TrackPointExtension>
            <ns3:atemp>26.0</ns3:atemp>
          </ns3:TrackPointExtension>
        </extensions>
      </trkpt>
      <trkpt lat="42.5234887562692165374755859375" lon="19.8429968766868114471435546875">
        <ele>1003.5999755859375</ele>
        <time>2026-06-18T13:56:36.000Z</time>
        <extensions>
          <ns3:TrackPointExtension>
            <ns3:atemp>26.0</ns3:atemp>
          </ns3:TrackPointExtension>
        </extensions>
      </trkpt>
      <trkpt lat="42.52340736798942089080810546875" lon="19.84297885559499263763427734375">
        <ele>1002.4000244140625</ele>
        <time>2026-06-18T13:56:37.000Z</time>
        <extensions>
          <ns3:TrackPointExtension>
            <ns3:atemp>26.0</ns3:atemp>
          </ns3:TrackPointExtension>
        </extensions>
      </trkpt>
      <trkpt lat="42.52332522533833980560302734375" lon="19.843002744019031524658203125">
        <ele>1001.20001220703125</ele>
        <time>2026-06-18T13:56:38.000Z</time>
        <extensions>
          <ns3:TrackPointExtension>
            <ns3:atemp>26.0</ns3:atemp>
          </ns3:TrackPointExtension>
        </extensions>
      </trkpt>
      <trkpt lat="42.52324618399143218994140625" lon="19.843055717647075653076171875">
        <ele>1000.20001220703125</ele>
        <time>2026-06-18T13:56:39.000Z</time>
        <extensions>
          <ns3:TrackPointExtension>
            <ns3:atemp>26.0</ns3:atemp>
          </ns3:TrackPointExtension>
        </extensions>
      </trkpt>
      <trkpt lat="42.52316772937774658203125" lon="19.8431256227195262908935546875">
        <ele>999</ele>
        <time>2026-06-18T13:56:40.000Z</time>
        <extensions>
          <ns3:TrackPointExtension>
            <ns3:atemp>26.0</ns3:atemp>
          </ns3:TrackPointExtension>
        </extensions>
      </trkpt>
      <trkpt lat="42.5230857543647289276123046875" lon="19.843201227486133575439453125">
        <ele>997.79998779296875</ele>
        <time>2026-06-18T13:56:41.000Z</time>
        <extensions>
          <ns3:TrackPointExtension>
            <ns3:atemp>26.0</ns3:atemp>
          </ns3:TrackPointExtension>
        </extensions>
      </trkpt>
      <trkpt lat="42.5230019353330135345458984375" lon="19.84327574260532855987548828125">
        <ele>996.79998779296875</ele>
        <time>2026-06-18T13:56:42.000Z</time>
        <extensions>
          <ns3:TrackPointExtension>
            <ns3:atemp>26.0</ns3:atemp>
          </ns3:TrackPointExtension>
        </extensions>
      </trkpt>
      <trkpt lat="42.52292490564286708831787109375" lon="19.84335553832352161407470703125">
        <ele>995.5999755859375</ele>
        <time>2026-06-18T13:56:43.000Z</time>
        <extensions>
          <ns3:TrackPointExtension>
            <ns3:atemp>26.0</ns3:atemp>
          </ns3:TrackPointExtension>
        </extensions>
      </trkpt>
      <trkpt lat="42.52286287955939769744873046875" lon="19.843437261879444122314453125">
        <ele>994.5999755859375</ele>
        <time>2026-06-18T13:56:44.000Z</time>
        <extensions>
          <ns3:TrackPointExtension>
            <ns3:atemp>26.0</ns3:atemp>
          </ns3:TrackPointExtension>
        </extensions>
      </trkpt>
      <trkpt lat="42.52280990593135356903076171875" lon="19.84351814724504947662353515625">
        <ele>994</ele>
        <time>2026-06-18T13:56:45.000Z</time>
        <extensions>
          <ns3:TrackPointExtension>
            <ns3:atemp>26.0</ns3:atemp>
          </ns3:TrackPointExtension>
        </extensions>
      </trkpt>
      <trkpt lat="42.52276313491165637969970703125" lon="19.84360012225806713104248046875">
        <ele>993.79998779296875</ele>
        <time>2026-06-18T13:56:46.000Z</time>
        <extensions>
          <ns3:TrackPointExtension>
            <ns3:atemp>26.0</ns3:atemp>
          </ns3:TrackPointExtension>
        </extensions>
      </trkpt>
      <trkpt lat="42.52271250821650028228759765625" lon="19.84367824159562587738037109375">
        <ele>993.5999755859375</ele>
        <time>2026-06-18T13:56:47.000Z</time>
        <extensions>
          <ns3:TrackPointExtension>
            <ns3:atemp>26.0</ns3:atemp>
          </ns3:TrackPointExtension>
        </extensions>
      </trkpt>
      <trkpt lat="42.52266724593937397003173828125" lon="19.84375250525772571563720703125">
        <ele>993.79998779296875</ele>
        <time>2026-06-18T13:56:48.000Z</time>
        <extensions>
          <ns3:TrackPointExtension>
            <ns3:atemp>26.0</ns3:atemp>
          </ns3:TrackPointExtension>
        </extensions>
      </trkpt>
      <trkpt lat="42.522620894014835357666015625" lon="19.84381570480763912200927734375">
        <ele>993.79998779296875</ele>
        <time>2026-06-18T13:56:49.000Z</time>
        <extensions>
          <ns3:TrackPointExtension>
            <ns3:atemp>26.0</ns3:atemp>
          </ns3:TrackPointExtension>
        </extensions>
      </trkpt>
      <trkpt lat="42.522585354745388031005859375" lon="19.84386264346539974212646484375">
        <ele>993.79998779296875</ele>
        <time>2026-06-18T13:56:50.000Z</time>
        <extensions>
          <ns3:TrackPointExtension>
            <ns3:atemp>26.0</ns3:atemp>
          </ns3:TrackPointExtension>
        </extensions>
      </trkpt>
      <trkpt lat="42.52256867475807666778564453125" lon="19.8438967578113079071044921875">
        <ele>993.79998779296875</ele>
        <time>2026-06-18T13:56:51.000Z</time>
        <extensions>
          <ns3:TrackPointExtension>
            <ns3:atemp>26.0</ns3:atemp>
          </ns3:TrackPointExtension>
        </extensions>
      </trkpt>
      <trkpt lat="42.52256783656775951385498046875" lon="19.843916706740856170654296875">
        <ele>994</ele>
        <time>2026-06-18T13:56:52.000Z</time>
        <extensions>
          <ns3:TrackPointExtension>
            <ns3:atemp>26.0</ns3:atemp>
          </ns3:TrackPointExtension>
        </extensions>
      </trkpt>
      <trkpt lat="42.52257269807159900665283203125" lon="19.8439363203942775726318359375">
        <ele>994.20001220703125</ele>
        <time>2026-06-18T13:56:53.000Z</time>
        <extensions>
          <ns3:TrackPointExtension>
            <ns3:atemp>26.0</ns3:atemp>
          </ns3:TrackPointExtension>
        </extensions>
      </trkpt>
      <trkpt lat="42.5225709378719329833984375" lon="19.843929111957550048828125">
        <ele>994.4000244140625</ele>
        <time>2026-06-18T13:56:54.000Z</time>
        <extensions>
          <ns3:TrackPointExtension>
            <ns3:atemp>26.0</ns3:atemp>
          </ns3:TrackPointExtension>
        </extensions>
      </trkpt>
      <trkpt lat="42.5225709378719329833984375" lon="19.843929111957550048828125">
        <ele>994.4000244140625</ele>
        <time>2026-06-18T13:56:55.000Z</time>
        <extensions>
          <ns3:TrackPointExtension>
            <ns3:atemp>26.0</ns3:atemp>
          </ns3:TrackPointExtension>
        </extensions>
      </trkpt>
      <trkpt lat="42.5225709378719329833984375" lon="19.843929111957550048828125">
        <ele>994.5999755859375</ele>
        <time>2026-06-18T13:56:56.000Z</time>
        <extensions>
          <ns3:TrackPointExtension>
            <ns3:atemp>26.0</ns3:atemp>
          </ns3:TrackPointExtension>
        </extensions>
      </trkpt>
      <trkpt lat="42.5225709378719329833984375" lon="19.843929111957550048828125">
        <ele>994.5999755859375</ele>
        <time>2026-06-18T13:56:57.000Z</time>
        <extensions>
          <ns3:TrackPointExtension>
            <ns3:atemp>26.0</ns3:atemp>
          </ns3:TrackPointExtension>
        </extensions>
      </trkpt>
      <trkpt lat="42.5225709378719329833984375" lon="19.843929111957550048828125">
        <ele>994.5999755859375</ele>
        <time>2026-06-18T13:56:58.000Z</time>
        <extensions>
          <ns3:TrackPointExtension>
            <ns3:atemp>26.0</ns3:atemp>
          </ns3:TrackPointExtension>
        </extensions>
      </trkpt>
      <trkpt lat="42.5225709378719329833984375" lon="19.843929111957550048828125">
        <ele>994.5999755859375</ele>
        <time>2026-06-18T13:56:59.000Z</time>
        <extensions>
          <ns3:TrackPointExtension>
            <ns3:atemp>26.0</ns3:atemp>
          </ns3:TrackPointExtension>
        </extensions>
      </trkpt>
      <trkpt lat="42.5225709378719329833984375" lon="19.843929111957550048828125">
        <ele>994.4000244140625</ele>
        <time>2026-06-18T13:57:00.000Z</time>
        <extensions>
          <ns3:TrackPointExtension>
            <ns3:atemp>26.0</ns3:atemp>
          </ns3:TrackPointExtension>
        </extensions>
      </trkpt>
      <trkpt lat="42.5225709378719329833984375" lon="19.843929111957550048828125">
        <ele>994.4000244140625</ele>
        <time>2026-06-18T13:57:01.000Z</time>
        <extensions>
          <ns3:TrackPointExtension>
            <ns3:atemp>26.0</ns3:atemp>
          </ns3:TrackPointExtension>
        </extensions>
      </trkpt>
      <trkpt lat="42.5225709378719329833984375" lon="19.843929111957550048828125">
        <ele>994.4000244140625</ele>
        <time>2026-06-18T13:57:02.000Z</time>
        <extensions>
          <ns3:TrackPointExtension>
            <ns3:atemp>26.0</ns3:atemp>
          </ns3:TrackPointExtension>
        </extensions>
      </trkpt>
      <trkpt lat="42.5225709378719329833984375" lon="19.843929111957550048828125">
        <ele>994.4000244140625</ele>
        <time>2026-06-18T13:57:03.000Z</time>
        <extensions>
          <ns3:TrackPointExtension>
            <ns3:atemp>26.0</ns3:atemp>
          </ns3:TrackPointExtension>
        </extensions>
      </trkpt>
      <trkpt lat="42.5225709378719329833984375" lon="19.843929111957550048828125">
        <ele>994.20001220703125</ele>
        <time>2026-06-18T13:57:04.000Z</time>
        <extensions>
          <ns3:TrackPointExtension>
            <ns3:atemp>26.0</ns3:atemp>
          </ns3:TrackPointExtension>
        </extensions>
      </trkpt>
      <trkpt lat="42.52257185988128185272216796875" lon="19.84393112361431121826171875">
        <ele>994.20001220703125</ele>
        <time>2026-06-18T13:57:05.000Z</time>
        <extensions>
          <ns3:TrackPointExtension>
            <ns3:atemp>26.0</ns3:atemp>
          </ns3:TrackPointExtension>
        </extensions>
      </trkpt>
      <trkpt lat="42.5225709378719329833984375" lon="19.843929111957550048828125">
        <ele>994.20001220703125</ele>
        <time>2026-06-18T13:57:06.000Z</time>
        <extensions>
          <ns3:TrackPointExtension>
            <ns3:atemp>26.0</ns3:atemp>
          </ns3:TrackPointExtension>
        </extensions>
      </trkpt>
      <trkpt lat="42.5225709378719329833984375" lon="19.843929111957550048828125">
        <ele>994.20001220703125</ele>
        <time>2026-06-18T13:57:07.000Z</time>
        <extensions>
          <ns3:TrackPointExtension>
            <ns3:atemp>26.0</ns3:atemp>
          </ns3:TrackPointExtension>
        </extensions>
      </trkpt>
      <trkpt lat="42.5225709378719329833984375" lon="19.843929111957550048828125">
        <ele>994.20001220703125</ele>
        <time>2026-06-18T13:57:08.000Z</time>
        <extensions>
          <ns3:TrackPointExtension>
            <ns3:atemp>26.0</ns3:atemp>
          </ns3:TrackPointExtension>
        </extensions>
      </trkpt>
      <trkpt lat="42.5225709378719329833984375" lon="19.843929111957550048828125">
        <ele>994.20001220703125</ele>
        <time>2026-06-18T13:57:09.000Z</time>
        <extensions>
          <ns3:TrackPointExtension>
            <ns3:atemp>26.0</ns3:atemp>
          </ns3:TrackPointExtension>
        </extensions>
      </trkpt>
      <trkpt lat="42.5225709378719329833984375" lon="19.843929111957550048828125">
        <ele>994.20001220703125</ele>
        <time>2026-06-18T13:57:10.000Z</time>
        <extensions>
          <ns3:TrackPointExtension>
            <ns3:atemp>26.0</ns3:atemp>
          </ns3:TrackPointExtension>
        </extensions>
      </trkpt>
      <trkpt lat="42.5225709378719329833984375" lon="19.843929111957550048828125">
        <ele>994.20001220703125</ele>
        <time>2026-06-18T13:57:11.000Z</time>
        <extensions>
          <ns3:TrackPointExtension>
            <ns3:atemp>26.0</ns3:atemp>
          </ns3:TrackPointExtension>
        </extensions>
      </trkpt>
      <trkpt lat="42.52257470972836017608642578125" lon="19.843944199383258819580078125">
        <ele>994</ele>
        <time>2026-06-18T13:57:12.000Z</time>
        <extensions>
          <ns3:TrackPointExtension>
            <ns3:atemp>26.0</ns3:atemp>
          </ns3:TrackPointExtension>
        </extensions>
      </trkpt>
      <trkpt lat="42.5225851871073246002197265625" lon="19.84396339394152164459228515625">
        <ele>994</ele>
        <time>2026-06-18T13:57:13.000Z</time>
        <extensions>
          <ns3:TrackPointExtension>
            <ns3:atemp>26.0</ns3:atemp>
          </ns3:TrackPointExtension>
        </extensions>
      </trkpt>
      <trkpt lat="42.522598095238208770751953125" lon="19.84397361986339092254638671875">
        <ele>994</ele>
        <time>2026-06-18T13:57:14.000Z</time>
        <extensions>
          <ns3:TrackPointExtension>
            <ns3:atemp>26.0</ns3:atemp>
          </ns3:TrackPointExtension>
        </extensions>
      </trkpt>
      <trkpt lat="42.52261159010231494903564453125" lon="19.8439706861972808837890625">
        <ele>994</ele>
        <time>2026-06-18T13:57:15.000Z</time>
        <extensions>
          <ns3:TrackPointExtension>
            <ns3:atemp>26.0</ns3:atemp>
          </ns3:TrackPointExtension>
        </extensions>
      </trkpt>
      <trkpt lat="42.52262148074805736541748046875" lon="19.8439611308276653289794921875">
        <ele>994</ele>
        <time>2026-06-18T13:57:16.000Z</time>
        <extensions>
          <ns3:TrackPointExtension>
            <ns3:atemp>26.0</ns3:atemp>
          </ns3:TrackPointExtension>
        </extensions>
      </trkpt>
      <trkpt lat="42.5226272642612457275390625" lon="19.84394730068743228912353515625">
        <ele>994</ele>
        <time>2026-06-18T13:57:17.000Z</time>
        <extensions>
          <ns3:TrackPointExtension>
            <ns3:atemp>26.0</ns3:atemp>
          </ns3:TrackPointExtension>
        </extensions>
      </trkpt>
      <trkpt lat="42.52262935973703861236572265625" lon="19.8439282737672328948974609375">
        <ele>994</ele>
        <time>2026-06-18T13:57:18.000Z</time>
        <extensions>
          <ns3:TrackPointExtension>
            <ns3:atemp>26.0</ns3:atemp>
          </ns3:TrackPointExtension>
        </extensions>
      </trkpt>
      <trkpt lat="42.52262257039546966552734375" lon="19.84391226433217525482177734375">
        <ele>993.79998779296875</ele>
        <time>2026-06-18T13:57:19.000Z</time>
        <extensions>
          <ns3:TrackPointExtension>
            <ns3:atemp>26.0</ns3:atemp>
          </ns3:TrackPointExtension>
        </extensions>
      </trkpt>
      <trkpt lat="42.52260840497910976409912109375" lon="19.84389868564903736114501953125">
        <ele>993.79998779296875</ele>
        <time>2026-06-18T13:57:20.000Z</time>
        <extensions>
          <ns3:TrackPointExtension>
            <ns3:atemp>26.0</ns3:atemp>
          </ns3:TrackPointExtension>
        </extensions>
      </trkpt>
      <trkpt lat="42.522584684193134307861328125" lon="19.84389650635421276092529296875">
        <ele>993.79998779296875</ele>
        <time>2026-06-18T13:57:21.000Z</time>
        <extensions>
          <ns3:TrackPointExtension>
            <ns3:atemp>26.0</ns3:atemp>
          </ns3:TrackPointExtension>
        </extensions>
      </trkpt>
      <trkpt lat="42.52257294952869415283203125" lon="19.8439157009124755859375">
        <ele>993.79998779296875</ele>
        <time>2026-06-18T13:57:22.000Z</time>
        <extensions>
          <ns3:TrackPointExtension>
            <ns3:atemp>26.0</ns3:atemp>
          </ns3:TrackPointExtension>
        </extensions>
      </trkpt>
      <trkpt lat="42.522561550140380859375" lon="19.84393606893718242645263671875">
        <ele>993.79998779296875</ele>
        <time>2026-06-18T13:57:23.000Z</time>
        <extensions>
          <ns3:TrackPointExtension>
            <ns3:atemp>26.0</ns3:atemp>
          </ns3:TrackPointExtension>
        </extensions>
      </trkpt>
      <trkpt lat="42.5225513242185115814208984375" lon="19.84396121464669704437255859375">
        <ele>993.79998779296875</ele>
        <time>2026-06-18T13:57:24.000Z</time>
        <extensions>
          <ns3:TrackPointExtension>
            <ns3:atemp>26.0</ns3:atemp>
          </ns3:TrackPointExtension>
        </extensions>
      </trkpt>
      <trkpt lat="42.52254134975373744964599609375" lon="19.84399013221263885498046875">
        <ele>993.79998779296875</ele>
        <time>2026-06-18T13:57:25.000Z</time>
        <extensions>
          <ns3:TrackPointExtension>
            <ns3:atemp>26.0</ns3:atemp>
          </ns3:TrackPointExtension>
        </extensions>
      </trkpt>
      <trkpt lat="42.52253062091767787933349609375" lon="19.844021983444690704345703125">
        <ele>993.79998779296875</ele>
        <time>2026-06-18T13:57:26.000Z</time>
        <extensions>
          <ns3:TrackPointExtension>
            <ns3:atemp>26.0</ns3:atemp>
          </ns3:TrackPointExtension>
        </extensions>
      </trkpt>
      <trkpt lat="42.5225253403186798095703125" lon="19.84405182301998138427734375">
        <ele>994</ele>
        <time>2026-06-18T13:57:27.000Z</time>
        <extensions>
          <ns3:TrackPointExtension>
            <ns3:atemp>26.0</ns3:atemp>
          </ns3:TrackPointExtension>
        </extensions>
      </trkpt>
      <trkpt lat="42.522519640624523162841796875" lon="19.844080992043018341064453125">
        <ele>994.20001220703125</ele>
        <time>2026-06-18T13:57:28.000Z</time>
        <extensions>
          <ns3:TrackPointExtension>
            <ns3:atemp>26.0</ns3:atemp>
          </ns3:TrackPointExtension>
        </extensions>
      </trkpt>
      <trkpt lat="42.52251394093036651611328125" lon="19.844107814133167266845703125">
        <ele>994.4000244140625</ele>
        <time>2026-06-18T13:57:29.000Z</time>
        <extensions>
          <ns3:TrackPointExtension>
            <ns3:atemp>26.0</ns3:atemp>
          </ns3:TrackPointExtension>
        </extensions>
      </trkpt>
      <trkpt lat="42.52251067198812961578369140625" lon="19.8441423475742340087890625">
        <ele>994.5999755859375</ele>
        <time>2026-06-18T13:57:30.000Z</time>
        <extensions>
          <ns3:TrackPointExtension>
            <ns3:atemp>26.0</ns3:atemp>
          </ns3:TrackPointExtension>
        </extensions>
      </trkpt>
      <trkpt lat="42.52250648103654384613037109375" lon="19.8441844247281551361083984375">
        <ele>994.79998779296875</ele>
        <time>2026-06-18T13:57:31.000Z</time>
        <extensions>
          <ns3:TrackPointExtension>
            <ns3:atemp>26.0</ns3:atemp>
          </ns3:TrackPointExtension>
        </extensions>
      </trkpt>
      <trkpt lat="42.52249457873404026031494140625" lon="19.844236560165882110595703125">
        <ele>994.79998779296875</ele>
        <time>2026-06-18T13:57:32.000Z</time>
        <extensions>
          <ns3:TrackPointExtension>
            <ns3:atemp>26.0</ns3:atemp>
          </ns3:TrackPointExtension>
        </extensions>
      </trkpt>
      <trkpt lat="42.52248468808829784393310546875" lon="19.8442920483648777008056640625">
        <ele>995</ele>
        <time>2026-06-18T13:57:33.000Z</time>
        <extensions>
          <ns3:TrackPointExtension>
            <ns3:atemp>26.0</ns3:atemp>
          </ns3:TrackPointExtension>
        </extensions>
      </trkpt>
      <trkpt lat="42.52248041331768035888671875" lon="19.8443503864109516143798828125">
        <ele>995.20001220703125</ele>
        <time>2026-06-18T13:57:34.000Z</time>
        <extensions>
          <ns3:TrackPointExtension>
            <ns3:atemp>26.0</ns3:atemp>
          </ns3:TrackPointExtension>
        </extensions>
      </trkpt>
      <trkpt lat="42.52247194759547710418701171875" lon="19.84440025873482227325439453125">
        <ele>995.4000244140625</ele>
        <time>2026-06-18T13:57:35.000Z</time>
        <extensions>
          <ns3:TrackPointExtension>
            <ns3:atemp>26.0</ns3:atemp>
          </ns3:TrackPointExtension>
        </extensions>
      </trkpt>
      <trkpt lat="42.5224695168435573577880859375" lon="19.84445105306804180145263671875">
        <ele>995.5999755859375</ele>
        <time>2026-06-18T13:57:36.000Z</time>
        <extensions>
          <ns3:TrackPointExtension>
            <ns3:atemp>26.0</ns3:atemp>
          </ns3:TrackPointExtension>
        </extensions>
      </trkpt>
      <trkpt lat="42.52246591262519359588623046875" lon="19.844500757753849029541015625">
        <ele>995.5999755859375</ele>
        <time>2026-06-18T13:57:37.000Z</time>
        <extensions>
          <ns3:TrackPointExtension>
            <ns3:atemp>26.0</ns3:atemp>
          </ns3:TrackPointExtension>
        </extensions>
      </trkpt>
      <trkpt lat="42.52245652489364147186279296875" lon="19.8445468582212924957275390625">
        <ele>996</ele>
        <time>2026-06-18T13:57:38.000Z</time>
        <extensions>
          <ns3:TrackPointExtension>
            <ns3:atemp>26.0</ns3:atemp>
          </ns3:TrackPointExtension>
        </extensions>
      </trkpt>
      <trkpt lat="42.5224473886191844940185546875" lon="19.8445968143641948699951171875">
        <ele>996.20001220703125</ele>
        <time>2026-06-18T13:57:39.000Z</time>
        <extensions>
          <ns3:TrackPointExtension>
            <ns3:atemp>26.0</ns3:atemp>
          </ns3:TrackPointExtension>
        </extensions>
      </trkpt>
      <trkpt lat="42.52243691124022006988525390625" lon="19.8446471057832241058349609375">
        <ele>996.4000244140625</ele>
        <time>2026-06-18T13:57:40.000Z</time>
        <extensions>
          <ns3:TrackPointExtension>
            <ns3:atemp>26.0</ns3:atemp>
          </ns3:TrackPointExtension>
        </extensions>
      </trkpt>
      <trkpt lat="42.5224296189844608306884765625" lon="19.84469982795417308807373046875">
        <ele>996.5999755859375</ele>
        <time>2026-06-18T13:57:41.000Z</time>
        <extensions>
          <ns3:TrackPointExtension>
            <ns3:atemp>26.0</ns3:atemp>
          </ns3:TrackPointExtension>
        </extensions>
      </trkpt>
      <trkpt lat="42.522425763309001922607421875" lon="19.844753555953502655029296875">
        <ele>996.79998779296875</ele>
        <time>2026-06-18T13:57:42.000Z</time>
        <extensions>
          <ns3:TrackPointExtension>
            <ns3:atemp>26.0</ns3:atemp>
          </ns3:TrackPointExtension>
        </extensions>
      </trkpt>
      <trkpt lat="42.52241662703454494476318359375" lon="19.84480812214314937591552734375">
        <ele>997</ele>
        <time>2026-06-18T13:57:43.000Z</time>
        <extensions>
          <ns3:TrackPointExtension>
            <ns3:atemp>26.0</ns3:atemp>
          </ns3:TrackPointExtension>
        </extensions>
      </trkpt>
      <trkpt lat="42.52240598201751708984375" lon="19.84486243687570095062255859375">
        <ele>997.20001220703125</ele>
        <time>2026-06-18T13:57:44.000Z</time>
        <extensions>
          <ns3:TrackPointExtension>
            <ns3:atemp>26.0</ns3:atemp>
          </ns3:TrackPointExtension>
        </extensions>
      </trkpt>
      <trkpt lat="42.52239768393337726593017578125" lon="19.8449166677892208099365234375">
        <ele>997.4000244140625</ele>
        <time>2026-06-18T13:57:45.000Z</time>
        <extensions>
          <ns3:TrackPointExtension>
            <ns3:atemp>26.0</ns3:atemp>
          </ns3:TrackPointExtension>
        </extensions>
      </trkpt>
      <trkpt lat="42.5223863683640956878662109375" lon="19.844973497092723846435546875">
        <ele>997.5999755859375</ele>
        <time>2026-06-18T13:57:46.000Z</time>
        <extensions>
          <ns3:TrackPointExtension>
            <ns3:atemp>26.0</ns3:atemp>
          </ns3:TrackPointExtension>
        </extensions>
      </trkpt>
      <trkpt lat="42.5223732925951480865478515625" lon="19.8450276441872119903564453125">
        <ele>997.79998779296875</ele>
        <time>2026-06-18T13:57:47.000Z</time>
        <extensions>
          <ns3:TrackPointExtension>
            <ns3:atemp>26.0</ns3:atemp>
          </ns3:TrackPointExtension>
        </extensions>
      </trkpt>
      <trkpt lat="42.52235795371234416961669921875" lon="19.8450802825391292572021484375">
        <ele>998</ele>
        <time>2026-06-18T13:57:48.000Z</time>
        <extensions>
          <ns3:TrackPointExtension>
            <ns3:atemp>26.0</ns3:atemp>
          </ns3:TrackPointExtension>
        </extensions>
      </trkpt>
      <trkpt lat="42.52234001643955707550048828125" lon="19.8451312445104122161865234375">
        <ele>998.20001220703125</ele>
        <time>2026-06-18T13:57:49.000Z</time>
        <extensions>
          <ns3:TrackPointExtension>
            <ns3:atemp>26.0</ns3:atemp>
          </ns3:TrackPointExtension>
        </extensions>
      </trkpt>
      <trkpt lat="42.52232576720416545867919921875" lon="19.84518446959555149078369140625">
        <ele>998.4000244140625</ele>
        <time>2026-06-18T13:57:50.000Z</time>
        <extensions>
          <ns3:TrackPointExtension>
            <ns3:atemp>26.0</ns3:atemp>
          </ns3:TrackPointExtension>
        </extensions>
      </trkpt>
      <trkpt lat="42.522312104701995849609375" lon="19.84523777849972248077392578125">
        <ele>998.5999755859375</ele>
        <time>2026-06-18T13:57:51.000Z</time>
        <extensions>
          <ns3:TrackPointExtension>
            <ns3:atemp>26.0</ns3:atemp>
          </ns3:TrackPointExtension>
        </extensions>
      </trkpt>
      <trkpt lat="42.52230229787528514862060546875" lon="19.845289997756481170654296875">
        <ele>998.79998779296875</ele>
        <time>2026-06-18T13:57:52.000Z</time>
        <extensions>
          <ns3:TrackPointExtension>
            <ns3:atemp>26.0</ns3:atemp>
          </ns3:TrackPointExtension>
        </extensions>
      </trkpt>
      <trkpt lat="42.522295676171779632568359375" lon="19.8453407920897006988525390625">
        <ele>999</ele>
        <time>2026-06-18T13:57:53.000Z</time>
        <extensions>
          <ns3:TrackPointExtension>
            <ns3:atemp>26.0</ns3:atemp>
          </ns3:TrackPointExtension>
        </extensions>
      </trkpt>
      <trkpt lat="42.52229341305792331695556640625" lon="19.8453927598893642425537109375">
        <ele>999.20001220703125</ele>
        <time>2026-06-18T13:57:54.000Z</time>
        <extensions>
          <ns3:TrackPointExtension>
            <ns3:atemp>26.0</ns3:atemp>
          </ns3:TrackPointExtension>
        </extensions>
      </trkpt>
      <trkpt lat="42.522295676171779632568359375" lon="19.84544900245964527130126953125">
        <ele>999.4000244140625</ele>
        <time>2026-06-18T13:57:55.000Z</time>
        <extensions>
          <ns3:TrackPointExtension>
            <ns3:atemp>26.0</ns3:atemp>
          </ns3:TrackPointExtension>
        </extensions>
      </trkpt>
      <trkpt lat="42.5222968496382236480712890625" lon="19.84550717286765575408935546875">
        <ele>999.79998779296875</ele>
        <time>2026-06-18T13:57:56.000Z</time>
        <extensions>
          <ns3:TrackPointExtension>
            <ns3:atemp>26.0</ns3:atemp>
          </ns3:TrackPointExtension>
        </extensions>
      </trkpt>
      <trkpt lat="42.52230263315141201019287109375" lon="19.84556165523827075958251953125">
        <ele>1000</ele>
        <time>2026-06-18T13:57:57.000Z</time>
        <extensions>
          <ns3:TrackPointExtension>
            <ns3:atemp>26.0</ns3:atemp>
          </ns3:TrackPointExtension>
        </extensions>
      </trkpt>
      <trkpt lat="42.52231135033071041107177734375" lon="19.8456113599240779876708984375">
        <ele>1000.4000244140625</ele>
        <time>2026-06-18T13:57:58.000Z</time>
        <extensions>
          <ns3:TrackPointExtension>
            <ns3:atemp>26.0</ns3:atemp>
          </ns3:TrackPointExtension>
        </extensions>
      </trkpt>
      <trkpt lat="42.52231989987194538116455078125" lon="19.84565570019185543060302734375">
        <ele>1000.79998779296875</ele>
        <time>2026-06-18T13:57:59.000Z</time>
        <extensions>
          <ns3:TrackPointExtension>
            <ns3:atemp>26.0</ns3:atemp>
          </ns3:TrackPointExtension>
        </extensions>
      </trkpt>
      <trkpt lat="42.522330544888973236083984375" lon="19.84570113010704517364501953125">
        <ele>1001.4000244140625</ele>
        <time>2026-06-18T13:58:00.000Z</time>
        <extensions>
          <ns3:TrackPointExtension>
            <ns3:atemp>26.0</ns3:atemp>
          </ns3:TrackPointExtension>
        </extensions>
      </trkpt>
      <trkpt lat="42.52235258929431438446044921875" lon="19.845727197825908660888671875">
        <ele>1002.20001220703125</ele>
        <time>2026-06-18T13:58:01.000Z</time>
        <extensions>
          <ns3:TrackPointExtension>
            <ns3:atemp>26.0</ns3:atemp>
          </ns3:TrackPointExtension>
        </extensions>
      </trkpt>
      <trkpt lat="42.52238209359347820281982421875" lon="19.84573449008166790008544921875">
        <ele>1003</ele>
        <time>2026-06-18T13:58:02.000Z</time>
        <extensions>
          <ns3:TrackPointExtension>
            <ns3:atemp>26.0</ns3:atemp>
          </ns3:TrackPointExtension>
        </extensions>
      </trkpt>
      <trkpt lat="42.5224041379988193511962890625" lon="19.84572242014110088348388671875">
        <ele>1003.5999755859375</ele>
        <time>2026-06-18T13:58:03.000Z</time>
        <extensions>
          <ns3:TrackPointExtension>
            <ns3:atemp>26.0</ns3:atemp>
          </ns3:TrackPointExtension>
        </extensions>
      </trkpt>
      <trkpt lat="42.5224202312529087066650390625" lon="19.84570029191672801971435546875">
        <ele>1004.20001220703125</ele>
        <time>2026-06-18T13:58:04.000Z</time>
        <extensions>
          <ns3:TrackPointExtension>
            <ns3:atemp>26.0</ns3:atemp>
          </ns3:TrackPointExtension>
        </extensions>
      </trkpt>
      <trkpt lat="42.522432468831539154052734375" lon="19.8456685245037078857421875">
        <ele>1004.79998779296875</ele>
        <time>2026-06-18T13:58:05.000Z</time>
        <extensions>
          <ns3:TrackPointExtension>
            <ns3:atemp>26.0</ns3:atemp>
          </ns3:TrackPointExtension>
        </extensions>
      </trkpt>
      <trkpt lat="42.522451914846897125244140625" lon="19.845636673271656036376953125">
        <ele>1005.4000244140625</ele>
        <time>2026-06-18T13:58:06.000Z</time>
        <extensions>
          <ns3:TrackPointExtension>
            <ns3:atemp>26.0</ns3:atemp>
          </ns3:TrackPointExtension>
        </extensions>
      </trkpt>
      <trkpt lat="42.52247370779514312744140625" lon="19.845603816211223602294921875">
        <ele>1006</ele>
        <time>2026-06-18T13:58:07.000Z</time>
        <extensions>
          <ns3:TrackPointExtension>
            <ns3:atemp>26.0</ns3:atemp>
          </ns3:TrackPointExtension>
        </extensions>
      </trkpt>
      <trkpt lat="42.522496171295642852783203125" lon="19.8455654270946979522705078125">
        <ele>1006.5999755859375</ele>
        <time>2026-06-18T13:58:08.000Z</time>
        <extensions>
          <ns3:TrackPointExtension>
            <ns3:atemp>26.0</ns3:atemp>
          </ns3:TrackPointExtension>
        </extensions>
      </trkpt>
      <trkpt lat="42.52251352183520793914794921875" lon="19.84554044902324676513671875">
        <ele>1007</ele>
        <time>2026-06-18T13:58:09.000Z</time>
        <extensions>
          <ns3:TrackPointExtension>
            <ns3:atemp>26.0</ns3:atemp>
          </ns3:TrackPointExtension>
        </extensions>
      </trkpt>
      <trkpt lat="42.52253028564155101776123046875" lon="19.84551941044628620147705078125">
        <ele>1007.5999755859375</ele>
        <time>2026-06-18T13:58:10.000Z</time>
        <extensions>
          <ns3:TrackPointExtension>
            <ns3:atemp>26.0</ns3:atemp>
          </ns3:TrackPointExtension>
        </extensions>
      </trkpt>
      <trkpt lat="42.52254436723887920379638671875" lon="19.84550197608768939971923828125">
        <ele>1008</ele>
        <time>2026-06-18T13:58:11.000Z</time>
        <extensions>
          <ns3:TrackPointExtension>
            <ns3:atemp>26.0</ns3:atemp>
          </ns3:TrackPointExtension>
        </extensions>
      </trkpt>
      <trkpt lat="42.522559203207492828369140625" lon="19.845482446253299713134765625">
        <ele>1008.5999755859375</ele>
        <time>2026-06-18T13:58:12.000Z</time>
        <extensions>
          <ns3:TrackPointExtension>
            <ns3:atemp>26.0</ns3:atemp>
          </ns3:TrackPointExtension>
        </extensions>
      </trkpt>
      <trkpt lat="42.52256783656775951385498046875" lon="19.8454614914953708648681640625">
        <ele>1008.79998779296875</ele>
        <time>2026-06-18T13:58:13.000Z</time>
        <extensions>
          <ns3:TrackPointExtension>
            <ns3:atemp>26.0</ns3:atemp>
          </ns3:TrackPointExtension>
        </extensions>
      </trkpt>
      <trkpt lat="42.52256892621517181396484375" lon="19.84544665552675724029541015625">
        <ele>1009.20001220703125</ele>
        <time>2026-06-18T13:58:14.000Z</time>
        <extensions>
          <ns3:TrackPointExtension>
            <ns3:atemp>26.0</ns3:atemp>
          </ns3:TrackPointExtension>
        </extensions>
      </trkpt>
      <trkpt lat="42.522563226521015167236328125" lon="19.8454246111214160919189453125">
        <ele>1009.4000244140625</ele>
        <time>2026-06-18T13:58:15.000Z</time>
        <extensions>
          <ns3:TrackPointExtension>
            <ns3:atemp>26.0</ns3:atemp>
          </ns3:TrackPointExtension>
        </extensions>
      </trkpt>
      <trkpt lat="42.52255878411233425140380859375" lon="19.845401309430599212646484375">
        <ele>1009.4000244140625</ele>
        <time>2026-06-18T13:58:16.000Z</time>
        <extensions>
          <ns3:TrackPointExtension>
            <ns3:atemp>26.0</ns3:atemp>
          </ns3:TrackPointExtension>
        </extensions>
      </trkpt>
      <trkpt lat="42.5225509889423847198486328125" lon="19.84537323005497455596923828125">
        <ele>1009.20001220703125</ele>
        <time>2026-06-18T13:58:17.000Z</time>
        <extensions>
          <ns3:TrackPointExtension>
            <ns3:atemp>26.0</ns3:atemp>
          </ns3:TrackPointExtension>
        </extensions>
      </trkpt>
      <trkpt lat="42.5225399248301982879638671875" lon="19.8453471623361110687255859375">
        <ele>1009</ele>
        <time>2026-06-18T13:58:18.000Z</time>
        <extensions>
          <ns3:TrackPointExtension>
            <ns3:atemp>26.0</ns3:atemp>
          </ns3:TrackPointExtension>
        </extensions>
      </trkpt>
      <trkpt lat="42.5225258432328701019287109375" lon="19.84532654285430908203125">
        <ele>1008.5999755859375</ele>
        <time>2026-06-18T13:58:19.000Z</time>
        <extensions>
          <ns3:TrackPointExtension>
            <ns3:atemp>26.0</ns3:atemp>
          </ns3:TrackPointExtension>
        </extensions>
      </trkpt>
      <trkpt lat="42.52251285128295421600341796875" lon="19.8453035764396190643310546875">
        <ele>1008.4000244140625</ele>
        <time>2026-06-18T13:58:20.000Z</time>
        <extensions>
          <ns3:TrackPointExtension>
            <ns3:atemp>26.0</ns3:atemp>
          </ns3:TrackPointExtension>
        </extensions>
      </trkpt>
      <trkpt lat="42.5225038826465606689453125" lon="19.84529234468936920166015625">
        <ele>1008</ele>
        <time>2026-06-18T13:58:21.000Z</time>
        <extensions>
          <ns3:TrackPointExtension>
            <ns3:atemp>26.0</ns3:atemp>
          </ns3:TrackPointExtension>
        </extensions>
      </trkpt>
      <trkpt lat="42.522489465773105621337890625" lon="19.84528505243360996246337890625">
        <ele>1007.79998779296875</ele>
        <time>2026-06-18T13:58:22.000Z</time>
        <extensions>
          <ns3:TrackPointExtension>
            <ns3:atemp>26.0</ns3:atemp>
          </ns3:TrackPointExtension>
        </extensions>
      </trkpt>
      <trkpt lat="42.5224752165377140045166015625" lon="19.8452834598720073699951171875">
        <ele>1007.5999755859375</ele>
        <time>2026-06-18T13:58:23.000Z</time>
        <extensions>
          <ns3:TrackPointExtension>
            <ns3:atemp>26.0</ns3:atemp>
          </ns3:TrackPointExtension>
        </extensions>
      </trkpt>
      <trkpt lat="42.52246675081551074981689453125" lon="19.84528387896716594696044921875">
        <ele>1007.4000244140625</ele>
        <time>2026-06-18T13:58:24.000Z</time>
        <extensions>
          <ns3:TrackPointExtension>
            <ns3:atemp>26.0</ns3:atemp>
          </ns3:TrackPointExtension>
        </extensions>
      </trkpt>
      <trkpt lat="42.52246163785457611083984375" lon="19.84528806991875171661376953125">
        <ele>1007.4000244140625</ele>
        <time>2026-06-18T13:58:25.000Z</time>
        <extensions>
          <ns3:TrackPointExtension>
            <ns3:atemp>26.0</ns3:atemp>
          </ns3:TrackPointExtension>
        </extensions>
      </trkpt>
      <trkpt lat="42.522464655339717864990234375" lon="19.84528806991875171661376953125">
        <ele>1007.20001220703125</ele>
        <time>2026-06-18T13:58:26.000Z</time>
        <extensions>
          <ns3:TrackPointExtension>
            <ns3:atemp>26.0</ns3:atemp>
          </ns3:TrackPointExtension>
        </extensions>
      </trkpt>
      <trkpt lat="42.52246473915874958038330078125" lon="19.84528806991875171661376953125">
        <ele>1007.20001220703125</ele>
        <time>2026-06-18T13:58:27.000Z</time>
        <extensions>
          <ns3:TrackPointExtension>
            <ns3:atemp>26.0</ns3:atemp>
          </ns3:TrackPointExtension>
        </extensions>
      </trkpt>
      <trkpt lat="42.52246473915874958038330078125" lon="19.84528806991875171661376953125">
        <ele>1007.20001220703125</ele>
        <time>2026-06-18T13:58:28.000Z</time>
        <extensions>
          <ns3:TrackPointExtension>
            <ns3:atemp>26.0</ns3:atemp>
          </ns3:TrackPointExtension>
        </extensions>
      </trkpt>
      <trkpt lat="42.52246473915874958038330078125" lon="19.84528806991875171661376953125">
        <ele>1007.20001220703125</ele>
        <time>2026-06-18T13:58:29.000Z</time>
        <extensions>
          <ns3:TrackPointExtension>
            <ns3:atemp>26.0</ns3:atemp>
          </ns3:TrackPointExtension>
        </extensions>
      </trkpt>
      <trkpt lat="42.52246473915874958038330078125" lon="19.84528806991875171661376953125">
        <ele>1007.20001220703125</ele>
        <time>2026-06-18T13:58:30.000Z</time>
        <extensions>
          <ns3:TrackPointExtension>
            <ns3:atemp>26.0</ns3:atemp>
          </ns3:TrackPointExtension>
        </extensions>
      </trkpt>
      <trkpt lat="42.52246473915874958038330078125" lon="19.84528806991875171661376953125">
        <ele>1007.20001220703125</ele>
        <time>2026-06-18T13:58:31.000Z</time>
        <extensions>
          <ns3:TrackPointExtension>
            <ns3:atemp>26.0</ns3:atemp>
          </ns3:TrackPointExtension>
        </extensions>
      </trkpt>
      <trkpt lat="42.52246473915874958038330078125" lon="19.84528806991875171661376953125">
        <ele>1007.20001220703125</ele>
        <time>2026-06-18T13:58:32.000Z</time>
        <extensions>
          <ns3:TrackPointExtension>
            <ns3:atemp>26.0</ns3:atemp>
          </ns3:TrackPointExtension>
        </extensions>
      </trkpt>
      <trkpt lat="42.52246507443487644195556640625" lon="19.84528790228068828582763671875">
        <ele>1007.20001220703125</ele>
        <time>2026-06-18T13:58:33.000Z</time>
        <extensions>
          <ns3:TrackPointExtension>
            <ns3:atemp>26.0</ns3:atemp>
          </ns3:TrackPointExtension>
        </extensions>
      </trkpt>
      <trkpt lat="42.52246406860649585723876953125" lon="19.84527893364429473876953125">
        <ele>1007.20001220703125</ele>
        <time>2026-06-18T13:58:34.000Z</time>
        <extensions>
          <ns3:TrackPointExtension>
            <ns3:atemp>26.0</ns3:atemp>
          </ns3:TrackPointExtension>
        </extensions>
      </trkpt>
      <trkpt lat="42.522473037242889404296875" lon="19.8452844657003879547119140625">
        <ele>1007.20001220703125</ele>
        <time>2026-06-18T13:58:35.000Z</time>
        <extensions>
          <ns3:TrackPointExtension>
            <ns3:atemp>26.0</ns3:atemp>
          </ns3:TrackPointExtension>
        </extensions>
      </trkpt>
      <trkpt lat="42.52246473915874958038330078125" lon="19.84528806991875171661376953125">
        <ele>1007</ele>
        <time>2026-06-18T13:58:36.000Z</time>
        <extensions>
          <ns3:TrackPointExtension>
            <ns3:atemp>26.0</ns3:atemp>
          </ns3:TrackPointExtension>
        </extensions>
      </trkpt>
      <trkpt lat="42.52246473915874958038330078125" lon="19.84528806991875171661376953125">
        <ele>1007</ele>
        <time>2026-06-18T13:58:37.000Z</time>
        <extensions>
          <ns3:TrackPointExtension>
            <ns3:atemp>26.0</ns3:atemp>
          </ns3:TrackPointExtension>
        </extensions>
      </trkpt>
    </trkseg>
  </trk>
</gpx>
